<?xml version="1.0" encoding="UTF-8" standalone="no" ?>
<gpx xmlns="http://www.topografix.com/GPX/1/1" xmlns:xsi="http://www.w3.org/2001/XMLSchema-instance" xsi:schemaLocation="http://www.topografix.com/GPX/1/1 http://www.topografix.com/GPX/1/1/gpx.xsd" version="1.1" creator="VisuGPX - https://www.visugpx.com">
  <metadata>
    <name>Défi 2024</name>
  </metadata>
  <trk>
    <name><![CDATA[Etape1: Millau - Mende]]></name>
    <extensions>
      <line xmlns="http://www.topografix.com/GPX/gpx_style/0/2">
        <color>0000FF</color>
        <opacity>0.65</opacity>
        <width>5</width>
          <extensions>
            <sens>1</sens>
          </extensions>
      </line>
    </extensions>
    <trkseg>
      <trkpt lat="44.0927" lon="3.08021">
        <ele>356.2</ele>
      </trkpt>
      <trkpt lat="44.09306" lon="3.08031">
        <ele>354.3</ele>
      </trkpt>
      <trkpt lat="44.0932" lon="3.08036">
        <ele>353.9</ele>
      </trkpt>
      <trkpt lat="44.09329" lon="3.08045">
        <ele>353.9</ele>
      </trkpt>
      <trkpt lat="44.09327" lon="3.0806">
        <ele>354.5</ele>
      </trkpt>
      <trkpt lat="44.0933" lon="3.08064">
        <ele>354.2</ele>
      </trkpt>
      <trkpt lat="44.09343" lon="3.08071">
        <ele>353</ele>
      </trkpt>
      <trkpt lat="44.09382" lon="3.08087">
        <ele>352</ele>
      </trkpt>
      <trkpt lat="44.09419" lon="3.08102">
        <ele>352.5</ele>
      </trkpt>
      <trkpt lat="44.09427" lon="3.08101">
        <ele>354.2</ele>
      </trkpt>
      <trkpt lat="44.09424" lon="3.08115">
        <ele>354</ele>
      </trkpt>
      <trkpt lat="44.09418" lon="3.08141">
        <ele>356.1</ele>
      </trkpt>
      <trkpt lat="44.09419" lon="3.08147">
        <ele>356.4</ele>
      </trkpt>
      <trkpt lat="44.0941" lon="3.08174">
        <ele>355.8</ele>
      </trkpt>
      <trkpt lat="44.09403" lon="3.08205">
        <ele>355.5</ele>
      </trkpt>
      <trkpt lat="44.09409" lon="3.08215">
        <ele>356.9</ele>
      </trkpt>
      <trkpt lat="44.09402" lon="3.08235">
        <ele>357.6</ele>
      </trkpt>
      <trkpt lat="44.09418" lon="3.08265">
        <ele>360.9</ele>
      </trkpt>
      <trkpt lat="44.09431" lon="3.08301">
        <ele>359.9</ele>
      </trkpt>
      <trkpt lat="44.09448" lon="3.08353">
        <ele>359.8</ele>
      </trkpt>
      <trkpt lat="44.09475" lon="3.08452">
        <ele>358.8</ele>
      </trkpt>
      <trkpt lat="44.09489" lon="3.08506">
        <ele>358.6</ele>
      </trkpt>
      <trkpt lat="44.09501" lon="3.08547">
        <ele>358.2</ele>
      </trkpt>
      <trkpt lat="44.09512" lon="3.08579">
        <ele>357.9</ele>
      </trkpt>
      <trkpt lat="44.09523" lon="3.08605">
        <ele>358.6</ele>
      </trkpt>
      <trkpt lat="44.09537" lon="3.08642">
        <ele>358.4</ele>
      </trkpt>
      <trkpt lat="44.09542" lon="3.08653">
        <ele>358.8</ele>
      </trkpt>
      <trkpt lat="44.09544" lon="3.08668">
        <ele>358.9</ele>
      </trkpt>
      <trkpt lat="44.09547" lon="3.08678">
        <ele>358.6</ele>
      </trkpt>
      <trkpt lat="44.09553" lon="3.08684">
        <ele>358.9</ele>
      </trkpt>
      <trkpt lat="44.09561" lon="3.08686">
        <ele>358.9</ele>
      </trkpt>
      <trkpt lat="44.0957" lon="3.08689">
        <ele>358.9</ele>
      </trkpt>
      <trkpt lat="44.0961" lon="3.0872">
        <ele>358.8</ele>
      </trkpt>
      <trkpt lat="44.09638" lon="3.08737">
        <ele>359</ele>
      </trkpt>
      <trkpt lat="44.09661" lon="3.08748">
        <ele>358.9</ele>
      </trkpt>
      <trkpt lat="44.09709" lon="3.0876">
        <ele>357.9</ele>
      </trkpt>
      <trkpt lat="44.09745" lon="3.08764">
        <ele>356.6</ele>
      </trkpt>
      <trkpt lat="44.09773" lon="3.08763">
        <ele>356.2</ele>
      </trkpt>
      <trkpt lat="44.098" lon="3.08763">
        <ele>355.9</ele>
      </trkpt>
      <trkpt lat="44.0984" lon="3.08757">
        <ele>356.9</ele>
      </trkpt>
      <trkpt lat="44.09869" lon="3.08748">
        <ele>356.6</ele>
      </trkpt>
      <trkpt lat="44.09915" lon="3.08734">
        <ele>356.2</ele>
      </trkpt>
      <trkpt lat="44.09953" lon="3.08721">
        <ele>356.8</ele>
      </trkpt>
      <trkpt lat="44.09979" lon="3.08708">
        <ele>356.2</ele>
      </trkpt>
      <trkpt lat="44.10026" lon="3.08683">
        <ele>355.8</ele>
      </trkpt>
      <trkpt lat="44.10048" lon="3.08669">
        <ele>358.4</ele>
      </trkpt>
      <trkpt lat="44.10071" lon="3.08654">
        <ele>357.4</ele>
      </trkpt>
      <trkpt lat="44.10091" lon="3.08643">
        <ele>358.5</ele>
      </trkpt>
      <trkpt lat="44.10119" lon="3.0863">
        <ele>358</ele>
      </trkpt>
      <trkpt lat="44.10135" lon="3.08624">
        <ele>358</ele>
      </trkpt>
      <trkpt lat="44.10149" lon="3.0862">
        <ele>358.4</ele>
      </trkpt>
      <trkpt lat="44.10162" lon="3.08616">
        <ele>358.9</ele>
      </trkpt>
      <trkpt lat="44.10176" lon="3.08608">
        <ele>358.7</ele>
      </trkpt>
      <trkpt lat="44.10182" lon="3.08604">
        <ele>358.5</ele>
      </trkpt>
      <trkpt lat="44.10187" lon="3.08606">
        <ele>357.3</ele>
      </trkpt>
      <trkpt lat="44.1019" lon="3.08613">
        <ele>359.39999389648</ele>
        <time>2024-01-30T07:39:47.000Z</time>
        <extensions>
          <gpxtpx:TrackPointExtension xmlns:gpxtpx="http://www.garmin.com/xmlschemas/TrackPointExtension/v1">
            <gpxtpx:hr>68</gpxtpx:hr>
          </gpxtpx:TrackPointExtension>
        </extensions>
      </trkpt>
      <trkpt lat="44.10198" lon="3.0866">
        <ele>360.39999389648</ele>
        <time>2024-01-30T07:39:52.000Z</time>
      </trkpt>
      <trkpt lat="44.10199" lon="3.08672">
        <ele>360.60000610352</ele>
        <time>2024-01-30T07:39:53.000Z</time>
      </trkpt>
      <trkpt lat="44.10203" lon="3.08707">
        <ele>360.39999389648</ele>
        <time>2024-01-30T07:39:56.000Z</time>
      </trkpt>
      <trkpt lat="44.10207" lon="3.08718">
        <ele>360</ele>
        <time>2024-01-30T07:39:57.000Z</time>
      </trkpt>
      <trkpt lat="44.10212" lon="3.08727">
        <ele>359.39999389648</ele>
        <time>2024-01-30T07:39:58.000Z</time>
      </trkpt>
      <trkpt lat="44.10219" lon="3.08734">
        <ele>359</ele>
        <time>2024-01-30T07:39:59.000Z</time>
      </trkpt>
      <trkpt lat="44.10227" lon="3.08741">
        <ele>358.60000610352</ele>
        <time>2024-01-30T07:40:00.000Z</time>
      </trkpt>
      <trkpt lat="44.10241" lon="3.08753">
        <ele>357.60000610352</ele>
        <time>2024-01-30T07:40:02.000Z</time>
      </trkpt>
      <trkpt lat="44.10257" lon="3.08768">
        <ele>356.79998779297</ele>
        <time>2024-01-30T07:40:05.000Z</time>
      </trkpt>
      <trkpt lat="44.10261" lon="3.08773">
        <ele>356.60000610352</ele>
        <time>2024-01-30T07:40:06.000Z</time>
      </trkpt>
      <trkpt lat="44.10265" lon="3.08779">
        <ele>356.39999389648</ele>
        <time>2024-01-30T07:40:07.000Z</time>
      </trkpt>
      <trkpt lat="44.10275" lon="3.08795">
        <ele>356.20001220703</ele>
        <time>2024-01-30T07:40:10.000Z</time>
      </trkpt>
      <trkpt lat="44.10301" lon="3.08843">
        <ele>356.20001220703</ele>
        <time>2024-01-30T07:40:18.000Z</time>
      </trkpt>
      <trkpt lat="44.10313" lon="3.08868">
        <ele>355.39999389648</ele>
        <time>2024-01-30T07:40:24.000Z</time>
      </trkpt>
      <trkpt lat="44.10309" lon="3.08909">
        <ele>357.1</ele>
      </trkpt>
      <trkpt lat="44.10321" lon="3.08926">
        <ele>357.6</ele>
      </trkpt>
      <trkpt lat="44.10345" lon="3.08917">
        <ele>358</ele>
      </trkpt>
      <trkpt lat="44.10365" lon="3.08881">
        <ele>358</ele>
      </trkpt>
      <trkpt lat="44.10373" lon="3.08879">
        <ele>356.39999389648</ele>
        <time>2024-01-30T07:41:06.000Z</time>
      </trkpt>
      <trkpt lat="44.10378" lon="3.08876">
        <ele>356.39999389648</ele>
        <time>2024-01-30T07:41:07.000Z</time>
      </trkpt>
      <trkpt lat="44.10406" lon="3.08867">
        <ele>356.60000610352</ele>
        <time>2024-01-30T07:41:12.000Z</time>
      </trkpt>
      <trkpt lat="44.1045" lon="3.08867">
        <ele>357</ele>
        <time>2024-01-30T07:41:18.000Z</time>
      </trkpt>
      <trkpt lat="44.10498" lon="3.08863">
        <ele>357.39999389648</ele>
        <time>2024-01-30T07:41:24.000Z</time>
      </trkpt>
      <trkpt lat="44.10549" lon="3.08846">
        <ele>357.39999389648</ele>
        <time>2024-01-30T07:41:30.000Z</time>
      </trkpt>
      <trkpt lat="44.10557" lon="3.08842">
        <ele>357.60000610352</ele>
        <time>2024-01-30T07:41:31.000Z</time>
      </trkpt>
      <trkpt lat="44.10608" lon="3.08818">
        <ele>357.20001220703</ele>
        <time>2024-01-30T07:41:37.000Z</time>
      </trkpt>
      <trkpt lat="44.10633" lon="3.08806">
        <ele>357.20001220703</ele>
        <time>2024-01-30T07:41:40.000Z</time>
      </trkpt>
      <trkpt lat="44.10658" lon="3.08799">
        <ele>357.20001220703</ele>
        <time>2024-01-30T07:41:43.000Z</time>
      </trkpt>
      <trkpt lat="44.10718" lon="3.08786">
        <ele>357.60000610352</ele>
        <time>2024-01-30T07:41:50.000Z</time>
      </trkpt>
      <trkpt lat="44.10727" lon="3.08786">
        <ele>357.79998779297</ele>
        <time>2024-01-30T07:41:51.000Z</time>
      </trkpt>
      <trkpt lat="44.10784" lon="3.08785">
        <ele>358.39999389648</ele>
        <time>2024-01-30T07:41:57.000Z</time>
      </trkpt>
      <trkpt lat="44.10793" lon="3.08785">
        <ele>358.79998779297</ele>
        <time>2024-01-30T07:41:58.000Z</time>
      </trkpt>
      <trkpt lat="44.10822" lon="3.08783">
        <ele>359.20001220703</ele>
        <time>2024-01-30T07:42:01.000Z</time>
      </trkpt>
      <trkpt lat="44.10853" lon="3.08778">
        <ele>359.39999389648</ele>
        <time>2024-01-30T07:42:04.000Z</time>
      </trkpt>
      <trkpt lat="44.10907" lon="3.08768">
        <ele>359.39999389648</ele>
        <time>2024-01-30T07:42:09.000Z</time>
      </trkpt>
      <trkpt lat="44.1093" lon="3.08762">
        <ele>359.60000610352</ele>
        <time>2024-01-30T07:42:11.000Z</time>
      </trkpt>
      <trkpt lat="44.10964" lon="3.08751">
        <ele>359.79998779297</ele>
        <time>2024-01-30T07:42:14.000Z</time>
      </trkpt>
      <trkpt lat="44.10997" lon="3.08739">
        <ele>360.20001220703</ele>
        <time>2024-01-30T07:42:17.000Z</time>
      </trkpt>
      <trkpt lat="44.11049" lon="3.08717">
        <ele>360.39999389648</ele>
        <time>2024-01-30T07:42:22.000Z</time>
      </trkpt>
      <trkpt lat="44.11097" lon="3.08684">
        <ele>360.39999389648</ele>
        <time>2024-01-30T07:42:27.000Z</time>
      </trkpt>
      <trkpt lat="44.11152" lon="3.08644">
        <ele>360.20001220703</ele>
        <time>2024-01-30T07:42:33.000Z</time>
      </trkpt>
      <trkpt lat="44.11172" lon="3.08635">
        <ele>360</ele>
        <time>2024-01-30T07:42:35.000Z</time>
      </trkpt>
      <trkpt lat="44.11182" lon="3.08633">
        <ele>360</ele>
        <time>2024-01-30T07:42:36.000Z</time>
      </trkpt>
      <trkpt lat="44.11215" lon="3.08629">
        <ele>360</ele>
        <time>2024-01-30T07:42:39.000Z</time>
      </trkpt>
      <trkpt lat="44.11269" lon="3.08629">
        <ele>360.20001220703</ele>
        <time>2024-01-30T07:42:43.000Z</time>
      </trkpt>
      <trkpt lat="44.11329" lon="3.08636">
        <ele>360.20001220703</ele>
        <time>2024-01-30T07:42:48.000Z</time>
      </trkpt>
      <trkpt lat="44.11372" lon="3.08655">
        <ele>360.20001220703</ele>
        <time>2024-01-30T07:42:52.000Z</time>
      </trkpt>
      <trkpt lat="44.11392" lon="3.08663">
        <ele>360.20001220703</ele>
        <time>2024-01-30T07:42:54.000Z</time>
      </trkpt>
      <trkpt lat="44.11414" lon="3.08668">
        <ele>360.39999389648</ele>
        <time>2024-01-30T07:42:56.000Z</time>
      </trkpt>
      <trkpt lat="44.11472" lon="3.08689">
        <ele>360.79998779297</ele>
        <time>2024-01-30T07:43:02.000Z</time>
      </trkpt>
      <trkpt lat="44.11527" lon="3.08723">
        <ele>360.60000610352</ele>
        <time>2024-01-30T07:43:08.000Z</time>
      </trkpt>
      <trkpt lat="44.11556" lon="3.08741">
        <ele>361</ele>
        <time>2024-01-30T07:43:11.000Z</time>
      </trkpt>
      <trkpt lat="44.11594" lon="3.08764">
        <ele>361.39999389648</ele>
        <time>2024-01-30T07:43:15.000Z</time>
      </trkpt>
      <trkpt lat="44.11645" lon="3.08795">
        <ele>361.79998779297</ele>
        <time>2024-01-30T07:43:19.000Z</time>
      </trkpt>
      <trkpt lat="44.11695" lon="3.08829">
        <ele>361.79998779297</ele>
        <time>2024-01-30T07:43:23.000Z</time>
      </trkpt>
      <trkpt lat="44.11729" lon="3.08854">
        <ele>361.60000610352</ele>
        <time>2024-01-30T07:43:26.000Z</time>
      </trkpt>
      <trkpt lat="44.11771" lon="3.08897">
        <ele>361.60000610352</ele>
        <time>2024-01-30T07:43:30.000Z</time>
      </trkpt>
      <trkpt lat="44.11817" lon="3.08956">
        <ele>361.79998779297</ele>
        <time>2024-01-30T07:43:35.000Z</time>
      </trkpt>
      <trkpt lat="44.11835" lon="3.08979">
        <ele>361.79998779297</ele>
        <time>2024-01-30T07:43:37.000Z</time>
      </trkpt>
      <trkpt lat="44.11876" lon="3.09039">
        <ele>361.79998779297</ele>
        <time>2024-01-30T07:43:42.000Z</time>
      </trkpt>
      <trkpt lat="44.11885" lon="3.09051">
        <ele>362</ele>
        <time>2024-01-30T07:43:43.000Z</time>
      </trkpt>
      <trkpt lat="44.11929" lon="3.09113">
        <ele>362.20001220703</ele>
        <time>2024-01-30T07:43:48.000Z</time>
      </trkpt>
      <trkpt lat="44.11946" lon="3.09138">
        <ele>362.39999389648</ele>
        <time>2024-01-30T07:43:50.000Z</time>
      </trkpt>
      <trkpt lat="44.11973" lon="3.09173">
        <ele>363.20001220703</ele>
        <time>2024-01-30T07:43:53.000Z</time>
      </trkpt>
      <trkpt lat="44.1198" lon="3.09185">
        <ele>363.39999389648</ele>
        <time>2024-01-30T07:43:54.000Z</time>
      </trkpt>
      <trkpt lat="44.12007" lon="3.09244">
        <ele>364</ele>
        <time>2024-01-30T07:43:59.000Z</time>
      </trkpt>
      <trkpt lat="44.12013" lon="3.09257">
        <ele>364.79998779297</ele>
        <time>2024-01-30T07:44:00.000Z</time>
      </trkpt>
      <trkpt lat="44.12036" lon="3.09292">
        <ele>366</ele>
        <time>2024-01-30T07:44:03.000Z</time>
      </trkpt>
      <trkpt lat="44.12072" lon="3.09345">
        <ele>366.60000610352</ele>
        <time>2024-01-30T07:44:07.000Z</time>
      </trkpt>
      <trkpt lat="44.12097" lon="3.09389">
        <ele>367</ele>
        <time>2024-01-30T07:44:10.000Z</time>
      </trkpt>
      <trkpt lat="44.12116" lon="3.09425">
        <ele>367.20001220703</ele>
        <time>2024-01-30T07:44:12.000Z</time>
      </trkpt>
      <trkpt lat="44.1215" lon="3.09489">
        <ele>367.39999389648</ele>
        <time>2024-01-30T07:44:16.000Z</time>
      </trkpt>
      <trkpt lat="44.1217" lon="3.09521">
        <ele>367.60000610352</ele>
        <time>2024-01-30T07:44:18.000Z</time>
      </trkpt>
      <trkpt lat="44.12215" lon="3.09579">
        <ele>367.39999389648</ele>
        <time>2024-01-30T07:44:22.000Z</time>
      </trkpt>
      <trkpt lat="44.12226" lon="3.09593">
        <ele>367.39999389648</ele>
        <time>2024-01-30T07:44:23.000Z</time>
      </trkpt>
      <trkpt lat="44.12273" lon="3.09649">
        <ele>367.79998779297</ele>
        <time>2024-01-30T07:44:27.000Z</time>
      </trkpt>
      <trkpt lat="44.12285" lon="3.09664">
        <ele>368</ele>
        <time>2024-01-30T07:44:28.000Z</time>
      </trkpt>
      <trkpt lat="44.12332" lon="3.09722">
        <ele>368</ele>
        <time>2024-01-30T07:44:32.000Z</time>
      </trkpt>
      <trkpt lat="44.12343" lon="3.09738">
        <ele>368</ele>
        <time>2024-01-30T07:44:33.000Z</time>
      </trkpt>
      <trkpt lat="44.12355" lon="3.09758">
        <ele>368.20001220703</ele>
        <time>2024-01-30T07:44:34.000Z</time>
      </trkpt>
      <trkpt lat="44.1237" lon="3.09791">
        <ele>368.39999389648</ele>
        <time>2024-01-30T07:44:36.000Z</time>
      </trkpt>
      <trkpt lat="44.12393" lon="3.09868">
        <ele>368.60000610352</ele>
        <time>2024-01-30T07:44:40.000Z</time>
      </trkpt>
      <trkpt lat="44.12404" lon="3.0991">
        <ele>368.79998779297</ele>
        <time>2024-01-30T07:44:42.000Z</time>
      </trkpt>
      <trkpt lat="44.12412" lon="3.09928">
        <ele>368.79998779297</ele>
        <time>2024-01-30T07:44:43.000Z</time>
      </trkpt>
      <trkpt lat="44.1242" lon="3.09946">
        <ele>369</ele>
        <time>2024-01-30T07:44:44.000Z</time>
      </trkpt>
      <trkpt lat="44.1243" lon="3.09964">
        <ele>369</ele>
        <time>2024-01-30T07:44:45.000Z</time>
      </trkpt>
      <trkpt lat="44.1244" lon="3.0998">
        <ele>369.20001220703</ele>
        <time>2024-01-30T07:44:46.000Z</time>
      </trkpt>
      <trkpt lat="44.12478" lon="3.10019">
        <ele>369.20001220703</ele>
        <time>2024-01-30T07:44:49.000Z</time>
      </trkpt>
      <trkpt lat="44.12536" lon="3.10054">
        <ele>369</ele>
        <time>2024-01-30T07:44:53.000Z</time>
      </trkpt>
      <trkpt lat="44.12553" lon="3.1006">
        <ele>369</ele>
        <time>2024-01-30T07:44:54.000Z</time>
      </trkpt>
      <trkpt lat="44.12586" lon="3.10067">
        <ele>368.79998779297</ele>
        <time>2024-01-30T07:44:56.000Z</time>
      </trkpt>
      <trkpt lat="44.12646" lon="3.10072">
        <ele>368.60000610352</ele>
        <time>2024-01-30T07:45:00.000Z</time>
      </trkpt>
      <trkpt lat="44.12706" lon="3.10068">
        <ele>369.39999389648</ele>
        <time>2024-01-30T07:45:04.000Z</time>
      </trkpt>
      <trkpt lat="44.1272" lon="3.10067">
        <ele>369.79998779297</ele>
        <time>2024-01-30T07:45:05.000Z</time>
      </trkpt>
      <trkpt lat="44.12766" lon="3.10063">
        <ele>370.20001220703</ele>
        <time>2024-01-30T07:45:08.000Z</time>
      </trkpt>
      <trkpt lat="44.12781" lon="3.10059">
        <ele>370.20001220703</ele>
        <time>2024-01-30T07:45:09.000Z</time>
      </trkpt>
      <trkpt lat="44.12842" lon="3.10035">
        <ele>370.60000610352</ele>
        <time>2024-01-30T07:45:13.000Z</time>
      </trkpt>
      <trkpt lat="44.12861" lon="3.10027">
        <ele>370.60000610352</ele>
        <time>2024-01-30T07:45:14.000Z</time>
      </trkpt>
      <trkpt lat="44.12923" lon="3.10005">
        <ele>370.60000610352</ele>
        <time>2024-01-30T07:45:18.000Z</time>
      </trkpt>
      <trkpt lat="44.12938" lon="3.09999">
        <ele>370.60000610352</ele>
        <time>2024-01-30T07:45:19.000Z</time>
      </trkpt>
      <trkpt lat="44.12969" lon="3.09989">
        <ele>370.39999389648</ele>
        <time>2024-01-30T07:45:21.000Z</time>
      </trkpt>
      <trkpt lat="44.13018" lon="3.09984">
        <ele>370</ele>
        <time>2024-01-30T07:45:24.000Z</time>
      </trkpt>
      <trkpt lat="44.13052" lon="3.09986">
        <ele>369</ele>
        <time>2024-01-30T07:45:26.000Z</time>
      </trkpt>
      <trkpt lat="44.13117" lon="3.09991">
        <ele>369</ele>
        <time>2024-01-30T07:45:30.000Z</time>
      </trkpt>
      <trkpt lat="44.1318" lon="3.10005">
        <ele>368.79998779297</ele>
        <time>2024-01-30T07:45:34.000Z</time>
      </trkpt>
      <trkpt lat="44.13242" lon="3.10032">
        <ele>368.20001220703</ele>
        <time>2024-01-30T07:45:38.000Z</time>
      </trkpt>
      <trkpt lat="44.13257" lon="3.1004">
        <ele>368</ele>
        <time>2024-01-30T07:45:39.000Z</time>
      </trkpt>
      <trkpt lat="44.13272" lon="3.10048">
        <ele>368</ele>
        <time>2024-01-30T07:45:40.000Z</time>
      </trkpt>
      <trkpt lat="44.13312" lon="3.1008">
        <ele>368.20001220703</ele>
        <time>2024-01-30T07:45:43.000Z</time>
      </trkpt>
      <trkpt lat="44.13366" lon="3.1012">
        <ele>368.79998779297</ele>
        <time>2024-01-30T07:45:47.000Z</time>
      </trkpt>
      <trkpt lat="44.13391" lon="3.10132">
        <ele>369.20001220703</ele>
        <time>2024-01-30T07:45:49.000Z</time>
      </trkpt>
      <trkpt lat="44.13434" lon="3.10146">
        <ele>369.39999389648</ele>
        <time>2024-01-30T07:45:52.000Z</time>
      </trkpt>
      <trkpt lat="44.13494" lon="3.10148">
        <ele>370.20001220703</ele>
        <time>2024-01-30T07:45:56.000Z</time>
      </trkpt>
      <trkpt lat="44.1355" lon="3.10147">
        <ele>370.60000610352</ele>
        <time>2024-01-30T07:46:00.000Z</time>
      </trkpt>
      <trkpt lat="44.13579" lon="3.10149">
        <ele>371</ele>
        <time>2024-01-30T07:46:02.000Z</time>
      </trkpt>
      <trkpt lat="44.13594" lon="3.10151">
        <ele>371.20001220703</ele>
        <time>2024-01-30T07:46:03.000Z</time>
      </trkpt>
      <trkpt lat="44.13651" lon="3.10158">
        <ele>372.20001220703</ele>
        <time>2024-01-30T07:46:07.000Z</time>
      </trkpt>
      <trkpt lat="44.13706" lon="3.10166">
        <ele>373.20001220703</ele>
        <time>2024-01-30T07:46:11.000Z</time>
      </trkpt>
      <trkpt lat="44.13759" lon="3.10186">
        <ele>374</ele>
        <time>2024-01-30T07:46:15.000Z</time>
      </trkpt>
      <trkpt lat="44.1382" lon="3.10222">
        <ele>373.79998779297</ele>
        <time>2024-01-30T07:46:20.000Z</time>
      </trkpt>
      <trkpt lat="44.13871" lon="3.10245">
        <ele>374.20001220703</ele>
        <time>2024-01-30T07:46:24.000Z</time>
      </trkpt>
      <trkpt lat="44.13882" lon="3.10249">
        <ele>374.39999389648</ele>
        <time>2024-01-30T07:46:25.000Z</time>
      </trkpt>
      <trkpt lat="44.13919" lon="3.10268">
        <ele>374.60000610352</ele>
        <time>2024-01-30T07:46:28.000Z</time>
      </trkpt>
      <trkpt lat="44.13931" lon="3.10277">
        <ele>374.79998779297</ele>
        <time>2024-01-30T07:46:29.000Z</time>
      </trkpt>
      <trkpt lat="44.13982" lon="3.10309">
        <ele>375</ele>
        <time>2024-01-30T07:46:33.000Z</time>
      </trkpt>
      <trkpt lat="44.13999" lon="3.10315">
        <ele>375.39999389648</ele>
        <time>2024-01-30T07:46:34.000Z</time>
      </trkpt>
      <trkpt lat="44.14041" lon="3.10326">
        <ele>376.60000610352</ele>
        <time>2024-01-30T07:46:37.000Z</time>
      </trkpt>
      <trkpt lat="44.1408" lon="3.1033">
        <ele>377.60000610352</ele>
        <time>2024-01-30T07:46:40.000Z</time>
      </trkpt>
      <trkpt lat="44.14094" lon="3.10329">
        <ele>378</ele>
        <time>2024-01-30T07:46:41.000Z</time>
      </trkpt>
      <trkpt lat="44.14121" lon="3.10324">
        <ele>379.20001220703</ele>
        <time>2024-01-30T07:46:43.000Z</time>
      </trkpt>
      <trkpt lat="44.14147" lon="3.10318">
        <ele>379.79998779297</ele>
        <time>2024-01-30T07:46:45.000Z</time>
      </trkpt>
      <trkpt lat="44.14172" lon="3.1031">
        <ele>380.79998779297</ele>
        <time>2024-01-30T07:46:47.000Z</time>
      </trkpt>
      <trkpt lat="44.14209" lon="3.10307">
        <ele>381.79998779297</ele>
        <time>2024-01-30T07:46:50.000Z</time>
      </trkpt>
      <trkpt lat="44.14249" lon="3.10319">
        <ele>382.60000610352</ele>
        <time>2024-01-30T07:46:53.000Z</time>
      </trkpt>
      <trkpt lat="44.14273" lon="3.10333">
        <ele>383</ele>
        <time>2024-01-30T07:46:55.000Z</time>
      </trkpt>
      <trkpt lat="44.14284" lon="3.10342">
        <ele>383</ele>
        <time>2024-01-30T07:46:56.000Z</time>
      </trkpt>
      <trkpt lat="44.14328" lon="3.10382">
        <ele>383.79998779297</ele>
        <time>2024-01-30T07:47:00.000Z</time>
      </trkpt>
      <trkpt lat="44.14353" lon="3.10393">
        <ele>383.79998779297</ele>
        <time>2024-01-30T07:47:02.000Z</time>
      </trkpt>
      <trkpt lat="44.14367" lon="3.10396">
        <ele>384.20001220703</ele>
        <time>2024-01-30T07:47:03.000Z</time>
      </trkpt>
      <trkpt lat="44.14427" lon="3.10396">
        <ele>384.79998779297</ele>
        <time>2024-01-30T07:47:07.000Z</time>
      </trkpt>
      <trkpt lat="44.14485" lon="3.10381">
        <ele>384.79998779297</ele>
        <time>2024-01-30T07:47:11.000Z</time>
      </trkpt>
      <trkpt lat="44.14511" lon="3.10367">
        <ele>384.79998779297</ele>
        <time>2024-01-30T07:47:13.000Z</time>
      </trkpt>
      <trkpt lat="44.14523" lon="3.10357">
        <ele>384.79998779297</ele>
        <time>2024-01-30T07:47:14.000Z</time>
      </trkpt>
      <trkpt lat="44.14533" lon="3.10345">
        <ele>384.79998779297</ele>
        <time>2024-01-30T07:47:15.000Z</time>
      </trkpt>
      <trkpt lat="44.14553" lon="3.10318">
        <ele>384.79998779297</ele>
        <time>2024-01-30T07:47:17.000Z</time>
      </trkpt>
      <trkpt lat="44.14563" lon="3.10308">
        <ele>384.79998779297</ele>
        <time>2024-01-30T07:47:18.000Z</time>
      </trkpt>
      <trkpt lat="44.14585" lon="3.10292">
        <ele>385</ele>
        <time>2024-01-30T07:47:20.000Z</time>
      </trkpt>
      <trkpt lat="44.14608" lon="3.10288">
        <ele>385.20001220703</ele>
        <time>2024-01-30T07:47:22.000Z</time>
      </trkpt>
      <trkpt lat="44.1462" lon="3.10289">
        <ele>385.20001220703</ele>
        <time>2024-01-30T07:47:23.000Z</time>
      </trkpt>
      <trkpt lat="44.14658" lon="3.10299">
        <ele>385.39999389648</ele>
        <time>2024-01-30T07:47:26.000Z</time>
      </trkpt>
      <trkpt lat="44.14711" lon="3.10325">
        <ele>385</ele>
        <time>2024-01-30T07:47:30.000Z</time>
      </trkpt>
      <trkpt lat="44.1474" lon="3.10333">
        <ele>384.79998779297</ele>
        <time>2024-01-30T07:47:32.000Z</time>
      </trkpt>
      <trkpt lat="44.14754" lon="3.10334">
        <ele>384.79998779297</ele>
        <time>2024-01-30T07:47:33.000Z</time>
      </trkpt>
      <trkpt lat="44.14768" lon="3.10333">
        <ele>384.79998779297</ele>
        <time>2024-01-30T07:47:34.000Z</time>
      </trkpt>
      <trkpt lat="44.14793" lon="3.10325">
        <ele>385</ele>
        <time>2024-01-30T07:47:36.000Z</time>
      </trkpt>
      <trkpt lat="44.14836" lon="3.10311">
        <ele>386</ele>
        <time>2024-01-30T07:47:40.000Z</time>
      </trkpt>
      <trkpt lat="44.14846" lon="3.10308">
        <ele>386.20001220703</ele>
        <time>2024-01-30T07:47:41.000Z</time>
      </trkpt>
      <trkpt lat="44.14901" lon="3.10294">
        <ele>387.20001220703</ele>
        <time>2024-01-30T07:47:46.000Z</time>
      </trkpt>
      <trkpt lat="44.14913" lon="3.1029">
        <ele>387.60000610352</ele>
        <time>2024-01-30T07:47:47.000Z</time>
      </trkpt>
      <trkpt lat="44.14955" lon="3.10265">
        <ele>387.79998779297</ele>
        <time>2024-01-30T07:47:51.000Z</time>
      </trkpt>
      <trkpt lat="44.15014" lon="3.10245">
        <ele>387.79998779297</ele>
        <time>2024-01-30T07:47:56.000Z</time>
      </trkpt>
      <trkpt lat="44.15049" lon="3.10245">
        <ele>387.39999389648</ele>
        <time>2024-01-30T07:47:59.000Z</time>
      </trkpt>
      <trkpt lat="44.15069" lon="3.10255">
        <ele>387.20001220703</ele>
        <time>2024-01-30T07:48:01.000Z</time>
      </trkpt>
      <trkpt lat="44.15078" lon="3.10262">
        <ele>387</ele>
        <time>2024-01-30T07:48:02.000Z</time>
      </trkpt>
      <trkpt lat="44.15087" lon="3.10268">
        <ele>387</ele>
        <time>2024-01-30T07:48:03.000Z</time>
      </trkpt>
      <trkpt lat="44.15103" lon="3.10274">
        <ele>387</ele>
        <time>2024-01-30T07:48:05.000Z</time>
      </trkpt>
      <trkpt lat="44.15117" lon="3.1027">
        <ele>387</ele>
        <time>2024-01-30T07:48:07.000Z</time>
      </trkpt>
      <trkpt lat="44.15122" lon="3.10265">
        <ele>387.20001220703</ele>
        <time>2024-01-30T07:48:08.000Z</time>
      </trkpt>
      <trkpt lat="44.15127" lon="3.10262">
        <ele>387.39999389648</ele>
        <time>2024-01-30T07:48:09.000Z</time>
      </trkpt>
      <trkpt lat="44.1514" lon="3.10259">
        <ele>388.20001220703</ele>
        <time>2024-01-30T07:48:11.000Z</time>
      </trkpt>
      <trkpt lat="44.15147" lon="3.10258">
        <ele>388.60000610352</ele>
        <time>2024-01-30T07:48:12.000Z</time>
      </trkpt>
      <trkpt lat="44.15153" lon="3.10257">
        <ele>389.39999389648</ele>
        <time>2024-01-30T07:48:13.000Z</time>
      </trkpt>
      <trkpt lat="44.15167" lon="3.10257">
        <ele>390.39999389648</ele>
        <time>2024-01-30T07:48:15.000Z</time>
      </trkpt>
      <trkpt lat="44.15174" lon="3.10258">
        <ele>391</ele>
        <time>2024-01-30T07:48:16.000Z</time>
      </trkpt>
      <trkpt lat="44.1518" lon="3.10261">
        <ele>391.20001220703</ele>
        <time>2024-01-30T07:48:17.000Z</time>
      </trkpt>
      <trkpt lat="44.1519" lon="3.10266">
        <ele>391.20001220703</ele>
        <time>2024-01-30T07:48:19.000Z</time>
      </trkpt>
      <trkpt lat="44.15197" lon="3.10267">
        <ele>391.20001220703</ele>
        <time>2024-01-30T07:48:21.000Z</time>
      </trkpt>
      <trkpt lat="44.15213" lon="3.10263">
        <ele>390</ele>
        <time>2024-01-30T07:48:26.000Z</time>
      </trkpt>
      <trkpt lat="44.15231" lon="3.10269">
        <ele>388.79998779297</ele>
        <time>2024-01-30T07:48:29.000Z</time>
      </trkpt>
      <trkpt lat="44.15237" lon="3.10274">
        <ele>388.79998779297</ele>
        <time>2024-01-30T07:48:30.000Z</time>
      </trkpt>
      <trkpt lat="44.15248" lon="3.10286">
        <ele>388.79998779297</ele>
        <time>2024-01-30T07:48:32.000Z</time>
      </trkpt>
      <trkpt lat="44.15256" lon="3.10301">
        <ele>390</ele>
        <time>2024-01-30T07:48:34.000Z</time>
      </trkpt>
      <trkpt lat="44.15266" lon="3.10318">
        <ele>391.20001220703</ele>
        <time>2024-01-30T07:48:36.000Z</time>
      </trkpt>
      <trkpt lat="44.15274" lon="3.10332">
        <ele>392.20001220703</ele>
        <time>2024-01-30T07:48:38.000Z</time>
      </trkpt>
      <trkpt lat="44.15277" lon="3.10338">
        <ele>392.39999389648</ele>
        <time>2024-01-30T07:48:39.000Z</time>
      </trkpt>
      <trkpt lat="44.15278" lon="3.10344">
        <ele>392.39999389648</ele>
        <time>2024-01-30T07:48:40.000Z</time>
      </trkpt>
      <trkpt lat="44.15281" lon="3.10355">
        <ele>392.39999389648</ele>
        <time>2024-01-30T07:48:42.000Z</time>
      </trkpt>
      <trkpt lat="44.15283" lon="3.10375">
        <ele>392.39999389648</ele>
        <time>2024-01-30T07:48:45.000Z</time>
      </trkpt>
      <trkpt lat="44.15289" lon="3.10386">
        <ele>393</ele>
        <time>2024-01-30T07:48:47.000Z</time>
      </trkpt>
      <trkpt lat="44.15292" lon="3.10391">
        <ele>393.39999389648</ele>
        <time>2024-01-30T07:48:48.000Z</time>
      </trkpt>
      <trkpt lat="44.15295" lon="3.10396">
        <ele>393.79998779297</ele>
        <time>2024-01-30T07:48:49.000Z</time>
      </trkpt>
      <trkpt lat="44.153" lon="3.10405">
        <ele>394.39999389648</ele>
        <time>2024-01-30T07:48:51.000Z</time>
      </trkpt>
      <trkpt lat="44.15303" lon="3.10409">
        <ele>394.39999389648</ele>
        <time>2024-01-30T07:48:52.000Z</time>
      </trkpt>
      <trkpt lat="44.15305" lon="3.10413">
        <ele>394.79998779297</ele>
        <time>2024-01-30T07:48:53.000Z</time>
      </trkpt>
      <trkpt lat="44.15319" lon="3.10445">
        <ele>395</ele>
        <time>2024-01-30T07:48:59.000Z</time>
      </trkpt>
      <trkpt lat="44.1533" lon="3.10485">
        <ele>395.60000610352</ele>
        <time>2024-01-30T07:49:03.000Z</time>
      </trkpt>
      <trkpt lat="44.15343" lon="3.10539">
        <ele>396.39999389648</ele>
        <time>2024-01-30T07:49:07.000Z</time>
      </trkpt>
      <trkpt lat="44.15346" lon="3.10554">
        <ele>396.60000610352</ele>
        <time>2024-01-30T07:49:08.000Z</time>
      </trkpt>
      <trkpt lat="44.15361" lon="3.10617">
        <ele>397.20001220703</ele>
        <time>2024-01-30T07:49:12.000Z</time>
      </trkpt>
      <trkpt lat="44.15384" lon="3.10702">
        <ele>397.39999389648</ele>
        <time>2024-01-30T07:49:17.000Z</time>
      </trkpt>
      <trkpt lat="44.1539" lon="3.10717">
        <ele>397.39999389648</ele>
        <time>2024-01-30T07:49:18.000Z</time>
      </trkpt>
      <trkpt lat="44.15405" lon="3.10742">
        <ele>397.20001220703</ele>
        <time>2024-01-30T07:49:20.000Z</time>
      </trkpt>
      <trkpt lat="44.15435" lon="3.10764">
        <ele>397</ele>
        <time>2024-01-30T07:49:23.000Z</time>
      </trkpt>
      <trkpt lat="44.15444" lon="3.10772">
        <ele>397</ele>
        <time>2024-01-30T07:49:24.000Z</time>
      </trkpt>
      <trkpt lat="44.1546" lon="3.10795">
        <ele>397.60000610352</ele>
        <time>2024-01-30T07:49:26.000Z</time>
      </trkpt>
      <trkpt lat="44.15464" lon="3.10805">
        <ele>397.60000610352</ele>
        <time>2024-01-30T07:49:27.000Z</time>
      </trkpt>
      <trkpt lat="44.15475" lon="3.10831">
        <ele>397.79998779297</ele>
        <time>2024-01-30T07:49:29.000Z</time>
      </trkpt>
      <trkpt lat="44.15482" lon="3.10843">
        <ele>397.79998779297</ele>
        <time>2024-01-30T07:49:30.000Z</time>
      </trkpt>
      <trkpt lat="44.1549" lon="3.10854">
        <ele>397.79998779297</ele>
        <time>2024-01-30T07:49:31.000Z</time>
      </trkpt>
      <trkpt lat="44.15516" lon="3.10883">
        <ele>398.20001220703</ele>
        <time>2024-01-30T07:49:34.000Z</time>
      </trkpt>
      <trkpt lat="44.15524" lon="3.10894">
        <ele>398.20001220703</ele>
        <time>2024-01-30T07:49:35.000Z</time>
      </trkpt>
      <trkpt lat="44.15537" lon="3.1092">
        <ele>398.20001220703</ele>
        <time>2024-01-30T07:49:37.000Z</time>
      </trkpt>
      <trkpt lat="44.15548" lon="3.1095">
        <ele>398.20001220703</ele>
        <time>2024-01-30T07:49:39.000Z</time>
      </trkpt>
      <trkpt lat="44.15551" lon="3.10965">
        <ele>398.20001220703</ele>
        <time>2024-01-30T07:49:40.000Z</time>
      </trkpt>
      <trkpt lat="44.15557" lon="3.10997">
        <ele>398</ele>
        <time>2024-01-30T07:49:42.000Z</time>
      </trkpt>
      <trkpt lat="44.1557" lon="3.1103">
        <ele>398.20001220703</ele>
        <time>2024-01-30T07:49:44.000Z</time>
      </trkpt>
      <trkpt lat="44.15611" lon="3.11096">
        <ele>398.39999389648</ele>
        <time>2024-01-30T07:49:49.000Z</time>
      </trkpt>
      <trkpt lat="44.1565" lon="3.11152">
        <ele>398.60000610352</ele>
        <time>2024-01-30T07:49:53.000Z</time>
      </trkpt>
      <trkpt lat="44.1566" lon="3.11165">
        <ele>398.79998779297</ele>
        <time>2024-01-30T07:49:54.000Z</time>
      </trkpt>
      <trkpt lat="44.15681" lon="3.11192">
        <ele>399.20001220703</ele>
        <time>2024-01-30T07:49:56.000Z</time>
      </trkpt>
      <trkpt lat="44.1572" lon="3.11244">
        <ele>399.39999389648</ele>
        <time>2024-01-30T07:50:00.000Z</time>
      </trkpt>
      <trkpt lat="44.15746" lon="3.11282">
        <ele>400.20001220703</ele>
        <time>2024-01-30T07:50:03.000Z</time>
      </trkpt>
      <trkpt lat="44.15754" lon="3.11294">
        <ele>400.20001220703</ele>
        <time>2024-01-30T07:50:04.000Z</time>
      </trkpt>
      <trkpt lat="44.15788" lon="3.11356">
        <ele>400</ele>
        <time>2024-01-30T07:50:09.000Z</time>
      </trkpt>
      <trkpt lat="44.15793" lon="3.11381">
        <ele>400</ele>
        <time>2024-01-30T07:50:11.000Z</time>
      </trkpt>
      <trkpt lat="44.15792" lon="3.11392">
        <ele>400.20001220703</ele>
        <time>2024-01-30T07:50:12.000Z</time>
      </trkpt>
      <trkpt lat="44.1579" lon="3.11404">
        <ele>400.60000610352</ele>
        <time>2024-01-30T07:50:13.000Z</time>
      </trkpt>
      <trkpt lat="44.15782" lon="3.11426">
        <ele>400.60000610352</ele>
        <time>2024-01-30T07:50:15.000Z</time>
      </trkpt>
      <trkpt lat="44.15774" lon="3.1145">
        <ele>400.39999389648</ele>
        <time>2024-01-30T07:50:17.000Z</time>
      </trkpt>
      <trkpt lat="44.15772" lon="3.11463">
        <ele>400.20001220703</ele>
        <time>2024-01-30T07:50:18.000Z</time>
      </trkpt>
      <trkpt lat="44.15773" lon="3.11475">
        <ele>400.20001220703</ele>
        <time>2024-01-30T07:50:19.000Z</time>
      </trkpt>
      <trkpt lat="44.15776" lon="3.11485">
        <ele>400.20001220703</ele>
        <time>2024-01-30T07:50:20.000Z</time>
      </trkpt>
      <trkpt lat="44.15782" lon="3.11495">
        <ele>400.20001220703</ele>
        <time>2024-01-30T07:50:21.000Z</time>
      </trkpt>
      <trkpt lat="44.15795" lon="3.11516">
        <ele>401.20001220703</ele>
        <time>2024-01-30T07:50:23.000Z</time>
      </trkpt>
      <trkpt lat="44.15823" lon="3.11567">
        <ele>402</ele>
        <time>2024-01-30T07:50:27.000Z</time>
      </trkpt>
      <trkpt lat="44.15832" lon="3.11579">
        <ele>402.60000610352</ele>
        <time>2024-01-30T07:50:28.000Z</time>
      </trkpt>
      <trkpt lat="44.15869" lon="3.11631">
        <ele>403.79998779297</ele>
        <time>2024-01-30T07:50:32.000Z</time>
      </trkpt>
      <trkpt lat="44.15894" lon="3.11655">
        <ele>404</ele>
        <time>2024-01-30T07:50:34.000Z</time>
      </trkpt>
      <trkpt lat="44.15904" lon="3.11661">
        <ele>404</ele>
        <time>2024-01-30T07:50:35.000Z</time>
      </trkpt>
      <trkpt lat="44.15945" lon="3.11675">
        <ele>404</ele>
        <time>2024-01-30T07:50:38.000Z</time>
      </trkpt>
      <trkpt lat="44.15971" lon="3.11684">
        <ele>405.20001220703</ele>
        <time>2024-01-30T07:50:40.000Z</time>
      </trkpt>
      <trkpt lat="44.15995" lon="3.11694">
        <ele>405.60000610352</ele>
        <time>2024-01-30T07:50:42.000Z</time>
      </trkpt>
      <trkpt lat="44.16048" lon="3.11706">
        <ele>405.79998779297</ele>
        <time>2024-01-30T07:50:46.000Z</time>
      </trkpt>
      <trkpt lat="44.16107" lon="3.11733">
        <ele>405.20001220703</ele>
        <time>2024-01-30T07:50:51.000Z</time>
      </trkpt>
      <trkpt lat="44.16118" lon="3.11737">
        <ele>405.20001220703</ele>
        <time>2024-01-30T07:50:52.000Z</time>
      </trkpt>
      <trkpt lat="44.16129" lon="3.11739">
        <ele>405.39999389648</ele>
        <time>2024-01-30T07:50:53.000Z</time>
      </trkpt>
      <trkpt lat="44.16152" lon="3.11736">
        <ele>405.39999389648</ele>
        <time>2024-01-30T07:50:55.000Z</time>
      </trkpt>
      <trkpt lat="44.16195" lon="3.1172">
        <ele>405.60000610352</ele>
        <time>2024-01-30T07:50:59.000Z</time>
      </trkpt>
      <trkpt lat="44.16205" lon="3.11718">
        <ele>405.79998779297</ele>
        <time>2024-01-30T07:51:00.000Z</time>
      </trkpt>
      <trkpt lat="44.16225" lon="3.11719">
        <ele>406.20001220703</ele>
        <time>2024-01-30T07:51:02.000Z</time>
      </trkpt>
      <trkpt lat="44.16258" lon="3.11741">
        <ele>406.39999389648</ele>
        <time>2024-01-30T07:51:05.000Z</time>
      </trkpt>
      <trkpt lat="44.16289" lon="3.11767">
        <ele>406.39999389648</ele>
        <time>2024-01-30T07:51:08.000Z</time>
      </trkpt>
      <trkpt lat="44.163" lon="3.11778">
        <ele>406.60000610352</ele>
        <time>2024-01-30T07:51:09.000Z</time>
      </trkpt>
      <trkpt lat="44.16318" lon="3.11802">
        <ele>407.20001220703</ele>
        <time>2024-01-30T07:51:11.000Z</time>
      </trkpt>
      <trkpt lat="44.16325" lon="3.11816">
        <ele>407.39999389648</ele>
        <time>2024-01-30T07:51:12.000Z</time>
      </trkpt>
      <trkpt lat="44.16332" lon="3.1183">
        <ele>407.39999389648</ele>
        <time>2024-01-30T07:51:13.000Z</time>
      </trkpt>
      <trkpt lat="44.16372" lon="3.11901">
        <ele>408</ele>
        <time>2024-01-30T07:51:18.000Z</time>
      </trkpt>
      <trkpt lat="44.16381" lon="3.11915">
        <ele>408.20001220703</ele>
        <time>2024-01-30T07:51:19.000Z</time>
      </trkpt>
      <trkpt lat="44.1639" lon="3.11927">
        <ele>408.39999389648</ele>
        <time>2024-01-30T07:51:20.000Z</time>
      </trkpt>
      <trkpt lat="44.16412" lon="3.1195">
        <ele>409</ele>
        <time>2024-01-30T07:51:22.000Z</time>
      </trkpt>
      <trkpt lat="44.16461" lon="3.1199">
        <ele>409</ele>
        <time>2024-01-30T07:51:26.000Z</time>
      </trkpt>
      <trkpt lat="44.16473" lon="3.12">
        <ele>409</ele>
        <time>2024-01-30T07:51:27.000Z</time>
      </trkpt>
      <trkpt lat="44.16512" lon="3.12044">
        <ele>409.20001220703</ele>
        <time>2024-01-30T07:51:31.000Z</time>
      </trkpt>
      <trkpt lat="44.16522" lon="3.12067">
        <ele>409.20001220703</ele>
        <time>2024-01-30T07:51:33.000Z</time>
      </trkpt>
      <trkpt lat="44.16523" lon="3.1209">
        <ele>409.20001220703</ele>
        <time>2024-01-30T07:51:35.000Z</time>
      </trkpt>
      <trkpt lat="44.16521" lon="3.12101">
        <ele>409.20001220703</ele>
        <time>2024-01-30T07:51:36.000Z</time>
      </trkpt>
      <trkpt lat="44.16518" lon="3.12157">
        <ele>409.39999389648</ele>
        <time>2024-01-30T07:51:40.000Z</time>
      </trkpt>
      <trkpt lat="44.16518" lon="3.12174">
        <ele>409.60000610352</ele>
        <time>2024-01-30T07:51:41.000Z</time>
      </trkpt>
      <trkpt lat="44.16524" lon="3.12224">
        <ele>410</ele>
        <time>2024-01-30T07:51:44.000Z</time>
      </trkpt>
      <trkpt lat="44.16535" lon="3.12257">
        <ele>410</ele>
        <time>2024-01-30T07:51:46.000Z</time>
      </trkpt>
      <trkpt lat="44.16542" lon="3.12273">
        <ele>410.20001220703</ele>
        <time>2024-01-30T07:51:47.000Z</time>
      </trkpt>
      <trkpt lat="44.16574" lon="3.12338">
        <ele>410.60000610352</ele>
        <time>2024-01-30T07:51:51.000Z</time>
      </trkpt>
      <trkpt lat="44.16581" lon="3.12355">
        <ele>410.39999389648</ele>
        <time>2024-01-30T07:51:52.000Z</time>
      </trkpt>
      <trkpt lat="44.16604" lon="3.12423">
        <ele>410.39999389648</ele>
        <time>2024-01-30T07:51:56.000Z</time>
      </trkpt>
      <trkpt lat="44.1661" lon="3.12439">
        <ele>410.39999389648</ele>
        <time>2024-01-30T07:51:57.000Z</time>
      </trkpt>
      <trkpt lat="44.16625" lon="3.12467">
        <ele>410.20001220703</ele>
        <time>2024-01-30T07:51:59.000Z</time>
      </trkpt>
      <trkpt lat="44.16635" lon="3.12479">
        <ele>410.20001220703</ele>
        <time>2024-01-30T07:52:00.000Z</time>
      </trkpt>
      <trkpt lat="44.16667" lon="3.12512">
        <ele>410.20001220703</ele>
        <time>2024-01-30T07:52:03.000Z</time>
      </trkpt>
      <trkpt lat="44.16677" lon="3.12525">
        <ele>410.39999389648</ele>
        <time>2024-01-30T07:52:04.000Z</time>
      </trkpt>
      <trkpt lat="44.16697" lon="3.12551">
        <ele>410.79998779297</ele>
        <time>2024-01-30T07:52:06.000Z</time>
      </trkpt>
      <trkpt lat="44.16718" lon="3.12572">
        <ele>411</ele>
        <time>2024-01-30T07:52:08.000Z</time>
      </trkpt>
      <trkpt lat="44.1676" lon="3.12617">
        <ele>411.39999389648</ele>
        <time>2024-01-30T07:52:12.000Z</time>
      </trkpt>
      <trkpt lat="44.16794" lon="3.12657">
        <ele>411.39999389648</ele>
        <time>2024-01-30T07:52:15.000Z</time>
      </trkpt>
      <trkpt lat="44.16803" lon="3.12665">
        <ele>411.39999389648</ele>
        <time>2024-01-30T07:52:16.000Z</time>
      </trkpt>
      <trkpt lat="44.16851" lon="3.127">
        <ele>411.39999389648</ele>
        <time>2024-01-30T07:52:20.000Z</time>
      </trkpt>
      <trkpt lat="44.16897" lon="3.12743">
        <ele>411.79998779297</ele>
        <time>2024-01-30T07:52:24.000Z</time>
      </trkpt>
      <trkpt lat="44.16935" lon="3.12772">
        <ele>412.20001220703</ele>
        <time>2024-01-30T07:52:27.000Z</time>
      </trkpt>
      <trkpt lat="44.1699" lon="3.12806">
        <ele>412.60000610352</ele>
        <time>2024-01-30T07:52:31.000Z</time>
      </trkpt>
      <trkpt lat="44.17004" lon="3.12815">
        <ele>412.79998779297</ele>
        <time>2024-01-30T07:52:32.000Z</time>
      </trkpt>
      <trkpt lat="44.17018" lon="3.12824">
        <ele>412.79998779297</ele>
        <time>2024-01-30T07:52:33.000Z</time>
      </trkpt>
      <trkpt lat="44.17077" lon="3.12864">
        <ele>413</ele>
        <time>2024-01-30T07:52:37.000Z</time>
      </trkpt>
      <trkpt lat="44.17102" lon="3.1288">
        <ele>413</ele>
        <time>2024-01-30T07:52:39.000Z</time>
      </trkpt>
      <trkpt lat="44.1716" lon="3.12909">
        <ele>413.20001220703</ele>
        <time>2024-01-30T07:52:43.000Z</time>
      </trkpt>
      <trkpt lat="44.17173" lon="3.12916">
        <ele>413.20001220703</ele>
        <time>2024-01-30T07:52:44.000Z</time>
      </trkpt>
      <trkpt lat="44.17234" lon="3.12942">
        <ele>413.20001220703</ele>
        <time>2024-01-30T07:52:49.000Z</time>
      </trkpt>
      <trkpt lat="44.17248" lon="3.12947">
        <ele>413.20001220703</ele>
        <time>2024-01-30T07:52:50.000Z</time>
      </trkpt>
      <trkpt lat="44.1727" lon="3.1295">
        <ele>413.20001220703</ele>
        <time>2024-01-30T07:52:52.000Z</time>
      </trkpt>
      <trkpt lat="44.17285" lon="3.12949">
        <ele>413.20001220703</ele>
        <time>2024-01-30T07:52:53.000Z</time>
      </trkpt>
      <trkpt lat="44.17297" lon="3.12947">
        <ele>413.39999389648</ele>
        <time>2024-01-30T07:52:54.000Z</time>
      </trkpt>
      <trkpt lat="44.17332" lon="3.1294">
        <ele>413.60000610352</ele>
        <time>2024-01-30T07:52:57.000Z</time>
      </trkpt>
      <trkpt lat="44.17381" lon="3.12949">
        <ele>413.60000610352</ele>
        <time>2024-01-30T07:53:01.000Z</time>
      </trkpt>
      <trkpt lat="44.17434" lon="3.12958">
        <ele>413.39999389648</ele>
        <time>2024-01-30T07:53:06.000Z</time>
      </trkpt>
      <trkpt lat="44.17492" lon="3.1296">
        <ele>413</ele>
        <time>2024-01-30T07:53:12.000Z</time>
      </trkpt>
      <trkpt lat="44.17524" lon="3.12969">
        <ele>413</ele>
        <time>2024-01-30T07:53:16.000Z</time>
      </trkpt>
      <trkpt lat="44.17555" lon="3.12988">
        <ele>413.39999389648</ele>
        <time>2024-01-30T07:53:20.000Z</time>
      </trkpt>
      <trkpt lat="44.17562" lon="3.12995">
        <ele>413.39999389648</ele>
        <time>2024-01-30T07:53:21.000Z</time>
      </trkpt>
      <trkpt lat="44.17597" lon="3.13034">
        <ele>413.39999389648</ele>
        <time>2024-01-30T07:53:26.000Z</time>
      </trkpt>
      <trkpt lat="44.17614" lon="3.13051">
        <ele>413.39999389648</ele>
        <time>2024-01-30T07:53:28.000Z</time>
      </trkpt>
      <trkpt lat="44.17629" lon="3.13062">
        <ele>413.39999389648</ele>
        <time>2024-01-30T07:53:30.000Z</time>
      </trkpt>
      <trkpt lat="44.17638" lon="3.13067">
        <ele>413.39999389648</ele>
        <time>2024-01-30T07:53:31.000Z</time>
      </trkpt>
      <trkpt lat="44.17648" lon="3.13071">
        <ele>413.20001220703</ele>
        <time>2024-01-30T07:53:32.000Z</time>
      </trkpt>
      <trkpt lat="44.17678" lon="3.13075">
        <ele>413</ele>
        <time>2024-01-30T07:53:35.000Z</time>
      </trkpt>
      <trkpt lat="44.17738" lon="3.13075">
        <ele>412.79998779297</ele>
        <time>2024-01-30T07:53:41.000Z</time>
      </trkpt>
      <trkpt lat="44.17754" lon="3.13075">
        <ele>412.79998779297</ele>
        <time>2024-01-30T07:53:43.000Z</time>
      </trkpt>
      <trkpt lat="44.17771" lon="3.13075">
        <ele>412</ele>
        <time>2024-01-30T07:53:46.000Z</time>
      </trkpt>
      <trkpt lat="44.17777" lon="3.13077">
        <ele>412</ele>
        <time>2024-01-30T07:53:49.000Z</time>
      </trkpt>
      <trkpt lat="44.17791" lon="3.13082">
        <ele>412</ele>
        <time>2024-01-30T07:53:53.000Z</time>
      </trkpt>
      <trkpt lat="44.17804" lon="3.13087">
        <ele>411.79998779297</ele>
        <time>2024-01-30T07:53:55.000Z</time>
      </trkpt>
      <trkpt lat="44.17821" lon="3.13094">
        <ele>410.79998779297</ele>
        <time>2024-01-30T07:53:57.000Z</time>
      </trkpt>
      <trkpt lat="44.17828" lon="3.13097">
        <ele>410.20001220703</ele>
        <time>2024-01-30T07:53:58.000Z</time>
      </trkpt>
      <trkpt lat="44.17854" lon="3.13108">
        <ele>409.20001220703</ele>
        <time>2024-01-30T07:54:01.000Z</time>
      </trkpt>
      <trkpt lat="44.17866" lon="3.13112">
        <ele>408.60000610352</ele>
        <time>2024-01-30T07:54:03.000Z</time>
      </trkpt>
      <trkpt lat="44.17872" lon="3.13113">
        <ele>408.60000610352</ele>
        <time>2024-01-30T07:54:04.000Z</time>
      </trkpt>
      <trkpt lat="44.1788" lon="3.13108">
        <ele>408.60000610352</ele>
        <time>2024-01-30T07:54:06.000Z</time>
      </trkpt>
      <trkpt lat="44.17882" lon="3.13094">
        <ele>408.79998779297</ele>
        <time>2024-01-30T07:54:08.000Z</time>
      </trkpt>
      <trkpt lat="44.17882" lon="3.13087">
        <ele>409</ele>
        <time>2024-01-30T07:54:09.000Z</time>
      </trkpt>
      <trkpt lat="44.17882" lon="3.13077">
        <ele>409</ele>
        <time>2024-01-30T07:54:10.000Z</time>
      </trkpt>
      <trkpt lat="44.17885" lon="3.1306">
        <ele>409.20001220703</ele>
        <time>2024-01-30T07:54:12.000Z</time>
      </trkpt>
      <trkpt lat="44.17888" lon="3.13053">
        <ele>409.39999389648</ele>
        <time>2024-01-30T07:54:13.000Z</time>
      </trkpt>
      <trkpt lat="44.17893" lon="3.13047">
        <ele>409.60000610352</ele>
        <time>2024-01-30T07:54:14.000Z</time>
      </trkpt>
      <trkpt lat="44.17903" lon="3.13039">
        <ele>410</ele>
        <time>2024-01-30T07:54:16.000Z</time>
      </trkpt>
      <trkpt lat="44.17907" lon="3.13038">
        <ele>410.20001220703</ele>
        <time>2024-01-30T07:54:17.000Z</time>
      </trkpt>
      <trkpt lat="44.17913" lon="3.13039">
        <ele>410.20001220703</ele>
        <time>2024-01-30T07:54:18.000Z</time>
      </trkpt>
      <trkpt lat="44.1792" lon="3.13043">
        <ele>410.60000610352</ele>
        <time>2024-01-30T07:54:19.000Z</time>
      </trkpt>
      <trkpt lat="44.17944" lon="3.13057">
        <ele>411</ele>
        <time>2024-01-30T07:54:22.000Z</time>
      </trkpt>
      <trkpt lat="44.17962" lon="3.13071">
        <ele>411.20001220703</ele>
        <time>2024-01-30T07:54:24.000Z</time>
      </trkpt>
      <trkpt lat="44.17984" lon="3.13087">
        <ele>411.20001220703</ele>
        <time>2024-01-30T07:54:26.000Z</time>
      </trkpt>
      <trkpt lat="44.18038" lon="3.13124">
        <ele>410</ele>
        <time>2024-01-30T07:54:31.000Z</time>
      </trkpt>
      <trkpt lat="44.18073" lon="3.13146">
        <ele>409.60000610352</ele>
        <time>2024-01-30T07:54:34.000Z</time>
      </trkpt>
      <trkpt lat="44.1808" lon="3.13153">
        <ele>409.60000610352</ele>
        <time>2024-01-30T07:54:35.000Z</time>
      </trkpt>
      <trkpt lat="44.181" lon="3.13175">
        <ele>408.39999389648</ele>
        <time>2024-01-30T07:54:37.000Z</time>
      </trkpt>
      <trkpt lat="44.18117" lon="3.13195">
        <ele>406.60000610352</ele>
        <time>2024-01-30T07:54:39.000Z</time>
      </trkpt>
      <trkpt lat="44.18128" lon="3.13209">
        <ele>405.39999389648</ele>
        <time>2024-01-30T07:54:40.000Z</time>
      </trkpt>
      <trkpt lat="44.18144" lon="3.1323">
        <ele>404</ele>
        <time>2024-01-30T07:54:42.000Z</time>
      </trkpt>
      <trkpt lat="44.18154" lon="3.13244">
        <ele>403.39999389648</ele>
        <time>2024-01-30T07:54:43.000Z</time>
      </trkpt>
      <trkpt lat="44.18162" lon="3.13254">
        <ele>402.20001220703</ele>
        <time>2024-01-30T07:54:44.000Z</time>
      </trkpt>
      <trkpt lat="44.18169" lon="3.13261">
        <ele>401</ele>
        <time>2024-01-30T07:54:45.000Z</time>
      </trkpt>
      <trkpt lat="44.18178" lon="3.1327">
        <ele>400</ele>
        <time>2024-01-30T07:54:46.000Z</time>
      </trkpt>
      <trkpt lat="44.18186" lon="3.13274">
        <ele>399.20001220703</ele>
        <time>2024-01-30T07:54:47.000Z</time>
      </trkpt>
      <trkpt lat="44.18193" lon="3.13275">
        <ele>398.79998779297</ele>
        <time>2024-01-30T07:54:48.000Z</time>
      </trkpt>
      <trkpt lat="44.18211" lon="3.13275">
        <ele>398.20001220703</ele>
        <time>2024-01-30T07:54:50.000Z</time>
      </trkpt>
      <trkpt lat="44.18219" lon="3.13273">
        <ele>398.20001220703</ele>
        <time>2024-01-30T07:54:51.000Z</time>
      </trkpt>
      <trkpt lat="44.18228" lon="3.13272">
        <ele>398.20001220703</ele>
        <time>2024-01-30T07:54:52.000Z</time>
      </trkpt>
      <trkpt lat="44.18243" lon="3.13274">
        <ele>398</ele>
        <time>2024-01-30T07:54:54.000Z</time>
      </trkpt>
      <trkpt lat="44.18283" lon="3.13289">
        <ele>397.79998779297</ele>
        <time>2024-01-30T07:54:58.000Z</time>
      </trkpt>
      <trkpt lat="44.18305" lon="3.13295">
        <ele>397.60000610352</ele>
        <time>2024-01-30T07:55:00.000Z</time>
      </trkpt>
      <trkpt lat="44.18328" lon="3.13296">
        <ele>397.39999389648</ele>
        <time>2024-01-30T07:55:02.000Z</time>
      </trkpt>
      <trkpt lat="44.18351" lon="3.13295">
        <ele>397</ele>
        <time>2024-01-30T07:55:04.000Z</time>
      </trkpt>
      <trkpt lat="44.18374" lon="3.13297">
        <ele>396.79998779297</ele>
        <time>2024-01-30T07:55:06.000Z</time>
      </trkpt>
      <trkpt lat="44.18386" lon="3.13299">
        <ele>396.79998779297</ele>
        <time>2024-01-30T07:55:07.000Z</time>
      </trkpt>
      <trkpt lat="44.18432" lon="3.13318">
        <ele>396</ele>
        <time>2024-01-30T07:55:11.000Z</time>
      </trkpt>
      <trkpt lat="44.18453" lon="3.1333">
        <ele>395.60000610352</ele>
        <time>2024-01-30T07:55:13.000Z</time>
      </trkpt>
      <trkpt lat="44.18474" lon="3.13346">
        <ele>394.79998779297</ele>
        <time>2024-01-30T07:55:15.000Z</time>
      </trkpt>
      <trkpt lat="44.18508" lon="3.13369">
        <ele>393.39999389648</ele>
        <time>2024-01-30T07:55:18.000Z</time>
      </trkpt>
      <trkpt lat="44.1852" lon="3.13378">
        <ele>392.39999389648</ele>
        <time>2024-01-30T07:55:19.000Z</time>
      </trkpt>
      <trkpt lat="44.18543" lon="3.13395">
        <ele>390.79998779297</ele>
        <time>2024-01-30T07:55:21.000Z</time>
      </trkpt>
      <trkpt lat="44.18564" lon="3.1341">
        <ele>389.60000610352</ele>
        <time>2024-01-30T07:55:23.000Z</time>
      </trkpt>
      <trkpt lat="44.18577" lon="3.13421">
        <ele>389.20001220703</ele>
        <time>2024-01-30T07:55:24.000Z</time>
      </trkpt>
      <trkpt lat="44.18585" lon="3.1343">
        <ele>389</ele>
        <time>2024-01-30T07:55:25.000Z</time>
      </trkpt>
      <trkpt lat="44.18623" lon="3.13482">
        <ele>389.20001220703</ele>
        <time>2024-01-30T07:55:29.000Z</time>
      </trkpt>
      <trkpt lat="44.1863" lon="3.13496">
        <ele>389.60000610352</ele>
        <time>2024-01-30T07:55:30.000Z</time>
      </trkpt>
      <trkpt lat="44.18651" lon="3.13543">
        <ele>390.79998779297</ele>
        <time>2024-01-30T07:55:33.000Z</time>
      </trkpt>
      <trkpt lat="44.18664" lon="3.13577">
        <ele>391</ele>
        <time>2024-01-30T07:55:35.000Z</time>
      </trkpt>
      <trkpt lat="44.18687" lon="3.13648">
        <ele>391.39999389648</ele>
        <time>2024-01-30T07:55:39.000Z</time>
      </trkpt>
      <trkpt lat="44.18707" lon="3.13699">
        <ele>391.79998779297</ele>
        <time>2024-01-30T07:55:42.000Z</time>
      </trkpt>
      <trkpt lat="44.18716" lon="3.13732">
        <ele>392.60000610352</ele>
        <time>2024-01-30T07:55:44.000Z</time>
      </trkpt>
      <trkpt lat="44.18721" lon="3.13755">
        <ele>393.20001220703</ele>
        <time>2024-01-30T07:55:45.000Z</time>
      </trkpt>
      <trkpt lat="44.18728" lon="3.13795">
        <ele>394.39999389648</ele>
        <time>2024-01-30T07:55:47.000Z</time>
      </trkpt>
      <trkpt lat="44.18738" lon="3.13836">
        <ele>395.20001220703</ele>
        <time>2024-01-30T07:55:49.000Z</time>
      </trkpt>
      <trkpt lat="44.18741" lon="3.13852">
        <ele>395.60000610352</ele>
        <time>2024-01-30T07:55:50.000Z</time>
      </trkpt>
      <trkpt lat="44.18762" lon="3.13936">
        <ele>396.60000610352</ele>
        <time>2024-01-30T07:55:54.000Z</time>
      </trkpt>
      <trkpt lat="44.18767" lon="3.13955">
        <ele>397</ele>
        <time>2024-01-30T07:55:55.000Z</time>
      </trkpt>
      <trkpt lat="44.18791" lon="3.14025">
        <ele>398.60000610352</ele>
        <time>2024-01-30T07:55:59.000Z</time>
      </trkpt>
      <trkpt lat="44.18809" lon="3.14078">
        <ele>399.60000610352</ele>
        <time>2024-01-30T07:56:02.000Z</time>
      </trkpt>
      <trkpt lat="44.18822" lon="3.14112">
        <ele>400</ele>
        <time>2024-01-30T07:56:04.000Z</time>
      </trkpt>
      <trkpt lat="44.18848" lon="3.14194">
        <ele>398.79998779297</ele>
        <time>2024-01-30T07:56:09.000Z</time>
      </trkpt>
      <trkpt lat="44.18853" lon="3.14212">
        <ele>397.60000610352</ele>
        <time>2024-01-30T07:56:10.000Z</time>
      </trkpt>
      <trkpt lat="44.18864" lon="3.14249">
        <ele>396</ele>
        <time>2024-01-30T07:56:12.000Z</time>
      </trkpt>
      <trkpt lat="44.18869" lon="3.14268">
        <ele>394.60000610352</ele>
        <time>2024-01-30T07:56:13.000Z</time>
      </trkpt>
      <trkpt lat="44.18873" lon="3.14284">
        <ele>393</ele>
        <time>2024-01-30T07:56:14.000Z</time>
      </trkpt>
      <trkpt lat="44.18879" lon="3.14307">
        <ele>392</ele>
        <time>2024-01-30T07:56:15.000Z</time>
      </trkpt>
      <trkpt lat="44.1889" lon="3.14346">
        <ele>390.39999389648</ele>
        <time>2024-01-30T07:56:17.000Z</time>
      </trkpt>
      <trkpt lat="44.18908" lon="3.14423">
        <ele>389.20001220703</ele>
        <time>2024-01-30T07:56:21.000Z</time>
      </trkpt>
      <trkpt lat="44.18911" lon="3.14443">
        <ele>389.20001220703</ele>
        <time>2024-01-30T07:56:22.000Z</time>
      </trkpt>
      <trkpt lat="44.18913" lon="3.14482">
        <ele>389.20001220703</ele>
        <time>2024-01-30T07:56:24.000Z</time>
      </trkpt>
      <trkpt lat="44.18908" lon="3.1454">
        <ele>390.20001220703</ele>
        <time>2024-01-30T07:56:27.000Z</time>
      </trkpt>
      <trkpt lat="44.18906" lon="3.1456">
        <ele>391</ele>
        <time>2024-01-30T07:56:28.000Z</time>
      </trkpt>
      <trkpt lat="44.18903" lon="3.14579">
        <ele>391.39999389648</ele>
        <time>2024-01-30T07:56:29.000Z</time>
      </trkpt>
      <trkpt lat="44.18893" lon="3.14659">
        <ele>392.20001220703</ele>
        <time>2024-01-30T07:56:33.000Z</time>
      </trkpt>
      <trkpt lat="44.18892" lon="3.14674">
        <ele>392.20001220703</ele>
        <time>2024-01-30T07:56:34.000Z</time>
      </trkpt>
      <trkpt lat="44.18893" lon="3.14698">
        <ele>392.20001220703</ele>
        <time>2024-01-30T07:56:35.000Z</time>
      </trkpt>
      <trkpt lat="44.18895" lon="3.14753">
        <ele>391.60000610352</ele>
        <time>2024-01-30T07:56:38.000Z</time>
      </trkpt>
      <trkpt lat="44.18893" lon="3.14791">
        <ele>391</ele>
        <time>2024-01-30T07:56:40.000Z</time>
      </trkpt>
      <trkpt lat="44.1889" lon="3.1481">
        <ele>390.79998779297</ele>
        <time>2024-01-30T07:56:41.000Z</time>
      </trkpt>
      <trkpt lat="44.18885" lon="3.14828">
        <ele>390.60000610352</ele>
        <time>2024-01-30T07:56:42.000Z</time>
      </trkpt>
      <trkpt lat="44.1888" lon="3.14846">
        <ele>390.20001220703</ele>
        <time>2024-01-30T07:56:43.000Z</time>
      </trkpt>
      <trkpt lat="44.18868" lon="3.14883">
        <ele>389.79998779297</ele>
        <time>2024-01-30T07:56:45.000Z</time>
      </trkpt>
      <trkpt lat="44.18843" lon="3.14956">
        <ele>390</ele>
        <time>2024-01-30T07:56:49.000Z</time>
      </trkpt>
      <trkpt lat="44.18831" lon="3.14992">
        <ele>392.20001220703</ele>
        <time>2024-01-30T07:56:51.000Z</time>
      </trkpt>
      <trkpt lat="44.1882" lon="3.15024">
        <ele>394.39999389648</ele>
        <time>2024-01-30T07:56:53.000Z</time>
      </trkpt>
      <trkpt lat="44.18814" lon="3.15045">
        <ele>395.39999389648</ele>
        <time>2024-01-30T07:56:54.000Z</time>
      </trkpt>
      <trkpt lat="44.18807" lon="3.15063">
        <ele>396.60000610352</ele>
        <time>2024-01-30T07:56:55.000Z</time>
      </trkpt>
      <trkpt lat="44.18794" lon="3.15097">
        <ele>398.60000610352</ele>
        <time>2024-01-30T07:56:57.000Z</time>
      </trkpt>
      <trkpt lat="44.18779" lon="3.15128">
        <ele>400.60000610352</ele>
        <time>2024-01-30T07:56:59.000Z</time>
      </trkpt>
      <trkpt lat="44.1877" lon="3.15141">
        <ele>401.79998779297</ele>
        <time>2024-01-30T07:57:00.000Z</time>
      </trkpt>
      <trkpt lat="44.1876" lon="3.15152">
        <ele>403</ele>
        <time>2024-01-30T07:57:01.000Z</time>
      </trkpt>
      <trkpt lat="44.1875" lon="3.15162">
        <ele>403.60000610352</ele>
        <time>2024-01-30T07:57:02.000Z</time>
      </trkpt>
      <trkpt lat="44.18741" lon="3.15169">
        <ele>404.39999389648</ele>
        <time>2024-01-30T07:57:03.000Z</time>
      </trkpt>
      <trkpt lat="44.18729" lon="3.15182">
        <ele>405</ele>
        <time>2024-01-30T07:57:04.000Z</time>
      </trkpt>
      <trkpt lat="44.18721" lon="3.15194">
        <ele>405.39999389648</ele>
        <time>2024-01-30T07:57:05.000Z</time>
      </trkpt>
      <trkpt lat="44.18715" lon="3.15207">
        <ele>406</ele>
        <time>2024-01-30T07:57:06.000Z</time>
      </trkpt>
      <trkpt lat="44.18713" lon="3.1522">
        <ele>406.20001220703</ele>
        <time>2024-01-30T07:57:07.000Z</time>
      </trkpt>
      <trkpt lat="44.18712" lon="3.15235">
        <ele>406.60000610352</ele>
        <time>2024-01-30T07:57:08.000Z</time>
      </trkpt>
      <trkpt lat="44.18714" lon="3.15264">
        <ele>407</ele>
        <time>2024-01-30T07:57:10.000Z</time>
      </trkpt>
      <trkpt lat="44.18715" lon="3.15282">
        <ele>407.39999389648</ele>
        <time>2024-01-30T07:57:11.000Z</time>
      </trkpt>
      <trkpt lat="44.1872" lon="3.15349">
        <ele>407.79998779297</ele>
        <time>2024-01-30T07:57:14.000Z</time>
      </trkpt>
      <trkpt lat="44.18729" lon="3.15442">
        <ele>406.39999389648</ele>
        <time>2024-01-30T07:57:18.000Z</time>
      </trkpt>
      <trkpt lat="44.18737" lon="3.15491">
        <ele>404.20001220703</ele>
        <time>2024-01-30T07:57:20.000Z</time>
      </trkpt>
      <trkpt lat="44.18747" lon="3.15541">
        <ele>402.60000610352</ele>
        <time>2024-01-30T07:57:22.000Z</time>
      </trkpt>
      <trkpt lat="44.18751" lon="3.15566">
        <ele>401.60000610352</ele>
        <time>2024-01-30T07:57:23.000Z</time>
      </trkpt>
      <trkpt lat="44.18762" lon="3.15616">
        <ele>400.20001220703</ele>
        <time>2024-01-30T07:57:25.000Z</time>
      </trkpt>
      <trkpt lat="44.18775" lon="3.15663">
        <ele>398.60000610352</ele>
        <time>2024-01-30T07:57:27.000Z</time>
      </trkpt>
      <trkpt lat="44.18784" lon="3.15685">
        <ele>397.60000610352</ele>
        <time>2024-01-30T07:57:28.000Z</time>
      </trkpt>
      <trkpt lat="44.18791" lon="3.15702">
        <ele>396.79998779297</ele>
        <time>2024-01-30T07:57:29.000Z</time>
      </trkpt>
      <trkpt lat="44.18802" lon="3.15727">
        <ele>396.20001220703</ele>
        <time>2024-01-30T07:57:30.000Z</time>
      </trkpt>
      <trkpt lat="44.18822" lon="3.15766">
        <ele>395.39999389648</ele>
        <time>2024-01-30T07:57:32.000Z</time>
      </trkpt>
      <trkpt lat="44.18833" lon="3.15783">
        <ele>394</ele>
        <time>2024-01-30T07:57:33.000Z</time>
      </trkpt>
      <trkpt lat="44.18846" lon="3.15798">
        <ele>393</ele>
        <time>2024-01-30T07:57:34.000Z</time>
      </trkpt>
      <trkpt lat="44.1886" lon="3.15811">
        <ele>392.60000610352</ele>
        <time>2024-01-30T07:57:35.000Z</time>
      </trkpt>
      <trkpt lat="44.1889" lon="3.15832">
        <ele>391.79998779297</ele>
        <time>2024-01-30T07:57:37.000Z</time>
      </trkpt>
      <trkpt lat="44.18923" lon="3.15853">
        <ele>390.20001220703</ele>
        <time>2024-01-30T07:57:39.000Z</time>
      </trkpt>
      <trkpt lat="44.1894" lon="3.15864">
        <ele>389</ele>
        <time>2024-01-30T07:57:40.000Z</time>
      </trkpt>
      <trkpt lat="44.18993" lon="3.15891">
        <ele>387.39999389648</ele>
        <time>2024-01-30T07:57:43.000Z</time>
      </trkpt>
      <trkpt lat="44.19008" lon="3.15897">
        <ele>387.39999389648</ele>
        <time>2024-01-30T07:57:44.000Z</time>
      </trkpt>
      <trkpt lat="44.19079" lon="3.15924">
        <ele>388.79998779297</ele>
        <time>2024-01-30T07:57:48.000Z</time>
      </trkpt>
      <trkpt lat="44.19092" lon="3.15928">
        <ele>390</ele>
        <time>2024-01-30T07:57:49.000Z</time>
      </trkpt>
      <trkpt lat="44.19109" lon="3.15933">
        <ele>391</ele>
        <time>2024-01-30T07:57:50.000Z</time>
      </trkpt>
      <trkpt lat="44.19141" lon="3.15939">
        <ele>394</ele>
        <time>2024-01-30T07:57:52.000Z</time>
      </trkpt>
      <trkpt lat="44.19156" lon="3.1594">
        <ele>395</ele>
        <time>2024-01-30T07:57:53.000Z</time>
      </trkpt>
      <trkpt lat="44.19175" lon="3.15939">
        <ele>396.60000610352</ele>
        <time>2024-01-30T07:57:54.000Z</time>
      </trkpt>
      <trkpt lat="44.19192" lon="3.15937">
        <ele>397.79998779297</ele>
        <time>2024-01-30T07:57:55.000Z</time>
      </trkpt>
      <trkpt lat="44.19204" lon="3.15935">
        <ele>399.20001220703</ele>
        <time>2024-01-30T07:57:56.000Z</time>
      </trkpt>
      <trkpt lat="44.19223" lon="3.15931">
        <ele>400.39999389648</ele>
        <time>2024-01-30T07:57:57.000Z</time>
      </trkpt>
      <trkpt lat="44.19238" lon="3.15927">
        <ele>402</ele>
        <time>2024-01-30T07:57:58.000Z</time>
      </trkpt>
      <trkpt lat="44.19253" lon="3.15923">
        <ele>403.39999389648</ele>
        <time>2024-01-30T07:57:59.000Z</time>
      </trkpt>
      <trkpt lat="44.19268" lon="3.15917">
        <ele>404.60000610352</ele>
        <time>2024-01-30T07:58:00.000Z</time>
      </trkpt>
      <trkpt lat="44.19284" lon="3.15912">
        <ele>406</ele>
        <time>2024-01-30T07:58:01.000Z</time>
      </trkpt>
      <trkpt lat="44.19297" lon="3.15907">
        <ele>407.60000610352</ele>
        <time>2024-01-30T07:58:02.000Z</time>
      </trkpt>
      <trkpt lat="44.19313" lon="3.15901">
        <ele>408.79998779297</ele>
        <time>2024-01-30T07:58:03.000Z</time>
      </trkpt>
      <trkpt lat="44.19332" lon="3.15894">
        <ele>410.39999389648</ele>
        <time>2024-01-30T07:58:04.000Z</time>
      </trkpt>
      <trkpt lat="44.19345" lon="3.15889">
        <ele>412</ele>
        <time>2024-01-30T07:58:05.000Z</time>
      </trkpt>
      <trkpt lat="44.19375" lon="3.15875">
        <ele>414.20001220703</ele>
        <time>2024-01-30T07:58:07.000Z</time>
      </trkpt>
      <trkpt lat="44.19389" lon="3.15867">
        <ele>415.60000610352</ele>
        <time>2024-01-30T07:58:08.000Z</time>
      </trkpt>
      <trkpt lat="44.19407" lon="3.15857">
        <ele>417.20001220703</ele>
        <time>2024-01-30T07:58:09.000Z</time>
      </trkpt>
      <trkpt lat="44.19432" lon="3.15839">
        <ele>418.79998779297</ele>
        <time>2024-01-30T07:58:11.000Z</time>
      </trkpt>
      <trkpt lat="44.19489" lon="3.158">
        <ele>419.79998779297</ele>
        <time>2024-01-30T07:58:15.000Z</time>
      </trkpt>
      <trkpt lat="44.195" lon="3.15793">
        <ele>419.79998779297</ele>
        <time>2024-01-30T07:58:16.000Z</time>
      </trkpt>
      <trkpt lat="44.19515" lon="3.15786">
        <ele>419.60000610352</ele>
        <time>2024-01-30T07:58:17.000Z</time>
      </trkpt>
      <trkpt lat="44.19538" lon="3.1578">
        <ele>419.39999389648</ele>
        <time>2024-01-30T07:58:19.000Z</time>
      </trkpt>
      <trkpt lat="44.19578" lon="3.15775">
        <ele>417</ele>
        <time>2024-01-30T07:58:22.000Z</time>
      </trkpt>
      <trkpt lat="44.1959" lon="3.15771">
        <ele>416.20001220703</ele>
        <time>2024-01-30T07:58:23.000Z</time>
      </trkpt>
      <trkpt lat="44.19602" lon="3.15765">
        <ele>415.20001220703</ele>
        <time>2024-01-30T07:58:24.000Z</time>
      </trkpt>
      <trkpt lat="44.19613" lon="3.15759">
        <ele>414</ele>
        <time>2024-01-30T07:58:25.000Z</time>
      </trkpt>
      <trkpt lat="44.19625" lon="3.15753">
        <ele>413</ele>
        <time>2024-01-30T07:58:26.000Z</time>
      </trkpt>
      <trkpt lat="44.19648" lon="3.15743">
        <ele>411</ele>
        <time>2024-01-30T07:58:28.000Z</time>
      </trkpt>
      <trkpt lat="44.19659" lon="3.15741">
        <ele>410.20001220703</ele>
        <time>2024-01-30T07:58:29.000Z</time>
      </trkpt>
      <trkpt lat="44.19669" lon="3.1574">
        <ele>409</ele>
        <time>2024-01-30T07:58:30.000Z</time>
      </trkpt>
      <trkpt lat="44.1968" lon="3.15742">
        <ele>408</ele>
        <time>2024-01-30T07:58:31.000Z</time>
      </trkpt>
      <trkpt lat="44.19691" lon="3.15745">
        <ele>406.79998779297</ele>
        <time>2024-01-30T07:58:32.000Z</time>
      </trkpt>
      <trkpt lat="44.19713" lon="3.15754">
        <ele>405.20001220703</ele>
        <time>2024-01-30T07:58:34.000Z</time>
      </trkpt>
      <trkpt lat="44.19722" lon="3.15759">
        <ele>404.20001220703</ele>
        <time>2024-01-30T07:58:35.000Z</time>
      </trkpt>
      <trkpt lat="44.19735" lon="3.15768">
        <ele>403</ele>
        <time>2024-01-30T07:58:36.000Z</time>
      </trkpt>
      <trkpt lat="44.19756" lon="3.15787">
        <ele>401.39999389648</ele>
        <time>2024-01-30T07:58:38.000Z</time>
      </trkpt>
      <trkpt lat="44.19767" lon="3.15801">
        <ele>400.20001220703</ele>
        <time>2024-01-30T07:58:39.000Z</time>
      </trkpt>
      <trkpt lat="44.19789" lon="3.15833">
        <ele>397.79998779297</ele>
        <time>2024-01-30T07:58:41.000Z</time>
      </trkpt>
      <trkpt lat="44.19801" lon="3.15849">
        <ele>396.60000610352</ele>
        <time>2024-01-30T07:58:42.000Z</time>
      </trkpt>
      <trkpt lat="44.19812" lon="3.15866">
        <ele>395.20001220703</ele>
        <time>2024-01-30T07:58:43.000Z</time>
      </trkpt>
      <trkpt lat="44.19824" lon="3.15882">
        <ele>393.20001220703</ele>
        <time>2024-01-30T07:58:44.000Z</time>
      </trkpt>
      <trkpt lat="44.19846" lon="3.15918">
        <ele>391.60000610352</ele>
        <time>2024-01-30T07:58:46.000Z</time>
      </trkpt>
      <trkpt lat="44.19856" lon="3.15938">
        <ele>391.39999389648</ele>
        <time>2024-01-30T07:58:47.000Z</time>
      </trkpt>
      <trkpt lat="44.1987" lon="3.15979">
        <ele>390.79998779297</ele>
        <time>2024-01-30T07:58:49.000Z</time>
      </trkpt>
      <trkpt lat="44.19893" lon="3.16065">
        <ele>391.39999389648</ele>
        <time>2024-01-30T07:58:53.000Z</time>
      </trkpt>
      <trkpt lat="44.19904" lon="3.16109">
        <ele>392.79998779297</ele>
        <time>2024-01-30T07:58:55.000Z</time>
      </trkpt>
      <trkpt lat="44.19914" lon="3.16149">
        <ele>394.20001220703</ele>
        <time>2024-01-30T07:58:57.000Z</time>
      </trkpt>
      <trkpt lat="44.19922" lon="3.16188">
        <ele>395.20001220703</ele>
        <time>2024-01-30T07:58:59.000Z</time>
      </trkpt>
      <trkpt lat="44.19926" lon="3.16208">
        <ele>395.60000610352</ele>
        <time>2024-01-30T07:59:00.000Z</time>
      </trkpt>
      <trkpt lat="44.19929" lon="3.16227">
        <ele>396.20001220703</ele>
        <time>2024-01-30T07:59:01.000Z</time>
      </trkpt>
      <trkpt lat="44.19936" lon="3.16268">
        <ele>397.39999389648</ele>
        <time>2024-01-30T07:59:03.000Z</time>
      </trkpt>
      <trkpt lat="44.19942" lon="3.16309">
        <ele>398.60000610352</ele>
        <time>2024-01-30T07:59:05.000Z</time>
      </trkpt>
      <trkpt lat="44.19945" lon="3.16325">
        <ele>399.20001220703</ele>
        <time>2024-01-30T07:59:06.000Z</time>
      </trkpt>
      <trkpt lat="44.19952" lon="3.1637">
        <ele>399.60000610352</ele>
        <time>2024-01-30T07:59:08.000Z</time>
      </trkpt>
      <trkpt lat="44.19958" lon="3.16413">
        <ele>399.79998779297</ele>
        <time>2024-01-30T07:59:10.000Z</time>
      </trkpt>
      <trkpt lat="44.19961" lon="3.16435">
        <ele>399.79998779297</ele>
        <time>2024-01-30T07:59:11.000Z</time>
      </trkpt>
      <trkpt lat="44.19974" lon="3.16529">
        <ele>398.79998779297</ele>
        <time>2024-01-30T07:59:15.000Z</time>
      </trkpt>
      <trkpt lat="44.19978" lon="3.16554">
        <ele>398.39999389648</ele>
        <time>2024-01-30T07:59:16.000Z</time>
      </trkpt>
      <trkpt lat="44.19982" lon="3.16579">
        <ele>396.79998779297</ele>
        <time>2024-01-30T07:59:17.000Z</time>
      </trkpt>
      <trkpt lat="44.19994" lon="3.16657">
        <ele>395.20001220703</ele>
        <time>2024-01-30T07:59:20.000Z</time>
      </trkpt>
      <trkpt lat="44.19997" lon="3.16683">
        <ele>394.20001220703</ele>
        <time>2024-01-30T07:59:21.000Z</time>
      </trkpt>
      <trkpt lat="44.20002" lon="3.1671">
        <ele>393.20001220703</ele>
        <time>2024-01-30T07:59:22.000Z</time>
      </trkpt>
      <trkpt lat="44.20009" lon="3.16763">
        <ele>392.20001220703</ele>
        <time>2024-01-30T07:59:24.000Z</time>
      </trkpt>
      <trkpt lat="44.20013" lon="3.1679">
        <ele>391</ele>
        <time>2024-01-30T07:59:25.000Z</time>
      </trkpt>
      <trkpt lat="44.2002" lon="3.16843">
        <ele>390</ele>
        <time>2024-01-30T07:59:27.000Z</time>
      </trkpt>
      <trkpt lat="44.20022" lon="3.16869">
        <ele>389.79998779297</ele>
        <time>2024-01-30T07:59:28.000Z</time>
      </trkpt>
      <trkpt lat="44.20022" lon="3.16919">
        <ele>389.20001220703</ele>
        <time>2024-01-30T07:59:30.000Z</time>
      </trkpt>
      <trkpt lat="44.20019" lon="3.16944">
        <ele>389</ele>
        <time>2024-01-30T07:59:31.000Z</time>
      </trkpt>
      <trkpt lat="44.20005" lon="3.17038">
        <ele>389.20001220703</ele>
        <time>2024-01-30T07:59:35.000Z</time>
      </trkpt>
      <trkpt lat="44.19982" lon="3.17128">
        <ele>389.79998779297</ele>
        <time>2024-01-30T07:59:39.000Z</time>
      </trkpt>
      <trkpt lat="44.19977" lon="3.1715">
        <ele>390.20001220703</ele>
        <time>2024-01-30T07:59:40.000Z</time>
      </trkpt>
      <trkpt lat="44.19968" lon="3.17197">
        <ele>391.60000610352</ele>
        <time>2024-01-30T07:59:42.000Z</time>
      </trkpt>
      <trkpt lat="44.19963" lon="3.17243">
        <ele>392.20001220703</ele>
        <time>2024-01-30T07:59:44.000Z</time>
      </trkpt>
      <trkpt lat="44.19961" lon="3.17289">
        <ele>393</ele>
        <time>2024-01-30T07:59:46.000Z</time>
      </trkpt>
      <trkpt lat="44.1996" lon="3.17334">
        <ele>393.79998779297</ele>
        <time>2024-01-30T07:59:48.000Z</time>
      </trkpt>
      <trkpt lat="44.1996" lon="3.17356">
        <ele>394.20001220703</ele>
        <time>2024-01-30T07:59:49.000Z</time>
      </trkpt>
      <trkpt lat="44.19955" lon="3.17418">
        <ele>395.20001220703</ele>
        <time>2024-01-30T07:59:52.000Z</time>
      </trkpt>
      <trkpt lat="44.1995" lon="3.17437">
        <ele>395.79998779297</ele>
        <time>2024-01-30T07:59:53.000Z</time>
      </trkpt>
      <trkpt lat="44.19945" lon="3.17455">
        <ele>396.60000610352</ele>
        <time>2024-01-30T07:59:54.000Z</time>
      </trkpt>
      <trkpt lat="44.19939" lon="3.17473">
        <ele>397.20001220703</ele>
        <time>2024-01-30T07:59:55.000Z</time>
      </trkpt>
      <trkpt lat="44.19926" lon="3.17508">
        <ele>398</ele>
        <time>2024-01-30T07:59:57.000Z</time>
      </trkpt>
      <trkpt lat="44.19909" lon="3.17543">
        <ele>398.79998779297</ele>
        <time>2024-01-30T07:59:59.000Z</time>
      </trkpt>
      <trkpt lat="44.19901" lon="3.1756">
        <ele>399.60000610352</ele>
        <time>2024-01-30T08:00:00.000Z</time>
      </trkpt>
      <trkpt lat="44.19875" lon="3.17609">
        <ele>401.39999389648</ele>
        <time>2024-01-30T08:00:03.000Z</time>
      </trkpt>
      <trkpt lat="44.19865" lon="3.17628">
        <ele>401.79998779297</ele>
        <time>2024-01-30T08:00:04.000Z</time>
      </trkpt>
      <trkpt lat="44.19828" lon="3.17708">
        <ele>402.39999389648</ele>
        <time>2024-01-30T08:00:08.000Z</time>
      </trkpt>
      <trkpt lat="44.19797" lon="3.17773">
        <ele>401.60000610352</ele>
        <time>2024-01-30T08:00:11.000Z</time>
      </trkpt>
      <trkpt lat="44.19771" lon="3.17827">
        <ele>400.39999389648</ele>
        <time>2024-01-30T08:00:14.000Z</time>
      </trkpt>
      <trkpt lat="44.1975" lon="3.17864">
        <ele>399.39999389648</ele>
        <time>2024-01-30T08:00:16.000Z</time>
      </trkpt>
      <trkpt lat="44.19736" lon="3.17884">
        <ele>399</ele>
        <time>2024-01-30T08:00:17.000Z</time>
      </trkpt>
      <trkpt lat="44.197" lon="3.17929">
        <ele>397.39999389648</ele>
        <time>2024-01-30T08:00:20.000Z</time>
      </trkpt>
      <trkpt lat="44.19674" lon="3.17961">
        <ele>396</ele>
        <time>2024-01-30T08:00:22.000Z</time>
      </trkpt>
      <trkpt lat="44.19662" lon="3.17978">
        <ele>395.60000610352</ele>
        <time>2024-01-30T08:00:23.000Z</time>
      </trkpt>
      <trkpt lat="44.19642" lon="3.18015">
        <ele>394.60000610352</ele>
        <time>2024-01-30T08:00:25.000Z</time>
      </trkpt>
      <trkpt lat="44.19634" lon="3.18036">
        <ele>394.20001220703</ele>
        <time>2024-01-30T08:00:26.000Z</time>
      </trkpt>
      <trkpt lat="44.19616" lon="3.18082">
        <ele>393.39999389648</ele>
        <time>2024-01-30T08:00:28.000Z</time>
      </trkpt>
      <trkpt lat="44.19583" lon="3.18155">
        <ele>393</ele>
        <time>2024-01-30T08:00:32.000Z</time>
      </trkpt>
      <trkpt lat="44.19544" lon="3.18227">
        <ele>393.60000610352</ele>
        <time>2024-01-30T08:00:36.000Z</time>
      </trkpt>
      <trkpt lat="44.19534" lon="3.18246">
        <ele>394</ele>
        <time>2024-01-30T08:00:37.000Z</time>
      </trkpt>
      <trkpt lat="44.19516" lon="3.18283">
        <ele>395.60000610352</ele>
        <time>2024-01-30T08:00:39.000Z</time>
      </trkpt>
      <trkpt lat="44.19499" lon="3.18321">
        <ele>398.20001220703</ele>
        <time>2024-01-30T08:00:41.000Z</time>
      </trkpt>
      <trkpt lat="44.1949" lon="3.1834">
        <ele>399.39999389648</ele>
        <time>2024-01-30T08:00:42.000Z</time>
      </trkpt>
      <trkpt lat="44.19482" lon="3.1836">
        <ele>400.60000610352</ele>
        <time>2024-01-30T08:00:43.000Z</time>
      </trkpt>
      <trkpt lat="44.19473" lon="3.18379">
        <ele>401.60000610352</ele>
        <time>2024-01-30T08:00:44.000Z</time>
      </trkpt>
      <trkpt lat="44.19465" lon="3.18397">
        <ele>402.79998779297</ele>
        <time>2024-01-30T08:00:45.000Z</time>
      </trkpt>
      <trkpt lat="44.19458" lon="3.18416">
        <ele>404</ele>
        <time>2024-01-30T08:00:46.000Z</time>
      </trkpt>
      <trkpt lat="44.19453" lon="3.18435">
        <ele>404.60000610352</ele>
        <time>2024-01-30T08:00:47.000Z</time>
      </trkpt>
      <trkpt lat="44.19449" lon="3.18455">
        <ele>405.60000610352</ele>
        <time>2024-01-30T08:00:48.000Z</time>
      </trkpt>
      <trkpt lat="44.19447" lon="3.18475">
        <ele>406.20001220703</ele>
        <time>2024-01-30T08:00:49.000Z</time>
      </trkpt>
      <trkpt lat="44.19447" lon="3.18496">
        <ele>407.60000610352</ele>
        <time>2024-01-30T08:00:50.000Z</time>
      </trkpt>
      <trkpt lat="44.19447" lon="3.18517">
        <ele>408.79998779297</ele>
        <time>2024-01-30T08:00:51.000Z</time>
      </trkpt>
      <trkpt lat="44.19447" lon="3.18558">
        <ele>410.60000610352</ele>
        <time>2024-01-30T08:00:53.000Z</time>
      </trkpt>
      <trkpt lat="44.19447" lon="3.186">
        <ele>412</ele>
        <time>2024-01-30T08:00:55.000Z</time>
      </trkpt>
      <trkpt lat="44.19442" lon="3.18643">
        <ele>414</ele>
        <time>2024-01-30T08:00:57.000Z</time>
      </trkpt>
      <trkpt lat="44.19437" lon="3.18663">
        <ele>414.20001220703</ele>
        <time>2024-01-30T08:00:58.000Z</time>
      </trkpt>
      <trkpt lat="44.19425" lon="3.18702">
        <ele>414.20001220703</ele>
        <time>2024-01-30T08:01:00.000Z</time>
      </trkpt>
      <trkpt lat="44.19407" lon="3.18759">
        <ele>413.39999389648</ele>
        <time>2024-01-30T08:01:03.000Z</time>
      </trkpt>
      <trkpt lat="44.19403" lon="3.18779">
        <ele>412.79998779297</ele>
        <time>2024-01-30T08:01:04.000Z</time>
      </trkpt>
      <trkpt lat="44.19402" lon="3.1882">
        <ele>411.39999389648</ele>
        <time>2024-01-30T08:01:06.000Z</time>
      </trkpt>
      <trkpt lat="44.19406" lon="3.18863">
        <ele>410.20001220703</ele>
        <time>2024-01-30T08:01:08.000Z</time>
      </trkpt>
      <trkpt lat="44.19412" lon="3.18908">
        <ele>408.79998779297</ele>
        <time>2024-01-30T08:01:10.000Z</time>
      </trkpt>
      <trkpt lat="44.19419" lon="3.18954">
        <ele>407.60000610352</ele>
        <time>2024-01-30T08:01:12.000Z</time>
      </trkpt>
      <trkpt lat="44.19426" lon="3.19001">
        <ele>405.79998779297</ele>
        <time>2024-01-30T08:01:14.000Z</time>
      </trkpt>
      <trkpt lat="44.19432" lon="3.19048">
        <ele>404.20001220703</ele>
        <time>2024-01-30T08:01:16.000Z</time>
      </trkpt>
      <trkpt lat="44.19435" lon="3.19072">
        <ele>403.39999389648</ele>
        <time>2024-01-30T08:01:17.000Z</time>
      </trkpt>
      <trkpt lat="44.19437" lon="3.19096">
        <ele>403.20001220703</ele>
        <time>2024-01-30T08:01:18.000Z</time>
      </trkpt>
      <trkpt lat="44.19442" lon="3.19145">
        <ele>401.79998779297</ele>
        <time>2024-01-30T08:01:20.000Z</time>
      </trkpt>
      <trkpt lat="44.19448" lon="3.19194">
        <ele>400</ele>
        <time>2024-01-30T08:01:22.000Z</time>
      </trkpt>
      <trkpt lat="44.19455" lon="3.19243">
        <ele>398.60000610352</ele>
        <time>2024-01-30T08:01:24.000Z</time>
      </trkpt>
      <trkpt lat="44.19464" lon="3.19293">
        <ele>397.20001220703</ele>
        <time>2024-01-30T08:01:26.000Z</time>
      </trkpt>
      <trkpt lat="44.19476" lon="3.19366">
        <ele>396.20001220703</ele>
        <time>2024-01-30T08:01:29.000Z</time>
      </trkpt>
      <trkpt lat="44.19479" lon="3.19391">
        <ele>395.39999389648</ele>
        <time>2024-01-30T08:01:30.000Z</time>
      </trkpt>
      <trkpt lat="44.1948" lon="3.19415">
        <ele>395</ele>
        <time>2024-01-30T08:01:31.000Z</time>
      </trkpt>
      <trkpt lat="44.19477" lon="3.19461">
        <ele>394.79998779297</ele>
        <time>2024-01-30T08:01:33.000Z</time>
      </trkpt>
      <trkpt lat="44.19466" lon="3.19551">
        <ele>395</ele>
        <time>2024-01-30T08:01:37.000Z</time>
      </trkpt>
      <trkpt lat="44.19459" lon="3.19594">
        <ele>395</ele>
        <time>2024-01-30T08:01:39.000Z</time>
      </trkpt>
      <trkpt lat="44.19444" lon="3.19657">
        <ele>395.39999389648</ele>
        <time>2024-01-30T08:01:42.000Z</time>
      </trkpt>
      <trkpt lat="44.19436" lon="3.19676">
        <ele>395.60000610352</ele>
        <time>2024-01-30T08:01:43.000Z</time>
      </trkpt>
      <trkpt lat="44.19417" lon="3.19713">
        <ele>396</ele>
        <time>2024-01-30T08:01:45.000Z</time>
      </trkpt>
      <trkpt lat="44.19408" lon="3.19731">
        <ele>396.20001220703</ele>
        <time>2024-01-30T08:01:46.000Z</time>
      </trkpt>
      <trkpt lat="44.19375" lon="3.1981">
        <ele>397.39999389648</ele>
        <time>2024-01-30T08:01:50.000Z</time>
      </trkpt>
      <trkpt lat="44.19344" lon="3.19894">
        <ele>398.39999389648</ele>
        <time>2024-01-30T08:01:54.000Z</time>
      </trkpt>
      <trkpt lat="44.19328" lon="3.19937">
        <ele>398.79998779297</ele>
        <time>2024-01-30T08:01:56.000Z</time>
      </trkpt>
      <trkpt lat="44.19298" lon="3.20018">
        <ele>398.79998779297</ele>
        <time>2024-01-30T08:02:00.000Z</time>
      </trkpt>
      <trkpt lat="44.19289" lon="3.20036">
        <ele>398.79998779297</ele>
        <time>2024-01-30T08:02:01.000Z</time>
      </trkpt>
      <trkpt lat="44.19278" lon="3.20053">
        <ele>399.20001220703</ele>
        <time>2024-01-30T08:02:02.000Z</time>
      </trkpt>
      <trkpt lat="44.19253" lon="3.20083">
        <ele>399.60000610352</ele>
        <time>2024-01-30T08:02:04.000Z</time>
      </trkpt>
      <trkpt lat="44.19201" lon="3.20141">
        <ele>400.20001220703</ele>
        <time>2024-01-30T08:02:08.000Z</time>
      </trkpt>
      <trkpt lat="44.19175" lon="3.20166">
        <ele>400.39999389648</ele>
        <time>2024-01-30T08:02:10.000Z</time>
      </trkpt>
      <trkpt lat="44.19162" lon="3.20177">
        <ele>400.39999389648</ele>
        <time>2024-01-30T08:02:11.000Z</time>
      </trkpt>
      <trkpt lat="44.19132" lon="3.20191">
        <ele>400.79998779297</ele>
        <time>2024-01-30T08:02:13.000Z</time>
      </trkpt>
      <trkpt lat="44.19102" lon="3.20201">
        <ele>401.79998779297</ele>
        <time>2024-01-30T08:02:15.000Z</time>
      </trkpt>
      <trkpt lat="44.19086" lon="3.20206">
        <ele>402.79998779297</ele>
        <time>2024-01-30T08:02:16.000Z</time>
      </trkpt>
      <trkpt lat="44.19058" lon="3.20218">
        <ele>404.20001220703</ele>
        <time>2024-01-30T08:02:18.000Z</time>
      </trkpt>
      <trkpt lat="44.19042" lon="3.20226">
        <ele>405</ele>
        <time>2024-01-30T08:02:19.000Z</time>
      </trkpt>
      <trkpt lat="44.19032" lon="3.20232">
        <ele>405.60000610352</ele>
        <time>2024-01-30T08:02:20.000Z</time>
      </trkpt>
      <trkpt lat="44.19022" lon="3.20242">
        <ele>406.20001220703</ele>
        <time>2024-01-30T08:02:21.000Z</time>
      </trkpt>
      <trkpt lat="44.1901" lon="3.20258">
        <ele>407.39999389648</ele>
        <time>2024-01-30T08:02:22.000Z</time>
      </trkpt>
      <trkpt lat="44.19" lon="3.20271">
        <ele>408.39999389648</ele>
        <time>2024-01-30T08:02:23.000Z</time>
      </trkpt>
      <trkpt lat="44.18993" lon="3.20287">
        <ele>409.60000610352</ele>
        <time>2024-01-30T08:02:24.000Z</time>
      </trkpt>
      <trkpt lat="44.18986" lon="3.20304">
        <ele>410.79998779297</ele>
        <time>2024-01-30T08:02:25.000Z</time>
      </trkpt>
      <trkpt lat="44.18979" lon="3.20322">
        <ele>412.20001220703</ele>
        <time>2024-01-30T08:02:26.000Z</time>
      </trkpt>
      <trkpt lat="44.18967" lon="3.20358">
        <ele>414</ele>
        <time>2024-01-30T08:02:28.000Z</time>
      </trkpt>
      <trkpt lat="44.18963" lon="3.20376">
        <ele>415.39999389648</ele>
        <time>2024-01-30T08:02:29.000Z</time>
      </trkpt>
      <trkpt lat="44.18959" lon="3.20394">
        <ele>417.20001220703</ele>
        <time>2024-01-30T08:02:30.000Z</time>
      </trkpt>
      <trkpt lat="44.18953" lon="3.20433">
        <ele>418.39999389648</ele>
        <time>2024-01-30T08:02:32.000Z</time>
      </trkpt>
      <trkpt lat="44.1895" lon="3.20452">
        <ele>420</ele>
        <time>2024-01-30T08:02:33.000Z</time>
      </trkpt>
      <trkpt lat="44.18947" lon="3.2047">
        <ele>420.60000610352</ele>
        <time>2024-01-30T08:02:34.000Z</time>
      </trkpt>
      <trkpt lat="44.18944" lon="3.20487">
        <ele>421.20001220703</ele>
        <time>2024-01-30T08:02:35.000Z</time>
      </trkpt>
      <trkpt lat="44.18943" lon="3.20503">
        <ele>422.20001220703</ele>
        <time>2024-01-30T08:02:36.000Z</time>
      </trkpt>
      <trkpt lat="44.18943" lon="3.20519">
        <ele>423</ele>
        <time>2024-01-30T08:02:37.000Z</time>
      </trkpt>
      <trkpt lat="44.18944" lon="3.20533">
        <ele>423.79998779297</ele>
        <time>2024-01-30T08:02:38.000Z</time>
      </trkpt>
      <trkpt lat="44.18946" lon="3.20553">
        <ele>424.39999389648</ele>
        <time>2024-01-30T08:02:40.000Z</time>
      </trkpt>
      <trkpt lat="44.18946" lon="3.20557">
        <ele>424.79998779297</ele>
        <time>2024-01-30T08:02:41.000Z</time>
      </trkpt>
      <trkpt lat="44.18946" lon="3.20559">
        <ele>425.20001220703</ele>
        <time>2024-01-30T08:02:42.000Z</time>
      </trkpt>
      <trkpt lat="44.18946" lon="3.2056">
        <ele>425.60000610352</ele>
        <time>2024-01-30T08:02:43.000Z</time>
      </trkpt>
      <trkpt lat="44.18946" lon="3.20556">
        <ele>425.60000610352</ele>
        <time>2024-01-30T08:02:47.000Z</time>
      </trkpt>
      <trkpt lat="44.18944" lon="3.20544">
        <ele>425.20001220703</ele>
        <time>2024-01-30T08:02:55.000Z</time>
      </trkpt>
      <trkpt lat="44.18944" lon="3.20544">
        <ele>425</ele>
        <time>2024-01-30T08:03:03.000Z</time>
      </trkpt>
      <trkpt lat="44.18944" lon="3.20544">
        <ele>425</ele>
        <time>2024-01-30T08:03:28.000Z</time>
      </trkpt>
      <trkpt lat="44.18943" lon="3.20546">
        <ele>425</ele>
        <time>2024-01-30T08:03:32.000Z</time>
      </trkpt>
      <trkpt lat="44.18943" lon="3.20554">
        <ele>425.39999389648</ele>
        <time>2024-01-30T08:03:34.000Z</time>
      </trkpt>
      <trkpt lat="44.18944" lon="3.20577">
        <ele>426.20001220703</ele>
        <time>2024-01-30T08:03:38.000Z</time>
      </trkpt>
      <trkpt lat="44.18944" lon="3.20583">
        <ele>426.60000610352</ele>
        <time>2024-01-30T08:03:39.000Z</time>
      </trkpt>
      <trkpt lat="44.18942" lon="3.20598">
        <ele>427.20001220703</ele>
        <time>2024-01-30T08:03:41.000Z</time>
      </trkpt>
      <trkpt lat="44.1894" lon="3.20625">
        <ele>428.60000610352</ele>
        <time>2024-01-30T08:03:44.000Z</time>
      </trkpt>
      <trkpt lat="44.18937" lon="3.20653">
        <ele>429.79998779297</ele>
        <time>2024-01-30T08:03:47.000Z</time>
      </trkpt>
      <trkpt lat="44.18934" lon="3.20681">
        <ele>430.60000610352</ele>
        <time>2024-01-30T08:03:50.000Z</time>
      </trkpt>
      <trkpt lat="44.18925" lon="3.20731">
        <ele>429.60000610352</ele>
        <time>2024-01-30T08:03:56.000Z</time>
      </trkpt>
      <trkpt lat="44.18919" lon="3.20755">
        <ele>428.60000610352</ele>
        <time>2024-01-30T08:03:59.000Z</time>
      </trkpt>
      <trkpt lat="44.18911" lon="3.20782">
        <ele>427.79998779297</ele>
        <time>2024-01-30T08:04:03.000Z</time>
      </trkpt>
      <trkpt lat="44.18908" lon="3.20789">
        <ele>427.60000610352</ele>
        <time>2024-01-30T08:04:04.000Z</time>
      </trkpt>
      <trkpt lat="44.18897" lon="3.20815">
        <ele>426.79998779297</ele>
        <time>2024-01-30T08:04:08.000Z</time>
      </trkpt>
      <trkpt lat="44.18896" lon="3.20824">
        <ele>426.39999389648</ele>
        <time>2024-01-30T08:04:09.000Z</time>
      </trkpt>
      <trkpt lat="44.18896" lon="3.20833">
        <ele>426</ele>
        <time>2024-01-30T08:04:10.000Z</time>
      </trkpt>
      <trkpt lat="44.189" lon="3.20849">
        <ele>425.39999389648</ele>
        <time>2024-01-30T08:04:12.000Z</time>
      </trkpt>
      <trkpt lat="44.18904" lon="3.2086">
        <ele>424.60000610352</ele>
        <time>2024-01-30T08:04:14.000Z</time>
      </trkpt>
      <trkpt lat="44.18909" lon="3.20866">
        <ele>424.39999389648</ele>
        <time>2024-01-30T08:04:15.000Z</time>
      </trkpt>
      <trkpt lat="44.18912" lon="3.20871">
        <ele>424.20001220703</ele>
        <time>2024-01-30T08:04:16.000Z</time>
      </trkpt>
      <trkpt lat="44.18916" lon="3.20883">
        <ele>423.39999389648</ele>
        <time>2024-01-30T08:04:18.000Z</time>
      </trkpt>
      <trkpt lat="44.18917" lon="3.2089">
        <ele>423.20001220703</ele>
        <time>2024-01-30T08:04:19.000Z</time>
      </trkpt>
      <trkpt lat="44.18922" lon="3.20924">
        <ele>422.39999389648</ele>
        <time>2024-01-30T08:04:23.000Z</time>
      </trkpt>
      <trkpt lat="44.18924" lon="3.20942">
        <ele>421.39999389648</ele>
        <time>2024-01-30T08:04:25.000Z</time>
      </trkpt>
      <trkpt lat="44.1893" lon="3.20979">
        <ele>420.20001220703</ele>
        <time>2024-01-30T08:04:29.000Z</time>
      </trkpt>
      <trkpt lat="44.18933" lon="3.20997">
        <ele>419.39999389648</ele>
        <time>2024-01-30T08:04:31.000Z</time>
      </trkpt>
      <trkpt lat="44.18932" lon="3.21004">
        <ele>418.79998779297</ele>
        <time>2024-01-30T08:04:32.000Z</time>
      </trkpt>
      <trkpt lat="44.1893" lon="3.21021">
        <ele>418.20001220703</ele>
        <time>2024-01-30T08:04:34.000Z</time>
      </trkpt>
      <trkpt lat="44.18928" lon="3.21025">
        <ele>417.39999389648</ele>
        <time>2024-01-30T08:04:35.000Z</time>
      </trkpt>
      <trkpt lat="44.18923" lon="3.2103">
        <ele>416.79998779297</ele>
        <time>2024-01-30T08:04:36.000Z</time>
      </trkpt>
      <trkpt lat="44.18918" lon="3.21031">
        <ele>416.60000610352</ele>
        <time>2024-01-30T08:04:37.000Z</time>
      </trkpt>
      <trkpt lat="44.18915" lon="3.21028">
        <ele>416.39999389648</ele>
        <time>2024-01-30T08:04:38.000Z</time>
      </trkpt>
      <trkpt lat="44.18911" lon="3.21024">
        <ele>416.20001220703</ele>
        <time>2024-01-30T08:04:39.000Z</time>
      </trkpt>
      <trkpt lat="44.18907" lon="3.21018">
        <ele>416</ele>
        <time>2024-01-30T08:04:40.000Z</time>
      </trkpt>
      <trkpt lat="44.18889" lon="3.20999">
        <ele>415.20001220703</ele>
        <time>2024-01-30T08:04:43.000Z</time>
      </trkpt>
      <trkpt lat="44.1888" lon="3.2099">
        <ele>415</ele>
        <time>2024-01-30T08:04:44.000Z</time>
      </trkpt>
      <trkpt lat="44.18861" lon="3.20964">
        <ele>413.79998779297</ele>
        <time>2024-01-30T08:04:47.000Z</time>
      </trkpt>
      <trkpt lat="44.18845" lon="3.20947">
        <ele>412.60000610352</ele>
        <time>2024-01-30T08:04:50.000Z</time>
      </trkpt>
      <trkpt lat="44.18842" lon="3.20945">
        <ele>412.20001220703</ele>
        <time>2024-01-30T08:04:51.000Z</time>
      </trkpt>
      <trkpt lat="44.18837" lon="3.20944">
        <ele>412.20001220703</ele>
        <time>2024-01-30T08:04:54.000Z</time>
      </trkpt>
      <trkpt lat="44.18834" lon="3.20946">
        <ele>412.39999389648</ele>
        <time>2024-01-30T08:04:57.000Z</time>
      </trkpt>
      <trkpt lat="44.18834" lon="3.20954">
        <ele>412.39999389648</ele>
        <time>2024-01-30T08:04:59.000Z</time>
      </trkpt>
      <trkpt lat="44.18843" lon="3.20966">
        <ele>412.20001220703</ele>
        <time>2024-01-30T08:05:02.000Z</time>
      </trkpt>
      <trkpt lat="44.18864" lon="3.20986">
        <ele>411.20001220703</ele>
        <time>2024-01-30T08:05:06.000Z</time>
      </trkpt>
      <trkpt lat="44.18878" lon="3.21005">
        <ele>410</ele>
        <time>2024-01-30T08:05:08.000Z</time>
      </trkpt>
      <trkpt lat="44.18891" lon="3.21024">
        <ele>408.79998779297</ele>
        <time>2024-01-30T08:05:10.000Z</time>
      </trkpt>
      <trkpt lat="44.18907" lon="3.21038">
        <ele>407.79998779297</ele>
        <time>2024-01-30T08:05:12.000Z</time>
      </trkpt>
      <trkpt lat="44.18923" lon="3.21049">
        <ele>407</ele>
        <time>2024-01-30T08:05:14.000Z</time>
      </trkpt>
      <trkpt lat="44.18929" lon="3.21054">
        <ele>406</ele>
        <time>2024-01-30T08:05:15.000Z</time>
      </trkpt>
      <trkpt lat="44.18938" lon="3.2106">
        <ele>405.20001220703</ele>
        <time>2024-01-30T08:05:16.000Z</time>
      </trkpt>
      <trkpt lat="44.18946" lon="3.21063">
        <ele>404.60000610352</ele>
        <time>2024-01-30T08:05:17.000Z</time>
      </trkpt>
      <trkpt lat="44.18954" lon="3.21063">
        <ele>403.79998779297</ele>
        <time>2024-01-30T08:05:18.000Z</time>
      </trkpt>
      <trkpt lat="44.18961" lon="3.2106">
        <ele>403.39999389648</ele>
        <time>2024-01-30T08:05:19.000Z</time>
      </trkpt>
      <trkpt lat="44.18966" lon="3.21056">
        <ele>403</ele>
        <time>2024-01-30T08:05:20.000Z</time>
      </trkpt>
      <trkpt lat="44.18972" lon="3.21049">
        <ele>402.60000610352</ele>
        <time>2024-01-30T08:05:21.000Z</time>
      </trkpt>
      <trkpt lat="44.18976" lon="3.21042">
        <ele>402.20001220703</ele>
        <time>2024-01-30T08:05:22.000Z</time>
      </trkpt>
      <trkpt lat="44.18983" lon="3.21023">
        <ele>401</ele>
        <time>2024-01-30T08:05:24.000Z</time>
      </trkpt>
      <trkpt lat="44.18986" lon="3.21011">
        <ele>400.60000610352</ele>
        <time>2024-01-30T08:05:25.000Z</time>
      </trkpt>
      <trkpt lat="44.18992" lon="3.20984">
        <ele>399.39999389648</ele>
        <time>2024-01-30T08:05:28.000Z</time>
      </trkpt>
      <trkpt lat="44.18997" lon="3.20962">
        <ele>398.60000610352</ele>
        <time>2024-01-30T08:05:31.000Z</time>
      </trkpt>
      <trkpt lat="44.19005" lon="3.20954">
        <ele>398.39999389648</ele>
        <time>2024-01-30T08:05:34.000Z</time>
      </trkpt>
      <trkpt lat="44.1902" lon="3.20955">
        <ele>398.39999389648</ele>
        <time>2024-01-30T08:05:39.000Z</time>
      </trkpt>
      <trkpt lat="44.19043" lon="3.2096">
        <ele>398.60000610352</ele>
        <time>2024-01-30T08:05:48.000Z</time>
      </trkpt>
      <trkpt lat="44.19043" lon="3.2096">
        <ele>398.79998779297</ele>
        <time>2024-01-30T08:05:52.000Z</time>
      </trkpt>
      <trkpt lat="44.19045" lon="3.20959">
        <ele>398.79998779297</ele>
        <time>2024-01-30T08:05:55.000Z</time>
      </trkpt>
      <trkpt lat="44.19048" lon="3.20956">
        <ele>398.79998779297</ele>
        <time>2024-01-30T08:05:57.000Z</time>
      </trkpt>
      <trkpt lat="44.19053" lon="3.20936">
        <ele>398.79998779297</ele>
        <time>2024-01-30T08:06:02.000Z</time>
      </trkpt>
      <trkpt lat="44.19053" lon="3.20915">
        <ele>399.20001220703</ele>
        <time>2024-01-30T08:06:07.000Z</time>
      </trkpt>
      <trkpt lat="44.19055" lon="3.20898">
        <ele>399.39999389648</ele>
        <time>2024-01-30T08:06:09.000Z</time>
      </trkpt>
      <trkpt lat="44.19057" lon="3.20882">
        <ele>399.60000610352</ele>
        <time>2024-01-30T08:06:11.000Z</time>
      </trkpt>
      <trkpt lat="44.19061" lon="3.20829">
        <ele>400.20001220703</ele>
        <time>2024-01-30T08:06:16.000Z</time>
      </trkpt>
      <trkpt lat="44.19065" lon="3.20771">
        <ele>400.20001220703</ele>
        <time>2024-01-30T08:06:22.000Z</time>
      </trkpt>
      <trkpt lat="44.19069" lon="3.20762">
        <ele>400.39999389648</ele>
        <time>2024-01-30T08:06:24.000Z</time>
      </trkpt>
      <trkpt lat="44.19071" lon="3.2076">
        <ele>400.60000610352</ele>
        <time>2024-01-30T08:06:25.000Z</time>
      </trkpt>
      <trkpt lat="44.19085" lon="3.20752">
        <ele>401.60000610352</ele>
        <time>2024-01-30T08:06:28.000Z</time>
      </trkpt>
      <trkpt lat="44.19092" lon="3.20749">
        <ele>402.20001220703</ele>
        <time>2024-01-30T08:06:29.000Z</time>
      </trkpt>
      <trkpt lat="44.19099" lon="3.20744">
        <ele>402.79998779297</ele>
        <time>2024-01-30T08:06:30.000Z</time>
      </trkpt>
      <trkpt lat="44.19116" lon="3.20735">
        <ele>403.79998779297</ele>
        <time>2024-01-30T08:06:32.000Z</time>
      </trkpt>
      <trkpt lat="44.19137" lon="3.20725">
        <ele>405.39999389648</ele>
        <time>2024-01-30T08:06:35.000Z</time>
      </trkpt>
      <trkpt lat="44.19158" lon="3.20713">
        <ele>406.79998779297</ele>
        <time>2024-01-30T08:06:38.000Z</time>
      </trkpt>
      <trkpt lat="44.19173" lon="3.20707">
        <ele>407.39999389648</ele>
        <time>2024-01-30T08:06:40.000Z</time>
      </trkpt>
      <trkpt lat="44.19189" lon="3.20706">
        <ele>407.79998779297</ele>
        <time>2024-01-30T08:06:42.000Z</time>
      </trkpt>
      <trkpt lat="44.19228" lon="3.20715">
        <ele>408</ele>
        <time>2024-01-30T08:06:47.000Z</time>
      </trkpt>
      <trkpt lat="44.19234" lon="3.20718">
        <ele>408</ele>
        <time>2024-01-30T08:06:48.000Z</time>
      </trkpt>
      <trkpt lat="44.19245" lon="3.20728">
        <ele>408.20001220703</ele>
        <time>2024-01-30T08:06:50.000Z</time>
      </trkpt>
      <trkpt lat="44.1925" lon="3.20735">
        <ele>408.20001220703</ele>
        <time>2024-01-30T08:06:51.000Z</time>
      </trkpt>
      <trkpt lat="44.19279" lon="3.20768">
        <ele>408.79998779297</ele>
        <time>2024-01-30T08:06:56.000Z</time>
      </trkpt>
      <trkpt lat="44.19291" lon="3.20784">
        <ele>408.79998779297</ele>
        <time>2024-01-30T08:06:58.000Z</time>
      </trkpt>
      <trkpt lat="44.19302" lon="3.20805">
        <ele>408</ele>
        <time>2024-01-30T08:07:00.000Z</time>
      </trkpt>
      <trkpt lat="44.19323" lon="3.20846">
        <ele>406.60000610352</ele>
        <time>2024-01-30T08:07:04.000Z</time>
      </trkpt>
      <trkpt lat="44.1933" lon="3.20852">
        <ele>405.79998779297</ele>
        <time>2024-01-30T08:07:05.000Z</time>
      </trkpt>
      <trkpt lat="44.19336" lon="3.20853">
        <ele>405.20001220703</ele>
        <time>2024-01-30T08:07:06.000Z</time>
      </trkpt>
      <trkpt lat="44.19351" lon="3.20849">
        <ele>404.79998779297</ele>
        <time>2024-01-30T08:07:08.000Z</time>
      </trkpt>
      <trkpt lat="44.19365" lon="3.20842">
        <ele>404.20001220703</ele>
        <time>2024-01-30T08:07:10.000Z</time>
      </trkpt>
      <trkpt lat="44.19396" lon="3.20823">
        <ele>403</ele>
        <time>2024-01-30T08:07:15.000Z</time>
      </trkpt>
      <trkpt lat="44.19418" lon="3.20812">
        <ele>401.79998779297</ele>
        <time>2024-01-30T08:07:19.000Z</time>
      </trkpt>
      <trkpt lat="44.19422" lon="3.20809">
        <ele>401.60000610352</ele>
        <time>2024-01-30T08:07:20.000Z</time>
      </trkpt>
      <trkpt lat="44.19445" lon="3.20802">
        <ele>400.79998779297</ele>
        <time>2024-01-30T08:07:26.000Z</time>
      </trkpt>
      <trkpt lat="44.19449" lon="3.20803">
        <ele>400.60000610352</ele>
        <time>2024-01-30T08:07:27.000Z</time>
      </trkpt>
      <trkpt lat="44.19463" lon="3.20811">
        <ele>399.79998779297</ele>
        <time>2024-01-30T08:07:31.000Z</time>
      </trkpt>
      <trkpt lat="44.19465" lon="3.20815">
        <ele>399.79998779297</ele>
        <time>2024-01-30T08:07:32.000Z</time>
      </trkpt>
      <trkpt lat="44.19468" lon="3.20828">
        <ele>399.79998779297</ele>
        <time>2024-01-30T08:07:34.000Z</time>
      </trkpt>
      <trkpt lat="44.19469" lon="3.20837">
        <ele>399.60000610352</ele>
        <time>2024-01-30T08:07:35.000Z</time>
      </trkpt>
      <trkpt lat="44.19474" lon="3.20862">
        <ele>399.39999389648</ele>
        <time>2024-01-30T08:07:38.000Z</time>
      </trkpt>
      <trkpt lat="44.19476" lon="3.20876">
        <ele>399.20001220703</ele>
        <time>2024-01-30T08:07:40.000Z</time>
      </trkpt>
      <trkpt lat="44.19483" lon="3.20913">
        <ele>398.39999389648</ele>
        <time>2024-01-30T08:07:46.000Z</time>
      </trkpt>
      <trkpt lat="44.19486" lon="3.20924">
        <ele>398.20001220703</ele>
        <time>2024-01-30T08:07:48.000Z</time>
      </trkpt>
      <trkpt lat="44.19492" lon="3.20948">
        <ele>398.20001220703</ele>
        <time>2024-01-30T08:07:52.000Z</time>
      </trkpt>
      <trkpt lat="44.19507" lon="3.20997">
        <ele>397.79998779297</ele>
        <time>2024-01-30T08:07:59.000Z</time>
      </trkpt>
      <trkpt lat="44.19532" lon="3.21074">
        <ele>398</ele>
        <time>2024-01-30T08:08:09.000Z</time>
      </trkpt>
      <trkpt lat="44.19536" lon="3.21083">
        <ele>398.20001220703</ele>
        <time>2024-01-30T08:08:10.000Z</time>
      </trkpt>
      <trkpt lat="44.19547" lon="3.21101">
        <ele>398.39999389648</ele>
        <time>2024-01-30T08:08:12.000Z</time>
      </trkpt>
      <trkpt lat="44.1958" lon="3.21145">
        <ele>398.20001220703</ele>
        <time>2024-01-30T08:08:16.000Z</time>
      </trkpt>
      <trkpt lat="44.19597" lon="3.21165">
        <ele>398</ele>
        <time>2024-01-30T08:08:18.000Z</time>
      </trkpt>
      <trkpt lat="44.19615" lon="3.21179">
        <ele>398</ele>
        <time>2024-01-30T08:08:20.000Z</time>
      </trkpt>
      <trkpt lat="44.19658" lon="3.21193">
        <ele>398.20001220703</ele>
        <time>2024-01-30T08:08:24.000Z</time>
      </trkpt>
      <trkpt lat="44.19692" lon="3.21211">
        <ele>398.79998779297</ele>
        <time>2024-01-30T08:08:27.000Z</time>
      </trkpt>
      <trkpt lat="44.19703" lon="3.21219">
        <ele>399.20001220703</ele>
        <time>2024-01-30T08:08:28.000Z</time>
      </trkpt>
      <trkpt lat="44.19714" lon="3.21228">
        <ele>399.60000610352</ele>
        <time>2024-01-30T08:08:29.000Z</time>
      </trkpt>
      <trkpt lat="44.19748" lon="3.21264">
        <ele>400.60000610352</ele>
        <time>2024-01-30T08:08:32.000Z</time>
      </trkpt>
      <trkpt lat="44.19761" lon="3.21278">
        <ele>401.39999389648</ele>
        <time>2024-01-30T08:08:33.000Z</time>
      </trkpt>
      <trkpt lat="44.19787" lon="3.21302">
        <ele>402</ele>
        <time>2024-01-30T08:08:35.000Z</time>
      </trkpt>
      <trkpt lat="44.19818" lon="3.21324">
        <ele>403</ele>
        <time>2024-01-30T08:08:37.000Z</time>
      </trkpt>
      <trkpt lat="44.19851" lon="3.21346">
        <ele>403.60000610352</ele>
        <time>2024-01-30T08:08:39.000Z</time>
      </trkpt>
      <trkpt lat="44.19885" lon="3.21368">
        <ele>404</ele>
        <time>2024-01-30T08:08:41.000Z</time>
      </trkpt>
      <trkpt lat="44.19933" lon="3.21395">
        <ele>404</ele>
        <time>2024-01-30T08:08:44.000Z</time>
      </trkpt>
      <trkpt lat="44.19982" lon="3.21408">
        <ele>403.79998779297</ele>
        <time>2024-01-30T08:08:47.000Z</time>
      </trkpt>
      <trkpt lat="44.20044" lon="3.21415">
        <ele>403.60000610352</ele>
        <time>2024-01-30T08:08:51.000Z</time>
      </trkpt>
      <trkpt lat="44.201" lon="3.2142">
        <ele>403.79998779297</ele>
        <time>2024-01-30T08:08:55.000Z</time>
      </trkpt>
      <trkpt lat="44.20154" lon="3.21441">
        <ele>404</ele>
        <time>2024-01-30T08:08:59.000Z</time>
      </trkpt>
      <trkpt lat="44.20209" lon="3.21474">
        <ele>404.79998779297</ele>
        <time>2024-01-30T08:09:03.000Z</time>
      </trkpt>
      <trkpt lat="44.20223" lon="3.21486">
        <ele>405.20001220703</ele>
        <time>2024-01-30T08:09:04.000Z</time>
      </trkpt>
      <trkpt lat="44.2025" lon="3.21515">
        <ele>405.60000610352</ele>
        <time>2024-01-30T08:09:06.000Z</time>
      </trkpt>
      <trkpt lat="44.20304" lon="3.2158">
        <ele>406</ele>
        <time>2024-01-30T08:09:10.000Z</time>
      </trkpt>
      <trkpt lat="44.20316" lon="3.21599">
        <ele>406</ele>
        <time>2024-01-30T08:09:11.000Z</time>
      </trkpt>
      <trkpt lat="44.20325" lon="3.21614">
        <ele>406.20001220703</ele>
        <time>2024-01-30T08:09:12.000Z</time>
      </trkpt>
      <trkpt lat="44.20347" lon="3.2166">
        <ele>406.20001220703</ele>
        <time>2024-01-30T08:09:14.000Z</time>
      </trkpt>
      <trkpt lat="44.20368" lon="3.21699">
        <ele>406.60000610352</ele>
        <time>2024-01-30T08:09:16.000Z</time>
      </trkpt>
      <trkpt lat="44.2038" lon="3.21717">
        <ele>406.39999389648</ele>
        <time>2024-01-30T08:09:17.000Z</time>
      </trkpt>
      <trkpt lat="44.20415" lon="3.21771">
        <ele>406.39999389648</ele>
        <time>2024-01-30T08:09:20.000Z</time>
      </trkpt>
      <trkpt lat="44.20429" lon="3.21786">
        <ele>406.60000610352</ele>
        <time>2024-01-30T08:09:21.000Z</time>
      </trkpt>
      <trkpt lat="44.20486" lon="3.21844">
        <ele>407</ele>
        <time>2024-01-30T08:09:25.000Z</time>
      </trkpt>
      <trkpt lat="44.20498" lon="3.2186">
        <ele>407</ele>
        <time>2024-01-30T08:09:26.000Z</time>
      </trkpt>
      <trkpt lat="44.20521" lon="3.21891">
        <ele>407.20001220703</ele>
        <time>2024-01-30T08:09:28.000Z</time>
      </trkpt>
      <trkpt lat="44.20531" lon="3.21901">
        <ele>407.20001220703</ele>
        <time>2024-01-30T08:09:29.000Z</time>
      </trkpt>
      <trkpt lat="44.20545" lon="3.21912">
        <ele>407.20001220703</ele>
        <time>2024-01-30T08:09:30.000Z</time>
      </trkpt>
      <trkpt lat="44.20572" lon="3.21924">
        <ele>407.60000610352</ele>
        <time>2024-01-30T08:09:32.000Z</time>
      </trkpt>
      <trkpt lat="44.20614" lon="3.21922">
        <ele>408.39999389648</ele>
        <time>2024-01-30T08:09:35.000Z</time>
      </trkpt>
      <trkpt lat="44.20637" lon="3.21933">
        <ele>409</ele>
        <time>2024-01-30T08:09:37.000Z</time>
      </trkpt>
      <trkpt lat="44.2066" lon="3.21955">
        <ele>410</ele>
        <time>2024-01-30T08:09:39.000Z</time>
      </trkpt>
      <trkpt lat="44.20676" lon="3.21966">
        <ele>410.39999389648</ele>
        <time>2024-01-30T08:09:40.000Z</time>
      </trkpt>
      <trkpt lat="44.2069" lon="3.21972">
        <ele>411</ele>
        <time>2024-01-30T08:09:41.000Z</time>
      </trkpt>
      <trkpt lat="44.20715" lon="3.21982">
        <ele>412.39999389648</ele>
        <time>2024-01-30T08:09:43.000Z</time>
      </trkpt>
      <trkpt lat="44.20729" lon="3.2199">
        <ele>412.79998779297</ele>
        <time>2024-01-30T08:09:44.000Z</time>
      </trkpt>
      <trkpt lat="44.20746" lon="3.21999">
        <ele>413.39999389648</ele>
        <time>2024-01-30T08:09:45.000Z</time>
      </trkpt>
      <trkpt lat="44.2077" lon="3.22014">
        <ele>414.39999389648</ele>
        <time>2024-01-30T08:09:47.000Z</time>
      </trkpt>
      <trkpt lat="44.20782" lon="3.22025">
        <ele>414.60000610352</ele>
        <time>2024-01-30T08:09:48.000Z</time>
      </trkpt>
      <trkpt lat="44.20791" lon="3.22039">
        <ele>415</ele>
        <time>2024-01-30T08:09:49.000Z</time>
      </trkpt>
      <trkpt lat="44.2081" lon="3.22066">
        <ele>415.60000610352</ele>
        <time>2024-01-30T08:09:51.000Z</time>
      </trkpt>
      <trkpt lat="44.20833" lon="3.22081">
        <ele>416.39999389648</ele>
        <time>2024-01-30T08:09:53.000Z</time>
      </trkpt>
      <trkpt lat="44.20849" lon="3.22087">
        <ele>417.39999389648</ele>
        <time>2024-01-30T08:09:54.000Z</time>
      </trkpt>
      <trkpt lat="44.20862" lon="3.22093">
        <ele>417.79998779297</ele>
        <time>2024-01-30T08:09:55.000Z</time>
      </trkpt>
      <trkpt lat="44.20887" lon="3.22112">
        <ele>418.79998779297</ele>
        <time>2024-01-30T08:09:57.000Z</time>
      </trkpt>
      <trkpt lat="44.2091" lon="3.22136">
        <ele>419.79998779297</ele>
        <time>2024-01-30T08:09:59.000Z</time>
      </trkpt>
      <trkpt lat="44.20934" lon="3.22158">
        <ele>420.39999389648</ele>
        <time>2024-01-30T08:10:01.000Z</time>
      </trkpt>
      <trkpt lat="44.2097" lon="3.22192">
        <ele>421</ele>
        <time>2024-01-30T08:10:04.000Z</time>
      </trkpt>
      <trkpt lat="44.20987" lon="3.22203">
        <ele>421</ele>
        <time>2024-01-30T08:10:05.000Z</time>
      </trkpt>
      <trkpt lat="44.2104" lon="3.22242">
        <ele>420.79998779297</ele>
        <time>2024-01-30T08:10:09.000Z</time>
      </trkpt>
      <trkpt lat="44.2105" lon="3.2225">
        <ele>420.79998779297</ele>
        <time>2024-01-30T08:10:10.000Z</time>
      </trkpt>
      <trkpt lat="44.21109" lon="3.22286">
        <ele>420.60000610352</ele>
        <time>2024-01-30T08:10:14.000Z</time>
      </trkpt>
      <trkpt lat="44.21166" lon="3.22328">
        <ele>420.20001220703</ele>
        <time>2024-01-30T08:10:18.000Z</time>
      </trkpt>
      <trkpt lat="44.21181" lon="3.22336">
        <ele>420</ele>
        <time>2024-01-30T08:10:19.000Z</time>
      </trkpt>
      <trkpt lat="44.21195" lon="3.22345">
        <ele>419.79998779297</ele>
        <time>2024-01-30T08:10:20.000Z</time>
      </trkpt>
      <trkpt lat="44.21222" lon="3.22365">
        <ele>419.60000610352</ele>
        <time>2024-01-30T08:10:22.000Z</time>
      </trkpt>
      <trkpt lat="44.21248" lon="3.22388">
        <ele>419.20001220703</ele>
        <time>2024-01-30T08:10:24.000Z</time>
      </trkpt>
      <trkpt lat="44.21262" lon="3.22397">
        <ele>418.79998779297</ele>
        <time>2024-01-30T08:10:25.000Z</time>
      </trkpt>
      <trkpt lat="44.21276" lon="3.22407">
        <ele>418.39999389648</ele>
        <time>2024-01-30T08:10:26.000Z</time>
      </trkpt>
      <trkpt lat="44.21304" lon="3.22424">
        <ele>418.20001220703</ele>
        <time>2024-01-30T08:10:28.000Z</time>
      </trkpt>
      <trkpt lat="44.21319" lon="3.22428">
        <ele>417.79998779297</ele>
        <time>2024-01-30T08:10:29.000Z</time>
      </trkpt>
      <trkpt lat="44.21335" lon="3.22429">
        <ele>417.79998779297</ele>
        <time>2024-01-30T08:10:30.000Z</time>
      </trkpt>
      <trkpt lat="44.21368" lon="3.2243">
        <ele>417.60000610352</ele>
        <time>2024-01-30T08:10:32.000Z</time>
      </trkpt>
      <trkpt lat="44.21435" lon="3.22435">
        <ele>416.79998779297</ele>
        <time>2024-01-30T08:10:36.000Z</time>
      </trkpt>
      <trkpt lat="44.21489" lon="3.22423">
        <ele>416.79998779297</ele>
        <time>2024-01-30T08:10:39.000Z</time>
      </trkpt>
      <trkpt lat="44.21554" lon="3.22391">
        <ele>418</ele>
        <time>2024-01-30T08:10:43.000Z</time>
      </trkpt>
      <trkpt lat="44.21571" lon="3.22384">
        <ele>418</ele>
        <time>2024-01-30T08:10:44.000Z</time>
      </trkpt>
      <trkpt lat="44.21637" lon="3.22351">
        <ele>418.79998779297</ele>
        <time>2024-01-30T08:10:48.000Z</time>
      </trkpt>
      <trkpt lat="44.21682" lon="3.22338">
        <ele>419.20001220703</ele>
        <time>2024-01-30T08:10:51.000Z</time>
      </trkpt>
      <trkpt lat="44.21834" lon="3.22263">
        <ele>419.39999389648</ele>
        <time>2024-01-30T08:11:02.000Z</time>
      </trkpt>
      <trkpt lat="44.21892" lon="3.2225">
        <ele>418.39999389648</ele>
        <time>2024-01-30T08:11:05.000Z</time>
      </trkpt>
      <trkpt lat="44.21911" lon="3.22247">
        <ele>418</ele>
        <time>2024-01-30T08:11:06.000Z</time>
      </trkpt>
      <trkpt lat="44.21967" lon="3.22228">
        <ele>417.79998779297</ele>
        <time>2024-01-30T08:11:09.000Z</time>
      </trkpt>
      <trkpt lat="44.21999" lon="3.22212">
        <ele>416.79998779297</ele>
        <time>2024-01-30T08:11:11.000Z</time>
      </trkpt>
      <trkpt lat="44.22013" lon="3.22209">
        <ele>416.60000610352</ele>
        <time>2024-01-30T08:11:12.000Z</time>
      </trkpt>
      <trkpt lat="44.22026" lon="3.22208">
        <ele>416.60000610352</ele>
        <time>2024-01-30T08:11:13.000Z</time>
      </trkpt>
      <trkpt lat="44.22037" lon="3.22215">
        <ele>416.60000610352</ele>
        <time>2024-01-30T08:11:14.000Z</time>
      </trkpt>
      <trkpt lat="44.22049" lon="3.22225">
        <ele>416.60000610352</ele>
        <time>2024-01-30T08:11:15.000Z</time>
      </trkpt>
      <trkpt lat="44.22092" lon="3.22259">
        <ele>416.79998779297</ele>
        <time>2024-01-30T08:11:18.000Z</time>
      </trkpt>
      <trkpt lat="44.22156" lon="3.22288">
        <ele>416.39999389648</ele>
        <time>2024-01-30T08:11:22.000Z</time>
      </trkpt>
      <trkpt lat="44.22219" lon="3.22336">
        <ele>416.60000610352</ele>
        <time>2024-01-30T08:11:26.000Z</time>
      </trkpt>
      <trkpt lat="44.22243" lon="3.22369">
        <ele>416.79998779297</ele>
        <time>2024-01-30T08:11:28.000Z</time>
      </trkpt>
      <trkpt lat="44.22254" lon="3.22387">
        <ele>417.79998779297</ele>
        <time>2024-01-30T08:11:29.000Z</time>
      </trkpt>
      <trkpt lat="44.22272" lon="3.22423">
        <ele>418.79998779297</ele>
        <time>2024-01-30T08:11:31.000Z</time>
      </trkpt>
      <trkpt lat="44.22307" lon="3.22483">
        <ele>420.39999389648</ele>
        <time>2024-01-30T08:11:34.000Z</time>
      </trkpt>
      <trkpt lat="44.22341" lon="3.22545">
        <ele>421.39999389648</ele>
        <time>2024-01-30T08:11:37.000Z</time>
      </trkpt>
      <trkpt lat="44.22351" lon="3.22567">
        <ele>421.79998779297</ele>
        <time>2024-01-30T08:11:38.000Z</time>
      </trkpt>
      <trkpt lat="44.22361" lon="3.22588">
        <ele>422.20001220703</ele>
        <time>2024-01-30T08:11:39.000Z</time>
      </trkpt>
      <trkpt lat="44.22379" lon="3.22638">
        <ele>422.79998779297</ele>
        <time>2024-01-30T08:11:41.000Z</time>
      </trkpt>
      <trkpt lat="44.22386" lon="3.22661">
        <ele>423</ele>
        <time>2024-01-30T08:11:42.000Z</time>
      </trkpt>
      <trkpt lat="44.22398" lon="3.22702">
        <ele>423.79998779297</ele>
        <time>2024-01-30T08:11:44.000Z</time>
      </trkpt>
      <trkpt lat="44.22413" lon="3.22747">
        <ele>424.20001220703</ele>
        <time>2024-01-30T08:11:46.000Z</time>
      </trkpt>
      <trkpt lat="44.22446" lon="3.22795">
        <ele>425</ele>
        <time>2024-01-30T08:11:49.000Z</time>
      </trkpt>
      <trkpt lat="44.22486" lon="3.22832">
        <ele>426</ele>
        <time>2024-01-30T08:11:52.000Z</time>
      </trkpt>
      <trkpt lat="44.22498" lon="3.22846">
        <ele>426.20001220703</ele>
        <time>2024-01-30T08:11:53.000Z</time>
      </trkpt>
      <trkpt lat="44.22537" lon="3.2289">
        <ele>426.20001220703</ele>
        <time>2024-01-30T08:11:56.000Z</time>
      </trkpt>
      <trkpt lat="44.22586" lon="3.22918">
        <ele>425.39999389648</ele>
        <time>2024-01-30T08:11:59.000Z</time>
      </trkpt>
      <trkpt lat="44.22604" lon="3.22925">
        <ele>425</ele>
        <time>2024-01-30T08:12:00.000Z</time>
      </trkpt>
      <trkpt lat="44.22642" lon="3.22934">
        <ele>424.39999389648</ele>
        <time>2024-01-30T08:12:02.000Z</time>
      </trkpt>
      <trkpt lat="44.22662" lon="3.22935">
        <ele>424</ele>
        <time>2024-01-30T08:12:03.000Z</time>
      </trkpt>
      <trkpt lat="44.22702" lon="3.22935">
        <ele>423.39999389648</ele>
        <time>2024-01-30T08:12:05.000Z</time>
      </trkpt>
      <trkpt lat="44.22722" lon="3.22935">
        <ele>422.79998779297</ele>
        <time>2024-01-30T08:12:06.000Z</time>
      </trkpt>
      <trkpt lat="44.22742" lon="3.22935">
        <ele>422</ele>
        <time>2024-01-30T08:12:07.000Z</time>
      </trkpt>
      <trkpt lat="44.2278" lon="3.22939">
        <ele>421</ele>
        <time>2024-01-30T08:12:09.000Z</time>
      </trkpt>
      <trkpt lat="44.22835" lon="3.22965">
        <ele>420.20001220703</ele>
        <time>2024-01-30T08:12:12.000Z</time>
      </trkpt>
      <trkpt lat="44.22853" lon="3.22975">
        <ele>419.60000610352</ele>
        <time>2024-01-30T08:12:13.000Z</time>
      </trkpt>
      <trkpt lat="44.22889" lon="3.22991">
        <ele>418.20001220703</ele>
        <time>2024-01-30T08:12:15.000Z</time>
      </trkpt>
      <trkpt lat="44.22907" lon="3.22996">
        <ele>417.79998779297</ele>
        <time>2024-01-30T08:12:16.000Z</time>
      </trkpt>
      <trkpt lat="44.22943" lon="3.23">
        <ele>417</ele>
        <time>2024-01-30T08:12:18.000Z</time>
      </trkpt>
      <trkpt lat="44.22979" lon="3.23001">
        <ele>415.79998779297</ele>
        <time>2024-01-30T08:12:20.000Z</time>
      </trkpt>
      <trkpt lat="44.23015" lon="3.22999">
        <ele>414.39999389648</ele>
        <time>2024-01-30T08:12:22.000Z</time>
      </trkpt>
      <trkpt lat="44.23048" lon="3.22994">
        <ele>414</ele>
        <time>2024-01-30T08:12:24.000Z</time>
      </trkpt>
      <trkpt lat="44.2308" lon="3.22992">
        <ele>413.39999389648</ele>
        <time>2024-01-30T08:12:26.000Z</time>
      </trkpt>
      <trkpt lat="44.2311" lon="3.22993">
        <ele>413.20001220703</ele>
        <time>2024-01-30T08:12:28.000Z</time>
      </trkpt>
      <trkpt lat="44.23171" lon="3.22997">
        <ele>413.60000610352</ele>
        <time>2024-01-30T08:12:32.000Z</time>
      </trkpt>
      <trkpt lat="44.23202" lon="3.23001">
        <ele>413.79998779297</ele>
        <time>2024-01-30T08:12:34.000Z</time>
      </trkpt>
      <trkpt lat="44.23264" lon="3.23009">
        <ele>414.20001220703</ele>
        <time>2024-01-30T08:12:38.000Z</time>
      </trkpt>
      <trkpt lat="44.23308" lon="3.23012">
        <ele>414.39999389648</ele>
        <time>2024-01-30T08:12:41.000Z</time>
      </trkpt>
      <trkpt lat="44.23322" lon="3.23014">
        <ele>414.39999389648</ele>
        <time>2024-01-30T08:12:42.000Z</time>
      </trkpt>
      <trkpt lat="44.23336" lon="3.23018">
        <ele>414.39999389648</ele>
        <time>2024-01-30T08:12:43.000Z</time>
      </trkpt>
      <trkpt lat="44.23361" lon="3.2303">
        <ele>414.60000610352</ele>
        <time>2024-01-30T08:12:45.000Z</time>
      </trkpt>
      <trkpt lat="44.23412" lon="3.23051">
        <ele>415.20001220703</ele>
        <time>2024-01-30T08:12:49.000Z</time>
      </trkpt>
      <trkpt lat="44.23424" lon="3.23052">
        <ele>415.79998779297</ele>
        <time>2024-01-30T08:12:50.000Z</time>
      </trkpt>
      <trkpt lat="44.23449" lon="3.2305">
        <ele>416.20001220703</ele>
        <time>2024-01-30T08:12:52.000Z</time>
      </trkpt>
      <trkpt lat="44.23485" lon="3.23032">
        <ele>416.79998779297</ele>
        <time>2024-01-30T08:12:55.000Z</time>
      </trkpt>
      <trkpt lat="44.23497" lon="3.23027">
        <ele>417</ele>
        <time>2024-01-30T08:12:56.000Z</time>
      </trkpt>
      <trkpt lat="44.2356" lon="3.23013">
        <ele>418</ele>
        <time>2024-01-30T08:13:01.000Z</time>
      </trkpt>
      <trkpt lat="44.23585" lon="3.23014">
        <ele>418.20001220703</ele>
        <time>2024-01-30T08:13:03.000Z</time>
      </trkpt>
      <trkpt lat="44.23609" lon="3.23021">
        <ele>419.20001220703</ele>
        <time>2024-01-30T08:13:05.000Z</time>
      </trkpt>
      <trkpt lat="44.23633" lon="3.23032">
        <ele>420</ele>
        <time>2024-01-30T08:13:07.000Z</time>
      </trkpt>
      <trkpt lat="44.23646" lon="3.23035">
        <ele>420.20001220703</ele>
        <time>2024-01-30T08:13:08.000Z</time>
      </trkpt>
      <trkpt lat="44.2366" lon="3.23037">
        <ele>420.79998779297</ele>
        <time>2024-01-30T08:13:09.000Z</time>
      </trkpt>
      <trkpt lat="44.23675" lon="3.23039">
        <ele>421.39999389648</ele>
        <time>2024-01-30T08:13:10.000Z</time>
      </trkpt>
      <trkpt lat="44.23704" lon="3.23045">
        <ele>422.39999389648</ele>
        <time>2024-01-30T08:13:12.000Z</time>
      </trkpt>
      <trkpt lat="44.23719" lon="3.23046">
        <ele>422.79998779297</ele>
        <time>2024-01-30T08:13:13.000Z</time>
      </trkpt>
      <trkpt lat="44.23734" lon="3.23044">
        <ele>423.20001220703</ele>
        <time>2024-01-30T08:13:14.000Z</time>
      </trkpt>
      <trkpt lat="44.23763" lon="3.23039">
        <ele>423.79998779297</ele>
        <time>2024-01-30T08:13:16.000Z</time>
      </trkpt>
      <trkpt lat="44.23775" lon="3.23038">
        <ele>424.39999389648</ele>
        <time>2024-01-30T08:13:17.000Z</time>
      </trkpt>
      <trkpt lat="44.23786" lon="3.2304">
        <ele>424.79998779297</ele>
        <time>2024-01-30T08:13:18.000Z</time>
      </trkpt>
      <trkpt lat="44.23796" lon="3.23046">
        <ele>425.20001220703</ele>
        <time>2024-01-30T08:13:19.000Z</time>
      </trkpt>
      <trkpt lat="44.23818" lon="3.23057">
        <ele>425.79998779297</ele>
        <time>2024-01-30T08:13:21.000Z</time>
      </trkpt>
      <trkpt lat="44.23828" lon="3.2306">
        <ele>426</ele>
        <time>2024-01-30T08:13:22.000Z</time>
      </trkpt>
      <trkpt lat="44.23859" lon="3.23066">
        <ele>427</ele>
        <time>2024-01-30T08:13:24.000Z</time>
      </trkpt>
      <trkpt lat="44.23888" lon="3.23069">
        <ele>427</ele>
        <time>2024-01-30T08:13:26.000Z</time>
      </trkpt>
      <trkpt lat="44.23903" lon="3.23068">
        <ele>427</ele>
        <time>2024-01-30T08:13:27.000Z</time>
      </trkpt>
      <trkpt lat="44.23945" lon="3.23069">
        <ele>426</ele>
        <time>2024-01-30T08:13:30.000Z</time>
      </trkpt>
      <trkpt lat="44.2396" lon="3.2307">
        <ele>425.79998779297</ele>
        <time>2024-01-30T08:13:31.000Z</time>
      </trkpt>
      <trkpt lat="44.2399" lon="3.2307">
        <ele>425.20001220703</ele>
        <time>2024-01-30T08:13:33.000Z</time>
      </trkpt>
      <trkpt lat="44.24006" lon="3.23069">
        <ele>424.39999389648</ele>
        <time>2024-01-30T08:13:34.000Z</time>
      </trkpt>
      <trkpt lat="44.24021" lon="3.2307">
        <ele>424.39999389648</ele>
        <time>2024-01-30T08:13:35.000Z</time>
      </trkpt>
      <trkpt lat="44.24035" lon="3.23073">
        <ele>423.79998779297</ele>
        <time>2024-01-30T08:13:36.000Z</time>
      </trkpt>
      <trkpt lat="44.24047" lon="3.23078">
        <ele>423.20001220703</ele>
        <time>2024-01-30T08:13:37.000Z</time>
      </trkpt>
      <trkpt lat="44.24059" lon="3.23081">
        <ele>423.20001220703</ele>
        <time>2024-01-30T08:13:38.000Z</time>
      </trkpt>
      <trkpt lat="44.24072" lon="3.23083">
        <ele>423</ele>
        <time>2024-01-30T08:13:39.000Z</time>
      </trkpt>
      <trkpt lat="44.24128" lon="3.23096">
        <ele>423.20001220703</ele>
        <time>2024-01-30T08:13:43.000Z</time>
      </trkpt>
      <trkpt lat="44.24159" lon="3.23107">
        <ele>423.20001220703</ele>
        <time>2024-01-30T08:13:45.000Z</time>
      </trkpt>
      <trkpt lat="44.24188" lon="3.23114">
        <ele>423.20001220703</ele>
        <time>2024-01-30T08:13:47.000Z</time>
      </trkpt>
      <trkpt lat="44.24226" lon="3.23126">
        <ele>423.39999389648</ele>
        <time>2024-01-30T08:13:50.000Z</time>
      </trkpt>
      <trkpt lat="44.24237" lon="3.23133">
        <ele>423.60000610352</ele>
        <time>2024-01-30T08:13:51.000Z</time>
      </trkpt>
      <trkpt lat="44.24252" lon="3.23138">
        <ele>423.79998779297</ele>
        <time>2024-01-30T08:13:52.000Z</time>
      </trkpt>
      <trkpt lat="44.24266" lon="3.23139">
        <ele>424</ele>
        <time>2024-01-30T08:13:53.000Z</time>
      </trkpt>
      <trkpt lat="44.2428" lon="3.23138">
        <ele>424.20001220703</ele>
        <time>2024-01-30T08:13:54.000Z</time>
      </trkpt>
      <trkpt lat="44.24294" lon="3.23139">
        <ele>424.20001220703</ele>
        <time>2024-01-30T08:13:55.000Z</time>
      </trkpt>
      <trkpt lat="44.24309" lon="3.23143">
        <ele>424.39999389648</ele>
        <time>2024-01-30T08:13:56.000Z</time>
      </trkpt>
      <trkpt lat="44.24325" lon="3.2315">
        <ele>424.39999389648</ele>
        <time>2024-01-30T08:13:57.000Z</time>
      </trkpt>
      <trkpt lat="44.24355" lon="3.23172">
        <ele>425.20001220703</ele>
        <time>2024-01-30T08:13:59.000Z</time>
      </trkpt>
      <trkpt lat="44.24371" lon="3.23184">
        <ele>425.20001220703</ele>
        <time>2024-01-30T08:14:00.000Z</time>
      </trkpt>
      <trkpt lat="44.24417" lon="3.23216">
        <ele>425.20001220703</ele>
        <time>2024-01-30T08:14:03.000Z</time>
      </trkpt>
      <trkpt lat="44.24448" lon="3.23231">
        <ele>425.20001220703</ele>
        <time>2024-01-30T08:14:05.000Z</time>
      </trkpt>
      <trkpt lat="44.24464" lon="3.23236">
        <ele>425.20001220703</ele>
        <time>2024-01-30T08:14:06.000Z</time>
      </trkpt>
      <trkpt lat="44.24496" lon="3.23242">
        <ele>425.39999389648</ele>
        <time>2024-01-30T08:14:08.000Z</time>
      </trkpt>
      <trkpt lat="44.2451" lon="3.23243">
        <ele>425.60000610352</ele>
        <time>2024-01-30T08:14:09.000Z</time>
      </trkpt>
      <trkpt lat="44.24531" lon="3.23241">
        <ele>425.60000610352</ele>
        <time>2024-01-30T08:14:10.000Z</time>
      </trkpt>
      <trkpt lat="44.24566" lon="3.23232">
        <ele>426.20001220703</ele>
        <time>2024-01-30T08:14:12.000Z</time>
      </trkpt>
      <trkpt lat="44.24583" lon="3.23227">
        <ele>426.39999389648</ele>
        <time>2024-01-30T08:14:13.000Z</time>
      </trkpt>
      <trkpt lat="44.24638" lon="3.23212">
        <ele>427.20001220703</ele>
        <time>2024-01-30T08:14:16.000Z</time>
      </trkpt>
      <trkpt lat="44.24691" lon="3.23196">
        <ele>427.39999389648</ele>
        <time>2024-01-30T08:14:19.000Z</time>
      </trkpt>
      <trkpt lat="44.24744" lon="3.23185">
        <ele>427.20001220703</ele>
        <time>2024-01-30T08:14:22.000Z</time>
      </trkpt>
      <trkpt lat="44.24812" lon="3.23185">
        <ele>426.20001220703</ele>
        <time>2024-01-30T08:14:26.000Z</time>
      </trkpt>
      <trkpt lat="44.24829" lon="3.23188">
        <ele>426</ele>
        <time>2024-01-30T08:14:27.000Z</time>
      </trkpt>
      <trkpt lat="44.24898" lon="3.23203">
        <ele>425.60000610352</ele>
        <time>2024-01-30T08:14:31.000Z</time>
      </trkpt>
      <trkpt lat="44.24974" lon="3.23211">
        <ele>425.79998779297</ele>
        <time>2024-01-30T08:14:35.000Z</time>
      </trkpt>
      <trkpt lat="44.25034" lon="3.23217">
        <ele>426.39999389648</ele>
        <time>2024-01-30T08:14:38.000Z</time>
      </trkpt>
      <trkpt lat="44.25075" lon="3.2322">
        <ele>427</ele>
        <time>2024-01-30T08:14:40.000Z</time>
      </trkpt>
      <trkpt lat="44.25117" lon="3.23224">
        <ele>427.60000610352</ele>
        <time>2024-01-30T08:14:42.000Z</time>
      </trkpt>
      <trkpt lat="44.25177" lon="3.23228">
        <ele>427.60000610352</ele>
        <time>2024-01-30T08:14:45.000Z</time>
      </trkpt>
      <trkpt lat="44.25215" lon="3.23225">
        <ele>427.20001220703</ele>
        <time>2024-01-30T08:14:47.000Z</time>
      </trkpt>
      <trkpt lat="44.25231" lon="3.23218">
        <ele>426.60000610352</ele>
        <time>2024-01-30T08:14:48.000Z</time>
      </trkpt>
      <trkpt lat="44.25248" lon="3.2321">
        <ele>426.20001220703</ele>
        <time>2024-01-30T08:14:49.000Z</time>
      </trkpt>
      <trkpt lat="44.25297" lon="3.23189">
        <ele>425.79998779297</ele>
        <time>2024-01-30T08:14:52.000Z</time>
      </trkpt>
      <trkpt lat="44.25328" lon="3.23185">
        <ele>425.20001220703</ele>
        <time>2024-01-30T08:14:54.000Z</time>
      </trkpt>
      <trkpt lat="44.25361" lon="3.23177">
        <ele>425</ele>
        <time>2024-01-30T08:14:56.000Z</time>
      </trkpt>
      <trkpt lat="44.25378" lon="3.2317">
        <ele>424.60000610352</ele>
        <time>2024-01-30T08:14:57.000Z</time>
      </trkpt>
      <trkpt lat="44.2541" lon="3.23152">
        <ele>424.39999389648</ele>
        <time>2024-01-30T08:14:59.000Z</time>
      </trkpt>
      <trkpt lat="44.25444" lon="3.23134">
        <ele>424.20001220703</ele>
        <time>2024-01-30T08:15:01.000Z</time>
      </trkpt>
      <trkpt lat="44.25479" lon="3.23117">
        <ele>424</ele>
        <time>2024-01-30T08:15:03.000Z</time>
      </trkpt>
      <trkpt lat="44.25534" lon="3.23088">
        <ele>423.60000610352</ele>
        <time>2024-01-30T08:15:06.000Z</time>
      </trkpt>
      <trkpt lat="44.25572" lon="3.2307">
        <ele>423</ele>
        <time>2024-01-30T08:15:08.000Z</time>
      </trkpt>
      <trkpt lat="44.2563" lon="3.23051">
        <ele>422.39999389648</ele>
        <time>2024-01-30T08:15:11.000Z</time>
      </trkpt>
      <trkpt lat="44.25665" lon="3.23033">
        <ele>422.20001220703</ele>
        <time>2024-01-30T08:15:13.000Z</time>
      </trkpt>
      <trkpt lat="44.25729" lon="3.22979">
        <ele>422.79998779297</ele>
        <time>2024-01-30T08:15:17.000Z</time>
      </trkpt>
      <trkpt lat="44.2578" lon="3.22938">
        <ele>423.20001220703</ele>
        <time>2024-01-30T08:15:20.000Z</time>
      </trkpt>
      <trkpt lat="44.25815" lon="3.22911">
        <ele>423.60000610352</ele>
        <time>2024-01-30T08:15:22.000Z</time>
      </trkpt>
      <trkpt lat="44.25866" lon="3.22873">
        <ele>424</ele>
        <time>2024-01-30T08:15:25.000Z</time>
      </trkpt>
      <trkpt lat="44.25907" lon="3.22846">
        <ele>424.20001220703</ele>
        <time>2024-01-30T08:15:27.000Z</time>
      </trkpt>
      <trkpt lat="44.25961" lon="3.22811">
        <ele>424.20001220703</ele>
        <time>2024-01-30T08:15:30.000Z</time>
      </trkpt>
      <trkpt lat="44.25998" lon="3.22788">
        <ele>424.20001220703</ele>
        <time>2024-01-30T08:15:32.000Z</time>
      </trkpt>
      <trkpt lat="44.26062" lon="3.2275">
        <ele>424.39999389648</ele>
        <time>2024-01-30T08:15:36.000Z</time>
      </trkpt>
      <trkpt lat="44.26113" lon="3.22725">
        <ele>424.60000610352</ele>
        <time>2024-01-30T08:15:39.000Z</time>
      </trkpt>
      <trkpt lat="44.26148" lon="3.22706">
        <ele>424.79998779297</ele>
        <time>2024-01-30T08:15:41.000Z</time>
      </trkpt>
      <trkpt lat="44.26201" lon="3.22685">
        <ele>425</ele>
        <time>2024-01-30T08:15:44.000Z</time>
      </trkpt>
      <trkpt lat="44.26218" lon="3.2268">
        <ele>425</ele>
        <time>2024-01-30T08:15:45.000Z</time>
      </trkpt>
      <trkpt lat="44.26234" lon="3.22674">
        <ele>425.20001220703</ele>
        <time>2024-01-30T08:15:46.000Z</time>
      </trkpt>
      <trkpt lat="44.26267" lon="3.22655">
        <ele>425.60000610352</ele>
        <time>2024-01-30T08:15:48.000Z</time>
      </trkpt>
      <trkpt lat="44.26306" lon="3.22631">
        <ele>426.20001220703</ele>
        <time>2024-01-30T08:15:50.000Z</time>
      </trkpt>
      <trkpt lat="44.26356" lon="3.22603">
        <ele>426.60000610352</ele>
        <time>2024-01-30T08:15:53.000Z</time>
      </trkpt>
      <trkpt lat="44.26415" lon="3.22581">
        <ele>427.39999389648</ele>
        <time>2024-01-30T08:15:56.000Z</time>
      </trkpt>
      <trkpt lat="44.26453" lon="3.22571">
        <ele>427.79998779297</ele>
        <time>2024-01-30T08:15:58.000Z</time>
      </trkpt>
      <trkpt lat="44.26518" lon="3.22559">
        <ele>428.60000610352</ele>
        <time>2024-01-30T08:16:01.000Z</time>
      </trkpt>
      <trkpt lat="44.26538" lon="3.22557">
        <ele>429.39999389648</ele>
        <time>2024-01-30T08:16:02.000Z</time>
      </trkpt>
      <trkpt lat="44.26576" lon="3.22555">
        <ele>430</ele>
        <time>2024-01-30T08:16:04.000Z</time>
      </trkpt>
      <trkpt lat="44.26614" lon="3.22559">
        <ele>430.79998779297</ele>
        <time>2024-01-30T08:16:06.000Z</time>
      </trkpt>
      <trkpt lat="44.26633" lon="3.22564">
        <ele>431.20001220703</ele>
        <time>2024-01-30T08:16:07.000Z</time>
      </trkpt>
      <trkpt lat="44.2669" lon="3.22581">
        <ele>432</ele>
        <time>2024-01-30T08:16:10.000Z</time>
      </trkpt>
      <trkpt lat="44.2671" lon="3.22586">
        <ele>432.60000610352</ele>
        <time>2024-01-30T08:16:11.000Z</time>
      </trkpt>
      <trkpt lat="44.2677" lon="3.22594">
        <ele>433.79998779297</ele>
        <time>2024-01-30T08:16:14.000Z</time>
      </trkpt>
      <trkpt lat="44.26828" lon="3.22601">
        <ele>434.79998779297</ele>
        <time>2024-01-30T08:16:17.000Z</time>
      </trkpt>
      <trkpt lat="44.26847" lon="3.22603">
        <ele>435.39999389648</ele>
        <time>2024-01-30T08:16:18.000Z</time>
      </trkpt>
      <trkpt lat="44.26884" lon="3.22606">
        <ele>435.60000610352</ele>
        <time>2024-01-30T08:16:20.000Z</time>
      </trkpt>
      <trkpt lat="44.26941" lon="3.22611">
        <ele>435.79998779297</ele>
        <time>2024-01-30T08:16:23.000Z</time>
      </trkpt>
      <trkpt lat="44.26998" lon="3.22609">
        <ele>435.39999389648</ele>
        <time>2024-01-30T08:16:26.000Z</time>
      </trkpt>
      <trkpt lat="44.27013" lon="3.22606">
        <ele>435</ele>
        <time>2024-01-30T08:16:27.000Z</time>
      </trkpt>
      <trkpt lat="44.27068" lon="3.22595">
        <ele>434</ele>
        <time>2024-01-30T08:16:30.000Z</time>
      </trkpt>
      <trkpt lat="44.27085" lon="3.22593">
        <ele>433.60000610352</ele>
        <time>2024-01-30T08:16:31.000Z</time>
      </trkpt>
      <trkpt lat="44.27134" lon="3.2259">
        <ele>432.79998779297</ele>
        <time>2024-01-30T08:16:34.000Z</time>
      </trkpt>
      <trkpt lat="44.2715" lon="3.22589">
        <ele>432.60000610352</ele>
        <time>2024-01-30T08:16:35.000Z</time>
      </trkpt>
      <trkpt lat="44.27175" lon="3.22586">
        <ele>431</ele>
        <time>2024-01-30T08:16:37.000Z</time>
      </trkpt>
      <trkpt lat="44.27187" lon="3.22582">
        <ele>430.60000610352</ele>
        <time>2024-01-30T08:16:38.000Z</time>
      </trkpt>
      <trkpt lat="44.27197" lon="3.22575">
        <ele>430.20001220703</ele>
        <time>2024-01-30T08:16:39.000Z</time>
      </trkpt>
      <trkpt lat="44.27213" lon="3.22556">
        <ele>430.20001220703</ele>
        <time>2024-01-30T08:16:41.000Z</time>
      </trkpt>
      <trkpt lat="44.2722" lon="3.22548">
        <ele>430</ele>
        <time>2024-01-30T08:16:42.000Z</time>
      </trkpt>
      <trkpt lat="44.27228" lon="3.22545">
        <ele>430</ele>
        <time>2024-01-30T08:16:43.000Z</time>
      </trkpt>
      <trkpt lat="44.27234" lon="3.22546">
        <ele>429.79998779297</ele>
        <time>2024-01-30T08:16:44.000Z</time>
      </trkpt>
      <trkpt lat="44.27249" lon="3.22557">
        <ele>429.79998779297</ele>
        <time>2024-01-30T08:16:46.000Z</time>
      </trkpt>
      <trkpt lat="44.2726" lon="3.22565">
        <ele>429.79998779297</ele>
        <time>2024-01-30T08:16:47.000Z</time>
      </trkpt>
      <trkpt lat="44.27269" lon="3.22568">
        <ele>429.79998779297</ele>
        <time>2024-01-30T08:16:48.000Z</time>
      </trkpt>
      <trkpt lat="44.27293" lon="3.22571">
        <ele>430.20001220703</ele>
        <time>2024-01-30T08:16:50.000Z</time>
      </trkpt>
      <trkpt lat="44.27354" lon="3.22571">
        <ele>430.60000610352</ele>
        <time>2024-01-30T08:16:54.000Z</time>
      </trkpt>
      <trkpt lat="44.27425" lon="3.22567">
        <ele>429.79998779297</ele>
        <time>2024-01-30T08:16:58.000Z</time>
      </trkpt>
      <trkpt lat="44.27441" lon="3.22568">
        <ele>429.39999389648</ele>
        <time>2024-01-30T08:16:59.000Z</time>
      </trkpt>
      <trkpt lat="44.27472" lon="3.22573">
        <ele>428.79998779297</ele>
        <time>2024-01-30T08:17:01.000Z</time>
      </trkpt>
      <trkpt lat="44.27486" lon="3.22572">
        <ele>427.60000610352</ele>
        <time>2024-01-30T08:17:02.000Z</time>
      </trkpt>
      <trkpt lat="44.27524" lon="3.22569">
        <ele>426.79998779297</ele>
        <time>2024-01-30T08:17:05.000Z</time>
      </trkpt>
      <trkpt lat="44.27533" lon="3.22574">
        <ele>426.39999389648</ele>
        <time>2024-01-30T08:17:06.000Z</time>
      </trkpt>
      <trkpt lat="44.27551" lon="3.22586">
        <ele>426</ele>
        <time>2024-01-30T08:17:08.000Z</time>
      </trkpt>
      <trkpt lat="44.27571" lon="3.22593">
        <ele>425.39999389648</ele>
        <time>2024-01-30T08:17:10.000Z</time>
      </trkpt>
      <trkpt lat="44.27581" lon="3.22594">
        <ele>425.20001220703</ele>
        <time>2024-01-30T08:17:11.000Z</time>
      </trkpt>
      <trkpt lat="44.27621" lon="3.22609">
        <ele>424.60000610352</ele>
        <time>2024-01-30T08:17:15.000Z</time>
      </trkpt>
      <trkpt lat="44.2763" lon="3.22613">
        <ele>424.39999389648</ele>
        <time>2024-01-30T08:17:16.000Z</time>
      </trkpt>
      <trkpt lat="44.27638" lon="3.22615">
        <ele>424.20001220703</ele>
        <time>2024-01-30T08:17:17.000Z</time>
      </trkpt>
      <trkpt lat="44.27647" lon="3.22613">
        <ele>424</ele>
        <time>2024-01-30T08:17:18.000Z</time>
      </trkpt>
      <trkpt lat="44.27658" lon="3.22604">
        <ele>423.39999389648</ele>
        <time>2024-01-30T08:17:20.000Z</time>
      </trkpt>
      <trkpt lat="44.27667" lon="3.22594">
        <ele>423.39999389648</ele>
        <time>2024-01-30T08:17:22.000Z</time>
      </trkpt>
      <trkpt lat="44.27679" lon="3.22592">
        <ele>423.39999389648</ele>
        <time>2024-01-30T08:17:24.000Z</time>
      </trkpt>
      <trkpt lat="44.27686" lon="3.22603">
        <ele>423.60000610352</ele>
        <time>2024-01-30T08:17:26.000Z</time>
      </trkpt>
      <trkpt lat="44.27695" lon="3.22642">
        <ele>423.60000610352</ele>
        <time>2024-01-30T08:17:30.000Z</time>
      </trkpt>
      <trkpt lat="44.27704" lon="3.22662">
        <ele>423.20001220703</ele>
        <time>2024-01-30T08:17:32.000Z</time>
      </trkpt>
      <trkpt lat="44.2771" lon="3.2267">
        <ele>423.20001220703</ele>
        <time>2024-01-30T08:17:33.000Z</time>
      </trkpt>
      <trkpt lat="44.27727" lon="3.22694">
        <ele>423</ele>
        <time>2024-01-30T08:17:36.000Z</time>
      </trkpt>
      <trkpt lat="44.27732" lon="3.22703">
        <ele>422.79998779297</ele>
        <time>2024-01-30T08:17:37.000Z</time>
      </trkpt>
      <trkpt lat="44.27743" lon="3.22719">
        <ele>422.39999389648</ele>
        <time>2024-01-30T08:17:39.000Z</time>
      </trkpt>
      <trkpt lat="44.27769" lon="3.22745">
        <ele>422.20001220703</ele>
        <time>2024-01-30T08:17:44.000Z</time>
      </trkpt>
      <trkpt lat="44.27786" lon="3.22764">
        <ele>422</ele>
        <time>2024-01-30T08:17:47.000Z</time>
      </trkpt>
      <trkpt lat="44.278" lon="3.22775">
        <ele>422</ele>
        <time>2024-01-30T08:17:49.000Z</time>
      </trkpt>
      <trkpt lat="44.2784" lon="3.22808">
        <ele>423.20001220703</ele>
        <time>2024-01-30T08:17:54.000Z</time>
      </trkpt>
      <trkpt lat="44.27859" lon="3.2283">
        <ele>423.79998779297</ele>
        <time>2024-01-30T08:17:57.000Z</time>
      </trkpt>
      <trkpt lat="44.27866" lon="3.22836">
        <ele>424</ele>
        <time>2024-01-30T08:17:58.000Z</time>
      </trkpt>
      <trkpt lat="44.27872" lon="3.2284">
        <ele>424.20001220703</ele>
        <time>2024-01-30T08:17:59.000Z</time>
      </trkpt>
      <trkpt lat="44.27886" lon="3.22847">
        <ele>424.79998779297</ele>
        <time>2024-01-30T08:18:01.000Z</time>
      </trkpt>
      <trkpt lat="44.27903" lon="3.22858">
        <ele>425.20001220703</ele>
        <time>2024-01-30T08:18:03.000Z</time>
      </trkpt>
      <trkpt lat="44.27936" lon="3.22879">
        <ele>426.39999389648</ele>
        <time>2024-01-30T08:18:07.000Z</time>
      </trkpt>
      <trkpt lat="44.27953" lon="3.22889">
        <ele>426.60000610352</ele>
        <time>2024-01-30T08:18:09.000Z</time>
      </trkpt>
      <trkpt lat="44.2798" lon="3.22903">
        <ele>426.79998779297</ele>
        <time>2024-01-30T08:18:12.000Z</time>
      </trkpt>
      <trkpt lat="44.27989" lon="3.22905">
        <ele>427</ele>
        <time>2024-01-30T08:18:13.000Z</time>
      </trkpt>
      <trkpt lat="44.27999" lon="3.22904">
        <ele>427</ele>
        <time>2024-01-30T08:18:14.000Z</time>
      </trkpt>
      <trkpt lat="44.28028" lon="3.22897">
        <ele>427</ele>
        <time>2024-01-30T08:18:17.000Z</time>
      </trkpt>
      <trkpt lat="44.28047" lon="3.22893">
        <ele>427.20001220703</ele>
        <time>2024-01-30T08:18:19.000Z</time>
      </trkpt>
      <trkpt lat="44.28066" lon="3.22893">
        <ele>427.20001220703</ele>
        <time>2024-01-30T08:18:21.000Z</time>
      </trkpt>
      <trkpt lat="44.28084" lon="3.22902">
        <ele>427.20001220703</ele>
        <time>2024-01-30T08:18:23.000Z</time>
      </trkpt>
      <trkpt lat="44.28093" lon="3.22907">
        <ele>427.39999389648</ele>
        <time>2024-01-30T08:18:24.000Z</time>
      </trkpt>
      <trkpt lat="44.28101" lon="3.22916">
        <ele>427.60000610352</ele>
        <time>2024-01-30T08:18:25.000Z</time>
      </trkpt>
      <trkpt lat="44.28129" lon="3.22945">
        <ele>428</ele>
        <time>2024-01-30T08:18:28.000Z</time>
      </trkpt>
      <trkpt lat="44.28162" lon="3.22971">
        <ele>428</ele>
        <time>2024-01-30T08:18:31.000Z</time>
      </trkpt>
      <trkpt lat="44.28171" lon="3.22976">
        <ele>428</ele>
        <time>2024-01-30T08:18:32.000Z</time>
      </trkpt>
      <trkpt lat="44.28234" lon="3.23003">
        <ele>427.79998779297</ele>
        <time>2024-01-30T08:18:37.000Z</time>
      </trkpt>
      <trkpt lat="44.28284" lon="3.23015">
        <ele>427.60000610352</ele>
        <time>2024-01-30T08:18:41.000Z</time>
      </trkpt>
      <trkpt lat="44.28295" lon="3.23023">
        <ele>427.60000610352</ele>
        <time>2024-01-30T08:18:42.000Z</time>
      </trkpt>
      <trkpt lat="44.28304" lon="3.23035">
        <ele>427.60000610352</ele>
        <time>2024-01-30T08:18:43.000Z</time>
      </trkpt>
      <trkpt lat="44.28311" lon="3.2305">
        <ele>427.60000610352</ele>
        <time>2024-01-30T08:18:44.000Z</time>
      </trkpt>
      <trkpt lat="44.28332" lon="3.231">
        <ele>427.79998779297</ele>
        <time>2024-01-30T08:18:47.000Z</time>
      </trkpt>
      <trkpt lat="44.28342" lon="3.23116">
        <ele>427.79998779297</ele>
        <time>2024-01-30T08:18:48.000Z</time>
      </trkpt>
      <trkpt lat="44.28354" lon="3.2313">
        <ele>427.79998779297</ele>
        <time>2024-01-30T08:18:49.000Z</time>
      </trkpt>
      <trkpt lat="44.28382" lon="3.23151">
        <ele>428</ele>
        <time>2024-01-30T08:18:51.000Z</time>
      </trkpt>
      <trkpt lat="44.28442" lon="3.23193">
        <ele>428</ele>
        <time>2024-01-30T08:18:55.000Z</time>
      </trkpt>
      <trkpt lat="44.28498" lon="3.23243">
        <ele>427.79998779297</ele>
        <time>2024-01-30T08:18:59.000Z</time>
      </trkpt>
      <trkpt lat="44.28558" lon="3.23286">
        <ele>427.79998779297</ele>
        <time>2024-01-30T08:19:03.000Z</time>
      </trkpt>
      <trkpt lat="44.28573" lon="3.23297">
        <ele>427.79998779297</ele>
        <time>2024-01-30T08:19:04.000Z</time>
      </trkpt>
      <trkpt lat="44.28631" lon="3.23333">
        <ele>428.60000610352</ele>
        <time>2024-01-30T08:19:08.000Z</time>
      </trkpt>
      <trkpt lat="44.28647" lon="3.23347">
        <ele>429.20001220703</ele>
        <time>2024-01-30T08:19:09.000Z</time>
      </trkpt>
      <trkpt lat="44.28658" lon="3.23361">
        <ele>429.39999389648</ele>
        <time>2024-01-30T08:19:10.000Z</time>
      </trkpt>
      <trkpt lat="44.28667" lon="3.23376">
        <ele>429.79998779297</ele>
        <time>2024-01-30T08:19:11.000Z</time>
      </trkpt>
      <trkpt lat="44.28684" lon="3.23408">
        <ele>430.60000610352</ele>
        <time>2024-01-30T08:19:13.000Z</time>
      </trkpt>
      <trkpt lat="44.28692" lon="3.23423">
        <ele>430.79998779297</ele>
        <time>2024-01-30T08:19:14.000Z</time>
      </trkpt>
      <trkpt lat="44.28725" lon="3.23488">
        <ele>432.20001220703</ele>
        <time>2024-01-30T08:19:18.000Z</time>
      </trkpt>
      <trkpt lat="44.28743" lon="3.2352">
        <ele>433.39999389648</ele>
        <time>2024-01-30T08:19:20.000Z</time>
      </trkpt>
      <trkpt lat="44.28763" lon="3.23553">
        <ele>434.39999389648</ele>
        <time>2024-01-30T08:19:22.000Z</time>
      </trkpt>
      <trkpt lat="44.28783" lon="3.23583">
        <ele>435.60000610352</ele>
        <time>2024-01-30T08:19:24.000Z</time>
      </trkpt>
      <trkpt lat="44.288" lon="3.23611">
        <ele>435.79998779297</ele>
        <time>2024-01-30T08:19:26.000Z</time>
      </trkpt>
      <trkpt lat="44.28813" lon="3.23632">
        <ele>436</ele>
        <time>2024-01-30T08:19:28.000Z</time>
      </trkpt>
      <trkpt lat="44.28821" lon="3.23639">
        <ele>436.20001220703</ele>
        <time>2024-01-30T08:19:29.000Z</time>
      </trkpt>
      <trkpt lat="44.2883" lon="3.23644">
        <ele>436.39999389648</ele>
        <time>2024-01-30T08:19:30.000Z</time>
      </trkpt>
      <trkpt lat="44.28839" lon="3.23648">
        <ele>436.79998779297</ele>
        <time>2024-01-30T08:19:31.000Z</time>
      </trkpt>
      <trkpt lat="44.28848" lon="3.23652">
        <ele>437.79998779297</ele>
        <time>2024-01-30T08:19:32.000Z</time>
      </trkpt>
      <trkpt lat="44.28878" lon="3.23669">
        <ele>438.79998779297</ele>
        <time>2024-01-30T08:19:35.000Z</time>
      </trkpt>
      <trkpt lat="44.28889" lon="3.23676">
        <ele>439.39999389648</ele>
        <time>2024-01-30T08:19:36.000Z</time>
      </trkpt>
      <trkpt lat="44.289" lon="3.23684">
        <ele>440</ele>
        <time>2024-01-30T08:19:37.000Z</time>
      </trkpt>
      <trkpt lat="44.2891" lon="3.23693">
        <ele>440.20001220703</ele>
        <time>2024-01-30T08:19:38.000Z</time>
      </trkpt>
      <trkpt lat="44.28931" lon="3.23712">
        <ele>441.20001220703</ele>
        <time>2024-01-30T08:19:40.000Z</time>
      </trkpt>
      <trkpt lat="44.28966" lon="3.2374">
        <ele>442.60000610352</ele>
        <time>2024-01-30T08:19:43.000Z</time>
      </trkpt>
      <trkpt lat="44.28977" lon="3.23749">
        <ele>442.79998779297</ele>
        <time>2024-01-30T08:19:44.000Z</time>
      </trkpt>
      <trkpt lat="44.29007" lon="3.23777">
        <ele>443.60000610352</ele>
        <time>2024-01-30T08:19:47.000Z</time>
      </trkpt>
      <trkpt lat="44.29015" lon="3.23783">
        <ele>443.60000610352</ele>
        <time>2024-01-30T08:19:48.000Z</time>
      </trkpt>
      <trkpt lat="44.29024" lon="3.23785">
        <ele>443.79998779297</ele>
        <time>2024-01-30T08:19:49.000Z</time>
      </trkpt>
      <trkpt lat="44.2904" lon="3.23786">
        <ele>444.20001220703</ele>
        <time>2024-01-30T08:19:51.000Z</time>
      </trkpt>
      <trkpt lat="44.29047" lon="3.23785">
        <ele>444.79998779297</ele>
        <time>2024-01-30T08:19:52.000Z</time>
      </trkpt>
      <trkpt lat="44.29079" lon="3.23779">
        <ele>445.20001220703</ele>
        <time>2024-01-30T08:19:56.000Z</time>
      </trkpt>
      <trkpt lat="44.29092" lon="3.23773">
        <ele>445.20001220703</ele>
        <time>2024-01-30T08:19:58.000Z</time>
      </trkpt>
      <trkpt lat="44.29113" lon="3.23761">
        <ele>445.79998779297</ele>
        <time>2024-01-30T08:20:01.000Z</time>
      </trkpt>
      <trkpt lat="44.29121" lon="3.23756">
        <ele>446</ele>
        <time>2024-01-30T08:20:02.000Z</time>
      </trkpt>
      <trkpt lat="44.29138" lon="3.2375">
        <ele>446.39999389648</ele>
        <time>2024-01-30T08:20:04.000Z</time>
      </trkpt>
      <trkpt lat="44.29148" lon="3.23749">
        <ele>446.39999389648</ele>
        <time>2024-01-30T08:20:05.000Z</time>
      </trkpt>
      <trkpt lat="44.29158" lon="3.23749">
        <ele>446.79998779297</ele>
        <time>2024-01-30T08:20:06.000Z</time>
      </trkpt>
      <trkpt lat="44.29169" lon="3.23749">
        <ele>447</ele>
        <time>2024-01-30T08:20:07.000Z</time>
      </trkpt>
      <trkpt lat="44.29192" lon="3.23752">
        <ele>447.60000610352</ele>
        <time>2024-01-30T08:20:09.000Z</time>
      </trkpt>
      <trkpt lat="44.29216" lon="3.2375">
        <ele>448</ele>
        <time>2024-01-30T08:20:11.000Z</time>
      </trkpt>
      <trkpt lat="44.29228" lon="3.23747">
        <ele>448.20001220703</ele>
        <time>2024-01-30T08:20:12.000Z</time>
      </trkpt>
      <trkpt lat="44.29276" lon="3.23732">
        <ele>448.60000610352</ele>
        <time>2024-01-30T08:20:16.000Z</time>
      </trkpt>
      <trkpt lat="44.29286" lon="3.23724">
        <ele>448.79998779297</ele>
        <time>2024-01-30T08:20:17.000Z</time>
      </trkpt>
      <trkpt lat="44.29337" lon="3.23678">
        <ele>449</ele>
        <time>2024-01-30T08:20:22.000Z</time>
      </trkpt>
      <trkpt lat="44.29347" lon="3.2367">
        <ele>449.20001220703</ele>
        <time>2024-01-30T08:20:23.000Z</time>
      </trkpt>
      <trkpt lat="44.29368" lon="3.23661">
        <ele>449.20001220703</ele>
        <time>2024-01-30T08:20:25.000Z</time>
      </trkpt>
      <trkpt lat="44.29388" lon="3.23665">
        <ele>449.39999389648</ele>
        <time>2024-01-30T08:20:27.000Z</time>
      </trkpt>
      <trkpt lat="44.29398" lon="3.23672">
        <ele>449.39999389648</ele>
        <time>2024-01-30T08:20:28.000Z</time>
      </trkpt>
      <trkpt lat="44.29407" lon="3.23683">
        <ele>449.39999389648</ele>
        <time>2024-01-30T08:20:29.000Z</time>
      </trkpt>
      <trkpt lat="44.29425" lon="3.23708">
        <ele>450</ele>
        <time>2024-01-30T08:20:31.000Z</time>
      </trkpt>
      <trkpt lat="44.29436" lon="3.2372">
        <ele>450</ele>
        <time>2024-01-30T08:20:32.000Z</time>
      </trkpt>
      <trkpt lat="44.2946" lon="3.23737">
        <ele>450.20001220703</ele>
        <time>2024-01-30T08:20:34.000Z</time>
      </trkpt>
      <trkpt lat="44.29484" lon="3.23755">
        <ele>450.60000610352</ele>
        <time>2024-01-30T08:20:36.000Z</time>
      </trkpt>
      <trkpt lat="44.29495" lon="3.23767">
        <ele>451</ele>
        <time>2024-01-30T08:20:37.000Z</time>
      </trkpt>
      <trkpt lat="44.2952" lon="3.23791">
        <ele>451</ele>
        <time>2024-01-30T08:20:39.000Z</time>
      </trkpt>
      <trkpt lat="44.29535" lon="3.23802">
        <ele>451.39999389648</ele>
        <time>2024-01-30T08:20:40.000Z</time>
      </trkpt>
      <trkpt lat="44.29566" lon="3.2382">
        <ele>451.60000610352</ele>
        <time>2024-01-30T08:20:42.000Z</time>
      </trkpt>
      <trkpt lat="44.29599" lon="3.23832">
        <ele>451.79998779297</ele>
        <time>2024-01-30T08:20:44.000Z</time>
      </trkpt>
      <trkpt lat="44.29648" lon="3.23845">
        <ele>452</ele>
        <time>2024-01-30T08:20:47.000Z</time>
      </trkpt>
      <trkpt lat="44.29663" lon="3.23853">
        <ele>452.20001220703</ele>
        <time>2024-01-30T08:20:48.000Z</time>
      </trkpt>
      <trkpt lat="44.29691" lon="3.23864">
        <ele>452.20001220703</ele>
        <time>2024-01-30T08:20:50.000Z</time>
      </trkpt>
      <trkpt lat="44.29706" lon="3.23868">
        <ele>452.39999389648</ele>
        <time>2024-01-30T08:20:51.000Z</time>
      </trkpt>
      <trkpt lat="44.2972" lon="3.23868">
        <ele>452.60000610352</ele>
        <time>2024-01-30T08:20:52.000Z</time>
      </trkpt>
      <trkpt lat="44.29736" lon="3.23868">
        <ele>452.79998779297</ele>
        <time>2024-01-30T08:20:53.000Z</time>
      </trkpt>
      <trkpt lat="44.29755" lon="3.23866">
        <ele>452.79998779297</ele>
        <time>2024-01-30T08:20:54.000Z</time>
      </trkpt>
      <trkpt lat="44.29818" lon="3.2387">
        <ele>453.20001220703</ele>
        <time>2024-01-30T08:20:58.000Z</time>
      </trkpt>
      <trkpt lat="44.29886" lon="3.23871">
        <ele>454</ele>
        <time>2024-01-30T08:21:02.000Z</time>
      </trkpt>
      <trkpt lat="44.29957" lon="3.23868">
        <ele>454.39999389648</ele>
        <time>2024-01-30T08:21:06.000Z</time>
      </trkpt>
      <trkpt lat="44.29974" lon="3.23865">
        <ele>454.39999389648</ele>
        <time>2024-01-30T08:21:07.000Z</time>
      </trkpt>
      <trkpt lat="44.30023" lon="3.23853">
        <ele>454.60000610352</ele>
        <time>2024-01-30T08:21:10.000Z</time>
      </trkpt>
      <trkpt lat="44.3007" lon="3.23849">
        <ele>454.39999389648</ele>
        <time>2024-01-30T08:21:13.000Z</time>
      </trkpt>
      <trkpt lat="44.30085" lon="3.23844">
        <ele>454.39999389648</ele>
        <time>2024-01-30T08:21:14.000Z</time>
      </trkpt>
      <trkpt lat="44.30099" lon="3.23837">
        <ele>454.20001220703</ele>
        <time>2024-01-30T08:21:15.000Z</time>
      </trkpt>
      <trkpt lat="44.30124" lon="3.23817">
        <ele>454</ele>
        <time>2024-01-30T08:21:17.000Z</time>
      </trkpt>
      <trkpt lat="44.30136" lon="3.23808">
        <ele>454</ele>
        <time>2024-01-30T08:21:18.000Z</time>
      </trkpt>
      <trkpt lat="44.30159" lon="3.23799">
        <ele>453.79998779297</ele>
        <time>2024-01-30T08:21:20.000Z</time>
      </trkpt>
      <trkpt lat="44.30184" lon="3.23807">
        <ele>453.79998779297</ele>
        <time>2024-01-30T08:21:22.000Z</time>
      </trkpt>
      <trkpt lat="44.30198" lon="3.2381">
        <ele>453.60000610352</ele>
        <time>2024-01-30T08:21:23.000Z</time>
      </trkpt>
      <trkpt lat="44.30226" lon="3.23808">
        <ele>453.60000610352</ele>
        <time>2024-01-30T08:21:25.000Z</time>
      </trkpt>
      <trkpt lat="44.30268" lon="3.23803">
        <ele>453.60000610352</ele>
        <time>2024-01-30T08:21:28.000Z</time>
      </trkpt>
      <trkpt lat="44.30283" lon="3.23805">
        <ele>453.60000610352</ele>
        <time>2024-01-30T08:21:29.000Z</time>
      </trkpt>
      <trkpt lat="44.30294" lon="3.23808">
        <ele>453.60000610352</ele>
        <time>2024-01-30T08:21:30.000Z</time>
      </trkpt>
      <trkpt lat="44.30324" lon="3.23826">
        <ele>453.39999389648</ele>
        <time>2024-01-30T08:21:32.000Z</time>
      </trkpt>
      <trkpt lat="44.30345" lon="3.23849">
        <ele>453</ele>
        <time>2024-01-30T08:21:34.000Z</time>
      </trkpt>
      <trkpt lat="44.3037" lon="3.23881">
        <ele>452.79998779297</ele>
        <time>2024-01-30T08:21:36.000Z</time>
      </trkpt>
      <trkpt lat="44.30401" lon="3.23926">
        <ele>452.39999389648</ele>
        <time>2024-01-30T08:21:39.000Z</time>
      </trkpt>
      <trkpt lat="44.30409" lon="3.23943">
        <ele>452.20001220703</ele>
        <time>2024-01-30T08:21:40.000Z</time>
      </trkpt>
      <trkpt lat="44.30415" lon="3.23961">
        <ele>452.20001220703</ele>
        <time>2024-01-30T08:21:41.000Z</time>
      </trkpt>
      <trkpt lat="44.30424" lon="3.23999">
        <ele>452</ele>
        <time>2024-01-30T08:21:43.000Z</time>
      </trkpt>
      <trkpt lat="44.30426" lon="3.24019">
        <ele>452</ele>
        <time>2024-01-30T08:21:44.000Z</time>
      </trkpt>
      <trkpt lat="44.30426" lon="3.24058">
        <ele>451.79998779297</ele>
        <time>2024-01-30T08:21:46.000Z</time>
      </trkpt>
      <trkpt lat="44.30432" lon="3.24138">
        <ele>451.79998779297</ele>
        <time>2024-01-30T08:21:50.000Z</time>
      </trkpt>
      <trkpt lat="44.30434" lon="3.24228">
        <ele>451.39999389648</ele>
        <time>2024-01-30T08:21:54.000Z</time>
      </trkpt>
      <trkpt lat="44.30437" lon="3.24251">
        <ele>451.39999389648</ele>
        <time>2024-01-30T08:21:55.000Z</time>
      </trkpt>
      <trkpt lat="44.30457" lon="3.2434">
        <ele>451</ele>
        <time>2024-01-30T08:21:59.000Z</time>
      </trkpt>
      <trkpt lat="44.30462" lon="3.2436">
        <ele>450.60000610352</ele>
        <time>2024-01-30T08:22:00.000Z</time>
      </trkpt>
      <trkpt lat="44.30469" lon="3.24376">
        <ele>450.20001220703</ele>
        <time>2024-01-30T08:22:01.000Z</time>
      </trkpt>
      <trkpt lat="44.30478" lon="3.2439">
        <ele>450</ele>
        <time>2024-01-30T08:22:02.000Z</time>
      </trkpt>
      <trkpt lat="44.30488" lon="3.24402">
        <ele>450</ele>
        <time>2024-01-30T08:22:03.000Z</time>
      </trkpt>
      <trkpt lat="44.30501" lon="3.24412">
        <ele>450</ele>
        <time>2024-01-30T08:22:04.000Z</time>
      </trkpt>
      <trkpt lat="44.30551" lon="3.24451">
        <ele>450.20001220703</ele>
        <time>2024-01-30T08:22:08.000Z</time>
      </trkpt>
      <trkpt lat="44.30565" lon="3.24461">
        <ele>450.20001220703</ele>
        <time>2024-01-30T08:22:09.000Z</time>
      </trkpt>
      <trkpt lat="44.30622" lon="3.24498">
        <ele>450.39999389648</ele>
        <time>2024-01-30T08:22:13.000Z</time>
      </trkpt>
      <trkpt lat="44.30636" lon="3.24507">
        <ele>450.39999389648</ele>
        <time>2024-01-30T08:22:14.000Z</time>
      </trkpt>
      <trkpt lat="44.30692" lon="3.24547">
        <ele>450</ele>
        <time>2024-01-30T08:22:18.000Z</time>
      </trkpt>
      <trkpt lat="44.30716" lon="3.24573">
        <ele>449.60000610352</ele>
        <time>2024-01-30T08:22:20.000Z</time>
      </trkpt>
      <trkpt lat="44.30726" lon="3.24589">
        <ele>449.60000610352</ele>
        <time>2024-01-30T08:22:21.000Z</time>
      </trkpt>
      <trkpt lat="44.3074" lon="3.24623">
        <ele>449.39999389648</ele>
        <time>2024-01-30T08:22:23.000Z</time>
      </trkpt>
      <trkpt lat="44.30746" lon="3.24642">
        <ele>449.39999389648</ele>
        <time>2024-01-30T08:22:24.000Z</time>
      </trkpt>
      <trkpt lat="44.30758" lon="3.24674">
        <ele>449.20001220703</ele>
        <time>2024-01-30T08:22:26.000Z</time>
      </trkpt>
      <trkpt lat="44.30767" lon="3.24679">
        <ele>449.39999389648</ele>
        <time>2024-01-30T08:22:27.000Z</time>
      </trkpt>
      <trkpt lat="44.30775" lon="3.24715">
        <ele>449.39999389648</ele>
        <time>2024-01-30T08:22:29.000Z</time>
      </trkpt>
      <trkpt lat="44.30777" lon="3.24735">
        <ele>449.20001220703</ele>
        <time>2024-01-30T08:22:30.000Z</time>
      </trkpt>
      <trkpt lat="44.30784" lon="3.24774">
        <ele>449.20001220703</ele>
        <time>2024-01-30T08:22:32.000Z</time>
      </trkpt>
      <trkpt lat="44.30789" lon="3.24788">
        <ele>449</ele>
        <time>2024-01-30T08:22:33.000Z</time>
      </trkpt>
      <trkpt lat="44.30809" lon="3.24838">
        <ele>448.79998779297</ele>
        <time>2024-01-30T08:22:36.000Z</time>
      </trkpt>
      <trkpt lat="44.30823" lon="3.24866">
        <ele>448.39999389648</ele>
        <time>2024-01-30T08:22:38.000Z</time>
      </trkpt>
      <trkpt lat="44.30829" lon="3.2488">
        <ele>448.39999389648</ele>
        <time>2024-01-30T08:22:39.000Z</time>
      </trkpt>
      <trkpt lat="44.30832" lon="3.24894">
        <ele>448.20001220703</ele>
        <time>2024-01-30T08:22:40.000Z</time>
      </trkpt>
      <trkpt lat="44.30834" lon="3.24911">
        <ele>448</ele>
        <time>2024-01-30T08:22:41.000Z</time>
      </trkpt>
      <trkpt lat="44.30833" lon="3.24941">
        <ele>448</ele>
        <time>2024-01-30T08:22:43.000Z</time>
      </trkpt>
      <trkpt lat="44.3083" lon="3.25008">
        <ele>447.39999389648</ele>
        <time>2024-01-30T08:22:48.000Z</time>
      </trkpt>
      <trkpt lat="44.30824" lon="3.25083">
        <ele>447</ele>
        <time>2024-01-30T08:22:53.000Z</time>
      </trkpt>
      <trkpt lat="44.30822" lon="3.25096">
        <ele>447</ele>
        <time>2024-01-30T08:22:54.000Z</time>
      </trkpt>
      <trkpt lat="44.30818" lon="3.2511">
        <ele>447.20001220703</ele>
        <time>2024-01-30T08:22:55.000Z</time>
      </trkpt>
      <trkpt lat="44.30813" lon="3.25123">
        <ele>447.20001220703</ele>
        <time>2024-01-30T08:22:56.000Z</time>
      </trkpt>
      <trkpt lat="44.30802" lon="3.25153">
        <ele>447.60000610352</ele>
        <time>2024-01-30T08:22:58.000Z</time>
      </trkpt>
      <trkpt lat="44.30793" lon="3.25187">
        <ele>447.79998779297</ele>
        <time>2024-01-30T08:23:00.000Z</time>
      </trkpt>
      <trkpt lat="44.30789" lon="3.25204">
        <ele>447.79998779297</ele>
        <time>2024-01-30T08:23:01.000Z</time>
      </trkpt>
      <trkpt lat="44.30782" lon="3.25239">
        <ele>448</ele>
        <time>2024-01-30T08:23:03.000Z</time>
      </trkpt>
      <trkpt lat="44.30773" lon="3.25287">
        <ele>448.20001220703</ele>
        <time>2024-01-30T08:23:06.000Z</time>
      </trkpt>
      <trkpt lat="44.30763" lon="3.2533">
        <ele>448</ele>
        <time>2024-01-30T08:23:09.000Z</time>
      </trkpt>
      <trkpt lat="44.30745" lon="3.25351">
        <ele>447.79998779297</ele>
        <time>2024-01-30T08:23:11.000Z</time>
      </trkpt>
      <trkpt lat="44.30733" lon="3.2536">
        <ele>447.79998779297</ele>
        <time>2024-01-30T08:23:12.000Z</time>
      </trkpt>
      <trkpt lat="44.30677" lon="3.25411">
        <ele>448</ele>
        <time>2024-01-30T08:23:17.000Z</time>
      </trkpt>
      <trkpt lat="44.30647" lon="3.25446">
        <ele>447.79998779297</ele>
        <time>2024-01-30T08:23:20.000Z</time>
      </trkpt>
      <trkpt lat="44.30639" lon="3.25458">
        <ele>447.60000610352</ele>
        <time>2024-01-30T08:23:21.000Z</time>
      </trkpt>
      <trkpt lat="44.30608" lon="3.25505">
        <ele>446.39999389648</ele>
        <time>2024-01-30T08:23:25.000Z</time>
      </trkpt>
      <trkpt lat="44.30603" lon="3.25516">
        <ele>446.39999389648</ele>
        <time>2024-01-30T08:23:26.000Z</time>
      </trkpt>
      <trkpt lat="44.30588" lon="3.25559">
        <ele>445.79998779297</ele>
        <time>2024-01-30T08:23:29.000Z</time>
      </trkpt>
      <trkpt lat="44.3058" lon="3.25593">
        <ele>445</ele>
        <time>2024-01-30T08:23:31.000Z</time>
      </trkpt>
      <trkpt lat="44.30572" lon="3.25627">
        <ele>443.60000610352</ele>
        <time>2024-01-30T08:23:33.000Z</time>
      </trkpt>
      <trkpt lat="44.30565" lon="3.25661">
        <ele>442.39999389648</ele>
        <time>2024-01-30T08:23:35.000Z</time>
      </trkpt>
      <trkpt lat="44.30564" lon="3.2568">
        <ele>442.20001220703</ele>
        <time>2024-01-30T08:23:36.000Z</time>
      </trkpt>
      <trkpt lat="44.30562" lon="3.25698">
        <ele>441.79998779297</ele>
        <time>2024-01-30T08:23:37.000Z</time>
      </trkpt>
      <trkpt lat="44.30561" lon="3.25735">
        <ele>441.39999389648</ele>
        <time>2024-01-30T08:23:39.000Z</time>
      </trkpt>
      <trkpt lat="44.3056" lon="3.25785">
        <ele>440.79998779297</ele>
        <time>2024-01-30T08:23:42.000Z</time>
      </trkpt>
      <trkpt lat="44.30561" lon="3.25801">
        <ele>440.79998779297</ele>
        <time>2024-01-30T08:23:43.000Z</time>
      </trkpt>
      <trkpt lat="44.30567" lon="3.25832">
        <ele>440.39999389648</ele>
        <time>2024-01-30T08:23:45.000Z</time>
      </trkpt>
      <trkpt lat="44.30573" lon="3.25897">
        <ele>440.20001220703</ele>
        <time>2024-01-30T08:23:49.000Z</time>
      </trkpt>
      <trkpt lat="44.3057" lon="3.25929">
        <ele>440.39999389648</ele>
        <time>2024-01-30T08:23:51.000Z</time>
      </trkpt>
      <trkpt lat="44.30568" lon="3.25959">
        <ele>440.79998779297</ele>
        <time>2024-01-30T08:23:53.000Z</time>
      </trkpt>
      <trkpt lat="44.30568" lon="3.25994">
        <ele>441.20001220703</ele>
        <time>2024-01-30T08:23:55.000Z</time>
      </trkpt>
      <trkpt lat="44.30567" lon="3.26029">
        <ele>442</ele>
        <time>2024-01-30T08:23:57.000Z</time>
      </trkpt>
      <trkpt lat="44.30566" lon="3.26048">
        <ele>442.20001220703</ele>
        <time>2024-01-30T08:23:58.000Z</time>
      </trkpt>
      <trkpt lat="44.30565" lon="3.26086">
        <ele>443.79998779297</ele>
        <time>2024-01-30T08:24:00.000Z</time>
      </trkpt>
      <trkpt lat="44.30564" lon="3.26105">
        <ele>444.79998779297</ele>
        <time>2024-01-30T08:24:01.000Z</time>
      </trkpt>
      <trkpt lat="44.30563" lon="3.26124">
        <ele>445.39999389648</ele>
        <time>2024-01-30T08:24:02.000Z</time>
      </trkpt>
      <trkpt lat="44.30563" lon="3.26143">
        <ele>446.20001220703</ele>
        <time>2024-01-30T08:24:03.000Z</time>
      </trkpt>
      <trkpt lat="44.30558" lon="3.2618">
        <ele>447.39999389648</ele>
        <time>2024-01-30T08:24:05.000Z</time>
      </trkpt>
      <trkpt lat="44.30554" lon="3.26217">
        <ele>448.79998779297</ele>
        <time>2024-01-30T08:24:07.000Z</time>
      </trkpt>
      <trkpt lat="44.30548" lon="3.26269">
        <ele>450.20001220703</ele>
        <time>2024-01-30T08:24:10.000Z</time>
      </trkpt>
      <trkpt lat="44.30546" lon="3.26307">
        <ele>450.79998779297</ele>
        <time>2024-01-30T08:24:12.000Z</time>
      </trkpt>
      <trkpt lat="44.30547" lon="3.26331">
        <ele>451.20001220703</ele>
        <time>2024-01-30T08:24:13.000Z</time>
      </trkpt>
      <trkpt lat="44.30549" lon="3.2635">
        <ele>451.39999389648</ele>
        <time>2024-01-30T08:24:14.000Z</time>
      </trkpt>
      <trkpt lat="44.30552" lon="3.26365">
        <ele>451.60000610352</ele>
        <time>2024-01-30T08:24:15.000Z</time>
      </trkpt>
      <trkpt lat="44.30557" lon="3.26406">
        <ele>452.39999389648</ele>
        <time>2024-01-30T08:24:17.000Z</time>
      </trkpt>
      <trkpt lat="44.30559" lon="3.26424">
        <ele>453.39999389648</ele>
        <time>2024-01-30T08:24:18.000Z</time>
      </trkpt>
      <trkpt lat="44.30559" lon="3.26438">
        <ele>453.60000610352</ele>
        <time>2024-01-30T08:24:19.000Z</time>
      </trkpt>
      <trkpt lat="44.30558" lon="3.26459">
        <ele>454</ele>
        <time>2024-01-30T08:24:20.000Z</time>
      </trkpt>
      <trkpt lat="44.30552" lon="3.26489">
        <ele>454.39999389648</ele>
        <time>2024-01-30T08:24:22.000Z</time>
      </trkpt>
      <trkpt lat="44.30548" lon="3.26504">
        <ele>454.79998779297</ele>
        <time>2024-01-30T08:24:23.000Z</time>
      </trkpt>
      <trkpt lat="44.30539" lon="3.26532">
        <ele>455.39999389648</ele>
        <time>2024-01-30T08:24:25.000Z</time>
      </trkpt>
      <trkpt lat="44.30535" lon="3.26559">
        <ele>455.79998779297</ele>
        <time>2024-01-30T08:24:27.000Z</time>
      </trkpt>
      <trkpt lat="44.30537" lon="3.26571">
        <ele>456.20001220703</ele>
        <time>2024-01-30T08:24:28.000Z</time>
      </trkpt>
      <trkpt lat="44.30541" lon="3.26583">
        <ele>456.39999389648</ele>
        <time>2024-01-30T08:24:29.000Z</time>
      </trkpt>
      <trkpt lat="44.30549" lon="3.26608">
        <ele>457.79998779297</ele>
        <time>2024-01-30T08:24:31.000Z</time>
      </trkpt>
      <trkpt lat="44.30551" lon="3.26622">
        <ele>458</ele>
        <time>2024-01-30T08:24:32.000Z</time>
      </trkpt>
      <trkpt lat="44.30552" lon="3.26637">
        <ele>458</ele>
        <time>2024-01-30T08:24:33.000Z</time>
      </trkpt>
      <trkpt lat="44.3055" lon="3.26669">
        <ele>458.60000610352</ele>
        <time>2024-01-30T08:24:35.000Z</time>
      </trkpt>
      <trkpt lat="44.30548" lon="3.26686">
        <ele>458.79998779297</ele>
        <time>2024-01-30T08:24:36.000Z</time>
      </trkpt>
      <trkpt lat="44.30543" lon="3.26706">
        <ele>458.79998779297</ele>
        <time>2024-01-30T08:24:37.000Z</time>
      </trkpt>
      <trkpt lat="44.30538" lon="3.26724">
        <ele>458.79998779297</ele>
        <time>2024-01-30T08:24:38.000Z</time>
      </trkpt>
      <trkpt lat="44.30524" lon="3.26759">
        <ele>458.79998779297</ele>
        <time>2024-01-30T08:24:40.000Z</time>
      </trkpt>
      <trkpt lat="44.30514" lon="3.26776">
        <ele>459</ele>
        <time>2024-01-30T08:24:41.000Z</time>
      </trkpt>
      <trkpt lat="44.30504" lon="3.26792">
        <ele>459</ele>
        <time>2024-01-30T08:24:42.000Z</time>
      </trkpt>
      <trkpt lat="44.30482" lon="3.26818">
        <ele>459</ele>
        <time>2024-01-30T08:24:44.000Z</time>
      </trkpt>
      <trkpt lat="44.30423" lon="3.26868">
        <ele>458.39999389648</ele>
        <time>2024-01-30T08:24:48.000Z</time>
      </trkpt>
      <trkpt lat="44.30371" lon="3.26918">
        <ele>458</ele>
        <time>2024-01-30T08:24:52.000Z</time>
      </trkpt>
      <trkpt lat="44.30343" lon="3.26951">
        <ele>457.60000610352</ele>
        <time>2024-01-30T08:24:54.000Z</time>
      </trkpt>
      <trkpt lat="44.3032" lon="3.26984">
        <ele>457</ele>
        <time>2024-01-30T08:24:56.000Z</time>
      </trkpt>
      <trkpt lat="44.30311" lon="3.27002">
        <ele>456.79998779297</ele>
        <time>2024-01-30T08:24:57.000Z</time>
      </trkpt>
      <trkpt lat="44.30296" lon="3.2704">
        <ele>456.20001220703</ele>
        <time>2024-01-30T08:24:59.000Z</time>
      </trkpt>
      <trkpt lat="44.30292" lon="3.27076">
        <ele>455.39999389648</ele>
        <time>2024-01-30T08:25:01.000Z</time>
      </trkpt>
      <trkpt lat="44.30294" lon="3.27092">
        <ele>455</ele>
        <time>2024-01-30T08:25:02.000Z</time>
      </trkpt>
      <trkpt lat="44.30297" lon="3.27108">
        <ele>454.79998779297</ele>
        <time>2024-01-30T08:25:03.000Z</time>
      </trkpt>
      <trkpt lat="44.30298" lon="3.27122">
        <ele>454.60000610352</ele>
        <time>2024-01-30T08:25:04.000Z</time>
      </trkpt>
      <trkpt lat="44.30295" lon="3.27135">
        <ele>454.60000610352</ele>
        <time>2024-01-30T08:25:05.000Z</time>
      </trkpt>
      <trkpt lat="44.30289" lon="3.27145">
        <ele>454.60000610352</ele>
        <time>2024-01-30T08:25:06.000Z</time>
      </trkpt>
      <trkpt lat="44.3028" lon="3.27153">
        <ele>454.60000610352</ele>
        <time>2024-01-30T08:25:07.000Z</time>
      </trkpt>
      <trkpt lat="44.30271" lon="3.27163">
        <ele>454.79998779297</ele>
        <time>2024-01-30T08:25:08.000Z</time>
      </trkpt>
      <trkpt lat="44.30259" lon="3.27188">
        <ele>455</ele>
        <time>2024-01-30T08:25:10.000Z</time>
      </trkpt>
      <trkpt lat="44.30254" lon="3.27218">
        <ele>455.20001220703</ele>
        <time>2024-01-30T08:25:12.000Z</time>
      </trkpt>
      <trkpt lat="44.30258" lon="3.27233">
        <ele>456</ele>
        <time>2024-01-30T08:25:13.000Z</time>
      </trkpt>
      <trkpt lat="44.3026" lon="3.27244">
        <ele>456.20001220703</ele>
        <time>2024-01-30T08:25:14.000Z</time>
      </trkpt>
      <trkpt lat="44.3026" lon="3.27279">
        <ele>456.79998779297</ele>
        <time>2024-01-30T08:25:16.000Z</time>
      </trkpt>
      <trkpt lat="44.30258" lon="3.27291">
        <ele>457.20001220703</ele>
        <time>2024-01-30T08:25:17.000Z</time>
      </trkpt>
      <trkpt lat="44.30253" lon="3.27306">
        <ele>457.60000610352</ele>
        <time>2024-01-30T08:25:18.000Z</time>
      </trkpt>
      <trkpt lat="44.30244" lon="3.27321">
        <ele>457.79998779297</ele>
        <time>2024-01-30T08:25:19.000Z</time>
      </trkpt>
      <trkpt lat="44.30236" lon="3.27329">
        <ele>458</ele>
        <time>2024-01-30T08:25:20.000Z</time>
      </trkpt>
      <trkpt lat="44.30212" lon="3.27347">
        <ele>458.39999389648</ele>
        <time>2024-01-30T08:25:22.000Z</time>
      </trkpt>
      <trkpt lat="44.30182" lon="3.27373">
        <ele>459.39999389648</ele>
        <time>2024-01-30T08:25:25.000Z</time>
      </trkpt>
      <trkpt lat="44.30175" lon="3.27378">
        <ele>459.60000610352</ele>
        <time>2024-01-30T08:25:26.000Z</time>
      </trkpt>
      <trkpt lat="44.30163" lon="3.27384">
        <ele>459.79998779297</ele>
        <time>2024-01-30T08:25:27.000Z</time>
      </trkpt>
      <trkpt lat="44.30154" lon="3.27389">
        <ele>460</ele>
        <time>2024-01-30T08:25:28.000Z</time>
      </trkpt>
      <trkpt lat="44.3014" lon="3.27403">
        <ele>460.39999389648</ele>
        <time>2024-01-30T08:25:30.000Z</time>
      </trkpt>
      <trkpt lat="44.30133" lon="3.27411">
        <ele>461.39999389648</ele>
        <time>2024-01-30T08:25:31.000Z</time>
      </trkpt>
      <trkpt lat="44.30113" lon="3.27438">
        <ele>462.60000610352</ele>
        <time>2024-01-30T08:25:34.000Z</time>
      </trkpt>
      <trkpt lat="44.30096" lon="3.27471">
        <ele>463.79998779297</ele>
        <time>2024-01-30T08:25:37.000Z</time>
      </trkpt>
      <trkpt lat="44.30091" lon="3.27481">
        <ele>464</ele>
        <time>2024-01-30T08:25:38.000Z</time>
      </trkpt>
      <trkpt lat="44.30085" lon="3.27497">
        <ele>464.60000610352</ele>
        <time>2024-01-30T08:25:39.000Z</time>
      </trkpt>
      <trkpt lat="44.30075" lon="3.27527">
        <ele>465.79998779297</ele>
        <time>2024-01-30T08:25:41.000Z</time>
      </trkpt>
      <trkpt lat="44.30063" lon="3.27558">
        <ele>466.79998779297</ele>
        <time>2024-01-30T08:25:43.000Z</time>
      </trkpt>
      <trkpt lat="44.30044" lon="3.27604">
        <ele>468.20001220703</ele>
        <time>2024-01-30T08:25:46.000Z</time>
      </trkpt>
      <trkpt lat="44.30031" lon="3.27629">
        <ele>469.20001220703</ele>
        <time>2024-01-30T08:25:48.000Z</time>
      </trkpt>
      <trkpt lat="44.3002" lon="3.27643">
        <ele>469.79998779297</ele>
        <time>2024-01-30T08:25:49.000Z</time>
      </trkpt>
      <trkpt lat="44.30013" lon="3.27652">
        <ele>470.39999389648</ele>
        <time>2024-01-30T08:25:50.000Z</time>
      </trkpt>
      <trkpt lat="44.30002" lon="3.27662">
        <ele>471</ele>
        <time>2024-01-30T08:25:51.000Z</time>
      </trkpt>
      <trkpt lat="44.29992" lon="3.27672">
        <ele>471.39999389648</ele>
        <time>2024-01-30T08:25:52.000Z</time>
      </trkpt>
      <trkpt lat="44.29984" lon="3.27684">
        <ele>471.39999389648</ele>
        <time>2024-01-30T08:25:53.000Z</time>
      </trkpt>
      <trkpt lat="44.29978" lon="3.27697">
        <ele>472</ele>
        <time>2024-01-30T08:25:54.000Z</time>
      </trkpt>
      <trkpt lat="44.29973" lon="3.27712">
        <ele>472.20001220703</ele>
        <time>2024-01-30T08:25:55.000Z</time>
      </trkpt>
      <trkpt lat="44.29972" lon="3.27726">
        <ele>472.39999389648</ele>
        <time>2024-01-30T08:25:56.000Z</time>
      </trkpt>
      <trkpt lat="44.29977" lon="3.27752">
        <ele>472.79998779297</ele>
        <time>2024-01-30T08:25:58.000Z</time>
      </trkpt>
      <trkpt lat="44.2998" lon="3.27764">
        <ele>473.39999389648</ele>
        <time>2024-01-30T08:25:59.000Z</time>
      </trkpt>
      <trkpt lat="44.29979" lon="3.27788">
        <ele>474.20001220703</ele>
        <time>2024-01-30T08:26:01.000Z</time>
      </trkpt>
      <trkpt lat="44.29975" lon="3.27799">
        <ele>474.60000610352</ele>
        <time>2024-01-30T08:26:02.000Z</time>
      </trkpt>
      <trkpt lat="44.29968" lon="3.27812">
        <ele>474.79998779297</ele>
        <time>2024-01-30T08:26:03.000Z</time>
      </trkpt>
      <trkpt lat="44.29962" lon="3.27818">
        <ele>475</ele>
        <time>2024-01-30T08:26:04.000Z</time>
      </trkpt>
      <trkpt lat="44.29953" lon="3.27826">
        <ele>476</ele>
        <time>2024-01-30T08:26:05.000Z</time>
      </trkpt>
      <trkpt lat="44.29945" lon="3.27836">
        <ele>476.39999389648</ele>
        <time>2024-01-30T08:26:06.000Z</time>
      </trkpt>
      <trkpt lat="44.29937" lon="3.27851">
        <ele>477.20001220703</ele>
        <time>2024-01-30T08:26:07.000Z</time>
      </trkpt>
      <trkpt lat="44.29934" lon="3.27864">
        <ele>477.60000610352</ele>
        <time>2024-01-30T08:26:08.000Z</time>
      </trkpt>
      <trkpt lat="44.29932" lon="3.27881">
        <ele>478.60000610352</ele>
        <time>2024-01-30T08:26:09.000Z</time>
      </trkpt>
      <trkpt lat="44.29931" lon="3.27898">
        <ele>479</ele>
        <time>2024-01-30T08:26:10.000Z</time>
      </trkpt>
      <trkpt lat="44.29929" lon="3.27915">
        <ele>479.39999389648</ele>
        <time>2024-01-30T08:26:11.000Z</time>
      </trkpt>
      <trkpt lat="44.29925" lon="3.27931">
        <ele>480</ele>
        <time>2024-01-30T08:26:12.000Z</time>
      </trkpt>
      <trkpt lat="44.29919" lon="3.27945">
        <ele>480.60000610352</ele>
        <time>2024-01-30T08:26:13.000Z</time>
      </trkpt>
      <trkpt lat="44.29911" lon="3.27958">
        <ele>481</ele>
        <time>2024-01-30T08:26:14.000Z</time>
      </trkpt>
      <trkpt lat="44.29891" lon="3.27985">
        <ele>482.20001220703</ele>
        <time>2024-01-30T08:26:16.000Z</time>
      </trkpt>
      <trkpt lat="44.29874" lon="3.28013">
        <ele>483.20001220703</ele>
        <time>2024-01-30T08:26:18.000Z</time>
      </trkpt>
      <trkpt lat="44.2986" lon="3.28037">
        <ele>484.20001220703</ele>
        <time>2024-01-30T08:26:20.000Z</time>
      </trkpt>
      <trkpt lat="44.29854" lon="3.28052">
        <ele>484.39999389648</ele>
        <time>2024-01-30T08:26:21.000Z</time>
      </trkpt>
      <trkpt lat="44.29851" lon="3.28067">
        <ele>484.79998779297</ele>
        <time>2024-01-30T08:26:22.000Z</time>
      </trkpt>
      <trkpt lat="44.29847" lon="3.28097">
        <ele>485.39999389648</ele>
        <time>2024-01-30T08:26:24.000Z</time>
      </trkpt>
      <trkpt lat="44.29846" lon="3.2811">
        <ele>485.60000610352</ele>
        <time>2024-01-30T08:26:25.000Z</time>
      </trkpt>
      <trkpt lat="44.29837" lon="3.28135">
        <ele>486.60000610352</ele>
        <time>2024-01-30T08:26:27.000Z</time>
      </trkpt>
      <trkpt lat="44.29824" lon="3.28149">
        <ele>487.39999389648</ele>
        <time>2024-01-30T08:26:29.000Z</time>
      </trkpt>
      <trkpt lat="44.29813" lon="3.28152">
        <ele>487.60000610352</ele>
        <time>2024-01-30T08:26:30.000Z</time>
      </trkpt>
      <trkpt lat="44.29802" lon="3.28152">
        <ele>488</ele>
        <time>2024-01-30T08:26:31.000Z</time>
      </trkpt>
      <trkpt lat="44.29792" lon="3.28153">
        <ele>488.20001220703</ele>
        <time>2024-01-30T08:26:32.000Z</time>
      </trkpt>
      <trkpt lat="44.29775" lon="3.28163">
        <ele>488.79998779297</ele>
        <time>2024-01-30T08:26:34.000Z</time>
      </trkpt>
      <trkpt lat="44.29759" lon="3.28196">
        <ele>490.20001220703</ele>
        <time>2024-01-30T08:26:37.000Z</time>
      </trkpt>
      <trkpt lat="44.29739" lon="3.28245">
        <ele>490.39999389648</ele>
        <time>2024-01-30T08:26:41.000Z</time>
      </trkpt>
      <trkpt lat="44.29741" lon="3.2828">
        <ele>490.39999389648</ele>
        <time>2024-01-30T08:26:44.000Z</time>
      </trkpt>
      <trkpt lat="44.29751" lon="3.28307">
        <ele>490.60000610352</ele>
        <time>2024-01-30T08:26:46.000Z</time>
      </trkpt>
      <trkpt lat="44.29758" lon="3.2832">
        <ele>490.60000610352</ele>
        <time>2024-01-30T08:26:47.000Z</time>
      </trkpt>
      <trkpt lat="44.29764" lon="3.28333">
        <ele>490.60000610352</ele>
        <time>2024-01-30T08:26:48.000Z</time>
      </trkpt>
      <trkpt lat="44.29771" lon="3.28362">
        <ele>490.39999389648</ele>
        <time>2024-01-30T08:26:50.000Z</time>
      </trkpt>
      <trkpt lat="44.29765" lon="3.28395">
        <ele>490.20001220703</ele>
        <time>2024-01-30T08:26:52.000Z</time>
      </trkpt>
      <trkpt lat="44.29747" lon="3.28437">
        <ele>489.79998779297</ele>
        <time>2024-01-30T08:26:55.000Z</time>
      </trkpt>
      <trkpt lat="44.29744" lon="3.28468">
        <ele>489.60000610352</ele>
        <time>2024-01-30T08:26:57.000Z</time>
      </trkpt>
      <trkpt lat="44.29751" lon="3.28498">
        <ele>489.39999389648</ele>
        <time>2024-01-30T08:26:59.000Z</time>
      </trkpt>
      <trkpt lat="44.2976" lon="3.28526">
        <ele>489.20001220703</ele>
        <time>2024-01-30T08:27:01.000Z</time>
      </trkpt>
      <trkpt lat="44.29763" lon="3.28553">
        <ele>489</ele>
        <time>2024-01-30T08:27:03.000Z</time>
      </trkpt>
      <trkpt lat="44.29757" lon="3.28579">
        <ele>488.79998779297</ele>
        <time>2024-01-30T08:27:05.000Z</time>
      </trkpt>
      <trkpt lat="44.2975" lon="3.28607">
        <ele>488.60000610352</ele>
        <time>2024-01-30T08:27:07.000Z</time>
      </trkpt>
      <trkpt lat="44.29751" lon="3.28621">
        <ele>488.60000610352</ele>
        <time>2024-01-30T08:27:08.000Z</time>
      </trkpt>
      <trkpt lat="44.29754" lon="3.28635">
        <ele>488.60000610352</ele>
        <time>2024-01-30T08:27:09.000Z</time>
      </trkpt>
      <trkpt lat="44.29761" lon="3.28665">
        <ele>488.39999389648</ele>
        <time>2024-01-30T08:27:11.000Z</time>
      </trkpt>
      <trkpt lat="44.29762" lon="3.28701">
        <ele>488.39999389648</ele>
        <time>2024-01-30T08:27:13.000Z</time>
      </trkpt>
      <trkpt lat="44.29761" lon="3.28716">
        <ele>488.39999389648</ele>
        <time>2024-01-30T08:27:14.000Z</time>
      </trkpt>
      <trkpt lat="44.29761" lon="3.28732">
        <ele>488.20001220703</ele>
        <time>2024-01-30T08:27:15.000Z</time>
      </trkpt>
      <trkpt lat="44.29766" lon="3.28758">
        <ele>487.60000610352</ele>
        <time>2024-01-30T08:27:17.000Z</time>
      </trkpt>
      <trkpt lat="44.29775" lon="3.28783">
        <ele>487.39999389648</ele>
        <time>2024-01-30T08:27:19.000Z</time>
      </trkpt>
      <trkpt lat="44.29777" lon="3.28796">
        <ele>487.20001220703</ele>
        <time>2024-01-30T08:27:20.000Z</time>
      </trkpt>
      <trkpt lat="44.29777" lon="3.28813">
        <ele>487.20001220703</ele>
        <time>2024-01-30T08:27:21.000Z</time>
      </trkpt>
      <trkpt lat="44.29775" lon="3.28828">
        <ele>487</ele>
        <time>2024-01-30T08:27:22.000Z</time>
      </trkpt>
      <trkpt lat="44.29775" lon="3.28841">
        <ele>486.79998779297</ele>
        <time>2024-01-30T08:27:23.000Z</time>
      </trkpt>
      <trkpt lat="44.29778" lon="3.28874">
        <ele>486.20001220703</ele>
        <time>2024-01-30T08:27:25.000Z</time>
      </trkpt>
      <trkpt lat="44.29782" lon="3.28888">
        <ele>486</ele>
        <time>2024-01-30T08:27:26.000Z</time>
      </trkpt>
      <trkpt lat="44.29794" lon="3.28927">
        <ele>485</ele>
        <time>2024-01-30T08:27:29.000Z</time>
      </trkpt>
      <trkpt lat="44.298" lon="3.28938">
        <ele>484.79998779297</ele>
        <time>2024-01-30T08:27:30.000Z</time>
      </trkpt>
      <trkpt lat="44.29807" lon="3.28947">
        <ele>484.39999389648</ele>
        <time>2024-01-30T08:27:31.000Z</time>
      </trkpt>
      <trkpt lat="44.29815" lon="3.28953">
        <ele>483.79998779297</ele>
        <time>2024-01-30T08:27:32.000Z</time>
      </trkpt>
      <trkpt lat="44.29824" lon="3.28955">
        <ele>483.60000610352</ele>
        <time>2024-01-30T08:27:33.000Z</time>
      </trkpt>
      <trkpt lat="44.29842" lon="3.28955">
        <ele>483.39999389648</ele>
        <time>2024-01-30T08:27:35.000Z</time>
      </trkpt>
      <trkpt lat="44.29886" lon="3.28966">
        <ele>482.60000610352</ele>
        <time>2024-01-30T08:27:39.000Z</time>
      </trkpt>
      <trkpt lat="44.29895" lon="3.2897">
        <ele>482.20001220703</ele>
        <time>2024-01-30T08:27:40.000Z</time>
      </trkpt>
      <trkpt lat="44.29905" lon="3.28976">
        <ele>482</ele>
        <time>2024-01-30T08:27:41.000Z</time>
      </trkpt>
      <trkpt lat="44.29916" lon="3.28985">
        <ele>481.79998779297</ele>
        <time>2024-01-30T08:27:42.000Z</time>
      </trkpt>
      <trkpt lat="44.29948" lon="3.29019">
        <ele>481</ele>
        <time>2024-01-30T08:27:45.000Z</time>
      </trkpt>
      <trkpt lat="44.2996" lon="3.29031">
        <ele>480.79998779297</ele>
        <time>2024-01-30T08:27:46.000Z</time>
      </trkpt>
      <trkpt lat="44.29998" lon="3.2907">
        <ele>479.60000610352</ele>
        <time>2024-01-30T08:27:49.000Z</time>
      </trkpt>
      <trkpt lat="44.30023" lon="3.29092">
        <ele>478.60000610352</ele>
        <time>2024-01-30T08:27:51.000Z</time>
      </trkpt>
      <trkpt lat="44.30045" lon="3.29116">
        <ele>477.79998779297</ele>
        <time>2024-01-30T08:27:53.000Z</time>
      </trkpt>
      <trkpt lat="44.30052" lon="3.29132">
        <ele>477.20001220703</ele>
        <time>2024-01-30T08:27:54.000Z</time>
      </trkpt>
      <trkpt lat="44.30057" lon="3.2915">
        <ele>477</ele>
        <time>2024-01-30T08:27:55.000Z</time>
      </trkpt>
      <trkpt lat="44.30069" lon="3.29189">
        <ele>476.60000610352</ele>
        <time>2024-01-30T08:27:57.000Z</time>
      </trkpt>
      <trkpt lat="44.30086" lon="3.29234">
        <ele>476</ele>
        <time>2024-01-30T08:27:59.000Z</time>
      </trkpt>
      <trkpt lat="44.30101" lon="3.29271">
        <ele>475</ele>
        <time>2024-01-30T08:28:01.000Z</time>
      </trkpt>
      <trkpt lat="44.30121" lon="3.29334">
        <ele>473.79998779297</ele>
        <time>2024-01-30T08:28:04.000Z</time>
      </trkpt>
      <trkpt lat="44.30132" lon="3.29379">
        <ele>472.60000610352</ele>
        <time>2024-01-30T08:28:06.000Z</time>
      </trkpt>
      <trkpt lat="44.30138" lon="3.29397">
        <ele>471.79998779297</ele>
        <time>2024-01-30T08:28:07.000Z</time>
      </trkpt>
      <trkpt lat="44.30145" lon="3.29413">
        <ele>471</ele>
        <time>2024-01-30T08:28:08.000Z</time>
      </trkpt>
      <trkpt lat="44.30153" lon="3.29427">
        <ele>470.60000610352</ele>
        <time>2024-01-30T08:28:09.000Z</time>
      </trkpt>
      <trkpt lat="44.30162" lon="3.2944">
        <ele>469.79998779297</ele>
        <time>2024-01-30T08:28:10.000Z</time>
      </trkpt>
      <trkpt lat="44.30171" lon="3.29452">
        <ele>469.20001220703</ele>
        <time>2024-01-30T08:28:11.000Z</time>
      </trkpt>
      <trkpt lat="44.30177" lon="3.29464">
        <ele>468.79998779297</ele>
        <time>2024-01-30T08:28:12.000Z</time>
      </trkpt>
      <trkpt lat="44.30181" lon="3.29477">
        <ele>468.20001220703</ele>
        <time>2024-01-30T08:28:13.000Z</time>
      </trkpt>
      <trkpt lat="44.30183" lon="3.29491">
        <ele>468</ele>
        <time>2024-01-30T08:28:14.000Z</time>
      </trkpt>
      <trkpt lat="44.30182" lon="3.29505">
        <ele>467.79998779297</ele>
        <time>2024-01-30T08:28:15.000Z</time>
      </trkpt>
      <trkpt lat="44.30181" lon="3.29529">
        <ele>467</ele>
        <time>2024-01-30T08:28:17.000Z</time>
      </trkpt>
      <trkpt lat="44.30186" lon="3.29553">
        <ele>466.20001220703</ele>
        <time>2024-01-30T08:28:19.000Z</time>
      </trkpt>
      <trkpt lat="44.30193" lon="3.29561">
        <ele>466</ele>
        <time>2024-01-30T08:28:20.000Z</time>
      </trkpt>
      <trkpt lat="44.30206" lon="3.29577">
        <ele>465.60000610352</ele>
        <time>2024-01-30T08:28:22.000Z</time>
      </trkpt>
      <trkpt lat="44.30214" lon="3.29585">
        <ele>465.39999389648</ele>
        <time>2024-01-30T08:28:23.000Z</time>
      </trkpt>
      <trkpt lat="44.30233" lon="3.29596">
        <ele>464.60000610352</ele>
        <time>2024-01-30T08:28:25.000Z</time>
      </trkpt>
      <trkpt lat="44.30264" lon="3.29598">
        <ele>464.20001220703</ele>
        <time>2024-01-30T08:28:28.000Z</time>
      </trkpt>
      <trkpt lat="44.30282" lon="3.29596">
        <ele>463.39999389648</ele>
        <time>2024-01-30T08:28:30.000Z</time>
      </trkpt>
      <trkpt lat="44.30304" lon="3.29605">
        <ele>462.79998779297</ele>
        <time>2024-01-30T08:28:32.000Z</time>
      </trkpt>
      <trkpt lat="44.30321" lon="3.29623">
        <ele>462.20001220703</ele>
        <time>2024-01-30T08:28:34.000Z</time>
      </trkpt>
      <trkpt lat="44.30331" lon="3.29631">
        <ele>462</ele>
        <time>2024-01-30T08:28:35.000Z</time>
      </trkpt>
      <trkpt lat="44.30366" lon="3.29647">
        <ele>461.39999389648</ele>
        <time>2024-01-30T08:28:38.000Z</time>
      </trkpt>
      <trkpt lat="44.30391" lon="3.29656">
        <ele>461</ele>
        <time>2024-01-30T08:28:40.000Z</time>
      </trkpt>
      <trkpt lat="44.30416" lon="3.29669">
        <ele>460.39999389648</ele>
        <time>2024-01-30T08:28:42.000Z</time>
      </trkpt>
      <trkpt lat="44.30429" lon="3.29677">
        <ele>460</ele>
        <time>2024-01-30T08:28:43.000Z</time>
      </trkpt>
      <trkpt lat="44.30461" lon="3.29707">
        <ele>458.79998779297</ele>
        <time>2024-01-30T08:28:46.000Z</time>
      </trkpt>
      <trkpt lat="44.30478" lon="3.29735">
        <ele>457.60000610352</ele>
        <time>2024-01-30T08:28:48.000Z</time>
      </trkpt>
      <trkpt lat="44.30486" lon="3.29745">
        <ele>457</ele>
        <time>2024-01-30T08:28:49.000Z</time>
      </trkpt>
      <trkpt lat="44.30495" lon="3.29754">
        <ele>456.39999389648</ele>
        <time>2024-01-30T08:28:50.000Z</time>
      </trkpt>
      <trkpt lat="44.30505" lon="3.29759">
        <ele>456</ele>
        <time>2024-01-30T08:28:51.000Z</time>
      </trkpt>
      <trkpt lat="44.30522" lon="3.29773">
        <ele>455.79998779297</ele>
        <time>2024-01-30T08:28:53.000Z</time>
      </trkpt>
      <trkpt lat="44.3053" lon="3.29784">
        <ele>455.79998779297</ele>
        <time>2024-01-30T08:28:54.000Z</time>
      </trkpt>
      <trkpt lat="44.30559" lon="3.29838">
        <ele>455.79998779297</ele>
        <time>2024-01-30T08:28:58.000Z</time>
      </trkpt>
      <trkpt lat="44.30602" lon="3.29908">
        <ele>456.60000610352</ele>
        <time>2024-01-30T08:29:03.000Z</time>
      </trkpt>
      <trkpt lat="44.30609" lon="3.29923">
        <ele>457</ele>
        <time>2024-01-30T08:29:04.000Z</time>
      </trkpt>
      <trkpt lat="44.30617" lon="3.29954">
        <ele>457.39999389648</ele>
        <time>2024-01-30T08:29:06.000Z</time>
      </trkpt>
      <trkpt lat="44.30618" lon="3.29972">
        <ele>457.60000610352</ele>
        <time>2024-01-30T08:29:07.000Z</time>
      </trkpt>
      <trkpt lat="44.30621" lon="3.30005">
        <ele>458.60000610352</ele>
        <time>2024-01-30T08:29:09.000Z</time>
      </trkpt>
      <trkpt lat="44.30625" lon="3.30021">
        <ele>459</ele>
        <time>2024-01-30T08:29:10.000Z</time>
      </trkpt>
      <trkpt lat="44.3063" lon="3.30037">
        <ele>459.20001220703</ele>
        <time>2024-01-30T08:29:11.000Z</time>
      </trkpt>
      <trkpt lat="44.30636" lon="3.30053">
        <ele>459.60000610352</ele>
        <time>2024-01-30T08:29:12.000Z</time>
      </trkpt>
      <trkpt lat="44.3064" lon="3.30071">
        <ele>460.20001220703</ele>
        <time>2024-01-30T08:29:13.000Z</time>
      </trkpt>
      <trkpt lat="44.30646" lon="3.3011">
        <ele>461.20001220703</ele>
        <time>2024-01-30T08:29:15.000Z</time>
      </trkpt>
      <trkpt lat="44.30649" lon="3.30167">
        <ele>462.39999389648</ele>
        <time>2024-01-30T08:29:18.000Z</time>
      </trkpt>
      <trkpt lat="44.30644" lon="3.302">
        <ele>463</ele>
        <time>2024-01-30T08:29:20.000Z</time>
      </trkpt>
      <trkpt lat="44.30639" lon="3.30214">
        <ele>463.39999389648</ele>
        <time>2024-01-30T08:29:21.000Z</time>
      </trkpt>
      <trkpt lat="44.30636" lon="3.30229">
        <ele>463.60000610352</ele>
        <time>2024-01-30T08:29:22.000Z</time>
      </trkpt>
      <trkpt lat="44.30635" lon="3.30259">
        <ele>463.79998779297</ele>
        <time>2024-01-30T08:29:24.000Z</time>
      </trkpt>
      <trkpt lat="44.30648" lon="3.30298">
        <ele>464.60000610352</ele>
        <time>2024-01-30T08:29:27.000Z</time>
      </trkpt>
      <trkpt lat="44.30649" lon="3.30326">
        <ele>465.20001220703</ele>
        <time>2024-01-30T08:29:29.000Z</time>
      </trkpt>
      <trkpt lat="44.30646" lon="3.30339">
        <ele>465.60000610352</ele>
        <time>2024-01-30T08:29:30.000Z</time>
      </trkpt>
      <trkpt lat="44.3064" lon="3.3035">
        <ele>465.79998779297</ele>
        <time>2024-01-30T08:29:31.000Z</time>
      </trkpt>
      <trkpt lat="44.30625" lon="3.30369">
        <ele>466.79998779297</ele>
        <time>2024-01-30T08:29:33.000Z</time>
      </trkpt>
      <trkpt lat="44.30618" lon="3.3038">
        <ele>467.39999389648</ele>
        <time>2024-01-30T08:29:34.000Z</time>
      </trkpt>
      <trkpt lat="44.30612" lon="3.30395">
        <ele>468</ele>
        <time>2024-01-30T08:29:35.000Z</time>
      </trkpt>
      <trkpt lat="44.30592" lon="3.30449">
        <ele>469.20001220703</ele>
        <time>2024-01-30T08:29:38.000Z</time>
      </trkpt>
      <trkpt lat="44.30585" lon="3.30466">
        <ele>469.79998779297</ele>
        <time>2024-01-30T08:29:39.000Z</time>
      </trkpt>
      <trkpt lat="44.30571" lon="3.30497">
        <ele>470.39999389648</ele>
        <time>2024-01-30T08:29:41.000Z</time>
      </trkpt>
      <trkpt lat="44.30559" lon="3.30534">
        <ele>470.60000610352</ele>
        <time>2024-01-30T08:29:43.000Z</time>
      </trkpt>
      <trkpt lat="44.30548" lon="3.30576">
        <ele>470.79998779297</ele>
        <time>2024-01-30T08:29:45.000Z</time>
      </trkpt>
      <trkpt lat="44.30532" lon="3.30611">
        <ele>471</ele>
        <time>2024-01-30T08:29:47.000Z</time>
      </trkpt>
      <trkpt lat="44.30512" lon="3.30643">
        <ele>471.39999389648</ele>
        <time>2024-01-30T08:29:49.000Z</time>
      </trkpt>
      <trkpt lat="44.30485" lon="3.3069">
        <ele>471.60000610352</ele>
        <time>2024-01-30T08:29:52.000Z</time>
      </trkpt>
      <trkpt lat="44.30451" lon="3.30758">
        <ele>472</ele>
        <time>2024-01-30T08:29:56.000Z</time>
      </trkpt>
      <trkpt lat="44.30442" lon="3.30776">
        <ele>472.20001220703</ele>
        <time>2024-01-30T08:29:57.000Z</time>
      </trkpt>
      <trkpt lat="44.30424" lon="3.30813">
        <ele>472.39999389648</ele>
        <time>2024-01-30T08:29:59.000Z</time>
      </trkpt>
      <trkpt lat="44.30409" lon="3.30855">
        <ele>473</ele>
        <time>2024-01-30T08:30:01.000Z</time>
      </trkpt>
      <trkpt lat="44.30376" lon="3.30934">
        <ele>473.79998779297</ele>
        <time>2024-01-30T08:30:05.000Z</time>
      </trkpt>
      <trkpt lat="44.30332" lon="3.3101">
        <ele>474</ele>
        <time>2024-01-30T08:30:09.000Z</time>
      </trkpt>
      <trkpt lat="44.30307" lon="3.31044">
        <ele>474</ele>
        <time>2024-01-30T08:30:11.000Z</time>
      </trkpt>
      <trkpt lat="44.30291" lon="3.3106">
        <ele>474.20001220703</ele>
        <time>2024-01-30T08:30:12.000Z</time>
      </trkpt>
      <trkpt lat="44.30237" lon="3.31108">
        <ele>474.39999389648</ele>
        <time>2024-01-30T08:30:16.000Z</time>
      </trkpt>
      <trkpt lat="44.30222" lon="3.31118">
        <ele>474.39999389648</ele>
        <time>2024-01-30T08:30:17.000Z</time>
      </trkpt>
      <trkpt lat="44.30179" lon="3.3115">
        <ele>474.60000610352</ele>
        <time>2024-01-30T08:30:20.000Z</time>
      </trkpt>
      <trkpt lat="44.30164" lon="3.31166">
        <ele>474.60000610352</ele>
        <time>2024-01-30T08:30:21.000Z</time>
      </trkpt>
      <trkpt lat="44.30139" lon="3.31188">
        <ele>474.60000610352</ele>
        <time>2024-01-30T08:30:23.000Z</time>
      </trkpt>
      <trkpt lat="44.30124" lon="3.31197">
        <ele>475</ele>
        <time>2024-01-30T08:30:24.000Z</time>
      </trkpt>
      <trkpt lat="44.30064" lon="3.31228">
        <ele>475</ele>
        <time>2024-01-30T08:30:28.000Z</time>
      </trkpt>
      <trkpt lat="44.30049" lon="3.31237">
        <ele>474.79998779297</ele>
        <time>2024-01-30T08:30:29.000Z</time>
      </trkpt>
      <trkpt lat="44.30012" lon="3.31261">
        <ele>473.20001220703</ele>
        <time>2024-01-30T08:30:32.000Z</time>
      </trkpt>
      <trkpt lat="44.30003" lon="3.3127">
        <ele>472.39999389648</ele>
        <time>2024-01-30T08:30:33.000Z</time>
      </trkpt>
      <trkpt lat="44.29996" lon="3.3128">
        <ele>472.20001220703</ele>
        <time>2024-01-30T08:30:34.000Z</time>
      </trkpt>
      <trkpt lat="44.29993" lon="3.31291">
        <ele>472</ele>
        <time>2024-01-30T08:30:35.000Z</time>
      </trkpt>
      <trkpt lat="44.29995" lon="3.31315">
        <ele>472</ele>
        <time>2024-01-30T08:30:37.000Z</time>
      </trkpt>
      <trkpt lat="44.30018" lon="3.31355">
        <ele>472</ele>
        <time>2024-01-30T08:30:40.000Z</time>
      </trkpt>
      <trkpt lat="44.30045" lon="3.31393">
        <ele>471</ele>
        <time>2024-01-30T08:30:43.000Z</time>
      </trkpt>
      <trkpt lat="44.30065" lon="3.31422">
        <ele>470.79998779297</ele>
        <time>2024-01-30T08:30:45.000Z</time>
      </trkpt>
      <trkpt lat="44.30074" lon="3.31439">
        <ele>470.60000610352</ele>
        <time>2024-01-30T08:30:46.000Z</time>
      </trkpt>
      <trkpt lat="44.30096" lon="3.31496">
        <ele>470</ele>
        <time>2024-01-30T08:30:49.000Z</time>
      </trkpt>
      <trkpt lat="44.30101" lon="3.31517">
        <ele>469.79998779297</ele>
        <time>2024-01-30T08:30:50.000Z</time>
      </trkpt>
      <trkpt lat="44.30113" lon="3.3158">
        <ele>468.60000610352</ele>
        <time>2024-01-30T08:30:53.000Z</time>
      </trkpt>
      <trkpt lat="44.30117" lon="3.31601">
        <ele>467.79998779297</ele>
        <time>2024-01-30T08:30:54.000Z</time>
      </trkpt>
      <trkpt lat="44.30122" lon="3.3162">
        <ele>467.20001220703</ele>
        <time>2024-01-30T08:30:55.000Z</time>
      </trkpt>
      <trkpt lat="44.30131" lon="3.31655">
        <ele>466</ele>
        <time>2024-01-30T08:30:57.000Z</time>
      </trkpt>
      <trkpt lat="44.30135" lon="3.31671">
        <ele>464.79998779297</ele>
        <time>2024-01-30T08:30:58.000Z</time>
      </trkpt>
      <trkpt lat="44.30138" lon="3.31686">
        <ele>464.39999389648</ele>
        <time>2024-01-30T08:30:59.000Z</time>
      </trkpt>
      <trkpt lat="44.30139" lon="3.31716">
        <ele>463.79998779297</ele>
        <time>2024-01-30T08:31:01.000Z</time>
      </trkpt>
      <trkpt lat="44.30132" lon="3.31759">
        <ele>462.20001220703</ele>
        <time>2024-01-30T08:31:04.000Z</time>
      </trkpt>
      <trkpt lat="44.30131" lon="3.31774">
        <ele>462</ele>
        <time>2024-01-30T08:31:05.000Z</time>
      </trkpt>
      <trkpt lat="44.30128" lon="3.31832">
        <ele>460.79998779297</ele>
        <time>2024-01-30T08:31:09.000Z</time>
      </trkpt>
      <trkpt lat="44.30127" lon="3.31878">
        <ele>459.60000610352</ele>
        <time>2024-01-30T08:31:12.000Z</time>
      </trkpt>
      <trkpt lat="44.30125" lon="3.31917">
        <ele>458.60000610352</ele>
        <time>2024-01-30T08:31:15.000Z</time>
      </trkpt>
      <trkpt lat="44.30125" lon="3.31928">
        <ele>458</ele>
        <time>2024-01-30T08:31:16.000Z</time>
      </trkpt>
      <trkpt lat="44.30125" lon="3.3195">
        <ele>457.39999389648</ele>
        <time>2024-01-30T08:31:18.000Z</time>
      </trkpt>
      <trkpt lat="44.30126" lon="3.3196">
        <ele>457</ele>
        <time>2024-01-30T08:31:19.000Z</time>
      </trkpt>
      <trkpt lat="44.30127" lon="3.31968">
        <ele>456.39999389648</ele>
        <time>2024-01-30T08:31:20.000Z</time>
      </trkpt>
      <trkpt lat="44.30129" lon="3.31977">
        <ele>456.20001220703</ele>
        <time>2024-01-30T08:31:21.000Z</time>
      </trkpt>
      <trkpt lat="44.30133" lon="3.32011">
        <ele>454.60000610352</ele>
        <time>2024-01-30T08:31:25.000Z</time>
      </trkpt>
      <trkpt lat="44.30133" lon="3.32017">
        <ele>454.20001220703</ele>
        <time>2024-01-30T08:31:26.000Z</time>
      </trkpt>
      <trkpt lat="44.30129" lon="3.3203">
        <ele>453.60000610352</ele>
        <time>2024-01-30T08:31:29.000Z</time>
      </trkpt>
      <trkpt lat="44.30126" lon="3.32032">
        <ele>453.60000610352</ele>
        <time>2024-01-30T08:31:30.000Z</time>
      </trkpt>
      <trkpt lat="44.30116" lon="3.32036">
        <ele>453</ele>
        <time>2024-01-30T08:31:33.000Z</time>
      </trkpt>
      <trkpt lat="44.30091" lon="3.32044">
        <ele>453.20001220703</ele>
        <time>2024-01-30T08:31:40.000Z</time>
      </trkpt>
      <trkpt lat="44.30066" lon="3.32059">
        <ele>454.39999389648</ele>
        <time>2024-01-30T08:31:46.000Z</time>
      </trkpt>
      <trkpt lat="44.30036" lon="3.32079">
        <ele>454.60000610352</ele>
        <time>2024-01-30T08:31:52.000Z</time>
      </trkpt>
      <trkpt lat="44.30012" lon="3.32097">
        <ele>454.39999389648</ele>
        <time>2024-01-30T08:31:57.000Z</time>
      </trkpt>
      <trkpt lat="44.3001" lon="3.32102">
        <ele>454.39999389648</ele>
        <time>2024-01-30T08:31:58.000Z</time>
      </trkpt>
      <trkpt lat="44.3001" lon="3.32108">
        <ele>454.39999389648</ele>
        <time>2024-01-30T08:31:59.000Z</time>
      </trkpt>
      <trkpt lat="44.30013" lon="3.32121">
        <ele>454.60000610352</ele>
        <time>2024-01-30T08:32:01.000Z</time>
      </trkpt>
      <trkpt lat="44.30015" lon="3.32127">
        <ele>454.60000610352</ele>
        <time>2024-01-30T08:32:02.000Z</time>
      </trkpt>
      <trkpt lat="44.30032" lon="3.32167">
        <ele>455.39999389648</ele>
        <time>2024-01-30T08:32:08.000Z</time>
      </trkpt>
      <trkpt lat="44.30039" lon="3.32181">
        <ele>455.60000610352</ele>
        <time>2024-01-30T08:32:10.000Z</time>
      </trkpt>
      <trkpt lat="44.30052" lon="3.3221">
        <ele>457.39999389648</ele>
        <time>2024-01-30T08:32:14.000Z</time>
      </trkpt>
      <trkpt lat="44.30058" lon="3.32226">
        <ele>458.60000610352</ele>
        <time>2024-01-30T08:32:16.000Z</time>
      </trkpt>
      <trkpt lat="44.30065" lon="3.3224">
        <ele>459.79998779297</ele>
        <time>2024-01-30T08:32:18.000Z</time>
      </trkpt>
      <trkpt lat="44.3007" lon="3.32254">
        <ele>461</ele>
        <time>2024-01-30T08:32:20.000Z</time>
      </trkpt>
      <trkpt lat="44.30076" lon="3.32268">
        <ele>462.20001220703</ele>
        <time>2024-01-30T08:32:22.000Z</time>
      </trkpt>
      <trkpt lat="44.30081" lon="3.32282">
        <ele>463.39999389648</ele>
        <time>2024-01-30T08:32:24.000Z</time>
      </trkpt>
      <trkpt lat="44.30084" lon="3.32289">
        <ele>463.79998779297</ele>
        <time>2024-01-30T08:32:25.000Z</time>
      </trkpt>
      <trkpt lat="44.30086" lon="3.32295">
        <ele>464.60000610352</ele>
        <time>2024-01-30T08:32:26.000Z</time>
      </trkpt>
      <trkpt lat="44.30088" lon="3.32302">
        <ele>465.20001220703</ele>
        <time>2024-01-30T08:32:27.000Z</time>
      </trkpt>
      <trkpt lat="44.30089" lon="3.32308">
        <ele>465.60000610352</ele>
        <time>2024-01-30T08:32:28.000Z</time>
      </trkpt>
      <trkpt lat="44.3009" lon="3.32314">
        <ele>466.39999389648</ele>
        <time>2024-01-30T08:32:29.000Z</time>
      </trkpt>
      <trkpt lat="44.3009" lon="3.32319">
        <ele>466.60000610352</ele>
        <time>2024-01-30T08:32:30.000Z</time>
      </trkpt>
      <trkpt lat="44.30091" lon="3.32333">
        <ele>467.39999389648</ele>
        <time>2024-01-30T08:32:34.000Z</time>
      </trkpt>
      <trkpt lat="44.30091" lon="3.32335">
        <ele>467.79998779297</ele>
        <time>2024-01-30T08:32:35.000Z</time>
      </trkpt>
      <trkpt lat="44.30091" lon="3.32343">
        <ele>468.39999389648</ele>
        <time>2024-01-30T08:32:39.000Z</time>
      </trkpt>
      <trkpt lat="44.30091" lon="3.32345">
        <ele>468.79998779297</ele>
        <time>2024-01-30T08:32:40.000Z</time>
      </trkpt>
      <trkpt lat="44.3009" lon="3.32346">
        <ele>469</ele>
        <time>2024-01-30T08:32:41.000Z</time>
      </trkpt>
      <trkpt lat="44.30085" lon="3.32344">
        <ele>469.60000610352</ele>
        <time>2024-01-30T08:32:44.000Z</time>
      </trkpt>
      <trkpt lat="44.30083" lon="3.32341">
        <ele>469.79998779297</ele>
        <time>2024-01-30T08:32:45.000Z</time>
      </trkpt>
      <trkpt lat="44.30083" lon="3.32338">
        <ele>469.79998779297</ele>
        <time>2024-01-30T08:32:46.000Z</time>
      </trkpt>
      <trkpt lat="44.30081" lon="3.32323">
        <ele>470.79998779297</ele>
        <time>2024-01-30T08:32:49.000Z</time>
      </trkpt>
      <trkpt lat="44.30079" lon="3.32316">
        <ele>471.20001220703</ele>
        <time>2024-01-30T08:32:50.000Z</time>
      </trkpt>
      <trkpt lat="44.30073" lon="3.32303">
        <ele>472.20001220703</ele>
        <time>2024-01-30T08:32:52.000Z</time>
      </trkpt>
      <trkpt lat="44.30067" lon="3.32287">
        <ele>473.39999389648</ele>
        <time>2024-01-30T08:32:54.000Z</time>
      </trkpt>
      <trkpt lat="44.30064" lon="3.3228">
        <ele>473.79998779297</ele>
        <time>2024-01-30T08:32:55.000Z</time>
      </trkpt>
      <trkpt lat="44.30058" lon="3.32265">
        <ele>474.60000610352</ele>
        <time>2024-01-30T08:32:57.000Z</time>
      </trkpt>
      <trkpt lat="44.30052" lon="3.3225">
        <ele>476</ele>
        <time>2024-01-30T08:32:59.000Z</time>
      </trkpt>
      <trkpt lat="44.30046" lon="3.32236">
        <ele>477.20001220703</ele>
        <time>2024-01-30T08:33:01.000Z</time>
      </trkpt>
      <trkpt lat="44.30041" lon="3.32225">
        <ele>478</ele>
        <time>2024-01-30T08:33:03.000Z</time>
      </trkpt>
      <trkpt lat="44.30039" lon="3.32221">
        <ele>478.39999389648</ele>
        <time>2024-01-30T08:33:04.000Z</time>
      </trkpt>
      <trkpt lat="44.30032" lon="3.32222">
        <ele>478.79998779297</ele>
        <time>2024-01-30T08:33:06.000Z</time>
      </trkpt>
      <trkpt lat="44.3003" lon="3.3223">
        <ele>479.60000610352</ele>
        <time>2024-01-30T08:33:08.000Z</time>
      </trkpt>
      <trkpt lat="44.30031" lon="3.32235">
        <ele>480</ele>
        <time>2024-01-30T08:33:09.000Z</time>
      </trkpt>
      <trkpt lat="44.30037" lon="3.32247">
        <ele>480.79998779297</ele>
        <time>2024-01-30T08:33:12.000Z</time>
      </trkpt>
      <trkpt lat="44.30038" lon="3.32253">
        <ele>481.39999389648</ele>
        <time>2024-01-30T08:33:13.000Z</time>
      </trkpt>
      <trkpt lat="44.3004" lon="3.3226">
        <ele>481.79998779297</ele>
        <time>2024-01-30T08:33:14.000Z</time>
      </trkpt>
      <trkpt lat="44.30043" lon="3.32268">
        <ele>482.20001220703</ele>
        <time>2024-01-30T08:33:15.000Z</time>
      </trkpt>
      <trkpt lat="44.30047" lon="3.3228">
        <ele>483.39999389648</ele>
        <time>2024-01-30T08:33:17.000Z</time>
      </trkpt>
      <trkpt lat="44.3005" lon="3.32291">
        <ele>484.60000610352</ele>
        <time>2024-01-30T08:33:19.000Z</time>
      </trkpt>
      <trkpt lat="44.30051" lon="3.32304">
        <ele>485.79998779297</ele>
        <time>2024-01-30T08:33:21.000Z</time>
      </trkpt>
      <trkpt lat="44.30048" lon="3.32318">
        <ele>486.79998779297</ele>
        <time>2024-01-30T08:33:23.000Z</time>
      </trkpt>
      <trkpt lat="44.30048" lon="3.32333">
        <ele>488</ele>
        <time>2024-01-30T08:33:25.000Z</time>
      </trkpt>
      <trkpt lat="44.30049" lon="3.3234">
        <ele>488.39999389648</ele>
        <time>2024-01-30T08:33:26.000Z</time>
      </trkpt>
      <trkpt lat="44.30051" lon="3.32346">
        <ele>489</ele>
        <time>2024-01-30T08:33:27.000Z</time>
      </trkpt>
      <trkpt lat="44.30052" lon="3.32352">
        <ele>489.60000610352</ele>
        <time>2024-01-30T08:33:28.000Z</time>
      </trkpt>
      <trkpt lat="44.30053" lon="3.32357">
        <ele>490.20001220703</ele>
        <time>2024-01-30T08:33:29.000Z</time>
      </trkpt>
      <trkpt lat="44.30052" lon="3.32364">
        <ele>491.20001220703</ele>
        <time>2024-01-30T08:33:31.000Z</time>
      </trkpt>
      <trkpt lat="44.30052" lon="3.32366">
        <ele>491.39999389648</ele>
        <time>2024-01-30T08:33:32.000Z</time>
      </trkpt>
      <trkpt lat="44.30047" lon="3.32365">
        <ele>492.39999389648</ele>
        <time>2024-01-30T08:33:34.000Z</time>
      </trkpt>
      <trkpt lat="44.30045" lon="3.32362">
        <ele>492.79998779297</ele>
        <time>2024-01-30T08:33:35.000Z</time>
      </trkpt>
      <trkpt lat="44.30043" lon="3.32346">
        <ele>493.60000610352</ele>
        <time>2024-01-30T08:33:38.000Z</time>
      </trkpt>
      <trkpt lat="44.30042" lon="3.32339">
        <ele>493.79998779297</ele>
        <time>2024-01-30T08:33:39.000Z</time>
      </trkpt>
      <trkpt lat="44.30042" lon="3.32333">
        <ele>494.20001220703</ele>
        <time>2024-01-30T08:33:40.000Z</time>
      </trkpt>
      <trkpt lat="44.30042" lon="3.32321">
        <ele>495</ele>
        <time>2024-01-30T08:33:42.000Z</time>
      </trkpt>
      <trkpt lat="44.30043" lon="3.32316">
        <ele>495.20001220703</ele>
        <time>2024-01-30T08:33:43.000Z</time>
      </trkpt>
      <trkpt lat="44.30042" lon="3.32306">
        <ele>496.20001220703</ele>
        <time>2024-01-30T08:33:45.000Z</time>
      </trkpt>
      <trkpt lat="44.3004" lon="3.32304">
        <ele>496.39999389648</ele>
        <time>2024-01-30T08:33:46.000Z</time>
      </trkpt>
      <trkpt lat="44.30037" lon="3.32304">
        <ele>496.79998779297</ele>
        <time>2024-01-30T08:33:47.000Z</time>
      </trkpt>
      <trkpt lat="44.30035" lon="3.32305">
        <ele>497.20001220703</ele>
        <time>2024-01-30T08:33:49.000Z</time>
      </trkpt>
      <trkpt lat="44.30037" lon="3.32304">
        <ele>497.60000610352</ele>
        <time>2024-01-30T08:33:52.000Z</time>
      </trkpt>
      <trkpt lat="44.30037" lon="3.32304">
        <ele>497.60000610352</ele>
        <time>2024-01-30T08:33:53.000Z</time>
      </trkpt>
      <trkpt lat="44.30037" lon="3.32304">
        <ele>497.60000610352</ele>
        <time>2024-01-30T08:33:58.000Z</time>
      </trkpt>
      <trkpt lat="44.30036" lon="3.32306">
        <ele>497.60000610352</ele>
        <time>2024-01-30T08:33:59.000Z</time>
      </trkpt>
      <trkpt lat="44.30035" lon="3.32316">
        <ele>498</ele>
        <time>2024-01-30T08:34:02.000Z</time>
      </trkpt>
      <trkpt lat="44.30034" lon="3.3232">
        <ele>498.39999389648</ele>
        <time>2024-01-30T08:34:03.000Z</time>
      </trkpt>
      <trkpt lat="44.30032" lon="3.32338">
        <ele>499.39999389648</ele>
        <time>2024-01-30T08:34:06.000Z</time>
      </trkpt>
      <trkpt lat="44.30032" lon="3.32344">
        <ele>499.60000610352</ele>
        <time>2024-01-30T08:34:07.000Z</time>
      </trkpt>
      <trkpt lat="44.30031" lon="3.32351">
        <ele>500.39999389648</ele>
        <time>2024-01-30T08:34:08.000Z</time>
      </trkpt>
      <trkpt lat="44.30032" lon="3.32359">
        <ele>501</ele>
        <time>2024-01-30T08:34:09.000Z</time>
      </trkpt>
      <trkpt lat="44.30033" lon="3.32366">
        <ele>501.79998779297</ele>
        <time>2024-01-30T08:34:10.000Z</time>
      </trkpt>
      <trkpt lat="44.30035" lon="3.32372">
        <ele>502.20001220703</ele>
        <time>2024-01-30T08:34:11.000Z</time>
      </trkpt>
      <trkpt lat="44.30039" lon="3.32383">
        <ele>502.79998779297</ele>
        <time>2024-01-30T08:34:13.000Z</time>
      </trkpt>
      <trkpt lat="44.30044" lon="3.32386">
        <ele>503.39999389648</ele>
        <time>2024-01-30T08:34:14.000Z</time>
      </trkpt>
      <trkpt lat="44.30048" lon="3.32388">
        <ele>503.79998779297</ele>
        <time>2024-01-30T08:34:15.000Z</time>
      </trkpt>
      <trkpt lat="44.30058" lon="3.32389">
        <ele>504.79998779297</ele>
        <time>2024-01-30T08:34:17.000Z</time>
      </trkpt>
      <trkpt lat="44.30063" lon="3.32391">
        <ele>505.20001220703</ele>
        <time>2024-01-30T08:34:18.000Z</time>
      </trkpt>
      <trkpt lat="44.30073" lon="3.32393">
        <ele>506.39999389648</ele>
        <time>2024-01-30T08:34:20.000Z</time>
      </trkpt>
      <trkpt lat="44.30084" lon="3.32396">
        <ele>507.79998779297</ele>
        <time>2024-01-30T08:34:22.000Z</time>
      </trkpt>
      <trkpt lat="44.30089" lon="3.32398">
        <ele>508.60000610352</ele>
        <time>2024-01-30T08:34:23.000Z</time>
      </trkpt>
      <trkpt lat="44.30093" lon="3.32398">
        <ele>509.20001220703</ele>
        <time>2024-01-30T08:34:24.000Z</time>
      </trkpt>
      <trkpt lat="44.30097" lon="3.32402">
        <ele>510.20001220703</ele>
        <time>2024-01-30T08:34:26.000Z</time>
      </trkpt>
      <trkpt lat="44.30098" lon="3.32405">
        <ele>510.79998779297</ele>
        <time>2024-01-30T08:34:27.000Z</time>
      </trkpt>
      <trkpt lat="44.30096" lon="3.3241">
        <ele>511.39999389648</ele>
        <time>2024-01-30T08:34:29.000Z</time>
      </trkpt>
      <trkpt lat="44.30094" lon="3.32411">
        <ele>511.79998779297</ele>
        <time>2024-01-30T08:34:31.000Z</time>
      </trkpt>
      <trkpt lat="44.30093" lon="3.3241">
        <ele>512</ele>
        <time>2024-01-30T08:34:32.000Z</time>
      </trkpt>
      <trkpt lat="44.30093" lon="3.3241">
        <ele>512</ele>
        <time>2024-01-30T08:34:33.000Z</time>
      </trkpt>
      <trkpt lat="44.30081" lon="3.32405">
        <ele>513</ele>
        <time>2024-01-30T08:34:38.000Z</time>
      </trkpt>
      <trkpt lat="44.30072" lon="3.32403">
        <ele>514</ele>
        <time>2024-01-30T08:34:40.000Z</time>
      </trkpt>
      <trkpt lat="44.30064" lon="3.32403">
        <ele>515</ele>
        <time>2024-01-30T08:34:42.000Z</time>
      </trkpt>
      <trkpt lat="44.30058" lon="3.32404">
        <ele>515.79998779297</ele>
        <time>2024-01-30T08:34:43.000Z</time>
      </trkpt>
      <trkpt lat="44.30047" lon="3.32408">
        <ele>516.79998779297</ele>
        <time>2024-01-30T08:34:45.000Z</time>
      </trkpt>
      <trkpt lat="44.30041" lon="3.32411">
        <ele>517.20001220703</ele>
        <time>2024-01-30T08:34:46.000Z</time>
      </trkpt>
      <trkpt lat="44.30035" lon="3.32413">
        <ele>517.79998779297</ele>
        <time>2024-01-30T08:34:47.000Z</time>
      </trkpt>
      <trkpt lat="44.30029" lon="3.32415">
        <ele>518.40002441406</ele>
        <time>2024-01-30T08:34:48.000Z</time>
      </trkpt>
      <trkpt lat="44.30022" lon="3.32414">
        <ele>519.59997558594</ele>
        <time>2024-01-30T08:34:49.000Z</time>
      </trkpt>
      <trkpt lat="44.30008" lon="3.32411">
        <ele>520.59997558594</ele>
        <time>2024-01-30T08:34:51.000Z</time>
      </trkpt>
      <trkpt lat="44.29995" lon="3.32403">
        <ele>522.20001220703</ele>
        <time>2024-01-30T08:34:53.000Z</time>
      </trkpt>
      <trkpt lat="44.29984" lon="3.32392">
        <ele>523.59997558594</ele>
        <time>2024-01-30T08:34:55.000Z</time>
      </trkpt>
      <trkpt lat="44.29978" lon="3.32376">
        <ele>524.79998779297</ele>
        <time>2024-01-30T08:34:57.000Z</time>
      </trkpt>
      <trkpt lat="44.29977" lon="3.32359">
        <ele>526</ele>
        <time>2024-01-30T08:34:59.000Z</time>
      </trkpt>
      <trkpt lat="44.29978" lon="3.3235">
        <ele>526.79998779297</ele>
        <time>2024-01-30T08:35:00.000Z</time>
      </trkpt>
      <trkpt lat="44.2998" lon="3.32341">
        <ele>527.59997558594</ele>
        <time>2024-01-30T08:35:01.000Z</time>
      </trkpt>
      <trkpt lat="44.29989" lon="3.32326">
        <ele>529</ele>
        <time>2024-01-30T08:35:03.000Z</time>
      </trkpt>
      <trkpt lat="44.29993" lon="3.3232">
        <ele>529.40002441406</ele>
        <time>2024-01-30T08:35:04.000Z</time>
      </trkpt>
      <trkpt lat="44.30002" lon="3.3231">
        <ele>530.40002441406</ele>
        <time>2024-01-30T08:35:06.000Z</time>
      </trkpt>
      <trkpt lat="44.30004" lon="3.32305">
        <ele>530.79998779297</ele>
        <time>2024-01-30T08:35:07.000Z</time>
      </trkpt>
      <trkpt lat="44.30005" lon="3.323">
        <ele>530.79998779297</ele>
        <time>2024-01-30T08:35:08.000Z</time>
      </trkpt>
      <trkpt lat="44.3" lon="3.32293">
        <ele>531.40002441406</ele>
        <time>2024-01-30T08:35:10.000Z</time>
      </trkpt>
      <trkpt lat="44.29995" lon="3.32293">
        <ele>531.79998779297</ele>
        <time>2024-01-30T08:35:11.000Z</time>
      </trkpt>
      <trkpt lat="44.29991" lon="3.32296">
        <ele>532.20001220703</ele>
        <time>2024-01-30T08:35:12.000Z</time>
      </trkpt>
      <trkpt lat="44.29987" lon="3.32301">
        <ele>533</ele>
        <time>2024-01-30T08:35:13.000Z</time>
      </trkpt>
      <trkpt lat="44.2998" lon="3.32313">
        <ele>534.20001220703</ele>
        <time>2024-01-30T08:35:15.000Z</time>
      </trkpt>
      <trkpt lat="44.29975" lon="3.32319">
        <ele>534.79998779297</ele>
        <time>2024-01-30T08:35:16.000Z</time>
      </trkpt>
      <trkpt lat="44.2997" lon="3.32326">
        <ele>535.40002441406</ele>
        <time>2024-01-30T08:35:17.000Z</time>
      </trkpt>
      <trkpt lat="44.29959" lon="3.32338">
        <ele>536.79998779297</ele>
        <time>2024-01-30T08:35:19.000Z</time>
      </trkpt>
      <trkpt lat="44.29954" lon="3.32344">
        <ele>537.40002441406</ele>
        <time>2024-01-30T08:35:20.000Z</time>
      </trkpt>
      <trkpt lat="44.2995" lon="3.32352">
        <ele>538</ele>
        <time>2024-01-30T08:35:21.000Z</time>
      </trkpt>
      <trkpt lat="44.29946" lon="3.3236">
        <ele>538.79998779297</ele>
        <time>2024-01-30T08:35:22.000Z</time>
      </trkpt>
      <trkpt lat="44.29944" lon="3.32368">
        <ele>539.59997558594</ele>
        <time>2024-01-30T08:35:23.000Z</time>
      </trkpt>
      <trkpt lat="44.29943" lon="3.32378">
        <ele>540.20001220703</ele>
        <time>2024-01-30T08:35:24.000Z</time>
      </trkpt>
      <trkpt lat="44.29943" lon="3.32387">
        <ele>540.79998779297</ele>
        <time>2024-01-30T08:35:25.000Z</time>
      </trkpt>
      <trkpt lat="44.29943" lon="3.32397">
        <ele>541.79998779297</ele>
        <time>2024-01-30T08:35:26.000Z</time>
      </trkpt>
      <trkpt lat="44.29944" lon="3.32406">
        <ele>542.20001220703</ele>
        <time>2024-01-30T08:35:27.000Z</time>
      </trkpt>
      <trkpt lat="44.29946" lon="3.32415">
        <ele>543</ele>
        <time>2024-01-30T08:35:28.000Z</time>
      </trkpt>
      <trkpt lat="44.29949" lon="3.32424">
        <ele>543.79998779297</ele>
        <time>2024-01-30T08:35:29.000Z</time>
      </trkpt>
      <trkpt lat="44.29952" lon="3.32432">
        <ele>544.20001220703</ele>
        <time>2024-01-30T08:35:30.000Z</time>
      </trkpt>
      <trkpt lat="44.2996" lon="3.32445">
        <ele>545.20001220703</ele>
        <time>2024-01-30T08:35:32.000Z</time>
      </trkpt>
      <trkpt lat="44.29976" lon="3.32449">
        <ele>546.59997558594</ele>
        <time>2024-01-30T08:35:34.000Z</time>
      </trkpt>
      <trkpt lat="44.29991" lon="3.3245">
        <ele>547.79998779297</ele>
        <time>2024-01-30T08:35:36.000Z</time>
      </trkpt>
      <trkpt lat="44.30005" lon="3.32455">
        <ele>549</ele>
        <time>2024-01-30T08:35:38.000Z</time>
      </trkpt>
      <trkpt lat="44.30011" lon="3.32458">
        <ele>549.59997558594</ele>
        <time>2024-01-30T08:35:39.000Z</time>
      </trkpt>
      <trkpt lat="44.30017" lon="3.32462">
        <ele>550.59997558594</ele>
        <time>2024-01-30T08:35:40.000Z</time>
      </trkpt>
      <trkpt lat="44.30031" lon="3.32467">
        <ele>551.79998779297</ele>
        <time>2024-01-30T08:35:42.000Z</time>
      </trkpt>
      <trkpt lat="44.30045" lon="3.32471">
        <ele>553</ele>
        <time>2024-01-30T08:35:44.000Z</time>
      </trkpt>
      <trkpt lat="44.30053" lon="3.32473">
        <ele>553.79998779297</ele>
        <time>2024-01-30T08:35:45.000Z</time>
      </trkpt>
      <trkpt lat="44.30059" lon="3.32474">
        <ele>554.40002441406</ele>
        <time>2024-01-30T08:35:46.000Z</time>
      </trkpt>
      <trkpt lat="44.30072" lon="3.32478">
        <ele>555.79998779297</ele>
        <time>2024-01-30T08:35:48.000Z</time>
      </trkpt>
      <trkpt lat="44.30082" lon="3.32482">
        <ele>556.59997558594</ele>
        <time>2024-01-30T08:35:50.000Z</time>
      </trkpt>
      <trkpt lat="44.30084" lon="3.32486">
        <ele>557</ele>
        <time>2024-01-30T08:35:51.000Z</time>
      </trkpt>
      <trkpt lat="44.30085" lon="3.32489">
        <ele>557.20001220703</ele>
        <time>2024-01-30T08:35:52.000Z</time>
      </trkpt>
      <trkpt lat="44.30082" lon="3.32493">
        <ele>557.40002441406</ele>
        <time>2024-01-30T08:35:54.000Z</time>
      </trkpt>
      <trkpt lat="44.3008" lon="3.32494">
        <ele>557.79998779297</ele>
        <time>2024-01-30T08:35:55.000Z</time>
      </trkpt>
      <trkpt lat="44.30078" lon="3.32493">
        <ele>558</ele>
        <time>2024-01-30T08:35:56.000Z</time>
      </trkpt>
      <trkpt lat="44.30065" lon="3.32488">
        <ele>558.79998779297</ele>
        <time>2024-01-30T08:35:59.000Z</time>
      </trkpt>
      <trkpt lat="44.30059" lon="3.32486">
        <ele>559.20001220703</ele>
        <time>2024-01-30T08:36:00.000Z</time>
      </trkpt>
      <trkpt lat="44.30052" lon="3.32486">
        <ele>559.79998779297</ele>
        <time>2024-01-30T08:36:01.000Z</time>
      </trkpt>
      <trkpt lat="44.30044" lon="3.32486">
        <ele>560.40002441406</ele>
        <time>2024-01-30T08:36:02.000Z</time>
      </trkpt>
      <trkpt lat="44.30036" lon="3.32487">
        <ele>561.59997558594</ele>
        <time>2024-01-30T08:36:03.000Z</time>
      </trkpt>
      <trkpt lat="44.3002" lon="3.32487">
        <ele>563.20001220703</ele>
        <time>2024-01-30T08:36:05.000Z</time>
      </trkpt>
      <trkpt lat="44.30004" lon="3.32486">
        <ele>564.59997558594</ele>
        <time>2024-01-30T08:36:07.000Z</time>
      </trkpt>
      <trkpt lat="44.29988" lon="3.32488">
        <ele>566.20001220703</ele>
        <time>2024-01-30T08:36:09.000Z</time>
      </trkpt>
      <trkpt lat="44.29973" lon="3.32494">
        <ele>567.79998779297</ele>
        <time>2024-01-30T08:36:11.000Z</time>
      </trkpt>
      <trkpt lat="44.29958" lon="3.325">
        <ele>569</ele>
        <time>2024-01-30T08:36:13.000Z</time>
      </trkpt>
      <trkpt lat="44.29951" lon="3.32503">
        <ele>570</ele>
        <time>2024-01-30T08:36:14.000Z</time>
      </trkpt>
      <trkpt lat="44.29944" lon="3.32506">
        <ele>570.79998779297</ele>
        <time>2024-01-30T08:36:15.000Z</time>
      </trkpt>
      <trkpt lat="44.29938" lon="3.32508">
        <ele>571.40002441406</ele>
        <time>2024-01-30T08:36:16.000Z</time>
      </trkpt>
      <trkpt lat="44.29931" lon="3.32508">
        <ele>572.40002441406</ele>
        <time>2024-01-30T08:36:17.000Z</time>
      </trkpt>
      <trkpt lat="44.29925" lon="3.32506">
        <ele>573.20001220703</ele>
        <time>2024-01-30T08:36:18.000Z</time>
      </trkpt>
      <trkpt lat="44.29919" lon="3.32501">
        <ele>573.59997558594</ele>
        <time>2024-01-30T08:36:19.000Z</time>
      </trkpt>
      <trkpt lat="44.29914" lon="3.32495">
        <ele>574</ele>
        <time>2024-01-30T08:36:20.000Z</time>
      </trkpt>
      <trkpt lat="44.2991" lon="3.32488">
        <ele>574.79998779297</ele>
        <time>2024-01-30T08:36:21.000Z</time>
      </trkpt>
      <trkpt lat="44.29905" lon="3.3248">
        <ele>575.40002441406</ele>
        <time>2024-01-30T08:36:22.000Z</time>
      </trkpt>
      <trkpt lat="44.29899" lon="3.32472">
        <ele>576.20001220703</ele>
        <time>2024-01-30T08:36:23.000Z</time>
      </trkpt>
      <trkpt lat="44.29886" lon="3.3246">
        <ele>577.79998779297</ele>
        <time>2024-01-30T08:36:25.000Z</time>
      </trkpt>
      <trkpt lat="44.29873" lon="3.32448">
        <ele>579.79998779297</ele>
        <time>2024-01-30T08:36:27.000Z</time>
      </trkpt>
      <trkpt lat="44.29861" lon="3.32433">
        <ele>581.20001220703</ele>
        <time>2024-01-30T08:36:29.000Z</time>
      </trkpt>
      <trkpt lat="44.29857" lon="3.32427">
        <ele>581.59997558594</ele>
        <time>2024-01-30T08:36:30.000Z</time>
      </trkpt>
      <trkpt lat="44.29853" lon="3.32419">
        <ele>583</ele>
        <time>2024-01-30T08:36:31.000Z</time>
      </trkpt>
      <trkpt lat="44.29848" lon="3.32404">
        <ele>583.79998779297</ele>
        <time>2024-01-30T08:36:33.000Z</time>
      </trkpt>
      <trkpt lat="44.29847" lon="3.32398">
        <ele>584.40002441406</ele>
        <time>2024-01-30T08:36:34.000Z</time>
      </trkpt>
      <trkpt lat="44.29845" lon="3.32392">
        <ele>585</ele>
        <time>2024-01-30T08:36:35.000Z</time>
      </trkpt>
      <trkpt lat="44.29842" lon="3.32389">
        <ele>585.40002441406</ele>
        <time>2024-01-30T08:36:36.000Z</time>
      </trkpt>
      <trkpt lat="44.29839" lon="3.32387">
        <ele>585.59997558594</ele>
        <time>2024-01-30T08:36:37.000Z</time>
      </trkpt>
      <trkpt lat="44.29835" lon="3.32392">
        <ele>586</ele>
        <time>2024-01-30T08:36:39.000Z</time>
      </trkpt>
      <trkpt lat="44.29835" lon="3.32397">
        <ele>586.59997558594</ele>
        <time>2024-01-30T08:36:40.000Z</time>
      </trkpt>
      <trkpt lat="44.29841" lon="3.32408">
        <ele>587.20001220703</ele>
        <time>2024-01-30T08:36:42.000Z</time>
      </trkpt>
      <trkpt lat="44.29844" lon="3.32416">
        <ele>587.59997558594</ele>
        <time>2024-01-30T08:36:43.000Z</time>
      </trkpt>
      <trkpt lat="44.29847" lon="3.32432">
        <ele>588.59997558594</ele>
        <time>2024-01-30T08:36:45.000Z</time>
      </trkpt>
      <trkpt lat="44.2985" lon="3.32441">
        <ele>589</ele>
        <time>2024-01-30T08:36:46.000Z</time>
      </trkpt>
      <trkpt lat="44.29855" lon="3.32457">
        <ele>590.20001220703</ele>
        <time>2024-01-30T08:36:48.000Z</time>
      </trkpt>
      <trkpt lat="44.29859" lon="3.32464">
        <ele>590.79998779297</ele>
        <time>2024-01-30T08:36:49.000Z</time>
      </trkpt>
      <trkpt lat="44.29862" lon="3.32471">
        <ele>591.40002441406</ele>
        <time>2024-01-30T08:36:50.000Z</time>
      </trkpt>
      <trkpt lat="44.29875" lon="3.32489">
        <ele>593.20001220703</ele>
        <time>2024-01-30T08:36:53.000Z</time>
      </trkpt>
      <trkpt lat="44.29879" lon="3.32495">
        <ele>594</ele>
        <time>2024-01-30T08:36:54.000Z</time>
      </trkpt>
      <trkpt lat="44.29885" lon="3.32502">
        <ele>594.40002441406</ele>
        <time>2024-01-30T08:36:55.000Z</time>
      </trkpt>
      <trkpt lat="44.2989" lon="3.32517">
        <ele>595.79998779297</ele>
        <time>2024-01-30T08:36:57.000Z</time>
      </trkpt>
      <trkpt lat="44.2989" lon="3.32524">
        <ele>596.40002441406</ele>
        <time>2024-01-30T08:36:58.000Z</time>
      </trkpt>
      <trkpt lat="44.29893" lon="3.32533">
        <ele>597.40002441406</ele>
        <time>2024-01-30T08:36:59.000Z</time>
      </trkpt>
      <trkpt lat="44.29898" lon="3.32556">
        <ele>599</ele>
        <time>2024-01-30T08:37:02.000Z</time>
      </trkpt>
      <trkpt lat="44.29904" lon="3.32567">
        <ele>600.20001220703</ele>
        <time>2024-01-30T08:37:04.000Z</time>
      </trkpt>
      <trkpt lat="44.29914" lon="3.32574">
        <ele>601.59997558594</ele>
        <time>2024-01-30T08:37:06.000Z</time>
      </trkpt>
      <trkpt lat="44.29921" lon="3.32575">
        <ele>602.20001220703</ele>
        <time>2024-01-30T08:37:07.000Z</time>
      </trkpt>
      <trkpt lat="44.29929" lon="3.32575">
        <ele>603</ele>
        <time>2024-01-30T08:37:08.000Z</time>
      </trkpt>
      <trkpt lat="44.29945" lon="3.32573">
        <ele>604</ele>
        <time>2024-01-30T08:37:10.000Z</time>
      </trkpt>
      <trkpt lat="44.29952" lon="3.32572">
        <ele>604.40002441406</ele>
        <time>2024-01-30T08:37:11.000Z</time>
      </trkpt>
      <trkpt lat="44.29958" lon="3.3257">
        <ele>605.20001220703</ele>
        <time>2024-01-30T08:37:12.000Z</time>
      </trkpt>
      <trkpt lat="44.29972" lon="3.32567">
        <ele>606.40002441406</ele>
        <time>2024-01-30T08:37:14.000Z</time>
      </trkpt>
      <trkpt lat="44.29979" lon="3.32566">
        <ele>606.79998779297</ele>
        <time>2024-01-30T08:37:15.000Z</time>
      </trkpt>
      <trkpt lat="44.29985" lon="3.32565">
        <ele>607.59997558594</ele>
        <time>2024-01-30T08:37:16.000Z</time>
      </trkpt>
      <trkpt lat="44.29992" lon="3.32565">
        <ele>608.20001220703</ele>
        <time>2024-01-30T08:37:17.000Z</time>
      </trkpt>
      <trkpt lat="44.29999" lon="3.32566">
        <ele>608.79998779297</ele>
        <time>2024-01-30T08:37:18.000Z</time>
      </trkpt>
      <trkpt lat="44.30005" lon="3.32568">
        <ele>609.59997558594</ele>
        <time>2024-01-30T08:37:19.000Z</time>
      </trkpt>
      <trkpt lat="44.30011" lon="3.32571">
        <ele>610.20001220703</ele>
        <time>2024-01-30T08:37:20.000Z</time>
      </trkpt>
      <trkpt lat="44.30017" lon="3.32575">
        <ele>611</ele>
        <time>2024-01-30T08:37:21.000Z</time>
      </trkpt>
      <trkpt lat="44.30022" lon="3.32579">
        <ele>611.40002441406</ele>
        <time>2024-01-30T08:37:22.000Z</time>
      </trkpt>
      <trkpt lat="44.30032" lon="3.32592">
        <ele>613</ele>
        <time>2024-01-30T08:37:24.000Z</time>
      </trkpt>
      <trkpt lat="44.30037" lon="3.326">
        <ele>614</ele>
        <time>2024-01-30T08:37:25.000Z</time>
      </trkpt>
      <trkpt lat="44.30042" lon="3.32609">
        <ele>614.79998779297</ele>
        <time>2024-01-30T08:37:26.000Z</time>
      </trkpt>
      <trkpt lat="44.30046" lon="3.32618">
        <ele>615.59997558594</ele>
        <time>2024-01-30T08:37:27.000Z</time>
      </trkpt>
      <trkpt lat="44.30054" lon="3.32634">
        <ele>617.20001220703</ele>
        <time>2024-01-30T08:37:29.000Z</time>
      </trkpt>
      <trkpt lat="44.3006" lon="3.32641">
        <ele>618.40002441406</ele>
        <time>2024-01-30T08:37:30.000Z</time>
      </trkpt>
      <trkpt lat="44.30068" lon="3.32647">
        <ele>618.79998779297</ele>
        <time>2024-01-30T08:37:31.000Z</time>
      </trkpt>
      <trkpt lat="44.30076" lon="3.32652">
        <ele>619.59997558594</ele>
        <time>2024-01-30T08:37:32.000Z</time>
      </trkpt>
      <trkpt lat="44.30092" lon="3.32663">
        <ele>621</ele>
        <time>2024-01-30T08:37:34.000Z</time>
      </trkpt>
      <trkpt lat="44.30107" lon="3.32674">
        <ele>622.79998779297</ele>
        <time>2024-01-30T08:37:36.000Z</time>
      </trkpt>
      <trkpt lat="44.30119" lon="3.32683">
        <ele>624</ele>
        <time>2024-01-30T08:37:38.000Z</time>
      </trkpt>
      <trkpt lat="44.30123" lon="3.32686">
        <ele>624.20001220703</ele>
        <time>2024-01-30T08:37:39.000Z</time>
      </trkpt>
      <trkpt lat="44.30129" lon="3.32693">
        <ele>624.79998779297</ele>
        <time>2024-01-30T08:37:41.000Z</time>
      </trkpt>
      <trkpt lat="44.3013" lon="3.32697">
        <ele>625.20001220703</ele>
        <time>2024-01-30T08:37:42.000Z</time>
      </trkpt>
      <trkpt lat="44.30127" lon="3.32702">
        <ele>625.79998779297</ele>
        <time>2024-01-30T08:37:44.000Z</time>
      </trkpt>
      <trkpt lat="44.30125" lon="3.32701">
        <ele>626.20001220703</ele>
        <time>2024-01-30T08:37:45.000Z</time>
      </trkpt>
      <trkpt lat="44.30122" lon="3.32699">
        <ele>626.40002441406</ele>
        <time>2024-01-30T08:37:46.000Z</time>
      </trkpt>
      <trkpt lat="44.30112" lon="3.32689">
        <ele>627.40002441406</ele>
        <time>2024-01-30T08:37:50.000Z</time>
      </trkpt>
      <trkpt lat="44.30108" lon="3.32686">
        <ele>627.79998779297</ele>
        <time>2024-01-30T08:37:51.000Z</time>
      </trkpt>
      <trkpt lat="44.30097" lon="3.32679">
        <ele>628.79998779297</ele>
        <time>2024-01-30T08:37:53.000Z</time>
      </trkpt>
      <trkpt lat="44.3009" lon="3.32676">
        <ele>629.59997558594</ele>
        <time>2024-01-30T08:37:54.000Z</time>
      </trkpt>
      <trkpt lat="44.30083" lon="3.32673">
        <ele>630.20001220703</ele>
        <time>2024-01-30T08:37:55.000Z</time>
      </trkpt>
      <trkpt lat="44.30069" lon="3.32668">
        <ele>631.20001220703</ele>
        <time>2024-01-30T08:37:57.000Z</time>
      </trkpt>
      <trkpt lat="44.30055" lon="3.32663">
        <ele>632.79998779297</ele>
        <time>2024-01-30T08:37:59.000Z</time>
      </trkpt>
      <trkpt lat="44.30049" lon="3.32659">
        <ele>633.79998779297</ele>
        <time>2024-01-30T08:38:00.000Z</time>
      </trkpt>
      <trkpt lat="44.30042" lon="3.32653">
        <ele>634.40002441406</ele>
        <time>2024-01-30T08:38:01.000Z</time>
      </trkpt>
      <trkpt lat="44.30031" lon="3.32642">
        <ele>635.59997558594</ele>
        <time>2024-01-30T08:38:03.000Z</time>
      </trkpt>
      <trkpt lat="44.30019" lon="3.3263">
        <ele>636.79998779297</ele>
        <time>2024-01-30T08:38:05.000Z</time>
      </trkpt>
      <trkpt lat="44.3001" lon="3.3262">
        <ele>637.79998779297</ele>
        <time>2024-01-30T08:38:07.000Z</time>
      </trkpt>
      <trkpt lat="44.30005" lon="3.32616">
        <ele>638.40002441406</ele>
        <time>2024-01-30T08:38:08.000Z</time>
      </trkpt>
      <trkpt lat="44.29999" lon="3.32613">
        <ele>639</ele>
        <time>2024-01-30T08:38:09.000Z</time>
      </trkpt>
      <trkpt lat="44.29993" lon="3.32611">
        <ele>639.59997558594</ele>
        <time>2024-01-30T08:38:10.000Z</time>
      </trkpt>
      <trkpt lat="44.29987" lon="3.3261">
        <ele>640.20001220703</ele>
        <time>2024-01-30T08:38:11.000Z</time>
      </trkpt>
      <trkpt lat="44.29981" lon="3.32611">
        <ele>640.79998779297</ele>
        <time>2024-01-30T08:38:12.000Z</time>
      </trkpt>
      <trkpt lat="44.29975" lon="3.32612">
        <ele>641.40002441406</ele>
        <time>2024-01-30T08:38:13.000Z</time>
      </trkpt>
      <trkpt lat="44.29961" lon="3.32616">
        <ele>642.59997558594</ele>
        <time>2024-01-30T08:38:15.000Z</time>
      </trkpt>
      <trkpt lat="44.29948" lon="3.32622">
        <ele>644.40002441406</ele>
        <time>2024-01-30T08:38:17.000Z</time>
      </trkpt>
      <trkpt lat="44.29941" lon="3.32625">
        <ele>645</ele>
        <time>2024-01-30T08:38:18.000Z</time>
      </trkpt>
      <trkpt lat="44.29934" lon="3.32629">
        <ele>645.79998779297</ele>
        <time>2024-01-30T08:38:19.000Z</time>
      </trkpt>
      <trkpt lat="44.29921" lon="3.32638">
        <ele>647</ele>
        <time>2024-01-30T08:38:21.000Z</time>
      </trkpt>
      <trkpt lat="44.29913" lon="3.32643">
        <ele>648</ele>
        <time>2024-01-30T08:38:22.000Z</time>
      </trkpt>
      <trkpt lat="44.299" lon="3.32653">
        <ele>649.79998779297</ele>
        <time>2024-01-30T08:38:24.000Z</time>
      </trkpt>
      <trkpt lat="44.29894" lon="3.32656">
        <ele>650.40002441406</ele>
        <time>2024-01-30T08:38:25.000Z</time>
      </trkpt>
      <trkpt lat="44.29887" lon="3.32658">
        <ele>651.20001220703</ele>
        <time>2024-01-30T08:38:26.000Z</time>
      </trkpt>
      <trkpt lat="44.2988" lon="3.32658">
        <ele>652</ele>
        <time>2024-01-30T08:38:27.000Z</time>
      </trkpt>
      <trkpt lat="44.29873" lon="3.32657">
        <ele>653</ele>
        <time>2024-01-30T08:38:28.000Z</time>
      </trkpt>
      <trkpt lat="44.29858" lon="3.32652">
        <ele>654.20001220703</ele>
        <time>2024-01-30T08:38:30.000Z</time>
      </trkpt>
      <trkpt lat="44.29845" lon="3.32644">
        <ele>655.59997558594</ele>
        <time>2024-01-30T08:38:32.000Z</time>
      </trkpt>
      <trkpt lat="44.29838" lon="3.3263">
        <ele>656.79998779297</ele>
        <time>2024-01-30T08:38:34.000Z</time>
      </trkpt>
      <trkpt lat="44.29834" lon="3.32623">
        <ele>657.40002441406</ele>
        <time>2024-01-30T08:38:35.000Z</time>
      </trkpt>
      <trkpt lat="44.2983" lon="3.32617">
        <ele>658.20001220703</ele>
        <time>2024-01-30T08:38:36.000Z</time>
      </trkpt>
      <trkpt lat="44.29824" lon="3.32614">
        <ele>658.79998779297</ele>
        <time>2024-01-30T08:38:37.000Z</time>
      </trkpt>
      <trkpt lat="44.29818" lon="3.32612">
        <ele>659.59997558594</ele>
        <time>2024-01-30T08:38:38.000Z</time>
      </trkpt>
      <trkpt lat="44.29804" lon="3.3261">
        <ele>661</ele>
        <time>2024-01-30T08:38:40.000Z</time>
      </trkpt>
      <trkpt lat="44.29798" lon="3.32608">
        <ele>661.79998779297</ele>
        <time>2024-01-30T08:38:41.000Z</time>
      </trkpt>
      <trkpt lat="44.29791" lon="3.32604">
        <ele>662.79998779297</ele>
        <time>2024-01-30T08:38:42.000Z</time>
      </trkpt>
      <trkpt lat="44.29784" lon="3.32597">
        <ele>663.79998779297</ele>
        <time>2024-01-30T08:38:43.000Z</time>
      </trkpt>
      <trkpt lat="44.29779" lon="3.3259">
        <ele>664.79998779297</ele>
        <time>2024-01-30T08:38:44.000Z</time>
      </trkpt>
      <trkpt lat="44.29776" lon="3.32583">
        <ele>665.40002441406</ele>
        <time>2024-01-30T08:38:45.000Z</time>
      </trkpt>
      <trkpt lat="44.29773" lon="3.32574">
        <ele>666.20001220703</ele>
        <time>2024-01-30T08:38:46.000Z</time>
      </trkpt>
      <trkpt lat="44.29771" lon="3.32563">
        <ele>667.20001220703</ele>
        <time>2024-01-30T08:38:47.000Z</time>
      </trkpt>
      <trkpt lat="44.29766" lon="3.32542">
        <ele>668.59997558594</ele>
        <time>2024-01-30T08:38:49.000Z</time>
      </trkpt>
      <trkpt lat="44.29759" lon="3.32521">
        <ele>670.20001220703</ele>
        <time>2024-01-30T08:38:51.000Z</time>
      </trkpt>
      <trkpt lat="44.29755" lon="3.32511">
        <ele>671.20001220703</ele>
        <time>2024-01-30T08:38:52.000Z</time>
      </trkpt>
      <trkpt lat="44.29747" lon="3.32491">
        <ele>673</ele>
        <time>2024-01-30T08:38:54.000Z</time>
      </trkpt>
      <trkpt lat="44.2974" lon="3.32473">
        <ele>674.40002441406</ele>
        <time>2024-01-30T08:38:56.000Z</time>
      </trkpt>
      <trkpt lat="44.29736" lon="3.32465">
        <ele>675.20001220703</ele>
        <time>2024-01-30T08:38:57.000Z</time>
      </trkpt>
      <trkpt lat="44.2973" lon="3.32458">
        <ele>676.40002441406</ele>
        <time>2024-01-30T08:38:58.000Z</time>
      </trkpt>
      <trkpt lat="44.29725" lon="3.32451">
        <ele>677.59997558594</ele>
        <time>2024-01-30T08:38:59.000Z</time>
      </trkpt>
      <trkpt lat="44.29714" lon="3.32437">
        <ele>678.59997558594</ele>
        <time>2024-01-30T08:39:01.000Z</time>
      </trkpt>
      <trkpt lat="44.2971" lon="3.32429">
        <ele>680.20001220703</ele>
        <time>2024-01-30T08:39:02.000Z</time>
      </trkpt>
      <trkpt lat="44.29708" lon="3.3242">
        <ele>680.79998779297</ele>
        <time>2024-01-30T08:39:03.000Z</time>
      </trkpt>
      <trkpt lat="44.29707" lon="3.32412">
        <ele>681.59997558594</ele>
        <time>2024-01-30T08:39:04.000Z</time>
      </trkpt>
      <trkpt lat="44.29707" lon="3.32404">
        <ele>682.40002441406</ele>
        <time>2024-01-30T08:39:05.000Z</time>
      </trkpt>
      <trkpt lat="44.29706" lon="3.32394">
        <ele>683.20001220703</ele>
        <time>2024-01-30T08:39:06.000Z</time>
      </trkpt>
      <trkpt lat="44.297" lon="3.32379">
        <ele>684.40002441406</ele>
        <time>2024-01-30T08:39:08.000Z</time>
      </trkpt>
      <trkpt lat="44.29694" lon="3.32369">
        <ele>685.40002441406</ele>
        <time>2024-01-30T08:39:10.000Z</time>
      </trkpt>
      <trkpt lat="44.29693" lon="3.32357">
        <ele>686.40002441406</ele>
        <time>2024-01-30T08:39:12.000Z</time>
      </trkpt>
      <trkpt lat="44.29692" lon="3.32351">
        <ele>686.79998779297</ele>
        <time>2024-01-30T08:39:13.000Z</time>
      </trkpt>
      <trkpt lat="44.29693" lon="3.32344">
        <ele>687.20001220703</ele>
        <time>2024-01-30T08:39:14.000Z</time>
      </trkpt>
      <trkpt lat="44.297" lon="3.3233">
        <ele>688.59997558594</ele>
        <time>2024-01-30T08:39:16.000Z</time>
      </trkpt>
      <trkpt lat="44.29703" lon="3.32322">
        <ele>689.40002441406</ele>
        <time>2024-01-30T08:39:17.000Z</time>
      </trkpt>
      <trkpt lat="44.29706" lon="3.32314">
        <ele>690</ele>
        <time>2024-01-30T08:39:18.000Z</time>
      </trkpt>
      <trkpt lat="44.29713" lon="3.32298">
        <ele>692</ele>
        <time>2024-01-30T08:39:20.000Z</time>
      </trkpt>
      <trkpt lat="44.29717" lon="3.32291">
        <ele>692.59997558594</ele>
        <time>2024-01-30T08:39:21.000Z</time>
      </trkpt>
      <trkpt lat="44.29721" lon="3.32283">
        <ele>693.40002441406</ele>
        <time>2024-01-30T08:39:22.000Z</time>
      </trkpt>
      <trkpt lat="44.29729" lon="3.32268">
        <ele>695</ele>
        <time>2024-01-30T08:39:24.000Z</time>
      </trkpt>
      <trkpt lat="44.29737" lon="3.32252">
        <ele>696.79998779297</ele>
        <time>2024-01-30T08:39:26.000Z</time>
      </trkpt>
      <trkpt lat="44.29741" lon="3.32244">
        <ele>697.40002441406</ele>
        <time>2024-01-30T08:39:27.000Z</time>
      </trkpt>
      <trkpt lat="44.29745" lon="3.32235">
        <ele>698.20001220703</ele>
        <time>2024-01-30T08:39:28.000Z</time>
      </trkpt>
      <trkpt lat="44.29752" lon="3.3222">
        <ele>699.20001220703</ele>
        <time>2024-01-30T08:39:30.000Z</time>
      </trkpt>
      <trkpt lat="44.29754" lon="3.32208">
        <ele>699.79998779297</ele>
        <time>2024-01-30T08:39:32.000Z</time>
      </trkpt>
      <trkpt lat="44.29749" lon="3.32199">
        <ele>700.40002441406</ele>
        <time>2024-01-30T08:39:34.000Z</time>
      </trkpt>
      <trkpt lat="44.29746" lon="3.322">
        <ele>700.79998779297</ele>
        <time>2024-01-30T08:39:35.000Z</time>
      </trkpt>
      <trkpt lat="44.29743" lon="3.32203">
        <ele>701.40002441406</ele>
        <time>2024-01-30T08:39:36.000Z</time>
      </trkpt>
      <trkpt lat="44.29739" lon="3.32216">
        <ele>702.59997558594</ele>
        <time>2024-01-30T08:39:38.000Z</time>
      </trkpt>
      <trkpt lat="44.29731" lon="3.3223">
        <ele>704</ele>
        <time>2024-01-30T08:39:40.000Z</time>
      </trkpt>
      <trkpt lat="44.29726" lon="3.32236">
        <ele>704.79998779297</ele>
        <time>2024-01-30T08:39:41.000Z</time>
      </trkpt>
      <trkpt lat="44.2972" lon="3.32242">
        <ele>705.59997558594</ele>
        <time>2024-01-30T08:39:42.000Z</time>
      </trkpt>
      <trkpt lat="44.29708" lon="3.32256">
        <ele>706.59997558594</ele>
        <time>2024-01-30T08:39:44.000Z</time>
      </trkpt>
      <trkpt lat="44.29702" lon="3.32263">
        <ele>707.79998779297</ele>
        <time>2024-01-30T08:39:45.000Z</time>
      </trkpt>
      <trkpt lat="44.29689" lon="3.32278">
        <ele>709.40002441406</ele>
        <time>2024-01-30T08:39:47.000Z</time>
      </trkpt>
      <trkpt lat="44.29678" lon="3.32294">
        <ele>710.59997558594</ele>
        <time>2024-01-30T08:39:49.000Z</time>
      </trkpt>
      <trkpt lat="44.29673" lon="3.32302">
        <ele>711.79998779297</ele>
        <time>2024-01-30T08:39:50.000Z</time>
      </trkpt>
      <trkpt lat="44.29661" lon="3.32315">
        <ele>713.59997558594</ele>
        <time>2024-01-30T08:39:52.000Z</time>
      </trkpt>
      <trkpt lat="44.29656" lon="3.32322">
        <ele>714.59997558594</ele>
        <time>2024-01-30T08:39:53.000Z</time>
      </trkpt>
      <trkpt lat="44.29643" lon="3.32334">
        <ele>716.40002441406</ele>
        <time>2024-01-30T08:39:55.000Z</time>
      </trkpt>
      <trkpt lat="44.29639" lon="3.3234">
        <ele>717</ele>
        <time>2024-01-30T08:39:56.000Z</time>
      </trkpt>
      <trkpt lat="44.29635" lon="3.3235">
        <ele>717.59997558594</ele>
        <time>2024-01-30T08:39:57.000Z</time>
      </trkpt>
      <trkpt lat="44.29633" lon="3.32359">
        <ele>718.59997558594</ele>
        <time>2024-01-30T08:39:58.000Z</time>
      </trkpt>
      <trkpt lat="44.29632" lon="3.32369">
        <ele>719.40002441406</ele>
        <time>2024-01-30T08:39:59.000Z</time>
      </trkpt>
      <trkpt lat="44.29632" lon="3.32379">
        <ele>720.40002441406</ele>
        <time>2024-01-30T08:40:00.000Z</time>
      </trkpt>
      <trkpt lat="44.29634" lon="3.32389">
        <ele>721</ele>
        <time>2024-01-30T08:40:01.000Z</time>
      </trkpt>
      <trkpt lat="44.29639" lon="3.32407">
        <ele>722.40002441406</ele>
        <time>2024-01-30T08:40:03.000Z</time>
      </trkpt>
      <trkpt lat="44.29638" lon="3.32423">
        <ele>723.79998779297</ele>
        <time>2024-01-30T08:40:05.000Z</time>
      </trkpt>
      <trkpt lat="44.29635" lon="3.32437">
        <ele>725</ele>
        <time>2024-01-30T08:40:07.000Z</time>
      </trkpt>
      <trkpt lat="44.29636" lon="3.32455">
        <ele>726.59997558594</ele>
        <time>2024-01-30T08:40:09.000Z</time>
      </trkpt>
      <trkpt lat="44.29642" lon="3.32473">
        <ele>728</ele>
        <time>2024-01-30T08:40:11.000Z</time>
      </trkpt>
      <trkpt lat="44.29646" lon="3.32482">
        <ele>729</ele>
        <time>2024-01-30T08:40:12.000Z</time>
      </trkpt>
      <trkpt lat="44.2965" lon="3.32491">
        <ele>730</ele>
        <time>2024-01-30T08:40:13.000Z</time>
      </trkpt>
      <trkpt lat="44.29666" lon="3.32517">
        <ele>732</ele>
        <time>2024-01-30T08:40:16.000Z</time>
      </trkpt>
      <trkpt lat="44.2967" lon="3.32526">
        <ele>732.59997558594</ele>
        <time>2024-01-30T08:40:17.000Z</time>
      </trkpt>
      <trkpt lat="44.29672" lon="3.32536">
        <ele>733.20001220703</ele>
        <time>2024-01-30T08:40:18.000Z</time>
      </trkpt>
      <trkpt lat="44.29673" lon="3.32546">
        <ele>734.20001220703</ele>
        <time>2024-01-30T08:40:19.000Z</time>
      </trkpt>
      <trkpt lat="44.29673" lon="3.32557">
        <ele>735</ele>
        <time>2024-01-30T08:40:20.000Z</time>
      </trkpt>
      <trkpt lat="44.29672" lon="3.32568">
        <ele>736.40002441406</ele>
        <time>2024-01-30T08:40:21.000Z</time>
      </trkpt>
      <trkpt lat="44.29669" lon="3.32592">
        <ele>738</ele>
        <time>2024-01-30T08:40:23.000Z</time>
      </trkpt>
      <trkpt lat="44.29666" lon="3.32619">
        <ele>740</ele>
        <time>2024-01-30T08:40:25.000Z</time>
      </trkpt>
      <trkpt lat="44.29665" lon="3.32633">
        <ele>741.20001220703</ele>
        <time>2024-01-30T08:40:26.000Z</time>
      </trkpt>
      <trkpt lat="44.29664" lon="3.32647">
        <ele>742.59997558594</ele>
        <time>2024-01-30T08:40:27.000Z</time>
      </trkpt>
      <trkpt lat="44.29665" lon="3.32661">
        <ele>743.59997558594</ele>
        <time>2024-01-30T08:40:28.000Z</time>
      </trkpt>
      <trkpt lat="44.29666" lon="3.32675">
        <ele>744.59997558594</ele>
        <time>2024-01-30T08:40:29.000Z</time>
      </trkpt>
      <trkpt lat="44.29668" lon="3.32689">
        <ele>746.20001220703</ele>
        <time>2024-01-30T08:40:30.000Z</time>
      </trkpt>
      <trkpt lat="44.29671" lon="3.32701">
        <ele>747</ele>
        <time>2024-01-30T08:40:31.000Z</time>
      </trkpt>
      <trkpt lat="44.29675" lon="3.32713">
        <ele>748</ele>
        <time>2024-01-30T08:40:32.000Z</time>
      </trkpt>
      <trkpt lat="44.29681" lon="3.32724">
        <ele>749</ele>
        <time>2024-01-30T08:40:33.000Z</time>
      </trkpt>
      <trkpt lat="44.29688" lon="3.32732">
        <ele>749.79998779297</ele>
        <time>2024-01-30T08:40:34.000Z</time>
      </trkpt>
      <trkpt lat="44.29697" lon="3.3274">
        <ele>751.20001220703</ele>
        <time>2024-01-30T08:40:35.000Z</time>
      </trkpt>
      <trkpt lat="44.29705" lon="3.32749">
        <ele>752</ele>
        <time>2024-01-30T08:40:36.000Z</time>
      </trkpt>
      <trkpt lat="44.29713" lon="3.32759">
        <ele>752.40002441406</ele>
        <time>2024-01-30T08:40:37.000Z</time>
      </trkpt>
      <trkpt lat="44.2972" lon="3.32771">
        <ele>754.20001220703</ele>
        <time>2024-01-30T08:40:39.000Z</time>
      </trkpt>
      <trkpt lat="44.29725" lon="3.32775">
        <ele>754.79998779297</ele>
        <time>2024-01-30T08:40:40.000Z</time>
      </trkpt>
      <trkpt lat="44.2973" lon="3.32778">
        <ele>755.40002441406</ele>
        <time>2024-01-30T08:40:41.000Z</time>
      </trkpt>
      <trkpt lat="44.29737" lon="3.32781">
        <ele>756.40002441406</ele>
        <time>2024-01-30T08:40:42.000Z</time>
      </trkpt>
      <trkpt lat="44.29744" lon="3.32785">
        <ele>757.20001220703</ele>
        <time>2024-01-30T08:40:43.000Z</time>
      </trkpt>
      <trkpt lat="44.29748" lon="3.32792">
        <ele>758.20001220703</ele>
        <time>2024-01-30T08:40:44.000Z</time>
      </trkpt>
      <trkpt lat="44.29752" lon="3.32801">
        <ele>759.40002441406</ele>
        <time>2024-01-30T08:40:45.000Z</time>
      </trkpt>
      <trkpt lat="44.2976" lon="3.32823">
        <ele>761</ele>
        <time>2024-01-30T08:40:47.000Z</time>
      </trkpt>
      <trkpt lat="44.29765" lon="3.32829">
        <ele>762</ele>
        <time>2024-01-30T08:40:48.000Z</time>
      </trkpt>
      <trkpt lat="44.29772" lon="3.32836">
        <ele>762.40002441406</ele>
        <time>2024-01-30T08:40:49.000Z</time>
      </trkpt>
      <trkpt lat="44.29781" lon="3.32841">
        <ele>764</ele>
        <time>2024-01-30T08:40:50.000Z</time>
      </trkpt>
      <trkpt lat="44.29791" lon="3.32848">
        <ele>765</ele>
        <time>2024-01-30T08:40:51.000Z</time>
      </trkpt>
      <trkpt lat="44.298" lon="3.32854">
        <ele>766</ele>
        <time>2024-01-30T08:40:52.000Z</time>
      </trkpt>
      <trkpt lat="44.29818" lon="3.32869">
        <ele>768</ele>
        <time>2024-01-30T08:40:54.000Z</time>
      </trkpt>
      <trkpt lat="44.29827" lon="3.32877">
        <ele>769</ele>
        <time>2024-01-30T08:40:55.000Z</time>
      </trkpt>
      <trkpt lat="44.29834" lon="3.32885">
        <ele>770.20001220703</ele>
        <time>2024-01-30T08:40:56.000Z</time>
      </trkpt>
      <trkpt lat="44.29847" lon="3.32899">
        <ele>772.20001220703</ele>
        <time>2024-01-30T08:40:58.000Z</time>
      </trkpt>
      <trkpt lat="44.29856" lon="3.32904">
        <ele>773.40002441406</ele>
        <time>2024-01-30T08:40:59.000Z</time>
      </trkpt>
      <trkpt lat="44.29867" lon="3.32906">
        <ele>774.59997558594</ele>
        <time>2024-01-30T08:41:00.000Z</time>
      </trkpt>
      <trkpt lat="44.29879" lon="3.32906">
        <ele>776</ele>
        <time>2024-01-30T08:41:01.000Z</time>
      </trkpt>
      <trkpt lat="44.2989" lon="3.32905">
        <ele>776.79998779297</ele>
        <time>2024-01-30T08:41:02.000Z</time>
      </trkpt>
      <trkpt lat="44.29901" lon="3.32903">
        <ele>778.40002441406</ele>
        <time>2024-01-30T08:41:03.000Z</time>
      </trkpt>
      <trkpt lat="44.29921" lon="3.32902">
        <ele>780.20001220703</ele>
        <time>2024-01-30T08:41:05.000Z</time>
      </trkpt>
      <trkpt lat="44.29938" lon="3.32904">
        <ele>781.40002441406</ele>
        <time>2024-01-30T08:41:07.000Z</time>
      </trkpt>
      <trkpt lat="44.29952" lon="3.32909">
        <ele>782.59997558594</ele>
        <time>2024-01-30T08:41:09.000Z</time>
      </trkpt>
      <trkpt lat="44.29956" lon="3.3291">
        <ele>783.20001220703</ele>
        <time>2024-01-30T08:41:10.000Z</time>
      </trkpt>
      <trkpt lat="44.29958" lon="3.32916">
        <ele>783.79998779297</ele>
        <time>2024-01-30T08:41:11.000Z</time>
      </trkpt>
      <trkpt lat="44.29964" lon="3.32931">
        <ele>784.79998779297</ele>
        <time>2024-01-30T08:41:13.000Z</time>
      </trkpt>
      <trkpt lat="44.29965" lon="3.32942">
        <ele>785.79998779297</ele>
        <time>2024-01-30T08:41:14.000Z</time>
      </trkpt>
      <trkpt lat="44.29964" lon="3.32964">
        <ele>787.40002441406</ele>
        <time>2024-01-30T08:41:16.000Z</time>
      </trkpt>
      <trkpt lat="44.29961" lon="3.32987">
        <ele>789.20001220703</ele>
        <time>2024-01-30T08:41:18.000Z</time>
      </trkpt>
      <trkpt lat="44.29956" lon="3.33012">
        <ele>790.79998779297</ele>
        <time>2024-01-30T08:41:20.000Z</time>
      </trkpt>
      <trkpt lat="44.29953" lon="3.33024">
        <ele>791.79998779297</ele>
        <time>2024-01-30T08:41:21.000Z</time>
      </trkpt>
      <trkpt lat="44.2995" lon="3.33035">
        <ele>792.20001220703</ele>
        <time>2024-01-30T08:41:22.000Z</time>
      </trkpt>
      <trkpt lat="44.29947" lon="3.33046">
        <ele>793.59997558594</ele>
        <time>2024-01-30T08:41:23.000Z</time>
      </trkpt>
      <trkpt lat="44.29946" lon="3.33058">
        <ele>794.40002441406</ele>
        <time>2024-01-30T08:41:24.000Z</time>
      </trkpt>
      <trkpt lat="44.29946" lon="3.33071">
        <ele>795.40002441406</ele>
        <time>2024-01-30T08:41:25.000Z</time>
      </trkpt>
      <trkpt lat="44.29947" lon="3.33084">
        <ele>797</ele>
        <time>2024-01-30T08:41:26.000Z</time>
      </trkpt>
      <trkpt lat="44.29949" lon="3.33112">
        <ele>799</ele>
        <time>2024-01-30T08:41:28.000Z</time>
      </trkpt>
      <trkpt lat="44.2995" lon="3.33126">
        <ele>799.59997558594</ele>
        <time>2024-01-30T08:41:29.000Z</time>
      </trkpt>
      <trkpt lat="44.2995" lon="3.33141">
        <ele>801.40002441406</ele>
        <time>2024-01-30T08:41:30.000Z</time>
      </trkpt>
      <trkpt lat="44.29951" lon="3.33157">
        <ele>802.59997558594</ele>
        <time>2024-01-30T08:41:31.000Z</time>
      </trkpt>
      <trkpt lat="44.29954" lon="3.33189">
        <ele>804.40002441406</ele>
        <time>2024-01-30T08:41:33.000Z</time>
      </trkpt>
      <trkpt lat="44.29955" lon="3.33204">
        <ele>806</ele>
        <time>2024-01-30T08:41:34.000Z</time>
      </trkpt>
      <trkpt lat="44.29957" lon="3.3322">
        <ele>807</ele>
        <time>2024-01-30T08:41:35.000Z</time>
      </trkpt>
      <trkpt lat="44.29959" lon="3.33236">
        <ele>808.20001220703</ele>
        <time>2024-01-30T08:41:36.000Z</time>
      </trkpt>
      <trkpt lat="44.29961" lon="3.3325">
        <ele>809.20001220703</ele>
        <time>2024-01-30T08:41:37.000Z</time>
      </trkpt>
      <trkpt lat="44.29964" lon="3.33276">
        <ele>811</ele>
        <time>2024-01-30T08:41:39.000Z</time>
      </trkpt>
      <trkpt lat="44.29961" lon="3.33301">
        <ele>812.79998779297</ele>
        <time>2024-01-30T08:41:41.000Z</time>
      </trkpt>
      <trkpt lat="44.29957" lon="3.33311">
        <ele>813.79998779297</ele>
        <time>2024-01-30T08:41:42.000Z</time>
      </trkpt>
      <trkpt lat="44.29951" lon="3.33328">
        <ele>815.40002441406</ele>
        <time>2024-01-30T08:41:44.000Z</time>
      </trkpt>
      <trkpt lat="44.29947" lon="3.3334">
        <ele>816.20001220703</ele>
        <time>2024-01-30T08:41:46.000Z</time>
      </trkpt>
      <trkpt lat="44.29945" lon="3.33347">
        <ele>816.40002441406</ele>
        <time>2024-01-30T08:41:49.000Z</time>
      </trkpt>
      <trkpt lat="44.29943" lon="3.33352">
        <ele>817.20001220703</ele>
        <time>2024-01-30T08:41:54.000Z</time>
      </trkpt>
      <trkpt lat="44.29935" lon="3.33371">
        <ele>817.59997558594</ele>
        <time>2024-01-30T08:41:59.000Z</time>
      </trkpt>
      <trkpt lat="44.2992" lon="3.33407">
        <ele>817.59997558594</ele>
        <time>2024-01-30T08:42:08.000Z</time>
      </trkpt>
      <trkpt lat="44.2991" lon="3.33427">
        <ele>817</ele>
        <time>2024-01-30T08:42:14.000Z</time>
      </trkpt>
      <trkpt lat="44.29909" lon="3.33429">
        <ele>816.79998779297</ele>
        <time>2024-01-30T08:42:18.000Z</time>
      </trkpt>
      <trkpt lat="44.29909" lon="3.33429">
        <ele>816.59997558594</ele>
        <time>2024-01-30T08:42:29.000Z</time>
      </trkpt>
      <trkpt lat="44.29909" lon="3.33429">
        <ele>816.59997558594</ele>
        <time>2024-01-30T08:42:38.000Z</time>
      </trkpt>
      <trkpt lat="44.29909" lon="3.33429">
        <ele>816.59997558594</ele>
        <time>2024-01-30T08:42:52.000Z</time>
      </trkpt>
      <trkpt lat="44.29909" lon="3.33429">
        <ele>816.40002441406</ele>
        <time>2024-01-30T08:42:59.000Z</time>
      </trkpt>
      <trkpt lat="44.29909" lon="3.33429">
        <ele>816</ele>
        <time>2024-01-30T08:43:41.000Z</time>
      </trkpt>
      <trkpt lat="44.29909" lon="3.33429">
        <ele>815.79998779297</ele>
        <time>2024-01-30T08:44:07.000Z</time>
      </trkpt>
      <trkpt lat="44.29909" lon="3.33429">
        <ele>815.59997558594</ele>
        <time>2024-01-30T08:44:26.000Z</time>
      </trkpt>
      <trkpt lat="44.29909" lon="3.33429">
        <ele>815.59997558594</ele>
        <time>2024-01-30T08:44:34.000Z</time>
      </trkpt>
      <trkpt lat="44.29909" lon="3.33429">
        <ele>815.20001220703</ele>
        <time>2024-01-30T08:45:01.000Z</time>
      </trkpt>
      <trkpt lat="44.29909" lon="3.33429">
        <ele>814.79998779297</ele>
        <time>2024-01-30T08:45:14.000Z</time>
      </trkpt>
      <trkpt lat="44.29909" lon="3.33429">
        <ele>814.59997558594</ele>
        <time>2024-01-30T08:45:43.000Z</time>
      </trkpt>
      <trkpt lat="44.29909" lon="3.33429">
        <ele>814.59997558594</ele>
        <time>2024-01-30T08:45:45.000Z</time>
      </trkpt>
      <trkpt lat="44.29909" lon="3.33429">
        <ele>814.40002441406</ele>
        <time>2024-01-30T08:46:04.000Z</time>
      </trkpt>
      <trkpt lat="44.29909" lon="3.33429">
        <ele>814.40002441406</ele>
        <time>2024-01-30T08:46:09.000Z</time>
      </trkpt>
      <trkpt lat="44.29904" lon="3.33438">
        <ele>814.40002441406</ele>
        <time>2024-01-30T08:46:29.000Z</time>
      </trkpt>
      <trkpt lat="44.29898" lon="3.33453">
        <ele>814.20001220703</ele>
        <time>2024-01-30T08:46:32.000Z</time>
      </trkpt>
      <trkpt lat="44.29895" lon="3.33459">
        <ele>814</ele>
        <time>2024-01-30T08:46:33.000Z</time>
      </trkpt>
      <trkpt lat="44.29882" lon="3.33488">
        <ele>813.20001220703</ele>
        <time>2024-01-30T08:46:36.000Z</time>
      </trkpt>
      <trkpt lat="44.29878" lon="3.33499">
        <ele>813.20001220703</ele>
        <time>2024-01-30T08:46:37.000Z</time>
      </trkpt>
      <trkpt lat="44.29853" lon="3.33551">
        <ele>812.40002441406</ele>
        <time>2024-01-30T08:46:41.000Z</time>
      </trkpt>
      <trkpt lat="44.29845" lon="3.33565">
        <ele>812</ele>
        <time>2024-01-30T08:46:42.000Z</time>
      </trkpt>
      <trkpt lat="44.29807" lon="3.33624">
        <ele>811.40002441406</ele>
        <time>2024-01-30T08:46:46.000Z</time>
      </trkpt>
      <trkpt lat="44.29767" lon="3.33687">
        <ele>811</ele>
        <time>2024-01-30T08:46:50.000Z</time>
      </trkpt>
      <trkpt lat="44.29737" lon="3.33734">
        <ele>810.79998779297</ele>
        <time>2024-01-30T08:46:53.000Z</time>
      </trkpt>
      <trkpt lat="44.29697" lon="3.33797">
        <ele>810.59997558594</ele>
        <time>2024-01-30T08:46:57.000Z</time>
      </trkpt>
      <trkpt lat="44.29657" lon="3.33859">
        <ele>810.40002441406</ele>
        <time>2024-01-30T08:47:01.000Z</time>
      </trkpt>
      <trkpt lat="44.29618" lon="3.33922">
        <ele>810.59997558594</ele>
        <time>2024-01-30T08:47:05.000Z</time>
      </trkpt>
      <trkpt lat="44.29579" lon="3.33983">
        <ele>810.40002441406</ele>
        <time>2024-01-30T08:47:09.000Z</time>
      </trkpt>
      <trkpt lat="44.2957" lon="3.33997">
        <ele>810.20001220703</ele>
        <time>2024-01-30T08:47:10.000Z</time>
      </trkpt>
      <trkpt lat="44.29552" lon="3.34024">
        <ele>810</ele>
        <time>2024-01-30T08:47:12.000Z</time>
      </trkpt>
      <trkpt lat="44.29533" lon="3.34048">
        <ele>810</ele>
        <time>2024-01-30T08:47:14.000Z</time>
      </trkpt>
      <trkpt lat="44.29523" lon="3.34058">
        <ele>810</ele>
        <time>2024-01-30T08:47:15.000Z</time>
      </trkpt>
      <trkpt lat="44.29512" lon="3.34066">
        <ele>810</ele>
        <time>2024-01-30T08:47:16.000Z</time>
      </trkpt>
      <trkpt lat="44.29477" lon="3.34085">
        <ele>810.79998779297</ele>
        <time>2024-01-30T08:47:19.000Z</time>
      </trkpt>
      <trkpt lat="44.29468" lon="3.34091">
        <ele>811.40002441406</ele>
        <time>2024-01-30T08:47:20.000Z</time>
      </trkpt>
      <trkpt lat="44.29415" lon="3.34124">
        <ele>812.20001220703</ele>
        <time>2024-01-30T08:47:25.000Z</time>
      </trkpt>
      <trkpt lat="44.29406" lon="3.3413">
        <ele>812.20001220703</ele>
        <time>2024-01-30T08:47:26.000Z</time>
      </trkpt>
      <trkpt lat="44.29384" lon="3.34143">
        <ele>812</ele>
        <time>2024-01-30T08:47:29.000Z</time>
      </trkpt>
      <trkpt lat="44.29374" lon="3.34148">
        <ele>812</ele>
        <time>2024-01-30T08:47:32.000Z</time>
      </trkpt>
      <trkpt lat="44.29366" lon="3.34166">
        <ele>812.20001220703</ele>
        <time>2024-01-30T08:47:36.000Z</time>
      </trkpt>
      <trkpt lat="44.29365" lon="3.3417">
        <ele>812.20001220703</ele>
        <time>2024-01-30T08:47:37.000Z</time>
      </trkpt>
      <trkpt lat="44.29362" lon="3.34176">
        <ele>811.59997558594</ele>
        <time>2024-01-30T08:47:40.000Z</time>
      </trkpt>
      <trkpt lat="44.29362" lon="3.34176">
        <ele>811.40002441406</ele>
        <time>2024-01-30T08:47:44.000Z</time>
      </trkpt>
      <trkpt lat="44.29363" lon="3.34174">
        <ele>811.40002441406</ele>
        <time>2024-01-30T08:47:51.000Z</time>
      </trkpt>
      <trkpt lat="44.29365" lon="3.34171">
        <ele>811.40002441406</ele>
        <time>2024-01-30T08:47:53.000Z</time>
      </trkpt>
      <trkpt lat="44.29372" lon="3.34156">
        <ele>811.79998779297</ele>
        <time>2024-01-30T08:48:00.000Z</time>
      </trkpt>
      <trkpt lat="44.29376" lon="3.34151">
        <ele>812</ele>
        <time>2024-01-30T08:48:06.000Z</time>
      </trkpt>
      <trkpt lat="44.29376" lon="3.34151">
        <ele>812</ele>
        <time>2024-01-30T08:48:19.000Z</time>
      </trkpt>
      <trkpt lat="44.29376" lon="3.34151">
        <ele>812</ele>
        <time>2024-01-30T08:48:38.000Z</time>
      </trkpt>
      <trkpt lat="44.29376" lon="3.34151">
        <ele>812</ele>
        <time>2024-01-30T08:48:52.000Z</time>
      </trkpt>
      <trkpt lat="44.29376" lon="3.34151">
        <ele>812</ele>
        <time>2024-01-30T08:49:05.000Z</time>
      </trkpt>
      <trkpt lat="44.29376" lon="3.34151">
        <ele>812</ele>
        <time>2024-01-30T08:49:20.000Z</time>
      </trkpt>
      <trkpt lat="44.29375" lon="3.34154">
        <ele>811.79998779297</ele>
        <time>2024-01-30T08:49:35.000Z</time>
      </trkpt>
      <trkpt lat="44.29365" lon="3.3417">
        <ele>811.79998779297</ele>
        <time>2024-01-30T08:49:39.000Z</time>
      </trkpt>
      <trkpt lat="44.29352" lon="3.34205">
        <ele>811.40002441406</ele>
        <time>2024-01-30T08:49:43.000Z</time>
      </trkpt>
      <trkpt lat="44.29333" lon="3.3426">
        <ele>810.20001220703</ele>
        <time>2024-01-30T08:49:47.000Z</time>
      </trkpt>
      <trkpt lat="44.29317" lon="3.34307">
        <ele>808.20001220703</ele>
        <time>2024-01-30T08:49:50.000Z</time>
      </trkpt>
      <trkpt lat="44.29303" lon="3.34335">
        <ele>807.20001220703</ele>
        <time>2024-01-30T08:49:52.000Z</time>
      </trkpt>
      <trkpt lat="44.29264" lon="3.344">
        <ele>806.40002441406</ele>
        <time>2024-01-30T08:49:57.000Z</time>
      </trkpt>
      <trkpt lat="44.2925" lon="3.34423">
        <ele>806.20001220703</ele>
        <time>2024-01-30T08:49:59.000Z</time>
      </trkpt>
      <trkpt lat="44.29216" lon="3.34482">
        <ele>806.59997558594</ele>
        <time>2024-01-30T08:50:04.000Z</time>
      </trkpt>
      <trkpt lat="44.29177" lon="3.34546">
        <ele>806.79998779297</ele>
        <time>2024-01-30T08:50:09.000Z</time>
      </trkpt>
      <trkpt lat="44.29168" lon="3.34559">
        <ele>806.79998779297</ele>
        <time>2024-01-30T08:50:10.000Z</time>
      </trkpt>
      <trkpt lat="44.2913" lon="3.34614">
        <ele>807.20001220703</ele>
        <time>2024-01-30T08:50:14.000Z</time>
      </trkpt>
      <trkpt lat="44.2911" lon="3.34643">
        <ele>807.59997558594</ele>
        <time>2024-01-30T08:50:16.000Z</time>
      </trkpt>
      <trkpt lat="44.2908" lon="3.34688">
        <ele>808.20001220703</ele>
        <time>2024-01-30T08:50:19.000Z</time>
      </trkpt>
      <trkpt lat="44.29039" lon="3.34748">
        <ele>808.79998779297</ele>
        <time>2024-01-30T08:50:23.000Z</time>
      </trkpt>
      <trkpt lat="44.28999" lon="3.34806">
        <ele>808.79998779297</ele>
        <time>2024-01-30T08:50:27.000Z</time>
      </trkpt>
      <trkpt lat="44.28972" lon="3.34844">
        <ele>808.79998779297</ele>
        <time>2024-01-30T08:50:30.000Z</time>
      </trkpt>
      <trkpt lat="44.2896" lon="3.34869">
        <ele>809</ele>
        <time>2024-01-30T08:50:32.000Z</time>
      </trkpt>
      <trkpt lat="44.28955" lon="3.34883">
        <ele>809.20001220703</ele>
        <time>2024-01-30T08:50:33.000Z</time>
      </trkpt>
      <trkpt lat="44.28932" lon="3.3496">
        <ele>810.20001220703</ele>
        <time>2024-01-30T08:50:38.000Z</time>
      </trkpt>
      <trkpt lat="44.28927" lon="3.34976">
        <ele>810.20001220703</ele>
        <time>2024-01-30T08:50:39.000Z</time>
      </trkpt>
      <trkpt lat="44.28922" lon="3.34993">
        <ele>810.40002441406</ele>
        <time>2024-01-30T08:50:40.000Z</time>
      </trkpt>
      <trkpt lat="44.28915" lon="3.35028">
        <ele>810.79998779297</ele>
        <time>2024-01-30T08:50:42.000Z</time>
      </trkpt>
      <trkpt lat="44.28914" lon="3.35047">
        <ele>811</ele>
        <time>2024-01-30T08:50:43.000Z</time>
      </trkpt>
      <trkpt lat="44.28915" lon="3.35065">
        <ele>811</ele>
        <time>2024-01-30T08:50:44.000Z</time>
      </trkpt>
      <trkpt lat="44.28916" lon="3.35085">
        <ele>811.40002441406</ele>
        <time>2024-01-30T08:50:45.000Z</time>
      </trkpt>
      <trkpt lat="44.28918" lon="3.35106">
        <ele>811.40002441406</ele>
        <time>2024-01-30T08:50:46.000Z</time>
      </trkpt>
      <trkpt lat="44.28923" lon="3.35147">
        <ele>812.40002441406</ele>
        <time>2024-01-30T08:50:48.000Z</time>
      </trkpt>
      <trkpt lat="44.2893" lon="3.35213">
        <ele>812.79998779297</ele>
        <time>2024-01-30T08:50:51.000Z</time>
      </trkpt>
      <trkpt lat="44.28932" lon="3.35235">
        <ele>813</ele>
        <time>2024-01-30T08:50:52.000Z</time>
      </trkpt>
      <trkpt lat="44.28937" lon="3.3528">
        <ele>813.40002441406</ele>
        <time>2024-01-30T08:50:54.000Z</time>
      </trkpt>
      <trkpt lat="44.28947" lon="3.35371">
        <ele>813.79998779297</ele>
        <time>2024-01-30T08:50:58.000Z</time>
      </trkpt>
      <trkpt lat="44.28952" lon="3.35415">
        <ele>814</ele>
        <time>2024-01-30T08:51:00.000Z</time>
      </trkpt>
      <trkpt lat="44.28965" lon="3.35498">
        <ele>814.59997558594</ele>
        <time>2024-01-30T08:51:04.000Z</time>
      </trkpt>
      <trkpt lat="44.28983" lon="3.35577">
        <ele>815.20001220703</ele>
        <time>2024-01-30T08:51:08.000Z</time>
      </trkpt>
      <trkpt lat="44.28989" lon="3.35596">
        <ele>815.20001220703</ele>
        <time>2024-01-30T08:51:09.000Z</time>
      </trkpt>
      <trkpt lat="44.2901" lon="3.35653">
        <ele>815.79998779297</ele>
        <time>2024-01-30T08:51:12.000Z</time>
      </trkpt>
      <trkpt lat="44.2903" lon="3.35711">
        <ele>816.20001220703</ele>
        <time>2024-01-30T08:51:15.000Z</time>
      </trkpt>
      <trkpt lat="44.29052" lon="3.35772">
        <ele>816.79998779297</ele>
        <time>2024-01-30T08:51:18.000Z</time>
      </trkpt>
      <trkpt lat="44.29076" lon="3.35832">
        <ele>817</ele>
        <time>2024-01-30T08:51:21.000Z</time>
      </trkpt>
      <trkpt lat="44.29098" lon="3.35892">
        <ele>818</ele>
        <time>2024-01-30T08:51:24.000Z</time>
      </trkpt>
      <trkpt lat="44.29129" lon="3.35971">
        <ele>819</ele>
        <time>2024-01-30T08:51:28.000Z</time>
      </trkpt>
      <trkpt lat="44.29161" lon="3.3605">
        <ele>819</ele>
        <time>2024-01-30T08:51:32.000Z</time>
      </trkpt>
      <trkpt lat="44.29183" lon="3.3611">
        <ele>819</ele>
        <time>2024-01-30T08:51:35.000Z</time>
      </trkpt>
      <trkpt lat="44.29191" lon="3.3613">
        <ele>819.20001220703</ele>
        <time>2024-01-30T08:51:36.000Z</time>
      </trkpt>
      <trkpt lat="44.29219" lon="3.36206">
        <ele>819.40002441406</ele>
        <time>2024-01-30T08:51:40.000Z</time>
      </trkpt>
      <trkpt lat="44.29233" lon="3.36241">
        <ele>819.40002441406</ele>
        <time>2024-01-30T08:51:42.000Z</time>
      </trkpt>
      <trkpt lat="44.29249" lon="3.36283">
        <ele>819.59997558594</ele>
        <time>2024-01-30T08:51:45.000Z</time>
      </trkpt>
      <trkpt lat="44.2926" lon="3.3631">
        <ele>819.59997558594</ele>
        <time>2024-01-30T08:51:48.000Z</time>
      </trkpt>
      <trkpt lat="44.29262" lon="3.36321">
        <ele>819.79998779297</ele>
        <time>2024-01-30T08:51:51.000Z</time>
      </trkpt>
      <trkpt lat="44.29266" lon="3.36327">
        <ele>820.20001220703</ele>
        <time>2024-01-30T08:51:53.000Z</time>
      </trkpt>
      <trkpt lat="44.29269" lon="3.36329">
        <ele>820.20001220703</ele>
        <time>2024-01-30T08:51:54.000Z</time>
      </trkpt>
      <trkpt lat="44.29273" lon="3.3633">
        <ele>820.40002441406</ele>
        <time>2024-01-30T08:51:55.000Z</time>
      </trkpt>
      <trkpt lat="44.29279" lon="3.36332">
        <ele>820.40002441406</ele>
        <time>2024-01-30T08:51:56.000Z</time>
      </trkpt>
      <trkpt lat="44.29293" lon="3.36337">
        <ele>821.40002441406</ele>
        <time>2024-01-30T08:51:58.000Z</time>
      </trkpt>
      <trkpt lat="44.29302" lon="3.36341">
        <ele>821.40002441406</ele>
        <time>2024-01-30T08:51:59.000Z</time>
      </trkpt>
      <trkpt lat="44.29345" lon="3.36356">
        <ele>822.59997558594</ele>
        <time>2024-01-30T08:52:03.000Z</time>
      </trkpt>
      <trkpt lat="44.29389" lon="3.36374">
        <ele>824</ele>
        <time>2024-01-30T08:52:06.000Z</time>
      </trkpt>
      <trkpt lat="44.29421" lon="3.36386">
        <ele>825</ele>
        <time>2024-01-30T08:52:08.000Z</time>
      </trkpt>
      <trkpt lat="44.29474" lon="3.36407">
        <ele>826.59997558594</ele>
        <time>2024-01-30T08:52:11.000Z</time>
      </trkpt>
      <trkpt lat="44.29526" lon="3.36427">
        <ele>828.20001220703</ele>
        <time>2024-01-30T08:52:14.000Z</time>
      </trkpt>
      <trkpt lat="44.29561" lon="3.36441">
        <ele>829.40002441406</ele>
        <time>2024-01-30T08:52:16.000Z</time>
      </trkpt>
      <trkpt lat="44.29596" lon="3.36455">
        <ele>830.79998779297</ele>
        <time>2024-01-30T08:52:18.000Z</time>
      </trkpt>
      <trkpt lat="44.29632" lon="3.3647">
        <ele>832</ele>
        <time>2024-01-30T08:52:20.000Z</time>
      </trkpt>
      <trkpt lat="44.2965" lon="3.36477">
        <ele>832.40002441406</ele>
        <time>2024-01-30T08:52:21.000Z</time>
      </trkpt>
      <trkpt lat="44.29686" lon="3.36492">
        <ele>833</ele>
        <time>2024-01-30T08:52:23.000Z</time>
      </trkpt>
      <trkpt lat="44.29741" lon="3.36514">
        <ele>833.20001220703</ele>
        <time>2024-01-30T08:52:26.000Z</time>
      </trkpt>
      <trkpt lat="44.2978" lon="3.3653">
        <ele>833</ele>
        <time>2024-01-30T08:52:28.000Z</time>
      </trkpt>
      <trkpt lat="44.29821" lon="3.36546">
        <ele>832.20001220703</ele>
        <time>2024-01-30T08:52:30.000Z</time>
      </trkpt>
      <trkpt lat="44.29842" lon="3.36555">
        <ele>831.79998779297</ele>
        <time>2024-01-30T08:52:31.000Z</time>
      </trkpt>
      <trkpt lat="44.29904" lon="3.36581">
        <ele>830.20001220703</ele>
        <time>2024-01-30T08:52:34.000Z</time>
      </trkpt>
      <trkpt lat="44.29966" lon="3.36606">
        <ele>829.20001220703</ele>
        <time>2024-01-30T08:52:37.000Z</time>
      </trkpt>
      <trkpt lat="44.30026" lon="3.36631">
        <ele>829</ele>
        <time>2024-01-30T08:52:40.000Z</time>
      </trkpt>
      <trkpt lat="44.30087" lon="3.36656">
        <ele>829.40002441406</ele>
        <time>2024-01-30T08:52:43.000Z</time>
      </trkpt>
      <trkpt lat="44.30147" lon="3.3668">
        <ele>829.40002441406</ele>
        <time>2024-01-30T08:52:46.000Z</time>
      </trkpt>
      <trkpt lat="44.30205" lon="3.36704">
        <ele>829.40002441406</ele>
        <time>2024-01-30T08:52:49.000Z</time>
      </trkpt>
      <trkpt lat="44.30242" lon="3.36721">
        <ele>829.20001220703</ele>
        <time>2024-01-30T08:52:51.000Z</time>
      </trkpt>
      <trkpt lat="44.30297" lon="3.36758">
        <ele>829</ele>
        <time>2024-01-30T08:52:54.000Z</time>
      </trkpt>
      <trkpt lat="44.30348" lon="3.36808">
        <ele>829</ele>
        <time>2024-01-30T08:52:57.000Z</time>
      </trkpt>
      <trkpt lat="44.30365" lon="3.36824">
        <ele>829</ele>
        <time>2024-01-30T08:52:58.000Z</time>
      </trkpt>
      <trkpt lat="44.30415" lon="3.36877">
        <ele>830</ele>
        <time>2024-01-30T08:53:01.000Z</time>
      </trkpt>
      <trkpt lat="44.30451" lon="3.36912">
        <ele>830.20001220703</ele>
        <time>2024-01-30T08:53:03.000Z</time>
      </trkpt>
      <trkpt lat="44.30487" lon="3.36948">
        <ele>830.40002441406</ele>
        <time>2024-01-30T08:53:05.000Z</time>
      </trkpt>
      <trkpt lat="44.30541" lon="3.37001">
        <ele>830.79998779297</ele>
        <time>2024-01-30T08:53:08.000Z</time>
      </trkpt>
      <trkpt lat="44.30594" lon="3.37055">
        <ele>831.20001220703</ele>
        <time>2024-01-30T08:53:11.000Z</time>
      </trkpt>
      <trkpt lat="44.30612" lon="3.37073">
        <ele>831.40002441406</ele>
        <time>2024-01-30T08:53:12.000Z</time>
      </trkpt>
      <trkpt lat="44.3063" lon="3.37091">
        <ele>831.40002441406</ele>
        <time>2024-01-30T08:53:13.000Z</time>
      </trkpt>
      <trkpt lat="44.30684" lon="3.37144">
        <ele>832.59997558594</ele>
        <time>2024-01-30T08:53:16.000Z</time>
      </trkpt>
      <trkpt lat="44.30738" lon="3.37197">
        <ele>833.59997558594</ele>
        <time>2024-01-30T08:53:19.000Z</time>
      </trkpt>
      <trkpt lat="44.30774" lon="3.37233">
        <ele>835.20001220703</ele>
        <time>2024-01-30T08:53:21.000Z</time>
      </trkpt>
      <trkpt lat="44.30809" lon="3.37267">
        <ele>836.59997558594</ele>
        <time>2024-01-30T08:53:23.000Z</time>
      </trkpt>
      <trkpt lat="44.30826" lon="3.37284">
        <ele>837.20001220703</ele>
        <time>2024-01-30T08:53:24.000Z</time>
      </trkpt>
      <trkpt lat="44.30844" lon="3.37301">
        <ele>838</ele>
        <time>2024-01-30T08:53:25.000Z</time>
      </trkpt>
      <trkpt lat="44.30877" lon="3.37334">
        <ele>839.20001220703</ele>
        <time>2024-01-30T08:53:27.000Z</time>
      </trkpt>
      <trkpt lat="44.30925" lon="3.37382">
        <ele>839.59997558594</ele>
        <time>2024-01-30T08:53:30.000Z</time>
      </trkpt>
      <trkpt lat="44.3094" lon="3.37397">
        <ele>839.79998779297</ele>
        <time>2024-01-30T08:53:31.000Z</time>
      </trkpt>
      <trkpt lat="44.30985" lon="3.37441">
        <ele>839.79998779297</ele>
        <time>2024-01-30T08:53:34.000Z</time>
      </trkpt>
      <trkpt lat="44.31029" lon="3.37484">
        <ele>839.59997558594</ele>
        <time>2024-01-30T08:53:37.000Z</time>
      </trkpt>
      <trkpt lat="44.31066" lon="3.37522">
        <ele>839.20001220703</ele>
        <time>2024-01-30T08:53:40.000Z</time>
      </trkpt>
      <trkpt lat="44.31099" lon="3.37553">
        <ele>839.20001220703</ele>
        <time>2024-01-30T08:53:43.000Z</time>
      </trkpt>
      <trkpt lat="44.31132" lon="3.37585">
        <ele>840.40002441406</ele>
        <time>2024-01-30T08:53:46.000Z</time>
      </trkpt>
      <trkpt lat="44.31154" lon="3.37607">
        <ele>841.79998779297</ele>
        <time>2024-01-30T08:53:48.000Z</time>
      </trkpt>
      <trkpt lat="44.31178" lon="3.37631">
        <ele>843.20001220703</ele>
        <time>2024-01-30T08:53:50.000Z</time>
      </trkpt>
      <trkpt lat="44.31203" lon="3.37655">
        <ele>844.59997558594</ele>
        <time>2024-01-30T08:53:52.000Z</time>
      </trkpt>
      <trkpt lat="44.31215" lon="3.37668">
        <ele>845.59997558594</ele>
        <time>2024-01-30T08:53:53.000Z</time>
      </trkpt>
      <trkpt lat="44.31228" lon="3.3768">
        <ele>846.59997558594</ele>
        <time>2024-01-30T08:53:54.000Z</time>
      </trkpt>
      <trkpt lat="44.31254" lon="3.37705">
        <ele>848</ele>
        <time>2024-01-30T08:53:56.000Z</time>
      </trkpt>
      <trkpt lat="44.31267" lon="3.37717">
        <ele>849.20001220703</ele>
        <time>2024-01-30T08:53:57.000Z</time>
      </trkpt>
      <trkpt lat="44.31294" lon="3.3774">
        <ele>851</ele>
        <time>2024-01-30T08:53:59.000Z</time>
      </trkpt>
      <trkpt lat="44.31309" lon="3.37749">
        <ele>852.20001220703</ele>
        <time>2024-01-30T08:54:00.000Z</time>
      </trkpt>
      <trkpt lat="44.31337" lon="3.37768">
        <ele>854</ele>
        <time>2024-01-30T08:54:02.000Z</time>
      </trkpt>
      <trkpt lat="44.3135" lon="3.37779">
        <ele>854.79998779297</ele>
        <time>2024-01-30T08:54:03.000Z</time>
      </trkpt>
      <trkpt lat="44.31361" lon="3.37793">
        <ele>855.79998779297</ele>
        <time>2024-01-30T08:54:04.000Z</time>
      </trkpt>
      <trkpt lat="44.31372" lon="3.37808">
        <ele>857</ele>
        <time>2024-01-30T08:54:05.000Z</time>
      </trkpt>
      <trkpt lat="44.3139" lon="3.37841">
        <ele>858.79998779297</ele>
        <time>2024-01-30T08:54:07.000Z</time>
      </trkpt>
      <trkpt lat="44.31414" lon="3.37885">
        <ele>860.40002441406</ele>
        <time>2024-01-30T08:54:10.000Z</time>
      </trkpt>
      <trkpt lat="44.31422" lon="3.37897">
        <ele>861</ele>
        <time>2024-01-30T08:54:11.000Z</time>
      </trkpt>
      <trkpt lat="44.31431" lon="3.37905">
        <ele>861.40002441406</ele>
        <time>2024-01-30T08:54:12.000Z</time>
      </trkpt>
      <trkpt lat="44.3144" lon="3.3791">
        <ele>861.79998779297</ele>
        <time>2024-01-30T08:54:13.000Z</time>
      </trkpt>
      <trkpt lat="44.31459" lon="3.37912">
        <ele>863</ele>
        <time>2024-01-30T08:54:15.000Z</time>
      </trkpt>
      <trkpt lat="44.3147" lon="3.3791">
        <ele>863.79998779297</ele>
        <time>2024-01-30T08:54:16.000Z</time>
      </trkpt>
      <trkpt lat="44.31482" lon="3.37909">
        <ele>864.59997558594</ele>
        <time>2024-01-30T08:54:17.000Z</time>
      </trkpt>
      <trkpt lat="44.31493" lon="3.3791">
        <ele>865.20001220703</ele>
        <time>2024-01-30T08:54:18.000Z</time>
      </trkpt>
      <trkpt lat="44.31504" lon="3.37913">
        <ele>865.79998779297</ele>
        <time>2024-01-30T08:54:19.000Z</time>
      </trkpt>
      <trkpt lat="44.31515" lon="3.37918">
        <ele>866.59997558594</ele>
        <time>2024-01-30T08:54:20.000Z</time>
      </trkpt>
      <trkpt lat="44.31524" lon="3.37928">
        <ele>867.59997558594</ele>
        <time>2024-01-30T08:54:21.000Z</time>
      </trkpt>
      <trkpt lat="44.3154" lon="3.37953">
        <ele>869.59997558594</ele>
        <time>2024-01-30T08:54:23.000Z</time>
      </trkpt>
      <trkpt lat="44.31556" lon="3.37977">
        <ele>870.79998779297</ele>
        <time>2024-01-30T08:54:25.000Z</time>
      </trkpt>
      <trkpt lat="44.31577" lon="3.37991">
        <ele>871.79998779297</ele>
        <time>2024-01-30T08:54:27.000Z</time>
      </trkpt>
      <trkpt lat="44.31588" lon="3.37993">
        <ele>872.40002441406</ele>
        <time>2024-01-30T08:54:28.000Z</time>
      </trkpt>
      <trkpt lat="44.316" lon="3.37991">
        <ele>873</ele>
        <time>2024-01-30T08:54:29.000Z</time>
      </trkpt>
      <trkpt lat="44.31611" lon="3.37986">
        <ele>874</ele>
        <time>2024-01-30T08:54:30.000Z</time>
      </trkpt>
      <trkpt lat="44.31635" lon="3.37971">
        <ele>876</ele>
        <time>2024-01-30T08:54:32.000Z</time>
      </trkpt>
      <trkpt lat="44.3166" lon="3.37962">
        <ele>877</ele>
        <time>2024-01-30T08:54:34.000Z</time>
      </trkpt>
      <trkpt lat="44.31673" lon="3.3796">
        <ele>878.40002441406</ele>
        <time>2024-01-30T08:54:35.000Z</time>
      </trkpt>
      <trkpt lat="44.31686" lon="3.37961">
        <ele>879.20001220703</ele>
        <time>2024-01-30T08:54:36.000Z</time>
      </trkpt>
      <trkpt lat="44.31699" lon="3.37964">
        <ele>880.40002441406</ele>
        <time>2024-01-30T08:54:37.000Z</time>
      </trkpt>
      <trkpt lat="44.31713" lon="3.3797">
        <ele>881.40002441406</ele>
        <time>2024-01-30T08:54:38.000Z</time>
      </trkpt>
      <trkpt lat="44.31742" lon="3.37985">
        <ele>883.40002441406</ele>
        <time>2024-01-30T08:54:40.000Z</time>
      </trkpt>
      <trkpt lat="44.31774" lon="3.37998">
        <ele>885.40002441406</ele>
        <time>2024-01-30T08:54:42.000Z</time>
      </trkpt>
      <trkpt lat="44.31791" lon="3.38003">
        <ele>886.40002441406</ele>
        <time>2024-01-30T08:54:43.000Z</time>
      </trkpt>
      <trkpt lat="44.31826" lon="3.38008">
        <ele>888.79998779297</ele>
        <time>2024-01-30T08:54:45.000Z</time>
      </trkpt>
      <trkpt lat="44.31843" lon="3.38009">
        <ele>889.40002441406</ele>
        <time>2024-01-30T08:54:46.000Z</time>
      </trkpt>
      <trkpt lat="44.31859" lon="3.38011">
        <ele>890.79998779297</ele>
        <time>2024-01-30T08:54:47.000Z</time>
      </trkpt>
      <trkpt lat="44.3189" lon="3.38019">
        <ele>892.40002441406</ele>
        <time>2024-01-30T08:54:49.000Z</time>
      </trkpt>
      <trkpt lat="44.31923" lon="3.38033">
        <ele>894.59997558594</ele>
        <time>2024-01-30T08:54:51.000Z</time>
      </trkpt>
      <trkpt lat="44.31939" lon="3.38039">
        <ele>896</ele>
        <time>2024-01-30T08:54:52.000Z</time>
      </trkpt>
      <trkpt lat="44.3197" lon="3.38055">
        <ele>898.20001220703</ele>
        <time>2024-01-30T08:54:54.000Z</time>
      </trkpt>
      <trkpt lat="44.32001" lon="3.38068">
        <ele>899.79998779297</ele>
        <time>2024-01-30T08:54:56.000Z</time>
      </trkpt>
      <trkpt lat="44.32017" lon="3.38074">
        <ele>900.79998779297</ele>
        <time>2024-01-30T08:54:57.000Z</time>
      </trkpt>
      <trkpt lat="44.32032" lon="3.38081">
        <ele>902</ele>
        <time>2024-01-30T08:54:58.000Z</time>
      </trkpt>
      <trkpt lat="44.3207" lon="3.38101">
        <ele>903</ele>
        <time>2024-01-30T08:55:01.000Z</time>
      </trkpt>
      <trkpt lat="44.32085" lon="3.38115">
        <ele>903</ele>
        <time>2024-01-30T08:55:03.000Z</time>
      </trkpt>
      <trkpt lat="44.32091" lon="3.38122">
        <ele>902.59997558594</ele>
        <time>2024-01-30T08:55:04.000Z</time>
      </trkpt>
      <trkpt lat="44.32107" lon="3.38142">
        <ele>902</ele>
        <time>2024-01-30T08:55:07.000Z</time>
      </trkpt>
      <trkpt lat="44.3212" lon="3.3816">
        <ele>901.20001220703</ele>
        <time>2024-01-30T08:55:09.000Z</time>
      </trkpt>
      <trkpt lat="44.32127" lon="3.38171">
        <ele>900.59997558594</ele>
        <time>2024-01-30T08:55:10.000Z</time>
      </trkpt>
      <trkpt lat="44.32139" lon="3.38195">
        <ele>899.40002441406</ele>
        <time>2024-01-30T08:55:12.000Z</time>
      </trkpt>
      <trkpt lat="44.32144" lon="3.38207">
        <ele>898.59997558594</ele>
        <time>2024-01-30T08:55:13.000Z</time>
      </trkpt>
      <trkpt lat="44.32149" lon="3.3822">
        <ele>898.20001220703</ele>
        <time>2024-01-30T08:55:14.000Z</time>
      </trkpt>
      <trkpt lat="44.32162" lon="3.38245">
        <ele>896.59997558594</ele>
        <time>2024-01-30T08:55:16.000Z</time>
      </trkpt>
      <trkpt lat="44.32171" lon="3.38256">
        <ele>895.79998779297</ele>
        <time>2024-01-30T08:55:17.000Z</time>
      </trkpt>
      <trkpt lat="44.32179" lon="3.38264">
        <ele>895</ele>
        <time>2024-01-30T08:55:18.000Z</time>
      </trkpt>
      <trkpt lat="44.32188" lon="3.38272">
        <ele>894.20001220703</ele>
        <time>2024-01-30T08:55:19.000Z</time>
      </trkpt>
      <trkpt lat="44.32198" lon="3.38278">
        <ele>893.79998779297</ele>
        <time>2024-01-30T08:55:20.000Z</time>
      </trkpt>
      <trkpt lat="44.32208" lon="3.38284">
        <ele>893</ele>
        <time>2024-01-30T08:55:21.000Z</time>
      </trkpt>
      <trkpt lat="44.3222" lon="3.3829">
        <ele>892</ele>
        <time>2024-01-30T08:55:22.000Z</time>
      </trkpt>
      <trkpt lat="44.32243" lon="3.38299">
        <ele>891</ele>
        <time>2024-01-30T08:55:24.000Z</time>
      </trkpt>
      <trkpt lat="44.32255" lon="3.38303">
        <ele>890.20001220703</ele>
        <time>2024-01-30T08:55:25.000Z</time>
      </trkpt>
      <trkpt lat="44.32267" lon="3.38306">
        <ele>889.40002441406</ele>
        <time>2024-01-30T08:55:26.000Z</time>
      </trkpt>
      <trkpt lat="44.32293" lon="3.38314">
        <ele>887.79998779297</ele>
        <time>2024-01-30T08:55:28.000Z</time>
      </trkpt>
      <trkpt lat="44.32319" lon="3.38322">
        <ele>886.20001220703</ele>
        <time>2024-01-30T08:55:30.000Z</time>
      </trkpt>
      <trkpt lat="44.32346" lon="3.38329">
        <ele>884.40002441406</ele>
        <time>2024-01-30T08:55:32.000Z</time>
      </trkpt>
      <trkpt lat="44.32373" lon="3.38339">
        <ele>882.59997558594</ele>
        <time>2024-01-30T08:55:34.000Z</time>
      </trkpt>
      <trkpt lat="44.324" lon="3.38351">
        <ele>880.79998779297</ele>
        <time>2024-01-30T08:55:36.000Z</time>
      </trkpt>
      <trkpt lat="44.32414" lon="3.38358">
        <ele>880.20001220703</ele>
        <time>2024-01-30T08:55:37.000Z</time>
      </trkpt>
      <trkpt lat="44.32427" lon="3.38364">
        <ele>879.20001220703</ele>
        <time>2024-01-30T08:55:38.000Z</time>
      </trkpt>
      <trkpt lat="44.3244" lon="3.38371">
        <ele>878.20001220703</ele>
        <time>2024-01-30T08:55:39.000Z</time>
      </trkpt>
      <trkpt lat="44.32452" lon="3.38378">
        <ele>877</ele>
        <time>2024-01-30T08:55:40.000Z</time>
      </trkpt>
      <trkpt lat="44.32477" lon="3.38394">
        <ele>875.20001220703</ele>
        <time>2024-01-30T08:55:42.000Z</time>
      </trkpt>
      <trkpt lat="44.32489" lon="3.38403">
        <ele>874.40002441406</ele>
        <time>2024-01-30T08:55:43.000Z</time>
      </trkpt>
      <trkpt lat="44.32502" lon="3.38412">
        <ele>873.40002441406</ele>
        <time>2024-01-30T08:55:44.000Z</time>
      </trkpt>
      <trkpt lat="44.32513" lon="3.38422">
        <ele>872.40002441406</ele>
        <time>2024-01-30T08:55:45.000Z</time>
      </trkpt>
      <trkpt lat="44.32537" lon="3.38442">
        <ele>870.79998779297</ele>
        <time>2024-01-30T08:55:47.000Z</time>
      </trkpt>
      <trkpt lat="44.32562" lon="3.38462">
        <ele>868.79998779297</ele>
        <time>2024-01-30T08:55:49.000Z</time>
      </trkpt>
      <trkpt lat="44.32574" lon="3.38471">
        <ele>867.79998779297</ele>
        <time>2024-01-30T08:55:50.000Z</time>
      </trkpt>
      <trkpt lat="44.32587" lon="3.3848">
        <ele>866.79998779297</ele>
        <time>2024-01-30T08:55:51.000Z</time>
      </trkpt>
      <trkpt lat="44.3261" lon="3.38499">
        <ele>864.79998779297</ele>
        <time>2024-01-30T08:55:53.000Z</time>
      </trkpt>
      <trkpt lat="44.32621" lon="3.3851">
        <ele>863.79998779297</ele>
        <time>2024-01-30T08:55:54.000Z</time>
      </trkpt>
      <trkpt lat="44.3263" lon="3.38521">
        <ele>862.79998779297</ele>
        <time>2024-01-30T08:55:55.000Z</time>
      </trkpt>
      <trkpt lat="44.32638" lon="3.38533">
        <ele>861.79998779297</ele>
        <time>2024-01-30T08:55:56.000Z</time>
      </trkpt>
      <trkpt lat="44.32645" lon="3.38543">
        <ele>861</ele>
        <time>2024-01-30T08:55:57.000Z</time>
      </trkpt>
      <trkpt lat="44.32653" lon="3.3855">
        <ele>860</ele>
        <time>2024-01-30T08:55:58.000Z</time>
      </trkpt>
      <trkpt lat="44.32663" lon="3.38555">
        <ele>859.20001220703</ele>
        <time>2024-01-30T08:55:59.000Z</time>
      </trkpt>
      <trkpt lat="44.32672" lon="3.38555">
        <ele>858.79998779297</ele>
        <time>2024-01-30T08:56:00.000Z</time>
      </trkpt>
      <trkpt lat="44.32683" lon="3.38553">
        <ele>858</ele>
        <time>2024-01-30T08:56:01.000Z</time>
      </trkpt>
      <trkpt lat="44.32694" lon="3.38551">
        <ele>857.59997558594</ele>
        <time>2024-01-30T08:56:02.000Z</time>
      </trkpt>
      <trkpt lat="44.32706" lon="3.3855">
        <ele>856.79998779297</ele>
        <time>2024-01-30T08:56:03.000Z</time>
      </trkpt>
      <trkpt lat="44.32718" lon="3.38551">
        <ele>856</ele>
        <time>2024-01-30T08:56:04.000Z</time>
      </trkpt>
      <trkpt lat="44.3273" lon="3.38554">
        <ele>855.20001220703</ele>
        <time>2024-01-30T08:56:05.000Z</time>
      </trkpt>
      <trkpt lat="44.32742" lon="3.38558">
        <ele>854.40002441406</ele>
        <time>2024-01-30T08:56:06.000Z</time>
      </trkpt>
      <trkpt lat="44.32767" lon="3.38564">
        <ele>852.79998779297</ele>
        <time>2024-01-30T08:56:08.000Z</time>
      </trkpt>
      <trkpt lat="44.32779" lon="3.38563">
        <ele>852.20001220703</ele>
        <time>2024-01-30T08:56:09.000Z</time>
      </trkpt>
      <trkpt lat="44.32792" lon="3.38559">
        <ele>851.40002441406</ele>
        <time>2024-01-30T08:56:10.000Z</time>
      </trkpt>
      <trkpt lat="44.32804" lon="3.38551">
        <ele>850.79998779297</ele>
        <time>2024-01-30T08:56:11.000Z</time>
      </trkpt>
      <trkpt lat="44.32815" lon="3.38539">
        <ele>849.79998779297</ele>
        <time>2024-01-30T08:56:12.000Z</time>
      </trkpt>
      <trkpt lat="44.32825" lon="3.38526">
        <ele>849</ele>
        <time>2024-01-30T08:56:13.000Z</time>
      </trkpt>
      <trkpt lat="44.32834" lon="3.38511">
        <ele>848</ele>
        <time>2024-01-30T08:56:14.000Z</time>
      </trkpt>
      <trkpt lat="44.32851" lon="3.38483">
        <ele>846.20001220703</ele>
        <time>2024-01-30T08:56:16.000Z</time>
      </trkpt>
      <trkpt lat="44.32861" lon="3.38471">
        <ele>845</ele>
        <time>2024-01-30T08:56:17.000Z</time>
      </trkpt>
      <trkpt lat="44.32871" lon="3.38461">
        <ele>844</ele>
        <time>2024-01-30T08:56:18.000Z</time>
      </trkpt>
      <trkpt lat="44.3288" lon="3.38452">
        <ele>842.59997558594</ele>
        <time>2024-01-30T08:56:19.000Z</time>
      </trkpt>
      <trkpt lat="44.3289" lon="3.38445">
        <ele>841.59997558594</ele>
        <time>2024-01-30T08:56:20.000Z</time>
      </trkpt>
      <trkpt lat="44.32907" lon="3.38435">
        <ele>839.79998779297</ele>
        <time>2024-01-30T08:56:22.000Z</time>
      </trkpt>
      <trkpt lat="44.32914" lon="3.38434">
        <ele>838.59997558594</ele>
        <time>2024-01-30T08:56:23.000Z</time>
      </trkpt>
      <trkpt lat="44.32919" lon="3.38434">
        <ele>838</ele>
        <time>2024-01-30T08:56:24.000Z</time>
      </trkpt>
      <trkpt lat="44.32924" lon="3.38436">
        <ele>837.40002441406</ele>
        <time>2024-01-30T08:56:25.000Z</time>
      </trkpt>
      <trkpt lat="44.32927" lon="3.38439">
        <ele>837</ele>
        <time>2024-01-30T08:56:26.000Z</time>
      </trkpt>
      <trkpt lat="44.32932" lon="3.38447">
        <ele>836.59997558594</ele>
        <time>2024-01-30T08:56:28.000Z</time>
      </trkpt>
      <trkpt lat="44.32932" lon="3.38451">
        <ele>836</ele>
        <time>2024-01-30T08:56:29.000Z</time>
      </trkpt>
      <trkpt lat="44.32931" lon="3.3846">
        <ele>835.59997558594</ele>
        <time>2024-01-30T08:56:31.000Z</time>
      </trkpt>
      <trkpt lat="44.32928" lon="3.38468">
        <ele>835</ele>
        <time>2024-01-30T08:56:33.000Z</time>
      </trkpt>
      <trkpt lat="44.32921" lon="3.38484">
        <ele>834.40002441406</ele>
        <time>2024-01-30T08:56:36.000Z</time>
      </trkpt>
      <trkpt lat="44.32918" lon="3.3849">
        <ele>834.20001220703</ele>
        <time>2024-01-30T08:56:37.000Z</time>
      </trkpt>
      <trkpt lat="44.32916" lon="3.38499">
        <ele>834</ele>
        <time>2024-01-30T08:56:38.000Z</time>
      </trkpt>
      <trkpt lat="44.32915" lon="3.38512">
        <ele>833.59997558594</ele>
        <time>2024-01-30T08:56:39.000Z</time>
      </trkpt>
      <trkpt lat="44.32914" lon="3.38536">
        <ele>833.20001220703</ele>
        <time>2024-01-30T08:56:41.000Z</time>
      </trkpt>
      <trkpt lat="44.32915" lon="3.3855">
        <ele>832.79998779297</ele>
        <time>2024-01-30T08:56:42.000Z</time>
      </trkpt>
      <trkpt lat="44.32918" lon="3.38564">
        <ele>832.59997558594</ele>
        <time>2024-01-30T08:56:43.000Z</time>
      </trkpt>
      <trkpt lat="44.32924" lon="3.38591">
        <ele>831.20001220703</ele>
        <time>2024-01-30T08:56:45.000Z</time>
      </trkpt>
      <trkpt lat="44.32934" lon="3.38621">
        <ele>829.59997558594</ele>
        <time>2024-01-30T08:56:47.000Z</time>
      </trkpt>
      <trkpt lat="44.32939" lon="3.38634">
        <ele>828.59997558594</ele>
        <time>2024-01-30T08:56:48.000Z</time>
      </trkpt>
      <trkpt lat="44.32943" lon="3.38644">
        <ele>827.59997558594</ele>
        <time>2024-01-30T08:56:49.000Z</time>
      </trkpt>
      <trkpt lat="44.32949" lon="3.38653">
        <ele>826.79998779297</ele>
        <time>2024-01-30T08:56:50.000Z</time>
      </trkpt>
      <trkpt lat="44.32953" lon="3.38662">
        <ele>826</ele>
        <time>2024-01-30T08:56:51.000Z</time>
      </trkpt>
      <trkpt lat="44.32957" lon="3.3868">
        <ele>825.20001220703</ele>
        <time>2024-01-30T08:56:53.000Z</time>
      </trkpt>
      <trkpt lat="44.32956" lon="3.38689">
        <ele>824.79998779297</ele>
        <time>2024-01-30T08:56:54.000Z</time>
      </trkpt>
      <trkpt lat="44.32951" lon="3.38709">
        <ele>823.59997558594</ele>
        <time>2024-01-30T08:56:56.000Z</time>
      </trkpt>
      <trkpt lat="44.32948" lon="3.38729">
        <ele>823.20001220703</ele>
        <time>2024-01-30T08:56:58.000Z</time>
      </trkpt>
      <trkpt lat="44.32949" lon="3.3874">
        <ele>822.40002441406</ele>
        <time>2024-01-30T08:56:59.000Z</time>
      </trkpt>
      <trkpt lat="44.32953" lon="3.38751">
        <ele>822</ele>
        <time>2024-01-30T08:57:00.000Z</time>
      </trkpt>
      <trkpt lat="44.32965" lon="3.38771">
        <ele>821.20001220703</ele>
        <time>2024-01-30T08:57:02.000Z</time>
      </trkpt>
      <trkpt lat="44.32972" lon="3.38781">
        <ele>820.20001220703</ele>
        <time>2024-01-30T08:57:03.000Z</time>
      </trkpt>
      <trkpt lat="44.32978" lon="3.3879">
        <ele>819.59997558594</ele>
        <time>2024-01-30T08:57:04.000Z</time>
      </trkpt>
      <trkpt lat="44.32982" lon="3.38799">
        <ele>818.59997558594</ele>
        <time>2024-01-30T08:57:05.000Z</time>
      </trkpt>
      <trkpt lat="44.32985" lon="3.38805">
        <ele>817.59997558594</ele>
        <time>2024-01-30T08:57:06.000Z</time>
      </trkpt>
      <trkpt lat="44.32989" lon="3.38809">
        <ele>816.59997558594</ele>
        <time>2024-01-30T08:57:07.000Z</time>
      </trkpt>
      <trkpt lat="44.32992" lon="3.38812">
        <ele>816.59997558594</ele>
        <time>2024-01-30T08:57:08.000Z</time>
      </trkpt>
      <trkpt lat="44.32997" lon="3.38813">
        <ele>816</ele>
        <time>2024-01-30T08:57:09.000Z</time>
      </trkpt>
      <trkpt lat="44.33" lon="3.38814">
        <ele>816</ele>
        <time>2024-01-30T08:57:10.000Z</time>
      </trkpt>
      <trkpt lat="44.33003" lon="3.38816">
        <ele>815.59997558594</ele>
        <time>2024-01-30T08:57:14.000Z</time>
      </trkpt>
      <trkpt lat="44.33003" lon="3.38816">
        <ele>815.59997558594</ele>
        <time>2024-01-30T08:57:22.000Z</time>
      </trkpt>
      <trkpt lat="44.33003" lon="3.38816">
        <ele>815.79998779297</ele>
        <time>2024-01-30T08:57:33.000Z</time>
      </trkpt>
      <trkpt lat="44.33003" lon="3.38823">
        <ele>816</ele>
        <time>2024-01-30T08:57:43.000Z</time>
      </trkpt>
      <trkpt lat="44.33004" lon="3.38834">
        <ele>815.79998779297</ele>
        <time>2024-01-30T08:57:45.000Z</time>
      </trkpt>
      <trkpt lat="44.33006" lon="3.38841">
        <ele>815.59997558594</ele>
        <time>2024-01-30T08:57:46.000Z</time>
      </trkpt>
      <trkpt lat="44.33013" lon="3.3886">
        <ele>815.40002441406</ele>
        <time>2024-01-30T08:57:48.000Z</time>
      </trkpt>
      <trkpt lat="44.33016" lon="3.38871">
        <ele>815.20001220703</ele>
        <time>2024-01-30T08:57:49.000Z</time>
      </trkpt>
      <trkpt lat="44.3302" lon="3.38884">
        <ele>814.79998779297</ele>
        <time>2024-01-30T08:57:50.000Z</time>
      </trkpt>
      <trkpt lat="44.33028" lon="3.38914">
        <ele>813.59997558594</ele>
        <time>2024-01-30T08:57:52.000Z</time>
      </trkpt>
      <trkpt lat="44.33031" lon="3.38931">
        <ele>812.79998779297</ele>
        <time>2024-01-30T08:57:53.000Z</time>
      </trkpt>
      <trkpt lat="44.33034" lon="3.38948">
        <ele>812.20001220703</ele>
        <time>2024-01-30T08:57:54.000Z</time>
      </trkpt>
      <trkpt lat="44.33045" lon="3.38979">
        <ele>810.40002441406</ele>
        <time>2024-01-30T08:57:56.000Z</time>
      </trkpt>
      <trkpt lat="44.3306" lon="3.39012">
        <ele>809.20001220703</ele>
        <time>2024-01-30T08:57:58.000Z</time>
      </trkpt>
      <trkpt lat="44.33076" lon="3.3904">
        <ele>807.59997558594</ele>
        <time>2024-01-30T08:58:00.000Z</time>
      </trkpt>
      <trkpt lat="44.33083" lon="3.3905">
        <ele>806.79998779297</ele>
        <time>2024-01-30T08:58:01.000Z</time>
      </trkpt>
      <trkpt lat="44.33092" lon="3.39058">
        <ele>805.59997558594</ele>
        <time>2024-01-30T08:58:02.000Z</time>
      </trkpt>
      <trkpt lat="44.33114" lon="3.39073">
        <ele>804.59997558594</ele>
        <time>2024-01-30T08:58:04.000Z</time>
      </trkpt>
      <trkpt lat="44.33137" lon="3.39084">
        <ele>802.59997558594</ele>
        <time>2024-01-30T08:58:06.000Z</time>
      </trkpt>
      <trkpt lat="44.33147" lon="3.39089">
        <ele>802.20001220703</ele>
        <time>2024-01-30T08:58:07.000Z</time>
      </trkpt>
      <trkpt lat="44.33156" lon="3.39091">
        <ele>801.40002441406</ele>
        <time>2024-01-30T08:58:08.000Z</time>
      </trkpt>
      <trkpt lat="44.33166" lon="3.39087">
        <ele>800.40002441406</ele>
        <time>2024-01-30T08:58:09.000Z</time>
      </trkpt>
      <trkpt lat="44.33174" lon="3.39081">
        <ele>800</ele>
        <time>2024-01-30T08:58:10.000Z</time>
      </trkpt>
      <trkpt lat="44.33181" lon="3.39072">
        <ele>799.20001220703</ele>
        <time>2024-01-30T08:58:11.000Z</time>
      </trkpt>
      <trkpt lat="44.33196" lon="3.39049">
        <ele>798</ele>
        <time>2024-01-30T08:58:13.000Z</time>
      </trkpt>
      <trkpt lat="44.33204" lon="3.39024">
        <ele>796.59997558594</ele>
        <time>2024-01-30T08:58:15.000Z</time>
      </trkpt>
      <trkpt lat="44.33212" lon="3.39">
        <ele>795.40002441406</ele>
        <time>2024-01-30T08:58:17.000Z</time>
      </trkpt>
      <trkpt lat="44.33216" lon="3.38991">
        <ele>794.79998779297</ele>
        <time>2024-01-30T08:58:18.000Z</time>
      </trkpt>
      <trkpt lat="44.33221" lon="3.3898">
        <ele>794.20001220703</ele>
        <time>2024-01-30T08:58:19.000Z</time>
      </trkpt>
      <trkpt lat="44.33233" lon="3.38962">
        <ele>792.59997558594</ele>
        <time>2024-01-30T08:58:21.000Z</time>
      </trkpt>
      <trkpt lat="44.33251" lon="3.3895">
        <ele>791.40002441406</ele>
        <time>2024-01-30T08:58:23.000Z</time>
      </trkpt>
      <trkpt lat="44.33258" lon="3.38941">
        <ele>790.79998779297</ele>
        <time>2024-01-30T08:58:24.000Z</time>
      </trkpt>
      <trkpt lat="44.33265" lon="3.38931">
        <ele>790.40002441406</ele>
        <time>2024-01-30T08:58:25.000Z</time>
      </trkpt>
      <trkpt lat="44.33275" lon="3.38909">
        <ele>789.20001220703</ele>
        <time>2024-01-30T08:58:27.000Z</time>
      </trkpt>
      <trkpt lat="44.33281" lon="3.389">
        <ele>788.40002441406</ele>
        <time>2024-01-30T08:58:28.000Z</time>
      </trkpt>
      <trkpt lat="44.33286" lon="3.38892">
        <ele>787.40002441406</ele>
        <time>2024-01-30T08:58:29.000Z</time>
      </trkpt>
      <trkpt lat="44.33294" lon="3.38887">
        <ele>786.79998779297</ele>
        <time>2024-01-30T08:58:30.000Z</time>
      </trkpt>
      <trkpt lat="44.33301" lon="3.38887">
        <ele>786.20001220703</ele>
        <time>2024-01-30T08:58:31.000Z</time>
      </trkpt>
      <trkpt lat="44.33307" lon="3.3889">
        <ele>785.59997558594</ele>
        <time>2024-01-30T08:58:32.000Z</time>
      </trkpt>
      <trkpt lat="44.33315" lon="3.38895">
        <ele>785.20001220703</ele>
        <time>2024-01-30T08:58:33.000Z</time>
      </trkpt>
      <trkpt lat="44.33328" lon="3.38913">
        <ele>784.40002441406</ele>
        <time>2024-01-30T08:58:35.000Z</time>
      </trkpt>
      <trkpt lat="44.33334" lon="3.38924">
        <ele>783.40002441406</ele>
        <time>2024-01-30T08:58:36.000Z</time>
      </trkpt>
      <trkpt lat="44.33337" lon="3.38936">
        <ele>783</ele>
        <time>2024-01-30T08:58:37.000Z</time>
      </trkpt>
      <trkpt lat="44.3334" lon="3.3895">
        <ele>782.20001220703</ele>
        <time>2024-01-30T08:58:38.000Z</time>
      </trkpt>
      <trkpt lat="44.33348" lon="3.38977">
        <ele>780.40002441406</ele>
        <time>2024-01-30T08:58:40.000Z</time>
      </trkpt>
      <trkpt lat="44.33353" lon="3.38991">
        <ele>779.79998779297</ele>
        <time>2024-01-30T08:58:41.000Z</time>
      </trkpt>
      <trkpt lat="44.33359" lon="3.39003">
        <ele>779.40002441406</ele>
        <time>2024-01-30T08:58:42.000Z</time>
      </trkpt>
      <trkpt lat="44.33367" lon="3.39013">
        <ele>779</ele>
        <time>2024-01-30T08:58:43.000Z</time>
      </trkpt>
      <trkpt lat="44.33388" lon="3.39028">
        <ele>777.40002441406</ele>
        <time>2024-01-30T08:58:45.000Z</time>
      </trkpt>
      <trkpt lat="44.33407" lon="3.39042">
        <ele>775.59997558594</ele>
        <time>2024-01-30T08:58:47.000Z</time>
      </trkpt>
      <trkpt lat="44.33423" lon="3.39056">
        <ele>774</ele>
        <time>2024-01-30T08:58:49.000Z</time>
      </trkpt>
      <trkpt lat="44.3343" lon="3.39061">
        <ele>773</ele>
        <time>2024-01-30T08:58:50.000Z</time>
      </trkpt>
      <trkpt lat="44.33436" lon="3.39065">
        <ele>772.79998779297</ele>
        <time>2024-01-30T08:58:51.000Z</time>
      </trkpt>
      <trkpt lat="44.33444" lon="3.39061">
        <ele>772.59997558594</ele>
        <time>2024-01-30T08:58:53.000Z</time>
      </trkpt>
      <trkpt lat="44.33441" lon="3.3905">
        <ele>772.59997558594</ele>
        <time>2024-01-30T08:58:55.000Z</time>
      </trkpt>
      <trkpt lat="44.33435" lon="3.39046">
        <ele>772.59997558594</ele>
        <time>2024-01-30T08:58:56.000Z</time>
      </trkpt>
      <trkpt lat="44.33428" lon="3.39044">
        <ele>772.79998779297</ele>
        <time>2024-01-30T08:58:57.000Z</time>
      </trkpt>
      <trkpt lat="44.33412" lon="3.39038">
        <ele>772.40002441406</ele>
        <time>2024-01-30T08:58:59.000Z</time>
      </trkpt>
      <trkpt lat="44.33395" lon="3.39026">
        <ele>772.20001220703</ele>
        <time>2024-01-30T08:59:01.000Z</time>
      </trkpt>
      <trkpt lat="44.33386" lon="3.39019">
        <ele>771.59997558594</ele>
        <time>2024-01-30T08:59:02.000Z</time>
      </trkpt>
      <trkpt lat="44.33369" lon="3.38999">
        <ele>770.20001220703</ele>
        <time>2024-01-30T08:59:04.000Z</time>
      </trkpt>
      <trkpt lat="44.33362" lon="3.38987">
        <ele>769.79998779297</ele>
        <time>2024-01-30T08:59:05.000Z</time>
      </trkpt>
      <trkpt lat="44.33357" lon="3.38973">
        <ele>769.59997558594</ele>
        <time>2024-01-30T08:59:06.000Z</time>
      </trkpt>
      <trkpt lat="44.33353" lon="3.38958">
        <ele>768</ele>
        <time>2024-01-30T08:59:07.000Z</time>
      </trkpt>
      <trkpt lat="44.3335" lon="3.38942">
        <ele>767.59997558594</ele>
        <time>2024-01-30T08:59:08.000Z</time>
      </trkpt>
      <trkpt lat="44.33345" lon="3.38908">
        <ele>766.40002441406</ele>
        <time>2024-01-30T08:59:10.000Z</time>
      </trkpt>
      <trkpt lat="44.33342" lon="3.38891">
        <ele>765.40002441406</ele>
        <time>2024-01-30T08:59:11.000Z</time>
      </trkpt>
      <trkpt lat="44.33337" lon="3.38875">
        <ele>764.40002441406</ele>
        <time>2024-01-30T08:59:12.000Z</time>
      </trkpt>
      <trkpt lat="44.33332" lon="3.38861">
        <ele>763.79998779297</ele>
        <time>2024-01-30T08:59:13.000Z</time>
      </trkpt>
      <trkpt lat="44.33317" lon="3.3884">
        <ele>761.79998779297</ele>
        <time>2024-01-30T08:59:15.000Z</time>
      </trkpt>
      <trkpt lat="44.33309" lon="3.38834">
        <ele>760.59997558594</ele>
        <time>2024-01-30T08:59:16.000Z</time>
      </trkpt>
      <trkpt lat="44.33302" lon="3.38831">
        <ele>759.79998779297</ele>
        <time>2024-01-30T08:59:17.000Z</time>
      </trkpt>
      <trkpt lat="44.33297" lon="3.38828">
        <ele>759.20001220703</ele>
        <time>2024-01-30T08:59:18.000Z</time>
      </trkpt>
      <trkpt lat="44.33292" lon="3.38825">
        <ele>758.79998779297</ele>
        <time>2024-01-30T08:59:19.000Z</time>
      </trkpt>
      <trkpt lat="44.33291" lon="3.38818">
        <ele>758.20001220703</ele>
        <time>2024-01-30T08:59:21.000Z</time>
      </trkpt>
      <trkpt lat="44.33295" lon="3.38816">
        <ele>758.20001220703</ele>
        <time>2024-01-30T08:59:23.000Z</time>
      </trkpt>
      <trkpt lat="44.333" lon="3.38818">
        <ele>758</ele>
        <time>2024-01-30T08:59:24.000Z</time>
      </trkpt>
      <trkpt lat="44.33319" lon="3.38835">
        <ele>757.59997558594</ele>
        <time>2024-01-30T08:59:27.000Z</time>
      </trkpt>
      <trkpt lat="44.33334" lon="3.3885">
        <ele>756.59997558594</ele>
        <time>2024-01-30T08:59:29.000Z</time>
      </trkpt>
      <trkpt lat="44.33341" lon="3.38858">
        <ele>756.40002441406</ele>
        <time>2024-01-30T08:59:30.000Z</time>
      </trkpt>
      <trkpt lat="44.33346" lon="3.38868">
        <ele>755.40002441406</ele>
        <time>2024-01-30T08:59:31.000Z</time>
      </trkpt>
      <trkpt lat="44.33349" lon="3.3888">
        <ele>755</ele>
        <time>2024-01-30T08:59:32.000Z</time>
      </trkpt>
      <trkpt lat="44.33353" lon="3.38892">
        <ele>754.40002441406</ele>
        <time>2024-01-30T08:59:33.000Z</time>
      </trkpt>
      <trkpt lat="44.33355" lon="3.38906">
        <ele>754</ele>
        <time>2024-01-30T08:59:34.000Z</time>
      </trkpt>
      <trkpt lat="44.33359" lon="3.3892">
        <ele>753.20001220703</ele>
        <time>2024-01-30T08:59:35.000Z</time>
      </trkpt>
      <trkpt lat="44.33366" lon="3.38948">
        <ele>751.79998779297</ele>
        <time>2024-01-30T08:59:37.000Z</time>
      </trkpt>
      <trkpt lat="44.33377" lon="3.38973">
        <ele>750.40002441406</ele>
        <time>2024-01-30T08:59:39.000Z</time>
      </trkpt>
      <trkpt lat="44.33398" lon="3.38989">
        <ele>749.40002441406</ele>
        <time>2024-01-30T08:59:41.000Z</time>
      </trkpt>
      <trkpt lat="44.3341" lon="3.38996">
        <ele>748.59997558594</ele>
        <time>2024-01-30T08:59:42.000Z</time>
      </trkpt>
      <trkpt lat="44.33421" lon="3.39001">
        <ele>748.20001220703</ele>
        <time>2024-01-30T08:59:43.000Z</time>
      </trkpt>
      <trkpt lat="44.33443" lon="3.39003">
        <ele>746.20001220703</ele>
        <time>2024-01-30T08:59:45.000Z</time>
      </trkpt>
      <trkpt lat="44.33463" lon="3.39007">
        <ele>744.79998779297</ele>
        <time>2024-01-30T08:59:47.000Z</time>
      </trkpt>
      <trkpt lat="44.33471" lon="3.39015">
        <ele>744</ele>
        <time>2024-01-30T08:59:48.000Z</time>
      </trkpt>
      <trkpt lat="44.33476" lon="3.39025">
        <ele>743.40002441406</ele>
        <time>2024-01-30T08:59:49.000Z</time>
      </trkpt>
      <trkpt lat="44.33486" lon="3.39048">
        <ele>742.20001220703</ele>
        <time>2024-01-30T08:59:51.000Z</time>
      </trkpt>
      <trkpt lat="44.33494" lon="3.39057">
        <ele>741.59997558594</ele>
        <time>2024-01-30T08:59:52.000Z</time>
      </trkpt>
      <trkpt lat="44.33504" lon="3.39063">
        <ele>740.79998779297</ele>
        <time>2024-01-30T08:59:53.000Z</time>
      </trkpt>
      <trkpt lat="44.33514" lon="3.39066">
        <ele>740.20001220703</ele>
        <time>2024-01-30T08:59:54.000Z</time>
      </trkpt>
      <trkpt lat="44.33525" lon="3.39067">
        <ele>739.79998779297</ele>
        <time>2024-01-30T08:59:55.000Z</time>
      </trkpt>
      <trkpt lat="44.33549" lon="3.39064">
        <ele>738.40002441406</ele>
        <time>2024-01-30T08:59:57.000Z</time>
      </trkpt>
      <trkpt lat="44.33571" lon="3.39053">
        <ele>737.20001220703</ele>
        <time>2024-01-30T08:59:59.000Z</time>
      </trkpt>
      <trkpt lat="44.3358" lon="3.39043">
        <ele>736.40002441406</ele>
        <time>2024-01-30T09:00:00.000Z</time>
      </trkpt>
      <trkpt lat="44.33589" lon="3.39033">
        <ele>735.79998779297</ele>
        <time>2024-01-30T09:00:01.000Z</time>
      </trkpt>
      <trkpt lat="44.33607" lon="3.39014">
        <ele>734</ele>
        <time>2024-01-30T09:00:03.000Z</time>
      </trkpt>
      <trkpt lat="44.33615" lon="3.39007">
        <ele>733</ele>
        <time>2024-01-30T09:00:04.000Z</time>
      </trkpt>
      <trkpt lat="44.33622" lon="3.39002">
        <ele>732.20001220703</ele>
        <time>2024-01-30T09:00:05.000Z</time>
      </trkpt>
      <trkpt lat="44.33628" lon="3.39">
        <ele>731.40002441406</ele>
        <time>2024-01-30T09:00:06.000Z</time>
      </trkpt>
      <trkpt lat="44.33634" lon="3.39002">
        <ele>730.59997558594</ele>
        <time>2024-01-30T09:00:07.000Z</time>
      </trkpt>
      <trkpt lat="44.33638" lon="3.39008">
        <ele>730</ele>
        <time>2024-01-30T09:00:08.000Z</time>
      </trkpt>
      <trkpt lat="44.3364" lon="3.39016">
        <ele>729.40002441406</ele>
        <time>2024-01-30T09:00:09.000Z</time>
      </trkpt>
      <trkpt lat="44.3364" lon="3.39026">
        <ele>728.79998779297</ele>
        <time>2024-01-30T09:00:10.000Z</time>
      </trkpt>
      <trkpt lat="44.33639" lon="3.3905">
        <ele>728.20001220703</ele>
        <time>2024-01-30T09:00:12.000Z</time>
      </trkpt>
      <trkpt lat="44.3364" lon="3.39063">
        <ele>727.79998779297</ele>
        <time>2024-01-30T09:00:13.000Z</time>
      </trkpt>
      <trkpt lat="44.33643" lon="3.39075">
        <ele>727.20001220703</ele>
        <time>2024-01-30T09:00:14.000Z</time>
      </trkpt>
      <trkpt lat="44.33649" lon="3.39085">
        <ele>726.59997558594</ele>
        <time>2024-01-30T09:00:15.000Z</time>
      </trkpt>
      <trkpt lat="44.33657" lon="3.39094">
        <ele>726</ele>
        <time>2024-01-30T09:00:16.000Z</time>
      </trkpt>
      <trkpt lat="44.33667" lon="3.39103">
        <ele>725.40002441406</ele>
        <time>2024-01-30T09:00:17.000Z</time>
      </trkpt>
      <trkpt lat="44.33678" lon="3.39112">
        <ele>724.79998779297</ele>
        <time>2024-01-30T09:00:18.000Z</time>
      </trkpt>
      <trkpt lat="44.33688" lon="3.39122">
        <ele>724.20001220703</ele>
        <time>2024-01-30T09:00:19.000Z</time>
      </trkpt>
      <trkpt lat="44.33703" lon="3.39146">
        <ele>722.79998779297</ele>
        <time>2024-01-30T09:00:21.000Z</time>
      </trkpt>
      <trkpt lat="44.33717" lon="3.39171">
        <ele>721.20001220703</ele>
        <time>2024-01-30T09:00:23.000Z</time>
      </trkpt>
      <trkpt lat="44.33732" lon="3.39191">
        <ele>719.20001220703</ele>
        <time>2024-01-30T09:00:25.000Z</time>
      </trkpt>
      <trkpt lat="44.3374" lon="3.39197">
        <ele>718.79998779297</ele>
        <time>2024-01-30T09:00:26.000Z</time>
      </trkpt>
      <trkpt lat="44.3375" lon="3.39199">
        <ele>718</ele>
        <time>2024-01-30T09:00:27.000Z</time>
      </trkpt>
      <trkpt lat="44.3376" lon="3.39199">
        <ele>717.79998779297</ele>
        <time>2024-01-30T09:00:28.000Z</time>
      </trkpt>
      <trkpt lat="44.33771" lon="3.39196">
        <ele>717.20001220703</ele>
        <time>2024-01-30T09:00:29.000Z</time>
      </trkpt>
      <trkpt lat="44.33782" lon="3.39191">
        <ele>716.59997558594</ele>
        <time>2024-01-30T09:00:30.000Z</time>
      </trkpt>
      <trkpt lat="44.33796" lon="3.39182">
        <ele>716</ele>
        <time>2024-01-30T09:00:31.000Z</time>
      </trkpt>
      <trkpt lat="44.33808" lon="3.39174">
        <ele>715.59997558594</ele>
        <time>2024-01-30T09:00:32.000Z</time>
      </trkpt>
      <trkpt lat="44.33826" lon="3.39162">
        <ele>712.79998779297</ele>
        <time>2024-01-30T09:00:34.000Z</time>
      </trkpt>
      <trkpt lat="44.33844" lon="3.39157">
        <ele>711</ele>
        <time>2024-01-30T09:00:36.000Z</time>
      </trkpt>
      <trkpt lat="44.33858" lon="3.39166">
        <ele>710.20001220703</ele>
        <time>2024-01-30T09:00:38.000Z</time>
      </trkpt>
      <trkpt lat="44.33863" lon="3.39176">
        <ele>709.79998779297</ele>
        <time>2024-01-30T09:00:39.000Z</time>
      </trkpt>
      <trkpt lat="44.33868" lon="3.39188">
        <ele>709.59997558594</ele>
        <time>2024-01-30T09:00:40.000Z</time>
      </trkpt>
      <trkpt lat="44.33872" lon="3.39202">
        <ele>709.20001220703</ele>
        <time>2024-01-30T09:00:41.000Z</time>
      </trkpt>
      <trkpt lat="44.33876" lon="3.39216">
        <ele>708.40002441406</ele>
        <time>2024-01-30T09:00:42.000Z</time>
      </trkpt>
      <trkpt lat="44.33882" lon="3.39246">
        <ele>706.79998779297</ele>
        <time>2024-01-30T09:00:44.000Z</time>
      </trkpt>
      <trkpt lat="44.33888" lon="3.39259">
        <ele>706</ele>
        <time>2024-01-30T09:00:45.000Z</time>
      </trkpt>
      <trkpt lat="44.33896" lon="3.39269">
        <ele>705.40002441406</ele>
        <time>2024-01-30T09:00:46.000Z</time>
      </trkpt>
      <trkpt lat="44.33907" lon="3.39278">
        <ele>704.79998779297</ele>
        <time>2024-01-30T09:00:47.000Z</time>
      </trkpt>
      <trkpt lat="44.33931" lon="3.39289">
        <ele>703.79998779297</ele>
        <time>2024-01-30T09:00:49.000Z</time>
      </trkpt>
      <trkpt lat="44.33944" lon="3.39291">
        <ele>703</ele>
        <time>2024-01-30T09:00:50.000Z</time>
      </trkpt>
      <trkpt lat="44.33957" lon="3.3929">
        <ele>701.79998779297</ele>
        <time>2024-01-30T09:00:51.000Z</time>
      </trkpt>
      <trkpt lat="44.33982" lon="3.39284">
        <ele>700</ele>
        <time>2024-01-30T09:00:53.000Z</time>
      </trkpt>
      <trkpt lat="44.33992" lon="3.39285">
        <ele>698.59997558594</ele>
        <time>2024-01-30T09:00:54.000Z</time>
      </trkpt>
      <trkpt lat="44.34001" lon="3.39288">
        <ele>697.59997558594</ele>
        <time>2024-01-30T09:00:55.000Z</time>
      </trkpt>
      <trkpt lat="44.34008" lon="3.39296">
        <ele>696.59997558594</ele>
        <time>2024-01-30T09:00:56.000Z</time>
      </trkpt>
      <trkpt lat="44.34012" lon="3.39306">
        <ele>696</ele>
        <time>2024-01-30T09:00:57.000Z</time>
      </trkpt>
      <trkpt lat="44.34013" lon="3.39319">
        <ele>695.59997558594</ele>
        <time>2024-01-30T09:00:58.000Z</time>
      </trkpt>
      <trkpt lat="44.34012" lon="3.39334">
        <ele>695</ele>
        <time>2024-01-30T09:00:59.000Z</time>
      </trkpt>
      <trkpt lat="44.34009" lon="3.39351">
        <ele>694.59997558594</ele>
        <time>2024-01-30T09:01:00.000Z</time>
      </trkpt>
      <trkpt lat="44.34005" lon="3.3937">
        <ele>694</ele>
        <time>2024-01-30T09:01:01.000Z</time>
      </trkpt>
      <trkpt lat="44.34" lon="3.39388">
        <ele>693.20001220703</ele>
        <time>2024-01-30T09:01:02.000Z</time>
      </trkpt>
      <trkpt lat="44.33994" lon="3.39406">
        <ele>692.40002441406</ele>
        <time>2024-01-30T09:01:03.000Z</time>
      </trkpt>
      <trkpt lat="44.33976" lon="3.39438">
        <ele>690.20001220703</ele>
        <time>2024-01-30T09:01:05.000Z</time>
      </trkpt>
      <trkpt lat="44.3396" lon="3.39466">
        <ele>688.20001220703</ele>
        <time>2024-01-30T09:01:07.000Z</time>
      </trkpt>
      <trkpt lat="44.33953" lon="3.39478">
        <ele>686.79998779297</ele>
        <time>2024-01-30T09:01:08.000Z</time>
      </trkpt>
      <trkpt lat="44.33947" lon="3.39504">
        <ele>685.40002441406</ele>
        <time>2024-01-30T09:01:10.000Z</time>
      </trkpt>
      <trkpt lat="44.33956" lon="3.3953">
        <ele>685</ele>
        <time>2024-01-30T09:01:12.000Z</time>
      </trkpt>
      <trkpt lat="44.33964" lon="3.39543">
        <ele>684.79998779297</ele>
        <time>2024-01-30T09:01:13.000Z</time>
      </trkpt>
      <trkpt lat="44.33973" lon="3.39554">
        <ele>684.20001220703</ele>
        <time>2024-01-30T09:01:14.000Z</time>
      </trkpt>
      <trkpt lat="44.33984" lon="3.39565">
        <ele>683.40002441406</ele>
        <time>2024-01-30T09:01:15.000Z</time>
      </trkpt>
      <trkpt lat="44.33995" lon="3.39574">
        <ele>682.59997558594</ele>
        <time>2024-01-30T09:01:16.000Z</time>
      </trkpt>
      <trkpt lat="44.34006" lon="3.39583">
        <ele>681.59997558594</ele>
        <time>2024-01-30T09:01:17.000Z</time>
      </trkpt>
      <trkpt lat="44.34014" lon="3.39591">
        <ele>680.20001220703</ele>
        <time>2024-01-30T09:01:18.000Z</time>
      </trkpt>
      <trkpt lat="44.3402" lon="3.39599">
        <ele>679.20001220703</ele>
        <time>2024-01-30T09:01:19.000Z</time>
      </trkpt>
      <trkpt lat="44.34024" lon="3.39608">
        <ele>678.20001220703</ele>
        <time>2024-01-30T09:01:20.000Z</time>
      </trkpt>
      <trkpt lat="44.34024" lon="3.39618">
        <ele>677.20001220703</ele>
        <time>2024-01-30T09:01:21.000Z</time>
      </trkpt>
      <trkpt lat="44.34022" lon="3.39628">
        <ele>676.59997558594</ele>
        <time>2024-01-30T09:01:22.000Z</time>
      </trkpt>
      <trkpt lat="44.34018" lon="3.39638">
        <ele>676</ele>
        <time>2024-01-30T09:01:23.000Z</time>
      </trkpt>
      <trkpt lat="44.34016" lon="3.39649">
        <ele>675.59997558594</ele>
        <time>2024-01-30T09:01:24.000Z</time>
      </trkpt>
      <trkpt lat="44.34019" lon="3.39672">
        <ele>675</ele>
        <time>2024-01-30T09:01:26.000Z</time>
      </trkpt>
      <trkpt lat="44.34023" lon="3.39683">
        <ele>674.40002441406</ele>
        <time>2024-01-30T09:01:27.000Z</time>
      </trkpt>
      <trkpt lat="44.34041" lon="3.39717">
        <ele>673.20001220703</ele>
        <time>2024-01-30T09:01:30.000Z</time>
      </trkpt>
      <trkpt lat="44.34046" lon="3.39731">
        <ele>672.20001220703</ele>
        <time>2024-01-30T09:01:31.000Z</time>
      </trkpt>
      <trkpt lat="44.34048" lon="3.39746">
        <ele>671.59997558594</ele>
        <time>2024-01-30T09:01:32.000Z</time>
      </trkpt>
      <trkpt lat="44.34049" lon="3.39761">
        <ele>671</ele>
        <time>2024-01-30T09:01:33.000Z</time>
      </trkpt>
      <trkpt lat="44.34048" lon="3.39778">
        <ele>670.20001220703</ele>
        <time>2024-01-30T09:01:34.000Z</time>
      </trkpt>
      <trkpt lat="44.34048" lon="3.39811">
        <ele>668.59997558594</ele>
        <time>2024-01-30T09:01:36.000Z</time>
      </trkpt>
      <trkpt lat="44.34049" lon="3.39829">
        <ele>668</ele>
        <time>2024-01-30T09:01:37.000Z</time>
      </trkpt>
      <trkpt lat="44.34053" lon="3.39847">
        <ele>667</ele>
        <time>2024-01-30T09:01:38.000Z</time>
      </trkpt>
      <trkpt lat="44.3406" lon="3.3988">
        <ele>665.20001220703</ele>
        <time>2024-01-30T09:01:40.000Z</time>
      </trkpt>
      <trkpt lat="44.34064" lon="3.39893">
        <ele>664.20001220703</ele>
        <time>2024-01-30T09:01:41.000Z</time>
      </trkpt>
      <trkpt lat="44.34069" lon="3.39904">
        <ele>663.20001220703</ele>
        <time>2024-01-30T09:01:42.000Z</time>
      </trkpt>
      <trkpt lat="44.34076" lon="3.39914">
        <ele>662.79998779297</ele>
        <time>2024-01-30T09:01:43.000Z</time>
      </trkpt>
      <trkpt lat="44.34085" lon="3.39918">
        <ele>662.59997558594</ele>
        <time>2024-01-30T09:01:44.000Z</time>
      </trkpt>
      <trkpt lat="44.341" lon="3.39916">
        <ele>662.79998779297</ele>
        <time>2024-01-30T09:01:46.000Z</time>
      </trkpt>
      <trkpt lat="44.34121" lon="3.39889">
        <ele>662.79998779297</ele>
        <time>2024-01-30T09:01:49.000Z</time>
      </trkpt>
      <trkpt lat="44.34151" lon="3.39869">
        <ele>662</ele>
        <time>2024-01-30T09:01:52.000Z</time>
      </trkpt>
      <trkpt lat="44.34166" lon="3.39863">
        <ele>661.40002441406</ele>
        <time>2024-01-30T09:01:53.000Z</time>
      </trkpt>
      <trkpt lat="44.34196" lon="3.39855">
        <ele>660.40002441406</ele>
        <time>2024-01-30T09:01:55.000Z</time>
      </trkpt>
      <trkpt lat="44.34212" lon="3.3985">
        <ele>659.59997558594</ele>
        <time>2024-01-30T09:01:56.000Z</time>
      </trkpt>
      <trkpt lat="44.34227" lon="3.39845">
        <ele>658.59997558594</ele>
        <time>2024-01-30T09:01:57.000Z</time>
      </trkpt>
      <trkpt lat="44.34241" lon="3.39836">
        <ele>657.40002441406</ele>
        <time>2024-01-30T09:01:58.000Z</time>
      </trkpt>
      <trkpt lat="44.34252" lon="3.3983">
        <ele>656.20001220703</ele>
        <time>2024-01-30T09:01:59.000Z</time>
      </trkpt>
      <trkpt lat="44.34266" lon="3.39825">
        <ele>655.40002441406</ele>
        <time>2024-01-30T09:02:00.000Z</time>
      </trkpt>
      <trkpt lat="44.34278" lon="3.39824">
        <ele>654.20001220703</ele>
        <time>2024-01-30T09:02:01.000Z</time>
      </trkpt>
      <trkpt lat="44.3429" lon="3.39827">
        <ele>653.20001220703</ele>
        <time>2024-01-30T09:02:02.000Z</time>
      </trkpt>
      <trkpt lat="44.34303" lon="3.39833">
        <ele>652.20001220703</ele>
        <time>2024-01-30T09:02:03.000Z</time>
      </trkpt>
      <trkpt lat="44.34311" lon="3.39842">
        <ele>651.40002441406</ele>
        <time>2024-01-30T09:02:04.000Z</time>
      </trkpt>
      <trkpt lat="44.34321" lon="3.39853">
        <ele>650.59997558594</ele>
        <time>2024-01-30T09:02:05.000Z</time>
      </trkpt>
      <trkpt lat="44.34331" lon="3.39865">
        <ele>649.79998779297</ele>
        <time>2024-01-30T09:02:06.000Z</time>
      </trkpt>
      <trkpt lat="44.3434" lon="3.39876">
        <ele>649</ele>
        <time>2024-01-30T09:02:07.000Z</time>
      </trkpt>
      <trkpt lat="44.34364" lon="3.39893">
        <ele>647.79998779297</ele>
        <time>2024-01-30T09:02:09.000Z</time>
      </trkpt>
      <trkpt lat="44.3439" lon="3.39908">
        <ele>646</ele>
        <time>2024-01-30T09:02:11.000Z</time>
      </trkpt>
      <trkpt lat="44.34402" lon="3.39918">
        <ele>645.20001220703</ele>
        <time>2024-01-30T09:02:12.000Z</time>
      </trkpt>
      <trkpt lat="44.34412" lon="3.3993">
        <ele>643.79998779297</ele>
        <time>2024-01-30T09:02:13.000Z</time>
      </trkpt>
      <trkpt lat="44.3442" lon="3.39943">
        <ele>642.79998779297</ele>
        <time>2024-01-30T09:02:14.000Z</time>
      </trkpt>
      <trkpt lat="44.34428" lon="3.39957">
        <ele>641.59997558594</ele>
        <time>2024-01-30T09:02:15.000Z</time>
      </trkpt>
      <trkpt lat="44.34435" lon="3.39971">
        <ele>640.59997558594</ele>
        <time>2024-01-30T09:02:16.000Z</time>
      </trkpt>
      <trkpt lat="44.34444" lon="3.39981">
        <ele>639.79998779297</ele>
        <time>2024-01-30T09:02:17.000Z</time>
      </trkpt>
      <trkpt lat="44.34456" lon="3.3999">
        <ele>639.40002441406</ele>
        <time>2024-01-30T09:02:18.000Z</time>
      </trkpt>
      <trkpt lat="44.34481" lon="3.40004">
        <ele>638.20001220703</ele>
        <time>2024-01-30T09:02:20.000Z</time>
      </trkpt>
      <trkpt lat="44.34497" lon="3.40009">
        <ele>637</ele>
        <time>2024-01-30T09:02:21.000Z</time>
      </trkpt>
      <trkpt lat="44.34511" lon="3.40009">
        <ele>636.20001220703</ele>
        <time>2024-01-30T09:02:22.000Z</time>
      </trkpt>
      <trkpt lat="44.34523" lon="3.40009">
        <ele>635.20001220703</ele>
        <time>2024-01-30T09:02:23.000Z</time>
      </trkpt>
      <trkpt lat="44.34554" lon="3.40013">
        <ele>633.20001220703</ele>
        <time>2024-01-30T09:02:25.000Z</time>
      </trkpt>
      <trkpt lat="44.34569" lon="3.40018">
        <ele>632.20001220703</ele>
        <time>2024-01-30T09:02:26.000Z</time>
      </trkpt>
      <trkpt lat="44.34584" lon="3.40022">
        <ele>631</ele>
        <time>2024-01-30T09:02:27.000Z</time>
      </trkpt>
      <trkpt lat="44.34615" lon="3.40029">
        <ele>629</ele>
        <time>2024-01-30T09:02:29.000Z</time>
      </trkpt>
      <trkpt lat="44.34647" lon="3.40039">
        <ele>627.59997558594</ele>
        <time>2024-01-30T09:02:31.000Z</time>
      </trkpt>
      <trkpt lat="44.34662" lon="3.40046">
        <ele>626</ele>
        <time>2024-01-30T09:02:32.000Z</time>
      </trkpt>
      <trkpt lat="44.34688" lon="3.40058">
        <ele>624</ele>
        <time>2024-01-30T09:02:34.000Z</time>
      </trkpt>
      <trkpt lat="44.34705" lon="3.40066">
        <ele>622.79998779297</ele>
        <time>2024-01-30T09:02:35.000Z</time>
      </trkpt>
      <trkpt lat="44.34719" lon="3.40069">
        <ele>621.40002441406</ele>
        <time>2024-01-30T09:02:36.000Z</time>
      </trkpt>
      <trkpt lat="44.34734" lon="3.40069">
        <ele>620.40002441406</ele>
        <time>2024-01-30T09:02:37.000Z</time>
      </trkpt>
      <trkpt lat="44.34762" lon="3.40062">
        <ele>618.79998779297</ele>
        <time>2024-01-30T09:02:39.000Z</time>
      </trkpt>
      <trkpt lat="44.34777" lon="3.40059">
        <ele>617.59997558594</ele>
        <time>2024-01-30T09:02:40.000Z</time>
      </trkpt>
      <trkpt lat="44.34792" lon="3.40056">
        <ele>617</ele>
        <time>2024-01-30T09:02:41.000Z</time>
      </trkpt>
      <trkpt lat="44.34808" lon="3.40055">
        <ele>616</ele>
        <time>2024-01-30T09:02:42.000Z</time>
      </trkpt>
      <trkpt lat="44.34823" lon="3.40055">
        <ele>614.79998779297</ele>
        <time>2024-01-30T09:02:43.000Z</time>
      </trkpt>
      <trkpt lat="44.34837" lon="3.40059">
        <ele>613.79998779297</ele>
        <time>2024-01-30T09:02:44.000Z</time>
      </trkpt>
      <trkpt lat="44.34851" lon="3.40065">
        <ele>612.20001220703</ele>
        <time>2024-01-30T09:02:45.000Z</time>
      </trkpt>
      <trkpt lat="44.34864" lon="3.4007">
        <ele>611</ele>
        <time>2024-01-30T09:02:46.000Z</time>
      </trkpt>
      <trkpt lat="44.34878" lon="3.40072">
        <ele>609.59997558594</ele>
        <time>2024-01-30T09:02:47.000Z</time>
      </trkpt>
      <trkpt lat="44.34906" lon="3.40071">
        <ele>608</ele>
        <time>2024-01-30T09:02:49.000Z</time>
      </trkpt>
      <trkpt lat="44.3492" lon="3.40072">
        <ele>607.40002441406</ele>
        <time>2024-01-30T09:02:50.000Z</time>
      </trkpt>
      <trkpt lat="44.34934" lon="3.40075">
        <ele>606.40002441406</ele>
        <time>2024-01-30T09:02:51.000Z</time>
      </trkpt>
      <trkpt lat="44.34947" lon="3.40079">
        <ele>605.20001220703</ele>
        <time>2024-01-30T09:02:52.000Z</time>
      </trkpt>
      <trkpt lat="44.34959" lon="3.40086">
        <ele>603.79998779297</ele>
        <time>2024-01-30T09:02:53.000Z</time>
      </trkpt>
      <trkpt lat="44.3497" lon="3.40096">
        <ele>602.20001220703</ele>
        <time>2024-01-30T09:02:54.000Z</time>
      </trkpt>
      <trkpt lat="44.34978" lon="3.40109">
        <ele>601.79998779297</ele>
        <time>2024-01-30T09:02:55.000Z</time>
      </trkpt>
      <trkpt lat="44.34985" lon="3.40124">
        <ele>601.20001220703</ele>
        <time>2024-01-30T09:02:56.000Z</time>
      </trkpt>
      <trkpt lat="44.34997" lon="3.40159">
        <ele>600</ele>
        <time>2024-01-30T09:02:58.000Z</time>
      </trkpt>
      <trkpt lat="44.3501" lon="3.40197">
        <ele>598.40002441406</ele>
        <time>2024-01-30T09:03:00.000Z</time>
      </trkpt>
      <trkpt lat="44.35015" lon="3.40215">
        <ele>597.40002441406</ele>
        <time>2024-01-30T09:03:01.000Z</time>
      </trkpt>
      <trkpt lat="44.35018" lon="3.40232">
        <ele>595.59997558594</ele>
        <time>2024-01-30T09:03:02.000Z</time>
      </trkpt>
      <trkpt lat="44.35023" lon="3.40247">
        <ele>594.59997558594</ele>
        <time>2024-01-30T09:03:03.000Z</time>
      </trkpt>
      <trkpt lat="44.35031" lon="3.4026">
        <ele>593.40002441406</ele>
        <time>2024-01-30T09:03:04.000Z</time>
      </trkpt>
      <trkpt lat="44.35039" lon="3.40269">
        <ele>592.79998779297</ele>
        <time>2024-01-30T09:03:05.000Z</time>
      </trkpt>
      <trkpt lat="44.35053" lon="3.40282">
        <ele>592.40002441406</ele>
        <time>2024-01-30T09:03:06.000Z</time>
      </trkpt>
      <trkpt lat="44.35066" lon="3.40292">
        <ele>591.59997558594</ele>
        <time>2024-01-30T09:03:07.000Z</time>
      </trkpt>
      <trkpt lat="44.35078" lon="3.40305">
        <ele>590.79998779297</ele>
        <time>2024-01-30T09:03:08.000Z</time>
      </trkpt>
      <trkpt lat="44.3509" lon="3.40319">
        <ele>589.79998779297</ele>
        <time>2024-01-30T09:03:09.000Z</time>
      </trkpt>
      <trkpt lat="44.35101" lon="3.40332">
        <ele>589</ele>
        <time>2024-01-30T09:03:10.000Z</time>
      </trkpt>
      <trkpt lat="44.35124" lon="3.40358">
        <ele>587</ele>
        <time>2024-01-30T09:03:12.000Z</time>
      </trkpt>
      <trkpt lat="44.35136" lon="3.40372">
        <ele>586</ele>
        <time>2024-01-30T09:03:13.000Z</time>
      </trkpt>
      <trkpt lat="44.35149" lon="3.40386">
        <ele>585</ele>
        <time>2024-01-30T09:03:14.000Z</time>
      </trkpt>
      <trkpt lat="44.35173" lon="3.40414">
        <ele>583.20001220703</ele>
        <time>2024-01-30T09:03:16.000Z</time>
      </trkpt>
      <trkpt lat="44.35185" lon="3.40429">
        <ele>581.79998779297</ele>
        <time>2024-01-30T09:03:17.000Z</time>
      </trkpt>
      <trkpt lat="44.35207" lon="3.40461">
        <ele>580</ele>
        <time>2024-01-30T09:03:19.000Z</time>
      </trkpt>
      <trkpt lat="44.35218" lon="3.40477">
        <ele>578.79998779297</ele>
        <time>2024-01-30T09:03:20.000Z</time>
      </trkpt>
      <trkpt lat="44.35231" lon="3.40491">
        <ele>577.79998779297</ele>
        <time>2024-01-30T09:03:21.000Z</time>
      </trkpt>
      <trkpt lat="44.35244" lon="3.40504">
        <ele>576.59997558594</ele>
        <time>2024-01-30T09:03:22.000Z</time>
      </trkpt>
      <trkpt lat="44.35257" lon="3.40516">
        <ele>575.40002441406</ele>
        <time>2024-01-30T09:03:23.000Z</time>
      </trkpt>
      <trkpt lat="44.35283" lon="3.40542">
        <ele>573.40002441406</ele>
        <time>2024-01-30T09:03:25.000Z</time>
      </trkpt>
      <trkpt lat="44.35297" lon="3.40554">
        <ele>572.20001220703</ele>
        <time>2024-01-30T09:03:26.000Z</time>
      </trkpt>
      <trkpt lat="44.35312" lon="3.40564">
        <ele>571.20001220703</ele>
        <time>2024-01-30T09:03:27.000Z</time>
      </trkpt>
      <trkpt lat="44.35327" lon="3.40574">
        <ele>570</ele>
        <time>2024-01-30T09:03:28.000Z</time>
      </trkpt>
      <trkpt lat="44.35341" lon="3.40584">
        <ele>569</ele>
        <time>2024-01-30T09:03:29.000Z</time>
      </trkpt>
      <trkpt lat="44.35355" lon="3.40596">
        <ele>568</ele>
        <time>2024-01-30T09:03:30.000Z</time>
      </trkpt>
      <trkpt lat="44.35366" lon="3.40608">
        <ele>566.59997558594</ele>
        <time>2024-01-30T09:03:31.000Z</time>
      </trkpt>
      <trkpt lat="44.35395" lon="3.40625">
        <ele>564.40002441406</ele>
        <time>2024-01-30T09:03:33.000Z</time>
      </trkpt>
      <trkpt lat="44.35411" lon="3.40631">
        <ele>563.59997558594</ele>
        <time>2024-01-30T09:03:34.000Z</time>
      </trkpt>
      <trkpt lat="44.35426" lon="3.40638">
        <ele>562.59997558594</ele>
        <time>2024-01-30T09:03:35.000Z</time>
      </trkpt>
      <trkpt lat="44.35457" lon="3.40651">
        <ele>560.40002441406</ele>
        <time>2024-01-30T09:03:37.000Z</time>
      </trkpt>
      <trkpt lat="44.35487" lon="3.40672">
        <ele>558.40002441406</ele>
        <time>2024-01-30T09:03:39.000Z</time>
      </trkpt>
      <trkpt lat="44.355" lon="3.40685">
        <ele>557.20001220703</ele>
        <time>2024-01-30T09:03:40.000Z</time>
      </trkpt>
      <trkpt lat="44.35513" lon="3.40698">
        <ele>556</ele>
        <time>2024-01-30T09:03:41.000Z</time>
      </trkpt>
      <trkpt lat="44.35526" lon="3.40709">
        <ele>555</ele>
        <time>2024-01-30T09:03:42.000Z</time>
      </trkpt>
      <trkpt lat="44.35541" lon="3.40717">
        <ele>553.59997558594</ele>
        <time>2024-01-30T09:03:43.000Z</time>
      </trkpt>
      <trkpt lat="44.35556" lon="3.40722">
        <ele>552.79998779297</ele>
        <time>2024-01-30T09:03:44.000Z</time>
      </trkpt>
      <trkpt lat="44.35572" lon="3.40726">
        <ele>551.40002441406</ele>
        <time>2024-01-30T09:03:45.000Z</time>
      </trkpt>
      <trkpt lat="44.35588" lon="3.40731">
        <ele>550.79998779297</ele>
        <time>2024-01-30T09:03:46.000Z</time>
      </trkpt>
      <trkpt lat="44.35604" lon="3.40737">
        <ele>549.59997558594</ele>
        <time>2024-01-30T09:03:47.000Z</time>
      </trkpt>
      <trkpt lat="44.35637" lon="3.40751">
        <ele>547.40002441406</ele>
        <time>2024-01-30T09:03:49.000Z</time>
      </trkpt>
      <trkpt lat="44.35653" lon="3.40759">
        <ele>546.20001220703</ele>
        <time>2024-01-30T09:03:50.000Z</time>
      </trkpt>
      <trkpt lat="44.35687" lon="3.40774">
        <ele>544.20001220703</ele>
        <time>2024-01-30T09:03:52.000Z</time>
      </trkpt>
      <trkpt lat="44.35704" lon="3.40782">
        <ele>543</ele>
        <time>2024-01-30T09:03:53.000Z</time>
      </trkpt>
      <trkpt lat="44.35721" lon="3.4079">
        <ele>541.59997558594</ele>
        <time>2024-01-30T09:03:54.000Z</time>
      </trkpt>
      <trkpt lat="44.35756" lon="3.40807">
        <ele>539.40002441406</ele>
        <time>2024-01-30T09:03:56.000Z</time>
      </trkpt>
      <trkpt lat="44.35773" lon="3.40816">
        <ele>538.20001220703</ele>
        <time>2024-01-30T09:03:57.000Z</time>
      </trkpt>
      <trkpt lat="44.3579" lon="3.40825">
        <ele>537.20001220703</ele>
        <time>2024-01-30T09:03:58.000Z</time>
      </trkpt>
      <trkpt lat="44.35807" lon="3.40835">
        <ele>536</ele>
        <time>2024-01-30T09:03:59.000Z</time>
      </trkpt>
      <trkpt lat="44.3584" lon="3.40857">
        <ele>533.59997558594</ele>
        <time>2024-01-30T09:04:01.000Z</time>
      </trkpt>
      <trkpt lat="44.35855" lon="3.40867">
        <ele>532.40002441406</ele>
        <time>2024-01-30T09:04:02.000Z</time>
      </trkpt>
      <trkpt lat="44.35869" lon="3.40876">
        <ele>530.59997558594</ele>
        <time>2024-01-30T09:04:03.000Z</time>
      </trkpt>
      <trkpt lat="44.35883" lon="3.40885">
        <ele>529.20001220703</ele>
        <time>2024-01-30T09:04:04.000Z</time>
      </trkpt>
      <trkpt lat="44.35896" lon="3.40893">
        <ele>527.59997558594</ele>
        <time>2024-01-30T09:04:05.000Z</time>
      </trkpt>
      <trkpt lat="44.35908" lon="3.40903">
        <ele>526.59997558594</ele>
        <time>2024-01-30T09:04:06.000Z</time>
      </trkpt>
      <trkpt lat="44.35919" lon="3.40914">
        <ele>525.59997558594</ele>
        <time>2024-01-30T09:04:07.000Z</time>
      </trkpt>
      <trkpt lat="44.35928" lon="3.40927">
        <ele>524.40002441406</ele>
        <time>2024-01-30T09:04:08.000Z</time>
      </trkpt>
      <trkpt lat="44.35936" lon="3.40941">
        <ele>523.40002441406</ele>
        <time>2024-01-30T09:04:09.000Z</time>
      </trkpt>
      <trkpt lat="44.35942" lon="3.40956">
        <ele>522.40002441406</ele>
        <time>2024-01-30T09:04:10.000Z</time>
      </trkpt>
      <trkpt lat="44.35946" lon="3.4097">
        <ele>521.79998779297</ele>
        <time>2024-01-30T09:04:11.000Z</time>
      </trkpt>
      <trkpt lat="44.35949" lon="3.40984">
        <ele>520.40002441406</ele>
        <time>2024-01-30T09:04:12.000Z</time>
      </trkpt>
      <trkpt lat="44.35951" lon="3.40997">
        <ele>519.40002441406</ele>
        <time>2024-01-30T09:04:13.000Z</time>
      </trkpt>
      <trkpt lat="44.35953" lon="3.41007">
        <ele>518.40002441406</ele>
        <time>2024-01-30T09:04:14.000Z</time>
      </trkpt>
      <trkpt lat="44.35965" lon="3.41022">
        <ele>517.20001220703</ele>
        <time>2024-01-30T09:04:16.000Z</time>
      </trkpt>
      <trkpt lat="44.3599" lon="3.41041">
        <ele>515.79998779297</ele>
        <time>2024-01-30T09:04:19.000Z</time>
      </trkpt>
      <trkpt lat="44.35996" lon="3.41051">
        <ele>515.20001220703</ele>
        <time>2024-01-30T09:04:20.000Z</time>
      </trkpt>
      <trkpt lat="44.36001" lon="3.41063">
        <ele>514.40002441406</ele>
        <time>2024-01-30T09:04:21.000Z</time>
      </trkpt>
      <trkpt lat="44.36014" lon="3.4109">
        <ele>513.40002441406</ele>
        <time>2024-01-30T09:04:23.000Z</time>
      </trkpt>
      <trkpt lat="44.36017" lon="3.41105">
        <ele>513</ele>
        <time>2024-01-30T09:04:24.000Z</time>
      </trkpt>
      <trkpt lat="44.36023" lon="3.41136">
        <ele>511.20001220703</ele>
        <time>2024-01-30T09:04:26.000Z</time>
      </trkpt>
      <trkpt lat="44.36025" lon="3.41152">
        <ele>510.39999389648</ele>
        <time>2024-01-30T09:04:27.000Z</time>
      </trkpt>
      <trkpt lat="44.36028" lon="3.41166">
        <ele>509.60000610352</ele>
        <time>2024-01-30T09:04:28.000Z</time>
      </trkpt>
      <trkpt lat="44.36033" lon="3.41177">
        <ele>508.20001220703</ele>
        <time>2024-01-30T09:04:29.000Z</time>
      </trkpt>
      <trkpt lat="44.36041" lon="3.41187">
        <ele>507.39999389648</ele>
        <time>2024-01-30T09:04:30.000Z</time>
      </trkpt>
      <trkpt lat="44.36051" lon="3.41194">
        <ele>506.79998779297</ele>
        <time>2024-01-30T09:04:31.000Z</time>
      </trkpt>
      <trkpt lat="44.36065" lon="3.41211">
        <ele>506.20001220703</ele>
        <time>2024-01-30T09:04:33.000Z</time>
      </trkpt>
      <trkpt lat="44.36072" lon="3.41221">
        <ele>506</ele>
        <time>2024-01-30T09:04:34.000Z</time>
      </trkpt>
      <trkpt lat="44.36079" lon="3.41232">
        <ele>505.60000610352</ele>
        <time>2024-01-30T09:04:35.000Z</time>
      </trkpt>
      <trkpt lat="44.36091" lon="3.41257">
        <ele>504</ele>
        <time>2024-01-30T09:04:37.000Z</time>
      </trkpt>
      <trkpt lat="44.36098" lon="3.41269">
        <ele>503.60000610352</ele>
        <time>2024-01-30T09:04:38.000Z</time>
      </trkpt>
      <trkpt lat="44.36105" lon="3.41281">
        <ele>502.60000610352</ele>
        <time>2024-01-30T09:04:39.000Z</time>
      </trkpt>
      <trkpt lat="44.36113" lon="3.41291">
        <ele>501.79998779297</ele>
        <time>2024-01-30T09:04:40.000Z</time>
      </trkpt>
      <trkpt lat="44.36121" lon="3.413">
        <ele>501.20001220703</ele>
        <time>2024-01-30T09:04:41.000Z</time>
      </trkpt>
      <trkpt lat="44.36129" lon="3.41309">
        <ele>500.39999389648</ele>
        <time>2024-01-30T09:04:42.000Z</time>
      </trkpt>
      <trkpt lat="44.36137" lon="3.4132">
        <ele>500</ele>
        <time>2024-01-30T09:04:43.000Z</time>
      </trkpt>
      <trkpt lat="44.36152" lon="3.41339">
        <ele>498.79998779297</ele>
        <time>2024-01-30T09:04:45.000Z</time>
      </trkpt>
      <trkpt lat="44.3616" lon="3.41348">
        <ele>498.39999389648</ele>
        <time>2024-01-30T09:04:46.000Z</time>
      </trkpt>
      <trkpt lat="44.36177" lon="3.41363">
        <ele>496.79998779297</ele>
        <time>2024-01-30T09:04:48.000Z</time>
      </trkpt>
      <trkpt lat="44.36187" lon="3.41369">
        <ele>496.60000610352</ele>
        <time>2024-01-30T09:04:49.000Z</time>
      </trkpt>
      <trkpt lat="44.36195" lon="3.41372">
        <ele>496</ele>
        <time>2024-01-30T09:04:50.000Z</time>
      </trkpt>
      <trkpt lat="44.36207" lon="3.41377">
        <ele>495.39999389648</ele>
        <time>2024-01-30T09:04:51.000Z</time>
      </trkpt>
      <trkpt lat="44.3624" lon="3.41384">
        <ele>494.20001220703</ele>
        <time>2024-01-30T09:04:54.000Z</time>
      </trkpt>
      <trkpt lat="44.36248" lon="3.41386">
        <ele>493.60000610352</ele>
        <time>2024-01-30T09:04:55.000Z</time>
      </trkpt>
      <trkpt lat="44.36257" lon="3.41388">
        <ele>492.79998779297</ele>
        <time>2024-01-30T09:04:56.000Z</time>
      </trkpt>
      <trkpt lat="44.36276" lon="3.41392">
        <ele>491.79998779297</ele>
        <time>2024-01-30T09:04:58.000Z</time>
      </trkpt>
      <trkpt lat="44.36293" lon="3.41394">
        <ele>491</ele>
        <time>2024-01-30T09:05:00.000Z</time>
      </trkpt>
      <trkpt lat="44.36302" lon="3.41393">
        <ele>490</ele>
        <time>2024-01-30T09:05:01.000Z</time>
      </trkpt>
      <trkpt lat="44.36312" lon="3.4139">
        <ele>489.39999389648</ele>
        <time>2024-01-30T09:05:02.000Z</time>
      </trkpt>
      <trkpt lat="44.36319" lon="3.41386">
        <ele>489</ele>
        <time>2024-01-30T09:05:03.000Z</time>
      </trkpt>
      <trkpt lat="44.36327" lon="3.41383">
        <ele>488.60000610352</ele>
        <time>2024-01-30T09:05:04.000Z</time>
      </trkpt>
      <trkpt lat="44.36349" lon="3.4137">
        <ele>487.20001220703</ele>
        <time>2024-01-30T09:05:07.000Z</time>
      </trkpt>
      <trkpt lat="44.36363" lon="3.41361">
        <ele>486.20001220703</ele>
        <time>2024-01-30T09:05:09.000Z</time>
      </trkpt>
      <trkpt lat="44.36381" lon="3.41347">
        <ele>485</ele>
        <time>2024-01-30T09:05:12.000Z</time>
      </trkpt>
      <trkpt lat="44.36392" lon="3.41335">
        <ele>484.20001220703</ele>
        <time>2024-01-30T09:05:14.000Z</time>
      </trkpt>
      <trkpt lat="44.36403" lon="3.41321">
        <ele>483.79998779297</ele>
        <time>2024-01-30T09:05:16.000Z</time>
      </trkpt>
      <trkpt lat="44.36418" lon="3.41293">
        <ele>482.39999389648</ele>
        <time>2024-01-30T09:05:19.000Z</time>
      </trkpt>
      <trkpt lat="44.36431" lon="3.41261">
        <ele>481.20001220703</ele>
        <time>2024-01-30T09:05:22.000Z</time>
      </trkpt>
      <trkpt lat="44.36435" lon="3.4125">
        <ele>480.79998779297</ele>
        <time>2024-01-30T09:05:23.000Z</time>
      </trkpt>
      <trkpt lat="44.36438" lon="3.41239">
        <ele>480.20001220703</ele>
        <time>2024-01-30T09:05:24.000Z</time>
      </trkpt>
      <trkpt lat="44.36443" lon="3.41202">
        <ele>478.60000610352</ele>
        <time>2024-01-30T09:05:27.000Z</time>
      </trkpt>
      <trkpt lat="44.36443" lon="3.41178">
        <ele>477.60000610352</ele>
        <time>2024-01-30T09:05:29.000Z</time>
      </trkpt>
      <trkpt lat="44.36442" lon="3.41145">
        <ele>476.20001220703</ele>
        <time>2024-01-30T09:05:32.000Z</time>
      </trkpt>
      <trkpt lat="44.3644" lon="3.41134">
        <ele>475.79998779297</ele>
        <time>2024-01-30T09:05:33.000Z</time>
      </trkpt>
      <trkpt lat="44.36434" lon="3.41096">
        <ele>475.20001220703</ele>
        <time>2024-01-30T09:05:37.000Z</time>
      </trkpt>
      <trkpt lat="44.36433" lon="3.41087">
        <ele>475.20001220703</ele>
        <time>2024-01-30T09:05:38.000Z</time>
      </trkpt>
      <trkpt lat="44.36433" lon="3.41065">
        <ele>474.79998779297</ele>
        <time>2024-01-30T09:05:41.000Z</time>
      </trkpt>
      <trkpt lat="44.36434" lon="3.41059">
        <ele>474.79998779297</ele>
        <time>2024-01-30T09:05:42.000Z</time>
      </trkpt>
      <trkpt lat="44.36438" lon="3.41049">
        <ele>474.79998779297</ele>
        <time>2024-01-30T09:05:44.000Z</time>
      </trkpt>
      <trkpt lat="44.36445" lon="3.41044">
        <ele>475</ele>
        <time>2024-01-30T09:05:46.000Z</time>
      </trkpt>
      <trkpt lat="44.36454" lon="3.41041">
        <ele>475</ele>
        <time>2024-01-30T09:05:48.000Z</time>
      </trkpt>
      <trkpt lat="44.36474" lon="3.41038">
        <ele>475.20001220703</ele>
        <time>2024-01-30T09:05:51.000Z</time>
      </trkpt>
      <trkpt lat="44.36521" lon="3.41031">
        <ele>474.20001220703</ele>
        <time>2024-01-30T09:05:59.000Z</time>
      </trkpt>
      <trkpt lat="44.36534" lon="3.41028">
        <ele>473</ele>
        <time>2024-01-30T09:06:01.000Z</time>
      </trkpt>
      <trkpt lat="44.36544" lon="3.41026">
        <ele>471.79998779297</ele>
        <time>2024-01-30T09:06:03.000Z</time>
      </trkpt>
      <trkpt lat="44.36551" lon="3.41025">
        <ele>470.20001220703</ele>
        <time>2024-01-30T09:06:05.000Z</time>
      </trkpt>
      <trkpt lat="44.36553" lon="3.41025">
        <ele>469.79998779297</ele>
        <time>2024-01-30T09:06:08.000Z</time>
      </trkpt>
      <trkpt lat="44.36561" lon="3.41035">
        <ele>469.60000610352</ele>
        <time>2024-01-30T09:06:13.000Z</time>
      </trkpt>
      <trkpt lat="44.36567" lon="3.41047">
        <ele>467.7</ele>
      </trkpt>
      <trkpt lat="44.36578" lon="3.4105">
        <ele>472.79998779297</ele>
        <time>2024-01-30T09:51:16.000Z</time>
      </trkpt>
      <trkpt lat="44.36584" lon="3.41052">
        <ele>473</ele>
        <time>2024-01-30T09:51:17.000Z</time>
      </trkpt>
      <trkpt lat="44.36602" lon="3.41057">
        <ele>474.20001220703</ele>
        <time>2024-01-30T09:51:20.000Z</time>
      </trkpt>
      <trkpt lat="44.36607" lon="3.41059">
        <ele>474.60000610352</ele>
        <time>2024-01-30T09:51:21.000Z</time>
      </trkpt>
      <trkpt lat="44.36617" lon="3.4106">
        <ele>475.20001220703</ele>
        <time>2024-01-30T09:51:22.000Z</time>
      </trkpt>
      <trkpt lat="44.36625" lon="3.41061">
        <ele>476</ele>
        <time>2024-01-30T09:51:23.000Z</time>
      </trkpt>
      <trkpt lat="44.36632" lon="3.41061">
        <ele>476.39999389648</ele>
        <time>2024-01-30T09:51:24.000Z</time>
      </trkpt>
      <trkpt lat="44.36639" lon="3.4106">
        <ele>477.39999389648</ele>
        <time>2024-01-30T09:51:25.000Z</time>
      </trkpt>
      <trkpt lat="44.36646" lon="3.41058">
        <ele>478</ele>
        <time>2024-01-30T09:51:26.000Z</time>
      </trkpt>
      <trkpt lat="44.36662" lon="3.4105">
        <ele>479.39999389648</ele>
        <time>2024-01-30T09:51:28.000Z</time>
      </trkpt>
      <trkpt lat="44.36679" lon="3.41044">
        <ele>481</ele>
        <time>2024-01-30T09:51:30.000Z</time>
      </trkpt>
      <trkpt lat="44.36694" lon="3.41039">
        <ele>482.20001220703</ele>
        <time>2024-01-30T09:51:32.000Z</time>
      </trkpt>
      <trkpt lat="44.367" lon="3.41035">
        <ele>482.39999389648</ele>
        <time>2024-01-30T09:51:33.000Z</time>
      </trkpt>
      <trkpt lat="44.36706" lon="3.41032">
        <ele>483</ele>
        <time>2024-01-30T09:51:34.000Z</time>
      </trkpt>
      <trkpt lat="44.3671" lon="3.41028">
        <ele>483.20001220703</ele>
        <time>2024-01-30T09:51:35.000Z</time>
      </trkpt>
      <trkpt lat="44.36712" lon="3.41021">
        <ele>483.60000610352</ele>
        <time>2024-01-30T09:51:36.000Z</time>
      </trkpt>
      <trkpt lat="44.36712" lon="3.41013">
        <ele>484</ele>
        <time>2024-01-30T09:51:37.000Z</time>
      </trkpt>
      <trkpt lat="44.3671" lon="3.41006">
        <ele>484.39999389648</ele>
        <time>2024-01-30T09:51:38.000Z</time>
      </trkpt>
      <trkpt lat="44.36707" lon="3.40998">
        <ele>484.79998779297</ele>
        <time>2024-01-30T09:51:39.000Z</time>
      </trkpt>
      <trkpt lat="44.36699" lon="3.40984">
        <ele>485.79998779297</ele>
        <time>2024-01-30T09:51:41.000Z</time>
      </trkpt>
      <trkpt lat="44.36693" lon="3.40979">
        <ele>486.39999389648</ele>
        <time>2024-01-30T09:51:42.000Z</time>
      </trkpt>
      <trkpt lat="44.36686" lon="3.40974">
        <ele>487</ele>
        <time>2024-01-30T09:51:43.000Z</time>
      </trkpt>
      <trkpt lat="44.36674" lon="3.40962">
        <ele>488.20001220703</ele>
        <time>2024-01-30T09:51:45.000Z</time>
      </trkpt>
      <trkpt lat="44.36662" lon="3.40952">
        <ele>489</ele>
        <time>2024-01-30T09:51:47.000Z</time>
      </trkpt>
      <trkpt lat="44.36655" lon="3.40948">
        <ele>489.20001220703</ele>
        <time>2024-01-30T09:51:48.000Z</time>
      </trkpt>
      <trkpt lat="44.36647" lon="3.40945">
        <ele>489.39999389648</ele>
        <time>2024-01-30T09:51:49.000Z</time>
      </trkpt>
      <trkpt lat="44.36632" lon="3.40945">
        <ele>490.20001220703</ele>
        <time>2024-01-30T09:51:51.000Z</time>
      </trkpt>
      <trkpt lat="44.36619" lon="3.40948">
        <ele>490.79998779297</ele>
        <time>2024-01-30T09:51:53.000Z</time>
      </trkpt>
      <trkpt lat="44.36607" lon="3.40949">
        <ele>491.39999389648</ele>
        <time>2024-01-30T09:51:55.000Z</time>
      </trkpt>
      <trkpt lat="44.36588" lon="3.4095">
        <ele>492.20001220703</ele>
        <time>2024-01-30T09:51:58.000Z</time>
      </trkpt>
      <trkpt lat="44.36582" lon="3.4095">
        <ele>492.79998779297</ele>
        <time>2024-01-30T09:51:59.000Z</time>
      </trkpt>
      <trkpt lat="44.36576" lon="3.40945">
        <ele>493</ele>
        <time>2024-01-30T09:52:00.000Z</time>
      </trkpt>
      <trkpt lat="44.36566" lon="3.40931">
        <ele>493.79998779297</ele>
        <time>2024-01-30T09:52:02.000Z</time>
      </trkpt>
      <trkpt lat="44.36561" lon="3.40922">
        <ele>494.39999389648</ele>
        <time>2024-01-30T09:52:03.000Z</time>
      </trkpt>
      <trkpt lat="44.36556" lon="3.40913">
        <ele>495</ele>
        <time>2024-01-30T09:52:04.000Z</time>
      </trkpt>
      <trkpt lat="44.36549" lon="3.40907">
        <ele>495.39999389648</ele>
        <time>2024-01-30T09:52:05.000Z</time>
      </trkpt>
      <trkpt lat="44.36541" lon="3.40901">
        <ele>495.79998779297</ele>
        <time>2024-01-30T09:52:06.000Z</time>
      </trkpt>
      <trkpt lat="44.36533" lon="3.40896">
        <ele>496.39999389648</ele>
        <time>2024-01-30T09:52:07.000Z</time>
      </trkpt>
      <trkpt lat="44.36523" lon="3.40892">
        <ele>497.39999389648</ele>
        <time>2024-01-30T09:52:08.000Z</time>
      </trkpt>
      <trkpt lat="44.36503" lon="3.40883">
        <ele>499</ele>
        <time>2024-01-30T09:52:10.000Z</time>
      </trkpt>
      <trkpt lat="44.36482" lon="3.40874">
        <ele>500.39999389648</ele>
        <time>2024-01-30T09:52:12.000Z</time>
      </trkpt>
      <trkpt lat="44.3646" lon="3.40866">
        <ele>501.79998779297</ele>
        <time>2024-01-30T09:52:14.000Z</time>
      </trkpt>
      <trkpt lat="44.36449" lon="3.40865">
        <ele>502.60000610352</ele>
        <time>2024-01-30T09:52:15.000Z</time>
      </trkpt>
      <trkpt lat="44.36439" lon="3.40866">
        <ele>503.39999389648</ele>
        <time>2024-01-30T09:52:16.000Z</time>
      </trkpt>
      <trkpt lat="44.36408" lon="3.40872">
        <ele>505.20001220703</ele>
        <time>2024-01-30T09:52:19.000Z</time>
      </trkpt>
      <trkpt lat="44.36399" lon="3.40874">
        <ele>506</ele>
        <time>2024-01-30T09:52:20.000Z</time>
      </trkpt>
      <trkpt lat="44.36391" lon="3.40877">
        <ele>506.39999389648</ele>
        <time>2024-01-30T09:52:21.000Z</time>
      </trkpt>
      <trkpt lat="44.36384" lon="3.40881">
        <ele>506.79998779297</ele>
        <time>2024-01-30T09:52:22.000Z</time>
      </trkpt>
      <trkpt lat="44.36377" lon="3.40886">
        <ele>507.20001220703</ele>
        <time>2024-01-30T09:52:23.000Z</time>
      </trkpt>
      <trkpt lat="44.36371" lon="3.40894">
        <ele>507.39999389648</ele>
        <time>2024-01-30T09:52:24.000Z</time>
      </trkpt>
      <trkpt lat="44.36364" lon="3.40914">
        <ele>508.79998779297</ele>
        <time>2024-01-30T09:52:26.000Z</time>
      </trkpt>
      <trkpt lat="44.36358" lon="3.40935">
        <ele>509.79998779297</ele>
        <time>2024-01-30T09:52:28.000Z</time>
      </trkpt>
      <trkpt lat="44.36354" lon="3.40944">
        <ele>510.20001220703</ele>
        <time>2024-01-30T09:52:29.000Z</time>
      </trkpt>
      <trkpt lat="44.36349" lon="3.40952">
        <ele>511</ele>
        <time>2024-01-30T09:52:30.000Z</time>
      </trkpt>
      <trkpt lat="44.36341" lon="3.40957">
        <ele>512</ele>
        <time>2024-01-30T09:52:31.000Z</time>
      </trkpt>
      <trkpt lat="44.36325" lon="3.40965">
        <ele>513.40002441406</ele>
        <time>2024-01-30T09:52:33.000Z</time>
      </trkpt>
      <trkpt lat="44.36317" lon="3.40969">
        <ele>514</ele>
        <time>2024-01-30T09:52:34.000Z</time>
      </trkpt>
      <trkpt lat="44.36309" lon="3.40976">
        <ele>514.59997558594</ele>
        <time>2024-01-30T09:52:35.000Z</time>
      </trkpt>
      <trkpt lat="44.36302" lon="3.40984">
        <ele>515.20001220703</ele>
        <time>2024-01-30T09:52:36.000Z</time>
      </trkpt>
      <trkpt lat="44.36296" lon="3.40993">
        <ele>515.59997558594</ele>
        <time>2024-01-30T09:52:37.000Z</time>
      </trkpt>
      <trkpt lat="44.36291" lon="3.41004">
        <ele>516.20001220703</ele>
        <time>2024-01-30T09:52:38.000Z</time>
      </trkpt>
      <trkpt lat="44.36286" lon="3.41015">
        <ele>517</ele>
        <time>2024-01-30T09:52:39.000Z</time>
      </trkpt>
      <trkpt lat="44.36281" lon="3.41025">
        <ele>518</ele>
        <time>2024-01-30T09:52:40.000Z</time>
      </trkpt>
      <trkpt lat="44.36276" lon="3.41035">
        <ele>518.20001220703</ele>
        <time>2024-01-30T09:52:41.000Z</time>
      </trkpt>
      <trkpt lat="44.36268" lon="3.41054">
        <ele>519.40002441406</ele>
        <time>2024-01-30T09:52:43.000Z</time>
      </trkpt>
      <trkpt lat="44.36264" lon="3.41062">
        <ele>519.59997558594</ele>
        <time>2024-01-30T09:52:44.000Z</time>
      </trkpt>
      <trkpt lat="44.3626" lon="3.41068">
        <ele>520.20001220703</ele>
        <time>2024-01-30T09:52:45.000Z</time>
      </trkpt>
      <trkpt lat="44.36254" lon="3.41072">
        <ele>521</ele>
        <time>2024-01-30T09:52:46.000Z</time>
      </trkpt>
      <trkpt lat="44.36244" lon="3.4107">
        <ele>521.79998779297</ele>
        <time>2024-01-30T09:52:48.000Z</time>
      </trkpt>
      <trkpt lat="44.36241" lon="3.41066">
        <ele>522.20001220703</ele>
        <time>2024-01-30T09:52:49.000Z</time>
      </trkpt>
      <trkpt lat="44.36238" lon="3.4106">
        <ele>522.40002441406</ele>
        <time>2024-01-30T09:52:50.000Z</time>
      </trkpt>
      <trkpt lat="44.36235" lon="3.41051">
        <ele>522.79998779297</ele>
        <time>2024-01-30T09:52:51.000Z</time>
      </trkpt>
      <trkpt lat="44.36232" lon="3.41042">
        <ele>523.40002441406</ele>
        <time>2024-01-30T09:52:52.000Z</time>
      </trkpt>
      <trkpt lat="44.36228" lon="3.41031">
        <ele>524.59997558594</ele>
        <time>2024-01-30T09:52:53.000Z</time>
      </trkpt>
      <trkpt lat="44.36225" lon="3.4102">
        <ele>524.79998779297</ele>
        <time>2024-01-30T09:52:54.000Z</time>
      </trkpt>
      <trkpt lat="44.36217" lon="3.40994">
        <ele>526.20001220703</ele>
        <time>2024-01-30T09:52:56.000Z</time>
      </trkpt>
      <trkpt lat="44.36209" lon="3.40969">
        <ele>527.59997558594</ele>
        <time>2024-01-30T09:52:58.000Z</time>
      </trkpt>
      <trkpt lat="44.362" lon="3.40941">
        <ele>528.79998779297</ele>
        <time>2024-01-30T09:53:00.000Z</time>
      </trkpt>
      <trkpt lat="44.3619" lon="3.40912">
        <ele>530</ele>
        <time>2024-01-30T09:53:02.000Z</time>
      </trkpt>
      <trkpt lat="44.36184" lon="3.40897">
        <ele>531</ele>
        <time>2024-01-30T09:53:03.000Z</time>
      </trkpt>
      <trkpt lat="44.36178" lon="3.4088">
        <ele>532.20001220703</ele>
        <time>2024-01-30T09:53:04.000Z</time>
      </trkpt>
      <trkpt lat="44.36164" lon="3.40841">
        <ele>534.20001220703</ele>
        <time>2024-01-30T09:53:07.000Z</time>
      </trkpt>
      <trkpt lat="44.3616" lon="3.40827">
        <ele>535.20001220703</ele>
        <time>2024-01-30T09:53:08.000Z</time>
      </trkpt>
      <trkpt lat="44.36152" lon="3.40794">
        <ele>536.79998779297</ele>
        <time>2024-01-30T09:53:10.000Z</time>
      </trkpt>
      <trkpt lat="44.36143" lon="3.40761">
        <ele>538.59997558594</ele>
        <time>2024-01-30T09:53:12.000Z</time>
      </trkpt>
      <trkpt lat="44.36137" lon="3.40741">
        <ele>539.20001220703</ele>
        <time>2024-01-30T09:53:13.000Z</time>
      </trkpt>
      <trkpt lat="44.36132" lon="3.40725">
        <ele>540</ele>
        <time>2024-01-30T09:53:14.000Z</time>
      </trkpt>
      <trkpt lat="44.3612" lon="3.40693">
        <ele>541.79998779297</ele>
        <time>2024-01-30T09:53:16.000Z</time>
      </trkpt>
      <trkpt lat="44.36115" lon="3.40678">
        <ele>542.40002441406</ele>
        <time>2024-01-30T09:53:17.000Z</time>
      </trkpt>
      <trkpt lat="44.3611" lon="3.40663">
        <ele>543.20001220703</ele>
        <time>2024-01-30T09:53:18.000Z</time>
      </trkpt>
      <trkpt lat="44.36104" lon="3.40636">
        <ele>544.40002441406</ele>
        <time>2024-01-30T09:53:20.000Z</time>
      </trkpt>
      <trkpt lat="44.36099" lon="3.40609">
        <ele>545.79998779297</ele>
        <time>2024-01-30T09:53:22.000Z</time>
      </trkpt>
      <trkpt lat="44.36095" lon="3.40598">
        <ele>546.40002441406</ele>
        <time>2024-01-30T09:53:23.000Z</time>
      </trkpt>
      <trkpt lat="44.36088" lon="3.40586">
        <ele>547</ele>
        <time>2024-01-30T09:53:24.000Z</time>
      </trkpt>
      <trkpt lat="44.36083" lon="3.40581">
        <ele>547.59997558594</ele>
        <time>2024-01-30T09:53:25.000Z</time>
      </trkpt>
      <trkpt lat="44.36072" lon="3.40573">
        <ele>548.59997558594</ele>
        <time>2024-01-30T09:53:26.000Z</time>
      </trkpt>
      <trkpt lat="44.36063" lon="3.40568">
        <ele>549</ele>
        <time>2024-01-30T09:53:27.000Z</time>
      </trkpt>
      <trkpt lat="44.36052" lon="3.40564">
        <ele>549.59997558594</ele>
        <time>2024-01-30T09:53:28.000Z</time>
      </trkpt>
      <trkpt lat="44.36034" lon="3.40555">
        <ele>550.59997558594</ele>
        <time>2024-01-30T09:53:30.000Z</time>
      </trkpt>
      <trkpt lat="44.36024" lon="3.40537">
        <ele>552.40002441406</ele>
        <time>2024-01-30T09:53:32.000Z</time>
      </trkpt>
      <trkpt lat="44.36019" lon="3.40523">
        <ele>552.79998779297</ele>
        <time>2024-01-30T09:53:33.000Z</time>
      </trkpt>
      <trkpt lat="44.36014" lon="3.4051">
        <ele>553.79998779297</ele>
        <time>2024-01-30T09:53:34.000Z</time>
      </trkpt>
      <trkpt lat="44.36009" lon="3.405">
        <ele>554.79998779297</ele>
        <time>2024-01-30T09:53:35.000Z</time>
      </trkpt>
      <trkpt lat="44.36" lon="3.40487">
        <ele>555.20001220703</ele>
        <time>2024-01-30T09:53:36.000Z</time>
      </trkpt>
      <trkpt lat="44.35991" lon="3.40477">
        <ele>556.40002441406</ele>
        <time>2024-01-30T09:53:37.000Z</time>
      </trkpt>
      <trkpt lat="44.35983" lon="3.40468">
        <ele>556.79998779297</ele>
        <time>2024-01-30T09:53:38.000Z</time>
      </trkpt>
      <trkpt lat="44.35968" lon="3.40451">
        <ele>558</ele>
        <time>2024-01-30T09:53:40.000Z</time>
      </trkpt>
      <trkpt lat="44.35953" lon="3.40431">
        <ele>559.40002441406</ele>
        <time>2024-01-30T09:53:42.000Z</time>
      </trkpt>
      <trkpt lat="44.35945" lon="3.40417">
        <ele>560.40002441406</ele>
        <time>2024-01-30T09:53:43.000Z</time>
      </trkpt>
      <trkpt lat="44.35932" lon="3.40393">
        <ele>561.79998779297</ele>
        <time>2024-01-30T09:53:45.000Z</time>
      </trkpt>
      <trkpt lat="44.35924" lon="3.40383">
        <ele>562.59997558594</ele>
        <time>2024-01-30T09:53:46.000Z</time>
      </trkpt>
      <trkpt lat="44.35915" lon="3.40374">
        <ele>564</ele>
        <time>2024-01-30T09:53:47.000Z</time>
      </trkpt>
      <trkpt lat="44.35907" lon="3.40368">
        <ele>564.59997558594</ele>
        <time>2024-01-30T09:53:48.000Z</time>
      </trkpt>
      <trkpt lat="44.35896" lon="3.40359">
        <ele>565.20001220703</ele>
        <time>2024-01-30T09:53:49.000Z</time>
      </trkpt>
      <trkpt lat="44.35875" lon="3.40346">
        <ele>566.40002441406</ele>
        <time>2024-01-30T09:53:51.000Z</time>
      </trkpt>
      <trkpt lat="44.35857" lon="3.40334">
        <ele>568.40002441406</ele>
        <time>2024-01-30T09:53:53.000Z</time>
      </trkpt>
      <trkpt lat="44.35845" lon="3.40327">
        <ele>569.20001220703</ele>
        <time>2024-01-30T09:53:54.000Z</time>
      </trkpt>
      <trkpt lat="44.35836" lon="3.40322">
        <ele>569.79998779297</ele>
        <time>2024-01-30T09:53:55.000Z</time>
      </trkpt>
      <trkpt lat="44.3582" lon="3.40313">
        <ele>571</ele>
        <time>2024-01-30T09:53:57.000Z</time>
      </trkpt>
      <trkpt lat="44.3581" lon="3.40311">
        <ele>571.20001220703</ele>
        <time>2024-01-30T09:53:58.000Z</time>
      </trkpt>
      <trkpt lat="44.35801" lon="3.40312">
        <ele>572</ele>
        <time>2024-01-30T09:53:59.000Z</time>
      </trkpt>
      <trkpt lat="44.35793" lon="3.40312">
        <ele>572.59997558594</ele>
        <time>2024-01-30T09:54:00.000Z</time>
      </trkpt>
      <trkpt lat="44.35784" lon="3.4031">
        <ele>573</ele>
        <time>2024-01-30T09:54:01.000Z</time>
      </trkpt>
      <trkpt lat="44.35778" lon="3.40308">
        <ele>573.59997558594</ele>
        <time>2024-01-30T09:54:02.000Z</time>
      </trkpt>
      <trkpt lat="44.35768" lon="3.40304">
        <ele>574.20001220703</ele>
        <time>2024-01-30T09:54:03.000Z</time>
      </trkpt>
      <trkpt lat="44.35755" lon="3.40294">
        <ele>575</ele>
        <time>2024-01-30T09:54:05.000Z</time>
      </trkpt>
      <trkpt lat="44.35743" lon="3.40267">
        <ele>576.40002441406</ele>
        <time>2024-01-30T09:54:08.000Z</time>
      </trkpt>
      <trkpt lat="44.35739" lon="3.40253">
        <ele>576.79998779297</ele>
        <time>2024-01-30T09:54:10.000Z</time>
      </trkpt>
      <trkpt lat="44.35738" lon="3.40249">
        <ele>577.40002441406</ele>
        <time>2024-01-30T09:54:11.000Z</time>
      </trkpt>
      <trkpt lat="44.35738" lon="3.40246">
        <ele>577.59997558594</ele>
        <time>2024-01-30T09:54:12.000Z</time>
      </trkpt>
      <trkpt lat="44.35738" lon="3.40244">
        <ele>578.40002441406</ele>
        <time>2024-01-30T09:54:14.000Z</time>
      </trkpt>
      <trkpt lat="44.35738" lon="3.40244">
        <ele>578.59997558594</ele>
        <time>2024-01-30T09:54:15.000Z</time>
      </trkpt>
      <trkpt lat="44.35738" lon="3.40244">
        <ele>579</ele>
        <time>2024-01-30T09:54:20.000Z</time>
      </trkpt>
      <trkpt lat="44.35738" lon="3.40244">
        <ele>579.20001220703</ele>
        <time>2024-01-30T09:54:43.000Z</time>
      </trkpt>
      <trkpt lat="44.35741" lon="3.40243">
        <ele>579.59997558594</ele>
        <time>2024-01-30T09:54:56.000Z</time>
      </trkpt>
      <trkpt lat="44.35743" lon="3.40242">
        <ele>579.79998779297</ele>
        <time>2024-01-30T09:54:57.000Z</time>
      </trkpt>
      <trkpt lat="44.35745" lon="3.40243">
        <ele>579.79998779297</ele>
        <time>2024-01-30T09:54:58.000Z</time>
      </trkpt>
      <trkpt lat="44.35748" lon="3.40249">
        <ele>580</ele>
        <time>2024-01-30T09:55:00.000Z</time>
      </trkpt>
      <trkpt lat="44.35754" lon="3.40266">
        <ele>580.59997558594</ele>
        <time>2024-01-30T09:55:03.000Z</time>
      </trkpt>
      <trkpt lat="44.35757" lon="3.40271">
        <ele>580.79998779297</ele>
        <time>2024-01-30T09:55:04.000Z</time>
      </trkpt>
      <trkpt lat="44.35767" lon="3.40289">
        <ele>581.20001220703</ele>
        <time>2024-01-30T09:55:07.000Z</time>
      </trkpt>
      <trkpt lat="44.35778" lon="3.40299">
        <ele>582.20001220703</ele>
        <time>2024-01-30T09:55:09.000Z</time>
      </trkpt>
      <trkpt lat="44.35798" lon="3.40307">
        <ele>583.59997558594</ele>
        <time>2024-01-30T09:55:12.000Z</time>
      </trkpt>
      <trkpt lat="44.35805" lon="3.40307">
        <ele>583.79998779297</ele>
        <time>2024-01-30T09:55:13.000Z</time>
      </trkpt>
      <trkpt lat="44.35813" lon="3.40306">
        <ele>584.59997558594</ele>
        <time>2024-01-30T09:55:14.000Z</time>
      </trkpt>
      <trkpt lat="44.35828" lon="3.40303">
        <ele>585.59997558594</ele>
        <time>2024-01-30T09:55:16.000Z</time>
      </trkpt>
      <trkpt lat="44.35843" lon="3.40309">
        <ele>587</ele>
        <time>2024-01-30T09:55:18.000Z</time>
      </trkpt>
      <trkpt lat="44.35851" lon="3.40315">
        <ele>587.59997558594</ele>
        <time>2024-01-30T09:55:19.000Z</time>
      </trkpt>
      <trkpt lat="44.35858" lon="3.4032">
        <ele>587.79998779297</ele>
        <time>2024-01-30T09:55:20.000Z</time>
      </trkpt>
      <trkpt lat="44.35868" lon="3.40324">
        <ele>588.20001220703</ele>
        <time>2024-01-30T09:55:21.000Z</time>
      </trkpt>
      <trkpt lat="44.35878" lon="3.40327">
        <ele>589.20001220703</ele>
        <time>2024-01-30T09:55:22.000Z</time>
      </trkpt>
      <trkpt lat="44.35889" lon="3.40329">
        <ele>590</ele>
        <time>2024-01-30T09:55:23.000Z</time>
      </trkpt>
      <trkpt lat="44.35911" lon="3.40333">
        <ele>591.40002441406</ele>
        <time>2024-01-30T09:55:25.000Z</time>
      </trkpt>
      <trkpt lat="44.35931" lon="3.40337">
        <ele>593.20001220703</ele>
        <time>2024-01-30T09:55:27.000Z</time>
      </trkpt>
      <trkpt lat="44.35941" lon="3.40342">
        <ele>593.79998779297</ele>
        <time>2024-01-30T09:55:28.000Z</time>
      </trkpt>
      <trkpt lat="44.35951" lon="3.40348">
        <ele>594.59997558594</ele>
        <time>2024-01-30T09:55:29.000Z</time>
      </trkpt>
      <trkpt lat="44.3597" lon="3.40365">
        <ele>596</ele>
        <time>2024-01-30T09:55:31.000Z</time>
      </trkpt>
      <trkpt lat="44.35977" lon="3.40374">
        <ele>596.59997558594</ele>
        <time>2024-01-30T09:55:32.000Z</time>
      </trkpt>
      <trkpt lat="44.35984" lon="3.40383">
        <ele>597.20001220703</ele>
        <time>2024-01-30T09:55:33.000Z</time>
      </trkpt>
      <trkpt lat="44.3599" lon="3.40394">
        <ele>598</ele>
        <time>2024-01-30T09:55:34.000Z</time>
      </trkpt>
      <trkpt lat="44.35996" lon="3.40405">
        <ele>598.59997558594</ele>
        <time>2024-01-30T09:55:35.000Z</time>
      </trkpt>
      <trkpt lat="44.36009" lon="3.40424">
        <ele>599.79998779297</ele>
        <time>2024-01-30T09:55:37.000Z</time>
      </trkpt>
      <trkpt lat="44.36018" lon="3.40434">
        <ele>600</ele>
        <time>2024-01-30T09:55:38.000Z</time>
      </trkpt>
      <trkpt lat="44.36027" lon="3.4044">
        <ele>600.79998779297</ele>
        <time>2024-01-30T09:55:39.000Z</time>
      </trkpt>
      <trkpt lat="44.36037" lon="3.40443">
        <ele>601.79998779297</ele>
        <time>2024-01-30T09:55:40.000Z</time>
      </trkpt>
      <trkpt lat="44.36045" lon="3.40445">
        <ele>602.59997558594</ele>
        <time>2024-01-30T09:55:41.000Z</time>
      </trkpt>
      <trkpt lat="44.36056" lon="3.40451">
        <ele>603.59997558594</ele>
        <time>2024-01-30T09:55:42.000Z</time>
      </trkpt>
      <trkpt lat="44.36073" lon="3.40466">
        <ele>604.59997558594</ele>
        <time>2024-01-30T09:55:44.000Z</time>
      </trkpt>
      <trkpt lat="44.36082" lon="3.40473">
        <ele>605.40002441406</ele>
        <time>2024-01-30T09:55:45.000Z</time>
      </trkpt>
      <trkpt lat="44.36102" lon="3.40479">
        <ele>606.40002441406</ele>
        <time>2024-01-30T09:55:47.000Z</time>
      </trkpt>
      <trkpt lat="44.36124" lon="3.40483">
        <ele>607.79998779297</ele>
        <time>2024-01-30T09:55:49.000Z</time>
      </trkpt>
      <trkpt lat="44.36143" lon="3.40489">
        <ele>609</ele>
        <time>2024-01-30T09:55:51.000Z</time>
      </trkpt>
      <trkpt lat="44.36154" lon="3.40496">
        <ele>609.59997558594</ele>
        <time>2024-01-30T09:55:52.000Z</time>
      </trkpt>
      <trkpt lat="44.36162" lon="3.40504">
        <ele>610.20001220703</ele>
        <time>2024-01-30T09:55:53.000Z</time>
      </trkpt>
      <trkpt lat="44.36172" lon="3.40526">
        <ele>611.59997558594</ele>
        <time>2024-01-30T09:55:55.000Z</time>
      </trkpt>
      <trkpt lat="44.3618" lon="3.40555">
        <ele>613</ele>
        <time>2024-01-30T09:55:57.000Z</time>
      </trkpt>
      <trkpt lat="44.36184" lon="3.40569">
        <ele>614.20001220703</ele>
        <time>2024-01-30T09:55:58.000Z</time>
      </trkpt>
      <trkpt lat="44.36189" lon="3.40585">
        <ele>615.40002441406</ele>
        <time>2024-01-30T09:55:59.000Z</time>
      </trkpt>
      <trkpt lat="44.36199" lon="3.40615">
        <ele>616.59997558594</ele>
        <time>2024-01-30T09:56:01.000Z</time>
      </trkpt>
      <trkpt lat="44.36211" lon="3.40643">
        <ele>618.20001220703</ele>
        <time>2024-01-30T09:56:03.000Z</time>
      </trkpt>
      <trkpt lat="44.36224" lon="3.40671">
        <ele>619.79998779297</ele>
        <time>2024-01-30T09:56:05.000Z</time>
      </trkpt>
      <trkpt lat="44.36237" lon="3.40698">
        <ele>621.20001220703</ele>
        <time>2024-01-30T09:56:07.000Z</time>
      </trkpt>
      <trkpt lat="44.36249" lon="3.40722">
        <ele>623</ele>
        <time>2024-01-30T09:56:09.000Z</time>
      </trkpt>
      <trkpt lat="44.3626" lon="3.40742">
        <ele>623.79998779297</ele>
        <time>2024-01-30T09:56:11.000Z</time>
      </trkpt>
      <trkpt lat="44.36267" lon="3.4075">
        <ele>624.40002441406</ele>
        <time>2024-01-30T09:56:12.000Z</time>
      </trkpt>
      <trkpt lat="44.36273" lon="3.40754">
        <ele>625.20001220703</ele>
        <time>2024-01-30T09:56:13.000Z</time>
      </trkpt>
      <trkpt lat="44.36283" lon="3.40757">
        <ele>626</ele>
        <time>2024-01-30T09:56:14.000Z</time>
      </trkpt>
      <trkpt lat="44.3629" lon="3.40756">
        <ele>626.59997558594</ele>
        <time>2024-01-30T09:56:15.000Z</time>
      </trkpt>
      <trkpt lat="44.363" lon="3.40753">
        <ele>627.20001220703</ele>
        <time>2024-01-30T09:56:16.000Z</time>
      </trkpt>
      <trkpt lat="44.36311" lon="3.40748">
        <ele>627.79998779297</ele>
        <time>2024-01-30T09:56:17.000Z</time>
      </trkpt>
      <trkpt lat="44.36318" lon="3.40745">
        <ele>628.79998779297</ele>
        <time>2024-01-30T09:56:18.000Z</time>
      </trkpt>
      <trkpt lat="44.36328" lon="3.40742">
        <ele>629.20001220703</ele>
        <time>2024-01-30T09:56:19.000Z</time>
      </trkpt>
      <trkpt lat="44.36339" lon="3.40743">
        <ele>629.79998779297</ele>
        <time>2024-01-30T09:56:20.000Z</time>
      </trkpt>
      <trkpt lat="44.36349" lon="3.40746">
        <ele>630.40002441406</ele>
        <time>2024-01-30T09:56:21.000Z</time>
      </trkpt>
      <trkpt lat="44.36359" lon="3.40747">
        <ele>630.79998779297</ele>
        <time>2024-01-30T09:56:22.000Z</time>
      </trkpt>
      <trkpt lat="44.36377" lon="3.40747">
        <ele>631.59997558594</ele>
        <time>2024-01-30T09:56:24.000Z</time>
      </trkpt>
      <trkpt lat="44.36397" lon="3.4074">
        <ele>632.59997558594</ele>
        <time>2024-01-30T09:56:26.000Z</time>
      </trkpt>
      <trkpt lat="44.36405" lon="3.40735">
        <ele>633.20001220703</ele>
        <time>2024-01-30T09:56:27.000Z</time>
      </trkpt>
      <trkpt lat="44.36412" lon="3.40728">
        <ele>633.79998779297</ele>
        <time>2024-01-30T09:56:28.000Z</time>
      </trkpt>
      <trkpt lat="44.36425" lon="3.4071">
        <ele>635.40002441406</ele>
        <time>2024-01-30T09:56:30.000Z</time>
      </trkpt>
      <trkpt lat="44.36435" lon="3.40686">
        <ele>636.20001220703</ele>
        <time>2024-01-30T09:56:32.000Z</time>
      </trkpt>
      <trkpt lat="44.36438" lon="3.40673">
        <ele>637</ele>
        <time>2024-01-30T09:56:33.000Z</time>
      </trkpt>
      <trkpt lat="44.3644" lon="3.40659">
        <ele>637.40002441406</ele>
        <time>2024-01-30T09:56:34.000Z</time>
      </trkpt>
      <trkpt lat="44.36443" lon="3.40634">
        <ele>638.40002441406</ele>
        <time>2024-01-30T09:56:36.000Z</time>
      </trkpt>
      <trkpt lat="44.36447" lon="3.40619">
        <ele>639.40002441406</ele>
        <time>2024-01-30T09:56:37.000Z</time>
      </trkpt>
      <trkpt lat="44.36451" lon="3.40607">
        <ele>639.79998779297</ele>
        <time>2024-01-30T09:56:38.000Z</time>
      </trkpt>
      <trkpt lat="44.36457" lon="3.40597">
        <ele>640.59997558594</ele>
        <time>2024-01-30T09:56:39.000Z</time>
      </trkpt>
      <trkpt lat="44.36464" lon="3.4059">
        <ele>641.20001220703</ele>
        <time>2024-01-30T09:56:40.000Z</time>
      </trkpt>
      <trkpt lat="44.3647" lon="3.40586">
        <ele>641.59997558594</ele>
        <time>2024-01-30T09:56:41.000Z</time>
      </trkpt>
      <trkpt lat="44.36489" lon="3.40586">
        <ele>642.79998779297</ele>
        <time>2024-01-30T09:56:43.000Z</time>
      </trkpt>
      <trkpt lat="44.36498" lon="3.40591">
        <ele>643.40002441406</ele>
        <time>2024-01-30T09:56:44.000Z</time>
      </trkpt>
      <trkpt lat="44.36508" lon="3.40597">
        <ele>644.20001220703</ele>
        <time>2024-01-30T09:56:45.000Z</time>
      </trkpt>
      <trkpt lat="44.36526" lon="3.40609">
        <ele>645.59997558594</ele>
        <time>2024-01-30T09:56:47.000Z</time>
      </trkpt>
      <trkpt lat="44.36536" lon="3.40614">
        <ele>646.40002441406</ele>
        <time>2024-01-30T09:56:48.000Z</time>
      </trkpt>
      <trkpt lat="44.36548" lon="3.40621">
        <ele>647</ele>
        <time>2024-01-30T09:56:49.000Z</time>
      </trkpt>
      <trkpt lat="44.36567" lon="3.40631">
        <ele>648.20001220703</ele>
        <time>2024-01-30T09:56:51.000Z</time>
      </trkpt>
      <trkpt lat="44.36586" lon="3.4064">
        <ele>649.40002441406</ele>
        <time>2024-01-30T09:56:53.000Z</time>
      </trkpt>
      <trkpt lat="44.36596" lon="3.40643">
        <ele>650.40002441406</ele>
        <time>2024-01-30T09:56:54.000Z</time>
      </trkpt>
      <trkpt lat="44.36606" lon="3.40644">
        <ele>650.79998779297</ele>
        <time>2024-01-30T09:56:55.000Z</time>
      </trkpt>
      <trkpt lat="44.36616" lon="3.40644">
        <ele>652</ele>
        <time>2024-01-30T09:56:56.000Z</time>
      </trkpt>
      <trkpt lat="44.36637" lon="3.40639">
        <ele>653.40002441406</ele>
        <time>2024-01-30T09:56:58.000Z</time>
      </trkpt>
      <trkpt lat="44.36656" lon="3.40629">
        <ele>654.59997558594</ele>
        <time>2024-01-30T09:57:00.000Z</time>
      </trkpt>
      <trkpt lat="44.36665" lon="3.40622">
        <ele>655.20001220703</ele>
        <time>2024-01-30T09:57:01.000Z</time>
      </trkpt>
      <trkpt lat="44.36673" lon="3.40614">
        <ele>655.79998779297</ele>
        <time>2024-01-30T09:57:02.000Z</time>
      </trkpt>
      <trkpt lat="44.36688" lon="3.40596">
        <ele>657.20001220703</ele>
        <time>2024-01-30T09:57:04.000Z</time>
      </trkpt>
      <trkpt lat="44.36697" lon="3.40589">
        <ele>657.79998779297</ele>
        <time>2024-01-30T09:57:05.000Z</time>
      </trkpt>
      <trkpt lat="44.36703" lon="3.40587">
        <ele>658</ele>
        <time>2024-01-30T09:57:06.000Z</time>
      </trkpt>
      <trkpt lat="44.36711" lon="3.40589">
        <ele>658.40002441406</ele>
        <time>2024-01-30T09:57:07.000Z</time>
      </trkpt>
      <trkpt lat="44.36719" lon="3.40595">
        <ele>659.40002441406</ele>
        <time>2024-01-30T09:57:08.000Z</time>
      </trkpt>
      <trkpt lat="44.36736" lon="3.4061">
        <ele>661</ele>
        <time>2024-01-30T09:57:10.000Z</time>
      </trkpt>
      <trkpt lat="44.36757" lon="3.40625">
        <ele>662.59997558594</ele>
        <time>2024-01-30T09:57:12.000Z</time>
      </trkpt>
      <trkpt lat="44.36768" lon="3.40631">
        <ele>663.79998779297</ele>
        <time>2024-01-30T09:57:13.000Z</time>
      </trkpt>
      <trkpt lat="44.3678" lon="3.40635">
        <ele>664.59997558594</ele>
        <time>2024-01-30T09:57:14.000Z</time>
      </trkpt>
      <trkpt lat="44.36794" lon="3.40639">
        <ele>665.59997558594</ele>
        <time>2024-01-30T09:57:15.000Z</time>
      </trkpt>
      <trkpt lat="44.36818" lon="3.40641">
        <ele>666.79998779297</ele>
        <time>2024-01-30T09:57:17.000Z</time>
      </trkpt>
      <trkpt lat="44.3683" lon="3.4064">
        <ele>667.59997558594</ele>
        <time>2024-01-30T09:57:18.000Z</time>
      </trkpt>
      <trkpt lat="44.36842" lon="3.40637">
        <ele>667.79998779297</ele>
        <time>2024-01-30T09:57:19.000Z</time>
      </trkpt>
      <trkpt lat="44.36864" lon="3.40628">
        <ele>669.20001220703</ele>
        <time>2024-01-30T09:57:21.000Z</time>
      </trkpt>
      <trkpt lat="44.36875" lon="3.40626">
        <ele>670</ele>
        <time>2024-01-30T09:57:22.000Z</time>
      </trkpt>
      <trkpt lat="44.36886" lon="3.40626">
        <ele>670.79998779297</ele>
        <time>2024-01-30T09:57:23.000Z</time>
      </trkpt>
      <trkpt lat="44.36896" lon="3.4063">
        <ele>671.79998779297</ele>
        <time>2024-01-30T09:57:24.000Z</time>
      </trkpt>
      <trkpt lat="44.36905" lon="3.40637">
        <ele>672.59997558594</ele>
        <time>2024-01-30T09:57:25.000Z</time>
      </trkpt>
      <trkpt lat="44.36913" lon="3.40649">
        <ele>673.79998779297</ele>
        <time>2024-01-30T09:57:26.000Z</time>
      </trkpt>
      <trkpt lat="44.3692" lon="3.40662">
        <ele>675</ele>
        <time>2024-01-30T09:57:27.000Z</time>
      </trkpt>
      <trkpt lat="44.36929" lon="3.40674">
        <ele>675.59997558594</ele>
        <time>2024-01-30T09:57:28.000Z</time>
      </trkpt>
      <trkpt lat="44.36938" lon="3.40687">
        <ele>676.20001220703</ele>
        <time>2024-01-30T09:57:29.000Z</time>
      </trkpt>
      <trkpt lat="44.36956" lon="3.40712">
        <ele>677.79998779297</ele>
        <time>2024-01-30T09:57:31.000Z</time>
      </trkpt>
      <trkpt lat="44.36963" lon="3.40723">
        <ele>678.79998779297</ele>
        <time>2024-01-30T09:57:32.000Z</time>
      </trkpt>
      <trkpt lat="44.36969" lon="3.40738">
        <ele>679.40002441406</ele>
        <time>2024-01-30T09:57:33.000Z</time>
      </trkpt>
      <trkpt lat="44.36975" lon="3.40755">
        <ele>680.20001220703</ele>
        <time>2024-01-30T09:57:34.000Z</time>
      </trkpt>
      <trkpt lat="44.36979" lon="3.40773">
        <ele>681.59997558594</ele>
        <time>2024-01-30T09:57:35.000Z</time>
      </trkpt>
      <trkpt lat="44.36988" lon="3.40809">
        <ele>683.20001220703</ele>
        <time>2024-01-30T09:57:37.000Z</time>
      </trkpt>
      <trkpt lat="44.36996" lon="3.40844">
        <ele>685</ele>
        <time>2024-01-30T09:57:39.000Z</time>
      </trkpt>
      <trkpt lat="44.36999" lon="3.40862">
        <ele>686</ele>
        <time>2024-01-30T09:57:40.000Z</time>
      </trkpt>
      <trkpt lat="44.37002" lon="3.4088">
        <ele>686.79998779297</ele>
        <time>2024-01-30T09:57:41.000Z</time>
      </trkpt>
      <trkpt lat="44.37005" lon="3.40897">
        <ele>687.59997558594</ele>
        <time>2024-01-30T09:57:42.000Z</time>
      </trkpt>
      <trkpt lat="44.37016" lon="3.4093">
        <ele>689</ele>
        <time>2024-01-30T09:57:44.000Z</time>
      </trkpt>
      <trkpt lat="44.37027" lon="3.40961">
        <ele>690.59997558594</ele>
        <time>2024-01-30T09:57:46.000Z</time>
      </trkpt>
      <trkpt lat="44.37035" lon="3.40979">
        <ele>691</ele>
        <time>2024-01-30T09:57:47.000Z</time>
      </trkpt>
      <trkpt lat="44.37043" lon="3.40991">
        <ele>691.20001220703</ele>
        <time>2024-01-30T09:57:48.000Z</time>
      </trkpt>
      <trkpt lat="44.37052" lon="3.41002">
        <ele>692.20001220703</ele>
        <time>2024-01-30T09:57:49.000Z</time>
      </trkpt>
      <trkpt lat="44.37073" lon="3.41018">
        <ele>693.79998779297</ele>
        <time>2024-01-30T09:57:51.000Z</time>
      </trkpt>
      <trkpt lat="44.37097" lon="3.41029">
        <ele>695.59997558594</ele>
        <time>2024-01-30T09:57:53.000Z</time>
      </trkpt>
      <trkpt lat="44.37122" lon="3.41036">
        <ele>697</ele>
        <time>2024-01-30T09:57:55.000Z</time>
      </trkpt>
      <trkpt lat="44.37147" lon="3.4104">
        <ele>698.59997558594</ele>
        <time>2024-01-30T09:57:57.000Z</time>
      </trkpt>
      <trkpt lat="44.37157" lon="3.41044">
        <ele>699.20001220703</ele>
        <time>2024-01-30T09:57:58.000Z</time>
      </trkpt>
      <trkpt lat="44.37167" lon="3.41051">
        <ele>700.20001220703</ele>
        <time>2024-01-30T09:57:59.000Z</time>
      </trkpt>
      <trkpt lat="44.37186" lon="3.41067">
        <ele>701.79998779297</ele>
        <time>2024-01-30T09:58:01.000Z</time>
      </trkpt>
      <trkpt lat="44.37196" lon="3.41074">
        <ele>702.59997558594</ele>
        <time>2024-01-30T09:58:02.000Z</time>
      </trkpt>
      <trkpt lat="44.37203" lon="3.41078">
        <ele>703.40002441406</ele>
        <time>2024-01-30T09:58:03.000Z</time>
      </trkpt>
      <trkpt lat="44.37221" lon="3.41093">
        <ele>704.40002441406</ele>
        <time>2024-01-30T09:58:05.000Z</time>
      </trkpt>
      <trkpt lat="44.37226" lon="3.41101">
        <ele>705</ele>
        <time>2024-01-30T09:58:06.000Z</time>
      </trkpt>
      <trkpt lat="44.37228" lon="3.41108">
        <ele>705.79998779297</ele>
        <time>2024-01-30T09:58:07.000Z</time>
      </trkpt>
      <trkpt lat="44.37229" lon="3.41121">
        <ele>706.59997558594</ele>
        <time>2024-01-30T09:58:08.000Z</time>
      </trkpt>
      <trkpt lat="44.37228" lon="3.41132">
        <ele>707</ele>
        <time>2024-01-30T09:58:09.000Z</time>
      </trkpt>
      <trkpt lat="44.37227" lon="3.41157">
        <ele>708.40002441406</ele>
        <time>2024-01-30T09:58:11.000Z</time>
      </trkpt>
      <trkpt lat="44.3723" lon="3.4117">
        <ele>708.79998779297</ele>
        <time>2024-01-30T09:58:12.000Z</time>
      </trkpt>
      <trkpt lat="44.37234" lon="3.41179">
        <ele>709.40002441406</ele>
        <time>2024-01-30T09:58:13.000Z</time>
      </trkpt>
      <trkpt lat="44.37247" lon="3.41201">
        <ele>711.20001220703</ele>
        <time>2024-01-30T09:58:15.000Z</time>
      </trkpt>
      <trkpt lat="44.37264" lon="3.41227">
        <ele>712.79998779297</ele>
        <time>2024-01-30T09:58:17.000Z</time>
      </trkpt>
      <trkpt lat="44.37281" lon="3.41248">
        <ele>714.79998779297</ele>
        <time>2024-01-30T09:58:19.000Z</time>
      </trkpt>
      <trkpt lat="44.37299" lon="3.41272">
        <ele>716.20001220703</ele>
        <time>2024-01-30T09:58:21.000Z</time>
      </trkpt>
      <trkpt lat="44.37317" lon="3.41296">
        <ele>717.40002441406</ele>
        <time>2024-01-30T09:58:23.000Z</time>
      </trkpt>
      <trkpt lat="44.37324" lon="3.4131">
        <ele>718.20001220703</ele>
        <time>2024-01-30T09:58:24.000Z</time>
      </trkpt>
      <trkpt lat="44.37327" lon="3.41325">
        <ele>719.20001220703</ele>
        <time>2024-01-30T09:58:25.000Z</time>
      </trkpt>
      <trkpt lat="44.3733" lon="3.41346">
        <ele>720.20001220703</ele>
        <time>2024-01-30T09:58:26.000Z</time>
      </trkpt>
      <trkpt lat="44.37331" lon="3.41361">
        <ele>720.59997558594</ele>
        <time>2024-01-30T09:58:27.000Z</time>
      </trkpt>
      <trkpt lat="44.37332" lon="3.4138">
        <ele>721.79998779297</ele>
        <time>2024-01-30T09:58:28.000Z</time>
      </trkpt>
      <trkpt lat="44.37335" lon="3.41417">
        <ele>723</ele>
        <time>2024-01-30T09:58:30.000Z</time>
      </trkpt>
      <trkpt lat="44.37346" lon="3.4145">
        <ele>724.59997558594</ele>
        <time>2024-01-30T09:58:32.000Z</time>
      </trkpt>
      <trkpt lat="44.37354" lon="3.41464">
        <ele>725.59997558594</ele>
        <time>2024-01-30T09:58:33.000Z</time>
      </trkpt>
      <trkpt lat="44.37374" lon="3.41489">
        <ele>727.59997558594</ele>
        <time>2024-01-30T09:58:35.000Z</time>
      </trkpt>
      <trkpt lat="44.37385" lon="3.41501">
        <ele>728.59997558594</ele>
        <time>2024-01-30T09:58:36.000Z</time>
      </trkpt>
      <trkpt lat="44.37406" lon="3.41529">
        <ele>730.40002441406</ele>
        <time>2024-01-30T09:58:38.000Z</time>
      </trkpt>
      <trkpt lat="44.37412" lon="3.4154">
        <ele>731.40002441406</ele>
        <time>2024-01-30T09:58:39.000Z</time>
      </trkpt>
      <trkpt lat="44.37421" lon="3.41557">
        <ele>732.20001220703</ele>
        <time>2024-01-30T09:58:40.000Z</time>
      </trkpt>
      <trkpt lat="44.37427" lon="3.41572">
        <ele>733</ele>
        <time>2024-01-30T09:58:41.000Z</time>
      </trkpt>
      <trkpt lat="44.37439" lon="3.416">
        <ele>734.20001220703</ele>
        <time>2024-01-30T09:58:43.000Z</time>
      </trkpt>
      <trkpt lat="44.37446" lon="3.41613">
        <ele>734.79998779297</ele>
        <time>2024-01-30T09:58:44.000Z</time>
      </trkpt>
      <trkpt lat="44.37454" lon="3.41625">
        <ele>735.59997558594</ele>
        <time>2024-01-30T09:58:45.000Z</time>
      </trkpt>
      <trkpt lat="44.37464" lon="3.41634">
        <ele>736</ele>
        <time>2024-01-30T09:58:46.000Z</time>
      </trkpt>
      <trkpt lat="44.37475" lon="3.41643">
        <ele>737</ele>
        <time>2024-01-30T09:58:47.000Z</time>
      </trkpt>
      <trkpt lat="44.37496" lon="3.4166">
        <ele>738.79998779297</ele>
        <time>2024-01-30T09:58:49.000Z</time>
      </trkpt>
      <trkpt lat="44.37507" lon="3.41668">
        <ele>739.79998779297</ele>
        <time>2024-01-30T09:58:50.000Z</time>
      </trkpt>
      <trkpt lat="44.37519" lon="3.41673">
        <ele>740.59997558594</ele>
        <time>2024-01-30T09:58:51.000Z</time>
      </trkpt>
      <trkpt lat="44.37532" lon="3.41676">
        <ele>741.59997558594</ele>
        <time>2024-01-30T09:58:52.000Z</time>
      </trkpt>
      <trkpt lat="44.37559" lon="3.41678">
        <ele>743.20001220703</ele>
        <time>2024-01-30T09:58:54.000Z</time>
      </trkpt>
      <trkpt lat="44.37585" lon="3.4168">
        <ele>744.79998779297</ele>
        <time>2024-01-30T09:58:56.000Z</time>
      </trkpt>
      <trkpt lat="44.37597" lon="3.41684">
        <ele>745.79998779297</ele>
        <time>2024-01-30T09:58:57.000Z</time>
      </trkpt>
      <trkpt lat="44.3761" lon="3.41689">
        <ele>746.79998779297</ele>
        <time>2024-01-30T09:58:58.000Z</time>
      </trkpt>
      <trkpt lat="44.37622" lon="3.41697">
        <ele>747.59997558594</ele>
        <time>2024-01-30T09:58:59.000Z</time>
      </trkpt>
      <trkpt lat="44.37634" lon="3.41707">
        <ele>748.59997558594</ele>
        <time>2024-01-30T09:59:00.000Z</time>
      </trkpt>
      <trkpt lat="44.37646" lon="3.41717">
        <ele>749.79998779297</ele>
        <time>2024-01-30T09:59:01.000Z</time>
      </trkpt>
      <trkpt lat="44.3767" lon="3.4174">
        <ele>751.59997558594</ele>
        <time>2024-01-30T09:59:03.000Z</time>
      </trkpt>
      <trkpt lat="44.37685" lon="3.41753">
        <ele>752.59997558594</ele>
        <time>2024-01-30T09:59:04.000Z</time>
      </trkpt>
      <trkpt lat="44.37696" lon="3.41764">
        <ele>753.59997558594</ele>
        <time>2024-01-30T09:59:05.000Z</time>
      </trkpt>
      <trkpt lat="44.37718" lon="3.41789">
        <ele>755.59997558594</ele>
        <time>2024-01-30T09:59:07.000Z</time>
      </trkpt>
      <trkpt lat="44.37736" lon="3.41819">
        <ele>757.40002441406</ele>
        <time>2024-01-30T09:59:09.000Z</time>
      </trkpt>
      <trkpt lat="44.37746" lon="3.41831">
        <ele>758.20001220703</ele>
        <time>2024-01-30T09:59:10.000Z</time>
      </trkpt>
      <trkpt lat="44.37757" lon="3.41841">
        <ele>759.20001220703</ele>
        <time>2024-01-30T09:59:11.000Z</time>
      </trkpt>
      <trkpt lat="44.37779" lon="3.41859">
        <ele>761</ele>
        <time>2024-01-30T09:59:13.000Z</time>
      </trkpt>
      <trkpt lat="44.37789" lon="3.41868">
        <ele>762</ele>
        <time>2024-01-30T09:59:14.000Z</time>
      </trkpt>
      <trkpt lat="44.3781" lon="3.41886">
        <ele>763.40002441406</ele>
        <time>2024-01-30T09:59:16.000Z</time>
      </trkpt>
      <trkpt lat="44.37829" lon="3.4191">
        <ele>765</ele>
        <time>2024-01-30T09:59:18.000Z</time>
      </trkpt>
      <trkpt lat="44.37836" lon="3.41921">
        <ele>766.20001220703</ele>
        <time>2024-01-30T09:59:19.000Z</time>
      </trkpt>
      <trkpt lat="44.37854" lon="3.41953">
        <ele>768</ele>
        <time>2024-01-30T09:59:21.000Z</time>
      </trkpt>
      <trkpt lat="44.37861" lon="3.41965">
        <ele>769</ele>
        <time>2024-01-30T09:59:22.000Z</time>
      </trkpt>
      <trkpt lat="44.3788" lon="3.41998">
        <ele>771</ele>
        <time>2024-01-30T09:59:24.000Z</time>
      </trkpt>
      <trkpt lat="44.37894" lon="3.4203">
        <ele>772.40002441406</ele>
        <time>2024-01-30T09:59:26.000Z</time>
      </trkpt>
      <trkpt lat="44.379" lon="3.42047">
        <ele>773.40002441406</ele>
        <time>2024-01-30T09:59:27.000Z</time>
      </trkpt>
      <trkpt lat="44.37913" lon="3.4208">
        <ele>775.40002441406</ele>
        <time>2024-01-30T09:59:29.000Z</time>
      </trkpt>
      <trkpt lat="44.37921" lon="3.42094">
        <ele>776</ele>
        <time>2024-01-30T09:59:30.000Z</time>
      </trkpt>
      <trkpt lat="44.37932" lon="3.42106">
        <ele>776.79998779297</ele>
        <time>2024-01-30T09:59:31.000Z</time>
      </trkpt>
      <trkpt lat="44.37951" lon="3.42127">
        <ele>778.59997558594</ele>
        <time>2024-01-30T09:59:33.000Z</time>
      </trkpt>
      <trkpt lat="44.37962" lon="3.42138">
        <ele>779.59997558594</ele>
        <time>2024-01-30T09:59:34.000Z</time>
      </trkpt>
      <trkpt lat="44.37973" lon="3.42149">
        <ele>780.40002441406</ele>
        <time>2024-01-30T09:59:35.000Z</time>
      </trkpt>
      <trkpt lat="44.37994" lon="3.42171">
        <ele>782</ele>
        <time>2024-01-30T09:59:37.000Z</time>
      </trkpt>
      <trkpt lat="44.38016" lon="3.42191">
        <ele>784</ele>
        <time>2024-01-30T09:59:39.000Z</time>
      </trkpt>
      <trkpt lat="44.38044" lon="3.42203">
        <ele>786</ele>
        <time>2024-01-30T09:59:41.000Z</time>
      </trkpt>
      <trkpt lat="44.38058" lon="3.42203">
        <ele>786.79998779297</ele>
        <time>2024-01-30T09:59:42.000Z</time>
      </trkpt>
      <trkpt lat="44.38071" lon="3.42201">
        <ele>787.79998779297</ele>
        <time>2024-01-30T09:59:43.000Z</time>
      </trkpt>
      <trkpt lat="44.38084" lon="3.42197">
        <ele>788.79998779297</ele>
        <time>2024-01-30T09:59:44.000Z</time>
      </trkpt>
      <trkpt lat="44.38098" lon="3.42193">
        <ele>790.20001220703</ele>
        <time>2024-01-30T09:59:45.000Z</time>
      </trkpt>
      <trkpt lat="44.38111" lon="3.42189">
        <ele>791.40002441406</ele>
        <time>2024-01-30T09:59:46.000Z</time>
      </trkpt>
      <trkpt lat="44.38124" lon="3.42186">
        <ele>792.59997558594</ele>
        <time>2024-01-30T09:59:47.000Z</time>
      </trkpt>
      <trkpt lat="44.38138" lon="3.42183">
        <ele>794.20001220703</ele>
        <time>2024-01-30T09:59:48.000Z</time>
      </trkpt>
      <trkpt lat="44.38152" lon="3.42182">
        <ele>795.59997558594</ele>
        <time>2024-01-30T09:59:49.000Z</time>
      </trkpt>
      <trkpt lat="44.38165" lon="3.42181">
        <ele>796.59997558594</ele>
        <time>2024-01-30T09:59:50.000Z</time>
      </trkpt>
      <trkpt lat="44.38179" lon="3.42184">
        <ele>798</ele>
        <time>2024-01-30T09:59:51.000Z</time>
      </trkpt>
      <trkpt lat="44.38194" lon="3.42186">
        <ele>799.59997558594</ele>
        <time>2024-01-30T09:59:52.000Z</time>
      </trkpt>
      <trkpt lat="44.38209" lon="3.4219">
        <ele>801.59997558594</ele>
        <time>2024-01-30T09:59:53.000Z</time>
      </trkpt>
      <trkpt lat="44.38224" lon="3.42193">
        <ele>803.20001220703</ele>
        <time>2024-01-30T09:59:54.000Z</time>
      </trkpt>
      <trkpt lat="44.3824" lon="3.42196">
        <ele>805</ele>
        <time>2024-01-30T09:59:55.000Z</time>
      </trkpt>
      <trkpt lat="44.38253" lon="3.42198">
        <ele>806.40002441406</ele>
        <time>2024-01-30T09:59:56.000Z</time>
      </trkpt>
      <trkpt lat="44.38272" lon="3.422">
        <ele>807.79998779297</ele>
        <time>2024-01-30T09:59:57.000Z</time>
      </trkpt>
      <trkpt lat="44.38286" lon="3.42199">
        <ele>809.59997558594</ele>
        <time>2024-01-30T09:59:58.000Z</time>
      </trkpt>
      <trkpt lat="44.38303" lon="3.42197">
        <ele>811.40002441406</ele>
        <time>2024-01-30T09:59:59.000Z</time>
      </trkpt>
      <trkpt lat="44.3832" lon="3.42193">
        <ele>813</ele>
        <time>2024-01-30T10:00:00.000Z</time>
      </trkpt>
      <trkpt lat="44.38338" lon="3.42189">
        <ele>814.59997558594</ele>
        <time>2024-01-30T10:00:01.000Z</time>
      </trkpt>
      <trkpt lat="44.38355" lon="3.42187">
        <ele>816.59997558594</ele>
        <time>2024-01-30T10:00:02.000Z</time>
      </trkpt>
      <trkpt lat="44.38373" lon="3.42186">
        <ele>818.40002441406</ele>
        <time>2024-01-30T10:00:03.000Z</time>
      </trkpt>
      <trkpt lat="44.38391" lon="3.42186">
        <ele>820.40002441406</ele>
        <time>2024-01-30T10:00:04.000Z</time>
      </trkpt>
      <trkpt lat="44.38409" lon="3.42188">
        <ele>822.20001220703</ele>
        <time>2024-01-30T10:00:05.000Z</time>
      </trkpt>
      <trkpt lat="44.38428" lon="3.42191">
        <ele>824</ele>
        <time>2024-01-30T10:00:06.000Z</time>
      </trkpt>
      <trkpt lat="44.38451" lon="3.42197">
        <ele>826.20001220703</ele>
        <time>2024-01-30T10:00:07.000Z</time>
      </trkpt>
      <trkpt lat="44.38469" lon="3.42203">
        <ele>827.79998779297</ele>
        <time>2024-01-30T10:00:08.000Z</time>
      </trkpt>
      <trkpt lat="44.38484" lon="3.42208">
        <ele>829.20001220703</ele>
        <time>2024-01-30T10:00:09.000Z</time>
      </trkpt>
      <trkpt lat="44.38501" lon="3.42216">
        <ele>831</ele>
        <time>2024-01-30T10:00:10.000Z</time>
      </trkpt>
      <trkpt lat="44.38518" lon="3.42229">
        <ele>832.59997558594</ele>
        <time>2024-01-30T10:00:11.000Z</time>
      </trkpt>
      <trkpt lat="44.38533" lon="3.42242">
        <ele>834</ele>
        <time>2024-01-30T10:00:12.000Z</time>
      </trkpt>
      <trkpt lat="44.38551" lon="3.42257">
        <ele>836</ele>
        <time>2024-01-30T10:00:13.000Z</time>
      </trkpt>
      <trkpt lat="44.38564" lon="3.42264">
        <ele>837.40002441406</ele>
        <time>2024-01-30T10:00:14.000Z</time>
      </trkpt>
      <trkpt lat="44.38582" lon="3.42271">
        <ele>839</ele>
        <time>2024-01-30T10:00:15.000Z</time>
      </trkpt>
      <trkpt lat="44.38594" lon="3.42273">
        <ele>840.59997558594</ele>
        <time>2024-01-30T10:00:16.000Z</time>
      </trkpt>
      <trkpt lat="44.38609" lon="3.42271">
        <ele>842.59997558594</ele>
        <time>2024-01-30T10:00:17.000Z</time>
      </trkpt>
      <trkpt lat="44.38625" lon="3.42264">
        <ele>844</ele>
        <time>2024-01-30T10:00:18.000Z</time>
      </trkpt>
      <trkpt lat="44.3864" lon="3.42257">
        <ele>845.79998779297</ele>
        <time>2024-01-30T10:00:19.000Z</time>
      </trkpt>
      <trkpt lat="44.38657" lon="3.42249">
        <ele>847.59997558594</ele>
        <time>2024-01-30T10:00:20.000Z</time>
      </trkpt>
      <trkpt lat="44.38675" lon="3.42241">
        <ele>849</ele>
        <time>2024-01-30T10:00:21.000Z</time>
      </trkpt>
      <trkpt lat="44.38693" lon="3.42235">
        <ele>850.20001220703</ele>
        <time>2024-01-30T10:00:22.000Z</time>
      </trkpt>
      <trkpt lat="44.38711" lon="3.4223">
        <ele>851.79998779297</ele>
        <time>2024-01-30T10:00:23.000Z</time>
      </trkpt>
      <trkpt lat="44.38729" lon="3.42225">
        <ele>853.20001220703</ele>
        <time>2024-01-30T10:00:24.000Z</time>
      </trkpt>
      <trkpt lat="44.38748" lon="3.4222">
        <ele>854.79998779297</ele>
        <time>2024-01-30T10:00:25.000Z</time>
      </trkpt>
      <trkpt lat="44.38767" lon="3.42216">
        <ele>856.20001220703</ele>
        <time>2024-01-30T10:00:26.000Z</time>
      </trkpt>
      <trkpt lat="44.38786" lon="3.42212">
        <ele>857.20001220703</ele>
        <time>2024-01-30T10:00:27.000Z</time>
      </trkpt>
      <trkpt lat="44.38805" lon="3.4221">
        <ele>858.59997558594</ele>
        <time>2024-01-30T10:00:28.000Z</time>
      </trkpt>
      <trkpt lat="44.38828" lon="3.42209">
        <ele>859.79998779297</ele>
        <time>2024-01-30T10:00:29.000Z</time>
      </trkpt>
      <trkpt lat="44.38848" lon="3.42209">
        <ele>861.20001220703</ele>
        <time>2024-01-30T10:00:30.000Z</time>
      </trkpt>
      <trkpt lat="44.38867" lon="3.42208">
        <ele>861.79998779297</ele>
        <time>2024-01-30T10:00:31.000Z</time>
      </trkpt>
      <trkpt lat="44.38885" lon="3.42209">
        <ele>863.40002441406</ele>
        <time>2024-01-30T10:00:32.000Z</time>
      </trkpt>
      <trkpt lat="44.38921" lon="3.42211">
        <ele>864.59997558594</ele>
        <time>2024-01-30T10:00:34.000Z</time>
      </trkpt>
      <trkpt lat="44.38948" lon="3.42215">
        <ele>865.20001220703</ele>
        <time>2024-01-30T10:00:36.000Z</time>
      </trkpt>
      <trkpt lat="44.38975" lon="3.42229">
        <ele>866</ele>
        <time>2024-01-30T10:00:38.000Z</time>
      </trkpt>
      <trkpt lat="44.38982" lon="3.42239">
        <ele>866.79998779297</ele>
        <time>2024-01-30T10:00:39.000Z</time>
      </trkpt>
      <trkpt lat="44.38991" lon="3.42254">
        <ele>867.59997558594</ele>
        <time>2024-01-30T10:00:40.000Z</time>
      </trkpt>
      <trkpt lat="44.38996" lon="3.42266">
        <ele>868.59997558594</ele>
        <time>2024-01-30T10:00:41.000Z</time>
      </trkpt>
      <trkpt lat="44.39002" lon="3.42282">
        <ele>869.59997558594</ele>
        <time>2024-01-30T10:00:42.000Z</time>
      </trkpt>
      <trkpt lat="44.39016" lon="3.42314">
        <ele>871.59997558594</ele>
        <time>2024-01-30T10:00:44.000Z</time>
      </trkpt>
      <trkpt lat="44.3903" lon="3.42346">
        <ele>873.40002441406</ele>
        <time>2024-01-30T10:00:46.000Z</time>
      </trkpt>
      <trkpt lat="44.39038" lon="3.42363">
        <ele>874.59997558594</ele>
        <time>2024-01-30T10:00:47.000Z</time>
      </trkpt>
      <trkpt lat="44.39046" lon="3.42377">
        <ele>875.20001220703</ele>
        <time>2024-01-30T10:00:48.000Z</time>
      </trkpt>
      <trkpt lat="44.39056" lon="3.42391">
        <ele>875.59997558594</ele>
        <time>2024-01-30T10:00:49.000Z</time>
      </trkpt>
      <trkpt lat="44.39067" lon="3.42401">
        <ele>876.40002441406</ele>
        <time>2024-01-30T10:00:50.000Z</time>
      </trkpt>
      <trkpt lat="44.39079" lon="3.42409">
        <ele>877.40002441406</ele>
        <time>2024-01-30T10:00:51.000Z</time>
      </trkpt>
      <trkpt lat="44.39108" lon="3.42422">
        <ele>879.40002441406</ele>
        <time>2024-01-30T10:00:53.000Z</time>
      </trkpt>
      <trkpt lat="44.39123" lon="3.42429">
        <ele>880.59997558594</ele>
        <time>2024-01-30T10:00:54.000Z</time>
      </trkpt>
      <trkpt lat="44.39138" lon="3.42437">
        <ele>881.79998779297</ele>
        <time>2024-01-30T10:00:55.000Z</time>
      </trkpt>
      <trkpt lat="44.39166" lon="3.42455">
        <ele>884</ele>
        <time>2024-01-30T10:00:57.000Z</time>
      </trkpt>
      <trkpt lat="44.39181" lon="3.42465">
        <ele>885.20001220703</ele>
        <time>2024-01-30T10:00:58.000Z</time>
      </trkpt>
      <trkpt lat="44.39215" lon="3.4248">
        <ele>886.79998779297</ele>
        <time>2024-01-30T10:01:00.000Z</time>
      </trkpt>
      <trkpt lat="44.39229" lon="3.42484">
        <ele>888.20001220703</ele>
        <time>2024-01-30T10:01:01.000Z</time>
      </trkpt>
      <trkpt lat="44.39269" lon="3.42489">
        <ele>890.40002441406</ele>
        <time>2024-01-30T10:01:03.000Z</time>
      </trkpt>
      <trkpt lat="44.39287" lon="3.42491">
        <ele>892</ele>
        <time>2024-01-30T10:01:04.000Z</time>
      </trkpt>
      <trkpt lat="44.39304" lon="3.42496">
        <ele>893.20001220703</ele>
        <time>2024-01-30T10:01:05.000Z</time>
      </trkpt>
      <trkpt lat="44.39322" lon="3.42503">
        <ele>894.20001220703</ele>
        <time>2024-01-30T10:01:06.000Z</time>
      </trkpt>
      <trkpt lat="44.39339" lon="3.42512">
        <ele>895.59997558594</ele>
        <time>2024-01-30T10:01:07.000Z</time>
      </trkpt>
      <trkpt lat="44.39356" lon="3.42522">
        <ele>897</ele>
        <time>2024-01-30T10:01:08.000Z</time>
      </trkpt>
      <trkpt lat="44.39373" lon="3.42533">
        <ele>898.59997558594</ele>
        <time>2024-01-30T10:01:09.000Z</time>
      </trkpt>
      <trkpt lat="44.3939" lon="3.42545">
        <ele>900</ele>
        <time>2024-01-30T10:01:10.000Z</time>
      </trkpt>
      <trkpt lat="44.39425" lon="3.42568">
        <ele>902.79998779297</ele>
        <time>2024-01-30T10:01:12.000Z</time>
      </trkpt>
      <trkpt lat="44.39444" lon="3.42577">
        <ele>903.79998779297</ele>
        <time>2024-01-30T10:01:13.000Z</time>
      </trkpt>
      <trkpt lat="44.39462" lon="3.42585">
        <ele>905</ele>
        <time>2024-01-30T10:01:14.000Z</time>
      </trkpt>
      <trkpt lat="44.3948" lon="3.42593">
        <ele>906.20001220703</ele>
        <time>2024-01-30T10:01:15.000Z</time>
      </trkpt>
      <trkpt lat="44.39496" lon="3.42604">
        <ele>907</ele>
        <time>2024-01-30T10:01:16.000Z</time>
      </trkpt>
      <trkpt lat="44.39512" lon="3.42617">
        <ele>907.40002441406</ele>
        <time>2024-01-30T10:01:17.000Z</time>
      </trkpt>
      <trkpt lat="44.39542" lon="3.42647">
        <ele>909</ele>
        <time>2024-01-30T10:01:19.000Z</time>
      </trkpt>
      <trkpt lat="44.39557" lon="3.42662">
        <ele>910.40002441406</ele>
        <time>2024-01-30T10:01:20.000Z</time>
      </trkpt>
      <trkpt lat="44.39574" lon="3.42677">
        <ele>911.59997558594</ele>
        <time>2024-01-30T10:01:21.000Z</time>
      </trkpt>
      <trkpt lat="44.3959" lon="3.42693">
        <ele>912.59997558594</ele>
        <time>2024-01-30T10:01:22.000Z</time>
      </trkpt>
      <trkpt lat="44.39606" lon="3.42708">
        <ele>913.79998779297</ele>
        <time>2024-01-30T10:01:23.000Z</time>
      </trkpt>
      <trkpt lat="44.39622" lon="3.42722">
        <ele>915</ele>
        <time>2024-01-30T10:01:24.000Z</time>
      </trkpt>
      <trkpt lat="44.39655" lon="3.42749">
        <ele>915.59997558594</ele>
        <time>2024-01-30T10:01:26.000Z</time>
      </trkpt>
      <trkpt lat="44.39672" lon="3.42761">
        <ele>916.40002441406</ele>
        <time>2024-01-30T10:01:27.000Z</time>
      </trkpt>
      <trkpt lat="44.39721" lon="3.42799">
        <ele>917.79998779297</ele>
        <time>2024-01-30T10:01:30.000Z</time>
      </trkpt>
      <trkpt lat="44.39752" lon="3.42825">
        <ele>917.79998779297</ele>
        <time>2024-01-30T10:01:32.000Z</time>
      </trkpt>
      <trkpt lat="44.39808" lon="3.42871">
        <ele>918.79998779297</ele>
        <time>2024-01-30T10:01:35.000Z</time>
      </trkpt>
      <trkpt lat="44.39825" lon="3.42886">
        <ele>920.40002441406</ele>
        <time>2024-01-30T10:01:36.000Z</time>
      </trkpt>
      <trkpt lat="44.39842" lon="3.42901">
        <ele>922</ele>
        <time>2024-01-30T10:01:37.000Z</time>
      </trkpt>
      <trkpt lat="44.3986" lon="3.42915">
        <ele>923.79998779297</ele>
        <time>2024-01-30T10:01:38.000Z</time>
      </trkpt>
      <trkpt lat="44.39877" lon="3.4293">
        <ele>925.20001220703</ele>
        <time>2024-01-30T10:01:39.000Z</time>
      </trkpt>
      <trkpt lat="44.39894" lon="3.42944">
        <ele>927</ele>
        <time>2024-01-30T10:01:40.000Z</time>
      </trkpt>
      <trkpt lat="44.39927" lon="3.4297">
        <ele>928.79998779297</ele>
        <time>2024-01-30T10:01:42.000Z</time>
      </trkpt>
      <trkpt lat="44.39944" lon="3.42981">
        <ele>930.20001220703</ele>
        <time>2024-01-30T10:01:43.000Z</time>
      </trkpt>
      <trkpt lat="44.39962" lon="3.42988">
        <ele>931.20001220703</ele>
        <time>2024-01-30T10:01:44.000Z</time>
      </trkpt>
      <trkpt lat="44.39979" lon="3.42992">
        <ele>933</ele>
        <time>2024-01-30T10:01:45.000Z</time>
      </trkpt>
      <trkpt lat="44.39996" lon="3.42994">
        <ele>934.79998779297</ele>
        <time>2024-01-30T10:01:46.000Z</time>
      </trkpt>
      <trkpt lat="44.40012" lon="3.42996">
        <ele>936.20001220703</ele>
        <time>2024-01-30T10:01:47.000Z</time>
      </trkpt>
      <trkpt lat="44.40029" lon="3.43">
        <ele>937.79998779297</ele>
        <time>2024-01-30T10:01:48.000Z</time>
      </trkpt>
      <trkpt lat="44.40046" lon="3.43004">
        <ele>939.20001220703</ele>
        <time>2024-01-30T10:01:49.000Z</time>
      </trkpt>
      <trkpt lat="44.40064" lon="3.43009">
        <ele>940.79998779297</ele>
        <time>2024-01-30T10:01:50.000Z</time>
      </trkpt>
      <trkpt lat="44.40082" lon="3.43015">
        <ele>942</ele>
        <time>2024-01-30T10:01:51.000Z</time>
      </trkpt>
      <trkpt lat="44.401" lon="3.4302">
        <ele>943.40002441406</ele>
        <time>2024-01-30T10:01:52.000Z</time>
      </trkpt>
      <trkpt lat="44.40118" lon="3.43027">
        <ele>944.40002441406</ele>
        <time>2024-01-30T10:01:53.000Z</time>
      </trkpt>
      <trkpt lat="44.40155" lon="3.43041">
        <ele>946</ele>
        <time>2024-01-30T10:01:55.000Z</time>
      </trkpt>
      <trkpt lat="44.40174" lon="3.43049">
        <ele>947.40002441406</ele>
        <time>2024-01-30T10:01:56.000Z</time>
      </trkpt>
      <trkpt lat="44.40194" lon="3.43057">
        <ele>947.79998779297</ele>
        <time>2024-01-30T10:01:57.000Z</time>
      </trkpt>
      <trkpt lat="44.40214" lon="3.43066">
        <ele>948.59997558594</ele>
        <time>2024-01-30T10:01:58.000Z</time>
      </trkpt>
      <trkpt lat="44.40252" lon="3.43088">
        <ele>950.20001220703</ele>
        <time>2024-01-30T10:02:00.000Z</time>
      </trkpt>
      <trkpt lat="44.4027" lon="3.43101">
        <ele>951.59997558594</ele>
        <time>2024-01-30T10:02:01.000Z</time>
      </trkpt>
      <trkpt lat="44.40307" lon="3.43128">
        <ele>953.59997558594</ele>
        <time>2024-01-30T10:02:03.000Z</time>
      </trkpt>
      <trkpt lat="44.40324" lon="3.43142">
        <ele>954.79998779297</ele>
        <time>2024-01-30T10:02:04.000Z</time>
      </trkpt>
      <trkpt lat="44.40342" lon="3.43156">
        <ele>955.79998779297</ele>
        <time>2024-01-30T10:02:05.000Z</time>
      </trkpt>
      <trkpt lat="44.40359" lon="3.43171">
        <ele>956.59997558594</ele>
        <time>2024-01-30T10:02:06.000Z</time>
      </trkpt>
      <trkpt lat="44.40377" lon="3.43185">
        <ele>957.79998779297</ele>
        <time>2024-01-30T10:02:07.000Z</time>
      </trkpt>
      <trkpt lat="44.40395" lon="3.43197">
        <ele>959</ele>
        <time>2024-01-30T10:02:08.000Z</time>
      </trkpt>
      <trkpt lat="44.40431" lon="3.43216">
        <ele>960.40002441406</ele>
        <time>2024-01-30T10:02:10.000Z</time>
      </trkpt>
      <trkpt lat="44.40465" lon="3.43228">
        <ele>961.40002441406</ele>
        <time>2024-01-30T10:02:12.000Z</time>
      </trkpt>
      <trkpt lat="44.40481" lon="3.43233">
        <ele>962.40002441406</ele>
        <time>2024-01-30T10:02:13.000Z</time>
      </trkpt>
      <trkpt lat="44.40495" lon="3.43236">
        <ele>963.40002441406</ele>
        <time>2024-01-30T10:02:14.000Z</time>
      </trkpt>
      <trkpt lat="44.40521" lon="3.43234">
        <ele>965.59997558594</ele>
        <time>2024-01-30T10:02:16.000Z</time>
      </trkpt>
      <trkpt lat="44.40534" lon="3.43227">
        <ele>966.59997558594</ele>
        <time>2024-01-30T10:02:17.000Z</time>
      </trkpt>
      <trkpt lat="44.4056" lon="3.43212">
        <ele>968.79998779297</ele>
        <time>2024-01-30T10:02:19.000Z</time>
      </trkpt>
      <trkpt lat="44.40574" lon="3.43205">
        <ele>970.40002441406</ele>
        <time>2024-01-30T10:02:20.000Z</time>
      </trkpt>
      <trkpt lat="44.40589" lon="3.43198">
        <ele>971.40002441406</ele>
        <time>2024-01-30T10:02:21.000Z</time>
      </trkpt>
      <trkpt lat="44.40604" lon="3.43195">
        <ele>972.59997558594</ele>
        <time>2024-01-30T10:02:22.000Z</time>
      </trkpt>
      <trkpt lat="44.40619" lon="3.43196">
        <ele>974</ele>
        <time>2024-01-30T10:02:23.000Z</time>
      </trkpt>
      <trkpt lat="44.40633" lon="3.43199">
        <ele>976</ele>
        <time>2024-01-30T10:02:24.000Z</time>
      </trkpt>
      <trkpt lat="44.40649" lon="3.43203">
        <ele>977.40002441406</ele>
        <time>2024-01-30T10:02:25.000Z</time>
      </trkpt>
      <trkpt lat="44.40665" lon="3.43208">
        <ele>978.40002441406</ele>
        <time>2024-01-30T10:02:26.000Z</time>
      </trkpt>
      <trkpt lat="44.40681" lon="3.43215">
        <ele>979.59997558594</ele>
        <time>2024-01-30T10:02:27.000Z</time>
      </trkpt>
      <trkpt lat="44.40696" lon="3.43222">
        <ele>981</ele>
        <time>2024-01-30T10:02:28.000Z</time>
      </trkpt>
      <trkpt lat="44.4071" lon="3.4323">
        <ele>982.40002441406</ele>
        <time>2024-01-30T10:02:29.000Z</time>
      </trkpt>
      <trkpt lat="44.40721" lon="3.43238">
        <ele>983.79998779297</ele>
        <time>2024-01-30T10:02:30.000Z</time>
      </trkpt>
      <trkpt lat="44.40735" lon="3.4325">
        <ele>985</ele>
        <time>2024-01-30T10:02:31.000Z</time>
      </trkpt>
      <trkpt lat="44.40751" lon="3.43266">
        <ele>986.59997558594</ele>
        <time>2024-01-30T10:02:32.000Z</time>
      </trkpt>
      <trkpt lat="44.40764" lon="3.43281">
        <ele>988.20001220703</ele>
        <time>2024-01-30T10:02:33.000Z</time>
      </trkpt>
      <trkpt lat="44.40777" lon="3.43294">
        <ele>989.59997558594</ele>
        <time>2024-01-30T10:02:34.000Z</time>
      </trkpt>
      <trkpt lat="44.40791" lon="3.43308">
        <ele>991</ele>
        <time>2024-01-30T10:02:35.000Z</time>
      </trkpt>
      <trkpt lat="44.40817" lon="3.43334">
        <ele>993.40002441406</ele>
        <time>2024-01-30T10:02:37.000Z</time>
      </trkpt>
      <trkpt lat="44.40831" lon="3.43345">
        <ele>995</ele>
        <time>2024-01-30T10:02:38.000Z</time>
      </trkpt>
      <trkpt lat="44.40845" lon="3.43355">
        <ele>996</ele>
        <time>2024-01-30T10:02:39.000Z</time>
      </trkpt>
      <trkpt lat="44.40858" lon="3.43364">
        <ele>997.40002441406</ele>
        <time>2024-01-30T10:02:40.000Z</time>
      </trkpt>
      <trkpt lat="44.40871" lon="3.43374">
        <ele>998.20001220703</ele>
        <time>2024-01-30T10:02:41.000Z</time>
      </trkpt>
      <trkpt lat="44.4088" lon="3.43383">
        <ele>999.59997558594</ele>
        <time>2024-01-30T10:02:42.000Z</time>
      </trkpt>
      <trkpt lat="44.40892" lon="3.43399">
        <ele>1001</ele>
        <time>2024-01-30T10:02:43.000Z</time>
      </trkpt>
      <trkpt lat="44.40899" lon="3.43416">
        <ele>1002</ele>
        <time>2024-01-30T10:02:44.000Z</time>
      </trkpt>
      <trkpt lat="44.40904" lon="3.43436">
        <ele>1003.4000244141</ele>
        <time>2024-01-30T10:02:45.000Z</time>
      </trkpt>
      <trkpt lat="44.40907" lon="3.43456">
        <ele>1004.799987793</ele>
        <time>2024-01-30T10:02:46.000Z</time>
      </trkpt>
      <trkpt lat="44.40909" lon="3.43477">
        <ele>1006</ele>
        <time>2024-01-30T10:02:47.000Z</time>
      </trkpt>
      <trkpt lat="44.4091" lon="3.43498">
        <ele>1007.200012207</ele>
        <time>2024-01-30T10:02:48.000Z</time>
      </trkpt>
      <trkpt lat="44.40907" lon="3.43519">
        <ele>1008.4000244141</ele>
        <time>2024-01-30T10:02:49.000Z</time>
      </trkpt>
      <trkpt lat="44.409" lon="3.43537">
        <ele>1010</ele>
        <time>2024-01-30T10:02:50.000Z</time>
      </trkpt>
      <trkpt lat="44.40891" lon="3.43554">
        <ele>1011.4000244141</ele>
        <time>2024-01-30T10:02:51.000Z</time>
      </trkpt>
      <trkpt lat="44.40882" lon="3.43569">
        <ele>1013</ele>
        <time>2024-01-30T10:02:52.000Z</time>
      </trkpt>
      <trkpt lat="44.40875" lon="3.43585">
        <ele>1014.200012207</ele>
        <time>2024-01-30T10:02:53.000Z</time>
      </trkpt>
      <trkpt lat="44.40869" lon="3.43603">
        <ele>1015.799987793</ele>
        <time>2024-01-30T10:02:54.000Z</time>
      </trkpt>
      <trkpt lat="44.40866" lon="3.43622">
        <ele>1016.799987793</ele>
        <time>2024-01-30T10:02:55.000Z</time>
      </trkpt>
      <trkpt lat="44.40864" lon="3.43642">
        <ele>1017.5999755859</ele>
        <time>2024-01-30T10:02:56.000Z</time>
      </trkpt>
      <trkpt lat="44.40863" lon="3.43663">
        <ele>1018.799987793</ele>
        <time>2024-01-30T10:02:57.000Z</time>
      </trkpt>
      <trkpt lat="44.40862" lon="3.43706">
        <ele>1020.799987793</ele>
        <time>2024-01-30T10:02:59.000Z</time>
      </trkpt>
      <trkpt lat="44.40859" lon="3.43747">
        <ele>1022.200012207</ele>
        <time>2024-01-30T10:03:01.000Z</time>
      </trkpt>
      <trkpt lat="44.40857" lon="3.43782">
        <ele>1023.200012207</ele>
        <time>2024-01-30T10:03:03.000Z</time>
      </trkpt>
      <trkpt lat="44.40856" lon="3.43797">
        <ele>1023.200012207</ele>
        <time>2024-01-30T10:03:04.000Z</time>
      </trkpt>
      <trkpt lat="44.40855" lon="3.43814">
        <ele>1023.200012207</ele>
        <time>2024-01-30T10:03:06.000Z</time>
      </trkpt>
      <trkpt lat="44.40855" lon="3.43821">
        <ele>1023.200012207</ele>
        <time>2024-01-30T10:03:09.000Z</time>
      </trkpt>
      <trkpt lat="44.40855" lon="3.43821">
        <ele>1023.200012207</ele>
        <time>2024-01-30T10:03:10.000Z</time>
        <extensions>
          <gpxtpx:TrackPointExtension xmlns:gpxtpx="http://www.garmin.com/xmlschemas/TrackPointExtension/v1">
            <gpxtpx:hr>71</gpxtpx:hr>
          </gpxtpx:TrackPointExtension>
        </extensions>
      </trkpt>
      <trkpt lat="44.40855" lon="3.43821">
        <ele>1023.4000244141</ele>
        <time>2024-01-30T10:03:11.000Z</time>
        <extensions>
          <gpxtpx:TrackPointExtension xmlns:gpxtpx="http://www.garmin.com/xmlschemas/TrackPointExtension/v1">
            <gpxtpx:hr>72</gpxtpx:hr>
          </gpxtpx:TrackPointExtension>
        </extensions>
      </trkpt>
      <trkpt lat="44.40855" lon="3.43821">
        <ele>1023.4000244141</ele>
        <time>2024-01-30T10:03:13.000Z</time>
        <extensions>
          <gpxtpx:TrackPointExtension xmlns:gpxtpx="http://www.garmin.com/xmlschemas/TrackPointExtension/v1">
            <gpxtpx:hr>75</gpxtpx:hr>
          </gpxtpx:TrackPointExtension>
        </extensions>
      </trkpt>
      <trkpt lat="44.40855" lon="3.43821">
        <ele>1023.4000244141</ele>
        <time>2024-01-30T10:03:16.000Z</time>
      </trkpt>
      <trkpt lat="44.40855" lon="3.43821">
        <ele>1023</ele>
        <time>2024-01-30T10:03:34.000Z</time>
      </trkpt>
      <trkpt lat="44.40855" lon="3.43821">
        <ele>1022.5999755859</ele>
        <time>2024-01-30T10:03:50.000Z</time>
      </trkpt>
      <trkpt lat="44.40854" lon="3.43826">
        <ele>1022.4000244141</ele>
        <time>2024-01-30T10:03:59.000Z</time>
      </trkpt>
      <trkpt lat="44.40854" lon="3.4383">
        <ele>1022.5999755859</ele>
        <time>2024-01-30T10:04:00.000Z</time>
      </trkpt>
      <trkpt lat="44.40853" lon="3.43846">
        <ele>1022.5999755859</ele>
        <time>2024-01-30T10:04:03.000Z</time>
      </trkpt>
      <trkpt lat="44.40852" lon="3.4387">
        <ele>1022</ele>
        <time>2024-01-30T10:04:06.000Z</time>
      </trkpt>
      <trkpt lat="44.40851" lon="3.4388">
        <ele>1021.5999755859</ele>
        <time>2024-01-30T10:04:07.000Z</time>
      </trkpt>
      <trkpt lat="44.40852" lon="3.43913">
        <ele>1020.799987793</ele>
        <time>2024-01-30T10:04:10.000Z</time>
      </trkpt>
      <trkpt lat="44.40854" lon="3.43925">
        <ele>1020.200012207</ele>
        <time>2024-01-30T10:04:11.000Z</time>
      </trkpt>
      <trkpt lat="44.40856" lon="3.43938">
        <ele>1019.5999755859</ele>
        <time>2024-01-30T10:04:12.000Z</time>
      </trkpt>
      <trkpt lat="44.40862" lon="3.43963">
        <ele>1018</ele>
        <time>2024-01-30T10:04:14.000Z</time>
      </trkpt>
      <trkpt lat="44.40866" lon="3.43974">
        <ele>1017.4000244141</ele>
        <time>2024-01-30T10:04:15.000Z</time>
      </trkpt>
      <trkpt lat="44.40871" lon="3.43983">
        <ele>1015.799987793</ele>
        <time>2024-01-30T10:04:16.000Z</time>
      </trkpt>
      <trkpt lat="44.40885" lon="3.43995">
        <ele>1014.799987793</ele>
        <time>2024-01-30T10:04:18.000Z</time>
      </trkpt>
      <trkpt lat="44.40894" lon="3.43999">
        <ele>1014.4000244141</ele>
        <time>2024-01-30T10:04:19.000Z</time>
      </trkpt>
      <trkpt lat="44.40912" lon="3.44008">
        <ele>1013</ele>
        <time>2024-01-30T10:04:21.000Z</time>
      </trkpt>
      <trkpt lat="44.40921" lon="3.44016">
        <ele>1012.4000244141</ele>
        <time>2024-01-30T10:04:22.000Z</time>
      </trkpt>
      <trkpt lat="44.40928" lon="3.44026">
        <ele>1011.5999755859</ele>
        <time>2024-01-30T10:04:23.000Z</time>
      </trkpt>
      <trkpt lat="44.40944" lon="3.44049">
        <ele>1010</ele>
        <time>2024-01-30T10:04:25.000Z</time>
      </trkpt>
      <trkpt lat="44.40964" lon="3.44067">
        <ele>1008</ele>
        <time>2024-01-30T10:04:27.000Z</time>
      </trkpt>
      <trkpt lat="44.40976" lon="3.44073">
        <ele>1006.5999755859</ele>
        <time>2024-01-30T10:04:28.000Z</time>
      </trkpt>
      <trkpt lat="44.40999" lon="3.44083">
        <ele>1004.799987793</ele>
        <time>2024-01-30T10:04:30.000Z</time>
      </trkpt>
      <trkpt lat="44.41009" lon="3.4409">
        <ele>1003.4000244141</ele>
        <time>2024-01-30T10:04:31.000Z</time>
      </trkpt>
      <trkpt lat="44.41018" lon="3.44099">
        <ele>1002.4000244141</ele>
        <time>2024-01-30T10:04:32.000Z</time>
      </trkpt>
      <trkpt lat="44.41025" lon="3.44111">
        <ele>1001.799987793</ele>
        <time>2024-01-30T10:04:33.000Z</time>
      </trkpt>
      <trkpt lat="44.41029" lon="3.44126">
        <ele>1000.5999755859</ele>
        <time>2024-01-30T10:04:34.000Z</time>
      </trkpt>
      <trkpt lat="44.41032" lon="3.44141">
        <ele>999.59997558594</ele>
        <time>2024-01-30T10:04:35.000Z</time>
      </trkpt>
      <trkpt lat="44.41032" lon="3.44157">
        <ele>998.79998779297</ele>
        <time>2024-01-30T10:04:36.000Z</time>
      </trkpt>
      <trkpt lat="44.4103" lon="3.44174">
        <ele>997.79998779297</ele>
        <time>2024-01-30T10:04:37.000Z</time>
      </trkpt>
      <trkpt lat="44.41024" lon="3.44208">
        <ele>996</ele>
        <time>2024-01-30T10:04:39.000Z</time>
      </trkpt>
      <trkpt lat="44.41021" lon="3.44226">
        <ele>995.20001220703</ele>
        <time>2024-01-30T10:04:40.000Z</time>
      </trkpt>
      <trkpt lat="44.4102" lon="3.44243">
        <ele>994</ele>
        <time>2024-01-30T10:04:41.000Z</time>
      </trkpt>
      <trkpt lat="44.41019" lon="3.44258">
        <ele>992.59997558594</ele>
        <time>2024-01-30T10:04:42.000Z</time>
      </trkpt>
      <trkpt lat="44.41022" lon="3.44272">
        <ele>991.20001220703</ele>
        <time>2024-01-30T10:04:43.000Z</time>
      </trkpt>
      <trkpt lat="44.41027" lon="3.44284">
        <ele>990.79998779297</ele>
        <time>2024-01-30T10:04:44.000Z</time>
      </trkpt>
      <trkpt lat="44.41036" lon="3.44294">
        <ele>990</ele>
        <time>2024-01-30T10:04:45.000Z</time>
      </trkpt>
      <trkpt lat="44.41047" lon="3.44302">
        <ele>989.79998779297</ele>
        <time>2024-01-30T10:04:46.000Z</time>
      </trkpt>
      <trkpt lat="44.41075" lon="3.44314">
        <ele>988.59997558594</ele>
        <time>2024-01-30T10:04:48.000Z</time>
      </trkpt>
      <trkpt lat="44.41108" lon="3.44324">
        <ele>987.59997558594</ele>
        <time>2024-01-30T10:04:50.000Z</time>
      </trkpt>
      <trkpt lat="44.41126" lon="3.44327">
        <ele>987.20001220703</ele>
        <time>2024-01-30T10:04:51.000Z</time>
      </trkpt>
      <trkpt lat="44.41145" lon="3.44329">
        <ele>986.40002441406</ele>
        <time>2024-01-30T10:04:52.000Z</time>
      </trkpt>
      <trkpt lat="44.41183" lon="3.44331">
        <ele>985.20001220703</ele>
        <time>2024-01-30T10:04:54.000Z</time>
      </trkpt>
      <trkpt lat="44.41203" lon="3.44332">
        <ele>984.20001220703</ele>
        <time>2024-01-30T10:04:55.000Z</time>
      </trkpt>
      <trkpt lat="44.41241" lon="3.44328">
        <ele>982.79998779297</ele>
        <time>2024-01-30T10:04:57.000Z</time>
      </trkpt>
      <trkpt lat="44.4126" lon="3.44321">
        <ele>981.40002441406</ele>
        <time>2024-01-30T10:04:58.000Z</time>
      </trkpt>
      <trkpt lat="44.41296" lon="3.443">
        <ele>979.79998779297</ele>
        <time>2024-01-30T10:05:00.000Z</time>
      </trkpt>
      <trkpt lat="44.41316" lon="3.44289">
        <ele>979.59997558594</ele>
        <time>2024-01-30T10:05:01.000Z</time>
      </trkpt>
      <trkpt lat="44.41348" lon="3.44279">
        <ele>979.20001220703</ele>
        <time>2024-01-30T10:05:03.000Z</time>
      </trkpt>
      <trkpt lat="44.41365" lon="3.44279">
        <ele>979.20001220703</ele>
        <time>2024-01-30T10:05:04.000Z</time>
      </trkpt>
      <trkpt lat="44.41382" lon="3.44283">
        <ele>979.20001220703</ele>
        <time>2024-01-30T10:05:05.000Z</time>
      </trkpt>
      <trkpt lat="44.41414" lon="3.44294">
        <ele>979.40002441406</ele>
        <time>2024-01-30T10:05:07.000Z</time>
      </trkpt>
      <trkpt lat="44.41429" lon="3.44304">
        <ele>979.59997558594</ele>
        <time>2024-01-30T10:05:08.000Z</time>
      </trkpt>
      <trkpt lat="44.41443" lon="3.44316">
        <ele>979.79998779297</ele>
        <time>2024-01-30T10:05:09.000Z</time>
      </trkpt>
      <trkpt lat="44.41455" lon="3.4433">
        <ele>980</ele>
        <time>2024-01-30T10:05:10.000Z</time>
      </trkpt>
      <trkpt lat="44.41464" lon="3.44347">
        <ele>980.20001220703</ele>
        <time>2024-01-30T10:05:11.000Z</time>
      </trkpt>
      <trkpt lat="44.41472" lon="3.44366">
        <ele>980.20001220703</ele>
        <time>2024-01-30T10:05:12.000Z</time>
      </trkpt>
      <trkpt lat="44.41486" lon="3.44408">
        <ele>980.20001220703</ele>
        <time>2024-01-30T10:05:14.000Z</time>
      </trkpt>
      <trkpt lat="44.41518" lon="3.44491">
        <ele>979.59997558594</ele>
        <time>2024-01-30T10:05:18.000Z</time>
      </trkpt>
      <trkpt lat="44.41544" lon="3.44523">
        <ele>979.40002441406</ele>
        <time>2024-01-30T10:05:20.000Z</time>
      </trkpt>
      <trkpt lat="44.41579" lon="3.44542">
        <ele>979.20001220703</ele>
        <time>2024-01-30T10:05:22.000Z</time>
      </trkpt>
      <trkpt lat="44.41635" lon="3.44567">
        <ele>979.40002441406</ele>
        <time>2024-01-30T10:05:25.000Z</time>
      </trkpt>
      <trkpt lat="44.41674" lon="3.44584">
        <ele>981.40002441406</ele>
        <time>2024-01-30T10:05:27.000Z</time>
      </trkpt>
      <trkpt lat="44.41692" lon="3.44592">
        <ele>983</ele>
        <time>2024-01-30T10:05:28.000Z</time>
      </trkpt>
      <trkpt lat="44.41711" lon="3.446">
        <ele>984.59997558594</ele>
        <time>2024-01-30T10:05:29.000Z</time>
      </trkpt>
      <trkpt lat="44.4173" lon="3.44608">
        <ele>985.79998779297</ele>
        <time>2024-01-30T10:05:30.000Z</time>
      </trkpt>
      <trkpt lat="44.41748" lon="3.44616">
        <ele>988.20001220703</ele>
        <time>2024-01-30T10:05:31.000Z</time>
      </trkpt>
      <trkpt lat="44.41767" lon="3.44624">
        <ele>989.59997558594</ele>
        <time>2024-01-30T10:05:32.000Z</time>
      </trkpt>
      <trkpt lat="44.41785" lon="3.44632">
        <ele>991.59997558594</ele>
        <time>2024-01-30T10:05:33.000Z</time>
      </trkpt>
      <trkpt lat="44.41804" lon="3.4464">
        <ele>994</ele>
        <time>2024-01-30T10:05:34.000Z</time>
      </trkpt>
      <trkpt lat="44.41822" lon="3.44648">
        <ele>995.59997558594</ele>
        <time>2024-01-30T10:05:35.000Z</time>
      </trkpt>
      <trkpt lat="44.41841" lon="3.44656">
        <ele>997.59997558594</ele>
        <time>2024-01-30T10:05:36.000Z</time>
      </trkpt>
      <trkpt lat="44.41859" lon="3.44664">
        <ele>999.59997558594</ele>
        <time>2024-01-30T10:05:37.000Z</time>
      </trkpt>
      <trkpt lat="44.41877" lon="3.44672">
        <ele>1000.5999755859</ele>
        <time>2024-01-30T10:05:38.000Z</time>
      </trkpt>
      <trkpt lat="44.41895" lon="3.44679">
        <ele>1002</ele>
        <time>2024-01-30T10:05:39.000Z</time>
      </trkpt>
      <trkpt lat="44.41912" lon="3.44687">
        <ele>1003.4000244141</ele>
        <time>2024-01-30T10:05:40.000Z</time>
      </trkpt>
      <trkpt lat="44.4193" lon="3.44695">
        <ele>1004.799987793</ele>
        <time>2024-01-30T10:05:41.000Z</time>
      </trkpt>
      <trkpt lat="44.41946" lon="3.44704">
        <ele>1006.200012207</ele>
        <time>2024-01-30T10:05:42.000Z</time>
      </trkpt>
      <trkpt lat="44.41962" lon="3.44714">
        <ele>1007.799987793</ele>
        <time>2024-01-30T10:05:43.000Z</time>
      </trkpt>
      <trkpt lat="44.41978" lon="3.44725">
        <ele>1009.4000244141</ele>
        <time>2024-01-30T10:05:44.000Z</time>
      </trkpt>
      <trkpt lat="44.42008" lon="3.4475">
        <ele>1011.799987793</ele>
        <time>2024-01-30T10:05:46.000Z</time>
      </trkpt>
      <trkpt lat="44.42038" lon="3.44776">
        <ele>1013.5999755859</ele>
        <time>2024-01-30T10:05:48.000Z</time>
      </trkpt>
      <trkpt lat="44.42053" lon="3.44789">
        <ele>1014.799987793</ele>
        <time>2024-01-30T10:05:49.000Z</time>
      </trkpt>
      <trkpt lat="44.42084" lon="3.44815">
        <ele>1016</ele>
        <time>2024-01-30T10:05:51.000Z</time>
      </trkpt>
      <trkpt lat="44.42101" lon="3.44827">
        <ele>1016.200012207</ele>
        <time>2024-01-30T10:05:52.000Z</time>
      </trkpt>
      <trkpt lat="44.42157" lon="3.44853">
        <ele>1016.5999755859</ele>
        <time>2024-01-30T10:05:55.000Z</time>
      </trkpt>
      <trkpt lat="44.42214" lon="3.44877">
        <ele>1016.799987793</ele>
        <time>2024-01-30T10:05:58.000Z</time>
      </trkpt>
      <trkpt lat="44.42272" lon="3.44897">
        <ele>1016.200012207</ele>
        <time>2024-01-30T10:06:01.000Z</time>
      </trkpt>
      <trkpt lat="44.42311" lon="3.44903">
        <ele>1015</ele>
        <time>2024-01-30T10:06:03.000Z</time>
      </trkpt>
      <trkpt lat="44.4233" lon="3.44904">
        <ele>1013.4000244141</ele>
        <time>2024-01-30T10:06:04.000Z</time>
      </trkpt>
      <trkpt lat="44.42349" lon="3.44905">
        <ele>1011.200012207</ele>
        <time>2024-01-30T10:06:05.000Z</time>
      </trkpt>
      <trkpt lat="44.4237" lon="3.44904">
        <ele>1009.200012207</ele>
        <time>2024-01-30T10:06:06.000Z</time>
      </trkpt>
      <trkpt lat="44.42391" lon="3.44903">
        <ele>1006.5999755859</ele>
        <time>2024-01-30T10:06:07.000Z</time>
      </trkpt>
      <trkpt lat="44.42413" lon="3.449">
        <ele>1004</ele>
        <time>2024-01-30T10:06:08.000Z</time>
      </trkpt>
      <trkpt lat="44.42435" lon="3.44894">
        <ele>1002</ele>
        <time>2024-01-30T10:06:09.000Z</time>
      </trkpt>
      <trkpt lat="44.42457" lon="3.44888">
        <ele>999.79998779297</ele>
        <time>2024-01-30T10:06:10.000Z</time>
      </trkpt>
      <trkpt lat="44.42479" lon="3.44881">
        <ele>997.20001220703</ele>
        <time>2024-01-30T10:06:11.000Z</time>
      </trkpt>
      <trkpt lat="44.42501" lon="3.44875">
        <ele>994.59997558594</ele>
        <time>2024-01-30T10:06:12.000Z</time>
      </trkpt>
      <trkpt lat="44.42523" lon="3.44869">
        <ele>992.40002441406</ele>
        <time>2024-01-30T10:06:13.000Z</time>
      </trkpt>
      <trkpt lat="44.42545" lon="3.44865">
        <ele>991.20001220703</ele>
        <time>2024-01-30T10:06:14.000Z</time>
      </trkpt>
      <trkpt lat="44.42567" lon="3.44863">
        <ele>989.59997558594</ele>
        <time>2024-01-30T10:06:15.000Z</time>
      </trkpt>
      <trkpt lat="44.4261" lon="3.4487">
        <ele>987.79998779297</ele>
        <time>2024-01-30T10:06:17.000Z</time>
      </trkpt>
      <trkpt lat="44.42652" lon="3.44885">
        <ele>986.20001220703</ele>
        <time>2024-01-30T10:06:19.000Z</time>
      </trkpt>
      <trkpt lat="44.42673" lon="3.44892">
        <ele>985.40002441406</ele>
        <time>2024-01-30T10:06:20.000Z</time>
      </trkpt>
      <trkpt lat="44.42695" lon="3.44898">
        <ele>984.59997558594</ele>
        <time>2024-01-30T10:06:21.000Z</time>
      </trkpt>
      <trkpt lat="44.42717" lon="3.44901">
        <ele>983.40002441406</ele>
        <time>2024-01-30T10:06:22.000Z</time>
      </trkpt>
      <trkpt lat="44.42739" lon="3.449">
        <ele>982.79998779297</ele>
        <time>2024-01-30T10:06:23.000Z</time>
      </trkpt>
      <trkpt lat="44.42805" lon="3.44881">
        <ele>982.79998779297</ele>
        <time>2024-01-30T10:06:26.000Z</time>
      </trkpt>
      <trkpt lat="44.42847" lon="3.44867">
        <ele>985.59997558594</ele>
        <time>2024-01-30T10:06:28.000Z</time>
      </trkpt>
      <trkpt lat="44.42868" lon="3.44861">
        <ele>987.79998779297</ele>
        <time>2024-01-30T10:06:29.000Z</time>
      </trkpt>
      <trkpt lat="44.42888" lon="3.44855">
        <ele>989.59997558594</ele>
        <time>2024-01-30T10:06:30.000Z</time>
      </trkpt>
      <trkpt lat="44.42908" lon="3.44849">
        <ele>991.79998779297</ele>
        <time>2024-01-30T10:06:31.000Z</time>
      </trkpt>
      <trkpt lat="44.42928" lon="3.44843">
        <ele>993</ele>
        <time>2024-01-30T10:06:32.000Z</time>
      </trkpt>
      <trkpt lat="44.42947" lon="3.44837">
        <ele>994.59997558594</ele>
        <time>2024-01-30T10:06:33.000Z</time>
      </trkpt>
      <trkpt lat="44.42965" lon="3.44832">
        <ele>997</ele>
        <time>2024-01-30T10:06:34.000Z</time>
      </trkpt>
      <trkpt lat="44.42983" lon="3.44826">
        <ele>998.40002441406</ele>
        <time>2024-01-30T10:06:35.000Z</time>
      </trkpt>
      <trkpt lat="44.43" lon="3.44822">
        <ele>1000</ele>
        <time>2024-01-30T10:06:36.000Z</time>
      </trkpt>
      <trkpt lat="44.43034" lon="3.44811">
        <ele>1002</ele>
        <time>2024-01-30T10:06:38.000Z</time>
      </trkpt>
      <trkpt lat="44.43051" lon="3.44805">
        <ele>1003</ele>
        <time>2024-01-30T10:06:39.000Z</time>
      </trkpt>
      <trkpt lat="44.43086" lon="3.44795">
        <ele>1004.200012207</ele>
        <time>2024-01-30T10:06:41.000Z</time>
      </trkpt>
      <trkpt lat="44.43142" lon="3.44782">
        <ele>1005</ele>
        <time>2024-01-30T10:06:44.000Z</time>
      </trkpt>
      <trkpt lat="44.43181" lon="3.44775">
        <ele>1005</ele>
        <time>2024-01-30T10:06:46.000Z</time>
      </trkpt>
      <trkpt lat="44.4322" lon="3.44768">
        <ele>1003</ele>
        <time>2024-01-30T10:06:48.000Z</time>
      </trkpt>
      <trkpt lat="44.43241" lon="3.44764">
        <ele>1001.5999755859</ele>
        <time>2024-01-30T10:06:49.000Z</time>
      </trkpt>
      <trkpt lat="44.43261" lon="3.44761">
        <ele>1000</ele>
        <time>2024-01-30T10:06:50.000Z</time>
      </trkpt>
      <trkpt lat="44.43282" lon="3.44757">
        <ele>998.59997558594</ele>
        <time>2024-01-30T10:06:51.000Z</time>
      </trkpt>
      <trkpt lat="44.43303" lon="3.44753">
        <ele>997.79998779297</ele>
        <time>2024-01-30T10:06:52.000Z</time>
      </trkpt>
      <trkpt lat="44.43329" lon="3.44749">
        <ele>995.20001220703</ele>
        <time>2024-01-30T10:06:53.000Z</time>
      </trkpt>
      <trkpt lat="44.43347" lon="3.44746">
        <ele>992.79998779297</ele>
        <time>2024-01-30T10:06:54.000Z</time>
      </trkpt>
      <trkpt lat="44.43369" lon="3.44742">
        <ele>990.40002441406</ele>
        <time>2024-01-30T10:06:55.000Z</time>
      </trkpt>
      <trkpt lat="44.43392" lon="3.44738">
        <ele>988</ele>
        <time>2024-01-30T10:06:56.000Z</time>
      </trkpt>
      <trkpt lat="44.43415" lon="3.44734">
        <ele>985</ele>
        <time>2024-01-30T10:06:57.000Z</time>
      </trkpt>
      <trkpt lat="44.43439" lon="3.44732">
        <ele>983</ele>
        <time>2024-01-30T10:06:58.000Z</time>
      </trkpt>
      <trkpt lat="44.43462" lon="3.44731">
        <ele>980.79998779297</ele>
        <time>2024-01-30T10:06:59.000Z</time>
      </trkpt>
      <trkpt lat="44.43486" lon="3.44732">
        <ele>978.79998779297</ele>
        <time>2024-01-30T10:07:00.000Z</time>
      </trkpt>
      <trkpt lat="44.4351" lon="3.44734">
        <ele>977.20001220703</ele>
        <time>2024-01-30T10:07:01.000Z</time>
      </trkpt>
      <trkpt lat="44.43539" lon="3.44735">
        <ele>976</ele>
        <time>2024-01-30T10:07:02.000Z</time>
      </trkpt>
      <trkpt lat="44.43582" lon="3.44733">
        <ele>975.20001220703</ele>
        <time>2024-01-30T10:07:04.000Z</time>
      </trkpt>
      <trkpt lat="44.43651" lon="3.44721">
        <ele>975.20001220703</ele>
        <time>2024-01-30T10:07:07.000Z</time>
      </trkpt>
      <trkpt lat="44.43673" lon="3.44716">
        <ele>975.59997558594</ele>
        <time>2024-01-30T10:07:08.000Z</time>
      </trkpt>
      <trkpt lat="44.43743" lon="3.44701">
        <ele>976.20001220703</ele>
        <time>2024-01-30T10:07:11.000Z</time>
      </trkpt>
      <trkpt lat="44.43781" lon="3.44692">
        <ele>977.40002441406</ele>
        <time>2024-01-30T10:07:13.000Z</time>
      </trkpt>
      <trkpt lat="44.43802" lon="3.44688">
        <ele>977.59997558594</ele>
        <time>2024-01-30T10:07:14.000Z</time>
      </trkpt>
      <trkpt lat="44.43865" lon="3.44674">
        <ele>977.59997558594</ele>
        <time>2024-01-30T10:07:17.000Z</time>
      </trkpt>
      <trkpt lat="44.43886" lon="3.4467">
        <ele>977.59997558594</ele>
        <time>2024-01-30T10:07:18.000Z</time>
      </trkpt>
      <trkpt lat="44.43928" lon="3.44665">
        <ele>977.20001220703</ele>
        <time>2024-01-30T10:07:20.000Z</time>
      </trkpt>
      <trkpt lat="44.43992" lon="3.44666">
        <ele>976.59997558594</ele>
        <time>2024-01-30T10:07:23.000Z</time>
      </trkpt>
      <trkpt lat="44.44014" lon="3.44667">
        <ele>976.40002441406</ele>
        <time>2024-01-30T10:07:24.000Z</time>
      </trkpt>
      <trkpt lat="44.44037" lon="3.44668">
        <ele>976.40002441406</ele>
        <time>2024-01-30T10:07:25.000Z</time>
      </trkpt>
      <trkpt lat="44.44104" lon="3.44671">
        <ele>975.79998779297</ele>
        <time>2024-01-30T10:07:28.000Z</time>
      </trkpt>
      <trkpt lat="44.4417" lon="3.44676">
        <ele>975.59997558594</ele>
        <time>2024-01-30T10:07:31.000Z</time>
      </trkpt>
      <trkpt lat="44.44193" lon="3.44677">
        <ele>975.20001220703</ele>
        <time>2024-01-30T10:07:32.000Z</time>
      </trkpt>
      <trkpt lat="44.44215" lon="3.44678">
        <ele>974</ele>
        <time>2024-01-30T10:07:33.000Z</time>
      </trkpt>
      <trkpt lat="44.44238" lon="3.4468">
        <ele>972.59997558594</ele>
        <time>2024-01-30T10:07:34.000Z</time>
      </trkpt>
      <trkpt lat="44.44261" lon="3.44683">
        <ele>971.20001220703</ele>
        <time>2024-01-30T10:07:35.000Z</time>
      </trkpt>
      <trkpt lat="44.44305" lon="3.44693">
        <ele>969.79998779297</ele>
        <time>2024-01-30T10:07:37.000Z</time>
      </trkpt>
      <trkpt lat="44.44328" lon="3.44701">
        <ele>968.20001220703</ele>
        <time>2024-01-30T10:07:38.000Z</time>
      </trkpt>
      <trkpt lat="44.44351" lon="3.4471">
        <ele>967</ele>
        <time>2024-01-30T10:07:39.000Z</time>
      </trkpt>
      <trkpt lat="44.44373" lon="3.44719">
        <ele>965.79998779297</ele>
        <time>2024-01-30T10:07:40.000Z</time>
      </trkpt>
      <trkpt lat="44.44396" lon="3.44729">
        <ele>964.40002441406</ele>
        <time>2024-01-30T10:07:41.000Z</time>
      </trkpt>
      <trkpt lat="44.44443" lon="3.44745">
        <ele>962.59997558594</ele>
        <time>2024-01-30T10:07:43.000Z</time>
      </trkpt>
      <trkpt lat="44.44491" lon="3.44757">
        <ele>960</ele>
        <time>2024-01-30T10:07:45.000Z</time>
      </trkpt>
      <trkpt lat="44.4454" lon="3.44763">
        <ele>958.59997558594</ele>
        <time>2024-01-30T10:07:47.000Z</time>
      </trkpt>
      <trkpt lat="44.44611" lon="3.44769">
        <ele>957.79998779297</ele>
        <time>2024-01-30T10:07:50.000Z</time>
      </trkpt>
      <trkpt lat="44.44658" lon="3.44773">
        <ele>957</ele>
        <time>2024-01-30T10:07:52.000Z</time>
      </trkpt>
      <trkpt lat="44.44729" lon="3.4478">
        <ele>956.59997558594</ele>
        <time>2024-01-30T10:07:55.000Z</time>
      </trkpt>
      <trkpt lat="44.44752" lon="3.44784">
        <ele>956.79998779297</ele>
        <time>2024-01-30T10:07:56.000Z</time>
      </trkpt>
      <trkpt lat="44.44798" lon="3.44793">
        <ele>958</ele>
        <time>2024-01-30T10:07:58.000Z</time>
      </trkpt>
      <trkpt lat="44.44845" lon="3.44804">
        <ele>959.40002441406</ele>
        <time>2024-01-30T10:08:00.000Z</time>
      </trkpt>
      <trkpt lat="44.44891" lon="3.44814">
        <ele>960.59997558594</ele>
        <time>2024-01-30T10:08:02.000Z</time>
      </trkpt>
      <trkpt lat="44.44937" lon="3.44823">
        <ele>961.40002441406</ele>
        <time>2024-01-30T10:08:04.000Z</time>
      </trkpt>
      <trkpt lat="44.44959" lon="3.44827">
        <ele>962</ele>
        <time>2024-01-30T10:08:05.000Z</time>
      </trkpt>
      <trkpt lat="44.45003" lon="3.44836">
        <ele>963.20001220703</ele>
        <time>2024-01-30T10:08:07.000Z</time>
      </trkpt>
      <trkpt lat="44.45069" lon="3.4485">
        <ele>964.59997558594</ele>
        <time>2024-01-30T10:08:10.000Z</time>
      </trkpt>
      <trkpt lat="44.45135" lon="3.44865">
        <ele>965.59997558594</ele>
        <time>2024-01-30T10:08:13.000Z</time>
      </trkpt>
      <trkpt lat="44.45157" lon="3.44869">
        <ele>965.59997558594</ele>
        <time>2024-01-30T10:08:14.000Z</time>
      </trkpt>
      <trkpt lat="44.452" lon="3.44878">
        <ele>967</ele>
        <time>2024-01-30T10:08:16.000Z</time>
      </trkpt>
      <trkpt lat="44.45265" lon="3.44892">
        <ele>968.59997558594</ele>
        <time>2024-01-30T10:08:19.000Z</time>
      </trkpt>
      <trkpt lat="44.45286" lon="3.44897">
        <ele>969.40002441406</ele>
        <time>2024-01-30T10:08:20.000Z</time>
      </trkpt>
      <trkpt lat="44.45307" lon="3.44901">
        <ele>970.40002441406</ele>
        <time>2024-01-30T10:08:21.000Z</time>
      </trkpt>
      <trkpt lat="44.4535" lon="3.44909">
        <ele>972.40002441406</ele>
        <time>2024-01-30T10:08:23.000Z</time>
      </trkpt>
      <trkpt lat="44.45371" lon="3.44914">
        <ele>973.59997558594</ele>
        <time>2024-01-30T10:08:24.000Z</time>
      </trkpt>
      <trkpt lat="44.45392" lon="3.44918">
        <ele>974.79998779297</ele>
        <time>2024-01-30T10:08:25.000Z</time>
      </trkpt>
      <trkpt lat="44.45413" lon="3.44922">
        <ele>976.20001220703</ele>
        <time>2024-01-30T10:08:26.000Z</time>
      </trkpt>
      <trkpt lat="44.45455" lon="3.44931">
        <ele>978.40002441406</ele>
        <time>2024-01-30T10:08:28.000Z</time>
      </trkpt>
      <trkpt lat="44.45476" lon="3.44935">
        <ele>979</ele>
        <time>2024-01-30T10:08:29.000Z</time>
      </trkpt>
      <trkpt lat="44.45501" lon="3.4494">
        <ele>979.59997558594</ele>
        <time>2024-01-30T10:08:30.000Z</time>
      </trkpt>
      <trkpt lat="44.45538" lon="3.44949">
        <ele>980.79998779297</ele>
        <time>2024-01-30T10:08:32.000Z</time>
      </trkpt>
      <trkpt lat="44.45579" lon="3.44964">
        <ele>981.59997558594</ele>
        <time>2024-01-30T10:08:34.000Z</time>
      </trkpt>
      <trkpt lat="44.45638" lon="3.45001">
        <ele>981.79998779297</ele>
        <time>2024-01-30T10:08:37.000Z</time>
      </trkpt>
      <trkpt lat="44.45657" lon="3.45015">
        <ele>981.59997558594</ele>
        <time>2024-01-30T10:08:38.000Z</time>
      </trkpt>
      <trkpt lat="44.45717" lon="3.45057">
        <ele>979.40002441406</ele>
        <time>2024-01-30T10:08:41.000Z</time>
      </trkpt>
      <trkpt lat="44.45758" lon="3.45086">
        <ele>977.79998779297</ele>
        <time>2024-01-30T10:08:43.000Z</time>
      </trkpt>
      <trkpt lat="44.45799" lon="3.45114">
        <ele>976</ele>
        <time>2024-01-30T10:08:45.000Z</time>
      </trkpt>
      <trkpt lat="44.45838" lon="3.45142">
        <ele>974.59997558594</ele>
        <time>2024-01-30T10:08:47.000Z</time>
      </trkpt>
      <trkpt lat="44.45874" lon="3.45167">
        <ele>973</ele>
        <time>2024-01-30T10:08:49.000Z</time>
      </trkpt>
      <trkpt lat="44.4589" lon="3.45178">
        <ele>972</ele>
        <time>2024-01-30T10:08:50.000Z</time>
      </trkpt>
      <trkpt lat="44.45903" lon="3.45189">
        <ele>971.79998779297</ele>
        <time>2024-01-30T10:08:51.000Z</time>
      </trkpt>
      <trkpt lat="44.45927" lon="3.45211">
        <ele>971.59997558594</ele>
        <time>2024-01-30T10:08:53.000Z</time>
      </trkpt>
      <trkpt lat="44.4595" lon="3.4524">
        <ele>972</ele>
        <time>2024-01-30T10:08:56.000Z</time>
      </trkpt>
      <trkpt lat="44.45966" lon="3.45267">
        <ele>972.79998779297</ele>
        <time>2024-01-30T10:08:59.000Z</time>
      </trkpt>
      <trkpt lat="44.45971" lon="3.45276">
        <ele>972.79998779297</ele>
        <time>2024-01-30T10:09:00.000Z</time>
      </trkpt>
      <trkpt lat="44.45998" lon="3.45326">
        <ele>971.79998779297</ele>
        <time>2024-01-30T10:09:06.000Z</time>
      </trkpt>
      <trkpt lat="44.46005" lon="3.45334">
        <ele>971</ele>
        <time>2024-01-30T10:09:07.000Z</time>
      </trkpt>
      <trkpt lat="44.4602" lon="3.45347">
        <ele>969.79998779297</ele>
        <time>2024-01-30T10:09:09.000Z</time>
      </trkpt>
      <trkpt lat="44.46028" lon="3.45353">
        <ele>969</ele>
        <time>2024-01-30T10:09:10.000Z</time>
      </trkpt>
      <trkpt lat="44.46036" lon="3.45359">
        <ele>968.40002441406</ele>
        <time>2024-01-30T10:09:11.000Z</time>
      </trkpt>
      <trkpt lat="44.46054" lon="3.45371">
        <ele>966.79998779297</ele>
        <time>2024-01-30T10:09:13.000Z</time>
      </trkpt>
      <trkpt lat="44.46073" lon="3.45384">
        <ele>965.40002441406</ele>
        <time>2024-01-30T10:09:15.000Z</time>
      </trkpt>
      <trkpt lat="44.46083" lon="3.45389">
        <ele>964.59997558594</ele>
        <time>2024-01-30T10:09:16.000Z</time>
      </trkpt>
      <trkpt lat="44.46094" lon="3.45394">
        <ele>963.59997558594</ele>
        <time>2024-01-30T10:09:17.000Z</time>
      </trkpt>
      <trkpt lat="44.46105" lon="3.45398">
        <ele>962.79998779297</ele>
        <time>2024-01-30T10:09:18.000Z</time>
      </trkpt>
      <trkpt lat="44.46117" lon="3.454">
        <ele>962.20001220703</ele>
        <time>2024-01-30T10:09:19.000Z</time>
      </trkpt>
      <trkpt lat="44.46132" lon="3.45402">
        <ele>961</ele>
        <time>2024-01-30T10:09:20.000Z</time>
      </trkpt>
      <trkpt lat="44.46142" lon="3.45403">
        <ele>960.40002441406</ele>
        <time>2024-01-30T10:09:21.000Z</time>
      </trkpt>
      <trkpt lat="44.46155" lon="3.45404">
        <ele>959.59997558594</ele>
        <time>2024-01-30T10:09:22.000Z</time>
      </trkpt>
      <trkpt lat="44.46178" lon="3.45406">
        <ele>957.59997558594</ele>
        <time>2024-01-30T10:09:24.000Z</time>
      </trkpt>
      <trkpt lat="44.46208" lon="3.45409">
        <ele>955.79998779297</ele>
        <time>2024-01-30T10:09:26.000Z</time>
      </trkpt>
      <trkpt lat="44.46221" lon="3.45412">
        <ele>954.40002441406</ele>
        <time>2024-01-30T10:09:27.000Z</time>
      </trkpt>
      <trkpt lat="44.46248" lon="3.45426">
        <ele>952.79998779297</ele>
        <time>2024-01-30T10:09:29.000Z</time>
      </trkpt>
      <trkpt lat="44.46275" lon="3.4544">
        <ele>950.79998779297</ele>
        <time>2024-01-30T10:09:31.000Z</time>
      </trkpt>
      <trkpt lat="44.46289" lon="3.45445">
        <ele>949.40002441406</ele>
        <time>2024-01-30T10:09:32.000Z</time>
      </trkpt>
      <trkpt lat="44.46302" lon="3.45448">
        <ele>948</ele>
        <time>2024-01-30T10:09:33.000Z</time>
      </trkpt>
      <trkpt lat="44.46315" lon="3.45451">
        <ele>946.59997558594</ele>
        <time>2024-01-30T10:09:34.000Z</time>
      </trkpt>
      <trkpt lat="44.46327" lon="3.45455">
        <ele>945.20001220703</ele>
        <time>2024-01-30T10:09:35.000Z</time>
      </trkpt>
      <trkpt lat="44.46338" lon="3.4546">
        <ele>944.20001220703</ele>
        <time>2024-01-30T10:09:36.000Z</time>
      </trkpt>
      <trkpt lat="44.46348" lon="3.45468">
        <ele>942.79998779297</ele>
        <time>2024-01-30T10:09:37.000Z</time>
      </trkpt>
      <trkpt lat="44.46356" lon="3.45479">
        <ele>941.79998779297</ele>
        <time>2024-01-30T10:09:38.000Z</time>
      </trkpt>
      <trkpt lat="44.46362" lon="3.45492">
        <ele>940.79998779297</ele>
        <time>2024-01-30T10:09:39.000Z</time>
      </trkpt>
      <trkpt lat="44.46365" lon="3.45511">
        <ele>940</ele>
        <time>2024-01-30T10:09:40.000Z</time>
      </trkpt>
      <trkpt lat="44.46364" lon="3.45527">
        <ele>939.20001220703</ele>
        <time>2024-01-30T10:09:41.000Z</time>
      </trkpt>
      <trkpt lat="44.46361" lon="3.45541">
        <ele>938.59997558594</ele>
        <time>2024-01-30T10:09:42.000Z</time>
      </trkpt>
      <trkpt lat="44.46358" lon="3.45563">
        <ele>938</ele>
        <time>2024-01-30T10:09:43.000Z</time>
      </trkpt>
      <trkpt lat="44.46355" lon="3.45582">
        <ele>936.79998779297</ele>
        <time>2024-01-30T10:09:44.000Z</time>
      </trkpt>
      <trkpt lat="44.46354" lon="3.45621">
        <ele>935.20001220703</ele>
        <time>2024-01-30T10:09:46.000Z</time>
      </trkpt>
      <trkpt lat="44.46355" lon="3.45643">
        <ele>933.79998779297</ele>
        <time>2024-01-30T10:09:47.000Z</time>
      </trkpt>
      <trkpt lat="44.46356" lon="3.45666">
        <ele>932.20001220703</ele>
        <time>2024-01-30T10:09:48.000Z</time>
      </trkpt>
      <trkpt lat="44.46357" lon="3.4569">
        <ele>930.59997558594</ele>
        <time>2024-01-30T10:09:49.000Z</time>
      </trkpt>
      <trkpt lat="44.46359" lon="3.45736">
        <ele>928.59997558594</ele>
        <time>2024-01-30T10:09:51.000Z</time>
      </trkpt>
      <trkpt lat="44.46362" lon="3.45757">
        <ele>927</ele>
        <time>2024-01-30T10:09:52.000Z</time>
      </trkpt>
      <trkpt lat="44.46365" lon="3.45777">
        <ele>925.79998779297</ele>
        <time>2024-01-30T10:09:53.000Z</time>
      </trkpt>
      <trkpt lat="44.46369" lon="3.45796">
        <ele>924.40002441406</ele>
        <time>2024-01-30T10:09:54.000Z</time>
      </trkpt>
      <trkpt lat="44.46376" lon="3.45813">
        <ele>922.59997558594</ele>
        <time>2024-01-30T10:09:55.000Z</time>
      </trkpt>
      <trkpt lat="44.46385" lon="3.45827">
        <ele>921.20001220703</ele>
        <time>2024-01-30T10:09:56.000Z</time>
      </trkpt>
      <trkpt lat="44.46395" lon="3.45838">
        <ele>920</ele>
        <time>2024-01-30T10:09:57.000Z</time>
      </trkpt>
      <trkpt lat="44.4642" lon="3.45854">
        <ele>918</ele>
        <time>2024-01-30T10:09:59.000Z</time>
      </trkpt>
      <trkpt lat="44.46433" lon="3.4586">
        <ele>917.40002441406</ele>
        <time>2024-01-30T10:10:00.000Z</time>
      </trkpt>
      <trkpt lat="44.4645" lon="3.45866">
        <ele>916.59997558594</ele>
        <time>2024-01-30T10:10:01.000Z</time>
      </trkpt>
      <trkpt lat="44.46462" lon="3.45869">
        <ele>915.40002441406</ele>
        <time>2024-01-30T10:10:02.000Z</time>
      </trkpt>
      <trkpt lat="44.4648" lon="3.45871">
        <ele>914</ele>
        <time>2024-01-30T10:10:03.000Z</time>
      </trkpt>
      <trkpt lat="44.46492" lon="3.45872">
        <ele>913.20001220703</ele>
        <time>2024-01-30T10:10:04.000Z</time>
      </trkpt>
      <trkpt lat="44.46511" lon="3.45873">
        <ele>912</ele>
        <time>2024-01-30T10:10:05.000Z</time>
      </trkpt>
      <trkpt lat="44.46526" lon="3.45875">
        <ele>910.59997558594</ele>
        <time>2024-01-30T10:10:06.000Z</time>
      </trkpt>
      <trkpt lat="44.46542" lon="3.45876">
        <ele>909.40002441406</ele>
        <time>2024-01-30T10:10:07.000Z</time>
      </trkpt>
      <trkpt lat="44.46556" lon="3.45876">
        <ele>908.20001220703</ele>
        <time>2024-01-30T10:10:08.000Z</time>
      </trkpt>
      <trkpt lat="44.46572" lon="3.45876">
        <ele>907</ele>
        <time>2024-01-30T10:10:09.000Z</time>
      </trkpt>
      <trkpt lat="44.46589" lon="3.45875">
        <ele>905.59997558594</ele>
        <time>2024-01-30T10:10:10.000Z</time>
      </trkpt>
      <trkpt lat="44.46605" lon="3.45873">
        <ele>904.20001220703</ele>
        <time>2024-01-30T10:10:11.000Z</time>
      </trkpt>
      <trkpt lat="44.4662" lon="3.45872">
        <ele>902.20001220703</ele>
        <time>2024-01-30T10:10:12.000Z</time>
      </trkpt>
      <trkpt lat="44.46635" lon="3.45871">
        <ele>900.79998779297</ele>
        <time>2024-01-30T10:10:13.000Z</time>
      </trkpt>
      <trkpt lat="44.46648" lon="3.45869">
        <ele>899.40002441406</ele>
        <time>2024-01-30T10:10:14.000Z</time>
      </trkpt>
      <trkpt lat="44.46661" lon="3.45866">
        <ele>898.20001220703</ele>
        <time>2024-01-30T10:10:15.000Z</time>
      </trkpt>
      <trkpt lat="44.46672" lon="3.45862">
        <ele>897</ele>
        <time>2024-01-30T10:10:16.000Z</time>
      </trkpt>
      <trkpt lat="44.46681" lon="3.45857">
        <ele>896</ele>
        <time>2024-01-30T10:10:17.000Z</time>
      </trkpt>
      <trkpt lat="44.46688" lon="3.45852">
        <ele>894.79998779297</ele>
        <time>2024-01-30T10:10:18.000Z</time>
      </trkpt>
      <trkpt lat="44.46693" lon="3.45849">
        <ele>894.40002441406</ele>
        <time>2024-01-30T10:10:19.000Z</time>
      </trkpt>
      <trkpt lat="44.46697" lon="3.45847">
        <ele>894.20001220703</ele>
        <time>2024-01-30T10:10:20.000Z</time>
      </trkpt>
      <trkpt lat="44.46701" lon="3.45849">
        <ele>893.79998779297</ele>
        <time>2024-01-30T10:10:21.000Z</time>
      </trkpt>
      <trkpt lat="44.46701" lon="3.45855">
        <ele>893.59997558594</ele>
        <time>2024-01-30T10:10:22.000Z</time>
      </trkpt>
      <trkpt lat="44.46691" lon="3.45865">
        <ele>893.20001220703</ele>
        <time>2024-01-30T10:10:24.000Z</time>
      </trkpt>
      <trkpt lat="44.46666" lon="3.45874">
        <ele>892.79998779297</ele>
        <time>2024-01-30T10:10:27.000Z</time>
      </trkpt>
      <trkpt lat="44.46655" lon="3.45878">
        <ele>892.20001220703</ele>
        <time>2024-01-30T10:10:28.000Z</time>
      </trkpt>
      <trkpt lat="44.4663" lon="3.45887">
        <ele>891.79998779297</ele>
        <time>2024-01-30T10:10:30.000Z</time>
      </trkpt>
      <trkpt lat="44.46613" lon="3.45894">
        <ele>891.20001220703</ele>
        <time>2024-01-30T10:10:31.000Z</time>
      </trkpt>
      <trkpt lat="44.46588" lon="3.45903">
        <ele>889.59997558594</ele>
        <time>2024-01-30T10:10:33.000Z</time>
      </trkpt>
      <trkpt lat="44.46573" lon="3.45907">
        <ele>888.79998779297</ele>
        <time>2024-01-30T10:10:34.000Z</time>
      </trkpt>
      <trkpt lat="44.4656" lon="3.45912">
        <ele>888</ele>
        <time>2024-01-30T10:10:35.000Z</time>
      </trkpt>
      <trkpt lat="44.46548" lon="3.45916">
        <ele>887</ele>
        <time>2024-01-30T10:10:36.000Z</time>
      </trkpt>
      <trkpt lat="44.46538" lon="3.45918">
        <ele>886.40002441406</ele>
        <time>2024-01-30T10:10:37.000Z</time>
      </trkpt>
      <trkpt lat="44.46528" lon="3.4592">
        <ele>885.20001220703</ele>
        <time>2024-01-30T10:10:38.000Z</time>
      </trkpt>
      <trkpt lat="44.4652" lon="3.45921">
        <ele>884.20001220703</ele>
        <time>2024-01-30T10:10:39.000Z</time>
      </trkpt>
      <trkpt lat="44.46514" lon="3.45921">
        <ele>883.20001220703</ele>
        <time>2024-01-30T10:10:40.000Z</time>
      </trkpt>
      <trkpt lat="44.46508" lon="3.45925">
        <ele>882.79998779297</ele>
        <time>2024-01-30T10:10:41.000Z</time>
      </trkpt>
      <trkpt lat="44.46503" lon="3.4593">
        <ele>882.40002441406</ele>
        <time>2024-01-30T10:10:42.000Z</time>
      </trkpt>
      <trkpt lat="44.465" lon="3.45941">
        <ele>882</ele>
        <time>2024-01-30T10:10:44.000Z</time>
      </trkpt>
      <trkpt lat="44.46514" lon="3.45942">
        <ele>882</ele>
        <time>2024-01-30T10:10:46.000Z</time>
      </trkpt>
      <trkpt lat="44.46541" lon="3.45931">
        <ele>880.79998779297</ele>
        <time>2024-01-30T10:10:49.000Z</time>
      </trkpt>
      <trkpt lat="44.46567" lon="3.45924">
        <ele>879.59997558594</ele>
        <time>2024-01-30T10:10:51.000Z</time>
      </trkpt>
      <trkpt lat="44.46583" lon="3.45922">
        <ele>878.40002441406</ele>
        <time>2024-01-30T10:10:52.000Z</time>
      </trkpt>
      <trkpt lat="44.46599" lon="3.4592">
        <ele>877.40002441406</ele>
        <time>2024-01-30T10:10:53.000Z</time>
      </trkpt>
      <trkpt lat="44.46637" lon="3.45917">
        <ele>875.20001220703</ele>
        <time>2024-01-30T10:10:55.000Z</time>
      </trkpt>
      <trkpt lat="44.46651" lon="3.45916">
        <ele>874</ele>
        <time>2024-01-30T10:10:56.000Z</time>
      </trkpt>
      <trkpt lat="44.46669" lon="3.45914">
        <ele>872.79998779297</ele>
        <time>2024-01-30T10:10:57.000Z</time>
      </trkpt>
      <trkpt lat="44.46687" lon="3.45911">
        <ele>871.59997558594</ele>
        <time>2024-01-30T10:10:58.000Z</time>
      </trkpt>
      <trkpt lat="44.46706" lon="3.45904">
        <ele>870.20001220703</ele>
        <time>2024-01-30T10:10:59.000Z</time>
      </trkpt>
      <trkpt lat="44.46724" lon="3.45896">
        <ele>869.20001220703</ele>
        <time>2024-01-30T10:11:00.000Z</time>
      </trkpt>
      <trkpt lat="44.46742" lon="3.45886">
        <ele>868.20001220703</ele>
        <time>2024-01-30T10:11:01.000Z</time>
      </trkpt>
      <trkpt lat="44.4676" lon="3.45876">
        <ele>866.79998779297</ele>
        <time>2024-01-30T10:11:02.000Z</time>
      </trkpt>
      <trkpt lat="44.46778" lon="3.45865">
        <ele>865.59997558594</ele>
        <time>2024-01-30T10:11:03.000Z</time>
      </trkpt>
      <trkpt lat="44.46795" lon="3.45855">
        <ele>864.20001220703</ele>
        <time>2024-01-30T10:11:04.000Z</time>
      </trkpt>
      <trkpt lat="44.46816" lon="3.45841">
        <ele>863.20001220703</ele>
        <time>2024-01-30T10:11:05.000Z</time>
      </trkpt>
      <trkpt lat="44.4683" lon="3.45832">
        <ele>861.59997558594</ele>
        <time>2024-01-30T10:11:06.000Z</time>
      </trkpt>
      <trkpt lat="44.46848" lon="3.4582">
        <ele>860.40002441406</ele>
        <time>2024-01-30T10:11:07.000Z</time>
      </trkpt>
      <trkpt lat="44.4687" lon="3.45806">
        <ele>859</ele>
        <time>2024-01-30T10:11:08.000Z</time>
      </trkpt>
      <trkpt lat="44.46885" lon="3.45796">
        <ele>857.59997558594</ele>
        <time>2024-01-30T10:11:09.000Z</time>
      </trkpt>
      <trkpt lat="44.46903" lon="3.45785">
        <ele>856.20001220703</ele>
        <time>2024-01-30T10:11:10.000Z</time>
      </trkpt>
      <trkpt lat="44.46926" lon="3.45773">
        <ele>854.79998779297</ele>
        <time>2024-01-30T10:11:11.000Z</time>
      </trkpt>
      <trkpt lat="44.46944" lon="3.45765">
        <ele>853.20001220703</ele>
        <time>2024-01-30T10:11:12.000Z</time>
      </trkpt>
      <trkpt lat="44.46959" lon="3.4576">
        <ele>852</ele>
        <time>2024-01-30T10:11:13.000Z</time>
      </trkpt>
      <trkpt lat="44.46977" lon="3.45754">
        <ele>850.40002441406</ele>
        <time>2024-01-30T10:11:14.000Z</time>
      </trkpt>
      <trkpt lat="44.46994" lon="3.45749">
        <ele>848.40002441406</ele>
        <time>2024-01-30T10:11:15.000Z</time>
      </trkpt>
      <trkpt lat="44.47011" lon="3.45742">
        <ele>846.79998779297</ele>
        <time>2024-01-30T10:11:16.000Z</time>
      </trkpt>
      <trkpt lat="44.47028" lon="3.45733">
        <ele>845.59997558594</ele>
        <time>2024-01-30T10:11:17.000Z</time>
      </trkpt>
      <trkpt lat="44.4704" lon="3.45725">
        <ele>844.20001220703</ele>
        <time>2024-01-30T10:11:18.000Z</time>
      </trkpt>
      <trkpt lat="44.47053" lon="3.45713">
        <ele>843.40002441406</ele>
        <time>2024-01-30T10:11:19.000Z</time>
      </trkpt>
      <trkpt lat="44.47065" lon="3.45701">
        <ele>842.59997558594</ele>
        <time>2024-01-30T10:11:20.000Z</time>
      </trkpt>
      <trkpt lat="44.47076" lon="3.45686">
        <ele>841.40002441406</ele>
        <time>2024-01-30T10:11:21.000Z</time>
      </trkpt>
      <trkpt lat="44.47086" lon="3.45669">
        <ele>840.40002441406</ele>
        <time>2024-01-30T10:11:22.000Z</time>
      </trkpt>
      <trkpt lat="44.47096" lon="3.45651">
        <ele>839.40002441406</ele>
        <time>2024-01-30T10:11:23.000Z</time>
      </trkpt>
      <trkpt lat="44.47105" lon="3.45633">
        <ele>838.20001220703</ele>
        <time>2024-01-30T10:11:24.000Z</time>
      </trkpt>
      <trkpt lat="44.47112" lon="3.45613">
        <ele>837</ele>
        <time>2024-01-30T10:11:25.000Z</time>
      </trkpt>
      <trkpt lat="44.47118" lon="3.45592">
        <ele>835.79998779297</ele>
        <time>2024-01-30T10:11:26.000Z</time>
      </trkpt>
      <trkpt lat="44.47129" lon="3.45548">
        <ele>833.40002441406</ele>
        <time>2024-01-30T10:11:28.000Z</time>
      </trkpt>
      <trkpt lat="44.47134" lon="3.45526">
        <ele>832</ele>
        <time>2024-01-30T10:11:29.000Z</time>
      </trkpt>
      <trkpt lat="44.47139" lon="3.45504">
        <ele>830.59997558594</ele>
        <time>2024-01-30T10:11:30.000Z</time>
      </trkpt>
      <trkpt lat="44.47144" lon="3.45484">
        <ele>828.59997558594</ele>
        <time>2024-01-30T10:11:31.000Z</time>
      </trkpt>
      <trkpt lat="44.47149" lon="3.45467">
        <ele>827</ele>
        <time>2024-01-30T10:11:32.000Z</time>
      </trkpt>
      <trkpt lat="44.47153" lon="3.45449">
        <ele>825.79998779297</ele>
        <time>2024-01-30T10:11:33.000Z</time>
      </trkpt>
      <trkpt lat="44.47158" lon="3.45439">
        <ele>824.79998779297</ele>
        <time>2024-01-30T10:11:34.000Z</time>
      </trkpt>
      <trkpt lat="44.47167" lon="3.4543">
        <ele>824.20001220703</ele>
        <time>2024-01-30T10:11:35.000Z</time>
      </trkpt>
      <trkpt lat="44.47181" lon="3.45428">
        <ele>824</ele>
        <time>2024-01-30T10:11:36.000Z</time>
      </trkpt>
      <trkpt lat="44.47194" lon="3.45429">
        <ele>823</ele>
        <time>2024-01-30T10:11:37.000Z</time>
      </trkpt>
      <trkpt lat="44.47221" lon="3.45428">
        <ele>820.79998779297</ele>
        <time>2024-01-30T10:11:39.000Z</time>
      </trkpt>
      <trkpt lat="44.47236" lon="3.45423">
        <ele>819.79998779297</ele>
        <time>2024-01-30T10:11:40.000Z</time>
      </trkpt>
      <trkpt lat="44.4725" lon="3.45415">
        <ele>817.79998779297</ele>
        <time>2024-01-30T10:11:41.000Z</time>
      </trkpt>
      <trkpt lat="44.47264" lon="3.45405">
        <ele>816.40002441406</ele>
        <time>2024-01-30T10:11:42.000Z</time>
      </trkpt>
      <trkpt lat="44.47277" lon="3.45394">
        <ele>814.59997558594</ele>
        <time>2024-01-30T10:11:43.000Z</time>
      </trkpt>
      <trkpt lat="44.4729" lon="3.45383">
        <ele>813.40002441406</ele>
        <time>2024-01-30T10:11:44.000Z</time>
      </trkpt>
      <trkpt lat="44.473" lon="3.4537">
        <ele>811</ele>
        <time>2024-01-30T10:11:45.000Z</time>
      </trkpt>
      <trkpt lat="44.4731" lon="3.45358">
        <ele>809.59997558594</ele>
        <time>2024-01-30T10:11:46.000Z</time>
      </trkpt>
      <trkpt lat="44.47318" lon="3.45343">
        <ele>808.40002441406</ele>
        <time>2024-01-30T10:11:47.000Z</time>
      </trkpt>
      <trkpt lat="44.47324" lon="3.45327">
        <ele>807.20001220703</ele>
        <time>2024-01-30T10:11:48.000Z</time>
      </trkpt>
      <trkpt lat="44.47334" lon="3.45291">
        <ele>805.40002441406</ele>
        <time>2024-01-30T10:11:50.000Z</time>
      </trkpt>
      <trkpt lat="44.47339" lon="3.45274">
        <ele>804</ele>
        <time>2024-01-30T10:11:51.000Z</time>
      </trkpt>
      <trkpt lat="44.47347" lon="3.45255">
        <ele>802.79998779297</ele>
        <time>2024-01-30T10:11:52.000Z</time>
      </trkpt>
      <trkpt lat="44.47354" lon="3.45243">
        <ele>801.79998779297</ele>
        <time>2024-01-30T10:11:53.000Z</time>
      </trkpt>
      <trkpt lat="44.47363" lon="3.45227">
        <ele>800.79998779297</ele>
        <time>2024-01-30T10:11:54.000Z</time>
      </trkpt>
      <trkpt lat="44.47373" lon="3.45211">
        <ele>799.40002441406</ele>
        <time>2024-01-30T10:11:55.000Z</time>
      </trkpt>
      <trkpt lat="44.47384" lon="3.45196">
        <ele>797.59997558594</ele>
        <time>2024-01-30T10:11:56.000Z</time>
      </trkpt>
      <trkpt lat="44.47397" lon="3.45182">
        <ele>795.79998779297</ele>
        <time>2024-01-30T10:11:57.000Z</time>
      </trkpt>
      <trkpt lat="44.47415" lon="3.45167">
        <ele>794</ele>
        <time>2024-01-30T10:11:58.000Z</time>
      </trkpt>
      <trkpt lat="44.47428" lon="3.45157">
        <ele>792.20001220703</ele>
        <time>2024-01-30T10:11:59.000Z</time>
      </trkpt>
      <trkpt lat="44.4744" lon="3.45147">
        <ele>790.59997558594</ele>
        <time>2024-01-30T10:12:00.000Z</time>
      </trkpt>
      <trkpt lat="44.47459" lon="3.45133">
        <ele>788.59997558594</ele>
        <time>2024-01-30T10:12:01.000Z</time>
      </trkpt>
      <trkpt lat="44.47472" lon="3.45123">
        <ele>786.59997558594</ele>
        <time>2024-01-30T10:12:02.000Z</time>
      </trkpt>
      <trkpt lat="44.47492" lon="3.45108">
        <ele>784.40002441406</ele>
        <time>2024-01-30T10:12:03.000Z</time>
      </trkpt>
      <trkpt lat="44.47507" lon="3.45097">
        <ele>782.20001220703</ele>
        <time>2024-01-30T10:12:04.000Z</time>
      </trkpt>
      <trkpt lat="44.47525" lon="3.45084">
        <ele>780.20001220703</ele>
        <time>2024-01-30T10:12:05.000Z</time>
      </trkpt>
      <trkpt lat="44.47547" lon="3.4507">
        <ele>778.40002441406</ele>
        <time>2024-01-30T10:12:06.000Z</time>
      </trkpt>
      <trkpt lat="44.47566" lon="3.4506">
        <ele>776.40002441406</ele>
        <time>2024-01-30T10:12:07.000Z</time>
      </trkpt>
      <trkpt lat="44.47585" lon="3.45052">
        <ele>773.59997558594</ele>
        <time>2024-01-30T10:12:08.000Z</time>
      </trkpt>
      <trkpt lat="44.47604" lon="3.45043">
        <ele>771.20001220703</ele>
        <time>2024-01-30T10:12:09.000Z</time>
      </trkpt>
      <trkpt lat="44.47623" lon="3.45035">
        <ele>768.20001220703</ele>
        <time>2024-01-30T10:12:10.000Z</time>
      </trkpt>
      <trkpt lat="44.4764" lon="3.45026">
        <ele>765.59997558594</ele>
        <time>2024-01-30T10:12:11.000Z</time>
      </trkpt>
      <trkpt lat="44.47657" lon="3.45017">
        <ele>763.40002441406</ele>
        <time>2024-01-30T10:12:12.000Z</time>
      </trkpt>
      <trkpt lat="44.47672" lon="3.45007">
        <ele>760.79998779297</ele>
        <time>2024-01-30T10:12:13.000Z</time>
      </trkpt>
      <trkpt lat="44.47685" lon="3.44996">
        <ele>758.59997558594</ele>
        <time>2024-01-30T10:12:14.000Z</time>
      </trkpt>
      <trkpt lat="44.47698" lon="3.44983">
        <ele>757</ele>
        <time>2024-01-30T10:12:15.000Z</time>
      </trkpt>
      <trkpt lat="44.4771" lon="3.4497">
        <ele>755.20001220703</ele>
        <time>2024-01-30T10:12:16.000Z</time>
      </trkpt>
      <trkpt lat="44.47721" lon="3.44954">
        <ele>753.40002441406</ele>
        <time>2024-01-30T10:12:17.000Z</time>
      </trkpt>
      <trkpt lat="44.4773" lon="3.44936">
        <ele>752</ele>
        <time>2024-01-30T10:12:18.000Z</time>
      </trkpt>
      <trkpt lat="44.47744" lon="3.44896">
        <ele>749.20001220703</ele>
        <time>2024-01-30T10:12:20.000Z</time>
      </trkpt>
      <trkpt lat="44.4775" lon="3.44875">
        <ele>748</ele>
        <time>2024-01-30T10:12:21.000Z</time>
      </trkpt>
      <trkpt lat="44.47756" lon="3.44855">
        <ele>746.40002441406</ele>
        <time>2024-01-30T10:12:22.000Z</time>
      </trkpt>
      <trkpt lat="44.4776" lon="3.44835">
        <ele>744.59997558594</ele>
        <time>2024-01-30T10:12:23.000Z</time>
      </trkpt>
      <trkpt lat="44.47765" lon="3.44817">
        <ele>743.20001220703</ele>
        <time>2024-01-30T10:12:24.000Z</time>
      </trkpt>
      <trkpt lat="44.47769" lon="3.448">
        <ele>742</ele>
        <time>2024-01-30T10:12:25.000Z</time>
      </trkpt>
      <trkpt lat="44.47771" lon="3.44787">
        <ele>740.59997558594</ele>
        <time>2024-01-30T10:12:26.000Z</time>
      </trkpt>
      <trkpt lat="44.47773" lon="3.44773">
        <ele>739.40002441406</ele>
        <time>2024-01-30T10:12:27.000Z</time>
      </trkpt>
      <trkpt lat="44.47774" lon="3.4475">
        <ele>737</ele>
        <time>2024-01-30T10:12:29.000Z</time>
      </trkpt>
      <trkpt lat="44.47776" lon="3.4474">
        <ele>736.40002441406</ele>
        <time>2024-01-30T10:12:30.000Z</time>
      </trkpt>
      <trkpt lat="44.47777" lon="3.44736">
        <ele>735.79998779297</ele>
        <time>2024-01-30T10:12:31.000Z</time>
      </trkpt>
      <trkpt lat="44.47781" lon="3.44734">
        <ele>735.59997558594</ele>
        <time>2024-01-30T10:12:32.000Z</time>
      </trkpt>
      <trkpt lat="44.47784" lon="3.44734">
        <ele>735.20001220703</ele>
        <time>2024-01-30T10:12:33.000Z</time>
      </trkpt>
      <trkpt lat="44.47787" lon="3.44739">
        <ele>734.79998779297</ele>
        <time>2024-01-30T10:12:34.000Z</time>
      </trkpt>
      <trkpt lat="44.47788" lon="3.44749">
        <ele>734.59997558594</ele>
        <time>2024-01-30T10:12:35.000Z</time>
      </trkpt>
      <trkpt lat="44.47788" lon="3.44775">
        <ele>734.20001220703</ele>
        <time>2024-01-30T10:12:37.000Z</time>
      </trkpt>
      <trkpt lat="44.47789" lon="3.4479">
        <ele>733.20001220703</ele>
        <time>2024-01-30T10:12:38.000Z</time>
      </trkpt>
      <trkpt lat="44.4779" lon="3.44825">
        <ele>732.79998779297</ele>
        <time>2024-01-30T10:12:40.000Z</time>
      </trkpt>
      <trkpt lat="44.4779" lon="3.44844">
        <ele>732.20001220703</ele>
        <time>2024-01-30T10:12:41.000Z</time>
      </trkpt>
      <trkpt lat="44.47788" lon="3.44879">
        <ele>730.20001220703</ele>
        <time>2024-01-30T10:12:43.000Z</time>
      </trkpt>
      <trkpt lat="44.47785" lon="3.44894">
        <ele>729.20001220703</ele>
        <time>2024-01-30T10:12:44.000Z</time>
      </trkpt>
      <trkpt lat="44.4778" lon="3.44907">
        <ele>728.20001220703</ele>
        <time>2024-01-30T10:12:45.000Z</time>
      </trkpt>
      <trkpt lat="44.47775" lon="3.44917">
        <ele>727.40002441406</ele>
        <time>2024-01-30T10:12:46.000Z</time>
      </trkpt>
      <trkpt lat="44.4777" lon="3.44927">
        <ele>726.59997558594</ele>
        <time>2024-01-30T10:12:47.000Z</time>
      </trkpt>
      <trkpt lat="44.47767" lon="3.44935">
        <ele>726.20001220703</ele>
        <time>2024-01-30T10:12:48.000Z</time>
      </trkpt>
      <trkpt lat="44.47767" lon="3.44949">
        <ele>725.59997558594</ele>
        <time>2024-01-30T10:12:50.000Z</time>
      </trkpt>
      <trkpt lat="44.47777" lon="3.4495">
        <ele>725.20001220703</ele>
        <time>2024-01-30T10:12:52.000Z</time>
      </trkpt>
      <trkpt lat="44.47781" lon="3.44944">
        <ele>725.20001220703</ele>
        <time>2024-01-30T10:12:53.000Z</time>
      </trkpt>
      <trkpt lat="44.47784" lon="3.44936">
        <ele>725</ele>
        <time>2024-01-30T10:12:54.000Z</time>
      </trkpt>
      <trkpt lat="44.47796" lon="3.44901">
        <ele>724</ele>
        <time>2024-01-30T10:12:57.000Z</time>
      </trkpt>
      <trkpt lat="44.4781" lon="3.44874">
        <ele>723</ele>
        <time>2024-01-30T10:12:59.000Z</time>
      </trkpt>
      <trkpt lat="44.47819" lon="3.4486">
        <ele>722.40002441406</ele>
        <time>2024-01-30T10:13:00.000Z</time>
      </trkpt>
      <trkpt lat="44.47827" lon="3.44845">
        <ele>721.40002441406</ele>
        <time>2024-01-30T10:13:01.000Z</time>
      </trkpt>
      <trkpt lat="44.47842" lon="3.44816">
        <ele>719.59997558594</ele>
        <time>2024-01-30T10:13:03.000Z</time>
      </trkpt>
      <trkpt lat="44.47847" lon="3.44802">
        <ele>718.20001220703</ele>
        <time>2024-01-30T10:13:04.000Z</time>
      </trkpt>
      <trkpt lat="44.47849" lon="3.44787">
        <ele>717</ele>
        <time>2024-01-30T10:13:05.000Z</time>
      </trkpt>
      <trkpt lat="44.47848" lon="3.44762">
        <ele>715.79998779297</ele>
        <time>2024-01-30T10:13:07.000Z</time>
      </trkpt>
      <trkpt lat="44.47847" lon="3.44752">
        <ele>714.79998779297</ele>
        <time>2024-01-30T10:13:08.000Z</time>
      </trkpt>
      <trkpt lat="44.47849" lon="3.44744">
        <ele>714.40002441406</ele>
        <time>2024-01-30T10:13:09.000Z</time>
      </trkpt>
      <trkpt lat="44.47851" lon="3.44739">
        <ele>714</ele>
        <time>2024-01-30T10:13:10.000Z</time>
      </trkpt>
      <trkpt lat="44.47855" lon="3.44738">
        <ele>713.59997558594</ele>
        <time>2024-01-30T10:13:11.000Z</time>
      </trkpt>
      <trkpt lat="44.47859" lon="3.4474">
        <ele>713.40002441406</ele>
        <time>2024-01-30T10:13:12.000Z</time>
      </trkpt>
      <trkpt lat="44.47863" lon="3.44755">
        <ele>712.79998779297</ele>
        <time>2024-01-30T10:13:14.000Z</time>
      </trkpt>
      <trkpt lat="44.47871" lon="3.4479">
        <ele>712.20001220703</ele>
        <time>2024-01-30T10:13:17.000Z</time>
      </trkpt>
      <trkpt lat="44.47876" lon="3.44837">
        <ele>711.20001220703</ele>
        <time>2024-01-30T10:13:20.000Z</time>
      </trkpt>
      <trkpt lat="44.47875" lon="3.44855">
        <ele>710.79998779297</ele>
        <time>2024-01-30T10:13:21.000Z</time>
      </trkpt>
      <trkpt lat="44.47871" lon="3.44871">
        <ele>710.20001220703</ele>
        <time>2024-01-30T10:13:22.000Z</time>
      </trkpt>
      <trkpt lat="44.47865" lon="3.44887">
        <ele>709.79998779297</ele>
        <time>2024-01-30T10:13:23.000Z</time>
      </trkpt>
      <trkpt lat="44.47858" lon="3.44903">
        <ele>709.20001220703</ele>
        <time>2024-01-30T10:13:24.000Z</time>
      </trkpt>
      <trkpt lat="44.47843" lon="3.44934">
        <ele>707.20001220703</ele>
        <time>2024-01-30T10:13:26.000Z</time>
      </trkpt>
      <trkpt lat="44.47833" lon="3.44949">
        <ele>706.59997558594</ele>
        <time>2024-01-30T10:13:27.000Z</time>
      </trkpt>
      <trkpt lat="44.47822" lon="3.44963">
        <ele>705.59997558594</ele>
        <time>2024-01-30T10:13:28.000Z</time>
      </trkpt>
      <trkpt lat="44.47812" lon="3.44973">
        <ele>704.79998779297</ele>
        <time>2024-01-30T10:13:29.000Z</time>
      </trkpt>
      <trkpt lat="44.47798" lon="3.44988">
        <ele>704</ele>
        <time>2024-01-30T10:13:30.000Z</time>
      </trkpt>
      <trkpt lat="44.47783" lon="3.45003">
        <ele>703</ele>
        <time>2024-01-30T10:13:31.000Z</time>
      </trkpt>
      <trkpt lat="44.4776" lon="3.45028">
        <ele>701.40002441406</ele>
        <time>2024-01-30T10:13:33.000Z</time>
      </trkpt>
      <trkpt lat="44.4775" lon="3.45039">
        <ele>699.79998779297</ele>
        <time>2024-01-30T10:13:34.000Z</time>
      </trkpt>
      <trkpt lat="44.47742" lon="3.45048">
        <ele>698.40002441406</ele>
        <time>2024-01-30T10:13:35.000Z</time>
      </trkpt>
      <trkpt lat="44.47735" lon="3.45059">
        <ele>697.20001220703</ele>
        <time>2024-01-30T10:13:36.000Z</time>
      </trkpt>
      <trkpt lat="44.4773" lon="3.45071">
        <ele>696.20001220703</ele>
        <time>2024-01-30T10:13:37.000Z</time>
      </trkpt>
      <trkpt lat="44.47728" lon="3.45084">
        <ele>695.40002441406</ele>
        <time>2024-01-30T10:13:38.000Z</time>
      </trkpt>
      <trkpt lat="44.47729" lon="3.45099">
        <ele>694.79998779297</ele>
        <time>2024-01-30T10:13:39.000Z</time>
      </trkpt>
      <trkpt lat="44.47733" lon="3.45117">
        <ele>694.20001220703</ele>
        <time>2024-01-30T10:13:40.000Z</time>
      </trkpt>
      <trkpt lat="44.47738" lon="3.4513">
        <ele>693.40002441406</ele>
        <time>2024-01-30T10:13:41.000Z</time>
      </trkpt>
      <trkpt lat="44.47746" lon="3.45147">
        <ele>692.79998779297</ele>
        <time>2024-01-30T10:13:42.000Z</time>
      </trkpt>
      <trkpt lat="44.47769" lon="3.4518">
        <ele>691</ele>
        <time>2024-01-30T10:13:44.000Z</time>
      </trkpt>
      <trkpt lat="44.47795" lon="3.45224">
        <ele>689.40002441406</ele>
        <time>2024-01-30T10:13:46.000Z</time>
      </trkpt>
      <trkpt lat="44.47806" lon="3.45242">
        <ele>688.20001220703</ele>
        <time>2024-01-30T10:13:47.000Z</time>
      </trkpt>
      <trkpt lat="44.47818" lon="3.45261">
        <ele>687</ele>
        <time>2024-01-30T10:13:48.000Z</time>
      </trkpt>
      <trkpt lat="44.4783" lon="3.45279">
        <ele>685.59997558594</ele>
        <time>2024-01-30T10:13:49.000Z</time>
      </trkpt>
      <trkpt lat="44.47844" lon="3.45295">
        <ele>685.40002441406</ele>
        <time>2024-01-30T10:13:50.000Z</time>
      </trkpt>
      <trkpt lat="44.47873" lon="3.45323">
        <ele>684.59997558594</ele>
        <time>2024-01-30T10:13:52.000Z</time>
      </trkpt>
      <trkpt lat="44.47896" lon="3.4535">
        <ele>684</ele>
        <time>2024-01-30T10:13:54.000Z</time>
      </trkpt>
      <trkpt lat="44.4792" lon="3.4538">
        <ele>683.40002441406</ele>
        <time>2024-01-30T10:13:56.000Z</time>
      </trkpt>
      <trkpt lat="44.47941" lon="3.4541">
        <ele>683</ele>
        <time>2024-01-30T10:13:58.000Z</time>
      </trkpt>
      <trkpt lat="44.47967" lon="3.45458">
        <ele>682.59997558594</ele>
        <time>2024-01-30T10:14:01.000Z</time>
      </trkpt>
      <trkpt lat="44.47972" lon="3.45475">
        <ele>682.40002441406</ele>
        <time>2024-01-30T10:14:02.000Z</time>
      </trkpt>
      <trkpt lat="44.47977" lon="3.45491">
        <ele>681.59997558594</ele>
        <time>2024-01-30T10:14:03.000Z</time>
      </trkpt>
      <trkpt lat="44.47979" lon="3.45505">
        <ele>681.40002441406</ele>
        <time>2024-01-30T10:14:04.000Z</time>
      </trkpt>
      <trkpt lat="44.4798" lon="3.4552">
        <ele>681</ele>
        <time>2024-01-30T10:14:05.000Z</time>
      </trkpt>
      <trkpt lat="44.47975" lon="3.45545">
        <ele>680.79998779297</ele>
        <time>2024-01-30T10:14:07.000Z</time>
      </trkpt>
      <trkpt lat="44.4797" lon="3.45567">
        <ele>680.40002441406</ele>
        <time>2024-01-30T10:14:09.000Z</time>
      </trkpt>
      <trkpt lat="44.47971" lon="3.45576">
        <ele>680.40002441406</ele>
        <time>2024-01-30T10:14:10.000Z</time>
      </trkpt>
      <trkpt lat="44.47977" lon="3.45583">
        <ele>680.40002441406</ele>
        <time>2024-01-30T10:14:11.000Z</time>
      </trkpt>
      <trkpt lat="44.47983" lon="3.45588">
        <ele>680.59997558594</ele>
        <time>2024-01-30T10:14:12.000Z</time>
      </trkpt>
      <trkpt lat="44.48014" lon="3.4561">
        <ele>681</ele>
        <time>2024-01-30T10:14:16.000Z</time>
      </trkpt>
      <trkpt lat="44.48019" lon="3.45616">
        <ele>681.20001220703</ele>
        <time>2024-01-30T10:14:17.000Z</time>
      </trkpt>
      <trkpt lat="44.48023" lon="3.45623">
        <ele>681.40002441406</ele>
        <time>2024-01-30T10:14:18.000Z</time>
      </trkpt>
      <trkpt lat="44.48025" lon="3.4563">
        <ele>681.79998779297</ele>
        <time>2024-01-30T10:14:19.000Z</time>
      </trkpt>
      <trkpt lat="44.48026" lon="3.45637">
        <ele>682.20001220703</ele>
        <time>2024-01-30T10:14:20.000Z</time>
      </trkpt>
      <trkpt lat="44.48027" lon="3.45646">
        <ele>682.59997558594</ele>
        <time>2024-01-30T10:14:22.000Z</time>
      </trkpt>
      <trkpt lat="44.48028" lon="3.45651">
        <ele>683</ele>
        <time>2024-01-30T10:14:26.000Z</time>
      </trkpt>
      <trkpt lat="44.48036" lon="3.45656">
        <ele>683.20001220703</ele>
        <time>2024-01-30T10:14:29.000Z</time>
      </trkpt>
      <trkpt lat="44.4805" lon="3.45649">
        <ele>683.40002441406</ele>
        <time>2024-01-30T10:14:32.000Z</time>
      </trkpt>
      <trkpt lat="44.48056" lon="3.45648">
        <ele>683.40002441406</ele>
        <time>2024-01-30T10:14:33.000Z</time>
      </trkpt>
      <trkpt lat="44.4807" lon="3.45647">
        <ele>684</ele>
        <time>2024-01-30T10:14:35.000Z</time>
      </trkpt>
      <trkpt lat="44.48077" lon="3.45649">
        <ele>684.20001220703</ele>
        <time>2024-01-30T10:14:36.000Z</time>
      </trkpt>
      <trkpt lat="44.48086" lon="3.45652">
        <ele>684.79998779297</ele>
        <time>2024-01-30T10:14:37.000Z</time>
      </trkpt>
      <trkpt lat="44.48123" lon="3.45664">
        <ele>685</ele>
        <time>2024-01-30T10:14:41.000Z</time>
      </trkpt>
      <trkpt lat="44.48164" lon="3.45679">
        <ele>685.79998779297</ele>
        <time>2024-01-30T10:14:46.000Z</time>
      </trkpt>
      <trkpt lat="44.48171" lon="3.45681">
        <ele>685.79998779297</ele>
        <time>2024-01-30T10:14:47.000Z</time>
      </trkpt>
      <trkpt lat="44.48181" lon="3.45685">
        <ele>686.59997558594</ele>
        <time>2024-01-30T10:14:49.000Z</time>
      </trkpt>
      <trkpt lat="44.48185" lon="3.45687">
        <ele>686.79998779297</ele>
        <time>2024-01-30T10:14:50.000Z</time>
      </trkpt>
      <trkpt lat="44.48189" lon="3.4569">
        <ele>687.20001220703</ele>
        <time>2024-01-30T10:14:51.000Z</time>
      </trkpt>
      <trkpt lat="44.48202" lon="3.45705">
        <ele>688.20001220703</ele>
        <time>2024-01-30T10:14:55.000Z</time>
      </trkpt>
      <trkpt lat="44.48205" lon="3.4571">
        <ele>688.59997558594</ele>
        <time>2024-01-30T10:14:56.000Z</time>
      </trkpt>
      <trkpt lat="44.4821" lon="3.45721">
        <ele>689</ele>
        <time>2024-01-30T10:14:58.000Z</time>
      </trkpt>
      <trkpt lat="44.48213" lon="3.45732">
        <ele>689.20001220703</ele>
        <time>2024-01-30T10:15:00.000Z</time>
      </trkpt>
      <trkpt lat="44.48216" lon="3.45743">
        <ele>689.59997558594</ele>
        <time>2024-01-30T10:15:03.000Z</time>
      </trkpt>
      <trkpt lat="44.48216" lon="3.45744">
        <ele>689.59997558594</ele>
        <time>2024-01-30T10:15:04.000Z</time>
      </trkpt>
      <trkpt lat="44.48217" lon="3.45744">
        <ele>690.20001220703</ele>
        <time>2024-01-30T10:15:10.000Z</time>
      </trkpt>
      <trkpt lat="44.48217" lon="3.45744">
        <ele>690.40002441406</ele>
        <time>2024-01-30T10:15:32.000Z</time>
      </trkpt>
      <trkpt lat="44.48217" lon="3.45744">
        <ele>690.40002441406</ele>
        <time>2024-01-30T10:15:57.000Z</time>
      </trkpt>
      <trkpt lat="44.48217" lon="3.45744">
        <ele>690.59997558594</ele>
        <time>2024-01-30T10:16:18.000Z</time>
      </trkpt>
      <trkpt lat="44.48217" lon="3.45744">
        <ele>690.59997558594</ele>
        <time>2024-01-30T10:16:20.000Z</time>
      </trkpt>
      <trkpt lat="44.48217" lon="3.45744">
        <ele>690.79998779297</ele>
        <time>2024-01-30T10:16:31.000Z</time>
      </trkpt>
      <trkpt lat="44.48217" lon="3.45744">
        <ele>690.79998779297</ele>
        <time>2024-01-30T10:16:52.000Z</time>
      </trkpt>
      <trkpt lat="44.48218" lon="3.45746">
        <ele>691</ele>
        <time>2024-01-30T10:17:02.000Z</time>
      </trkpt>
      <trkpt lat="44.4822" lon="3.45752">
        <ele>691.20001220703</ele>
        <time>2024-01-30T10:17:04.000Z</time>
      </trkpt>
      <trkpt lat="44.48226" lon="3.45768">
        <ele>692</ele>
        <time>2024-01-30T10:17:07.000Z</time>
      </trkpt>
      <trkpt lat="44.48227" lon="3.45771">
        <ele>692</ele>
        <time>2024-01-30T10:17:08.000Z</time>
      </trkpt>
      <trkpt lat="44.48231" lon="3.45775">
        <ele>692.40002441406</ele>
        <time>2024-01-30T10:17:09.000Z</time>
      </trkpt>
      <trkpt lat="44.48239" lon="3.45779">
        <ele>692.79998779297</ele>
        <time>2024-01-30T10:17:11.000Z</time>
      </trkpt>
      <trkpt lat="44.48244" lon="3.45779">
        <ele>693.20001220703</ele>
        <time>2024-01-30T10:17:12.000Z</time>
      </trkpt>
      <trkpt lat="44.48248" lon="3.45778">
        <ele>693.40002441406</ele>
        <time>2024-01-30T10:17:13.000Z</time>
      </trkpt>
      <trkpt lat="44.48259" lon="3.45774">
        <ele>694</ele>
        <time>2024-01-30T10:17:15.000Z</time>
      </trkpt>
      <trkpt lat="44.48265" lon="3.45775">
        <ele>694.20001220703</ele>
        <time>2024-01-30T10:17:16.000Z</time>
      </trkpt>
      <trkpt lat="44.48271" lon="3.45776">
        <ele>694.40002441406</ele>
        <time>2024-01-30T10:17:17.000Z</time>
      </trkpt>
      <trkpt lat="44.48286" lon="3.45779">
        <ele>694.79998779297</ele>
        <time>2024-01-30T10:17:19.000Z</time>
      </trkpt>
      <trkpt lat="44.48295" lon="3.45778">
        <ele>694.79998779297</ele>
        <time>2024-01-30T10:17:20.000Z</time>
      </trkpt>
      <trkpt lat="44.48304" lon="3.45775">
        <ele>695.20001220703</ele>
        <time>2024-01-30T10:17:21.000Z</time>
      </trkpt>
      <trkpt lat="44.48313" lon="3.4577">
        <ele>695.59997558594</ele>
        <time>2024-01-30T10:17:22.000Z</time>
      </trkpt>
      <trkpt lat="44.48322" lon="3.45763">
        <ele>696.20001220703</ele>
        <time>2024-01-30T10:17:23.000Z</time>
      </trkpt>
      <trkpt lat="44.4833" lon="3.45756">
        <ele>696.79998779297</ele>
        <time>2024-01-30T10:17:24.000Z</time>
      </trkpt>
      <trkpt lat="44.48338" lon="3.4575">
        <ele>697.40002441406</ele>
        <time>2024-01-30T10:17:25.000Z</time>
      </trkpt>
      <trkpt lat="44.48348" lon="3.45746">
        <ele>698.20001220703</ele>
        <time>2024-01-30T10:17:26.000Z</time>
      </trkpt>
      <trkpt lat="44.48358" lon="3.45745">
        <ele>699.20001220703</ele>
        <time>2024-01-30T10:17:27.000Z</time>
      </trkpt>
      <trkpt lat="44.48369" lon="3.45747">
        <ele>699.79998779297</ele>
        <time>2024-01-30T10:17:28.000Z</time>
      </trkpt>
      <trkpt lat="44.48394" lon="3.45755">
        <ele>701.20001220703</ele>
        <time>2024-01-30T10:17:30.000Z</time>
      </trkpt>
      <trkpt lat="44.48424" lon="3.45764">
        <ele>702.40002441406</ele>
        <time>2024-01-30T10:17:32.000Z</time>
      </trkpt>
      <trkpt lat="44.4845" lon="3.45773">
        <ele>703.79998779297</ele>
        <time>2024-01-30T10:17:34.000Z</time>
      </trkpt>
      <trkpt lat="44.48481" lon="3.45784">
        <ele>705.40002441406</ele>
        <time>2024-01-30T10:17:36.000Z</time>
      </trkpt>
      <trkpt lat="44.48511" lon="3.45796">
        <ele>706.40002441406</ele>
        <time>2024-01-30T10:17:38.000Z</time>
      </trkpt>
      <trkpt lat="44.4853" lon="3.45806">
        <ele>707.40002441406</ele>
        <time>2024-01-30T10:17:39.000Z</time>
      </trkpt>
      <trkpt lat="44.48544" lon="3.45816">
        <ele>707.79998779297</ele>
        <time>2024-01-30T10:17:40.000Z</time>
      </trkpt>
      <trkpt lat="44.48569" lon="3.45837">
        <ele>709.20001220703</ele>
        <time>2024-01-30T10:17:42.000Z</time>
      </trkpt>
      <trkpt lat="44.48597" lon="3.4587">
        <ele>710.20001220703</ele>
        <time>2024-01-30T10:17:44.000Z</time>
      </trkpt>
      <trkpt lat="44.48608" lon="3.45886">
        <ele>712</ele>
        <time>2024-01-30T10:17:45.000Z</time>
      </trkpt>
      <trkpt lat="44.48619" lon="3.45902">
        <ele>712.20001220703</ele>
        <time>2024-01-30T10:17:46.000Z</time>
      </trkpt>
      <trkpt lat="44.4863" lon="3.45916">
        <ele>713.20001220703</ele>
        <time>2024-01-30T10:17:47.000Z</time>
      </trkpt>
      <trkpt lat="44.4865" lon="3.45939">
        <ele>714.79998779297</ele>
        <time>2024-01-30T10:17:49.000Z</time>
      </trkpt>
      <trkpt lat="44.48666" lon="3.45949">
        <ele>715.40002441406</ele>
        <time>2024-01-30T10:17:50.000Z</time>
      </trkpt>
      <trkpt lat="44.48677" lon="3.45954">
        <ele>716.40002441406</ele>
        <time>2024-01-30T10:17:51.000Z</time>
      </trkpt>
      <trkpt lat="44.48708" lon="3.45962">
        <ele>717.59997558594</ele>
        <time>2024-01-30T10:17:53.000Z</time>
      </trkpt>
      <trkpt lat="44.48744" lon="3.45962">
        <ele>718.59997558594</ele>
        <time>2024-01-30T10:17:55.000Z</time>
      </trkpt>
      <trkpt lat="44.48757" lon="3.4596">
        <ele>718.79998779297</ele>
        <time>2024-01-30T10:17:56.000Z</time>
      </trkpt>
      <trkpt lat="44.48812" lon="3.45949">
        <ele>719.79998779297</ele>
        <time>2024-01-30T10:17:59.000Z</time>
      </trkpt>
      <trkpt lat="44.48846" lon="3.45939">
        <ele>719.79998779297</ele>
        <time>2024-01-30T10:18:01.000Z</time>
      </trkpt>
      <trkpt lat="44.48896" lon="3.4591">
        <ele>719.40002441406</ele>
        <time>2024-01-30T10:18:04.000Z</time>
      </trkpt>
      <trkpt lat="44.4896" lon="3.4585">
        <ele>717.59997558594</ele>
        <time>2024-01-30T10:18:08.000Z</time>
      </trkpt>
      <trkpt lat="44.48992" lon="3.45826">
        <ele>716.40002441406</ele>
        <time>2024-01-30T10:18:10.000Z</time>
      </trkpt>
      <trkpt lat="44.49011" lon="3.45814">
        <ele>716</ele>
        <time>2024-01-30T10:18:11.000Z</time>
      </trkpt>
      <trkpt lat="44.4905" lon="3.45795">
        <ele>715</ele>
        <time>2024-01-30T10:18:13.000Z</time>
      </trkpt>
      <trkpt lat="44.49069" lon="3.45787">
        <ele>715</ele>
        <time>2024-01-30T10:18:14.000Z</time>
      </trkpt>
      <trkpt lat="44.49132" lon="3.45767">
        <ele>714</ele>
        <time>2024-01-30T10:18:17.000Z</time>
      </trkpt>
      <trkpt lat="44.49188" lon="3.4575">
        <ele>712.79998779297</ele>
        <time>2024-01-30T10:18:20.000Z</time>
      </trkpt>
      <trkpt lat="44.49208" lon="3.45744">
        <ele>712.59997558594</ele>
        <time>2024-01-30T10:18:21.000Z</time>
      </trkpt>
      <trkpt lat="44.49268" lon="3.45729">
        <ele>711.40002441406</ele>
        <time>2024-01-30T10:18:24.000Z</time>
      </trkpt>
      <trkpt lat="44.49292" lon="3.45726">
        <ele>710.40002441406</ele>
        <time>2024-01-30T10:18:25.000Z</time>
      </trkpt>
      <trkpt lat="44.49308" lon="3.45726">
        <ele>710</ele>
        <time>2024-01-30T10:18:26.000Z</time>
      </trkpt>
      <trkpt lat="44.49332" lon="3.45727">
        <ele>709.40002441406</ele>
        <time>2024-01-30T10:18:27.000Z</time>
      </trkpt>
      <trkpt lat="44.49352" lon="3.45731">
        <ele>709.20001220703</ele>
        <time>2024-01-30T10:18:28.000Z</time>
      </trkpt>
      <trkpt lat="44.49372" lon="3.45736">
        <ele>708.79998779297</ele>
        <time>2024-01-30T10:18:29.000Z</time>
      </trkpt>
      <trkpt lat="44.4941" lon="3.45753">
        <ele>708</ele>
        <time>2024-01-30T10:18:31.000Z</time>
      </trkpt>
      <trkpt lat="44.49446" lon="3.45771">
        <ele>707.40002441406</ele>
        <time>2024-01-30T10:18:33.000Z</time>
      </trkpt>
      <trkpt lat="44.49497" lon="3.45799">
        <ele>706.79998779297</ele>
        <time>2024-01-30T10:18:36.000Z</time>
      </trkpt>
      <trkpt lat="44.49528" lon="3.45823">
        <ele>706.40002441406</ele>
        <time>2024-01-30T10:18:38.000Z</time>
      </trkpt>
      <trkpt lat="44.49541" lon="3.45837">
        <ele>706.20001220703</ele>
        <time>2024-01-30T10:18:39.000Z</time>
      </trkpt>
      <trkpt lat="44.49552" lon="3.45852">
        <ele>706.20001220703</ele>
        <time>2024-01-30T10:18:40.000Z</time>
      </trkpt>
      <trkpt lat="44.49568" lon="3.45885">
        <ele>706</ele>
        <time>2024-01-30T10:18:42.000Z</time>
      </trkpt>
      <trkpt lat="44.49579" lon="3.45927">
        <ele>705.79998779297</ele>
        <time>2024-01-30T10:18:44.000Z</time>
      </trkpt>
      <trkpt lat="44.49581" lon="3.45949">
        <ele>705.79998779297</ele>
        <time>2024-01-30T10:18:45.000Z</time>
      </trkpt>
      <trkpt lat="44.49583" lon="3.45976">
        <ele>705.79998779297</ele>
        <time>2024-01-30T10:18:46.000Z</time>
      </trkpt>
      <trkpt lat="44.49581" lon="3.45994">
        <ele>705.79998779297</ele>
        <time>2024-01-30T10:18:47.000Z</time>
      </trkpt>
      <trkpt lat="44.49574" lon="3.4604">
        <ele>705.79998779297</ele>
        <time>2024-01-30T10:18:49.000Z</time>
      </trkpt>
      <trkpt lat="44.49568" lon="3.46056">
        <ele>705.79998779297</ele>
        <time>2024-01-30T10:18:50.000Z</time>
      </trkpt>
      <trkpt lat="44.49558" lon="3.46078">
        <ele>705.79998779297</ele>
        <time>2024-01-30T10:18:51.000Z</time>
      </trkpt>
      <trkpt lat="44.4954" lon="3.46114">
        <ele>706</ele>
        <time>2024-01-30T10:18:53.000Z</time>
      </trkpt>
      <trkpt lat="44.49519" lon="3.46179">
        <ele>706.20001220703</ele>
        <time>2024-01-30T10:18:56.000Z</time>
      </trkpt>
      <trkpt lat="44.49517" lon="3.46221">
        <ele>706</ele>
        <time>2024-01-30T10:18:58.000Z</time>
      </trkpt>
      <trkpt lat="44.49526" lon="3.46257">
        <ele>705.79998779297</ele>
        <time>2024-01-30T10:19:00.000Z</time>
      </trkpt>
      <trkpt lat="44.49544" lon="3.4629">
        <ele>705.40002441406</ele>
        <time>2024-01-30T10:19:02.000Z</time>
      </trkpt>
      <trkpt lat="44.49556" lon="3.46303">
        <ele>705.20001220703</ele>
        <time>2024-01-30T10:19:03.000Z</time>
      </trkpt>
      <trkpt lat="44.4957" lon="3.46313">
        <ele>704.79998779297</ele>
        <time>2024-01-30T10:19:04.000Z</time>
      </trkpt>
      <trkpt lat="44.49585" lon="3.46321">
        <ele>704.59997558594</ele>
        <time>2024-01-30T10:19:05.000Z</time>
      </trkpt>
      <trkpt lat="44.4962" lon="3.4633">
        <ele>704.20001220703</ele>
        <time>2024-01-30T10:19:07.000Z</time>
      </trkpt>
      <trkpt lat="44.49633" lon="3.46328">
        <ele>703.79998779297</ele>
        <time>2024-01-30T10:19:08.000Z</time>
      </trkpt>
      <trkpt lat="44.49651" lon="3.46323">
        <ele>703.40002441406</ele>
        <time>2024-01-30T10:19:09.000Z</time>
      </trkpt>
      <trkpt lat="44.49671" lon="3.46314">
        <ele>702.79998779297</ele>
        <time>2024-01-30T10:19:10.000Z</time>
      </trkpt>
      <trkpt lat="44.49728" lon="3.46286">
        <ele>702.40002441406</ele>
        <time>2024-01-30T10:19:13.000Z</time>
      </trkpt>
      <trkpt lat="44.49748" lon="3.46277">
        <ele>702.20001220703</ele>
        <time>2024-01-30T10:19:14.000Z</time>
      </trkpt>
      <trkpt lat="44.49805" lon="3.46258">
        <ele>702.20001220703</ele>
        <time>2024-01-30T10:19:17.000Z</time>
      </trkpt>
      <trkpt lat="44.49871" lon="3.4625">
        <ele>702</ele>
        <time>2024-01-30T10:19:20.000Z</time>
      </trkpt>
      <trkpt lat="44.49892" lon="3.46249">
        <ele>701.79998779297</ele>
        <time>2024-01-30T10:19:21.000Z</time>
      </trkpt>
      <trkpt lat="44.49957" lon="3.46255">
        <ele>701.79998779297</ele>
        <time>2024-01-30T10:19:24.000Z</time>
      </trkpt>
      <trkpt lat="44.49979" lon="3.46257">
        <ele>701.79998779297</ele>
        <time>2024-01-30T10:19:25.000Z</time>
      </trkpt>
      <trkpt lat="44.50043" lon="3.46266">
        <ele>701.40002441406</ele>
        <time>2024-01-30T10:19:28.000Z</time>
      </trkpt>
      <trkpt lat="44.50102" lon="3.46275">
        <ele>701</ele>
        <time>2024-01-30T10:19:31.000Z</time>
      </trkpt>
      <trkpt lat="44.50121" lon="3.46278">
        <ele>700.59997558594</ele>
        <time>2024-01-30T10:19:32.000Z</time>
      </trkpt>
      <trkpt lat="44.50181" lon="3.46282">
        <ele>700.40002441406</ele>
        <time>2024-01-30T10:19:35.000Z</time>
      </trkpt>
      <trkpt lat="44.50198" lon="3.46281">
        <ele>700.20001220703</ele>
        <time>2024-01-30T10:19:36.000Z</time>
      </trkpt>
      <trkpt lat="44.50231" lon="3.4627">
        <ele>700.20001220703</ele>
        <time>2024-01-30T10:19:38.000Z</time>
      </trkpt>
      <trkpt lat="44.50244" lon="3.46263">
        <ele>700.20001220703</ele>
        <time>2024-01-30T10:19:39.000Z</time>
      </trkpt>
      <trkpt lat="44.50259" lon="3.46253">
        <ele>700.59997558594</ele>
        <time>2024-01-30T10:19:40.000Z</time>
      </trkpt>
      <trkpt lat="44.50287" lon="3.46225">
        <ele>701.59997558594</ele>
        <time>2024-01-30T10:19:42.000Z</time>
      </trkpt>
      <trkpt lat="44.50299" lon="3.46208">
        <ele>702.40002441406</ele>
        <time>2024-01-30T10:19:43.000Z</time>
      </trkpt>
      <trkpt lat="44.50309" lon="3.46189">
        <ele>702.79998779297</ele>
        <time>2024-01-30T10:19:44.000Z</time>
      </trkpt>
      <trkpt lat="44.50319" lon="3.46171">
        <ele>703.40002441406</ele>
        <time>2024-01-30T10:19:45.000Z</time>
      </trkpt>
      <trkpt lat="44.50328" lon="3.46152">
        <ele>703.79998779297</ele>
        <time>2024-01-30T10:19:46.000Z</time>
      </trkpt>
      <trkpt lat="44.50361" lon="3.46079">
        <ele>704.79998779297</ele>
        <time>2024-01-30T10:19:50.000Z</time>
      </trkpt>
      <trkpt lat="44.50371" lon="3.46063">
        <ele>705</ele>
        <time>2024-01-30T10:19:51.000Z</time>
      </trkpt>
      <trkpt lat="44.50392" lon="3.46034">
        <ele>705.20001220703</ele>
        <time>2024-01-30T10:19:53.000Z</time>
      </trkpt>
      <trkpt lat="44.50428" lon="3.46">
        <ele>705.20001220703</ele>
        <time>2024-01-30T10:19:56.000Z</time>
      </trkpt>
      <trkpt lat="44.50441" lon="3.45992">
        <ele>705</ele>
        <time>2024-01-30T10:19:57.000Z</time>
      </trkpt>
      <trkpt lat="44.50457" lon="3.45985">
        <ele>705</ele>
        <time>2024-01-30T10:19:58.000Z</time>
      </trkpt>
      <trkpt lat="44.50482" lon="3.45981">
        <ele>704.59997558594</ele>
        <time>2024-01-30T10:20:00.000Z</time>
      </trkpt>
      <trkpt lat="44.50513" lon="3.45987">
        <ele>704.20001220703</ele>
        <time>2024-01-30T10:20:02.000Z</time>
      </trkpt>
      <trkpt lat="44.50541" lon="3.46004">
        <ele>703.79998779297</ele>
        <time>2024-01-30T10:20:04.000Z</time>
      </trkpt>
      <trkpt lat="44.50551" lon="3.46012">
        <ele>703.59997558594</ele>
        <time>2024-01-30T10:20:05.000Z</time>
      </trkpt>
      <trkpt lat="44.50602" lon="3.46063">
        <ele>704</ele>
        <time>2024-01-30T10:20:09.000Z</time>
      </trkpt>
      <trkpt lat="44.50658" lon="3.46122">
        <ele>704</ele>
        <time>2024-01-30T10:20:13.000Z</time>
      </trkpt>
      <trkpt lat="44.50681" lon="3.46148">
        <ele>704</ele>
        <time>2024-01-30T10:20:15.000Z</time>
      </trkpt>
      <trkpt lat="44.50714" lon="3.46199">
        <ele>704.20001220703</ele>
        <time>2024-01-30T10:20:18.000Z</time>
      </trkpt>
      <trkpt lat="44.5075" lon="3.46279">
        <ele>704.40002441406</ele>
        <time>2024-01-30T10:20:22.000Z</time>
      </trkpt>
      <trkpt lat="44.5076" lon="3.46299">
        <ele>704.79998779297</ele>
        <time>2024-01-30T10:20:23.000Z</time>
      </trkpt>
      <trkpt lat="44.5079" lon="3.46363">
        <ele>706.20001220703</ele>
        <time>2024-01-30T10:20:26.000Z</time>
      </trkpt>
      <trkpt lat="44.50824" lon="3.46423">
        <ele>707.59997558594</ele>
        <time>2024-01-30T10:20:29.000Z</time>
      </trkpt>
      <trkpt lat="44.50846" lon="3.46465">
        <ele>708.79998779297</ele>
        <time>2024-01-30T10:20:31.000Z</time>
      </trkpt>
      <trkpt lat="44.50858" lon="3.46484">
        <ele>709.20001220703</ele>
        <time>2024-01-30T10:20:32.000Z</time>
      </trkpt>
      <trkpt lat="44.50882" lon="3.46524">
        <ele>711</ele>
        <time>2024-01-30T10:20:34.000Z</time>
      </trkpt>
      <trkpt lat="44.50894" lon="3.46545">
        <ele>711.40002441406</ele>
        <time>2024-01-30T10:20:35.000Z</time>
      </trkpt>
      <trkpt lat="44.50916" lon="3.46586">
        <ele>712.40002441406</ele>
        <time>2024-01-30T10:20:37.000Z</time>
      </trkpt>
      <trkpt lat="44.50938" lon="3.46628">
        <ele>713.40002441406</ele>
        <time>2024-01-30T10:20:39.000Z</time>
      </trkpt>
      <trkpt lat="44.50959" lon="3.46669">
        <ele>714.59997558594</ele>
        <time>2024-01-30T10:20:41.000Z</time>
      </trkpt>
      <trkpt lat="44.5098" lon="3.46708">
        <ele>715.79998779297</ele>
        <time>2024-01-30T10:20:43.000Z</time>
      </trkpt>
      <trkpt lat="44.51" lon="3.46748">
        <ele>716.59997558594</ele>
        <time>2024-01-30T10:20:45.000Z</time>
      </trkpt>
      <trkpt lat="44.5101" lon="3.46768">
        <ele>717</ele>
        <time>2024-01-30T10:20:46.000Z</time>
      </trkpt>
      <trkpt lat="44.51038" lon="3.46827">
        <ele>718</ele>
        <time>2024-01-30T10:20:49.000Z</time>
      </trkpt>
      <trkpt lat="44.51056" lon="3.46866">
        <ele>718.79998779297</ele>
        <time>2024-01-30T10:20:51.000Z</time>
      </trkpt>
      <trkpt lat="44.51064" lon="3.46885">
        <ele>719.20001220703</ele>
        <time>2024-01-30T10:20:52.000Z</time>
      </trkpt>
      <trkpt lat="44.51094" lon="3.4696">
        <ele>720.40002441406</ele>
        <time>2024-01-30T10:20:56.000Z</time>
      </trkpt>
      <trkpt lat="44.51101" lon="3.46977">
        <ele>720.79998779297</ele>
        <time>2024-01-30T10:20:57.000Z</time>
      </trkpt>
      <trkpt lat="44.51128" lon="3.47037">
        <ele>721.79998779297</ele>
        <time>2024-01-30T10:21:01.000Z</time>
      </trkpt>
      <trkpt lat="44.51134" lon="3.47051">
        <ele>722</ele>
        <time>2024-01-30T10:21:02.000Z</time>
      </trkpt>
      <trkpt lat="44.51141" lon="3.47062">
        <ele>722.40002441406</ele>
        <time>2024-01-30T10:21:03.000Z</time>
      </trkpt>
      <trkpt lat="44.51156" lon="3.47083">
        <ele>722.59997558594</ele>
        <time>2024-01-30T10:21:05.000Z</time>
      </trkpt>
      <trkpt lat="44.51167" lon="3.47099">
        <ele>722.79998779297</ele>
        <time>2024-01-30T10:21:07.000Z</time>
      </trkpt>
      <trkpt lat="44.51172" lon="3.47108">
        <ele>722.79998779297</ele>
        <time>2024-01-30T10:21:08.000Z</time>
      </trkpt>
      <trkpt lat="44.51177" lon="3.47125">
        <ele>723</ele>
        <time>2024-01-30T10:21:10.000Z</time>
      </trkpt>
      <trkpt lat="44.51179" lon="3.47134">
        <ele>723.20001220703</ele>
        <time>2024-01-30T10:21:11.000Z</time>
      </trkpt>
      <trkpt lat="44.51181" lon="3.47144">
        <ele>723.59997558594</ele>
        <time>2024-01-30T10:21:12.000Z</time>
      </trkpt>
      <trkpt lat="44.51184" lon="3.47153">
        <ele>723.79998779297</ele>
        <time>2024-01-30T10:21:13.000Z</time>
      </trkpt>
      <trkpt lat="44.51187" lon="3.47163">
        <ele>724</ele>
        <time>2024-01-30T10:21:14.000Z</time>
      </trkpt>
      <trkpt lat="44.51193" lon="3.47202">
        <ele>724.79998779297</ele>
        <time>2024-01-30T10:21:17.000Z</time>
      </trkpt>
      <trkpt lat="44.51197" lon="3.47217">
        <ele>724.79998779297</ele>
        <time>2024-01-30T10:21:18.000Z</time>
      </trkpt>
      <trkpt lat="44.51219" lon="3.4728">
        <ele>726.20001220703</ele>
        <time>2024-01-30T10:21:22.000Z</time>
      </trkpt>
      <trkpt lat="44.51246" lon="3.47352">
        <ele>727.20001220703</ele>
        <time>2024-01-30T10:21:26.000Z</time>
      </trkpt>
      <trkpt lat="44.51253" lon="3.4737">
        <ele>727.40002441406</ele>
        <time>2024-01-30T10:21:27.000Z</time>
      </trkpt>
      <trkpt lat="44.51283" lon="3.47444">
        <ele>728.79998779297</ele>
        <time>2024-01-30T10:21:31.000Z</time>
      </trkpt>
      <trkpt lat="44.51312" lon="3.47521">
        <ele>730</ele>
        <time>2024-01-30T10:21:35.000Z</time>
      </trkpt>
      <trkpt lat="44.51339" lon="3.47598">
        <ele>731</ele>
        <time>2024-01-30T10:21:39.000Z</time>
      </trkpt>
      <trkpt lat="44.51346" lon="3.47617">
        <ele>731.40002441406</ele>
        <time>2024-01-30T10:21:40.000Z</time>
      </trkpt>
      <trkpt lat="44.51374" lon="3.47694">
        <ele>732.20001220703</ele>
        <time>2024-01-30T10:21:44.000Z</time>
      </trkpt>
      <trkpt lat="44.51388" lon="3.47734">
        <ele>732.40002441406</ele>
        <time>2024-01-30T10:21:46.000Z</time>
      </trkpt>
      <trkpt lat="44.51414" lon="3.47815">
        <ele>732.59997558594</ele>
        <time>2024-01-30T10:21:50.000Z</time>
      </trkpt>
      <trkpt lat="44.51422" lon="3.47836">
        <ele>732.59997558594</ele>
        <time>2024-01-30T10:21:51.000Z</time>
      </trkpt>
      <trkpt lat="44.51452" lon="3.47924">
        <ele>732.40002441406</ele>
        <time>2024-01-30T10:21:55.000Z</time>
      </trkpt>
      <trkpt lat="44.51467" lon="3.47968">
        <ele>732</ele>
        <time>2024-01-30T10:21:57.000Z</time>
      </trkpt>
      <trkpt lat="44.5149" lon="3.48033">
        <ele>731.40002441406</ele>
        <time>2024-01-30T10:22:00.000Z</time>
      </trkpt>
      <trkpt lat="44.51516" lon="3.48117">
        <ele>730.59997558594</ele>
        <time>2024-01-30T10:22:04.000Z</time>
      </trkpt>
      <trkpt lat="44.51522" lon="3.48137">
        <ele>730.40002441406</ele>
        <time>2024-01-30T10:22:05.000Z</time>
      </trkpt>
      <trkpt lat="44.51544" lon="3.48215">
        <ele>729.59997558594</ele>
        <time>2024-01-30T10:22:09.000Z</time>
      </trkpt>
      <trkpt lat="44.51555" lon="3.48253">
        <ele>729.20001220703</ele>
        <time>2024-01-30T10:22:11.000Z</time>
      </trkpt>
      <trkpt lat="44.51578" lon="3.48325">
        <ele>728.20001220703</ele>
        <time>2024-01-30T10:22:15.000Z</time>
      </trkpt>
      <trkpt lat="44.51584" lon="3.48342">
        <ele>728</ele>
        <time>2024-01-30T10:22:16.000Z</time>
      </trkpt>
      <trkpt lat="44.5159" lon="3.48358">
        <ele>727.59997558594</ele>
        <time>2024-01-30T10:22:17.000Z</time>
      </trkpt>
      <trkpt lat="44.51609" lon="3.48406">
        <ele>726.79998779297</ele>
        <time>2024-01-30T10:22:20.000Z</time>
      </trkpt>
      <trkpt lat="44.51618" lon="3.48438">
        <ele>726</ele>
        <time>2024-01-30T10:22:22.000Z</time>
      </trkpt>
      <trkpt lat="44.51622" lon="3.48454">
        <ele>725.40002441406</ele>
        <time>2024-01-30T10:22:23.000Z</time>
      </trkpt>
      <trkpt lat="44.51625" lon="3.48468">
        <ele>724.20001220703</ele>
        <time>2024-01-30T10:22:24.000Z</time>
      </trkpt>
      <trkpt lat="44.51626" lon="3.4848">
        <ele>723.59997558594</ele>
        <time>2024-01-30T10:22:25.000Z</time>
      </trkpt>
      <trkpt lat="44.51626" lon="3.485">
        <ele>722.40002441406</ele>
        <time>2024-01-30T10:22:27.000Z</time>
      </trkpt>
      <trkpt lat="44.51626" lon="3.48508">
        <ele>722.20001220703</ele>
        <time>2024-01-30T10:22:28.000Z</time>
      </trkpt>
      <trkpt lat="44.51624" lon="3.48515">
        <ele>722</ele>
        <time>2024-01-30T10:22:29.000Z</time>
      </trkpt>
      <trkpt lat="44.51621" lon="3.48522">
        <ele>722</ele>
        <time>2024-01-30T10:22:30.000Z</time>
      </trkpt>
      <trkpt lat="44.51618" lon="3.48528">
        <ele>721.79998779297</ele>
        <time>2024-01-30T10:22:31.000Z</time>
      </trkpt>
      <trkpt lat="44.51615" lon="3.48536">
        <ele>721.79998779297</ele>
        <time>2024-01-30T10:22:32.000Z</time>
      </trkpt>
      <trkpt lat="44.51616" lon="3.48553">
        <ele>721.40002441406</ele>
        <time>2024-01-30T10:22:34.000Z</time>
      </trkpt>
      <trkpt lat="44.51618" lon="3.48562">
        <ele>721.40002441406</ele>
        <time>2024-01-30T10:22:35.000Z</time>
      </trkpt>
      <trkpt lat="44.5162" lon="3.48572">
        <ele>721.20001220703</ele>
        <time>2024-01-30T10:22:36.000Z</time>
      </trkpt>
      <trkpt lat="44.5162" lon="3.48583">
        <ele>721.20001220703</ele>
        <time>2024-01-30T10:22:37.000Z</time>
      </trkpt>
      <trkpt lat="44.51617" lon="3.48635">
        <ele>720.59997558594</ele>
        <time>2024-01-30T10:22:41.000Z</time>
      </trkpt>
      <trkpt lat="44.51616" lon="3.48649">
        <ele>720</ele>
        <time>2024-01-30T10:22:42.000Z</time>
      </trkpt>
      <trkpt lat="44.51612" lon="3.48708">
        <ele>719</ele>
        <time>2024-01-30T10:22:46.000Z</time>
      </trkpt>
      <trkpt lat="44.51611" lon="3.48724">
        <ele>718.40002441406</ele>
        <time>2024-01-30T10:22:47.000Z</time>
      </trkpt>
      <trkpt lat="44.51612" lon="3.48757">
        <ele>717.79998779297</ele>
        <time>2024-01-30T10:22:49.000Z</time>
      </trkpt>
      <trkpt lat="44.51616" lon="3.48804">
        <ele>716.59997558594</ele>
        <time>2024-01-30T10:22:52.000Z</time>
      </trkpt>
      <trkpt lat="44.51626" lon="3.48861">
        <ele>716</ele>
        <time>2024-01-30T10:22:56.000Z</time>
      </trkpt>
      <trkpt lat="44.51643" lon="3.4892">
        <ele>715.59997558594</ele>
        <time>2024-01-30T10:23:01.000Z</time>
      </trkpt>
      <trkpt lat="44.51667" lon="3.48988">
        <ele>716</ele>
        <time>2024-01-30T10:23:07.000Z</time>
      </trkpt>
      <trkpt lat="44.5167" lon="3.48997">
        <ele>716</ele>
        <time>2024-01-30T10:23:08.000Z</time>
      </trkpt>
      <trkpt lat="44.51702" lon="3.49068">
        <ele>715.59997558594</ele>
        <time>2024-01-30T10:23:14.000Z</time>
      </trkpt>
      <trkpt lat="44.51736" lon="3.49118">
        <ele>715.40002441406</ele>
        <time>2024-01-30T10:23:19.000Z</time>
      </trkpt>
      <trkpt lat="44.51761" lon="3.49152">
        <ele>714.40002441406</ele>
        <time>2024-01-30T10:23:24.000Z</time>
      </trkpt>
      <trkpt lat="44.51765" lon="3.49157">
        <ele>714.59997558594</ele>
        <time>2024-01-30T10:23:27.000Z</time>
      </trkpt>
      <trkpt lat="44.51773" lon="3.49162">
        <ele>715</ele>
        <time>2024-01-30T10:23:32.000Z</time>
      </trkpt>
      <trkpt lat="44.51786" lon="3.49174">
        <ele>715.59997558594</ele>
        <time>2024-01-30T10:23:36.000Z</time>
      </trkpt>
      <trkpt lat="44.5179" lon="3.49179">
        <ele>715.79998779297</ele>
        <time>2024-01-30T10:23:37.000Z</time>
      </trkpt>
      <trkpt lat="44.51798" lon="3.49192">
        <ele>716.59997558594</ele>
        <time>2024-01-30T10:23:39.000Z</time>
      </trkpt>
      <trkpt lat="44.51801" lon="3.492">
        <ele>716.59997558594</ele>
        <time>2024-01-30T10:23:40.000Z</time>
      </trkpt>
      <trkpt lat="44.51804" lon="3.4921">
        <ele>716.79998779297</ele>
        <time>2024-01-30T10:23:41.000Z</time>
      </trkpt>
      <trkpt lat="44.51811" lon="3.4925">
        <ele>718</ele>
        <time>2024-01-30T10:23:45.000Z</time>
      </trkpt>
      <trkpt lat="44.51817" lon="3.49274">
        <ele>719</ele>
        <time>2024-01-30T10:23:47.000Z</time>
      </trkpt>
      <trkpt lat="44.51819" lon="3.4929">
        <ele>719.59997558594</ele>
        <time>2024-01-30T10:23:48.000Z</time>
      </trkpt>
      <trkpt lat="44.5182" lon="3.49303">
        <ele>719.79998779297</ele>
        <time>2024-01-30T10:23:49.000Z</time>
      </trkpt>
      <trkpt lat="44.51821" lon="3.49315">
        <ele>720</ele>
        <time>2024-01-30T10:23:50.000Z</time>
      </trkpt>
      <trkpt lat="44.5182" lon="3.49339">
        <ele>720.79998779297</ele>
        <time>2024-01-30T10:23:52.000Z</time>
      </trkpt>
      <trkpt lat="44.51817" lon="3.49372">
        <ele>722</ele>
        <time>2024-01-30T10:23:55.000Z</time>
      </trkpt>
      <trkpt lat="44.51814" lon="3.49407">
        <ele>722.79998779297</ele>
        <time>2024-01-30T10:23:58.000Z</time>
      </trkpt>
      <trkpt lat="44.51814" lon="3.49418">
        <ele>723.20001220703</ele>
        <time>2024-01-30T10:23:59.000Z</time>
      </trkpt>
      <trkpt lat="44.5181" lon="3.4943">
        <ele>723.40002441406</ele>
        <time>2024-01-30T10:24:00.000Z</time>
      </trkpt>
      <trkpt lat="44.51804" lon="3.49462">
        <ele>724.40002441406</ele>
        <time>2024-01-30T10:24:03.000Z</time>
      </trkpt>
      <trkpt lat="44.51803" lon="3.49471">
        <ele>724.59997558594</ele>
        <time>2024-01-30T10:24:04.000Z</time>
      </trkpt>
      <trkpt lat="44.51799" lon="3.49506">
        <ele>725.59997558594</ele>
        <time>2024-01-30T10:24:07.000Z</time>
      </trkpt>
      <trkpt lat="44.51789" lon="3.49548">
        <ele>726.20001220703</ele>
        <time>2024-01-30T10:24:11.000Z</time>
      </trkpt>
      <trkpt lat="44.51779" lon="3.49579">
        <ele>726.79998779297</ele>
        <time>2024-01-30T10:24:14.000Z</time>
      </trkpt>
      <trkpt lat="44.51766" lon="3.4963">
        <ele>727.79998779297</ele>
        <time>2024-01-30T10:24:19.000Z</time>
      </trkpt>
      <trkpt lat="44.51764" lon="3.49639">
        <ele>727.79998779297</ele>
        <time>2024-01-30T10:24:20.000Z</time>
      </trkpt>
      <trkpt lat="44.51762" lon="3.49663">
        <ele>728.40002441406</ele>
        <time>2024-01-30T10:24:23.000Z</time>
      </trkpt>
      <trkpt lat="44.51759" lon="3.49682">
        <ele>729</ele>
        <time>2024-01-30T10:24:25.000Z</time>
      </trkpt>
      <trkpt lat="44.51756" lon="3.4969">
        <ele>729.20001220703</ele>
        <time>2024-01-30T10:24:26.000Z</time>
      </trkpt>
      <trkpt lat="44.51751" lon="3.49696">
        <ele>729.59997558594</ele>
        <time>2024-01-30T10:24:27.000Z</time>
      </trkpt>
      <trkpt lat="44.51747" lon="3.49701">
        <ele>729.79998779297</ele>
        <time>2024-01-30T10:24:28.000Z</time>
      </trkpt>
      <trkpt lat="44.5174" lon="3.49706">
        <ele>730</ele>
        <time>2024-01-30T10:24:29.000Z</time>
      </trkpt>
      <trkpt lat="44.51733" lon="3.49709">
        <ele>730.59997558594</ele>
        <time>2024-01-30T10:24:30.000Z</time>
      </trkpt>
      <trkpt lat="44.51713" lon="3.4972">
        <ele>731.20001220703</ele>
        <time>2024-01-30T10:24:33.000Z</time>
      </trkpt>
      <trkpt lat="44.51692" lon="3.49731">
        <ele>732.40002441406</ele>
        <time>2024-01-30T10:24:36.000Z</time>
      </trkpt>
      <trkpt lat="44.51686" lon="3.49735">
        <ele>732.79998779297</ele>
        <time>2024-01-30T10:24:37.000Z</time>
      </trkpt>
      <trkpt lat="44.51672" lon="3.49743">
        <ele>733.59997558594</ele>
        <time>2024-01-30T10:24:39.000Z</time>
      </trkpt>
      <trkpt lat="44.5165" lon="3.4976">
        <ele>734.79998779297</ele>
        <time>2024-01-30T10:24:42.000Z</time>
      </trkpt>
      <trkpt lat="44.5163" lon="3.49781">
        <ele>736.20001220703</ele>
        <time>2024-01-30T10:24:45.000Z</time>
      </trkpt>
      <trkpt lat="44.51621" lon="3.49798">
        <ele>737.40002441406</ele>
        <time>2024-01-30T10:24:47.000Z</time>
      </trkpt>
      <trkpt lat="44.51614" lon="3.49817">
        <ele>738.20001220703</ele>
        <time>2024-01-30T10:24:49.000Z</time>
      </trkpt>
      <trkpt lat="44.51614" lon="3.49827">
        <ele>738.79998779297</ele>
        <time>2024-01-30T10:24:50.000Z</time>
      </trkpt>
      <trkpt lat="44.51615" lon="3.49858">
        <ele>740.20001220703</ele>
        <time>2024-01-30T10:24:53.000Z</time>
      </trkpt>
      <trkpt lat="44.51616" lon="3.49885">
        <ele>741.40002441406</ele>
        <time>2024-01-30T10:24:56.000Z</time>
      </trkpt>
      <trkpt lat="44.51618" lon="3.49903">
        <ele>742.20001220703</ele>
        <time>2024-01-30T10:24:59.000Z</time>
      </trkpt>
      <trkpt lat="44.51618" lon="3.49909">
        <ele>742.59997558594</ele>
        <time>2024-01-30T10:25:00.000Z</time>
      </trkpt>
      <trkpt lat="44.51618" lon="3.49926">
        <ele>743.20001220703</ele>
        <time>2024-01-30T10:25:03.000Z</time>
      </trkpt>
      <trkpt lat="44.51616" lon="3.4993">
        <ele>743.59997558594</ele>
        <time>2024-01-30T10:25:04.000Z</time>
      </trkpt>
      <trkpt lat="44.51614" lon="3.49934">
        <ele>743.79998779297</ele>
        <time>2024-01-30T10:25:05.000Z</time>
      </trkpt>
      <trkpt lat="44.5161" lon="3.49937">
        <ele>744.20001220703</ele>
        <time>2024-01-30T10:25:06.000Z</time>
      </trkpt>
      <trkpt lat="44.51607" lon="3.49938">
        <ele>744.40002441406</ele>
        <time>2024-01-30T10:25:07.000Z</time>
      </trkpt>
      <trkpt lat="44.516" lon="3.49939">
        <ele>744.79998779297</ele>
        <time>2024-01-30T10:25:09.000Z</time>
      </trkpt>
      <trkpt lat="44.51594" lon="3.4994">
        <ele>745.59997558594</ele>
        <time>2024-01-30T10:25:12.000Z</time>
      </trkpt>
      <trkpt lat="44.51593" lon="3.4994">
        <ele>746</ele>
        <time>2024-01-30T10:25:15.000Z</time>
      </trkpt>
      <trkpt lat="44.51593" lon="3.4994">
        <ele>746.20001220703</ele>
        <time>2024-01-30T10:25:16.000Z</time>
      </trkpt>
      <trkpt lat="44.51593" lon="3.4994">
        <ele>746.20001220703</ele>
        <time>2024-01-30T10:25:24.000Z</time>
      </trkpt>
      <trkpt lat="44.51593" lon="3.4994">
        <ele>746.20001220703</ele>
        <time>2024-01-30T10:25:38.000Z</time>
      </trkpt>
      <trkpt lat="44.51593" lon="3.4994">
        <ele>746.20001220703</ele>
        <time>2024-01-30T10:25:49.000Z</time>
      </trkpt>
      <trkpt lat="44.51593" lon="3.4994">
        <ele>746</ele>
        <time>2024-01-30T10:26:05.000Z</time>
      </trkpt>
      <trkpt lat="44.51593" lon="3.4994">
        <ele>746</ele>
        <time>2024-01-30T10:26:17.000Z</time>
      </trkpt>
      <trkpt lat="44.51593" lon="3.4994">
        <ele>746</ele>
        <time>2024-01-30T10:26:30.000Z</time>
      </trkpt>
      <trkpt lat="44.51591" lon="3.49942">
        <ele>746</ele>
        <time>2024-01-30T10:26:33.000Z</time>
      </trkpt>
      <trkpt lat="44.51587" lon="3.49945">
        <ele>745.59997558594</ele>
        <time>2024-01-30T10:26:35.000Z</time>
      </trkpt>
      <trkpt lat="44.51567" lon="3.4995">
        <ele>746.79998779297</ele>
        <time>2024-01-30T10:26:40.000Z</time>
      </trkpt>
      <trkpt lat="44.51562" lon="3.49951">
        <ele>747.40002441406</ele>
        <time>2024-01-30T10:26:41.000Z</time>
      </trkpt>
      <trkpt lat="44.51545" lon="3.49958">
        <ele>748.79998779297</ele>
        <time>2024-01-30T10:26:44.000Z</time>
      </trkpt>
      <trkpt lat="44.51534" lon="3.49964">
        <ele>750</ele>
        <time>2024-01-30T10:26:46.000Z</time>
      </trkpt>
      <trkpt lat="44.51523" lon="3.49968">
        <ele>751.20001220703</ele>
        <time>2024-01-30T10:26:48.000Z</time>
      </trkpt>
      <trkpt lat="44.51518" lon="3.49971">
        <ele>751.59997558594</ele>
        <time>2024-01-30T10:26:49.000Z</time>
      </trkpt>
      <trkpt lat="44.51514" lon="3.49975">
        <ele>752.20001220703</ele>
        <time>2024-01-30T10:26:50.000Z</time>
      </trkpt>
      <trkpt lat="44.5151" lon="3.4998">
        <ele>752.59997558594</ele>
        <time>2024-01-30T10:26:51.000Z</time>
      </trkpt>
      <trkpt lat="44.51508" lon="3.49985">
        <ele>753.40002441406</ele>
        <time>2024-01-30T10:26:52.000Z</time>
      </trkpt>
      <trkpt lat="44.51504" lon="3.49993">
        <ele>754.20001220703</ele>
        <time>2024-01-30T10:26:53.000Z</time>
      </trkpt>
      <trkpt lat="44.51502" lon="3.49999">
        <ele>754.79998779297</ele>
        <time>2024-01-30T10:26:54.000Z</time>
      </trkpt>
      <trkpt lat="44.51499" lon="3.50017">
        <ele>756</ele>
        <time>2024-01-30T10:26:56.000Z</time>
      </trkpt>
      <trkpt lat="44.51496" lon="3.50034">
        <ele>757.40002441406</ele>
        <time>2024-01-30T10:26:58.000Z</time>
      </trkpt>
      <trkpt lat="44.51494" lon="3.50051">
        <ele>758.59997558594</ele>
        <time>2024-01-30T10:27:00.000Z</time>
      </trkpt>
      <trkpt lat="44.51492" lon="3.50075">
        <ele>759.79998779297</ele>
        <time>2024-01-30T10:27:03.000Z</time>
      </trkpt>
      <trkpt lat="44.51491" lon="3.5008">
        <ele>760</ele>
        <time>2024-01-30T10:27:04.000Z</time>
      </trkpt>
      <trkpt lat="44.51488" lon="3.50084">
        <ele>760.40002441406</ele>
        <time>2024-01-30T10:27:05.000Z</time>
      </trkpt>
      <trkpt lat="44.51485" lon="3.50088">
        <ele>761</ele>
        <time>2024-01-30T10:27:06.000Z</time>
      </trkpt>
      <trkpt lat="44.5148" lon="3.50091">
        <ele>761.40002441406</ele>
        <time>2024-01-30T10:27:07.000Z</time>
      </trkpt>
      <trkpt lat="44.51466" lon="3.50099">
        <ele>762.59997558594</ele>
        <time>2024-01-30T10:27:09.000Z</time>
      </trkpt>
      <trkpt lat="44.5146" lon="3.50099">
        <ele>763.40002441406</ele>
        <time>2024-01-30T10:27:10.000Z</time>
      </trkpt>
      <trkpt lat="44.51451" lon="3.501">
        <ele>764.20001220703</ele>
        <time>2024-01-30T10:27:11.000Z</time>
      </trkpt>
      <trkpt lat="44.51434" lon="3.50103">
        <ele>765.79998779297</ele>
        <time>2024-01-30T10:27:13.000Z</time>
      </trkpt>
      <trkpt lat="44.51425" lon="3.50107">
        <ele>767</ele>
        <time>2024-01-30T10:27:14.000Z</time>
      </trkpt>
      <trkpt lat="44.51416" lon="3.50112">
        <ele>767.79998779297</ele>
        <time>2024-01-30T10:27:15.000Z</time>
      </trkpt>
      <trkpt lat="44.51406" lon="3.50117">
        <ele>768.59997558594</ele>
        <time>2024-01-30T10:27:16.000Z</time>
      </trkpt>
      <trkpt lat="44.51396" lon="3.50121">
        <ele>769</ele>
        <time>2024-01-30T10:27:17.000Z</time>
      </trkpt>
      <trkpt lat="44.51377" lon="3.50127">
        <ele>770</ele>
        <time>2024-01-30T10:27:19.000Z</time>
      </trkpt>
      <trkpt lat="44.51367" lon="3.5013">
        <ele>770.79998779297</ele>
        <time>2024-01-30T10:27:20.000Z</time>
      </trkpt>
      <trkpt lat="44.51357" lon="3.50134">
        <ele>771.40002441406</ele>
        <time>2024-01-30T10:27:21.000Z</time>
      </trkpt>
      <trkpt lat="44.51336" lon="3.50147">
        <ele>772.79998779297</ele>
        <time>2024-01-30T10:27:23.000Z</time>
      </trkpt>
      <trkpt lat="44.51326" lon="3.50155">
        <ele>773.79998779297</ele>
        <time>2024-01-30T10:27:24.000Z</time>
      </trkpt>
      <trkpt lat="44.51317" lon="3.50166">
        <ele>775</ele>
        <time>2024-01-30T10:27:25.000Z</time>
      </trkpt>
      <trkpt lat="44.51298" lon="3.50187">
        <ele>776.20001220703</ele>
        <time>2024-01-30T10:27:27.000Z</time>
      </trkpt>
      <trkpt lat="44.51279" lon="3.50207">
        <ele>777.79998779297</ele>
        <time>2024-01-30T10:27:29.000Z</time>
      </trkpt>
      <trkpt lat="44.51261" lon="3.50227">
        <ele>779.59997558594</ele>
        <time>2024-01-30T10:27:31.000Z</time>
      </trkpt>
      <trkpt lat="44.51252" lon="3.50238">
        <ele>780.40002441406</ele>
        <time>2024-01-30T10:27:32.000Z</time>
      </trkpt>
      <trkpt lat="44.51243" lon="3.50249">
        <ele>781.20001220703</ele>
        <time>2024-01-30T10:27:33.000Z</time>
      </trkpt>
      <trkpt lat="44.51227" lon="3.5027">
        <ele>782.79998779297</ele>
        <time>2024-01-30T10:27:35.000Z</time>
      </trkpt>
      <trkpt lat="44.51218" lon="3.50277">
        <ele>783.40002441406</ele>
        <time>2024-01-30T10:27:36.000Z</time>
      </trkpt>
      <trkpt lat="44.51209" lon="3.50284">
        <ele>784.59997558594</ele>
        <time>2024-01-30T10:27:37.000Z</time>
      </trkpt>
      <trkpt lat="44.51199" lon="3.50289">
        <ele>785.40002441406</ele>
        <time>2024-01-30T10:27:38.000Z</time>
      </trkpt>
      <trkpt lat="44.51188" lon="3.50293">
        <ele>786.40002441406</ele>
        <time>2024-01-30T10:27:39.000Z</time>
      </trkpt>
      <trkpt lat="44.51169" lon="3.50299">
        <ele>788</ele>
        <time>2024-01-30T10:27:41.000Z</time>
      </trkpt>
      <trkpt lat="44.51149" lon="3.50302">
        <ele>789.59997558594</ele>
        <time>2024-01-30T10:27:43.000Z</time>
      </trkpt>
      <trkpt lat="44.5113" lon="3.50303">
        <ele>791.59997558594</ele>
        <time>2024-01-30T10:27:45.000Z</time>
      </trkpt>
      <trkpt lat="44.51118" lon="3.50304">
        <ele>792.79998779297</ele>
        <time>2024-01-30T10:27:47.000Z</time>
      </trkpt>
      <trkpt lat="44.51114" lon="3.50304">
        <ele>793.20001220703</ele>
        <time>2024-01-30T10:27:48.000Z</time>
      </trkpt>
      <trkpt lat="44.51111" lon="3.50303">
        <ele>793.79998779297</ele>
        <time>2024-01-30T10:27:49.000Z</time>
      </trkpt>
      <trkpt lat="44.51103" lon="3.50302">
        <ele>795.20001220703</ele>
        <time>2024-01-30T10:27:51.000Z</time>
      </trkpt>
      <trkpt lat="44.51099" lon="3.50301">
        <ele>795.79998779297</ele>
        <time>2024-01-30T10:27:52.000Z</time>
      </trkpt>
      <trkpt lat="44.51093" lon="3.503">
        <ele>796.40002441406</ele>
        <time>2024-01-30T10:27:53.000Z</time>
      </trkpt>
      <trkpt lat="44.51083" lon="3.503">
        <ele>797.79998779297</ele>
        <time>2024-01-30T10:27:55.000Z</time>
      </trkpt>
      <trkpt lat="44.51076" lon="3.50299">
        <ele>798.79998779297</ele>
        <time>2024-01-30T10:27:56.000Z</time>
      </trkpt>
      <trkpt lat="44.51068" lon="3.50298">
        <ele>799.59997558594</ele>
        <time>2024-01-30T10:27:57.000Z</time>
      </trkpt>
      <trkpt lat="44.51059" lon="3.50296">
        <ele>800.59997558594</ele>
        <time>2024-01-30T10:27:58.000Z</time>
      </trkpt>
      <trkpt lat="44.51044" lon="3.5029">
        <ele>802.59997558594</ele>
        <time>2024-01-30T10:28:00.000Z</time>
      </trkpt>
      <trkpt lat="44.51037" lon="3.50288">
        <ele>803.59997558594</ele>
        <time>2024-01-30T10:28:01.000Z</time>
      </trkpt>
      <trkpt lat="44.5103" lon="3.50286">
        <ele>804.79998779297</ele>
        <time>2024-01-30T10:28:02.000Z</time>
      </trkpt>
      <trkpt lat="44.51023" lon="3.50285">
        <ele>806.20001220703</ele>
        <time>2024-01-30T10:28:03.000Z</time>
      </trkpt>
      <trkpt lat="44.51017" lon="3.50284">
        <ele>807.20001220703</ele>
        <time>2024-01-30T10:28:04.000Z</time>
      </trkpt>
      <trkpt lat="44.51011" lon="3.50286">
        <ele>808.40002441406</ele>
        <time>2024-01-30T10:28:05.000Z</time>
      </trkpt>
      <trkpt lat="44.51006" lon="3.5029">
        <ele>809.20001220703</ele>
        <time>2024-01-30T10:28:06.000Z</time>
      </trkpt>
      <trkpt lat="44.51003" lon="3.50295">
        <ele>810.40002441406</ele>
        <time>2024-01-30T10:28:07.000Z</time>
      </trkpt>
      <trkpt lat="44.51003" lon="3.50301">
        <ele>811.20001220703</ele>
        <time>2024-01-30T10:28:08.000Z</time>
      </trkpt>
      <trkpt lat="44.51005" lon="3.50308">
        <ele>811.79998779297</ele>
        <time>2024-01-30T10:28:09.000Z</time>
      </trkpt>
      <trkpt lat="44.51016" lon="3.50321">
        <ele>813.20001220703</ele>
        <time>2024-01-30T10:28:11.000Z</time>
      </trkpt>
      <trkpt lat="44.51025" lon="3.50329">
        <ele>813.79998779297</ele>
        <time>2024-01-30T10:28:12.000Z</time>
      </trkpt>
      <trkpt lat="44.51032" lon="3.50337">
        <ele>814.79998779297</ele>
        <time>2024-01-30T10:28:13.000Z</time>
      </trkpt>
      <trkpt lat="44.51046" lon="3.50354">
        <ele>815.79998779297</ele>
        <time>2024-01-30T10:28:15.000Z</time>
      </trkpt>
      <trkpt lat="44.51053" lon="3.50362">
        <ele>816.79998779297</ele>
        <time>2024-01-30T10:28:16.000Z</time>
      </trkpt>
      <trkpt lat="44.5106" lon="3.5037">
        <ele>818</ele>
        <time>2024-01-30T10:28:17.000Z</time>
      </trkpt>
      <trkpt lat="44.51066" lon="3.50377">
        <ele>818.59997558594</ele>
        <time>2024-01-30T10:28:18.000Z</time>
      </trkpt>
      <trkpt lat="44.51071" lon="3.50385">
        <ele>819.59997558594</ele>
        <time>2024-01-30T10:28:19.000Z</time>
      </trkpt>
      <trkpt lat="44.51077" lon="3.50391">
        <ele>820.20001220703</ele>
        <time>2024-01-30T10:28:20.000Z</time>
      </trkpt>
      <trkpt lat="44.51082" lon="3.50398">
        <ele>821</ele>
        <time>2024-01-30T10:28:21.000Z</time>
      </trkpt>
      <trkpt lat="44.51084" lon="3.50405">
        <ele>822</ele>
        <time>2024-01-30T10:28:22.000Z</time>
      </trkpt>
      <trkpt lat="44.51083" lon="3.50412">
        <ele>823</ele>
        <time>2024-01-30T10:28:23.000Z</time>
      </trkpt>
      <trkpt lat="44.51081" lon="3.50418">
        <ele>824</ele>
        <time>2024-01-30T10:28:24.000Z</time>
      </trkpt>
      <trkpt lat="44.51076" lon="3.50422">
        <ele>825</ele>
        <time>2024-01-30T10:28:25.000Z</time>
      </trkpt>
      <trkpt lat="44.5107" lon="3.50419">
        <ele>826.20001220703</ele>
        <time>2024-01-30T10:28:26.000Z</time>
      </trkpt>
      <trkpt lat="44.51063" lon="3.50416">
        <ele>827.40002441406</ele>
        <time>2024-01-30T10:28:27.000Z</time>
      </trkpt>
      <trkpt lat="44.51041" lon="3.50411">
        <ele>829.40002441406</ele>
        <time>2024-01-30T10:28:29.000Z</time>
      </trkpt>
      <trkpt lat="44.51031" lon="3.50406">
        <ele>830.59997558594</ele>
        <time>2024-01-30T10:28:30.000Z</time>
      </trkpt>
      <trkpt lat="44.5102" lon="3.50402">
        <ele>831.79998779297</ele>
        <time>2024-01-30T10:28:31.000Z</time>
      </trkpt>
      <trkpt lat="44.51008" lon="3.50398">
        <ele>833.20001220703</ele>
        <time>2024-01-30T10:28:32.000Z</time>
      </trkpt>
      <trkpt lat="44.50997" lon="3.50393">
        <ele>834.79998779297</ele>
        <time>2024-01-30T10:28:33.000Z</time>
      </trkpt>
      <trkpt lat="44.50987" lon="3.50389">
        <ele>836.40002441406</ele>
        <time>2024-01-30T10:28:34.000Z</time>
      </trkpt>
      <trkpt lat="44.50976" lon="3.50387">
        <ele>838.20001220703</ele>
        <time>2024-01-30T10:28:35.000Z</time>
      </trkpt>
      <trkpt lat="44.50964" lon="3.50387">
        <ele>839.79998779297</ele>
        <time>2024-01-30T10:28:36.000Z</time>
      </trkpt>
      <trkpt lat="44.50952" lon="3.50386">
        <ele>841.79998779297</ele>
        <time>2024-01-30T10:28:37.000Z</time>
      </trkpt>
      <trkpt lat="44.5094" lon="3.50385">
        <ele>843.40002441406</ele>
        <time>2024-01-30T10:28:38.000Z</time>
      </trkpt>
      <trkpt lat="44.50929" lon="3.50381">
        <ele>845.20001220703</ele>
        <time>2024-01-30T10:28:39.000Z</time>
      </trkpt>
      <trkpt lat="44.50919" lon="3.50377">
        <ele>846.79998779297</ele>
        <time>2024-01-30T10:28:40.000Z</time>
      </trkpt>
      <trkpt lat="44.5091" lon="3.50373">
        <ele>847.79998779297</ele>
        <time>2024-01-30T10:28:41.000Z</time>
      </trkpt>
      <trkpt lat="44.50902" lon="3.5037">
        <ele>849.20001220703</ele>
        <time>2024-01-30T10:28:42.000Z</time>
      </trkpt>
      <trkpt lat="44.50895" lon="3.50369">
        <ele>850.20001220703</ele>
        <time>2024-01-30T10:28:43.000Z</time>
      </trkpt>
      <trkpt lat="44.50885" lon="3.50375">
        <ele>852</ele>
        <time>2024-01-30T10:28:45.000Z</time>
      </trkpt>
      <trkpt lat="44.50882" lon="3.5038">
        <ele>852.79998779297</ele>
        <time>2024-01-30T10:28:46.000Z</time>
      </trkpt>
      <trkpt lat="44.50882" lon="3.50387">
        <ele>853.79998779297</ele>
        <time>2024-01-30T10:28:47.000Z</time>
      </trkpt>
      <trkpt lat="44.50886" lon="3.504">
        <ele>855</ele>
        <time>2024-01-30T10:28:49.000Z</time>
      </trkpt>
      <trkpt lat="44.50896" lon="3.5041">
        <ele>856.40002441406</ele>
        <time>2024-01-30T10:28:51.000Z</time>
      </trkpt>
      <trkpt lat="44.50905" lon="3.5042">
        <ele>857.59997558594</ele>
        <time>2024-01-30T10:28:53.000Z</time>
      </trkpt>
      <trkpt lat="44.50914" lon="3.50428">
        <ele>859</ele>
        <time>2024-01-30T10:28:55.000Z</time>
      </trkpt>
      <trkpt lat="44.50923" lon="3.50438">
        <ele>860.40002441406</ele>
        <time>2024-01-30T10:28:57.000Z</time>
      </trkpt>
      <trkpt lat="44.50934" lon="3.50447">
        <ele>861.79998779297</ele>
        <time>2024-01-30T10:29:00.000Z</time>
      </trkpt>
      <trkpt lat="44.50948" lon="3.50455">
        <ele>863.40002441406</ele>
        <time>2024-01-30T10:29:03.000Z</time>
      </trkpt>
      <trkpt lat="44.50959" lon="3.50461">
        <ele>864.20001220703</ele>
        <time>2024-01-30T10:29:05.000Z</time>
      </trkpt>
      <trkpt lat="44.50963" lon="3.50463">
        <ele>864.79998779297</ele>
        <time>2024-01-30T10:29:06.000Z</time>
      </trkpt>
      <trkpt lat="44.50974" lon="3.5047">
        <ele>866.20001220703</ele>
        <time>2024-01-30T10:29:08.000Z</time>
      </trkpt>
      <trkpt lat="44.50984" lon="3.5048">
        <ele>867.59997558594</ele>
        <time>2024-01-30T10:29:10.000Z</time>
      </trkpt>
      <trkpt lat="44.50993" lon="3.50491">
        <ele>869.40002441406</ele>
        <time>2024-01-30T10:29:12.000Z</time>
      </trkpt>
      <trkpt lat="44.51002" lon="3.50502">
        <ele>871</ele>
        <time>2024-01-30T10:29:14.000Z</time>
      </trkpt>
      <trkpt lat="44.51011" lon="3.50513">
        <ele>872.59997558594</ele>
        <time>2024-01-30T10:29:16.000Z</time>
      </trkpt>
      <trkpt lat="44.51016" lon="3.50519">
        <ele>874</ele>
        <time>2024-01-30T10:29:17.000Z</time>
      </trkpt>
      <trkpt lat="44.51019" lon="3.50526">
        <ele>874.79998779297</ele>
        <time>2024-01-30T10:29:18.000Z</time>
      </trkpt>
      <trkpt lat="44.51023" lon="3.50533">
        <ele>875.40002441406</ele>
        <time>2024-01-30T10:29:19.000Z</time>
      </trkpt>
      <trkpt lat="44.51032" lon="3.50546">
        <ele>877</ele>
        <time>2024-01-30T10:29:21.000Z</time>
      </trkpt>
      <trkpt lat="44.5104" lon="3.5056">
        <ele>879</ele>
        <time>2024-01-30T10:29:23.000Z</time>
      </trkpt>
      <trkpt lat="44.51049" lon="3.50575">
        <ele>880.79998779297</ele>
        <time>2024-01-30T10:29:25.000Z</time>
      </trkpt>
      <trkpt lat="44.51054" lon="3.50582">
        <ele>881.79998779297</ele>
        <time>2024-01-30T10:29:26.000Z</time>
      </trkpt>
      <trkpt lat="44.5106" lon="3.50589">
        <ele>882.79998779297</ele>
        <time>2024-01-30T10:29:27.000Z</time>
      </trkpt>
      <trkpt lat="44.51066" lon="3.50595">
        <ele>884</ele>
        <time>2024-01-30T10:29:28.000Z</time>
      </trkpt>
      <trkpt lat="44.51073" lon="3.50602">
        <ele>885.20001220703</ele>
        <time>2024-01-30T10:29:29.000Z</time>
      </trkpt>
      <trkpt lat="44.51081" lon="3.5061">
        <ele>886.40002441406</ele>
        <time>2024-01-30T10:29:30.000Z</time>
      </trkpt>
      <trkpt lat="44.51088" lon="3.50618">
        <ele>887.79998779297</ele>
        <time>2024-01-30T10:29:31.000Z</time>
      </trkpt>
      <trkpt lat="44.51096" lon="3.50626">
        <ele>889.59997558594</ele>
        <time>2024-01-30T10:29:32.000Z</time>
      </trkpt>
      <trkpt lat="44.51105" lon="3.50634">
        <ele>890.59997558594</ele>
        <time>2024-01-30T10:29:33.000Z</time>
      </trkpt>
      <trkpt lat="44.51113" lon="3.50641">
        <ele>892.59997558594</ele>
        <time>2024-01-30T10:29:34.000Z</time>
      </trkpt>
      <trkpt lat="44.51123" lon="3.50648">
        <ele>894.20001220703</ele>
        <time>2024-01-30T10:29:35.000Z</time>
      </trkpt>
      <trkpt lat="44.51132" lon="3.50654">
        <ele>895.59997558594</ele>
        <time>2024-01-30T10:29:36.000Z</time>
      </trkpt>
      <trkpt lat="44.51142" lon="3.5066">
        <ele>897.20001220703</ele>
        <time>2024-01-30T10:29:37.000Z</time>
      </trkpt>
      <trkpt lat="44.5115" lon="3.50666">
        <ele>898.40002441406</ele>
        <time>2024-01-30T10:29:38.000Z</time>
      </trkpt>
      <trkpt lat="44.5116" lon="3.50672">
        <ele>900.20001220703</ele>
        <time>2024-01-30T10:29:39.000Z</time>
      </trkpt>
      <trkpt lat="44.51168" lon="3.50679">
        <ele>901.59997558594</ele>
        <time>2024-01-30T10:29:40.000Z</time>
      </trkpt>
      <trkpt lat="44.51175" lon="3.50689">
        <ele>902.79998779297</ele>
        <time>2024-01-30T10:29:41.000Z</time>
      </trkpt>
      <trkpt lat="44.5118" lon="3.50699">
        <ele>904.20001220703</ele>
        <time>2024-01-30T10:29:42.000Z</time>
      </trkpt>
      <trkpt lat="44.51182" lon="3.50711">
        <ele>905.79998779297</ele>
        <time>2024-01-30T10:29:43.000Z</time>
      </trkpt>
      <trkpt lat="44.51182" lon="3.50724">
        <ele>907.40002441406</ele>
        <time>2024-01-30T10:29:44.000Z</time>
      </trkpt>
      <trkpt lat="44.51179" lon="3.50736">
        <ele>909</ele>
        <time>2024-01-30T10:29:45.000Z</time>
      </trkpt>
      <trkpt lat="44.51174" lon="3.50749">
        <ele>910.59997558594</ele>
        <time>2024-01-30T10:29:46.000Z</time>
      </trkpt>
      <trkpt lat="44.5117" lon="3.50762">
        <ele>912.20001220703</ele>
        <time>2024-01-30T10:29:47.000Z</time>
      </trkpt>
      <trkpt lat="44.51166" lon="3.50772">
        <ele>913.79998779297</ele>
        <time>2024-01-30T10:29:48.000Z</time>
      </trkpt>
      <trkpt lat="44.5116" lon="3.50788">
        <ele>915.20001220703</ele>
        <time>2024-01-30T10:29:49.000Z</time>
      </trkpt>
      <trkpt lat="44.51155" lon="3.50802">
        <ele>916.79998779297</ele>
        <time>2024-01-30T10:29:50.000Z</time>
      </trkpt>
      <trkpt lat="44.51151" lon="3.50815">
        <ele>918.20001220703</ele>
        <time>2024-01-30T10:29:51.000Z</time>
      </trkpt>
      <trkpt lat="44.51146" lon="3.50828">
        <ele>919.59997558594</ele>
        <time>2024-01-30T10:29:52.000Z</time>
      </trkpt>
      <trkpt lat="44.51141" lon="3.50841">
        <ele>921.40002441406</ele>
        <time>2024-01-30T10:29:53.000Z</time>
      </trkpt>
      <trkpt lat="44.51136" lon="3.50854">
        <ele>922.79998779297</ele>
        <time>2024-01-30T10:29:54.000Z</time>
      </trkpt>
      <trkpt lat="44.51129" lon="3.50866">
        <ele>924.40002441406</ele>
        <time>2024-01-30T10:29:55.000Z</time>
      </trkpt>
      <trkpt lat="44.51122" lon="3.50879">
        <ele>926</ele>
        <time>2024-01-30T10:29:56.000Z</time>
      </trkpt>
      <trkpt lat="44.51115" lon="3.50891">
        <ele>928</ele>
        <time>2024-01-30T10:29:57.000Z</time>
      </trkpt>
      <trkpt lat="44.51109" lon="3.50903">
        <ele>929.79998779297</ele>
        <time>2024-01-30T10:29:58.000Z</time>
      </trkpt>
      <trkpt lat="44.51099" lon="3.50917">
        <ele>931.40002441406</ele>
        <time>2024-01-30T10:29:59.000Z</time>
      </trkpt>
      <trkpt lat="44.51094" lon="3.50926">
        <ele>933.20001220703</ele>
        <time>2024-01-30T10:30:00.000Z</time>
      </trkpt>
      <trkpt lat="44.51086" lon="3.50939">
        <ele>934.79998779297</ele>
        <time>2024-01-30T10:30:01.000Z</time>
      </trkpt>
      <trkpt lat="44.5108" lon="3.50949">
        <ele>936.59997558594</ele>
        <time>2024-01-30T10:30:02.000Z</time>
      </trkpt>
      <trkpt lat="44.51074" lon="3.50959">
        <ele>937.79998779297</ele>
        <time>2024-01-30T10:30:03.000Z</time>
      </trkpt>
      <trkpt lat="44.51069" lon="3.5097">
        <ele>939.59997558594</ele>
        <time>2024-01-30T10:30:04.000Z</time>
      </trkpt>
      <trkpt lat="44.51066" lon="3.50979">
        <ele>941</ele>
        <time>2024-01-30T10:30:05.000Z</time>
      </trkpt>
      <trkpt lat="44.51065" lon="3.50991">
        <ele>942.20001220703</ele>
        <time>2024-01-30T10:30:06.000Z</time>
      </trkpt>
      <trkpt lat="44.51067" lon="3.51003">
        <ele>943.59997558594</ele>
        <time>2024-01-30T10:30:07.000Z</time>
      </trkpt>
      <trkpt lat="44.5107" lon="3.51016">
        <ele>944.59997558594</ele>
        <time>2024-01-30T10:30:08.000Z</time>
      </trkpt>
      <trkpt lat="44.51074" lon="3.51028">
        <ele>945.79998779297</ele>
        <time>2024-01-30T10:30:09.000Z</time>
      </trkpt>
      <trkpt lat="44.51077" lon="3.51041">
        <ele>947.20001220703</ele>
        <time>2024-01-30T10:30:10.000Z</time>
      </trkpt>
      <trkpt lat="44.51078" lon="3.51056">
        <ele>948.59997558594</ele>
        <time>2024-01-30T10:30:11.000Z</time>
      </trkpt>
      <trkpt lat="44.51075" lon="3.5107">
        <ele>950.20001220703</ele>
        <time>2024-01-30T10:30:12.000Z</time>
      </trkpt>
      <trkpt lat="44.51073" lon="3.51083">
        <ele>951.79998779297</ele>
        <time>2024-01-30T10:30:13.000Z</time>
      </trkpt>
      <trkpt lat="44.5107" lon="3.511">
        <ele>953.20001220703</ele>
        <time>2024-01-30T10:30:14.000Z</time>
      </trkpt>
      <trkpt lat="44.51069" lon="3.51114">
        <ele>954.59997558594</ele>
        <time>2024-01-30T10:30:15.000Z</time>
      </trkpt>
      <trkpt lat="44.51069" lon="3.51125">
        <ele>956.20001220703</ele>
        <time>2024-01-30T10:30:16.000Z</time>
      </trkpt>
      <trkpt lat="44.51069" lon="3.51139">
        <ele>957.79998779297</ele>
        <time>2024-01-30T10:30:17.000Z</time>
      </trkpt>
      <trkpt lat="44.5107" lon="3.51153">
        <ele>959.40002441406</ele>
        <time>2024-01-30T10:30:18.000Z</time>
      </trkpt>
      <trkpt lat="44.51071" lon="3.51167">
        <ele>961</ele>
        <time>2024-01-30T10:30:19.000Z</time>
      </trkpt>
      <trkpt lat="44.51073" lon="3.5118">
        <ele>962.40002441406</ele>
        <time>2024-01-30T10:30:20.000Z</time>
      </trkpt>
      <trkpt lat="44.51075" lon="3.51193">
        <ele>963.59997558594</ele>
        <time>2024-01-30T10:30:21.000Z</time>
      </trkpt>
      <trkpt lat="44.51077" lon="3.51207">
        <ele>964.79998779297</ele>
        <time>2024-01-30T10:30:22.000Z</time>
      </trkpt>
      <trkpt lat="44.51079" lon="3.51221">
        <ele>966</ele>
        <time>2024-01-30T10:30:23.000Z</time>
      </trkpt>
      <trkpt lat="44.51081" lon="3.51236">
        <ele>967.20001220703</ele>
        <time>2024-01-30T10:30:24.000Z</time>
      </trkpt>
      <trkpt lat="44.51083" lon="3.5125">
        <ele>968.59997558594</ele>
        <time>2024-01-30T10:30:25.000Z</time>
      </trkpt>
      <trkpt lat="44.51087" lon="3.51265">
        <ele>970</ele>
        <time>2024-01-30T10:30:26.000Z</time>
      </trkpt>
      <trkpt lat="44.51089" lon="3.51279">
        <ele>971.40002441406</ele>
        <time>2024-01-30T10:30:27.000Z</time>
      </trkpt>
      <trkpt lat="44.5109" lon="3.51294">
        <ele>973</ele>
        <time>2024-01-30T10:30:28.000Z</time>
      </trkpt>
      <trkpt lat="44.51091" lon="3.51309">
        <ele>974.59997558594</ele>
        <time>2024-01-30T10:30:29.000Z</time>
      </trkpt>
      <trkpt lat="44.51092" lon="3.51324">
        <ele>975.79998779297</ele>
        <time>2024-01-30T10:30:30.000Z</time>
      </trkpt>
      <trkpt lat="44.51094" lon="3.51339">
        <ele>977.20001220703</ele>
        <time>2024-01-30T10:30:31.000Z</time>
      </trkpt>
      <trkpt lat="44.51096" lon="3.51354">
        <ele>978.79998779297</ele>
        <time>2024-01-30T10:30:32.000Z</time>
      </trkpt>
      <trkpt lat="44.51099" lon="3.51369">
        <ele>980</ele>
        <time>2024-01-30T10:30:33.000Z</time>
      </trkpt>
      <trkpt lat="44.51103" lon="3.51383">
        <ele>981.40002441406</ele>
        <time>2024-01-30T10:30:34.000Z</time>
      </trkpt>
      <trkpt lat="44.51107" lon="3.51396">
        <ele>983.20001220703</ele>
        <time>2024-01-30T10:30:35.000Z</time>
      </trkpt>
      <trkpt lat="44.51112" lon="3.51408">
        <ele>984.40002441406</ele>
        <time>2024-01-30T10:30:36.000Z</time>
      </trkpt>
      <trkpt lat="44.51117" lon="3.51421">
        <ele>986.40002441406</ele>
        <time>2024-01-30T10:30:37.000Z</time>
      </trkpt>
      <trkpt lat="44.51123" lon="3.51433">
        <ele>987.59997558594</ele>
        <time>2024-01-30T10:30:38.000Z</time>
      </trkpt>
      <trkpt lat="44.51132" lon="3.51457">
        <ele>989.59997558594</ele>
        <time>2024-01-30T10:30:40.000Z</time>
      </trkpt>
      <trkpt lat="44.51136" lon="3.51469">
        <ele>990.79998779297</ele>
        <time>2024-01-30T10:30:41.000Z</time>
      </trkpt>
      <trkpt lat="44.51138" lon="3.51482">
        <ele>992</ele>
        <time>2024-01-30T10:30:42.000Z</time>
      </trkpt>
      <trkpt lat="44.51143" lon="3.51495">
        <ele>993.20001220703</ele>
        <time>2024-01-30T10:30:43.000Z</time>
      </trkpt>
      <trkpt lat="44.51145" lon="3.51508">
        <ele>994.79998779297</ele>
        <time>2024-01-30T10:30:44.000Z</time>
      </trkpt>
      <trkpt lat="44.51145" lon="3.51521">
        <ele>996</ele>
        <time>2024-01-30T10:30:45.000Z</time>
      </trkpt>
      <trkpt lat="44.51147" lon="3.51535">
        <ele>997.20001220703</ele>
        <time>2024-01-30T10:30:46.000Z</time>
      </trkpt>
      <trkpt lat="44.51148" lon="3.51546">
        <ele>999</ele>
        <time>2024-01-30T10:30:47.000Z</time>
      </trkpt>
      <trkpt lat="44.51149" lon="3.51558">
        <ele>1000.200012207</ele>
        <time>2024-01-30T10:30:48.000Z</time>
      </trkpt>
      <trkpt lat="44.5115" lon="3.5157">
        <ele>1001.200012207</ele>
        <time>2024-01-30T10:30:49.000Z</time>
      </trkpt>
      <trkpt lat="44.51152" lon="3.51591">
        <ele>1003.799987793</ele>
        <time>2024-01-30T10:30:51.000Z</time>
      </trkpt>
      <trkpt lat="44.51152" lon="3.51602">
        <ele>1005</ele>
        <time>2024-01-30T10:30:52.000Z</time>
      </trkpt>
      <trkpt lat="44.51152" lon="3.51615">
        <ele>1006.200012207</ele>
        <time>2024-01-30T10:30:53.000Z</time>
      </trkpt>
      <trkpt lat="44.51153" lon="3.51629">
        <ele>1007.5999755859</ele>
        <time>2024-01-30T10:30:54.000Z</time>
      </trkpt>
      <trkpt lat="44.51153" lon="3.51657">
        <ele>1009.799987793</ele>
        <time>2024-01-30T10:30:56.000Z</time>
      </trkpt>
      <trkpt lat="44.51154" lon="3.51671">
        <ele>1011.200012207</ele>
        <time>2024-01-30T10:30:57.000Z</time>
      </trkpt>
      <trkpt lat="44.51154" lon="3.51685">
        <ele>1012.4000244141</ele>
        <time>2024-01-30T10:30:58.000Z</time>
      </trkpt>
      <trkpt lat="44.51154" lon="3.51699">
        <ele>1013.4000244141</ele>
        <time>2024-01-30T10:30:59.000Z</time>
      </trkpt>
      <trkpt lat="44.51155" lon="3.51726">
        <ele>1015.799987793</ele>
        <time>2024-01-30T10:31:01.000Z</time>
      </trkpt>
      <trkpt lat="44.51155" lon="3.51738">
        <ele>1017</ele>
        <time>2024-01-30T10:31:02.000Z</time>
      </trkpt>
      <trkpt lat="44.51157" lon="3.51761">
        <ele>1019</ele>
        <time>2024-01-30T10:31:04.000Z</time>
      </trkpt>
      <trkpt lat="44.51157" lon="3.51769">
        <ele>1020.4000244141</ele>
        <time>2024-01-30T10:31:05.000Z</time>
      </trkpt>
      <trkpt lat="44.51157" lon="3.51784">
        <ele>1021.799987793</ele>
        <time>2024-01-30T10:31:07.000Z</time>
      </trkpt>
      <trkpt lat="44.51157" lon="3.51792">
        <ele>1023</ele>
        <time>2024-01-30T10:31:08.000Z</time>
      </trkpt>
      <trkpt lat="44.51157" lon="3.51803">
        <ele>1024.4000244141</ele>
        <time>2024-01-30T10:31:09.000Z</time>
      </trkpt>
      <trkpt lat="44.51157" lon="3.51815">
        <ele>1025.5999755859</ele>
        <time>2024-01-30T10:31:10.000Z</time>
      </trkpt>
      <trkpt lat="44.51158" lon="3.51827">
        <ele>1026.5999755859</ele>
        <time>2024-01-30T10:31:11.000Z</time>
      </trkpt>
      <trkpt lat="44.51158" lon="3.5184">
        <ele>1027.5999755859</ele>
        <time>2024-01-30T10:31:12.000Z</time>
      </trkpt>
      <trkpt lat="44.51157" lon="3.51852">
        <ele>1029.1999511719</ele>
        <time>2024-01-30T10:31:13.000Z</time>
      </trkpt>
      <trkpt lat="44.51152" lon="3.51869">
        <ele>1030.5999755859</ele>
        <time>2024-01-30T10:31:14.000Z</time>
      </trkpt>
      <trkpt lat="44.51147" lon="3.51881">
        <ele>1032</ele>
        <time>2024-01-30T10:31:15.000Z</time>
      </trkpt>
      <trkpt lat="44.51143" lon="3.51894">
        <ele>1033.4000244141</ele>
        <time>2024-01-30T10:31:16.000Z</time>
      </trkpt>
      <trkpt lat="44.51138" lon="3.51908">
        <ele>1034.5999755859</ele>
        <time>2024-01-30T10:31:17.000Z</time>
      </trkpt>
      <trkpt lat="44.51137" lon="3.51919">
        <ele>1035.8000488281</ele>
        <time>2024-01-30T10:31:18.000Z</time>
      </trkpt>
      <trkpt lat="44.51131" lon="3.51934">
        <ele>1036.8000488281</ele>
        <time>2024-01-30T10:31:19.000Z</time>
      </trkpt>
      <trkpt lat="44.51127" lon="3.51943">
        <ele>1038.1999511719</ele>
        <time>2024-01-30T10:31:20.000Z</time>
      </trkpt>
      <trkpt lat="44.51122" lon="3.51954">
        <ele>1039.5999755859</ele>
        <time>2024-01-30T10:31:21.000Z</time>
      </trkpt>
      <trkpt lat="44.51114" lon="3.51974">
        <ele>1041</ele>
        <time>2024-01-30T10:31:23.000Z</time>
      </trkpt>
      <trkpt lat="44.51109" lon="3.51984">
        <ele>1042.4000244141</ele>
        <time>2024-01-30T10:31:24.000Z</time>
      </trkpt>
      <trkpt lat="44.51105" lon="3.51994">
        <ele>1043.1999511719</ele>
        <time>2024-01-30T10:31:25.000Z</time>
      </trkpt>
      <trkpt lat="44.51101" lon="3.52003">
        <ele>1044.1999511719</ele>
        <time>2024-01-30T10:31:26.000Z</time>
      </trkpt>
      <trkpt lat="44.51092" lon="3.52023">
        <ele>1045.4000244141</ele>
        <time>2024-01-30T10:31:28.000Z</time>
      </trkpt>
      <trkpt lat="44.51083" lon="3.52043">
        <ele>1046.1999511719</ele>
        <time>2024-01-30T10:31:31.000Z</time>
      </trkpt>
      <trkpt lat="44.51082" lon="3.52046">
        <ele>1047</ele>
        <time>2024-01-30T10:31:33.000Z</time>
      </trkpt>
      <trkpt lat="44.51081" lon="3.52047">
        <ele>1047</ele>
        <time>2024-01-30T10:31:34.000Z</time>
      </trkpt>
      <trkpt lat="44.51081" lon="3.52051">
        <ele>1047.1999511719</ele>
        <time>2024-01-30T10:31:40.000Z</time>
      </trkpt>
      <trkpt lat="44.51081" lon="3.52051">
        <ele>1046.8000488281</ele>
        <time>2024-01-30T10:32:13.000Z</time>
      </trkpt>
      <trkpt lat="44.51081" lon="3.52051">
        <ele>1046</ele>
        <time>2024-01-30T10:32:26.000Z</time>
      </trkpt>
      <trkpt lat="44.51081" lon="3.52051">
        <ele>1046.1999511719</ele>
        <time>2024-01-30T10:32:39.000Z</time>
      </trkpt>
      <trkpt lat="44.51081" lon="3.52051">
        <ele>1044.8000488281</ele>
        <time>2024-01-30T10:33:02.000Z</time>
      </trkpt>
      <trkpt lat="44.51081" lon="3.52051">
        <ele>1044.8000488281</ele>
        <time>2024-01-30T10:33:03.000Z</time>
      </trkpt>
      <trkpt lat="44.51081" lon="3.52051">
        <ele>1044.4000244141</ele>
        <time>2024-01-30T10:33:22.000Z</time>
      </trkpt>
      <trkpt lat="44.51081" lon="3.52051">
        <ele>1044</ele>
        <time>2024-01-30T10:33:40.000Z</time>
      </trkpt>
      <trkpt lat="44.51081" lon="3.52051">
        <ele>1043.8000488281</ele>
        <time>2024-01-30T10:33:47.000Z</time>
      </trkpt>
      <trkpt lat="44.51081" lon="3.52051">
        <ele>1043.5999755859</ele>
        <time>2024-01-30T10:34:00.000Z</time>
      </trkpt>
      <trkpt lat="44.51081" lon="3.52051">
        <ele>1043.4000244141</ele>
        <time>2024-01-30T10:34:18.000Z</time>
      </trkpt>
      <trkpt lat="44.51079" lon="3.52059">
        <ele>1043.8000488281</ele>
        <time>2024-01-30T10:34:22.000Z</time>
      </trkpt>
      <trkpt lat="44.51066" lon="3.5208">
        <ele>1044.5999755859</ele>
        <time>2024-01-30T10:34:28.000Z</time>
      </trkpt>
      <trkpt lat="44.5106" lon="3.52092">
        <ele>1045</ele>
        <time>2024-01-30T10:34:32.000Z</time>
      </trkpt>
      <trkpt lat="44.51061" lon="3.52094">
        <ele>1045</ele>
        <time>2024-01-30T10:34:33.000Z</time>
      </trkpt>
      <trkpt lat="44.51064" lon="3.52097">
        <ele>1045</ele>
        <time>2024-01-30T10:34:36.000Z</time>
      </trkpt>
      <trkpt lat="44.51067" lon="3.52098">
        <ele>1045</ele>
        <time>2024-01-30T10:34:38.000Z</time>
      </trkpt>
      <trkpt lat="44.51068" lon="3.52098">
        <ele>1044.8000488281</ele>
        <time>2024-01-30T10:34:43.000Z</time>
      </trkpt>
      <trkpt lat="44.51067" lon="3.52097">
        <ele>1044.8000488281</ele>
        <time>2024-01-30T10:34:44.000Z</time>
      </trkpt>
      <trkpt lat="44.51065" lon="3.52096">
        <ele>1045</ele>
        <time>2024-01-30T10:34:48.000Z</time>
      </trkpt>
      <trkpt lat="44.51067" lon="3.52094">
        <ele>1045</ele>
        <time>2024-01-30T10:34:52.000Z</time>
      </trkpt>
      <trkpt lat="44.51069" lon="3.52092">
        <ele>1045</ele>
        <time>2024-01-30T10:34:53.000Z</time>
      </trkpt>
      <trkpt lat="44.51072" lon="3.52085">
        <ele>1044.8000488281</ele>
        <time>2024-01-30T10:34:59.000Z</time>
      </trkpt>
      <trkpt lat="44.51072" lon="3.52084">
        <ele>1044.8000488281</ele>
        <time>2024-01-30T10:35:08.000Z</time>
      </trkpt>
      <trkpt lat="44.51076" lon="3.52075">
        <ele>1044.8000488281</ele>
        <time>2024-01-30T10:35:12.000Z</time>
      </trkpt>
      <trkpt lat="44.51087" lon="3.52056">
        <ele>1043.4000244141</ele>
        <time>2024-01-30T10:35:17.000Z</time>
      </trkpt>
      <trkpt lat="44.51088" lon="3.52055">
        <ele>1043.4000244141</ele>
        <time>2024-01-30T10:35:20.000Z</time>
      </trkpt>
      <trkpt lat="44.51088" lon="3.52055">
        <ele>1043.4000244141</ele>
        <time>2024-01-30T10:35:29.000Z</time>
      </trkpt>
      <trkpt lat="44.51088" lon="3.52055">
        <ele>1043.4000244141</ele>
        <time>2024-01-30T10:35:45.000Z</time>
      </trkpt>
      <trkpt lat="44.51089" lon="3.52052">
        <ele>1043.4000244141</ele>
        <time>2024-01-30T10:36:00.000Z</time>
      </trkpt>
      <trkpt lat="44.51096" lon="3.52034">
        <ele>1042.8000488281</ele>
        <time>2024-01-30T10:36:05.000Z</time>
      </trkpt>
      <trkpt lat="44.51101" lon="3.52021">
        <ele>1042.1999511719</ele>
        <time>2024-01-30T10:36:07.000Z</time>
      </trkpt>
      <trkpt lat="44.51107" lon="3.52007">
        <ele>1041.4000244141</ele>
        <time>2024-01-30T10:36:09.000Z</time>
      </trkpt>
      <trkpt lat="44.51111" lon="3.52">
        <ele>1041</ele>
        <time>2024-01-30T10:36:10.000Z</time>
      </trkpt>
      <trkpt lat="44.51122" lon="3.51977">
        <ele>1039.4000244141</ele>
        <time>2024-01-30T10:36:13.000Z</time>
      </trkpt>
      <trkpt lat="44.51131" lon="3.5196">
        <ele>1038.1999511719</ele>
        <time>2024-01-30T10:36:15.000Z</time>
      </trkpt>
      <trkpt lat="44.51136" lon="3.51951">
        <ele>1037.8000488281</ele>
        <time>2024-01-30T10:36:16.000Z</time>
      </trkpt>
      <trkpt lat="44.51141" lon="3.51941">
        <ele>1036.5999755859</ele>
        <time>2024-01-30T10:36:17.000Z</time>
      </trkpt>
      <trkpt lat="44.51151" lon="3.51919">
        <ele>1035.1999511719</ele>
        <time>2024-01-30T10:36:19.000Z</time>
      </trkpt>
      <trkpt lat="44.51156" lon="3.51906">
        <ele>1034.1999511719</ele>
        <time>2024-01-30T10:36:20.000Z</time>
      </trkpt>
      <trkpt lat="44.51165" lon="3.51879">
        <ele>1032.1999511719</ele>
        <time>2024-01-30T10:36:22.000Z</time>
      </trkpt>
      <trkpt lat="44.51167" lon="3.51867">
        <ele>1030.5999755859</ele>
        <time>2024-01-30T10:36:23.000Z</time>
      </trkpt>
      <trkpt lat="44.51168" lon="3.51852">
        <ele>1029.4000244141</ele>
        <time>2024-01-30T10:36:24.000Z</time>
      </trkpt>
      <trkpt lat="44.5117" lon="3.51829">
        <ele>1028.4000244141</ele>
        <time>2024-01-30T10:36:25.000Z</time>
      </trkpt>
      <trkpt lat="44.5117" lon="3.5181">
        <ele>1026.8000488281</ele>
        <time>2024-01-30T10:36:26.000Z</time>
      </trkpt>
      <trkpt lat="44.5117" lon="3.51798">
        <ele>1025.4000244141</ele>
        <time>2024-01-30T10:36:27.000Z</time>
      </trkpt>
      <trkpt lat="44.5117" lon="3.51774">
        <ele>1023.799987793</ele>
        <time>2024-01-30T10:36:28.000Z</time>
      </trkpt>
      <trkpt lat="44.51169" lon="3.51753">
        <ele>1021.799987793</ele>
        <time>2024-01-30T10:36:29.000Z</time>
      </trkpt>
      <trkpt lat="44.51168" lon="3.51736">
        <ele>1020</ele>
        <time>2024-01-30T10:36:30.000Z</time>
      </trkpt>
      <trkpt lat="44.51165" lon="3.5171">
        <ele>1017.799987793</ele>
        <time>2024-01-30T10:36:31.000Z</time>
      </trkpt>
      <trkpt lat="44.51163" lon="3.51692">
        <ele>1015.799987793</ele>
        <time>2024-01-30T10:36:32.000Z</time>
      </trkpt>
      <trkpt lat="44.51161" lon="3.51669">
        <ele>1014</ele>
        <time>2024-01-30T10:36:33.000Z</time>
      </trkpt>
      <trkpt lat="44.51159" lon="3.51641">
        <ele>1011.5999755859</ele>
        <time>2024-01-30T10:36:34.000Z</time>
      </trkpt>
      <trkpt lat="44.51155" lon="3.51621">
        <ele>1009.5999755859</ele>
        <time>2024-01-30T10:36:35.000Z</time>
      </trkpt>
      <trkpt lat="44.51153" lon="3.51597">
        <ele>1008</ele>
        <time>2024-01-30T10:36:36.000Z</time>
      </trkpt>
      <trkpt lat="44.5115" lon="3.51571">
        <ele>1005.5999755859</ele>
        <time>2024-01-30T10:36:37.000Z</time>
      </trkpt>
      <trkpt lat="44.5115" lon="3.51554">
        <ele>1003.5999755859</ele>
        <time>2024-01-30T10:36:38.000Z</time>
      </trkpt>
      <trkpt lat="44.51149" lon="3.51529">
        <ele>1001.200012207</ele>
        <time>2024-01-30T10:36:39.000Z</time>
      </trkpt>
      <trkpt lat="44.51148" lon="3.51509">
        <ele>999</ele>
        <time>2024-01-30T10:36:40.000Z</time>
      </trkpt>
      <trkpt lat="44.51147" lon="3.51489">
        <ele>996.59997558594</ele>
        <time>2024-01-30T10:36:41.000Z</time>
      </trkpt>
      <trkpt lat="44.51144" lon="3.51469">
        <ele>994.40002441406</ele>
        <time>2024-01-30T10:36:42.000Z</time>
      </trkpt>
      <trkpt lat="44.5114" lon="3.5145">
        <ele>992.59997558594</ele>
        <time>2024-01-30T10:36:43.000Z</time>
      </trkpt>
      <trkpt lat="44.51135" lon="3.51432">
        <ele>990.79998779297</ele>
        <time>2024-01-30T10:36:44.000Z</time>
      </trkpt>
      <trkpt lat="44.5113" lon="3.51414">
        <ele>988.59997558594</ele>
        <time>2024-01-30T10:36:45.000Z</time>
      </trkpt>
      <trkpt lat="44.51124" lon="3.51398">
        <ele>986.79998779297</ele>
        <time>2024-01-30T10:36:46.000Z</time>
      </trkpt>
      <trkpt lat="44.51118" lon="3.51382">
        <ele>985</ele>
        <time>2024-01-30T10:36:47.000Z</time>
      </trkpt>
      <trkpt lat="44.51113" lon="3.51366">
        <ele>983.40002441406</ele>
        <time>2024-01-30T10:36:48.000Z</time>
      </trkpt>
      <trkpt lat="44.51107" lon="3.51352">
        <ele>981.79998779297</ele>
        <time>2024-01-30T10:36:49.000Z</time>
      </trkpt>
      <trkpt lat="44.51104" lon="3.51336">
        <ele>980.20001220703</ele>
        <time>2024-01-30T10:36:50.000Z</time>
      </trkpt>
      <trkpt lat="44.51102" lon="3.51318">
        <ele>978.59997558594</ele>
        <time>2024-01-30T10:36:51.000Z</time>
      </trkpt>
      <trkpt lat="44.511" lon="3.51301">
        <ele>977</ele>
        <time>2024-01-30T10:36:52.000Z</time>
      </trkpt>
      <trkpt lat="44.51098" lon="3.51282">
        <ele>975.40002441406</ele>
        <time>2024-01-30T10:36:53.000Z</time>
      </trkpt>
      <trkpt lat="44.51096" lon="3.51262">
        <ele>973.59997558594</ele>
        <time>2024-01-30T10:36:54.000Z</time>
      </trkpt>
      <trkpt lat="44.51095" lon="3.51242">
        <ele>971.79998779297</ele>
        <time>2024-01-30T10:36:55.000Z</time>
      </trkpt>
      <trkpt lat="44.51092" lon="3.51221">
        <ele>970</ele>
        <time>2024-01-30T10:36:56.000Z</time>
      </trkpt>
      <trkpt lat="44.51089" lon="3.51199">
        <ele>967.79998779297</ele>
        <time>2024-01-30T10:36:57.000Z</time>
      </trkpt>
      <trkpt lat="44.51086" lon="3.51178">
        <ele>965.79998779297</ele>
        <time>2024-01-30T10:36:58.000Z</time>
      </trkpt>
      <trkpt lat="44.51082" lon="3.51158">
        <ele>963.40002441406</ele>
        <time>2024-01-30T10:36:59.000Z</time>
      </trkpt>
      <trkpt lat="44.51079" lon="3.51138">
        <ele>961.59997558594</ele>
        <time>2024-01-30T10:37:00.000Z</time>
      </trkpt>
      <trkpt lat="44.51077" lon="3.51118">
        <ele>959.59997558594</ele>
        <time>2024-01-30T10:37:01.000Z</time>
      </trkpt>
      <trkpt lat="44.51076" lon="3.51099">
        <ele>957.59997558594</ele>
        <time>2024-01-30T10:37:02.000Z</time>
      </trkpt>
      <trkpt lat="44.51077" lon="3.51081">
        <ele>955.40002441406</ele>
        <time>2024-01-30T10:37:03.000Z</time>
      </trkpt>
      <trkpt lat="44.5108" lon="3.51065">
        <ele>953</ele>
        <time>2024-01-30T10:37:04.000Z</time>
      </trkpt>
      <trkpt lat="44.51083" lon="3.5105">
        <ele>950.59997558594</ele>
        <time>2024-01-30T10:37:05.000Z</time>
      </trkpt>
      <trkpt lat="44.51086" lon="3.51037">
        <ele>948.40002441406</ele>
        <time>2024-01-30T10:37:06.000Z</time>
      </trkpt>
      <trkpt lat="44.51087" lon="3.51026">
        <ele>946.40002441406</ele>
        <time>2024-01-30T10:37:07.000Z</time>
      </trkpt>
      <trkpt lat="44.51085" lon="3.51015">
        <ele>945</ele>
        <time>2024-01-30T10:37:08.000Z</time>
      </trkpt>
      <trkpt lat="44.51082" lon="3.51005">
        <ele>944</ele>
        <time>2024-01-30T10:37:09.000Z</time>
      </trkpt>
      <trkpt lat="44.51078" lon="3.50995">
        <ele>943</ele>
        <time>2024-01-30T10:37:10.000Z</time>
      </trkpt>
      <trkpt lat="44.51075" lon="3.50984">
        <ele>942</ele>
        <time>2024-01-30T10:37:11.000Z</time>
      </trkpt>
      <trkpt lat="44.51074" lon="3.50974">
        <ele>940.79998779297</ele>
        <time>2024-01-30T10:37:12.000Z</time>
      </trkpt>
      <trkpt lat="44.51076" lon="3.50962">
        <ele>940</ele>
        <time>2024-01-30T10:37:13.000Z</time>
      </trkpt>
      <trkpt lat="44.51082" lon="3.50949">
        <ele>939</ele>
        <time>2024-01-30T10:37:14.000Z</time>
      </trkpt>
      <trkpt lat="44.5109" lon="3.50937">
        <ele>938</ele>
        <time>2024-01-30T10:37:15.000Z</time>
      </trkpt>
      <trkpt lat="44.51097" lon="3.50924">
        <ele>936.79998779297</ele>
        <time>2024-01-30T10:37:16.000Z</time>
      </trkpt>
      <trkpt lat="44.51106" lon="3.50912">
        <ele>935.40002441406</ele>
        <time>2024-01-30T10:37:17.000Z</time>
      </trkpt>
      <trkpt lat="44.51115" lon="3.50897">
        <ele>933.59997558594</ele>
        <time>2024-01-30T10:37:18.000Z</time>
      </trkpt>
      <trkpt lat="44.51125" lon="3.50882">
        <ele>931.79998779297</ele>
        <time>2024-01-30T10:37:19.000Z</time>
      </trkpt>
      <trkpt lat="44.51134" lon="3.50864">
        <ele>929.79998779297</ele>
        <time>2024-01-30T10:37:20.000Z</time>
      </trkpt>
      <trkpt lat="44.51142" lon="3.50846">
        <ele>927.79998779297</ele>
        <time>2024-01-30T10:37:21.000Z</time>
      </trkpt>
      <trkpt lat="44.51151" lon="3.50827">
        <ele>925.20001220703</ele>
        <time>2024-01-30T10:37:22.000Z</time>
      </trkpt>
      <trkpt lat="44.5116" lon="3.50804">
        <ele>922.59997558594</ele>
        <time>2024-01-30T10:37:23.000Z</time>
      </trkpt>
      <trkpt lat="44.51168" lon="3.50784">
        <ele>920.59997558594</ele>
        <time>2024-01-30T10:37:24.000Z</time>
      </trkpt>
      <trkpt lat="44.51173" lon="3.50765">
        <ele>918</ele>
        <time>2024-01-30T10:37:25.000Z</time>
      </trkpt>
      <trkpt lat="44.51179" lon="3.50747">
        <ele>915.40002441406</ele>
        <time>2024-01-30T10:37:26.000Z</time>
      </trkpt>
      <trkpt lat="44.51184" lon="3.50731">
        <ele>913</ele>
        <time>2024-01-30T10:37:27.000Z</time>
      </trkpt>
      <trkpt lat="44.51189" lon="3.50716">
        <ele>910.40002441406</ele>
        <time>2024-01-30T10:37:28.000Z</time>
      </trkpt>
      <trkpt lat="44.51191" lon="3.50705">
        <ele>908.20001220703</ele>
        <time>2024-01-30T10:37:29.000Z</time>
      </trkpt>
      <trkpt lat="44.51191" lon="3.50693">
        <ele>906.20001220703</ele>
        <time>2024-01-30T10:37:30.000Z</time>
      </trkpt>
      <trkpt lat="44.51189" lon="3.50683">
        <ele>904.79998779297</ele>
        <time>2024-01-30T10:37:31.000Z</time>
      </trkpt>
      <trkpt lat="44.51185" lon="3.50674">
        <ele>903.40002441406</ele>
        <time>2024-01-30T10:37:32.000Z</time>
      </trkpt>
      <trkpt lat="44.5118" lon="3.50665">
        <ele>902.59997558594</ele>
        <time>2024-01-30T10:37:33.000Z</time>
      </trkpt>
      <trkpt lat="44.51173" lon="3.50657">
        <ele>901.59997558594</ele>
        <time>2024-01-30T10:37:34.000Z</time>
      </trkpt>
      <trkpt lat="44.51165" lon="3.50649">
        <ele>900.59997558594</ele>
        <time>2024-01-30T10:37:35.000Z</time>
      </trkpt>
      <trkpt lat="44.51156" lon="3.50643">
        <ele>899.20001220703</ele>
        <time>2024-01-30T10:37:36.000Z</time>
      </trkpt>
      <trkpt lat="44.51145" lon="3.50637">
        <ele>897.59997558594</ele>
        <time>2024-01-30T10:37:37.000Z</time>
      </trkpt>
      <trkpt lat="44.51132" lon="3.50629">
        <ele>896.20001220703</ele>
        <time>2024-01-30T10:37:38.000Z</time>
      </trkpt>
      <trkpt lat="44.51117" lon="3.5062">
        <ele>894.79998779297</ele>
        <time>2024-01-30T10:37:39.000Z</time>
      </trkpt>
      <trkpt lat="44.51105" lon="3.50611">
        <ele>893.20001220703</ele>
        <time>2024-01-30T10:37:40.000Z</time>
      </trkpt>
      <trkpt lat="44.51092" lon="3.506">
        <ele>891.59997558594</ele>
        <time>2024-01-30T10:37:41.000Z</time>
      </trkpt>
      <trkpt lat="44.51077" lon="3.50585">
        <ele>889.79998779297</ele>
        <time>2024-01-30T10:37:42.000Z</time>
      </trkpt>
      <trkpt lat="44.51067" lon="3.50575">
        <ele>887.20001220703</ele>
        <time>2024-01-30T10:37:43.000Z</time>
      </trkpt>
      <trkpt lat="44.51055" lon="3.50561">
        <ele>884.59997558594</ele>
        <time>2024-01-30T10:37:44.000Z</time>
      </trkpt>
      <trkpt lat="44.51043" lon="3.50546">
        <ele>882.20001220703</ele>
        <time>2024-01-30T10:37:45.000Z</time>
      </trkpt>
      <trkpt lat="44.51033" lon="3.50531">
        <ele>880</ele>
        <time>2024-01-30T10:37:46.000Z</time>
      </trkpt>
      <trkpt lat="44.51022" lon="3.50513">
        <ele>877.59997558594</ele>
        <time>2024-01-30T10:37:47.000Z</time>
      </trkpt>
      <trkpt lat="44.51014" lon="3.505">
        <ele>875.59997558594</ele>
        <time>2024-01-30T10:37:48.000Z</time>
      </trkpt>
      <trkpt lat="44.51007" lon="3.5049">
        <ele>872.79998779297</ele>
        <time>2024-01-30T10:37:49.000Z</time>
      </trkpt>
      <trkpt lat="44.50996" lon="3.50476">
        <ele>871.40002441406</ele>
        <time>2024-01-30T10:37:50.000Z</time>
      </trkpt>
      <trkpt lat="44.50986" lon="3.50465">
        <ele>870.20001220703</ele>
        <time>2024-01-30T10:37:51.000Z</time>
      </trkpt>
      <trkpt lat="44.50976" lon="3.50454">
        <ele>868.59997558594</ele>
        <time>2024-01-30T10:37:52.000Z</time>
      </trkpt>
      <trkpt lat="44.50967" lon="3.50447">
        <ele>866.40002441406</ele>
        <time>2024-01-30T10:37:53.000Z</time>
      </trkpt>
      <trkpt lat="44.50954" lon="3.50438">
        <ele>864.40002441406</ele>
        <time>2024-01-30T10:37:54.000Z</time>
      </trkpt>
      <trkpt lat="44.50943" lon="3.50432">
        <ele>862.79998779297</ele>
        <time>2024-01-30T10:37:55.000Z</time>
      </trkpt>
      <trkpt lat="44.50933" lon="3.50427">
        <ele>861</ele>
        <time>2024-01-30T10:37:56.000Z</time>
      </trkpt>
      <trkpt lat="44.50923" lon="3.50422">
        <ele>859.59997558594</ele>
        <time>2024-01-30T10:37:57.000Z</time>
      </trkpt>
      <trkpt lat="44.50906" lon="3.50409">
        <ele>857</ele>
        <time>2024-01-30T10:37:59.000Z</time>
      </trkpt>
      <trkpt lat="44.50898" lon="3.50402">
        <ele>855.40002441406</ele>
        <time>2024-01-30T10:38:00.000Z</time>
      </trkpt>
      <trkpt lat="44.50893" lon="3.50397">
        <ele>854</ele>
        <time>2024-01-30T10:38:01.000Z</time>
      </trkpt>
      <trkpt lat="44.50887" lon="3.50388">
        <ele>852.40002441406</ele>
        <time>2024-01-30T10:38:02.000Z</time>
      </trkpt>
      <trkpt lat="44.50885" lon="3.50382">
        <ele>851.20001220703</ele>
        <time>2024-01-30T10:38:03.000Z</time>
      </trkpt>
      <trkpt lat="44.50885" lon="3.50377">
        <ele>850.20001220703</ele>
        <time>2024-01-30T10:38:04.000Z</time>
      </trkpt>
      <trkpt lat="44.50888" lon="3.50373">
        <ele>849.59997558594</ele>
        <time>2024-01-30T10:38:05.000Z</time>
      </trkpt>
      <trkpt lat="44.50899" lon="3.50373">
        <ele>848.40002441406</ele>
        <time>2024-01-30T10:38:07.000Z</time>
      </trkpt>
      <trkpt lat="44.50906" lon="3.50376">
        <ele>847.59997558594</ele>
        <time>2024-01-30T10:38:08.000Z</time>
      </trkpt>
      <trkpt lat="44.50914" lon="3.5038">
        <ele>846.79998779297</ele>
        <time>2024-01-30T10:38:09.000Z</time>
      </trkpt>
      <trkpt lat="44.50923" lon="3.50384">
        <ele>845.79998779297</ele>
        <time>2024-01-30T10:38:10.000Z</time>
      </trkpt>
      <trkpt lat="44.50932" lon="3.50388">
        <ele>844.79998779297</ele>
        <time>2024-01-30T10:38:11.000Z</time>
      </trkpt>
      <trkpt lat="44.5094" lon="3.50391">
        <ele>844</ele>
        <time>2024-01-30T10:38:12.000Z</time>
      </trkpt>
      <trkpt lat="44.50951" lon="3.50393">
        <ele>842.40002441406</ele>
        <time>2024-01-30T10:38:13.000Z</time>
      </trkpt>
      <trkpt lat="44.50965" lon="3.50393">
        <ele>841.40002441406</ele>
        <time>2024-01-30T10:38:14.000Z</time>
      </trkpt>
      <trkpt lat="44.50974" lon="3.50393">
        <ele>839.79998779297</ele>
        <time>2024-01-30T10:38:15.000Z</time>
      </trkpt>
      <trkpt lat="44.50988" lon="3.50395">
        <ele>838.20001220703</ele>
        <time>2024-01-30T10:38:16.000Z</time>
      </trkpt>
      <trkpt lat="44.51" lon="3.50397">
        <ele>836.20001220703</ele>
        <time>2024-01-30T10:38:17.000Z</time>
      </trkpt>
      <trkpt lat="44.5101" lon="3.504">
        <ele>834.59997558594</ele>
        <time>2024-01-30T10:38:18.000Z</time>
      </trkpt>
      <trkpt lat="44.51021" lon="3.50403">
        <ele>832.59997558594</ele>
        <time>2024-01-30T10:38:19.000Z</time>
      </trkpt>
      <trkpt lat="44.51032" lon="3.50406">
        <ele>831</ele>
        <time>2024-01-30T10:38:20.000Z</time>
      </trkpt>
      <trkpt lat="44.51043" lon="3.50411">
        <ele>829.59997558594</ele>
        <time>2024-01-30T10:38:21.000Z</time>
      </trkpt>
      <trkpt lat="44.51053" lon="3.50415">
        <ele>828.20001220703</ele>
        <time>2024-01-30T10:38:22.000Z</time>
      </trkpt>
      <trkpt lat="44.51062" lon="3.50418">
        <ele>826.59997558594</ele>
        <time>2024-01-30T10:38:23.000Z</time>
      </trkpt>
      <trkpt lat="44.51071" lon="3.50421">
        <ele>825</ele>
        <time>2024-01-30T10:38:24.000Z</time>
      </trkpt>
      <trkpt lat="44.51078" lon="3.50422">
        <ele>824</ele>
        <time>2024-01-30T10:38:25.000Z</time>
      </trkpt>
      <trkpt lat="44.5109" lon="3.50421">
        <ele>822</ele>
        <time>2024-01-30T10:38:27.000Z</time>
      </trkpt>
      <trkpt lat="44.51094" lon="3.50409">
        <ele>821</ele>
        <time>2024-01-30T10:38:29.000Z</time>
      </trkpt>
      <trkpt lat="44.51092" lon="3.50401">
        <ele>820.40002441406</ele>
        <time>2024-01-30T10:38:30.000Z</time>
      </trkpt>
      <trkpt lat="44.51088" lon="3.50394">
        <ele>819.59997558594</ele>
        <time>2024-01-30T10:38:31.000Z</time>
      </trkpt>
      <trkpt lat="44.51083" lon="3.50387">
        <ele>819</ele>
        <time>2024-01-30T10:38:32.000Z</time>
      </trkpt>
      <trkpt lat="44.51069" lon="3.50372">
        <ele>817</ele>
        <time>2024-01-30T10:38:34.000Z</time>
      </trkpt>
      <trkpt lat="44.51053" lon="3.50355">
        <ele>815.20001220703</ele>
        <time>2024-01-30T10:38:36.000Z</time>
      </trkpt>
      <trkpt lat="44.51045" lon="3.50346">
        <ele>813.79998779297</ele>
        <time>2024-01-30T10:38:37.000Z</time>
      </trkpt>
      <trkpt lat="44.51037" lon="3.50338">
        <ele>812.59997558594</ele>
        <time>2024-01-30T10:38:38.000Z</time>
      </trkpt>
      <trkpt lat="44.5103" lon="3.50332">
        <ele>811.59997558594</ele>
        <time>2024-01-30T10:38:39.000Z</time>
      </trkpt>
      <trkpt lat="44.51024" lon="3.50326">
        <ele>810.20001220703</ele>
        <time>2024-01-30T10:38:40.000Z</time>
      </trkpt>
      <trkpt lat="44.51019" lon="3.50321">
        <ele>809.40002441406</ele>
        <time>2024-01-30T10:38:41.000Z</time>
      </trkpt>
      <trkpt lat="44.51016" lon="3.50314">
        <ele>808.79998779297</ele>
        <time>2024-01-30T10:38:42.000Z</time>
      </trkpt>
      <trkpt lat="44.51015" lon="3.50306">
        <ele>808.40002441406</ele>
        <time>2024-01-30T10:38:43.000Z</time>
      </trkpt>
      <trkpt lat="44.51016" lon="3.50299">
        <ele>808</ele>
        <time>2024-01-30T10:38:44.000Z</time>
      </trkpt>
      <trkpt lat="44.5102" lon="3.50295">
        <ele>807.59997558594</ele>
        <time>2024-01-30T10:38:45.000Z</time>
      </trkpt>
      <trkpt lat="44.51033" lon="3.50292">
        <ele>806.20001220703</ele>
        <time>2024-01-30T10:38:47.000Z</time>
      </trkpt>
      <trkpt lat="44.51041" lon="3.50294">
        <ele>805.20001220703</ele>
        <time>2024-01-30T10:38:48.000Z</time>
      </trkpt>
      <trkpt lat="44.51052" lon="3.50296">
        <ele>804</ele>
        <time>2024-01-30T10:38:49.000Z</time>
      </trkpt>
      <trkpt lat="44.51068" lon="3.50301">
        <ele>801.59997558594</ele>
        <time>2024-01-30T10:38:51.000Z</time>
      </trkpt>
      <trkpt lat="44.51077" lon="3.50302">
        <ele>800</ele>
        <time>2024-01-30T10:38:52.000Z</time>
      </trkpt>
      <trkpt lat="44.51085" lon="3.50303">
        <ele>798.79998779297</ele>
        <time>2024-01-30T10:38:53.000Z</time>
      </trkpt>
      <trkpt lat="44.51103" lon="3.50306">
        <ele>796.79998779297</ele>
        <time>2024-01-30T10:38:55.000Z</time>
      </trkpt>
      <trkpt lat="44.51109" lon="3.50306">
        <ele>795.40002441406</ele>
        <time>2024-01-30T10:38:56.000Z</time>
      </trkpt>
      <trkpt lat="44.51118" lon="3.50306">
        <ele>794.20001220703</ele>
        <time>2024-01-30T10:38:57.000Z</time>
      </trkpt>
      <trkpt lat="44.51124" lon="3.50306">
        <ele>793.20001220703</ele>
        <time>2024-01-30T10:38:58.000Z</time>
      </trkpt>
      <trkpt lat="44.51129" lon="3.50306">
        <ele>792.20001220703</ele>
        <time>2024-01-30T10:38:59.000Z</time>
      </trkpt>
      <trkpt lat="44.5114" lon="3.50306">
        <ele>791</ele>
        <time>2024-01-30T10:39:01.000Z</time>
      </trkpt>
      <trkpt lat="44.51147" lon="3.50306">
        <ele>790.40002441406</ele>
        <time>2024-01-30T10:39:02.000Z</time>
      </trkpt>
      <trkpt lat="44.51161" lon="3.50305">
        <ele>789.59997558594</ele>
        <time>2024-01-30T10:39:04.000Z</time>
      </trkpt>
      <trkpt lat="44.51179" lon="3.50303">
        <ele>788</ele>
        <time>2024-01-30T10:39:06.000Z</time>
      </trkpt>
      <trkpt lat="44.51197" lon="3.50299">
        <ele>786.59997558594</ele>
        <time>2024-01-30T10:39:08.000Z</time>
      </trkpt>
      <trkpt lat="44.5121" lon="3.50294">
        <ele>785.59997558594</ele>
        <time>2024-01-30T10:39:09.000Z</time>
      </trkpt>
      <trkpt lat="44.5122" lon="3.50289">
        <ele>785</ele>
        <time>2024-01-30T10:39:10.000Z</time>
      </trkpt>
      <trkpt lat="44.51227" lon="3.50283">
        <ele>784</ele>
        <time>2024-01-30T10:39:11.000Z</time>
      </trkpt>
      <trkpt lat="44.51237" lon="3.50273">
        <ele>783.40002441406</ele>
        <time>2024-01-30T10:39:12.000Z</time>
      </trkpt>
      <trkpt lat="44.51243" lon="3.50264">
        <ele>782.40002441406</ele>
        <time>2024-01-30T10:39:13.000Z</time>
      </trkpt>
      <trkpt lat="44.51253" lon="3.50252">
        <ele>781.59997558594</ele>
        <time>2024-01-30T10:39:14.000Z</time>
      </trkpt>
      <trkpt lat="44.5127" lon="3.50233">
        <ele>780.40002441406</ele>
        <time>2024-01-30T10:39:16.000Z</time>
      </trkpt>
      <trkpt lat="44.51278" lon="3.50224">
        <ele>779.20001220703</ele>
        <time>2024-01-30T10:39:17.000Z</time>
      </trkpt>
      <trkpt lat="44.5129" lon="3.50212">
        <ele>778.59997558594</ele>
        <time>2024-01-30T10:39:18.000Z</time>
      </trkpt>
      <trkpt lat="44.51297" lon="3.50203">
        <ele>778</ele>
        <time>2024-01-30T10:39:19.000Z</time>
      </trkpt>
      <trkpt lat="44.51317" lon="3.50182">
        <ele>776.20001220703</ele>
        <time>2024-01-30T10:39:21.000Z</time>
      </trkpt>
      <trkpt lat="44.51338" lon="3.50159">
        <ele>774.59997558594</ele>
        <time>2024-01-30T10:39:23.000Z</time>
      </trkpt>
      <trkpt lat="44.51346" lon="3.50149">
        <ele>773.59997558594</ele>
        <time>2024-01-30T10:39:24.000Z</time>
      </trkpt>
      <trkpt lat="44.51356" lon="3.50141">
        <ele>773</ele>
        <time>2024-01-30T10:39:25.000Z</time>
      </trkpt>
      <trkpt lat="44.51364" lon="3.50136">
        <ele>771.79998779297</ele>
        <time>2024-01-30T10:39:26.000Z</time>
      </trkpt>
      <trkpt lat="44.51375" lon="3.50131">
        <ele>771</ele>
        <time>2024-01-30T10:39:27.000Z</time>
      </trkpt>
      <trkpt lat="44.51385" lon="3.50127">
        <ele>769.79998779297</ele>
        <time>2024-01-30T10:39:28.000Z</time>
      </trkpt>
      <trkpt lat="44.51404" lon="3.50122">
        <ele>768.20001220703</ele>
        <time>2024-01-30T10:39:30.000Z</time>
      </trkpt>
      <trkpt lat="44.51413" lon="3.50118">
        <ele>767.40002441406</ele>
        <time>2024-01-30T10:39:31.000Z</time>
      </trkpt>
      <trkpt lat="44.51424" lon="3.50112">
        <ele>767</ele>
        <time>2024-01-30T10:39:32.000Z</time>
      </trkpt>
      <trkpt lat="44.51451" lon="3.50099">
        <ele>765.40002441406</ele>
        <time>2024-01-30T10:39:35.000Z</time>
      </trkpt>
      <trkpt lat="44.51465" lon="3.50093">
        <ele>763.59997558594</ele>
        <time>2024-01-30T10:39:37.000Z</time>
      </trkpt>
      <trkpt lat="44.51479" lon="3.50089">
        <ele>761.40002441406</ele>
        <time>2024-01-30T10:39:39.000Z</time>
      </trkpt>
      <trkpt lat="44.51491" lon="3.50084">
        <ele>760</ele>
        <time>2024-01-30T10:39:41.000Z</time>
      </trkpt>
      <trkpt lat="44.51495" lon="3.50082">
        <ele>759.40002441406</ele>
        <time>2024-01-30T10:39:42.000Z</time>
      </trkpt>
      <trkpt lat="44.51498" lon="3.50079">
        <ele>758.79998779297</ele>
        <time>2024-01-30T10:39:43.000Z</time>
      </trkpt>
      <trkpt lat="44.515" lon="3.50076">
        <ele>758.59997558594</ele>
        <time>2024-01-30T10:39:44.000Z</time>
      </trkpt>
      <trkpt lat="44.51506" lon="3.50053">
        <ele>758.40002441406</ele>
        <time>2024-01-30T10:39:48.000Z</time>
      </trkpt>
      <trkpt lat="44.51508" lon="3.50046">
        <ele>758.20001220703</ele>
        <time>2024-01-30T10:39:49.000Z</time>
      </trkpt>
      <trkpt lat="44.5151" lon="3.50037">
        <ele>757.79998779297</ele>
        <time>2024-01-30T10:39:50.000Z</time>
      </trkpt>
      <trkpt lat="44.51512" lon="3.50019">
        <ele>756.59997558594</ele>
        <time>2024-01-30T10:39:52.000Z</time>
      </trkpt>
      <trkpt lat="44.51513" lon="3.5001">
        <ele>756.20001220703</ele>
        <time>2024-01-30T10:39:53.000Z</time>
      </trkpt>
      <trkpt lat="44.51515" lon="3.50001">
        <ele>755.40002441406</ele>
        <time>2024-01-30T10:39:54.000Z</time>
      </trkpt>
      <trkpt lat="44.51519" lon="3.49986">
        <ele>753.59997558594</ele>
        <time>2024-01-30T10:39:56.000Z</time>
      </trkpt>
      <trkpt lat="44.51521" lon="3.4998">
        <ele>752.79998779297</ele>
        <time>2024-01-30T10:39:57.000Z</time>
      </trkpt>
      <trkpt lat="44.51524" lon="3.49974">
        <ele>752.20001220703</ele>
        <time>2024-01-30T10:39:58.000Z</time>
      </trkpt>
      <trkpt lat="44.51526" lon="3.4997">
        <ele>751.79998779297</ele>
        <time>2024-01-30T10:39:59.000Z</time>
      </trkpt>
      <trkpt lat="44.51534" lon="3.49966">
        <ele>751.20001220703</ele>
        <time>2024-01-30T10:40:01.000Z</time>
      </trkpt>
      <trkpt lat="44.51538" lon="3.49964">
        <ele>751</ele>
        <time>2024-01-30T10:40:02.000Z</time>
      </trkpt>
      <trkpt lat="44.51543" lon="3.49962">
        <ele>749.40002441406</ele>
        <time>2024-01-30T10:40:04.000Z</time>
      </trkpt>
      <trkpt lat="44.51544" lon="3.49962">
        <ele>748.79998779297</ele>
        <time>2024-01-30T10:40:05.000Z</time>
      </trkpt>
      <trkpt lat="44.51547" lon="3.49959">
        <ele>748.79998779297</ele>
        <time>2024-01-30T10:40:11.000Z</time>
      </trkpt>
      <trkpt lat="44.51555" lon="3.49957">
        <ele>748</ele>
        <time>2024-01-30T10:40:14.000Z</time>
      </trkpt>
      <trkpt lat="44.51557" lon="3.49957">
        <ele>747.59997558594</ele>
        <time>2024-01-30T10:40:15.000Z</time>
      </trkpt>
      <trkpt lat="44.51565" lon="3.49954">
        <ele>746.79998779297</ele>
        <time>2024-01-30T10:40:20.000Z</time>
      </trkpt>
      <trkpt lat="44.51568" lon="3.49952">
        <ele>746.59997558594</ele>
        <time>2024-01-30T10:40:22.000Z</time>
      </trkpt>
      <trkpt lat="44.51583" lon="3.49942">
        <ele>745.59997558594</ele>
        <time>2024-01-30T10:40:30.000Z</time>
      </trkpt>
      <trkpt lat="44.51596" lon="3.49938">
        <ele>744.59997558594</ele>
        <time>2024-01-30T10:40:35.000Z</time>
      </trkpt>
      <trkpt lat="44.51599" lon="3.49937">
        <ele>744.59997558594</ele>
        <time>2024-01-30T10:40:36.000Z</time>
      </trkpt>
      <trkpt lat="44.51609" lon="3.49933">
        <ele>743.20001220703</ele>
        <time>2024-01-30T10:40:40.000Z</time>
      </trkpt>
      <trkpt lat="44.51611" lon="3.49931">
        <ele>743.20001220703</ele>
        <time>2024-01-30T10:40:42.000Z</time>
      </trkpt>
      <trkpt lat="44.51622" lon="3.49928">
        <ele>742.40002441406</ele>
        <time>2024-01-30T10:40:49.000Z</time>
      </trkpt>
      <trkpt lat="44.51624" lon="3.49929">
        <ele>742.20001220703</ele>
        <time>2024-01-30T10:40:51.000Z</time>
      </trkpt>
      <trkpt lat="44.51624" lon="3.49929">
        <ele>742.20001220703</ele>
        <time>2024-01-30T10:40:55.000Z</time>
      </trkpt>
      <trkpt lat="44.51626" lon="3.49931">
        <ele>742.20001220703</ele>
        <time>2024-01-30T10:40:57.000Z</time>
      </trkpt>
      <trkpt lat="44.5163" lon="3.49936">
        <ele>742.20001220703</ele>
        <time>2024-01-30T10:40:59.000Z</time>
      </trkpt>
      <trkpt lat="44.51638" lon="3.49959">
        <ele>742</ele>
        <time>2024-01-30T10:41:04.000Z</time>
      </trkpt>
      <trkpt lat="44.51647" lon="3.49979">
        <ele>741.40002441406</ele>
        <time>2024-01-30T10:41:07.000Z</time>
      </trkpt>
      <trkpt lat="44.5165" lon="3.49985">
        <ele>741.20001220703</ele>
        <time>2024-01-30T10:41:08.000Z</time>
      </trkpt>
      <trkpt lat="44.51654" lon="3.49992">
        <ele>741</ele>
        <time>2024-01-30T10:41:09.000Z</time>
      </trkpt>
      <trkpt lat="44.51675" lon="3.50021">
        <ele>739.59997558594</ele>
        <time>2024-01-30T10:41:14.000Z</time>
      </trkpt>
      <trkpt lat="44.51688" lon="3.50037">
        <ele>738.59997558594</ele>
        <time>2024-01-30T10:41:17.000Z</time>
      </trkpt>
      <trkpt lat="44.51697" lon="3.50049">
        <ele>737.40002441406</ele>
        <time>2024-01-30T10:41:20.000Z</time>
      </trkpt>
      <trkpt lat="44.51712" lon="3.50066">
        <ele>736.59997558594</ele>
        <time>2024-01-30T10:41:25.000Z</time>
      </trkpt>
      <trkpt lat="44.51714" lon="3.5007">
        <ele>736.40002441406</ele>
        <time>2024-01-30T10:41:26.000Z</time>
      </trkpt>
      <trkpt lat="44.51728" lon="3.50084">
        <ele>735.40002441406</ele>
        <time>2024-01-30T10:41:31.000Z</time>
      </trkpt>
      <trkpt lat="44.51733" lon="3.5009">
        <ele>735.20001220703</ele>
        <time>2024-01-30T10:41:33.000Z</time>
      </trkpt>
      <trkpt lat="44.51748" lon="3.50104">
        <ele>734.20001220703</ele>
        <time>2024-01-30T10:41:38.000Z</time>
      </trkpt>
      <trkpt lat="44.5175" lon="3.50107">
        <ele>733.79998779297</ele>
        <time>2024-01-30T10:41:39.000Z</time>
      </trkpt>
      <trkpt lat="44.51763" lon="3.50118">
        <ele>733</ele>
        <time>2024-01-30T10:41:43.000Z</time>
      </trkpt>
      <trkpt lat="44.51778" lon="3.50133">
        <ele>732</ele>
        <time>2024-01-30T10:41:48.000Z</time>
      </trkpt>
      <trkpt lat="44.51783" lon="3.50138">
        <ele>731.40002441406</ele>
        <time>2024-01-30T10:41:52.000Z</time>
      </trkpt>
      <trkpt lat="44.51785" lon="3.50138">
        <ele>731.40002441406</ele>
        <time>2024-01-30T10:41:56.000Z</time>
      </trkpt>
      <trkpt lat="44.5179" lon="3.50141">
        <ele>731.40002441406</ele>
        <time>2024-01-30T10:41:58.000Z</time>
      </trkpt>
      <trkpt lat="44.51801" lon="3.50145">
        <ele>731</ele>
        <time>2024-01-30T10:42:02.000Z</time>
      </trkpt>
      <trkpt lat="44.5181" lon="3.50142">
        <ele>730.20001220703</ele>
        <time>2024-01-30T10:42:04.000Z</time>
      </trkpt>
      <trkpt lat="44.51823" lon="3.50131">
        <ele>729.40002441406</ele>
        <time>2024-01-30T10:42:06.000Z</time>
      </trkpt>
      <trkpt lat="44.5183" lon="3.50124">
        <ele>728.40002441406</ele>
        <time>2024-01-30T10:42:07.000Z</time>
      </trkpt>
      <trkpt lat="44.51838" lon="3.50116">
        <ele>727.79998779297</ele>
        <time>2024-01-30T10:42:08.000Z</time>
      </trkpt>
      <trkpt lat="44.51853" lon="3.50101">
        <ele>726.59997558594</ele>
        <time>2024-01-30T10:42:10.000Z</time>
      </trkpt>
      <trkpt lat="44.5186" lon="3.50091">
        <ele>725.59997558594</ele>
        <time>2024-01-30T10:42:11.000Z</time>
      </trkpt>
      <trkpt lat="44.51868" lon="3.50082">
        <ele>725.40002441406</ele>
        <time>2024-01-30T10:42:12.000Z</time>
      </trkpt>
      <trkpt lat="44.51875" lon="3.50071">
        <ele>725</ele>
        <time>2024-01-30T10:42:13.000Z</time>
      </trkpt>
      <trkpt lat="44.51881" lon="3.5006">
        <ele>724.20001220703</ele>
        <time>2024-01-30T10:42:14.000Z</time>
      </trkpt>
      <trkpt lat="44.51887" lon="3.5005">
        <ele>724</ele>
        <time>2024-01-30T10:42:15.000Z</time>
      </trkpt>
      <trkpt lat="44.51899" lon="3.50032">
        <ele>723.79998779297</ele>
        <time>2024-01-30T10:42:17.000Z</time>
      </trkpt>
      <trkpt lat="44.51902" lon="3.50023">
        <ele>723.59997558594</ele>
        <time>2024-01-30T10:42:18.000Z</time>
      </trkpt>
      <trkpt lat="44.51905" lon="3.50017">
        <ele>723.20001220703</ele>
        <time>2024-01-30T10:42:19.000Z</time>
      </trkpt>
      <trkpt lat="44.51909" lon="3.50006">
        <ele>723</ele>
        <time>2024-01-30T10:42:21.000Z</time>
      </trkpt>
      <trkpt lat="44.51911" lon="3.50002">
        <ele>723</ele>
        <time>2024-01-30T10:42:22.000Z</time>
      </trkpt>
      <trkpt lat="44.5192" lon="3.49976">
        <ele>723</ele>
        <time>2024-01-30T10:42:26.000Z</time>
      </trkpt>
      <trkpt lat="44.51936" lon="3.49928">
        <ele>723.40002441406</ele>
        <time>2024-01-30T10:42:32.000Z</time>
      </trkpt>
      <trkpt lat="44.51945" lon="3.49884">
        <ele>723.59997558594</ele>
        <time>2024-01-30T10:42:37.000Z</time>
      </trkpt>
      <trkpt lat="44.51948" lon="3.49871">
        <ele>723.59997558594</ele>
        <time>2024-01-30T10:42:40.000Z</time>
      </trkpt>
      <trkpt lat="44.51955" lon="3.4985">
        <ele>724.20001220703</ele>
        <time>2024-01-30T10:42:44.000Z</time>
      </trkpt>
      <trkpt lat="44.51957" lon="3.49842">
        <ele>724.20001220703</ele>
        <time>2024-01-30T10:42:45.000Z</time>
      </trkpt>
      <trkpt lat="44.51969" lon="3.49797">
        <ele>724.79998779297</ele>
        <time>2024-01-30T10:42:50.000Z</time>
      </trkpt>
      <trkpt lat="44.51971" lon="3.49786">
        <ele>724.79998779297</ele>
        <time>2024-01-30T10:42:51.000Z</time>
      </trkpt>
      <trkpt lat="44.51974" lon="3.49766">
        <ele>724.79998779297</ele>
        <time>2024-01-30T10:42:53.000Z</time>
      </trkpt>
      <trkpt lat="44.51974" lon="3.49756">
        <ele>724.79998779297</ele>
        <time>2024-01-30T10:42:54.000Z</time>
      </trkpt>
      <trkpt lat="44.51974" lon="3.4975">
        <ele>725</ele>
        <time>2024-01-30T10:42:55.000Z</time>
      </trkpt>
      <trkpt lat="44.51973" lon="3.49739">
        <ele>725.40002441406</ele>
        <time>2024-01-30T10:42:57.000Z</time>
      </trkpt>
      <trkpt lat="44.51959" lon="3.49714">
        <ele>726</ele>
        <time>2024-01-30T10:43:01.000Z</time>
      </trkpt>
      <trkpt lat="44.5195" lon="3.49701">
        <ele>726</ele>
        <time>2024-01-30T10:43:03.000Z</time>
      </trkpt>
      <trkpt lat="44.51938" lon="3.49689">
        <ele>726.40002441406</ele>
        <time>2024-01-30T10:43:05.000Z</time>
      </trkpt>
      <trkpt lat="44.5193" lon="3.49686">
        <ele>726.40002441406</ele>
        <time>2024-01-30T10:43:06.000Z</time>
      </trkpt>
      <trkpt lat="44.51921" lon="3.49684">
        <ele>726.59997558594</ele>
        <time>2024-01-30T10:43:07.000Z</time>
      </trkpt>
      <trkpt lat="44.51903" lon="3.4968">
        <ele>727</ele>
        <time>2024-01-30T10:43:09.000Z</time>
      </trkpt>
      <trkpt lat="44.5187" lon="3.49671">
        <ele>727.59997558594</ele>
        <time>2024-01-30T10:43:13.000Z</time>
      </trkpt>
      <trkpt lat="44.5185" lon="3.49668">
        <ele>728</ele>
        <time>2024-01-30T10:43:15.000Z</time>
      </trkpt>
      <trkpt lat="44.51812" lon="3.49672">
        <ele>728.59997558594</ele>
        <time>2024-01-30T10:43:19.000Z</time>
      </trkpt>
      <trkpt lat="44.51805" lon="3.49674">
        <ele>728.79998779297</ele>
        <time>2024-01-30T10:43:20.000Z</time>
      </trkpt>
      <trkpt lat="44.51776" lon="3.49682">
        <ele>729</ele>
        <time>2024-01-30T10:43:24.000Z</time>
      </trkpt>
      <trkpt lat="44.51766" lon="3.49678">
        <ele>729</ele>
        <time>2024-01-30T10:43:26.000Z</time>
      </trkpt>
      <trkpt lat="44.51764" lon="3.49674">
        <ele>729.20001220703</ele>
        <time>2024-01-30T10:43:27.000Z</time>
      </trkpt>
      <trkpt lat="44.51761" lon="3.49654">
        <ele>729.20001220703</ele>
        <time>2024-01-30T10:43:30.000Z</time>
      </trkpt>
      <trkpt lat="44.51761" lon="3.49645">
        <ele>729.20001220703</ele>
        <time>2024-01-30T10:43:31.000Z</time>
      </trkpt>
      <trkpt lat="44.51764" lon="3.49632">
        <ele>729.20001220703</ele>
        <time>2024-01-30T10:43:32.000Z</time>
      </trkpt>
      <trkpt lat="44.51771" lon="3.49611">
        <ele>728.79998779297</ele>
        <time>2024-01-30T10:43:34.000Z</time>
      </trkpt>
      <trkpt lat="44.51782" lon="3.49575">
        <ele>728.20001220703</ele>
        <time>2024-01-30T10:43:37.000Z</time>
      </trkpt>
      <trkpt lat="44.51785" lon="3.49562">
        <ele>728</ele>
        <time>2024-01-30T10:43:38.000Z</time>
      </trkpt>
      <trkpt lat="44.51791" lon="3.49535">
        <ele>727.59997558594</ele>
        <time>2024-01-30T10:43:40.000Z</time>
      </trkpt>
      <trkpt lat="44.51803" lon="3.49483">
        <ele>727</ele>
        <time>2024-01-30T10:43:44.000Z</time>
      </trkpt>
      <trkpt lat="44.51809" lon="3.49469">
        <ele>726.59997558594</ele>
        <time>2024-01-30T10:43:45.000Z</time>
      </trkpt>
      <trkpt lat="44.51811" lon="3.49457">
        <ele>726.40002441406</ele>
        <time>2024-01-30T10:43:46.000Z</time>
      </trkpt>
      <trkpt lat="44.51814" lon="3.49433">
        <ele>725.59997558594</ele>
        <time>2024-01-30T10:43:48.000Z</time>
      </trkpt>
      <trkpt lat="44.51815" lon="3.49423">
        <ele>725.20001220703</ele>
        <time>2024-01-30T10:43:49.000Z</time>
      </trkpt>
      <trkpt lat="44.51818" lon="3.49395">
        <ele>724.20001220703</ele>
        <time>2024-01-30T10:43:52.000Z</time>
      </trkpt>
      <trkpt lat="44.51819" lon="3.49386">
        <ele>724</ele>
        <time>2024-01-30T10:43:53.000Z</time>
      </trkpt>
      <trkpt lat="44.51823" lon="3.49355">
        <ele>723</ele>
        <time>2024-01-30T10:43:57.000Z</time>
      </trkpt>
      <trkpt lat="44.51827" lon="3.49338">
        <ele>722.20001220703</ele>
        <time>2024-01-30T10:44:01.000Z</time>
      </trkpt>
      <trkpt lat="44.51828" lon="3.49334">
        <ele>722.20001220703</ele>
        <time>2024-01-30T10:44:04.000Z</time>
      </trkpt>
      <trkpt lat="44.51829" lon="3.4933">
        <ele>722.20001220703</ele>
        <time>2024-01-30T10:44:05.000Z</time>
      </trkpt>
      <trkpt lat="44.51832" lon="3.49313">
        <ele>722</ele>
        <time>2024-01-30T10:44:08.000Z</time>
      </trkpt>
      <trkpt lat="44.51831" lon="3.49298">
        <ele>721.79998779297</ele>
        <time>2024-01-30T10:44:10.000Z</time>
      </trkpt>
      <trkpt lat="44.51827" lon="3.49277">
        <ele>721.59997558594</ele>
        <time>2024-01-30T10:44:12.000Z</time>
      </trkpt>
      <trkpt lat="44.5182" lon="3.49237">
        <ele>720.59997558594</ele>
        <time>2024-01-30T10:44:15.000Z</time>
      </trkpt>
      <trkpt lat="44.51818" lon="3.49222">
        <ele>720</ele>
        <time>2024-01-30T10:44:16.000Z</time>
      </trkpt>
      <trkpt lat="44.51814" lon="3.4921">
        <ele>719.59997558594</ele>
        <time>2024-01-30T10:44:17.000Z</time>
      </trkpt>
      <trkpt lat="44.51812" lon="3.49199">
        <ele>718.59997558594</ele>
        <time>2024-01-30T10:44:18.000Z</time>
      </trkpt>
      <trkpt lat="44.51809" lon="3.49185">
        <ele>717.59997558594</ele>
        <time>2024-01-30T10:44:20.000Z</time>
      </trkpt>
      <trkpt lat="44.51809" lon="3.49178">
        <ele>717.59997558594</ele>
        <time>2024-01-30T10:44:21.000Z</time>
      </trkpt>
      <trkpt lat="44.51811" lon="3.49172">
        <ele>717.59997558594</ele>
        <time>2024-01-30T10:44:22.000Z</time>
      </trkpt>
      <trkpt lat="44.5181" lon="3.49166">
        <ele>717.40002441406</ele>
        <time>2024-01-30T10:44:23.000Z</time>
      </trkpt>
      <trkpt lat="44.5181" lon="3.49151">
        <ele>716.79998779297</ele>
        <time>2024-01-30T10:44:25.000Z</time>
      </trkpt>
      <trkpt lat="44.51807" lon="3.49145">
        <ele>716.79998779297</ele>
        <time>2024-01-30T10:44:26.000Z</time>
      </trkpt>
      <trkpt lat="44.518" lon="3.4913">
        <ele>716.59997558594</ele>
        <time>2024-01-30T10:44:28.000Z</time>
      </trkpt>
      <trkpt lat="44.51798" lon="3.49121">
        <ele>716.40002441406</ele>
        <time>2024-01-30T10:44:29.000Z</time>
      </trkpt>
      <trkpt lat="44.51795" lon="3.49111">
        <ele>716.40002441406</ele>
        <time>2024-01-30T10:44:30.000Z</time>
      </trkpt>
      <trkpt lat="44.51786" lon="3.49067">
        <ele>715.40002441406</ele>
        <time>2024-01-30T10:44:34.000Z</time>
      </trkpt>
      <trkpt lat="44.51781" lon="3.49042">
        <ele>715.20001220703</ele>
        <time>2024-01-30T10:44:36.000Z</time>
      </trkpt>
      <trkpt lat="44.51761" lon="3.48959">
        <ele>715.79998779297</ele>
        <time>2024-01-30T10:44:42.000Z</time>
      </trkpt>
      <trkpt lat="44.51758" lon="3.48946">
        <ele>715.79998779297</ele>
        <time>2024-01-30T10:44:43.000Z</time>
      </trkpt>
      <trkpt lat="44.51756" lon="3.4892">
        <ele>716</ele>
        <time>2024-01-30T10:44:45.000Z</time>
      </trkpt>
      <trkpt lat="44.51758" lon="3.48893">
        <ele>716.20001220703</ele>
        <time>2024-01-30T10:44:47.000Z</time>
      </trkpt>
      <trkpt lat="44.51758" lon="3.48879">
        <ele>716.59997558594</ele>
        <time>2024-01-30T10:44:48.000Z</time>
      </trkpt>
      <trkpt lat="44.51765" lon="3.4881">
        <ele>717</ele>
        <time>2024-01-30T10:44:53.000Z</time>
      </trkpt>
      <trkpt lat="44.51734" lon="3.48781">
        <ele>713.4</ele>
      </trkpt>
      <trkpt lat="44.51716" lon="3.48753">
        <ele>710.9</ele>
      </trkpt>
      <trkpt lat="44.51706" lon="3.48721">
        <ele>710</ele>
      </trkpt>
      <trkpt lat="44.51726" lon="3.48638">
        <ele>709</ele>
      </trkpt>
      <trkpt lat="44.51746" lon="3.48584">
        <ele>709</ele>
      </trkpt>
      <trkpt lat="44.51846" lon="3.48485">
        <ele>708.6</ele>
      </trkpt>
      <trkpt lat="44.51884" lon="3.48376">
        <ele>708.8</ele>
      </trkpt>
      <trkpt lat="44.51876" lon="3.48254">
        <ele>708.7</ele>
      </trkpt>
      <trkpt lat="44.51864" lon="3.48166">
        <ele>709.5</ele>
      </trkpt>
      <trkpt lat="44.51839" lon="3.48073">
        <ele>707.9</ele>
      </trkpt>
      <trkpt lat="44.51827" lon="3.47985">
        <ele>707.6</ele>
      </trkpt>
      <trkpt lat="44.51801" lon="3.4791">
        <ele>705.8</ele>
      </trkpt>
      <trkpt lat="44.51792" lon="3.47814">
        <ele>705.8</ele>
      </trkpt>
      <trkpt lat="44.51755" lon="3.47722">
        <ele>707</ele>
      </trkpt>
      <trkpt lat="44.51745" lon="3.47642">
        <ele>704.9</ele>
      </trkpt>
      <trkpt lat="44.51738" lon="3.47543">
        <ele>704.6</ele>
      </trkpt>
    </trkseg>
  </trk>
  <trk>
    <name><![CDATA[Etape 2: Monts d'Aubrac - Riom-ès-Montagnes]]></name>
    <extensions>
      <line xmlns="http://www.topografix.com/GPX/gpx_style/0/2">
        <color>0000FF</color>
        <width>4</width>
          <extensions>
            <sens>1</sens>
          </extensions>
      </line>
    </extensions>
    <trkseg>
      <trkpt lat="44.55918" lon="3.12585">
        <ele>1344.1999511719</ele>
        <time>2024-01-30T14:48:23.000Z</time>
        <extensions>
          <gpxtpx:TrackPointExtension xmlns:gpxtpx="http://www.garmin.com/xmlschemas/TrackPointExtension/v1">
            <gpxtpx:hr>74</gpxtpx:hr>
          </gpxtpx:TrackPointExtension>
        </extensions>
      </trkpt>
      <trkpt lat="44.55918" lon="3.12585">
        <ele>1344.1999511719</ele>
        <time>2024-01-30T14:48:24.000Z</time>
        <extensions>
          <gpxtpx:TrackPointExtension xmlns:gpxtpx="http://www.garmin.com/xmlschemas/TrackPointExtension/v1">
            <gpxtpx:hr>71</gpxtpx:hr>
          </gpxtpx:TrackPointExtension>
        </extensions>
      </trkpt>
      <trkpt lat="44.55918" lon="3.12585">
        <ele>1344.1999511719</ele>
        <time>2024-01-30T14:48:36.000Z</time>
      </trkpt>
      <trkpt lat="44.55924" lon="3.12589">
        <ele>1344.4000244141</ele>
        <time>2024-01-30T14:48:39.000Z</time>
      </trkpt>
      <trkpt lat="44.55942" lon="3.12595">
        <ele>1344.4000244141</ele>
        <time>2024-01-30T14:48:45.000Z</time>
      </trkpt>
      <trkpt lat="44.55974" lon="3.12594">
        <ele>1344.5999755859</ele>
        <time>2024-01-30T14:48:50.000Z</time>
      </trkpt>
      <trkpt lat="44.56012" lon="3.12592">
        <ele>1344.5999755859</ele>
        <time>2024-01-30T14:48:54.000Z</time>
      </trkpt>
      <trkpt lat="44.56068" lon="3.12584">
        <ele>1344</ele>
        <time>2024-01-30T14:48:59.000Z</time>
      </trkpt>
      <trkpt lat="44.56131" lon="3.12572">
        <ele>1343.1999511719</ele>
        <time>2024-01-30T14:49:04.000Z</time>
      </trkpt>
      <trkpt lat="44.56143" lon="3.12569">
        <ele>1343</ele>
        <time>2024-01-30T14:49:05.000Z</time>
      </trkpt>
      <trkpt lat="44.56193" lon="3.12547">
        <ele>1342.5999755859</ele>
        <time>2024-01-30T14:49:09.000Z</time>
      </trkpt>
      <trkpt lat="44.56218" lon="3.12545">
        <ele>1342</ele>
        <time>2024-01-30T14:49:11.000Z</time>
      </trkpt>
      <trkpt lat="44.56229" lon="3.1255">
        <ele>1341.8000488281</ele>
        <time>2024-01-30T14:49:12.000Z</time>
      </trkpt>
      <trkpt lat="44.56238" lon="3.12557">
        <ele>1341.4000244141</ele>
        <time>2024-01-30T14:49:13.000Z</time>
      </trkpt>
      <trkpt lat="44.56242" lon="3.12568">
        <ele>1341.1999511719</ele>
        <time>2024-01-30T14:49:14.000Z</time>
      </trkpt>
      <trkpt lat="44.56245" lon="3.12584">
        <ele>1341</ele>
        <time>2024-01-30T14:49:15.000Z</time>
      </trkpt>
      <trkpt lat="44.56247" lon="3.12598">
        <ele>1340.8000488281</ele>
        <time>2024-01-30T14:49:16.000Z</time>
      </trkpt>
      <trkpt lat="44.56248" lon="3.12609">
        <ele>1340.5999755859</ele>
        <time>2024-01-30T14:49:17.000Z</time>
      </trkpt>
      <trkpt lat="44.56252" lon="3.1262">
        <ele>1340.4000244141</ele>
        <time>2024-01-30T14:49:18.000Z</time>
      </trkpt>
      <trkpt lat="44.56257" lon="3.12629">
        <ele>1340.1999511719</ele>
        <time>2024-01-30T14:49:19.000Z</time>
      </trkpt>
      <trkpt lat="44.56271" lon="3.12636">
        <ele>1339.5999755859</ele>
        <time>2024-01-30T14:49:21.000Z</time>
      </trkpt>
      <trkpt lat="44.56288" lon="3.12634">
        <ele>1339.1999511719</ele>
        <time>2024-01-30T14:49:23.000Z</time>
      </trkpt>
      <trkpt lat="44.56296" lon="3.12629">
        <ele>1339</ele>
        <time>2024-01-30T14:49:24.000Z</time>
      </trkpt>
      <trkpt lat="44.56305" lon="3.12623">
        <ele>1339.1999511719</ele>
        <time>2024-01-30T14:49:25.000Z</time>
      </trkpt>
      <trkpt lat="44.56317" lon="3.12607">
        <ele>1339.1999511719</ele>
        <time>2024-01-30T14:49:27.000Z</time>
      </trkpt>
      <trkpt lat="44.56329" lon="3.12586">
        <ele>1339.5999755859</ele>
        <time>2024-01-30T14:49:29.000Z</time>
      </trkpt>
      <trkpt lat="44.56341" lon="3.12568">
        <ele>1340.1999511719</ele>
        <time>2024-01-30T14:49:31.000Z</time>
      </trkpt>
      <trkpt lat="44.56378" lon="3.12532">
        <ele>1340.5999755859</ele>
        <time>2024-01-30T14:49:35.000Z</time>
      </trkpt>
      <trkpt lat="44.56389" lon="3.12527">
        <ele>1340.5999755859</ele>
        <time>2024-01-30T14:49:36.000Z</time>
      </trkpt>
      <trkpt lat="44.56412" lon="3.12519">
        <ele>1341</ele>
        <time>2024-01-30T14:49:38.000Z</time>
      </trkpt>
      <trkpt lat="44.56461" lon="3.12511">
        <ele>1341.5999755859</ele>
        <time>2024-01-30T14:49:42.000Z</time>
      </trkpt>
      <trkpt lat="44.56486" lon="3.125">
        <ele>1341.8000488281</ele>
        <time>2024-01-30T14:49:44.000Z</time>
      </trkpt>
      <trkpt lat="44.5651" lon="3.12484">
        <ele>1342</ele>
        <time>2024-01-30T14:49:46.000Z</time>
        <extensions>
          <gpxtpx:TrackPointExtension xmlns:gpxtpx="http://www.garmin.com/xmlschemas/TrackPointExtension/v1">
            <gpxtpx:hr>70</gpxtpx:hr>
          </gpxtpx:TrackPointExtension>
        </extensions>
      </trkpt>
      <trkpt lat="44.56556" lon="3.12454">
        <ele>1342.1999511719</ele>
        <time>2024-01-30T14:49:50.000Z</time>
        <extensions>
          <gpxtpx:TrackPointExtension xmlns:gpxtpx="http://www.garmin.com/xmlschemas/TrackPointExtension/v1">
            <gpxtpx:hr>72</gpxtpx:hr>
          </gpxtpx:TrackPointExtension>
        </extensions>
      </trkpt>
      <trkpt lat="44.56568" lon="3.1245">
        <ele>1342.8000488281</ele>
        <time>2024-01-30T14:49:51.000Z</time>
        <extensions>
          <gpxtpx:TrackPointExtension xmlns:gpxtpx="http://www.garmin.com/xmlschemas/TrackPointExtension/v1">
            <gpxtpx:hr>72</gpxtpx:hr>
          </gpxtpx:TrackPointExtension>
        </extensions>
      </trkpt>
      <trkpt lat="44.5658" lon="3.12451">
        <ele>1343</ele>
        <time>2024-01-30T14:49:52.000Z</time>
        <extensions>
          <gpxtpx:TrackPointExtension xmlns:gpxtpx="http://www.garmin.com/xmlschemas/TrackPointExtension/v1">
            <gpxtpx:hr>73</gpxtpx:hr>
          </gpxtpx:TrackPointExtension>
        </extensions>
      </trkpt>
      <trkpt lat="44.56594" lon="3.12452">
        <ele>1343.1999511719</ele>
        <time>2024-01-30T14:49:53.000Z</time>
        <extensions>
          <gpxtpx:TrackPointExtension xmlns:gpxtpx="http://www.garmin.com/xmlschemas/TrackPointExtension/v1">
            <gpxtpx:hr>72</gpxtpx:hr>
          </gpxtpx:TrackPointExtension>
        </extensions>
      </trkpt>
      <trkpt lat="44.56635" lon="3.1245">
        <ele>1343.5999755859</ele>
        <time>2024-01-30T14:49:56.000Z</time>
        <extensions>
          <gpxtpx:TrackPointExtension xmlns:gpxtpx="http://www.garmin.com/xmlschemas/TrackPointExtension/v1">
            <gpxtpx:hr>72</gpxtpx:hr>
          </gpxtpx:TrackPointExtension>
        </extensions>
      </trkpt>
      <trkpt lat="44.56649" lon="3.12446">
        <ele>1343.8000488281</ele>
        <time>2024-01-30T14:49:57.000Z</time>
        <extensions>
          <gpxtpx:TrackPointExtension xmlns:gpxtpx="http://www.garmin.com/xmlschemas/TrackPointExtension/v1">
            <gpxtpx:hr>72</gpxtpx:hr>
          </gpxtpx:TrackPointExtension>
        </extensions>
      </trkpt>
      <trkpt lat="44.56664" lon="3.12442">
        <ele>1344</ele>
        <time>2024-01-30T14:49:58.000Z</time>
        <extensions>
          <gpxtpx:TrackPointExtension xmlns:gpxtpx="http://www.garmin.com/xmlschemas/TrackPointExtension/v1">
            <gpxtpx:hr>76</gpxtpx:hr>
          </gpxtpx:TrackPointExtension>
        </extensions>
      </trkpt>
      <trkpt lat="44.56678" lon="3.12435">
        <ele>1344</ele>
        <time>2024-01-30T14:49:59.000Z</time>
        <extensions>
          <gpxtpx:TrackPointExtension xmlns:gpxtpx="http://www.garmin.com/xmlschemas/TrackPointExtension/v1">
            <gpxtpx:hr>73</gpxtpx:hr>
          </gpxtpx:TrackPointExtension>
        </extensions>
      </trkpt>
      <trkpt lat="44.56692" lon="3.12428">
        <ele>1344.1999511719</ele>
        <time>2024-01-30T14:50:00.000Z</time>
        <extensions>
          <gpxtpx:TrackPointExtension xmlns:gpxtpx="http://www.garmin.com/xmlschemas/TrackPointExtension/v1">
            <gpxtpx:hr>73</gpxtpx:hr>
          </gpxtpx:TrackPointExtension>
        </extensions>
      </trkpt>
      <trkpt lat="44.5672" lon="3.12413">
        <ele>1345</ele>
        <time>2024-01-30T14:50:02.000Z</time>
        <extensions>
          <gpxtpx:TrackPointExtension xmlns:gpxtpx="http://www.garmin.com/xmlschemas/TrackPointExtension/v1">
            <gpxtpx:hr>71</gpxtpx:hr>
          </gpxtpx:TrackPointExtension>
        </extensions>
      </trkpt>
      <trkpt lat="44.56752" lon="3.12401">
        <ele>1345.4000244141</ele>
        <time>2024-01-30T14:50:04.000Z</time>
        <extensions>
          <gpxtpx:TrackPointExtension xmlns:gpxtpx="http://www.garmin.com/xmlschemas/TrackPointExtension/v1">
            <gpxtpx:hr>71</gpxtpx:hr>
          </gpxtpx:TrackPointExtension>
        </extensions>
      </trkpt>
      <trkpt lat="44.56785" lon="3.1239">
        <ele>1345.8000488281</ele>
        <time>2024-01-30T14:50:06.000Z</time>
        <extensions>
          <gpxtpx:TrackPointExtension xmlns:gpxtpx="http://www.garmin.com/xmlschemas/TrackPointExtension/v1">
            <gpxtpx:hr>74</gpxtpx:hr>
          </gpxtpx:TrackPointExtension>
        </extensions>
      </trkpt>
      <trkpt lat="44.56817" lon="3.12379">
        <ele>1346.1999511719</ele>
        <time>2024-01-30T14:50:08.000Z</time>
        <extensions>
          <gpxtpx:TrackPointExtension xmlns:gpxtpx="http://www.garmin.com/xmlschemas/TrackPointExtension/v1">
            <gpxtpx:hr>75</gpxtpx:hr>
          </gpxtpx:TrackPointExtension>
        </extensions>
      </trkpt>
      <trkpt lat="44.5688" lon="3.12356">
        <ele>1346.8000488281</ele>
        <time>2024-01-30T14:50:12.000Z</time>
      </trkpt>
      <trkpt lat="44.56896" lon="3.12351">
        <ele>1347.4000244141</ele>
        <time>2024-01-30T14:50:13.000Z</time>
      </trkpt>
      <trkpt lat="44.56964" lon="3.12338">
        <ele>1348.1999511719</ele>
        <time>2024-01-30T14:50:17.000Z</time>
      </trkpt>
      <trkpt lat="44.56981" lon="3.12337">
        <ele>1348.4000244141</ele>
        <time>2024-01-30T14:50:18.000Z</time>
      </trkpt>
      <trkpt lat="44.57045" lon="3.12331">
        <ele>1348.5999755859</ele>
        <time>2024-01-30T14:50:22.000Z</time>
      </trkpt>
      <trkpt lat="44.57061" lon="3.12328">
        <ele>1348.4000244141</ele>
        <time>2024-01-30T14:50:23.000Z</time>
      </trkpt>
      <trkpt lat="44.57075" lon="3.12323">
        <ele>1348.4000244141</ele>
        <time>2024-01-30T14:50:24.000Z</time>
      </trkpt>
      <trkpt lat="44.57099" lon="3.12305">
        <ele>1348</ele>
        <time>2024-01-30T14:50:26.000Z</time>
      </trkpt>
      <trkpt lat="44.57128" lon="3.12268">
        <ele>1347.4000244141</ele>
        <time>2024-01-30T14:50:29.000Z</time>
      </trkpt>
      <trkpt lat="44.57136" lon="3.12255">
        <ele>1346.8000488281</ele>
        <time>2024-01-30T14:50:30.000Z</time>
      </trkpt>
      <trkpt lat="44.57143" lon="3.12243">
        <ele>1346.4000244141</ele>
        <time>2024-01-30T14:50:31.000Z</time>
      </trkpt>
      <trkpt lat="44.57149" lon="3.1223">
        <ele>1345.8000488281</ele>
        <time>2024-01-30T14:50:32.000Z</time>
      </trkpt>
      <trkpt lat="44.57154" lon="3.12217">
        <ele>1345.4000244141</ele>
        <time>2024-01-30T14:50:33.000Z</time>
      </trkpt>
      <trkpt lat="44.57159" lon="3.12204">
        <ele>1345.1999511719</ele>
        <time>2024-01-30T14:50:34.000Z</time>
      </trkpt>
      <trkpt lat="44.57171" lon="3.12179">
        <ele>1344.8000488281</ele>
        <time>2024-01-30T14:50:36.000Z</time>
      </trkpt>
      <trkpt lat="44.57184" lon="3.12152">
        <ele>1343.8000488281</ele>
        <time>2024-01-30T14:50:38.000Z</time>
      </trkpt>
      <trkpt lat="44.5719" lon="3.12136">
        <ele>1343.1999511719</ele>
        <time>2024-01-30T14:50:39.000Z</time>
      </trkpt>
      <trkpt lat="44.57195" lon="3.1212">
        <ele>1342.4000244141</ele>
        <time>2024-01-30T14:50:40.000Z</time>
      </trkpt>
      <trkpt lat="44.57198" lon="3.12084">
        <ele>1340.5999755859</ele>
        <time>2024-01-30T14:50:42.000Z</time>
      </trkpt>
      <trkpt lat="44.57199" lon="3.12066">
        <ele>1340.4000244141</ele>
        <time>2024-01-30T14:50:43.000Z</time>
      </trkpt>
      <trkpt lat="44.57198" lon="3.12048">
        <ele>1339.4000244141</ele>
        <time>2024-01-30T14:50:44.000Z</time>
      </trkpt>
      <trkpt lat="44.5719" lon="3.11996">
        <ele>1338</ele>
        <time>2024-01-30T14:50:47.000Z</time>
      </trkpt>
      <trkpt lat="44.57185" lon="3.11961">
        <ele>1335.8000488281</ele>
        <time>2024-01-30T14:50:49.000Z</time>
      </trkpt>
      <trkpt lat="44.57179" lon="3.11908">
        <ele>1334.5999755859</ele>
        <time>2024-01-30T14:50:52.000Z</time>
      </trkpt>
      <trkpt lat="44.57175" lon="3.11873">
        <ele>1333.4000244141</ele>
        <time>2024-01-30T14:50:54.000Z</time>
      </trkpt>
      <trkpt lat="44.57172" lon="3.11855">
        <ele>1332.8000488281</ele>
        <time>2024-01-30T14:50:55.000Z</time>
      </trkpt>
      <trkpt lat="44.57167" lon="3.11838">
        <ele>1332</ele>
        <time>2024-01-30T14:50:56.000Z</time>
      </trkpt>
      <trkpt lat="44.57156" lon="3.11807">
        <ele>1331</ele>
        <time>2024-01-30T14:50:58.000Z</time>
      </trkpt>
      <trkpt lat="44.5715" lon="3.11793">
        <ele>1331</ele>
        <time>2024-01-30T14:50:59.000Z</time>
      </trkpt>
      <trkpt lat="44.57139" lon="3.11765">
        <ele>1330.4000244141</ele>
        <time>2024-01-30T14:51:01.000Z</time>
      </trkpt>
      <trkpt lat="44.57138" lon="3.11751">
        <ele>1330</ele>
        <time>2024-01-30T14:51:02.000Z</time>
      </trkpt>
      <trkpt lat="44.57139" lon="3.11739">
        <ele>1329.5999755859</ele>
        <time>2024-01-30T14:51:03.000Z</time>
      </trkpt>
      <trkpt lat="44.57143" lon="3.1173">
        <ele>1329.5999755859</ele>
        <time>2024-01-30T14:51:04.000Z</time>
      </trkpt>
      <trkpt lat="44.57149" lon="3.11723">
        <ele>1329.5999755859</ele>
        <time>2024-01-30T14:51:05.000Z</time>
      </trkpt>
      <trkpt lat="44.57157" lon="3.11717">
        <ele>1329.5999755859</ele>
        <time>2024-01-30T14:51:06.000Z</time>
      </trkpt>
      <trkpt lat="44.57187" lon="3.11696">
        <ele>1330.1999511719</ele>
        <time>2024-01-30T14:51:09.000Z</time>
      </trkpt>
      <trkpt lat="44.57233" lon="3.1166">
        <ele>1330.8000488281</ele>
        <time>2024-01-30T14:51:13.000Z</time>
      </trkpt>
      <trkpt lat="44.57283" lon="3.11622">
        <ele>1331.5999755859</ele>
        <time>2024-01-30T14:51:17.000Z</time>
      </trkpt>
      <trkpt lat="44.57295" lon="3.11613">
        <ele>1331.5999755859</ele>
        <time>2024-01-30T14:51:18.000Z</time>
      </trkpt>
      <trkpt lat="44.57323" lon="3.11599">
        <ele>1331.8000488281</ele>
        <time>2024-01-30T14:51:20.000Z</time>
      </trkpt>
      <trkpt lat="44.5735" lon="3.11589">
        <ele>1331.8000488281</ele>
        <time>2024-01-30T14:51:22.000Z</time>
      </trkpt>
      <trkpt lat="44.57375" lon="3.11577">
        <ele>1332</ele>
        <time>2024-01-30T14:51:24.000Z</time>
      </trkpt>
      <trkpt lat="44.57386" lon="3.11568">
        <ele>1332</ele>
        <time>2024-01-30T14:51:25.000Z</time>
      </trkpt>
      <trkpt lat="44.57419" lon="3.11538">
        <ele>1332.4000244141</ele>
        <time>2024-01-30T14:51:28.000Z</time>
      </trkpt>
      <trkpt lat="44.57431" lon="3.11531">
        <ele>1332.4000244141</ele>
        <time>2024-01-30T14:51:29.000Z</time>
      </trkpt>
      <trkpt lat="44.57466" lon="3.11518">
        <ele>1332.8000488281</ele>
        <time>2024-01-30T14:51:32.000Z</time>
      </trkpt>
      <trkpt lat="44.57476" lon="3.11513">
        <ele>1332.8000488281</ele>
        <time>2024-01-30T14:51:33.000Z</time>
      </trkpt>
      <trkpt lat="44.57494" lon="3.11496">
        <ele>1333</ele>
        <time>2024-01-30T14:51:35.000Z</time>
      </trkpt>
      <trkpt lat="44.57501" lon="3.11485">
        <ele>1333.1999511719</ele>
        <time>2024-01-30T14:51:36.000Z</time>
      </trkpt>
      <trkpt lat="44.57532" lon="3.11429">
        <ele>1333.8000488281</ele>
        <time>2024-01-30T14:51:40.000Z</time>
      </trkpt>
      <trkpt lat="44.5755" lon="3.11403">
        <ele>1334</ele>
        <time>2024-01-30T14:51:42.000Z</time>
      </trkpt>
      <trkpt lat="44.57559" lon="3.11392">
        <ele>1334</ele>
        <time>2024-01-30T14:51:43.000Z</time>
      </trkpt>
      <trkpt lat="44.57581" lon="3.11373">
        <ele>1334.1999511719</ele>
        <time>2024-01-30T14:51:45.000Z</time>
      </trkpt>
      <trkpt lat="44.57593" lon="3.11366">
        <ele>1334.4000244141</ele>
        <time>2024-01-30T14:51:46.000Z</time>
      </trkpt>
      <trkpt lat="44.57606" lon="3.11364">
        <ele>1334.4000244141</ele>
        <time>2024-01-30T14:51:47.000Z</time>
      </trkpt>
      <trkpt lat="44.5762" lon="3.11363">
        <ele>1334.4000244141</ele>
        <time>2024-01-30T14:51:48.000Z</time>
      </trkpt>
      <trkpt lat="44.57633" lon="3.11366">
        <ele>1334.4000244141</ele>
        <time>2024-01-30T14:51:49.000Z</time>
      </trkpt>
      <trkpt lat="44.57645" lon="3.11372">
        <ele>1334.5999755859</ele>
        <time>2024-01-30T14:51:50.000Z</time>
      </trkpt>
      <trkpt lat="44.57655" lon="3.11381">
        <ele>1334.5999755859</ele>
        <time>2024-01-30T14:51:51.000Z</time>
      </trkpt>
      <trkpt lat="44.57673" lon="3.11402">
        <ele>1334.8000488281</ele>
        <time>2024-01-30T14:51:53.000Z</time>
      </trkpt>
      <trkpt lat="44.5768" lon="3.1141">
        <ele>1335</ele>
        <time>2024-01-30T14:51:54.000Z</time>
      </trkpt>
      <trkpt lat="44.5771" lon="3.1144">
        <ele>1335.1999511719</ele>
        <time>2024-01-30T14:51:57.000Z</time>
      </trkpt>
      <trkpt lat="44.57721" lon="3.11446">
        <ele>1335.4000244141</ele>
        <time>2024-01-30T14:51:58.000Z</time>
      </trkpt>
      <trkpt lat="44.5777" lon="3.1146">
        <ele>1335.4000244141</ele>
        <time>2024-01-30T14:52:02.000Z</time>
      </trkpt>
      <trkpt lat="44.57824" lon="3.11469">
        <ele>1334.8000488281</ele>
        <time>2024-01-30T14:52:06.000Z</time>
      </trkpt>
      <trkpt lat="44.5785" lon="3.11472">
        <ele>1333.8000488281</ele>
        <time>2024-01-30T14:52:08.000Z</time>
      </trkpt>
      <trkpt lat="44.57875" lon="3.11469">
        <ele>1332.8000488281</ele>
        <time>2024-01-30T14:52:10.000Z</time>
      </trkpt>
      <trkpt lat="44.57887" lon="3.11465">
        <ele>1332.1999511719</ele>
        <time>2024-01-30T14:52:11.000Z</time>
      </trkpt>
      <trkpt lat="44.57899" lon="3.1146">
        <ele>1331.5999755859</ele>
        <time>2024-01-30T14:52:12.000Z</time>
      </trkpt>
      <trkpt lat="44.5792" lon="3.11445">
        <ele>1331</ele>
        <time>2024-01-30T14:52:14.000Z</time>
      </trkpt>
      <trkpt lat="44.5793" lon="3.11436">
        <ele>1330.8000488281</ele>
        <time>2024-01-30T14:52:15.000Z</time>
      </trkpt>
      <trkpt lat="44.57948" lon="3.11413">
        <ele>1329.8000488281</ele>
        <time>2024-01-30T14:52:17.000Z</time>
      </trkpt>
      <trkpt lat="44.57972" lon="3.11373">
        <ele>1329</ele>
        <time>2024-01-30T14:52:20.000Z</time>
      </trkpt>
      <trkpt lat="44.57979" lon="3.11359">
        <ele>1328.8000488281</ele>
        <time>2024-01-30T14:52:21.000Z</time>
      </trkpt>
      <trkpt lat="44.57982" lon="3.11343">
        <ele>1328.4000244141</ele>
        <time>2024-01-30T14:52:22.000Z</time>
      </trkpt>
      <trkpt lat="44.57984" lon="3.11311">
        <ele>1327.4000244141</ele>
        <time>2024-01-30T14:52:24.000Z</time>
      </trkpt>
      <trkpt lat="44.57983" lon="3.11294">
        <ele>1326.8000488281</ele>
        <time>2024-01-30T14:52:25.000Z</time>
      </trkpt>
      <trkpt lat="44.57981" lon="3.11246">
        <ele>1325.4000244141</ele>
        <time>2024-01-30T14:52:28.000Z</time>
      </trkpt>
      <trkpt lat="44.57982" lon="3.11233">
        <ele>1324</ele>
        <time>2024-01-30T14:52:29.000Z</time>
      </trkpt>
      <trkpt lat="44.57984" lon="3.11222">
        <ele>1323</ele>
        <time>2024-01-30T14:52:30.000Z</time>
      </trkpt>
      <trkpt lat="44.57989" lon="3.11214">
        <ele>1322.1999511719</ele>
        <time>2024-01-30T14:52:31.000Z</time>
      </trkpt>
      <trkpt lat="44.57997" lon="3.11208">
        <ele>1321.4000244141</ele>
        <time>2024-01-30T14:52:32.000Z</time>
      </trkpt>
      <trkpt lat="44.58005" lon="3.11207">
        <ele>1321</ele>
        <time>2024-01-30T14:52:33.000Z</time>
      </trkpt>
      <trkpt lat="44.58015" lon="3.11208">
        <ele>1320.1999511719</ele>
        <time>2024-01-30T14:52:34.000Z</time>
      </trkpt>
      <trkpt lat="44.58039" lon="3.11219">
        <ele>1319.4000244141</ele>
        <time>2024-01-30T14:52:36.000Z</time>
      </trkpt>
      <trkpt lat="44.58076" lon="3.11242">
        <ele>1317.5999755859</ele>
        <time>2024-01-30T14:52:39.000Z</time>
      </trkpt>
      <trkpt lat="44.58089" lon="3.11248">
        <ele>1317</ele>
        <time>2024-01-30T14:52:40.000Z</time>
      </trkpt>
      <trkpt lat="44.58102" lon="3.11254">
        <ele>1316</ele>
        <time>2024-01-30T14:52:41.000Z</time>
      </trkpt>
      <trkpt lat="44.58114" lon="3.11263">
        <ele>1315.1999511719</ele>
        <time>2024-01-30T14:52:42.000Z</time>
      </trkpt>
      <trkpt lat="44.58125" lon="3.11274">
        <ele>1314.1999511719</ele>
        <time>2024-01-30T14:52:43.000Z</time>
      </trkpt>
      <trkpt lat="44.58135" lon="3.11288">
        <ele>1313.4000244141</ele>
        <time>2024-01-30T14:52:44.000Z</time>
      </trkpt>
      <trkpt lat="44.58145" lon="3.11302">
        <ele>1312.4000244141</ele>
        <time>2024-01-30T14:52:45.000Z</time>
      </trkpt>
      <trkpt lat="44.58155" lon="3.11317">
        <ele>1311.4000244141</ele>
        <time>2024-01-30T14:52:46.000Z</time>
      </trkpt>
      <trkpt lat="44.58165" lon="3.11332">
        <ele>1310.8000488281</ele>
        <time>2024-01-30T14:52:47.000Z</time>
      </trkpt>
      <trkpt lat="44.58174" lon="3.11347">
        <ele>1309.8000488281</ele>
        <time>2024-01-30T14:52:48.000Z</time>
      </trkpt>
      <trkpt lat="44.58191" lon="3.11372">
        <ele>1307.5999755859</ele>
        <time>2024-01-30T14:52:50.000Z</time>
      </trkpt>
      <trkpt lat="44.582" lon="3.11381">
        <ele>1306</ele>
        <time>2024-01-30T14:52:51.000Z</time>
      </trkpt>
      <trkpt lat="44.58211" lon="3.11387">
        <ele>1305.5999755859</ele>
        <time>2024-01-30T14:52:52.000Z</time>
      </trkpt>
      <trkpt lat="44.58222" lon="3.1139">
        <ele>1305</ele>
        <time>2024-01-30T14:52:53.000Z</time>
      </trkpt>
      <trkpt lat="44.58233" lon="3.11388">
        <ele>1304.4000244141</ele>
        <time>2024-01-30T14:52:54.000Z</time>
      </trkpt>
      <trkpt lat="44.58243" lon="3.11382">
        <ele>1303.5999755859</ele>
        <time>2024-01-30T14:52:55.000Z</time>
      </trkpt>
      <trkpt lat="44.58285" lon="3.11343">
        <ele>1301.8000488281</ele>
        <time>2024-01-30T14:52:59.000Z</time>
      </trkpt>
      <trkpt lat="44.58308" lon="3.11322">
        <ele>1300.5999755859</ele>
        <time>2024-01-30T14:53:01.000Z</time>
      </trkpt>
      <trkpt lat="44.58332" lon="3.11302">
        <ele>1299.1999511719</ele>
        <time>2024-01-30T14:53:03.000Z</time>
      </trkpt>
      <trkpt lat="44.58353" lon="3.1128">
        <ele>1298.1999511719</ele>
        <time>2024-01-30T14:53:05.000Z</time>
      </trkpt>
      <trkpt lat="44.58366" lon="3.11251">
        <ele>1297.1999511719</ele>
        <time>2024-01-30T14:53:07.000Z</time>
      </trkpt>
      <trkpt lat="44.58367" lon="3.11234">
        <ele>1297</ele>
        <time>2024-01-30T14:53:08.000Z</time>
      </trkpt>
      <trkpt lat="44.58364" lon="3.11217">
        <ele>1296.8000488281</ele>
        <time>2024-01-30T14:53:09.000Z</time>
      </trkpt>
      <trkpt lat="44.58346" lon="3.11148">
        <ele>1296</ele>
        <time>2024-01-30T14:53:13.000Z</time>
      </trkpt>
      <trkpt lat="44.58344" lon="3.11129">
        <ele>1296</ele>
        <time>2024-01-30T14:53:14.000Z</time>
      </trkpt>
      <trkpt lat="44.58344" lon="3.11091">
        <ele>1296</ele>
        <time>2024-01-30T14:53:16.000Z</time>
      </trkpt>
      <trkpt lat="44.58351" lon="3.11008">
        <ele>1295.4000244141</ele>
        <time>2024-01-30T14:53:20.000Z</time>
      </trkpt>
      <trkpt lat="44.58354" lon="3.10986">
        <ele>1295.1999511719</ele>
        <time>2024-01-30T14:53:21.000Z</time>
      </trkpt>
      <trkpt lat="44.58357" lon="3.10969">
        <ele>1295</ele>
        <time>2024-01-30T14:53:22.000Z</time>
      </trkpt>
      <trkpt lat="44.58369" lon="3.10904">
        <ele>1294.4000244141</ele>
        <time>2024-01-30T14:53:25.000Z</time>
      </trkpt>
      <trkpt lat="44.58376" lon="3.10886">
        <ele>1294.1999511719</ele>
        <time>2024-01-30T14:53:26.000Z</time>
      </trkpt>
      <trkpt lat="44.58385" lon="3.10867">
        <ele>1293.8000488281</ele>
        <time>2024-01-30T14:53:27.000Z</time>
      </trkpt>
      <trkpt lat="44.58402" lon="3.10834">
        <ele>1293.1999511719</ele>
        <time>2024-01-30T14:53:29.000Z</time>
      </trkpt>
      <trkpt lat="44.58444" lon="3.10769">
        <ele>1292.8000488281</ele>
        <time>2024-01-30T14:53:33.000Z</time>
      </trkpt>
      <trkpt lat="44.58455" lon="3.10752">
        <ele>1292.4000244141</ele>
        <time>2024-01-30T14:53:34.000Z</time>
      </trkpt>
      <trkpt lat="44.58477" lon="3.10723">
        <ele>1291.5999755859</ele>
        <time>2024-01-30T14:53:36.000Z</time>
      </trkpt>
      <trkpt lat="44.58501" lon="3.10699">
        <ele>1291.1999511719</ele>
        <time>2024-01-30T14:53:38.000Z</time>
      </trkpt>
      <trkpt lat="44.58541" lon="3.10675">
        <ele>1290.4000244141</ele>
        <time>2024-01-30T14:53:41.000Z</time>
      </trkpt>
      <trkpt lat="44.58596" lon="3.10651">
        <ele>1289.4000244141</ele>
        <time>2024-01-30T14:53:45.000Z</time>
      </trkpt>
      <trkpt lat="44.58623" lon="3.10635">
        <ele>1289</ele>
        <time>2024-01-30T14:53:47.000Z</time>
      </trkpt>
      <trkpt lat="44.58659" lon="3.10602">
        <ele>1287.5999755859</ele>
        <time>2024-01-30T14:53:50.000Z</time>
      </trkpt>
      <trkpt lat="44.58671" lon="3.10591">
        <ele>1286.4000244141</ele>
        <time>2024-01-30T14:53:51.000Z</time>
      </trkpt>
      <trkpt lat="44.58696" lon="3.10568">
        <ele>1285.1999511719</ele>
        <time>2024-01-30T14:53:53.000Z</time>
      </trkpt>
      <trkpt lat="44.58721" lon="3.10545">
        <ele>1283.8000488281</ele>
        <time>2024-01-30T14:53:55.000Z</time>
      </trkpt>
      <trkpt lat="44.58751" lon="3.10512">
        <ele>1283.5999755859</ele>
        <time>2024-01-30T14:53:58.000Z</time>
      </trkpt>
      <trkpt lat="44.58761" lon="3.10488">
        <ele>1285</ele>
        <time>2024-01-30T14:54:00.000Z</time>
      </trkpt>
      <trkpt lat="44.58768" lon="3.10444">
        <ele>1286</ele>
        <time>2024-01-30T14:54:03.000Z</time>
      </trkpt>
      <trkpt lat="44.58771" lon="3.10428">
        <ele>1287</ele>
        <time>2024-01-30T14:54:04.000Z</time>
      </trkpt>
      <trkpt lat="44.58773" lon="3.10413">
        <ele>1287.8000488281</ele>
        <time>2024-01-30T14:54:05.000Z</time>
      </trkpt>
      <trkpt lat="44.58777" lon="3.10397">
        <ele>1288</ele>
        <time>2024-01-30T14:54:06.000Z</time>
      </trkpt>
      <trkpt lat="44.5879" lon="3.1037">
        <ele>1288.8000488281</ele>
        <time>2024-01-30T14:54:08.000Z</time>
      </trkpt>
      <trkpt lat="44.58807" lon="3.10345">
        <ele>1289.4000244141</ele>
        <time>2024-01-30T14:54:10.000Z</time>
      </trkpt>
      <trkpt lat="44.58817" lon="3.10334">
        <ele>1290</ele>
        <time>2024-01-30T14:54:11.000Z</time>
      </trkpt>
      <trkpt lat="44.58839" lon="3.10314">
        <ele>1291.1999511719</ele>
        <time>2024-01-30T14:54:13.000Z</time>
      </trkpt>
      <trkpt lat="44.58864" lon="3.10298">
        <ele>1292.4000244141</ele>
        <time>2024-01-30T14:54:15.000Z</time>
      </trkpt>
      <trkpt lat="44.58888" lon="3.10281">
        <ele>1293.5999755859</ele>
        <time>2024-01-30T14:54:17.000Z</time>
      </trkpt>
      <trkpt lat="44.5891" lon="3.10265">
        <ele>1294.5999755859</ele>
        <time>2024-01-30T14:54:19.000Z</time>
      </trkpt>
      <trkpt lat="44.58931" lon="3.10252">
        <ele>1295.4000244141</ele>
        <time>2024-01-30T14:54:21.000Z</time>
      </trkpt>
      <trkpt lat="44.5894" lon="3.10247">
        <ele>1295.5999755859</ele>
        <time>2024-01-30T14:54:22.000Z</time>
      </trkpt>
      <trkpt lat="44.5895" lon="3.10244">
        <ele>1295.8000488281</ele>
        <time>2024-01-30T14:54:23.000Z</time>
      </trkpt>
      <trkpt lat="44.5896" lon="3.10242">
        <ele>1296.1999511719</ele>
        <time>2024-01-30T14:54:24.000Z</time>
      </trkpt>
      <trkpt lat="44.58995" lon="3.1024">
        <ele>1297</ele>
        <time>2024-01-30T14:54:27.000Z</time>
      </trkpt>
      <trkpt lat="44.59007" lon="3.1024">
        <ele>1298</ele>
        <time>2024-01-30T14:54:28.000Z</time>
      </trkpt>
      <trkpt lat="44.59052" lon="3.10238">
        <ele>1298.5999755859</ele>
        <time>2024-01-30T14:54:32.000Z</time>
      </trkpt>
      <trkpt lat="44.59061" lon="3.10236">
        <ele>1298.5999755859</ele>
        <time>2024-01-30T14:54:33.000Z</time>
      </trkpt>
      <trkpt lat="44.59068" lon="3.10229">
        <ele>1298.8000488281</ele>
        <time>2024-01-30T14:54:34.000Z</time>
      </trkpt>
      <trkpt lat="44.59073" lon="3.1022">
        <ele>1298.8000488281</ele>
        <time>2024-01-30T14:54:35.000Z</time>
      </trkpt>
      <trkpt lat="44.59074" lon="3.10209">
        <ele>1299.5999755859</ele>
        <time>2024-01-30T14:54:36.000Z</time>
      </trkpt>
      <trkpt lat="44.59073" lon="3.10182">
        <ele>1301.1999511719</ele>
        <time>2024-01-30T14:54:38.000Z</time>
      </trkpt>
      <trkpt lat="44.59072" lon="3.10168">
        <ele>1302.1999511719</ele>
        <time>2024-01-30T14:54:39.000Z</time>
      </trkpt>
      <trkpt lat="44.59069" lon="3.10137">
        <ele>1303.5999755859</ele>
        <time>2024-01-30T14:54:41.000Z</time>
      </trkpt>
      <trkpt lat="44.59067" lon="3.10122">
        <ele>1304.4000244141</ele>
        <time>2024-01-30T14:54:42.000Z</time>
      </trkpt>
      <trkpt lat="44.59062" lon="3.10107">
        <ele>1306</ele>
        <time>2024-01-30T14:54:43.000Z</time>
      </trkpt>
      <trkpt lat="44.59058" lon="3.10094">
        <ele>1307</ele>
        <time>2024-01-30T14:54:44.000Z</time>
      </trkpt>
      <trkpt lat="44.59052" lon="3.10082">
        <ele>1308</ele>
        <time>2024-01-30T14:54:45.000Z</time>
      </trkpt>
      <trkpt lat="44.59045" lon="3.1007">
        <ele>1309.4000244141</ele>
        <time>2024-01-30T14:54:46.000Z</time>
      </trkpt>
      <trkpt lat="44.59035" lon="3.10044">
        <ele>1310</ele>
        <time>2024-01-30T14:54:48.000Z</time>
      </trkpt>
      <trkpt lat="44.5903" lon="3.1003">
        <ele>1311.1999511719</ele>
        <time>2024-01-30T14:54:49.000Z</time>
      </trkpt>
      <trkpt lat="44.59021" lon="3.1">
        <ele>1313.1999511719</ele>
        <time>2024-01-30T14:54:51.000Z</time>
      </trkpt>
      <trkpt lat="44.59014" lon="3.0997">
        <ele>1314.4000244141</ele>
        <time>2024-01-30T14:54:53.000Z</time>
      </trkpt>
      <trkpt lat="44.59009" lon="3.0994">
        <ele>1315.8000488281</ele>
        <time>2024-01-30T14:54:55.000Z</time>
      </trkpt>
      <trkpt lat="44.5901" lon="3.0991">
        <ele>1317</ele>
        <time>2024-01-30T14:54:57.000Z</time>
      </trkpt>
      <trkpt lat="44.59013" lon="3.09896">
        <ele>1317.8000488281</ele>
        <time>2024-01-30T14:54:58.000Z</time>
      </trkpt>
      <trkpt lat="44.59017" lon="3.09882">
        <ele>1318.8000488281</ele>
        <time>2024-01-30T14:54:59.000Z</time>
      </trkpt>
      <trkpt lat="44.59023" lon="3.0987">
        <ele>1320</ele>
        <time>2024-01-30T14:55:00.000Z</time>
      </trkpt>
      <trkpt lat="44.59031" lon="3.0986">
        <ele>1320.8000488281</ele>
        <time>2024-01-30T14:55:01.000Z</time>
      </trkpt>
      <trkpt lat="44.59042" lon="3.09853">
        <ele>1321.4000244141</ele>
        <time>2024-01-30T14:55:02.000Z</time>
      </trkpt>
      <trkpt lat="44.59053" lon="3.09846">
        <ele>1322.5999755859</ele>
        <time>2024-01-30T14:55:03.000Z</time>
      </trkpt>
      <trkpt lat="44.59064" lon="3.09839">
        <ele>1324.5999755859</ele>
        <time>2024-01-30T14:55:04.000Z</time>
      </trkpt>
      <trkpt lat="44.59076" lon="3.09834">
        <ele>1326.1999511719</ele>
        <time>2024-01-30T14:55:05.000Z</time>
      </trkpt>
      <trkpt lat="44.59117" lon="3.09809">
        <ele>1326.4000244141</ele>
        <time>2024-01-30T14:55:09.000Z</time>
      </trkpt>
      <trkpt lat="44.59132" lon="3.09789">
        <ele>1326.1999511719</ele>
        <time>2024-01-30T14:55:11.000Z</time>
      </trkpt>
      <trkpt lat="44.5914" lon="3.09778">
        <ele>1326</ele>
        <time>2024-01-30T14:55:12.000Z</time>
      </trkpt>
      <trkpt lat="44.59157" lon="3.09755">
        <ele>1326</ele>
        <time>2024-01-30T14:55:14.000Z</time>
      </trkpt>
      <trkpt lat="44.59167" lon="3.09746">
        <ele>1325.8000488281</ele>
        <time>2024-01-30T14:55:15.000Z</time>
      </trkpt>
      <trkpt lat="44.59179" lon="3.0974">
        <ele>1325.8000488281</ele>
        <time>2024-01-30T14:55:16.000Z</time>
      </trkpt>
      <trkpt lat="44.59204" lon="3.09734">
        <ele>1325.4000244141</ele>
        <time>2024-01-30T14:55:18.000Z</time>
      </trkpt>
      <trkpt lat="44.59256" lon="3.09734">
        <ele>1325.4000244141</ele>
        <time>2024-01-30T14:55:22.000Z</time>
      </trkpt>
      <trkpt lat="44.59277" lon="3.09728">
        <ele>1325.1999511719</ele>
        <time>2024-01-30T14:55:24.000Z</time>
      </trkpt>
      <trkpt lat="44.59287" lon="3.09721">
        <ele>1325</ele>
        <time>2024-01-30T14:55:25.000Z</time>
      </trkpt>
      <trkpt lat="44.59305" lon="3.097">
        <ele>1323.5999755859</ele>
        <time>2024-01-30T14:55:27.000Z</time>
      </trkpt>
      <trkpt lat="44.59315" lon="3.09689">
        <ele>1323.4000244141</ele>
        <time>2024-01-30T14:55:28.000Z</time>
      </trkpt>
      <trkpt lat="44.59326" lon="3.0968">
        <ele>1322.5999755859</ele>
        <time>2024-01-30T14:55:29.000Z</time>
      </trkpt>
      <trkpt lat="44.59338" lon="3.09673">
        <ele>1322.5999755859</ele>
        <time>2024-01-30T14:55:30.000Z</time>
      </trkpt>
      <trkpt lat="44.59374" lon="3.0965">
        <ele>1322.1999511719</ele>
        <time>2024-01-30T14:55:33.000Z</time>
      </trkpt>
      <trkpt lat="44.59398" lon="3.09633">
        <ele>1321.4000244141</ele>
        <time>2024-01-30T14:55:35.000Z</time>
      </trkpt>
      <trkpt lat="44.59422" lon="3.09617">
        <ele>1320.1999511719</ele>
        <time>2024-01-30T14:55:37.000Z</time>
      </trkpt>
      <trkpt lat="44.59434" lon="3.09608">
        <ele>1319.8000488281</ele>
        <time>2024-01-30T14:55:38.000Z</time>
      </trkpt>
      <trkpt lat="44.59447" lon="3.09599">
        <ele>1318.8000488281</ele>
        <time>2024-01-30T14:55:39.000Z</time>
      </trkpt>
      <trkpt lat="44.5946" lon="3.09591">
        <ele>1317.5999755859</ele>
        <time>2024-01-30T14:55:40.000Z</time>
      </trkpt>
      <trkpt lat="44.59489" lon="3.09581">
        <ele>1315.8000488281</ele>
        <time>2024-01-30T14:55:42.000Z</time>
      </trkpt>
      <trkpt lat="44.59502" lon="3.09582">
        <ele>1314.5999755859</ele>
        <time>2024-01-30T14:55:43.000Z</time>
      </trkpt>
      <trkpt lat="44.59516" lon="3.09587">
        <ele>1314.1999511719</ele>
        <time>2024-01-30T14:55:44.000Z</time>
      </trkpt>
      <trkpt lat="44.59571" lon="3.09616">
        <ele>1313.5999755859</ele>
        <time>2024-01-30T14:55:48.000Z</time>
      </trkpt>
      <trkpt lat="44.59585" lon="3.09619">
        <ele>1313.4000244141</ele>
        <time>2024-01-30T14:55:49.000Z</time>
      </trkpt>
      <trkpt lat="44.59613" lon="3.09627">
        <ele>1312.4000244141</ele>
        <time>2024-01-30T14:55:51.000Z</time>
      </trkpt>
      <trkpt lat="44.59626" lon="3.09631">
        <ele>1312</ele>
        <time>2024-01-30T14:55:52.000Z</time>
      </trkpt>
      <trkpt lat="44.59646" lon="3.09643">
        <ele>1311.4000244141</ele>
        <time>2024-01-30T14:55:54.000Z</time>
      </trkpt>
      <trkpt lat="44.59654" lon="3.09653">
        <ele>1310.8000488281</ele>
        <time>2024-01-30T14:55:55.000Z</time>
      </trkpt>
      <trkpt lat="44.59662" lon="3.09664">
        <ele>1310.1999511719</ele>
        <time>2024-01-30T14:55:56.000Z</time>
      </trkpt>
      <trkpt lat="44.59669" lon="3.09673">
        <ele>1309.8000488281</ele>
        <time>2024-01-30T14:55:57.000Z</time>
      </trkpt>
      <trkpt lat="44.59677" lon="3.09682">
        <ele>1309.5999755859</ele>
        <time>2024-01-30T14:55:58.000Z</time>
      </trkpt>
      <trkpt lat="44.59696" lon="3.09693">
        <ele>1307.8000488281</ele>
        <time>2024-01-30T14:56:00.000Z</time>
      </trkpt>
      <trkpt lat="44.59714" lon="3.09688">
        <ele>1306.1999511719</ele>
        <time>2024-01-30T14:56:02.000Z</time>
      </trkpt>
      <trkpt lat="44.59723" lon="3.09681">
        <ele>1304.8000488281</ele>
        <time>2024-01-30T14:56:03.000Z</time>
      </trkpt>
      <trkpt lat="44.59731" lon="3.09672">
        <ele>1304.5999755859</ele>
        <time>2024-01-30T14:56:04.000Z</time>
      </trkpt>
      <trkpt lat="44.59738" lon="3.09661">
        <ele>1303.8000488281</ele>
        <time>2024-01-30T14:56:05.000Z</time>
      </trkpt>
      <trkpt lat="44.59751" lon="3.09634">
        <ele>1302.5999755859</ele>
        <time>2024-01-30T14:56:07.000Z</time>
      </trkpt>
      <trkpt lat="44.59756" lon="3.09619">
        <ele>1302</ele>
        <time>2024-01-30T14:56:08.000Z</time>
      </trkpt>
      <trkpt lat="44.5976" lon="3.09604">
        <ele>1301</ele>
        <time>2024-01-30T14:56:09.000Z</time>
      </trkpt>
      <trkpt lat="44.59768" lon="3.09571">
        <ele>1299.5999755859</ele>
        <time>2024-01-30T14:56:11.000Z</time>
      </trkpt>
      <trkpt lat="44.5977" lon="3.09555">
        <ele>1299.1999511719</ele>
        <time>2024-01-30T14:56:12.000Z</time>
      </trkpt>
      <trkpt lat="44.59772" lon="3.09537">
        <ele>1298.1999511719</ele>
        <time>2024-01-30T14:56:13.000Z</time>
      </trkpt>
      <trkpt lat="44.59772" lon="3.09501">
        <ele>1297</ele>
        <time>2024-01-30T14:56:15.000Z</time>
      </trkpt>
      <trkpt lat="44.59772" lon="3.09483">
        <ele>1295.5999755859</ele>
        <time>2024-01-30T14:56:16.000Z</time>
      </trkpt>
      <trkpt lat="44.5977" lon="3.09446">
        <ele>1293.8000488281</ele>
        <time>2024-01-30T14:56:18.000Z</time>
      </trkpt>
      <trkpt lat="44.59771" lon="3.09408">
        <ele>1292.5999755859</ele>
        <time>2024-01-30T14:56:20.000Z</time>
      </trkpt>
      <trkpt lat="44.59773" lon="3.0939">
        <ele>1291.5999755859</ele>
        <time>2024-01-30T14:56:21.000Z</time>
      </trkpt>
      <trkpt lat="44.59783" lon="3.09358">
        <ele>1290.8000488281</ele>
        <time>2024-01-30T14:56:23.000Z</time>
      </trkpt>
      <trkpt lat="44.59802" lon="3.09338">
        <ele>1290.5999755859</ele>
        <time>2024-01-30T14:56:25.000Z</time>
      </trkpt>
      <trkpt lat="44.59828" lon="3.09332">
        <ele>1290.5999755859</ele>
        <time>2024-01-30T14:56:27.000Z</time>
      </trkpt>
      <trkpt lat="44.59851" lon="3.09336">
        <ele>1290.5999755859</ele>
        <time>2024-01-30T14:56:29.000Z</time>
      </trkpt>
      <trkpt lat="44.59874" lon="3.09334">
        <ele>1290.5999755859</ele>
        <time>2024-01-30T14:56:31.000Z</time>
      </trkpt>
      <trkpt lat="44.59886" lon="3.0933">
        <ele>1290.4000244141</ele>
        <time>2024-01-30T14:56:32.000Z</time>
      </trkpt>
      <trkpt lat="44.59908" lon="3.09314">
        <ele>1290.1999511719</ele>
        <time>2024-01-30T14:56:34.000Z</time>
      </trkpt>
      <trkpt lat="44.59953" lon="3.09278">
        <ele>1289.5999755859</ele>
        <time>2024-01-30T14:56:38.000Z</time>
      </trkpt>
      <trkpt lat="44.59965" lon="3.09272">
        <ele>1289.1999511719</ele>
        <time>2024-01-30T14:56:39.000Z</time>
      </trkpt>
      <trkpt lat="44.59978" lon="3.0927">
        <ele>1288.5999755859</ele>
        <time>2024-01-30T14:56:40.000Z</time>
      </trkpt>
      <trkpt lat="44.59991" lon="3.09272">
        <ele>1288.1999511719</ele>
        <time>2024-01-30T14:56:41.000Z</time>
      </trkpt>
      <trkpt lat="44.60002" lon="3.09276">
        <ele>1288</ele>
        <time>2024-01-30T14:56:42.000Z</time>
      </trkpt>
      <trkpt lat="44.60024" lon="3.09285">
        <ele>1287.8000488281</ele>
        <time>2024-01-30T14:56:44.000Z</time>
      </trkpt>
      <trkpt lat="44.60034" lon="3.09288">
        <ele>1287.8000488281</ele>
        <time>2024-01-30T14:56:45.000Z</time>
      </trkpt>
      <trkpt lat="44.60057" lon="3.09288">
        <ele>1286.4000244141</ele>
        <time>2024-01-30T14:56:47.000Z</time>
      </trkpt>
      <trkpt lat="44.60067" lon="3.09284">
        <ele>1285</ele>
        <time>2024-01-30T14:56:48.000Z</time>
      </trkpt>
      <trkpt lat="44.6009" lon="3.09272">
        <ele>1283.4000244141</ele>
        <time>2024-01-30T14:56:50.000Z</time>
      </trkpt>
      <trkpt lat="44.60122" lon="3.09249">
        <ele>1282.1999511719</ele>
        <time>2024-01-30T14:56:53.000Z</time>
      </trkpt>
      <trkpt lat="44.60141" lon="3.09236">
        <ele>1280.8000488281</ele>
        <time>2024-01-30T14:56:55.000Z</time>
      </trkpt>
      <trkpt lat="44.60157" lon="3.09227">
        <ele>1278.4000244141</ele>
        <time>2024-01-30T14:56:57.000Z</time>
      </trkpt>
      <trkpt lat="44.6016" lon="3.09224">
        <ele>1278.1999511719</ele>
        <time>2024-01-30T14:56:58.000Z</time>
      </trkpt>
      <trkpt lat="44.60163" lon="3.09221">
        <ele>1277.1999511719</ele>
        <time>2024-01-30T14:56:59.000Z</time>
      </trkpt>
      <trkpt lat="44.60166" lon="3.09218">
        <ele>1276.1999511719</ele>
        <time>2024-01-30T14:57:01.000Z</time>
      </trkpt>
      <trkpt lat="44.60167" lon="3.09218">
        <ele>1276</ele>
        <time>2024-01-30T14:57:02.000Z</time>
      </trkpt>
      <trkpt lat="44.60168" lon="3.09217">
        <ele>1276</ele>
        <time>2024-01-30T14:57:06.000Z</time>
      </trkpt>
      <trkpt lat="44.60168" lon="3.09217">
        <ele>1276</ele>
        <time>2024-01-30T14:57:18.000Z</time>
      </trkpt>
      <trkpt lat="44.60168" lon="3.09217">
        <ele>1276</ele>
        <time>2024-01-30T14:57:34.000Z</time>
      </trkpt>
      <trkpt lat="44.60168" lon="3.09217">
        <ele>1276</ele>
        <time>2024-01-30T14:57:48.000Z</time>
      </trkpt>
      <trkpt lat="44.60168" lon="3.09217">
        <ele>1276.1999511719</ele>
        <time>2024-01-30T14:58:06.000Z</time>
      </trkpt>
      <trkpt lat="44.60172" lon="3.09212">
        <ele>1276.1999511719</ele>
        <time>2024-01-30T14:58:15.000Z</time>
      </trkpt>
      <trkpt lat="44.60192" lon="3.09198">
        <ele>1276.1999511719</ele>
        <time>2024-01-30T14:58:19.000Z</time>
      </trkpt>
      <trkpt lat="44.60216" lon="3.09179">
        <ele>1276.4000244141</ele>
        <time>2024-01-30T14:58:22.000Z</time>
      </trkpt>
      <trkpt lat="44.60233" lon="3.09163">
        <ele>1276.4000244141</ele>
        <time>2024-01-30T14:58:24.000Z</time>
      </trkpt>
      <trkpt lat="44.60241" lon="3.09152">
        <ele>1276</ele>
        <time>2024-01-30T14:58:25.000Z</time>
      </trkpt>
      <trkpt lat="44.60248" lon="3.0914">
        <ele>1275.5999755859</ele>
        <time>2024-01-30T14:58:26.000Z</time>
      </trkpt>
      <trkpt lat="44.60253" lon="3.09126">
        <ele>1274.4000244141</ele>
        <time>2024-01-30T14:58:27.000Z</time>
      </trkpt>
      <trkpt lat="44.60259" lon="3.09112">
        <ele>1274.1999511719</ele>
        <time>2024-01-30T14:58:28.000Z</time>
      </trkpt>
      <trkpt lat="44.60268" lon="3.09079">
        <ele>1273.1999511719</ele>
        <time>2024-01-30T14:58:30.000Z</time>
      </trkpt>
      <trkpt lat="44.60276" lon="3.09044">
        <ele>1271.1999511719</ele>
        <time>2024-01-30T14:58:32.000Z</time>
      </trkpt>
      <trkpt lat="44.60287" lon="3.09011">
        <ele>1269.5999755859</ele>
        <time>2024-01-30T14:58:34.000Z</time>
      </trkpt>
      <trkpt lat="44.60295" lon="3.08998">
        <ele>1269</ele>
        <time>2024-01-30T14:58:35.000Z</time>
      </trkpt>
      <trkpt lat="44.60304" lon="3.08987">
        <ele>1268.8000488281</ele>
        <time>2024-01-30T14:58:36.000Z</time>
      </trkpt>
      <trkpt lat="44.60316" lon="3.08979">
        <ele>1268.4000244141</ele>
        <time>2024-01-30T14:58:37.000Z</time>
      </trkpt>
      <trkpt lat="44.6036" lon="3.08949">
        <ele>1267.5999755859</ele>
        <time>2024-01-30T14:58:41.000Z</time>
      </trkpt>
      <trkpt lat="44.60371" lon="3.08937">
        <ele>1267.1999511719</ele>
        <time>2024-01-30T14:58:42.000Z</time>
      </trkpt>
      <trkpt lat="44.60405" lon="3.08897">
        <ele>1266.4000244141</ele>
        <time>2024-01-30T14:58:45.000Z</time>
      </trkpt>
      <trkpt lat="44.60418" lon="3.08884">
        <ele>1266.1999511719</ele>
        <time>2024-01-30T14:58:46.000Z</time>
      </trkpt>
      <trkpt lat="44.60466" lon="3.08834">
        <ele>1264.5999755859</ele>
        <time>2024-01-30T14:58:50.000Z</time>
      </trkpt>
      <trkpt lat="44.60478" lon="3.08824">
        <ele>1263.1999511719</ele>
        <time>2024-01-30T14:58:51.000Z</time>
      </trkpt>
      <trkpt lat="44.60501" lon="3.08802">
        <ele>1262.1999511719</ele>
        <time>2024-01-30T14:58:53.000Z</time>
      </trkpt>
      <trkpt lat="44.60512" lon="3.08794">
        <ele>1261.8000488281</ele>
        <time>2024-01-30T14:58:54.000Z</time>
      </trkpt>
      <trkpt lat="44.60525" lon="3.08789">
        <ele>1261.4000244141</ele>
        <time>2024-01-30T14:58:55.000Z</time>
      </trkpt>
      <trkpt lat="44.60538" lon="3.08785">
        <ele>1261</ele>
        <time>2024-01-30T14:58:56.000Z</time>
      </trkpt>
      <trkpt lat="44.60564" lon="3.08779">
        <ele>1259.8000488281</ele>
        <time>2024-01-30T14:58:58.000Z</time>
      </trkpt>
      <trkpt lat="44.60576" lon="3.08775">
        <ele>1259.5999755859</ele>
        <time>2024-01-30T14:58:59.000Z</time>
      </trkpt>
      <trkpt lat="44.60588" lon="3.0877">
        <ele>1258.8000488281</ele>
        <time>2024-01-30T14:59:00.000Z</time>
      </trkpt>
      <trkpt lat="44.60608" lon="3.08752">
        <ele>1258.4000244141</ele>
        <time>2024-01-30T14:59:02.000Z</time>
      </trkpt>
      <trkpt lat="44.60622" lon="3.08725">
        <ele>1258.1999511719</ele>
        <time>2024-01-30T14:59:04.000Z</time>
      </trkpt>
      <trkpt lat="44.60627" lon="3.08709">
        <ele>1258.1999511719</ele>
        <time>2024-01-30T14:59:05.000Z</time>
      </trkpt>
      <trkpt lat="44.6063" lon="3.08693">
        <ele>1258.1999511719</ele>
        <time>2024-01-30T14:59:06.000Z</time>
      </trkpt>
      <trkpt lat="44.60628" lon="3.08656">
        <ele>1258</ele>
        <time>2024-01-30T14:59:08.000Z</time>
      </trkpt>
      <trkpt lat="44.60621" lon="3.08627">
        <ele>1258</ele>
        <time>2024-01-30T14:59:10.000Z</time>
      </trkpt>
      <trkpt lat="44.60613" lon="3.08611">
        <ele>1258</ele>
        <time>2024-01-30T14:59:11.000Z</time>
      </trkpt>
      <trkpt lat="44.60606" lon="3.08603">
        <ele>1258</ele>
        <time>2024-01-30T14:59:12.000Z</time>
      </trkpt>
      <trkpt lat="44.60588" lon="3.08584">
        <ele>1258</ele>
        <time>2024-01-30T14:59:14.000Z</time>
      </trkpt>
      <trkpt lat="44.60541" lon="3.08546">
        <ele>1258.1999511719</ele>
        <time>2024-01-30T14:59:19.000Z</time>
      </trkpt>
      <trkpt lat="44.60504" lon="3.08508">
        <ele>1259.1999511719</ele>
        <time>2024-01-30T14:59:23.000Z</time>
      </trkpt>
      <trkpt lat="44.60486" lon="3.08486">
        <ele>1259.8000488281</ele>
        <time>2024-01-30T14:59:25.000Z</time>
      </trkpt>
      <trkpt lat="44.60466" lon="3.08451">
        <ele>1259.8000488281</ele>
        <time>2024-01-30T14:59:28.000Z</time>
      </trkpt>
      <trkpt lat="44.60465" lon="3.0843">
        <ele>1258.8000488281</ele>
        <time>2024-01-30T14:59:30.000Z</time>
      </trkpt>
      <trkpt lat="44.60468" lon="3.0842">
        <ele>1258.1999511719</ele>
        <time>2024-01-30T14:59:31.000Z</time>
      </trkpt>
      <trkpt lat="44.60475" lon="3.08412">
        <ele>1258</ele>
        <time>2024-01-30T14:59:32.000Z</time>
      </trkpt>
      <trkpt lat="44.60491" lon="3.08405">
        <ele>1258.1999511719</ele>
        <time>2024-01-30T14:59:34.000Z</time>
      </trkpt>
      <trkpt lat="44.60513" lon="3.08405">
        <ele>1259</ele>
        <time>2024-01-30T14:59:36.000Z</time>
      </trkpt>
      <trkpt lat="44.60523" lon="3.08402">
        <ele>1259.1999511719</ele>
        <time>2024-01-30T14:59:37.000Z</time>
      </trkpt>
      <trkpt lat="44.60534" lon="3.08396">
        <ele>1259.4000244141</ele>
        <time>2024-01-30T14:59:38.000Z</time>
      </trkpt>
      <trkpt lat="44.60543" lon="3.08386">
        <ele>1259.4000244141</ele>
        <time>2024-01-30T14:59:39.000Z</time>
      </trkpt>
      <trkpt lat="44.6055" lon="3.08374">
        <ele>1259.4000244141</ele>
        <time>2024-01-30T14:59:40.000Z</time>
      </trkpt>
      <trkpt lat="44.60556" lon="3.08359">
        <ele>1259.1999511719</ele>
        <time>2024-01-30T14:59:41.000Z</time>
      </trkpt>
      <trkpt lat="44.60558" lon="3.08343">
        <ele>1258.5999755859</ele>
        <time>2024-01-30T14:59:42.000Z</time>
      </trkpt>
      <trkpt lat="44.60558" lon="3.08327">
        <ele>1258.4000244141</ele>
        <time>2024-01-30T14:59:43.000Z</time>
      </trkpt>
      <trkpt lat="44.60556" lon="3.08311">
        <ele>1258</ele>
        <time>2024-01-30T14:59:44.000Z</time>
      </trkpt>
      <trkpt lat="44.60548" lon="3.08282">
        <ele>1257.8000488281</ele>
        <time>2024-01-30T14:59:46.000Z</time>
      </trkpt>
      <trkpt lat="44.60536" lon="3.08228">
        <ele>1257.4000244141</ele>
        <time>2024-01-30T14:59:50.000Z</time>
      </trkpt>
      <trkpt lat="44.60534" lon="3.08215">
        <ele>1257.1999511719</ele>
        <time>2024-01-30T14:59:51.000Z</time>
      </trkpt>
      <trkpt lat="44.60535" lon="3.08203">
        <ele>1257.1999511719</ele>
        <time>2024-01-30T14:59:52.000Z</time>
      </trkpt>
      <trkpt lat="44.60539" lon="3.08192">
        <ele>1257.1999511719</ele>
        <time>2024-01-30T14:59:53.000Z</time>
      </trkpt>
      <trkpt lat="44.60544" lon="3.08183">
        <ele>1257.4000244141</ele>
        <time>2024-01-30T14:59:54.000Z</time>
      </trkpt>
      <trkpt lat="44.6056" lon="3.08167">
        <ele>1258.1999511719</ele>
        <time>2024-01-30T14:59:56.000Z</time>
      </trkpt>
      <trkpt lat="44.60581" lon="3.08154">
        <ele>1259.8000488281</ele>
        <time>2024-01-30T14:59:58.000Z</time>
      </trkpt>
      <trkpt lat="44.60592" lon="3.08148">
        <ele>1260.1999511719</ele>
        <time>2024-01-30T14:59:59.000Z</time>
      </trkpt>
      <trkpt lat="44.60654" lon="3.08121">
        <ele>1260.4000244141</ele>
        <time>2024-01-30T15:00:04.000Z</time>
      </trkpt>
      <trkpt lat="44.60692" lon="3.08123">
        <ele>1259.1999511719</ele>
        <time>2024-01-30T15:00:07.000Z</time>
      </trkpt>
      <trkpt lat="44.60728" lon="3.08128">
        <ele>1258.5999755859</ele>
        <time>2024-01-30T15:00:10.000Z</time>
      </trkpt>
      <trkpt lat="44.60738" lon="3.08129">
        <ele>1258.1999511719</ele>
        <time>2024-01-30T15:00:11.000Z</time>
      </trkpt>
      <trkpt lat="44.60746" lon="3.08128">
        <ele>1257.5999755859</ele>
        <time>2024-01-30T15:00:12.000Z</time>
      </trkpt>
      <trkpt lat="44.60755" lon="3.08125">
        <ele>1257.4000244141</ele>
        <time>2024-01-30T15:00:13.000Z</time>
      </trkpt>
      <trkpt lat="44.60772" lon="3.08113">
        <ele>1257.4000244141</ele>
        <time>2024-01-30T15:00:15.000Z</time>
      </trkpt>
      <trkpt lat="44.60785" lon="3.08089">
        <ele>1257.1999511719</ele>
        <time>2024-01-30T15:00:17.000Z</time>
      </trkpt>
      <trkpt lat="44.6079" lon="3.08075">
        <ele>1257.1999511719</ele>
        <time>2024-01-30T15:00:18.000Z</time>
      </trkpt>
      <trkpt lat="44.60813" lon="3.08">
        <ele>1257.1999511719</ele>
        <time>2024-01-30T15:00:23.000Z</time>
      </trkpt>
      <trkpt lat="44.60834" lon="3.07936">
        <ele>1257</ele>
        <time>2024-01-30T15:00:27.000Z</time>
      </trkpt>
      <trkpt lat="44.6084" lon="3.079">
        <ele>1255.5999755859</ele>
        <time>2024-01-30T15:00:29.000Z</time>
      </trkpt>
      <trkpt lat="44.60842" lon="3.07882">
        <ele>1253.4000244141</ele>
        <time>2024-01-30T15:00:30.000Z</time>
      </trkpt>
      <trkpt lat="44.60845" lon="3.07865">
        <ele>1252.8000488281</ele>
        <time>2024-01-30T15:00:31.000Z</time>
      </trkpt>
      <trkpt lat="44.60848" lon="3.07848">
        <ele>1252.5999755859</ele>
        <time>2024-01-30T15:00:32.000Z</time>
      </trkpt>
      <trkpt lat="44.60854" lon="3.07832">
        <ele>1252.1999511719</ele>
        <time>2024-01-30T15:00:33.000Z</time>
      </trkpt>
      <trkpt lat="44.60861" lon="3.07816">
        <ele>1251.8000488281</ele>
        <time>2024-01-30T15:00:34.000Z</time>
      </trkpt>
      <trkpt lat="44.60884" lon="3.0777">
        <ele>1250.8000488281</ele>
        <time>2024-01-30T15:00:37.000Z</time>
      </trkpt>
      <trkpt lat="44.609" lon="3.07737">
        <ele>1249.5999755859</ele>
        <time>2024-01-30T15:00:39.000Z</time>
      </trkpt>
      <trkpt lat="44.60908" lon="3.0772">
        <ele>1249</ele>
        <time>2024-01-30T15:00:40.000Z</time>
      </trkpt>
      <trkpt lat="44.60916" lon="3.07703">
        <ele>1248.4000244141</ele>
        <time>2024-01-30T15:00:41.000Z</time>
      </trkpt>
      <trkpt lat="44.60932" lon="3.07669">
        <ele>1247.4000244141</ele>
        <time>2024-01-30T15:00:43.000Z</time>
      </trkpt>
      <trkpt lat="44.60963" lon="3.07603">
        <ele>1246.5999755859</ele>
        <time>2024-01-30T15:00:47.000Z</time>
      </trkpt>
      <trkpt lat="44.60988" lon="3.07536">
        <ele>1247</ele>
        <time>2024-01-30T15:00:51.000Z</time>
      </trkpt>
      <trkpt lat="44.60994" lon="3.07519">
        <ele>1247</ele>
        <time>2024-01-30T15:00:52.000Z</time>
      </trkpt>
      <trkpt lat="44.61024" lon="3.07443">
        <ele>1247</ele>
        <time>2024-01-30T15:00:57.000Z</time>
      </trkpt>
      <trkpt lat="44.61042" lon="3.07425">
        <ele>1246.5999755859</ele>
        <time>2024-01-30T15:00:59.000Z</time>
      </trkpt>
      <trkpt lat="44.61054" lon="3.07421">
        <ele>1246.4000244141</ele>
        <time>2024-01-30T15:01:00.000Z</time>
      </trkpt>
      <trkpt lat="44.6108" lon="3.07415">
        <ele>1246</ele>
        <time>2024-01-30T15:01:02.000Z</time>
      </trkpt>
      <trkpt lat="44.61106" lon="3.07406">
        <ele>1245.8000488281</ele>
        <time>2024-01-30T15:01:04.000Z</time>
      </trkpt>
      <trkpt lat="44.61118" lon="3.07399">
        <ele>1245.5999755859</ele>
        <time>2024-01-30T15:01:05.000Z</time>
      </trkpt>
      <trkpt lat="44.6113" lon="3.07389">
        <ele>1245.4000244141</ele>
        <time>2024-01-30T15:01:06.000Z</time>
      </trkpt>
      <trkpt lat="44.61141" lon="3.07377">
        <ele>1245</ele>
        <time>2024-01-30T15:01:07.000Z</time>
      </trkpt>
      <trkpt lat="44.6115" lon="3.07364">
        <ele>1244.4000244141</ele>
        <time>2024-01-30T15:01:08.000Z</time>
      </trkpt>
      <trkpt lat="44.61179" lon="3.07326">
        <ele>1243.8000488281</ele>
        <time>2024-01-30T15:01:11.000Z</time>
      </trkpt>
      <trkpt lat="44.6119" lon="3.07317">
        <ele>1243.5999755859</ele>
        <time>2024-01-30T15:01:12.000Z</time>
      </trkpt>
      <trkpt lat="44.61241" lon="3.07283">
        <ele>1243.5999755859</ele>
        <time>2024-01-30T15:01:16.000Z</time>
      </trkpt>
      <trkpt lat="44.61254" lon="3.07273">
        <ele>1243.4000244141</ele>
        <time>2024-01-30T15:01:17.000Z</time>
      </trkpt>
      <trkpt lat="44.61303" lon="3.07241">
        <ele>1242.8000488281</ele>
        <time>2024-01-30T15:01:21.000Z</time>
      </trkpt>
      <trkpt lat="44.61314" lon="3.07239">
        <ele>1242</ele>
        <time>2024-01-30T15:01:22.000Z</time>
      </trkpt>
      <trkpt lat="44.61324" lon="3.07242">
        <ele>1241.5999755859</ele>
        <time>2024-01-30T15:01:23.000Z</time>
      </trkpt>
      <trkpt lat="44.61331" lon="3.07248">
        <ele>1241.5999755859</ele>
        <time>2024-01-30T15:01:24.000Z</time>
      </trkpt>
      <trkpt lat="44.61338" lon="3.07259">
        <ele>1241.4000244141</ele>
        <time>2024-01-30T15:01:25.000Z</time>
      </trkpt>
      <trkpt lat="44.61352" lon="3.07282">
        <ele>1241.1999511719</ele>
        <time>2024-01-30T15:01:27.000Z</time>
      </trkpt>
      <trkpt lat="44.61373" lon="3.07298">
        <ele>1241.1999511719</ele>
        <time>2024-01-30T15:01:29.000Z</time>
      </trkpt>
      <trkpt lat="44.61397" lon="3.07302">
        <ele>1241.1999511719</ele>
        <time>2024-01-30T15:01:31.000Z</time>
      </trkpt>
      <trkpt lat="44.61436" lon="3.07298">
        <ele>1241.1999511719</ele>
        <time>2024-01-30T15:01:34.000Z</time>
      </trkpt>
      <trkpt lat="44.6145" lon="3.073">
        <ele>1241.1999511719</ele>
        <time>2024-01-30T15:01:35.000Z</time>
      </trkpt>
      <trkpt lat="44.61464" lon="3.07305">
        <ele>1241</ele>
        <time>2024-01-30T15:01:36.000Z</time>
      </trkpt>
      <trkpt lat="44.61493" lon="3.07318">
        <ele>1240.8000488281</ele>
        <time>2024-01-30T15:01:38.000Z</time>
      </trkpt>
      <trkpt lat="44.61524" lon="3.07335">
        <ele>1240.4000244141</ele>
        <time>2024-01-30T15:01:40.000Z</time>
      </trkpt>
      <trkpt lat="44.61568" lon="3.07355">
        <ele>1239.8000488281</ele>
        <time>2024-01-30T15:01:43.000Z</time>
      </trkpt>
      <trkpt lat="44.61611" lon="3.07357">
        <ele>1239.1999511719</ele>
        <time>2024-01-30T15:01:46.000Z</time>
      </trkpt>
      <trkpt lat="44.61633" lon="3.07339">
        <ele>1238.1999511719</ele>
        <time>2024-01-30T15:01:48.000Z</time>
      </trkpt>
      <trkpt lat="44.61652" lon="3.07313">
        <ele>1238.1999511719</ele>
        <time>2024-01-30T15:01:50.000Z</time>
      </trkpt>
      <trkpt lat="44.61663" lon="3.07299">
        <ele>1238</ele>
        <time>2024-01-30T15:01:51.000Z</time>
      </trkpt>
      <trkpt lat="44.6171" lon="3.07249">
        <ele>1238</ele>
        <time>2024-01-30T15:01:55.000Z</time>
      </trkpt>
      <trkpt lat="44.61766" lon="3.07207">
        <ele>1238</ele>
        <time>2024-01-30T15:01:59.000Z</time>
      </trkpt>
      <trkpt lat="44.61781" lon="3.07196">
        <ele>1237.8000488281</ele>
        <time>2024-01-30T15:02:00.000Z</time>
      </trkpt>
      <trkpt lat="44.61825" lon="3.07166">
        <ele>1237</ele>
        <time>2024-01-30T15:02:03.000Z</time>
      </trkpt>
      <trkpt lat="44.6184" lon="3.07159">
        <ele>1236.5999755859</ele>
        <time>2024-01-30T15:02:04.000Z</time>
      </trkpt>
      <trkpt lat="44.6187" lon="3.07149">
        <ele>1236.4000244141</ele>
        <time>2024-01-30T15:02:06.000Z</time>
      </trkpt>
      <trkpt lat="44.61885" lon="3.07147">
        <ele>1236.4000244141</ele>
        <time>2024-01-30T15:02:07.000Z</time>
      </trkpt>
      <trkpt lat="44.619" lon="3.07149">
        <ele>1236.4000244141</ele>
        <time>2024-01-30T15:02:08.000Z</time>
      </trkpt>
      <trkpt lat="44.6193" lon="3.07155">
        <ele>1236.4000244141</ele>
        <time>2024-01-30T15:02:10.000Z</time>
      </trkpt>
      <trkpt lat="44.61991" lon="3.07167">
        <ele>1236.5999755859</ele>
        <time>2024-01-30T15:02:14.000Z</time>
      </trkpt>
      <trkpt lat="44.62053" lon="3.07178">
        <ele>1236.8000488281</ele>
        <time>2024-01-30T15:02:18.000Z</time>
      </trkpt>
      <trkpt lat="44.62116" lon="3.07187">
        <ele>1236.5999755859</ele>
        <time>2024-01-30T15:02:22.000Z</time>
      </trkpt>
      <trkpt lat="44.62149" lon="3.07189">
        <ele>1236</ele>
        <time>2024-01-30T15:02:24.000Z</time>
      </trkpt>
      <trkpt lat="44.62164" lon="3.07188">
        <ele>1235.1999511719</ele>
        <time>2024-01-30T15:02:25.000Z</time>
      </trkpt>
      <trkpt lat="44.6218" lon="3.07186">
        <ele>1234.8000488281</ele>
        <time>2024-01-30T15:02:26.000Z</time>
      </trkpt>
      <trkpt lat="44.62224" lon="3.07176">
        <ele>1233.4000244141</ele>
        <time>2024-01-30T15:02:29.000Z</time>
      </trkpt>
      <trkpt lat="44.62237" lon="3.07171">
        <ele>1233</ele>
        <time>2024-01-30T15:02:30.000Z</time>
      </trkpt>
      <trkpt lat="44.62249" lon="3.07164">
        <ele>1232</ele>
        <time>2024-01-30T15:02:31.000Z</time>
      </trkpt>
      <trkpt lat="44.62259" lon="3.07156">
        <ele>1231.4000244141</ele>
        <time>2024-01-30T15:02:32.000Z</time>
      </trkpt>
      <trkpt lat="44.62267" lon="3.07146">
        <ele>1230.5999755859</ele>
        <time>2024-01-30T15:02:33.000Z</time>
      </trkpt>
      <trkpt lat="44.62273" lon="3.07133">
        <ele>1230.4000244141</ele>
        <time>2024-01-30T15:02:34.000Z</time>
      </trkpt>
      <trkpt lat="44.62282" lon="3.07105">
        <ele>1230.1999511719</ele>
        <time>2024-01-30T15:02:36.000Z</time>
      </trkpt>
      <trkpt lat="44.62288" lon="3.07092">
        <ele>1230</ele>
        <time>2024-01-30T15:02:37.000Z</time>
      </trkpt>
      <trkpt lat="44.62295" lon="3.0708">
        <ele>1230</ele>
        <time>2024-01-30T15:02:38.000Z</time>
      </trkpt>
      <trkpt lat="44.62313" lon="3.07061">
        <ele>1229.5999755859</ele>
        <time>2024-01-30T15:02:40.000Z</time>
      </trkpt>
      <trkpt lat="44.62321" lon="3.07053">
        <ele>1229.1999511719</ele>
        <time>2024-01-30T15:02:41.000Z</time>
      </trkpt>
      <trkpt lat="44.62328" lon="3.07044">
        <ele>1228.8000488281</ele>
        <time>2024-01-30T15:02:42.000Z</time>
      </trkpt>
      <trkpt lat="44.62333" lon="3.07035">
        <ele>1227.8000488281</ele>
        <time>2024-01-30T15:02:43.000Z</time>
      </trkpt>
      <trkpt lat="44.62337" lon="3.07026">
        <ele>1227.1999511719</ele>
        <time>2024-01-30T15:02:44.000Z</time>
      </trkpt>
      <trkpt lat="44.62339" lon="3.07003">
        <ele>1226.8000488281</ele>
        <time>2024-01-30T15:02:46.000Z</time>
      </trkpt>
      <trkpt lat="44.62338" lon="3.06991">
        <ele>1226.8000488281</ele>
        <time>2024-01-30T15:02:47.000Z</time>
      </trkpt>
      <trkpt lat="44.62336" lon="3.06979">
        <ele>1226.5999755859</ele>
        <time>2024-01-30T15:02:48.000Z</time>
      </trkpt>
      <trkpt lat="44.62329" lon="3.06955">
        <ele>1226.5999755859</ele>
        <time>2024-01-30T15:02:50.000Z</time>
      </trkpt>
      <trkpt lat="44.62315" lon="3.06913">
        <ele>1227.5999755859</ele>
        <time>2024-01-30T15:02:53.000Z</time>
      </trkpt>
      <trkpt lat="44.62311" lon="3.06897">
        <ele>1228</ele>
        <time>2024-01-30T15:02:54.000Z</time>
      </trkpt>
      <trkpt lat="44.62299" lon="3.06847">
        <ele>1228.5999755859</ele>
        <time>2024-01-30T15:02:57.000Z</time>
      </trkpt>
      <trkpt lat="44.62292" lon="3.06831">
        <ele>1228.5999755859</ele>
        <time>2024-01-30T15:02:58.000Z</time>
      </trkpt>
      <trkpt lat="44.62287" lon="3.06815">
        <ele>1228.5999755859</ele>
        <time>2024-01-30T15:02:59.000Z</time>
      </trkpt>
      <trkpt lat="44.62283" lon="3.06783">
        <ele>1228.5999755859</ele>
        <time>2024-01-30T15:03:01.000Z</time>
      </trkpt>
      <trkpt lat="44.6229" lon="3.06754">
        <ele>1228.8000488281</ele>
        <time>2024-01-30T15:03:03.000Z</time>
      </trkpt>
      <trkpt lat="44.62297" lon="3.06742">
        <ele>1229.1999511719</ele>
        <time>2024-01-30T15:03:04.000Z</time>
      </trkpt>
      <trkpt lat="44.62306" lon="3.06732">
        <ele>1229.8000488281</ele>
        <time>2024-01-30T15:03:05.000Z</time>
      </trkpt>
      <trkpt lat="44.62316" lon="3.06724">
        <ele>1230.4000244141</ele>
        <time>2024-01-30T15:03:06.000Z</time>
      </trkpt>
      <trkpt lat="44.6234" lon="3.06713">
        <ele>1231</ele>
        <time>2024-01-30T15:03:08.000Z</time>
      </trkpt>
      <trkpt lat="44.62375" lon="3.06694">
        <ele>1231.4000244141</ele>
        <time>2024-01-30T15:03:11.000Z</time>
      </trkpt>
      <trkpt lat="44.62388" lon="3.0669">
        <ele>1231.4000244141</ele>
        <time>2024-01-30T15:03:12.000Z</time>
      </trkpt>
      <trkpt lat="44.62401" lon="3.06688">
        <ele>1231.4000244141</ele>
        <time>2024-01-30T15:03:13.000Z</time>
      </trkpt>
      <trkpt lat="44.62427" lon="3.06691">
        <ele>1231.1999511719</ele>
        <time>2024-01-30T15:03:15.000Z</time>
      </trkpt>
      <trkpt lat="44.6246" lon="3.06695">
        <ele>1230</ele>
        <time>2024-01-30T15:03:18.000Z</time>
      </trkpt>
      <trkpt lat="44.62478" lon="3.06685">
        <ele>1229.1999511719</ele>
        <time>2024-01-30T15:03:20.000Z</time>
      </trkpt>
      <trkpt lat="44.62487" lon="3.06662">
        <ele>1229</ele>
        <time>2024-01-30T15:03:22.000Z</time>
      </trkpt>
      <trkpt lat="44.62495" lon="3.06616">
        <ele>1229</ele>
        <time>2024-01-30T15:03:25.000Z</time>
      </trkpt>
      <trkpt lat="44.62504" lon="3.06585">
        <ele>1229.5999755859</ele>
        <time>2024-01-30T15:03:27.000Z</time>
      </trkpt>
      <trkpt lat="44.62511" lon="3.06571">
        <ele>1229.5999755859</ele>
        <time>2024-01-30T15:03:28.000Z</time>
      </trkpt>
      <trkpt lat="44.62519" lon="3.06558">
        <ele>1229.5999755859</ele>
        <time>2024-01-30T15:03:29.000Z</time>
      </trkpt>
      <trkpt lat="44.62543" lon="3.06524">
        <ele>1229.5999755859</ele>
        <time>2024-01-30T15:03:32.000Z</time>
      </trkpt>
      <trkpt lat="44.62555" lon="3.06497">
        <ele>1229.1999511719</ele>
        <time>2024-01-30T15:03:34.000Z</time>
      </trkpt>
      <trkpt lat="44.6256" lon="3.06482">
        <ele>1229</ele>
        <time>2024-01-30T15:03:35.000Z</time>
      </trkpt>
      <trkpt lat="44.62567" lon="3.06449">
        <ele>1228.8000488281</ele>
        <time>2024-01-30T15:03:37.000Z</time>
      </trkpt>
      <trkpt lat="44.6258" lon="3.06419">
        <ele>1228.1999511719</ele>
        <time>2024-01-30T15:03:39.000Z</time>
      </trkpt>
      <trkpt lat="44.62589" lon="3.06407">
        <ele>1228.1999511719</ele>
        <time>2024-01-30T15:03:40.000Z</time>
      </trkpt>
      <trkpt lat="44.6261" lon="3.06385">
        <ele>1228</ele>
        <time>2024-01-30T15:03:42.000Z</time>
      </trkpt>
      <trkpt lat="44.62648" lon="3.06332">
        <ele>1227.5999755859</ele>
        <time>2024-01-30T15:03:46.000Z</time>
      </trkpt>
      <trkpt lat="44.62658" lon="3.06319">
        <ele>1227.1999511719</ele>
        <time>2024-01-30T15:03:47.000Z</time>
      </trkpt>
      <trkpt lat="44.62668" lon="3.06306">
        <ele>1227</ele>
        <time>2024-01-30T15:03:48.000Z</time>
      </trkpt>
      <trkpt lat="44.6269" lon="3.06286">
        <ele>1226.8000488281</ele>
        <time>2024-01-30T15:03:50.000Z</time>
      </trkpt>
      <trkpt lat="44.62714" lon="3.06283">
        <ele>1226.8000488281</ele>
        <time>2024-01-30T15:03:52.000Z</time>
      </trkpt>
      <trkpt lat="44.62761" lon="3.06296">
        <ele>1228.1999511719</ele>
        <time>2024-01-30T15:03:56.000Z</time>
      </trkpt>
      <trkpt lat="44.6278" lon="3.06296">
        <ele>1229</ele>
        <time>2024-01-30T15:03:58.000Z</time>
      </trkpt>
      <trkpt lat="44.6279" lon="3.06293">
        <ele>1229.1999511719</ele>
        <time>2024-01-30T15:03:59.000Z</time>
      </trkpt>
      <trkpt lat="44.62798" lon="3.06287">
        <ele>1229.5999755859</ele>
        <time>2024-01-30T15:04:00.000Z</time>
      </trkpt>
      <trkpt lat="44.62803" lon="3.06278">
        <ele>1229.5999755859</ele>
        <time>2024-01-30T15:04:01.000Z</time>
      </trkpt>
      <trkpt lat="44.62807" lon="3.06266">
        <ele>1230</ele>
        <time>2024-01-30T15:04:02.000Z</time>
      </trkpt>
      <trkpt lat="44.62813" lon="3.06237">
        <ele>1231.4000244141</ele>
        <time>2024-01-30T15:04:04.000Z</time>
      </trkpt>
      <trkpt lat="44.62817" lon="3.0619">
        <ele>1231.8000488281</ele>
        <time>2024-01-30T15:04:07.000Z</time>
      </trkpt>
      <trkpt lat="44.6282" lon="3.06176">
        <ele>1231.8000488281</ele>
        <time>2024-01-30T15:04:08.000Z</time>
      </trkpt>
      <trkpt lat="44.62826" lon="3.06165">
        <ele>1232</ele>
        <time>2024-01-30T15:04:09.000Z</time>
      </trkpt>
      <trkpt lat="44.62834" lon="3.06156">
        <ele>1232</ele>
        <time>2024-01-30T15:04:10.000Z</time>
      </trkpt>
      <trkpt lat="44.62844" lon="3.06149">
        <ele>1232</ele>
        <time>2024-01-30T15:04:11.000Z</time>
      </trkpt>
      <trkpt lat="44.62865" lon="3.06134">
        <ele>1232.5999755859</ele>
        <time>2024-01-30T15:04:13.000Z</time>
      </trkpt>
      <trkpt lat="44.62875" lon="3.06125">
        <ele>1233.1999511719</ele>
        <time>2024-01-30T15:04:14.000Z</time>
      </trkpt>
      <trkpt lat="44.62896" lon="3.06103">
        <ele>1233.5999755859</ele>
        <time>2024-01-30T15:04:16.000Z</time>
      </trkpt>
      <trkpt lat="44.62918" lon="3.06078">
        <ele>1234.4000244141</ele>
        <time>2024-01-30T15:04:18.000Z</time>
      </trkpt>
      <trkpt lat="44.6294" lon="3.06054">
        <ele>1234.8000488281</ele>
        <time>2024-01-30T15:04:20.000Z</time>
      </trkpt>
      <trkpt lat="44.62969" lon="3.06019">
        <ele>1234.8000488281</ele>
        <time>2024-01-30T15:04:23.000Z</time>
      </trkpt>
      <trkpt lat="44.62983" lon="3.05992">
        <ele>1235</ele>
        <time>2024-01-30T15:04:25.000Z</time>
      </trkpt>
      <trkpt lat="44.62988" lon="3.05978">
        <ele>1235</ele>
        <time>2024-01-30T15:04:26.000Z</time>
      </trkpt>
      <trkpt lat="44.62991" lon="3.05964">
        <ele>1234.8000488281</ele>
        <time>2024-01-30T15:04:27.000Z</time>
      </trkpt>
      <trkpt lat="44.62993" lon="3.05934">
        <ele>1234.8000488281</ele>
        <time>2024-01-30T15:04:29.000Z</time>
      </trkpt>
      <trkpt lat="44.62991" lon="3.05869">
        <ele>1234</ele>
        <time>2024-01-30T15:04:33.000Z</time>
      </trkpt>
      <trkpt lat="44.63" lon="3.05839">
        <ele>1233.8000488281</ele>
        <time>2024-01-30T15:04:35.000Z</time>
      </trkpt>
      <trkpt lat="44.63017" lon="3.05819">
        <ele>1233.4000244141</ele>
        <time>2024-01-30T15:04:37.000Z</time>
      </trkpt>
      <trkpt lat="44.63041" lon="3.05815">
        <ele>1233.4000244141</ele>
        <time>2024-01-30T15:04:39.000Z</time>
      </trkpt>
      <trkpt lat="44.63081" lon="3.0582">
        <ele>1234</ele>
        <time>2024-01-30T15:04:42.000Z</time>
      </trkpt>
      <trkpt lat="44.63122" lon="3.05832">
        <ele>1234.8000488281</ele>
        <time>2024-01-30T15:04:45.000Z</time>
      </trkpt>
      <trkpt lat="44.63136" lon="3.05839">
        <ele>1235</ele>
        <time>2024-01-30T15:04:46.000Z</time>
      </trkpt>
      <trkpt lat="44.63186" lon="3.05875">
        <ele>1235.1999511719</ele>
        <time>2024-01-30T15:04:50.000Z</time>
      </trkpt>
      <trkpt lat="44.63244" lon="3.0592">
        <ele>1235</ele>
        <time>2024-01-30T15:04:54.000Z</time>
      </trkpt>
      <trkpt lat="44.63259" lon="3.05932">
        <ele>1234.5999755859</ele>
        <time>2024-01-30T15:04:55.000Z</time>
      </trkpt>
      <trkpt lat="44.63304" lon="3.05966">
        <ele>1233.4000244141</ele>
        <time>2024-01-30T15:04:58.000Z</time>
      </trkpt>
      <trkpt lat="44.63366" lon="3.06012">
        <ele>1231.5999755859</ele>
        <time>2024-01-30T15:05:02.000Z</time>
      </trkpt>
      <trkpt lat="44.63383" lon="3.06025">
        <ele>1231.4000244141</ele>
        <time>2024-01-30T15:05:03.000Z</time>
      </trkpt>
      <trkpt lat="44.63415" lon="3.06049">
        <ele>1230.4000244141</ele>
        <time>2024-01-30T15:05:05.000Z</time>
      </trkpt>
      <trkpt lat="44.63476" lon="3.06093">
        <ele>1229</ele>
        <time>2024-01-30T15:05:09.000Z</time>
      </trkpt>
      <trkpt lat="44.63521" lon="3.06125">
        <ele>1228.1999511719</ele>
        <time>2024-01-30T15:05:12.000Z</time>
      </trkpt>
      <trkpt lat="44.63536" lon="3.06136">
        <ele>1227.5999755859</ele>
        <time>2024-01-30T15:05:13.000Z</time>
      </trkpt>
      <trkpt lat="44.63566" lon="3.06157">
        <ele>1226.1999511719</ele>
        <time>2024-01-30T15:05:15.000Z</time>
      </trkpt>
      <trkpt lat="44.63594" lon="3.06176">
        <ele>1226</ele>
        <time>2024-01-30T15:05:17.000Z</time>
      </trkpt>
      <trkpt lat="44.6365" lon="3.06205">
        <ele>1224.5999755859</ele>
        <time>2024-01-30T15:05:21.000Z</time>
      </trkpt>
      <trkpt lat="44.63693" lon="3.06224">
        <ele>1223.4000244141</ele>
        <time>2024-01-30T15:05:24.000Z</time>
      </trkpt>
      <trkpt lat="44.63722" lon="3.06238">
        <ele>1222.5999755859</ele>
        <time>2024-01-30T15:05:26.000Z</time>
      </trkpt>
      <trkpt lat="44.63752" lon="3.06254">
        <ele>1222</ele>
        <time>2024-01-30T15:05:28.000Z</time>
      </trkpt>
      <trkpt lat="44.63783" lon="3.0627">
        <ele>1220.8000488281</ele>
        <time>2024-01-30T15:05:30.000Z</time>
      </trkpt>
      <trkpt lat="44.63797" lon="3.06278">
        <ele>1219.5999755859</ele>
        <time>2024-01-30T15:05:31.000Z</time>
      </trkpt>
      <trkpt lat="44.63821" lon="3.06297">
        <ele>1218.4000244141</ele>
        <time>2024-01-30T15:05:33.000Z</time>
      </trkpt>
      <trkpt lat="44.63831" lon="3.0631">
        <ele>1218</ele>
        <time>2024-01-30T15:05:34.000Z</time>
      </trkpt>
      <trkpt lat="44.63856" lon="3.06353">
        <ele>1217.5999755859</ele>
        <time>2024-01-30T15:05:37.000Z</time>
      </trkpt>
      <trkpt lat="44.63893" lon="3.06381">
        <ele>1218.5999755859</ele>
        <time>2024-01-30T15:05:40.000Z</time>
      </trkpt>
      <trkpt lat="44.63951" lon="3.0641">
        <ele>1219.1999511719</ele>
        <time>2024-01-30T15:05:44.000Z</time>
      </trkpt>
      <trkpt lat="44.63965" lon="3.06416">
        <ele>1219.4000244141</ele>
        <time>2024-01-30T15:05:45.000Z</time>
      </trkpt>
      <trkpt lat="44.63993" lon="3.06432">
        <ele>1219.8000488281</ele>
        <time>2024-01-30T15:05:47.000Z</time>
      </trkpt>
      <trkpt lat="44.6402" lon="3.06453">
        <ele>1219.8000488281</ele>
        <time>2024-01-30T15:05:49.000Z</time>
      </trkpt>
      <trkpt lat="44.64061" lon="3.06479">
        <ele>1219.5999755859</ele>
        <time>2024-01-30T15:05:52.000Z</time>
      </trkpt>
      <trkpt lat="44.64075" lon="3.06485">
        <ele>1219.4000244141</ele>
        <time>2024-01-30T15:05:53.000Z</time>
      </trkpt>
      <trkpt lat="44.6409" lon="3.06489">
        <ele>1219.4000244141</ele>
        <time>2024-01-30T15:05:54.000Z</time>
      </trkpt>
      <trkpt lat="44.64119" lon="3.06491">
        <ele>1219</ele>
        <time>2024-01-30T15:05:56.000Z</time>
      </trkpt>
      <trkpt lat="44.64182" lon="3.06487">
        <ele>1218.4000244141</ele>
        <time>2024-01-30T15:06:00.000Z</time>
      </trkpt>
      <trkpt lat="44.64198" lon="3.06483">
        <ele>1218.4000244141</ele>
        <time>2024-01-30T15:06:01.000Z</time>
      </trkpt>
      <trkpt lat="44.64213" lon="3.06478">
        <ele>1218.1999511719</ele>
        <time>2024-01-30T15:06:02.000Z</time>
      </trkpt>
      <trkpt lat="44.64258" lon="3.06463">
        <ele>1217.8000488281</ele>
        <time>2024-01-30T15:06:05.000Z</time>
      </trkpt>
      <trkpt lat="44.64288" lon="3.06457">
        <ele>1217.1999511719</ele>
        <time>2024-01-30T15:06:07.000Z</time>
      </trkpt>
      <trkpt lat="44.64315" lon="3.06446">
        <ele>1216.8000488281</ele>
        <time>2024-01-30T15:06:09.000Z</time>
      </trkpt>
      <trkpt lat="44.64342" lon="3.06438">
        <ele>1216.4000244141</ele>
        <time>2024-01-30T15:06:11.000Z</time>
      </trkpt>
      <trkpt lat="44.64355" lon="3.06436">
        <ele>1216.1999511719</ele>
        <time>2024-01-30T15:06:12.000Z</time>
      </trkpt>
      <trkpt lat="44.64409" lon="3.06439">
        <ele>1216.5999755859</ele>
        <time>2024-01-30T15:06:16.000Z</time>
      </trkpt>
      <trkpt lat="44.64422" lon="3.0644">
        <ele>1216.8000488281</ele>
        <time>2024-01-30T15:06:17.000Z</time>
      </trkpt>
      <trkpt lat="44.64435" lon="3.06442">
        <ele>1217.4000244141</ele>
        <time>2024-01-30T15:06:18.000Z</time>
      </trkpt>
      <trkpt lat="44.64463" lon="3.06447">
        <ele>1218.4000244141</ele>
        <time>2024-01-30T15:06:20.000Z</time>
      </trkpt>
      <trkpt lat="44.64492" lon="3.0645">
        <ele>1219.8000488281</ele>
        <time>2024-01-30T15:06:22.000Z</time>
      </trkpt>
      <trkpt lat="44.64506" lon="3.06449">
        <ele>1220.4000244141</ele>
        <time>2024-01-30T15:06:23.000Z</time>
      </trkpt>
      <trkpt lat="44.64536" lon="3.06448">
        <ele>1221</ele>
        <time>2024-01-30T15:06:25.000Z</time>
      </trkpt>
      <trkpt lat="44.64565" lon="3.06452">
        <ele>1222</ele>
        <time>2024-01-30T15:06:27.000Z</time>
      </trkpt>
      <trkpt lat="44.64581" lon="3.06457">
        <ele>1222</ele>
        <time>2024-01-30T15:06:28.000Z</time>
      </trkpt>
      <trkpt lat="44.64643" lon="3.06484">
        <ele>1222.8000488281</ele>
        <time>2024-01-30T15:06:32.000Z</time>
      </trkpt>
      <trkpt lat="44.64706" lon="3.06514">
        <ele>1223.1999511719</ele>
        <time>2024-01-30T15:06:36.000Z</time>
      </trkpt>
      <trkpt lat="44.64748" lon="3.06534">
        <ele>1222.8000488281</ele>
        <time>2024-01-30T15:06:39.000Z</time>
      </trkpt>
      <trkpt lat="44.64761" lon="3.06538">
        <ele>1222.5999755859</ele>
        <time>2024-01-30T15:06:40.000Z</time>
      </trkpt>
      <trkpt lat="44.64786" lon="3.0654">
        <ele>1222.1999511719</ele>
        <time>2024-01-30T15:06:42.000Z</time>
      </trkpt>
      <trkpt lat="44.64811" lon="3.06529">
        <ele>1222</ele>
        <time>2024-01-30T15:06:44.000Z</time>
      </trkpt>
      <trkpt lat="44.64824" lon="3.06522">
        <ele>1222</ele>
        <time>2024-01-30T15:06:45.000Z</time>
      </trkpt>
      <trkpt lat="44.6485" lon="3.0651">
        <ele>1222</ele>
        <time>2024-01-30T15:06:47.000Z</time>
      </trkpt>
      <trkpt lat="44.64863" lon="3.06508">
        <ele>1222</ele>
        <time>2024-01-30T15:06:48.000Z</time>
      </trkpt>
      <trkpt lat="44.64876" lon="3.06509">
        <ele>1222</ele>
        <time>2024-01-30T15:06:49.000Z</time>
      </trkpt>
      <trkpt lat="44.64903" lon="3.06517">
        <ele>1221.8000488281</ele>
        <time>2024-01-30T15:06:51.000Z</time>
      </trkpt>
      <trkpt lat="44.64943" lon="3.06531">
        <ele>1221</ele>
        <time>2024-01-30T15:06:54.000Z</time>
      </trkpt>
      <trkpt lat="44.64958" lon="3.06532">
        <ele>1220.8000488281</ele>
        <time>2024-01-30T15:06:55.000Z</time>
      </trkpt>
      <trkpt lat="44.65009" lon="3.06532">
        <ele>1220.4000244141</ele>
        <time>2024-01-30T15:06:59.000Z</time>
      </trkpt>
      <trkpt lat="44.65038" lon="3.06542">
        <ele>1220.5999755859</ele>
        <time>2024-01-30T15:07:01.000Z</time>
      </trkpt>
      <trkpt lat="44.65051" lon="3.0655">
        <ele>1220.4000244141</ele>
        <time>2024-01-30T15:07:02.000Z</time>
      </trkpt>
      <trkpt lat="44.65084" lon="3.06582">
        <ele>1219.8000488281</ele>
        <time>2024-01-30T15:07:05.000Z</time>
      </trkpt>
      <trkpt lat="44.65096" lon="3.06595">
        <ele>1219.4000244141</ele>
        <time>2024-01-30T15:07:06.000Z</time>
      </trkpt>
      <trkpt lat="44.65131" lon="3.06633">
        <ele>1218.5999755859</ele>
        <time>2024-01-30T15:07:09.000Z</time>
      </trkpt>
      <trkpt lat="44.6517" lon="3.06668">
        <ele>1217.8000488281</ele>
        <time>2024-01-30T15:07:12.000Z</time>
      </trkpt>
      <trkpt lat="44.65177" lon="3.06673">
        <ele>1217.5999755859</ele>
        <time>2024-01-30T15:07:13.000Z</time>
      </trkpt>
      <trkpt lat="44.6523" lon="3.06714">
        <ele>1216.5999755859</ele>
        <time>2024-01-30T15:07:17.000Z</time>
      </trkpt>
      <trkpt lat="44.65237" lon="3.06719">
        <ele>1216.4000244141</ele>
        <time>2024-01-30T15:07:18.000Z</time>
      </trkpt>
      <trkpt lat="44.65246" lon="3.06723">
        <ele>1216.1999511719</ele>
        <time>2024-01-30T15:07:19.000Z</time>
      </trkpt>
      <trkpt lat="44.65263" lon="3.06726">
        <ele>1215.8000488281</ele>
        <time>2024-01-30T15:07:21.000Z</time>
      </trkpt>
      <trkpt lat="44.65279" lon="3.06722">
        <ele>1215.4000244141</ele>
        <time>2024-01-30T15:07:23.000Z</time>
      </trkpt>
      <trkpt lat="44.65283" lon="3.0672">
        <ele>1215.4000244141</ele>
        <time>2024-01-30T15:07:24.000Z</time>
      </trkpt>
      <trkpt lat="44.65288" lon="3.06718">
        <ele>1215.4000244141</ele>
        <time>2024-01-30T15:07:25.000Z</time>
      </trkpt>
      <trkpt lat="44.65293" lon="3.06718">
        <ele>1215.1999511719</ele>
        <time>2024-01-30T15:07:27.000Z</time>
      </trkpt>
      <trkpt lat="44.65293" lon="3.06718">
        <ele>1215.1999511719</ele>
        <time>2024-01-30T15:07:30.000Z</time>
      </trkpt>
      <trkpt lat="44.65301" lon="3.06712">
        <ele>1215.8000488281</ele>
        <time>2024-01-30T15:07:38.000Z</time>
      </trkpt>
      <trkpt lat="44.65311" lon="3.06694">
        <ele>1215.8000488281</ele>
        <time>2024-01-30T15:07:42.000Z</time>
      </trkpt>
      <trkpt lat="44.65319" lon="3.06682">
        <ele>1216</ele>
        <time>2024-01-30T15:07:44.000Z</time>
      </trkpt>
      <trkpt lat="44.65328" lon="3.06665">
        <ele>1216</ele>
        <time>2024-01-30T15:07:46.000Z</time>
      </trkpt>
      <trkpt lat="44.65332" lon="3.06653">
        <ele>1216.1999511719</ele>
        <time>2024-01-30T15:07:47.000Z</time>
      </trkpt>
      <trkpt lat="44.6534" lon="3.06626">
        <ele>1216.4000244141</ele>
        <time>2024-01-30T15:07:49.000Z</time>
      </trkpt>
      <trkpt lat="44.65357" lon="3.0656">
        <ele>1216.4000244141</ele>
        <time>2024-01-30T15:07:53.000Z</time>
      </trkpt>
      <trkpt lat="44.65376" lon="3.06535">
        <ele>1216.1999511719</ele>
        <time>2024-01-30T15:07:55.000Z</time>
      </trkpt>
      <trkpt lat="44.65414" lon="3.06502">
        <ele>1216</ele>
        <time>2024-01-30T15:07:58.000Z</time>
      </trkpt>
      <trkpt lat="44.65438" lon="3.06473">
        <ele>1215.5999755859</ele>
        <time>2024-01-30T15:08:00.000Z</time>
      </trkpt>
      <trkpt lat="44.65466" lon="3.06438">
        <ele>1215.1999511719</ele>
        <time>2024-01-30T15:08:02.000Z</time>
      </trkpt>
      <trkpt lat="44.6549" lon="3.06409">
        <ele>1214.1999511719</ele>
        <time>2024-01-30T15:08:04.000Z</time>
      </trkpt>
      <trkpt lat="44.65513" lon="3.06383">
        <ele>1212.8000488281</ele>
        <time>2024-01-30T15:08:06.000Z</time>
      </trkpt>
      <trkpt lat="44.65523" lon="3.06371">
        <ele>1212.1999511719</ele>
        <time>2024-01-30T15:08:07.000Z</time>
      </trkpt>
      <trkpt lat="44.65531" lon="3.06356">
        <ele>1211.5999755859</ele>
        <time>2024-01-30T15:08:08.000Z</time>
      </trkpt>
      <trkpt lat="44.65537" lon="3.06341">
        <ele>1210.8000488281</ele>
        <time>2024-01-30T15:08:09.000Z</time>
      </trkpt>
      <trkpt lat="44.6554" lon="3.06323">
        <ele>1210.4000244141</ele>
        <time>2024-01-30T15:08:10.000Z</time>
      </trkpt>
      <trkpt lat="44.65541" lon="3.06304">
        <ele>1209.8000488281</ele>
        <time>2024-01-30T15:08:11.000Z</time>
      </trkpt>
      <trkpt lat="44.65534" lon="3.06266">
        <ele>1209</ele>
        <time>2024-01-30T15:08:13.000Z</time>
      </trkpt>
      <trkpt lat="44.65518" lon="3.06211">
        <ele>1207.8000488281</ele>
        <time>2024-01-30T15:08:16.000Z</time>
      </trkpt>
      <trkpt lat="44.65517" lon="3.06193">
        <ele>1207</ele>
        <time>2024-01-30T15:08:17.000Z</time>
      </trkpt>
      <trkpt lat="44.65518" lon="3.06175">
        <ele>1207</ele>
        <time>2024-01-30T15:08:18.000Z</time>
      </trkpt>
      <trkpt lat="44.6553" lon="3.06134">
        <ele>1206.8000488281</ele>
        <time>2024-01-30T15:08:20.000Z</time>
      </trkpt>
      <trkpt lat="44.65565" lon="3.06061">
        <ele>1208</ele>
        <time>2024-01-30T15:08:24.000Z</time>
      </trkpt>
      <trkpt lat="44.65584" lon="3.06032">
        <ele>1209</ele>
        <time>2024-01-30T15:08:26.000Z</time>
      </trkpt>
      <trkpt lat="44.65597" lon="3.06017">
        <ele>1209.1999511719</ele>
        <time>2024-01-30T15:08:27.000Z</time>
      </trkpt>
      <trkpt lat="44.65625" lon="3.05984">
        <ele>1210.4000244141</ele>
        <time>2024-01-30T15:08:29.000Z</time>
      </trkpt>
      <trkpt lat="44.65648" lon="3.05956">
        <ele>1211.1999511719</ele>
        <time>2024-01-30T15:08:31.000Z</time>
      </trkpt>
      <trkpt lat="44.65686" lon="3.05887">
        <ele>1211.1999511719</ele>
        <time>2024-01-30T15:08:35.000Z</time>
      </trkpt>
      <trkpt lat="44.6569" lon="3.05858">
        <ele>1211.4000244141</ele>
        <time>2024-01-30T15:08:37.000Z</time>
      </trkpt>
      <trkpt lat="44.65687" lon="3.05826">
        <ele>1211.5999755859</ele>
        <time>2024-01-30T15:08:39.000Z</time>
      </trkpt>
      <trkpt lat="44.65683" lon="3.0581">
        <ele>1212</ele>
        <time>2024-01-30T15:08:40.000Z</time>
      </trkpt>
      <trkpt lat="44.65676" lon="3.05791">
        <ele>1212.4000244141</ele>
        <time>2024-01-30T15:08:41.000Z</time>
      </trkpt>
      <trkpt lat="44.65667" lon="3.05778">
        <ele>1212.4000244141</ele>
        <time>2024-01-30T15:08:42.000Z</time>
      </trkpt>
      <trkpt lat="44.65658" lon="3.0577">
        <ele>1212.5999755859</ele>
        <time>2024-01-30T15:08:43.000Z</time>
      </trkpt>
      <trkpt lat="44.65636" lon="3.05757">
        <ele>1216.8000488281</ele>
        <time>2024-01-30T15:08:45.000Z</time>
      </trkpt>
      <trkpt lat="44.65615" lon="3.05741">
        <ele>1216.5999755859</ele>
        <time>2024-01-30T15:08:47.000Z</time>
      </trkpt>
      <trkpt lat="44.65608" lon="3.05733">
        <ele>1216.5999755859</ele>
        <time>2024-01-30T15:08:48.000Z</time>
      </trkpt>
      <trkpt lat="44.65605" lon="3.05723">
        <ele>1216</ele>
        <time>2024-01-30T15:08:49.000Z</time>
      </trkpt>
      <trkpt lat="44.65604" lon="3.05713">
        <ele>1215.1999511719</ele>
        <time>2024-01-30T15:08:50.000Z</time>
      </trkpt>
      <trkpt lat="44.65607" lon="3.05703">
        <ele>1214.4000244141</ele>
        <time>2024-01-30T15:08:51.000Z</time>
      </trkpt>
      <trkpt lat="44.65613" lon="3.05692">
        <ele>1214</ele>
        <time>2024-01-30T15:08:52.000Z</time>
      </trkpt>
      <trkpt lat="44.6562" lon="3.05687">
        <ele>1213.8000488281</ele>
        <time>2024-01-30T15:08:53.000Z</time>
      </trkpt>
      <trkpt lat="44.6564" lon="3.05676">
        <ele>1213.8000488281</ele>
        <time>2024-01-30T15:08:55.000Z</time>
      </trkpt>
      <trkpt lat="44.6568" lon="3.0566">
        <ele>1214.4000244141</ele>
        <time>2024-01-30T15:08:58.000Z</time>
      </trkpt>
      <trkpt lat="44.65738" lon="3.05635">
        <ele>1213</ele>
        <time>2024-01-30T15:09:02.000Z</time>
      </trkpt>
      <trkpt lat="44.6575" lon="3.05626">
        <ele>1210.5999755859</ele>
        <time>2024-01-30T15:09:03.000Z</time>
      </trkpt>
      <trkpt lat="44.65757" lon="3.05616">
        <ele>1209.4000244141</ele>
        <time>2024-01-30T15:09:04.000Z</time>
      </trkpt>
      <trkpt lat="44.65773" lon="3.05584">
        <ele>1208.1999511719</ele>
        <time>2024-01-30T15:09:06.000Z</time>
      </trkpt>
      <trkpt lat="44.65775" lon="3.05566">
        <ele>1206.5999755859</ele>
        <time>2024-01-30T15:09:07.000Z</time>
      </trkpt>
      <trkpt lat="44.65775" lon="3.05549">
        <ele>1206.1999511719</ele>
        <time>2024-01-30T15:09:08.000Z</time>
      </trkpt>
      <trkpt lat="44.65771" lon="3.05511">
        <ele>1206.1999511719</ele>
        <time>2024-01-30T15:09:10.000Z</time>
      </trkpt>
      <trkpt lat="44.65765" lon="3.05471">
        <ele>1206</ele>
        <time>2024-01-30T15:09:12.000Z</time>
        <extensions>
          <gpxtpx:TrackPointExtension xmlns:gpxtpx="http://www.garmin.com/xmlschemas/TrackPointExtension/v1">
            <gpxtpx:hr>72</gpxtpx:hr>
          </gpxtpx:TrackPointExtension>
        </extensions>
      </trkpt>
      <trkpt lat="44.65765" lon="3.05457">
        <ele>1206</ele>
        <time>2024-01-30T15:09:13.000Z</time>
        <extensions>
          <gpxtpx:TrackPointExtension xmlns:gpxtpx="http://www.garmin.com/xmlschemas/TrackPointExtension/v1">
            <gpxtpx:hr>71</gpxtpx:hr>
          </gpxtpx:TrackPointExtension>
        </extensions>
      </trkpt>
      <trkpt lat="44.65767" lon="3.05439">
        <ele>1205.4000244141</ele>
        <time>2024-01-30T15:09:14.000Z</time>
        <extensions>
          <gpxtpx:TrackPointExtension xmlns:gpxtpx="http://www.garmin.com/xmlschemas/TrackPointExtension/v1">
            <gpxtpx:hr>75</gpxtpx:hr>
          </gpxtpx:TrackPointExtension>
        </extensions>
      </trkpt>
      <trkpt lat="44.65772" lon="3.05422">
        <ele>1205</ele>
        <time>2024-01-30T15:09:15.000Z</time>
        <extensions>
          <gpxtpx:TrackPointExtension xmlns:gpxtpx="http://www.garmin.com/xmlschemas/TrackPointExtension/v1">
            <gpxtpx:hr>79</gpxtpx:hr>
          </gpxtpx:TrackPointExtension>
        </extensions>
      </trkpt>
      <trkpt lat="44.65778" lon="3.05405">
        <ele>1204.8000488281</ele>
        <time>2024-01-30T15:09:16.000Z</time>
        <extensions>
          <gpxtpx:TrackPointExtension xmlns:gpxtpx="http://www.garmin.com/xmlschemas/TrackPointExtension/v1">
            <gpxtpx:hr>78</gpxtpx:hr>
          </gpxtpx:TrackPointExtension>
        </extensions>
      </trkpt>
      <trkpt lat="44.65786" lon="3.05389">
        <ele>1204.8000488281</ele>
        <time>2024-01-30T15:09:17.000Z</time>
        <extensions>
          <gpxtpx:TrackPointExtension xmlns:gpxtpx="http://www.garmin.com/xmlschemas/TrackPointExtension/v1">
            <gpxtpx:hr>77</gpxtpx:hr>
          </gpxtpx:TrackPointExtension>
        </extensions>
      </trkpt>
      <trkpt lat="44.65815" lon="3.05339">
        <ele>1204.1999511719</ele>
        <time>2024-01-30T15:09:20.000Z</time>
        <extensions>
          <gpxtpx:TrackPointExtension xmlns:gpxtpx="http://www.garmin.com/xmlschemas/TrackPointExtension/v1">
            <gpxtpx:hr>75</gpxtpx:hr>
          </gpxtpx:TrackPointExtension>
        </extensions>
      </trkpt>
      <trkpt lat="44.65834" lon="3.05306">
        <ele>1202.8000488281</ele>
        <time>2024-01-30T15:09:22.000Z</time>
        <extensions>
          <gpxtpx:TrackPointExtension xmlns:gpxtpx="http://www.garmin.com/xmlschemas/TrackPointExtension/v1">
            <gpxtpx:hr>76</gpxtpx:hr>
          </gpxtpx:TrackPointExtension>
        </extensions>
      </trkpt>
      <trkpt lat="44.65844" lon="3.05289">
        <ele>1201.5999755859</ele>
        <time>2024-01-30T15:09:23.000Z</time>
        <extensions>
          <gpxtpx:TrackPointExtension xmlns:gpxtpx="http://www.garmin.com/xmlschemas/TrackPointExtension/v1">
            <gpxtpx:hr>78</gpxtpx:hr>
          </gpxtpx:TrackPointExtension>
        </extensions>
      </trkpt>
      <trkpt lat="44.65857" lon="3.05271">
        <ele>1200.1999511719</ele>
        <time>2024-01-30T15:09:24.000Z</time>
        <extensions>
          <gpxtpx:TrackPointExtension xmlns:gpxtpx="http://www.garmin.com/xmlschemas/TrackPointExtension/v1">
            <gpxtpx:hr>77</gpxtpx:hr>
          </gpxtpx:TrackPointExtension>
        </extensions>
      </trkpt>
      <trkpt lat="44.65866" lon="3.05259">
        <ele>1196.4000244141</ele>
        <time>2024-01-30T15:09:25.000Z</time>
        <extensions>
          <gpxtpx:TrackPointExtension xmlns:gpxtpx="http://www.garmin.com/xmlschemas/TrackPointExtension/v1">
            <gpxtpx:hr>78</gpxtpx:hr>
          </gpxtpx:TrackPointExtension>
        </extensions>
      </trkpt>
      <trkpt lat="44.65878" lon="3.05246">
        <ele>1195</ele>
        <time>2024-01-30T15:09:26.000Z</time>
        <extensions>
          <gpxtpx:TrackPointExtension xmlns:gpxtpx="http://www.garmin.com/xmlschemas/TrackPointExtension/v1">
            <gpxtpx:hr>81</gpxtpx:hr>
          </gpxtpx:TrackPointExtension>
        </extensions>
      </trkpt>
      <trkpt lat="44.65892" lon="3.05231">
        <ele>1193.5999755859</ele>
        <time>2024-01-30T15:09:27.000Z</time>
        <extensions>
          <gpxtpx:TrackPointExtension xmlns:gpxtpx="http://www.garmin.com/xmlschemas/TrackPointExtension/v1">
            <gpxtpx:hr>83</gpxtpx:hr>
          </gpxtpx:TrackPointExtension>
        </extensions>
      </trkpt>
      <trkpt lat="44.65904" lon="3.05219">
        <ele>1192</ele>
        <time>2024-01-30T15:09:28.000Z</time>
        <extensions>
          <gpxtpx:TrackPointExtension xmlns:gpxtpx="http://www.garmin.com/xmlschemas/TrackPointExtension/v1">
            <gpxtpx:hr>85</gpxtpx:hr>
          </gpxtpx:TrackPointExtension>
        </extensions>
      </trkpt>
      <trkpt lat="44.65925" lon="3.05198">
        <ele>1190.5999755859</ele>
        <time>2024-01-30T15:09:30.000Z</time>
        <extensions>
          <gpxtpx:TrackPointExtension xmlns:gpxtpx="http://www.garmin.com/xmlschemas/TrackPointExtension/v1">
            <gpxtpx:hr>88</gpxtpx:hr>
          </gpxtpx:TrackPointExtension>
        </extensions>
      </trkpt>
      <trkpt lat="44.65936" lon="3.05187">
        <ele>1189.8000488281</ele>
        <time>2024-01-30T15:09:31.000Z</time>
        <extensions>
          <gpxtpx:TrackPointExtension xmlns:gpxtpx="http://www.garmin.com/xmlschemas/TrackPointExtension/v1">
            <gpxtpx:hr>85</gpxtpx:hr>
          </gpxtpx:TrackPointExtension>
        </extensions>
      </trkpt>
      <trkpt lat="44.65947" lon="3.05176">
        <ele>1189.1999511719</ele>
        <time>2024-01-30T15:09:32.000Z</time>
        <extensions>
          <gpxtpx:TrackPointExtension xmlns:gpxtpx="http://www.garmin.com/xmlschemas/TrackPointExtension/v1">
            <gpxtpx:hr>85</gpxtpx:hr>
          </gpxtpx:TrackPointExtension>
        </extensions>
      </trkpt>
      <trkpt lat="44.65977" lon="3.05144">
        <ele>1188.1999511719</ele>
        <time>2024-01-30T15:09:35.000Z</time>
        <extensions>
          <gpxtpx:TrackPointExtension xmlns:gpxtpx="http://www.garmin.com/xmlschemas/TrackPointExtension/v1">
            <gpxtpx:hr>86</gpxtpx:hr>
          </gpxtpx:TrackPointExtension>
        </extensions>
      </trkpt>
      <trkpt lat="44.65999" lon="3.05122">
        <ele>1187.1999511719</ele>
        <time>2024-01-30T15:09:37.000Z</time>
        <extensions>
          <gpxtpx:TrackPointExtension xmlns:gpxtpx="http://www.garmin.com/xmlschemas/TrackPointExtension/v1">
            <gpxtpx:hr>85</gpxtpx:hr>
          </gpxtpx:TrackPointExtension>
        </extensions>
      </trkpt>
      <trkpt lat="44.66005" lon="3.05116">
        <ele>1187</ele>
        <time>2024-01-30T15:09:38.000Z</time>
        <extensions>
          <gpxtpx:TrackPointExtension xmlns:gpxtpx="http://www.garmin.com/xmlschemas/TrackPointExtension/v1">
            <gpxtpx:hr>83</gpxtpx:hr>
          </gpxtpx:TrackPointExtension>
        </extensions>
      </trkpt>
      <trkpt lat="44.66028" lon="3.05091">
        <ele>1186.1999511719</ele>
        <time>2024-01-30T15:09:41.000Z</time>
        <extensions>
          <gpxtpx:TrackPointExtension xmlns:gpxtpx="http://www.garmin.com/xmlschemas/TrackPointExtension/v1">
            <gpxtpx:hr>83</gpxtpx:hr>
          </gpxtpx:TrackPointExtension>
        </extensions>
      </trkpt>
      <trkpt lat="44.66036" lon="3.05082">
        <ele>1186</ele>
        <time>2024-01-30T15:09:42.000Z</time>
        <extensions>
          <gpxtpx:TrackPointExtension xmlns:gpxtpx="http://www.garmin.com/xmlschemas/TrackPointExtension/v1">
            <gpxtpx:hr>81</gpxtpx:hr>
          </gpxtpx:TrackPointExtension>
        </extensions>
      </trkpt>
      <trkpt lat="44.66068" lon="3.05041">
        <ele>1185.1999511719</ele>
        <time>2024-01-30T15:09:46.000Z</time>
        <extensions>
          <gpxtpx:TrackPointExtension xmlns:gpxtpx="http://www.garmin.com/xmlschemas/TrackPointExtension/v1">
            <gpxtpx:hr>81</gpxtpx:hr>
          </gpxtpx:TrackPointExtension>
        </extensions>
      </trkpt>
      <trkpt lat="44.66077" lon="3.05031">
        <ele>1184.4000244141</ele>
        <time>2024-01-30T15:09:47.000Z</time>
        <extensions>
          <gpxtpx:TrackPointExtension xmlns:gpxtpx="http://www.garmin.com/xmlschemas/TrackPointExtension/v1">
            <gpxtpx:hr>81</gpxtpx:hr>
          </gpxtpx:TrackPointExtension>
        </extensions>
      </trkpt>
      <trkpt lat="44.6611" lon="3.05002">
        <ele>1183</ele>
        <time>2024-01-30T15:09:50.000Z</time>
        <extensions>
          <gpxtpx:TrackPointExtension xmlns:gpxtpx="http://www.garmin.com/xmlschemas/TrackPointExtension/v1">
            <gpxtpx:hr>79</gpxtpx:hr>
          </gpxtpx:TrackPointExtension>
        </extensions>
      </trkpt>
      <trkpt lat="44.66117" lon="3.04994">
        <ele>1182.4000244141</ele>
        <time>2024-01-30T15:09:51.000Z</time>
        <extensions>
          <gpxtpx:TrackPointExtension xmlns:gpxtpx="http://www.garmin.com/xmlschemas/TrackPointExtension/v1">
            <gpxtpx:hr>80</gpxtpx:hr>
          </gpxtpx:TrackPointExtension>
        </extensions>
      </trkpt>
      <trkpt lat="44.66129" lon="3.04981">
        <ele>1181.5999755859</ele>
        <time>2024-01-30T15:09:52.000Z</time>
        <extensions>
          <gpxtpx:TrackPointExtension xmlns:gpxtpx="http://www.garmin.com/xmlschemas/TrackPointExtension/v1">
            <gpxtpx:hr>81</gpxtpx:hr>
          </gpxtpx:TrackPointExtension>
        </extensions>
      </trkpt>
      <trkpt lat="44.66144" lon="3.0496">
        <ele>1181.4000244141</ele>
        <time>2024-01-30T15:09:54.000Z</time>
        <extensions>
          <gpxtpx:TrackPointExtension xmlns:gpxtpx="http://www.garmin.com/xmlschemas/TrackPointExtension/v1">
            <gpxtpx:hr>80</gpxtpx:hr>
          </gpxtpx:TrackPointExtension>
        </extensions>
      </trkpt>
      <trkpt lat="44.66163" lon="3.04929">
        <ele>1180.4000244141</ele>
        <time>2024-01-30T15:09:57.000Z</time>
        <extensions>
          <gpxtpx:TrackPointExtension xmlns:gpxtpx="http://www.garmin.com/xmlschemas/TrackPointExtension/v1">
            <gpxtpx:hr>78</gpxtpx:hr>
          </gpxtpx:TrackPointExtension>
        </extensions>
      </trkpt>
      <trkpt lat="44.66169" lon="3.04906">
        <ele>1180</ele>
        <time>2024-01-30T15:09:59.000Z</time>
        <extensions>
          <gpxtpx:TrackPointExtension xmlns:gpxtpx="http://www.garmin.com/xmlschemas/TrackPointExtension/v1">
            <gpxtpx:hr>77</gpxtpx:hr>
          </gpxtpx:TrackPointExtension>
        </extensions>
      </trkpt>
      <trkpt lat="44.6617" lon="3.04898">
        <ele>1179.4000244141</ele>
        <time>2024-01-30T15:10:00.000Z</time>
        <extensions>
          <gpxtpx:TrackPointExtension xmlns:gpxtpx="http://www.garmin.com/xmlschemas/TrackPointExtension/v1">
            <gpxtpx:hr>77</gpxtpx:hr>
          </gpxtpx:TrackPointExtension>
        </extensions>
      </trkpt>
      <trkpt lat="44.6617" lon="3.04886">
        <ele>1178.4000244141</ele>
        <time>2024-01-30T15:10:01.000Z</time>
        <extensions>
          <gpxtpx:TrackPointExtension xmlns:gpxtpx="http://www.garmin.com/xmlschemas/TrackPointExtension/v1">
            <gpxtpx:hr>76</gpxtpx:hr>
          </gpxtpx:TrackPointExtension>
        </extensions>
      </trkpt>
      <trkpt lat="44.66169" lon="3.04865">
        <ele>1176.5999755859</ele>
        <time>2024-01-30T15:10:04.000Z</time>
        <extensions>
          <gpxtpx:TrackPointExtension xmlns:gpxtpx="http://www.garmin.com/xmlschemas/TrackPointExtension/v1">
            <gpxtpx:hr>76</gpxtpx:hr>
          </gpxtpx:TrackPointExtension>
        </extensions>
      </trkpt>
      <trkpt lat="44.66171" lon="3.04858">
        <ele>1175.1999511719</ele>
        <time>2024-01-30T15:10:06.000Z</time>
        <extensions>
          <gpxtpx:TrackPointExtension xmlns:gpxtpx="http://www.garmin.com/xmlschemas/TrackPointExtension/v1">
            <gpxtpx:hr>76</gpxtpx:hr>
          </gpxtpx:TrackPointExtension>
        </extensions>
      </trkpt>
      <trkpt lat="44.66172" lon="3.04856">
        <ele>1175</ele>
        <time>2024-01-30T15:10:07.000Z</time>
        <extensions>
          <gpxtpx:TrackPointExtension xmlns:gpxtpx="http://www.garmin.com/xmlschemas/TrackPointExtension/v1">
            <gpxtpx:hr>75</gpxtpx:hr>
          </gpxtpx:TrackPointExtension>
        </extensions>
      </trkpt>
      <trkpt lat="44.66169" lon="3.0484">
        <ele>1174.8000488281</ele>
        <time>2024-01-30T15:10:11.000Z</time>
        <extensions>
          <gpxtpx:TrackPointExtension xmlns:gpxtpx="http://www.garmin.com/xmlschemas/TrackPointExtension/v1">
            <gpxtpx:hr>77</gpxtpx:hr>
          </gpxtpx:TrackPointExtension>
        </extensions>
      </trkpt>
      <trkpt lat="44.66158" lon="3.04805">
        <ele>1176.1999511719</ele>
        <time>2024-01-30T15:10:15.000Z</time>
        <extensions>
          <gpxtpx:TrackPointExtension xmlns:gpxtpx="http://www.garmin.com/xmlschemas/TrackPointExtension/v1">
            <gpxtpx:hr>76</gpxtpx:hr>
          </gpxtpx:TrackPointExtension>
        </extensions>
      </trkpt>
      <trkpt lat="44.66155" lon="3.04795">
        <ele>1176.4000244141</ele>
        <time>2024-01-30T15:10:16.000Z</time>
        <extensions>
          <gpxtpx:TrackPointExtension xmlns:gpxtpx="http://www.garmin.com/xmlschemas/TrackPointExtension/v1">
            <gpxtpx:hr>77</gpxtpx:hr>
          </gpxtpx:TrackPointExtension>
        </extensions>
      </trkpt>
      <trkpt lat="44.66144" lon="3.04754">
        <ele>1177.1999511719</ele>
        <time>2024-01-30T15:10:19.000Z</time>
        <extensions>
          <gpxtpx:TrackPointExtension xmlns:gpxtpx="http://www.garmin.com/xmlschemas/TrackPointExtension/v1">
            <gpxtpx:hr>76</gpxtpx:hr>
          </gpxtpx:TrackPointExtension>
        </extensions>
      </trkpt>
      <trkpt lat="44.66135" lon="3.04715">
        <ele>1177.1999511719</ele>
        <time>2024-01-30T15:10:22.000Z</time>
        <extensions>
          <gpxtpx:TrackPointExtension xmlns:gpxtpx="http://www.garmin.com/xmlschemas/TrackPointExtension/v1">
            <gpxtpx:hr>78</gpxtpx:hr>
          </gpxtpx:TrackPointExtension>
        </extensions>
      </trkpt>
      <trkpt lat="44.66134" lon="3.04701">
        <ele>1177</ele>
        <time>2024-01-30T15:10:23.000Z</time>
        <extensions>
          <gpxtpx:TrackPointExtension xmlns:gpxtpx="http://www.garmin.com/xmlschemas/TrackPointExtension/v1">
            <gpxtpx:hr>78</gpxtpx:hr>
          </gpxtpx:TrackPointExtension>
        </extensions>
      </trkpt>
      <trkpt lat="44.66134" lon="3.04688">
        <ele>1177</ele>
        <time>2024-01-30T15:10:24.000Z</time>
        <extensions>
          <gpxtpx:TrackPointExtension xmlns:gpxtpx="http://www.garmin.com/xmlschemas/TrackPointExtension/v1">
            <gpxtpx:hr>78</gpxtpx:hr>
          </gpxtpx:TrackPointExtension>
        </extensions>
      </trkpt>
      <trkpt lat="44.6614" lon="3.04661">
        <ele>1176.4000244141</ele>
        <time>2024-01-30T15:10:26.000Z</time>
        <extensions>
          <gpxtpx:TrackPointExtension xmlns:gpxtpx="http://www.garmin.com/xmlschemas/TrackPointExtension/v1">
            <gpxtpx:hr>78</gpxtpx:hr>
          </gpxtpx:TrackPointExtension>
        </extensions>
      </trkpt>
      <trkpt lat="44.6615" lon="3.04639">
        <ele>1176</ele>
        <time>2024-01-30T15:10:28.000Z</time>
        <extensions>
          <gpxtpx:TrackPointExtension xmlns:gpxtpx="http://www.garmin.com/xmlschemas/TrackPointExtension/v1">
            <gpxtpx:hr>79</gpxtpx:hr>
          </gpxtpx:TrackPointExtension>
        </extensions>
      </trkpt>
      <trkpt lat="44.66156" lon="3.04629">
        <ele>1175.8000488281</ele>
        <time>2024-01-30T15:10:29.000Z</time>
        <extensions>
          <gpxtpx:TrackPointExtension xmlns:gpxtpx="http://www.garmin.com/xmlschemas/TrackPointExtension/v1">
            <gpxtpx:hr>78</gpxtpx:hr>
          </gpxtpx:TrackPointExtension>
        </extensions>
      </trkpt>
      <trkpt lat="44.66161" lon="3.04624">
        <ele>1175.1999511719</ele>
        <time>2024-01-30T15:10:30.000Z</time>
        <extensions>
          <gpxtpx:TrackPointExtension xmlns:gpxtpx="http://www.garmin.com/xmlschemas/TrackPointExtension/v1">
            <gpxtpx:hr>79</gpxtpx:hr>
          </gpxtpx:TrackPointExtension>
        </extensions>
      </trkpt>
      <trkpt lat="44.66178" lon="3.04622">
        <ele>1174.5999755859</ele>
        <time>2024-01-30T15:10:32.000Z</time>
        <extensions>
          <gpxtpx:TrackPointExtension xmlns:gpxtpx="http://www.garmin.com/xmlschemas/TrackPointExtension/v1">
            <gpxtpx:hr>79</gpxtpx:hr>
          </gpxtpx:TrackPointExtension>
        </extensions>
      </trkpt>
      <trkpt lat="44.66192" lon="3.04632">
        <ele>1174.5999755859</ele>
        <time>2024-01-30T15:10:34.000Z</time>
        <extensions>
          <gpxtpx:TrackPointExtension xmlns:gpxtpx="http://www.garmin.com/xmlschemas/TrackPointExtension/v1">
            <gpxtpx:hr>82</gpxtpx:hr>
          </gpxtpx:TrackPointExtension>
        </extensions>
      </trkpt>
      <trkpt lat="44.662" lon="3.04639">
        <ele>1174.5999755859</ele>
        <time>2024-01-30T15:10:35.000Z</time>
        <extensions>
          <gpxtpx:TrackPointExtension xmlns:gpxtpx="http://www.garmin.com/xmlschemas/TrackPointExtension/v1">
            <gpxtpx:hr>84</gpxtpx:hr>
          </gpxtpx:TrackPointExtension>
        </extensions>
      </trkpt>
      <trkpt lat="44.66224" lon="3.04661">
        <ele>1176.5999755859</ele>
        <time>2024-01-30T15:10:38.000Z</time>
        <extensions>
          <gpxtpx:TrackPointExtension xmlns:gpxtpx="http://www.garmin.com/xmlschemas/TrackPointExtension/v1">
            <gpxtpx:hr>84</gpxtpx:hr>
          </gpxtpx:TrackPointExtension>
        </extensions>
      </trkpt>
      <trkpt lat="44.66239" lon="3.04671">
        <ele>1177</ele>
        <time>2024-01-30T15:10:40.000Z</time>
        <extensions>
          <gpxtpx:TrackPointExtension xmlns:gpxtpx="http://www.garmin.com/xmlschemas/TrackPointExtension/v1">
            <gpxtpx:hr>85</gpxtpx:hr>
          </gpxtpx:TrackPointExtension>
        </extensions>
      </trkpt>
      <trkpt lat="44.66245" lon="3.04674">
        <ele>1177</ele>
        <time>2024-01-30T15:10:41.000Z</time>
        <extensions>
          <gpxtpx:TrackPointExtension xmlns:gpxtpx="http://www.garmin.com/xmlschemas/TrackPointExtension/v1">
            <gpxtpx:hr>85</gpxtpx:hr>
          </gpxtpx:TrackPointExtension>
        </extensions>
      </trkpt>
      <trkpt lat="44.66251" lon="3.04674">
        <ele>1177</ele>
        <time>2024-01-30T15:10:42.000Z</time>
        <extensions>
          <gpxtpx:TrackPointExtension xmlns:gpxtpx="http://www.garmin.com/xmlschemas/TrackPointExtension/v1">
            <gpxtpx:hr>85</gpxtpx:hr>
          </gpxtpx:TrackPointExtension>
        </extensions>
      </trkpt>
      <trkpt lat="44.6626" lon="3.0467">
        <ele>1177.1999511719</ele>
        <time>2024-01-30T15:10:44.000Z</time>
        <extensions>
          <gpxtpx:TrackPointExtension xmlns:gpxtpx="http://www.garmin.com/xmlschemas/TrackPointExtension/v1">
            <gpxtpx:hr>83</gpxtpx:hr>
          </gpxtpx:TrackPointExtension>
        </extensions>
      </trkpt>
      <trkpt lat="44.66264" lon="3.0466">
        <ele>1177.8000488281</ele>
        <time>2024-01-30T15:10:46.000Z</time>
        <extensions>
          <gpxtpx:TrackPointExtension xmlns:gpxtpx="http://www.garmin.com/xmlschemas/TrackPointExtension/v1">
            <gpxtpx:hr>83</gpxtpx:hr>
          </gpxtpx:TrackPointExtension>
        </extensions>
      </trkpt>
      <trkpt lat="44.66266" lon="3.04653">
        <ele>1178.5999755859</ele>
        <time>2024-01-30T15:10:47.000Z</time>
        <extensions>
          <gpxtpx:TrackPointExtension xmlns:gpxtpx="http://www.garmin.com/xmlschemas/TrackPointExtension/v1">
            <gpxtpx:hr>83</gpxtpx:hr>
          </gpxtpx:TrackPointExtension>
        </extensions>
      </trkpt>
      <trkpt lat="44.66267" lon="3.04646">
        <ele>1178.8000488281</ele>
        <time>2024-01-30T15:10:48.000Z</time>
        <extensions>
          <gpxtpx:TrackPointExtension xmlns:gpxtpx="http://www.garmin.com/xmlschemas/TrackPointExtension/v1">
            <gpxtpx:hr>84</gpxtpx:hr>
          </gpxtpx:TrackPointExtension>
        </extensions>
      </trkpt>
      <trkpt lat="44.66267" lon="3.04638">
        <ele>1179.4000244141</ele>
        <time>2024-01-30T15:10:49.000Z</time>
        <extensions>
          <gpxtpx:TrackPointExtension xmlns:gpxtpx="http://www.garmin.com/xmlschemas/TrackPointExtension/v1">
            <gpxtpx:hr>84</gpxtpx:hr>
          </gpxtpx:TrackPointExtension>
        </extensions>
      </trkpt>
      <trkpt lat="44.66267" lon="3.04629">
        <ele>1179.8000488281</ele>
        <time>2024-01-30T15:10:50.000Z</time>
        <extensions>
          <gpxtpx:TrackPointExtension xmlns:gpxtpx="http://www.garmin.com/xmlschemas/TrackPointExtension/v1">
            <gpxtpx:hr>84</gpxtpx:hr>
          </gpxtpx:TrackPointExtension>
        </extensions>
      </trkpt>
      <trkpt lat="44.66268" lon="3.04621">
        <ele>1180.4000244141</ele>
        <time>2024-01-30T15:10:51.000Z</time>
        <extensions>
          <gpxtpx:TrackPointExtension xmlns:gpxtpx="http://www.garmin.com/xmlschemas/TrackPointExtension/v1">
            <gpxtpx:hr>84</gpxtpx:hr>
          </gpxtpx:TrackPointExtension>
        </extensions>
      </trkpt>
      <trkpt lat="44.66268" lon="3.04613">
        <ele>1181</ele>
        <time>2024-01-30T15:10:52.000Z</time>
        <extensions>
          <gpxtpx:TrackPointExtension xmlns:gpxtpx="http://www.garmin.com/xmlschemas/TrackPointExtension/v1">
            <gpxtpx:hr>84</gpxtpx:hr>
          </gpxtpx:TrackPointExtension>
        </extensions>
      </trkpt>
      <trkpt lat="44.66268" lon="3.04597">
        <ele>1182</ele>
        <time>2024-01-30T15:10:54.000Z</time>
        <extensions>
          <gpxtpx:TrackPointExtension xmlns:gpxtpx="http://www.garmin.com/xmlschemas/TrackPointExtension/v1">
            <gpxtpx:hr>83</gpxtpx:hr>
          </gpxtpx:TrackPointExtension>
        </extensions>
      </trkpt>
      <trkpt lat="44.66268" lon="3.04578">
        <ele>1182.8000488281</ele>
        <time>2024-01-30T15:10:56.000Z</time>
      </trkpt>
      <trkpt lat="44.66268" lon="3.04569">
        <ele>1183.1999511719</ele>
        <time>2024-01-30T15:10:57.000Z</time>
      </trkpt>
      <trkpt lat="44.66267" lon="3.04559">
        <ele>1183.5999755859</ele>
        <time>2024-01-30T15:10:58.000Z</time>
      </trkpt>
      <trkpt lat="44.66264" lon="3.04537">
        <ele>1184.4000244141</ele>
        <time>2024-01-30T15:11:00.000Z</time>
      </trkpt>
      <trkpt lat="44.66264" lon="3.04501">
        <ele>1184.4000244141</ele>
        <time>2024-01-30T15:11:03.000Z</time>
      </trkpt>
      <trkpt lat="44.66265" lon="3.04491">
        <ele>1184.4000244141</ele>
        <time>2024-01-30T15:11:04.000Z</time>
      </trkpt>
      <trkpt lat="44.66266" lon="3.04482">
        <ele>1183.5999755859</ele>
        <time>2024-01-30T15:11:05.000Z</time>
      </trkpt>
      <trkpt lat="44.66267" lon="3.04477">
        <ele>1183.4000244141</ele>
        <time>2024-01-30T15:11:06.000Z</time>
      </trkpt>
      <trkpt lat="44.66269" lon="3.04472">
        <ele>1182.5999755859</ele>
        <time>2024-01-30T15:11:07.000Z</time>
      </trkpt>
      <trkpt lat="44.66272" lon="3.04469">
        <ele>1182</ele>
        <time>2024-01-30T15:11:08.000Z</time>
      </trkpt>
      <trkpt lat="44.66281" lon="3.04465">
        <ele>1182</ele>
        <time>2024-01-30T15:11:10.000Z</time>
      </trkpt>
      <trkpt lat="44.66303" lon="3.04454">
        <ele>1183.1999511719</ele>
        <time>2024-01-30T15:11:13.000Z</time>
      </trkpt>
      <trkpt lat="44.66339" lon="3.04433">
        <ele>1184.1999511719</ele>
        <time>2024-01-30T15:11:17.000Z</time>
      </trkpt>
      <trkpt lat="44.66392" lon="3.04394">
        <ele>1184.4000244141</ele>
        <time>2024-01-30T15:11:23.000Z</time>
      </trkpt>
      <trkpt lat="44.66401" lon="3.04387">
        <ele>1184.4000244141</ele>
        <time>2024-01-30T15:11:24.000Z</time>
      </trkpt>
      <trkpt lat="44.6645" lon="3.04347">
        <ele>1183.8000488281</ele>
        <time>2024-01-30T15:11:29.000Z</time>
      </trkpt>
      <trkpt lat="44.66471" lon="3.04331">
        <ele>1183.5999755859</ele>
        <time>2024-01-30T15:11:31.000Z</time>
      </trkpt>
      <trkpt lat="44.66502" lon="3.04305">
        <ele>1183.8000488281</ele>
        <time>2024-01-30T15:11:34.000Z</time>
      </trkpt>
      <trkpt lat="44.66511" lon="3.04295">
        <ele>1183.8000488281</ele>
        <time>2024-01-30T15:11:35.000Z</time>
      </trkpt>
      <trkpt lat="44.66541" lon="3.04243">
        <ele>1184</ele>
        <time>2024-01-30T15:11:39.000Z</time>
      </trkpt>
      <trkpt lat="44.66563" lon="3.04203">
        <ele>1185.4000244141</ele>
        <time>2024-01-30T15:11:42.000Z</time>
      </trkpt>
      <trkpt lat="44.66586" lon="3.04162">
        <ele>1185.8000488281</ele>
        <time>2024-01-30T15:11:45.000Z</time>
      </trkpt>
      <trkpt lat="44.66595" lon="3.04149">
        <ele>1186</ele>
        <time>2024-01-30T15:11:46.000Z</time>
      </trkpt>
      <trkpt lat="44.66616" lon="3.04128">
        <ele>1186</ele>
        <time>2024-01-30T15:11:48.000Z</time>
      </trkpt>
      <trkpt lat="44.66638" lon="3.04115">
        <ele>1185.8000488281</ele>
        <time>2024-01-30T15:11:50.000Z</time>
      </trkpt>
      <trkpt lat="44.6665" lon="3.04111">
        <ele>1185.5999755859</ele>
        <time>2024-01-30T15:11:51.000Z</time>
      </trkpt>
      <trkpt lat="44.66691" lon="3.04099">
        <ele>1185.1999511719</ele>
        <time>2024-01-30T15:11:55.000Z</time>
      </trkpt>
      <trkpt lat="44.66738" lon="3.04093">
        <ele>1185.1999511719</ele>
        <time>2024-01-30T15:11:59.000Z</time>
      </trkpt>
      <trkpt lat="44.66799" lon="3.04084">
        <ele>1186.4000244141</ele>
        <time>2024-01-30T15:12:03.000Z</time>
      </trkpt>
      <trkpt lat="44.66863" lon="3.04071">
        <ele>1186.1999511719</ele>
        <time>2024-01-30T15:12:07.000Z</time>
      </trkpt>
      <trkpt lat="44.6691" lon="3.04061">
        <ele>1185.4000244141</ele>
        <time>2024-01-30T15:12:10.000Z</time>
      </trkpt>
      <trkpt lat="44.66925" lon="3.04059">
        <ele>1185.1999511719</ele>
        <time>2024-01-30T15:12:11.000Z</time>
      </trkpt>
      <trkpt lat="44.66956" lon="3.04054">
        <ele>1183.5999755859</ele>
        <time>2024-01-30T15:12:13.000Z</time>
      </trkpt>
      <trkpt lat="44.66971" lon="3.04052">
        <ele>1182.1999511719</ele>
        <time>2024-01-30T15:12:14.000Z</time>
      </trkpt>
      <trkpt lat="44.66987" lon="3.04049">
        <ele>1181</ele>
        <time>2024-01-30T15:12:15.000Z</time>
      </trkpt>
      <trkpt lat="44.67034" lon="3.04041">
        <ele>1179.8000488281</ele>
        <time>2024-01-30T15:12:18.000Z</time>
      </trkpt>
      <trkpt lat="44.67065" lon="3.04035">
        <ele>1178</ele>
        <time>2024-01-30T15:12:20.000Z</time>
      </trkpt>
      <trkpt lat="44.67099" lon="3.04028">
        <ele>1176.8000488281</ele>
        <time>2024-01-30T15:12:22.000Z</time>
      </trkpt>
      <trkpt lat="44.67157" lon="3.04013">
        <ele>1175.5999755859</ele>
        <time>2024-01-30T15:12:26.000Z</time>
      </trkpt>
      <trkpt lat="44.6719" lon="3.03999">
        <ele>1174.4000244141</ele>
        <time>2024-01-30T15:12:28.000Z</time>
      </trkpt>
      <trkpt lat="44.67202" lon="3.03993">
        <ele>1172.8000488281</ele>
        <time>2024-01-30T15:12:29.000Z</time>
      </trkpt>
      <trkpt lat="44.6722" lon="3.03984">
        <ele>1171.5999755859</ele>
        <time>2024-01-30T15:12:30.000Z</time>
      </trkpt>
      <trkpt lat="44.67247" lon="3.03973">
        <ele>1169.8000488281</ele>
        <time>2024-01-30T15:12:32.000Z</time>
      </trkpt>
      <trkpt lat="44.67278" lon="3.03963">
        <ele>1168.4000244141</ele>
        <time>2024-01-30T15:12:34.000Z</time>
      </trkpt>
      <trkpt lat="44.67308" lon="3.03959">
        <ele>1166.5999755859</ele>
        <time>2024-01-30T15:12:36.000Z</time>
      </trkpt>
      <trkpt lat="44.67327" lon="3.03959">
        <ele>1165.5999755859</ele>
        <time>2024-01-30T15:12:37.000Z</time>
      </trkpt>
      <trkpt lat="44.67377" lon="3.0396">
        <ele>1165</ele>
        <time>2024-01-30T15:12:40.000Z</time>
      </trkpt>
      <trkpt lat="44.67431" lon="3.03959">
        <ele>1163.5999755859</ele>
        <time>2024-01-30T15:12:43.000Z</time>
      </trkpt>
      <trkpt lat="44.67446" lon="3.03958">
        <ele>1163.1999511719</ele>
        <time>2024-01-30T15:12:44.000Z</time>
      </trkpt>
      <trkpt lat="44.67468" lon="3.03956">
        <ele>1162.1999511719</ele>
        <time>2024-01-30T15:12:45.000Z</time>
      </trkpt>
      <trkpt lat="44.67486" lon="3.03955">
        <ele>1161</ele>
        <time>2024-01-30T15:12:46.000Z</time>
      </trkpt>
      <trkpt lat="44.67519" lon="3.03952">
        <ele>1159</ele>
        <time>2024-01-30T15:12:48.000Z</time>
      </trkpt>
      <trkpt lat="44.67538" lon="3.0395">
        <ele>1157.5999755859</ele>
        <time>2024-01-30T15:12:49.000Z</time>
      </trkpt>
      <trkpt lat="44.67557" lon="3.03947">
        <ele>1156.1999511719</ele>
        <time>2024-01-30T15:12:50.000Z</time>
      </trkpt>
      <trkpt lat="44.67599" lon="3.03941">
        <ele>1154.4000244141</ele>
        <time>2024-01-30T15:12:52.000Z</time>
      </trkpt>
      <trkpt lat="44.67634" lon="3.03936">
        <ele>1152.1999511719</ele>
        <time>2024-01-30T15:12:54.000Z</time>
      </trkpt>
      <trkpt lat="44.67653" lon="3.03933">
        <ele>1150.8000488281</ele>
        <time>2024-01-30T15:12:55.000Z</time>
      </trkpt>
      <trkpt lat="44.67696" lon="3.03926">
        <ele>1149.4000244141</ele>
        <time>2024-01-30T15:12:57.000Z</time>
      </trkpt>
      <trkpt lat="44.67731" lon="3.03922">
        <ele>1146.8000488281</ele>
        <time>2024-01-30T15:12:59.000Z</time>
      </trkpt>
      <trkpt lat="44.67754" lon="3.03919">
        <ele>1145.8000488281</ele>
        <time>2024-01-30T15:13:00.000Z</time>
      </trkpt>
      <trkpt lat="44.67788" lon="3.03917">
        <ele>1143</ele>
        <time>2024-01-30T15:13:02.000Z</time>
      </trkpt>
      <trkpt lat="44.6781" lon="3.03918">
        <ele>1141</ele>
        <time>2024-01-30T15:13:03.000Z</time>
      </trkpt>
      <trkpt lat="44.67824" lon="3.03923">
        <ele>1139.8000488281</ele>
        <time>2024-01-30T15:13:04.000Z</time>
      </trkpt>
      <trkpt lat="44.67845" lon="3.03932">
        <ele>1137.8000488281</ele>
        <time>2024-01-30T15:13:05.000Z</time>
      </trkpt>
      <trkpt lat="44.67858" lon="3.03942">
        <ele>1137.1999511719</ele>
        <time>2024-01-30T15:13:06.000Z</time>
      </trkpt>
      <trkpt lat="44.67874" lon="3.03956">
        <ele>1136.1999511719</ele>
        <time>2024-01-30T15:13:07.000Z</time>
      </trkpt>
      <trkpt lat="44.67893" lon="3.03971">
        <ele>1135.1999511719</ele>
        <time>2024-01-30T15:13:08.000Z</time>
      </trkpt>
      <trkpt lat="44.67924" lon="3.03991">
        <ele>1133.8000488281</ele>
        <time>2024-01-30T15:13:10.000Z</time>
      </trkpt>
      <trkpt lat="44.67947" lon="3.04002">
        <ele>1132.5999755859</ele>
        <time>2024-01-30T15:13:11.000Z</time>
      </trkpt>
      <trkpt lat="44.67982" lon="3.04017">
        <ele>1131</ele>
        <time>2024-01-30T15:13:13.000Z</time>
      </trkpt>
      <trkpt lat="44.68022" lon="3.04032">
        <ele>1129.5999755859</ele>
        <time>2024-01-30T15:13:15.000Z</time>
      </trkpt>
      <trkpt lat="44.68062" lon="3.04045">
        <ele>1128</ele>
        <time>2024-01-30T15:13:17.000Z</time>
      </trkpt>
      <trkpt lat="44.68105" lon="3.04059">
        <ele>1125.4000244141</ele>
        <time>2024-01-30T15:13:19.000Z</time>
      </trkpt>
      <trkpt lat="44.68123" lon="3.04065">
        <ele>1122.8000488281</ele>
        <time>2024-01-30T15:13:20.000Z</time>
      </trkpt>
      <trkpt lat="44.68161" lon="3.04074">
        <ele>1120.4000244141</ele>
        <time>2024-01-30T15:13:22.000Z</time>
      </trkpt>
      <trkpt lat="44.68176" lon="3.04075">
        <ele>1119.8000488281</ele>
        <time>2024-01-30T15:13:23.000Z</time>
      </trkpt>
      <trkpt lat="44.68195" lon="3.04075">
        <ele>1118.1999511719</ele>
        <time>2024-01-30T15:13:24.000Z</time>
      </trkpt>
      <trkpt lat="44.68213" lon="3.04072">
        <ele>1116.8000488281</ele>
        <time>2024-01-30T15:13:25.000Z</time>
      </trkpt>
      <trkpt lat="44.68235" lon="3.04067">
        <ele>1115.8000488281</ele>
        <time>2024-01-30T15:13:26.000Z</time>
      </trkpt>
      <trkpt lat="44.68273" lon="3.04053">
        <ele>1114</ele>
        <time>2024-01-30T15:13:28.000Z</time>
      </trkpt>
      <trkpt lat="44.68308" lon="3.0404">
        <ele>1113</ele>
        <time>2024-01-30T15:13:30.000Z</time>
      </trkpt>
      <trkpt lat="44.68351" lon="3.04024">
        <ele>1110.1999511719</ele>
        <time>2024-01-30T15:13:32.000Z</time>
      </trkpt>
      <trkpt lat="44.68367" lon="3.04018">
        <ele>1108.5999755859</ele>
        <time>2024-01-30T15:13:33.000Z</time>
      </trkpt>
      <trkpt lat="44.68427" lon="3.03997">
        <ele>1106.8000488281</ele>
        <time>2024-01-30T15:13:36.000Z</time>
      </trkpt>
      <trkpt lat="44.68447" lon="3.03992">
        <ele>1105.5999755859</ele>
        <time>2024-01-30T15:13:37.000Z</time>
      </trkpt>
      <trkpt lat="44.68473" lon="3.03987">
        <ele>1104.4000244141</ele>
        <time>2024-01-30T15:13:38.000Z</time>
      </trkpt>
      <trkpt lat="44.6849" lon="3.03984">
        <ele>1103</ele>
        <time>2024-01-30T15:13:39.000Z</time>
      </trkpt>
      <trkpt lat="44.68511" lon="3.0398">
        <ele>1101.8000488281</ele>
        <time>2024-01-30T15:13:40.000Z</time>
      </trkpt>
      <trkpt lat="44.68537" lon="3.03976">
        <ele>1100.4000244141</ele>
        <time>2024-01-30T15:13:41.000Z</time>
      </trkpt>
      <trkpt lat="44.68575" lon="3.0397">
        <ele>1097.8000488281</ele>
        <time>2024-01-30T15:13:43.000Z</time>
      </trkpt>
      <trkpt lat="44.68601" lon="3.03966">
        <ele>1095.8000488281</ele>
        <time>2024-01-30T15:13:44.000Z</time>
      </trkpt>
      <trkpt lat="44.68618" lon="3.03963">
        <ele>1094.5999755859</ele>
        <time>2024-01-30T15:13:45.000Z</time>
      </trkpt>
      <trkpt lat="44.68639" lon="3.03958">
        <ele>1093.5999755859</ele>
        <time>2024-01-30T15:13:46.000Z</time>
      </trkpt>
      <trkpt lat="44.6866" lon="3.03951">
        <ele>1092.1999511719</ele>
        <time>2024-01-30T15:13:47.000Z</time>
      </trkpt>
      <trkpt lat="44.6868" lon="3.03943">
        <ele>1091.8000488281</ele>
        <time>2024-01-30T15:13:48.000Z</time>
      </trkpt>
      <trkpt lat="44.687" lon="3.03932">
        <ele>1091</ele>
        <time>2024-01-30T15:13:49.000Z</time>
      </trkpt>
      <trkpt lat="44.68737" lon="3.03905">
        <ele>1089.4000244141</ele>
        <time>2024-01-30T15:13:51.000Z</time>
      </trkpt>
      <trkpt lat="44.68773" lon="3.03869">
        <ele>1088</ele>
        <time>2024-01-30T15:13:53.000Z</time>
      </trkpt>
      <trkpt lat="44.68801" lon="3.03836">
        <ele>1087.1999511719</ele>
        <time>2024-01-30T15:13:55.000Z</time>
      </trkpt>
      <trkpt lat="44.6884" lon="3.03777">
        <ele>1087</ele>
        <time>2024-01-30T15:13:58.000Z</time>
      </trkpt>
      <trkpt lat="44.6888" lon="3.03723">
        <ele>1086.1999511719</ele>
        <time>2024-01-30T15:14:01.000Z</time>
      </trkpt>
      <trkpt lat="44.68895" lon="3.0371">
        <ele>1085.5999755859</ele>
        <time>2024-01-30T15:14:02.000Z</time>
      </trkpt>
      <trkpt lat="44.6891" lon="3.037">
        <ele>1084.8000488281</ele>
        <time>2024-01-30T15:14:03.000Z</time>
      </trkpt>
      <trkpt lat="44.68927" lon="3.03694">
        <ele>1084.1999511719</ele>
        <time>2024-01-30T15:14:04.000Z</time>
      </trkpt>
      <trkpt lat="44.68947" lon="3.0369">
        <ele>1083.4000244141</ele>
        <time>2024-01-30T15:14:05.000Z</time>
      </trkpt>
      <trkpt lat="44.68975" lon="3.03681">
        <ele>1083.1999511719</ele>
        <time>2024-01-30T15:14:07.000Z</time>
      </trkpt>
      <trkpt lat="44.6899" lon="3.03673">
        <ele>1083</ele>
        <time>2024-01-30T15:14:08.000Z</time>
      </trkpt>
      <trkpt lat="44.69047" lon="3.03627">
        <ele>1082.8000488281</ele>
        <time>2024-01-30T15:14:12.000Z</time>
      </trkpt>
      <trkpt lat="44.69081" lon="3.03605">
        <ele>1081.8000488281</ele>
        <time>2024-01-30T15:14:14.000Z</time>
      </trkpt>
      <trkpt lat="44.69094" lon="3.03599">
        <ele>1081.5999755859</ele>
        <time>2024-01-30T15:14:15.000Z</time>
      </trkpt>
      <trkpt lat="44.69147" lon="3.03581">
        <ele>1081.4000244141</ele>
        <time>2024-01-30T15:14:18.000Z</time>
      </trkpt>
      <trkpt lat="44.69165" lon="3.03576">
        <ele>1081.4000244141</ele>
        <time>2024-01-30T15:14:19.000Z</time>
      </trkpt>
      <trkpt lat="44.69221" lon="3.03567">
        <ele>1080.4000244141</ele>
        <time>2024-01-30T15:14:22.000Z</time>
      </trkpt>
      <trkpt lat="44.6924" lon="3.03566">
        <ele>1080</ele>
        <time>2024-01-30T15:14:23.000Z</time>
      </trkpt>
      <trkpt lat="44.69276" lon="3.03564">
        <ele>1078.8000488281</ele>
        <time>2024-01-30T15:14:25.000Z</time>
      </trkpt>
      <trkpt lat="44.69311" lon="3.03558">
        <ele>1077.1999511719</ele>
        <time>2024-01-30T15:14:27.000Z</time>
      </trkpt>
      <trkpt lat="44.69321" lon="3.03553">
        <ele>1075</ele>
        <time>2024-01-30T15:14:28.000Z</time>
      </trkpt>
      <trkpt lat="44.69334" lon="3.03542">
        <ele>1074</ele>
        <time>2024-01-30T15:14:29.000Z</time>
      </trkpt>
      <trkpt lat="44.69341" lon="3.03533">
        <ele>1073.8000488281</ele>
        <time>2024-01-30T15:14:30.000Z</time>
      </trkpt>
      <trkpt lat="44.69366" lon="3.03507">
        <ele>1071.8000488281</ele>
        <time>2024-01-30T15:14:33.000Z</time>
      </trkpt>
      <trkpt lat="44.69372" lon="3.03501">
        <ele>1070.4000244141</ele>
        <time>2024-01-30T15:14:34.000Z</time>
      </trkpt>
      <trkpt lat="44.69378" lon="3.03495">
        <ele>1070</ele>
        <time>2024-01-30T15:14:35.000Z</time>
      </trkpt>
      <trkpt lat="44.69381" lon="3.03487">
        <ele>1069.4000244141</ele>
        <time>2024-01-30T15:14:36.000Z</time>
      </trkpt>
      <trkpt lat="44.69384" lon="3.03477">
        <ele>1069.4000244141</ele>
        <time>2024-01-30T15:14:37.000Z</time>
      </trkpt>
      <trkpt lat="44.69386" lon="3.03453">
        <ele>1069.4000244141</ele>
        <time>2024-01-30T15:14:39.000Z</time>
      </trkpt>
      <trkpt lat="44.69385" lon="3.03405">
        <ele>1069.8000488281</ele>
        <time>2024-01-30T15:14:42.000Z</time>
      </trkpt>
      <trkpt lat="44.69384" lon="3.03388">
        <ele>1070.4000244141</ele>
        <time>2024-01-30T15:14:43.000Z</time>
      </trkpt>
      <trkpt lat="44.69384" lon="3.0335">
        <ele>1071.4000244141</ele>
        <time>2024-01-30T15:14:45.000Z</time>
      </trkpt>
      <trkpt lat="44.69384" lon="3.03329">
        <ele>1071.8000488281</ele>
        <time>2024-01-30T15:14:46.000Z</time>
      </trkpt>
      <trkpt lat="44.69385" lon="3.03284">
        <ele>1072.5999755859</ele>
        <time>2024-01-30T15:14:48.000Z</time>
      </trkpt>
      <trkpt lat="44.69387" lon="3.03237">
        <ele>1072.5999755859</ele>
        <time>2024-01-30T15:14:50.000Z</time>
      </trkpt>
      <trkpt lat="44.69391" lon="3.03145">
        <ele>1072.5999755859</ele>
        <time>2024-01-30T15:14:54.000Z</time>
      </trkpt>
      <trkpt lat="44.69392" lon="3.03099">
        <ele>1072.4000244141</ele>
        <time>2024-01-30T15:14:56.000Z</time>
      </trkpt>
      <trkpt lat="44.69385" lon="3.03009">
        <ele>1072</ele>
        <time>2024-01-30T15:15:00.000Z</time>
      </trkpt>
      <trkpt lat="44.69384" lon="3.02987">
        <ele>1071.5999755859</ele>
        <time>2024-01-30T15:15:01.000Z</time>
      </trkpt>
      <trkpt lat="44.69383" lon="3.029">
        <ele>1070.5999755859</ele>
        <time>2024-01-30T15:15:05.000Z</time>
      </trkpt>
      <trkpt lat="44.69385" lon="3.02878">
        <ele>1070.4000244141</ele>
        <time>2024-01-30T15:15:06.000Z</time>
      </trkpt>
      <trkpt lat="44.69391" lon="3.02815">
        <ele>1070</ele>
        <time>2024-01-30T15:15:09.000Z</time>
      </trkpt>
      <trkpt lat="44.69397" lon="3.02779">
        <ele>1068</ele>
        <time>2024-01-30T15:15:11.000Z</time>
      </trkpt>
      <trkpt lat="44.69399" lon="3.02764">
        <ele>1066.5999755859</ele>
        <time>2024-01-30T15:15:12.000Z</time>
      </trkpt>
      <trkpt lat="44.69398" lon="3.02721">
        <ele>1066.1999511719</ele>
        <time>2024-01-30T15:15:15.000Z</time>
      </trkpt>
      <trkpt lat="44.69403" lon="3.02694">
        <ele>1066.1999511719</ele>
        <time>2024-01-30T15:15:17.000Z</time>
      </trkpt>
      <trkpt lat="44.69409" lon="3.02682">
        <ele>1066.1999511719</ele>
        <time>2024-01-30T15:15:18.000Z</time>
      </trkpt>
      <trkpt lat="44.69436" lon="3.0264">
        <ele>1068.1999511719</ele>
        <time>2024-01-30T15:15:21.000Z</time>
      </trkpt>
      <trkpt lat="44.69454" lon="3.02613">
        <ele>1069.8000488281</ele>
        <time>2024-01-30T15:15:23.000Z</time>
      </trkpt>
      <trkpt lat="44.69474" lon="3.0258">
        <ele>1072</ele>
        <time>2024-01-30T15:15:25.000Z</time>
      </trkpt>
      <trkpt lat="44.69485" lon="3.02563">
        <ele>1073.1999511719</ele>
        <time>2024-01-30T15:15:26.000Z</time>
      </trkpt>
      <trkpt lat="44.69509" lon="3.02532">
        <ele>1073.8000488281</ele>
        <time>2024-01-30T15:15:28.000Z</time>
      </trkpt>
      <trkpt lat="44.69533" lon="3.02503">
        <ele>1074.1999511719</ele>
        <time>2024-01-30T15:15:30.000Z</time>
      </trkpt>
      <trkpt lat="44.69554" lon="3.02472">
        <ele>1075.4000244141</ele>
        <time>2024-01-30T15:15:32.000Z</time>
      </trkpt>
      <trkpt lat="44.69581" lon="3.02418">
        <ele>1077</ele>
        <time>2024-01-30T15:15:35.000Z</time>
      </trkpt>
      <trkpt lat="44.69592" lon="3.02401">
        <ele>1077.4000244141</ele>
        <time>2024-01-30T15:15:36.000Z</time>
      </trkpt>
      <trkpt lat="44.69604" lon="3.02385">
        <ele>1078.1999511719</ele>
        <time>2024-01-30T15:15:37.000Z</time>
      </trkpt>
      <trkpt lat="44.69617" lon="3.02371">
        <ele>1079.4000244141</ele>
        <time>2024-01-30T15:15:38.000Z</time>
      </trkpt>
      <trkpt lat="44.69631" lon="3.02358">
        <ele>1080.1999511719</ele>
        <time>2024-01-30T15:15:39.000Z</time>
      </trkpt>
      <trkpt lat="44.69646" lon="3.02347">
        <ele>1080.4000244141</ele>
        <time>2024-01-30T15:15:40.000Z</time>
      </trkpt>
      <trkpt lat="44.69676" lon="3.02334">
        <ele>1081.8000488281</ele>
        <time>2024-01-30T15:15:42.000Z</time>
      </trkpt>
      <trkpt lat="44.69694" lon="3.02329">
        <ele>1083</ele>
        <time>2024-01-30T15:15:43.000Z</time>
      </trkpt>
      <trkpt lat="44.69712" lon="3.02324">
        <ele>1084.1999511719</ele>
        <time>2024-01-30T15:15:44.000Z</time>
      </trkpt>
      <trkpt lat="44.69747" lon="3.02319">
        <ele>1085</ele>
        <time>2024-01-30T15:15:46.000Z</time>
      </trkpt>
      <trkpt lat="44.69765" lon="3.02317">
        <ele>1086</ele>
        <time>2024-01-30T15:15:47.000Z</time>
      </trkpt>
      <trkpt lat="44.69782" lon="3.02315">
        <ele>1087.4000244141</ele>
        <time>2024-01-30T15:15:48.000Z</time>
      </trkpt>
      <trkpt lat="44.69842" lon="3.02298">
        <ele>1089.1999511719</ele>
        <time>2024-01-30T15:15:51.000Z</time>
      </trkpt>
      <trkpt lat="44.69855" lon="3.02292">
        <ele>1090.4000244141</ele>
        <time>2024-01-30T15:15:52.000Z</time>
      </trkpt>
      <trkpt lat="44.69892" lon="3.02273">
        <ele>1091.8000488281</ele>
        <time>2024-01-30T15:15:54.000Z</time>
      </trkpt>
      <trkpt lat="44.69905" lon="3.02265">
        <ele>1092.4000244141</ele>
        <time>2024-01-30T15:15:55.000Z</time>
      </trkpt>
      <trkpt lat="44.69939" lon="3.02243">
        <ele>1093.5999755859</ele>
        <time>2024-01-30T15:15:57.000Z</time>
      </trkpt>
      <trkpt lat="44.69973" lon="3.02229">
        <ele>1094.1999511719</ele>
        <time>2024-01-30T15:15:59.000Z</time>
      </trkpt>
      <trkpt lat="44.69988" lon="3.02227">
        <ele>1094.8000488281</ele>
        <time>2024-01-30T15:16:00.000Z</time>
      </trkpt>
      <trkpt lat="44.70023" lon="3.02227">
        <ele>1096</ele>
        <time>2024-01-30T15:16:02.000Z</time>
      </trkpt>
      <trkpt lat="44.7006" lon="3.02227">
        <ele>1097.8000488281</ele>
        <time>2024-01-30T15:16:04.000Z</time>
      </trkpt>
      <trkpt lat="44.70087" lon="3.0222">
        <ele>1098.4000244141</ele>
        <time>2024-01-30T15:16:06.000Z</time>
      </trkpt>
      <trkpt lat="44.70115" lon="3.02198">
        <ele>1099.1999511719</ele>
        <time>2024-01-30T15:16:08.000Z</time>
      </trkpt>
      <trkpt lat="44.70136" lon="3.02169">
        <ele>1100.5999755859</ele>
        <time>2024-01-30T15:16:10.000Z</time>
      </trkpt>
      <trkpt lat="44.70147" lon="3.02152">
        <ele>1102.4000244141</ele>
        <time>2024-01-30T15:16:11.000Z</time>
      </trkpt>
      <trkpt lat="44.70176" lon="3.02095">
        <ele>1103.1999511719</ele>
        <time>2024-01-30T15:16:14.000Z</time>
      </trkpt>
      <trkpt lat="44.70183" lon="3.02076">
        <ele>1103.4000244141</ele>
        <time>2024-01-30T15:16:15.000Z</time>
      </trkpt>
      <trkpt lat="44.70192" lon="3.02042">
        <ele>1103.5999755859</ele>
        <time>2024-01-30T15:16:17.000Z</time>
      </trkpt>
      <trkpt lat="44.70194" lon="3.0202">
        <ele>1103.8000488281</ele>
        <time>2024-01-30T15:16:18.000Z</time>
      </trkpt>
      <trkpt lat="44.70194" lon="3.02005">
        <ele>1103.8000488281</ele>
        <time>2024-01-30T15:16:19.000Z</time>
      </trkpt>
      <trkpt lat="44.70192" lon="3.01987">
        <ele>1104</ele>
        <time>2024-01-30T15:16:20.000Z</time>
      </trkpt>
      <trkpt lat="44.70189" lon="3.01971">
        <ele>1104</ele>
        <time>2024-01-30T15:16:21.000Z</time>
      </trkpt>
      <trkpt lat="44.70176" lon="3.01938">
        <ele>1104</ele>
        <time>2024-01-30T15:16:23.000Z</time>
      </trkpt>
      <trkpt lat="44.70151" lon="3.01885">
        <ele>1104.8000488281</ele>
        <time>2024-01-30T15:16:26.000Z</time>
      </trkpt>
      <trkpt lat="44.70142" lon="3.01866">
        <ele>1105</ele>
        <time>2024-01-30T15:16:27.000Z</time>
      </trkpt>
      <trkpt lat="44.70133" lon="3.01845">
        <ele>1105.1999511719</ele>
        <time>2024-01-30T15:16:28.000Z</time>
      </trkpt>
      <trkpt lat="44.70104" lon="3.0178">
        <ele>1105.4000244141</ele>
        <time>2024-01-30T15:16:31.000Z</time>
      </trkpt>
      <trkpt lat="44.70087" lon="3.01741">
        <ele>1105.8000488281</ele>
        <time>2024-01-30T15:16:33.000Z</time>
      </trkpt>
      <trkpt lat="44.70075" lon="3.01715">
        <ele>1106.1999511719</ele>
        <time>2024-01-30T15:16:34.000Z</time>
      </trkpt>
      <trkpt lat="44.70038" lon="3.01632">
        <ele>1105.4000244141</ele>
        <time>2024-01-30T15:16:38.000Z</time>
      </trkpt>
      <trkpt lat="44.70029" lon="3.01613">
        <ele>1104.5999755859</ele>
        <time>2024-01-30T15:16:39.000Z</time>
      </trkpt>
      <trkpt lat="44.70009" lon="3.01577">
        <ele>1103.4000244141</ele>
        <time>2024-01-30T15:16:41.000Z</time>
      </trkpt>
      <trkpt lat="44.6997" lon="3.01534">
        <ele>1102.5999755859</ele>
        <time>2024-01-30T15:16:44.000Z</time>
      </trkpt>
      <trkpt lat="44.69947" lon="3.01508">
        <ele>1102.1999511719</ele>
        <time>2024-01-30T15:16:46.000Z</time>
      </trkpt>
      <trkpt lat="44.69931" lon="3.01484">
        <ele>1101.8000488281</ele>
        <time>2024-01-30T15:16:48.000Z</time>
      </trkpt>
      <trkpt lat="44.69923" lon="3.01469">
        <ele>1101.1999511719</ele>
        <time>2024-01-30T15:16:49.000Z</time>
      </trkpt>
      <trkpt lat="44.69917" lon="3.01452">
        <ele>1101.1999511719</ele>
        <time>2024-01-30T15:16:50.000Z</time>
      </trkpt>
      <trkpt lat="44.69913" lon="3.01434">
        <ele>1101.1999511719</ele>
        <time>2024-01-30T15:16:51.000Z</time>
      </trkpt>
      <trkpt lat="44.69893" lon="3.01362">
        <ele>1101.1999511719</ele>
        <time>2024-01-30T15:16:55.000Z</time>
      </trkpt>
      <trkpt lat="44.69885" lon="3.01341">
        <ele>1101.1999511719</ele>
        <time>2024-01-30T15:16:56.000Z</time>
      </trkpt>
      <trkpt lat="44.69849" lon="3.01279">
        <ele>1101.1999511719</ele>
        <time>2024-01-30T15:17:00.000Z</time>
      </trkpt>
      <trkpt lat="44.69802" lon="3.01216">
        <ele>1100.5999755859</ele>
        <time>2024-01-30T15:17:04.000Z</time>
      </trkpt>
      <trkpt lat="44.69787" lon="3.01197">
        <ele>1099.5999755859</ele>
        <time>2024-01-30T15:17:05.000Z</time>
      </trkpt>
      <trkpt lat="44.69764" lon="3.01164">
        <ele>1097.8000488281</ele>
        <time>2024-01-30T15:17:07.000Z</time>
      </trkpt>
      <trkpt lat="44.69756" lon="3.0115">
        <ele>1096.8000488281</ele>
        <time>2024-01-30T15:17:08.000Z</time>
      </trkpt>
      <trkpt lat="44.69748" lon="3.01132">
        <ele>1095</ele>
        <time>2024-01-30T15:17:09.000Z</time>
      </trkpt>
      <trkpt lat="44.69742" lon="3.01113">
        <ele>1094.4000244141</ele>
        <time>2024-01-30T15:17:10.000Z</time>
      </trkpt>
      <trkpt lat="44.69738" lon="3.01088">
        <ele>1094</ele>
        <time>2024-01-30T15:17:11.000Z</time>
      </trkpt>
      <trkpt lat="44.69735" lon="3.01066">
        <ele>1092.8000488281</ele>
        <time>2024-01-30T15:17:12.000Z</time>
      </trkpt>
      <trkpt lat="44.69731" lon="3.01025">
        <ele>1091.1999511719</ele>
        <time>2024-01-30T15:17:14.000Z</time>
      </trkpt>
      <trkpt lat="44.69729" lon="3.01">
        <ele>1089.8000488281</ele>
        <time>2024-01-30T15:17:15.000Z</time>
      </trkpt>
      <trkpt lat="44.69727" lon="3.00984">
        <ele>1088.4000244141</ele>
        <time>2024-01-30T15:17:16.000Z</time>
      </trkpt>
      <trkpt lat="44.69725" lon="3.00966">
        <ele>1086.4000244141</ele>
        <time>2024-01-30T15:17:17.000Z</time>
      </trkpt>
      <trkpt lat="44.69721" lon="3.00927">
        <ele>1084</ele>
        <time>2024-01-30T15:17:19.000Z</time>
      </trkpt>
      <trkpt lat="44.69719" lon="3.00913">
        <ele>1082.8000488281</ele>
        <time>2024-01-30T15:17:20.000Z</time>
      </trkpt>
      <trkpt lat="44.69716" lon="3.00892">
        <ele>1082.1999511719</ele>
        <time>2024-01-30T15:17:21.000Z</time>
      </trkpt>
      <trkpt lat="44.69713" lon="3.00875">
        <ele>1081.5999755859</ele>
        <time>2024-01-30T15:17:22.000Z</time>
      </trkpt>
      <trkpt lat="44.69708" lon="3.0085">
        <ele>1079.8000488281</ele>
        <time>2024-01-30T15:17:24.000Z</time>
      </trkpt>
      <trkpt lat="44.69706" lon="3.00838">
        <ele>1078.1999511719</ele>
        <time>2024-01-30T15:17:25.000Z</time>
      </trkpt>
      <trkpt lat="44.69703" lon="3.00826">
        <ele>1076.8000488281</ele>
        <time>2024-01-30T15:17:26.000Z</time>
      </trkpt>
      <trkpt lat="44.69696" lon="3.00803">
        <ele>1075.5999755859</ele>
        <time>2024-01-30T15:17:28.000Z</time>
      </trkpt>
      <trkpt lat="44.69685" lon="3.00768">
        <ele>1074.5999755859</ele>
        <time>2024-01-30T15:17:31.000Z</time>
      </trkpt>
      <trkpt lat="44.69677" lon="3.00746">
        <ele>1071.9</ele>
      </trkpt>
      <trkpt lat="44.6967" lon="3.00722">
        <ele>1073.1</ele>
      </trkpt>
      <trkpt lat="44.69676" lon="3.00716">
        <ele>1073.5</ele>
      </trkpt>
      <trkpt lat="44.69683" lon="3.00714">
        <ele>1074</ele>
        <time>2024-01-30T15:21:23.000Z</time>
      </trkpt>
      <trkpt lat="44.69697" lon="3.007">
        <ele>1074.4000244141</ele>
        <time>2024-01-30T15:21:31.000Z</time>
      </trkpt>
      <trkpt lat="44.69699" lon="3.00697">
        <ele>1074.8000488281</ele>
        <time>2024-01-30T15:21:33.000Z</time>
      </trkpt>
      <trkpt lat="44.69703" lon="3.0069">
        <ele>1075.1999511719</ele>
        <time>2024-01-30T15:21:36.000Z</time>
      </trkpt>
      <trkpt lat="44.69709" lon="3.00675">
        <ele>1076</ele>
        <time>2024-01-30T15:21:40.000Z</time>
      </trkpt>
      <trkpt lat="44.6971" lon="3.00672">
        <ele>1076.4000244141</ele>
        <time>2024-01-30T15:21:41.000Z</time>
      </trkpt>
      <trkpt lat="44.69715" lon="3.00659">
        <ele>1077.4000244141</ele>
        <time>2024-01-30T15:21:45.000Z</time>
      </trkpt>
      <trkpt lat="44.69717" lon="3.00655">
        <ele>1078</ele>
        <time>2024-01-30T15:21:47.000Z</time>
      </trkpt>
      <trkpt lat="44.69719" lon="3.00655">
        <ele>1078.4000244141</ele>
        <time>2024-01-30T15:21:48.000Z</time>
      </trkpt>
      <trkpt lat="44.69721" lon="3.00654">
        <ele>1078.5999755859</ele>
        <time>2024-01-30T15:21:49.000Z</time>
      </trkpt>
      <trkpt lat="44.6973" lon="3.00655">
        <ele>1079.4000244141</ele>
        <time>2024-01-30T15:21:52.000Z</time>
      </trkpt>
      <trkpt lat="44.69734" lon="3.00655">
        <ele>1079.8000488281</ele>
        <time>2024-01-30T15:21:53.000Z</time>
      </trkpt>
      <trkpt lat="44.69747" lon="3.00655">
        <ele>1081.1999511719</ele>
        <time>2024-01-30T15:21:56.000Z</time>
      </trkpt>
      <trkpt lat="44.69756" lon="3.00656">
        <ele>1082.4000244141</ele>
        <time>2024-01-30T15:21:58.000Z</time>
      </trkpt>
      <trkpt lat="44.69771" lon="3.00658">
        <ele>1084</ele>
        <time>2024-01-30T15:22:01.000Z</time>
      </trkpt>
      <trkpt lat="44.69784" lon="3.00657">
        <ele>1085.8000488281</ele>
        <time>2024-01-30T15:22:03.000Z</time>
      </trkpt>
      <trkpt lat="44.69793" lon="3.00653">
        <ele>1087</ele>
        <time>2024-01-30T15:22:05.000Z</time>
      </trkpt>
      <trkpt lat="44.69803" lon="3.00644">
        <ele>1088</ele>
        <time>2024-01-30T15:22:07.000Z</time>
      </trkpt>
      <trkpt lat="44.69818" lon="3.0063">
        <ele>1089.8000488281</ele>
        <time>2024-01-30T15:22:10.000Z</time>
      </trkpt>
      <trkpt lat="44.69826" lon="3.00623">
        <ele>1091</ele>
        <time>2024-01-30T15:22:12.000Z</time>
      </trkpt>
      <trkpt lat="44.69831" lon="3.0062">
        <ele>1092</ele>
        <time>2024-01-30T15:22:13.000Z</time>
      </trkpt>
      <trkpt lat="44.69835" lon="3.00617">
        <ele>1092.8000488281</ele>
        <time>2024-01-30T15:22:14.000Z</time>
      </trkpt>
      <trkpt lat="44.6984" lon="3.00613">
        <ele>1093.5999755859</ele>
        <time>2024-01-30T15:22:15.000Z</time>
      </trkpt>
      <trkpt lat="44.69843" lon="3.00611">
        <ele>1094.5999755859</ele>
        <time>2024-01-30T15:22:16.000Z</time>
      </trkpt>
      <trkpt lat="44.69853" lon="3.00603">
        <ele>1096</ele>
        <time>2024-01-30T15:22:19.000Z</time>
      </trkpt>
      <trkpt lat="44.6986" lon="3.00597">
        <ele>1097</ele>
        <time>2024-01-30T15:22:21.000Z</time>
      </trkpt>
      <trkpt lat="44.69864" lon="3.00593">
        <ele>1097.1999511719</ele>
        <time>2024-01-30T15:22:22.000Z</time>
      </trkpt>
      <trkpt lat="44.6987" lon="3.00582">
        <ele>1098.4000244141</ele>
        <time>2024-01-30T15:22:24.000Z</time>
      </trkpt>
      <trkpt lat="44.69872" lon="3.00569">
        <ele>1099.8000488281</ele>
        <time>2024-01-30T15:22:26.000Z</time>
      </trkpt>
      <trkpt lat="44.69872" lon="3.00564">
        <ele>1100</ele>
        <time>2024-01-30T15:22:27.000Z</time>
      </trkpt>
      <trkpt lat="44.6987" lon="3.00556">
        <ele>1100.5999755859</ele>
        <time>2024-01-30T15:22:28.000Z</time>
      </trkpt>
      <trkpt lat="44.69868" lon="3.00549">
        <ele>1101.1999511719</ele>
        <time>2024-01-30T15:22:29.000Z</time>
      </trkpt>
      <trkpt lat="44.69864" lon="3.00536">
        <ele>1102.1999511719</ele>
        <time>2024-01-30T15:22:31.000Z</time>
      </trkpt>
      <trkpt lat="44.69861" lon="3.00529">
        <ele>1102.8000488281</ele>
        <time>2024-01-30T15:22:32.000Z</time>
      </trkpt>
      <trkpt lat="44.69857" lon="3.00522">
        <ele>1103.8000488281</ele>
        <time>2024-01-30T15:22:34.000Z</time>
      </trkpt>
      <trkpt lat="44.69854" lon="3.00519">
        <ele>1104</ele>
        <time>2024-01-30T15:22:35.000Z</time>
      </trkpt>
      <trkpt lat="44.69841" lon="3.00513">
        <ele>1105</ele>
        <time>2024-01-30T15:22:39.000Z</time>
      </trkpt>
      <trkpt lat="44.69837" lon="3.00512">
        <ele>1105.1999511719</ele>
        <time>2024-01-30T15:22:40.000Z</time>
      </trkpt>
      <trkpt lat="44.69825" lon="3.00508">
        <ele>1106.8000488281</ele>
        <time>2024-01-30T15:22:42.000Z</time>
      </trkpt>
      <trkpt lat="44.69815" lon="3.00505">
        <ele>1108</ele>
        <time>2024-01-30T15:22:44.000Z</time>
      </trkpt>
      <trkpt lat="44.69805" lon="3.00501">
        <ele>1109</ele>
        <time>2024-01-30T15:22:46.000Z</time>
      </trkpt>
      <trkpt lat="44.69796" lon="3.00498">
        <ele>1110.1999511719</ele>
        <time>2024-01-30T15:22:48.000Z</time>
      </trkpt>
      <trkpt lat="44.69791" lon="3.00497">
        <ele>1110.5999755859</ele>
        <time>2024-01-30T15:22:49.000Z</time>
      </trkpt>
      <trkpt lat="44.69783" lon="3.00492">
        <ele>1111.4000244141</ele>
        <time>2024-01-30T15:22:51.000Z</time>
      </trkpt>
      <trkpt lat="44.69777" lon="3.00475">
        <ele>1112.4000244141</ele>
        <time>2024-01-30T15:22:55.000Z</time>
      </trkpt>
      <trkpt lat="44.69776" lon="3.00472">
        <ele>1112.5999755859</ele>
        <time>2024-01-30T15:22:56.000Z</time>
      </trkpt>
      <trkpt lat="44.69776" lon="3.0047">
        <ele>1112.5999755859</ele>
        <time>2024-01-30T15:22:59.000Z</time>
      </trkpt>
      <trkpt lat="44.69775" lon="3.00471">
        <ele>1112.5999755859</ele>
        <time>2024-01-30T15:23:08.000Z</time>
      </trkpt>
      <trkpt lat="44.69775" lon="3.00471">
        <ele>1112.5999755859</ele>
        <time>2024-01-30T15:23:21.000Z</time>
      </trkpt>
      <trkpt lat="44.69775" lon="3.00471">
        <ele>1112.5999755859</ele>
        <time>2024-01-30T15:23:31.000Z</time>
      </trkpt>
      <trkpt lat="44.69775" lon="3.00471">
        <ele>1112.5999755859</ele>
        <time>2024-01-30T15:23:40.000Z</time>
      </trkpt>
      <trkpt lat="44.69775" lon="3.00471">
        <ele>1112.5999755859</ele>
        <time>2024-01-30T15:23:49.000Z</time>
      </trkpt>
      <trkpt lat="44.69775" lon="3.00471">
        <ele>1112.5999755859</ele>
        <time>2024-01-30T15:23:51.000Z</time>
      </trkpt>
      <trkpt lat="44.69775" lon="3.00471">
        <ele>1112.5999755859</ele>
        <time>2024-01-30T15:23:58.000Z</time>
      </trkpt>
      <trkpt lat="44.69775" lon="3.00471">
        <ele>1112.5999755859</ele>
        <time>2024-01-30T15:24:05.000Z</time>
      </trkpt>
      <trkpt lat="44.69774" lon="3.0047">
        <ele>1112.5999755859</ele>
        <time>2024-01-30T15:24:12.000Z</time>
      </trkpt>
      <trkpt lat="44.69774" lon="3.00468">
        <ele>1112.5999755859</ele>
        <time>2024-01-30T15:24:13.000Z</time>
      </trkpt>
      <trkpt lat="44.69773" lon="3.00459">
        <ele>1112.4000244141</ele>
        <time>2024-01-30T15:24:16.000Z</time>
      </trkpt>
      <trkpt lat="44.6977" lon="3.00437">
        <ele>1113</ele>
        <time>2024-01-30T15:24:20.000Z</time>
      </trkpt>
      <trkpt lat="44.69768" lon="3.00414">
        <ele>1113.5999755859</ele>
        <time>2024-01-30T15:24:24.000Z</time>
      </trkpt>
      <trkpt lat="44.69768" lon="3.00407">
        <ele>1113.8000488281</ele>
        <time>2024-01-30T15:24:25.000Z</time>
      </trkpt>
      <trkpt lat="44.69767" lon="3.00391">
        <ele>1114.4000244141</ele>
        <time>2024-01-30T15:24:27.000Z</time>
      </trkpt>
      <trkpt lat="44.69765" lon="3.00385">
        <ele>1114.8000488281</ele>
        <time>2024-01-30T15:24:28.000Z</time>
      </trkpt>
      <trkpt lat="44.69763" lon="3.00375">
        <ele>1115.1999511719</ele>
        <time>2024-01-30T15:24:29.000Z</time>
      </trkpt>
      <trkpt lat="44.69761" lon="3.00366">
        <ele>1115.8000488281</ele>
        <time>2024-01-30T15:24:30.000Z</time>
      </trkpt>
      <trkpt lat="44.69757" lon="3.0035">
        <ele>1116.1999511719</ele>
        <time>2024-01-30T15:24:32.000Z</time>
      </trkpt>
      <trkpt lat="44.69753" lon="3.00334">
        <ele>1117</ele>
        <time>2024-01-30T15:24:34.000Z</time>
      </trkpt>
      <trkpt lat="44.69752" lon="3.00318">
        <ele>1117.4000244141</ele>
        <time>2024-01-30T15:24:36.000Z</time>
      </trkpt>
      <trkpt lat="44.69753" lon="3.00306">
        <ele>1118</ele>
        <time>2024-01-30T15:24:38.000Z</time>
      </trkpt>
      <trkpt lat="44.69755" lon="3.00303">
        <ele>1118.1999511719</ele>
        <time>2024-01-30T15:24:39.000Z</time>
      </trkpt>
      <trkpt lat="44.69767" lon="3.00278">
        <ele>1119</ele>
        <time>2024-01-30T15:24:43.000Z</time>
      </trkpt>
      <trkpt lat="44.69778" lon="3.00246">
        <ele>1119.5999755859</ele>
        <time>2024-01-30T15:24:48.000Z</time>
      </trkpt>
      <trkpt lat="44.69781" lon="3.00243">
        <ele>1119.4000244141</ele>
        <time>2024-01-30T15:24:49.000Z</time>
      </trkpt>
      <trkpt lat="44.69795" lon="3.00229">
        <ele>1119</ele>
        <time>2024-01-30T15:24:54.000Z</time>
      </trkpt>
      <trkpt lat="44.69817" lon="3.00216">
        <ele>1119</ele>
        <time>2024-01-30T15:24:58.000Z</time>
      </trkpt>
      <trkpt lat="44.69835" lon="3.0021">
        <ele>1119.1999511719</ele>
        <time>2024-01-30T15:25:00.000Z</time>
      </trkpt>
      <trkpt lat="44.69842" lon="3.00209">
        <ele>1119.4000244141</ele>
        <time>2024-01-30T15:25:01.000Z</time>
      </trkpt>
      <trkpt lat="44.69865" lon="3.00208">
        <ele>1120.4000244141</ele>
        <time>2024-01-30T15:25:03.000Z</time>
      </trkpt>
      <trkpt lat="44.69877" lon="3.0021">
        <ele>1120.5999755859</ele>
        <time>2024-01-30T15:25:04.000Z</time>
      </trkpt>
      <trkpt lat="44.69933" lon="3.0022">
        <ele>1120.8000488281</ele>
        <time>2024-01-30T15:25:08.000Z</time>
      </trkpt>
      <trkpt lat="44.69991" lon="3.00223">
        <ele>1120.4000244141</ele>
        <time>2024-01-30T15:25:12.000Z</time>
      </trkpt>
      <trkpt lat="44.70035" lon="3.00217">
        <ele>1119.1999511719</ele>
        <time>2024-01-30T15:25:15.000Z</time>
      </trkpt>
      <trkpt lat="44.70065" lon="3.00217">
        <ele>1118.4000244141</ele>
        <time>2024-01-30T15:25:17.000Z</time>
      </trkpt>
      <trkpt lat="44.70079" lon="3.00219">
        <ele>1118</ele>
        <time>2024-01-30T15:25:18.000Z</time>
      </trkpt>
      <trkpt lat="44.70106" lon="3.00228">
        <ele>1117</ele>
        <time>2024-01-30T15:25:20.000Z</time>
      </trkpt>
      <trkpt lat="44.70118" lon="3.00234">
        <ele>1116.5999755859</ele>
        <time>2024-01-30T15:25:21.000Z</time>
      </trkpt>
      <trkpt lat="44.70133" lon="3.00245">
        <ele>1116</ele>
        <time>2024-01-30T15:25:22.000Z</time>
      </trkpt>
      <trkpt lat="44.70143" lon="3.00253">
        <ele>1116</ele>
        <time>2024-01-30T15:25:23.000Z</time>
      </trkpt>
      <trkpt lat="44.70195" lon="3.00294">
        <ele>1116</ele>
        <time>2024-01-30T15:25:27.000Z</time>
      </trkpt>
      <trkpt lat="44.70212" lon="3.00305">
        <ele>1116</ele>
        <time>2024-01-30T15:25:28.000Z</time>
      </trkpt>
      <trkpt lat="44.70268" lon="3.00342">
        <ele>1115.1999511719</ele>
        <time>2024-01-30T15:25:32.000Z</time>
      </trkpt>
      <trkpt lat="44.703" lon="3.00362">
        <ele>1114.8000488281</ele>
        <time>2024-01-30T15:25:34.000Z</time>
      </trkpt>
      <trkpt lat="44.70363" lon="3.00403">
        <ele>1113.4000244141</ele>
        <time>2024-01-30T15:25:38.000Z</time>
      </trkpt>
      <trkpt lat="44.7038" lon="3.00412">
        <ele>1105.4000244141</ele>
        <time>2024-01-30T15:25:39.000Z</time>
      </trkpt>
      <trkpt lat="44.70396" lon="3.00418">
        <ele>1105</ele>
        <time>2024-01-30T15:25:40.000Z</time>
      </trkpt>
      <trkpt lat="44.70429" lon="3.00432">
        <ele>1103.8000488281</ele>
        <time>2024-01-30T15:25:42.000Z</time>
      </trkpt>
      <trkpt lat="44.70462" lon="3.00444">
        <ele>1102.4000244141</ele>
        <time>2024-01-30T15:25:44.000Z</time>
      </trkpt>
      <trkpt lat="44.70477" lon="3.00451">
        <ele>1101.8000488281</ele>
        <time>2024-01-30T15:25:45.000Z</time>
      </trkpt>
      <trkpt lat="44.70491" lon="3.00458">
        <ele>1101</ele>
        <time>2024-01-30T15:25:46.000Z</time>
      </trkpt>
      <trkpt lat="44.70515" lon="3.00479">
        <ele>1099.4000244141</ele>
        <time>2024-01-30T15:25:48.000Z</time>
      </trkpt>
      <trkpt lat="44.70526" lon="3.00493">
        <ele>1098.8000488281</ele>
        <time>2024-01-30T15:25:49.000Z</time>
      </trkpt>
      <trkpt lat="44.70534" lon="3.00509">
        <ele>1098.5999755859</ele>
        <time>2024-01-30T15:25:50.000Z</time>
      </trkpt>
      <trkpt lat="44.70541" lon="3.00526">
        <ele>1098</ele>
        <time>2024-01-30T15:25:51.000Z</time>
      </trkpt>
      <trkpt lat="44.70545" lon="3.00545">
        <ele>1097.8000488281</ele>
        <time>2024-01-30T15:25:52.000Z</time>
      </trkpt>
      <trkpt lat="44.70547" lon="3.00566">
        <ele>1097.4000244141</ele>
        <time>2024-01-30T15:25:53.000Z</time>
      </trkpt>
      <trkpt lat="44.70546" lon="3.00608">
        <ele>1097.1999511719</ele>
        <time>2024-01-30T15:25:55.000Z</time>
      </trkpt>
      <trkpt lat="44.70541" lon="3.00652">
        <ele>1097</ele>
        <time>2024-01-30T15:25:57.000Z</time>
      </trkpt>
      <trkpt lat="44.7054" lon="3.00695">
        <ele>1096.4000244141</ele>
        <time>2024-01-30T15:25:59.000Z</time>
      </trkpt>
      <trkpt lat="44.70547" lon="3.00737">
        <ele>1096</ele>
        <time>2024-01-30T15:26:01.000Z</time>
      </trkpt>
      <trkpt lat="44.70554" lon="3.00755">
        <ele>1095.5999755859</ele>
        <time>2024-01-30T15:26:02.000Z</time>
      </trkpt>
      <trkpt lat="44.70564" lon="3.00772">
        <ele>1095.4000244141</ele>
        <time>2024-01-30T15:26:03.000Z</time>
      </trkpt>
      <trkpt lat="44.70599" lon="3.00813">
        <ele>1094.8000488281</ele>
        <time>2024-01-30T15:26:06.000Z</time>
      </trkpt>
      <trkpt lat="44.70612" lon="3.00825">
        <ele>1094.5999755859</ele>
        <time>2024-01-30T15:26:07.000Z</time>
      </trkpt>
      <trkpt lat="44.70626" lon="3.00835">
        <ele>1094.4000244141</ele>
        <time>2024-01-30T15:26:08.000Z</time>
      </trkpt>
      <trkpt lat="44.70641" lon="3.00843">
        <ele>1094.4000244141</ele>
        <time>2024-01-30T15:26:09.000Z</time>
      </trkpt>
      <trkpt lat="44.70672" lon="3.00853">
        <ele>1093.8000488281</ele>
        <time>2024-01-30T15:26:11.000Z</time>
      </trkpt>
      <trkpt lat="44.70689" lon="3.00854">
        <ele>1093.8000488281</ele>
        <time>2024-01-30T15:26:12.000Z</time>
      </trkpt>
      <trkpt lat="44.70744" lon="3.00854">
        <ele>1093.5999755859</ele>
        <time>2024-01-30T15:26:15.000Z</time>
      </trkpt>
      <trkpt lat="44.70763" lon="3.00854">
        <ele>1093.4000244141</ele>
        <time>2024-01-30T15:26:16.000Z</time>
      </trkpt>
      <trkpt lat="44.70821" lon="3.00854">
        <ele>1092.5999755859</ele>
        <time>2024-01-30T15:26:19.000Z</time>
      </trkpt>
      <trkpt lat="44.70882" lon="3.00854">
        <ele>1092.1999511719</ele>
        <time>2024-01-30T15:26:22.000Z</time>
      </trkpt>
      <trkpt lat="44.70939" lon="3.00855">
        <ele>1091</ele>
        <time>2024-01-30T15:26:25.000Z</time>
      </trkpt>
      <trkpt lat="44.70957" lon="3.00858">
        <ele>1090.8000488281</ele>
        <time>2024-01-30T15:26:26.000Z</time>
      </trkpt>
      <trkpt lat="44.70994" lon="3.0087">
        <ele>1090</ele>
        <time>2024-01-30T15:26:28.000Z</time>
      </trkpt>
      <trkpt lat="44.7103" lon="3.00885">
        <ele>1089.4000244141</ele>
        <time>2024-01-30T15:26:30.000Z</time>
      </trkpt>
      <trkpt lat="44.71082" lon="3.00911">
        <ele>1088.5999755859</ele>
        <time>2024-01-30T15:26:33.000Z</time>
      </trkpt>
      <trkpt lat="44.71097" lon="3.00923">
        <ele>1088</ele>
        <time>2024-01-30T15:26:34.000Z</time>
      </trkpt>
      <trkpt lat="44.71111" lon="3.00937">
        <ele>1087.5999755859</ele>
        <time>2024-01-30T15:26:35.000Z</time>
      </trkpt>
      <trkpt lat="44.71123" lon="3.00954">
        <ele>1087.1999511719</ele>
        <time>2024-01-30T15:26:36.000Z</time>
      </trkpt>
      <trkpt lat="44.71134" lon="3.00974">
        <ele>1087</ele>
        <time>2024-01-30T15:26:37.000Z</time>
      </trkpt>
      <trkpt lat="44.71162" lon="3.01042">
        <ele>1086</ele>
        <time>2024-01-30T15:26:40.000Z</time>
      </trkpt>
      <trkpt lat="44.7119" lon="3.01109">
        <ele>1085</ele>
        <time>2024-01-30T15:26:43.000Z</time>
      </trkpt>
      <trkpt lat="44.71212" lon="3.01151">
        <ele>1084.8000488281</ele>
        <time>2024-01-30T15:26:45.000Z</time>
      </trkpt>
      <trkpt lat="44.71252" lon="3.0121">
        <ele>1084</ele>
        <time>2024-01-30T15:26:48.000Z</time>
      </trkpt>
      <trkpt lat="44.71267" lon="3.0123">
        <ele>1084</ele>
        <time>2024-01-30T15:26:49.000Z</time>
      </trkpt>
      <trkpt lat="44.71311" lon="3.01289">
        <ele>1083.1999511719</ele>
        <time>2024-01-30T15:26:52.000Z</time>
      </trkpt>
      <trkpt lat="44.71325" lon="3.01308">
        <ele>1082</ele>
        <time>2024-01-30T15:26:53.000Z</time>
      </trkpt>
      <trkpt lat="44.71355" lon="3.01344">
        <ele>1081</ele>
        <time>2024-01-30T15:26:55.000Z</time>
      </trkpt>
      <trkpt lat="44.71366" lon="3.01357">
        <ele>1080.1999511719</ele>
        <time>2024-01-30T15:26:56.000Z</time>
      </trkpt>
      <trkpt lat="44.71418" lon="3.01403">
        <ele>1079.1999511719</ele>
        <time>2024-01-30T15:26:59.000Z</time>
      </trkpt>
      <trkpt lat="44.71435" lon="3.01416">
        <ele>1078.5999755859</ele>
        <time>2024-01-30T15:27:00.000Z</time>
      </trkpt>
      <trkpt lat="44.71487" lon="3.01458">
        <ele>1077.5999755859</ele>
        <time>2024-01-30T15:27:03.000Z</time>
      </trkpt>
      <trkpt lat="44.71505" lon="3.01472">
        <ele>1077.5999755859</ele>
        <time>2024-01-30T15:27:04.000Z</time>
      </trkpt>
      <trkpt lat="44.71557" lon="3.01514">
        <ele>1077.1999511719</ele>
        <time>2024-01-30T15:27:07.000Z</time>
      </trkpt>
      <trkpt lat="44.71607" lon="3.01557">
        <ele>1077</ele>
        <time>2024-01-30T15:27:10.000Z</time>
      </trkpt>
      <trkpt lat="44.71657" lon="3.016">
        <ele>1076.5999755859</ele>
        <time>2024-01-30T15:27:13.000Z</time>
      </trkpt>
      <trkpt lat="44.71673" lon="3.01616">
        <ele>1076.5999755859</ele>
        <time>2024-01-30T15:27:14.000Z</time>
      </trkpt>
      <trkpt lat="44.71716" lon="3.01669">
        <ele>1076.8000488281</ele>
        <time>2024-01-30T15:27:17.000Z</time>
      </trkpt>
      <trkpt lat="44.71729" lon="3.01688">
        <ele>1076.8000488281</ele>
        <time>2024-01-30T15:27:18.000Z</time>
      </trkpt>
      <trkpt lat="44.71767" lon="3.01747">
        <ele>1077</ele>
        <time>2024-01-30T15:27:21.000Z</time>
      </trkpt>
      <trkpt lat="44.71789" lon="3.01789">
        <ele>1077</ele>
        <time>2024-01-30T15:27:23.000Z</time>
      </trkpt>
      <trkpt lat="44.71815" lon="3.01859">
        <ele>1076.5999755859</ele>
        <time>2024-01-30T15:27:26.000Z</time>
      </trkpt>
      <trkpt lat="44.71841" lon="3.01928">
        <ele>1075.8000488281</ele>
        <time>2024-01-30T15:27:29.000Z</time>
      </trkpt>
      <trkpt lat="44.71851" lon="3.0195">
        <ele>1075.4000244141</ele>
        <time>2024-01-30T15:27:30.000Z</time>
      </trkpt>
      <trkpt lat="44.71862" lon="3.0197">
        <ele>1075</ele>
        <time>2024-01-30T15:27:31.000Z</time>
      </trkpt>
      <trkpt lat="44.71874" lon="3.01989">
        <ele>1074</ele>
        <time>2024-01-30T15:27:32.000Z</time>
      </trkpt>
      <trkpt lat="44.71887" lon="3.02006">
        <ele>1073.4000244141</ele>
        <time>2024-01-30T15:27:33.000Z</time>
      </trkpt>
      <trkpt lat="44.719" lon="3.02021">
        <ele>1073.1999511719</ele>
        <time>2024-01-30T15:27:34.000Z</time>
      </trkpt>
      <trkpt lat="44.71915" lon="3.02034">
        <ele>1072.5999755859</ele>
        <time>2024-01-30T15:27:35.000Z</time>
      </trkpt>
      <trkpt lat="44.71949" lon="3.02054">
        <ele>1072</ele>
        <time>2024-01-30T15:27:37.000Z</time>
      </trkpt>
      <trkpt lat="44.71984" lon="3.02069">
        <ele>1071.1999511719</ele>
        <time>2024-01-30T15:27:39.000Z</time>
      </trkpt>
      <trkpt lat="44.7204" lon="3.02095">
        <ele>1070.5999755859</ele>
        <time>2024-01-30T15:27:42.000Z</time>
      </trkpt>
      <trkpt lat="44.72079" lon="3.02113">
        <ele>1070.1999511719</ele>
        <time>2024-01-30T15:27:44.000Z</time>
      </trkpt>
      <trkpt lat="44.72136" lon="3.02142">
        <ele>1069.1999511719</ele>
        <time>2024-01-30T15:27:47.000Z</time>
      </trkpt>
      <trkpt lat="44.72154" lon="3.02151">
        <ele>1068.8000488281</ele>
        <time>2024-01-30T15:27:48.000Z</time>
      </trkpt>
      <trkpt lat="44.72187" lon="3.02166">
        <ele>1066.4000244141</ele>
        <time>2024-01-30T15:27:50.000Z</time>
      </trkpt>
      <trkpt lat="44.72203" lon="3.02174">
        <ele>1066</ele>
        <time>2024-01-30T15:27:51.000Z</time>
      </trkpt>
      <trkpt lat="44.72251" lon="3.02199">
        <ele>1065.4000244141</ele>
        <time>2024-01-30T15:27:54.000Z</time>
      </trkpt>
      <trkpt lat="44.72268" lon="3.0221">
        <ele>1065.4000244141</ele>
        <time>2024-01-30T15:27:55.000Z</time>
      </trkpt>
      <trkpt lat="44.72319" lon="3.02243">
        <ele>1065</ele>
        <time>2024-01-30T15:27:58.000Z</time>
      </trkpt>
      <trkpt lat="44.72354" lon="3.02269">
        <ele>1064.8000488281</ele>
        <time>2024-01-30T15:28:00.000Z</time>
      </trkpt>
      <trkpt lat="44.72391" lon="3.02296">
        <ele>1064.4000244141</ele>
        <time>2024-01-30T15:28:02.000Z</time>
      </trkpt>
      <trkpt lat="44.72446" lon="3.02342">
        <ele>1063</ele>
        <time>2024-01-30T15:28:05.000Z</time>
      </trkpt>
      <trkpt lat="44.72499" lon="3.02396">
        <ele>1062.4000244141</ele>
        <time>2024-01-30T15:28:08.000Z</time>
      </trkpt>
      <trkpt lat="44.72533" lon="3.02432">
        <ele>1061.5999755859</ele>
        <time>2024-01-30T15:28:10.000Z</time>
      </trkpt>
      <trkpt lat="44.72584" lon="3.02485">
        <ele>1060.4000244141</ele>
        <time>2024-01-30T15:28:13.000Z</time>
      </trkpt>
      <trkpt lat="44.7262" lon="3.02514">
        <ele>1059.1999511719</ele>
        <time>2024-01-30T15:28:15.000Z</time>
      </trkpt>
      <trkpt lat="44.72658" lon="3.02534">
        <ele>1057.8000488281</ele>
        <time>2024-01-30T15:28:17.000Z</time>
      </trkpt>
      <trkpt lat="44.72677" lon="3.02542">
        <ele>1057.4000244141</ele>
        <time>2024-01-30T15:28:18.000Z</time>
      </trkpt>
      <trkpt lat="44.72716" lon="3.02559">
        <ele>1056.5999755859</ele>
        <time>2024-01-30T15:28:20.000Z</time>
      </trkpt>
      <trkpt lat="44.72772" lon="3.02583">
        <ele>1055.8000488281</ele>
        <time>2024-01-30T15:28:23.000Z</time>
      </trkpt>
      <trkpt lat="44.7279" lon="3.0259">
        <ele>1055</ele>
        <time>2024-01-30T15:28:24.000Z</time>
      </trkpt>
      <trkpt lat="44.72808" lon="3.02595">
        <ele>1054.4000244141</ele>
        <time>2024-01-30T15:28:25.000Z</time>
      </trkpt>
      <trkpt lat="44.72826" lon="3.02597">
        <ele>1054</ele>
        <time>2024-01-30T15:28:26.000Z</time>
      </trkpt>
      <trkpt lat="44.72843" lon="3.02596">
        <ele>1053.4000244141</ele>
        <time>2024-01-30T15:28:27.000Z</time>
      </trkpt>
      <trkpt lat="44.72873" lon="3.02591">
        <ele>1052.8000488281</ele>
        <time>2024-01-30T15:28:29.000Z</time>
      </trkpt>
      <trkpt lat="44.72886" lon="3.02589">
        <ele>1052.5999755859</ele>
        <time>2024-01-30T15:28:30.000Z</time>
      </trkpt>
      <trkpt lat="44.72909" lon="3.02598">
        <ele>1052.5999755859</ele>
        <time>2024-01-30T15:28:32.000Z</time>
      </trkpt>
      <trkpt lat="44.72928" lon="3.02624">
        <ele>1052.5999755859</ele>
        <time>2024-01-30T15:28:34.000Z</time>
      </trkpt>
      <trkpt lat="44.72954" lon="3.02676">
        <ele>1052.8000488281</ele>
        <time>2024-01-30T15:28:37.000Z</time>
      </trkpt>
      <trkpt lat="44.72977" lon="3.02702">
        <ele>1053</ele>
        <time>2024-01-30T15:28:39.000Z</time>
      </trkpt>
      <trkpt lat="44.73033" lon="3.02737">
        <ele>1053.5999755859</ele>
        <time>2024-01-30T15:28:43.000Z</time>
      </trkpt>
      <trkpt lat="44.73097" lon="3.02775">
        <ele>1053.5999755859</ele>
        <time>2024-01-30T15:28:47.000Z</time>
      </trkpt>
      <trkpt lat="44.73114" lon="3.02785">
        <ele>1053.5999755859</ele>
        <time>2024-01-30T15:28:48.000Z</time>
      </trkpt>
      <trkpt lat="44.73166" lon="3.02811">
        <ele>1053.5999755859</ele>
        <time>2024-01-30T15:28:51.000Z</time>
      </trkpt>
      <trkpt lat="44.73185" lon="3.02819">
        <ele>1053.5999755859</ele>
        <time>2024-01-30T15:28:52.000Z</time>
      </trkpt>
      <trkpt lat="44.73243" lon="3.02842">
        <ele>1053.4000244141</ele>
        <time>2024-01-30T15:28:55.000Z</time>
      </trkpt>
      <trkpt lat="44.73283" lon="3.02858">
        <ele>1053.1999511719</ele>
        <time>2024-01-30T15:28:57.000Z</time>
      </trkpt>
      <trkpt lat="44.73345" lon="3.02883">
        <ele>1053</ele>
        <time>2024-01-30T15:29:00.000Z</time>
      </trkpt>
      <trkpt lat="44.73385" lon="3.02899">
        <ele>1052.8000488281</ele>
        <time>2024-01-30T15:29:02.000Z</time>
      </trkpt>
      <trkpt lat="44.73424" lon="3.02915">
        <ele>1052.1999511719</ele>
        <time>2024-01-30T15:29:04.000Z</time>
      </trkpt>
      <trkpt lat="44.73479" lon="3.02933">
        <ele>1051.8000488281</ele>
        <time>2024-01-30T15:29:07.000Z</time>
      </trkpt>
      <trkpt lat="44.73497" lon="3.02938">
        <ele>1051.8000488281</ele>
        <time>2024-01-30T15:29:08.000Z</time>
      </trkpt>
      <trkpt lat="44.73553" lon="3.02948">
        <ele>1051.8000488281</ele>
        <time>2024-01-30T15:29:11.000Z</time>
      </trkpt>
      <trkpt lat="44.73573" lon="3.0295">
        <ele>1051.8000488281</ele>
        <time>2024-01-30T15:29:12.000Z</time>
      </trkpt>
      <trkpt lat="44.73631" lon="3.02957">
        <ele>1052</ele>
        <time>2024-01-30T15:29:15.000Z</time>
      </trkpt>
      <trkpt lat="44.73686" lon="3.02964">
        <ele>1051.8000488281</ele>
        <time>2024-01-30T15:29:18.000Z</time>
      </trkpt>
      <trkpt lat="44.73703" lon="3.02964">
        <ele>1051.5999755859</ele>
        <time>2024-01-30T15:29:19.000Z</time>
      </trkpt>
      <trkpt lat="44.73752" lon="3.02948">
        <ele>1051</ele>
        <time>2024-01-30T15:29:22.000Z</time>
      </trkpt>
      <trkpt lat="44.7382" lon="3.02924">
        <ele>1051.4000244141</ele>
        <time>2024-01-30T15:29:26.000Z</time>
      </trkpt>
      <trkpt lat="44.73874" lon="3.02923">
        <ele>1051.5999755859</ele>
        <time>2024-01-30T15:29:29.000Z</time>
      </trkpt>
      <trkpt lat="44.73932" lon="3.02934">
        <ele>1051.5999755859</ele>
        <time>2024-01-30T15:29:32.000Z</time>
      </trkpt>
      <trkpt lat="44.7397" lon="3.02942">
        <ele>1051.5999755859</ele>
        <time>2024-01-30T15:29:34.000Z</time>
      </trkpt>
      <trkpt lat="44.74028" lon="3.02951">
        <ele>1051.5999755859</ele>
        <time>2024-01-30T15:29:37.000Z</time>
      </trkpt>
      <trkpt lat="44.74066" lon="3.02955">
        <ele>1051.4000244141</ele>
        <time>2024-01-30T15:29:39.000Z</time>
      </trkpt>
      <trkpt lat="44.74124" lon="3.02955">
        <ele>1051.1999511719</ele>
        <time>2024-01-30T15:29:42.000Z</time>
      </trkpt>
      <trkpt lat="44.74143" lon="3.02952">
        <ele>1051.4000244141</ele>
        <time>2024-01-30T15:29:43.000Z</time>
      </trkpt>
      <trkpt lat="44.742" lon="3.02944">
        <ele>1051.4000244141</ele>
        <time>2024-01-30T15:29:46.000Z</time>
      </trkpt>
      <trkpt lat="44.74259" lon="3.02936">
        <ele>1051.5999755859</ele>
        <time>2024-01-30T15:29:49.000Z</time>
      </trkpt>
      <trkpt lat="44.74318" lon="3.02926">
        <ele>1051.4000244141</ele>
        <time>2024-01-30T15:29:52.000Z</time>
      </trkpt>
      <trkpt lat="44.74377" lon="3.02917">
        <ele>1051.4000244141</ele>
        <time>2024-01-30T15:29:55.000Z</time>
      </trkpt>
      <trkpt lat="44.74432" lon="3.0291">
        <ele>1050.8000488281</ele>
        <time>2024-01-30T15:29:58.000Z</time>
      </trkpt>
      <trkpt lat="44.74449" lon="3.02908">
        <ele>1050.5999755859</ele>
        <time>2024-01-30T15:29:59.000Z</time>
      </trkpt>
      <trkpt lat="44.74519" lon="3.02897">
        <ele>1050.4000244141</ele>
        <time>2024-01-30T15:30:03.000Z</time>
      </trkpt>
      <trkpt lat="44.74555" lon="3.02893">
        <ele>1050.4000244141</ele>
        <time>2024-01-30T15:30:05.000Z</time>
      </trkpt>
      <trkpt lat="44.74624" lon="3.02878">
        <ele>1050.4000244141</ele>
        <time>2024-01-30T15:30:09.000Z</time>
      </trkpt>
      <trkpt lat="44.7464" lon="3.02872">
        <ele>1050.1999511719</ele>
        <time>2024-01-30T15:30:10.000Z</time>
      </trkpt>
      <trkpt lat="44.74707" lon="3.02843">
        <ele>1049.4000244141</ele>
        <time>2024-01-30T15:30:14.000Z</time>
      </trkpt>
      <trkpt lat="44.74741" lon="3.02829">
        <ele>1049.1999511719</ele>
        <time>2024-01-30T15:30:16.000Z</time>
      </trkpt>
      <trkpt lat="44.74807" lon="3.028">
        <ele>1049.1999511719</ele>
        <time>2024-01-30T15:30:20.000Z</time>
      </trkpt>
      <trkpt lat="44.74875" lon="3.0277">
        <ele>1049</ele>
        <time>2024-01-30T15:30:24.000Z</time>
      </trkpt>
      <trkpt lat="44.7491" lon="3.02755">
        <ele>1048.8000488281</ele>
        <time>2024-01-30T15:30:26.000Z</time>
      </trkpt>
      <trkpt lat="44.7496" lon="3.02732">
        <ele>1048.1999511719</ele>
        <time>2024-01-30T15:30:29.000Z</time>
      </trkpt>
      <trkpt lat="44.75007" lon="3.02711">
        <ele>1047.5999755859</ele>
        <time>2024-01-30T15:30:32.000Z</time>
      </trkpt>
      <trkpt lat="44.75049" lon="3.02692">
        <ele>1047.1999511719</ele>
        <time>2024-01-30T15:30:35.000Z</time>
      </trkpt>
      <trkpt lat="44.75062" lon="3.02687">
        <ele>1046.8000488281</ele>
        <time>2024-01-30T15:30:36.000Z</time>
      </trkpt>
      <trkpt lat="44.7511" lon="3.02666">
        <ele>1046.1999511719</ele>
        <time>2024-01-30T15:30:40.000Z</time>
      </trkpt>
      <trkpt lat="44.75121" lon="3.02661">
        <ele>1045.8000488281</ele>
        <time>2024-01-30T15:30:41.000Z</time>
      </trkpt>
      <trkpt lat="44.75142" lon="3.02654">
        <ele>1045.4000244141</ele>
        <time>2024-01-30T15:30:43.000Z</time>
      </trkpt>
      <trkpt lat="44.75152" lon="3.02653">
        <ele>1045</ele>
        <time>2024-01-30T15:30:44.000Z</time>
      </trkpt>
      <trkpt lat="44.75162" lon="3.02653">
        <ele>1044.8000488281</ele>
        <time>2024-01-30T15:30:45.000Z</time>
      </trkpt>
      <trkpt lat="44.75172" lon="3.02654">
        <ele>1044.8000488281</ele>
        <time>2024-01-30T15:30:46.000Z</time>
      </trkpt>
      <trkpt lat="44.75201" lon="3.02659">
        <ele>1044</ele>
        <time>2024-01-30T15:30:49.000Z</time>
      </trkpt>
      <trkpt lat="44.7521" lon="3.0266">
        <ele>1044</ele>
        <time>2024-01-30T15:30:50.000Z</time>
      </trkpt>
      <trkpt lat="44.75263" lon="3.02663">
        <ele>1043.8000488281</ele>
        <time>2024-01-30T15:30:55.000Z</time>
      </trkpt>
      <trkpt lat="44.75298" lon="3.02646">
        <ele>1043.8000488281</ele>
        <time>2024-01-30T15:30:58.000Z</time>
      </trkpt>
      <trkpt lat="44.75352" lon="3.02611">
        <ele>1044.4000244141</ele>
        <time>2024-01-30T15:31:02.000Z</time>
      </trkpt>
      <trkpt lat="44.75414" lon="3.02572">
        <ele>1045.4000244141</ele>
        <time>2024-01-30T15:31:06.000Z</time>
      </trkpt>
      <trkpt lat="44.75431" lon="3.02562">
        <ele>1045.5999755859</ele>
        <time>2024-01-30T15:31:07.000Z</time>
      </trkpt>
      <trkpt lat="44.75484" lon="3.02541">
        <ele>1046</ele>
        <time>2024-01-30T15:31:10.000Z</time>
      </trkpt>
      <trkpt lat="44.75502" lon="3.02535">
        <ele>1046</ele>
        <time>2024-01-30T15:31:11.000Z</time>
      </trkpt>
      <trkpt lat="44.75557" lon="3.02516">
        <ele>1046.4000244141</ele>
        <time>2024-01-30T15:31:14.000Z</time>
      </trkpt>
      <trkpt lat="44.75576" lon="3.0251">
        <ele>1046.5999755859</ele>
        <time>2024-01-30T15:31:15.000Z</time>
      </trkpt>
      <trkpt lat="44.75632" lon="3.02492">
        <ele>1046.8000488281</ele>
        <time>2024-01-30T15:31:18.000Z</time>
      </trkpt>
      <trkpt lat="44.75687" lon="3.02474">
        <ele>1046.8000488281</ele>
        <time>2024-01-30T15:31:21.000Z</time>
      </trkpt>
      <trkpt lat="44.75742" lon="3.02461">
        <ele>1046.8000488281</ele>
        <time>2024-01-30T15:31:24.000Z</time>
      </trkpt>
      <trkpt lat="44.75797" lon="3.02459">
        <ele>1047.1999511719</ele>
        <time>2024-01-30T15:31:27.000Z</time>
      </trkpt>
      <trkpt lat="44.75854" lon="3.02457">
        <ele>1047.4000244141</ele>
        <time>2024-01-30T15:31:30.000Z</time>
      </trkpt>
      <trkpt lat="44.75892" lon="3.02456">
        <ele>1047.5999755859</ele>
        <time>2024-01-30T15:31:32.000Z</time>
      </trkpt>
      <trkpt lat="44.75949" lon="3.02455">
        <ele>1047.8000488281</ele>
        <time>2024-01-30T15:31:35.000Z</time>
      </trkpt>
      <trkpt lat="44.76006" lon="3.02453">
        <ele>1047.8000488281</ele>
        <time>2024-01-30T15:31:38.000Z</time>
      </trkpt>
      <trkpt lat="44.76042" lon="3.02452">
        <ele>1047.8000488281</ele>
        <time>2024-01-30T15:31:40.000Z</time>
      </trkpt>
      <trkpt lat="44.76097" lon="3.0246">
        <ele>1048</ele>
        <time>2024-01-30T15:31:43.000Z</time>
      </trkpt>
      <trkpt lat="44.7615" lon="3.02481">
        <ele>1048.1999511719</ele>
        <time>2024-01-30T15:31:46.000Z</time>
      </trkpt>
      <trkpt lat="44.76199" lon="3.02509">
        <ele>1048</ele>
        <time>2024-01-30T15:31:49.000Z</time>
      </trkpt>
      <trkpt lat="44.76212" lon="3.02514">
        <ele>1048</ele>
        <time>2024-01-30T15:31:50.000Z</time>
      </trkpt>
      <trkpt lat="44.76231" lon="3.02519">
        <ele>1048</ele>
        <time>2024-01-30T15:31:51.000Z</time>
      </trkpt>
      <trkpt lat="44.76261" lon="3.02522">
        <ele>1048.1999511719</ele>
        <time>2024-01-30T15:31:53.000Z</time>
      </trkpt>
      <trkpt lat="44.76319" lon="3.02526">
        <ele>1048.8000488281</ele>
        <time>2024-01-30T15:31:56.000Z</time>
      </trkpt>
      <trkpt lat="44.76356" lon="3.02528">
        <ele>1049.1999511719</ele>
        <time>2024-01-30T15:31:58.000Z</time>
      </trkpt>
      <trkpt lat="44.76393" lon="3.02531">
        <ele>1050</ele>
        <time>2024-01-30T15:32:00.000Z</time>
      </trkpt>
      <trkpt lat="44.76452" lon="3.02536">
        <ele>1051.1999511719</ele>
        <time>2024-01-30T15:32:03.000Z</time>
      </trkpt>
      <trkpt lat="44.76484" lon="3.0254">
        <ele>1051.5999755859</ele>
        <time>2024-01-30T15:32:05.000Z</time>
      </trkpt>
      <trkpt lat="44.76534" lon="3.02564">
        <ele>1052.8000488281</ele>
        <time>2024-01-30T15:32:08.000Z</time>
      </trkpt>
      <trkpt lat="44.76586" lon="3.02598">
        <ele>1054.1999511719</ele>
        <time>2024-01-30T15:32:11.000Z</time>
      </trkpt>
      <trkpt lat="44.76619" lon="3.02618">
        <ele>1055.1999511719</ele>
        <time>2024-01-30T15:32:13.000Z</time>
      </trkpt>
      <trkpt lat="44.7664" lon="3.02631">
        <ele>1055.4000244141</ele>
        <time>2024-01-30T15:32:14.000Z</time>
      </trkpt>
      <trkpt lat="44.7671" lon="3.02674">
        <ele>1056.4000244141</ele>
        <time>2024-01-30T15:32:18.000Z</time>
      </trkpt>
      <trkpt lat="44.76726" lon="3.02685">
        <ele>1056.4000244141</ele>
        <time>2024-01-30T15:32:19.000Z</time>
      </trkpt>
      <trkpt lat="44.76742" lon="3.02698">
        <ele>1056.8000488281</ele>
        <time>2024-01-30T15:32:20.000Z</time>
      </trkpt>
      <trkpt lat="44.76785" lon="3.02743">
        <ele>1057.8000488281</ele>
        <time>2024-01-30T15:32:23.000Z</time>
      </trkpt>
      <trkpt lat="44.76795" lon="3.02759">
        <ele>1058.1999511719</ele>
        <time>2024-01-30T15:32:24.000Z</time>
      </trkpt>
      <trkpt lat="44.7682" lon="3.02804">
        <ele>1058.8000488281</ele>
        <time>2024-01-30T15:32:26.000Z</time>
      </trkpt>
      <trkpt lat="44.76829" lon="3.02824">
        <ele>1058.8000488281</ele>
        <time>2024-01-30T15:32:27.000Z</time>
      </trkpt>
      <trkpt lat="44.76857" lon="3.02878">
        <ele>1059</ele>
        <time>2024-01-30T15:32:30.000Z</time>
      </trkpt>
      <trkpt lat="44.76877" lon="3.02899">
        <ele>1059</ele>
        <time>2024-01-30T15:32:32.000Z</time>
      </trkpt>
      <trkpt lat="44.76899" lon="3.02909">
        <ele>1059.1999511719</ele>
        <time>2024-01-30T15:32:34.000Z</time>
      </trkpt>
      <trkpt lat="44.76912" lon="3.02912">
        <ele>1059.4000244141</ele>
        <time>2024-01-30T15:32:35.000Z</time>
      </trkpt>
      <trkpt lat="44.76926" lon="3.02914">
        <ele>1059.8000488281</ele>
        <time>2024-01-30T15:32:36.000Z</time>
      </trkpt>
      <trkpt lat="44.76939" lon="3.02917">
        <ele>1059.8000488281</ele>
        <time>2024-01-30T15:32:37.000Z</time>
      </trkpt>
      <trkpt lat="44.76953" lon="3.02923">
        <ele>1060.4000244141</ele>
        <time>2024-01-30T15:32:38.000Z</time>
      </trkpt>
      <trkpt lat="44.76976" lon="3.02946">
        <ele>1061</ele>
        <time>2024-01-30T15:32:40.000Z</time>
      </trkpt>
      <trkpt lat="44.76986" lon="3.02961">
        <ele>1061.1999511719</ele>
        <time>2024-01-30T15:32:41.000Z</time>
      </trkpt>
      <trkpt lat="44.77006" lon="3.02995">
        <ele>1062</ele>
        <time>2024-01-30T15:32:43.000Z</time>
      </trkpt>
      <trkpt lat="44.77016" lon="3.03012">
        <ele>1062.5999755859</ele>
        <time>2024-01-30T15:32:44.000Z</time>
      </trkpt>
      <trkpt lat="44.77049" lon="3.03056">
        <ele>1063.4000244141</ele>
        <time>2024-01-30T15:32:47.000Z</time>
      </trkpt>
      <trkpt lat="44.77062" lon="3.03067">
        <ele>1063.5999755859</ele>
        <time>2024-01-30T15:32:48.000Z</time>
      </trkpt>
      <trkpt lat="44.77077" lon="3.03074">
        <ele>1063.8000488281</ele>
        <time>2024-01-30T15:32:49.000Z</time>
      </trkpt>
      <trkpt lat="44.77127" lon="3.03086">
        <ele>1064.5999755859</ele>
        <time>2024-01-30T15:32:52.000Z</time>
      </trkpt>
      <trkpt lat="44.77181" lon="3.03099">
        <ele>1065.1999511719</ele>
        <time>2024-01-30T15:32:55.000Z</time>
      </trkpt>
      <trkpt lat="44.77198" lon="3.03106">
        <ele>1065.4000244141</ele>
        <time>2024-01-30T15:32:56.000Z</time>
      </trkpt>
      <trkpt lat="44.7723" lon="3.03128">
        <ele>1065.8000488281</ele>
        <time>2024-01-30T15:32:58.000Z</time>
      </trkpt>
      <trkpt lat="44.77246" lon="3.0314">
        <ele>1066</ele>
        <time>2024-01-30T15:32:59.000Z</time>
      </trkpt>
      <trkpt lat="44.77304" lon="3.03184">
        <ele>1066.4000244141</ele>
        <time>2024-01-30T15:33:03.000Z</time>
      </trkpt>
      <trkpt lat="44.7732" lon="3.03192">
        <ele>1066.4000244141</ele>
        <time>2024-01-30T15:33:04.000Z</time>
      </trkpt>
      <trkpt lat="44.77341" lon="3.03199">
        <ele>1066.8000488281</ele>
        <time>2024-01-30T15:33:05.000Z</time>
      </trkpt>
      <trkpt lat="44.77373" lon="3.03207">
        <ele>1067.5999755859</ele>
        <time>2024-01-30T15:33:07.000Z</time>
      </trkpt>
      <trkpt lat="44.77428" lon="3.03224">
        <ele>1068.4000244141</ele>
        <time>2024-01-30T15:33:10.000Z</time>
      </trkpt>
      <trkpt lat="44.77446" lon="3.03232">
        <ele>1068.5999755859</ele>
        <time>2024-01-30T15:33:11.000Z</time>
      </trkpt>
      <trkpt lat="44.77505" lon="3.03264">
        <ele>1069</ele>
        <time>2024-01-30T15:33:14.000Z</time>
      </trkpt>
      <trkpt lat="44.77523" lon="3.03276">
        <ele>1069.5999755859</ele>
        <time>2024-01-30T15:33:15.000Z</time>
      </trkpt>
      <trkpt lat="44.77574" lon="3.03308">
        <ele>1070.4000244141</ele>
        <time>2024-01-30T15:33:18.000Z</time>
      </trkpt>
      <trkpt lat="44.77613" lon="3.03334">
        <ele>1070.8000488281</ele>
        <time>2024-01-30T15:33:20.000Z</time>
      </trkpt>
      <trkpt lat="44.77649" lon="3.03352">
        <ele>1071</ele>
        <time>2024-01-30T15:33:22.000Z</time>
      </trkpt>
      <trkpt lat="44.77699" lon="3.03359">
        <ele>1071.1999511719</ele>
        <time>2024-01-30T15:33:25.000Z</time>
      </trkpt>
      <trkpt lat="44.77757" lon="3.03361">
        <ele>1071.5999755859</ele>
        <time>2024-01-30T15:33:28.000Z</time>
      </trkpt>
      <trkpt lat="44.77773" lon="3.03364">
        <ele>1072.1999511719</ele>
        <time>2024-01-30T15:33:29.000Z</time>
      </trkpt>
      <trkpt lat="44.77836" lon="3.03384">
        <ele>1073.1999511719</ele>
        <time>2024-01-30T15:33:32.000Z</time>
      </trkpt>
      <trkpt lat="44.77857" lon="3.03391">
        <ele>1073.4000244141</ele>
        <time>2024-01-30T15:33:33.000Z</time>
      </trkpt>
      <trkpt lat="44.77899" lon="3.03404">
        <ele>1074.4000244141</ele>
        <time>2024-01-30T15:33:35.000Z</time>
      </trkpt>
      <trkpt lat="44.77965" lon="3.03426">
        <ele>1075.4000244141</ele>
        <time>2024-01-30T15:33:38.000Z</time>
      </trkpt>
      <trkpt lat="44.77987" lon="3.03434">
        <ele>1075.8000488281</ele>
        <time>2024-01-30T15:33:39.000Z</time>
      </trkpt>
      <trkpt lat="44.7801" lon="3.03441">
        <ele>1076.4000244141</ele>
        <time>2024-01-30T15:33:40.000Z</time>
      </trkpt>
      <trkpt lat="44.78078" lon="3.03464">
        <ele>1077</ele>
        <time>2024-01-30T15:33:43.000Z</time>
      </trkpt>
      <trkpt lat="44.78145" lon="3.03489">
        <ele>1077.4000244141</ele>
        <time>2024-01-30T15:33:46.000Z</time>
      </trkpt>
      <trkpt lat="44.78209" lon="3.03522">
        <ele>1078</ele>
        <time>2024-01-30T15:33:49.000Z</time>
      </trkpt>
      <trkpt lat="44.78252" lon="3.03545">
        <ele>1078.5999755859</ele>
        <time>2024-01-30T15:33:51.000Z</time>
      </trkpt>
      <trkpt lat="44.78315" lon="3.0358">
        <ele>1079</ele>
        <time>2024-01-30T15:33:54.000Z</time>
      </trkpt>
      <trkpt lat="44.78374" lon="3.03616">
        <ele>1079.4000244141</ele>
        <time>2024-01-30T15:33:57.000Z</time>
      </trkpt>
      <trkpt lat="44.78399" lon="3.03632">
        <ele>1079.5999755859</ele>
        <time>2024-01-30T15:33:58.000Z</time>
      </trkpt>
      <trkpt lat="44.7846" lon="3.03674">
        <ele>1079.8000488281</ele>
        <time>2024-01-30T15:34:01.000Z</time>
      </trkpt>
      <trkpt lat="44.78519" lon="3.03709">
        <ele>1079.8000488281</ele>
        <time>2024-01-30T15:34:04.000Z</time>
      </trkpt>
      <trkpt lat="44.7858" lon="3.03732">
        <ele>1079.5999755859</ele>
        <time>2024-01-30T15:34:07.000Z</time>
      </trkpt>
      <trkpt lat="44.78599" lon="3.03739">
        <ele>1079.8000488281</ele>
        <time>2024-01-30T15:34:08.000Z</time>
      </trkpt>
      <trkpt lat="44.78658" lon="3.03757">
        <ele>1079.8000488281</ele>
        <time>2024-01-30T15:34:11.000Z</time>
      </trkpt>
      <trkpt lat="44.78678" lon="3.0376">
        <ele>1080</ele>
        <time>2024-01-30T15:34:12.000Z</time>
      </trkpt>
      <trkpt lat="44.7874" lon="3.03761">
        <ele>1080.1999511719</ele>
        <time>2024-01-30T15:34:15.000Z</time>
      </trkpt>
      <trkpt lat="44.78761" lon="3.03761">
        <ele>1080.1999511719</ele>
        <time>2024-01-30T15:34:16.000Z</time>
      </trkpt>
      <trkpt lat="44.78824" lon="3.03759">
        <ele>1080.4000244141</ele>
        <time>2024-01-30T15:34:19.000Z</time>
      </trkpt>
      <trkpt lat="44.78863" lon="3.03763">
        <ele>1080.1999511719</ele>
        <time>2024-01-30T15:34:21.000Z</time>
      </trkpt>
      <trkpt lat="44.78881" lon="3.03768">
        <ele>1080.1999511719</ele>
        <time>2024-01-30T15:34:22.000Z</time>
      </trkpt>
      <trkpt lat="44.78899" lon="3.03777">
        <ele>1080</ele>
        <time>2024-01-30T15:34:23.000Z</time>
      </trkpt>
      <trkpt lat="44.78932" lon="3.03796">
        <ele>1080</ele>
        <time>2024-01-30T15:34:25.000Z</time>
      </trkpt>
      <trkpt lat="44.78981" lon="3.0382">
        <ele>1080</ele>
        <time>2024-01-30T15:34:28.000Z</time>
      </trkpt>
      <trkpt lat="44.78999" lon="3.03823">
        <ele>1080.1999511719</ele>
        <time>2024-01-30T15:34:29.000Z</time>
      </trkpt>
      <trkpt lat="44.79017" lon="3.03822">
        <ele>1080.4000244141</ele>
        <time>2024-01-30T15:34:30.000Z</time>
      </trkpt>
      <trkpt lat="44.79055" lon="3.03818">
        <ele>1080.8000488281</ele>
        <time>2024-01-30T15:34:32.000Z</time>
      </trkpt>
      <trkpt lat="44.79115" lon="3.03814">
        <ele>1081</ele>
        <time>2024-01-30T15:34:35.000Z</time>
      </trkpt>
      <trkpt lat="44.79173" lon="3.03824">
        <ele>1081</ele>
        <time>2024-01-30T15:34:38.000Z</time>
      </trkpt>
      <trkpt lat="44.79225" lon="3.03836">
        <ele>1080.5999755859</ele>
        <time>2024-01-30T15:34:41.000Z</time>
      </trkpt>
      <trkpt lat="44.7926" lon="3.03831">
        <ele>1080.4000244141</ele>
        <time>2024-01-30T15:34:43.000Z</time>
      </trkpt>
      <trkpt lat="44.79312" lon="3.03812">
        <ele>1080.8000488281</ele>
        <time>2024-01-30T15:34:46.000Z</time>
      </trkpt>
      <trkpt lat="44.7933" lon="3.03808">
        <ele>1080.8000488281</ele>
        <time>2024-01-30T15:34:47.000Z</time>
      </trkpt>
      <trkpt lat="44.79348" lon="3.03807">
        <ele>1081</ele>
        <time>2024-01-30T15:34:48.000Z</time>
      </trkpt>
      <trkpt lat="44.79367" lon="3.03809">
        <ele>1081</ele>
        <time>2024-01-30T15:34:49.000Z</time>
      </trkpt>
      <trkpt lat="44.79385" lon="3.03815">
        <ele>1081.1999511719</ele>
        <time>2024-01-30T15:34:50.000Z</time>
      </trkpt>
      <trkpt lat="44.79404" lon="3.03823">
        <ele>1081.8000488281</ele>
        <time>2024-01-30T15:34:51.000Z</time>
      </trkpt>
      <trkpt lat="44.79422" lon="3.03833">
        <ele>1082</ele>
        <time>2024-01-30T15:34:52.000Z</time>
      </trkpt>
      <trkpt lat="44.79473" lon="3.03867">
        <ele>1082</ele>
        <time>2024-01-30T15:34:55.000Z</time>
      </trkpt>
      <trkpt lat="44.79508" lon="3.03881">
        <ele>1082</ele>
        <time>2024-01-30T15:34:57.000Z</time>
      </trkpt>
      <trkpt lat="44.79526" lon="3.03884">
        <ele>1082</ele>
        <time>2024-01-30T15:34:58.000Z</time>
      </trkpt>
      <trkpt lat="44.79582" lon="3.03881">
        <ele>1082.8000488281</ele>
        <time>2024-01-30T15:35:01.000Z</time>
      </trkpt>
      <trkpt lat="44.79601" lon="3.03876">
        <ele>1083</ele>
        <time>2024-01-30T15:35:02.000Z</time>
      </trkpt>
      <trkpt lat="44.79657" lon="3.03859">
        <ele>1083.4000244141</ele>
        <time>2024-01-30T15:35:05.000Z</time>
      </trkpt>
      <trkpt lat="44.79713" lon="3.03837">
        <ele>1084</ele>
        <time>2024-01-30T15:35:08.000Z</time>
      </trkpt>
      <trkpt lat="44.79751" lon="3.03827">
        <ele>1084.1999511719</ele>
        <time>2024-01-30T15:35:10.000Z</time>
      </trkpt>
      <trkpt lat="44.79788" lon="3.03831">
        <ele>1084.1999511719</ele>
        <time>2024-01-30T15:35:12.000Z</time>
      </trkpt>
      <trkpt lat="44.79844" lon="3.03849">
        <ele>1084.1999511719</ele>
        <time>2024-01-30T15:35:15.000Z</time>
      </trkpt>
      <trkpt lat="44.79882" lon="3.03855">
        <ele>1084.4000244141</ele>
        <time>2024-01-30T15:35:17.000Z</time>
      </trkpt>
      <trkpt lat="44.79935" lon="3.03854">
        <ele>1084.4000244141</ele>
        <time>2024-01-30T15:35:20.000Z</time>
      </trkpt>
      <trkpt lat="44.79949" lon="3.03849">
        <ele>1084.4000244141</ele>
        <time>2024-01-30T15:35:21.000Z</time>
      </trkpt>
      <trkpt lat="44.79963" lon="3.03841">
        <ele>1084</ele>
        <time>2024-01-30T15:35:22.000Z</time>
      </trkpt>
      <trkpt lat="44.79976" lon="3.0383">
        <ele>1084.1999511719</ele>
        <time>2024-01-30T15:35:23.000Z</time>
      </trkpt>
      <trkpt lat="44.79987" lon="3.03816">
        <ele>1084.1999511719</ele>
        <time>2024-01-30T15:35:24.000Z</time>
      </trkpt>
      <trkpt lat="44.80031" lon="3.03747">
        <ele>1084.8000488281</ele>
        <time>2024-01-30T15:35:28.000Z</time>
      </trkpt>
      <trkpt lat="44.80058" lon="3.03712">
        <ele>1085.4000244141</ele>
        <time>2024-01-30T15:35:30.000Z</time>
      </trkpt>
      <trkpt lat="44.80074" lon="3.03695">
        <ele>1085.5999755859</ele>
        <time>2024-01-30T15:35:31.000Z</time>
      </trkpt>
      <trkpt lat="44.80126" lon="3.03649">
        <ele>1086.5999755859</ele>
        <time>2024-01-30T15:35:34.000Z</time>
      </trkpt>
      <trkpt lat="44.80143" lon="3.03633">
        <ele>1086.5999755859</ele>
        <time>2024-01-30T15:35:35.000Z</time>
      </trkpt>
      <trkpt lat="44.80189" lon="3.03592">
        <ele>1086.1999511719</ele>
        <time>2024-01-30T15:35:38.000Z</time>
      </trkpt>
      <trkpt lat="44.80205" lon="3.03584">
        <ele>1086</ele>
        <time>2024-01-30T15:35:39.000Z</time>
      </trkpt>
      <trkpt lat="44.80221" lon="3.03581">
        <ele>1086</ele>
        <time>2024-01-30T15:35:40.000Z</time>
      </trkpt>
      <trkpt lat="44.80237" lon="3.03582">
        <ele>1086</ele>
        <time>2024-01-30T15:35:41.000Z</time>
      </trkpt>
      <trkpt lat="44.80254" lon="3.03587">
        <ele>1086.1999511719</ele>
        <time>2024-01-30T15:35:42.000Z</time>
      </trkpt>
      <trkpt lat="44.80289" lon="3.03603">
        <ele>1086.4000244141</ele>
        <time>2024-01-30T15:35:44.000Z</time>
      </trkpt>
      <trkpt lat="44.80348" lon="3.0363">
        <ele>1086.5999755859</ele>
        <time>2024-01-30T15:35:47.000Z</time>
      </trkpt>
      <trkpt lat="44.8041" lon="3.03656">
        <ele>1086.4000244141</ele>
        <time>2024-01-30T15:35:50.000Z</time>
      </trkpt>
      <trkpt lat="44.80475" lon="3.03685">
        <ele>1086.1999511719</ele>
        <time>2024-01-30T15:35:53.000Z</time>
      </trkpt>
      <trkpt lat="44.80518" lon="3.03703">
        <ele>1085.5999755859</ele>
        <time>2024-01-30T15:35:55.000Z</time>
      </trkpt>
      <trkpt lat="44.80584" lon="3.03731">
        <ele>1084.1999511719</ele>
        <time>2024-01-30T15:35:58.000Z</time>
      </trkpt>
      <trkpt lat="44.80605" lon="3.0374">
        <ele>1083</ele>
        <time>2024-01-30T15:35:59.000Z</time>
      </trkpt>
      <trkpt lat="44.80647" lon="3.03758">
        <ele>1082.1999511719</ele>
        <time>2024-01-30T15:36:01.000Z</time>
      </trkpt>
      <trkpt lat="44.80667" lon="3.03766">
        <ele>1081.5999755859</ele>
        <time>2024-01-30T15:36:02.000Z</time>
      </trkpt>
      <trkpt lat="44.80706" lon="3.03777">
        <ele>1080.4000244141</ele>
        <time>2024-01-30T15:36:04.000Z</time>
      </trkpt>
      <trkpt lat="44.80767" lon="3.03779">
        <ele>1079</ele>
        <time>2024-01-30T15:36:07.000Z</time>
      </trkpt>
      <trkpt lat="44.80827" lon="3.03766">
        <ele>1078.1999511719</ele>
        <time>2024-01-30T15:36:10.000Z</time>
      </trkpt>
      <trkpt lat="44.80866" lon="3.03747">
        <ele>1078</ele>
        <time>2024-01-30T15:36:12.000Z</time>
      </trkpt>
      <trkpt lat="44.80885" lon="3.03735">
        <ele>1077.8000488281</ele>
        <time>2024-01-30T15:36:13.000Z</time>
      </trkpt>
      <trkpt lat="44.80942" lon="3.0369">
        <ele>1076.8000488281</ele>
        <time>2024-01-30T15:36:16.000Z</time>
      </trkpt>
      <trkpt lat="44.8096" lon="3.03674">
        <ele>1076.1999511719</ele>
        <time>2024-01-30T15:36:17.000Z</time>
      </trkpt>
      <trkpt lat="44.80979" lon="3.03658">
        <ele>1075.4000244141</ele>
        <time>2024-01-30T15:36:18.000Z</time>
      </trkpt>
      <trkpt lat="44.81035" lon="3.03609">
        <ele>1074.1999511719</ele>
        <time>2024-01-30T15:36:21.000Z</time>
      </trkpt>
      <trkpt lat="44.81073" lon="3.03576">
        <ele>1073.1999511719</ele>
        <time>2024-01-30T15:36:23.000Z</time>
      </trkpt>
      <trkpt lat="44.81112" lon="3.03545">
        <ele>1071.4000244141</ele>
        <time>2024-01-30T15:36:25.000Z</time>
      </trkpt>
      <trkpt lat="44.8115" lon="3.03513">
        <ele>1069.1999511719</ele>
        <time>2024-01-30T15:36:27.000Z</time>
      </trkpt>
      <trkpt lat="44.81187" lon="3.03482">
        <ele>1067.5999755859</ele>
        <time>2024-01-30T15:36:29.000Z</time>
      </trkpt>
      <trkpt lat="44.81226" lon="3.03448">
        <ele>1066.4000244141</ele>
        <time>2024-01-30T15:36:31.000Z</time>
      </trkpt>
      <trkpt lat="44.81258" lon="3.03426">
        <ele>1065.1999511719</ele>
        <time>2024-01-30T15:36:33.000Z</time>
      </trkpt>
      <trkpt lat="44.81276" lon="3.03416">
        <ele>1064.8000488281</ele>
        <time>2024-01-30T15:36:34.000Z</time>
      </trkpt>
      <trkpt lat="44.81331" lon="3.03393">
        <ele>1063.5999755859</ele>
        <time>2024-01-30T15:36:37.000Z</time>
      </trkpt>
      <trkpt lat="44.81349" lon="3.03386">
        <ele>1063</ele>
        <time>2024-01-30T15:36:38.000Z</time>
      </trkpt>
      <trkpt lat="44.81387" lon="3.03373">
        <ele>1062.1999511719</ele>
        <time>2024-01-30T15:36:40.000Z</time>
      </trkpt>
      <trkpt lat="44.81443" lon="3.03356">
        <ele>1061</ele>
        <time>2024-01-30T15:36:43.000Z</time>
      </trkpt>
      <trkpt lat="44.81462" lon="3.0335">
        <ele>1060.5999755859</ele>
        <time>2024-01-30T15:36:44.000Z</time>
      </trkpt>
      <trkpt lat="44.81517" lon="3.03343">
        <ele>1059.4000244141</ele>
        <time>2024-01-30T15:36:47.000Z</time>
      </trkpt>
      <trkpt lat="44.81549" lon="3.03353">
        <ele>1058.1999511719</ele>
        <time>2024-01-30T15:36:49.000Z</time>
      </trkpt>
      <trkpt lat="44.81576" lon="3.0338">
        <ele>1056.8000488281</ele>
        <time>2024-01-30T15:36:51.000Z</time>
      </trkpt>
      <trkpt lat="44.81599" lon="3.03416">
        <ele>1055.8000488281</ele>
        <time>2024-01-30T15:36:53.000Z</time>
      </trkpt>
      <trkpt lat="44.81611" lon="3.03432">
        <ele>1055.1999511719</ele>
        <time>2024-01-30T15:36:54.000Z</time>
      </trkpt>
      <trkpt lat="44.81624" lon="3.03445">
        <ele>1053.8000488281</ele>
        <time>2024-01-30T15:36:55.000Z</time>
      </trkpt>
      <trkpt lat="44.81639" lon="3.03455">
        <ele>1053.1999511719</ele>
        <time>2024-01-30T15:36:56.000Z</time>
      </trkpt>
      <trkpt lat="44.81656" lon="3.03462">
        <ele>1052.4000244141</ele>
        <time>2024-01-30T15:36:57.000Z</time>
      </trkpt>
      <trkpt lat="44.81691" lon="3.03472">
        <ele>1051.5999755859</ele>
        <time>2024-01-30T15:36:59.000Z</time>
      </trkpt>
      <trkpt lat="44.81708" lon="3.03477">
        <ele>1051</ele>
        <time>2024-01-30T15:37:00.000Z</time>
      </trkpt>
      <trkpt lat="44.81743" lon="3.03489">
        <ele>1048.8000488281</ele>
        <time>2024-01-30T15:37:02.000Z</time>
      </trkpt>
      <trkpt lat="44.81778" lon="3.03497">
        <ele>1047.5999755859</ele>
        <time>2024-01-30T15:37:04.000Z</time>
      </trkpt>
      <trkpt lat="44.81794" lon="3.035">
        <ele>1047</ele>
        <time>2024-01-30T15:37:05.000Z</time>
      </trkpt>
      <trkpt lat="44.81811" lon="3.035">
        <ele>1046.8000488281</ele>
        <time>2024-01-30T15:37:06.000Z</time>
      </trkpt>
      <trkpt lat="44.81826" lon="3.03496">
        <ele>1045.5999755859</ele>
        <time>2024-01-30T15:37:07.000Z</time>
      </trkpt>
      <trkpt lat="44.8184" lon="3.0349">
        <ele>1045.1999511719</ele>
        <time>2024-01-30T15:37:08.000Z</time>
      </trkpt>
      <trkpt lat="44.81867" lon="3.03471">
        <ele>1045</ele>
        <time>2024-01-30T15:37:10.000Z</time>
      </trkpt>
      <trkpt lat="44.8188" lon="3.0346">
        <ele>1045</ele>
        <time>2024-01-30T15:37:11.000Z</time>
      </trkpt>
      <trkpt lat="44.81919" lon="3.03417">
        <ele>1044.4000244141</ele>
        <time>2024-01-30T15:37:14.000Z</time>
      </trkpt>
      <trkpt lat="44.81932" lon="3.03403">
        <ele>1044.1999511719</ele>
        <time>2024-01-30T15:37:15.000Z</time>
      </trkpt>
      <trkpt lat="44.81966" lon="3.03358">
        <ele>1043.5999755859</ele>
        <time>2024-01-30T15:37:18.000Z</time>
      </trkpt>
      <trkpt lat="44.81975" lon="3.03341">
        <ele>1043.5999755859</ele>
        <time>2024-01-30T15:37:19.000Z</time>
      </trkpt>
      <trkpt lat="44.81982" lon="3.03322">
        <ele>1043.5999755859</ele>
        <time>2024-01-30T15:37:20.000Z</time>
      </trkpt>
      <trkpt lat="44.81987" lon="3.03303">
        <ele>1043.4000244141</ele>
        <time>2024-01-30T15:37:21.000Z</time>
      </trkpt>
      <trkpt lat="44.81988" lon="3.03277">
        <ele>1043.4000244141</ele>
        <time>2024-01-30T15:37:22.000Z</time>
      </trkpt>
      <trkpt lat="44.81987" lon="3.0326">
        <ele>1043.5999755859</ele>
        <time>2024-01-30T15:37:23.000Z</time>
      </trkpt>
      <trkpt lat="44.81983" lon="3.03238">
        <ele>1043.5999755859</ele>
        <time>2024-01-30T15:37:24.000Z</time>
      </trkpt>
      <trkpt lat="44.81973" lon="3.03195">
        <ele>1044.1999511719</ele>
        <time>2024-01-30T15:37:26.000Z</time>
      </trkpt>
      <trkpt lat="44.81962" lon="3.03131">
        <ele>1045.1999511719</ele>
        <time>2024-01-30T15:37:29.000Z</time>
      </trkpt>
      <trkpt lat="44.81962" lon="3.03109">
        <ele>1045.1999511719</ele>
        <time>2024-01-30T15:37:30.000Z</time>
      </trkpt>
      <trkpt lat="44.81964" lon="3.03087">
        <ele>1045.4000244141</ele>
        <time>2024-01-30T15:37:31.000Z</time>
      </trkpt>
      <trkpt lat="44.81968" lon="3.03066">
        <ele>1045.4000244141</ele>
        <time>2024-01-30T15:37:32.000Z</time>
      </trkpt>
      <trkpt lat="44.81976" lon="3.03047">
        <ele>1045.8000488281</ele>
        <time>2024-01-30T15:37:33.000Z</time>
      </trkpt>
      <trkpt lat="44.81985" lon="3.03031">
        <ele>1045.8000488281</ele>
        <time>2024-01-30T15:37:34.000Z</time>
      </trkpt>
      <trkpt lat="44.81997" lon="3.03017">
        <ele>1045.8000488281</ele>
        <time>2024-01-30T15:37:35.000Z</time>
      </trkpt>
      <trkpt lat="44.8201" lon="3.03006">
        <ele>1046</ele>
        <time>2024-01-30T15:37:36.000Z</time>
      </trkpt>
      <trkpt lat="44.82026" lon="3.02999">
        <ele>1046.1999511719</ele>
        <time>2024-01-30T15:37:37.000Z</time>
      </trkpt>
      <trkpt lat="44.82042" lon="3.02993">
        <ele>1046.1999511719</ele>
        <time>2024-01-30T15:37:38.000Z</time>
      </trkpt>
      <trkpt lat="44.82113" lon="3.02975">
        <ele>1046.4000244141</ele>
        <time>2024-01-30T15:37:42.000Z</time>
      </trkpt>
      <trkpt lat="44.82172" lon="3.02959">
        <ele>1046.4000244141</ele>
        <time>2024-01-30T15:37:45.000Z</time>
      </trkpt>
      <trkpt lat="44.82192" lon="3.02954">
        <ele>1046.1999511719</ele>
        <time>2024-01-30T15:37:46.000Z</time>
      </trkpt>
      <trkpt lat="44.82213" lon="3.0295">
        <ele>1046</ele>
        <time>2024-01-30T15:37:47.000Z</time>
      </trkpt>
      <trkpt lat="44.82274" lon="3.02933">
        <ele>1045.4000244141</ele>
        <time>2024-01-30T15:37:50.000Z</time>
      </trkpt>
      <trkpt lat="44.8234" lon="3.02914">
        <ele>1044.5999755859</ele>
        <time>2024-01-30T15:37:53.000Z</time>
      </trkpt>
      <trkpt lat="44.82356" lon="3.0291">
        <ele>1044.1999511719</ele>
        <time>2024-01-30T15:37:54.000Z</time>
      </trkpt>
      <trkpt lat="44.82376" lon="3.02905">
        <ele>1044</ele>
        <time>2024-01-30T15:37:55.000Z</time>
      </trkpt>
      <trkpt lat="44.82435" lon="3.02886">
        <ele>1043</ele>
        <time>2024-01-30T15:37:58.000Z</time>
      </trkpt>
      <trkpt lat="44.8249" lon="3.02855">
        <ele>1041.8000488281</ele>
        <time>2024-01-30T15:38:01.000Z</time>
      </trkpt>
      <trkpt lat="44.82544" lon="3.02814">
        <ele>1041</ele>
        <time>2024-01-30T15:38:04.000Z</time>
      </trkpt>
      <trkpt lat="44.82561" lon="3.02798">
        <ele>1040.5999755859</ele>
        <time>2024-01-30T15:38:05.000Z</time>
      </trkpt>
      <trkpt lat="44.82582" lon="3.02779">
        <ele>1039.8000488281</ele>
        <time>2024-01-30T15:38:06.000Z</time>
      </trkpt>
      <trkpt lat="44.82596" lon="3.02766">
        <ele>1039.4000244141</ele>
        <time>2024-01-30T15:38:07.000Z</time>
      </trkpt>
      <trkpt lat="44.82632" lon="3.02737">
        <ele>1038.4000244141</ele>
        <time>2024-01-30T15:38:09.000Z</time>
      </trkpt>
      <trkpt lat="44.82651" lon="3.02725">
        <ele>1038</ele>
        <time>2024-01-30T15:38:10.000Z</time>
      </trkpt>
      <trkpt lat="44.82671" lon="3.02716">
        <ele>1037</ele>
        <time>2024-01-30T15:38:11.000Z</time>
      </trkpt>
      <trkpt lat="44.8271" lon="3.02703">
        <ele>1036.1999511719</ele>
        <time>2024-01-30T15:38:13.000Z</time>
      </trkpt>
      <trkpt lat="44.82731" lon="3.02701">
        <ele>1035.5999755859</ele>
        <time>2024-01-30T15:38:14.000Z</time>
      </trkpt>
      <trkpt lat="44.82752" lon="3.02701">
        <ele>1034.8000488281</ele>
        <time>2024-01-30T15:38:15.000Z</time>
      </trkpt>
      <trkpt lat="44.82774" lon="3.02703">
        <ele>1034.1999511719</ele>
        <time>2024-01-30T15:38:16.000Z</time>
      </trkpt>
      <trkpt lat="44.82797" lon="3.02707">
        <ele>1034</ele>
        <time>2024-01-30T15:38:17.000Z</time>
      </trkpt>
      <trkpt lat="44.82839" lon="3.02721">
        <ele>1032.4000244141</ele>
        <time>2024-01-30T15:38:19.000Z</time>
      </trkpt>
      <trkpt lat="44.82882" lon="3.02741">
        <ele>1031.4000244141</ele>
        <time>2024-01-30T15:38:21.000Z</time>
      </trkpt>
      <trkpt lat="44.82945" lon="3.02772">
        <ele>1030.4000244141</ele>
        <time>2024-01-30T15:38:24.000Z</time>
      </trkpt>
      <trkpt lat="44.82967" lon="3.02782">
        <ele>1030.1999511719</ele>
        <time>2024-01-30T15:38:25.000Z</time>
      </trkpt>
      <trkpt lat="44.83031" lon="3.02814">
        <ele>1029</ele>
        <time>2024-01-30T15:38:28.000Z</time>
      </trkpt>
      <trkpt lat="44.83096" lon="3.02846">
        <ele>1027.8000488281</ele>
        <time>2024-01-30T15:38:31.000Z</time>
      </trkpt>
      <trkpt lat="44.83117" lon="3.02855">
        <ele>1027.8000488281</ele>
        <time>2024-01-30T15:38:32.000Z</time>
      </trkpt>
      <trkpt lat="44.83181" lon="3.02886">
        <ele>1027.1999511719</ele>
        <time>2024-01-30T15:38:35.000Z</time>
      </trkpt>
      <trkpt lat="44.83201" lon="3.02896">
        <ele>1026.8000488281</ele>
        <time>2024-01-30T15:38:36.000Z</time>
      </trkpt>
      <trkpt lat="44.83243" lon="3.02916">
        <ele>1026</ele>
        <time>2024-01-30T15:38:38.000Z</time>
      </trkpt>
      <trkpt lat="44.83263" lon="3.02924">
        <ele>1025.1999511719</ele>
        <time>2024-01-30T15:38:39.000Z</time>
      </trkpt>
      <trkpt lat="44.83304" lon="3.02932">
        <ele>1024.4000244141</ele>
        <time>2024-01-30T15:38:41.000Z</time>
      </trkpt>
      <trkpt lat="44.83345" lon="3.02931">
        <ele>1024</ele>
        <time>2024-01-30T15:38:43.000Z</time>
      </trkpt>
      <trkpt lat="44.83365" lon="3.02927">
        <ele>1023.5999755859</ele>
        <time>2024-01-30T15:38:44.000Z</time>
      </trkpt>
      <trkpt lat="44.8341" lon="3.02918">
        <ele>1022.5999755859</ele>
        <time>2024-01-30T15:38:46.000Z</time>
      </trkpt>
      <trkpt lat="44.83446" lon="3.0291">
        <ele>1020.799987793</ele>
        <time>2024-01-30T15:38:48.000Z</time>
      </trkpt>
      <trkpt lat="44.83484" lon="3.02901">
        <ele>1018.5999755859</ele>
        <time>2024-01-30T15:38:50.000Z</time>
      </trkpt>
      <trkpt lat="44.83501" lon="3.02897">
        <ele>1017.5999755859</ele>
        <time>2024-01-30T15:38:51.000Z</time>
      </trkpt>
      <trkpt lat="44.83517" lon="3.02893">
        <ele>1015.5999755859</ele>
        <time>2024-01-30T15:38:52.000Z</time>
      </trkpt>
      <trkpt lat="44.83531" lon="3.02889">
        <ele>1014.799987793</ele>
        <time>2024-01-30T15:38:53.000Z</time>
      </trkpt>
      <trkpt lat="44.83543" lon="3.02886">
        <ele>1013.5999755859</ele>
        <time>2024-01-30T15:38:54.000Z</time>
      </trkpt>
      <trkpt lat="44.83553" lon="3.02884">
        <ele>1012.4000244141</ele>
        <time>2024-01-30T15:38:55.000Z</time>
      </trkpt>
      <trkpt lat="44.83562" lon="3.02884">
        <ele>1011.5999755859</ele>
        <time>2024-01-30T15:38:56.000Z</time>
      </trkpt>
      <trkpt lat="44.83568" lon="3.02886">
        <ele>1010.4000244141</ele>
        <time>2024-01-30T15:38:57.000Z</time>
      </trkpt>
      <trkpt lat="44.83573" lon="3.02889">
        <ele>1009.5999755859</ele>
        <time>2024-01-30T15:38:58.000Z</time>
      </trkpt>
      <trkpt lat="44.83576" lon="3.02891">
        <ele>1009</ele>
        <time>2024-01-30T15:38:59.000Z</time>
      </trkpt>
      <trkpt lat="44.8358" lon="3.02895">
        <ele>1008.799987793</ele>
        <time>2024-01-30T15:39:01.000Z</time>
      </trkpt>
      <trkpt lat="44.83584" lon="3.02895">
        <ele>1008.799987793</ele>
        <time>2024-01-30T15:39:02.000Z</time>
      </trkpt>
      <trkpt lat="44.83593" lon="3.0289">
        <ele>1008.799987793</ele>
        <time>2024-01-30T15:39:04.000Z</time>
      </trkpt>
      <trkpt lat="44.83616" lon="3.02875">
        <ele>1008.5999755859</ele>
        <time>2024-01-30T15:39:07.000Z</time>
      </trkpt>
      <trkpt lat="44.83646" lon="3.02856">
        <ele>1008.4000244141</ele>
        <time>2024-01-30T15:39:10.000Z</time>
      </trkpt>
      <trkpt lat="44.83683" lon="3.02833">
        <ele>1007.4000244141</ele>
        <time>2024-01-30T15:39:13.000Z</time>
      </trkpt>
      <trkpt lat="44.83696" lon="3.02824">
        <ele>1007.200012207</ele>
        <time>2024-01-30T15:39:14.000Z</time>
      </trkpt>
      <trkpt lat="44.83724" lon="3.02805">
        <ele>1006.4000244141</ele>
        <time>2024-01-30T15:39:16.000Z</time>
      </trkpt>
      <trkpt lat="44.83755" lon="3.02784">
        <ele>1005.4000244141</ele>
        <time>2024-01-30T15:39:18.000Z</time>
      </trkpt>
      <trkpt lat="44.8377" lon="3.02773">
        <ele>1004.5999755859</ele>
        <time>2024-01-30T15:39:19.000Z</time>
      </trkpt>
      <trkpt lat="44.83786" lon="3.02762">
        <ele>1003.4000244141</ele>
        <time>2024-01-30T15:39:20.000Z</time>
      </trkpt>
      <trkpt lat="44.83818" lon="3.02739">
        <ele>1001.5999755859</ele>
        <time>2024-01-30T15:39:22.000Z</time>
      </trkpt>
      <trkpt lat="44.83833" lon="3.02725">
        <ele>1001.200012207</ele>
        <time>2024-01-30T15:39:23.000Z</time>
      </trkpt>
      <trkpt lat="44.83848" lon="3.0271">
        <ele>1000.5999755859</ele>
        <time>2024-01-30T15:39:24.000Z</time>
      </trkpt>
      <trkpt lat="44.83875" lon="3.02677">
        <ele>999</ele>
        <time>2024-01-30T15:39:26.000Z</time>
      </trkpt>
      <trkpt lat="44.83901" lon="3.02639">
        <ele>997.20001220703</ele>
        <time>2024-01-30T15:39:28.000Z</time>
      </trkpt>
      <trkpt lat="44.83914" lon="3.0262">
        <ele>995.59997558594</ele>
        <time>2024-01-30T15:39:29.000Z</time>
      </trkpt>
      <trkpt lat="44.83941" lon="3.02581">
        <ele>994.20001220703</ele>
        <time>2024-01-30T15:39:31.000Z</time>
      </trkpt>
      <trkpt lat="44.83954" lon="3.02562">
        <ele>993.20001220703</ele>
        <time>2024-01-30T15:39:32.000Z</time>
      </trkpt>
      <trkpt lat="44.83979" lon="3.02524">
        <ele>992.20001220703</ele>
        <time>2024-01-30T15:39:34.000Z</time>
      </trkpt>
      <trkpt lat="44.84014" lon="3.02468">
        <ele>990.40002441406</ele>
        <time>2024-01-30T15:39:37.000Z</time>
      </trkpt>
      <trkpt lat="44.84033" lon="3.02427">
        <ele>989.59997558594</ele>
        <time>2024-01-30T15:39:39.000Z</time>
      </trkpt>
      <trkpt lat="44.84039" lon="3.02407">
        <ele>988.79998779297</ele>
        <time>2024-01-30T15:39:40.000Z</time>
      </trkpt>
      <trkpt lat="44.84051" lon="3.02346">
        <ele>987.40002441406</ele>
        <time>2024-01-30T15:39:43.000Z</time>
      </trkpt>
      <trkpt lat="44.8405" lon="3.0228">
        <ele>986.79998779297</ele>
        <time>2024-01-30T15:39:46.000Z</time>
      </trkpt>
      <trkpt lat="44.84049" lon="3.02213">
        <ele>986.20001220703</ele>
        <time>2024-01-30T15:39:49.000Z</time>
      </trkpt>
      <trkpt lat="44.84052" lon="3.02191">
        <ele>985.79998779297</ele>
        <time>2024-01-30T15:39:50.000Z</time>
      </trkpt>
      <trkpt lat="44.84057" lon="3.02168">
        <ele>985.20001220703</ele>
        <time>2024-01-30T15:39:51.000Z</time>
      </trkpt>
      <trkpt lat="44.84063" lon="3.02145">
        <ele>984</ele>
        <time>2024-01-30T15:39:52.000Z</time>
      </trkpt>
      <trkpt lat="44.84068" lon="3.02122">
        <ele>982.79998779297</ele>
        <time>2024-01-30T15:39:53.000Z</time>
      </trkpt>
      <trkpt lat="44.84073" lon="3.02098">
        <ele>982</ele>
        <time>2024-01-30T15:39:54.000Z</time>
      </trkpt>
      <trkpt lat="44.84079" lon="3.02075">
        <ele>981</ele>
        <time>2024-01-30T15:39:55.000Z</time>
      </trkpt>
      <trkpt lat="44.84085" lon="3.02051">
        <ele>979.59997558594</ele>
        <time>2024-01-30T15:39:56.000Z</time>
      </trkpt>
      <trkpt lat="44.84098" lon="3.02005">
        <ele>978</ele>
        <time>2024-01-30T15:39:58.000Z</time>
      </trkpt>
      <trkpt lat="44.84105" lon="3.01981">
        <ele>976.79998779297</ele>
        <time>2024-01-30T15:39:59.000Z</time>
      </trkpt>
      <trkpt lat="44.84118" lon="3.01933">
        <ele>974.59997558594</ele>
        <time>2024-01-30T15:40:01.000Z</time>
      </trkpt>
      <trkpt lat="44.84123" lon="3.01908">
        <ele>973.40002441406</ele>
        <time>2024-01-30T15:40:02.000Z</time>
      </trkpt>
      <trkpt lat="44.84128" lon="3.01883">
        <ele>972</ele>
        <time>2024-01-30T15:40:03.000Z</time>
      </trkpt>
      <trkpt lat="44.84133" lon="3.01859">
        <ele>970.79998779297</ele>
        <time>2024-01-30T15:40:04.000Z</time>
      </trkpt>
      <trkpt lat="44.84138" lon="3.01835">
        <ele>969.59997558594</ele>
        <time>2024-01-30T15:40:05.000Z</time>
      </trkpt>
      <trkpt lat="44.84143" lon="3.01812">
        <ele>968</ele>
        <time>2024-01-30T15:40:06.000Z</time>
      </trkpt>
      <trkpt lat="44.84147" lon="3.01794">
        <ele>967</ele>
        <time>2024-01-30T15:40:07.000Z</time>
      </trkpt>
      <trkpt lat="44.84155" lon="3.01769">
        <ele>966.20001220703</ele>
        <time>2024-01-30T15:40:08.000Z</time>
      </trkpt>
      <trkpt lat="44.84165" lon="3.01748">
        <ele>964.79998779297</ele>
        <time>2024-01-30T15:40:09.000Z</time>
      </trkpt>
      <trkpt lat="44.84173" lon="3.01733">
        <ele>964</ele>
        <time>2024-01-30T15:40:10.000Z</time>
      </trkpt>
      <trkpt lat="44.84186" lon="3.0171">
        <ele>963.40002441406</ele>
        <time>2024-01-30T15:40:11.000Z</time>
      </trkpt>
      <trkpt lat="44.84197" lon="3.0169">
        <ele>961.79998779297</ele>
        <time>2024-01-30T15:40:12.000Z</time>
      </trkpt>
      <trkpt lat="44.84208" lon="3.0167">
        <ele>960.59997558594</ele>
        <time>2024-01-30T15:40:13.000Z</time>
      </trkpt>
      <trkpt lat="44.84219" lon="3.01652">
        <ele>959.40002441406</ele>
        <time>2024-01-30T15:40:14.000Z</time>
      </trkpt>
      <trkpt lat="44.8423" lon="3.01634">
        <ele>958</ele>
        <time>2024-01-30T15:40:15.000Z</time>
      </trkpt>
      <trkpt lat="44.84241" lon="3.01616">
        <ele>956.59997558594</ele>
        <time>2024-01-30T15:40:16.000Z</time>
      </trkpt>
      <trkpt lat="44.84252" lon="3.01601">
        <ele>955.40002441406</ele>
        <time>2024-01-30T15:40:17.000Z</time>
      </trkpt>
      <trkpt lat="44.84266" lon="3.01589">
        <ele>954.20001220703</ele>
        <time>2024-01-30T15:40:18.000Z</time>
      </trkpt>
      <trkpt lat="44.8428" lon="3.01578">
        <ele>953.79998779297</ele>
        <time>2024-01-30T15:40:19.000Z</time>
      </trkpt>
      <trkpt lat="44.84341" lon="3.01531">
        <ele>953.40002441406</ele>
        <time>2024-01-30T15:40:23.000Z</time>
      </trkpt>
      <trkpt lat="44.84357" lon="3.0152">
        <ele>953.40002441406</ele>
        <time>2024-01-30T15:40:24.000Z</time>
      </trkpt>
      <trkpt lat="44.8439" lon="3.01503">
        <ele>953</ele>
        <time>2024-01-30T15:40:26.000Z</time>
      </trkpt>
      <trkpt lat="44.84407" lon="3.01495">
        <ele>951.79998779297</ele>
        <time>2024-01-30T15:40:27.000Z</time>
      </trkpt>
      <trkpt lat="44.84424" lon="3.01487">
        <ele>950.59997558594</ele>
        <time>2024-01-30T15:40:28.000Z</time>
      </trkpt>
      <trkpt lat="44.84442" lon="3.01478">
        <ele>949.59997558594</ele>
        <time>2024-01-30T15:40:29.000Z</time>
      </trkpt>
      <trkpt lat="44.84458" lon="3.01469">
        <ele>948.59997558594</ele>
        <time>2024-01-30T15:40:30.000Z</time>
      </trkpt>
      <trkpt lat="44.84474" lon="3.01459">
        <ele>947.20001220703</ele>
        <time>2024-01-30T15:40:31.000Z</time>
      </trkpt>
      <trkpt lat="44.84487" lon="3.01449">
        <ele>945.20001220703</ele>
        <time>2024-01-30T15:40:32.000Z</time>
      </trkpt>
      <trkpt lat="44.84499" lon="3.01436">
        <ele>943.40002441406</ele>
        <time>2024-01-30T15:40:33.000Z</time>
      </trkpt>
      <trkpt lat="44.84509" lon="3.01423">
        <ele>941.79998779297</ele>
        <time>2024-01-30T15:40:34.000Z</time>
      </trkpt>
      <trkpt lat="44.84517" lon="3.01407">
        <ele>940.40002441406</ele>
        <time>2024-01-30T15:40:35.000Z</time>
      </trkpt>
      <trkpt lat="44.84527" lon="3.01372">
        <ele>938</ele>
        <time>2024-01-30T15:40:37.000Z</time>
      </trkpt>
      <trkpt lat="44.84529" lon="3.01354">
        <ele>937</ele>
        <time>2024-01-30T15:40:38.000Z</time>
      </trkpt>
      <trkpt lat="44.84529" lon="3.01334">
        <ele>936.20001220703</ele>
        <time>2024-01-30T15:40:39.000Z</time>
      </trkpt>
      <trkpt lat="44.84527" lon="3.01315">
        <ele>935.59997558594</ele>
        <time>2024-01-30T15:40:40.000Z</time>
      </trkpt>
      <trkpt lat="44.84525" lon="3.01296">
        <ele>934.20001220703</ele>
        <time>2024-01-30T15:40:41.000Z</time>
      </trkpt>
      <trkpt lat="44.84519" lon="3.0126">
        <ele>932.79998779297</ele>
        <time>2024-01-30T15:40:43.000Z</time>
      </trkpt>
      <trkpt lat="44.84516" lon="3.01243">
        <ele>931.40002441406</ele>
        <time>2024-01-30T15:40:44.000Z</time>
      </trkpt>
      <trkpt lat="44.84509" lon="3.0121">
        <ele>930.40002441406</ele>
        <time>2024-01-30T15:40:46.000Z</time>
      </trkpt>
      <trkpt lat="44.84495" lon="3.0115">
        <ele>929.20001220703</ele>
        <time>2024-01-30T15:40:50.000Z</time>
      </trkpt>
      <trkpt lat="44.84475" lon="3.01065">
        <ele>929.20001220703</ele>
        <time>2024-01-30T15:40:55.000Z</time>
      </trkpt>
      <trkpt lat="44.84457" lon="3.00986">
        <ele>928.59997558594</ele>
        <time>2024-01-30T15:40:59.000Z</time>
      </trkpt>
      <trkpt lat="44.84452" lon="3.00968">
        <ele>927.79998779297</ele>
        <time>2024-01-30T15:41:00.000Z</time>
      </trkpt>
      <trkpt lat="44.84449" lon="3.00951">
        <ele>926</ele>
        <time>2024-01-30T15:41:01.000Z</time>
      </trkpt>
      <trkpt lat="44.84446" lon="3.00931">
        <ele>924.59997558594</ele>
        <time>2024-01-30T15:41:02.000Z</time>
      </trkpt>
      <trkpt lat="44.84446" lon="3.00919">
        <ele>923.59997558594</ele>
        <time>2024-01-30T15:41:03.000Z</time>
      </trkpt>
      <trkpt lat="44.84449" lon="3.00902">
        <ele>922.40002441406</ele>
        <time>2024-01-30T15:41:04.000Z</time>
      </trkpt>
      <trkpt lat="44.84461" lon="3.00874">
        <ele>920.20001220703</ele>
        <time>2024-01-30T15:41:06.000Z</time>
      </trkpt>
      <trkpt lat="44.8448" lon="3.00848">
        <ele>919</ele>
        <time>2024-01-30T15:41:08.000Z</time>
      </trkpt>
      <trkpt lat="44.84492" lon="3.00835">
        <ele>918.59997558594</ele>
        <time>2024-01-30T15:41:09.000Z</time>
      </trkpt>
      <trkpt lat="44.8452" lon="3.00806">
        <ele>917.79998779297</ele>
        <time>2024-01-30T15:41:11.000Z</time>
      </trkpt>
      <trkpt lat="44.84533" lon="3.00792">
        <ele>916.40002441406</ele>
        <time>2024-01-30T15:41:12.000Z</time>
      </trkpt>
      <trkpt lat="44.84543" lon="3.0078">
        <ele>916.40002441406</ele>
        <time>2024-01-30T15:41:13.000Z</time>
      </trkpt>
      <trkpt lat="44.84573" lon="3.00748">
        <ele>912</ele>
        <time>2024-01-30T15:41:15.000Z</time>
      </trkpt>
      <trkpt lat="44.84586" lon="3.00739">
        <ele>907.20001220703</ele>
        <time>2024-01-30T15:41:16.000Z</time>
      </trkpt>
      <trkpt lat="44.84601" lon="3.00727">
        <ele>906</ele>
        <time>2024-01-30T15:41:17.000Z</time>
      </trkpt>
      <trkpt lat="44.84617" lon="3.00716">
        <ele>904.79998779297</ele>
        <time>2024-01-30T15:41:18.000Z</time>
      </trkpt>
      <trkpt lat="44.84632" lon="3.00704">
        <ele>903.40002441406</ele>
        <time>2024-01-30T15:41:19.000Z</time>
      </trkpt>
      <trkpt lat="44.84648" lon="3.00692">
        <ele>902</ele>
        <time>2024-01-30T15:41:20.000Z</time>
      </trkpt>
      <trkpt lat="44.84667" lon="3.00677">
        <ele>900.59997558594</ele>
        <time>2024-01-30T15:41:21.000Z</time>
      </trkpt>
      <trkpt lat="44.84682" lon="3.00665">
        <ele>899</ele>
        <time>2024-01-30T15:41:22.000Z</time>
      </trkpt>
      <trkpt lat="44.84697" lon="3.00651">
        <ele>897.79998779297</ele>
        <time>2024-01-30T15:41:23.000Z</time>
      </trkpt>
      <trkpt lat="44.84711" lon="3.00638">
        <ele>896</ele>
        <time>2024-01-30T15:41:24.000Z</time>
      </trkpt>
      <trkpt lat="44.84724" lon="3.00624">
        <ele>895</ele>
        <time>2024-01-30T15:41:25.000Z</time>
      </trkpt>
      <trkpt lat="44.84735" lon="3.00612">
        <ele>893.59997558594</ele>
        <time>2024-01-30T15:41:26.000Z</time>
      </trkpt>
      <trkpt lat="44.8475" lon="3.00597">
        <ele>892.40002441406</ele>
        <time>2024-01-30T15:41:27.000Z</time>
      </trkpt>
      <trkpt lat="44.84763" lon="3.00586">
        <ele>891</ele>
        <time>2024-01-30T15:41:28.000Z</time>
      </trkpt>
      <trkpt lat="44.84778" lon="3.00581">
        <ele>889.59997558594</ele>
        <time>2024-01-30T15:41:29.000Z</time>
      </trkpt>
      <trkpt lat="44.84793" lon="3.00574">
        <ele>888.40002441406</ele>
        <time>2024-01-30T15:41:30.000Z</time>
      </trkpt>
      <trkpt lat="44.84805" lon="3.00571">
        <ele>887</ele>
        <time>2024-01-30T15:41:31.000Z</time>
      </trkpt>
      <trkpt lat="44.84821" lon="3.00569">
        <ele>886</ele>
        <time>2024-01-30T15:41:32.000Z</time>
      </trkpt>
      <trkpt lat="44.84838" lon="3.00568">
        <ele>885</ele>
        <time>2024-01-30T15:41:33.000Z</time>
      </trkpt>
      <trkpt lat="44.84854" lon="3.00567">
        <ele>884</ele>
        <time>2024-01-30T15:41:34.000Z</time>
      </trkpt>
      <trkpt lat="44.84875" lon="3.00567">
        <ele>882.79998779297</ele>
        <time>2024-01-30T15:41:35.000Z</time>
      </trkpt>
      <trkpt lat="44.84891" lon="3.00566">
        <ele>881.59997558594</ele>
        <time>2024-01-30T15:41:36.000Z</time>
      </trkpt>
      <trkpt lat="44.84909" lon="3.00564">
        <ele>880.20001220703</ele>
        <time>2024-01-30T15:41:37.000Z</time>
      </trkpt>
      <trkpt lat="44.84923" lon="3.00564">
        <ele>878.79998779297</ele>
        <time>2024-01-30T15:41:38.000Z</time>
      </trkpt>
      <trkpt lat="44.84955" lon="3.00566">
        <ele>876.20001220703</ele>
        <time>2024-01-30T15:41:40.000Z</time>
      </trkpt>
      <trkpt lat="44.8497" lon="3.00573">
        <ele>875</ele>
        <time>2024-01-30T15:41:41.000Z</time>
      </trkpt>
      <trkpt lat="44.84984" lon="3.0058">
        <ele>873.59997558594</ele>
        <time>2024-01-30T15:41:42.000Z</time>
      </trkpt>
      <trkpt lat="44.84999" lon="3.00587">
        <ele>872.20001220703</ele>
        <time>2024-01-30T15:41:43.000Z</time>
      </trkpt>
      <trkpt lat="44.85013" lon="3.00591">
        <ele>871.20001220703</ele>
        <time>2024-01-30T15:41:44.000Z</time>
      </trkpt>
      <trkpt lat="44.85028" lon="3.00591">
        <ele>870</ele>
        <time>2024-01-30T15:41:45.000Z</time>
      </trkpt>
      <trkpt lat="44.85043" lon="3.00589">
        <ele>868.79998779297</ele>
        <time>2024-01-30T15:41:46.000Z</time>
      </trkpt>
      <trkpt lat="44.85061" lon="3.00587">
        <ele>867.79998779297</ele>
        <time>2024-01-30T15:41:47.000Z</time>
      </trkpt>
      <trkpt lat="44.8509" lon="3.0059">
        <ele>865.40002441406</ele>
        <time>2024-01-30T15:41:49.000Z</time>
      </trkpt>
      <trkpt lat="44.85107" lon="3.00594">
        <ele>864.59997558594</ele>
        <time>2024-01-30T15:41:50.000Z</time>
      </trkpt>
      <trkpt lat="44.85123" lon="3.00599">
        <ele>863.40002441406</ele>
        <time>2024-01-30T15:41:51.000Z</time>
      </trkpt>
      <trkpt lat="44.85155" lon="3.00614">
        <ele>860.59997558594</ele>
        <time>2024-01-30T15:41:53.000Z</time>
      </trkpt>
      <trkpt lat="44.85171" lon="3.00623">
        <ele>859.79998779297</ele>
        <time>2024-01-30T15:41:54.000Z</time>
      </trkpt>
      <trkpt lat="44.85187" lon="3.00632">
        <ele>858.79998779297</ele>
        <time>2024-01-30T15:41:55.000Z</time>
      </trkpt>
      <trkpt lat="44.85207" lon="3.00641">
        <ele>857.79998779297</ele>
        <time>2024-01-30T15:41:56.000Z</time>
      </trkpt>
      <trkpt lat="44.85221" lon="3.00647">
        <ele>856.40002441406</ele>
        <time>2024-01-30T15:41:57.000Z</time>
      </trkpt>
      <trkpt lat="44.85238" lon="3.00654">
        <ele>855.20001220703</ele>
        <time>2024-01-30T15:41:58.000Z</time>
      </trkpt>
      <trkpt lat="44.85259" lon="3.00663">
        <ele>853.79998779297</ele>
        <time>2024-01-30T15:41:59.000Z</time>
      </trkpt>
      <trkpt lat="44.85276" lon="3.00669">
        <ele>852.40002441406</ele>
        <time>2024-01-30T15:42:00.000Z</time>
      </trkpt>
      <trkpt lat="44.85293" lon="3.00675">
        <ele>851</ele>
        <time>2024-01-30T15:42:01.000Z</time>
      </trkpt>
      <trkpt lat="44.85306" lon="3.00679">
        <ele>849.40002441406</ele>
        <time>2024-01-30T15:42:02.000Z</time>
      </trkpt>
      <trkpt lat="44.85323" lon="3.00685">
        <ele>847.40002441406</ele>
        <time>2024-01-30T15:42:03.000Z</time>
      </trkpt>
      <trkpt lat="44.85332" lon="3.0069">
        <ele>845.59997558594</ele>
        <time>2024-01-30T15:42:04.000Z</time>
      </trkpt>
      <trkpt lat="44.85342" lon="3.00697">
        <ele>844.40002441406</ele>
        <time>2024-01-30T15:42:05.000Z</time>
      </trkpt>
      <trkpt lat="44.85351" lon="3.00707">
        <ele>843</ele>
        <time>2024-01-30T15:42:06.000Z</time>
      </trkpt>
      <trkpt lat="44.85354" lon="3.00716">
        <ele>842.20001220703</ele>
        <time>2024-01-30T15:42:07.000Z</time>
      </trkpt>
      <trkpt lat="44.85356" lon="3.00728">
        <ele>841.59997558594</ele>
        <time>2024-01-30T15:42:08.000Z</time>
      </trkpt>
      <trkpt lat="44.85355" lon="3.0074">
        <ele>841</ele>
        <time>2024-01-30T15:42:09.000Z</time>
      </trkpt>
      <trkpt lat="44.85351" lon="3.00751">
        <ele>840.40002441406</ele>
        <time>2024-01-30T15:42:10.000Z</time>
      </trkpt>
      <trkpt lat="44.85344" lon="3.0076">
        <ele>839.79998779297</ele>
        <time>2024-01-30T15:42:11.000Z</time>
      </trkpt>
      <trkpt lat="44.85336" lon="3.00768">
        <ele>839.59997558594</ele>
        <time>2024-01-30T15:42:12.000Z</time>
      </trkpt>
      <trkpt lat="44.85327" lon="3.00776">
        <ele>839.20001220703</ele>
        <time>2024-01-30T15:42:13.000Z</time>
      </trkpt>
      <trkpt lat="44.8532" lon="3.00786">
        <ele>839</ele>
        <time>2024-01-30T15:42:14.000Z</time>
      </trkpt>
      <trkpt lat="44.85313" lon="3.00798">
        <ele>838.59997558594</ele>
        <time>2024-01-30T15:42:15.000Z</time>
      </trkpt>
      <trkpt lat="44.85301" lon="3.0082">
        <ele>838</ele>
        <time>2024-01-30T15:42:17.000Z</time>
      </trkpt>
      <trkpt lat="44.85285" lon="3.00834">
        <ele>837</ele>
        <time>2024-01-30T15:42:19.000Z</time>
      </trkpt>
      <trkpt lat="44.85266" lon="3.00832">
        <ele>836.40002441406</ele>
        <time>2024-01-30T15:42:21.000Z</time>
      </trkpt>
      <trkpt lat="44.85258" lon="3.00827">
        <ele>835.79998779297</ele>
        <time>2024-01-30T15:42:22.000Z</time>
      </trkpt>
      <trkpt lat="44.85244" lon="3.00821">
        <ele>834.40002441406</ele>
        <time>2024-01-30T15:42:24.000Z</time>
      </trkpt>
      <trkpt lat="44.85238" lon="3.00821">
        <ele>834</ele>
        <time>2024-01-30T15:42:25.000Z</time>
      </trkpt>
      <trkpt lat="44.85232" lon="3.00825">
        <ele>833.79998779297</ele>
        <time>2024-01-30T15:42:26.000Z</time>
      </trkpt>
      <trkpt lat="44.85228" lon="3.00832">
        <ele>833.59997558594</ele>
        <time>2024-01-30T15:42:27.000Z</time>
      </trkpt>
      <trkpt lat="44.85227" lon="3.00839">
        <ele>833.59997558594</ele>
        <time>2024-01-30T15:42:28.000Z</time>
      </trkpt>
      <trkpt lat="44.8523" lon="3.00847">
        <ele>833.20001220703</ele>
        <time>2024-01-30T15:42:29.000Z</time>
      </trkpt>
      <trkpt lat="44.85236" lon="3.00851">
        <ele>833</ele>
        <time>2024-01-30T15:42:30.000Z</time>
      </trkpt>
      <trkpt lat="44.85242" lon="3.00854">
        <ele>832.79998779297</ele>
        <time>2024-01-30T15:42:31.000Z</time>
      </trkpt>
      <trkpt lat="44.85267" lon="3.00861">
        <ele>832</ele>
        <time>2024-01-30T15:42:34.000Z</time>
      </trkpt>
      <trkpt lat="44.85276" lon="3.00863">
        <ele>831.40002441406</ele>
        <time>2024-01-30T15:42:35.000Z</time>
      </trkpt>
      <trkpt lat="44.85285" lon="3.00865">
        <ele>830.79998779297</ele>
        <time>2024-01-30T15:42:36.000Z</time>
      </trkpt>
      <trkpt lat="44.85303" lon="3.00862">
        <ele>829.40002441406</ele>
        <time>2024-01-30T15:42:38.000Z</time>
      </trkpt>
      <trkpt lat="44.85317" lon="3.00845">
        <ele>828.20001220703</ele>
        <time>2024-01-30T15:42:40.000Z</time>
      </trkpt>
      <trkpt lat="44.85331" lon="3.00821">
        <ele>827.40002441406</ele>
        <time>2024-01-30T15:42:42.000Z</time>
      </trkpt>
      <trkpt lat="44.8534" lon="3.00811">
        <ele>826.79998779297</ele>
        <time>2024-01-30T15:42:43.000Z</time>
      </trkpt>
      <trkpt lat="44.85351" lon="3.00802">
        <ele>826.20001220703</ele>
        <time>2024-01-30T15:42:44.000Z</time>
      </trkpt>
      <trkpt lat="44.85362" lon="3.00793">
        <ele>825.20001220703</ele>
        <time>2024-01-30T15:42:45.000Z</time>
      </trkpt>
      <trkpt lat="44.85373" lon="3.00784">
        <ele>824.79998779297</ele>
        <time>2024-01-30T15:42:46.000Z</time>
      </trkpt>
      <trkpt lat="44.85384" lon="3.00773">
        <ele>824.20001220703</ele>
        <time>2024-01-30T15:42:47.000Z</time>
      </trkpt>
      <trkpt lat="44.85402" lon="3.00752">
        <ele>823</ele>
        <time>2024-01-30T15:42:49.000Z</time>
      </trkpt>
      <trkpt lat="44.85408" lon="3.00741">
        <ele>822</ele>
        <time>2024-01-30T15:42:50.000Z</time>
      </trkpt>
      <trkpt lat="44.85413" lon="3.00729">
        <ele>820.79998779297</ele>
        <time>2024-01-30T15:42:51.000Z</time>
      </trkpt>
      <trkpt lat="44.85414" lon="3.00705">
        <ele>819.59997558594</ele>
        <time>2024-01-30T15:42:53.000Z</time>
      </trkpt>
      <trkpt lat="44.85405" lon="3.00684">
        <ele>818.59997558594</ele>
        <time>2024-01-30T15:42:55.000Z</time>
      </trkpt>
      <trkpt lat="44.85398" lon="3.00677">
        <ele>818.40002441406</ele>
        <time>2024-01-30T15:42:56.000Z</time>
      </trkpt>
      <trkpt lat="44.8539" lon="3.00672">
        <ele>817.79998779297</ele>
        <time>2024-01-30T15:42:57.000Z</time>
      </trkpt>
      <trkpt lat="44.85376" lon="3.00664">
        <ele>816.59997558594</ele>
        <time>2024-01-30T15:42:59.000Z</time>
      </trkpt>
      <trkpt lat="44.85369" lon="3.00652">
        <ele>815.40002441406</ele>
        <time>2024-01-30T15:43:01.000Z</time>
      </trkpt>
      <trkpt lat="44.85369" lon="3.00645">
        <ele>814.59997558594</ele>
        <time>2024-01-30T15:43:02.000Z</time>
      </trkpt>
      <trkpt lat="44.85372" lon="3.00642">
        <ele>814.40002441406</ele>
        <time>2024-01-30T15:43:03.000Z</time>
      </trkpt>
      <trkpt lat="44.85378" lon="3.0064">
        <ele>814</ele>
        <time>2024-01-30T15:43:04.000Z</time>
      </trkpt>
      <trkpt lat="44.85382" lon="3.00643">
        <ele>813.59997558594</ele>
        <time>2024-01-30T15:43:05.000Z</time>
      </trkpt>
      <trkpt lat="44.85396" lon="3.00653">
        <ele>813.20001220703</ele>
        <time>2024-01-30T15:43:07.000Z</time>
      </trkpt>
      <trkpt lat="44.8542" lon="3.00674">
        <ele>811.79998779297</ele>
        <time>2024-01-30T15:43:10.000Z</time>
      </trkpt>
      <trkpt lat="44.85429" lon="3.00683">
        <ele>811.40002441406</ele>
        <time>2024-01-30T15:43:11.000Z</time>
      </trkpt>
      <trkpt lat="44.85436" lon="3.00693">
        <ele>810.59997558594</ele>
        <time>2024-01-30T15:43:12.000Z</time>
      </trkpt>
      <trkpt lat="44.85439" lon="3.00705">
        <ele>809.59997558594</ele>
        <time>2024-01-30T15:43:13.000Z</time>
      </trkpt>
      <trkpt lat="44.85441" lon="3.00716">
        <ele>808.40002441406</ele>
        <time>2024-01-30T15:43:14.000Z</time>
      </trkpt>
      <trkpt lat="44.85439" lon="3.00726">
        <ele>807.59997558594</ele>
        <time>2024-01-30T15:43:15.000Z</time>
      </trkpt>
      <trkpt lat="44.85435" lon="3.00737">
        <ele>806.40002441406</ele>
        <time>2024-01-30T15:43:16.000Z</time>
      </trkpt>
      <trkpt lat="44.85432" lon="3.00746">
        <ele>806.20001220703</ele>
        <time>2024-01-30T15:43:17.000Z</time>
      </trkpt>
      <trkpt lat="44.85432" lon="3.00755">
        <ele>805.20001220703</ele>
        <time>2024-01-30T15:43:18.000Z</time>
      </trkpt>
      <trkpt lat="44.85433" lon="3.00763">
        <ele>804.59997558594</ele>
        <time>2024-01-30T15:43:19.000Z</time>
      </trkpt>
      <trkpt lat="44.85442" lon="3.0077">
        <ele>803.79998779297</ele>
        <time>2024-01-30T15:43:21.000Z</time>
      </trkpt>
      <trkpt lat="44.85459" lon="3.00756">
        <ele>803.20001220703</ele>
        <time>2024-01-30T15:43:24.000Z</time>
      </trkpt>
      <trkpt lat="44.8547" lon="3.00737">
        <ele>802.40002441406</ele>
        <time>2024-01-30T15:43:26.000Z</time>
      </trkpt>
      <trkpt lat="44.85473" lon="3.00726">
        <ele>801.59997558594</ele>
        <time>2024-01-30T15:43:27.000Z</time>
      </trkpt>
      <trkpt lat="44.85474" lon="3.00713">
        <ele>801.20001220703</ele>
        <time>2024-01-30T15:43:28.000Z</time>
      </trkpt>
      <trkpt lat="44.85472" lon="3.007">
        <ele>800.40002441406</ele>
        <time>2024-01-30T15:43:29.000Z</time>
      </trkpt>
      <trkpt lat="44.85468" lon="3.00687">
        <ele>799.59997558594</ele>
        <time>2024-01-30T15:43:30.000Z</time>
      </trkpt>
      <trkpt lat="44.85454" lon="3.00662">
        <ele>798.59997558594</ele>
        <time>2024-01-30T15:43:32.000Z</time>
      </trkpt>
      <trkpt lat="44.85445" lon="3.0065">
        <ele>798</ele>
        <time>2024-01-30T15:43:33.000Z</time>
      </trkpt>
      <trkpt lat="44.85424" lon="3.00625">
        <ele>796.59997558594</ele>
        <time>2024-01-30T15:43:35.000Z</time>
      </trkpt>
      <trkpt lat="44.85415" lon="3.00616">
        <ele>796.20001220703</ele>
        <time>2024-01-30T15:43:36.000Z</time>
      </trkpt>
      <trkpt lat="44.85404" lon="3.00607">
        <ele>795</ele>
        <time>2024-01-30T15:43:37.000Z</time>
      </trkpt>
      <trkpt lat="44.85393" lon="3.006">
        <ele>793.79998779297</ele>
        <time>2024-01-30T15:43:38.000Z</time>
      </trkpt>
      <trkpt lat="44.85382" lon="3.00592">
        <ele>792.59997558594</ele>
        <time>2024-01-30T15:43:39.000Z</time>
      </trkpt>
      <trkpt lat="44.8536" lon="3.00573">
        <ele>791.20001220703</ele>
        <time>2024-01-30T15:43:41.000Z</time>
      </trkpt>
      <trkpt lat="44.85353" lon="3.00564">
        <ele>790.40002441406</ele>
        <time>2024-01-30T15:43:42.000Z</time>
      </trkpt>
      <trkpt lat="44.85344" lon="3.0055">
        <ele>789.40002441406</ele>
        <time>2024-01-30T15:43:43.000Z</time>
      </trkpt>
      <trkpt lat="44.85332" lon="3.00532">
        <ele>787.79998779297</ele>
        <time>2024-01-30T15:43:45.000Z</time>
      </trkpt>
      <trkpt lat="44.85323" lon="3.00522">
        <ele>786.59997558594</ele>
        <time>2024-01-30T15:43:46.000Z</time>
      </trkpt>
      <trkpt lat="44.85302" lon="3.00504">
        <ele>785.40002441406</ele>
        <time>2024-01-30T15:43:48.000Z</time>
      </trkpt>
      <trkpt lat="44.85285" lon="3.00494">
        <ele>784.20001220703</ele>
        <time>2024-01-30T15:43:50.000Z</time>
      </trkpt>
      <trkpt lat="44.85254" lon="3.00473">
        <ele>782.59997558594</ele>
        <time>2024-01-30T15:43:53.000Z</time>
      </trkpt>
      <trkpt lat="44.85243" lon="3.00466">
        <ele>781.40002441406</ele>
        <time>2024-01-30T15:43:54.000Z</time>
      </trkpt>
      <trkpt lat="44.85226" lon="3.00453">
        <ele>780</ele>
        <time>2024-01-30T15:43:56.000Z</time>
      </trkpt>
      <trkpt lat="44.85218" lon="3.00446">
        <ele>779.20001220703</ele>
        <time>2024-01-30T15:43:57.000Z</time>
      </trkpt>
      <trkpt lat="44.85209" lon="3.00439">
        <ele>778.20001220703</ele>
        <time>2024-01-30T15:43:58.000Z</time>
      </trkpt>
      <trkpt lat="44.85183" lon="3.00421">
        <ele>776.59997558594</ele>
        <time>2024-01-30T15:44:01.000Z</time>
      </trkpt>
      <trkpt lat="44.85175" lon="3.00416">
        <ele>775.79998779297</ele>
        <time>2024-01-30T15:44:02.000Z</time>
      </trkpt>
      <trkpt lat="44.85167" lon="3.0041">
        <ele>775</ele>
        <time>2024-01-30T15:44:03.000Z</time>
      </trkpt>
      <trkpt lat="44.85151" lon="3.00399">
        <ele>774</ele>
        <time>2024-01-30T15:44:05.000Z</time>
      </trkpt>
      <trkpt lat="44.85135" lon="3.00386">
        <ele>772.79998779297</ele>
        <time>2024-01-30T15:44:07.000Z</time>
      </trkpt>
      <trkpt lat="44.85119" lon="3.00374">
        <ele>771.20001220703</ele>
        <time>2024-01-30T15:44:09.000Z</time>
      </trkpt>
      <trkpt lat="44.85098" lon="3.00356">
        <ele>770</ele>
        <time>2024-01-30T15:44:12.000Z</time>
      </trkpt>
      <trkpt lat="44.85078" lon="3.00339">
        <ele>769</ele>
        <time>2024-01-30T15:44:15.000Z</time>
      </trkpt>
      <trkpt lat="44.85065" lon="3.00329">
        <ele>768.79998779297</ele>
        <time>2024-01-30T15:44:17.000Z</time>
      </trkpt>
      <trkpt lat="44.85061" lon="3.00325">
        <ele>768.79998779297</ele>
        <time>2024-01-30T15:44:18.000Z</time>
      </trkpt>
      <trkpt lat="44.85052" lon="3.00312">
        <ele>768.79998779297</ele>
        <time>2024-01-30T15:44:20.000Z</time>
      </trkpt>
      <trkpt lat="44.85049" lon="3.00296">
        <ele>768.59997558594</ele>
        <time>2024-01-30T15:44:22.000Z</time>
      </trkpt>
      <trkpt lat="44.85049" lon="3.00281">
        <ele>768.40002441406</ele>
        <time>2024-01-30T15:44:24.000Z</time>
      </trkpt>
      <trkpt lat="44.85054" lon="3.00267">
        <ele>768.20001220703</ele>
        <time>2024-01-30T15:44:27.000Z</time>
      </trkpt>
      <trkpt lat="44.85066" lon="3.00269">
        <ele>768.20001220703</ele>
        <time>2024-01-30T15:44:30.000Z</time>
      </trkpt>
      <trkpt lat="44.85094" lon="3.00276">
        <ele>768.20001220703</ele>
        <time>2024-01-30T15:44:36.000Z</time>
      </trkpt>
      <trkpt lat="44.85097" lon="3.00276">
        <ele>768.20001220703</ele>
        <time>2024-01-30T15:44:37.000Z</time>
      </trkpt>
      <trkpt lat="44.85117" lon="3.00283">
        <ele>768.40002441406</ele>
        <time>2024-01-30T15:44:43.000Z</time>
      </trkpt>
      <trkpt lat="44.85132" lon="3.00293">
        <ele>768</ele>
        <time>2024-01-30T15:44:46.000Z</time>
      </trkpt>
      <trkpt lat="44.85138" lon="3.00296">
        <ele>767.59997558594</ele>
        <time>2024-01-30T15:44:47.000Z</time>
      </trkpt>
      <trkpt lat="44.85153" lon="3.00302">
        <ele>766.40002441406</ele>
        <time>2024-01-30T15:44:49.000Z</time>
      </trkpt>
      <trkpt lat="44.85173" lon="3.00312">
        <ele>765</ele>
        <time>2024-01-30T15:44:52.000Z</time>
      </trkpt>
      <trkpt lat="44.85193" lon="3.00318">
        <ele>763.79998779297</ele>
        <time>2024-01-30T15:44:55.000Z</time>
      </trkpt>
      <trkpt lat="44.85207" lon="3.00323">
        <ele>762.79998779297</ele>
        <time>2024-01-30T15:44:57.000Z</time>
      </trkpt>
      <trkpt lat="44.85213" lon="3.00326">
        <ele>762.59997558594</ele>
        <time>2024-01-30T15:44:58.000Z</time>
      </trkpt>
      <trkpt lat="44.85227" lon="3.00332">
        <ele>761.59997558594</ele>
        <time>2024-01-30T15:45:01.000Z</time>
      </trkpt>
      <trkpt lat="44.85231" lon="3.00333">
        <ele>761.40002441406</ele>
        <time>2024-01-30T15:45:02.000Z</time>
      </trkpt>
      <trkpt lat="44.8524" lon="3.00335">
        <ele>761.20001220703</ele>
        <time>2024-01-30T15:45:04.000Z</time>
      </trkpt>
      <trkpt lat="44.85256" lon="3.00343">
        <ele>761</ele>
        <time>2024-01-30T15:45:07.000Z</time>
      </trkpt>
      <trkpt lat="44.85271" lon="3.0035">
        <ele>760.20001220703</ele>
        <time>2024-01-30T15:45:09.000Z</time>
      </trkpt>
      <trkpt lat="44.85291" lon="3.00358">
        <ele>759.59997558594</ele>
        <time>2024-01-30T15:45:12.000Z</time>
      </trkpt>
      <trkpt lat="44.85307" lon="3.00363">
        <ele>758.79998779297</ele>
        <time>2024-01-30T15:45:14.000Z</time>
      </trkpt>
      <trkpt lat="44.85335" lon="3.00373">
        <ele>757.79998779297</ele>
        <time>2024-01-30T15:45:18.000Z</time>
      </trkpt>
      <trkpt lat="44.85341" lon="3.00376">
        <ele>757.40002441406</ele>
        <time>2024-01-30T15:45:19.000Z</time>
      </trkpt>
      <trkpt lat="44.85354" lon="3.00384">
        <ele>756.59997558594</ele>
        <time>2024-01-30T15:45:21.000Z</time>
      </trkpt>
      <trkpt lat="44.85368" lon="3.00397">
        <ele>755.59997558594</ele>
        <time>2024-01-30T15:45:24.000Z</time>
      </trkpt>
      <trkpt lat="44.85394" lon="3.00422">
        <ele>754.59997558594</ele>
        <time>2024-01-30T15:45:29.000Z</time>
      </trkpt>
      <trkpt lat="44.85417" lon="3.00446">
        <ele>753.79998779297</ele>
        <time>2024-01-30T15:45:33.000Z</time>
      </trkpt>
      <trkpt lat="44.8543" lon="3.00461">
        <ele>753.40002441406</ele>
        <time>2024-01-30T15:45:35.000Z</time>
      </trkpt>
      <trkpt lat="44.85448" lon="3.00485">
        <ele>752.20001220703</ele>
        <time>2024-01-30T15:45:38.000Z</time>
      </trkpt>
      <trkpt lat="44.85472" lon="3.0052">
        <ele>751</ele>
        <time>2024-01-30T15:45:42.000Z</time>
      </trkpt>
      <trkpt lat="44.85489" lon="3.00547">
        <ele>750.40002441406</ele>
        <time>2024-01-30T15:45:45.000Z</time>
      </trkpt>
      <trkpt lat="44.85501" lon="3.00565">
        <ele>750</ele>
        <time>2024-01-30T15:45:47.000Z</time>
      </trkpt>
      <trkpt lat="44.85539" lon="3.00622">
        <ele>749</ele>
        <time>2024-01-30T15:45:53.000Z</time>
      </trkpt>
      <trkpt lat="44.85544" lon="3.00628">
        <ele>749</ele>
        <time>2024-01-30T15:45:54.000Z</time>
      </trkpt>
      <trkpt lat="44.8555" lon="3.00633">
        <ele>749</ele>
        <time>2024-01-30T15:45:55.000Z</time>
      </trkpt>
      <trkpt lat="44.85566" lon="3.00637">
        <ele>749.20001220703</ele>
        <time>2024-01-30T15:45:57.000Z</time>
      </trkpt>
      <trkpt lat="44.856" lon="3.00631">
        <ele>751.40002441406</ele>
        <time>2024-01-30T15:46:02.000Z</time>
      </trkpt>
      <trkpt lat="44.85606" lon="3.00631">
        <ele>751.79998779297</ele>
        <time>2024-01-30T15:46:03.000Z</time>
      </trkpt>
      <trkpt lat="44.85618" lon="3.00637">
        <ele>752.40002441406</ele>
        <time>2024-01-30T15:46:05.000Z</time>
      </trkpt>
      <trkpt lat="44.85628" lon="3.00648">
        <ele>753.59997558594</ele>
        <time>2024-01-30T15:46:07.000Z</time>
      </trkpt>
      <trkpt lat="44.85634" lon="3.00658">
        <ele>754</ele>
        <time>2024-01-30T15:46:08.000Z</time>
      </trkpt>
      <trkpt lat="44.85643" lon="3.00675">
        <ele>755</ele>
        <time>2024-01-30T15:46:10.000Z</time>
      </trkpt>
      <trkpt lat="44.85654" lon="3.00697">
        <ele>756.20001220703</ele>
        <time>2024-01-30T15:46:12.000Z</time>
      </trkpt>
      <trkpt lat="44.85664" lon="3.00717">
        <ele>757.40002441406</ele>
        <time>2024-01-30T15:46:14.000Z</time>
      </trkpt>
      <trkpt lat="44.85673" lon="3.00736">
        <ele>758.59997558594</ele>
        <time>2024-01-30T15:46:16.000Z</time>
      </trkpt>
      <trkpt lat="44.85681" lon="3.00759">
        <ele>759.59997558594</ele>
        <time>2024-01-30T15:46:18.000Z</time>
      </trkpt>
      <trkpt lat="44.85684" lon="3.0077">
        <ele>759.79998779297</ele>
        <time>2024-01-30T15:46:19.000Z</time>
      </trkpt>
      <trkpt lat="44.85685" lon="3.00781">
        <ele>760.20001220703</ele>
        <time>2024-01-30T15:46:20.000Z</time>
      </trkpt>
      <trkpt lat="44.85683" lon="3.00803">
        <ele>761</ele>
        <time>2024-01-30T15:46:22.000Z</time>
      </trkpt>
      <trkpt lat="44.85679" lon="3.00826">
        <ele>762</ele>
        <time>2024-01-30T15:46:24.000Z</time>
      </trkpt>
      <trkpt lat="44.85673" lon="3.00864">
        <ele>763</ele>
        <time>2024-01-30T15:46:28.000Z</time>
      </trkpt>
      <trkpt lat="44.85673" lon="3.00872">
        <ele>763.40002441406</ele>
        <time>2024-01-30T15:46:29.000Z</time>
      </trkpt>
      <trkpt lat="44.85675" lon="3.0088">
        <ele>763.59997558594</ele>
        <time>2024-01-30T15:46:30.000Z</time>
      </trkpt>
      <trkpt lat="44.85678" lon="3.00887">
        <ele>764</ele>
        <time>2024-01-30T15:46:31.000Z</time>
      </trkpt>
      <trkpt lat="44.85682" lon="3.00894">
        <ele>764.20001220703</ele>
        <time>2024-01-30T15:46:32.000Z</time>
      </trkpt>
      <trkpt lat="44.85688" lon="3.009">
        <ele>764.59997558594</ele>
        <time>2024-01-30T15:46:33.000Z</time>
      </trkpt>
      <trkpt lat="44.85695" lon="3.00906">
        <ele>764.59997558594</ele>
        <time>2024-01-30T15:46:34.000Z</time>
      </trkpt>
      <trkpt lat="44.85703" lon="3.0091">
        <ele>765.20001220703</ele>
        <time>2024-01-30T15:46:35.000Z</time>
      </trkpt>
      <trkpt lat="44.85713" lon="3.00913">
        <ele>765.59997558594</ele>
        <time>2024-01-30T15:46:36.000Z</time>
      </trkpt>
      <trkpt lat="44.85724" lon="3.00915">
        <ele>765.59997558594</ele>
        <time>2024-01-30T15:46:37.000Z</time>
      </trkpt>
      <trkpt lat="44.85747" lon="3.00915">
        <ele>766</ele>
        <time>2024-01-30T15:46:39.000Z</time>
      </trkpt>
      <trkpt lat="44.8576" lon="3.00912">
        <ele>766.20001220703</ele>
        <time>2024-01-30T15:46:40.000Z</time>
      </trkpt>
      <trkpt lat="44.85788" lon="3.00905">
        <ele>766.59997558594</ele>
        <time>2024-01-30T15:46:42.000Z</time>
      </trkpt>
      <trkpt lat="44.85813" lon="3.00902">
        <ele>766.59997558594</ele>
        <time>2024-01-30T15:46:44.000Z</time>
      </trkpt>
      <trkpt lat="44.85871" lon="3.0091">
        <ele>766.20001220703</ele>
        <time>2024-01-30T15:46:48.000Z</time>
      </trkpt>
      <trkpt lat="44.85885" lon="3.00916">
        <ele>766</ele>
        <time>2024-01-30T15:46:49.000Z</time>
      </trkpt>
      <trkpt lat="44.85909" lon="3.00936">
        <ele>766</ele>
        <time>2024-01-30T15:46:51.000Z</time>
      </trkpt>
      <trkpt lat="44.85919" lon="3.00948">
        <ele>765.79998779297</ele>
        <time>2024-01-30T15:46:52.000Z</time>
      </trkpt>
      <trkpt lat="44.85939" lon="3.0098">
        <ele>765.40002441406</ele>
        <time>2024-01-30T15:46:54.000Z</time>
      </trkpt>
      <trkpt lat="44.85951" lon="3.01009">
        <ele>764.59997558594</ele>
        <time>2024-01-30T15:46:56.000Z</time>
      </trkpt>
      <trkpt lat="44.85955" lon="3.01026">
        <ele>764.20001220703</ele>
        <time>2024-01-30T15:46:57.000Z</time>
      </trkpt>
      <trkpt lat="44.85964" lon="3.01078">
        <ele>763.59997558594</ele>
        <time>2024-01-30T15:47:00.000Z</time>
      </trkpt>
      <trkpt lat="44.8597" lon="3.01095">
        <ele>763.40002441406</ele>
        <time>2024-01-30T15:47:01.000Z</time>
      </trkpt>
      <trkpt lat="44.85977" lon="3.01111">
        <ele>763.20001220703</ele>
        <time>2024-01-30T15:47:02.000Z</time>
      </trkpt>
      <trkpt lat="44.85998" lon="3.01134">
        <ele>763.20001220703</ele>
        <time>2024-01-30T15:47:04.000Z</time>
      </trkpt>
      <trkpt lat="44.86041" lon="3.01149">
        <ele>763.40002441406</ele>
        <time>2024-01-30T15:47:07.000Z</time>
      </trkpt>
      <trkpt lat="44.86109" lon="3.01168">
        <ele>763.59997558594</ele>
        <time>2024-01-30T15:47:11.000Z</time>
      </trkpt>
      <trkpt lat="44.86166" lon="3.01188">
        <ele>763.59997558594</ele>
        <time>2024-01-30T15:47:14.000Z</time>
      </trkpt>
      <trkpt lat="44.86181" lon="3.0119">
        <ele>763.40002441406</ele>
        <time>2024-01-30T15:47:15.000Z</time>
      </trkpt>
      <trkpt lat="44.86238" lon="3.01186">
        <ele>762.59997558594</ele>
        <time>2024-01-30T15:47:18.000Z</time>
      </trkpt>
      <trkpt lat="44.86256" lon="3.01181">
        <ele>761.79998779297</ele>
        <time>2024-01-30T15:47:19.000Z</time>
      </trkpt>
      <trkpt lat="44.86292" lon="3.01165">
        <ele>760.40002441406</ele>
        <time>2024-01-30T15:47:21.000Z</time>
      </trkpt>
      <trkpt lat="44.86327" lon="3.01149">
        <ele>759.40002441406</ele>
        <time>2024-01-30T15:47:23.000Z</time>
      </trkpt>
      <trkpt lat="44.86342" lon="3.01141">
        <ele>758.40002441406</ele>
        <time>2024-01-30T15:47:24.000Z</time>
      </trkpt>
      <trkpt lat="44.86371" lon="3.01128">
        <ele>756.20001220703</ele>
        <time>2024-01-30T15:47:26.000Z</time>
      </trkpt>
      <trkpt lat="44.86383" lon="3.01121">
        <ele>755.59997558594</ele>
        <time>2024-01-30T15:47:27.000Z</time>
      </trkpt>
      <trkpt lat="44.86393" lon="3.01113">
        <ele>754.40002441406</ele>
        <time>2024-01-30T15:47:28.000Z</time>
      </trkpt>
      <trkpt lat="44.86402" lon="3.01103">
        <ele>753.59997558594</ele>
        <time>2024-01-30T15:47:29.000Z</time>
      </trkpt>
      <trkpt lat="44.8641" lon="3.01091">
        <ele>753.20001220703</ele>
        <time>2024-01-30T15:47:30.000Z</time>
      </trkpt>
      <trkpt lat="44.86415" lon="3.01077">
        <ele>753.20001220703</ele>
        <time>2024-01-30T15:47:31.000Z</time>
      </trkpt>
      <trkpt lat="44.86417" lon="3.01061">
        <ele>753.20001220703</ele>
        <time>2024-01-30T15:47:32.000Z</time>
      </trkpt>
      <trkpt lat="44.86417" lon="3.01044">
        <ele>753</ele>
        <time>2024-01-30T15:47:33.000Z</time>
      </trkpt>
      <trkpt lat="44.86419" lon="3.01011">
        <ele>753</ele>
        <time>2024-01-30T15:47:35.000Z</time>
      </trkpt>
      <trkpt lat="44.86428" lon="3.00981">
        <ele>752.79998779297</ele>
        <time>2024-01-30T15:47:37.000Z</time>
      </trkpt>
      <trkpt lat="44.86435" lon="3.00968">
        <ele>752.40002441406</ele>
        <time>2024-01-30T15:47:38.000Z</time>
      </trkpt>
      <trkpt lat="44.86445" lon="3.00957">
        <ele>752.20001220703</ele>
        <time>2024-01-30T15:47:39.000Z</time>
      </trkpt>
      <trkpt lat="44.86456" lon="3.00946">
        <ele>751.79998779297</ele>
        <time>2024-01-30T15:47:40.000Z</time>
      </trkpt>
      <trkpt lat="44.8647" lon="3.00937">
        <ele>751</ele>
        <time>2024-01-30T15:47:41.000Z</time>
      </trkpt>
      <trkpt lat="44.86484" lon="3.0093">
        <ele>750.20001220703</ele>
        <time>2024-01-30T15:47:42.000Z</time>
      </trkpt>
      <trkpt lat="44.86499" lon="3.00925">
        <ele>749.40002441406</ele>
        <time>2024-01-30T15:47:43.000Z</time>
      </trkpt>
      <trkpt lat="44.86514" lon="3.00921">
        <ele>749</ele>
        <time>2024-01-30T15:47:44.000Z</time>
      </trkpt>
      <trkpt lat="44.8653" lon="3.0092">
        <ele>748.59997558594</ele>
        <time>2024-01-30T15:47:45.000Z</time>
      </trkpt>
      <trkpt lat="44.86562" lon="3.00924">
        <ele>747.40002441406</ele>
        <time>2024-01-30T15:47:47.000Z</time>
      </trkpt>
      <trkpt lat="44.86594" lon="3.00937">
        <ele>746</ele>
        <time>2024-01-30T15:47:49.000Z</time>
      </trkpt>
      <trkpt lat="44.8661" lon="3.00947">
        <ele>745</ele>
        <time>2024-01-30T15:47:50.000Z</time>
      </trkpt>
      <trkpt lat="44.86625" lon="3.00958">
        <ele>744.59997558594</ele>
        <time>2024-01-30T15:47:51.000Z</time>
      </trkpt>
      <trkpt lat="44.8665" lon="3.00988">
        <ele>743</ele>
        <time>2024-01-30T15:47:53.000Z</time>
      </trkpt>
      <trkpt lat="44.8666" lon="3.01004">
        <ele>742</ele>
        <time>2024-01-30T15:47:54.000Z</time>
      </trkpt>
      <trkpt lat="44.86667" lon="3.01017">
        <ele>740.79998779297</ele>
        <time>2024-01-30T15:47:55.000Z</time>
      </trkpt>
      <trkpt lat="44.86677" lon="3.01035">
        <ele>739.59997558594</ele>
        <time>2024-01-30T15:47:56.000Z</time>
      </trkpt>
      <trkpt lat="44.86694" lon="3.01056">
        <ele>737.59997558594</ele>
        <time>2024-01-30T15:47:58.000Z</time>
      </trkpt>
      <trkpt lat="44.86703" lon="3.01061">
        <ele>737.40002441406</ele>
        <time>2024-01-30T15:47:59.000Z</time>
      </trkpt>
      <trkpt lat="44.86714" lon="3.01063">
        <ele>736.79998779297</ele>
        <time>2024-01-30T15:48:00.000Z</time>
      </trkpt>
      <trkpt lat="44.86725" lon="3.01059">
        <ele>736.59997558594</ele>
        <time>2024-01-30T15:48:01.000Z</time>
      </trkpt>
      <trkpt lat="44.86736" lon="3.01051">
        <ele>736.20001220703</ele>
        <time>2024-01-30T15:48:02.000Z</time>
      </trkpt>
      <trkpt lat="44.86746" lon="3.0104">
        <ele>736</ele>
        <time>2024-01-30T15:48:03.000Z</time>
      </trkpt>
      <trkpt lat="44.86754" lon="3.01024">
        <ele>735.59997558594</ele>
        <time>2024-01-30T15:48:04.000Z</time>
      </trkpt>
      <trkpt lat="44.86761" lon="3.01006">
        <ele>735.59997558594</ele>
        <time>2024-01-30T15:48:05.000Z</time>
      </trkpt>
      <trkpt lat="44.86769" lon="3.00986">
        <ele>735.59997558594</ele>
        <time>2024-01-30T15:48:06.000Z</time>
      </trkpt>
      <trkpt lat="44.86801" lon="3.0092">
        <ele>735.40002441406</ele>
        <time>2024-01-30T15:48:09.000Z</time>
      </trkpt>
      <trkpt lat="44.86832" lon="3.00855">
        <ele>734.59997558594</ele>
        <time>2024-01-30T15:48:12.000Z</time>
      </trkpt>
      <trkpt lat="44.86842" lon="3.00829">
        <ele>734.40002441406</ele>
        <time>2024-01-30T15:48:13.000Z</time>
      </trkpt>
      <trkpt lat="44.86859" lon="3.00775">
        <ele>733.20001220703</ele>
        <time>2024-01-30T15:48:15.000Z</time>
      </trkpt>
      <trkpt lat="44.86868" lon="3.00747">
        <ele>732.59997558594</ele>
        <time>2024-01-30T15:48:16.000Z</time>
      </trkpt>
      <trkpt lat="44.86877" lon="3.00721">
        <ele>732</ele>
        <time>2024-01-30T15:48:17.000Z</time>
      </trkpt>
      <trkpt lat="44.86899" lon="3.00671">
        <ele>730.79998779297</ele>
        <time>2024-01-30T15:48:19.000Z</time>
      </trkpt>
      <trkpt lat="44.86928" lon="3.00628">
        <ele>729.20001220703</ele>
        <time>2024-01-30T15:48:21.000Z</time>
      </trkpt>
      <trkpt lat="44.86943" lon="3.0061">
        <ele>728.20001220703</ele>
        <time>2024-01-30T15:48:22.000Z</time>
      </trkpt>
      <trkpt lat="44.86957" lon="3.00591">
        <ele>727.40002441406</ele>
        <time>2024-01-30T15:48:23.000Z</time>
      </trkpt>
      <trkpt lat="44.8697" lon="3.0057">
        <ele>725.59997558594</ele>
        <time>2024-01-30T15:48:24.000Z</time>
      </trkpt>
      <trkpt lat="44.86982" lon="3.0055">
        <ele>723.79998779297</ele>
        <time>2024-01-30T15:48:25.000Z</time>
      </trkpt>
      <trkpt lat="44.86995" lon="3.00531">
        <ele>722.59997558594</ele>
        <time>2024-01-30T15:48:26.000Z</time>
      </trkpt>
      <trkpt lat="44.8701" lon="3.00514">
        <ele>720.79998779297</ele>
        <time>2024-01-30T15:48:27.000Z</time>
      </trkpt>
      <trkpt lat="44.87027" lon="3.00502">
        <ele>719.20001220703</ele>
        <time>2024-01-30T15:48:28.000Z</time>
      </trkpt>
      <trkpt lat="44.87044" lon="3.00491">
        <ele>717.20001220703</ele>
        <time>2024-01-30T15:48:29.000Z</time>
      </trkpt>
      <trkpt lat="44.87063" lon="3.00482">
        <ele>715.59997558594</ele>
        <time>2024-01-30T15:48:30.000Z</time>
      </trkpt>
      <trkpt lat="44.87082" lon="3.00474">
        <ele>714.40002441406</ele>
        <time>2024-01-30T15:48:31.000Z</time>
      </trkpt>
      <trkpt lat="44.87102" lon="3.00466">
        <ele>712.79998779297</ele>
        <time>2024-01-30T15:48:32.000Z</time>
      </trkpt>
      <trkpt lat="44.87121" lon="3.00456">
        <ele>711.79998779297</ele>
        <time>2024-01-30T15:48:33.000Z</time>
      </trkpt>
      <trkpt lat="44.8714" lon="3.00443">
        <ele>710.59997558594</ele>
        <time>2024-01-30T15:48:34.000Z</time>
      </trkpt>
      <trkpt lat="44.87192" lon="3.00395">
        <ele>709.20001220703</ele>
        <time>2024-01-30T15:48:37.000Z</time>
      </trkpt>
      <trkpt lat="44.87228" lon="3.00368">
        <ele>708</ele>
        <time>2024-01-30T15:48:39.000Z</time>
      </trkpt>
      <trkpt lat="44.87265" lon="3.0034">
        <ele>706</ele>
        <time>2024-01-30T15:48:41.000Z</time>
      </trkpt>
      <trkpt lat="44.87301" lon="3.00302">
        <ele>703.79998779297</ele>
        <time>2024-01-30T15:48:43.000Z</time>
      </trkpt>
      <trkpt lat="44.87312" lon="3.00285">
        <ele>702.79998779297</ele>
        <time>2024-01-30T15:48:44.000Z</time>
      </trkpt>
      <trkpt lat="44.87325" lon="3.00262">
        <ele>701.59997558594</ele>
        <time>2024-01-30T15:48:45.000Z</time>
      </trkpt>
      <trkpt lat="44.87336" lon="3.00239">
        <ele>700</ele>
        <time>2024-01-30T15:48:46.000Z</time>
      </trkpt>
      <trkpt lat="44.87346" lon="3.00214">
        <ele>698.79998779297</ele>
        <time>2024-01-30T15:48:47.000Z</time>
      </trkpt>
      <trkpt lat="44.87367" lon="3.0017">
        <ele>697.40002441406</ele>
        <time>2024-01-30T15:48:49.000Z</time>
      </trkpt>
      <trkpt lat="44.87379" lon="3.00151">
        <ele>696</ele>
        <time>2024-01-30T15:48:50.000Z</time>
      </trkpt>
      <trkpt lat="44.87394" lon="3.00134">
        <ele>695</ele>
        <time>2024-01-30T15:48:51.000Z</time>
      </trkpt>
      <trkpt lat="44.8741" lon="3.00119">
        <ele>694.20001220703</ele>
        <time>2024-01-30T15:48:52.000Z</time>
      </trkpt>
      <trkpt lat="44.87427" lon="3.00105">
        <ele>693.40002441406</ele>
        <time>2024-01-30T15:48:53.000Z</time>
      </trkpt>
      <trkpt lat="44.87446" lon="3.00092">
        <ele>692.59997558594</ele>
        <time>2024-01-30T15:48:54.000Z</time>
      </trkpt>
      <trkpt lat="44.87466" lon="3.00079">
        <ele>691.40002441406</ele>
        <time>2024-01-30T15:48:55.000Z</time>
      </trkpt>
      <trkpt lat="44.87486" lon="3.00065">
        <ele>690.40002441406</ele>
        <time>2024-01-30T15:48:56.000Z</time>
      </trkpt>
      <trkpt lat="44.87505" lon="3.00051">
        <ele>689.20001220703</ele>
        <time>2024-01-30T15:48:57.000Z</time>
      </trkpt>
      <trkpt lat="44.87544" lon="3.00024">
        <ele>687.20001220703</ele>
        <time>2024-01-30T15:48:59.000Z</time>
      </trkpt>
      <trkpt lat="44.87563" lon="3.00011">
        <ele>686.20001220703</ele>
        <time>2024-01-30T15:49:00.000Z</time>
      </trkpt>
      <trkpt lat="44.87582" lon="2.99999">
        <ele>684.79998779297</ele>
        <time>2024-01-30T15:49:01.000Z</time>
      </trkpt>
      <trkpt lat="44.876" lon="2.9999">
        <ele>682.79998779297</ele>
        <time>2024-01-30T15:49:02.000Z</time>
      </trkpt>
      <trkpt lat="44.87619" lon="2.99983">
        <ele>681.40002441406</ele>
        <time>2024-01-30T15:49:03.000Z</time>
      </trkpt>
      <trkpt lat="44.87638" lon="2.99981">
        <ele>679.79998779297</ele>
        <time>2024-01-30T15:49:04.000Z</time>
      </trkpt>
      <trkpt lat="44.87678" lon="2.99984">
        <ele>677.59997558594</ele>
        <time>2024-01-30T15:49:06.000Z</time>
      </trkpt>
      <trkpt lat="44.87718" lon="2.99985">
        <ele>676.79998779297</ele>
        <time>2024-01-30T15:49:08.000Z</time>
      </trkpt>
      <trkpt lat="44.87756" lon="2.99972">
        <ele>676.79998779297</ele>
        <time>2024-01-30T15:49:10.000Z</time>
      </trkpt>
      <trkpt lat="44.87808" lon="2.9993">
        <ele>677.40002441406</ele>
        <time>2024-01-30T15:49:13.000Z</time>
      </trkpt>
      <trkpt lat="44.87866" lon="2.99876">
        <ele>678.59997558594</ele>
        <time>2024-01-30T15:49:17.000Z</time>
      </trkpt>
      <trkpt lat="44.87881" lon="2.99859">
        <ele>679.20001220703</ele>
        <time>2024-01-30T15:49:18.000Z</time>
      </trkpt>
      <trkpt lat="44.87909" lon="2.99823">
        <ele>680</ele>
        <time>2024-01-30T15:49:20.000Z</time>
      </trkpt>
      <trkpt lat="44.87939" lon="2.99787">
        <ele>680.20001220703</ele>
        <time>2024-01-30T15:49:22.000Z</time>
      </trkpt>
      <trkpt lat="44.87971" lon="2.9976">
        <ele>680.20001220703</ele>
        <time>2024-01-30T15:49:24.000Z</time>
      </trkpt>
      <trkpt lat="44.87989" lon="2.99751">
        <ele>680.20001220703</ele>
        <time>2024-01-30T15:49:25.000Z</time>
      </trkpt>
      <trkpt lat="44.88007" lon="2.99744">
        <ele>680</ele>
        <time>2024-01-30T15:49:26.000Z</time>
      </trkpt>
      <trkpt lat="44.88045" lon="2.99739">
        <ele>679.79998779297</ele>
        <time>2024-01-30T15:49:28.000Z</time>
      </trkpt>
      <trkpt lat="44.88082" lon="2.99745">
        <ele>679.40002441406</ele>
        <time>2024-01-30T15:49:30.000Z</time>
      </trkpt>
      <trkpt lat="44.881" lon="2.99753">
        <ele>679.20001220703</ele>
        <time>2024-01-30T15:49:31.000Z</time>
      </trkpt>
      <trkpt lat="44.88137" lon="2.99773">
        <ele>679</ele>
        <time>2024-01-30T15:49:33.000Z</time>
      </trkpt>
      <trkpt lat="44.88159" lon="2.99784">
        <ele>679</ele>
        <time>2024-01-30T15:49:34.000Z</time>
      </trkpt>
      <trkpt lat="44.88193" lon="2.99795">
        <ele>679</ele>
        <time>2024-01-30T15:49:36.000Z</time>
      </trkpt>
      <trkpt lat="44.88232" lon="2.99798">
        <ele>678.79998779297</ele>
        <time>2024-01-30T15:49:38.000Z</time>
      </trkpt>
      <trkpt lat="44.88251" lon="2.99792">
        <ele>678.79998779297</ele>
        <time>2024-01-30T15:49:39.000Z</time>
      </trkpt>
      <trkpt lat="44.88275" lon="2.99783">
        <ele>678.59997558594</ele>
        <time>2024-01-30T15:49:40.000Z</time>
      </trkpt>
      <trkpt lat="44.88294" lon="2.9977">
        <ele>678.59997558594</ele>
        <time>2024-01-30T15:49:41.000Z</time>
      </trkpt>
      <trkpt lat="44.88328" lon="2.99737">
        <ele>678.59997558594</ele>
        <time>2024-01-30T15:49:43.000Z</time>
      </trkpt>
      <trkpt lat="44.88344" lon="2.99717">
        <ele>678.59997558594</ele>
        <time>2024-01-30T15:49:44.000Z</time>
      </trkpt>
      <trkpt lat="44.88387" lon="2.99658">
        <ele>677.79998779297</ele>
        <time>2024-01-30T15:49:47.000Z</time>
      </trkpt>
      <trkpt lat="44.88417" lon="2.99615">
        <ele>676.20001220703</ele>
        <time>2024-01-30T15:49:49.000Z</time>
      </trkpt>
      <trkpt lat="44.88443" lon="2.99585">
        <ele>674.79998779297</ele>
        <time>2024-01-30T15:49:51.000Z</time>
      </trkpt>
      <trkpt lat="44.88471" lon="2.99577">
        <ele>674.40002441406</ele>
        <time>2024-01-30T15:49:53.000Z</time>
      </trkpt>
      <trkpt lat="44.88493" lon="2.99588">
        <ele>674.40002441406</ele>
        <time>2024-01-30T15:49:55.000Z</time>
      </trkpt>
      <trkpt lat="44.8854" lon="2.99629">
        <ele>675.20001220703</ele>
        <time>2024-01-30T15:49:59.000Z</time>
      </trkpt>
      <trkpt lat="44.8857" lon="2.99649">
        <ele>675.79998779297</ele>
        <time>2024-01-30T15:50:01.000Z</time>
      </trkpt>
      <trkpt lat="44.88587" lon="2.99656">
        <ele>676</ele>
        <time>2024-01-30T15:50:02.000Z</time>
      </trkpt>
      <trkpt lat="44.8862" lon="2.99663">
        <ele>676</ele>
        <time>2024-01-30T15:50:04.000Z</time>
      </trkpt>
      <trkpt lat="44.88642" lon="2.99661">
        <ele>676</ele>
        <time>2024-01-30T15:50:05.000Z</time>
      </trkpt>
      <trkpt lat="44.88701" lon="2.99654">
        <ele>675.40002441406</ele>
        <time>2024-01-30T15:50:08.000Z</time>
      </trkpt>
      <trkpt lat="44.88737" lon="2.99648">
        <ele>674.40002441406</ele>
        <time>2024-01-30T15:50:10.000Z</time>
      </trkpt>
      <trkpt lat="44.88781" lon="2.99632">
        <ele>673.59997558594</ele>
        <time>2024-01-30T15:50:12.000Z</time>
      </trkpt>
      <trkpt lat="44.88801" lon="2.99624">
        <ele>673.20001220703</ele>
        <time>2024-01-30T15:50:13.000Z</time>
      </trkpt>
      <trkpt lat="44.88841" lon="2.99608">
        <ele>671.79998779297</ele>
        <time>2024-01-30T15:50:15.000Z</time>
      </trkpt>
      <trkpt lat="44.88859" lon="2.99602">
        <ele>670.79998779297</ele>
        <time>2024-01-30T15:50:16.000Z</time>
      </trkpt>
      <trkpt lat="44.88891" lon="2.99593">
        <ele>668.59997558594</ele>
        <time>2024-01-30T15:50:18.000Z</time>
      </trkpt>
      <trkpt lat="44.88906" lon="2.99593">
        <ele>667</ele>
        <time>2024-01-30T15:50:19.000Z</time>
      </trkpt>
      <trkpt lat="44.8893" lon="2.99595">
        <ele>665</ele>
        <time>2024-01-30T15:50:21.000Z</time>
      </trkpt>
      <trkpt lat="44.88944" lon="2.99594">
        <ele>664.59997558594</ele>
        <time>2024-01-30T15:50:22.000Z</time>
      </trkpt>
      <trkpt lat="44.88953" lon="2.99591">
        <ele>663.79998779297</ele>
        <time>2024-01-30T15:50:23.000Z</time>
      </trkpt>
      <trkpt lat="44.88999" lon="2.99563">
        <ele>663.40002441406</ele>
        <time>2024-01-30T15:50:28.000Z</time>
      </trkpt>
      <trkpt lat="44.89039" lon="2.9954">
        <ele>663.40002441406</ele>
        <time>2024-01-30T15:50:32.000Z</time>
      </trkpt>
      <trkpt lat="44.89049" lon="2.99539">
        <ele>663.20001220703</ele>
        <time>2024-01-30T15:50:33.000Z</time>
      </trkpt>
      <trkpt lat="44.89061" lon="2.99542">
        <ele>663.20001220703</ele>
        <time>2024-01-30T15:50:34.000Z</time>
      </trkpt>
      <trkpt lat="44.8907" lon="2.99547">
        <ele>663.20001220703</ele>
        <time>2024-01-30T15:50:35.000Z</time>
      </trkpt>
      <trkpt lat="44.89079" lon="2.99558">
        <ele>663.20001220703</ele>
        <time>2024-01-30T15:50:36.000Z</time>
      </trkpt>
      <trkpt lat="44.89088" lon="2.99571">
        <ele>663.59997558594</ele>
        <time>2024-01-30T15:50:37.000Z</time>
      </trkpt>
      <trkpt lat="44.89094" lon="2.99588">
        <ele>664.40002441406</ele>
        <time>2024-01-30T15:50:38.000Z</time>
      </trkpt>
      <trkpt lat="44.89101" lon="2.9961">
        <ele>665</ele>
        <time>2024-01-30T15:50:39.000Z</time>
      </trkpt>
      <trkpt lat="44.89106" lon="2.99626">
        <ele>665.79998779297</ele>
        <time>2024-01-30T15:50:40.000Z</time>
      </trkpt>
      <trkpt lat="44.89114" lon="2.99645">
        <ele>667</ele>
        <time>2024-01-30T15:50:41.000Z</time>
      </trkpt>
      <trkpt lat="44.89123" lon="2.99663">
        <ele>668</ele>
        <time>2024-01-30T15:50:42.000Z</time>
      </trkpt>
      <trkpt lat="44.89133" lon="2.99681">
        <ele>669</ele>
        <time>2024-01-30T15:50:43.000Z</time>
      </trkpt>
      <trkpt lat="44.89145" lon="2.99697">
        <ele>669.79998779297</ele>
        <time>2024-01-30T15:50:44.000Z</time>
      </trkpt>
      <trkpt lat="44.89156" lon="2.99714">
        <ele>671.20001220703</ele>
        <time>2024-01-30T15:50:45.000Z</time>
      </trkpt>
      <trkpt lat="44.89181" lon="2.99748">
        <ele>673</ele>
        <time>2024-01-30T15:50:47.000Z</time>
      </trkpt>
      <trkpt lat="44.89194" lon="2.99765">
        <ele>674</ele>
        <time>2024-01-30T15:50:48.000Z</time>
      </trkpt>
      <trkpt lat="44.89206" lon="2.99782">
        <ele>675.20001220703</ele>
        <time>2024-01-30T15:50:49.000Z</time>
      </trkpt>
      <trkpt lat="44.8923" lon="2.99817">
        <ele>677.40002441406</ele>
        <time>2024-01-30T15:50:51.000Z</time>
      </trkpt>
      <trkpt lat="44.89253" lon="2.99853">
        <ele>679.40002441406</ele>
        <time>2024-01-30T15:50:53.000Z</time>
      </trkpt>
      <trkpt lat="44.89275" lon="2.99887">
        <ele>681.20001220703</ele>
        <time>2024-01-30T15:50:55.000Z</time>
      </trkpt>
      <trkpt lat="44.89285" lon="2.99904">
        <ele>682.40002441406</ele>
        <time>2024-01-30T15:50:56.000Z</time>
      </trkpt>
      <trkpt lat="44.89294" lon="2.99922">
        <ele>683.59997558594</ele>
        <time>2024-01-30T15:50:57.000Z</time>
      </trkpt>
      <trkpt lat="44.89302" lon="2.99941">
        <ele>685</ele>
        <time>2024-01-30T15:50:58.000Z</time>
      </trkpt>
      <trkpt lat="44.8931" lon="2.9996">
        <ele>685.79998779297</ele>
        <time>2024-01-30T15:50:59.000Z</time>
      </trkpt>
      <trkpt lat="44.89317" lon="2.99981">
        <ele>687.79998779297</ele>
        <time>2024-01-30T15:51:00.000Z</time>
      </trkpt>
      <trkpt lat="44.89322" lon="3.00002">
        <ele>688.79998779297</ele>
        <time>2024-01-30T15:51:01.000Z</time>
      </trkpt>
      <trkpt lat="44.89326" lon="3.00024">
        <ele>690.40002441406</ele>
        <time>2024-01-30T15:51:02.000Z</time>
      </trkpt>
      <trkpt lat="44.8933" lon="3.00046">
        <ele>691.59997558594</ele>
        <time>2024-01-30T15:51:03.000Z</time>
      </trkpt>
      <trkpt lat="44.89333" lon="3.00073">
        <ele>692.79998779297</ele>
        <time>2024-01-30T15:51:04.000Z</time>
      </trkpt>
      <trkpt lat="44.89334" lon="3.0009">
        <ele>694</ele>
        <time>2024-01-30T15:51:05.000Z</time>
      </trkpt>
      <trkpt lat="44.89335" lon="3.00112">
        <ele>695.40002441406</ele>
        <time>2024-01-30T15:51:06.000Z</time>
      </trkpt>
      <trkpt lat="44.89336" lon="3.00138">
        <ele>696.79998779297</ele>
        <time>2024-01-30T15:51:07.000Z</time>
      </trkpt>
      <trkpt lat="44.89337" lon="3.00155">
        <ele>698.20001220703</ele>
        <time>2024-01-30T15:51:08.000Z</time>
      </trkpt>
      <trkpt lat="44.89338" lon="3.00177">
        <ele>699.40002441406</ele>
        <time>2024-01-30T15:51:09.000Z</time>
      </trkpt>
      <trkpt lat="44.8934" lon="3.0022">
        <ele>701.20001220703</ele>
        <time>2024-01-30T15:51:11.000Z</time>
      </trkpt>
      <trkpt lat="44.89342" lon="3.00241">
        <ele>702</ele>
        <time>2024-01-30T15:51:12.000Z</time>
      </trkpt>
      <trkpt lat="44.89345" lon="3.00263">
        <ele>703</ele>
        <time>2024-01-30T15:51:13.000Z</time>
      </trkpt>
      <trkpt lat="44.89349" lon="3.00284">
        <ele>703.79998779297</ele>
        <time>2024-01-30T15:51:14.000Z</time>
      </trkpt>
      <trkpt lat="44.89355" lon="3.00304">
        <ele>704.79998779297</ele>
        <time>2024-01-30T15:51:15.000Z</time>
      </trkpt>
      <trkpt lat="44.89363" lon="3.00324">
        <ele>705.59997558594</ele>
        <time>2024-01-30T15:51:16.000Z</time>
      </trkpt>
      <trkpt lat="44.89372" lon="3.00342">
        <ele>707</ele>
        <time>2024-01-30T15:51:17.000Z</time>
      </trkpt>
      <trkpt lat="44.89384" lon="3.00358">
        <ele>707.79998779297</ele>
        <time>2024-01-30T15:51:18.000Z</time>
      </trkpt>
      <trkpt lat="44.89398" lon="3.00375">
        <ele>708.59997558594</ele>
        <time>2024-01-30T15:51:19.000Z</time>
      </trkpt>
      <trkpt lat="44.89409" lon="3.00385">
        <ele>709.40002441406</ele>
        <time>2024-01-30T15:51:20.000Z</time>
      </trkpt>
      <trkpt lat="44.89424" lon="3.00395">
        <ele>710.59997558594</ele>
        <time>2024-01-30T15:51:21.000Z</time>
      </trkpt>
      <trkpt lat="44.8944" lon="3.00403">
        <ele>711.59997558594</ele>
        <time>2024-01-30T15:51:22.000Z</time>
      </trkpt>
      <trkpt lat="44.89456" lon="3.00409">
        <ele>712.79998779297</ele>
        <time>2024-01-30T15:51:23.000Z</time>
      </trkpt>
      <trkpt lat="44.89473" lon="3.00414">
        <ele>713.79998779297</ele>
        <time>2024-01-30T15:51:24.000Z</time>
      </trkpt>
      <trkpt lat="44.89489" lon="3.00419">
        <ele>715</ele>
        <time>2024-01-30T15:51:25.000Z</time>
      </trkpt>
      <trkpt lat="44.89506" lon="3.00424">
        <ele>716</ele>
        <time>2024-01-30T15:51:26.000Z</time>
      </trkpt>
      <trkpt lat="44.89524" lon="3.0043">
        <ele>717.40002441406</ele>
        <time>2024-01-30T15:51:27.000Z</time>
      </trkpt>
      <trkpt lat="44.89543" lon="3.00434">
        <ele>718.79998779297</ele>
        <time>2024-01-30T15:51:28.000Z</time>
      </trkpt>
      <trkpt lat="44.89562" lon="3.00437">
        <ele>720.40002441406</ele>
        <time>2024-01-30T15:51:29.000Z</time>
      </trkpt>
      <trkpt lat="44.89581" lon="3.00442">
        <ele>721.79998779297</ele>
        <time>2024-01-30T15:51:30.000Z</time>
      </trkpt>
      <trkpt lat="44.896" lon="3.00447">
        <ele>723.40002441406</ele>
        <time>2024-01-30T15:51:31.000Z</time>
      </trkpt>
      <trkpt lat="44.89619" lon="3.00454">
        <ele>725</ele>
        <time>2024-01-30T15:51:32.000Z</time>
      </trkpt>
      <trkpt lat="44.89638" lon="3.00462">
        <ele>726.40002441406</ele>
        <time>2024-01-30T15:51:33.000Z</time>
      </trkpt>
      <trkpt lat="44.89656" lon="3.00469">
        <ele>727.40002441406</ele>
        <time>2024-01-30T15:51:34.000Z</time>
      </trkpt>
      <trkpt lat="44.89676" lon="3.00475">
        <ele>729.40002441406</ele>
        <time>2024-01-30T15:51:35.000Z</time>
      </trkpt>
      <trkpt lat="44.89695" lon="3.0048">
        <ele>730.40002441406</ele>
        <time>2024-01-30T15:51:36.000Z</time>
      </trkpt>
      <trkpt lat="44.89715" lon="3.00483">
        <ele>732</ele>
        <time>2024-01-30T15:51:37.000Z</time>
      </trkpt>
      <trkpt lat="44.89736" lon="3.00486">
        <ele>733.79998779297</ele>
        <time>2024-01-30T15:51:38.000Z</time>
      </trkpt>
      <trkpt lat="44.89757" lon="3.00489">
        <ele>735</ele>
        <time>2024-01-30T15:51:39.000Z</time>
      </trkpt>
      <trkpt lat="44.89778" lon="3.00493">
        <ele>736.59997558594</ele>
        <time>2024-01-30T15:51:40.000Z</time>
      </trkpt>
      <trkpt lat="44.89799" lon="3.00498">
        <ele>738.20001220703</ele>
        <time>2024-01-30T15:51:41.000Z</time>
      </trkpt>
      <trkpt lat="44.89819" lon="3.00503">
        <ele>739.59997558594</ele>
        <time>2024-01-30T15:51:42.000Z</time>
      </trkpt>
      <trkpt lat="44.8984" lon="3.00509">
        <ele>741.40002441406</ele>
        <time>2024-01-30T15:51:43.000Z</time>
      </trkpt>
      <trkpt lat="44.89859" lon="3.00516">
        <ele>742.79998779297</ele>
        <time>2024-01-30T15:51:44.000Z</time>
      </trkpt>
      <trkpt lat="44.89879" lon="3.00526">
        <ele>744</ele>
        <time>2024-01-30T15:51:45.000Z</time>
      </trkpt>
      <trkpt lat="44.89898" lon="3.00539">
        <ele>745.20001220703</ele>
        <time>2024-01-30T15:51:46.000Z</time>
      </trkpt>
      <trkpt lat="44.89915" lon="3.00553">
        <ele>746.79998779297</ele>
        <time>2024-01-30T15:51:47.000Z</time>
      </trkpt>
      <trkpt lat="44.89933" lon="3.00568">
        <ele>748.20001220703</ele>
        <time>2024-01-30T15:51:48.000Z</time>
      </trkpt>
      <trkpt lat="44.89948" lon="3.00583">
        <ele>749.40002441406</ele>
        <time>2024-01-30T15:51:49.000Z</time>
      </trkpt>
      <trkpt lat="44.89976" lon="3.00613">
        <ele>750.79998779297</ele>
        <time>2024-01-30T15:51:51.000Z</time>
      </trkpt>
      <trkpt lat="44.90004" lon="3.00663">
        <ele>752</ele>
        <time>2024-01-30T15:51:54.000Z</time>
      </trkpt>
      <trkpt lat="44.90027" lon="3.00683">
        <ele>753.20001220703</ele>
        <time>2024-01-30T15:51:56.000Z</time>
      </trkpt>
      <trkpt lat="44.90054" lon="3.0069">
        <ele>754.59997558594</ele>
        <time>2024-01-30T15:51:58.000Z</time>
      </trkpt>
      <trkpt lat="44.90066" lon="3.00695">
        <ele>755.59997558594</ele>
        <time>2024-01-30T15:51:59.000Z</time>
      </trkpt>
      <trkpt lat="44.90075" lon="3.00703">
        <ele>756.20001220703</ele>
        <time>2024-01-30T15:52:00.000Z</time>
      </trkpt>
      <trkpt lat="44.90084" lon="3.00716">
        <ele>757.40002441406</ele>
        <time>2024-01-30T15:52:01.000Z</time>
      </trkpt>
      <trkpt lat="44.90095" lon="3.00749">
        <ele>759</ele>
        <time>2024-01-30T15:52:03.000Z</time>
      </trkpt>
      <trkpt lat="44.901" lon="3.00765">
        <ele>759.59997558594</ele>
        <time>2024-01-30T15:52:04.000Z</time>
      </trkpt>
      <trkpt lat="44.90108" lon="3.00779">
        <ele>760.59997558594</ele>
        <time>2024-01-30T15:52:05.000Z</time>
      </trkpt>
      <trkpt lat="44.90117" lon="3.00788">
        <ele>761.59997558594</ele>
        <time>2024-01-30T15:52:06.000Z</time>
      </trkpt>
      <trkpt lat="44.90128" lon="3.00792">
        <ele>762</ele>
        <time>2024-01-30T15:52:07.000Z</time>
      </trkpt>
      <trkpt lat="44.9014" lon="3.00791">
        <ele>763</ele>
        <time>2024-01-30T15:52:08.000Z</time>
      </trkpt>
      <trkpt lat="44.90152" lon="3.00791">
        <ele>764.20001220703</ele>
        <time>2024-01-30T15:52:09.000Z</time>
      </trkpt>
      <trkpt lat="44.90164" lon="3.00792">
        <ele>765.20001220703</ele>
        <time>2024-01-30T15:52:10.000Z</time>
      </trkpt>
      <trkpt lat="44.90176" lon="3.00796">
        <ele>766.20001220703</ele>
        <time>2024-01-30T15:52:11.000Z</time>
      </trkpt>
      <trkpt lat="44.90186" lon="3.00804">
        <ele>766.79998779297</ele>
        <time>2024-01-30T15:52:12.000Z</time>
      </trkpt>
      <trkpt lat="44.90193" lon="3.00813">
        <ele>767.59997558594</ele>
        <time>2024-01-30T15:52:13.000Z</time>
      </trkpt>
      <trkpt lat="44.90202" lon="3.0083">
        <ele>768.40002441406</ele>
        <time>2024-01-30T15:52:14.000Z</time>
      </trkpt>
      <trkpt lat="44.90208" lon="3.00846">
        <ele>769.40002441406</ele>
        <time>2024-01-30T15:52:15.000Z</time>
      </trkpt>
      <trkpt lat="44.90214" lon="3.0086">
        <ele>770</ele>
        <time>2024-01-30T15:52:16.000Z</time>
      </trkpt>
      <trkpt lat="44.90222" lon="3.00872">
        <ele>770.59997558594</ele>
        <time>2024-01-30T15:52:17.000Z</time>
      </trkpt>
      <trkpt lat="44.9023" lon="3.00882">
        <ele>771.20001220703</ele>
        <time>2024-01-30T15:52:18.000Z</time>
      </trkpt>
      <trkpt lat="44.90238" lon="3.00891">
        <ele>771.59997558594</ele>
        <time>2024-01-30T15:52:19.000Z</time>
      </trkpt>
      <trkpt lat="44.90243" lon="3.00897">
        <ele>772</ele>
        <time>2024-01-30T15:52:20.000Z</time>
      </trkpt>
      <trkpt lat="44.9025" lon="3.00906">
        <ele>772.20001220703</ele>
        <time>2024-01-30T15:52:21.000Z</time>
      </trkpt>
      <trkpt lat="44.90254" lon="3.00911">
        <ele>772.40002441406</ele>
        <time>2024-01-30T15:52:22.000Z</time>
      </trkpt>
      <trkpt lat="44.9026" lon="3.00921">
        <ele>773.20001220703</ele>
        <time>2024-01-30T15:52:25.000Z</time>
      </trkpt>
      <trkpt lat="44.90265" lon="3.00928">
        <ele>773.79998779297</ele>
        <time>2024-01-30T15:52:30.000Z</time>
      </trkpt>
      <trkpt lat="44.90265" lon="3.00928">
        <ele>773.79998779297</ele>
        <time>2024-01-30T15:52:31.000Z</time>
      </trkpt>
      <trkpt lat="44.90266" lon="3.00929">
        <ele>774</ele>
        <time>2024-01-30T15:52:34.000Z</time>
      </trkpt>
      <trkpt lat="44.90266" lon="3.00929">
        <ele>774.40002441406</ele>
        <time>2024-01-30T15:52:40.000Z</time>
      </trkpt>
      <trkpt lat="44.90266" lon="3.00929">
        <ele>774.20001220703</ele>
        <time>2024-01-30T15:52:46.000Z</time>
      </trkpt>
      <trkpt lat="44.90266" lon="3.00929">
        <ele>773.40002441406</ele>
        <time>2024-01-30T15:53:06.000Z</time>
      </trkpt>
      <trkpt lat="44.90266" lon="3.00929">
        <ele>772.59997558594</ele>
        <time>2024-01-30T15:53:22.000Z</time>
      </trkpt>
      <trkpt lat="44.90266" lon="3.00929">
        <ele>772</ele>
        <time>2024-01-30T15:53:29.000Z</time>
      </trkpt>
      <trkpt lat="44.90266" lon="3.00929">
        <ele>771.20001220703</ele>
        <time>2024-01-30T15:53:39.000Z</time>
      </trkpt>
      <trkpt lat="44.90269" lon="3.00927">
        <ele>771</ele>
        <time>2024-01-30T15:53:51.000Z</time>
      </trkpt>
      <trkpt lat="44.90283" lon="3.00918">
        <ele>771.59997558594</ele>
        <time>2024-01-30T15:53:57.000Z</time>
      </trkpt>
      <trkpt lat="44.90297" lon="3.00903">
        <ele>772.40002441406</ele>
        <time>2024-01-30T15:54:02.000Z</time>
      </trkpt>
      <trkpt lat="44.90305" lon="3.00897">
        <ele>773</ele>
        <time>2024-01-30T15:54:04.000Z</time>
      </trkpt>
      <trkpt lat="44.90324" lon="3.00884">
        <ele>774.59997558594</ele>
        <time>2024-01-30T15:54:07.000Z</time>
      </trkpt>
      <trkpt lat="44.90345" lon="3.00862">
        <ele>776.20001220703</ele>
        <time>2024-01-30T15:54:10.000Z</time>
      </trkpt>
      <trkpt lat="44.90352" lon="3.00852">
        <ele>777.40002441406</ele>
        <time>2024-01-30T15:54:11.000Z</time>
      </trkpt>
      <trkpt lat="44.90359" lon="3.00841">
        <ele>778.40002441406</ele>
        <time>2024-01-30T15:54:12.000Z</time>
      </trkpt>
      <trkpt lat="44.90375" lon="3.00819">
        <ele>780</ele>
        <time>2024-01-30T15:54:14.000Z</time>
      </trkpt>
      <trkpt lat="44.90383" lon="3.0081">
        <ele>781.20001220703</ele>
        <time>2024-01-30T15:54:15.000Z</time>
      </trkpt>
      <trkpt lat="44.90393" lon="3.00804">
        <ele>782.20001220703</ele>
        <time>2024-01-30T15:54:16.000Z</time>
      </trkpt>
      <trkpt lat="44.90404" lon="3.008">
        <ele>783</ele>
        <time>2024-01-30T15:54:17.000Z</time>
      </trkpt>
      <trkpt lat="44.90416" lon="3.00801">
        <ele>783.59997558594</ele>
        <time>2024-01-30T15:54:18.000Z</time>
      </trkpt>
      <trkpt lat="44.90428" lon="3.00806">
        <ele>784.59997558594</ele>
        <time>2024-01-30T15:54:19.000Z</time>
      </trkpt>
      <trkpt lat="44.90453" lon="3.00817">
        <ele>786.59997558594</ele>
        <time>2024-01-30T15:54:21.000Z</time>
      </trkpt>
      <trkpt lat="44.90478" lon="3.00824">
        <ele>788.40002441406</ele>
        <time>2024-01-30T15:54:23.000Z</time>
      </trkpt>
      <trkpt lat="44.90491" lon="3.00825">
        <ele>789.59997558594</ele>
        <time>2024-01-30T15:54:24.000Z</time>
      </trkpt>
      <trkpt lat="44.90504" lon="3.00824">
        <ele>790.20001220703</ele>
        <time>2024-01-30T15:54:25.000Z</time>
      </trkpt>
      <trkpt lat="44.90517" lon="3.00819">
        <ele>791.40002441406</ele>
        <time>2024-01-30T15:54:26.000Z</time>
      </trkpt>
      <trkpt lat="44.9053" lon="3.00812">
        <ele>792.59997558594</ele>
        <time>2024-01-30T15:54:27.000Z</time>
      </trkpt>
      <trkpt lat="44.90543" lon="3.00804">
        <ele>793.79998779297</ele>
        <time>2024-01-30T15:54:28.000Z</time>
      </trkpt>
      <trkpt lat="44.90556" lon="3.00798">
        <ele>794.79998779297</ele>
        <time>2024-01-30T15:54:29.000Z</time>
      </trkpt>
      <trkpt lat="44.90571" lon="3.00794">
        <ele>796.20001220703</ele>
        <time>2024-01-30T15:54:30.000Z</time>
      </trkpt>
      <trkpt lat="44.90586" lon="3.00793">
        <ele>797.40002441406</ele>
        <time>2024-01-30T15:54:31.000Z</time>
      </trkpt>
      <trkpt lat="44.906" lon="3.00795">
        <ele>798.59997558594</ele>
        <time>2024-01-30T15:54:32.000Z</time>
      </trkpt>
      <trkpt lat="44.90615" lon="3.00799">
        <ele>799.79998779297</ele>
        <time>2024-01-30T15:54:33.000Z</time>
      </trkpt>
      <trkpt lat="44.90632" lon="3.00803">
        <ele>801.20001220703</ele>
        <time>2024-01-30T15:54:34.000Z</time>
      </trkpt>
      <trkpt lat="44.90665" lon="3.00806">
        <ele>803.20001220703</ele>
        <time>2024-01-30T15:54:36.000Z</time>
      </trkpt>
      <trkpt lat="44.90683" lon="3.00804">
        <ele>804.40002441406</ele>
        <time>2024-01-30T15:54:37.000Z</time>
      </trkpt>
      <trkpt lat="44.907" lon="3.008">
        <ele>806</ele>
        <time>2024-01-30T15:54:38.000Z</time>
      </trkpt>
      <trkpt lat="44.90718" lon="3.00795">
        <ele>807.40002441406</ele>
        <time>2024-01-30T15:54:39.000Z</time>
      </trkpt>
      <trkpt lat="44.90736" lon="3.00789">
        <ele>808.59997558594</ele>
        <time>2024-01-30T15:54:40.000Z</time>
      </trkpt>
      <trkpt lat="44.90754" lon="3.00782">
        <ele>809.79998779297</ele>
        <time>2024-01-30T15:54:41.000Z</time>
      </trkpt>
      <trkpt lat="44.90772" lon="3.00775">
        <ele>811</ele>
        <time>2024-01-30T15:54:42.000Z</time>
      </trkpt>
      <trkpt lat="44.90804" lon="3.00756">
        <ele>813</ele>
        <time>2024-01-30T15:54:44.000Z</time>
      </trkpt>
      <trkpt lat="44.90819" lon="3.00744">
        <ele>814</ele>
        <time>2024-01-30T15:54:45.000Z</time>
      </trkpt>
      <trkpt lat="44.90834" lon="3.0073">
        <ele>815.20001220703</ele>
        <time>2024-01-30T15:54:46.000Z</time>
      </trkpt>
      <trkpt lat="44.90847" lon="3.00716">
        <ele>816.79998779297</ele>
        <time>2024-01-30T15:54:47.000Z</time>
      </trkpt>
      <trkpt lat="44.90861" lon="3.00704">
        <ele>818</ele>
        <time>2024-01-30T15:54:48.000Z</time>
      </trkpt>
      <trkpt lat="44.90877" lon="3.00694">
        <ele>819</ele>
        <time>2024-01-30T15:54:49.000Z</time>
      </trkpt>
      <trkpt lat="44.90892" lon="3.00687">
        <ele>820</ele>
        <time>2024-01-30T15:54:50.000Z</time>
      </trkpt>
      <trkpt lat="44.90909" lon="3.00681">
        <ele>821.59997558594</ele>
        <time>2024-01-30T15:54:51.000Z</time>
      </trkpt>
      <trkpt lat="44.90926" lon="3.00674">
        <ele>823.20001220703</ele>
        <time>2024-01-30T15:54:52.000Z</time>
      </trkpt>
      <trkpt lat="44.90943" lon="3.00665">
        <ele>824.40002441406</ele>
        <time>2024-01-30T15:54:53.000Z</time>
      </trkpt>
      <trkpt lat="44.90958" lon="3.00653">
        <ele>825.40002441406</ele>
        <time>2024-01-30T15:54:54.000Z</time>
      </trkpt>
      <trkpt lat="44.90972" lon="3.00639">
        <ele>826.79998779297</ele>
        <time>2024-01-30T15:54:55.000Z</time>
      </trkpt>
      <trkpt lat="44.90985" lon="3.00626">
        <ele>827.79998779297</ele>
        <time>2024-01-30T15:54:56.000Z</time>
      </trkpt>
      <trkpt lat="44.91003" lon="3.00613">
        <ele>828.79998779297</ele>
        <time>2024-01-30T15:54:57.000Z</time>
      </trkpt>
      <trkpt lat="44.91016" lon="3.00607">
        <ele>830</ele>
        <time>2024-01-30T15:54:58.000Z</time>
      </trkpt>
      <trkpt lat="44.91033" lon="3.00601">
        <ele>830.59997558594</ele>
        <time>2024-01-30T15:54:59.000Z</time>
      </trkpt>
      <trkpt lat="44.91051" lon="3.00599">
        <ele>831.59997558594</ele>
        <time>2024-01-30T15:55:00.000Z</time>
      </trkpt>
      <trkpt lat="44.91068" lon="3.00601">
        <ele>832.40002441406</ele>
        <time>2024-01-30T15:55:01.000Z</time>
      </trkpt>
      <trkpt lat="44.91087" lon="3.00605">
        <ele>833.59997558594</ele>
        <time>2024-01-30T15:55:02.000Z</time>
      </trkpt>
      <trkpt lat="44.91104" lon="3.00611">
        <ele>835</ele>
        <time>2024-01-30T15:55:03.000Z</time>
      </trkpt>
      <trkpt lat="44.91123" lon="3.00616">
        <ele>836.59997558594</ele>
        <time>2024-01-30T15:55:04.000Z</time>
      </trkpt>
      <trkpt lat="44.9114" lon="3.00618">
        <ele>837.79998779297</ele>
        <time>2024-01-30T15:55:05.000Z</time>
      </trkpt>
      <trkpt lat="44.91157" lon="3.00618">
        <ele>839.20001220703</ele>
        <time>2024-01-30T15:55:06.000Z</time>
      </trkpt>
      <trkpt lat="44.91174" lon="3.00616">
        <ele>840.59997558594</ele>
        <time>2024-01-30T15:55:07.000Z</time>
      </trkpt>
      <trkpt lat="44.91192" lon="3.00612">
        <ele>841.79998779297</ele>
        <time>2024-01-30T15:55:08.000Z</time>
      </trkpt>
      <trkpt lat="44.91228" lon="3.00602">
        <ele>844</ele>
        <time>2024-01-30T15:55:10.000Z</time>
      </trkpt>
      <trkpt lat="44.91247" lon="3.00596">
        <ele>845.40002441406</ele>
        <time>2024-01-30T15:55:11.000Z</time>
      </trkpt>
      <trkpt lat="44.91285" lon="3.00589">
        <ele>847.59997558594</ele>
        <time>2024-01-30T15:55:13.000Z</time>
      </trkpt>
      <trkpt lat="44.91305" lon="3.00587">
        <ele>848.40002441406</ele>
        <time>2024-01-30T15:55:14.000Z</time>
      </trkpt>
      <trkpt lat="44.91324" lon="3.00588">
        <ele>849.20001220703</ele>
        <time>2024-01-30T15:55:15.000Z</time>
      </trkpt>
      <trkpt lat="44.91364" lon="3.00595">
        <ele>850.40002441406</ele>
        <time>2024-01-30T15:55:17.000Z</time>
      </trkpt>
      <trkpt lat="44.91402" lon="3.00609">
        <ele>851.20001220703</ele>
        <time>2024-01-30T15:55:19.000Z</time>
      </trkpt>
      <trkpt lat="44.91421" lon="3.00619">
        <ele>852.20001220703</ele>
        <time>2024-01-30T15:55:20.000Z</time>
      </trkpt>
      <trkpt lat="44.91457" lon="3.00645">
        <ele>853.59997558594</ele>
        <time>2024-01-30T15:55:22.000Z</time>
      </trkpt>
      <trkpt lat="44.91474" lon="3.0066">
        <ele>854</ele>
        <time>2024-01-30T15:55:23.000Z</time>
      </trkpt>
      <trkpt lat="44.91507" lon="3.00689">
        <ele>855.20001220703</ele>
        <time>2024-01-30T15:55:25.000Z</time>
      </trkpt>
      <trkpt lat="44.91555" lon="3.00729">
        <ele>856.59997558594</ele>
        <time>2024-01-30T15:55:28.000Z</time>
      </trkpt>
      <trkpt lat="44.91572" lon="3.0074">
        <ele>857.20001220703</ele>
        <time>2024-01-30T15:55:29.000Z</time>
      </trkpt>
      <trkpt lat="44.9159" lon="3.0075">
        <ele>858</ele>
        <time>2024-01-30T15:55:30.000Z</time>
      </trkpt>
      <trkpt lat="44.91609" lon="3.00758">
        <ele>859</ele>
        <time>2024-01-30T15:55:31.000Z</time>
      </trkpt>
      <trkpt lat="44.91628" lon="3.00763">
        <ele>859.79998779297</ele>
        <time>2024-01-30T15:55:32.000Z</time>
      </trkpt>
      <trkpt lat="44.91647" lon="3.00766">
        <ele>860.59997558594</ele>
        <time>2024-01-30T15:55:33.000Z</time>
      </trkpt>
      <trkpt lat="44.91666" lon="3.00767">
        <ele>861.40002441406</ele>
        <time>2024-01-30T15:55:34.000Z</time>
      </trkpt>
      <trkpt lat="44.91685" lon="3.00766">
        <ele>862</ele>
        <time>2024-01-30T15:55:35.000Z</time>
      </trkpt>
      <trkpt lat="44.91705" lon="3.00761">
        <ele>862.59997558594</ele>
        <time>2024-01-30T15:55:36.000Z</time>
      </trkpt>
      <trkpt lat="44.91724" lon="3.00754">
        <ele>863.20001220703</ele>
        <time>2024-01-30T15:55:37.000Z</time>
      </trkpt>
      <trkpt lat="44.91742" lon="3.00744">
        <ele>864.20001220703</ele>
        <time>2024-01-30T15:55:38.000Z</time>
      </trkpt>
      <trkpt lat="44.91761" lon="3.00733">
        <ele>865.20001220703</ele>
        <time>2024-01-30T15:55:39.000Z</time>
      </trkpt>
      <trkpt lat="44.91797" lon="3.00706">
        <ele>867</ele>
        <time>2024-01-30T15:55:41.000Z</time>
      </trkpt>
      <trkpt lat="44.91834" lon="3.00675">
        <ele>868.79998779297</ele>
        <time>2024-01-30T15:55:43.000Z</time>
      </trkpt>
      <trkpt lat="44.91871" lon="3.00642">
        <ele>870.40002441406</ele>
        <time>2024-01-30T15:55:45.000Z</time>
      </trkpt>
      <trkpt lat="44.9189" lon="3.00625">
        <ele>871.20001220703</ele>
        <time>2024-01-30T15:55:46.000Z</time>
      </trkpt>
      <trkpt lat="44.91909" lon="3.00608">
        <ele>872.20001220703</ele>
        <time>2024-01-30T15:55:47.000Z</time>
      </trkpt>
      <trkpt lat="44.91948" lon="3.00575">
        <ele>874.59997558594</ele>
        <time>2024-01-30T15:55:49.000Z</time>
      </trkpt>
      <trkpt lat="44.91967" lon="3.00559">
        <ele>876.20001220703</ele>
        <time>2024-01-30T15:55:50.000Z</time>
      </trkpt>
      <trkpt lat="44.91987" lon="3.00543">
        <ele>877.20001220703</ele>
        <time>2024-01-30T15:55:51.000Z</time>
      </trkpt>
      <trkpt lat="44.92007" lon="3.0053">
        <ele>878.59997558594</ele>
        <time>2024-01-30T15:55:52.000Z</time>
      </trkpt>
      <trkpt lat="44.92048" lon="3.00507">
        <ele>881.20001220703</ele>
        <time>2024-01-30T15:55:54.000Z</time>
      </trkpt>
      <trkpt lat="44.92069" lon="3.00496">
        <ele>882.40002441406</ele>
        <time>2024-01-30T15:55:55.000Z</time>
      </trkpt>
      <trkpt lat="44.9209" lon="3.00486">
        <ele>883.79998779297</ele>
        <time>2024-01-30T15:55:56.000Z</time>
      </trkpt>
      <trkpt lat="44.92134" lon="3.00467">
        <ele>886</ele>
        <time>2024-01-30T15:55:58.000Z</time>
      </trkpt>
      <trkpt lat="44.92155" lon="3.00457">
        <ele>887.20001220703</ele>
        <time>2024-01-30T15:55:59.000Z</time>
      </trkpt>
      <trkpt lat="44.92198" lon="3.00437">
        <ele>889.40002441406</ele>
        <time>2024-01-30T15:56:01.000Z</time>
      </trkpt>
      <trkpt lat="44.9224" lon="3.00415">
        <ele>891.59997558594</ele>
        <time>2024-01-30T15:56:03.000Z</time>
      </trkpt>
      <trkpt lat="44.92261" lon="3.00402">
        <ele>892.59997558594</ele>
        <time>2024-01-30T15:56:04.000Z</time>
      </trkpt>
      <trkpt lat="44.92281" lon="3.00388">
        <ele>893.79998779297</ele>
        <time>2024-01-30T15:56:05.000Z</time>
      </trkpt>
      <trkpt lat="44.92301" lon="3.00373">
        <ele>895</ele>
        <time>2024-01-30T15:56:06.000Z</time>
      </trkpt>
      <trkpt lat="44.9232" lon="3.00358">
        <ele>896.59997558594</ele>
        <time>2024-01-30T15:56:07.000Z</time>
      </trkpt>
      <trkpt lat="44.9236" lon="3.00329">
        <ele>899</ele>
        <time>2024-01-30T15:56:09.000Z</time>
      </trkpt>
      <trkpt lat="44.92379" lon="3.00314">
        <ele>900.20001220703</ele>
        <time>2024-01-30T15:56:10.000Z</time>
      </trkpt>
      <trkpt lat="44.92399" lon="3.00299">
        <ele>901.59997558594</ele>
        <time>2024-01-30T15:56:11.000Z</time>
      </trkpt>
      <trkpt lat="44.92418" lon="3.00284">
        <ele>903</ele>
        <time>2024-01-30T15:56:12.000Z</time>
      </trkpt>
      <trkpt lat="44.92438" lon="3.00269">
        <ele>904</ele>
        <time>2024-01-30T15:56:13.000Z</time>
      </trkpt>
      <trkpt lat="44.92456" lon="3.00254">
        <ele>905.20001220703</ele>
        <time>2024-01-30T15:56:14.000Z</time>
      </trkpt>
      <trkpt lat="44.92475" lon="3.0024">
        <ele>906.79998779297</ele>
        <time>2024-01-30T15:56:15.000Z</time>
      </trkpt>
      <trkpt lat="44.92493" lon="3.00225">
        <ele>907.79998779297</ele>
        <time>2024-01-30T15:56:16.000Z</time>
      </trkpt>
      <trkpt lat="44.9251" lon="3.0021">
        <ele>908.79998779297</ele>
        <time>2024-01-30T15:56:17.000Z</time>
      </trkpt>
      <trkpt lat="44.92526" lon="3.00194">
        <ele>910</ele>
        <time>2024-01-30T15:56:18.000Z</time>
      </trkpt>
      <trkpt lat="44.92554" lon="3.00162">
        <ele>911.59997558594</ele>
        <time>2024-01-30T15:56:20.000Z</time>
      </trkpt>
      <trkpt lat="44.92568" lon="3.00146">
        <ele>912.79998779297</ele>
        <time>2024-01-30T15:56:21.000Z</time>
      </trkpt>
      <trkpt lat="44.92594" lon="3.00114">
        <ele>914.59997558594</ele>
        <time>2024-01-30T15:56:23.000Z</time>
      </trkpt>
      <trkpt lat="44.92606" lon="3.00097">
        <ele>915.79998779297</ele>
        <time>2024-01-30T15:56:24.000Z</time>
      </trkpt>
      <trkpt lat="44.9262" lon="3.0008">
        <ele>917.20001220703</ele>
        <time>2024-01-30T15:56:25.000Z</time>
      </trkpt>
      <trkpt lat="44.92633" lon="3.00064">
        <ele>918.20001220703</ele>
        <time>2024-01-30T15:56:26.000Z</time>
      </trkpt>
      <trkpt lat="44.92661" lon="3.0003">
        <ele>920.40002441406</ele>
        <time>2024-01-30T15:56:28.000Z</time>
      </trkpt>
      <trkpt lat="44.92675" lon="3.00013">
        <ele>921.59997558594</ele>
        <time>2024-01-30T15:56:29.000Z</time>
      </trkpt>
      <trkpt lat="44.92689" lon="2.99996">
        <ele>922.59997558594</ele>
        <time>2024-01-30T15:56:30.000Z</time>
      </trkpt>
      <trkpt lat="44.92702" lon="2.9998">
        <ele>924</ele>
        <time>2024-01-30T15:56:31.000Z</time>
      </trkpt>
      <trkpt lat="44.92729" lon="2.99947">
        <ele>926.20001220703</ele>
        <time>2024-01-30T15:56:33.000Z</time>
      </trkpt>
      <trkpt lat="44.92743" lon="2.99931">
        <ele>927.59997558594</ele>
        <time>2024-01-30T15:56:34.000Z</time>
      </trkpt>
      <trkpt lat="44.92756" lon="2.99914">
        <ele>928.59997558594</ele>
        <time>2024-01-30T15:56:35.000Z</time>
      </trkpt>
      <trkpt lat="44.9277" lon="2.99899">
        <ele>930</ele>
        <time>2024-01-30T15:56:36.000Z</time>
      </trkpt>
      <trkpt lat="44.92794" lon="2.99869">
        <ele>931.79998779297</ele>
        <time>2024-01-30T15:56:38.000Z</time>
      </trkpt>
      <trkpt lat="44.92816" lon="2.99843">
        <ele>933.20001220703</ele>
        <time>2024-01-30T15:56:40.000Z</time>
      </trkpt>
      <trkpt lat="44.92836" lon="2.99822">
        <ele>934.40002441406</ele>
        <time>2024-01-30T15:56:42.000Z</time>
      </trkpt>
      <trkpt lat="44.92851" lon="2.99808">
        <ele>935.79998779297</ele>
        <time>2024-01-30T15:56:44.000Z</time>
      </trkpt>
      <trkpt lat="44.92855" lon="2.99802">
        <ele>935.79998779297</ele>
        <time>2024-01-30T15:56:45.000Z</time>
      </trkpt>
      <trkpt lat="44.92858" lon="2.99796">
        <ele>936.20001220703</ele>
        <time>2024-01-30T15:56:46.000Z</time>
      </trkpt>
      <trkpt lat="44.92857" lon="2.9979">
        <ele>936.59997558594</ele>
        <time>2024-01-30T15:56:47.000Z</time>
      </trkpt>
      <trkpt lat="44.92855" lon="2.99786">
        <ele>937.40002441406</ele>
        <time>2024-01-30T15:56:48.000Z</time>
      </trkpt>
      <trkpt lat="44.92846" lon="2.99777">
        <ele>937.59997558594</ele>
        <time>2024-01-30T15:56:50.000Z</time>
      </trkpt>
      <trkpt lat="44.92825" lon="2.99749">
        <ele>937.79998779297</ele>
        <time>2024-01-30T15:56:54.000Z</time>
      </trkpt>
      <trkpt lat="44.92814" lon="2.9973">
        <ele>937.59997558594</ele>
        <time>2024-01-30T15:56:56.000Z</time>
      </trkpt>
      <trkpt lat="44.92808" lon="2.99711">
        <ele>937.40002441406</ele>
        <time>2024-01-30T15:56:58.000Z</time>
      </trkpt>
      <trkpt lat="44.92809" lon="2.99691">
        <ele>937.40002441406</ele>
        <time>2024-01-30T15:57:00.000Z</time>
      </trkpt>
      <trkpt lat="44.9281" lon="2.9968">
        <ele>937.59997558594</ele>
        <time>2024-01-30T15:57:01.000Z</time>
      </trkpt>
      <trkpt lat="44.92814" lon="2.99657">
        <ele>938.40002441406</ele>
        <time>2024-01-30T15:57:03.000Z</time>
      </trkpt>
      <trkpt lat="44.92821" lon="2.99634">
        <ele>939.59997558594</ele>
        <time>2024-01-30T15:57:05.000Z</time>
      </trkpt>
      <trkpt lat="44.9283" lon="2.99613">
        <ele>940.59997558594</ele>
        <time>2024-01-30T15:57:07.000Z</time>
      </trkpt>
      <trkpt lat="44.92835" lon="2.99603">
        <ele>941</ele>
        <time>2024-01-30T15:57:08.000Z</time>
      </trkpt>
      <trkpt lat="44.92842" lon="2.99593">
        <ele>941.40002441406</ele>
        <time>2024-01-30T15:57:09.000Z</time>
      </trkpt>
      <trkpt lat="44.92859" lon="2.99575">
        <ele>942</ele>
        <time>2024-01-30T15:57:11.000Z</time>
      </trkpt>
      <trkpt lat="44.92869" lon="2.99566">
        <ele>942.20001220703</ele>
        <time>2024-01-30T15:57:12.000Z</time>
      </trkpt>
      <trkpt lat="44.92917" lon="2.99532">
        <ele>942</ele>
        <time>2024-01-30T15:57:16.000Z</time>
      </trkpt>
      <trkpt lat="44.92954" lon="2.99507">
        <ele>941</ele>
        <time>2024-01-30T15:57:19.000Z</time>
      </trkpt>
      <trkpt lat="44.92965" lon="2.99496">
        <ele>940.79998779297</ele>
        <time>2024-01-30T15:57:20.000Z</time>
      </trkpt>
      <trkpt lat="44.92982" lon="2.99471">
        <ele>939.79998779297</ele>
        <time>2024-01-30T15:57:22.000Z</time>
      </trkpt>
      <trkpt lat="44.92989" lon="2.99457">
        <ele>939.40002441406</ele>
        <time>2024-01-30T15:57:23.000Z</time>
      </trkpt>
      <trkpt lat="44.92993" lon="2.99443">
        <ele>939</ele>
        <time>2024-01-30T15:57:24.000Z</time>
      </trkpt>
      <trkpt lat="44.92995" lon="2.9943">
        <ele>938.79998779297</ele>
        <time>2024-01-30T15:57:25.000Z</time>
      </trkpt>
      <trkpt lat="44.92997" lon="2.99411">
        <ele>938.59997558594</ele>
        <time>2024-01-30T15:57:26.000Z</time>
      </trkpt>
      <trkpt lat="44.9299" lon="2.99362">
        <ele>938</ele>
        <time>2024-01-30T15:57:29.000Z</time>
      </trkpt>
      <trkpt lat="44.92987" lon="2.99346">
        <ele>937.79998779297</ele>
        <time>2024-01-30T15:57:30.000Z</time>
      </trkpt>
      <trkpt lat="44.92972" lon="2.99264">
        <ele>937</ele>
        <time>2024-01-30T15:57:35.000Z</time>
      </trkpt>
      <trkpt lat="44.92971" lon="2.99246">
        <ele>937</ele>
        <time>2024-01-30T15:57:36.000Z</time>
      </trkpt>
      <trkpt lat="44.92971" lon="2.99227">
        <ele>936.59997558594</ele>
        <time>2024-01-30T15:57:37.000Z</time>
      </trkpt>
      <trkpt lat="44.92973" lon="2.99209">
        <ele>936.40002441406</ele>
        <time>2024-01-30T15:57:38.000Z</time>
      </trkpt>
      <trkpt lat="44.92982" lon="2.99174">
        <ele>936</ele>
        <time>2024-01-30T15:57:40.000Z</time>
      </trkpt>
      <trkpt lat="44.92988" lon="2.99157">
        <ele>935.79998779297</ele>
        <time>2024-01-30T15:57:41.000Z</time>
      </trkpt>
      <trkpt lat="44.93002" lon="2.99124">
        <ele>935.40002441406</ele>
        <time>2024-01-30T15:57:43.000Z</time>
      </trkpt>
      <trkpt lat="44.93026" lon="2.99079">
        <ele>934.40002441406</ele>
        <time>2024-01-30T15:57:46.000Z</time>
      </trkpt>
      <trkpt lat="44.93046" lon="2.99056">
        <ele>933.59997558594</ele>
        <time>2024-01-30T15:57:48.000Z</time>
      </trkpt>
      <trkpt lat="44.93057" lon="2.99047">
        <ele>933.40002441406</ele>
        <time>2024-01-30T15:57:49.000Z</time>
      </trkpt>
      <trkpt lat="44.93068" lon="2.99039">
        <ele>933.20001220703</ele>
        <time>2024-01-30T15:57:50.000Z</time>
      </trkpt>
      <trkpt lat="44.93101" lon="2.99017">
        <ele>932.20001220703</ele>
        <time>2024-01-30T15:57:53.000Z</time>
      </trkpt>
      <trkpt lat="44.93122" lon="2.99002">
        <ele>931.79998779297</ele>
        <time>2024-01-30T15:57:55.000Z</time>
      </trkpt>
      <trkpt lat="44.93141" lon="2.98986">
        <ele>931.40002441406</ele>
        <time>2024-01-30T15:57:57.000Z</time>
      </trkpt>
      <trkpt lat="44.93157" lon="2.98964">
        <ele>930.59997558594</ele>
        <time>2024-01-30T15:57:59.000Z</time>
      </trkpt>
      <trkpt lat="44.93164" lon="2.98936">
        <ele>930.40002441406</ele>
        <time>2024-01-30T15:58:01.000Z</time>
      </trkpt>
      <trkpt lat="44.93161" lon="2.98906">
        <ele>929.79998779297</ele>
        <time>2024-01-30T15:58:03.000Z</time>
      </trkpt>
      <trkpt lat="44.93157" lon="2.98893">
        <ele>929.79998779297</ele>
        <time>2024-01-30T15:58:04.000Z</time>
      </trkpt>
      <trkpt lat="44.93153" lon="2.98882">
        <ele>929.59997558594</ele>
        <time>2024-01-30T15:58:05.000Z</time>
      </trkpt>
      <trkpt lat="44.93148" lon="2.98874">
        <ele>929.20001220703</ele>
        <time>2024-01-30T15:58:06.000Z</time>
      </trkpt>
      <trkpt lat="44.9314" lon="2.98865">
        <ele>928.79998779297</ele>
        <time>2024-01-30T15:58:07.000Z</time>
      </trkpt>
      <trkpt lat="44.93107" lon="2.98835">
        <ele>928.59997558594</ele>
        <time>2024-01-30T15:58:11.000Z</time>
      </trkpt>
      <trkpt lat="44.93093" lon="2.98817">
        <ele>928</ele>
        <time>2024-01-30T15:58:13.000Z</time>
      </trkpt>
      <trkpt lat="44.93083" lon="2.98798">
        <ele>927.59997558594</ele>
        <time>2024-01-30T15:58:15.000Z</time>
      </trkpt>
      <trkpt lat="44.93078" lon="2.98785">
        <ele>927.40002441406</ele>
        <time>2024-01-30T15:58:16.000Z</time>
      </trkpt>
      <trkpt lat="44.93073" lon="2.98764">
        <ele>927.20001220703</ele>
        <time>2024-01-30T15:58:18.000Z</time>
      </trkpt>
      <trkpt lat="44.9307" lon="2.98737">
        <ele>927</ele>
        <time>2024-01-30T15:58:20.000Z</time>
      </trkpt>
      <trkpt lat="44.9307" lon="2.98722">
        <ele>927</ele>
        <time>2024-01-30T15:58:21.000Z</time>
      </trkpt>
      <trkpt lat="44.9307" lon="2.98707">
        <ele>926.79998779297</ele>
        <time>2024-01-30T15:58:22.000Z</time>
      </trkpt>
      <trkpt lat="44.93073" lon="2.98677">
        <ele>926.40002441406</ele>
        <time>2024-01-30T15:58:24.000Z</time>
      </trkpt>
      <trkpt lat="44.93079" lon="2.9865">
        <ele>925.79998779297</ele>
        <time>2024-01-30T15:58:26.000Z</time>
      </trkpt>
      <trkpt lat="44.93098" lon="2.98571">
        <ele>925.20001220703</ele>
        <time>2024-01-30T15:58:32.000Z</time>
      </trkpt>
      <trkpt lat="44.93102" lon="2.98555">
        <ele>924.79998779297</ele>
        <time>2024-01-30T15:58:33.000Z</time>
      </trkpt>
      <trkpt lat="44.93108" lon="2.98519">
        <ele>924.59997558594</ele>
        <time>2024-01-30T15:58:36.000Z</time>
      </trkpt>
      <trkpt lat="44.93108" lon="2.98495">
        <ele>924.20001220703</ele>
        <time>2024-01-30T15:58:38.000Z</time>
      </trkpt>
      <trkpt lat="44.93103" lon="2.98471">
        <ele>924.20001220703</ele>
        <time>2024-01-30T15:58:40.000Z</time>
      </trkpt>
      <trkpt lat="44.93098" lon="2.98459">
        <ele>924.20001220703</ele>
        <time>2024-01-30T15:58:41.000Z</time>
      </trkpt>
      <trkpt lat="44.93092" lon="2.98448">
        <ele>924.40002441406</ele>
        <time>2024-01-30T15:58:42.000Z</time>
      </trkpt>
      <trkpt lat="44.93077" lon="2.98432">
        <ele>924.59997558594</ele>
        <time>2024-01-30T15:58:44.000Z</time>
      </trkpt>
      <trkpt lat="44.9306" lon="2.98423">
        <ele>924.79998779297</ele>
        <time>2024-01-30T15:58:46.000Z</time>
      </trkpt>
      <trkpt lat="44.9305" lon="2.9842">
        <ele>924.79998779297</ele>
        <time>2024-01-30T15:58:47.000Z</time>
      </trkpt>
      <trkpt lat="44.93031" lon="2.98417">
        <ele>925.20001220703</ele>
        <time>2024-01-30T15:58:49.000Z</time>
      </trkpt>
      <trkpt lat="44.93013" lon="2.98418">
        <ele>925.59997558594</ele>
        <time>2024-01-30T15:58:51.000Z</time>
      </trkpt>
      <trkpt lat="44.93005" lon="2.98419">
        <ele>925.79998779297</ele>
        <time>2024-01-30T15:58:52.000Z</time>
      </trkpt>
      <trkpt lat="44.92997" lon="2.98421">
        <ele>926</ele>
        <time>2024-01-30T15:58:53.000Z</time>
      </trkpt>
      <trkpt lat="44.92983" lon="2.98428">
        <ele>926.20001220703</ele>
        <time>2024-01-30T15:58:55.000Z</time>
      </trkpt>
      <trkpt lat="44.92959" lon="2.98439">
        <ele>927.40002441406</ele>
        <time>2024-01-30T15:58:58.000Z</time>
      </trkpt>
      <trkpt lat="44.92942" lon="2.9845">
        <ele>927.79998779297</ele>
        <time>2024-01-30T15:59:00.000Z</time>
      </trkpt>
      <trkpt lat="44.92926" lon="2.98461">
        <ele>928.40002441406</ele>
        <time>2024-01-30T15:59:02.000Z</time>
      </trkpt>
      <trkpt lat="44.929" lon="2.9848">
        <ele>929.40002441406</ele>
        <time>2024-01-30T15:59:06.000Z</time>
      </trkpt>
      <trkpt lat="44.92894" lon="2.98484">
        <ele>929.59997558594</ele>
        <time>2024-01-30T15:59:07.000Z</time>
      </trkpt>
      <trkpt lat="44.92871" lon="2.98501">
        <ele>930.20001220703</ele>
        <time>2024-01-30T15:59:12.000Z</time>
      </trkpt>
      <trkpt lat="44.92862" lon="2.98505">
        <ele>930.79998779297</ele>
        <time>2024-01-30T15:59:14.000Z</time>
      </trkpt>
      <trkpt lat="44.92857" lon="2.98507">
        <ele>930.79998779297</ele>
        <time>2024-01-30T15:59:15.000Z</time>
      </trkpt>
      <trkpt lat="44.92849" lon="2.98507">
        <ele>930.79998779297</ele>
        <time>2024-01-30T15:59:17.000Z</time>
      </trkpt>
      <trkpt lat="44.9284" lon="2.98503">
        <ele>931.20001220703</ele>
        <time>2024-01-30T15:59:21.000Z</time>
      </trkpt>
      <trkpt lat="44.92839" lon="2.98502">
        <ele>931.40002441406</ele>
        <time>2024-01-30T15:59:25.000Z</time>
      </trkpt>
      <trkpt lat="44.92839" lon="2.98502">
        <ele>931.59997558594</ele>
        <time>2024-01-30T15:59:35.000Z</time>
      </trkpt>
      <trkpt lat="44.92839" lon="2.98502">
        <ele>931.79998779297</ele>
        <time>2024-01-30T15:59:42.000Z</time>
      </trkpt>
      <trkpt lat="44.92839" lon="2.98502">
        <ele>931.79998779297</ele>
        <time>2024-01-30T15:59:47.000Z</time>
      </trkpt>
      <trkpt lat="44.92839" lon="2.98502">
        <ele>932</ele>
        <time>2024-01-30T16:00:04.000Z</time>
      </trkpt>
      <trkpt lat="44.92839" lon="2.98502">
        <ele>932</ele>
        <time>2024-01-30T16:00:15.000Z</time>
      </trkpt>
      <trkpt lat="44.92839" lon="2.98502">
        <ele>932.20001220703</ele>
        <time>2024-01-30T16:00:31.000Z</time>
      </trkpt>
      <trkpt lat="44.92839" lon="2.98501">
        <ele>932.40002441406</ele>
        <time>2024-01-30T16:00:46.000Z</time>
      </trkpt>
      <trkpt lat="44.92839" lon="2.98501">
        <ele>932.40002441406</ele>
        <time>2024-01-30T16:00:54.000Z</time>
      </trkpt>
      <trkpt lat="44.92836" lon="2.98503">
        <ele>932.59997558594</ele>
        <time>2024-01-30T16:00:58.000Z</time>
      </trkpt>
      <trkpt lat="44.92834" lon="2.98503">
        <ele>932.59997558594</ele>
        <time>2024-01-30T16:00:59.000Z</time>
      </trkpt>
      <trkpt lat="44.92826" lon="2.98501">
        <ele>932.79998779297</ele>
        <time>2024-01-30T16:01:02.000Z</time>
      </trkpt>
      <trkpt lat="44.92823" lon="2.98499">
        <ele>933</ele>
        <time>2024-01-30T16:01:03.000Z</time>
      </trkpt>
      <trkpt lat="44.92816" lon="2.98492">
        <ele>933.20001220703</ele>
        <time>2024-01-30T16:01:05.000Z</time>
      </trkpt>
      <trkpt lat="44.92807" lon="2.9848">
        <ele>933.79998779297</ele>
        <time>2024-01-30T16:01:07.000Z</time>
      </trkpt>
      <trkpt lat="44.92798" lon="2.98464">
        <ele>934.20001220703</ele>
        <time>2024-01-30T16:01:09.000Z</time>
      </trkpt>
      <trkpt lat="44.92793" lon="2.98445">
        <ele>934.59997558594</ele>
        <time>2024-01-30T16:01:11.000Z</time>
      </trkpt>
      <trkpt lat="44.92792" lon="2.98437">
        <ele>934.79998779297</ele>
        <time>2024-01-30T16:01:12.000Z</time>
      </trkpt>
      <trkpt lat="44.92793" lon="2.98404">
        <ele>935</ele>
        <time>2024-01-30T16:01:15.000Z</time>
      </trkpt>
      <trkpt lat="44.92799" lon="2.98361">
        <ele>934.79998779297</ele>
        <time>2024-01-30T16:01:19.000Z</time>
      </trkpt>
      <trkpt lat="44.928" lon="2.98352">
        <ele>934.79998779297</ele>
        <time>2024-01-30T16:01:20.000Z</time>
      </trkpt>
      <trkpt lat="44.92798" lon="2.98342">
        <ele>934.40002441406</ele>
        <time>2024-01-30T16:01:21.000Z</time>
      </trkpt>
      <trkpt lat="44.92794" lon="2.98325">
        <ele>934.20001220703</ele>
        <time>2024-01-30T16:01:23.000Z</time>
      </trkpt>
      <trkpt lat="44.92793" lon="2.98313">
        <ele>934</ele>
        <time>2024-01-30T16:01:24.000Z</time>
      </trkpt>
      <trkpt lat="44.92793" lon="2.98293">
        <ele>934</ele>
        <time>2024-01-30T16:01:26.000Z</time>
      </trkpt>
      <trkpt lat="44.92794" lon="2.98256">
        <ele>933.79998779297</ele>
        <time>2024-01-30T16:01:29.000Z</time>
      </trkpt>
      <trkpt lat="44.92793" lon="2.98241">
        <ele>933.79998779297</ele>
        <time>2024-01-30T16:01:30.000Z</time>
      </trkpt>
      <trkpt lat="44.92789" lon="2.98206">
        <ele>933.20001220703</ele>
        <time>2024-01-30T16:01:33.000Z</time>
      </trkpt>
      <trkpt lat="44.92789" lon="2.98194">
        <ele>933</ele>
        <time>2024-01-30T16:01:34.000Z</time>
      </trkpt>
      <trkpt lat="44.9279" lon="2.98182">
        <ele>933</ele>
        <time>2024-01-30T16:01:35.000Z</time>
      </trkpt>
      <trkpt lat="44.92792" lon="2.98171">
        <ele>932.79998779297</ele>
        <time>2024-01-30T16:01:36.000Z</time>
      </trkpt>
      <trkpt lat="44.92795" lon="2.9816">
        <ele>932.79998779297</ele>
        <time>2024-01-30T16:01:37.000Z</time>
      </trkpt>
      <trkpt lat="44.92803" lon="2.98136">
        <ele>932.79998779297</ele>
        <time>2024-01-30T16:01:39.000Z</time>
      </trkpt>
      <trkpt lat="44.92827" lon="2.98084">
        <ele>932.59997558594</ele>
        <time>2024-01-30T16:01:43.000Z</time>
      </trkpt>
      <trkpt lat="44.92862" lon="2.98027">
        <ele>932.20001220703</ele>
        <time>2024-01-30T16:01:47.000Z</time>
      </trkpt>
      <trkpt lat="44.92881" lon="2.98">
        <ele>931.79998779297</ele>
        <time>2024-01-30T16:01:49.000Z</time>
      </trkpt>
      <trkpt lat="44.92903" lon="2.97958">
        <ele>931</ele>
        <time>2024-01-30T16:01:52.000Z</time>
      </trkpt>
      <trkpt lat="44.92908" lon="2.97944">
        <ele>930.59997558594</ele>
        <time>2024-01-30T16:01:53.000Z</time>
      </trkpt>
      <trkpt lat="44.9291" lon="2.97928">
        <ele>930.59997558594</ele>
        <time>2024-01-30T16:01:54.000Z</time>
      </trkpt>
      <trkpt lat="44.92912" lon="2.97912">
        <ele>930.59997558594</ele>
        <time>2024-01-30T16:01:55.000Z</time>
      </trkpt>
      <trkpt lat="44.92916" lon="2.97877">
        <ele>930.59997558594</ele>
        <time>2024-01-30T16:01:57.000Z</time>
      </trkpt>
      <trkpt lat="44.9292" lon="2.9786">
        <ele>930.79998779297</ele>
        <time>2024-01-30T16:01:58.000Z</time>
      </trkpt>
      <trkpt lat="44.92927" lon="2.97844">
        <ele>931.40002441406</ele>
        <time>2024-01-30T16:01:59.000Z</time>
      </trkpt>
      <trkpt lat="44.92936" lon="2.9783">
        <ele>932.20001220703</ele>
        <time>2024-01-30T16:02:00.000Z</time>
      </trkpt>
      <trkpt lat="44.92946" lon="2.97816">
        <ele>932.79998779297</ele>
        <time>2024-01-30T16:02:01.000Z</time>
      </trkpt>
      <trkpt lat="44.92958" lon="2.97803">
        <ele>933.59997558594</ele>
        <time>2024-01-30T16:02:02.000Z</time>
      </trkpt>
      <trkpt lat="44.92982" lon="2.97779">
        <ele>934.59997558594</ele>
        <time>2024-01-30T16:02:04.000Z</time>
      </trkpt>
      <trkpt lat="44.92995" lon="2.97766">
        <ele>935.79998779297</ele>
        <time>2024-01-30T16:02:05.000Z</time>
      </trkpt>
      <trkpt lat="44.93007" lon="2.97754">
        <ele>936.40002441406</ele>
        <time>2024-01-30T16:02:06.000Z</time>
      </trkpt>
      <trkpt lat="44.93019" lon="2.9774">
        <ele>937</ele>
        <time>2024-01-30T16:02:07.000Z</time>
      </trkpt>
      <trkpt lat="44.93041" lon="2.97712">
        <ele>938.40002441406</ele>
        <time>2024-01-30T16:02:09.000Z</time>
      </trkpt>
      <trkpt lat="44.93051" lon="2.97697">
        <ele>939</ele>
        <time>2024-01-30T16:02:10.000Z</time>
      </trkpt>
      <trkpt lat="44.93062" lon="2.97682">
        <ele>939.59997558594</ele>
        <time>2024-01-30T16:02:11.000Z</time>
      </trkpt>
      <trkpt lat="44.9308" lon="2.97652">
        <ele>940.79998779297</ele>
        <time>2024-01-30T16:02:13.000Z</time>
      </trkpt>
      <trkpt lat="44.931" lon="2.97621">
        <ele>942.40002441406</ele>
        <time>2024-01-30T16:02:15.000Z</time>
      </trkpt>
      <trkpt lat="44.9311" lon="2.97606">
        <ele>943</ele>
        <time>2024-01-30T16:02:16.000Z</time>
      </trkpt>
      <trkpt lat="44.9312" lon="2.9759">
        <ele>943.40002441406</ele>
        <time>2024-01-30T16:02:17.000Z</time>
      </trkpt>
      <trkpt lat="44.9313" lon="2.97574">
        <ele>944.59997558594</ele>
        <time>2024-01-30T16:02:18.000Z</time>
      </trkpt>
      <trkpt lat="44.93152" lon="2.9754">
        <ele>945.79998779297</ele>
        <time>2024-01-30T16:02:20.000Z</time>
      </trkpt>
      <trkpt lat="44.93163" lon="2.97523">
        <ele>946.79998779297</ele>
        <time>2024-01-30T16:02:21.000Z</time>
      </trkpt>
      <trkpt lat="44.93174" lon="2.97506">
        <ele>947.40002441406</ele>
        <time>2024-01-30T16:02:22.000Z</time>
      </trkpt>
      <trkpt lat="44.93186" lon="2.97491">
        <ele>948.59997558594</ele>
        <time>2024-01-30T16:02:23.000Z</time>
      </trkpt>
      <trkpt lat="44.93214" lon="2.97463">
        <ele>950.20001220703</ele>
        <time>2024-01-30T16:02:25.000Z</time>
      </trkpt>
      <trkpt lat="44.93242" lon="2.97439">
        <ele>951.59997558594</ele>
        <time>2024-01-30T16:02:27.000Z</time>
      </trkpt>
      <trkpt lat="44.93268" lon="2.9741">
        <ele>953</ele>
        <time>2024-01-30T16:02:29.000Z</time>
      </trkpt>
      <trkpt lat="44.9328" lon="2.97392">
        <ele>954.20001220703</ele>
        <time>2024-01-30T16:02:30.000Z</time>
      </trkpt>
      <trkpt lat="44.93301" lon="2.97354">
        <ele>955.79998779297</ele>
        <time>2024-01-30T16:02:32.000Z</time>
      </trkpt>
      <trkpt lat="44.93324" lon="2.97316">
        <ele>957.20001220703</ele>
        <time>2024-01-30T16:02:34.000Z</time>
      </trkpt>
      <trkpt lat="44.93349" lon="2.97279">
        <ele>959</ele>
        <time>2024-01-30T16:02:36.000Z</time>
      </trkpt>
      <trkpt lat="44.93374" lon="2.97242">
        <ele>960.79998779297</ele>
        <time>2024-01-30T16:02:38.000Z</time>
      </trkpt>
      <trkpt lat="44.934" lon="2.97205">
        <ele>962</ele>
        <time>2024-01-30T16:02:40.000Z</time>
      </trkpt>
      <trkpt lat="44.93413" lon="2.97186">
        <ele>963.40002441406</ele>
        <time>2024-01-30T16:02:41.000Z</time>
      </trkpt>
      <trkpt lat="44.93426" lon="2.97167">
        <ele>964.20001220703</ele>
        <time>2024-01-30T16:02:42.000Z</time>
      </trkpt>
      <trkpt lat="44.9344" lon="2.97149">
        <ele>965</ele>
        <time>2024-01-30T16:02:43.000Z</time>
      </trkpt>
      <trkpt lat="44.93471" lon="2.97109">
        <ele>966.79998779297</ele>
        <time>2024-01-30T16:02:45.000Z</time>
      </trkpt>
      <trkpt lat="44.93498" lon="2.97077">
        <ele>968</ele>
        <time>2024-01-30T16:02:47.000Z</time>
      </trkpt>
      <trkpt lat="44.93528" lon="2.97043">
        <ele>969.59997558594</ele>
        <time>2024-01-30T16:02:49.000Z</time>
      </trkpt>
      <trkpt lat="44.93556" lon="2.9701">
        <ele>971.20001220703</ele>
        <time>2024-01-30T16:02:51.000Z</time>
      </trkpt>
      <trkpt lat="44.9358" lon="2.96974">
        <ele>972.40002441406</ele>
        <time>2024-01-30T16:02:53.000Z</time>
      </trkpt>
      <trkpt lat="44.93599" lon="2.96932">
        <ele>974</ele>
        <time>2024-01-30T16:02:55.000Z</time>
      </trkpt>
      <trkpt lat="44.93607" lon="2.96909">
        <ele>975.20001220703</ele>
        <time>2024-01-30T16:02:56.000Z</time>
      </trkpt>
      <trkpt lat="44.93619" lon="2.9686">
        <ele>977</ele>
        <time>2024-01-30T16:02:58.000Z</time>
      </trkpt>
      <trkpt lat="44.9363" lon="2.96811">
        <ele>978.40002441406</ele>
        <time>2024-01-30T16:03:00.000Z</time>
      </trkpt>
      <trkpt lat="44.93636" lon="2.96786">
        <ele>979.59997558594</ele>
        <time>2024-01-30T16:03:01.000Z</time>
      </trkpt>
      <trkpt lat="44.93647" lon="2.96738">
        <ele>981.20001220703</ele>
        <time>2024-01-30T16:03:03.000Z</time>
      </trkpt>
      <trkpt lat="44.93664" lon="2.96693">
        <ele>982.59997558594</ele>
        <time>2024-01-30T16:03:05.000Z</time>
      </trkpt>
      <trkpt lat="44.93687" lon="2.96653">
        <ele>984.40002441406</ele>
        <time>2024-01-30T16:03:07.000Z</time>
      </trkpt>
      <trkpt lat="44.93701" lon="2.96634">
        <ele>985</ele>
        <time>2024-01-30T16:03:08.000Z</time>
      </trkpt>
      <trkpt lat="44.93716" lon="2.96617">
        <ele>986</ele>
        <time>2024-01-30T16:03:09.000Z</time>
      </trkpt>
      <trkpt lat="44.93747" lon="2.96585">
        <ele>987.79998779297</ele>
        <time>2024-01-30T16:03:11.000Z</time>
      </trkpt>
      <trkpt lat="44.93763" lon="2.96569">
        <ele>989</ele>
        <time>2024-01-30T16:03:12.000Z</time>
      </trkpt>
      <trkpt lat="44.93796" lon="2.96536">
        <ele>990.59997558594</ele>
        <time>2024-01-30T16:03:14.000Z</time>
      </trkpt>
      <trkpt lat="44.93813" lon="2.96518">
        <ele>991.59997558594</ele>
        <time>2024-01-30T16:03:15.000Z</time>
      </trkpt>
      <trkpt lat="44.93831" lon="2.965">
        <ele>992.79998779297</ele>
        <time>2024-01-30T16:03:16.000Z</time>
      </trkpt>
      <trkpt lat="44.93848" lon="2.96483">
        <ele>993.59997558594</ele>
        <time>2024-01-30T16:03:17.000Z</time>
      </trkpt>
      <trkpt lat="44.93865" lon="2.96466">
        <ele>994.40002441406</ele>
        <time>2024-01-30T16:03:18.000Z</time>
      </trkpt>
      <trkpt lat="44.93899" lon="2.96432">
        <ele>995.40002441406</ele>
        <time>2024-01-30T16:03:20.000Z</time>
      </trkpt>
      <trkpt lat="44.93931" lon="2.96399">
        <ele>997</ele>
        <time>2024-01-30T16:03:22.000Z</time>
      </trkpt>
      <trkpt lat="44.93962" lon="2.96369">
        <ele>998.40002441406</ele>
        <time>2024-01-30T16:03:24.000Z</time>
      </trkpt>
      <trkpt lat="44.93996" lon="2.96345">
        <ele>999.59997558594</ele>
        <time>2024-01-30T16:03:26.000Z</time>
      </trkpt>
      <trkpt lat="44.94013" lon="2.96335">
        <ele>1000</ele>
        <time>2024-01-30T16:03:27.000Z</time>
      </trkpt>
      <trkpt lat="44.94067" lon="2.96308">
        <ele>1000</ele>
        <time>2024-01-30T16:03:30.000Z</time>
      </trkpt>
      <trkpt lat="44.94105" lon="2.96291">
        <ele>999.20001220703</ele>
        <time>2024-01-30T16:03:32.000Z</time>
      </trkpt>
      <trkpt lat="44.94144" lon="2.96273">
        <ele>998.59997558594</ele>
        <time>2024-01-30T16:03:34.000Z</time>
      </trkpt>
      <trkpt lat="44.94183" lon="2.96256">
        <ele>997.40002441406</ele>
        <time>2024-01-30T16:03:36.000Z</time>
      </trkpt>
      <trkpt lat="44.94222" lon="2.96239">
        <ele>996.40002441406</ele>
        <time>2024-01-30T16:03:38.000Z</time>
      </trkpt>
      <trkpt lat="44.9424" lon="2.9623">
        <ele>996</ele>
        <time>2024-01-30T16:03:39.000Z</time>
      </trkpt>
      <trkpt lat="44.94259" lon="2.96221">
        <ele>995.20001220703</ele>
        <time>2024-01-30T16:03:40.000Z</time>
      </trkpt>
      <trkpt lat="44.94277" lon="2.9621">
        <ele>994</ele>
        <time>2024-01-30T16:03:41.000Z</time>
      </trkpt>
      <trkpt lat="44.94294" lon="2.96198">
        <ele>993.59997558594</ele>
        <time>2024-01-30T16:03:42.000Z</time>
      </trkpt>
      <trkpt lat="44.94311" lon="2.96183">
        <ele>992.59997558594</ele>
        <time>2024-01-30T16:03:43.000Z</time>
      </trkpt>
      <trkpt lat="44.9434" lon="2.9615">
        <ele>991.40002441406</ele>
        <time>2024-01-30T16:03:45.000Z</time>
      </trkpt>
      <trkpt lat="44.94355" lon="2.96134">
        <ele>990.79998779297</ele>
        <time>2024-01-30T16:03:46.000Z</time>
      </trkpt>
      <trkpt lat="44.94369" lon="2.96118">
        <ele>990.20001220703</ele>
        <time>2024-01-30T16:03:47.000Z</time>
      </trkpt>
      <trkpt lat="44.94403" lon="2.96092">
        <ele>989.20001220703</ele>
        <time>2024-01-30T16:03:49.000Z</time>
      </trkpt>
      <trkpt lat="44.94421" lon="2.96081">
        <ele>988.79998779297</ele>
        <time>2024-01-30T16:03:50.000Z</time>
      </trkpt>
      <trkpt lat="44.94458" lon="2.96058">
        <ele>987.59997558594</ele>
        <time>2024-01-30T16:03:52.000Z</time>
      </trkpt>
      <trkpt lat="44.94477" lon="2.96045">
        <ele>986.79998779297</ele>
        <time>2024-01-30T16:03:53.000Z</time>
      </trkpt>
      <trkpt lat="44.94496" lon="2.96031">
        <ele>986.40002441406</ele>
        <time>2024-01-30T16:03:54.000Z</time>
      </trkpt>
      <trkpt lat="44.94552" lon="2.95987">
        <ele>985</ele>
        <time>2024-01-30T16:03:57.000Z</time>
      </trkpt>
      <trkpt lat="44.9457" lon="2.95973">
        <ele>984</ele>
        <time>2024-01-30T16:03:58.000Z</time>
      </trkpt>
      <trkpt lat="44.94588" lon="2.95959">
        <ele>983.20001220703</ele>
        <time>2024-01-30T16:03:59.000Z</time>
      </trkpt>
      <trkpt lat="44.94604" lon="2.95947">
        <ele>982.20001220703</ele>
        <time>2024-01-30T16:04:00.000Z</time>
      </trkpt>
      <trkpt lat="44.94637" lon="2.95929">
        <ele>979.79998779297</ele>
        <time>2024-01-30T16:04:02.000Z</time>
      </trkpt>
      <trkpt lat="44.94652" lon="2.95924">
        <ele>978.59997558594</ele>
        <time>2024-01-30T16:04:03.000Z</time>
      </trkpt>
      <trkpt lat="44.94667" lon="2.95922">
        <ele>978</ele>
        <time>2024-01-30T16:04:04.000Z</time>
      </trkpt>
      <trkpt lat="44.94681" lon="2.95921">
        <ele>977.20001220703</ele>
        <time>2024-01-30T16:04:05.000Z</time>
      </trkpt>
      <trkpt lat="44.94705" lon="2.95918">
        <ele>975.79998779297</ele>
        <time>2024-01-30T16:04:07.000Z</time>
      </trkpt>
      <trkpt lat="44.94715" lon="2.95914">
        <ele>974.79998779297</ele>
        <time>2024-01-30T16:04:08.000Z</time>
      </trkpt>
      <trkpt lat="44.94729" lon="2.95899">
        <ele>973.59997558594</ele>
        <time>2024-01-30T16:04:10.000Z</time>
      </trkpt>
      <trkpt lat="44.94735" lon="2.95878">
        <ele>972.79998779297</ele>
        <time>2024-01-30T16:04:12.000Z</time>
      </trkpt>
      <trkpt lat="44.94736" lon="2.95868">
        <ele>972.59997558594</ele>
        <time>2024-01-30T16:04:13.000Z</time>
      </trkpt>
      <trkpt lat="44.94736" lon="2.9586">
        <ele>972.20001220703</ele>
        <time>2024-01-30T16:04:14.000Z</time>
      </trkpt>
      <trkpt lat="44.94736" lon="2.95853">
        <ele>972</ele>
        <time>2024-01-30T16:04:16.000Z</time>
      </trkpt>
      <trkpt lat="44.94736" lon="2.95853">
        <ele>972</ele>
        <time>2024-01-30T16:04:20.000Z</time>
      </trkpt>
      <trkpt lat="44.94738" lon="2.9585">
        <ele>972.40002441406</ele>
        <time>2024-01-30T16:04:23.000Z</time>
      </trkpt>
      <trkpt lat="44.94743" lon="2.95847">
        <ele>972.59997558594</ele>
        <time>2024-01-30T16:04:25.000Z</time>
      </trkpt>
      <trkpt lat="44.94762" lon="2.9584">
        <ele>973</ele>
        <time>2024-01-30T16:04:29.000Z</time>
      </trkpt>
      <trkpt lat="44.94772" lon="2.95834">
        <ele>973.20001220703</ele>
        <time>2024-01-30T16:04:31.000Z</time>
      </trkpt>
      <trkpt lat="44.94784" lon="2.95825">
        <ele>973.59997558594</ele>
        <time>2024-01-30T16:04:34.000Z</time>
      </trkpt>
      <trkpt lat="44.94802" lon="2.95814">
        <ele>974.40002441406</ele>
        <time>2024-01-30T16:04:38.000Z</time>
      </trkpt>
      <trkpt lat="44.94806" lon="2.95811">
        <ele>974.40002441406</ele>
        <time>2024-01-30T16:04:39.000Z</time>
      </trkpt>
      <trkpt lat="44.94808" lon="2.95807">
        <ele>974.40002441406</ele>
        <time>2024-01-30T16:04:40.000Z</time>
      </trkpt>
      <trkpt lat="44.94808" lon="2.95797">
        <ele>974.79998779297</ele>
        <time>2024-01-30T16:04:42.000Z</time>
      </trkpt>
      <trkpt lat="44.94798" lon="2.95784">
        <ele>975</ele>
        <time>2024-01-30T16:04:46.000Z</time>
      </trkpt>
      <trkpt lat="44.9479" lon="2.9578">
        <ele>975</ele>
        <time>2024-01-30T16:04:51.000Z</time>
      </trkpt>
      <trkpt lat="44.9479" lon="2.9578">
        <ele>975.20001220703</ele>
        <time>2024-01-30T16:04:57.000Z</time>
      </trkpt>
      <trkpt lat="44.9479" lon="2.9578">
        <ele>975.20001220703</ele>
        <time>2024-01-30T16:05:06.000Z</time>
      </trkpt>
      <trkpt lat="44.9479" lon="2.9578">
        <ele>975.40002441406</ele>
        <time>2024-01-30T16:05:10.000Z</time>
      </trkpt>
      <trkpt lat="44.9479" lon="2.9578">
        <ele>975.40002441406</ele>
        <time>2024-01-30T16:05:21.000Z</time>
      </trkpt>
      <trkpt lat="44.9479" lon="2.9578">
        <ele>975.59997558594</ele>
        <time>2024-01-30T16:05:29.000Z</time>
      </trkpt>
      <trkpt lat="44.9479" lon="2.9578">
        <ele>975.59997558594</ele>
        <time>2024-01-30T16:05:34.000Z</time>
      </trkpt>
      <trkpt lat="44.9479" lon="2.9578">
        <ele>975.79998779297</ele>
        <time>2024-01-30T16:05:52.000Z</time>
      </trkpt>
      <trkpt lat="44.94779" lon="2.95782">
        <ele>976.20001220703</ele>
        <time>2024-01-30T16:05:57.000Z</time>
      </trkpt>
      <trkpt lat="44.9477" lon="2.95784">
        <ele>976.40002441406</ele>
        <time>2024-01-30T16:05:59.000Z</time>
      </trkpt>
      <trkpt lat="44.94752" lon="2.95788">
        <ele>977.40002441406</ele>
        <time>2024-01-30T16:06:02.000Z</time>
      </trkpt>
      <trkpt lat="44.94745" lon="2.9579">
        <ele>977.79998779297</ele>
        <time>2024-01-30T16:06:03.000Z</time>
      </trkpt>
      <trkpt lat="44.94729" lon="2.95792">
        <ele>978.59997558594</ele>
        <time>2024-01-30T16:06:05.000Z</time>
      </trkpt>
      <trkpt lat="44.94721" lon="2.9579">
        <ele>979</ele>
        <time>2024-01-30T16:06:06.000Z</time>
      </trkpt>
      <trkpt lat="44.94711" lon="2.95785">
        <ele>979.40002441406</ele>
        <time>2024-01-30T16:06:07.000Z</time>
      </trkpt>
      <trkpt lat="44.94696" lon="2.95768">
        <ele>980.59997558594</ele>
        <time>2024-01-30T16:06:09.000Z</time>
      </trkpt>
      <trkpt lat="44.94681" lon="2.95742">
        <ele>982.20001220703</ele>
        <time>2024-01-30T16:06:11.000Z</time>
      </trkpt>
      <trkpt lat="44.94674" lon="2.95734">
        <ele>982.79998779297</ele>
        <time>2024-01-30T16:06:12.000Z</time>
      </trkpt>
      <trkpt lat="44.94666" lon="2.95726">
        <ele>983</ele>
        <time>2024-01-30T16:06:13.000Z</time>
      </trkpt>
      <trkpt lat="44.94655" lon="2.95721">
        <ele>983.59997558594</ele>
        <time>2024-01-30T16:06:14.000Z</time>
      </trkpt>
      <trkpt lat="44.94635" lon="2.95715">
        <ele>984.40002441406</ele>
        <time>2024-01-30T16:06:16.000Z</time>
      </trkpt>
      <trkpt lat="44.94627" lon="2.9571">
        <ele>984.79998779297</ele>
        <time>2024-01-30T16:06:17.000Z</time>
      </trkpt>
      <trkpt lat="44.94614" lon="2.95699">
        <ele>985.59997558594</ele>
        <time>2024-01-30T16:06:19.000Z</time>
      </trkpt>
      <trkpt lat="44.9461" lon="2.95691">
        <ele>986</ele>
        <time>2024-01-30T16:06:20.000Z</time>
      </trkpt>
      <trkpt lat="44.94607" lon="2.95682">
        <ele>986.59997558594</ele>
        <time>2024-01-30T16:06:21.000Z</time>
      </trkpt>
      <trkpt lat="44.94605" lon="2.95671">
        <ele>987</ele>
        <time>2024-01-30T16:06:22.000Z</time>
      </trkpt>
      <trkpt lat="44.94603" lon="2.95658">
        <ele>987.40002441406</ele>
        <time>2024-01-30T16:06:23.000Z</time>
      </trkpt>
      <trkpt lat="44.94595" lon="2.95618">
        <ele>989</ele>
        <time>2024-01-30T16:06:26.000Z</time>
      </trkpt>
      <trkpt lat="44.94598" lon="2.95593">
        <ele>989.79998779297</ele>
        <time>2024-01-30T16:06:28.000Z</time>
      </trkpt>
      <trkpt lat="44.94603" lon="2.95581">
        <ele>990.40002441406</ele>
        <time>2024-01-30T16:06:29.000Z</time>
      </trkpt>
      <trkpt lat="44.94609" lon="2.95571">
        <ele>991.20001220703</ele>
        <time>2024-01-30T16:06:30.000Z</time>
      </trkpt>
      <trkpt lat="44.94617" lon="2.95561">
        <ele>992.20001220703</ele>
        <time>2024-01-30T16:06:31.000Z</time>
      </trkpt>
      <trkpt lat="44.94626" lon="2.95551">
        <ele>992.59997558594</ele>
        <time>2024-01-30T16:06:32.000Z</time>
      </trkpt>
      <trkpt lat="44.94636" lon="2.9554">
        <ele>993.20001220703</ele>
        <time>2024-01-30T16:06:33.000Z</time>
      </trkpt>
      <trkpt lat="44.94667" lon="2.95505">
        <ele>994.79998779297</ele>
        <time>2024-01-30T16:06:36.000Z</time>
      </trkpt>
      <trkpt lat="44.94702" lon="2.95471">
        <ele>996.59997558594</ele>
        <time>2024-01-30T16:06:39.000Z</time>
      </trkpt>
      <trkpt lat="44.94714" lon="2.95462">
        <ele>997</ele>
        <time>2024-01-30T16:06:40.000Z</time>
      </trkpt>
      <trkpt lat="44.9474" lon="2.95442">
        <ele>998.20001220703</ele>
        <time>2024-01-30T16:06:42.000Z</time>
      </trkpt>
      <trkpt lat="44.94763" lon="2.95417">
        <ele>999</ele>
        <time>2024-01-30T16:06:44.000Z</time>
      </trkpt>
      <trkpt lat="44.94775" lon="2.95403">
        <ele>999.59997558594</ele>
        <time>2024-01-30T16:06:45.000Z</time>
      </trkpt>
      <trkpt lat="44.94797" lon="2.95377">
        <ele>1001.4000244141</ele>
        <time>2024-01-30T16:06:47.000Z</time>
      </trkpt>
      <trkpt lat="44.94818" lon="2.95353">
        <ele>1003</ele>
        <time>2024-01-30T16:06:49.000Z</time>
      </trkpt>
      <trkpt lat="44.94828" lon="2.95341">
        <ele>1004.4000244141</ele>
        <time>2024-01-30T16:06:50.000Z</time>
      </trkpt>
      <trkpt lat="44.94837" lon="2.95331">
        <ele>1005.200012207</ele>
        <time>2024-01-30T16:06:51.000Z</time>
      </trkpt>
      <trkpt lat="44.94845" lon="2.95321">
        <ele>1006.200012207</ele>
        <time>2024-01-30T16:06:52.000Z</time>
      </trkpt>
      <trkpt lat="44.94851" lon="2.95311">
        <ele>1006.5999755859</ele>
        <time>2024-01-30T16:06:53.000Z</time>
      </trkpt>
      <trkpt lat="44.94854" lon="2.95301">
        <ele>1007.200012207</ele>
        <time>2024-01-30T16:06:54.000Z</time>
      </trkpt>
      <trkpt lat="44.94855" lon="2.95291">
        <ele>1007.799987793</ele>
        <time>2024-01-30T16:06:55.000Z</time>
      </trkpt>
      <trkpt lat="44.94854" lon="2.9528">
        <ele>1008.799987793</ele>
        <time>2024-01-30T16:06:56.000Z</time>
      </trkpt>
      <trkpt lat="44.94851" lon="2.95268">
        <ele>1009.799987793</ele>
        <time>2024-01-30T16:06:57.000Z</time>
      </trkpt>
      <trkpt lat="44.94843" lon="2.95243">
        <ele>1011.5999755859</ele>
        <time>2024-01-30T16:06:59.000Z</time>
      </trkpt>
      <trkpt lat="44.94835" lon="2.95215">
        <ele>1013.5999755859</ele>
        <time>2024-01-30T16:07:01.000Z</time>
      </trkpt>
      <trkpt lat="44.94827" lon="2.95185">
        <ele>1014.799987793</ele>
        <time>2024-01-30T16:07:03.000Z</time>
      </trkpt>
      <trkpt lat="44.94819" lon="2.95158">
        <ele>1016.5999755859</ele>
        <time>2024-01-30T16:07:05.000Z</time>
      </trkpt>
      <trkpt lat="44.94812" lon="2.9513">
        <ele>1017.799987793</ele>
        <time>2024-01-30T16:07:07.000Z</time>
      </trkpt>
      <trkpt lat="44.94811" lon="2.95115">
        <ele>1018.200012207</ele>
        <time>2024-01-30T16:07:08.000Z</time>
      </trkpt>
      <trkpt lat="44.94811" lon="2.95102">
        <ele>1019</ele>
        <time>2024-01-30T16:07:09.000Z</time>
      </trkpt>
      <trkpt lat="44.94812" lon="2.95076">
        <ele>1019.799987793</ele>
        <time>2024-01-30T16:07:11.000Z</time>
      </trkpt>
      <trkpt lat="44.94814" lon="2.95064">
        <ele>1020</ele>
        <time>2024-01-30T16:07:12.000Z</time>
      </trkpt>
      <trkpt lat="44.94819" lon="2.95053">
        <ele>1020.200012207</ele>
        <time>2024-01-30T16:07:13.000Z</time>
      </trkpt>
      <trkpt lat="44.9483" lon="2.95031">
        <ele>1021.5999755859</ele>
        <time>2024-01-30T16:07:15.000Z</time>
      </trkpt>
      <trkpt lat="44.94836" lon="2.95021">
        <ele>1022.200012207</ele>
        <time>2024-01-30T16:07:16.000Z</time>
      </trkpt>
      <trkpt lat="44.94843" lon="2.9501">
        <ele>1023.4000244141</ele>
        <time>2024-01-30T16:07:17.000Z</time>
      </trkpt>
      <trkpt lat="44.9485" lon="2.95">
        <ele>1024.1999511719</ele>
        <time>2024-01-30T16:07:18.000Z</time>
      </trkpt>
      <trkpt lat="44.94858" lon="2.94991">
        <ele>1025.4000244141</ele>
        <time>2024-01-30T16:07:19.000Z</time>
      </trkpt>
      <trkpt lat="44.94867" lon="2.94983">
        <ele>1026.1999511719</ele>
        <time>2024-01-30T16:07:20.000Z</time>
      </trkpt>
      <trkpt lat="44.94877" lon="2.94975">
        <ele>1027.1999511719</ele>
        <time>2024-01-30T16:07:21.000Z</time>
      </trkpt>
      <trkpt lat="44.94897" lon="2.94962">
        <ele>1029</ele>
        <time>2024-01-30T16:07:23.000Z</time>
      </trkpt>
      <trkpt lat="44.94909" lon="2.94956">
        <ele>1030</ele>
        <time>2024-01-30T16:07:24.000Z</time>
      </trkpt>
      <trkpt lat="44.94946" lon="2.94935">
        <ele>1031.8000488281</ele>
        <time>2024-01-30T16:07:27.000Z</time>
      </trkpt>
      <trkpt lat="44.94959" lon="2.94928">
        <ele>1032.1999511719</ele>
        <time>2024-01-30T16:07:28.000Z</time>
      </trkpt>
      <trkpt lat="44.95013" lon="2.94906">
        <ele>1032.8000488281</ele>
        <time>2024-01-30T16:07:32.000Z</time>
      </trkpt>
      <trkpt lat="44.9504" lon="2.94899">
        <ele>1032.8000488281</ele>
        <time>2024-01-30T16:07:34.000Z</time>
      </trkpt>
      <trkpt lat="44.95069" lon="2.94895">
        <ele>1033</ele>
        <time>2024-01-30T16:07:36.000Z</time>
      </trkpt>
      <trkpt lat="44.95128" lon="2.94873">
        <ele>1034</ele>
        <time>2024-01-30T16:07:40.000Z</time>
      </trkpt>
      <trkpt lat="44.95191" lon="2.9484">
        <ele>1034.8000488281</ele>
        <time>2024-01-30T16:07:44.000Z</time>
      </trkpt>
      <trkpt lat="44.95207" lon="2.9483">
        <ele>1034.8000488281</ele>
        <time>2024-01-30T16:07:45.000Z</time>
      </trkpt>
      <trkpt lat="44.95224" lon="2.94821">
        <ele>1035.1999511719</ele>
        <time>2024-01-30T16:07:46.000Z</time>
      </trkpt>
      <trkpt lat="44.95292" lon="2.94784">
        <ele>1036.4000244141</ele>
        <time>2024-01-30T16:07:50.000Z</time>
      </trkpt>
      <trkpt lat="44.95309" lon="2.94775">
        <ele>1036.5999755859</ele>
        <time>2024-01-30T16:07:51.000Z</time>
      </trkpt>
      <trkpt lat="44.95361" lon="2.94748">
        <ele>1037</ele>
        <time>2024-01-30T16:07:54.000Z</time>
      </trkpt>
      <trkpt lat="44.95413" lon="2.9472">
        <ele>1037.1999511719</ele>
        <time>2024-01-30T16:07:57.000Z</time>
      </trkpt>
      <trkpt lat="44.95431" lon="2.9471">
        <ele>1037.1999511719</ele>
        <time>2024-01-30T16:07:58.000Z</time>
      </trkpt>
      <trkpt lat="44.95466" lon="2.94691">
        <ele>1037.1999511719</ele>
        <time>2024-01-30T16:08:00.000Z</time>
      </trkpt>
      <trkpt lat="44.95518" lon="2.94663">
        <ele>1037</ele>
        <time>2024-01-30T16:08:03.000Z</time>
      </trkpt>
      <trkpt lat="44.9557" lon="2.94635">
        <ele>1036.8000488281</ele>
        <time>2024-01-30T16:08:06.000Z</time>
      </trkpt>
      <trkpt lat="44.9562" lon="2.94607">
        <ele>1036.8000488281</ele>
        <time>2024-01-30T16:08:09.000Z</time>
      </trkpt>
      <trkpt lat="44.95637" lon="2.94598">
        <ele>1036.5999755859</ele>
        <time>2024-01-30T16:08:10.000Z</time>
      </trkpt>
      <trkpt lat="44.95704" lon="2.94562">
        <ele>1036.1999511719</ele>
        <time>2024-01-30T16:08:14.000Z</time>
      </trkpt>
      <trkpt lat="44.95755" lon="2.94534">
        <ele>1036</ele>
        <time>2024-01-30T16:08:17.000Z</time>
      </trkpt>
      <trkpt lat="44.95772" lon="2.94525">
        <ele>1036</ele>
        <time>2024-01-30T16:08:18.000Z</time>
      </trkpt>
      <trkpt lat="44.95822" lon="2.94497">
        <ele>1035.8000488281</ele>
        <time>2024-01-30T16:08:21.000Z</time>
      </trkpt>
      <trkpt lat="44.95873" lon="2.9447">
        <ele>1035.5999755859</ele>
        <time>2024-01-30T16:08:24.000Z</time>
      </trkpt>
      <trkpt lat="44.95908" lon="2.94456">
        <ele>1035.5999755859</ele>
        <time>2024-01-30T16:08:26.000Z</time>
      </trkpt>
      <trkpt lat="44.95962" lon="2.94436">
        <ele>1035.4000244141</ele>
        <time>2024-01-30T16:08:29.000Z</time>
      </trkpt>
      <trkpt lat="44.9598" lon="2.9443">
        <ele>1035.1999511719</ele>
        <time>2024-01-30T16:08:30.000Z</time>
      </trkpt>
      <trkpt lat="44.96032" lon="2.94409">
        <ele>1035.4000244141</ele>
        <time>2024-01-30T16:08:33.000Z</time>
      </trkpt>
      <trkpt lat="44.96084" lon="2.94378">
        <ele>1035.8000488281</ele>
        <time>2024-01-30T16:08:36.000Z</time>
      </trkpt>
      <trkpt lat="44.96101" lon="2.94366">
        <ele>1035.8000488281</ele>
        <time>2024-01-30T16:08:37.000Z</time>
      </trkpt>
      <trkpt lat="44.96152" lon="2.94328">
        <ele>1036</ele>
        <time>2024-01-30T16:08:40.000Z</time>
      </trkpt>
      <trkpt lat="44.96185" lon="2.94303">
        <ele>1036</ele>
        <time>2024-01-30T16:08:42.000Z</time>
      </trkpt>
      <trkpt lat="44.96235" lon="2.94266">
        <ele>1036.8000488281</ele>
        <time>2024-01-30T16:08:45.000Z</time>
      </trkpt>
      <trkpt lat="44.96286" lon="2.94228">
        <ele>1037.5999755859</ele>
        <time>2024-01-30T16:08:48.000Z</time>
      </trkpt>
      <trkpt lat="44.96302" lon="2.94215">
        <ele>1038</ele>
        <time>2024-01-30T16:08:49.000Z</time>
      </trkpt>
      <trkpt lat="44.96334" lon="2.94191">
        <ele>1038.1999511719</ele>
        <time>2024-01-30T16:08:51.000Z</time>
      </trkpt>
      <trkpt lat="44.9638" lon="2.94154">
        <ele>1039</ele>
        <time>2024-01-30T16:08:54.000Z</time>
      </trkpt>
      <trkpt lat="44.96409" lon="2.94131">
        <ele>1039.4000244141</ele>
        <time>2024-01-30T16:08:56.000Z</time>
      </trkpt>
      <trkpt lat="44.96454" lon="2.94099">
        <ele>1040.1999511719</ele>
        <time>2024-01-30T16:08:59.000Z</time>
      </trkpt>
      <trkpt lat="44.96483" lon="2.94077">
        <ele>1040.5999755859</ele>
        <time>2024-01-30T16:09:01.000Z</time>
      </trkpt>
      <trkpt lat="44.96535" lon="2.94024">
        <ele>1041.4000244141</ele>
        <time>2024-01-30T16:09:05.000Z</time>
      </trkpt>
      <trkpt lat="44.96582" lon="2.93956">
        <ele>1043</ele>
        <time>2024-01-30T16:09:09.000Z</time>
      </trkpt>
      <trkpt lat="44.96617" lon="2.93898">
        <ele>1043.1999511719</ele>
        <time>2024-01-30T16:09:12.000Z</time>
      </trkpt>
      <trkpt lat="44.96643" lon="2.93859">
        <ele>1043</ele>
        <time>2024-01-30T16:09:14.000Z</time>
      </trkpt>
      <trkpt lat="44.96681" lon="2.938">
        <ele>1043</ele>
        <time>2024-01-30T16:09:17.000Z</time>
      </trkpt>
      <trkpt lat="44.9672" lon="2.9374">
        <ele>1042.8000488281</ele>
        <time>2024-01-30T16:09:20.000Z</time>
      </trkpt>
      <trkpt lat="44.96732" lon="2.9372">
        <ele>1043</ele>
        <time>2024-01-30T16:09:21.000Z</time>
      </trkpt>
      <trkpt lat="44.9677" lon="2.93663">
        <ele>1043.1999511719</ele>
        <time>2024-01-30T16:09:24.000Z</time>
      </trkpt>
      <trkpt lat="44.96807" lon="2.93607">
        <ele>1043.1999511719</ele>
        <time>2024-01-30T16:09:27.000Z</time>
      </trkpt>
      <trkpt lat="44.96819" lon="2.93588">
        <ele>1043.4000244141</ele>
        <time>2024-01-30T16:09:28.000Z</time>
      </trkpt>
      <trkpt lat="44.96849" lon="2.93528">
        <ele>1043.5999755859</ele>
        <time>2024-01-30T16:09:31.000Z</time>
      </trkpt>
      <trkpt lat="44.96885" lon="2.93442">
        <ele>1043.8000488281</ele>
        <time>2024-01-30T16:09:35.000Z</time>
      </trkpt>
      <trkpt lat="44.96921" lon="2.93357">
        <ele>1043.4000244141</ele>
        <time>2024-01-30T16:09:39.000Z</time>
      </trkpt>
      <trkpt lat="44.9694" lon="2.93314">
        <ele>1043.1999511719</ele>
        <time>2024-01-30T16:09:41.000Z</time>
      </trkpt>
      <trkpt lat="44.96977" lon="2.93231">
        <ele>1043.5999755859</ele>
        <time>2024-01-30T16:09:45.000Z</time>
      </trkpt>
      <trkpt lat="44.96994" lon="2.9319">
        <ele>1044.4000244141</ele>
        <time>2024-01-30T16:09:47.000Z</time>
      </trkpt>
      <trkpt lat="44.9701" lon="2.93149">
        <ele>1044.8000488281</ele>
        <time>2024-01-30T16:09:49.000Z</time>
      </trkpt>
      <trkpt lat="44.97016" lon="2.93106">
        <ele>1045.8000488281</ele>
        <time>2024-01-30T16:09:51.000Z</time>
      </trkpt>
      <trkpt lat="44.97018" lon="2.93063">
        <ele>1047</ele>
        <time>2024-01-30T16:09:53.000Z</time>
      </trkpt>
      <trkpt lat="44.97023" lon="2.93021">
        <ele>1048.5999755859</ele>
        <time>2024-01-30T16:09:55.000Z</time>
      </trkpt>
      <trkpt lat="44.97035" lon="2.9298">
        <ele>1050</ele>
        <time>2024-01-30T16:09:57.000Z</time>
      </trkpt>
      <trkpt lat="44.97043" lon="2.92961">
        <ele>1050.4000244141</ele>
        <time>2024-01-30T16:09:58.000Z</time>
      </trkpt>
      <trkpt lat="44.97064" lon="2.92925">
        <ele>1051.5999755859</ele>
        <time>2024-01-30T16:10:00.000Z</time>
      </trkpt>
      <trkpt lat="44.97077" lon="2.92909">
        <ele>1052.1999511719</ele>
        <time>2024-01-30T16:10:01.000Z</time>
      </trkpt>
      <trkpt lat="44.9709" lon="2.92894">
        <ele>1052.8000488281</ele>
        <time>2024-01-30T16:10:02.000Z</time>
      </trkpt>
      <trkpt lat="44.97117" lon="2.92865">
        <ele>1054</ele>
        <time>2024-01-30T16:10:04.000Z</time>
      </trkpt>
      <trkpt lat="44.97131" lon="2.92851">
        <ele>1054.4000244141</ele>
        <time>2024-01-30T16:10:05.000Z</time>
      </trkpt>
      <trkpt lat="44.97173" lon="2.92809">
        <ele>1055</ele>
        <time>2024-01-30T16:10:08.000Z</time>
      </trkpt>
      <trkpt lat="44.97198" lon="2.9278">
        <ele>1055.1999511719</ele>
        <time>2024-01-30T16:10:10.000Z</time>
      </trkpt>
      <trkpt lat="44.97216" lon="2.92744">
        <ele>1055.4000244141</ele>
        <time>2024-01-30T16:10:12.000Z</time>
      </trkpt>
      <trkpt lat="44.97222" lon="2.92724">
        <ele>1055.8000488281</ele>
        <time>2024-01-30T16:10:13.000Z</time>
      </trkpt>
      <trkpt lat="44.97229" lon="2.92703">
        <ele>1056</ele>
        <time>2024-01-30T16:10:14.000Z</time>
      </trkpt>
      <trkpt lat="44.97255" lon="2.92618">
        <ele>1057</ele>
        <time>2024-01-30T16:10:18.000Z</time>
      </trkpt>
      <trkpt lat="44.97263" lon="2.92597">
        <ele>1057.5999755859</ele>
        <time>2024-01-30T16:10:19.000Z</time>
      </trkpt>
      <trkpt lat="44.9727" lon="2.92576">
        <ele>1058</ele>
        <time>2024-01-30T16:10:20.000Z</time>
      </trkpt>
      <trkpt lat="44.97301" lon="2.92501">
        <ele>1059</ele>
        <time>2024-01-30T16:10:24.000Z</time>
      </trkpt>
      <trkpt lat="44.97311" lon="2.92482">
        <ele>1059.1999511719</ele>
        <time>2024-01-30T16:10:25.000Z</time>
      </trkpt>
      <trkpt lat="44.97353" lon="2.92408">
        <ele>1059.4000244141</ele>
        <time>2024-01-30T16:10:29.000Z</time>
      </trkpt>
      <trkpt lat="44.97396" lon="2.92335">
        <ele>1058.8000488281</ele>
        <time>2024-01-30T16:10:33.000Z</time>
      </trkpt>
      <trkpt lat="44.9743" lon="2.92284">
        <ele>1058.5999755859</ele>
        <time>2024-01-30T16:10:36.000Z</time>
      </trkpt>
      <trkpt lat="44.97472" lon="2.92241">
        <ele>1058</ele>
        <time>2024-01-30T16:10:39.000Z</time>
      </trkpt>
      <trkpt lat="44.9752" lon="2.92201">
        <ele>1057.4000244141</ele>
        <time>2024-01-30T16:10:42.000Z</time>
      </trkpt>
      <trkpt lat="44.97536" lon="2.92188">
        <ele>1056.8000488281</ele>
        <time>2024-01-30T16:10:43.000Z</time>
      </trkpt>
      <trkpt lat="44.97552" lon="2.92174">
        <ele>1056</ele>
        <time>2024-01-30T16:10:44.000Z</time>
      </trkpt>
      <trkpt lat="44.97569" lon="2.92161">
        <ele>1055.5999755859</ele>
        <time>2024-01-30T16:10:45.000Z</time>
      </trkpt>
      <trkpt lat="44.976" lon="2.92133">
        <ele>1054.5999755859</ele>
        <time>2024-01-30T16:10:47.000Z</time>
      </trkpt>
      <trkpt lat="44.9763" lon="2.92108">
        <ele>1053.1999511719</ele>
        <time>2024-01-30T16:10:49.000Z</time>
      </trkpt>
      <trkpt lat="44.97644" lon="2.92097">
        <ele>1052.4000244141</ele>
        <time>2024-01-30T16:10:50.000Z</time>
      </trkpt>
      <trkpt lat="44.97658" lon="2.92086">
        <ele>1051.8000488281</ele>
        <time>2024-01-30T16:10:51.000Z</time>
      </trkpt>
      <trkpt lat="44.97678" lon="2.92071">
        <ele>1050.1999511719</ele>
        <time>2024-01-30T16:10:53.000Z</time>
      </trkpt>
      <trkpt lat="44.97701" lon="2.92052">
        <ele>1049.1999511719</ele>
        <time>2024-01-30T16:10:56.000Z</time>
      </trkpt>
      <trkpt lat="44.97737" lon="2.92017">
        <ele>1049.5999755859</ele>
        <time>2024-01-30T16:11:00.000Z</time>
      </trkpt>
      <trkpt lat="44.97786" lon="2.91968">
        <ele>1050</ele>
        <time>2024-01-30T16:11:04.000Z</time>
      </trkpt>
      <trkpt lat="44.97841" lon="2.91904">
        <ele>1050.5999755859</ele>
        <time>2024-01-30T16:11:08.000Z</time>
      </trkpt>
      <trkpt lat="44.97884" lon="2.91854">
        <ele>1050.1999511719</ele>
        <time>2024-01-30T16:11:11.000Z</time>
      </trkpt>
      <trkpt lat="44.97927" lon="2.91804">
        <ele>1049.8000488281</ele>
        <time>2024-01-30T16:11:14.000Z</time>
      </trkpt>
      <trkpt lat="44.97941" lon="2.91787">
        <ele>1049.8000488281</ele>
        <time>2024-01-30T16:11:15.000Z</time>
      </trkpt>
      <trkpt lat="44.97986" lon="2.91736">
        <ele>1049.4000244141</ele>
        <time>2024-01-30T16:11:18.000Z</time>
      </trkpt>
      <trkpt lat="44.98015" lon="2.91704">
        <ele>1049</ele>
        <time>2024-01-30T16:11:20.000Z</time>
      </trkpt>
      <trkpt lat="44.9804" lon="2.91674">
        <ele>1048.5999755859</ele>
        <time>2024-01-30T16:11:22.000Z</time>
      </trkpt>
      <trkpt lat="44.98051" lon="2.91662">
        <ele>1048</ele>
        <time>2024-01-30T16:11:23.000Z</time>
      </trkpt>
      <trkpt lat="44.9807" lon="2.9164">
        <ele>1047</ele>
        <time>2024-01-30T16:11:25.000Z</time>
      </trkpt>
      <trkpt lat="44.98078" lon="2.91632">
        <ele>1046.5999755859</ele>
        <time>2024-01-30T16:11:26.000Z</time>
      </trkpt>
      <trkpt lat="44.9809" lon="2.91618">
        <ele>1046.1999511719</ele>
        <time>2024-01-30T16:11:28.000Z</time>
      </trkpt>
      <trkpt lat="44.98098" lon="2.91608">
        <ele>1046</ele>
        <time>2024-01-30T16:11:30.000Z</time>
      </trkpt>
      <trkpt lat="44.98102" lon="2.91605">
        <ele>1045.8000488281</ele>
        <time>2024-01-30T16:11:31.000Z</time>
      </trkpt>
      <trkpt lat="44.98108" lon="2.916">
        <ele>1045.5999755859</ele>
        <time>2024-01-30T16:11:34.000Z</time>
      </trkpt>
      <trkpt lat="44.98109" lon="2.91597">
        <ele>1045.5999755859</ele>
        <time>2024-01-30T16:11:36.000Z</time>
      </trkpt>
      <trkpt lat="44.9811" lon="2.91596">
        <ele>1045.5999755859</ele>
        <time>2024-01-30T16:11:39.000Z</time>
      </trkpt>
      <trkpt lat="44.9811" lon="2.91596">
        <ele>1045.8000488281</ele>
        <time>2024-01-30T16:12:00.000Z</time>
      </trkpt>
      <trkpt lat="44.9811" lon="2.91596">
        <ele>1045.8000488281</ele>
        <time>2024-01-30T16:12:15.000Z</time>
      </trkpt>
      <trkpt lat="44.9811" lon="2.91596">
        <ele>1045.8000488281</ele>
        <time>2024-01-30T16:12:33.000Z</time>
      </trkpt>
      <trkpt lat="44.9811" lon="2.91596">
        <ele>1045.8000488281</ele>
        <time>2024-01-30T16:12:45.000Z</time>
      </trkpt>
      <trkpt lat="44.9811" lon="2.91596">
        <ele>1045.8000488281</ele>
        <time>2024-01-30T16:13:05.000Z</time>
      </trkpt>
      <trkpt lat="44.9811" lon="2.91596">
        <ele>1045.8000488281</ele>
        <time>2024-01-30T16:13:17.000Z</time>
      </trkpt>
      <trkpt lat="44.9811" lon="2.91596">
        <ele>1045.8000488281</ele>
        <time>2024-01-30T16:13:33.000Z</time>
      </trkpt>
      <trkpt lat="44.9811" lon="2.91596">
        <ele>1045.8000488281</ele>
        <time>2024-01-30T16:13:47.000Z</time>
      </trkpt>
      <trkpt lat="44.9811" lon="2.91596">
        <ele>1045.8000488281</ele>
        <time>2024-01-30T16:14:05.000Z</time>
      </trkpt>
      <trkpt lat="44.9811" lon="2.91596">
        <ele>1045.8000488281</ele>
        <time>2024-01-30T16:14:19.000Z</time>
      </trkpt>
      <trkpt lat="44.98111" lon="2.91595">
        <ele>1045.8000488281</ele>
        <time>2024-01-30T16:14:22.000Z</time>
      </trkpt>
      <trkpt lat="44.98114" lon="2.9159">
        <ele>1045.5999755859</ele>
        <time>2024-01-30T16:14:24.000Z</time>
      </trkpt>
      <trkpt lat="44.98115" lon="2.91585">
        <ele>1045.5999755859</ele>
        <time>2024-01-30T16:14:25.000Z</time>
      </trkpt>
      <trkpt lat="44.98115" lon="2.91573">
        <ele>1045.5999755859</ele>
        <time>2024-01-30T16:14:27.000Z</time>
      </trkpt>
      <trkpt lat="44.9811" lon="2.91542">
        <ele>1046.4000244141</ele>
        <time>2024-01-30T16:14:30.000Z</time>
      </trkpt>
      <trkpt lat="44.98109" lon="2.9153">
        <ele>1046.4000244141</ele>
        <time>2024-01-30T16:14:31.000Z</time>
      </trkpt>
      <trkpt lat="44.98109" lon="2.915">
        <ele>1046.5999755859</ele>
        <time>2024-01-30T16:14:33.000Z</time>
      </trkpt>
      <trkpt lat="44.98114" lon="2.91429">
        <ele>1047.4000244141</ele>
        <time>2024-01-30T16:14:37.000Z</time>
      </trkpt>
      <trkpt lat="44.9812" lon="2.91391">
        <ele>1047.8000488281</ele>
        <time>2024-01-30T16:14:39.000Z</time>
      </trkpt>
      <trkpt lat="44.98127" lon="2.91352">
        <ele>1048.4000244141</ele>
        <time>2024-01-30T16:14:41.000Z</time>
      </trkpt>
      <trkpt lat="44.98145" lon="2.91273">
        <ele>1048.8000488281</ele>
        <time>2024-01-30T16:14:45.000Z</time>
      </trkpt>
      <trkpt lat="44.98151" lon="2.91253">
        <ele>1048.5999755859</ele>
        <time>2024-01-30T16:14:46.000Z</time>
      </trkpt>
      <trkpt lat="44.98182" lon="2.9117">
        <ele>1047</ele>
        <time>2024-01-30T16:14:50.000Z</time>
      </trkpt>
      <trkpt lat="44.9819" lon="2.91148">
        <ele>1046.4000244141</ele>
        <time>2024-01-30T16:14:51.000Z</time>
      </trkpt>
      <trkpt lat="44.98207" lon="2.91103">
        <ele>1045</ele>
        <time>2024-01-30T16:14:53.000Z</time>
      </trkpt>
      <trkpt lat="44.98215" lon="2.9108">
        <ele>1044</ele>
        <time>2024-01-30T16:14:54.000Z</time>
      </trkpt>
      <trkpt lat="44.9824" lon="2.91011">
        <ele>1042.4000244141</ele>
        <time>2024-01-30T16:14:57.000Z</time>
      </trkpt>
      <trkpt lat="44.98248" lon="2.90989">
        <ele>1041.1999511719</ele>
        <time>2024-01-30T16:14:58.000Z</time>
      </trkpt>
      <trkpt lat="44.98262" lon="2.90951">
        <ele>1039.1999511719</ele>
        <time>2024-01-30T16:15:00.000Z</time>
      </trkpt>
      <trkpt lat="44.98267" lon="2.90936">
        <ele>1037.8000488281</ele>
        <time>2024-01-30T16:15:01.000Z</time>
      </trkpt>
      <trkpt lat="44.98272" lon="2.90923">
        <ele>1036.4000244141</ele>
        <time>2024-01-30T16:15:02.000Z</time>
      </trkpt>
      <trkpt lat="44.98277" lon="2.90912">
        <ele>1035.4000244141</ele>
        <time>2024-01-30T16:15:03.000Z</time>
      </trkpt>
      <trkpt lat="44.98283" lon="2.90905">
        <ele>1035.1999511719</ele>
        <time>2024-01-30T16:15:04.000Z</time>
      </trkpt>
      <trkpt lat="44.9829" lon="2.90901">
        <ele>1035.1999511719</ele>
        <time>2024-01-30T16:15:05.000Z</time>
      </trkpt>
      <trkpt lat="44.98307" lon="2.90899">
        <ele>1035.1999511719</ele>
        <time>2024-01-30T16:15:07.000Z</time>
      </trkpt>
      <trkpt lat="44.98315" lon="2.90897">
        <ele>1035.1999511719</ele>
        <time>2024-01-30T16:15:08.000Z</time>
      </trkpt>
      <trkpt lat="44.98328" lon="2.90888">
        <ele>1036.1999511719</ele>
        <time>2024-01-30T16:15:10.000Z</time>
      </trkpt>
      <trkpt lat="44.98334" lon="2.9088">
        <ele>1036.5999755859</ele>
        <time>2024-01-30T16:15:11.000Z</time>
      </trkpt>
      <trkpt lat="44.98348" lon="2.90861">
        <ele>1037.8000488281</ele>
        <time>2024-01-30T16:15:13.000Z</time>
      </trkpt>
      <trkpt lat="44.98356" lon="2.90849">
        <ele>1038</ele>
        <time>2024-01-30T16:15:14.000Z</time>
      </trkpt>
      <trkpt lat="44.98373" lon="2.90824">
        <ele>1039.1999511719</ele>
        <time>2024-01-30T16:15:16.000Z</time>
      </trkpt>
      <trkpt lat="44.98391" lon="2.90798">
        <ele>1040.1999511719</ele>
        <time>2024-01-30T16:15:18.000Z</time>
      </trkpt>
      <trkpt lat="44.98424" lon="2.90759">
        <ele>1041.4000244141</ele>
        <time>2024-01-30T16:15:21.000Z</time>
      </trkpt>
      <trkpt lat="44.98466" lon="2.90732">
        <ele>1042.4000244141</ele>
        <time>2024-01-30T16:15:24.000Z</time>
      </trkpt>
      <trkpt lat="44.98481" lon="2.90725">
        <ele>1043.4000244141</ele>
        <time>2024-01-30T16:15:25.000Z</time>
      </trkpt>
      <trkpt lat="44.98528" lon="2.9071">
        <ele>1044.4000244141</ele>
        <time>2024-01-30T16:15:28.000Z</time>
      </trkpt>
      <trkpt lat="44.98591" lon="2.90691">
        <ele>1045.5999755859</ele>
        <time>2024-01-30T16:15:32.000Z</time>
      </trkpt>
      <trkpt lat="44.98636" lon="2.90676">
        <ele>1046.4000244141</ele>
        <time>2024-01-30T16:15:35.000Z</time>
      </trkpt>
      <trkpt lat="44.9865" lon="2.90672">
        <ele>1046.8000488281</ele>
        <time>2024-01-30T16:15:36.000Z</time>
      </trkpt>
      <trkpt lat="44.98691" lon="2.90651">
        <ele>1048.1999511719</ele>
        <time>2024-01-30T16:15:39.000Z</time>
      </trkpt>
      <trkpt lat="44.98731" lon="2.90615">
        <ele>1049.4000244141</ele>
        <time>2024-01-30T16:15:42.000Z</time>
      </trkpt>
      <trkpt lat="44.98744" lon="2.90601">
        <ele>1049.8000488281</ele>
        <time>2024-01-30T16:15:43.000Z</time>
      </trkpt>
      <trkpt lat="44.9877" lon="2.90575">
        <ele>1050.8000488281</ele>
        <time>2024-01-30T16:15:45.000Z</time>
      </trkpt>
      <trkpt lat="44.98798" lon="2.90546">
        <ele>1052</ele>
        <time>2024-01-30T16:15:47.000Z</time>
      </trkpt>
      <trkpt lat="44.98812" lon="2.90532">
        <ele>1052.5999755859</ele>
        <time>2024-01-30T16:15:48.000Z</time>
      </trkpt>
      <trkpt lat="44.98826" lon="2.90517">
        <ele>1053</ele>
        <time>2024-01-30T16:15:49.000Z</time>
      </trkpt>
      <trkpt lat="44.98855" lon="2.90488">
        <ele>1054.1999511719</ele>
        <time>2024-01-30T16:15:51.000Z</time>
      </trkpt>
      <trkpt lat="44.98917" lon="2.90431">
        <ele>1055.8000488281</ele>
        <time>2024-01-30T16:15:55.000Z</time>
      </trkpt>
      <trkpt lat="44.98961" lon="2.90406">
        <ele>1057</ele>
        <time>2024-01-30T16:15:58.000Z</time>
      </trkpt>
      <trkpt lat="44.98977" lon="2.904">
        <ele>1057.4000244141</ele>
        <time>2024-01-30T16:15:59.000Z</time>
      </trkpt>
      <trkpt lat="44.98992" lon="2.90396">
        <ele>1058</ele>
        <time>2024-01-30T16:16:00.000Z</time>
      </trkpt>
      <trkpt lat="44.99025" lon="2.90389">
        <ele>1059</ele>
        <time>2024-01-30T16:16:02.000Z</time>
      </trkpt>
      <trkpt lat="44.99058" lon="2.90381">
        <ele>1060.4000244141</ele>
        <time>2024-01-30T16:16:04.000Z</time>
      </trkpt>
      <trkpt lat="44.99074" lon="2.90376">
        <ele>1060.8000488281</ele>
        <time>2024-01-30T16:16:05.000Z</time>
      </trkpt>
      <trkpt lat="44.9909" lon="2.90371">
        <ele>1061.4000244141</ele>
        <time>2024-01-30T16:16:06.000Z</time>
      </trkpt>
      <trkpt lat="44.99138" lon="2.90358">
        <ele>1063</ele>
        <time>2024-01-30T16:16:09.000Z</time>
      </trkpt>
      <trkpt lat="44.9915" lon="2.90354">
        <ele>1063.4000244141</ele>
        <time>2024-01-30T16:16:10.000Z</time>
      </trkpt>
      <trkpt lat="44.99179" lon="2.90347">
        <ele>1064.4000244141</ele>
        <time>2024-01-30T16:16:12.000Z</time>
      </trkpt>
      <trkpt lat="44.99222" lon="2.90337">
        <ele>1066.1999511719</ele>
        <time>2024-01-30T16:16:15.000Z</time>
      </trkpt>
      <trkpt lat="44.99249" lon="2.90329">
        <ele>1067</ele>
        <time>2024-01-30T16:16:17.000Z</time>
      </trkpt>
      <trkpt lat="44.99263" lon="2.90326">
        <ele>1067.5999755859</ele>
        <time>2024-01-30T16:16:18.000Z</time>
      </trkpt>
      <trkpt lat="44.9929" lon="2.90318">
        <ele>1068.8000488281</ele>
        <time>2024-01-30T16:16:20.000Z</time>
      </trkpt>
      <trkpt lat="44.99317" lon="2.90311">
        <ele>1069.8000488281</ele>
        <time>2024-01-30T16:16:22.000Z</time>
      </trkpt>
      <trkpt lat="44.9933" lon="2.90308">
        <ele>1070.1999511719</ele>
        <time>2024-01-30T16:16:23.000Z</time>
      </trkpt>
      <trkpt lat="44.99353" lon="2.90302">
        <ele>1071.1999511719</ele>
        <time>2024-01-30T16:16:25.000Z</time>
      </trkpt>
      <trkpt lat="44.99389" lon="2.90297">
        <ele>1072.4000244141</ele>
        <time>2024-01-30T16:16:28.000Z</time>
      </trkpt>
      <trkpt lat="44.99401" lon="2.90297">
        <ele>1073.1999511719</ele>
        <time>2024-01-30T16:16:29.000Z</time>
      </trkpt>
      <trkpt lat="44.99412" lon="2.90299">
        <ele>1073.5999755859</ele>
        <time>2024-01-30T16:16:30.000Z</time>
      </trkpt>
      <trkpt lat="44.99425" lon="2.90303">
        <ele>1073.5999755859</ele>
        <time>2024-01-30T16:16:31.000Z</time>
      </trkpt>
      <trkpt lat="44.99462" lon="2.90313">
        <ele>1075.4000244141</ele>
        <time>2024-01-30T16:16:34.000Z</time>
      </trkpt>
      <trkpt lat="44.99475" lon="2.90313">
        <ele>1075.8000488281</ele>
        <time>2024-01-30T16:16:35.000Z</time>
      </trkpt>
      <trkpt lat="44.99501" lon="2.90307">
        <ele>1077</ele>
        <time>2024-01-30T16:16:37.000Z</time>
      </trkpt>
      <trkpt lat="44.99514" lon="2.903">
        <ele>1077.1999511719</ele>
        <time>2024-01-30T16:16:38.000Z</time>
      </trkpt>
      <trkpt lat="44.99554" lon="2.90277">
        <ele>1078.4000244141</ele>
        <time>2024-01-30T16:16:41.000Z</time>
      </trkpt>
      <trkpt lat="44.99595" lon="2.90254">
        <ele>1079.4000244141</ele>
        <time>2024-01-30T16:16:44.000Z</time>
      </trkpt>
      <trkpt lat="44.99608" lon="2.90248">
        <ele>1079.5999755859</ele>
        <time>2024-01-30T16:16:45.000Z</time>
      </trkpt>
      <trkpt lat="44.99637" lon="2.90243">
        <ele>1080.5999755859</ele>
        <time>2024-01-30T16:16:47.000Z</time>
      </trkpt>
      <trkpt lat="44.99667" lon="2.90247">
        <ele>1081.5999755859</ele>
        <time>2024-01-30T16:16:49.000Z</time>
      </trkpt>
      <trkpt lat="44.99682" lon="2.90251">
        <ele>1082</ele>
        <time>2024-01-30T16:16:50.000Z</time>
      </trkpt>
      <trkpt lat="44.9973" lon="2.90265">
        <ele>1083</ele>
        <time>2024-01-30T16:16:53.000Z</time>
      </trkpt>
      <trkpt lat="44.99778" lon="2.90278">
        <ele>1084.1999511719</ele>
        <time>2024-01-30T16:16:56.000Z</time>
      </trkpt>
      <trkpt lat="44.9981" lon="2.90291">
        <ele>1085.1999511719</ele>
        <time>2024-01-30T16:16:58.000Z</time>
      </trkpt>
      <trkpt lat="44.99841" lon="2.90309">
        <ele>1086</ele>
        <time>2024-01-30T16:17:00.000Z</time>
      </trkpt>
      <trkpt lat="44.99872" lon="2.90333">
        <ele>1086.4000244141</ele>
        <time>2024-01-30T16:17:02.000Z</time>
      </trkpt>
      <trkpt lat="44.99901" lon="2.90356">
        <ele>1087.4000244141</ele>
        <time>2024-01-30T16:17:04.000Z</time>
      </trkpt>
      <trkpt lat="44.99942" lon="2.9039">
        <ele>1088.4000244141</ele>
        <time>2024-01-30T16:17:07.000Z</time>
      </trkpt>
      <trkpt lat="44.99956" lon="2.90399">
        <ele>1088.5999755859</ele>
        <time>2024-01-30T16:17:08.000Z</time>
      </trkpt>
      <trkpt lat="44.99993" lon="2.90422">
        <ele>1089.1999511719</ele>
        <time>2024-01-30T16:17:11.000Z</time>
      </trkpt>
      <trkpt lat="45.00006" lon="2.90426">
        <ele>1089.5999755859</ele>
        <time>2024-01-30T16:17:12.000Z</time>
      </trkpt>
      <trkpt lat="45.00019" lon="2.90428">
        <ele>1090</ele>
        <time>2024-01-30T16:17:13.000Z</time>
      </trkpt>
      <trkpt lat="45.00032" lon="2.90429">
        <ele>1090.4000244141</ele>
        <time>2024-01-30T16:17:14.000Z</time>
      </trkpt>
      <trkpt lat="45.00047" lon="2.90427">
        <ele>1090.8000488281</ele>
        <time>2024-01-30T16:17:15.000Z</time>
      </trkpt>
      <trkpt lat="45.00078" lon="2.90422">
        <ele>1092</ele>
        <time>2024-01-30T16:17:17.000Z</time>
      </trkpt>
      <trkpt lat="45.00145" lon="2.90412">
        <ele>1093.1999511719</ele>
        <time>2024-01-30T16:17:21.000Z</time>
      </trkpt>
      <trkpt lat="45.00162" lon="2.90411">
        <ele>1093.4000244141</ele>
        <time>2024-01-30T16:17:22.000Z</time>
      </trkpt>
      <trkpt lat="45.00223" lon="2.90416">
        <ele>1093.8000488281</ele>
        <time>2024-01-30T16:17:26.000Z</time>
      </trkpt>
      <trkpt lat="45.00279" lon="2.90439">
        <ele>1094.4000244141</ele>
        <time>2024-01-30T16:17:30.000Z</time>
      </trkpt>
      <trkpt lat="45.00332" lon="2.90473">
        <ele>1095.1999511719</ele>
        <time>2024-01-30T16:17:34.000Z</time>
      </trkpt>
      <trkpt lat="45.00357" lon="2.9049">
        <ele>1095.5999755859</ele>
        <time>2024-01-30T16:17:36.000Z</time>
      </trkpt>
      <trkpt lat="45.0037" lon="2.90498">
        <ele>1095.5999755859</ele>
        <time>2024-01-30T16:17:37.000Z</time>
      </trkpt>
      <trkpt lat="45.00414" lon="2.90529">
        <ele>1095.5999755859</ele>
        <time>2024-01-30T16:17:41.000Z</time>
      </trkpt>
      <trkpt lat="45.00445" lon="2.90549">
        <ele>1095.4000244141</ele>
        <time>2024-01-30T16:17:45.000Z</time>
      </trkpt>
      <trkpt lat="45.00455" lon="2.90554">
        <ele>1095</ele>
        <time>2024-01-30T16:17:47.000Z</time>
      </trkpt>
      <trkpt lat="45.00458" lon="2.90555">
        <ele>1095</ele>
        <time>2024-01-30T16:17:48.000Z</time>
      </trkpt>
      <trkpt lat="45.00465" lon="2.90553">
        <ele>1095</ele>
        <time>2024-01-30T16:17:50.000Z</time>
      </trkpt>
      <trkpt lat="45.00469" lon="2.90549">
        <ele>1095.1999511719</ele>
        <time>2024-01-30T16:17:51.000Z</time>
      </trkpt>
      <trkpt lat="45.00477" lon="2.90539">
        <ele>1095.8000488281</ele>
        <time>2024-01-30T16:17:53.000Z</time>
      </trkpt>
      <trkpt lat="45.00483" lon="2.90535">
        <ele>1096.4000244141</ele>
        <time>2024-01-30T16:17:54.000Z</time>
      </trkpt>
      <trkpt lat="45.0049" lon="2.90531">
        <ele>1096.8000488281</ele>
        <time>2024-01-30T16:17:55.000Z</time>
      </trkpt>
      <trkpt lat="45.00513" lon="2.90523">
        <ele>1098.4000244141</ele>
        <time>2024-01-30T16:17:58.000Z</time>
      </trkpt>
      <trkpt lat="45.00532" lon="2.90519">
        <ele>1099.5999755859</ele>
        <time>2024-01-30T16:18:00.000Z</time>
      </trkpt>
      <trkpt lat="45.00552" lon="2.90516">
        <ele>1100.8000488281</ele>
        <time>2024-01-30T16:18:02.000Z</time>
      </trkpt>
      <trkpt lat="45.00572" lon="2.90514">
        <ele>1102.4000244141</ele>
        <time>2024-01-30T16:18:04.000Z</time>
      </trkpt>
      <trkpt lat="45.00602" lon="2.90507">
        <ele>1104</ele>
        <time>2024-01-30T16:18:07.000Z</time>
      </trkpt>
      <trkpt lat="45.00621" lon="2.90502">
        <ele>1105.1999511719</ele>
        <time>2024-01-30T16:18:09.000Z</time>
      </trkpt>
      <trkpt lat="45.00638" lon="2.905">
        <ele>1106.1999511719</ele>
        <time>2024-01-30T16:18:11.000Z</time>
      </trkpt>
      <trkpt lat="45.00646" lon="2.90501">
        <ele>1107</ele>
        <time>2024-01-30T16:18:12.000Z</time>
      </trkpt>
      <trkpt lat="45.0066" lon="2.90505">
        <ele>1107.8000488281</ele>
        <time>2024-01-30T16:18:14.000Z</time>
      </trkpt>
      <trkpt lat="45.00666" lon="2.90508">
        <ele>1108.1999511719</ele>
        <time>2024-01-30T16:18:15.000Z</time>
      </trkpt>
      <trkpt lat="45.00672" lon="2.90511">
        <ele>1108.5999755859</ele>
        <time>2024-01-30T16:18:16.000Z</time>
      </trkpt>
      <trkpt lat="45.00702" lon="2.90523">
        <ele>1109.1999511719</ele>
        <time>2024-01-30T16:18:21.000Z</time>
      </trkpt>
      <trkpt lat="45.00709" lon="2.90524">
        <ele>1109.4000244141</ele>
        <time>2024-01-30T16:18:22.000Z</time>
      </trkpt>
      <trkpt lat="45.00736" lon="2.90524">
        <ele>1109.5999755859</ele>
        <time>2024-01-30T16:18:25.000Z</time>
      </trkpt>
      <trkpt lat="45.00781" lon="2.90521">
        <ele>1109.4000244141</ele>
        <time>2024-01-30T16:18:29.000Z</time>
      </trkpt>
      <trkpt lat="45.00847" lon="2.90514">
        <ele>1108.8000488281</ele>
        <time>2024-01-30T16:18:34.000Z</time>
      </trkpt>
      <trkpt lat="45.00873" lon="2.90509">
        <ele>1107.8000488281</ele>
        <time>2024-01-30T16:18:36.000Z</time>
      </trkpt>
      <trkpt lat="45.00898" lon="2.90507">
        <ele>1107.5999755859</ele>
        <time>2024-01-30T16:18:38.000Z</time>
      </trkpt>
      <trkpt lat="45.00911" lon="2.9051">
        <ele>1107.4000244141</ele>
        <time>2024-01-30T16:18:39.000Z</time>
      </trkpt>
      <trkpt lat="45.00922" lon="2.90515">
        <ele>1107.1999511719</ele>
        <time>2024-01-30T16:18:40.000Z</time>
      </trkpt>
      <trkpt lat="45.00932" lon="2.90524">
        <ele>1107.1999511719</ele>
        <time>2024-01-30T16:18:41.000Z</time>
      </trkpt>
      <trkpt lat="45.00941" lon="2.90536">
        <ele>1107.1999511719</ele>
        <time>2024-01-30T16:18:42.000Z</time>
      </trkpt>
      <trkpt lat="45.00948" lon="2.90551">
        <ele>1107.4000244141</ele>
        <time>2024-01-30T16:18:43.000Z</time>
      </trkpt>
      <trkpt lat="45.00953" lon="2.90568">
        <ele>1107.4000244141</ele>
        <time>2024-01-30T16:18:44.000Z</time>
      </trkpt>
      <trkpt lat="45.0096" lon="2.90606">
        <ele>1107.5999755859</ele>
        <time>2024-01-30T16:18:46.000Z</time>
      </trkpt>
      <trkpt lat="45.00974" lon="2.90686">
        <ele>1108.4000244141</ele>
        <time>2024-01-30T16:18:50.000Z</time>
      </trkpt>
      <trkpt lat="45.00977" lon="2.90707">
        <ele>1108.5999755859</ele>
        <time>2024-01-30T16:18:51.000Z</time>
      </trkpt>
      <trkpt lat="45.00985" lon="2.90746">
        <ele>1109</ele>
        <time>2024-01-30T16:18:53.000Z</time>
      </trkpt>
      <trkpt lat="45.00997" lon="2.90781">
        <ele>1109.4000244141</ele>
        <time>2024-01-30T16:18:55.000Z</time>
      </trkpt>
      <trkpt lat="45.01015" lon="2.90812">
        <ele>1110</ele>
        <time>2024-01-30T16:18:57.000Z</time>
      </trkpt>
      <trkpt lat="45.01025" lon="2.90826">
        <ele>1110</ele>
        <time>2024-01-30T16:18:58.000Z</time>
      </trkpt>
      <trkpt lat="45.01074" lon="2.90871">
        <ele>1110.4000244141</ele>
        <time>2024-01-30T16:19:02.000Z</time>
      </trkpt>
      <trkpt lat="45.01102" lon="2.90883">
        <ele>1110.1999511719</ele>
        <time>2024-01-30T16:19:04.000Z</time>
      </trkpt>
      <trkpt lat="45.01116" lon="2.90886">
        <ele>1110</ele>
        <time>2024-01-30T16:19:05.000Z</time>
      </trkpt>
      <trkpt lat="45.01131" lon="2.90886">
        <ele>1109.4000244141</ele>
        <time>2024-01-30T16:19:06.000Z</time>
      </trkpt>
      <trkpt lat="45.01146" lon="2.90885">
        <ele>1109</ele>
        <time>2024-01-30T16:19:07.000Z</time>
      </trkpt>
      <trkpt lat="45.01161" lon="2.90884">
        <ele>1108.4000244141</ele>
        <time>2024-01-30T16:19:08.000Z</time>
      </trkpt>
      <trkpt lat="45.01176" lon="2.90882">
        <ele>1107.8000488281</ele>
        <time>2024-01-30T16:19:09.000Z</time>
      </trkpt>
      <trkpt lat="45.01222" lon="2.90875">
        <ele>1106.1999511719</ele>
        <time>2024-01-30T16:19:12.000Z</time>
      </trkpt>
      <trkpt lat="45.01248" lon="2.90868">
        <ele>1104</ele>
        <time>2024-01-30T16:19:14.000Z</time>
      </trkpt>
      <trkpt lat="45.01259" lon="2.90862">
        <ele>1103.1999511719</ele>
        <time>2024-01-30T16:19:15.000Z</time>
      </trkpt>
      <trkpt lat="45.01268" lon="2.90853">
        <ele>1103</ele>
        <time>2024-01-30T16:19:16.000Z</time>
      </trkpt>
      <trkpt lat="45.01277" lon="2.90843">
        <ele>1102.4000244141</ele>
        <time>2024-01-30T16:19:17.000Z</time>
      </trkpt>
      <trkpt lat="45.01285" lon="2.90832">
        <ele>1101.8000488281</ele>
        <time>2024-01-30T16:19:18.000Z</time>
      </trkpt>
      <trkpt lat="45.01292" lon="2.9082">
        <ele>1101.5999755859</ele>
        <time>2024-01-30T16:19:19.000Z</time>
      </trkpt>
      <trkpt lat="45.01305" lon="2.90794">
        <ele>1100.8000488281</ele>
        <time>2024-01-30T16:19:21.000Z</time>
      </trkpt>
      <trkpt lat="45.01314" lon="2.90785">
        <ele>1100.1999511719</ele>
        <time>2024-01-30T16:19:22.000Z</time>
      </trkpt>
      <trkpt lat="45.01324" lon="2.90779">
        <ele>1099.4000244141</ele>
        <time>2024-01-30T16:19:23.000Z</time>
      </trkpt>
      <trkpt lat="45.01336" lon="2.90777">
        <ele>1099</ele>
        <time>2024-01-30T16:19:24.000Z</time>
      </trkpt>
      <trkpt lat="45.01346" lon="2.9078">
        <ele>1098.5999755859</ele>
        <time>2024-01-30T16:19:25.000Z</time>
      </trkpt>
      <trkpt lat="45.01356" lon="2.90789">
        <ele>1098</ele>
        <time>2024-01-30T16:19:26.000Z</time>
      </trkpt>
      <trkpt lat="45.01364" lon="2.90802">
        <ele>1097.4000244141</ele>
        <time>2024-01-30T16:19:27.000Z</time>
      </trkpt>
      <trkpt lat="45.01375" lon="2.90833">
        <ele>1097</ele>
        <time>2024-01-30T16:19:29.000Z</time>
      </trkpt>
      <trkpt lat="45.01402" lon="2.9091">
        <ele>1097.4000244141</ele>
        <time>2024-01-30T16:19:35.000Z</time>
      </trkpt>
      <trkpt lat="45.01414" lon="2.90947">
        <ele>1097.5999755859</ele>
        <time>2024-01-30T16:19:39.000Z</time>
      </trkpt>
      <trkpt lat="45.01423" lon="2.90977">
        <ele>1098</ele>
        <time>2024-01-30T16:19:43.000Z</time>
      </trkpt>
      <trkpt lat="45.01428" lon="2.90996">
        <ele>1099.1999511719</ele>
        <time>2024-01-30T16:19:45.000Z</time>
      </trkpt>
      <trkpt lat="45.01429" lon="2.91006">
        <ele>1099.5999755859</ele>
        <time>2024-01-30T16:19:46.000Z</time>
      </trkpt>
      <trkpt lat="45.0143" lon="2.91018">
        <ele>1100</ele>
        <time>2024-01-30T16:19:47.000Z</time>
      </trkpt>
      <trkpt lat="45.0143" lon="2.9103">
        <ele>1100.4000244141</ele>
        <time>2024-01-30T16:19:48.000Z</time>
      </trkpt>
      <trkpt lat="45.01427" lon="2.91068">
        <ele>1101.1999511719</ele>
        <time>2024-01-30T16:19:51.000Z</time>
      </trkpt>
      <trkpt lat="45.01426" lon="2.91095">
        <ele>1101.4000244141</ele>
        <time>2024-01-30T16:19:54.000Z</time>
      </trkpt>
      <trkpt lat="45.01425" lon="2.91102">
        <ele>1101.4000244141</ele>
        <time>2024-01-30T16:19:55.000Z</time>
      </trkpt>
      <trkpt lat="45.01423" lon="2.91137">
        <ele>1102.4000244141</ele>
        <time>2024-01-30T16:19:59.000Z</time>
      </trkpt>
      <trkpt lat="45.01424" lon="2.91149">
        <ele>1102.8000488281</ele>
        <time>2024-01-30T16:20:00.000Z</time>
      </trkpt>
      <trkpt lat="45.01433" lon="2.91191">
        <ele>1104</ele>
        <time>2024-01-30T16:20:03.000Z</time>
      </trkpt>
      <trkpt lat="45.01452" lon="2.91259">
        <ele>1104.8000488281</ele>
        <time>2024-01-30T16:20:07.000Z</time>
      </trkpt>
      <trkpt lat="45.01457" lon="2.91276">
        <ele>1105.1999511719</ele>
        <time>2024-01-30T16:20:08.000Z</time>
      </trkpt>
      <trkpt lat="45.01486" lon="2.91358">
        <ele>1106</ele>
        <time>2024-01-30T16:20:13.000Z</time>
      </trkpt>
      <trkpt lat="45.01516" lon="2.91422">
        <ele>1105.4000244141</ele>
        <time>2024-01-30T16:20:17.000Z</time>
      </trkpt>
      <trkpt lat="45.01526" lon="2.91436">
        <ele>1104.8000488281</ele>
        <time>2024-01-30T16:20:18.000Z</time>
      </trkpt>
      <trkpt lat="45.01537" lon="2.91448">
        <ele>1104.1999511719</ele>
        <time>2024-01-30T16:20:19.000Z</time>
      </trkpt>
      <trkpt lat="45.0155" lon="2.91457">
        <ele>1103.5999755859</ele>
        <time>2024-01-30T16:20:20.000Z</time>
      </trkpt>
      <trkpt lat="45.01563" lon="2.91465">
        <ele>1103</ele>
        <time>2024-01-30T16:20:21.000Z</time>
      </trkpt>
      <trkpt lat="45.01591" lon="2.91473">
        <ele>1102.4000244141</ele>
        <time>2024-01-30T16:20:23.000Z</time>
      </trkpt>
      <trkpt lat="45.01605" lon="2.91472">
        <ele>1101.8000488281</ele>
        <time>2024-01-30T16:20:24.000Z</time>
      </trkpt>
      <trkpt lat="45.0162" lon="2.91468">
        <ele>1101.1999511719</ele>
        <time>2024-01-30T16:20:25.000Z</time>
      </trkpt>
      <trkpt lat="45.01634" lon="2.91462">
        <ele>1100.5999755859</ele>
        <time>2024-01-30T16:20:26.000Z</time>
      </trkpt>
      <trkpt lat="45.01647" lon="2.91454">
        <ele>1100</ele>
        <time>2024-01-30T16:20:27.000Z</time>
      </trkpt>
      <trkpt lat="45.01688" lon="2.91426">
        <ele>1098.5999755859</ele>
        <time>2024-01-30T16:20:30.000Z</time>
      </trkpt>
      <trkpt lat="45.0173" lon="2.914">
        <ele>1097.1999511719</ele>
        <time>2024-01-30T16:20:33.000Z</time>
      </trkpt>
      <trkpt lat="45.01755" lon="2.91385">
        <ele>1095.8000488281</ele>
        <time>2024-01-30T16:20:35.000Z</time>
      </trkpt>
      <trkpt lat="45.01776" lon="2.91366">
        <ele>1094.5999755859</ele>
        <time>2024-01-30T16:20:37.000Z</time>
      </trkpt>
      <trkpt lat="45.01796" lon="2.91342">
        <ele>1093.8000488281</ele>
        <time>2024-01-30T16:20:39.000Z</time>
      </trkpt>
      <trkpt lat="45.01806" lon="2.91328">
        <ele>1093.1999511719</ele>
        <time>2024-01-30T16:20:40.000Z</time>
      </trkpt>
      <trkpt lat="45.01824" lon="2.91298">
        <ele>1092.1999511719</ele>
        <time>2024-01-30T16:20:42.000Z</time>
      </trkpt>
      <trkpt lat="45.01851" lon="2.9125">
        <ele>1090.8000488281</ele>
        <time>2024-01-30T16:20:45.000Z</time>
      </trkpt>
      <trkpt lat="45.01868" lon="2.91218">
        <ele>1089.5999755859</ele>
        <time>2024-01-30T16:20:47.000Z</time>
      </trkpt>
      <trkpt lat="45.01875" lon="2.91201">
        <ele>1089</ele>
        <time>2024-01-30T16:20:48.000Z</time>
      </trkpt>
      <trkpt lat="45.01881" lon="2.91183">
        <ele>1087.8000488281</ele>
        <time>2024-01-30T16:20:49.000Z</time>
      </trkpt>
      <trkpt lat="45.01893" lon="2.91127">
        <ele>1086.4000244141</ele>
        <time>2024-01-30T16:20:52.000Z</time>
      </trkpt>
      <trkpt lat="45.01897" lon="2.91109">
        <ele>1085.5999755859</ele>
        <time>2024-01-30T16:20:53.000Z</time>
      </trkpt>
      <trkpt lat="45.01903" lon="2.91091">
        <ele>1085</ele>
        <time>2024-01-30T16:20:54.000Z</time>
      </trkpt>
      <trkpt lat="45.01916" lon="2.91056">
        <ele>1083.5999755859</ele>
        <time>2024-01-30T16:20:56.000Z</time>
      </trkpt>
      <trkpt lat="45.01922" lon="2.9104">
        <ele>1083</ele>
        <time>2024-01-30T16:20:57.000Z</time>
      </trkpt>
      <trkpt lat="45.01929" lon="2.91026">
        <ele>1082</ele>
        <time>2024-01-30T16:20:58.000Z</time>
      </trkpt>
      <trkpt lat="45.01939" lon="2.91003">
        <ele>1079.8000488281</ele>
        <time>2024-01-30T16:21:00.000Z</time>
      </trkpt>
      <trkpt lat="45.01944" lon="2.90994">
        <ele>1079.4000244141</ele>
        <time>2024-01-30T16:21:01.000Z</time>
      </trkpt>
      <trkpt lat="45.01949" lon="2.90987">
        <ele>1078.4000244141</ele>
        <time>2024-01-30T16:21:02.000Z</time>
      </trkpt>
      <trkpt lat="45.01956" lon="2.90984">
        <ele>1078.1999511719</ele>
        <time>2024-01-30T16:21:03.000Z</time>
      </trkpt>
      <trkpt lat="45.01968" lon="2.90993">
        <ele>1077.1999511719</ele>
        <time>2024-01-30T16:21:05.000Z</time>
      </trkpt>
      <trkpt lat="45.01972" lon="2.91014">
        <ele>1077.1999511719</ele>
        <time>2024-01-30T16:21:07.000Z</time>
      </trkpt>
      <trkpt lat="45.01977" lon="2.91075">
        <ele>1077.8000488281</ele>
        <time>2024-01-30T16:21:11.000Z</time>
      </trkpt>
      <trkpt lat="45.01984" lon="2.91143">
        <ele>1078.1999511719</ele>
        <time>2024-01-30T16:21:15.000Z</time>
      </trkpt>
      <trkpt lat="45.01989" lon="2.91175">
        <ele>1078.5999755859</ele>
        <time>2024-01-30T16:21:17.000Z</time>
      </trkpt>
      <trkpt lat="45.01998" lon="2.91199">
        <ele>1079</ele>
        <time>2024-01-30T16:21:19.000Z</time>
      </trkpt>
      <trkpt lat="45.02006" lon="2.91209">
        <ele>1079.1999511719</ele>
        <time>2024-01-30T16:21:20.000Z</time>
      </trkpt>
      <trkpt lat="45.02015" lon="2.91217">
        <ele>1079.1999511719</ele>
        <time>2024-01-30T16:21:21.000Z</time>
      </trkpt>
      <trkpt lat="45.02027" lon="2.91222">
        <ele>1079.5999755859</ele>
        <time>2024-01-30T16:21:22.000Z</time>
      </trkpt>
      <trkpt lat="45.02053" lon="2.91227">
        <ele>1080.5999755859</ele>
        <time>2024-01-30T16:21:24.000Z</time>
      </trkpt>
      <trkpt lat="45.02083" lon="2.91233">
        <ele>1080.8000488281</ele>
        <time>2024-01-30T16:21:26.000Z</time>
      </trkpt>
      <trkpt lat="45.02115" lon="2.91238">
        <ele>1081.8000488281</ele>
        <time>2024-01-30T16:21:28.000Z</time>
      </trkpt>
      <trkpt lat="45.02144" lon="2.91242">
        <ele>1082.1999511719</ele>
        <time>2024-01-30T16:21:30.000Z</time>
      </trkpt>
      <trkpt lat="45.02172" lon="2.91238">
        <ele>1082.4000244141</ele>
        <time>2024-01-30T16:21:32.000Z</time>
      </trkpt>
      <trkpt lat="45.02187" lon="2.91233">
        <ele>1082.5999755859</ele>
        <time>2024-01-30T16:21:33.000Z</time>
      </trkpt>
      <trkpt lat="45.02203" lon="2.91227">
        <ele>1082.8000488281</ele>
        <time>2024-01-30T16:21:34.000Z</time>
      </trkpt>
      <trkpt lat="45.02247" lon="2.91219">
        <ele>1083.5999755859</ele>
        <time>2024-01-30T16:21:37.000Z</time>
      </trkpt>
      <trkpt lat="45.02274" lon="2.91228">
        <ele>1083.5999755859</ele>
        <time>2024-01-30T16:21:39.000Z</time>
      </trkpt>
      <trkpt lat="45.02284" lon="2.9124">
        <ele>1083.8000488281</ele>
        <time>2024-01-30T16:21:40.000Z</time>
      </trkpt>
      <trkpt lat="45.02293" lon="2.91254">
        <ele>1084.1999511719</ele>
        <time>2024-01-30T16:21:41.000Z</time>
      </trkpt>
      <trkpt lat="45.02321" lon="2.91299">
        <ele>1085</ele>
        <time>2024-01-30T16:21:44.000Z</time>
      </trkpt>
      <trkpt lat="45.02333" lon="2.91312">
        <ele>1085</ele>
        <time>2024-01-30T16:21:45.000Z</time>
      </trkpt>
      <trkpt lat="45.02357" lon="2.9133">
        <ele>1085.1999511719</ele>
        <time>2024-01-30T16:21:47.000Z</time>
      </trkpt>
      <trkpt lat="45.02371" lon="2.91335">
        <ele>1085.5999755859</ele>
        <time>2024-01-30T16:21:48.000Z</time>
      </trkpt>
      <trkpt lat="45.02386" lon="2.91339">
        <ele>1086</ele>
        <time>2024-01-30T16:21:49.000Z</time>
      </trkpt>
      <trkpt lat="45.02415" lon="2.91337">
        <ele>1086.8000488281</ele>
        <time>2024-01-30T16:21:51.000Z</time>
      </trkpt>
      <trkpt lat="45.0243" lon="2.91334">
        <ele>1087.1999511719</ele>
        <time>2024-01-30T16:21:52.000Z</time>
      </trkpt>
      <trkpt lat="45.02479" lon="2.91321">
        <ele>1087.8000488281</ele>
        <time>2024-01-30T16:21:55.000Z</time>
      </trkpt>
      <trkpt lat="45.02496" lon="2.91317">
        <ele>1088.1999511719</ele>
        <time>2024-01-30T16:21:56.000Z</time>
      </trkpt>
      <trkpt lat="45.02561" lon="2.913">
        <ele>1088.8000488281</ele>
        <time>2024-01-30T16:22:00.000Z</time>
      </trkpt>
      <trkpt lat="45.02591" lon="2.91294">
        <ele>1089</ele>
        <time>2024-01-30T16:22:02.000Z</time>
      </trkpt>
      <trkpt lat="45.02619" lon="2.91295">
        <ele>1089</ele>
        <time>2024-01-30T16:22:04.000Z</time>
      </trkpt>
      <trkpt lat="45.02632" lon="2.913">
        <ele>1089.1999511719</ele>
        <time>2024-01-30T16:22:05.000Z</time>
      </trkpt>
      <trkpt lat="45.02644" lon="2.91307">
        <ele>1089.4000244141</ele>
        <time>2024-01-30T16:22:06.000Z</time>
      </trkpt>
      <trkpt lat="45.02653" lon="2.91318">
        <ele>1089.5999755859</ele>
        <time>2024-01-30T16:22:07.000Z</time>
      </trkpt>
      <trkpt lat="45.0266" lon="2.91331">
        <ele>1089.5999755859</ele>
        <time>2024-01-30T16:22:08.000Z</time>
      </trkpt>
      <trkpt lat="45.02673" lon="2.91362">
        <ele>1090.5999755859</ele>
        <time>2024-01-30T16:22:10.000Z</time>
      </trkpt>
      <trkpt lat="45.02682" lon="2.91417">
        <ele>1092.4000244141</ele>
        <time>2024-01-30T16:22:13.000Z</time>
      </trkpt>
      <trkpt lat="45.0269" lon="2.91472">
        <ele>1094</ele>
        <time>2024-01-30T16:22:16.000Z</time>
      </trkpt>
      <trkpt lat="45.02697" lon="2.91509">
        <ele>1095.4000244141</ele>
        <time>2024-01-30T16:22:18.000Z</time>
      </trkpt>
      <trkpt lat="45.02707" lon="2.91544">
        <ele>1096.5999755859</ele>
        <time>2024-01-30T16:22:20.000Z</time>
      </trkpt>
      <trkpt lat="45.02718" lon="2.91578">
        <ele>1098.1999511719</ele>
        <time>2024-01-30T16:22:22.000Z</time>
      </trkpt>
      <trkpt lat="45.02724" lon="2.91594">
        <ele>1098.5999755859</ele>
        <time>2024-01-30T16:22:23.000Z</time>
      </trkpt>
      <trkpt lat="45.0273" lon="2.91612">
        <ele>1099.1999511719</ele>
        <time>2024-01-30T16:22:24.000Z</time>
      </trkpt>
      <trkpt lat="45.02743" lon="2.91648">
        <ele>1100.4000244141</ele>
        <time>2024-01-30T16:22:26.000Z</time>
      </trkpt>
      <trkpt lat="45.02757" lon="2.91684">
        <ele>1101.5999755859</ele>
        <time>2024-01-30T16:22:28.000Z</time>
      </trkpt>
      <trkpt lat="45.02764" lon="2.91702">
        <ele>1101.5999755859</ele>
        <time>2024-01-30T16:22:29.000Z</time>
      </trkpt>
      <trkpt lat="45.02788" lon="2.91754">
        <ele>1101.5999755859</ele>
        <time>2024-01-30T16:22:32.000Z</time>
      </trkpt>
      <trkpt lat="45.02798" lon="2.91769">
        <ele>1101.4000244141</ele>
        <time>2024-01-30T16:22:33.000Z</time>
      </trkpt>
      <trkpt lat="45.02809" lon="2.91782">
        <ele>1101.4000244141</ele>
        <time>2024-01-30T16:22:34.000Z</time>
      </trkpt>
      <trkpt lat="45.02834" lon="2.91805">
        <ele>1101.1999511719</ele>
        <time>2024-01-30T16:22:36.000Z</time>
      </trkpt>
      <trkpt lat="45.02888" lon="2.91849">
        <ele>1100</ele>
        <time>2024-01-30T16:22:40.000Z</time>
      </trkpt>
      <trkpt lat="45.02902" lon="2.91861">
        <ele>1099.8000488281</ele>
        <time>2024-01-30T16:22:41.000Z</time>
      </trkpt>
      <trkpt lat="45.02931" lon="2.9188">
        <ele>1098.5999755859</ele>
        <time>2024-01-30T16:22:43.000Z</time>
      </trkpt>
      <trkpt lat="45.02961" lon="2.91892">
        <ele>1097.8000488281</ele>
        <time>2024-01-30T16:22:45.000Z</time>
      </trkpt>
      <trkpt lat="45.02976" lon="2.91898">
        <ele>1097.1999511719</ele>
        <time>2024-01-30T16:22:46.000Z</time>
      </trkpt>
      <trkpt lat="45.02992" lon="2.91903">
        <ele>1096.1999511719</ele>
        <time>2024-01-30T16:22:47.000Z</time>
      </trkpt>
      <trkpt lat="45.03007" lon="2.91909">
        <ele>1094.5999755859</ele>
        <time>2024-01-30T16:22:48.000Z</time>
      </trkpt>
      <trkpt lat="45.03037" lon="2.91917">
        <ele>1094</ele>
        <time>2024-01-30T16:22:50.000Z</time>
      </trkpt>
      <trkpt lat="45.03052" lon="2.91917">
        <ele>1092.8000488281</ele>
        <time>2024-01-30T16:22:51.000Z</time>
      </trkpt>
      <trkpt lat="45.03083" lon="2.91914">
        <ele>1091.5999755859</ele>
        <time>2024-01-30T16:22:53.000Z</time>
      </trkpt>
      <trkpt lat="45.03099" lon="2.91913">
        <ele>1090.5999755859</ele>
        <time>2024-01-30T16:22:54.000Z</time>
      </trkpt>
      <trkpt lat="45.03113" lon="2.91916">
        <ele>1090</ele>
        <time>2024-01-30T16:22:55.000Z</time>
      </trkpt>
      <trkpt lat="45.0314" lon="2.9193">
        <ele>1088.8000488281</ele>
        <time>2024-01-30T16:22:57.000Z</time>
      </trkpt>
      <trkpt lat="45.03154" lon="2.91941">
        <ele>1088.4000244141</ele>
        <time>2024-01-30T16:22:58.000Z</time>
      </trkpt>
      <trkpt lat="45.03168" lon="2.91951">
        <ele>1087.5999755859</ele>
        <time>2024-01-30T16:22:59.000Z</time>
      </trkpt>
      <trkpt lat="45.03183" lon="2.91963">
        <ele>1086.5999755859</ele>
        <time>2024-01-30T16:23:00.000Z</time>
      </trkpt>
      <trkpt lat="45.03212" lon="2.91985">
        <ele>1085.1999511719</ele>
        <time>2024-01-30T16:23:02.000Z</time>
      </trkpt>
      <trkpt lat="45.03225" lon="2.91996">
        <ele>1085</ele>
        <time>2024-01-30T16:23:03.000Z</time>
      </trkpt>
      <trkpt lat="45.03237" lon="2.92006">
        <ele>1083.8000488281</ele>
        <time>2024-01-30T16:23:04.000Z</time>
      </trkpt>
      <trkpt lat="45.03247" lon="2.92014">
        <ele>1082</ele>
        <time>2024-01-30T16:23:05.000Z</time>
      </trkpt>
      <trkpt lat="45.03257" lon="2.92019">
        <ele>1081.4000244141</ele>
        <time>2024-01-30T16:23:06.000Z</time>
      </trkpt>
      <trkpt lat="45.03267" lon="2.9202">
        <ele>1080.5999755859</ele>
        <time>2024-01-30T16:23:07.000Z</time>
      </trkpt>
      <trkpt lat="45.03277" lon="2.92018">
        <ele>1080.4000244141</ele>
        <time>2024-01-30T16:23:08.000Z</time>
      </trkpt>
      <trkpt lat="45.03286" lon="2.92012">
        <ele>1079.5999755859</ele>
        <time>2024-01-30T16:23:09.000Z</time>
      </trkpt>
      <trkpt lat="45.03295" lon="2.92004">
        <ele>1079.1999511719</ele>
        <time>2024-01-30T16:23:10.000Z</time>
      </trkpt>
      <trkpt lat="45.03305" lon="2.91993">
        <ele>1079</ele>
        <time>2024-01-30T16:23:11.000Z</time>
      </trkpt>
      <trkpt lat="45.03323" lon="2.91969">
        <ele>1078.1999511719</ele>
        <time>2024-01-30T16:23:13.000Z</time>
      </trkpt>
      <trkpt lat="45.03343" lon="2.91943">
        <ele>1077.1999511719</ele>
        <time>2024-01-30T16:23:15.000Z</time>
      </trkpt>
      <trkpt lat="45.03364" lon="2.91921">
        <ele>1076</ele>
        <time>2024-01-30T16:23:17.000Z</time>
      </trkpt>
      <trkpt lat="45.03386" lon="2.91904">
        <ele>1074.5999755859</ele>
        <time>2024-01-30T16:23:19.000Z</time>
      </trkpt>
      <trkpt lat="45.0341" lon="2.91898">
        <ele>1074.1999511719</ele>
        <time>2024-01-30T16:23:21.000Z</time>
      </trkpt>
      <trkpt lat="45.03421" lon="2.91899">
        <ele>1073.5999755859</ele>
        <time>2024-01-30T16:23:22.000Z</time>
      </trkpt>
      <trkpt lat="45.0343" lon="2.91908">
        <ele>1072.8000488281</ele>
        <time>2024-01-30T16:23:23.000Z</time>
      </trkpt>
      <trkpt lat="45.03442" lon="2.91942">
        <ele>1072.5999755859</ele>
        <time>2024-01-30T16:23:25.000Z</time>
      </trkpt>
      <trkpt lat="45.03456" lon="2.92004">
        <ele>1073.4000244141</ele>
        <time>2024-01-30T16:23:28.000Z</time>
      </trkpt>
      <trkpt lat="45.03475" lon="2.92098">
        <ele>1075</ele>
        <time>2024-01-30T16:23:32.000Z</time>
      </trkpt>
      <trkpt lat="45.03482" lon="2.92121">
        <ele>1075.8000488281</ele>
        <time>2024-01-30T16:23:33.000Z</time>
      </trkpt>
      <trkpt lat="45.03498" lon="2.9219">
        <ele>1076.1999511719</ele>
        <time>2024-01-30T16:23:36.000Z</time>
      </trkpt>
      <trkpt lat="45.03513" lon="2.92254">
        <ele>1076.8000488281</ele>
        <time>2024-01-30T16:23:39.000Z</time>
      </trkpt>
      <trkpt lat="45.03534" lon="2.92333">
        <ele>1077</ele>
        <time>2024-01-30T16:23:43.000Z</time>
      </trkpt>
      <trkpt lat="45.03548" lon="2.92389">
        <ele>1076.5999755859</ele>
        <time>2024-01-30T16:23:46.000Z</time>
      </trkpt>
      <trkpt lat="45.03568" lon="2.92459">
        <ele>1076</ele>
        <time>2024-01-30T16:23:50.000Z</time>
      </trkpt>
      <trkpt lat="45.03576" lon="2.92474">
        <ele>1075.5999755859</ele>
        <time>2024-01-30T16:23:51.000Z</time>
      </trkpt>
      <trkpt lat="45.03586" lon="2.92487">
        <ele>1074.8000488281</ele>
        <time>2024-01-30T16:23:52.000Z</time>
      </trkpt>
      <trkpt lat="45.03597" lon="2.92496">
        <ele>1074.5999755859</ele>
        <time>2024-01-30T16:23:53.000Z</time>
      </trkpt>
      <trkpt lat="45.03611" lon="2.92502">
        <ele>1073.8000488281</ele>
        <time>2024-01-30T16:23:54.000Z</time>
      </trkpt>
      <trkpt lat="45.03638" lon="2.92505">
        <ele>1072.8000488281</ele>
        <time>2024-01-30T16:23:56.000Z</time>
      </trkpt>
      <trkpt lat="45.03651" lon="2.92502">
        <ele>1072.4000244141</ele>
        <time>2024-01-30T16:23:57.000Z</time>
      </trkpt>
      <trkpt lat="45.03679" lon="2.92488">
        <ele>1071.4000244141</ele>
        <time>2024-01-30T16:23:59.000Z</time>
      </trkpt>
      <trkpt lat="45.03694" lon="2.9248">
        <ele>1071.4000244141</ele>
        <time>2024-01-30T16:24:00.000Z</time>
      </trkpt>
      <trkpt lat="45.03724" lon="2.9247">
        <ele>1070.4000244141</ele>
        <time>2024-01-30T16:24:02.000Z</time>
      </trkpt>
      <trkpt lat="45.03739" lon="2.92468">
        <ele>1069.8000488281</ele>
        <time>2024-01-30T16:24:03.000Z</time>
      </trkpt>
      <trkpt lat="45.03766" lon="2.92474">
        <ele>1069.1999511719</ele>
        <time>2024-01-30T16:24:05.000Z</time>
      </trkpt>
      <trkpt lat="45.03785" lon="2.92498">
        <ele>1069</ele>
        <time>2024-01-30T16:24:07.000Z</time>
      </trkpt>
      <trkpt lat="45.03796" lon="2.92535">
        <ele>1069</ele>
        <time>2024-01-30T16:24:09.000Z</time>
      </trkpt>
      <trkpt lat="45.038" lon="2.92556">
        <ele>1069.1999511719</ele>
        <time>2024-01-30T16:24:10.000Z</time>
      </trkpt>
      <trkpt lat="45.03814" lon="2.9262">
        <ele>1070.4000244141</ele>
        <time>2024-01-30T16:24:13.000Z</time>
      </trkpt>
      <trkpt lat="45.03822" lon="2.92639">
        <ele>1071</ele>
        <time>2024-01-30T16:24:14.000Z</time>
      </trkpt>
      <trkpt lat="45.0383" lon="2.92658">
        <ele>1071.5999755859</ele>
        <time>2024-01-30T16:24:15.000Z</time>
      </trkpt>
      <trkpt lat="45.0384" lon="2.92675">
        <ele>1071.5999755859</ele>
        <time>2024-01-30T16:24:16.000Z</time>
      </trkpt>
      <trkpt lat="45.0385" lon="2.92691">
        <ele>1071.5999755859</ele>
        <time>2024-01-30T16:24:17.000Z</time>
      </trkpt>
      <trkpt lat="45.03861" lon="2.92705">
        <ele>1071.8000488281</ele>
        <time>2024-01-30T16:24:18.000Z</time>
      </trkpt>
      <trkpt lat="45.03889" lon="2.92725">
        <ele>1071.8000488281</ele>
        <time>2024-01-30T16:24:20.000Z</time>
      </trkpt>
      <trkpt lat="45.03952" lon="2.92751">
        <ele>1072.1999511719</ele>
        <time>2024-01-30T16:24:24.000Z</time>
      </trkpt>
      <trkpt lat="45.04017" lon="2.92777">
        <ele>1072.4000244141</ele>
        <time>2024-01-30T16:24:28.000Z</time>
      </trkpt>
      <trkpt lat="45.04049" lon="2.9279">
        <ele>1072.8000488281</ele>
        <time>2024-01-30T16:24:30.000Z</time>
      </trkpt>
      <trkpt lat="45.04082" lon="2.92804">
        <ele>1073.5999755859</ele>
        <time>2024-01-30T16:24:32.000Z</time>
      </trkpt>
      <trkpt lat="45.04114" lon="2.92816">
        <ele>1074</ele>
        <time>2024-01-30T16:24:34.000Z</time>
      </trkpt>
      <trkpt lat="45.04146" lon="2.92829">
        <ele>1075</ele>
        <time>2024-01-30T16:24:36.000Z</time>
      </trkpt>
      <trkpt lat="45.04178" lon="2.92843">
        <ele>1076.1999511719</ele>
        <time>2024-01-30T16:24:38.000Z</time>
      </trkpt>
      <trkpt lat="45.04225" lon="2.92863">
        <ele>1077.1999511719</ele>
        <time>2024-01-30T16:24:41.000Z</time>
      </trkpt>
      <trkpt lat="45.04283" lon="2.9289">
        <ele>1077.1999511719</ele>
        <time>2024-01-30T16:24:45.000Z</time>
      </trkpt>
      <trkpt lat="45.04296" lon="2.92892">
        <ele>1076.4000244141</ele>
        <time>2024-01-30T16:24:46.000Z</time>
      </trkpt>
      <trkpt lat="45.04309" lon="2.9289">
        <ele>1075.4000244141</ele>
        <time>2024-01-30T16:24:47.000Z</time>
      </trkpt>
      <trkpt lat="45.0432" lon="2.92884">
        <ele>1074.5999755859</ele>
        <time>2024-01-30T16:24:48.000Z</time>
      </trkpt>
      <trkpt lat="45.04331" lon="2.92874">
        <ele>1074.1999511719</ele>
        <time>2024-01-30T16:24:49.000Z</time>
      </trkpt>
      <trkpt lat="45.04341" lon="2.9286">
        <ele>1074</ele>
        <time>2024-01-30T16:24:50.000Z</time>
      </trkpt>
      <trkpt lat="45.0437" lon="2.92814">
        <ele>1072.8000488281</ele>
        <time>2024-01-30T16:24:53.000Z</time>
      </trkpt>
      <trkpt lat="45.04382" lon="2.92801">
        <ele>1072.4000244141</ele>
        <time>2024-01-30T16:24:54.000Z</time>
      </trkpt>
      <trkpt lat="45.04407" lon="2.92776">
        <ele>1071</ele>
        <time>2024-01-30T16:24:56.000Z</time>
      </trkpt>
      <trkpt lat="45.0442" lon="2.92766">
        <ele>1070.5999755859</ele>
        <time>2024-01-30T16:24:57.000Z</time>
      </trkpt>
      <trkpt lat="45.04432" lon="2.92759">
        <ele>1069.1999511719</ele>
        <time>2024-01-30T16:24:58.000Z</time>
      </trkpt>
      <trkpt lat="45.04444" lon="2.92754">
        <ele>1068.4000244141</ele>
        <time>2024-01-30T16:24:59.000Z</time>
      </trkpt>
      <trkpt lat="45.04455" lon="2.92754">
        <ele>1067.8000488281</ele>
        <time>2024-01-30T16:25:00.000Z</time>
      </trkpt>
      <trkpt lat="45.04465" lon="2.92759">
        <ele>1067</ele>
        <time>2024-01-30T16:25:01.000Z</time>
      </trkpt>
      <trkpt lat="45.04471" lon="2.92769">
        <ele>1066.5999755859</ele>
        <time>2024-01-30T16:25:02.000Z</time>
      </trkpt>
      <trkpt lat="45.04476" lon="2.92781">
        <ele>1066.5999755859</ele>
        <time>2024-01-30T16:25:03.000Z</time>
      </trkpt>
      <trkpt lat="45.04481" lon="2.92811">
        <ele>1066.5999755859</ele>
        <time>2024-01-30T16:25:05.000Z</time>
      </trkpt>
      <trkpt lat="45.04475" lon="2.92865">
        <ele>1067.4000244141</ele>
        <time>2024-01-30T16:25:08.000Z</time>
      </trkpt>
      <trkpt lat="45.04471" lon="2.92883">
        <ele>1067.8000488281</ele>
        <time>2024-01-30T16:25:09.000Z</time>
      </trkpt>
      <trkpt lat="45.0446" lon="2.92945">
        <ele>1069.1999511719</ele>
        <time>2024-01-30T16:25:12.000Z</time>
      </trkpt>
      <trkpt lat="45.04457" lon="2.93013">
        <ele>1070.4000244141</ele>
        <time>2024-01-30T16:25:15.000Z</time>
      </trkpt>
      <trkpt lat="45.04458" lon="2.93037">
        <ele>1071.1999511719</ele>
        <time>2024-01-30T16:25:16.000Z</time>
      </trkpt>
      <trkpt lat="45.04461" lon="2.9306">
        <ele>1071.5999755859</ele>
        <time>2024-01-30T16:25:17.000Z</time>
      </trkpt>
      <trkpt lat="45.04466" lon="2.93107">
        <ele>1072.8000488281</ele>
        <time>2024-01-30T16:25:19.000Z</time>
      </trkpt>
      <trkpt lat="45.04473" lon="2.93151">
        <ele>1072.8000488281</ele>
        <time>2024-01-30T16:25:21.000Z</time>
      </trkpt>
      <trkpt lat="45.04481" lon="2.93188">
        <ele>1072.1999511719</ele>
        <time>2024-01-30T16:25:23.000Z</time>
      </trkpt>
      <trkpt lat="45.04487" lon="2.93204">
        <ele>1072</ele>
        <time>2024-01-30T16:25:24.000Z</time>
      </trkpt>
      <trkpt lat="45.04495" lon="2.93217">
        <ele>1072</ele>
        <time>2024-01-30T16:25:25.000Z</time>
      </trkpt>
      <trkpt lat="45.04506" lon="2.93229">
        <ele>1072</ele>
        <time>2024-01-30T16:25:26.000Z</time>
      </trkpt>
      <trkpt lat="45.04517" lon="2.93241">
        <ele>1072</ele>
        <time>2024-01-30T16:25:27.000Z</time>
      </trkpt>
      <trkpt lat="45.04545" lon="2.93256">
        <ele>1072.1999511719</ele>
        <time>2024-01-30T16:25:29.000Z</time>
      </trkpt>
      <trkpt lat="45.04595" lon="2.93263">
        <ele>1072</ele>
        <time>2024-01-30T16:25:32.000Z</time>
      </trkpt>
      <trkpt lat="45.0465" lon="2.93265">
        <ele>1071.8000488281</ele>
        <time>2024-01-30T16:25:35.000Z</time>
      </trkpt>
      <trkpt lat="45.04669" lon="2.93267">
        <ele>1071.4000244141</ele>
        <time>2024-01-30T16:25:36.000Z</time>
      </trkpt>
      <trkpt lat="45.04728" lon="2.93272">
        <ele>1070.8000488281</ele>
        <time>2024-01-30T16:25:39.000Z</time>
      </trkpt>
      <trkpt lat="45.04748" lon="2.93273">
        <ele>1070.1999511719</ele>
        <time>2024-01-30T16:25:40.000Z</time>
      </trkpt>
      <trkpt lat="45.04785" lon="2.93276">
        <ele>1069.8000488281</ele>
        <time>2024-01-30T16:25:42.000Z</time>
      </trkpt>
      <trkpt lat="45.04822" lon="2.93279">
        <ele>1069</ele>
        <time>2024-01-30T16:25:44.000Z</time>
      </trkpt>
      <trkpt lat="45.04876" lon="2.93285">
        <ele>1068</ele>
        <time>2024-01-30T16:25:47.000Z</time>
      </trkpt>
      <trkpt lat="45.04893" lon="2.93287">
        <ele>1068</ele>
        <time>2024-01-30T16:25:48.000Z</time>
      </trkpt>
      <trkpt lat="45.04956" lon="2.93295">
        <ele>1068</ele>
        <time>2024-01-30T16:25:52.000Z</time>
      </trkpt>
      <trkpt lat="45.0497" lon="2.93297">
        <ele>1068.1999511719</ele>
        <time>2024-01-30T16:25:53.000Z</time>
      </trkpt>
      <trkpt lat="45.05025" lon="2.93302">
        <ele>1067.8000488281</ele>
        <time>2024-01-30T16:25:57.000Z</time>
      </trkpt>
      <trkpt lat="45.05038" lon="2.93304">
        <ele>1067.8000488281</ele>
        <time>2024-01-30T16:25:58.000Z</time>
      </trkpt>
      <trkpt lat="45.05064" lon="2.93312">
        <ele>1067.4000244141</ele>
        <time>2024-01-30T16:26:00.000Z</time>
      </trkpt>
      <trkpt lat="45.05076" lon="2.93319">
        <ele>1067</ele>
        <time>2024-01-30T16:26:01.000Z</time>
      </trkpt>
      <trkpt lat="45.05087" lon="2.93327">
        <ele>1066.8000488281</ele>
        <time>2024-01-30T16:26:02.000Z</time>
      </trkpt>
      <trkpt lat="45.05121" lon="2.93351">
        <ele>1065.4000244141</ele>
        <time>2024-01-30T16:26:05.000Z</time>
      </trkpt>
      <trkpt lat="45.05133" lon="2.93357">
        <ele>1065</ele>
        <time>2024-01-30T16:26:06.000Z</time>
      </trkpt>
      <trkpt lat="45.05145" lon="2.9336">
        <ele>1064.8000488281</ele>
        <time>2024-01-30T16:26:07.000Z</time>
      </trkpt>
      <trkpt lat="45.05157" lon="2.93362">
        <ele>1064.1999511719</ele>
        <time>2024-01-30T16:26:08.000Z</time>
      </trkpt>
      <trkpt lat="45.05169" lon="2.93362">
        <ele>1064.1999511719</ele>
        <time>2024-01-30T16:26:09.000Z</time>
      </trkpt>
      <trkpt lat="45.0523" lon="2.93361">
        <ele>1064</ele>
        <time>2024-01-30T16:26:14.000Z</time>
      </trkpt>
      <trkpt lat="45.05241" lon="2.93361">
        <ele>1064</ele>
        <time>2024-01-30T16:26:15.000Z</time>
      </trkpt>
      <trkpt lat="45.05268" lon="2.93362">
        <ele>1063.5999755859</ele>
        <time>2024-01-30T16:26:18.000Z</time>
      </trkpt>
      <trkpt lat="45.05295" lon="2.93364">
        <ele>1063</ele>
        <time>2024-01-30T16:26:21.000Z</time>
      </trkpt>
      <trkpt lat="45.0532" lon="2.93364">
        <ele>1061.8000488281</ele>
        <time>2024-01-30T16:26:24.000Z</time>
      </trkpt>
      <trkpt lat="45.05338" lon="2.93367">
        <ele>1061.1999511719</ele>
        <time>2024-01-30T16:26:27.000Z</time>
      </trkpt>
      <trkpt lat="45.05354" lon="2.93364">
        <ele>1061.2</ele>
      </trkpt>
      <trkpt lat="45.054" lon="2.93363">
        <ele>1060.9</ele>
      </trkpt>
      <trkpt lat="45.05424" lon="2.9336">
        <ele>1060.5999755859</ele>
        <time>2024-01-30T16:29:00.000Z</time>
      </trkpt>
      <trkpt lat="45.05437" lon="2.9336">
        <ele>1061.1999511719</ele>
        <time>2024-01-30T16:29:04.000Z</time>
      </trkpt>
      <trkpt lat="45.05452" lon="2.93361">
        <ele>1061.4000244141</ele>
        <time>2024-01-30T16:29:06.000Z</time>
      </trkpt>
      <trkpt lat="45.05461" lon="2.93362">
        <ele>1061.8000488281</ele>
        <time>2024-01-30T16:29:07.000Z</time>
      </trkpt>
      <trkpt lat="45.05495" lon="2.93366">
        <ele>1062.5999755859</ele>
        <time>2024-01-30T16:29:10.000Z</time>
      </trkpt>
      <trkpt lat="45.05555" lon="2.93368">
        <ele>1062.5999755859</ele>
        <time>2024-01-30T16:29:14.000Z</time>
      </trkpt>
      <trkpt lat="45.05608" lon="2.93369">
        <ele>1061</ele>
        <time>2024-01-30T16:29:17.000Z</time>
      </trkpt>
      <trkpt lat="45.05625" lon="2.93369">
        <ele>1060</ele>
        <time>2024-01-30T16:29:18.000Z</time>
      </trkpt>
      <trkpt lat="45.05659" lon="2.93371">
        <ele>1058.4000244141</ele>
        <time>2024-01-30T16:29:20.000Z</time>
      </trkpt>
      <trkpt lat="45.05692" lon="2.93369">
        <ele>1056.5999755859</ele>
        <time>2024-01-30T16:29:22.000Z</time>
      </trkpt>
      <trkpt lat="45.0571" lon="2.93365">
        <ele>1056.1999511719</ele>
        <time>2024-01-30T16:29:23.000Z</time>
      </trkpt>
      <trkpt lat="45.05727" lon="2.93358">
        <ele>1055.1999511719</ele>
        <time>2024-01-30T16:29:24.000Z</time>
      </trkpt>
      <trkpt lat="45.05763" lon="2.93341">
        <ele>1054</ele>
        <time>2024-01-30T16:29:26.000Z</time>
      </trkpt>
      <trkpt lat="45.05781" lon="2.93333">
        <ele>1053.4000244141</ele>
        <time>2024-01-30T16:29:27.000Z</time>
      </trkpt>
      <trkpt lat="45.05799" lon="2.93324">
        <ele>1052.5999755859</ele>
        <time>2024-01-30T16:29:28.000Z</time>
      </trkpt>
      <trkpt lat="45.05834" lon="2.93307">
        <ele>1050.5999755859</ele>
        <time>2024-01-30T16:29:30.000Z</time>
      </trkpt>
      <trkpt lat="45.05868" lon="2.93288">
        <ele>1049</ele>
        <time>2024-01-30T16:29:32.000Z</time>
      </trkpt>
      <trkpt lat="45.05883" lon="2.93276">
        <ele>1047.8000488281</ele>
        <time>2024-01-30T16:29:33.000Z</time>
      </trkpt>
      <trkpt lat="45.05898" lon="2.93262">
        <ele>1046.5999755859</ele>
        <time>2024-01-30T16:29:34.000Z</time>
      </trkpt>
      <trkpt lat="45.05918" lon="2.93226">
        <ele>1045.1999511719</ele>
        <time>2024-01-30T16:29:36.000Z</time>
      </trkpt>
      <trkpt lat="45.05935" lon="2.93186">
        <ele>1043.8000488281</ele>
        <time>2024-01-30T16:29:38.000Z</time>
      </trkpt>
      <trkpt lat="45.05942" lon="2.93165">
        <ele>1043.1999511719</ele>
        <time>2024-01-30T16:29:39.000Z</time>
      </trkpt>
      <trkpt lat="45.05946" lon="2.93143">
        <ele>1042</ele>
        <time>2024-01-30T16:29:40.000Z</time>
      </trkpt>
      <trkpt lat="45.0595" lon="2.93102">
        <ele>1040</ele>
        <time>2024-01-30T16:29:42.000Z</time>
      </trkpt>
      <trkpt lat="45.05954" lon="2.93083">
        <ele>1039.1999511719</ele>
        <time>2024-01-30T16:29:43.000Z</time>
      </trkpt>
      <trkpt lat="45.05959" lon="2.93066">
        <ele>1038.5999755859</ele>
        <time>2024-01-30T16:29:44.000Z</time>
      </trkpt>
      <trkpt lat="45.05967" lon="2.93051">
        <ele>1038</ele>
        <time>2024-01-30T16:29:45.000Z</time>
      </trkpt>
      <trkpt lat="45.05977" lon="2.93041">
        <ele>1037.1999511719</ele>
        <time>2024-01-30T16:29:46.000Z</time>
      </trkpt>
      <trkpt lat="45.05988" lon="2.93034">
        <ele>1037.1999511719</ele>
        <time>2024-01-30T16:29:47.000Z</time>
      </trkpt>
      <trkpt lat="45.06014" lon="2.93031">
        <ele>1037</ele>
        <time>2024-01-30T16:29:49.000Z</time>
      </trkpt>
      <trkpt lat="45.06043" lon="2.93041">
        <ele>1037.1999511719</ele>
        <time>2024-01-30T16:29:51.000Z</time>
      </trkpt>
      <trkpt lat="45.06071" lon="2.93069">
        <ele>1037.5999755859</ele>
        <time>2024-01-30T16:29:53.000Z</time>
      </trkpt>
      <trkpt lat="45.06108" lon="2.93127">
        <ele>1037.8000488281</ele>
        <time>2024-01-30T16:29:56.000Z</time>
      </trkpt>
      <trkpt lat="45.06146" lon="2.93191">
        <ele>1038.1999511719</ele>
        <time>2024-01-30T16:29:59.000Z</time>
      </trkpt>
      <trkpt lat="45.06174" lon="2.93235">
        <ele>1038.4000244141</ele>
        <time>2024-01-30T16:30:01.000Z</time>
      </trkpt>
      <trkpt lat="45.06209" lon="2.9329">
        <ele>1038.1999511719</ele>
        <time>2024-01-30T16:30:04.000Z</time>
      </trkpt>
      <trkpt lat="45.06218" lon="2.93308">
        <ele>1037.5999755859</ele>
        <time>2024-01-30T16:30:05.000Z</time>
      </trkpt>
      <trkpt lat="45.06225" lon="2.93325">
        <ele>1037.4000244141</ele>
        <time>2024-01-30T16:30:06.000Z</time>
      </trkpt>
      <trkpt lat="45.0623" lon="2.93344">
        <ele>1037.4000244141</ele>
        <time>2024-01-30T16:30:07.000Z</time>
      </trkpt>
      <trkpt lat="45.06259" lon="2.9343">
        <ele>1038.1999511719</ele>
        <time>2024-01-30T16:30:11.000Z</time>
      </trkpt>
      <trkpt lat="45.06269" lon="2.93453">
        <ele>1038.4000244141</ele>
        <time>2024-01-30T16:30:12.000Z</time>
      </trkpt>
      <trkpt lat="45.06303" lon="2.93521">
        <ele>1038.8000488281</ele>
        <time>2024-01-30T16:30:15.000Z</time>
      </trkpt>
      <trkpt lat="45.0634" lon="2.93597">
        <ele>1039.4000244141</ele>
        <time>2024-01-30T16:30:18.000Z</time>
      </trkpt>
      <trkpt lat="45.06352" lon="2.93622">
        <ele>1039.4000244141</ele>
        <time>2024-01-30T16:30:19.000Z</time>
      </trkpt>
      <trkpt lat="45.06386" lon="2.93695">
        <ele>1039.4000244141</ele>
        <time>2024-01-30T16:30:22.000Z</time>
      </trkpt>
      <trkpt lat="45.0642" lon="2.93763">
        <ele>1039.1999511719</ele>
        <time>2024-01-30T16:30:25.000Z</time>
      </trkpt>
      <trkpt lat="45.06441" lon="2.93798">
        <ele>1037.4000244141</ele>
        <time>2024-01-30T16:30:27.000Z</time>
      </trkpt>
      <trkpt lat="45.06451" lon="2.93811">
        <ele>1037.1999511719</ele>
        <time>2024-01-30T16:30:28.000Z</time>
      </trkpt>
      <trkpt lat="45.06461" lon="2.93822">
        <ele>1036.5999755859</ele>
        <time>2024-01-30T16:30:29.000Z</time>
      </trkpt>
      <trkpt lat="45.06473" lon="2.93829">
        <ele>1036.4000244141</ele>
        <time>2024-01-30T16:30:30.000Z</time>
      </trkpt>
      <trkpt lat="45.06486" lon="2.93832">
        <ele>1036.4000244141</ele>
        <time>2024-01-30T16:30:31.000Z</time>
      </trkpt>
      <trkpt lat="45.065" lon="2.93832">
        <ele>1036.4000244141</ele>
        <time>2024-01-30T16:30:32.000Z</time>
      </trkpt>
      <trkpt lat="45.06566" lon="2.93824">
        <ele>1037</ele>
        <time>2024-01-30T16:30:36.000Z</time>
      </trkpt>
      <trkpt lat="45.06621" lon="2.93818">
        <ele>1037.1999511719</ele>
        <time>2024-01-30T16:30:39.000Z</time>
      </trkpt>
      <trkpt lat="45.06659" lon="2.93813">
        <ele>1037</ele>
        <time>2024-01-30T16:30:41.000Z</time>
      </trkpt>
      <trkpt lat="45.06718" lon="2.93807">
        <ele>1036.8000488281</ele>
        <time>2024-01-30T16:30:44.000Z</time>
      </trkpt>
      <trkpt lat="45.06757" lon="2.93808">
        <ele>1036.5999755859</ele>
        <time>2024-01-30T16:30:46.000Z</time>
      </trkpt>
      <trkpt lat="45.06796" lon="2.93815">
        <ele>1036.4000244141</ele>
        <time>2024-01-30T16:30:48.000Z</time>
      </trkpt>
      <trkpt lat="45.06817" lon="2.93821">
        <ele>1036.1999511719</ele>
        <time>2024-01-30T16:30:49.000Z</time>
      </trkpt>
      <trkpt lat="45.06877" lon="2.93845">
        <ele>1035.8000488281</ele>
        <time>2024-01-30T16:30:52.000Z</time>
      </trkpt>
      <trkpt lat="45.06919" lon="2.93861">
        <ele>1035.5999755859</ele>
        <time>2024-01-30T16:30:54.000Z</time>
      </trkpt>
      <trkpt lat="45.06961" lon="2.93878">
        <ele>1035.4000244141</ele>
        <time>2024-01-30T16:30:56.000Z</time>
      </trkpt>
      <trkpt lat="45.07022" lon="2.93904">
        <ele>1034.8000488281</ele>
        <time>2024-01-30T16:30:59.000Z</time>
      </trkpt>
      <trkpt lat="45.07041" lon="2.93914">
        <ele>1034.1999511719</ele>
        <time>2024-01-30T16:31:00.000Z</time>
      </trkpt>
      <trkpt lat="45.07074" lon="2.93934">
        <ele>1032.5999755859</ele>
        <time>2024-01-30T16:31:02.000Z</time>
      </trkpt>
      <trkpt lat="45.07088" lon="2.93941">
        <ele>1032.1999511719</ele>
        <time>2024-01-30T16:31:03.000Z</time>
      </trkpt>
      <trkpt lat="45.07102" lon="2.93946">
        <ele>1031.8000488281</ele>
        <time>2024-01-30T16:31:04.000Z</time>
      </trkpt>
      <trkpt lat="45.07114" lon="2.93949">
        <ele>1031</ele>
        <time>2024-01-30T16:31:05.000Z</time>
      </trkpt>
      <trkpt lat="45.07127" lon="2.93948">
        <ele>1030.8000488281</ele>
        <time>2024-01-30T16:31:06.000Z</time>
      </trkpt>
      <trkpt lat="45.07152" lon="2.93933">
        <ele>1030.8000488281</ele>
        <time>2024-01-30T16:31:08.000Z</time>
      </trkpt>
      <trkpt lat="45.07164" lon="2.9392">
        <ele>1030.8000488281</ele>
        <time>2024-01-30T16:31:09.000Z</time>
      </trkpt>
      <trkpt lat="45.07175" lon="2.93905">
        <ele>1031</ele>
        <time>2024-01-30T16:31:10.000Z</time>
      </trkpt>
      <trkpt lat="45.07223" lon="2.93838">
        <ele>1031.1999511719</ele>
        <time>2024-01-30T16:31:14.000Z</time>
      </trkpt>
      <trkpt lat="45.07272" lon="2.93767">
        <ele>1030.4000244141</ele>
        <time>2024-01-30T16:31:18.000Z</time>
      </trkpt>
      <trkpt lat="45.07291" lon="2.93731">
        <ele>1030.1999511719</ele>
        <time>2024-01-30T16:31:20.000Z</time>
      </trkpt>
      <trkpt lat="45.07298" lon="2.93711">
        <ele>1029.8000488281</ele>
        <time>2024-01-30T16:31:21.000Z</time>
      </trkpt>
      <trkpt lat="45.07302" lon="2.9369">
        <ele>1029.4000244141</ele>
        <time>2024-01-30T16:31:22.000Z</time>
      </trkpt>
      <trkpt lat="45.07307" lon="2.93621">
        <ele>1029</ele>
        <time>2024-01-30T16:31:25.000Z</time>
      </trkpt>
      <trkpt lat="45.07309" lon="2.93545">
        <ele>1028.8000488281</ele>
        <time>2024-01-30T16:31:28.000Z</time>
      </trkpt>
      <trkpt lat="45.07311" lon="2.93495">
        <ele>1028.1999511719</ele>
        <time>2024-01-30T16:31:30.000Z</time>
      </trkpt>
      <trkpt lat="45.07312" lon="2.93448">
        <ele>1027.5999755859</ele>
        <time>2024-01-30T16:31:32.000Z</time>
      </trkpt>
      <trkpt lat="45.07312" lon="2.93407">
        <ele>1026.1999511719</ele>
        <time>2024-01-30T16:31:34.000Z</time>
      </trkpt>
      <trkpt lat="45.07312" lon="2.93386">
        <ele>1025.8000488281</ele>
        <time>2024-01-30T16:31:35.000Z</time>
      </trkpt>
      <trkpt lat="45.07313" lon="2.93368">
        <ele>1025.1999511719</ele>
        <time>2024-01-30T16:31:36.000Z</time>
      </trkpt>
      <trkpt lat="45.07318" lon="2.93336">
        <ele>1024.1999511719</ele>
        <time>2024-01-30T16:31:38.000Z</time>
      </trkpt>
      <trkpt lat="45.07326" lon="2.93326">
        <ele>1024</ele>
        <time>2024-01-30T16:31:39.000Z</time>
      </trkpt>
      <trkpt lat="45.07334" lon="2.93318">
        <ele>1023.799987793</ele>
        <time>2024-01-30T16:31:40.000Z</time>
      </trkpt>
      <trkpt lat="45.07355" lon="2.93312">
        <ele>1023.5999755859</ele>
        <time>2024-01-30T16:31:42.000Z</time>
      </trkpt>
      <trkpt lat="45.07369" lon="2.93313">
        <ele>1023.4000244141</ele>
        <time>2024-01-30T16:31:43.000Z</time>
      </trkpt>
      <trkpt lat="45.07413" lon="2.93318">
        <ele>1023.5999755859</ele>
        <time>2024-01-30T16:31:46.000Z</time>
      </trkpt>
      <trkpt lat="45.07482" lon="2.93323">
        <ele>1024</ele>
        <time>2024-01-30T16:31:50.000Z</time>
      </trkpt>
      <trkpt lat="45.07547" lon="2.93338">
        <ele>1024</ele>
        <time>2024-01-30T16:31:54.000Z</time>
      </trkpt>
      <trkpt lat="45.07591" lon="2.93345">
        <ele>1023.799987793</ele>
        <time>2024-01-30T16:31:57.000Z</time>
      </trkpt>
      <trkpt lat="45.07636" lon="2.93336">
        <ele>1024</ele>
        <time>2024-01-30T16:32:00.000Z</time>
      </trkpt>
      <trkpt lat="45.07664" lon="2.93332">
        <ele>1024</ele>
        <time>2024-01-30T16:32:02.000Z</time>
      </trkpt>
      <trkpt lat="45.07677" lon="2.93333">
        <ele>1024.1999511719</ele>
        <time>2024-01-30T16:32:03.000Z</time>
      </trkpt>
      <trkpt lat="45.07722" lon="2.93345">
        <ele>1024.4000244141</ele>
        <time>2024-01-30T16:32:07.000Z</time>
      </trkpt>
      <trkpt lat="45.07762" lon="2.93365">
        <ele>1025.4000244141</ele>
        <time>2024-01-30T16:32:11.000Z</time>
      </trkpt>
      <trkpt lat="45.07793" lon="2.93388">
        <ele>1026.5999755859</ele>
        <time>2024-01-30T16:32:14.000Z</time>
      </trkpt>
      <trkpt lat="45.07816" lon="2.93403">
        <ele>1027.1999511719</ele>
        <time>2024-01-30T16:32:16.000Z</time>
      </trkpt>
      <trkpt lat="45.07862" lon="2.93427">
        <ele>1027.4000244141</ele>
        <time>2024-01-30T16:32:20.000Z</time>
      </trkpt>
      <trkpt lat="45.07873" lon="2.9343">
        <ele>1027.1999511719</ele>
        <time>2024-01-30T16:32:21.000Z</time>
      </trkpt>
      <trkpt lat="45.07896" lon="2.93434">
        <ele>1026.5999755859</ele>
        <time>2024-01-30T16:32:23.000Z</time>
      </trkpt>
      <trkpt lat="45.07919" lon="2.93433">
        <ele>1025.8000488281</ele>
        <time>2024-01-30T16:32:25.000Z</time>
      </trkpt>
      <trkpt lat="45.07943" lon="2.93429">
        <ele>1025.5999755859</ele>
        <time>2024-01-30T16:32:27.000Z</time>
      </trkpt>
      <trkpt lat="45.07969" lon="2.93423">
        <ele>1025.4000244141</ele>
        <time>2024-01-30T16:32:29.000Z</time>
      </trkpt>
      <trkpt lat="45.08024" lon="2.93409">
        <ele>1024.5999755859</ele>
        <time>2024-01-30T16:32:33.000Z</time>
      </trkpt>
      <trkpt lat="45.08039" lon="2.93406">
        <ele>1024.5999755859</ele>
        <time>2024-01-30T16:32:34.000Z</time>
      </trkpt>
      <trkpt lat="45.08103" lon="2.93392">
        <ele>1023.5999755859</ele>
        <time>2024-01-30T16:32:38.000Z</time>
      </trkpt>
      <trkpt lat="45.08135" lon="2.93385">
        <ele>1023.4000244141</ele>
        <time>2024-01-30T16:32:40.000Z</time>
      </trkpt>
      <trkpt lat="45.08194" lon="2.93372">
        <ele>1023.5999755859</ele>
        <time>2024-01-30T16:32:44.000Z</time>
      </trkpt>
      <trkpt lat="45.08205" lon="2.93369">
        <ele>1023.5999755859</ele>
        <time>2024-01-30T16:32:45.000Z</time>
      </trkpt>
      <trkpt lat="45.08215" lon="2.93367">
        <ele>1023.5999755859</ele>
        <time>2024-01-30T16:32:46.000Z</time>
      </trkpt>
      <trkpt lat="45.08226" lon="2.93367">
        <ele>1023.799987793</ele>
        <time>2024-01-30T16:32:48.000Z</time>
      </trkpt>
      <trkpt lat="45.08234" lon="2.9337">
        <ele>1024</ele>
        <time>2024-01-30T16:32:50.000Z</time>
      </trkpt>
      <trkpt lat="45.08236" lon="2.9337">
        <ele>1024.1999511719</ele>
        <time>2024-01-30T16:32:51.000Z</time>
      </trkpt>
      <trkpt lat="45.08237" lon="2.93371">
        <ele>1024.4000244141</ele>
        <time>2024-01-30T16:32:54.000Z</time>
      </trkpt>
      <trkpt lat="45.08245" lon="2.93367">
        <ele>1025.1999511719</ele>
        <time>2024-01-30T16:32:57.000Z</time>
      </trkpt>
      <trkpt lat="45.08248" lon="2.93362">
        <ele>1025.1999511719</ele>
        <time>2024-01-30T16:32:58.000Z</time>
      </trkpt>
      <trkpt lat="45.08254" lon="2.93348">
        <ele>1025.8000488281</ele>
        <time>2024-01-30T16:33:00.000Z</time>
      </trkpt>
      <trkpt lat="45.0826" lon="2.93327">
        <ele>1026.8000488281</ele>
        <time>2024-01-30T16:33:02.000Z</time>
      </trkpt>
      <trkpt lat="45.08264" lon="2.93315">
        <ele>1027</ele>
        <time>2024-01-30T16:33:03.000Z</time>
      </trkpt>
      <trkpt lat="45.08272" lon="2.93287">
        <ele>1028.4000244141</ele>
        <time>2024-01-30T16:33:05.000Z</time>
      </trkpt>
      <trkpt lat="45.08277" lon="2.93271">
        <ele>1029</ele>
        <time>2024-01-30T16:33:06.000Z</time>
      </trkpt>
      <trkpt lat="45.08282" lon="2.93254">
        <ele>1029.4000244141</ele>
        <time>2024-01-30T16:33:07.000Z</time>
      </trkpt>
      <trkpt lat="45.08297" lon="2.93197">
        <ele>1030.5999755859</ele>
        <time>2024-01-30T16:33:10.000Z</time>
      </trkpt>
      <trkpt lat="45.08302" lon="2.93176">
        <ele>1031.4000244141</ele>
        <time>2024-01-30T16:33:11.000Z</time>
      </trkpt>
      <trkpt lat="45.08308" lon="2.93155">
        <ele>1032.4000244141</ele>
        <time>2024-01-30T16:33:12.000Z</time>
      </trkpt>
      <trkpt lat="45.0832" lon="2.9311">
        <ele>1034.1999511719</ele>
        <time>2024-01-30T16:33:14.000Z</time>
      </trkpt>
      <trkpt lat="45.08326" lon="2.93087">
        <ele>1035.1999511719</ele>
        <time>2024-01-30T16:33:15.000Z</time>
      </trkpt>
      <trkpt lat="45.08333" lon="2.93063">
        <ele>1036</ele>
        <time>2024-01-30T16:33:16.000Z</time>
      </trkpt>
      <trkpt lat="45.08339" lon="2.9304">
        <ele>1037.4000244141</ele>
        <time>2024-01-30T16:33:17.000Z</time>
      </trkpt>
      <trkpt lat="45.08352" lon="2.92993">
        <ele>1039</ele>
        <time>2024-01-30T16:33:19.000Z</time>
      </trkpt>
      <trkpt lat="45.08365" lon="2.92945">
        <ele>1040.8000488281</ele>
        <time>2024-01-30T16:33:21.000Z</time>
      </trkpt>
      <trkpt lat="45.08378" lon="2.92897">
        <ele>1042.4000244141</ele>
        <time>2024-01-30T16:33:23.000Z</time>
      </trkpt>
      <trkpt lat="45.08391" lon="2.92847">
        <ele>1043.5999755859</ele>
        <time>2024-01-30T16:33:25.000Z</time>
      </trkpt>
      <trkpt lat="45.08404" lon="2.92797">
        <ele>1044.8000488281</ele>
        <time>2024-01-30T16:33:27.000Z</time>
      </trkpt>
      <trkpt lat="45.08418" lon="2.92746">
        <ele>1046</ele>
        <time>2024-01-30T16:33:29.000Z</time>
      </trkpt>
      <trkpt lat="45.08443" lon="2.92672">
        <ele>1047.5999755859</ele>
        <time>2024-01-30T16:33:32.000Z</time>
      </trkpt>
      <trkpt lat="45.08466" lon="2.92626">
        <ele>1046.9</ele>
      </trkpt>
      <trkpt lat="45.08486" lon="2.92597">
        <ele>1047.7</ele>
      </trkpt>
      <trkpt lat="45.08484" lon="2.92585">
        <ele>1048</ele>
      </trkpt>
      <trkpt lat="45.08481" lon="2.92566">
        <ele>1047.1</ele>
      </trkpt>
      <trkpt lat="45.08483" lon="2.92546">
        <ele>1046.5</ele>
      </trkpt>
      <trkpt lat="45.08485" lon="2.92528">
        <ele>1047.5999755859</ele>
        <time>2024-01-30T16:35:47.000Z</time>
      </trkpt>
      <trkpt lat="45.08499" lon="2.92487">
        <ele>1047.5999755859</ele>
        <time>2024-01-30T16:35:50.000Z</time>
      </trkpt>
      <trkpt lat="45.08523" lon="2.9242">
        <ele>1048</ele>
        <time>2024-01-30T16:35:54.000Z</time>
      </trkpt>
      <trkpt lat="45.08552" lon="2.92334">
        <ele>1048.1999511719</ele>
        <time>2024-01-30T16:35:58.000Z</time>
      </trkpt>
      <trkpt lat="45.08575" lon="2.92267">
        <ele>1049.4000244141</ele>
        <time>2024-01-30T16:36:01.000Z</time>
      </trkpt>
      <trkpt lat="45.08598" lon="2.92199">
        <ele>1050.5999755859</ele>
        <time>2024-01-30T16:36:04.000Z</time>
      </trkpt>
      <trkpt lat="45.08621" lon="2.92131">
        <ele>1051.8000488281</ele>
        <time>2024-01-30T16:36:07.000Z</time>
      </trkpt>
      <trkpt lat="45.08645" lon="2.92062">
        <ele>1052.5999755859</ele>
        <time>2024-01-30T16:36:10.000Z</time>
      </trkpt>
      <trkpt lat="45.08652" lon="2.9204">
        <ele>1052.8000488281</ele>
        <time>2024-01-30T16:36:11.000Z</time>
      </trkpt>
      <trkpt lat="45.08671" lon="2.91976">
        <ele>1053.4000244141</ele>
        <time>2024-01-30T16:36:14.000Z</time>
      </trkpt>
      <trkpt lat="45.08676" lon="2.91933">
        <ele>1054</ele>
        <time>2024-01-30T16:36:16.000Z</time>
      </trkpt>
      <trkpt lat="45.08676" lon="2.91911">
        <ele>1054.5999755859</ele>
        <time>2024-01-30T16:36:17.000Z</time>
      </trkpt>
      <trkpt lat="45.08675" lon="2.91867">
        <ele>1055.1999511719</ele>
        <time>2024-01-30T16:36:19.000Z</time>
      </trkpt>
      <trkpt lat="45.08674" lon="2.91823">
        <ele>1056.4000244141</ele>
        <time>2024-01-30T16:36:21.000Z</time>
      </trkpt>
      <trkpt lat="45.08673" lon="2.91779">
        <ele>1056.8000488281</ele>
        <time>2024-01-30T16:36:23.000Z</time>
      </trkpt>
      <trkpt lat="45.08672" lon="2.91757">
        <ele>1057.5999755859</ele>
        <time>2024-01-30T16:36:24.000Z</time>
      </trkpt>
      <trkpt lat="45.0867" lon="2.91666">
        <ele>1058.5999755859</ele>
        <time>2024-01-30T16:36:28.000Z</time>
      </trkpt>
      <trkpt lat="45.0867" lon="2.91645">
        <ele>1059</ele>
        <time>2024-01-30T16:36:29.000Z</time>
      </trkpt>
      <trkpt lat="45.08672" lon="2.91624">
        <ele>1059.1999511719</ele>
        <time>2024-01-30T16:36:30.000Z</time>
      </trkpt>
      <trkpt lat="45.08679" lon="2.91585">
        <ele>1059.5999755859</ele>
        <time>2024-01-30T16:36:32.000Z</time>
      </trkpt>
      <trkpt lat="45.08684" lon="2.91567">
        <ele>1059.5999755859</ele>
        <time>2024-01-30T16:36:33.000Z</time>
      </trkpt>
      <trkpt lat="45.08692" lon="2.9155">
        <ele>1060</ele>
        <time>2024-01-30T16:36:34.000Z</time>
      </trkpt>
      <trkpt lat="45.08712" lon="2.91518">
        <ele>1060.8000488281</ele>
        <time>2024-01-30T16:36:36.000Z</time>
      </trkpt>
      <trkpt lat="45.08734" lon="2.91485">
        <ele>1061.5999755859</ele>
        <time>2024-01-30T16:36:38.000Z</time>
      </trkpt>
      <trkpt lat="45.08758" lon="2.91449">
        <ele>1062.4000244141</ele>
        <time>2024-01-30T16:36:40.000Z</time>
      </trkpt>
      <trkpt lat="45.08769" lon="2.91431">
        <ele>1062.8000488281</ele>
        <time>2024-01-30T16:36:41.000Z</time>
      </trkpt>
      <trkpt lat="45.08803" lon="2.91376">
        <ele>1064.1999511719</ele>
        <time>2024-01-30T16:36:44.000Z</time>
      </trkpt>
      <trkpt lat="45.08814" lon="2.91357">
        <ele>1065.1999511719</ele>
        <time>2024-01-30T16:36:45.000Z</time>
      </trkpt>
      <trkpt lat="45.08848" lon="2.91301">
        <ele>1067</ele>
        <time>2024-01-30T16:36:48.000Z</time>
      </trkpt>
      <trkpt lat="45.08867" lon="2.91262">
        <ele>1068.4000244141</ele>
        <time>2024-01-30T16:36:50.000Z</time>
      </trkpt>
      <trkpt lat="45.08875" lon="2.91241">
        <ele>1068.8000488281</ele>
        <time>2024-01-30T16:36:51.000Z</time>
      </trkpt>
      <trkpt lat="45.08887" lon="2.91197">
        <ele>1070.4000244141</ele>
        <time>2024-01-30T16:36:53.000Z</time>
      </trkpt>
      <trkpt lat="45.08906" lon="2.91129">
        <ele>1071.8000488281</ele>
        <time>2024-01-30T16:36:56.000Z</time>
      </trkpt>
      <trkpt lat="45.08925" lon="2.91061">
        <ele>1073.1999511719</ele>
        <time>2024-01-30T16:36:59.000Z</time>
      </trkpt>
      <trkpt lat="45.08937" lon="2.91016">
        <ele>1074.1999511719</ele>
        <time>2024-01-30T16:37:01.000Z</time>
      </trkpt>
      <trkpt lat="45.08949" lon="2.90971">
        <ele>1075.8000488281</ele>
        <time>2024-01-30T16:37:03.000Z</time>
      </trkpt>
      <trkpt lat="45.08962" lon="2.90927">
        <ele>1077.1999511719</ele>
        <time>2024-01-30T16:37:05.000Z</time>
      </trkpt>
      <trkpt lat="45.08975" lon="2.90882">
        <ele>1078.1999511719</ele>
        <time>2024-01-30T16:37:07.000Z</time>
      </trkpt>
      <trkpt lat="45.09001" lon="2.90793">
        <ele>1079.4000244141</ele>
        <time>2024-01-30T16:37:11.000Z</time>
      </trkpt>
      <trkpt lat="45.0901" lon="2.90772">
        <ele>1079.8000488281</ele>
        <time>2024-01-30T16:37:12.000Z</time>
      </trkpt>
      <trkpt lat="45.09051" lon="2.90697">
        <ele>1080.4000244141</ele>
        <time>2024-01-30T16:37:16.000Z</time>
      </trkpt>
      <trkpt lat="45.09093" lon="2.90625">
        <ele>1081.4000244141</ele>
        <time>2024-01-30T16:37:20.000Z</time>
      </trkpt>
      <trkpt lat="45.09104" lon="2.90609">
        <ele>1081.5999755859</ele>
        <time>2024-01-30T16:37:21.000Z</time>
      </trkpt>
      <trkpt lat="45.09115" lon="2.90593">
        <ele>1081.8000488281</ele>
        <time>2024-01-30T16:37:22.000Z</time>
      </trkpt>
      <trkpt lat="45.09127" lon="2.9058">
        <ele>1082</ele>
        <time>2024-01-30T16:37:23.000Z</time>
      </trkpt>
      <trkpt lat="45.09154" lon="2.90555">
        <ele>1082</ele>
        <time>2024-01-30T16:37:25.000Z</time>
      </trkpt>
      <trkpt lat="45.09201" lon="2.90517">
        <ele>1081.5999755859</ele>
        <time>2024-01-30T16:37:28.000Z</time>
      </trkpt>
      <trkpt lat="45.09218" lon="2.90503">
        <ele>1080.8000488281</ele>
        <time>2024-01-30T16:37:29.000Z</time>
      </trkpt>
      <trkpt lat="45.09235" lon="2.90489">
        <ele>1080.4000244141</ele>
        <time>2024-01-30T16:37:30.000Z</time>
      </trkpt>
      <trkpt lat="45.09268" lon="2.9046">
        <ele>1079.1999511719</ele>
        <time>2024-01-30T16:37:32.000Z</time>
      </trkpt>
      <trkpt lat="45.09302" lon="2.90431">
        <ele>1078</ele>
        <time>2024-01-30T16:37:34.000Z</time>
      </trkpt>
      <trkpt lat="45.09319" lon="2.90417">
        <ele>1077.5999755859</ele>
        <time>2024-01-30T16:37:35.000Z</time>
      </trkpt>
      <trkpt lat="45.09368" lon="2.90376">
        <ele>1077</ele>
        <time>2024-01-30T16:37:38.000Z</time>
      </trkpt>
      <trkpt lat="45.09414" lon="2.90336">
        <ele>1076</ele>
        <time>2024-01-30T16:37:41.000Z</time>
      </trkpt>
      <trkpt lat="45.09426" lon="2.90326">
        <ele>1075.8000488281</ele>
        <time>2024-01-30T16:37:42.000Z</time>
      </trkpt>
      <trkpt lat="45.09466" lon="2.9029">
        <ele>1074</ele>
        <time>2024-01-30T16:37:45.000Z</time>
      </trkpt>
      <trkpt lat="45.09484" lon="2.90261">
        <ele>1073.1999511719</ele>
        <time>2024-01-30T16:37:47.000Z</time>
      </trkpt>
      <trkpt lat="45.0949" lon="2.90242">
        <ele>1073.1999511719</ele>
        <time>2024-01-30T16:37:48.000Z</time>
      </trkpt>
      <trkpt lat="45.09496" lon="2.90223">
        <ele>1072.5999755859</ele>
        <time>2024-01-30T16:37:49.000Z</time>
      </trkpt>
      <trkpt lat="45.09506" lon="2.90179">
        <ele>1071.8000488281</ele>
        <time>2024-01-30T16:37:51.000Z</time>
      </trkpt>
      <trkpt lat="45.09511" lon="2.90155">
        <ele>1071.4000244141</ele>
        <time>2024-01-30T16:37:52.000Z</time>
      </trkpt>
      <trkpt lat="45.09527" lon="2.90082">
        <ele>1071</ele>
        <time>2024-01-30T16:37:55.000Z</time>
      </trkpt>
      <trkpt lat="45.09533" lon="2.90057">
        <ele>1070.5999755859</ele>
        <time>2024-01-30T16:37:56.000Z</time>
      </trkpt>
      <trkpt lat="45.09539" lon="2.90032">
        <ele>1070.1999511719</ele>
        <time>2024-01-30T16:37:57.000Z</time>
      </trkpt>
      <trkpt lat="45.0955" lon="2.8998">
        <ele>1068.8000488281</ele>
        <time>2024-01-30T16:37:59.000Z</time>
      </trkpt>
      <trkpt lat="45.09562" lon="2.89929">
        <ele>1066.8000488281</ele>
        <time>2024-01-30T16:38:01.000Z</time>
      </trkpt>
      <trkpt lat="45.09573" lon="2.89875">
        <ele>1065.4000244141</ele>
        <time>2024-01-30T16:38:03.000Z</time>
      </trkpt>
      <trkpt lat="45.09585" lon="2.89823">
        <ele>1064.1999511719</ele>
        <time>2024-01-30T16:38:05.000Z</time>
      </trkpt>
      <trkpt lat="45.09596" lon="2.8977">
        <ele>1063</ele>
        <time>2024-01-30T16:38:07.000Z</time>
      </trkpt>
      <trkpt lat="45.09607" lon="2.89718">
        <ele>1061.4000244141</ele>
        <time>2024-01-30T16:38:09.000Z</time>
      </trkpt>
      <trkpt lat="45.09623" lon="2.89644">
        <ele>1060.4000244141</ele>
        <time>2024-01-30T16:38:12.000Z</time>
      </trkpt>
      <trkpt lat="45.09643" lon="2.89552">
        <ele>1059.4000244141</ele>
        <time>2024-01-30T16:38:16.000Z</time>
      </trkpt>
      <trkpt lat="45.09648" lon="2.8953">
        <ele>1059.1999511719</ele>
        <time>2024-01-30T16:38:17.000Z</time>
      </trkpt>
      <trkpt lat="45.09652" lon="2.8951">
        <ele>1058.8000488281</ele>
        <time>2024-01-30T16:38:18.000Z</time>
      </trkpt>
      <trkpt lat="45.09663" lon="2.89474">
        <ele>1057.5999755859</ele>
        <time>2024-01-30T16:38:20.000Z</time>
      </trkpt>
      <trkpt lat="45.0967" lon="2.89457">
        <ele>1057.1999511719</ele>
        <time>2024-01-30T16:38:21.000Z</time>
      </trkpt>
      <trkpt lat="45.09678" lon="2.89442">
        <ele>1056.8000488281</ele>
        <time>2024-01-30T16:38:22.000Z</time>
      </trkpt>
      <trkpt lat="45.09687" lon="2.89429">
        <ele>1056</ele>
        <time>2024-01-30T16:38:23.000Z</time>
      </trkpt>
      <trkpt lat="45.09696" lon="2.89419">
        <ele>1054.5999755859</ele>
        <time>2024-01-30T16:38:24.000Z</time>
      </trkpt>
      <trkpt lat="45.09704" lon="2.89411">
        <ele>1053.1999511719</ele>
        <time>2024-01-30T16:38:25.000Z</time>
      </trkpt>
      <trkpt lat="45.09717" lon="2.89399">
        <ele>1051.4000244141</ele>
        <time>2024-01-30T16:38:27.000Z</time>
      </trkpt>
      <trkpt lat="45.09724" lon="2.89389">
        <ele>1050</ele>
        <time>2024-01-30T16:38:29.000Z</time>
      </trkpt>
      <trkpt lat="45.09725" lon="2.89385">
        <ele>1049.1999511719</ele>
        <time>2024-01-30T16:38:30.000Z</time>
      </trkpt>
      <trkpt lat="45.09726" lon="2.89382">
        <ele>1048.5999755859</ele>
        <time>2024-01-30T16:38:31.000Z</time>
      </trkpt>
      <trkpt lat="45.09726" lon="2.8938">
        <ele>1048.4000244141</ele>
        <time>2024-01-30T16:38:34.000Z</time>
      </trkpt>
      <trkpt lat="45.09725" lon="2.89379">
        <ele>1048.4000244141</ele>
        <time>2024-01-30T16:38:37.000Z</time>
      </trkpt>
      <trkpt lat="45.0972" lon="2.89374">
        <ele>1048.4000244141</ele>
        <time>2024-01-30T16:38:39.000Z</time>
      </trkpt>
      <trkpt lat="45.09703" lon="2.89367">
        <ele>1047.1999511719</ele>
        <time>2024-01-30T16:38:43.000Z</time>
      </trkpt>
      <trkpt lat="45.09696" lon="2.89358">
        <ele>1046.8000488281</ele>
        <time>2024-01-30T16:38:45.000Z</time>
      </trkpt>
      <trkpt lat="45.09696" lon="2.89351">
        <ele>1046.1999511719</ele>
        <time>2024-01-30T16:38:46.000Z</time>
      </trkpt>
      <trkpt lat="45.09698" lon="2.89344">
        <ele>1045.5999755859</ele>
        <time>2024-01-30T16:38:47.000Z</time>
      </trkpt>
      <trkpt lat="45.09701" lon="2.89337">
        <ele>1044.8000488281</ele>
        <time>2024-01-30T16:38:48.000Z</time>
      </trkpt>
      <trkpt lat="45.09706" lon="2.8933">
        <ele>1044.5999755859</ele>
        <time>2024-01-30T16:38:49.000Z</time>
      </trkpt>
      <trkpt lat="45.09715" lon="2.89313">
        <ele>1043.5999755859</ele>
        <time>2024-01-30T16:38:51.000Z</time>
      </trkpt>
      <trkpt lat="45.09723" lon="2.8929">
        <ele>1042</ele>
        <time>2024-01-30T16:38:53.000Z</time>
      </trkpt>
      <trkpt lat="45.0973" lon="2.89269">
        <ele>1040.4000244141</ele>
        <time>2024-01-30T16:38:55.000Z</time>
      </trkpt>
      <trkpt lat="45.09735" lon="2.89258">
        <ele>1039.5999755859</ele>
        <time>2024-01-30T16:38:56.000Z</time>
      </trkpt>
      <trkpt lat="45.09741" lon="2.89248">
        <ele>1039</ele>
        <time>2024-01-30T16:38:57.000Z</time>
      </trkpt>
      <trkpt lat="45.09749" lon="2.89242">
        <ele>1038.5999755859</ele>
        <time>2024-01-30T16:38:58.000Z</time>
      </trkpt>
      <trkpt lat="45.09767" lon="2.89237">
        <ele>1037.5999755859</ele>
        <time>2024-01-30T16:39:00.000Z</time>
      </trkpt>
      <trkpt lat="45.09789" lon="2.89237">
        <ele>1036.4000244141</ele>
        <time>2024-01-30T16:39:02.000Z</time>
      </trkpt>
      <trkpt lat="45.09812" lon="2.89237">
        <ele>1034.8000488281</ele>
        <time>2024-01-30T16:39:04.000Z</time>
      </trkpt>
      <trkpt lat="45.09835" lon="2.89233">
        <ele>1033.5999755859</ele>
        <time>2024-01-30T16:39:06.000Z</time>
      </trkpt>
      <trkpt lat="45.09845" lon="2.89228">
        <ele>1032</ele>
        <time>2024-01-30T16:39:07.000Z</time>
      </trkpt>
      <trkpt lat="45.09854" lon="2.89222">
        <ele>1031.4000244141</ele>
        <time>2024-01-30T16:39:08.000Z</time>
      </trkpt>
      <trkpt lat="45.0986" lon="2.89213">
        <ele>1031</ele>
        <time>2024-01-30T16:39:09.000Z</time>
      </trkpt>
      <trkpt lat="45.09866" lon="2.89202">
        <ele>1030.4000244141</ele>
        <time>2024-01-30T16:39:10.000Z</time>
      </trkpt>
      <trkpt lat="45.09871" lon="2.89189">
        <ele>1030</ele>
        <time>2024-01-30T16:39:11.000Z</time>
      </trkpt>
      <trkpt lat="45.09876" lon="2.89173">
        <ele>1029.5999755859</ele>
        <time>2024-01-30T16:39:12.000Z</time>
      </trkpt>
      <trkpt lat="45.09881" lon="2.89156">
        <ele>1029</ele>
        <time>2024-01-30T16:39:13.000Z</time>
      </trkpt>
      <trkpt lat="45.09885" lon="2.89137">
        <ele>1028.1999511719</ele>
        <time>2024-01-30T16:39:14.000Z</time>
      </trkpt>
      <trkpt lat="45.09893" lon="2.89098">
        <ele>1026</ele>
        <time>2024-01-30T16:39:16.000Z</time>
      </trkpt>
      <trkpt lat="45.09896" lon="2.89078">
        <ele>1025</ele>
        <time>2024-01-30T16:39:17.000Z</time>
      </trkpt>
      <trkpt lat="45.09899" lon="2.89059">
        <ele>1024</ele>
        <time>2024-01-30T16:39:18.000Z</time>
      </trkpt>
      <trkpt lat="45.09901" lon="2.89042">
        <ele>1022</ele>
        <time>2024-01-30T16:39:19.000Z</time>
      </trkpt>
      <trkpt lat="45.09903" lon="2.89026">
        <ele>1020.4000244141</ele>
        <time>2024-01-30T16:39:20.000Z</time>
      </trkpt>
      <trkpt lat="45.09902" lon="2.89011">
        <ele>1019.4000244141</ele>
        <time>2024-01-30T16:39:21.000Z</time>
      </trkpt>
      <trkpt lat="45.09899" lon="2.88997">
        <ele>1018</ele>
        <time>2024-01-30T16:39:22.000Z</time>
      </trkpt>
      <trkpt lat="45.09895" lon="2.88984">
        <ele>1017.4000244141</ele>
        <time>2024-01-30T16:39:23.000Z</time>
      </trkpt>
      <trkpt lat="45.0988" lon="2.88957">
        <ele>1017.200012207</ele>
        <time>2024-01-30T16:39:25.000Z</time>
      </trkpt>
      <trkpt lat="45.09871" lon="2.88946">
        <ele>1016.799987793</ele>
        <time>2024-01-30T16:39:26.000Z</time>
      </trkpt>
      <trkpt lat="45.09861" lon="2.88936">
        <ele>1015.799987793</ele>
        <time>2024-01-30T16:39:27.000Z</time>
      </trkpt>
      <trkpt lat="45.0985" lon="2.88927">
        <ele>1015.4000244141</ele>
        <time>2024-01-30T16:39:28.000Z</time>
      </trkpt>
      <trkpt lat="45.09838" lon="2.88917">
        <ele>1014.5999755859</ele>
        <time>2024-01-30T16:39:29.000Z</time>
      </trkpt>
      <trkpt lat="45.09827" lon="2.88908">
        <ele>1013.200012207</ele>
        <time>2024-01-30T16:39:30.000Z</time>
      </trkpt>
      <trkpt lat="45.09816" lon="2.889">
        <ele>1011.5999755859</ele>
        <time>2024-01-30T16:39:31.000Z</time>
      </trkpt>
      <trkpt lat="45.098" lon="2.88889">
        <ele>1009.200012207</ele>
        <time>2024-01-30T16:39:33.000Z</time>
      </trkpt>
      <trkpt lat="45.09795" lon="2.88886">
        <ele>1008</ele>
        <time>2024-01-30T16:39:34.000Z</time>
      </trkpt>
      <trkpt lat="45.09791" lon="2.88883">
        <ele>1007.4000244141</ele>
        <time>2024-01-30T16:39:35.000Z</time>
      </trkpt>
      <trkpt lat="45.09789" lon="2.8888">
        <ele>1006.200012207</ele>
        <time>2024-01-30T16:39:36.000Z</time>
      </trkpt>
      <trkpt lat="45.09788" lon="2.88875">
        <ele>1005.5999755859</ele>
        <time>2024-01-30T16:39:37.000Z</time>
      </trkpt>
      <trkpt lat="45.0979" lon="2.88872">
        <ele>1005.200012207</ele>
        <time>2024-01-30T16:39:39.000Z</time>
      </trkpt>
      <trkpt lat="45.09791" lon="2.88871">
        <ele>1004.5999755859</ele>
        <time>2024-01-30T16:39:40.000Z</time>
      </trkpt>
      <trkpt lat="45.09796" lon="2.88876">
        <ele>1004.5999755859</ele>
        <time>2024-01-30T16:39:42.000Z</time>
      </trkpt>
      <trkpt lat="45.09801" lon="2.88878">
        <ele>1004.5999755859</ele>
        <time>2024-01-30T16:39:43.000Z</time>
      </trkpt>
      <trkpt lat="45.09821" lon="2.88888">
        <ele>1003.4000244141</ele>
        <time>2024-01-30T16:39:46.000Z</time>
      </trkpt>
      <trkpt lat="45.09839" lon="2.88895">
        <ele>1002.200012207</ele>
        <time>2024-01-30T16:39:48.000Z</time>
      </trkpt>
      <trkpt lat="45.09859" lon="2.88902">
        <ele>1000.4000244141</ele>
        <time>2024-01-30T16:39:50.000Z</time>
      </trkpt>
      <trkpt lat="45.09869" lon="2.88907">
        <ele>999.40002441406</ele>
        <time>2024-01-30T16:39:51.000Z</time>
      </trkpt>
      <trkpt lat="45.09891" lon="2.88919">
        <ele>997.79998779297</ele>
        <time>2024-01-30T16:39:53.000Z</time>
      </trkpt>
      <trkpt lat="45.0991" lon="2.88932">
        <ele>996.20001220703</ele>
        <time>2024-01-30T16:39:55.000Z</time>
      </trkpt>
      <trkpt lat="45.09921" lon="2.88949">
        <ele>994</ele>
        <time>2024-01-30T16:39:57.000Z</time>
      </trkpt>
      <trkpt lat="45.09923" lon="2.88958">
        <ele>992.79998779297</ele>
        <time>2024-01-30T16:39:58.000Z</time>
      </trkpt>
      <trkpt lat="45.09925" lon="2.88969">
        <ele>991.59997558594</ele>
        <time>2024-01-30T16:39:59.000Z</time>
      </trkpt>
      <trkpt lat="45.09928" lon="2.88981">
        <ele>990.59997558594</ele>
        <time>2024-01-30T16:40:01.000Z</time>
      </trkpt>
      <trkpt lat="45.09931" lon="2.88985">
        <ele>989.79998779297</ele>
        <time>2024-01-30T16:40:02.000Z</time>
      </trkpt>
      <trkpt lat="45.09939" lon="2.88983">
        <ele>989.40002441406</ele>
        <time>2024-01-30T16:40:04.000Z</time>
      </trkpt>
      <trkpt lat="45.09944" lon="2.88977">
        <ele>989.20001220703</ele>
        <time>2024-01-30T16:40:05.000Z</time>
      </trkpt>
      <trkpt lat="45.09947" lon="2.8896">
        <ele>988.79998779297</ele>
        <time>2024-01-30T16:40:07.000Z</time>
      </trkpt>
      <trkpt lat="45.09946" lon="2.8895">
        <ele>988.20001220703</ele>
        <time>2024-01-30T16:40:08.000Z</time>
      </trkpt>
      <trkpt lat="45.09944" lon="2.88939">
        <ele>987.79998779297</ele>
        <time>2024-01-30T16:40:09.000Z</time>
      </trkpt>
      <trkpt lat="45.0994" lon="2.88926">
        <ele>987.40002441406</ele>
        <time>2024-01-30T16:40:10.000Z</time>
      </trkpt>
      <trkpt lat="45.09935" lon="2.88913">
        <ele>987</ele>
        <time>2024-01-30T16:40:11.000Z</time>
      </trkpt>
      <trkpt lat="45.09922" lon="2.8888">
        <ele>985.40002441406</ele>
        <time>2024-01-30T16:40:13.000Z</time>
      </trkpt>
      <trkpt lat="45.09905" lon="2.88853">
        <ele>983.79998779297</ele>
        <time>2024-01-30T16:40:15.000Z</time>
      </trkpt>
      <trkpt lat="45.09881" lon="2.88825">
        <ele>982.59997558594</ele>
        <time>2024-01-30T16:40:17.000Z</time>
      </trkpt>
      <trkpt lat="45.09859" lon="2.88803">
        <ele>981</ele>
        <time>2024-01-30T16:40:19.000Z</time>
      </trkpt>
      <trkpt lat="45.09848" lon="2.8879">
        <ele>979.79998779297</ele>
        <time>2024-01-30T16:40:20.000Z</time>
      </trkpt>
      <trkpt lat="45.09834" lon="2.88775">
        <ele>978.79998779297</ele>
        <time>2024-01-30T16:40:21.000Z</time>
      </trkpt>
      <trkpt lat="45.09825" lon="2.88766">
        <ele>977.79998779297</ele>
        <time>2024-01-30T16:40:22.000Z</time>
      </trkpt>
      <trkpt lat="45.09813" lon="2.88758">
        <ele>976.59997558594</ele>
        <time>2024-01-30T16:40:23.000Z</time>
      </trkpt>
      <trkpt lat="45.09802" lon="2.88751">
        <ele>974.79998779297</ele>
        <time>2024-01-30T16:40:24.000Z</time>
      </trkpt>
      <trkpt lat="45.09792" lon="2.88746">
        <ele>974.20001220703</ele>
        <time>2024-01-30T16:40:25.000Z</time>
      </trkpt>
      <trkpt lat="45.09781" lon="2.88743">
        <ele>973.20001220703</ele>
        <time>2024-01-30T16:40:26.000Z</time>
      </trkpt>
      <trkpt lat="45.09774" lon="2.88741">
        <ele>972</ele>
        <time>2024-01-30T16:40:27.000Z</time>
      </trkpt>
      <trkpt lat="45.0977" lon="2.88739">
        <ele>971.40002441406</ele>
        <time>2024-01-30T16:40:28.000Z</time>
      </trkpt>
      <trkpt lat="45.09767" lon="2.88736">
        <ele>970.40002441406</ele>
        <time>2024-01-30T16:40:29.000Z</time>
      </trkpt>
      <trkpt lat="45.09766" lon="2.88732">
        <ele>970</ele>
        <time>2024-01-30T16:40:30.000Z</time>
      </trkpt>
      <trkpt lat="45.09768" lon="2.88726">
        <ele>969.40002441406</ele>
        <time>2024-01-30T16:40:32.000Z</time>
      </trkpt>
      <trkpt lat="45.09771" lon="2.88725">
        <ele>969</ele>
        <time>2024-01-30T16:40:33.000Z</time>
      </trkpt>
      <trkpt lat="45.09788" lon="2.88729">
        <ele>968.40002441406</ele>
        <time>2024-01-30T16:40:36.000Z</time>
      </trkpt>
      <trkpt lat="45.09796" lon="2.8873">
        <ele>968.20001220703</ele>
        <time>2024-01-30T16:40:37.000Z</time>
      </trkpt>
      <trkpt lat="45.09814" lon="2.88732">
        <ele>967</ele>
        <time>2024-01-30T16:40:39.000Z</time>
      </trkpt>
      <trkpt lat="45.09824" lon="2.88732">
        <ele>966.59997558594</ele>
        <time>2024-01-30T16:40:40.000Z</time>
      </trkpt>
      <trkpt lat="45.09835" lon="2.88732">
        <ele>966</ele>
        <time>2024-01-30T16:40:41.000Z</time>
      </trkpt>
      <trkpt lat="45.09855" lon="2.88734">
        <ele>964.59997558594</ele>
        <time>2024-01-30T16:40:43.000Z</time>
      </trkpt>
      <trkpt lat="45.09885" lon="2.88744">
        <ele>962.59997558594</ele>
        <time>2024-01-30T16:40:46.000Z</time>
      </trkpt>
      <trkpt lat="45.09907" lon="2.8875">
        <ele>961.20001220703</ele>
        <time>2024-01-30T16:40:48.000Z</time>
      </trkpt>
      <trkpt lat="45.0993" lon="2.88757">
        <ele>959.40002441406</ele>
        <time>2024-01-30T16:40:50.000Z</time>
      </trkpt>
      <trkpt lat="45.0994" lon="2.88762">
        <ele>958.59997558594</ele>
        <time>2024-01-30T16:40:51.000Z</time>
      </trkpt>
      <trkpt lat="45.09951" lon="2.8877">
        <ele>957.20001220703</ele>
        <time>2024-01-30T16:40:52.000Z</time>
      </trkpt>
      <trkpt lat="45.09973" lon="2.88791">
        <ele>955.20001220703</ele>
        <time>2024-01-30T16:40:54.000Z</time>
      </trkpt>
      <trkpt lat="45.09994" lon="2.88811">
        <ele>953</ele>
        <time>2024-01-30T16:40:56.000Z</time>
      </trkpt>
      <trkpt lat="45.10013" lon="2.88836">
        <ele>951</ele>
        <time>2024-01-30T16:40:58.000Z</time>
      </trkpt>
      <trkpt lat="45.1003" lon="2.88865">
        <ele>949.40002441406</ele>
        <time>2024-01-30T16:41:00.000Z</time>
      </trkpt>
      <trkpt lat="45.10049" lon="2.88894">
        <ele>946.79998779297</ele>
        <time>2024-01-30T16:41:02.000Z</time>
      </trkpt>
      <trkpt lat="45.10068" lon="2.88924">
        <ele>944.40002441406</ele>
        <time>2024-01-30T16:41:04.000Z</time>
      </trkpt>
      <trkpt lat="45.10077" lon="2.88937">
        <ele>943.20001220703</ele>
        <time>2024-01-30T16:41:05.000Z</time>
      </trkpt>
      <trkpt lat="45.10084" lon="2.8895">
        <ele>941.79998779297</ele>
        <time>2024-01-30T16:41:06.000Z</time>
      </trkpt>
      <trkpt lat="45.10091" lon="2.88962">
        <ele>940.59997558594</ele>
        <time>2024-01-30T16:41:07.000Z</time>
      </trkpt>
      <trkpt lat="45.10097" lon="2.88973">
        <ele>939.20001220703</ele>
        <time>2024-01-30T16:41:08.000Z</time>
      </trkpt>
      <trkpt lat="45.101" lon="2.88983">
        <ele>938</ele>
        <time>2024-01-30T16:41:09.000Z</time>
      </trkpt>
      <trkpt lat="45.10104" lon="2.88992">
        <ele>936.79998779297</ele>
        <time>2024-01-30T16:41:10.000Z</time>
      </trkpt>
      <trkpt lat="45.10107" lon="2.89008">
        <ele>935.59997558594</ele>
        <time>2024-01-30T16:41:12.000Z</time>
      </trkpt>
      <trkpt lat="45.10109" lon="2.89014">
        <ele>934.59997558594</ele>
        <time>2024-01-30T16:41:13.000Z</time>
      </trkpt>
      <trkpt lat="45.1011" lon="2.89017">
        <ele>933.79998779297</ele>
        <time>2024-01-30T16:41:14.000Z</time>
      </trkpt>
      <trkpt lat="45.10111" lon="2.89019">
        <ele>933.59997558594</ele>
        <time>2024-01-30T16:41:17.000Z</time>
      </trkpt>
      <trkpt lat="45.1011" lon="2.89018">
        <ele>933.79998779297</ele>
        <time>2024-01-30T16:41:26.000Z</time>
      </trkpt>
      <trkpt lat="45.10112" lon="2.89018">
        <ele>933.79998779297</ele>
        <time>2024-01-30T16:41:27.000Z</time>
      </trkpt>
      <trkpt lat="45.10118" lon="2.89012">
        <ele>933.79998779297</ele>
        <time>2024-01-30T16:41:29.000Z</time>
      </trkpt>
      <trkpt lat="45.10128" lon="2.8898">
        <ele>933.40002441406</ele>
        <time>2024-01-30T16:41:33.000Z</time>
      </trkpt>
      <trkpt lat="45.10138" lon="2.88938">
        <ele>932.20001220703</ele>
        <time>2024-01-30T16:41:36.000Z</time>
      </trkpt>
      <trkpt lat="45.10149" lon="2.88883">
        <ele>930.40002441406</ele>
        <time>2024-01-30T16:41:39.000Z</time>
      </trkpt>
      <trkpt lat="45.1015" lon="2.88862">
        <ele>930</ele>
        <time>2024-01-30T16:41:40.000Z</time>
      </trkpt>
      <trkpt lat="45.1015" lon="2.8884">
        <ele>929.20001220703</ele>
        <time>2024-01-30T16:41:41.000Z</time>
      </trkpt>
      <trkpt lat="45.10148" lon="2.88817">
        <ele>928.79998779297</ele>
        <time>2024-01-30T16:41:42.000Z</time>
      </trkpt>
      <trkpt lat="45.10137" lon="2.88773">
        <ele>927.79998779297</ele>
        <time>2024-01-30T16:41:44.000Z</time>
      </trkpt>
      <trkpt lat="45.10129" lon="2.88751">
        <ele>927.20001220703</ele>
        <time>2024-01-30T16:41:45.000Z</time>
      </trkpt>
      <trkpt lat="45.10118" lon="2.8873">
        <ele>926.40002441406</ele>
        <time>2024-01-30T16:41:46.000Z</time>
      </trkpt>
      <trkpt lat="45.10094" lon="2.88691">
        <ele>925.40002441406</ele>
        <time>2024-01-30T16:41:48.000Z</time>
      </trkpt>
      <trkpt lat="45.1007" lon="2.88651">
        <ele>923.79998779297</ele>
        <time>2024-01-30T16:41:50.000Z</time>
      </trkpt>
      <trkpt lat="45.10045" lon="2.88613">
        <ele>921.79998779297</ele>
        <time>2024-01-30T16:41:52.000Z</time>
      </trkpt>
      <trkpt lat="45.10034" lon="2.88592">
        <ele>920.79998779297</ele>
        <time>2024-01-30T16:41:53.000Z</time>
      </trkpt>
      <trkpt lat="45.10024" lon="2.88573">
        <ele>919.59997558594</ele>
        <time>2024-01-30T16:41:54.000Z</time>
      </trkpt>
      <trkpt lat="45.10003" lon="2.88537">
        <ele>918</ele>
        <time>2024-01-30T16:41:56.000Z</time>
      </trkpt>
      <trkpt lat="45.09994" lon="2.88518">
        <ele>916.79998779297</ele>
        <time>2024-01-30T16:41:57.000Z</time>
      </trkpt>
      <trkpt lat="45.09987" lon="2.88499">
        <ele>916.40002441406</ele>
        <time>2024-01-30T16:41:58.000Z</time>
      </trkpt>
      <trkpt lat="45.0998" lon="2.88479">
        <ele>915.40002441406</ele>
        <time>2024-01-30T16:41:59.000Z</time>
      </trkpt>
      <trkpt lat="45.09976" lon="2.88459">
        <ele>914.59997558594</ele>
        <time>2024-01-30T16:42:00.000Z</time>
      </trkpt>
      <trkpt lat="45.09974" lon="2.88438">
        <ele>913.59997558594</ele>
        <time>2024-01-30T16:42:01.000Z</time>
      </trkpt>
      <trkpt lat="45.09973" lon="2.88417">
        <ele>913.20001220703</ele>
        <time>2024-01-30T16:42:02.000Z</time>
      </trkpt>
      <trkpt lat="45.09977" lon="2.88375">
        <ele>912.20001220703</ele>
        <time>2024-01-30T16:42:04.000Z</time>
      </trkpt>
      <trkpt lat="45.09981" lon="2.88354">
        <ele>911.79998779297</ele>
        <time>2024-01-30T16:42:05.000Z</time>
      </trkpt>
      <trkpt lat="45.09997" lon="2.88316">
        <ele>911</ele>
        <time>2024-01-30T16:42:07.000Z</time>
      </trkpt>
      <trkpt lat="45.10016" lon="2.88278">
        <ele>909.59997558594</ele>
        <time>2024-01-30T16:42:09.000Z</time>
      </trkpt>
      <trkpt lat="45.10036" lon="2.88241">
        <ele>908.40002441406</ele>
        <time>2024-01-30T16:42:11.000Z</time>
      </trkpt>
      <trkpt lat="45.10056" lon="2.88203">
        <ele>907</ele>
        <time>2024-01-30T16:42:13.000Z</time>
      </trkpt>
      <trkpt lat="45.10077" lon="2.88163">
        <ele>905.79998779297</ele>
        <time>2024-01-30T16:42:15.000Z</time>
      </trkpt>
      <trkpt lat="45.10089" lon="2.88142">
        <ele>905</ele>
        <time>2024-01-30T16:42:16.000Z</time>
      </trkpt>
      <trkpt lat="45.101" lon="2.88121">
        <ele>904.40002441406</ele>
        <time>2024-01-30T16:42:17.000Z</time>
      </trkpt>
      <trkpt lat="45.10123" lon="2.88078">
        <ele>903.20001220703</ele>
        <time>2024-01-30T16:42:19.000Z</time>
      </trkpt>
      <trkpt lat="45.10146" lon="2.88034">
        <ele>902</ele>
        <time>2024-01-30T16:42:21.000Z</time>
      </trkpt>
      <trkpt lat="45.10167" lon="2.87991">
        <ele>900.79998779297</ele>
        <time>2024-01-30T16:42:23.000Z</time>
      </trkpt>
      <trkpt lat="45.1019" lon="2.87949">
        <ele>899.20001220703</ele>
        <time>2024-01-30T16:42:25.000Z</time>
      </trkpt>
      <trkpt lat="45.10211" lon="2.87909">
        <ele>898</ele>
        <time>2024-01-30T16:42:27.000Z</time>
      </trkpt>
      <trkpt lat="45.10232" lon="2.87869">
        <ele>897</ele>
        <time>2024-01-30T16:42:29.000Z</time>
      </trkpt>
      <trkpt lat="45.10243" lon="2.8785">
        <ele>896.40002441406</ele>
        <time>2024-01-30T16:42:30.000Z</time>
      </trkpt>
      <trkpt lat="45.10253" lon="2.8783">
        <ele>895.59997558594</ele>
        <time>2024-01-30T16:42:31.000Z</time>
      </trkpt>
      <trkpt lat="45.10264" lon="2.8781">
        <ele>894.59997558594</ele>
        <time>2024-01-30T16:42:32.000Z</time>
      </trkpt>
      <trkpt lat="45.10285" lon="2.87769">
        <ele>893.20001220703</ele>
        <time>2024-01-30T16:42:34.000Z</time>
      </trkpt>
      <trkpt lat="45.10308" lon="2.87727">
        <ele>891.79998779297</ele>
        <time>2024-01-30T16:42:36.000Z</time>
      </trkpt>
      <trkpt lat="45.1032" lon="2.87705">
        <ele>891</ele>
        <time>2024-01-30T16:42:37.000Z</time>
      </trkpt>
      <trkpt lat="45.10331" lon="2.87684">
        <ele>890.40002441406</ele>
        <time>2024-01-30T16:42:38.000Z</time>
      </trkpt>
      <trkpt lat="45.10357" lon="2.87646">
        <ele>890</ele>
        <time>2024-01-30T16:42:40.000Z</time>
      </trkpt>
      <trkpt lat="45.10402" lon="2.87605">
        <ele>889.79998779297</ele>
        <time>2024-01-30T16:42:43.000Z</time>
      </trkpt>
      <trkpt lat="45.10432" lon="2.87578">
        <ele>889.79998779297</ele>
        <time>2024-01-30T16:42:45.000Z</time>
      </trkpt>
      <trkpt lat="45.10445" lon="2.87562">
        <ele>890</ele>
        <time>2024-01-30T16:42:46.000Z</time>
      </trkpt>
      <trkpt lat="45.10457" lon="2.87544">
        <ele>889.79998779297</ele>
        <time>2024-01-30T16:42:47.000Z</time>
      </trkpt>
      <trkpt lat="45.10466" lon="2.87524">
        <ele>889.79998779297</ele>
        <time>2024-01-30T16:42:48.000Z</time>
      </trkpt>
      <trkpt lat="45.10473" lon="2.87502">
        <ele>889.59997558594</ele>
        <time>2024-01-30T16:42:49.000Z</time>
      </trkpt>
      <trkpt lat="45.10483" lon="2.87455">
        <ele>889</ele>
        <time>2024-01-30T16:42:51.000Z</time>
      </trkpt>
      <trkpt lat="45.10493" lon="2.87384">
        <ele>887.59997558594</ele>
        <time>2024-01-30T16:42:54.000Z</time>
      </trkpt>
      <trkpt lat="45.10505" lon="2.87319">
        <ele>886.79998779297</ele>
        <time>2024-01-30T16:42:57.000Z</time>
      </trkpt>
      <trkpt lat="45.10509" lon="2.87302">
        <ele>886.40002441406</ele>
        <time>2024-01-30T16:42:58.000Z</time>
      </trkpt>
      <trkpt lat="45.10519" lon="2.87276">
        <ele>885.79998779297</ele>
        <time>2024-01-30T16:43:00.000Z</time>
      </trkpt>
      <trkpt lat="45.10532" lon="2.8726">
        <ele>886</ele>
        <time>2024-01-30T16:43:02.000Z</time>
      </trkpt>
      <trkpt lat="45.10548" lon="2.87256">
        <ele>886</ele>
        <time>2024-01-30T16:43:04.000Z</time>
      </trkpt>
      <trkpt lat="45.10557" lon="2.87256">
        <ele>886.20001220703</ele>
        <time>2024-01-30T16:43:05.000Z</time>
      </trkpt>
      <trkpt lat="45.10584" lon="2.87264">
        <ele>886.40002441406</ele>
        <time>2024-01-30T16:43:08.000Z</time>
      </trkpt>
      <trkpt lat="45.10595" lon="2.8727">
        <ele>886.59997558594</ele>
        <time>2024-01-30T16:43:09.000Z</time>
      </trkpt>
      <trkpt lat="45.10601" lon="2.87277">
        <ele>886.79998779297</ele>
        <time>2024-01-30T16:43:10.000Z</time>
      </trkpt>
      <trkpt lat="45.10617" lon="2.87296">
        <ele>887.20001220703</ele>
        <time>2024-01-30T16:43:12.000Z</time>
      </trkpt>
      <trkpt lat="45.10634" lon="2.87316">
        <ele>887.59997558594</ele>
        <time>2024-01-30T16:43:14.000Z</time>
      </trkpt>
      <trkpt lat="45.10652" lon="2.87334">
        <ele>888.40002441406</ele>
        <time>2024-01-30T16:43:16.000Z</time>
      </trkpt>
      <trkpt lat="45.1066" lon="2.87341">
        <ele>889</ele>
        <time>2024-01-30T16:43:17.000Z</time>
      </trkpt>
      <trkpt lat="45.10671" lon="2.87348">
        <ele>889.59997558594</ele>
        <time>2024-01-30T16:43:18.000Z</time>
      </trkpt>
      <trkpt lat="45.10692" lon="2.87355">
        <ele>890.40002441406</ele>
        <time>2024-01-30T16:43:20.000Z</time>
      </trkpt>
      <trkpt lat="45.10702" lon="2.87357">
        <ele>891.20001220703</ele>
        <time>2024-01-30T16:43:21.000Z</time>
      </trkpt>
      <trkpt lat="45.10713" lon="2.87357">
        <ele>891.59997558594</ele>
        <time>2024-01-30T16:43:22.000Z</time>
      </trkpt>
      <trkpt lat="45.10733" lon="2.87354">
        <ele>893</ele>
        <time>2024-01-30T16:43:24.000Z</time>
      </trkpt>
      <trkpt lat="45.10764" lon="2.87343">
        <ele>894.20001220703</ele>
        <time>2024-01-30T16:43:27.000Z</time>
      </trkpt>
      <trkpt lat="45.10783" lon="2.87334">
        <ele>895.59997558594</ele>
        <time>2024-01-30T16:43:29.000Z</time>
      </trkpt>
      <trkpt lat="45.10792" lon="2.87329">
        <ele>895.79998779297</ele>
        <time>2024-01-30T16:43:30.000Z</time>
      </trkpt>
      <trkpt lat="45.10806" lon="2.87318">
        <ele>896.59997558594</ele>
        <time>2024-01-30T16:43:32.000Z</time>
      </trkpt>
      <trkpt lat="45.10818" lon="2.87308">
        <ele>897.40002441406</ele>
        <time>2024-01-30T16:43:34.000Z</time>
      </trkpt>
      <trkpt lat="45.10822" lon="2.87303">
        <ele>897.79998779297</ele>
        <time>2024-01-30T16:43:35.000Z</time>
      </trkpt>
      <trkpt lat="45.10841" lon="2.87286">
        <ele>899.20001220703</ele>
        <time>2024-01-30T16:43:39.000Z</time>
      </trkpt>
      <trkpt lat="45.1086" lon="2.8727">
        <ele>900.20001220703</ele>
        <time>2024-01-30T16:43:43.000Z</time>
      </trkpt>
      <trkpt lat="45.10873" lon="2.87258">
        <ele>901.40002441406</ele>
        <time>2024-01-30T16:43:46.000Z</time>
      </trkpt>
      <trkpt lat="45.10877" lon="2.87254">
        <ele>901.40002441406</ele>
        <time>2024-01-30T16:43:47.000Z</time>
      </trkpt>
      <trkpt lat="45.1089" lon="2.8724">
        <ele>902.59997558594</ele>
        <time>2024-01-30T16:43:50.000Z</time>
      </trkpt>
      <trkpt lat="45.10904" lon="2.87228">
        <ele>903.40002441406</ele>
        <time>2024-01-30T16:43:53.000Z</time>
      </trkpt>
      <trkpt lat="45.10908" lon="2.87225">
        <ele>903.79998779297</ele>
        <time>2024-01-30T16:43:54.000Z</time>
      </trkpt>
      <trkpt lat="45.10922" lon="2.87212">
        <ele>905</ele>
        <time>2024-01-30T16:43:58.000Z</time>
      </trkpt>
      <trkpt lat="45.10925" lon="2.8721">
        <ele>905.40002441406</ele>
        <time>2024-01-30T16:43:59.000Z</time>
      </trkpt>
      <trkpt lat="45.10935" lon="2.87202">
        <ele>906</ele>
        <time>2024-01-30T16:44:04.000Z</time>
      </trkpt>
      <trkpt lat="45.10935" lon="2.87201">
        <ele>906</ele>
        <time>2024-01-30T16:44:05.000Z</time>
      </trkpt>
      <trkpt lat="45.10936" lon="2.87202">
        <ele>906.20001220703</ele>
        <time>2024-01-30T16:44:11.000Z</time>
      </trkpt>
      <trkpt lat="45.10938" lon="2.872">
        <ele>906.59997558594</ele>
        <time>2024-01-30T16:44:20.000Z</time>
      </trkpt>
      <trkpt lat="45.1094" lon="2.87196">
        <ele>906.59997558594</ele>
        <time>2024-01-30T16:44:22.000Z</time>
      </trkpt>
      <trkpt lat="45.10942" lon="2.87193">
        <ele>906.59997558594</ele>
        <time>2024-01-30T16:44:23.000Z</time>
      </trkpt>
      <trkpt lat="45.10942" lon="2.87181">
        <ele>906.79998779297</ele>
        <time>2024-01-30T16:44:25.000Z</time>
      </trkpt>
      <trkpt lat="45.10938" lon="2.87154">
        <ele>906.79998779297</ele>
        <time>2024-01-30T16:44:28.000Z</time>
      </trkpt>
      <trkpt lat="45.10936" lon="2.87144">
        <ele>906.59997558594</ele>
        <time>2024-01-30T16:44:29.000Z</time>
      </trkpt>
      <trkpt lat="45.10933" lon="2.87074">
        <ele>905</ele>
        <time>2024-01-30T16:44:34.000Z</time>
      </trkpt>
      <trkpt lat="45.10932" lon="2.87063">
        <ele>900.3</ele>
      </trkpt>
      <trkpt lat="45.10933" lon="2.87053">
        <ele>900.2</ele>
      </trkpt>
      <trkpt lat="45.10936" lon="2.87042">
        <ele>900.4</ele>
      </trkpt>
      <trkpt lat="45.10942" lon="2.8702">
        <ele>900.8</ele>
      </trkpt>
      <trkpt lat="45.1095" lon="2.86992">
        <ele>901</ele>
      </trkpt>
      <trkpt lat="45.10955" lon="2.86974">
        <ele>900.8</ele>
      </trkpt>
      <trkpt lat="45.10957" lon="2.86964">
        <ele>901</ele>
      </trkpt>
      <trkpt lat="45.10959" lon="2.8695">
        <ele>901.4</ele>
      </trkpt>
      <trkpt lat="45.10959" lon="2.86934">
        <ele>901.5</ele>
      </trkpt>
      <trkpt lat="45.10959" lon="2.86926">
        <ele>901.5</ele>
      </trkpt>
      <trkpt lat="45.10968" lon="2.86926">
        <ele>904.59997558594</ele>
        <time>2024-01-30T16:46:39.000Z</time>
      </trkpt>
      <trkpt lat="45.10979" lon="2.86922">
        <ele>905.40002441406</ele>
        <time>2024-01-30T16:46:41.000Z</time>
      </trkpt>
      <trkpt lat="45.10985" lon="2.8692">
        <ele>906</ele>
        <time>2024-01-30T16:46:42.000Z</time>
      </trkpt>
      <trkpt lat="45.11001" lon="2.86917">
        <ele>907</ele>
        <time>2024-01-30T16:46:44.000Z</time>
      </trkpt>
      <trkpt lat="45.11012" lon="2.86915">
        <ele>908.59997558594</ele>
        <time>2024-01-30T16:46:46.000Z</time>
      </trkpt>
      <trkpt lat="45.1102" lon="2.86913">
        <ele>909.79998779297</ele>
        <time>2024-01-30T16:46:47.000Z</time>
      </trkpt>
      <trkpt lat="45.11025" lon="2.86913">
        <ele>910.40002441406</ele>
        <time>2024-01-30T16:46:48.000Z</time>
      </trkpt>
      <trkpt lat="45.11031" lon="2.86914">
        <ele>911</ele>
        <time>2024-01-30T16:46:49.000Z</time>
      </trkpt>
      <trkpt lat="45.11042" lon="2.86915">
        <ele>912.40002441406</ele>
        <time>2024-01-30T16:46:51.000Z</time>
      </trkpt>
      <trkpt lat="45.1105" lon="2.86915">
        <ele>913.59997558594</ele>
        <time>2024-01-30T16:46:53.000Z</time>
      </trkpt>
      <trkpt lat="45.11058" lon="2.86915">
        <ele>914.79998779297</ele>
        <time>2024-01-30T16:46:56.000Z</time>
      </trkpt>
      <trkpt lat="45.11059" lon="2.86915">
        <ele>915</ele>
        <time>2024-01-30T16:46:57.000Z</time>
      </trkpt>
      <trkpt lat="45.11059" lon="2.86915">
        <ele>915.59997558594</ele>
        <time>2024-01-30T16:47:02.000Z</time>
      </trkpt>
      <trkpt lat="45.1106" lon="2.86913">
        <ele>915.59997558594</ele>
        <time>2024-01-30T16:47:07.000Z</time>
      </trkpt>
      <trkpt lat="45.11061" lon="2.8691">
        <ele>915.59997558594</ele>
        <time>2024-01-30T16:47:09.000Z</time>
      </trkpt>
      <trkpt lat="45.11062" lon="2.86892">
        <ele>915.59997558594</ele>
        <time>2024-01-30T16:47:14.000Z</time>
      </trkpt>
      <trkpt lat="45.11063" lon="2.86856">
        <ele>915.40002441406</ele>
        <time>2024-01-30T16:47:19.000Z</time>
      </trkpt>
      <trkpt lat="45.11067" lon="2.86807">
        <ele>913.79998779297</ele>
        <time>2024-01-30T16:47:26.000Z</time>
      </trkpt>
      <trkpt lat="45.11067" lon="2.86799">
        <ele>913.79998779297</ele>
        <time>2024-01-30T16:47:27.000Z</time>
      </trkpt>
      <trkpt lat="45.11068" lon="2.86792">
        <ele>913.40002441406</ele>
        <time>2024-01-30T16:47:28.000Z</time>
      </trkpt>
      <trkpt lat="45.1107" lon="2.86773">
        <ele>912.40002441406</ele>
        <time>2024-01-30T16:47:31.000Z</time>
      </trkpt>
      <trkpt lat="45.1107" lon="2.86767">
        <ele>911.79998779297</ele>
        <time>2024-01-30T16:47:32.000Z</time>
      </trkpt>
      <trkpt lat="45.1107" lon="2.86765">
        <ele>911</ele>
        <time>2024-01-30T16:47:33.000Z</time>
      </trkpt>
      <trkpt lat="45.1107" lon="2.86765">
        <ele>910.59997558594</ele>
        <time>2024-01-30T16:47:35.000Z</time>
      </trkpt>
      <trkpt lat="45.1107" lon="2.86765">
        <ele>910.79998779297</ele>
        <time>2024-01-30T16:47:48.000Z</time>
      </trkpt>
      <trkpt lat="45.1107" lon="2.86765">
        <ele>911</ele>
        <time>2024-01-30T16:47:55.000Z</time>
      </trkpt>
      <trkpt lat="45.1107" lon="2.86765">
        <ele>911.20001220703</ele>
        <time>2024-01-30T16:48:00.000Z</time>
      </trkpt>
      <trkpt lat="45.11072" lon="2.86762">
        <ele>911.40002441406</ele>
        <time>2024-01-30T16:48:07.000Z</time>
      </trkpt>
      <trkpt lat="45.11073" lon="2.86763">
        <ele>911.40002441406</ele>
        <time>2024-01-30T16:48:08.000Z</time>
      </trkpt>
      <trkpt lat="45.11075" lon="2.86765">
        <ele>911.59997558594</ele>
        <time>2024-01-30T16:48:10.000Z</time>
      </trkpt>
      <trkpt lat="45.11077" lon="2.8677">
        <ele>911.79998779297</ele>
        <time>2024-01-30T16:48:12.000Z</time>
      </trkpt>
      <trkpt lat="45.11078" lon="2.86775">
        <ele>912</ele>
        <time>2024-01-30T16:48:13.000Z</time>
      </trkpt>
      <trkpt lat="45.11082" lon="2.86791">
        <ele>912.59997558594</ele>
        <time>2024-01-30T16:48:16.000Z</time>
      </trkpt>
      <trkpt lat="45.11083" lon="2.86807">
        <ele>913.40002441406</ele>
        <time>2024-01-30T16:48:18.000Z</time>
      </trkpt>
      <trkpt lat="45.11083" lon="2.86826">
        <ele>914.20001220703</ele>
        <time>2024-01-30T16:48:20.000Z</time>
      </trkpt>
      <trkpt lat="45.11083" lon="2.86838">
        <ele>914.59997558594</ele>
        <time>2024-01-30T16:48:21.000Z</time>
      </trkpt>
      <trkpt lat="45.11084" lon="2.86866">
        <ele>915.79998779297</ele>
        <time>2024-01-30T16:48:24.000Z</time>
      </trkpt>
      <trkpt lat="45.11083" lon="2.86882">
        <ele>916.40002441406</ele>
        <time>2024-01-30T16:48:26.000Z</time>
      </trkpt>
      <trkpt lat="45.11083" lon="2.86895">
        <ele>916.79998779297</ele>
        <time>2024-01-30T16:48:28.000Z</time>
      </trkpt>
      <trkpt lat="45.11082" lon="2.86905">
        <ele>917</ele>
        <time>2024-01-30T16:48:30.000Z</time>
      </trkpt>
      <trkpt lat="45.11083" lon="2.86922">
        <ele>917.79998779297</ele>
        <time>2024-01-30T16:48:34.000Z</time>
      </trkpt>
      <trkpt lat="45.11085" lon="2.8693">
        <ele>918</ele>
        <time>2024-01-30T16:48:36.000Z</time>
      </trkpt>
      <trkpt lat="45.11088" lon="2.86934">
        <ele>918.40002441406</ele>
        <time>2024-01-30T16:48:38.000Z</time>
      </trkpt>
      <trkpt lat="45.1109" lon="2.86933">
        <ele>918.59997558594</ele>
        <time>2024-01-30T16:48:39.000Z</time>
      </trkpt>
      <trkpt lat="45.11091" lon="2.86931">
        <ele>918.79998779297</ele>
        <time>2024-01-30T16:48:40.000Z</time>
      </trkpt>
      <trkpt lat="45.11091" lon="2.86928">
        <ele>918.79998779297</ele>
        <time>2024-01-30T16:48:41.000Z</time>
      </trkpt>
      <trkpt lat="45.11093" lon="2.8692">
        <ele>919</ele>
        <time>2024-01-30T16:48:43.000Z</time>
      </trkpt>
      <trkpt lat="45.11095" lon="2.86906">
        <ele>919.79998779297</ele>
        <time>2024-01-30T16:48:46.000Z</time>
      </trkpt>
      <trkpt lat="45.11096" lon="2.869">
        <ele>920</ele>
        <time>2024-01-30T16:48:47.000Z</time>
      </trkpt>
      <trkpt lat="45.11097" lon="2.86893">
        <ele>920.40002441406</ele>
        <time>2024-01-30T16:48:48.000Z</time>
      </trkpt>
      <trkpt lat="45.111" lon="2.86879">
        <ele>921.20001220703</ele>
        <time>2024-01-30T16:48:50.000Z</time>
      </trkpt>
      <trkpt lat="45.11103" lon="2.86867">
        <ele>922.20001220703</ele>
        <time>2024-01-30T16:48:52.000Z</time>
      </trkpt>
      <trkpt lat="45.11105" lon="2.86861">
        <ele>922.40002441406</ele>
        <time>2024-01-30T16:48:53.000Z</time>
      </trkpt>
      <trkpt lat="45.11108" lon="2.86853">
        <ele>923</ele>
        <time>2024-01-30T16:48:54.000Z</time>
      </trkpt>
      <trkpt lat="45.1111" lon="2.86847">
        <ele>923.59997558594</ele>
        <time>2024-01-30T16:48:55.000Z</time>
      </trkpt>
      <trkpt lat="45.11115" lon="2.86831">
        <ele>924.59997558594</ele>
        <time>2024-01-30T16:48:57.000Z</time>
      </trkpt>
      <trkpt lat="45.11121" lon="2.86815">
        <ele>925.79998779297</ele>
        <time>2024-01-30T16:48:59.000Z</time>
      </trkpt>
      <trkpt lat="45.11124" lon="2.86807">
        <ele>926.40002441406</ele>
        <time>2024-01-30T16:49:00.000Z</time>
      </trkpt>
      <trkpt lat="45.11127" lon="2.86797">
        <ele>927.20001220703</ele>
        <time>2024-01-30T16:49:01.000Z</time>
      </trkpt>
      <trkpt lat="45.11129" lon="2.86791">
        <ele>927.79998779297</ele>
        <time>2024-01-30T16:49:02.000Z</time>
      </trkpt>
      <trkpt lat="45.11132" lon="2.86784">
        <ele>928.40002441406</ele>
        <time>2024-01-30T16:49:03.000Z</time>
      </trkpt>
      <trkpt lat="45.11136" lon="2.86778">
        <ele>929.20001220703</ele>
        <time>2024-01-30T16:49:04.000Z</time>
      </trkpt>
      <trkpt lat="45.11139" lon="2.86772">
        <ele>929.59997558594</ele>
        <time>2024-01-30T16:49:05.000Z</time>
      </trkpt>
      <trkpt lat="45.11146" lon="2.86761">
        <ele>931</ele>
        <time>2024-01-30T16:49:07.000Z</time>
      </trkpt>
      <trkpt lat="45.1115" lon="2.86758">
        <ele>931.59997558594</ele>
        <time>2024-01-30T16:49:08.000Z</time>
      </trkpt>
      <trkpt lat="45.11154" lon="2.86756">
        <ele>932.40002441406</ele>
        <time>2024-01-30T16:49:09.000Z</time>
      </trkpt>
      <trkpt lat="45.11164" lon="2.86751">
        <ele>933.59997558594</ele>
        <time>2024-01-30T16:49:11.000Z</time>
      </trkpt>
      <trkpt lat="45.11173" lon="2.86748">
        <ele>934.79998779297</ele>
        <time>2024-01-30T16:49:13.000Z</time>
      </trkpt>
      <trkpt lat="45.11179" lon="2.8675">
        <ele>936.20001220703</ele>
        <time>2024-01-30T16:49:15.000Z</time>
      </trkpt>
      <trkpt lat="45.11186" lon="2.86757">
        <ele>937.20001220703</ele>
        <time>2024-01-30T16:49:17.000Z</time>
      </trkpt>
      <trkpt lat="45.11188" lon="2.86764">
        <ele>937.40002441406</ele>
        <time>2024-01-30T16:49:19.000Z</time>
      </trkpt>
      <trkpt lat="45.11189" lon="2.86765">
        <ele>937.79998779297</ele>
        <time>2024-01-30T16:49:23.000Z</time>
      </trkpt>
      <trkpt lat="45.1119" lon="2.86765">
        <ele>938</ele>
        <time>2024-01-30T16:49:24.000Z</time>
      </trkpt>
      <trkpt lat="45.11193" lon="2.86764">
        <ele>938</ele>
        <time>2024-01-30T16:49:26.000Z</time>
      </trkpt>
      <trkpt lat="45.11194" lon="2.86763">
        <ele>938.20001220703</ele>
        <time>2024-01-30T16:49:27.000Z</time>
      </trkpt>
      <trkpt lat="45.11194" lon="2.86763">
        <ele>938.59997558594</ele>
        <time>2024-01-30T16:49:33.000Z</time>
      </trkpt>
      <trkpt lat="45.11193" lon="2.86761">
        <ele>938.59997558594</ele>
        <time>2024-01-30T16:49:38.000Z</time>
      </trkpt>
      <trkpt lat="45.11191" lon="2.86755">
        <ele>938.79998779297</ele>
        <time>2024-01-30T16:49:40.000Z</time>
      </trkpt>
      <trkpt lat="45.11186" lon="2.86743">
        <ele>939.59997558594</ele>
        <time>2024-01-30T16:49:43.000Z</time>
      </trkpt>
      <trkpt lat="45.11182" lon="2.86734">
        <ele>940.40002441406</ele>
        <time>2024-01-30T16:49:45.000Z</time>
      </trkpt>
      <trkpt lat="45.11179" lon="2.86728">
        <ele>940.59997558594</ele>
        <time>2024-01-30T16:49:46.000Z</time>
      </trkpt>
      <trkpt lat="45.11173" lon="2.86711">
        <ele>941.79998779297</ele>
        <time>2024-01-30T16:49:48.000Z</time>
      </trkpt>
      <trkpt lat="45.11168" lon="2.86702">
        <ele>942.20001220703</ele>
        <time>2024-01-30T16:49:50.000Z</time>
      </trkpt>
      <trkpt lat="45.11161" lon="2.86688">
        <ele>942.59997558594</ele>
        <time>2024-01-30T16:49:54.000Z</time>
      </trkpt>
      <trkpt lat="45.1116" lon="2.86686">
        <ele>942.59997558594</ele>
        <time>2024-01-30T16:49:56.000Z</time>
      </trkpt>
      <trkpt lat="45.11158" lon="2.86682">
        <ele>943</ele>
        <time>2024-01-30T16:49:58.000Z</time>
      </trkpt>
      <trkpt lat="45.1115" lon="2.86673">
        <ele>943.59997558594</ele>
        <time>2024-01-30T16:50:01.000Z</time>
      </trkpt>
      <trkpt lat="45.11147" lon="2.86668">
        <ele>943.79998779297</ele>
        <time>2024-01-30T16:50:02.000Z</time>
      </trkpt>
      <trkpt lat="45.11144" lon="2.86663">
        <ele>944</ele>
        <time>2024-01-30T16:50:03.000Z</time>
      </trkpt>
      <trkpt lat="45.1114" lon="2.86657">
        <ele>944.20001220703</ele>
        <time>2024-01-30T16:50:04.000Z</time>
      </trkpt>
      <trkpt lat="45.11133" lon="2.86645">
        <ele>945.59997558594</ele>
        <time>2024-01-30T16:50:06.000Z</time>
      </trkpt>
      <trkpt lat="45.11124" lon="2.86629">
        <ele>946.20001220703</ele>
        <time>2024-01-30T16:50:08.000Z</time>
      </trkpt>
      <trkpt lat="45.11121" lon="2.8662">
        <ele>946.79998779297</ele>
        <time>2024-01-30T16:50:09.000Z</time>
      </trkpt>
      <trkpt lat="45.11114" lon="2.86602">
        <ele>948</ele>
        <time>2024-01-30T16:50:11.000Z</time>
      </trkpt>
      <trkpt lat="45.111" lon="2.86578">
        <ele>948.79998779297</ele>
        <time>2024-01-30T16:50:14.000Z</time>
      </trkpt>
      <trkpt lat="45.11097" lon="2.86572">
        <ele>949.20001220703</ele>
        <time>2024-01-30T16:50:15.000Z</time>
      </trkpt>
      <trkpt lat="45.1109" lon="2.86563">
        <ele>950</ele>
        <time>2024-01-30T16:50:18.000Z</time>
      </trkpt>
      <trkpt lat="45.11088" lon="2.86561">
        <ele>950.20001220703</ele>
        <time>2024-01-30T16:50:19.000Z</time>
      </trkpt>
      <trkpt lat="45.11084" lon="2.86555">
        <ele>950.79998779297</ele>
        <time>2024-01-30T16:50:23.000Z</time>
      </trkpt>
      <trkpt lat="45.11087" lon="2.8655">
        <ele>951.20001220703</ele>
        <time>2024-01-30T16:50:26.000Z</time>
      </trkpt>
      <trkpt lat="45.11091" lon="2.8655">
        <ele>951.20001220703</ele>
        <time>2024-01-30T16:50:28.000Z</time>
      </trkpt>
      <trkpt lat="45.111" lon="2.86565">
        <ele>952</ele>
        <time>2024-01-30T16:50:32.000Z</time>
      </trkpt>
      <trkpt lat="45.11107" lon="2.86579">
        <ele>952.59997558594</ele>
        <time>2024-01-30T16:50:34.000Z</time>
      </trkpt>
      <trkpt lat="45.11116" lon="2.86592">
        <ele>953.40002441406</ele>
        <time>2024-01-30T16:50:36.000Z</time>
      </trkpt>
      <trkpt lat="45.11122" lon="2.86599">
        <ele>953.59997558594</ele>
        <time>2024-01-30T16:50:37.000Z</time>
      </trkpt>
      <trkpt lat="45.11137" lon="2.86617">
        <ele>954.79998779297</ele>
        <time>2024-01-30T16:50:39.000Z</time>
      </trkpt>
      <trkpt lat="45.11145" lon="2.86627">
        <ele>955.40002441406</ele>
        <time>2024-01-30T16:50:40.000Z</time>
      </trkpt>
      <trkpt lat="45.11154" lon="2.86636">
        <ele>956.20001220703</ele>
        <time>2024-01-30T16:50:41.000Z</time>
      </trkpt>
      <trkpt lat="45.11171" lon="2.86655">
        <ele>957.20001220703</ele>
        <time>2024-01-30T16:50:43.000Z</time>
      </trkpt>
      <trkpt lat="45.11187" lon="2.86672">
        <ele>958.20001220703</ele>
        <time>2024-01-30T16:50:45.000Z</time>
      </trkpt>
      <trkpt lat="45.11203" lon="2.86684">
        <ele>958.79998779297</ele>
        <time>2024-01-30T16:50:47.000Z</time>
      </trkpt>
      <trkpt lat="45.1121" lon="2.86687">
        <ele>959.20001220703</ele>
        <time>2024-01-30T16:50:48.000Z</time>
      </trkpt>
      <trkpt lat="45.11218" lon="2.86689">
        <ele>959.79998779297</ele>
        <time>2024-01-30T16:50:49.000Z</time>
      </trkpt>
      <trkpt lat="45.11225" lon="2.8669">
        <ele>960.40002441406</ele>
        <time>2024-01-30T16:50:50.000Z</time>
      </trkpt>
      <trkpt lat="45.11243" lon="2.86692">
        <ele>961.40002441406</ele>
        <time>2024-01-30T16:50:52.000Z</time>
      </trkpt>
      <trkpt lat="45.11261" lon="2.8669">
        <ele>962.20001220703</ele>
        <time>2024-01-30T16:50:54.000Z</time>
      </trkpt>
      <trkpt lat="45.11271" lon="2.86689">
        <ele>963</ele>
        <time>2024-01-30T16:50:55.000Z</time>
      </trkpt>
      <trkpt lat="45.11291" lon="2.86687">
        <ele>964</ele>
        <time>2024-01-30T16:50:57.000Z</time>
      </trkpt>
      <trkpt lat="45.11307" lon="2.86685">
        <ele>964.79998779297</ele>
        <time>2024-01-30T16:50:59.000Z</time>
      </trkpt>
      <trkpt lat="45.11318" lon="2.8668">
        <ele>965.40002441406</ele>
        <time>2024-01-30T16:51:00.000Z</time>
      </trkpt>
      <trkpt lat="45.11335" lon="2.86669">
        <ele>966</ele>
        <time>2024-01-30T16:51:02.000Z</time>
      </trkpt>
      <trkpt lat="45.11351" lon="2.86659">
        <ele>966.59997558594</ele>
        <time>2024-01-30T16:51:04.000Z</time>
      </trkpt>
      <trkpt lat="45.11365" lon="2.86655">
        <ele>967</ele>
        <time>2024-01-30T16:51:06.000Z</time>
      </trkpt>
      <trkpt lat="45.11379" lon="2.86656">
        <ele>967.79998779297</ele>
        <time>2024-01-30T16:51:08.000Z</time>
      </trkpt>
      <trkpt lat="45.11387" lon="2.86655">
        <ele>968.79998779297</ele>
        <time>2024-01-30T16:51:09.000Z</time>
      </trkpt>
      <trkpt lat="45.11395" lon="2.86651">
        <ele>969.40002441406</ele>
        <time>2024-01-30T16:51:10.000Z</time>
      </trkpt>
      <trkpt lat="45.11403" lon="2.86646">
        <ele>970</ele>
        <time>2024-01-30T16:51:11.000Z</time>
      </trkpt>
      <trkpt lat="45.11409" lon="2.8664">
        <ele>970.79998779297</ele>
        <time>2024-01-30T16:51:12.000Z</time>
      </trkpt>
      <trkpt lat="45.11416" lon="2.86631">
        <ele>971.79998779297</ele>
        <time>2024-01-30T16:51:13.000Z</time>
      </trkpt>
      <trkpt lat="45.11425" lon="2.8662">
        <ele>972.79998779297</ele>
        <time>2024-01-30T16:51:14.000Z</time>
      </trkpt>
      <trkpt lat="45.11431" lon="2.86611">
        <ele>973.59997558594</ele>
        <time>2024-01-30T16:51:15.000Z</time>
      </trkpt>
      <trkpt lat="45.11439" lon="2.86597">
        <ele>975.20001220703</ele>
        <time>2024-01-30T16:51:16.000Z</time>
      </trkpt>
      <trkpt lat="45.11446" lon="2.86585">
        <ele>975.79998779297</ele>
        <time>2024-01-30T16:51:17.000Z</time>
      </trkpt>
      <trkpt lat="45.11452" lon="2.86573">
        <ele>976.59997558594</ele>
        <time>2024-01-30T16:51:18.000Z</time>
      </trkpt>
      <trkpt lat="45.11457" lon="2.86564">
        <ele>977.59997558594</ele>
        <time>2024-01-30T16:51:19.000Z</time>
        <extensions>
          <gpxtpx:TrackPointExtension xmlns:gpxtpx="http://www.garmin.com/xmlschemas/TrackPointExtension/v1">
            <gpxtpx:hr>75</gpxtpx:hr>
          </gpxtpx:TrackPointExtension>
        </extensions>
      </trkpt>
      <trkpt lat="45.11463" lon="2.86552">
        <ele>978.20001220703</ele>
        <time>2024-01-30T16:51:20.000Z</time>
        <extensions>
          <gpxtpx:TrackPointExtension xmlns:gpxtpx="http://www.garmin.com/xmlschemas/TrackPointExtension/v1">
            <gpxtpx:hr>72</gpxtpx:hr>
          </gpxtpx:TrackPointExtension>
        </extensions>
      </trkpt>
      <trkpt lat="45.11469" lon="2.86537">
        <ele>979.40002441406</ele>
        <time>2024-01-30T16:51:21.000Z</time>
        <extensions>
          <gpxtpx:TrackPointExtension xmlns:gpxtpx="http://www.garmin.com/xmlschemas/TrackPointExtension/v1">
            <gpxtpx:hr>71</gpxtpx:hr>
          </gpxtpx:TrackPointExtension>
        </extensions>
      </trkpt>
      <trkpt lat="45.11473" lon="2.86524">
        <ele>980.40002441406</ele>
        <time>2024-01-30T16:51:22.000Z</time>
        <extensions>
          <gpxtpx:TrackPointExtension xmlns:gpxtpx="http://www.garmin.com/xmlschemas/TrackPointExtension/v1">
            <gpxtpx:hr>74</gpxtpx:hr>
          </gpxtpx:TrackPointExtension>
        </extensions>
      </trkpt>
      <trkpt lat="45.11477" lon="2.86512">
        <ele>981.20001220703</ele>
        <time>2024-01-30T16:51:23.000Z</time>
        <extensions>
          <gpxtpx:TrackPointExtension xmlns:gpxtpx="http://www.garmin.com/xmlschemas/TrackPointExtension/v1">
            <gpxtpx:hr>72</gpxtpx:hr>
          </gpxtpx:TrackPointExtension>
        </extensions>
      </trkpt>
      <trkpt lat="45.11479" lon="2.865">
        <ele>982.20001220703</ele>
        <time>2024-01-30T16:51:24.000Z</time>
        <extensions>
          <gpxtpx:TrackPointExtension xmlns:gpxtpx="http://www.garmin.com/xmlschemas/TrackPointExtension/v1">
            <gpxtpx:hr>70</gpxtpx:hr>
          </gpxtpx:TrackPointExtension>
        </extensions>
      </trkpt>
      <trkpt lat="45.11481" lon="2.8648">
        <ele>983.59997558594</ele>
        <time>2024-01-30T16:51:26.000Z</time>
        <extensions>
          <gpxtpx:TrackPointExtension xmlns:gpxtpx="http://www.garmin.com/xmlschemas/TrackPointExtension/v1">
            <gpxtpx:hr>70</gpxtpx:hr>
          </gpxtpx:TrackPointExtension>
        </extensions>
      </trkpt>
      <trkpt lat="45.11481" lon="2.86468">
        <ele>984.79998779297</ele>
        <time>2024-01-30T16:51:27.000Z</time>
        <extensions>
          <gpxtpx:TrackPointExtension xmlns:gpxtpx="http://www.garmin.com/xmlschemas/TrackPointExtension/v1">
            <gpxtpx:hr>73</gpxtpx:hr>
          </gpxtpx:TrackPointExtension>
        </extensions>
      </trkpt>
      <trkpt lat="45.1148" lon="2.86451">
        <ele>985.20001220703</ele>
        <time>2024-01-30T16:51:29.000Z</time>
        <extensions>
          <gpxtpx:TrackPointExtension xmlns:gpxtpx="http://www.garmin.com/xmlschemas/TrackPointExtension/v1">
            <gpxtpx:hr>73</gpxtpx:hr>
          </gpxtpx:TrackPointExtension>
        </extensions>
      </trkpt>
      <trkpt lat="45.1148" lon="2.86443">
        <ele>985.79998779297</ele>
        <time>2024-01-30T16:51:30.000Z</time>
        <extensions>
          <gpxtpx:TrackPointExtension xmlns:gpxtpx="http://www.garmin.com/xmlschemas/TrackPointExtension/v1">
            <gpxtpx:hr>78</gpxtpx:hr>
          </gpxtpx:TrackPointExtension>
        </extensions>
      </trkpt>
      <trkpt lat="45.11478" lon="2.8643">
        <ele>986.40002441406</ele>
        <time>2024-01-30T16:51:33.000Z</time>
        <extensions>
          <gpxtpx:TrackPointExtension xmlns:gpxtpx="http://www.garmin.com/xmlschemas/TrackPointExtension/v1">
            <gpxtpx:hr>77</gpxtpx:hr>
          </gpxtpx:TrackPointExtension>
        </extensions>
      </trkpt>
      <trkpt lat="45.11481" lon="2.86425">
        <ele>986.79998779297</ele>
        <time>2024-01-30T16:51:35.000Z</time>
        <extensions>
          <gpxtpx:TrackPointExtension xmlns:gpxtpx="http://www.garmin.com/xmlschemas/TrackPointExtension/v1">
            <gpxtpx:hr>82</gpxtpx:hr>
          </gpxtpx:TrackPointExtension>
        </extensions>
      </trkpt>
      <trkpt lat="45.11483" lon="2.86425">
        <ele>987</ele>
        <time>2024-01-30T16:51:36.000Z</time>
        <extensions>
          <gpxtpx:TrackPointExtension xmlns:gpxtpx="http://www.garmin.com/xmlschemas/TrackPointExtension/v1">
            <gpxtpx:hr>84</gpxtpx:hr>
          </gpxtpx:TrackPointExtension>
        </extensions>
      </trkpt>
      <trkpt lat="45.11485" lon="2.86427">
        <ele>987.20001220703</ele>
        <time>2024-01-30T16:51:37.000Z</time>
        <extensions>
          <gpxtpx:TrackPointExtension xmlns:gpxtpx="http://www.garmin.com/xmlschemas/TrackPointExtension/v1">
            <gpxtpx:hr>84</gpxtpx:hr>
          </gpxtpx:TrackPointExtension>
        </extensions>
      </trkpt>
      <trkpt lat="45.1146" lon="2.86366">
        <ele>987.1</ele>
      </trkpt>
      <trkpt lat="45.11494" lon="2.86301">
        <ele>988.8</ele>
      </trkpt>
      <trkpt lat="45.11597" lon="2.86048">
        <ele>1002.2</ele>
      </trkpt>
      <trkpt lat="45.11657" lon="2.85902">
        <ele>1009.9</ele>
      </trkpt>
      <trkpt lat="45.11709" lon="2.85752">
        <ele>1015.1</ele>
      </trkpt>
      <trkpt lat="45.1179" lon="2.85627">
        <ele>1023.7</ele>
      </trkpt>
      <trkpt lat="45.11842" lon="2.85434">
        <ele>1026.8</ele>
      </trkpt>
      <trkpt lat="45.11884" lon="2.85284">
        <ele>1028.9</ele>
      </trkpt>
      <trkpt lat="45.1199" lon="2.85125">
        <ele>1037.4</ele>
      </trkpt>
      <trkpt lat="45.12099" lon="2.85052">
        <ele>1046.8</ele>
      </trkpt>
      <trkpt lat="45.12226" lon="2.85039">
        <ele>1057.2</ele>
      </trkpt>
      <trkpt lat="45.12372" lon="2.85039">
        <ele>1071.1</ele>
      </trkpt>
      <trkpt lat="45.12475" lon="2.85031">
        <ele>1076</ele>
      </trkpt>
      <trkpt lat="45.12544" lon="2.85005">
        <ele>1079.1</ele>
      </trkpt>
      <trkpt lat="45.12626" lon="2.84876">
        <ele>1087.6</ele>
      </trkpt>
      <trkpt lat="45.12717" lon="2.84748">
        <ele>1090.8</ele>
      </trkpt>
      <trkpt lat="45.12766" lon="2.84691">
        <ele>1092.5999755859</ele>
        <time>2024-01-30T17:01:09.000Z</time>
      </trkpt>
      <trkpt lat="45.12776" lon="2.8468">
        <ele>1093</ele>
        <time>2024-01-30T17:01:11.000Z</time>
      </trkpt>
      <trkpt lat="45.12783" lon="2.84673">
        <ele>1093.5999755859</ele>
        <time>2024-01-30T17:01:12.000Z</time>
      </trkpt>
      <trkpt lat="45.128" lon="2.84656">
        <ele>1095</ele>
        <time>2024-01-30T17:01:14.000Z</time>
      </trkpt>
      <trkpt lat="45.1281" lon="2.84646">
        <ele>1095.1999511719</ele>
        <time>2024-01-30T17:01:15.000Z</time>
      </trkpt>
      <trkpt lat="45.12823" lon="2.84632">
        <ele>1096</ele>
        <time>2024-01-30T17:01:16.000Z</time>
      </trkpt>
      <trkpt lat="45.12844" lon="2.84608">
        <ele>1097.8000488281</ele>
        <time>2024-01-30T17:01:18.000Z</time>
      </trkpt>
      <trkpt lat="45.1287" lon="2.84579">
        <ele>1099.1999511719</ele>
        <time>2024-01-30T17:01:20.000Z</time>
      </trkpt>
      <trkpt lat="45.12884" lon="2.84563">
        <ele>1100.4000244141</ele>
        <time>2024-01-30T17:01:21.000Z</time>
      </trkpt>
      <trkpt lat="45.12913" lon="2.84531">
        <ele>1102.4000244141</ele>
        <time>2024-01-30T17:01:23.000Z</time>
      </trkpt>
      <trkpt lat="45.12929" lon="2.84514">
        <ele>1103.8000488281</ele>
        <time>2024-01-30T17:01:24.000Z</time>
      </trkpt>
      <trkpt lat="45.12945" lon="2.84497">
        <ele>1105.1999511719</ele>
        <time>2024-01-30T17:01:25.000Z</time>
      </trkpt>
      <trkpt lat="45.1296" lon="2.8448">
        <ele>1106.1999511719</ele>
        <time>2024-01-30T17:01:26.000Z</time>
      </trkpt>
      <trkpt lat="45.12975" lon="2.84462">
        <ele>1107.5999755859</ele>
        <time>2024-01-30T17:01:27.000Z</time>
      </trkpt>
      <trkpt lat="45.13004" lon="2.84424">
        <ele>1109</ele>
        <time>2024-01-30T17:01:29.000Z</time>
      </trkpt>
      <trkpt lat="45.13018" lon="2.844">
        <ele>1109.1999511719</ele>
        <time>2024-01-30T17:01:30.000Z</time>
      </trkpt>
      <trkpt lat="45.13048" lon="2.84337">
        <ele>1109.4000244141</ele>
        <time>2024-01-30T17:01:33.000Z</time>
      </trkpt>
      <trkpt lat="45.13085" lon="2.84258">
        <ele>1108.8000488281</ele>
        <time>2024-01-30T17:01:37.000Z</time>
      </trkpt>
      <trkpt lat="45.13113" lon="2.84201">
        <ele>1109.5999755859</ele>
        <time>2024-01-30T17:01:40.000Z</time>
      </trkpt>
      <trkpt lat="45.13125" lon="2.84176">
        <ele>1111</ele>
        <time>2024-01-30T17:01:41.000Z</time>
      </trkpt>
      <trkpt lat="45.13144" lon="2.84132">
        <ele>1113.1999511719</ele>
        <time>2024-01-30T17:01:43.000Z</time>
      </trkpt>
      <trkpt lat="45.13154" lon="2.84109">
        <ele>1114.5999755859</ele>
        <time>2024-01-30T17:01:44.000Z</time>
      </trkpt>
      <trkpt lat="45.13164" lon="2.84085">
        <ele>1115.8000488281</ele>
        <time>2024-01-30T17:01:45.000Z</time>
      </trkpt>
      <trkpt lat="45.13173" lon="2.84061">
        <ele>1117.4000244141</ele>
        <time>2024-01-30T17:01:46.000Z</time>
      </trkpt>
      <trkpt lat="45.13183" lon="2.84036">
        <ele>1118.8000488281</ele>
        <time>2024-01-30T17:01:47.000Z</time>
      </trkpt>
      <trkpt lat="45.1319" lon="2.84009">
        <ele>1120.5999755859</ele>
        <time>2024-01-30T17:01:48.000Z</time>
      </trkpt>
      <trkpt lat="45.13198" lon="2.83982">
        <ele>1121.8000488281</ele>
        <time>2024-01-30T17:01:49.000Z</time>
      </trkpt>
      <trkpt lat="45.13205" lon="2.83954">
        <ele>1123.4000244141</ele>
        <time>2024-01-30T17:01:50.000Z</time>
      </trkpt>
      <trkpt lat="45.13211" lon="2.83925">
        <ele>1124.5999755859</ele>
        <time>2024-01-30T17:01:51.000Z</time>
      </trkpt>
      <trkpt lat="45.13217" lon="2.83896">
        <ele>1126.1999511719</ele>
        <time>2024-01-30T17:01:52.000Z</time>
      </trkpt>
      <trkpt lat="45.13223" lon="2.83866">
        <ele>1127.1999511719</ele>
        <time>2024-01-30T17:01:53.000Z</time>
      </trkpt>
      <trkpt lat="45.13229" lon="2.83835">
        <ele>1128.8000488281</ele>
        <time>2024-01-30T17:01:54.000Z</time>
      </trkpt>
      <trkpt lat="45.13235" lon="2.83805">
        <ele>1130.8000488281</ele>
        <time>2024-01-30T17:01:55.000Z</time>
      </trkpt>
      <trkpt lat="45.13242" lon="2.83774">
        <ele>1132.4000244141</ele>
        <time>2024-01-30T17:01:56.000Z</time>
      </trkpt>
      <trkpt lat="45.13255" lon="2.83711">
        <ele>1135.1999511719</ele>
        <time>2024-01-30T17:01:58.000Z</time>
      </trkpt>
      <trkpt lat="45.13261" lon="2.8368">
        <ele>1137.1999511719</ele>
        <time>2024-01-30T17:01:59.000Z</time>
      </trkpt>
      <trkpt lat="45.13268" lon="2.83649">
        <ele>1138.5999755859</ele>
        <time>2024-01-30T17:02:00.000Z</time>
      </trkpt>
      <trkpt lat="45.13276" lon="2.83617">
        <ele>1140</ele>
        <time>2024-01-30T17:02:01.000Z</time>
      </trkpt>
      <trkpt lat="45.13284" lon="2.83585">
        <ele>1141.5999755859</ele>
        <time>2024-01-30T17:02:02.000Z</time>
      </trkpt>
      <trkpt lat="45.13292" lon="2.83554">
        <ele>1143.1999511719</ele>
        <time>2024-01-30T17:02:03.000Z</time>
      </trkpt>
      <trkpt lat="45.133" lon="2.83523">
        <ele>1144.8000488281</ele>
        <time>2024-01-30T17:02:04.000Z</time>
      </trkpt>
      <trkpt lat="45.13308" lon="2.83491">
        <ele>1146.4000244141</ele>
        <time>2024-01-30T17:02:05.000Z</time>
      </trkpt>
      <trkpt lat="45.13316" lon="2.83459">
        <ele>1148</ele>
        <time>2024-01-30T17:02:06.000Z</time>
      </trkpt>
      <trkpt lat="45.13332" lon="2.83395">
        <ele>1150.5999755859</ele>
        <time>2024-01-30T17:02:08.000Z</time>
      </trkpt>
      <trkpt lat="45.1334" lon="2.83363">
        <ele>1152.4000244141</ele>
        <time>2024-01-30T17:02:09.000Z</time>
      </trkpt>
      <trkpt lat="45.13348" lon="2.83331">
        <ele>1154</ele>
        <time>2024-01-30T17:02:10.000Z</time>
      </trkpt>
      <trkpt lat="45.13357" lon="2.83299">
        <ele>1155.8000488281</ele>
        <time>2024-01-30T17:02:11.000Z</time>
      </trkpt>
      <trkpt lat="45.13365" lon="2.83268">
        <ele>1157.5999755859</ele>
        <time>2024-01-30T17:02:12.000Z</time>
      </trkpt>
      <trkpt lat="45.13374" lon="2.83236">
        <ele>1159.1999511719</ele>
        <time>2024-01-30T17:02:13.000Z</time>
      </trkpt>
      <trkpt lat="45.13383" lon="2.83206">
        <ele>1160.1999511719</ele>
        <time>2024-01-30T17:02:14.000Z</time>
      </trkpt>
      <trkpt lat="45.13393" lon="2.83177">
        <ele>1161.8000488281</ele>
        <time>2024-01-30T17:02:15.000Z</time>
      </trkpt>
      <trkpt lat="45.13402" lon="2.83155">
        <ele>1162.4000244141</ele>
        <time>2024-01-30T17:02:16.000Z</time>
      </trkpt>
      <trkpt lat="45.13416" lon="2.83123">
        <ele>1164.1999511719</ele>
        <time>2024-01-30T17:02:17.000Z</time>
      </trkpt>
      <trkpt lat="45.13429" lon="2.83097">
        <ele>1165.5999755859</ele>
        <time>2024-01-30T17:02:18.000Z</time>
      </trkpt>
      <trkpt lat="45.13441" lon="2.83078">
        <ele>1167.1999511719</ele>
        <time>2024-01-30T17:02:19.000Z</time>
      </trkpt>
      <trkpt lat="45.13461" lon="2.83052">
        <ele>1168.8000488281</ele>
        <time>2024-01-30T17:02:20.000Z</time>
      </trkpt>
      <trkpt lat="45.13479" lon="2.83031">
        <ele>1170.1999511719</ele>
        <time>2024-01-30T17:02:21.000Z</time>
      </trkpt>
      <trkpt lat="45.13498" lon="2.83011">
        <ele>1171.1999511719</ele>
        <time>2024-01-30T17:02:22.000Z</time>
      </trkpt>
      <trkpt lat="45.13517" lon="2.82992">
        <ele>1172.5999755859</ele>
        <time>2024-01-30T17:02:23.000Z</time>
      </trkpt>
      <trkpt lat="45.13536" lon="2.82975">
        <ele>1173.5999755859</ele>
        <time>2024-01-30T17:02:24.000Z</time>
      </trkpt>
      <trkpt lat="45.13557" lon="2.8296">
        <ele>1175</ele>
        <time>2024-01-30T17:02:25.000Z</time>
      </trkpt>
      <trkpt lat="45.136" lon="2.82933">
        <ele>1177.5999755859</ele>
        <time>2024-01-30T17:02:27.000Z</time>
      </trkpt>
      <trkpt lat="45.13622" lon="2.82919">
        <ele>1178.5999755859</ele>
        <time>2024-01-30T17:02:28.000Z</time>
      </trkpt>
      <trkpt lat="45.13665" lon="2.82891">
        <ele>1180</ele>
        <time>2024-01-30T17:02:30.000Z</time>
      </trkpt>
      <trkpt lat="45.13687" lon="2.82877">
        <ele>1180.8000488281</ele>
        <time>2024-01-30T17:02:31.000Z</time>
      </trkpt>
      <trkpt lat="45.13707" lon="2.82861">
        <ele>1181.1999511719</ele>
        <time>2024-01-30T17:02:32.000Z</time>
      </trkpt>
      <trkpt lat="45.13742" lon="2.82828">
        <ele>1182.1999511719</ele>
        <time>2024-01-30T17:02:34.000Z</time>
      </trkpt>
      <trkpt lat="45.13796" lon="2.82767">
        <ele>1183.4000244141</ele>
        <time>2024-01-30T17:02:37.000Z</time>
      </trkpt>
      <trkpt lat="45.13834" lon="2.82721">
        <ele>1184.1999511719</ele>
        <time>2024-01-30T17:02:39.000Z</time>
      </trkpt>
      <trkpt lat="45.13864" lon="2.82683">
        <ele>1184.4000244141</ele>
        <time>2024-01-30T17:02:41.000Z</time>
      </trkpt>
      <trkpt lat="45.13894" lon="2.82641">
        <ele>1184.5999755859</ele>
        <time>2024-01-30T17:02:43.000Z</time>
      </trkpt>
      <trkpt lat="45.1392" lon="2.82595">
        <ele>1184.5999755859</ele>
        <time>2024-01-30T17:02:45.000Z</time>
      </trkpt>
      <trkpt lat="45.1393" lon="2.8257">
        <ele>1185</ele>
        <time>2024-01-30T17:02:46.000Z</time>
      </trkpt>
      <trkpt lat="45.1394" lon="2.82542">
        <ele>1185.5999755859</ele>
        <time>2024-01-30T17:02:47.000Z</time>
      </trkpt>
      <trkpt lat="45.13966" lon="2.82455">
        <ele>1186.8000488281</ele>
        <time>2024-01-30T17:02:50.000Z</time>
      </trkpt>
      <trkpt lat="45.13992" lon="2.82363">
        <ele>1187.8000488281</ele>
        <time>2024-01-30T17:02:53.000Z</time>
      </trkpt>
      <trkpt lat="45.14001" lon="2.82333">
        <ele>1188.1999511719</ele>
        <time>2024-01-30T17:02:54.000Z</time>
      </trkpt>
      <trkpt lat="45.14018" lon="2.82275">
        <ele>1189</ele>
        <time>2024-01-30T17:02:56.000Z</time>
      </trkpt>
      <trkpt lat="45.14027" lon="2.82247">
        <ele>1189.8000488281</ele>
        <time>2024-01-30T17:02:57.000Z</time>
      </trkpt>
      <trkpt lat="45.1406" lon="2.82168">
        <ele>1191</ele>
        <time>2024-01-30T17:03:00.000Z</time>
      </trkpt>
      <trkpt lat="45.14109" lon="2.82099">
        <ele>1192.1999511719</ele>
        <time>2024-01-30T17:03:03.000Z</time>
      </trkpt>
      <trkpt lat="45.14161" lon="2.82043">
        <ele>1193.8000488281</ele>
        <time>2024-01-30T17:03:06.000Z</time>
      </trkpt>
      <trkpt lat="45.14181" lon="2.82023">
        <ele>1194.1999511719</ele>
        <time>2024-01-30T17:03:07.000Z</time>
      </trkpt>
      <trkpt lat="45.1422" lon="2.81982">
        <ele>1195</ele>
        <time>2024-01-30T17:03:09.000Z</time>
      </trkpt>
      <trkpt lat="45.14281" lon="2.81916">
        <ele>1195.8000488281</ele>
        <time>2024-01-30T17:03:12.000Z</time>
      </trkpt>
      <trkpt lat="45.14301" lon="2.81895">
        <ele>1196.1999511719</ele>
        <time>2024-01-30T17:03:13.000Z</time>
      </trkpt>
      <trkpt lat="45.14362" lon="2.81828">
        <ele>1196.8000488281</ele>
        <time>2024-01-30T17:03:16.000Z</time>
      </trkpt>
      <trkpt lat="45.14403" lon="2.81784">
        <ele>1197.4000244141</ele>
        <time>2024-01-30T17:03:18.000Z</time>
      </trkpt>
      <trkpt lat="45.14443" lon="2.81741">
        <ele>1198</ele>
        <time>2024-01-30T17:03:20.000Z</time>
      </trkpt>
      <trkpt lat="45.14463" lon="2.8172">
        <ele>1198.4000244141</ele>
        <time>2024-01-30T17:03:21.000Z</time>
      </trkpt>
      <trkpt lat="45.14483" lon="2.81698">
        <ele>1199.4000244141</ele>
        <time>2024-01-30T17:03:22.000Z</time>
      </trkpt>
      <trkpt lat="45.14521" lon="2.81656">
        <ele>1201.4000244141</ele>
        <time>2024-01-30T17:03:24.000Z</time>
      </trkpt>
      <trkpt lat="45.1454" lon="2.81636">
        <ele>1202.4000244141</ele>
        <time>2024-01-30T17:03:25.000Z</time>
      </trkpt>
      <trkpt lat="45.14557" lon="2.81616">
        <ele>1203.8000488281</ele>
        <time>2024-01-30T17:03:26.000Z</time>
      </trkpt>
      <trkpt lat="45.14574" lon="2.81597">
        <ele>1204.8000488281</ele>
        <time>2024-01-30T17:03:27.000Z</time>
      </trkpt>
      <trkpt lat="45.14591" lon="2.81579">
        <ele>1206.4000244141</ele>
        <time>2024-01-30T17:03:28.000Z</time>
      </trkpt>
      <trkpt lat="45.14623" lon="2.81547">
        <ele>1208</ele>
        <time>2024-01-30T17:03:30.000Z</time>
      </trkpt>
      <trkpt lat="45.14656" lon="2.81518">
        <ele>1209</ele>
        <time>2024-01-30T17:03:32.000Z</time>
      </trkpt>
      <trkpt lat="45.14707" lon="2.81478">
        <ele>1209.1999511719</ele>
        <time>2024-01-30T17:03:35.000Z</time>
      </trkpt>
      <trkpt lat="45.14757" lon="2.8143">
        <ele>1208</ele>
        <time>2024-01-30T17:03:38.000Z</time>
      </trkpt>
      <trkpt lat="45.14773" lon="2.81412">
        <ele>1207.1999511719</ele>
        <time>2024-01-30T17:03:39.000Z</time>
      </trkpt>
      <trkpt lat="45.14789" lon="2.81393">
        <ele>1206.1999511719</ele>
        <time>2024-01-30T17:03:40.000Z</time>
      </trkpt>
      <trkpt lat="45.1482" lon="2.81353">
        <ele>1204.4000244141</ele>
        <time>2024-01-30T17:03:42.000Z</time>
      </trkpt>
      <trkpt lat="45.14835" lon="2.81333">
        <ele>1203.4000244141</ele>
        <time>2024-01-30T17:03:43.000Z</time>
      </trkpt>
      <trkpt lat="45.14867" lon="2.81295">
        <ele>1201.5999755859</ele>
        <time>2024-01-30T17:03:45.000Z</time>
      </trkpt>
      <trkpt lat="45.14884" lon="2.81278">
        <ele>1200.1999511719</ele>
        <time>2024-01-30T17:03:46.000Z</time>
      </trkpt>
      <trkpt lat="45.149" lon="2.81262">
        <ele>1199.4000244141</ele>
        <time>2024-01-30T17:03:47.000Z</time>
      </trkpt>
      <trkpt lat="45.14916" lon="2.81248">
        <ele>1198</ele>
        <time>2024-01-30T17:03:48.000Z</time>
      </trkpt>
      <trkpt lat="45.14944" lon="2.81226">
        <ele>1195</ele>
        <time>2024-01-30T17:03:50.000Z</time>
      </trkpt>
      <trkpt lat="45.14956" lon="2.81218">
        <ele>1193</ele>
        <time>2024-01-30T17:03:51.000Z</time>
      </trkpt>
      <trkpt lat="45.14978" lon="2.81206">
        <ele>1191.1999511719</ele>
        <time>2024-01-30T17:03:53.000Z</time>
      </trkpt>
      <trkpt lat="45.15016" lon="2.81194">
        <ele>1190.1999511719</ele>
        <time>2024-01-30T17:03:56.000Z</time>
      </trkpt>
      <trkpt lat="45.15031" lon="2.81192">
        <ele>1189.8000488281</ele>
        <time>2024-01-30T17:03:57.000Z</time>
      </trkpt>
      <trkpt lat="45.15079" lon="2.81194">
        <ele>1188.5999755859</ele>
        <time>2024-01-30T17:04:00.000Z</time>
      </trkpt>
      <trkpt lat="45.15112" lon="2.81204">
        <ele>1187</ele>
        <time>2024-01-30T17:04:02.000Z</time>
      </trkpt>
      <trkpt lat="45.15128" lon="2.81211">
        <ele>1186.4000244141</ele>
        <time>2024-01-30T17:04:03.000Z</time>
      </trkpt>
      <trkpt lat="45.15143" lon="2.81221">
        <ele>1185.8000488281</ele>
        <time>2024-01-30T17:04:04.000Z</time>
      </trkpt>
      <trkpt lat="45.15173" lon="2.81245">
        <ele>1184.8000488281</ele>
        <time>2024-01-30T17:04:06.000Z</time>
      </trkpt>
      <trkpt lat="45.15202" lon="2.81274">
        <ele>1183.5999755859</ele>
        <time>2024-01-30T17:04:08.000Z</time>
      </trkpt>
      <trkpt lat="45.15227" lon="2.8131">
        <ele>1182.4000244141</ele>
        <time>2024-01-30T17:04:10.000Z</time>
      </trkpt>
      <trkpt lat="45.15247" lon="2.81354">
        <ele>1181.1999511719</ele>
        <time>2024-01-30T17:04:12.000Z</time>
      </trkpt>
      <trkpt lat="45.15254" lon="2.81376">
        <ele>1180.8000488281</ele>
        <time>2024-01-30T17:04:13.000Z</time>
      </trkpt>
      <trkpt lat="45.15261" lon="2.81398">
        <ele>1179.8000488281</ele>
        <time>2024-01-30T17:04:14.000Z</time>
      </trkpt>
      <trkpt lat="45.15267" lon="2.81417">
        <ele>1178.5999755859</ele>
        <time>2024-01-30T17:04:15.000Z</time>
      </trkpt>
      <trkpt lat="45.15272" lon="2.81434">
        <ele>1177.4000244141</ele>
        <time>2024-01-30T17:04:16.000Z</time>
      </trkpt>
      <trkpt lat="45.15276" lon="2.81456">
        <ele>1175.5999755859</ele>
        <time>2024-01-30T17:04:18.000Z</time>
      </trkpt>
      <trkpt lat="45.1528" lon="2.8147">
        <ele>1174.4000244141</ele>
        <time>2024-01-30T17:04:21.000Z</time>
      </trkpt>
      <trkpt lat="45.15288" lon="2.8148">
        <ele>1174.1999511719</ele>
        <time>2024-01-30T17:04:24.000Z</time>
      </trkpt>
      <trkpt lat="45.15299" lon="2.81475">
        <ele>1174</ele>
        <time>2024-01-30T17:04:26.000Z</time>
      </trkpt>
      <trkpt lat="45.15301" lon="2.8147">
        <ele>1173.8000488281</ele>
        <time>2024-01-30T17:04:27.000Z</time>
      </trkpt>
      <trkpt lat="45.15303" lon="2.81463">
        <ele>1173.4000244141</ele>
        <time>2024-01-30T17:04:29.000Z</time>
      </trkpt>
      <trkpt lat="45.15304" lon="2.81462">
        <ele>1173.4000244141</ele>
        <time>2024-01-30T17:04:30.000Z</time>
      </trkpt>
      <trkpt lat="45.15304" lon="2.81462">
        <ele>1173.5999755859</ele>
        <time>2024-01-30T17:04:36.000Z</time>
      </trkpt>
      <trkpt lat="45.15306" lon="2.8146">
        <ele>1173.4000244141</ele>
        <time>2024-01-30T17:04:42.000Z</time>
      </trkpt>
      <trkpt lat="45.15306" lon="2.8146">
        <ele>1173.5999755859</ele>
        <time>2024-01-30T17:04:49.000Z</time>
      </trkpt>
      <trkpt lat="45.15305" lon="2.81461">
        <ele>1173.5999755859</ele>
        <time>2024-01-30T17:04:50.000Z</time>
      </trkpt>
      <trkpt lat="45.15302" lon="2.81462">
        <ele>1173.8000488281</ele>
        <time>2024-01-30T17:04:54.000Z</time>
      </trkpt>
      <trkpt lat="45.15302" lon="2.81462">
        <ele>1173.8000488281</ele>
        <time>2024-01-30T17:05:02.000Z</time>
      </trkpt>
      <trkpt lat="45.15302" lon="2.81462">
        <ele>1174</ele>
        <time>2024-01-30T17:05:13.000Z</time>
      </trkpt>
      <trkpt lat="45.15302" lon="2.81461">
        <ele>1174</ele>
        <time>2024-01-30T17:05:22.000Z</time>
      </trkpt>
      <trkpt lat="45.15303" lon="2.8146">
        <ele>1174.1999511719</ele>
        <time>2024-01-30T17:05:35.000Z</time>
      </trkpt>
      <trkpt lat="45.15304" lon="2.81459">
        <ele>1174.1999511719</ele>
        <time>2024-01-30T17:05:36.000Z</time>
      </trkpt>
      <trkpt lat="45.15313" lon="2.81452">
        <ele>1174.1999511719</ele>
        <time>2024-01-30T17:05:39.000Z</time>
      </trkpt>
      <trkpt lat="45.15322" lon="2.81443">
        <ele>1174</ele>
        <time>2024-01-30T17:05:41.000Z</time>
      </trkpt>
      <trkpt lat="45.15332" lon="2.81429">
        <ele>1173.5999755859</ele>
        <time>2024-01-30T17:05:43.000Z</time>
      </trkpt>
      <trkpt lat="45.15337" lon="2.81409">
        <ele>1172.5999755859</ele>
        <time>2024-01-30T17:05:45.000Z</time>
      </trkpt>
      <trkpt lat="45.15336" lon="2.81397">
        <ele>1172.1999511719</ele>
        <time>2024-01-30T17:05:46.000Z</time>
      </trkpt>
      <trkpt lat="45.15333" lon="2.81369">
        <ele>1171.1999511719</ele>
        <time>2024-01-30T17:05:48.000Z</time>
      </trkpt>
      <trkpt lat="45.15331" lon="2.81339">
        <ele>1170.1999511719</ele>
        <time>2024-01-30T17:05:50.000Z</time>
      </trkpt>
      <trkpt lat="45.15328" lon="2.81323">
        <ele>1169.4000244141</ele>
        <time>2024-01-30T17:05:51.000Z</time>
      </trkpt>
      <trkpt lat="45.15324" lon="2.81292">
        <ele>1168</ele>
        <time>2024-01-30T17:05:53.000Z</time>
      </trkpt>
      <trkpt lat="45.15321" lon="2.81259">
        <ele>1166.4000244141</ele>
        <time>2024-01-30T17:05:55.000Z</time>
      </trkpt>
      <trkpt lat="45.1532" lon="2.81226">
        <ele>1165</ele>
        <time>2024-01-30T17:05:57.000Z</time>
      </trkpt>
      <trkpt lat="45.1532" lon="2.8121">
        <ele>1163.8000488281</ele>
        <time>2024-01-30T17:05:58.000Z</time>
      </trkpt>
      <trkpt lat="45.15318" lon="2.81195">
        <ele>1162.5999755859</ele>
        <time>2024-01-30T17:05:59.000Z</time>
      </trkpt>
      <trkpt lat="45.15315" lon="2.81182">
        <ele>1161.4000244141</ele>
        <time>2024-01-30T17:06:00.000Z</time>
      </trkpt>
      <trkpt lat="45.1531" lon="2.8117">
        <ele>1160.4000244141</ele>
        <time>2024-01-30T17:06:01.000Z</time>
      </trkpt>
      <trkpt lat="45.15305" lon="2.81157">
        <ele>1159.4000244141</ele>
        <time>2024-01-30T17:06:02.000Z</time>
      </trkpt>
      <trkpt lat="45.15301" lon="2.81144">
        <ele>1158.5999755859</ele>
        <time>2024-01-30T17:06:03.000Z</time>
      </trkpt>
      <trkpt lat="45.15298" lon="2.81115">
        <ele>1157.4000244141</ele>
        <time>2024-01-30T17:06:05.000Z</time>
      </trkpt>
      <trkpt lat="45.15298" lon="2.81085">
        <ele>1155.5999755859</ele>
        <time>2024-01-30T17:06:07.000Z</time>
      </trkpt>
      <trkpt lat="45.15297" lon="2.81057">
        <ele>1153.4000244141</ele>
        <time>2024-01-30T17:06:09.000Z</time>
      </trkpt>
      <trkpt lat="45.15298" lon="2.81044">
        <ele>1152.4000244141</ele>
        <time>2024-01-30T17:06:10.000Z</time>
      </trkpt>
      <trkpt lat="45.15301" lon="2.81032">
        <ele>1152</ele>
        <time>2024-01-30T17:06:11.000Z</time>
      </trkpt>
      <trkpt lat="45.15305" lon="2.81021">
        <ele>1151.4000244141</ele>
        <time>2024-01-30T17:06:12.000Z</time>
      </trkpt>
      <trkpt lat="45.15309" lon="2.81009">
        <ele>1150.1999511719</ele>
        <time>2024-01-30T17:06:13.000Z</time>
      </trkpt>
      <trkpt lat="45.15314" lon="2.81">
        <ele>1150</ele>
        <time>2024-01-30T17:06:14.000Z</time>
      </trkpt>
      <trkpt lat="45.15319" lon="2.80993">
        <ele>1149.1999511719</ele>
        <time>2024-01-30T17:06:15.000Z</time>
      </trkpt>
      <trkpt lat="45.15328" lon="2.80983">
        <ele>1148</ele>
        <time>2024-01-30T17:06:16.000Z</time>
      </trkpt>
      <trkpt lat="45.15335" lon="2.80974">
        <ele>1147.4000244141</ele>
        <time>2024-01-30T17:06:17.000Z</time>
      </trkpt>
      <trkpt lat="45.1534" lon="2.80963">
        <ele>1146.8000488281</ele>
        <time>2024-01-30T17:06:18.000Z</time>
      </trkpt>
      <trkpt lat="45.15344" lon="2.80951">
        <ele>1146</ele>
        <time>2024-01-30T17:06:19.000Z</time>
      </trkpt>
      <trkpt lat="45.15347" lon="2.80938">
        <ele>1145.5999755859</ele>
        <time>2024-01-30T17:06:20.000Z</time>
      </trkpt>
      <trkpt lat="45.15348" lon="2.80923">
        <ele>1144.4000244141</ele>
        <time>2024-01-30T17:06:21.000Z</time>
      </trkpt>
      <trkpt lat="45.15345" lon="2.80891">
        <ele>1143.1999511719</ele>
        <time>2024-01-30T17:06:23.000Z</time>
      </trkpt>
      <trkpt lat="45.15342" lon="2.80877">
        <ele>1142.4000244141</ele>
        <time>2024-01-30T17:06:24.000Z</time>
      </trkpt>
      <trkpt lat="45.15338" lon="2.80862">
        <ele>1141.4000244141</ele>
        <time>2024-01-30T17:06:25.000Z</time>
      </trkpt>
      <trkpt lat="45.15332" lon="2.80829">
        <ele>1139.8000488281</ele>
        <time>2024-01-30T17:06:27.000Z</time>
      </trkpt>
      <trkpt lat="45.15331" lon="2.80811">
        <ele>1138.8000488281</ele>
        <time>2024-01-30T17:06:28.000Z</time>
      </trkpt>
      <trkpt lat="45.15331" lon="2.80793">
        <ele>1137.5999755859</ele>
        <time>2024-01-30T17:06:29.000Z</time>
      </trkpt>
      <trkpt lat="45.15332" lon="2.80776">
        <ele>1136.5999755859</ele>
        <time>2024-01-30T17:06:30.000Z</time>
      </trkpt>
      <trkpt lat="45.15336" lon="2.80758">
        <ele>1136</ele>
        <time>2024-01-30T17:06:31.000Z</time>
      </trkpt>
      <trkpt lat="45.15341" lon="2.8074">
        <ele>1135.4000244141</ele>
        <time>2024-01-30T17:06:32.000Z</time>
      </trkpt>
      <trkpt lat="45.15347" lon="2.80723">
        <ele>1134</ele>
        <time>2024-01-30T17:06:33.000Z</time>
      </trkpt>
      <trkpt lat="45.15354" lon="2.80708">
        <ele>1133.1999511719</ele>
        <time>2024-01-30T17:06:34.000Z</time>
      </trkpt>
      <trkpt lat="45.15362" lon="2.80692">
        <ele>1131.8000488281</ele>
        <time>2024-01-30T17:06:35.000Z</time>
      </trkpt>
      <trkpt lat="45.15369" lon="2.80676">
        <ele>1130.4000244141</ele>
        <time>2024-01-30T17:06:36.000Z</time>
      </trkpt>
      <trkpt lat="45.15376" lon="2.8066">
        <ele>1128.8000488281</ele>
        <time>2024-01-30T17:06:37.000Z</time>
      </trkpt>
      <trkpt lat="45.15382" lon="2.80644">
        <ele>1127.8000488281</ele>
        <time>2024-01-30T17:06:38.000Z</time>
      </trkpt>
      <trkpt lat="45.15387" lon="2.80627">
        <ele>1126</ele>
        <time>2024-01-30T17:06:39.000Z</time>
      </trkpt>
      <trkpt lat="45.1539" lon="2.8061">
        <ele>1124.5999755859</ele>
        <time>2024-01-30T17:06:40.000Z</time>
      </trkpt>
      <trkpt lat="45.15391" lon="2.80593">
        <ele>1123.8000488281</ele>
        <time>2024-01-30T17:06:41.000Z</time>
      </trkpt>
      <trkpt lat="45.15391" lon="2.80577">
        <ele>1122.4000244141</ele>
        <time>2024-01-30T17:06:42.000Z</time>
      </trkpt>
      <trkpt lat="45.15391" lon="2.80561">
        <ele>1121.1999511719</ele>
        <time>2024-01-30T17:06:43.000Z</time>
      </trkpt>
      <trkpt lat="45.15393" lon="2.80546">
        <ele>1120.1999511719</ele>
        <time>2024-01-30T17:06:44.000Z</time>
      </trkpt>
      <trkpt lat="45.15396" lon="2.80532">
        <ele>1119</ele>
        <time>2024-01-30T17:06:45.000Z</time>
      </trkpt>
      <trkpt lat="45.15403" lon="2.80517">
        <ele>1118</ele>
        <time>2024-01-30T17:06:46.000Z</time>
      </trkpt>
      <trkpt lat="45.15408" lon="2.80507">
        <ele>1116.5999755859</ele>
        <time>2024-01-30T17:06:47.000Z</time>
      </trkpt>
      <trkpt lat="45.15421" lon="2.80484">
        <ele>1114.8000488281</ele>
        <time>2024-01-30T17:06:49.000Z</time>
      </trkpt>
      <trkpt lat="45.15426" lon="2.8047">
        <ele>1113.5999755859</ele>
        <time>2024-01-30T17:06:50.000Z</time>
      </trkpt>
      <trkpt lat="45.1543" lon="2.80455">
        <ele>1113</ele>
        <time>2024-01-30T17:06:51.000Z</time>
      </trkpt>
      <trkpt lat="45.15434" lon="2.8044">
        <ele>1112</ele>
        <time>2024-01-30T17:06:52.000Z</time>
      </trkpt>
      <trkpt lat="45.15438" lon="2.80408">
        <ele>1109.8000488281</ele>
        <time>2024-01-30T17:06:54.000Z</time>
      </trkpt>
      <trkpt lat="45.15442" lon="2.80374">
        <ele>1108.1999511719</ele>
        <time>2024-01-30T17:06:56.000Z</time>
      </trkpt>
      <trkpt lat="45.15445" lon="2.80358">
        <ele>1106.8000488281</ele>
        <time>2024-01-30T17:06:57.000Z</time>
      </trkpt>
      <trkpt lat="45.15454" lon="2.80326">
        <ele>1104.8000488281</ele>
        <time>2024-01-30T17:06:59.000Z</time>
      </trkpt>
      <trkpt lat="45.15457" lon="2.8031">
        <ele>1103.5999755859</ele>
        <time>2024-01-30T17:07:00.000Z</time>
      </trkpt>
      <trkpt lat="45.1546" lon="2.80294">
        <ele>1102.5999755859</ele>
        <time>2024-01-30T17:07:01.000Z</time>
      </trkpt>
      <trkpt lat="45.15461" lon="2.80278">
        <ele>1101.4000244141</ele>
        <time>2024-01-30T17:07:02.000Z</time>
      </trkpt>
      <trkpt lat="45.15461" lon="2.80263">
        <ele>1100.4000244141</ele>
        <time>2024-01-30T17:07:03.000Z</time>
      </trkpt>
      <trkpt lat="45.15459" lon="2.80246">
        <ele>1099.8000488281</ele>
        <time>2024-01-30T17:07:04.000Z</time>
      </trkpt>
      <trkpt lat="45.15458" lon="2.80229">
        <ele>1098.8000488281</ele>
        <time>2024-01-30T17:07:05.000Z</time>
      </trkpt>
      <trkpt lat="45.15456" lon="2.80193">
        <ele>1097</ele>
        <time>2024-01-30T17:07:07.000Z</time>
      </trkpt>
      <trkpt lat="45.15458" lon="2.80177">
        <ele>1095.8000488281</ele>
        <time>2024-01-30T17:07:08.000Z</time>
      </trkpt>
      <trkpt lat="45.15467" lon="2.80146">
        <ele>1093.8000488281</ele>
        <time>2024-01-30T17:07:10.000Z</time>
      </trkpt>
      <trkpt lat="45.15475" lon="2.80132">
        <ele>1092.8000488281</ele>
        <time>2024-01-30T17:07:11.000Z</time>
      </trkpt>
      <trkpt lat="45.15482" lon="2.80121">
        <ele>1091.8000488281</ele>
        <time>2024-01-30T17:07:12.000Z</time>
      </trkpt>
      <trkpt lat="45.15489" lon="2.80108">
        <ele>1090.8000488281</ele>
        <time>2024-01-30T17:07:13.000Z</time>
      </trkpt>
      <trkpt lat="45.15495" lon="2.80093">
        <ele>1089.8000488281</ele>
        <time>2024-01-30T17:07:14.000Z</time>
      </trkpt>
      <trkpt lat="45.15499" lon="2.80078">
        <ele>1088.8000488281</ele>
        <time>2024-01-30T17:07:15.000Z</time>
      </trkpt>
      <trkpt lat="45.155" lon="2.80046">
        <ele>1086.5999755859</ele>
        <time>2024-01-30T17:07:17.000Z</time>
      </trkpt>
      <trkpt lat="45.15497" lon="2.80031">
        <ele>1085.5999755859</ele>
        <time>2024-01-30T17:07:18.000Z</time>
      </trkpt>
      <trkpt lat="45.1549" lon="2.80001">
        <ele>1083.5999755859</ele>
        <time>2024-01-30T17:07:20.000Z</time>
      </trkpt>
      <trkpt lat="45.15486" lon="2.79986">
        <ele>1082.5999755859</ele>
        <time>2024-01-30T17:07:21.000Z</time>
      </trkpt>
      <trkpt lat="45.15484" lon="2.79971">
        <ele>1081.8000488281</ele>
        <time>2024-01-30T17:07:22.000Z</time>
      </trkpt>
      <trkpt lat="45.15483" lon="2.79953">
        <ele>1081</ele>
        <time>2024-01-30T17:07:23.000Z</time>
      </trkpt>
      <trkpt lat="45.15483" lon="2.79935">
        <ele>1080</ele>
        <time>2024-01-30T17:07:24.000Z</time>
      </trkpt>
      <trkpt lat="45.15485" lon="2.79918">
        <ele>1079</ele>
        <time>2024-01-30T17:07:25.000Z</time>
      </trkpt>
      <trkpt lat="45.1549" lon="2.79902">
        <ele>1078.1999511719</ele>
        <time>2024-01-30T17:07:26.000Z</time>
      </trkpt>
      <trkpt lat="45.15495" lon="2.79886">
        <ele>1077.4000244141</ele>
        <time>2024-01-30T17:07:27.000Z</time>
      </trkpt>
      <trkpt lat="45.15502" lon="2.79871">
        <ele>1076</ele>
        <time>2024-01-30T17:07:28.000Z</time>
      </trkpt>
      <trkpt lat="45.15509" lon="2.79854">
        <ele>1075.1999511719</ele>
        <time>2024-01-30T17:07:29.000Z</time>
      </trkpt>
      <trkpt lat="45.15516" lon="2.79838">
        <ele>1073.8000488281</ele>
        <time>2024-01-30T17:07:30.000Z</time>
      </trkpt>
      <trkpt lat="45.15531" lon="2.79804">
        <ele>1072</ele>
        <time>2024-01-30T17:07:32.000Z</time>
      </trkpt>
      <trkpt lat="45.15538" lon="2.79787">
        <ele>1070.8000488281</ele>
        <time>2024-01-30T17:07:33.000Z</time>
      </trkpt>
      <trkpt lat="45.15546" lon="2.7977">
        <ele>1069.4000244141</ele>
        <time>2024-01-30T17:07:34.000Z</time>
      </trkpt>
      <trkpt lat="45.15555" lon="2.79754">
        <ele>1068</ele>
        <time>2024-01-30T17:07:35.000Z</time>
      </trkpt>
      <trkpt lat="45.15566" lon="2.79739">
        <ele>1066.8000488281</ele>
        <time>2024-01-30T17:07:36.000Z</time>
      </trkpt>
      <trkpt lat="45.15577" lon="2.79726">
        <ele>1065.8000488281</ele>
        <time>2024-01-30T17:07:37.000Z</time>
      </trkpt>
      <trkpt lat="45.15589" lon="2.79715">
        <ele>1065</ele>
        <time>2024-01-30T17:07:38.000Z</time>
      </trkpt>
      <trkpt lat="45.15602" lon="2.79706">
        <ele>1064.4000244141</ele>
        <time>2024-01-30T17:07:39.000Z</time>
      </trkpt>
      <trkpt lat="45.15628" lon="2.79694">
        <ele>1063</ele>
        <time>2024-01-30T17:07:41.000Z</time>
      </trkpt>
      <trkpt lat="45.15654" lon="2.7968">
        <ele>1062.4000244141</ele>
        <time>2024-01-30T17:07:43.000Z</time>
      </trkpt>
      <trkpt lat="45.15665" lon="2.79671">
        <ele>1062.1999511719</ele>
        <time>2024-01-30T17:07:44.000Z</time>
      </trkpt>
      <trkpt lat="45.15675" lon="2.79661">
        <ele>1062</ele>
        <time>2024-01-30T17:07:45.000Z</time>
      </trkpt>
      <trkpt lat="45.15683" lon="2.79649">
        <ele>1061.5999755859</ele>
        <time>2024-01-30T17:07:46.000Z</time>
      </trkpt>
      <trkpt lat="45.15689" lon="2.79636">
        <ele>1061.1999511719</ele>
        <time>2024-01-30T17:07:47.000Z</time>
      </trkpt>
      <trkpt lat="45.15694" lon="2.7962">
        <ele>1061</ele>
        <time>2024-01-30T17:07:48.000Z</time>
      </trkpt>
      <trkpt lat="45.157" lon="2.79589">
        <ele>1060.5999755859</ele>
        <time>2024-01-30T17:07:50.000Z</time>
      </trkpt>
      <trkpt lat="45.15715" lon="2.79507">
        <ele>1060.4000244141</ele>
        <time>2024-01-30T17:07:55.000Z</time>
      </trkpt>
      <trkpt lat="45.15719" lon="2.7949">
        <ele>1060</ele>
        <time>2024-01-30T17:07:56.000Z</time>
      </trkpt>
      <trkpt lat="45.15726" lon="2.79461">
        <ele>1058.8000488281</ele>
        <time>2024-01-30T17:07:58.000Z</time>
      </trkpt>
      <trkpt lat="45.15728" lon="2.79447">
        <ele>1057.5999755859</ele>
        <time>2024-01-30T17:07:59.000Z</time>
      </trkpt>
      <trkpt lat="45.1573" lon="2.79435">
        <ele>1057</ele>
        <time>2024-01-30T17:08:00.000Z</time>
      </trkpt>
      <trkpt lat="45.15732" lon="2.79422">
        <ele>1056.4000244141</ele>
        <time>2024-01-30T17:08:01.000Z</time>
      </trkpt>
      <trkpt lat="45.15733" lon="2.7938">
        <ele>1055.5999755859</ele>
        <time>2024-01-30T17:08:04.000Z</time>
      </trkpt>
      <trkpt lat="45.15732" lon="2.79366">
        <ele>1055.4000244141</ele>
        <time>2024-01-30T17:08:05.000Z</time>
      </trkpt>
      <trkpt lat="45.15726" lon="2.7932">
        <ele>1053.8000488281</ele>
        <time>2024-01-30T17:08:08.000Z</time>
      </trkpt>
      <trkpt lat="45.15725" lon="2.79302">
        <ele>1053.5999755859</ele>
        <time>2024-01-30T17:08:09.000Z</time>
      </trkpt>
      <trkpt lat="45.1573" lon="2.79277">
        <ele>1053</ele>
        <time>2024-01-30T17:08:11.000Z</time>
      </trkpt>
      <trkpt lat="45.15751" lon="2.79243">
        <ele>1052.8000488281</ele>
        <time>2024-01-30T17:08:14.000Z</time>
      </trkpt>
      <trkpt lat="45.1576" lon="2.79231">
        <ele>1052.8000488281</ele>
        <time>2024-01-30T17:08:15.000Z</time>
      </trkpt>
      <trkpt lat="45.15792" lon="2.79181">
        <ele>1053</ele>
        <time>2024-01-30T17:08:19.000Z</time>
      </trkpt>
      <trkpt lat="45.15799" lon="2.79168">
        <ele>1053</ele>
        <time>2024-01-30T17:08:20.000Z</time>
      </trkpt>
      <trkpt lat="45.15807" lon="2.79138">
        <ele>1053</ele>
        <time>2024-01-30T17:08:22.000Z</time>
      </trkpt>
      <trkpt lat="45.1581" lon="2.79106">
        <ele>1053.1999511719</ele>
        <time>2024-01-30T17:08:24.000Z</time>
      </trkpt>
      <trkpt lat="45.1581" lon="2.7909">
        <ele>1053.4000244141</ele>
        <time>2024-01-30T17:08:25.000Z</time>
      </trkpt>
      <trkpt lat="45.15809" lon="2.79058">
        <ele>1053.8000488281</ele>
        <time>2024-01-30T17:08:27.000Z</time>
      </trkpt>
      <trkpt lat="45.1581" lon="2.78999">
        <ele>1054.5999755859</ele>
        <time>2024-01-30T17:08:31.000Z</time>
      </trkpt>
      <trkpt lat="45.15811" lon="2.78987">
        <ele>1054.8000488281</ele>
        <time>2024-01-30T17:08:32.000Z</time>
      </trkpt>
      <trkpt lat="45.15813" lon="2.78975">
        <ele>1055</ele>
        <time>2024-01-30T17:08:33.000Z</time>
      </trkpt>
      <trkpt lat="45.15819" lon="2.78951">
        <ele>1055.8000488281</ele>
        <time>2024-01-30T17:08:35.000Z</time>
      </trkpt>
      <trkpt lat="45.1583" lon="2.78913">
        <ele>1057.5999755859</ele>
        <time>2024-01-30T17:08:38.000Z</time>
      </trkpt>
      <trkpt lat="45.15841" lon="2.78876">
        <ele>1059</ele>
        <time>2024-01-30T17:08:41.000Z</time>
      </trkpt>
      <trkpt lat="45.15847" lon="2.78851">
        <ele>1060.4000244141</ele>
        <time>2024-01-30T17:08:43.000Z</time>
      </trkpt>
      <trkpt lat="45.1585" lon="2.78826">
        <ele>1061.1999511719</ele>
        <time>2024-01-30T17:08:45.000Z</time>
      </trkpt>
      <trkpt lat="45.15851" lon="2.78814">
        <ele>1061.8000488281</ele>
        <time>2024-01-30T17:08:46.000Z</time>
      </trkpt>
      <trkpt lat="45.15849" lon="2.78788">
        <ele>1062.4000244141</ele>
        <time>2024-01-30T17:08:48.000Z</time>
      </trkpt>
      <trkpt lat="45.15847" lon="2.78775">
        <ele>1062.8000488281</ele>
        <time>2024-01-30T17:08:49.000Z</time>
      </trkpt>
      <trkpt lat="45.15843" lon="2.78748">
        <ele>1064</ele>
        <time>2024-01-30T17:08:51.000Z</time>
      </trkpt>
      <trkpt lat="45.15834" lon="2.78713">
        <ele>1064.8000488281</ele>
        <time>2024-01-30T17:08:54.000Z</time>
      </trkpt>
      <trkpt lat="45.1583" lon="2.78703">
        <ele>1065</ele>
        <time>2024-01-30T17:08:55.000Z</time>
      </trkpt>
      <trkpt lat="45.15817" lon="2.78686">
        <ele>1065.5999755859</ele>
        <time>2024-01-30T17:08:57.000Z</time>
      </trkpt>
      <trkpt lat="45.15783" lon="2.7866">
        <ele>1065.5999755859</ele>
        <time>2024-01-30T17:09:01.000Z</time>
      </trkpt>
      <trkpt lat="45.15775" lon="2.78654">
        <ele>1065.4000244141</ele>
        <time>2024-01-30T17:09:02.000Z</time>
      </trkpt>
      <trkpt lat="45.15762" lon="2.78638">
        <ele>1065</ele>
        <time>2024-01-30T17:09:04.000Z</time>
      </trkpt>
      <trkpt lat="45.15741" lon="2.78605">
        <ele>1063.4000244141</ele>
        <time>2024-01-30T17:09:07.000Z</time>
      </trkpt>
      <trkpt lat="45.15734" lon="2.78593">
        <ele>1062.8000488281</ele>
        <time>2024-01-30T17:09:08.000Z</time>
      </trkpt>
      <trkpt lat="45.15718" lon="2.78568">
        <ele>1061.8000488281</ele>
        <time>2024-01-30T17:09:10.000Z</time>
      </trkpt>
      <trkpt lat="45.157" lon="2.78539">
        <ele>1060.5999755859</ele>
        <time>2024-01-30T17:09:12.000Z</time>
      </trkpt>
      <trkpt lat="45.15693" lon="2.78527">
        <ele>1060.1999511719</ele>
        <time>2024-01-30T17:09:13.000Z</time>
      </trkpt>
      <trkpt lat="45.15662" lon="2.78483">
        <ele>1059.4000244141</ele>
        <time>2024-01-30T17:09:16.000Z</time>
      </trkpt>
      <trkpt lat="45.1565" lon="2.78467">
        <ele>1059</ele>
        <time>2024-01-30T17:09:17.000Z</time>
      </trkpt>
      <trkpt lat="45.15638" lon="2.78452">
        <ele>1058.1999511719</ele>
        <time>2024-01-30T17:09:18.000Z</time>
      </trkpt>
      <trkpt lat="45.15587" lon="2.7839">
        <ele>1057.5999755859</ele>
        <time>2024-01-30T17:09:22.000Z</time>
      </trkpt>
      <trkpt lat="45.15574" lon="2.78376">
        <ele>1057.1999511719</ele>
        <time>2024-01-30T17:09:23.000Z</time>
      </trkpt>
      <trkpt lat="45.15528" lon="2.78317">
        <ele>1056</ele>
        <time>2024-01-30T17:09:27.000Z</time>
      </trkpt>
      <trkpt lat="45.15487" lon="2.78258">
        <ele>1055.1999511719</ele>
        <time>2024-01-30T17:09:31.000Z</time>
      </trkpt>
      <trkpt lat="45.15475" lon="2.78245">
        <ele>1054.5999755859</ele>
        <time>2024-01-30T17:09:32.000Z</time>
      </trkpt>
      <trkpt lat="45.15428" lon="2.78188">
        <ele>1054</ele>
        <time>2024-01-30T17:09:36.000Z</time>
      </trkpt>
      <trkpt lat="45.15388" lon="2.78118">
        <ele>1054.1999511719</ele>
        <time>2024-01-30T17:09:40.000Z</time>
      </trkpt>
      <trkpt lat="45.15374" lon="2.78078">
        <ele>1054.1999511719</ele>
        <time>2024-01-30T17:09:42.000Z</time>
      </trkpt>
      <trkpt lat="45.15369" lon="2.78058">
        <ele>1054.4000244141</ele>
        <time>2024-01-30T17:09:43.000Z</time>
      </trkpt>
      <trkpt lat="45.15366" lon="2.78036">
        <ele>1054.5999755859</ele>
        <time>2024-01-30T17:09:44.000Z</time>
      </trkpt>
      <trkpt lat="45.15361" lon="2.7799">
        <ele>1055.4000244141</ele>
        <time>2024-01-30T17:09:46.000Z</time>
      </trkpt>
      <trkpt lat="45.15359" lon="2.77967">
        <ele>1055.8000488281</ele>
        <time>2024-01-30T17:09:47.000Z</time>
      </trkpt>
      <trkpt lat="45.15348" lon="2.77878">
        <ele>1056.1999511719</ele>
        <time>2024-01-30T17:09:51.000Z</time>
      </trkpt>
      <trkpt lat="45.15343" lon="2.77857">
        <ele>1056.1999511719</ele>
        <time>2024-01-30T17:09:52.000Z</time>
      </trkpt>
      <trkpt lat="45.15323" lon="2.77801">
        <ele>1056.8000488281</ele>
        <time>2024-01-30T17:09:55.000Z</time>
      </trkpt>
      <trkpt lat="45.15314" lon="2.77787">
        <ele>1057</ele>
        <time>2024-01-30T17:09:56.000Z</time>
      </trkpt>
      <trkpt lat="45.15304" lon="2.77775">
        <ele>1057.1999511719</ele>
        <time>2024-01-30T17:09:57.000Z</time>
      </trkpt>
      <trkpt lat="45.15252" lon="2.77734">
        <ele>1058</ele>
        <time>2024-01-30T17:10:01.000Z</time>
      </trkpt>
      <trkpt lat="45.15237" lon="2.77725">
        <ele>1058</ele>
        <time>2024-01-30T17:10:02.000Z</time>
      </trkpt>
      <trkpt lat="45.15181" lon="2.77678">
        <ele>1058.8000488281</ele>
        <time>2024-01-30T17:10:06.000Z</time>
      </trkpt>
      <trkpt lat="45.15154" lon="2.77651">
        <ele>1059</ele>
        <time>2024-01-30T17:10:08.000Z</time>
      </trkpt>
      <trkpt lat="45.15125" lon="2.7762">
        <ele>1059.8000488281</ele>
        <time>2024-01-30T17:10:10.000Z</time>
      </trkpt>
      <trkpt lat="45.151" lon="2.77596">
        <ele>1060.1999511719</ele>
        <time>2024-01-30T17:10:12.000Z</time>
      </trkpt>
      <trkpt lat="45.15071" lon="2.7757">
        <ele>1060.5999755859</ele>
        <time>2024-01-30T17:10:14.000Z</time>
      </trkpt>
      <trkpt lat="45.15016" lon="2.77519">
        <ele>1061.4000244141</ele>
        <time>2024-01-30T17:10:18.000Z</time>
      </trkpt>
      <trkpt lat="45.1499" lon="2.77499">
        <ele>1061.5999755859</ele>
        <time>2024-01-30T17:10:20.000Z</time>
      </trkpt>
      <trkpt lat="45.14952" lon="2.77474">
        <ele>1062.1999511719</ele>
        <time>2024-01-30T17:10:23.000Z</time>
      </trkpt>
      <trkpt lat="45.14939" lon="2.77469">
        <ele>1062.4000244141</ele>
        <time>2024-01-30T17:10:24.000Z</time>
      </trkpt>
      <trkpt lat="45.14912" lon="2.77458">
        <ele>1063.8000488281</ele>
        <time>2024-01-30T17:10:26.000Z</time>
      </trkpt>
      <trkpt lat="45.14899" lon="2.7745">
        <ele>1064.1999511719</ele>
        <time>2024-01-30T17:10:27.000Z</time>
      </trkpt>
      <trkpt lat="45.14885" lon="2.77441">
        <ele>1065</ele>
        <time>2024-01-30T17:10:28.000Z</time>
      </trkpt>
      <trkpt lat="45.14859" lon="2.7742">
        <ele>1066.4000244141</ele>
        <time>2024-01-30T17:10:30.000Z</time>
      </trkpt>
      <trkpt lat="45.14821" lon="2.77387">
        <ele>1067.5999755859</ele>
        <time>2024-01-30T17:10:33.000Z</time>
      </trkpt>
      <trkpt lat="45.14809" lon="2.77376">
        <ele>1068.4000244141</ele>
        <time>2024-01-30T17:10:34.000Z</time>
      </trkpt>
      <trkpt lat="45.14797" lon="2.77365">
        <ele>1069</ele>
        <time>2024-01-30T17:10:35.000Z</time>
      </trkpt>
      <trkpt lat="45.1477" lon="2.77342">
        <ele>1070.4000244141</ele>
        <time>2024-01-30T17:10:37.000Z</time>
      </trkpt>
      <trkpt lat="45.14729" lon="2.77308">
        <ele>1072.1999511719</ele>
        <time>2024-01-30T17:10:40.000Z</time>
      </trkpt>
      <trkpt lat="45.147" lon="2.77286">
        <ele>1073.1999511719</ele>
        <time>2024-01-30T17:10:42.000Z</time>
      </trkpt>
      <trkpt lat="45.14653" lon="2.77258">
        <ele>1074.8000488281</ele>
        <time>2024-01-30T17:10:45.000Z</time>
      </trkpt>
      <trkpt lat="45.14622" lon="2.77239">
        <ele>1076</ele>
        <time>2024-01-30T17:10:47.000Z</time>
      </trkpt>
      <trkpt lat="45.14565" lon="2.77203">
        <ele>1077</ele>
        <time>2024-01-30T17:10:51.000Z</time>
      </trkpt>
      <trkpt lat="45.14542" lon="2.77179">
        <ele>1077.8000488281</ele>
        <time>2024-01-30T17:10:53.000Z</time>
      </trkpt>
      <trkpt lat="45.14532" lon="2.77165">
        <ele>1078.1999511719</ele>
        <time>2024-01-30T17:10:54.000Z</time>
      </trkpt>
      <trkpt lat="45.14522" lon="2.77148">
        <ele>1078.5999755859</ele>
        <time>2024-01-30T17:10:55.000Z</time>
      </trkpt>
      <trkpt lat="45.14508" lon="2.77115">
        <ele>1079.4000244141</ele>
        <time>2024-01-30T17:10:57.000Z</time>
      </trkpt>
      <trkpt lat="45.14481" lon="2.77058">
        <ele>1080.4000244141</ele>
        <time>2024-01-30T17:11:00.000Z</time>
      </trkpt>
      <trkpt lat="45.14471" lon="2.77043">
        <ele>1081</ele>
        <time>2024-01-30T17:11:01.000Z</time>
      </trkpt>
      <trkpt lat="45.14448" lon="2.77013">
        <ele>1082.1999511719</ele>
        <time>2024-01-30T17:11:03.000Z</time>
      </trkpt>
      <trkpt lat="45.14404" lon="2.76958">
        <ele>1083.5999755859</ele>
        <time>2024-01-30T17:11:07.000Z</time>
      </trkpt>
      <trkpt lat="45.14373" lon="2.76912">
        <ele>1084.8000488281</ele>
        <time>2024-01-30T17:11:10.000Z</time>
      </trkpt>
      <trkpt lat="45.14364" lon="2.76895">
        <ele>1085.1999511719</ele>
        <time>2024-01-30T17:11:11.000Z</time>
      </trkpt>
      <trkpt lat="45.14347" lon="2.76855">
        <ele>1086</ele>
        <time>2024-01-30T17:11:13.000Z</time>
      </trkpt>
      <trkpt lat="45.14323" lon="2.76798">
        <ele>1087.1999511719</ele>
        <time>2024-01-30T17:11:16.000Z</time>
      </trkpt>
      <trkpt lat="45.14297" lon="2.76739">
        <ele>1089.1999511719</ele>
        <time>2024-01-30T17:11:19.000Z</time>
      </trkpt>
      <trkpt lat="45.14282" lon="2.76698">
        <ele>1090.5999755859</ele>
        <time>2024-01-30T17:11:21.000Z</time>
      </trkpt>
      <trkpt lat="45.14261" lon="2.76634">
        <ele>1091.8000488281</ele>
        <time>2024-01-30T17:11:24.000Z</time>
      </trkpt>
      <trkpt lat="45.14242" lon="2.76575">
        <ele>1092.5999755859</ele>
        <time>2024-01-30T17:11:27.000Z</time>
      </trkpt>
      <trkpt lat="45.14233" lon="2.7654">
        <ele>1092.8000488281</ele>
        <time>2024-01-30T17:11:29.000Z</time>
      </trkpt>
      <trkpt lat="45.1423" lon="2.76523">
        <ele>1093</ele>
        <time>2024-01-30T17:11:30.000Z</time>
      </trkpt>
      <trkpt lat="45.14228" lon="2.7647">
        <ele>1094</ele>
        <time>2024-01-30T17:11:33.000Z</time>
      </trkpt>
      <trkpt lat="45.14229" lon="2.7645">
        <ele>1094.4000244141</ele>
        <time>2024-01-30T17:11:34.000Z</time>
      </trkpt>
      <trkpt lat="45.1423" lon="2.76429">
        <ele>1095</ele>
        <time>2024-01-30T17:11:35.000Z</time>
      </trkpt>
      <trkpt lat="45.14232" lon="2.76387">
        <ele>1096.1999511719</ele>
        <time>2024-01-30T17:11:37.000Z</time>
      </trkpt>
      <trkpt lat="45.14234" lon="2.76366">
        <ele>1096.5999755859</ele>
        <time>2024-01-30T17:11:38.000Z</time>
      </trkpt>
      <trkpt lat="45.14241" lon="2.76324">
        <ele>1097.5999755859</ele>
        <time>2024-01-30T17:11:40.000Z</time>
      </trkpt>
      <trkpt lat="45.14253" lon="2.76258">
        <ele>1099</ele>
        <time>2024-01-30T17:11:43.000Z</time>
      </trkpt>
      <trkpt lat="45.14257" lon="2.76237">
        <ele>1099.4000244141</ele>
        <time>2024-01-30T17:11:44.000Z</time>
      </trkpt>
      <trkpt lat="45.14266" lon="2.76192">
        <ele>1100.1999511719</ele>
        <time>2024-01-30T17:11:46.000Z</time>
      </trkpt>
      <trkpt lat="45.14275" lon="2.76145">
        <ele>1101.4000244141</ele>
        <time>2024-01-30T17:11:48.000Z</time>
      </trkpt>
      <trkpt lat="45.1428" lon="2.76097">
        <ele>1102.5999755859</ele>
        <time>2024-01-30T17:11:50.000Z</time>
      </trkpt>
      <trkpt lat="45.14282" lon="2.76047">
        <ele>1103.4000244141</ele>
        <time>2024-01-30T17:11:52.000Z</time>
      </trkpt>
      <trkpt lat="45.14282" lon="2.76022">
        <ele>1103.8000488281</ele>
        <time>2024-01-30T17:11:53.000Z</time>
      </trkpt>
      <trkpt lat="45.14283" lon="2.75974">
        <ele>1104.8000488281</ele>
        <time>2024-01-30T17:11:55.000Z</time>
      </trkpt>
      <trkpt lat="45.14283" lon="2.75926">
        <ele>1106</ele>
        <time>2024-01-30T17:11:57.000Z</time>
      </trkpt>
      <trkpt lat="45.14281" lon="2.7588">
        <ele>1106.5999755859</ele>
        <time>2024-01-30T17:11:59.000Z</time>
      </trkpt>
      <trkpt lat="45.14273" lon="2.75838">
        <ele>1107.4000244141</ele>
        <time>2024-01-30T17:12:01.000Z</time>
      </trkpt>
      <trkpt lat="45.14266" lon="2.75793">
        <ele>1107.8000488281</ele>
        <time>2024-01-30T17:12:03.000Z</time>
      </trkpt>
      <trkpt lat="45.14259" lon="2.75709">
        <ele>1108.4000244141</ele>
        <time>2024-01-30T17:12:07.000Z</time>
      </trkpt>
      <trkpt lat="45.14256" lon="2.75684">
        <ele>1108.5999755859</ele>
        <time>2024-01-30T17:12:08.000Z</time>
      </trkpt>
      <trkpt lat="45.1424" lon="2.75626">
        <ele>1109.1999511719</ele>
        <time>2024-01-30T17:12:11.000Z</time>
      </trkpt>
      <trkpt lat="45.14214" lon="2.75546">
        <ele>1109.4000244141</ele>
        <time>2024-01-30T17:12:15.000Z</time>
      </trkpt>
      <trkpt lat="45.1421" lon="2.75525">
        <ele>1109.1999511719</ele>
        <time>2024-01-30T17:12:16.000Z</time>
      </trkpt>
      <trkpt lat="45.14199" lon="2.75436">
        <ele>1109.1999511719</ele>
        <time>2024-01-30T17:12:20.000Z</time>
      </trkpt>
      <trkpt lat="45.1418" lon="2.75372">
        <ele>1109.5999755859</ele>
        <time>2024-01-30T17:12:23.000Z</time>
      </trkpt>
      <trkpt lat="45.1415" lon="2.75288">
        <ele>1110</ele>
        <time>2024-01-30T17:12:27.000Z</time>
      </trkpt>
      <trkpt lat="45.1413" lon="2.75224">
        <ele>1110.8000488281</ele>
        <time>2024-01-30T17:12:30.000Z</time>
      </trkpt>
      <trkpt lat="45.14111" lon="2.75134">
        <ele>1112</ele>
        <time>2024-01-30T17:12:34.000Z</time>
      </trkpt>
      <trkpt lat="45.14095" lon="2.7505">
        <ele>1112.8000488281</ele>
        <time>2024-01-30T17:12:38.000Z</time>
      </trkpt>
      <trkpt lat="45.14087" lon="2.75033">
        <ele>1113</ele>
        <time>2024-01-30T17:12:39.000Z</time>
      </trkpt>
      <trkpt lat="45.14077" lon="2.75019">
        <ele>1113.1999511719</ele>
        <time>2024-01-30T17:12:40.000Z</time>
      </trkpt>
      <trkpt lat="45.14049" lon="2.74975">
        <ele>1113.5999755859</ele>
        <time>2024-01-30T17:12:43.000Z</time>
      </trkpt>
      <trkpt lat="45.14043" lon="2.74958">
        <ele>1113.8000488281</ele>
        <time>2024-01-30T17:12:44.000Z</time>
      </trkpt>
      <trkpt lat="45.14038" lon="2.74941">
        <ele>1113.8000488281</ele>
        <time>2024-01-30T17:12:45.000Z</time>
      </trkpt>
      <trkpt lat="45.14035" lon="2.74924">
        <ele>1114</ele>
        <time>2024-01-30T17:12:46.000Z</time>
      </trkpt>
      <trkpt lat="45.1403" lon="2.74907">
        <ele>1114.1999511719</ele>
        <time>2024-01-30T17:12:47.000Z</time>
      </trkpt>
      <trkpt lat="45.14016" lon="2.74879">
        <ele>1114.5999755859</ele>
        <time>2024-01-30T17:12:49.000Z</time>
      </trkpt>
      <trkpt lat="45.14007" lon="2.74866">
        <ele>1115</ele>
        <time>2024-01-30T17:12:50.000Z</time>
      </trkpt>
      <trkpt lat="45.14" lon="2.74852">
        <ele>1115.1999511719</ele>
        <time>2024-01-30T17:12:51.000Z</time>
      </trkpt>
      <trkpt lat="45.13988" lon="2.74823">
        <ele>1115.5999755859</ele>
        <time>2024-01-30T17:12:53.000Z</time>
      </trkpt>
      <trkpt lat="45.13982" lon="2.7481">
        <ele>1115.5999755859</ele>
        <time>2024-01-30T17:12:54.000Z</time>
      </trkpt>
      <trkpt lat="45.13965" lon="2.74791">
        <ele>1115.8000488281</ele>
        <time>2024-01-30T17:12:56.000Z</time>
      </trkpt>
      <trkpt lat="45.13941" lon="2.74764">
        <ele>1116</ele>
        <time>2024-01-30T17:12:59.000Z</time>
      </trkpt>
      <trkpt lat="45.13935" lon="2.74752">
        <ele>1116.4000244141</ele>
        <time>2024-01-30T17:13:00.000Z</time>
      </trkpt>
      <trkpt lat="45.1393" lon="2.74738">
        <ele>1116.5999755859</ele>
        <time>2024-01-30T17:13:01.000Z</time>
      </trkpt>
      <trkpt lat="45.13921" lon="2.74711">
        <ele>1117.1999511719</ele>
        <time>2024-01-30T17:13:03.000Z</time>
      </trkpt>
      <trkpt lat="45.13915" lon="2.74699">
        <ele>1117.1999511719</ele>
        <time>2024-01-30T17:13:04.000Z</time>
      </trkpt>
      <trkpt lat="45.13908" lon="2.74687">
        <ele>1117.4000244141</ele>
        <time>2024-01-30T17:13:05.000Z</time>
      </trkpt>
      <trkpt lat="45.13891" lon="2.74665">
        <ele>1118</ele>
        <time>2024-01-30T17:13:07.000Z</time>
      </trkpt>
      <trkpt lat="45.13874" lon="2.74644">
        <ele>1118.1999511719</ele>
        <time>2024-01-30T17:13:09.000Z</time>
      </trkpt>
      <trkpt lat="45.13863" lon="2.74618">
        <ele>1118.4000244141</ele>
        <time>2024-01-30T17:13:11.000Z</time>
      </trkpt>
      <trkpt lat="45.13854" lon="2.74591">
        <ele>1118.5999755859</ele>
        <time>2024-01-30T17:13:13.000Z</time>
      </trkpt>
      <trkpt lat="45.13849" lon="2.74578">
        <ele>1118.5999755859</ele>
        <time>2024-01-30T17:13:14.000Z</time>
      </trkpt>
      <trkpt lat="45.13843" lon="2.74567">
        <ele>1118.5999755859</ele>
        <time>2024-01-30T17:13:15.000Z</time>
      </trkpt>
      <trkpt lat="45.13827" lon="2.74535">
        <ele>1119.1999511719</ele>
        <time>2024-01-30T17:13:18.000Z</time>
      </trkpt>
      <trkpt lat="45.13823" lon="2.74522">
        <ele>1119.4000244141</ele>
        <time>2024-01-30T17:13:19.000Z</time>
      </trkpt>
      <trkpt lat="45.1382" lon="2.74507">
        <ele>1119.8000488281</ele>
        <time>2024-01-30T17:13:20.000Z</time>
      </trkpt>
      <trkpt lat="45.13817" lon="2.74459">
        <ele>1120.4000244141</ele>
        <time>2024-01-30T17:13:23.000Z</time>
      </trkpt>
      <trkpt lat="45.1381" lon="2.74413">
        <ele>1120.5999755859</ele>
        <time>2024-01-30T17:13:26.000Z</time>
      </trkpt>
      <trkpt lat="45.13804" lon="2.744">
        <ele>1120.5999755859</ele>
        <time>2024-01-30T17:13:27.000Z</time>
      </trkpt>
      <trkpt lat="45.13798" lon="2.74389">
        <ele>1120.8000488281</ele>
        <time>2024-01-30T17:13:28.000Z</time>
      </trkpt>
      <trkpt lat="45.13786" lon="2.74368">
        <ele>1122.1999511719</ele>
        <time>2024-01-30T17:13:30.000Z</time>
      </trkpt>
      <trkpt lat="45.1378" lon="2.74357">
        <ele>1122.8000488281</ele>
        <time>2024-01-30T17:13:31.000Z</time>
      </trkpt>
      <trkpt lat="45.13776" lon="2.74346">
        <ele>1123.5999755859</ele>
        <time>2024-01-30T17:13:32.000Z</time>
      </trkpt>
      <trkpt lat="45.13773" lon="2.74333">
        <ele>1125</ele>
        <time>2024-01-30T17:13:33.000Z</time>
      </trkpt>
      <trkpt lat="45.1377" lon="2.7432">
        <ele>1125.5999755859</ele>
        <time>2024-01-30T17:13:34.000Z</time>
      </trkpt>
      <trkpt lat="45.13767" lon="2.74305">
        <ele>1126.8000488281</ele>
        <time>2024-01-30T17:13:35.000Z</time>
      </trkpt>
      <trkpt lat="45.13762" lon="2.7427">
        <ele>1128.1999511719</ele>
        <time>2024-01-30T17:13:37.000Z</time>
      </trkpt>
      <trkpt lat="45.1376" lon="2.74252">
        <ele>1129.1999511719</ele>
        <time>2024-01-30T17:13:38.000Z</time>
      </trkpt>
      <trkpt lat="45.13758" lon="2.74237">
        <ele>1130.5999755859</ele>
        <time>2024-01-30T17:13:39.000Z</time>
      </trkpt>
      <trkpt lat="45.13753" lon="2.742">
        <ele>1132.4000244141</ele>
        <time>2024-01-30T17:13:41.000Z</time>
      </trkpt>
      <trkpt lat="45.13748" lon="2.74161">
        <ele>1134.5999755859</ele>
        <time>2024-01-30T17:13:43.000Z</time>
      </trkpt>
      <trkpt lat="45.13743" lon="2.74123">
        <ele>1136.4000244141</ele>
        <time>2024-01-30T17:13:45.000Z</time>
      </trkpt>
      <trkpt lat="45.13739" lon="2.74091">
        <ele>1137.8000488281</ele>
        <time>2024-01-30T17:13:47.000Z</time>
      </trkpt>
      <trkpt lat="45.13735" lon="2.74077">
        <ele>1139</ele>
        <time>2024-01-30T17:13:48.000Z</time>
      </trkpt>
      <trkpt lat="45.13725" lon="2.74053">
        <ele>1140.4000244141</ele>
        <time>2024-01-30T17:13:50.000Z</time>
      </trkpt>
      <trkpt lat="45.13723" lon="2.74041">
        <ele>1141</ele>
        <time>2024-01-30T17:13:51.000Z</time>
      </trkpt>
      <trkpt lat="45.13722" lon="2.7403">
        <ele>1141.5999755859</ele>
        <time>2024-01-30T17:13:52.000Z</time>
      </trkpt>
      <trkpt lat="45.13723" lon="2.74019">
        <ele>1142.4000244141</ele>
        <time>2024-01-30T17:13:53.000Z</time>
      </trkpt>
      <trkpt lat="45.13725" lon="2.74008">
        <ele>1143.1999511719</ele>
        <time>2024-01-30T17:13:54.000Z</time>
      </trkpt>
      <trkpt lat="45.13726" lon="2.73996">
        <ele>1144.1999511719</ele>
        <time>2024-01-30T17:13:55.000Z</time>
      </trkpt>
      <trkpt lat="45.13725" lon="2.73983">
        <ele>1145.1999511719</ele>
        <time>2024-01-30T17:13:56.000Z</time>
      </trkpt>
      <trkpt lat="45.13721" lon="2.73971">
        <ele>1145.8000488281</ele>
        <time>2024-01-30T17:13:57.000Z</time>
      </trkpt>
      <trkpt lat="45.13716" lon="2.7396">
        <ele>1146.8000488281</ele>
        <time>2024-01-30T17:13:58.000Z</time>
      </trkpt>
      <trkpt lat="45.1371" lon="2.73948">
        <ele>1147.8000488281</ele>
        <time>2024-01-30T17:13:59.000Z</time>
      </trkpt>
      <trkpt lat="45.13698" lon="2.73925">
        <ele>1149</ele>
        <time>2024-01-30T17:14:01.000Z</time>
      </trkpt>
      <trkpt lat="45.1369" lon="2.73899">
        <ele>1150.8000488281</ele>
        <time>2024-01-30T17:14:03.000Z</time>
      </trkpt>
      <trkpt lat="45.13687" lon="2.73884">
        <ele>1151.4000244141</ele>
        <time>2024-01-30T17:14:04.000Z</time>
      </trkpt>
      <trkpt lat="45.13685" lon="2.73869">
        <ele>1152.1999511719</ele>
        <time>2024-01-30T17:14:05.000Z</time>
      </trkpt>
      <trkpt lat="45.13682" lon="2.73852">
        <ele>1154.5999755859</ele>
        <time>2024-01-30T17:14:06.000Z</time>
      </trkpt>
      <trkpt lat="45.13677" lon="2.73836">
        <ele>1157</ele>
        <time>2024-01-30T17:14:07.000Z</time>
      </trkpt>
      <trkpt lat="45.13672" lon="2.7382">
        <ele>1158.1999511719</ele>
        <time>2024-01-30T17:14:08.000Z</time>
      </trkpt>
      <trkpt lat="45.1366" lon="2.73787">
        <ele>1160</ele>
        <time>2024-01-30T17:14:10.000Z</time>
      </trkpt>
      <trkpt lat="45.13648" lon="2.73755">
        <ele>1162.4000244141</ele>
        <time>2024-01-30T17:14:12.000Z</time>
      </trkpt>
      <trkpt lat="45.13642" lon="2.73739">
        <ele>1163</ele>
        <time>2024-01-30T17:14:13.000Z</time>
      </trkpt>
      <trkpt lat="45.13629" lon="2.73709">
        <ele>1163.8000488281</ele>
        <time>2024-01-30T17:14:15.000Z</time>
      </trkpt>
      <trkpt lat="45.13624" lon="2.73696">
        <ele>1164.1999511719</ele>
        <time>2024-01-30T17:14:16.000Z</time>
      </trkpt>
      <trkpt lat="45.13621" lon="2.73682">
        <ele>1164.8000488281</ele>
        <time>2024-01-30T17:14:17.000Z</time>
      </trkpt>
      <trkpt lat="45.13619" lon="2.73669">
        <ele>1165</ele>
        <time>2024-01-30T17:14:18.000Z</time>
      </trkpt>
      <trkpt lat="45.13616" lon="2.73639">
        <ele>1167.1999511719</ele>
        <time>2024-01-30T17:14:20.000Z</time>
      </trkpt>
      <trkpt lat="45.13615" lon="2.73623">
        <ele>1168.4000244141</ele>
        <time>2024-01-30T17:14:21.000Z</time>
      </trkpt>
      <trkpt lat="45.13616" lon="2.73589">
        <ele>1170</ele>
        <time>2024-01-30T17:14:23.000Z</time>
      </trkpt>
      <trkpt lat="45.13618" lon="2.73573">
        <ele>1171</ele>
        <time>2024-01-30T17:14:24.000Z</time>
      </trkpt>
      <trkpt lat="45.13619" lon="2.73558">
        <ele>1171.8000488281</ele>
        <time>2024-01-30T17:14:25.000Z</time>
      </trkpt>
      <trkpt lat="45.13617" lon="2.73525">
        <ele>1172.5999755859</ele>
        <time>2024-01-30T17:14:27.000Z</time>
      </trkpt>
      <trkpt lat="45.13614" lon="2.73508">
        <ele>1174.8000488281</ele>
        <time>2024-01-30T17:14:28.000Z</time>
      </trkpt>
      <trkpt lat="45.13612" lon="2.73473">
        <ele>1176</ele>
        <time>2024-01-30T17:14:30.000Z</time>
      </trkpt>
      <trkpt lat="45.13612" lon="2.73456">
        <ele>1176.8000488281</ele>
        <time>2024-01-30T17:14:31.000Z</time>
      </trkpt>
      <trkpt lat="45.13612" lon="2.73437">
        <ele>1177.5999755859</ele>
        <time>2024-01-30T17:14:32.000Z</time>
      </trkpt>
      <trkpt lat="45.13613" lon="2.73419">
        <ele>1179</ele>
        <time>2024-01-30T17:14:33.000Z</time>
      </trkpt>
      <trkpt lat="45.13613" lon="2.734">
        <ele>1180</ele>
        <time>2024-01-30T17:14:34.000Z</time>
      </trkpt>
      <trkpt lat="45.13615" lon="2.73365">
        <ele>1181.8000488281</ele>
        <time>2024-01-30T17:14:36.000Z</time>
      </trkpt>
      <trkpt lat="45.13617" lon="2.73349">
        <ele>1183</ele>
        <time>2024-01-30T17:14:37.000Z</time>
      </trkpt>
      <trkpt lat="45.13622" lon="2.7332">
        <ele>1185.1999511719</ele>
        <time>2024-01-30T17:14:39.000Z</time>
      </trkpt>
      <trkpt lat="45.13623" lon="2.73304">
        <ele>1185.8000488281</ele>
        <time>2024-01-30T17:14:40.000Z</time>
      </trkpt>
      <trkpt lat="45.13622" lon="2.73277">
        <ele>1186.4000244141</ele>
        <time>2024-01-30T17:14:42.000Z</time>
      </trkpt>
      <trkpt lat="45.13622" lon="2.73263">
        <ele>1186.8000488281</ele>
        <time>2024-01-30T17:14:43.000Z</time>
      </trkpt>
      <trkpt lat="45.13624" lon="2.73236">
        <ele>1187.4000244141</ele>
        <time>2024-01-30T17:14:45.000Z</time>
      </trkpt>
      <trkpt lat="45.13626" lon="2.73223">
        <ele>1188</ele>
        <time>2024-01-30T17:14:46.000Z</time>
      </trkpt>
      <trkpt lat="45.13629" lon="2.73212">
        <ele>1188.8000488281</ele>
        <time>2024-01-30T17:14:47.000Z</time>
      </trkpt>
      <trkpt lat="45.13633" lon="2.73191">
        <ele>1190.4000244141</ele>
        <time>2024-01-30T17:14:49.000Z</time>
      </trkpt>
      <trkpt lat="45.13634" lon="2.73181">
        <ele>1190.8000488281</ele>
        <time>2024-01-30T17:14:50.000Z</time>
      </trkpt>
      <trkpt lat="45.1363" lon="2.73165">
        <ele>1191.1999511719</ele>
        <time>2024-01-30T17:14:52.000Z</time>
      </trkpt>
      <trkpt lat="45.13625" lon="2.73156">
        <ele>1191.1999511719</ele>
        <time>2024-01-30T17:14:53.000Z</time>
      </trkpt>
      <trkpt lat="45.13619" lon="2.73147">
        <ele>1191.5999755859</ele>
        <time>2024-01-30T17:14:54.000Z</time>
      </trkpt>
      <trkpt lat="45.13607" lon="2.73126">
        <ele>1192.8000488281</ele>
        <time>2024-01-30T17:14:56.000Z</time>
      </trkpt>
      <trkpt lat="45.13602" lon="2.73113">
        <ele>1194</ele>
        <time>2024-01-30T17:14:57.000Z</time>
      </trkpt>
      <trkpt lat="45.13596" lon="2.73098">
        <ele>1195</ele>
        <time>2024-01-30T17:14:58.000Z</time>
      </trkpt>
      <trkpt lat="45.13589" lon="2.73082">
        <ele>1196.4000244141</ele>
        <time>2024-01-30T17:14:59.000Z</time>
      </trkpt>
      <trkpt lat="45.13582" lon="2.73066">
        <ele>1198.1999511719</ele>
        <time>2024-01-30T17:15:00.000Z</time>
      </trkpt>
      <trkpt lat="45.13574" lon="2.7305">
        <ele>1199.4000244141</ele>
        <time>2024-01-30T17:15:01.000Z</time>
      </trkpt>
      <trkpt lat="45.13557" lon="2.73017">
        <ele>1200.8000488281</ele>
        <time>2024-01-30T17:15:03.000Z</time>
      </trkpt>
      <trkpt lat="45.1355" lon="2.73001">
        <ele>1201.8000488281</ele>
        <time>2024-01-30T17:15:04.000Z</time>
      </trkpt>
      <trkpt lat="45.13542" lon="2.72984">
        <ele>1203</ele>
        <time>2024-01-30T17:15:05.000Z</time>
      </trkpt>
      <trkpt lat="45.13533" lon="2.72952">
        <ele>1204.1999511719</ele>
        <time>2024-01-30T17:15:07.000Z</time>
      </trkpt>
      <trkpt lat="45.13528" lon="2.72937">
        <ele>1204.4000244141</ele>
        <time>2024-01-30T17:15:08.000Z</time>
      </trkpt>
      <trkpt lat="45.13514" lon="2.7288">
        <ele>1206</ele>
        <time>2024-01-30T17:15:12.000Z</time>
      </trkpt>
      <trkpt lat="45.1351" lon="2.72861">
        <ele>1207.1999511719</ele>
        <time>2024-01-30T17:15:13.000Z</time>
      </trkpt>
      <trkpt lat="45.13506" lon="2.72847">
        <ele>1208.1999511719</ele>
        <time>2024-01-30T17:15:14.000Z</time>
      </trkpt>
      <trkpt lat="45.13498" lon="2.72811">
        <ele>1210</ele>
        <time>2024-01-30T17:15:16.000Z</time>
      </trkpt>
      <trkpt lat="45.13494" lon="2.72794">
        <ele>1211</ele>
        <time>2024-01-30T17:15:17.000Z</time>
      </trkpt>
      <trkpt lat="45.13486" lon="2.72757">
        <ele>1213.4000244141</ele>
        <time>2024-01-30T17:15:19.000Z</time>
      </trkpt>
      <trkpt lat="45.13481" lon="2.72738">
        <ele>1214.4000244141</ele>
        <time>2024-01-30T17:15:20.000Z</time>
      </trkpt>
      <trkpt lat="45.13476" lon="2.72698">
        <ele>1216</ele>
        <time>2024-01-30T17:15:22.000Z</time>
      </trkpt>
      <trkpt lat="45.1347" lon="2.72653">
        <ele>1217.8000488281</ele>
        <time>2024-01-30T17:15:24.000Z</time>
      </trkpt>
      <trkpt lat="45.13467" lon="2.72632">
        <ele>1219.1999511719</ele>
        <time>2024-01-30T17:15:25.000Z</time>
      </trkpt>
      <trkpt lat="45.13462" lon="2.7259">
        <ele>1221.5999755859</ele>
        <time>2024-01-30T17:15:27.000Z</time>
      </trkpt>
      <trkpt lat="45.13457" lon="2.72546">
        <ele>1223</ele>
        <time>2024-01-30T17:15:29.000Z</time>
      </trkpt>
      <trkpt lat="45.13452" lon="2.72478">
        <ele>1224.5999755859</ele>
        <time>2024-01-30T17:15:32.000Z</time>
      </trkpt>
      <trkpt lat="45.13448" lon="2.72411">
        <ele>1225</ele>
        <time>2024-01-30T17:15:35.000Z</time>
      </trkpt>
      <trkpt lat="45.13447" lon="2.72378">
        <ele>1225.8000488281</ele>
        <time>2024-01-30T17:15:37.000Z</time>
      </trkpt>
      <trkpt lat="45.13449" lon="2.72361">
        <ele>1226.4000244141</ele>
        <time>2024-01-30T17:15:39.000Z</time>
      </trkpt>
      <trkpt lat="45.1345" lon="2.72357">
        <ele>1226.5999755859</ele>
        <time>2024-01-30T17:15:41.000Z</time>
      </trkpt>
      <trkpt lat="45.1345" lon="2.72357">
        <ele>1226.8000488281</ele>
        <time>2024-01-30T17:15:42.000Z</time>
      </trkpt>
      <trkpt lat="45.1345" lon="2.72357">
        <ele>1227.4000244141</ele>
        <time>2024-01-30T17:15:45.000Z</time>
      </trkpt>
      <trkpt lat="45.13449" lon="2.72362">
        <ele>1227.4000244141</ele>
        <time>2024-01-30T17:15:52.000Z</time>
      </trkpt>
      <trkpt lat="45.13448" lon="2.72364">
        <ele>1227.1999511719</ele>
        <time>2024-01-30T17:16:00.000Z</time>
      </trkpt>
      <trkpt lat="45.13448" lon="2.72364">
        <ele>1227.4000244141</ele>
        <time>2024-01-30T17:16:12.000Z</time>
      </trkpt>
      <trkpt lat="45.13449" lon="2.72365">
        <ele>1227.5999755859</ele>
        <time>2024-01-30T17:16:42.000Z</time>
      </trkpt>
      <trkpt lat="45.13452" lon="2.7236">
        <ele>1227.8000488281</ele>
        <time>2024-01-30T17:16:45.000Z</time>
      </trkpt>
      <trkpt lat="45.13455" lon="2.72356">
        <ele>1228</ele>
        <time>2024-01-30T17:16:46.000Z</time>
      </trkpt>
      <trkpt lat="45.13464" lon="2.72342">
        <ele>1228.8000488281</ele>
        <time>2024-01-30T17:16:49.000Z</time>
      </trkpt>
      <trkpt lat="45.13466" lon="2.72335">
        <ele>1229.1999511719</ele>
        <time>2024-01-30T17:16:50.000Z</time>
      </trkpt>
      <trkpt lat="45.13468" lon="2.72328">
        <ele>1229.5999755859</ele>
        <time>2024-01-30T17:16:51.000Z</time>
      </trkpt>
      <trkpt lat="45.13464" lon="2.72313">
        <ele>1230</ele>
        <time>2024-01-30T17:16:53.000Z</time>
      </trkpt>
      <trkpt lat="45.13459" lon="2.72307">
        <ele>1230.4000244141</ele>
        <time>2024-01-30T17:16:54.000Z</time>
      </trkpt>
      <trkpt lat="45.13449" lon="2.72292">
        <ele>1231.4000244141</ele>
        <time>2024-01-30T17:16:56.000Z</time>
      </trkpt>
      <trkpt lat="45.13444" lon="2.72284">
        <ele>1231.5999755859</ele>
        <time>2024-01-30T17:16:57.000Z</time>
      </trkpt>
      <trkpt lat="45.1344" lon="2.72262">
        <ele>1232.4000244141</ele>
        <time>2024-01-30T17:16:59.000Z</time>
      </trkpt>
      <trkpt lat="45.1344" lon="2.72222">
        <ele>1234</ele>
        <time>2024-01-30T17:17:02.000Z</time>
      </trkpt>
      <trkpt lat="45.13437" lon="2.72208">
        <ele>1234.8000488281</ele>
        <time>2024-01-30T17:17:03.000Z</time>
      </trkpt>
      <trkpt lat="45.13433" lon="2.72194">
        <ele>1235.5999755859</ele>
        <time>2024-01-30T17:17:04.000Z</time>
      </trkpt>
      <trkpt lat="45.1342" lon="2.72169">
        <ele>1237</ele>
        <time>2024-01-30T17:17:06.000Z</time>
      </trkpt>
      <trkpt lat="45.13404" lon="2.72143">
        <ele>1238.8000488281</ele>
        <time>2024-01-30T17:17:08.000Z</time>
      </trkpt>
      <trkpt lat="45.1339" lon="2.72114">
        <ele>1240.4000244141</ele>
        <time>2024-01-30T17:17:10.000Z</time>
      </trkpt>
      <trkpt lat="45.13378" lon="2.72084">
        <ele>1241.8000488281</ele>
        <time>2024-01-30T17:17:12.000Z</time>
      </trkpt>
      <trkpt lat="45.13373" lon="2.72052">
        <ele>1243.1999511719</ele>
        <time>2024-01-30T17:17:14.000Z</time>
      </trkpt>
      <trkpt lat="45.13373" lon="2.72034">
        <ele>1244</ele>
        <time>2024-01-30T17:17:15.000Z</time>
      </trkpt>
      <trkpt lat="45.13371" lon="2.72016">
        <ele>1245</ele>
        <time>2024-01-30T17:17:16.000Z</time>
      </trkpt>
      <trkpt lat="45.13369" lon="2.71997">
        <ele>1246</ele>
        <time>2024-01-30T17:17:17.000Z</time>
      </trkpt>
      <trkpt lat="45.13365" lon="2.71956">
        <ele>1248</ele>
        <time>2024-01-30T17:17:19.000Z</time>
      </trkpt>
      <trkpt lat="45.13361" lon="2.71937">
        <ele>1249.1999511719</ele>
        <time>2024-01-30T17:17:20.000Z</time>
      </trkpt>
      <trkpt lat="45.13355" lon="2.71894">
        <ele>1251</ele>
        <time>2024-01-30T17:17:22.000Z</time>
      </trkpt>
      <trkpt lat="45.1335" lon="2.71846">
        <ele>1253.1999511719</ele>
        <time>2024-01-30T17:17:24.000Z</time>
      </trkpt>
      <trkpt lat="45.13347" lon="2.71822">
        <ele>1254.5999755859</ele>
        <time>2024-01-30T17:17:25.000Z</time>
      </trkpt>
      <trkpt lat="45.13343" lon="2.71798">
        <ele>1255.8000488281</ele>
        <time>2024-01-30T17:17:26.000Z</time>
      </trkpt>
      <trkpt lat="45.1334" lon="2.71773">
        <ele>1257.1999511719</ele>
        <time>2024-01-30T17:17:27.000Z</time>
      </trkpt>
      <trkpt lat="45.13335" lon="2.71749">
        <ele>1258.1999511719</ele>
        <time>2024-01-30T17:17:28.000Z</time>
      </trkpt>
      <trkpt lat="45.13331" lon="2.71724">
        <ele>1259.4000244141</ele>
        <time>2024-01-30T17:17:29.000Z</time>
      </trkpt>
      <trkpt lat="45.13323" lon="2.71672">
        <ele>1261.8000488281</ele>
        <time>2024-01-30T17:17:31.000Z</time>
      </trkpt>
      <trkpt lat="45.13318" lon="2.71646">
        <ele>1263.4000244141</ele>
        <time>2024-01-30T17:17:32.000Z</time>
      </trkpt>
      <trkpt lat="45.13314" lon="2.71619">
        <ele>1264.4000244141</ele>
        <time>2024-01-30T17:17:33.000Z</time>
      </trkpt>
      <trkpt lat="45.1331" lon="2.71593">
        <ele>1265.5999755859</ele>
        <time>2024-01-30T17:17:34.000Z</time>
      </trkpt>
      <trkpt lat="45.13305" lon="2.71567">
        <ele>1266.8000488281</ele>
        <time>2024-01-30T17:17:35.000Z</time>
      </trkpt>
      <trkpt lat="45.133" lon="2.71536">
        <ele>1268.4000244141</ele>
        <time>2024-01-30T17:17:36.000Z</time>
      </trkpt>
      <trkpt lat="45.13297" lon="2.71515">
        <ele>1269.5999755859</ele>
        <time>2024-01-30T17:17:37.000Z</time>
      </trkpt>
      <trkpt lat="45.1329" lon="2.71463">
        <ele>1271.5999755859</ele>
        <time>2024-01-30T17:17:39.000Z</time>
      </trkpt>
      <trkpt lat="45.13287" lon="2.71437">
        <ele>1272.4000244141</ele>
        <time>2024-01-30T17:17:40.000Z</time>
      </trkpt>
      <trkpt lat="45.13285" lon="2.71412">
        <ele>1274</ele>
        <time>2024-01-30T17:17:41.000Z</time>
      </trkpt>
      <trkpt lat="45.13276" lon="2.71364">
        <ele>1275.8000488281</ele>
        <time>2024-01-30T17:17:43.000Z</time>
      </trkpt>
      <trkpt lat="45.13269" lon="2.71338">
        <ele>1276.4000244141</ele>
        <time>2024-01-30T17:17:44.000Z</time>
      </trkpt>
      <trkpt lat="45.13264" lon="2.7132">
        <ele>1277.4000244141</ele>
        <time>2024-01-30T17:17:45.000Z</time>
      </trkpt>
      <trkpt lat="45.13255" lon="2.71276">
        <ele>1279</ele>
        <time>2024-01-30T17:17:47.000Z</time>
      </trkpt>
      <trkpt lat="45.1325" lon="2.71249">
        <ele>1279.8000488281</ele>
        <time>2024-01-30T17:17:48.000Z</time>
      </trkpt>
      <trkpt lat="45.13248" lon="2.7123">
        <ele>1280.5999755859</ele>
        <time>2024-01-30T17:17:49.000Z</time>
      </trkpt>
      <trkpt lat="45.13246" lon="2.71207">
        <ele>1282</ele>
        <time>2024-01-30T17:17:50.000Z</time>
      </trkpt>
      <trkpt lat="45.13244" lon="2.7116">
        <ele>1284</ele>
        <time>2024-01-30T17:17:52.000Z</time>
      </trkpt>
      <trkpt lat="45.13243" lon="2.71136">
        <ele>1285.1999511719</ele>
        <time>2024-01-30T17:17:53.000Z</time>
      </trkpt>
      <trkpt lat="45.13244" lon="2.7109">
        <ele>1287.5999755859</ele>
        <time>2024-01-30T17:17:55.000Z</time>
      </trkpt>
      <trkpt lat="45.13244" lon="2.71045">
        <ele>1289.4000244141</ele>
        <time>2024-01-30T17:17:57.000Z</time>
      </trkpt>
      <trkpt lat="45.13243" lon="2.71023">
        <ele>1290.5999755859</ele>
        <time>2024-01-30T17:17:58.000Z</time>
      </trkpt>
      <trkpt lat="45.13241" lon="2.71001">
        <ele>1291.8000488281</ele>
        <time>2024-01-30T17:17:59.000Z</time>
      </trkpt>
      <trkpt lat="45.13239" lon="2.70978">
        <ele>1292.8000488281</ele>
        <time>2024-01-30T17:18:00.000Z</time>
      </trkpt>
      <trkpt lat="45.13232" lon="2.70936">
        <ele>1294.4000244141</ele>
        <time>2024-01-30T17:18:02.000Z</time>
      </trkpt>
      <trkpt lat="45.13229" lon="2.70914">
        <ele>1295.5999755859</ele>
        <time>2024-01-30T17:18:03.000Z</time>
      </trkpt>
      <trkpt lat="45.13224" lon="2.70871">
        <ele>1297.1999511719</ele>
        <time>2024-01-30T17:18:05.000Z</time>
      </trkpt>
      <trkpt lat="45.13216" lon="2.70826">
        <ele>1299.4000244141</ele>
        <time>2024-01-30T17:18:07.000Z</time>
      </trkpt>
      <trkpt lat="45.13205" lon="2.7078">
        <ele>1301</ele>
        <time>2024-01-30T17:18:09.000Z</time>
      </trkpt>
      <trkpt lat="45.13199" lon="2.70756">
        <ele>1302</ele>
        <time>2024-01-30T17:18:10.000Z</time>
      </trkpt>
      <trkpt lat="45.13188" lon="2.70708">
        <ele>1303.8000488281</ele>
        <time>2024-01-30T17:18:12.000Z</time>
      </trkpt>
      <trkpt lat="45.13175" lon="2.70663">
        <ele>1305</ele>
        <time>2024-01-30T17:18:14.000Z</time>
      </trkpt>
      <trkpt lat="45.13162" lon="2.70617">
        <ele>1306.5999755859</ele>
        <time>2024-01-30T17:18:16.000Z</time>
      </trkpt>
      <trkpt lat="45.13154" lon="2.7059">
        <ele>1307.8000488281</ele>
        <time>2024-01-30T17:18:17.000Z</time>
      </trkpt>
      <trkpt lat="45.13142" lon="2.70549">
        <ele>1309.5999755859</ele>
        <time>2024-01-30T17:18:19.000Z</time>
      </trkpt>
      <trkpt lat="45.13135" lon="2.70527">
        <ele>1310.8000488281</ele>
        <time>2024-01-30T17:18:20.000Z</time>
      </trkpt>
      <trkpt lat="45.13129" lon="2.70505">
        <ele>1312.4000244141</ele>
        <time>2024-01-30T17:18:21.000Z</time>
      </trkpt>
      <trkpt lat="45.13122" lon="2.70483">
        <ele>1314</ele>
        <time>2024-01-30T17:18:22.000Z</time>
      </trkpt>
      <trkpt lat="45.13117" lon="2.70463">
        <ele>1315.4000244141</ele>
        <time>2024-01-30T17:18:23.000Z</time>
      </trkpt>
      <trkpt lat="45.13112" lon="2.70443">
        <ele>1317</ele>
        <time>2024-01-30T17:18:24.000Z</time>
      </trkpt>
      <trkpt lat="45.13106" lon="2.70424">
        <ele>1318.1999511719</ele>
        <time>2024-01-30T17:18:25.000Z</time>
      </trkpt>
      <trkpt lat="45.13099" lon="2.70407">
        <ele>1319.4000244141</ele>
        <time>2024-01-30T17:18:26.000Z</time>
      </trkpt>
      <trkpt lat="45.13091" lon="2.70392">
        <ele>1321</ele>
        <time>2024-01-30T17:18:27.000Z</time>
      </trkpt>
      <trkpt lat="45.13079" lon="2.70377">
        <ele>1321.8000488281</ele>
        <time>2024-01-30T17:18:28.000Z</time>
      </trkpt>
      <trkpt lat="45.1307" lon="2.70369">
        <ele>1323</ele>
        <time>2024-01-30T17:18:29.000Z</time>
      </trkpt>
      <trkpt lat="45.13061" lon="2.70357">
        <ele>1323.8000488281</ele>
        <time>2024-01-30T17:18:30.000Z</time>
      </trkpt>
      <trkpt lat="45.13051" lon="2.70344">
        <ele>1324.4000244141</ele>
        <time>2024-01-30T17:18:31.000Z</time>
      </trkpt>
      <trkpt lat="45.13042" lon="2.70322">
        <ele>1325.4000244141</ele>
        <time>2024-01-30T17:18:33.000Z</time>
      </trkpt>
      <trkpt lat="45.13038" lon="2.70299">
        <ele>1326.5999755859</ele>
        <time>2024-01-30T17:18:35.000Z</time>
      </trkpt>
      <trkpt lat="45.13038" lon="2.70289">
        <ele>1326.8000488281</ele>
        <time>2024-01-30T17:18:36.000Z</time>
      </trkpt>
      <trkpt lat="45.13037" lon="2.7028">
        <ele>1327.1999511719</ele>
        <time>2024-01-30T17:18:37.000Z</time>
      </trkpt>
      <trkpt lat="45.13036" lon="2.70269">
        <ele>1327.4000244141</ele>
        <time>2024-01-30T17:18:39.000Z</time>
      </trkpt>
      <trkpt lat="45.13032" lon="2.70265">
        <ele>1328</ele>
        <time>2024-01-30T17:18:41.000Z</time>
      </trkpt>
      <trkpt lat="45.1303" lon="2.70264">
        <ele>1328</ele>
        <time>2024-01-30T17:18:42.000Z</time>
      </trkpt>
      <trkpt lat="45.1303" lon="2.70262">
        <ele>1328.5999755859</ele>
        <time>2024-01-30T17:18:46.000Z</time>
      </trkpt>
      <trkpt lat="45.13028" lon="2.70261">
        <ele>1329</ele>
        <time>2024-01-30T17:18:52.000Z</time>
      </trkpt>
      <trkpt lat="45.13026" lon="2.7026">
        <ele>1329</ele>
        <time>2024-01-30T17:18:53.000Z</time>
      </trkpt>
      <trkpt lat="45.13013" lon="2.70252">
        <ele>1329.8000488281</ele>
        <time>2024-01-30T17:18:57.000Z</time>
      </trkpt>
      <trkpt lat="45.13008" lon="2.70249">
        <ele>1330.4000244141</ele>
        <time>2024-01-30T17:18:58.000Z</time>
      </trkpt>
      <trkpt lat="45.12992" lon="2.7024">
        <ele>1331</ele>
        <time>2024-01-30T17:19:01.000Z</time>
      </trkpt>
      <trkpt lat="45.12954" lon="2.70229">
        <ele>1331.1999511719</ele>
        <time>2024-01-30T17:19:07.000Z</time>
      </trkpt>
      <trkpt lat="45.12922" lon="2.70218">
        <ele>1330.8000488281</ele>
        <time>2024-01-30T17:19:12.000Z</time>
      </trkpt>
      <trkpt lat="45.12883" lon="2.70189">
        <ele>1330</ele>
        <time>2024-01-30T17:19:17.000Z</time>
      </trkpt>
      <trkpt lat="45.12864" lon="2.70179">
        <ele>1329.4000244141</ele>
        <time>2024-01-30T17:19:19.000Z</time>
      </trkpt>
      <trkpt lat="45.12853" lon="2.70177">
        <ele>1329.1999511719</ele>
        <time>2024-01-30T17:19:20.000Z</time>
      </trkpt>
      <trkpt lat="45.12841" lon="2.70175">
        <ele>1329</ele>
        <time>2024-01-30T17:19:21.000Z</time>
      </trkpt>
      <trkpt lat="45.12806" lon="2.70168">
        <ele>1328.1999511719</ele>
        <time>2024-01-30T17:19:24.000Z</time>
      </trkpt>
      <trkpt lat="45.12794" lon="2.70164">
        <ele>1327.5999755859</ele>
        <time>2024-01-30T17:19:25.000Z</time>
      </trkpt>
      <trkpt lat="45.12774" lon="2.7015">
        <ele>1327</ele>
        <time>2024-01-30T17:19:27.000Z</time>
      </trkpt>
      <trkpt lat="45.12765" lon="2.70141">
        <ele>1327</ele>
        <time>2024-01-30T17:19:28.000Z</time>
      </trkpt>
      <trkpt lat="45.1273" lon="2.701">
        <ele>1328.1999511719</ele>
        <time>2024-01-30T17:19:32.000Z</time>
      </trkpt>
      <trkpt lat="45.12713" lon="2.70076">
        <ele>1329.1999511719</ele>
        <time>2024-01-30T17:19:34.000Z</time>
      </trkpt>
      <trkpt lat="45.12702" lon="2.70061">
        <ele>1329.5999755859</ele>
        <time>2024-01-30T17:19:35.000Z</time>
      </trkpt>
      <trkpt lat="45.12687" lon="2.70037">
        <ele>1330.8000488281</ele>
        <time>2024-01-30T17:19:37.000Z</time>
      </trkpt>
      <trkpt lat="45.12671" lon="2.7001">
        <ele>1331.8000488281</ele>
        <time>2024-01-30T17:19:39.000Z</time>
      </trkpt>
      <trkpt lat="45.12656" lon="2.69978">
        <ele>1332.8000488281</ele>
        <time>2024-01-30T17:19:41.000Z</time>
      </trkpt>
      <trkpt lat="45.12629" lon="2.69931">
        <ele>1334.4000244141</ele>
        <time>2024-01-30T17:19:44.000Z</time>
      </trkpt>
      <trkpt lat="45.12609" lon="2.69899">
        <ele>1335.5999755859</ele>
        <time>2024-01-30T17:19:46.000Z</time>
      </trkpt>
      <trkpt lat="45.12589" lon="2.69868">
        <ele>1336.8000488281</ele>
        <time>2024-01-30T17:19:48.000Z</time>
      </trkpt>
      <trkpt lat="45.12559" lon="2.69826">
        <ele>1337.8000488281</ele>
        <time>2024-01-30T17:19:51.000Z</time>
      </trkpt>
      <trkpt lat="45.12546" lon="2.69814">
        <ele>1338.1999511719</ele>
        <time>2024-01-30T17:19:52.000Z</time>
      </trkpt>
      <trkpt lat="45.12534" lon="2.69803">
        <ele>1339</ele>
        <time>2024-01-30T17:19:53.000Z</time>
      </trkpt>
      <trkpt lat="45.12508" lon="2.6978">
        <ele>1340</ele>
        <time>2024-01-30T17:19:55.000Z</time>
      </trkpt>
      <trkpt lat="45.12482" lon="2.69759">
        <ele>1341.1999511719</ele>
        <time>2024-01-30T17:19:57.000Z</time>
      </trkpt>
      <trkpt lat="45.12454" lon="2.69745">
        <ele>1342.1999511719</ele>
        <time>2024-01-30T17:19:59.000Z</time>
      </trkpt>
      <trkpt lat="45.12422" lon="2.69737">
        <ele>1343.5999755859</ele>
        <time>2024-01-30T17:20:01.000Z</time>
      </trkpt>
      <trkpt lat="45.12388" lon="2.69729">
        <ele>1345</ele>
        <time>2024-01-30T17:20:03.000Z</time>
      </trkpt>
      <trkpt lat="45.12354" lon="2.69722">
        <ele>1346.4000244141</ele>
        <time>2024-01-30T17:20:05.000Z</time>
      </trkpt>
      <trkpt lat="45.12323" lon="2.69709">
        <ele>1347.1999511719</ele>
        <time>2024-01-30T17:20:07.000Z</time>
      </trkpt>
      <trkpt lat="45.12308" lon="2.69702">
        <ele>1347.5999755859</ele>
        <time>2024-01-30T17:20:08.000Z</time>
      </trkpt>
      <trkpt lat="45.12279" lon="2.69689">
        <ele>1348.5999755859</ele>
        <time>2024-01-30T17:20:10.000Z</time>
      </trkpt>
      <trkpt lat="45.12265" lon="2.69681">
        <ele>1349.1999511719</ele>
        <time>2024-01-30T17:20:11.000Z</time>
      </trkpt>
      <trkpt lat="45.12237" lon="2.69664">
        <ele>1350.5999755859</ele>
        <time>2024-01-30T17:20:13.000Z</time>
      </trkpt>
      <trkpt lat="45.12223" lon="2.69656">
        <ele>1351</ele>
        <time>2024-01-30T17:20:14.000Z</time>
      </trkpt>
      <trkpt lat="45.1221" lon="2.6965">
        <ele>1351.8000488281</ele>
        <time>2024-01-30T17:20:15.000Z</time>
      </trkpt>
      <trkpt lat="45.12196" lon="2.69643">
        <ele>1352</ele>
        <time>2024-01-30T17:20:16.000Z</time>
      </trkpt>
      <trkpt lat="45.12169" lon="2.69626">
        <ele>1353.1999511719</ele>
        <time>2024-01-30T17:20:18.000Z</time>
      </trkpt>
      <trkpt lat="45.12144" lon="2.69609">
        <ele>1354.1999511719</ele>
        <time>2024-01-30T17:20:20.000Z</time>
      </trkpt>
      <trkpt lat="45.12132" lon="2.696">
        <ele>1354.8000488281</ele>
        <time>2024-01-30T17:20:21.000Z</time>
      </trkpt>
      <trkpt lat="45.1211" lon="2.69581">
        <ele>1355</ele>
        <time>2024-01-30T17:20:23.000Z</time>
      </trkpt>
      <trkpt lat="45.121" lon="2.6957">
        <ele>1355.5999755859</ele>
        <time>2024-01-30T17:20:24.000Z</time>
      </trkpt>
      <trkpt lat="45.12091" lon="2.69557">
        <ele>1356</ele>
        <time>2024-01-30T17:20:25.000Z</time>
      </trkpt>
      <trkpt lat="45.12081" lon="2.69545">
        <ele>1356.8000488281</ele>
        <time>2024-01-30T17:20:26.000Z</time>
      </trkpt>
      <trkpt lat="45.12048" lon="2.69516">
        <ele>1358.1999511719</ele>
        <time>2024-01-30T17:20:29.000Z</time>
      </trkpt>
      <trkpt lat="45.12023" lon="2.69501">
        <ele>1359.1999511719</ele>
        <time>2024-01-30T17:20:31.000Z</time>
      </trkpt>
      <trkpt lat="45.12011" lon="2.69493">
        <ele>1359.8000488281</ele>
        <time>2024-01-30T17:20:32.000Z</time>
      </trkpt>
      <trkpt lat="45.12" lon="2.69482">
        <ele>1360.5999755859</ele>
        <time>2024-01-30T17:20:33.000Z</time>
      </trkpt>
      <trkpt lat="45.11989" lon="2.69471">
        <ele>1361</ele>
        <time>2024-01-30T17:20:34.000Z</time>
      </trkpt>
      <trkpt lat="45.11965" lon="2.69447">
        <ele>1362.1999511719</ele>
        <time>2024-01-30T17:20:36.000Z</time>
      </trkpt>
      <trkpt lat="45.11952" lon="2.69437">
        <ele>1362.8000488281</ele>
        <time>2024-01-30T17:20:37.000Z</time>
      </trkpt>
      <trkpt lat="45.11925" lon="2.69419">
        <ele>1363.4000244141</ele>
        <time>2024-01-30T17:20:39.000Z</time>
      </trkpt>
      <trkpt lat="45.11897" lon="2.69401">
        <ele>1364.8000488281</ele>
        <time>2024-01-30T17:20:41.000Z</time>
      </trkpt>
      <trkpt lat="45.1187" lon="2.69381">
        <ele>1365.8000488281</ele>
        <time>2024-01-30T17:20:43.000Z</time>
      </trkpt>
      <trkpt lat="45.11843" lon="2.69357">
        <ele>1367.1999511719</ele>
        <time>2024-01-30T17:20:45.000Z</time>
      </trkpt>
      <trkpt lat="45.11817" lon="2.69331">
        <ele>1368.4000244141</ele>
        <time>2024-01-30T17:20:47.000Z</time>
      </trkpt>
      <trkpt lat="45.11803" lon="2.69317">
        <ele>1368.8000488281</ele>
        <time>2024-01-30T17:20:48.000Z</time>
      </trkpt>
      <trkpt lat="45.11789" lon="2.69303">
        <ele>1370</ele>
        <time>2024-01-30T17:20:49.000Z</time>
      </trkpt>
      <trkpt lat="45.11761" lon="2.69276">
        <ele>1371</ele>
        <time>2024-01-30T17:20:51.000Z</time>
      </trkpt>
      <trkpt lat="45.11732" lon="2.69255">
        <ele>1372.1999511719</ele>
        <time>2024-01-30T17:20:53.000Z</time>
      </trkpt>
      <trkpt lat="45.11702" lon="2.69238">
        <ele>1373.8000488281</ele>
        <time>2024-01-30T17:20:55.000Z</time>
      </trkpt>
      <trkpt lat="45.11672" lon="2.69219">
        <ele>1375</ele>
        <time>2024-01-30T17:20:57.000Z</time>
      </trkpt>
      <trkpt lat="45.11658" lon="2.69209">
        <ele>1375.4000244141</ele>
        <time>2024-01-30T17:20:58.000Z</time>
      </trkpt>
      <trkpt lat="45.11633" lon="2.69186">
        <ele>1376.4000244141</ele>
        <time>2024-01-30T17:21:00.000Z</time>
      </trkpt>
      <trkpt lat="45.11621" lon="2.69172">
        <ele>1376.8000488281</ele>
        <time>2024-01-30T17:21:01.000Z</time>
      </trkpt>
      <trkpt lat="45.1161" lon="2.69157">
        <ele>1377.5999755859</ele>
        <time>2024-01-30T17:21:02.000Z</time>
      </trkpt>
      <trkpt lat="45.11589" lon="2.69126">
        <ele>1378.8000488281</ele>
        <time>2024-01-30T17:21:04.000Z</time>
      </trkpt>
      <trkpt lat="45.11578" lon="2.69111">
        <ele>1379.1999511719</ele>
        <time>2024-01-30T17:21:05.000Z</time>
      </trkpt>
      <trkpt lat="45.11553" lon="2.69084">
        <ele>1380.8000488281</ele>
        <time>2024-01-30T17:21:07.000Z</time>
      </trkpt>
      <trkpt lat="45.11526" lon="2.6906">
        <ele>1382</ele>
        <time>2024-01-30T17:21:09.000Z</time>
      </trkpt>
      <trkpt lat="45.11511" lon="2.6905">
        <ele>1383</ele>
        <time>2024-01-30T17:21:10.000Z</time>
      </trkpt>
      <trkpt lat="45.11481" lon="2.6903">
        <ele>1384.1999511719</ele>
        <time>2024-01-30T17:21:12.000Z</time>
      </trkpt>
      <trkpt lat="45.1145" lon="2.6901">
        <ele>1385.8000488281</ele>
        <time>2024-01-30T17:21:14.000Z</time>
      </trkpt>
      <trkpt lat="45.11422" lon="2.68989">
        <ele>1387.1999511719</ele>
        <time>2024-01-30T17:21:16.000Z</time>
      </trkpt>
      <trkpt lat="45.114" lon="2.6896">
        <ele>1388.5999755859</ele>
        <time>2024-01-30T17:21:18.000Z</time>
      </trkpt>
      <trkpt lat="45.11392" lon="2.68941">
        <ele>1389.5999755859</ele>
        <time>2024-01-30T17:21:19.000Z</time>
      </trkpt>
      <trkpt lat="45.11386" lon="2.68922">
        <ele>1390.4000244141</ele>
        <time>2024-01-30T17:21:20.000Z</time>
      </trkpt>
      <trkpt lat="45.11383" lon="2.68901">
        <ele>1391.5999755859</ele>
        <time>2024-01-30T17:21:21.000Z</time>
      </trkpt>
      <trkpt lat="45.11381" lon="2.68879">
        <ele>1393.1999511719</ele>
        <time>2024-01-30T17:21:22.000Z</time>
      </trkpt>
      <trkpt lat="45.1138" lon="2.68857">
        <ele>1394.1999511719</ele>
        <time>2024-01-30T17:21:23.000Z</time>
      </trkpt>
      <trkpt lat="45.11379" lon="2.68835">
        <ele>1395.5999755859</ele>
        <time>2024-01-30T17:21:24.000Z</time>
      </trkpt>
      <trkpt lat="45.11379" lon="2.68813">
        <ele>1396.8000488281</ele>
        <time>2024-01-30T17:21:25.000Z</time>
      </trkpt>
      <trkpt lat="45.11378" lon="2.68791">
        <ele>1398</ele>
        <time>2024-01-30T17:21:26.000Z</time>
      </trkpt>
      <trkpt lat="45.11378" lon="2.68769">
        <ele>1399.4000244141</ele>
        <time>2024-01-30T17:21:27.000Z</time>
      </trkpt>
      <trkpt lat="45.11376" lon="2.68728">
        <ele>1401</ele>
        <time>2024-01-30T17:21:29.000Z</time>
      </trkpt>
      <trkpt lat="45.1137" lon="2.68694">
        <ele>1402.4000244141</ele>
        <time>2024-01-30T17:21:31.000Z</time>
      </trkpt>
      <trkpt lat="45.11364" lon="2.68679">
        <ele>1403.8000488281</ele>
        <time>2024-01-30T17:21:32.000Z</time>
      </trkpt>
      <trkpt lat="45.11358" lon="2.68665">
        <ele>1404.4000244141</ele>
        <time>2024-01-30T17:21:33.000Z</time>
      </trkpt>
      <trkpt lat="45.11351" lon="2.68653">
        <ele>1405.1999511719</ele>
        <time>2024-01-30T17:21:34.000Z</time>
      </trkpt>
      <trkpt lat="45.11341" lon="2.68643">
        <ele>1405.8000488281</ele>
        <time>2024-01-30T17:21:35.000Z</time>
      </trkpt>
      <trkpt lat="45.1133" lon="2.68637">
        <ele>1406.8000488281</ele>
        <time>2024-01-30T17:21:36.000Z</time>
      </trkpt>
      <trkpt lat="45.11318" lon="2.68635">
        <ele>1407.8000488281</ele>
        <time>2024-01-30T17:21:37.000Z</time>
      </trkpt>
      <trkpt lat="45.11307" lon="2.68632">
        <ele>1408.5999755859</ele>
        <time>2024-01-30T17:21:38.000Z</time>
      </trkpt>
      <trkpt lat="45.11294" lon="2.68631">
        <ele>1409.8000488281</ele>
        <time>2024-01-30T17:21:39.000Z</time>
      </trkpt>
      <trkpt lat="45.11269" lon="2.68628">
        <ele>1411.5999755859</ele>
        <time>2024-01-30T17:21:41.000Z</time>
      </trkpt>
      <trkpt lat="45.11244" lon="2.68623">
        <ele>1413.1999511719</ele>
        <time>2024-01-30T17:21:43.000Z</time>
      </trkpt>
      <trkpt lat="45.11232" lon="2.68619">
        <ele>1414.4000244141</ele>
        <time>2024-01-30T17:21:44.000Z</time>
      </trkpt>
      <trkpt lat="45.11216" lon="2.68612">
        <ele>1415.4000244141</ele>
        <time>2024-01-30T17:21:46.000Z</time>
      </trkpt>
      <trkpt lat="45.11212" lon="2.6861">
        <ele>1415.5999755859</ele>
        <time>2024-01-30T17:21:47.000Z</time>
      </trkpt>
      <trkpt lat="45.1121" lon="2.6861">
        <ele>1415.5999755859</ele>
        <time>2024-01-30T17:21:48.000Z</time>
      </trkpt>
      <trkpt lat="45.11214" lon="2.68611">
        <ele>1416.4000244141</ele>
        <time>2024-01-30T17:21:51.000Z</time>
      </trkpt>
      <trkpt lat="45.11216" lon="2.68612">
        <ele>1416.4000244141</ele>
        <time>2024-01-30T17:21:52.000Z</time>
      </trkpt>
      <trkpt lat="45.11217" lon="2.68612">
        <ele>1416.1999511719</ele>
        <time>2024-01-30T17:21:57.000Z</time>
      </trkpt>
      <trkpt lat="45.11217" lon="2.68612">
        <ele>1416.1999511719</ele>
        <time>2024-01-30T17:22:07.000Z</time>
      </trkpt>
      <trkpt lat="45.11217" lon="2.68612">
        <ele>1416.1999511719</ele>
        <time>2024-01-30T17:22:18.000Z</time>
      </trkpt>
      <trkpt lat="45.11217" lon="2.68612">
        <ele>1416.4000244141</ele>
        <time>2024-01-30T17:22:29.000Z</time>
      </trkpt>
      <trkpt lat="45.11217" lon="2.68612">
        <ele>1416.4000244141</ele>
        <time>2024-01-30T17:22:44.000Z</time>
      </trkpt>
      <trkpt lat="45.11217" lon="2.68612">
        <ele>1416.4000244141</ele>
        <time>2024-01-30T17:22:56.000Z</time>
      </trkpt>
      <trkpt lat="45.11217" lon="2.68612">
        <ele>1416.4000244141</ele>
        <time>2024-01-30T17:23:02.000Z</time>
      </trkpt>
      <trkpt lat="45.11217" lon="2.68612">
        <ele>1416.4000244141</ele>
        <time>2024-01-30T17:23:20.000Z</time>
      </trkpt>
      <trkpt lat="45.11214" lon="2.68611">
        <ele>1416.4000244141</ele>
        <time>2024-01-30T17:23:26.000Z</time>
      </trkpt>
      <trkpt lat="45.11211" lon="2.68609">
        <ele>1416.4000244141</ele>
        <time>2024-01-30T17:23:27.000Z</time>
      </trkpt>
      <trkpt lat="45.11196" lon="2.686">
        <ele>1416.5999755859</ele>
        <time>2024-01-30T17:23:31.000Z</time>
      </trkpt>
      <trkpt lat="45.11187" lon="2.68596">
        <ele>1418</ele>
        <time>2024-01-30T17:23:33.000Z</time>
      </trkpt>
      <trkpt lat="45.11173" lon="2.68588">
        <ele>1419.4000244141</ele>
        <time>2024-01-30T17:23:35.000Z</time>
      </trkpt>
      <trkpt lat="45.11167" lon="2.68584">
        <ele>1420</ele>
        <time>2024-01-30T17:23:36.000Z</time>
      </trkpt>
      <trkpt lat="45.11159" lon="2.68579">
        <ele>1421</ele>
        <time>2024-01-30T17:23:37.000Z</time>
      </trkpt>
      <trkpt lat="45.11142" lon="2.68568">
        <ele>1422.5999755859</ele>
        <time>2024-01-30T17:23:39.000Z</time>
      </trkpt>
      <trkpt lat="45.11134" lon="2.68563">
        <ele>1424</ele>
        <time>2024-01-30T17:23:40.000Z</time>
      </trkpt>
      <trkpt lat="45.11127" lon="2.68559">
        <ele>1425</ele>
        <time>2024-01-30T17:23:41.000Z</time>
      </trkpt>
      <trkpt lat="45.11118" lon="2.68553">
        <ele>1426</ele>
        <time>2024-01-30T17:23:42.000Z</time>
      </trkpt>
      <trkpt lat="45.11109" lon="2.68545">
        <ele>1427.1999511719</ele>
        <time>2024-01-30T17:23:43.000Z</time>
      </trkpt>
      <trkpt lat="45.11103" lon="2.68539">
        <ele>1428.4000244141</ele>
        <time>2024-01-30T17:23:44.000Z</time>
      </trkpt>
      <trkpt lat="45.11095" lon="2.68531">
        <ele>1429.1999511719</ele>
        <time>2024-01-30T17:23:45.000Z</time>
      </trkpt>
      <trkpt lat="45.11089" lon="2.6852">
        <ele>1430.1999511719</ele>
        <time>2024-01-30T17:23:46.000Z</time>
      </trkpt>
      <trkpt lat="45.11085" lon="2.68511">
        <ele>1431</ele>
        <time>2024-01-30T17:23:47.000Z</time>
      </trkpt>
      <trkpt lat="45.11083" lon="2.68502">
        <ele>1431.5999755859</ele>
        <time>2024-01-30T17:23:48.000Z</time>
      </trkpt>
      <trkpt lat="45.11083" lon="2.68492">
        <ele>1432.5999755859</ele>
        <time>2024-01-30T17:23:49.000Z</time>
      </trkpt>
      <trkpt lat="45.11083" lon="2.68483">
        <ele>1433.5999755859</ele>
        <time>2024-01-30T17:23:50.000Z</time>
      </trkpt>
      <trkpt lat="45.1108" lon="2.68468">
        <ele>1434.4000244141</ele>
        <time>2024-01-30T17:23:52.000Z</time>
      </trkpt>
      <trkpt lat="45.11078" lon="2.68462">
        <ele>1435.1999511719</ele>
        <time>2024-01-30T17:23:53.000Z</time>
      </trkpt>
      <trkpt lat="45.11074" lon="2.68456">
        <ele>1435.8000488281</ele>
        <time>2024-01-30T17:23:54.000Z</time>
      </trkpt>
      <trkpt lat="45.11069" lon="2.68452">
        <ele>1436.5999755859</ele>
        <time>2024-01-30T17:23:55.000Z</time>
      </trkpt>
      <trkpt lat="45.11056" lon="2.68441">
        <ele>1438.4000244141</ele>
        <time>2024-01-30T17:23:57.000Z</time>
      </trkpt>
      <trkpt lat="45.11049" lon="2.68435">
        <ele>1439.4000244141</ele>
        <time>2024-01-30T17:23:58.000Z</time>
      </trkpt>
      <trkpt lat="45.11036" lon="2.68422">
        <ele>1441.4000244141</ele>
        <time>2024-01-30T17:24:00.000Z</time>
      </trkpt>
      <trkpt lat="45.11022" lon="2.68406">
        <ele>1443.1999511719</ele>
        <time>2024-01-30T17:24:02.000Z</time>
      </trkpt>
      <trkpt lat="45.11015" lon="2.68398">
        <ele>1444.4000244141</ele>
        <time>2024-01-30T17:24:03.000Z</time>
      </trkpt>
      <trkpt lat="45.10998" lon="2.68381">
        <ele>1446.8000488281</ele>
        <time>2024-01-30T17:24:05.000Z</time>
      </trkpt>
      <trkpt lat="45.10989" lon="2.68372">
        <ele>1448</ele>
        <time>2024-01-30T17:24:06.000Z</time>
      </trkpt>
      <trkpt lat="45.10981" lon="2.68362">
        <ele>1449.1999511719</ele>
        <time>2024-01-30T17:24:07.000Z</time>
      </trkpt>
      <trkpt lat="45.10972" lon="2.68353">
        <ele>1450.8000488281</ele>
        <time>2024-01-30T17:24:08.000Z</time>
      </trkpt>
      <trkpt lat="45.10964" lon="2.68344">
        <ele>1452</ele>
        <time>2024-01-30T17:24:09.000Z</time>
      </trkpt>
      <trkpt lat="45.10956" lon="2.68336">
        <ele>1453.5999755859</ele>
        <time>2024-01-30T17:24:10.000Z</time>
      </trkpt>
      <trkpt lat="45.1094" lon="2.68324">
        <ele>1455.5999755859</ele>
        <time>2024-01-30T17:24:12.000Z</time>
      </trkpt>
      <trkpt lat="45.10926" lon="2.68314">
        <ele>1457.4000244141</ele>
        <time>2024-01-30T17:24:14.000Z</time>
      </trkpt>
      <trkpt lat="45.10915" lon="2.68307">
        <ele>1458.4000244141</ele>
        <time>2024-01-30T17:24:16.000Z</time>
      </trkpt>
      <trkpt lat="45.10911" lon="2.68303">
        <ele>1459.1999511719</ele>
        <time>2024-01-30T17:24:17.000Z</time>
      </trkpt>
      <trkpt lat="45.10909" lon="2.68298">
        <ele>1459.4000244141</ele>
        <time>2024-01-30T17:24:18.000Z</time>
      </trkpt>
      <trkpt lat="45.1091" lon="2.68294">
        <ele>1459.8000488281</ele>
        <time>2024-01-30T17:24:19.000Z</time>
      </trkpt>
      <trkpt lat="45.10911" lon="2.68291">
        <ele>1460.4000244141</ele>
        <time>2024-01-30T17:24:20.000Z</time>
      </trkpt>
      <trkpt lat="45.10914" lon="2.68288">
        <ele>1461</ele>
        <time>2024-01-30T17:24:21.000Z</time>
      </trkpt>
      <trkpt lat="45.10918" lon="2.68288">
        <ele>1461.4000244141</ele>
        <time>2024-01-30T17:24:22.000Z</time>
      </trkpt>
      <trkpt lat="45.10922" lon="2.68291">
        <ele>1461.8000488281</ele>
        <time>2024-01-30T17:24:23.000Z</time>
      </trkpt>
      <trkpt lat="45.1094" lon="2.68303">
        <ele>1462.8000488281</ele>
        <time>2024-01-30T17:24:26.000Z</time>
      </trkpt>
      <trkpt lat="45.10948" lon="2.68307">
        <ele>1463.1999511719</ele>
        <time>2024-01-30T17:24:27.000Z</time>
      </trkpt>
      <trkpt lat="45.10956" lon="2.68311">
        <ele>1464.1999511719</ele>
        <time>2024-01-30T17:24:28.000Z</time>
      </trkpt>
      <trkpt lat="45.10964" lon="2.68315">
        <ele>1465.4000244141</ele>
        <time>2024-01-30T17:24:29.000Z</time>
      </trkpt>
      <trkpt lat="45.10973" lon="2.68319">
        <ele>1466</ele>
        <time>2024-01-30T17:24:30.000Z</time>
      </trkpt>
      <trkpt lat="45.10982" lon="2.68323">
        <ele>1466.8000488281</ele>
        <time>2024-01-30T17:24:31.000Z</time>
      </trkpt>
      <trkpt lat="45.10992" lon="2.68327">
        <ele>1467.8000488281</ele>
        <time>2024-01-30T17:24:32.000Z</time>
      </trkpt>
      <trkpt lat="45.11001" lon="2.68332">
        <ele>1468.8000488281</ele>
        <time>2024-01-30T17:24:33.000Z</time>
      </trkpt>
      <trkpt lat="45.11009" lon="2.68339">
        <ele>1470</ele>
        <time>2024-01-30T17:24:34.000Z</time>
      </trkpt>
      <trkpt lat="45.11017" lon="2.68346">
        <ele>1471</ele>
        <time>2024-01-30T17:24:35.000Z</time>
      </trkpt>
      <trkpt lat="45.11025" lon="2.68353">
        <ele>1472</ele>
        <time>2024-01-30T17:24:36.000Z</time>
      </trkpt>
      <trkpt lat="45.11033" lon="2.6836">
        <ele>1473.4000244141</ele>
        <time>2024-01-30T17:24:37.000Z</time>
      </trkpt>
      <trkpt lat="45.11041" lon="2.68366">
        <ele>1474.8000488281</ele>
        <time>2024-01-30T17:24:38.000Z</time>
      </trkpt>
      <trkpt lat="45.1105" lon="2.6837">
        <ele>1475.4000244141</ele>
        <time>2024-01-30T17:24:39.000Z</time>
      </trkpt>
      <trkpt lat="45.11059" lon="2.68373">
        <ele>1476.5999755859</ele>
        <time>2024-01-30T17:24:40.000Z</time>
      </trkpt>
      <trkpt lat="45.11068" lon="2.68377">
        <ele>1478</ele>
        <time>2024-01-30T17:24:41.000Z</time>
      </trkpt>
      <trkpt lat="45.11076" lon="2.68378">
        <ele>1478.5999755859</ele>
        <time>2024-01-30T17:24:42.000Z</time>
      </trkpt>
      <trkpt lat="45.11083" lon="2.68378">
        <ele>1479.4000244141</ele>
        <time>2024-01-30T17:24:43.000Z</time>
      </trkpt>
      <trkpt lat="45.1109" lon="2.68379">
        <ele>1480.1999511719</ele>
        <time>2024-01-30T17:24:44.000Z</time>
      </trkpt>
      <trkpt lat="45.11097" lon="2.68377">
        <ele>1481.1999511719</ele>
        <time>2024-01-30T17:24:45.000Z</time>
      </trkpt>
      <trkpt lat="45.1111" lon="2.68373">
        <ele>1482.4000244141</ele>
        <time>2024-01-30T17:24:47.000Z</time>
      </trkpt>
      <trkpt lat="45.11116" lon="2.6837">
        <ele>1483.1999511719</ele>
        <time>2024-01-30T17:24:48.000Z</time>
      </trkpt>
      <trkpt lat="45.11121" lon="2.68366">
        <ele>1483.8000488281</ele>
        <time>2024-01-30T17:24:49.000Z</time>
      </trkpt>
      <trkpt lat="45.11126" lon="2.68362">
        <ele>1484.5999755859</ele>
        <time>2024-01-30T17:24:50.000Z</time>
      </trkpt>
      <trkpt lat="45.11131" lon="2.68356">
        <ele>1485.4000244141</ele>
        <time>2024-01-30T17:24:51.000Z</time>
      </trkpt>
      <trkpt lat="45.11135" lon="2.68349">
        <ele>1485.8000488281</ele>
        <time>2024-01-30T17:24:52.000Z</time>
      </trkpt>
      <trkpt lat="45.11138" lon="2.6834">
        <ele>1486.4000244141</ele>
        <time>2024-01-30T17:24:53.000Z</time>
      </trkpt>
      <trkpt lat="45.11144" lon="2.68322">
        <ele>1488</ele>
        <time>2024-01-30T17:24:55.000Z</time>
      </trkpt>
      <trkpt lat="45.11149" lon="2.68303">
        <ele>1489.5999755859</ele>
        <time>2024-01-30T17:24:57.000Z</time>
      </trkpt>
      <trkpt lat="45.11152" lon="2.68285">
        <ele>1491.1999511719</ele>
        <time>2024-01-30T17:24:59.000Z</time>
      </trkpt>
      <trkpt lat="45.11153" lon="2.68276">
        <ele>1492</ele>
        <time>2024-01-30T17:25:00.000Z</time>
      </trkpt>
      <trkpt lat="45.11154" lon="2.68267">
        <ele>1492.5999755859</ele>
        <time>2024-01-30T17:25:01.000Z</time>
      </trkpt>
      <trkpt lat="45.11153" lon="2.68259">
        <ele>1493.1999511719</ele>
        <time>2024-01-30T17:25:02.000Z</time>
      </trkpt>
      <trkpt lat="45.11152" lon="2.68251">
        <ele>1493.8000488281</ele>
        <time>2024-01-30T17:25:03.000Z</time>
      </trkpt>
      <trkpt lat="45.1115" lon="2.68242">
        <ele>1494.8000488281</ele>
        <time>2024-01-30T17:25:04.000Z</time>
      </trkpt>
      <trkpt lat="45.11148" lon="2.68234">
        <ele>1495.4000244141</ele>
        <time>2024-01-30T17:25:05.000Z</time>
      </trkpt>
      <trkpt lat="45.11145" lon="2.68219">
        <ele>1496.8000488281</ele>
        <time>2024-01-30T17:25:07.000Z</time>
      </trkpt>
      <trkpt lat="45.11145" lon="2.68213">
        <ele>1497.4000244141</ele>
        <time>2024-01-30T17:25:08.000Z</time>
      </trkpt>
      <trkpt lat="45.11146" lon="2.68207">
        <ele>1497.8000488281</ele>
        <time>2024-01-30T17:25:09.000Z</time>
      </trkpt>
      <trkpt lat="45.11155" lon="2.68198">
        <ele>1498.5999755859</ele>
        <time>2024-01-30T17:25:11.000Z</time>
      </trkpt>
      <trkpt lat="45.11162" lon="2.68195">
        <ele>1499</ele>
        <time>2024-01-30T17:25:12.000Z</time>
      </trkpt>
      <trkpt lat="45.11168" lon="2.68193">
        <ele>1499.4000244141</ele>
        <time>2024-01-30T17:25:13.000Z</time>
      </trkpt>
      <trkpt lat="45.11175" lon="2.6819">
        <ele>1500.4000244141</ele>
        <time>2024-01-30T17:25:14.000Z</time>
      </trkpt>
      <trkpt lat="45.11181" lon="2.68188">
        <ele>1500.5999755859</ele>
        <time>2024-01-30T17:25:15.000Z</time>
      </trkpt>
      <trkpt lat="45.11187" lon="2.68184">
        <ele>1501.4000244141</ele>
        <time>2024-01-30T17:25:16.000Z</time>
      </trkpt>
      <trkpt lat="45.11192" lon="2.6818">
        <ele>1502.1999511719</ele>
        <time>2024-01-30T17:25:17.000Z</time>
      </trkpt>
      <trkpt lat="45.11195" lon="2.68173">
        <ele>1502.5999755859</ele>
        <time>2024-01-30T17:25:18.000Z</time>
      </trkpt>
      <trkpt lat="45.11196" lon="2.68165">
        <ele>1503.1999511719</ele>
        <time>2024-01-30T17:25:19.000Z</time>
      </trkpt>
      <trkpt lat="45.11196" lon="2.68145">
        <ele>1504.4000244141</ele>
        <time>2024-01-30T17:25:21.000Z</time>
      </trkpt>
      <trkpt lat="45.11196" lon="2.68135">
        <ele>1505.1999511719</ele>
        <time>2024-01-30T17:25:22.000Z</time>
      </trkpt>
      <trkpt lat="45.11195" lon="2.68125">
        <ele>1505.8000488281</ele>
        <time>2024-01-30T17:25:23.000Z</time>
      </trkpt>
      <trkpt lat="45.11192" lon="2.68106">
        <ele>1507.4000244141</ele>
        <time>2024-01-30T17:25:25.000Z</time>
      </trkpt>
      <trkpt lat="45.11192" lon="2.68097">
        <ele>1508.1999511719</ele>
        <time>2024-01-30T17:25:26.000Z</time>
      </trkpt>
      <trkpt lat="45.11193" lon="2.68089">
        <ele>1509</ele>
        <time>2024-01-30T17:25:27.000Z</time>
      </trkpt>
      <trkpt lat="45.11194" lon="2.68081">
        <ele>1509.4000244141</ele>
        <time>2024-01-30T17:25:28.000Z</time>
      </trkpt>
      <trkpt lat="45.11201" lon="2.68064">
        <ele>1510.4000244141</ele>
        <time>2024-01-30T17:25:30.000Z</time>
      </trkpt>
      <trkpt lat="45.11209" lon="2.68047">
        <ele>1511.8000488281</ele>
        <time>2024-01-30T17:25:32.000Z</time>
      </trkpt>
      <trkpt lat="45.11213" lon="2.68039">
        <ele>1512.8000488281</ele>
        <time>2024-01-30T17:25:33.000Z</time>
      </trkpt>
      <trkpt lat="45.11216" lon="2.6803">
        <ele>1513.5999755859</ele>
        <time>2024-01-30T17:25:34.000Z</time>
      </trkpt>
      <trkpt lat="45.11218" lon="2.68021">
        <ele>1514.4000244141</ele>
        <time>2024-01-30T17:25:35.000Z</time>
      </trkpt>
      <trkpt lat="45.11219" lon="2.68012">
        <ele>1514.8000488281</ele>
        <time>2024-01-30T17:25:36.000Z</time>
      </trkpt>
      <trkpt lat="45.11219" lon="2.68002">
        <ele>1515.8000488281</ele>
        <time>2024-01-30T17:25:37.000Z</time>
      </trkpt>
      <trkpt lat="45.11216" lon="2.67983">
        <ele>1517.1999511719</ele>
        <time>2024-01-30T17:25:39.000Z</time>
      </trkpt>
      <trkpt lat="45.11215" lon="2.67962">
        <ele>1518.5999755859</ele>
        <time>2024-01-30T17:25:41.000Z</time>
      </trkpt>
      <trkpt lat="45.11214" lon="2.67953">
        <ele>1519.1999511719</ele>
        <time>2024-01-30T17:25:42.000Z</time>
      </trkpt>
      <trkpt lat="45.11211" lon="2.67944">
        <ele>1520</ele>
        <time>2024-01-30T17:25:43.000Z</time>
      </trkpt>
      <trkpt lat="45.11208" lon="2.67936">
        <ele>1520.8000488281</ele>
        <time>2024-01-30T17:25:44.000Z</time>
      </trkpt>
      <trkpt lat="45.11204" lon="2.67929">
        <ele>1521.5999755859</ele>
        <time>2024-01-30T17:25:45.000Z</time>
      </trkpt>
      <trkpt lat="45.11195" lon="2.67914">
        <ele>1523</ele>
        <time>2024-01-30T17:25:47.000Z</time>
      </trkpt>
      <trkpt lat="45.11191" lon="2.67906">
        <ele>1523.8000488281</ele>
        <time>2024-01-30T17:25:48.000Z</time>
      </trkpt>
      <trkpt lat="45.11187" lon="2.67898">
        <ele>1524.4000244141</ele>
        <time>2024-01-30T17:25:49.000Z</time>
      </trkpt>
      <trkpt lat="45.11184" lon="2.67889">
        <ele>1525.1999511719</ele>
        <time>2024-01-30T17:25:50.000Z</time>
      </trkpt>
      <trkpt lat="45.11181" lon="2.6788">
        <ele>1526</ele>
        <time>2024-01-30T17:25:51.000Z</time>
      </trkpt>
      <trkpt lat="45.11178" lon="2.67861">
        <ele>1527</ele>
        <time>2024-01-30T17:25:53.000Z</time>
      </trkpt>
      <trkpt lat="45.11177" lon="2.6785">
        <ele>1528.4000244141</ele>
        <time>2024-01-30T17:25:54.000Z</time>
      </trkpt>
      <trkpt lat="45.11177" lon="2.67839">
        <ele>1529.1999511719</ele>
        <time>2024-01-30T17:25:55.000Z</time>
      </trkpt>
      <trkpt lat="45.11176" lon="2.67828">
        <ele>1530.1999511719</ele>
        <time>2024-01-30T17:25:56.000Z</time>
      </trkpt>
      <trkpt lat="45.11177" lon="2.67816">
        <ele>1531.1999511719</ele>
        <time>2024-01-30T17:25:57.000Z</time>
      </trkpt>
      <trkpt lat="45.11178" lon="2.67791">
        <ele>1533.1999511719</ele>
        <time>2024-01-30T17:25:59.000Z</time>
      </trkpt>
      <trkpt lat="45.11179" lon="2.67779">
        <ele>1534.4000244141</ele>
        <time>2024-01-30T17:26:00.000Z</time>
      </trkpt>
      <trkpt lat="45.11181" lon="2.67756">
        <ele>1536.1999511719</ele>
        <time>2024-01-30T17:26:02.000Z</time>
      </trkpt>
      <trkpt lat="45.11182" lon="2.67735">
        <ele>1538</ele>
        <time>2024-01-30T17:26:04.000Z</time>
      </trkpt>
      <trkpt lat="45.11182" lon="2.67717">
        <ele>1539.1999511719</ele>
        <time>2024-01-30T17:26:06.000Z</time>
      </trkpt>
      <trkpt lat="45.11183" lon="2.67701">
        <ele>1540.8000488281</ele>
        <time>2024-01-30T17:26:08.000Z</time>
      </trkpt>
      <trkpt lat="45.11185" lon="2.67682">
        <ele>1541.8000488281</ele>
        <time>2024-01-30T17:26:10.000Z</time>
      </trkpt>
      <trkpt lat="45.11189" lon="2.67664">
        <ele>1543.4000244141</ele>
        <time>2024-01-30T17:26:12.000Z</time>
      </trkpt>
      <trkpt lat="45.11196" lon="2.67644">
        <ele>1544.8000488281</ele>
        <time>2024-01-30T17:26:14.000Z</time>
      </trkpt>
      <trkpt lat="45.11204" lon="2.67624">
        <ele>1546.8000488281</ele>
        <time>2024-01-30T17:26:16.000Z</time>
      </trkpt>
      <trkpt lat="45.11208" lon="2.67615">
        <ele>1547.1999511719</ele>
        <time>2024-01-30T17:26:17.000Z</time>
      </trkpt>
      <trkpt lat="45.11222" lon="2.6759">
        <ele>1558.1</ele>
      </trkpt>
      <trkpt lat="45.11233" lon="2.67569">
        <ele>1559</ele>
      </trkpt>
      <trkpt lat="45.11241" lon="2.6755">
        <ele>1561</ele>
      </trkpt>
      <trkpt lat="45.11249" lon="2.67525">
        <ele>1562.8</ele>
      </trkpt>
      <trkpt lat="45.11257" lon="2.67495">
        <ele>1564.5</ele>
      </trkpt>
      <trkpt lat="45.11272" lon="2.67449">
        <ele>1568.2</ele>
      </trkpt>
      <trkpt lat="45.11286" lon="2.67406">
        <ele>1572.4</ele>
      </trkpt>
      <trkpt lat="45.11305" lon="2.67368">
        <ele>1576.1</ele>
      </trkpt>
      <trkpt lat="45.11316" lon="2.67337">
        <ele>1579.2</ele>
      </trkpt>
      <trkpt lat="45.11326" lon="2.67311">
        <ele>1581.4</ele>
      </trkpt>
      <trkpt lat="45.11342" lon="2.67275">
        <ele>1580.8</ele>
      </trkpt>
      <trkpt lat="45.1137" lon="2.67236">
        <ele>1585.6</ele>
      </trkpt>
      <trkpt lat="45.1139" lon="2.67216">
        <ele>1585.8</ele>
      </trkpt>
      <trkpt lat="45.11405" lon="2.67197">
        <ele>1587.4</ele>
      </trkpt>
      <trkpt lat="45.11412" lon="2.67187">
        <ele>1587.6</ele>
      </trkpt>
      <trkpt lat="45.11413" lon="2.67179">
        <ele>1587.7</ele>
      </trkpt>
      <trkpt lat="45.11462" lon="2.67137">
        <ele>1585.3</ele>
      </trkpt>
      <trkpt lat="45.1153" lon="2.67062">
        <ele>1572.9</ele>
      </trkpt>
      <trkpt lat="45.11578" lon="2.66964">
        <ele>1558</ele>
      </trkpt>
      <trkpt lat="45.1159" lon="2.66933">
        <ele>1557.2</ele>
      </trkpt>
      <trkpt lat="45.11606" lon="2.66888">
        <ele>1550.3</ele>
      </trkpt>
      <trkpt lat="45.11622" lon="2.66843">
        <ele>1547.2</ele>
      </trkpt>
      <trkpt lat="45.11634" lon="2.66795">
        <ele>1540.9</ele>
      </trkpt>
      <trkpt lat="45.11646" lon="2.66717">
        <ele>1534.2</ele>
      </trkpt>
      <trkpt lat="45.11656" lon="2.66678">
        <ele>1529.4</ele>
      </trkpt>
      <trkpt lat="45.11664" lon="2.66656">
        <ele>1526.7</ele>
      </trkpt>
      <trkpt lat="45.11685" lon="2.66621">
        <ele>1521.4</ele>
      </trkpt>
      <trkpt lat="45.11713" lon="2.66599">
        <ele>1515.8</ele>
      </trkpt>
      <trkpt lat="45.11736" lon="2.66596">
        <ele>1512.1</ele>
      </trkpt>
      <trkpt lat="45.11755" lon="2.66602">
        <ele>1510.1</ele>
      </trkpt>
      <trkpt lat="45.11767" lon="2.66611">
        <ele>1509.8</ele>
      </trkpt>
      <trkpt lat="45.11779" lon="2.66618">
        <ele>1508.6</ele>
      </trkpt>
      <trkpt lat="45.11792" lon="2.66622">
        <ele>1507.3</ele>
      </trkpt>
      <trkpt lat="45.11805" lon="2.66624">
        <ele>1505.6</ele>
      </trkpt>
      <trkpt lat="45.11815" lon="2.66625">
        <ele>1503.7</ele>
      </trkpt>
      <trkpt lat="45.11841" lon="2.66623">
        <ele>1497.7</ele>
      </trkpt>
      <trkpt lat="45.11856" lon="2.66621">
        <ele>1494.6</ele>
      </trkpt>
      <trkpt lat="45.11871" lon="2.6662">
        <ele>1493</ele>
      </trkpt>
      <trkpt lat="45.11889" lon="2.66619">
        <ele>1491.2</ele>
      </trkpt>
      <trkpt lat="45.11905" lon="2.66617">
        <ele>1488.9</ele>
      </trkpt>
      <trkpt lat="45.11916" lon="2.66617">
        <ele>1487.5</ele>
      </trkpt>
      <trkpt lat="45.11923" lon="2.66616">
        <ele>1486.9</ele>
      </trkpt>
      <trkpt lat="45.11931" lon="2.66619">
        <ele>1488</ele>
      </trkpt>
      <trkpt lat="45.11938" lon="2.66619">
        <ele>1487.3</ele>
      </trkpt>
      <trkpt lat="45.11942" lon="2.66616">
        <ele>1485.4</ele>
      </trkpt>
      <trkpt lat="45.11943" lon="2.66611">
        <ele>1483.1</ele>
      </trkpt>
      <trkpt lat="45.11943" lon="2.66603">
        <ele>1479.7</ele>
      </trkpt>
      <trkpt lat="45.1194" lon="2.66597">
        <ele>1477.3</ele>
      </trkpt>
      <trkpt lat="45.11928" lon="2.66593">
        <ele>1475.6</ele>
      </trkpt>
      <trkpt lat="45.11918" lon="2.66591">
        <ele>1474.7</ele>
      </trkpt>
      <trkpt lat="45.11893" lon="2.66585">
        <ele>1473.5</ele>
      </trkpt>
      <trkpt lat="45.11876" lon="2.66577">
        <ele>1472.4</ele>
      </trkpt>
      <trkpt lat="45.11848" lon="2.66562">
        <ele>1469.8</ele>
      </trkpt>
      <trkpt lat="45.11824" lon="2.66544">
        <ele>1466.2</ele>
      </trkpt>
      <trkpt lat="45.11805" lon="2.66526">
        <ele>1461.6</ele>
      </trkpt>
      <trkpt lat="45.11782" lon="2.66503">
        <ele>1458.3</ele>
      </trkpt>
      <trkpt lat="45.11767" lon="2.66485">
        <ele>1454.7</ele>
      </trkpt>
      <trkpt lat="45.11752" lon="2.66473">
        <ele>1452.7</ele>
      </trkpt>
      <trkpt lat="45.11738" lon="2.66462">
        <ele>1450.6</ele>
      </trkpt>
      <trkpt lat="45.1173" lon="2.66458">
        <ele>1449.9</ele>
      </trkpt>
      <trkpt lat="45.11712" lon="2.66438">
        <ele>1445.7</ele>
      </trkpt>
      <trkpt lat="45.11697" lon="2.6642">
        <ele>1443.4</ele>
      </trkpt>
      <trkpt lat="45.11681" lon="2.66406">
        <ele>1440.3</ele>
      </trkpt>
      <trkpt lat="45.11666" lon="2.66398">
        <ele>1438.7</ele>
      </trkpt>
      <trkpt lat="45.11653" lon="2.66396">
        <ele>1436.7</ele>
      </trkpt>
      <trkpt lat="45.11641" lon="2.664">
        <ele>1435.7</ele>
      </trkpt>
      <trkpt lat="45.11627" lon="2.66407">
        <ele>1433</ele>
      </trkpt>
      <trkpt lat="45.11613" lon="2.66418">
        <ele>1431.8</ele>
      </trkpt>
      <trkpt lat="45.11588" lon="2.66434">
        <ele>1427</ele>
      </trkpt>
      <trkpt lat="45.1155" lon="2.66456">
        <ele>1421.4</ele>
      </trkpt>
      <trkpt lat="45.11518" lon="2.66473">
        <ele>1417.1</ele>
      </trkpt>
      <trkpt lat="45.11496" lon="2.66486">
        <ele>1413.3</ele>
      </trkpt>
      <trkpt lat="45.11488" lon="2.66488">
        <ele>1412</ele>
      </trkpt>
      <trkpt lat="45.11464" lon="2.66499">
        <ele>1408.5</ele>
      </trkpt>
      <trkpt lat="45.11451" lon="2.66506">
        <ele>1406.9</ele>
      </trkpt>
      <trkpt lat="45.11436" lon="2.66518">
        <ele>1403.6</ele>
      </trkpt>
      <trkpt lat="45.11419" lon="2.66533">
        <ele>1401.4</ele>
      </trkpt>
      <trkpt lat="45.11378" lon="2.66569">
        <ele>1393.3</ele>
      </trkpt>
      <trkpt lat="45.1136" lon="2.66585">
        <ele>1393.2</ele>
      </trkpt>
      <trkpt lat="45.11333" lon="2.66608">
        <ele>1390.3</ele>
      </trkpt>
      <trkpt lat="45.11319" lon="2.66617">
        <ele>1388.3</ele>
      </trkpt>
      <trkpt lat="45.11304" lon="2.66622">
        <ele>1383.3</ele>
      </trkpt>
      <trkpt lat="45.11281" lon="2.66632">
        <ele>1379.1</ele>
      </trkpt>
      <trkpt lat="45.11257" lon="2.66642">
        <ele>1377</ele>
      </trkpt>
      <trkpt lat="45.11226" lon="2.66655">
        <ele>1373.2</ele>
      </trkpt>
      <trkpt lat="45.11205" lon="2.66662">
        <ele>1366.6</ele>
      </trkpt>
      <trkpt lat="45.11188" lon="2.66671">
        <ele>1363.3</ele>
      </trkpt>
      <trkpt lat="45.11159" lon="2.66681">
        <ele>1361.4</ele>
      </trkpt>
      <trkpt lat="45.11139" lon="2.66686">
        <ele>1359</ele>
      </trkpt>
      <trkpt lat="45.11117" lon="2.66693">
        <ele>1352.1</ele>
      </trkpt>
      <trkpt lat="45.11093" lon="2.66698">
        <ele>1347.5</ele>
      </trkpt>
      <trkpt lat="45.11078" lon="2.667">
        <ele>1345.5</ele>
      </trkpt>
      <trkpt lat="45.11045" lon="2.66705">
        <ele>1342.9</ele>
      </trkpt>
      <trkpt lat="45.11013" lon="2.66717">
        <ele>1338</ele>
      </trkpt>
      <trkpt lat="45.10998" lon="2.66718">
        <ele>1333.6</ele>
      </trkpt>
      <trkpt lat="45.10985" lon="2.66704">
        <ele>1331</ele>
      </trkpt>
      <trkpt lat="45.10965" lon="2.66686">
        <ele>1329</ele>
      </trkpt>
      <trkpt lat="45.10947" lon="2.66676">
        <ele>1324.4</ele>
      </trkpt>
      <trkpt lat="45.10928" lon="2.66651">
        <ele>1322.1</ele>
      </trkpt>
      <trkpt lat="45.10894" lon="2.66588">
        <ele>1319.6</ele>
      </trkpt>
      <trkpt lat="45.10852" lon="2.66502">
        <ele>1313.6</ele>
      </trkpt>
      <trkpt lat="45.10843" lon="2.66481">
        <ele>1313.6</ele>
      </trkpt>
      <trkpt lat="45.10842" lon="2.66466">
        <ele>1313.2</ele>
      </trkpt>
      <trkpt lat="45.10847" lon="2.66443">
        <ele>1313</ele>
      </trkpt>
      <trkpt lat="45.10859" lon="2.66407">
        <ele>1310.8</ele>
      </trkpt>
      <trkpt lat="45.10878" lon="2.66363">
        <ele>1308.4</ele>
      </trkpt>
      <trkpt lat="45.10889" lon="2.66334">
        <ele>1306.9</ele>
      </trkpt>
      <trkpt lat="45.10926" lon="2.66282">
        <ele>1303.7</ele>
      </trkpt>
      <trkpt lat="45.11008" lon="2.66179">
        <ele>1298</ele>
      </trkpt>
      <trkpt lat="45.11019" lon="2.66156">
        <ele>1296.9</ele>
      </trkpt>
      <trkpt lat="45.11023" lon="2.66118">
        <ele>1296.5</ele>
      </trkpt>
      <trkpt lat="45.11024" lon="2.66073">
        <ele>1294.2</ele>
      </trkpt>
      <trkpt lat="45.11026" lon="2.66031">
        <ele>1293.1</ele>
      </trkpt>
      <trkpt lat="45.11021" lon="2.65958">
        <ele>1291.3</ele>
      </trkpt>
      <trkpt lat="45.11021" lon="2.65886">
        <ele>1286</ele>
      </trkpt>
      <trkpt lat="45.11026" lon="2.65786">
        <ele>1280.8</ele>
      </trkpt>
      <trkpt lat="45.11021" lon="2.65702">
        <ele>1278.4</ele>
      </trkpt>
      <trkpt lat="45.11022" lon="2.65654">
        <ele>1274.9</ele>
      </trkpt>
      <trkpt lat="45.11028" lon="2.65578">
        <ele>1272.9</ele>
      </trkpt>
      <trkpt lat="45.11041" lon="2.65513">
        <ele>1268.5</ele>
      </trkpt>
      <trkpt lat="45.11044" lon="2.65474">
        <ele>1265.6</ele>
      </trkpt>
      <trkpt lat="45.11051" lon="2.65445">
        <ele>1268.6</ele>
      </trkpt>
      <trkpt lat="45.11058" lon="2.65422">
        <ele>1264.5</ele>
      </trkpt>
      <trkpt lat="45.11061" lon="2.65377">
        <ele>1262.8</ele>
      </trkpt>
      <trkpt lat="45.11067" lon="2.65335">
        <ele>1259.7</ele>
      </trkpt>
      <trkpt lat="45.1107" lon="2.65321">
        <ele>1262.5</ele>
      </trkpt>
      <trkpt lat="45.11101" lon="2.65297">
        <ele>1258.6</ele>
      </trkpt>
      <trkpt lat="45.11112" lon="2.65275">
        <ele>1258.9</ele>
      </trkpt>
      <trkpt lat="45.11132" lon="2.65224">
        <ele>1256.8</ele>
      </trkpt>
      <trkpt lat="45.1115" lon="2.65186">
        <ele>1254.6</ele>
      </trkpt>
      <trkpt lat="45.11165" lon="2.65152">
        <ele>1253.3</ele>
      </trkpt>
      <trkpt lat="45.11168" lon="2.65128">
        <ele>1253.1</ele>
      </trkpt>
      <trkpt lat="45.11173" lon="2.65107">
        <ele>1252.5</ele>
      </trkpt>
      <trkpt lat="45.11197" lon="2.6506">
        <ele>1250.3</ele>
      </trkpt>
      <trkpt lat="45.11225" lon="2.65024">
        <ele>1248.4</ele>
      </trkpt>
      <trkpt lat="45.1125" lon="2.65001">
        <ele>1246.8</ele>
      </trkpt>
      <trkpt lat="45.11261" lon="2.64979">
        <ele>1246.7</ele>
      </trkpt>
      <trkpt lat="45.11283" lon="2.64976">
        <ele>1244.6</ele>
      </trkpt>
      <trkpt lat="45.11307" lon="2.64962">
        <ele>1242.4</ele>
      </trkpt>
      <trkpt lat="45.1134" lon="2.64937">
        <ele>1241.6</ele>
      </trkpt>
      <trkpt lat="45.11385" lon="2.64908">
        <ele>1238.1</ele>
      </trkpt>
      <trkpt lat="45.11404" lon="2.64906">
        <ele>1235.4</ele>
      </trkpt>
      <trkpt lat="45.11432" lon="2.64891">
        <ele>1234.4</ele>
      </trkpt>
      <trkpt lat="45.11457" lon="2.64874">
        <ele>1232.9</ele>
      </trkpt>
      <trkpt lat="45.11486" lon="2.6486">
        <ele>1231.9</ele>
      </trkpt>
      <trkpt lat="45.11526" lon="2.64837">
        <ele>1230.2</ele>
      </trkpt>
      <trkpt lat="45.11564" lon="2.64811">
        <ele>1228.5</ele>
      </trkpt>
      <trkpt lat="45.1163" lon="2.64768">
        <ele>1222.8</ele>
      </trkpt>
      <trkpt lat="45.11697" lon="2.64737">
        <ele>1217.9</ele>
      </trkpt>
      <trkpt lat="45.11734" lon="2.64705">
        <ele>1217.8</ele>
      </trkpt>
      <trkpt lat="45.11757" lon="2.6469">
        <ele>1215.6</ele>
      </trkpt>
      <trkpt lat="45.11795" lon="2.64692">
        <ele>1204.9</ele>
      </trkpt>
      <trkpt lat="45.11853" lon="2.64648">
        <ele>1206.5</ele>
      </trkpt>
      <trkpt lat="45.11906" lon="2.64627">
        <ele>1199.8</ele>
      </trkpt>
      <trkpt lat="45.11934" lon="2.64592">
        <ele>1198.7</ele>
      </trkpt>
      <trkpt lat="45.11958" lon="2.64555">
        <ele>1198.9</ele>
      </trkpt>
      <trkpt lat="45.12077" lon="2.64475">
        <ele>1189.4</ele>
      </trkpt>
      <trkpt lat="45.1214" lon="2.64436">
        <ele>1186.3</ele>
      </trkpt>
      <trkpt lat="45.12188" lon="2.64404">
        <ele>1184.4</ele>
      </trkpt>
      <trkpt lat="45.12245" lon="2.64362">
        <ele>1180.4</ele>
      </trkpt>
      <trkpt lat="45.12283" lon="2.6432">
        <ele>1180.1</ele>
      </trkpt>
      <trkpt lat="45.12322" lon="2.64289">
        <ele>1177.1</ele>
      </trkpt>
      <trkpt lat="45.1238" lon="2.64251">
        <ele>1169.9</ele>
      </trkpt>
      <trkpt lat="45.12488" lon="2.64191">
        <ele>1159.5</ele>
      </trkpt>
      <trkpt lat="45.12535" lon="2.64165">
        <ele>1158.4</ele>
      </trkpt>
      <trkpt lat="45.12583" lon="2.64135">
        <ele>1158.5</ele>
      </trkpt>
      <trkpt lat="45.12648" lon="2.64107">
        <ele>1158.6</ele>
      </trkpt>
      <trkpt lat="45.12709" lon="2.64109">
        <ele>1152.8</ele>
      </trkpt>
      <trkpt lat="45.12769" lon="2.64091">
        <ele>1146.1</ele>
      </trkpt>
      <trkpt lat="45.12779" lon="2.64097">
        <ele>1150</ele>
        <time>2024-01-31T07:46:23.000Z</time>
      </trkpt>
      <trkpt lat="45.12779" lon="2.64098">
        <ele>1150</ele>
        <time>2024-01-31T07:46:27.000Z</time>
        <extensions>
          <gpxtpx:TrackPointExtension xmlns:gpxtpx="http://www.garmin.com/xmlschemas/TrackPointExtension/v1">
            <gpxtpx:hr>74</gpxtpx:hr>
          </gpxtpx:TrackPointExtension>
        </extensions>
      </trkpt>
      <trkpt lat="45.12779" lon="2.64098">
        <ele>1152.5999755859</ele>
        <time>2024-01-31T07:46:33.000Z</time>
      </trkpt>
      <trkpt lat="45.12779" lon="2.64098">
        <ele>1153.8000488281</ele>
        <time>2024-01-31T07:46:38.000Z</time>
      </trkpt>
      <trkpt lat="45.1278" lon="2.64098">
        <ele>1154.8000488281</ele>
        <time>2024-01-31T07:46:44.000Z</time>
      </trkpt>
      <trkpt lat="45.1278" lon="2.64097">
        <ele>1155.8000488281</ele>
        <time>2024-01-31T07:46:50.000Z</time>
      </trkpt>
      <trkpt lat="45.12781" lon="2.64097">
        <ele>1157</ele>
        <time>2024-01-31T07:46:58.000Z</time>
      </trkpt>
      <trkpt lat="45.12781" lon="2.64096">
        <ele>1158</ele>
        <time>2024-01-31T07:47:08.000Z</time>
      </trkpt>
      <trkpt lat="45.12782" lon="2.64096">
        <ele>1159</ele>
        <time>2024-01-31T07:47:20.000Z</time>
      </trkpt>
      <trkpt lat="45.12782" lon="2.64102">
        <ele>1160</ele>
        <time>2024-01-31T07:48:17.000Z</time>
      </trkpt>
      <trkpt lat="45.12784" lon="2.64101">
        <ele>1160.4000244141</ele>
        <time>2024-01-31T07:48:50.000Z</time>
      </trkpt>
      <trkpt lat="45.12789" lon="2.64098">
        <ele>1160.5999755859</ele>
        <time>2024-01-31T07:48:52.000Z</time>
      </trkpt>
      <trkpt lat="45.1281" lon="2.64083">
        <ele>1159.8000488281</ele>
        <time>2024-01-31T07:48:57.000Z</time>
      </trkpt>
      <trkpt lat="45.12837" lon="2.6407">
        <ele>1158.5999755859</ele>
        <time>2024-01-31T07:49:01.000Z</time>
      </trkpt>
      <trkpt lat="45.12852" lon="2.64064">
        <ele>1157</ele>
        <time>2024-01-31T07:49:03.000Z</time>
      </trkpt>
      <trkpt lat="45.12859" lon="2.64062">
        <ele>1156.5999755859</ele>
        <time>2024-01-31T07:49:04.000Z</time>
      </trkpt>
      <trkpt lat="45.12867" lon="2.64061">
        <ele>1156</ele>
        <time>2024-01-31T07:49:05.000Z</time>
      </trkpt>
      <trkpt lat="45.12891" lon="2.64059">
        <ele>1154.1999511719</ele>
        <time>2024-01-31T07:49:08.000Z</time>
      </trkpt>
      <trkpt lat="45.12908" lon="2.64057">
        <ele>1153.1999511719</ele>
        <time>2024-01-31T07:49:10.000Z</time>
      </trkpt>
      <trkpt lat="45.12916" lon="2.64056">
        <ele>1152.8000488281</ele>
        <time>2024-01-31T07:49:11.000Z</time>
      </trkpt>
      <trkpt lat="45.12931" lon="2.64053">
        <ele>1151.4000244141</ele>
        <time>2024-01-31T07:49:13.000Z</time>
      </trkpt>
      <trkpt lat="45.12936" lon="2.64053">
        <ele>1150.1999511719</ele>
        <time>2024-01-31T07:49:14.000Z</time>
      </trkpt>
      <trkpt lat="45.12941" lon="2.64056">
        <ele>1149.4000244141</ele>
        <time>2024-01-31T07:49:15.000Z</time>
      </trkpt>
      <trkpt lat="45.12944" lon="2.6406">
        <ele>1149</ele>
        <time>2024-01-31T07:49:16.000Z</time>
      </trkpt>
      <trkpt lat="45.12946" lon="2.64072">
        <ele>1148.1999511719</ele>
        <time>2024-01-31T07:49:18.000Z</time>
      </trkpt>
      <trkpt lat="45.12944" lon="2.64077">
        <ele>1147.5999755859</ele>
        <time>2024-01-31T07:49:19.000Z</time>
      </trkpt>
      <trkpt lat="45.12941" lon="2.64082">
        <ele>1147.1999511719</ele>
        <time>2024-01-31T07:49:20.000Z</time>
      </trkpt>
      <trkpt lat="45.12936" lon="2.64087">
        <ele>1146.8000488281</ele>
        <time>2024-01-31T07:49:21.000Z</time>
      </trkpt>
      <trkpt lat="45.1293" lon="2.64092">
        <ele>1146.5999755859</ele>
        <time>2024-01-31T07:49:22.000Z</time>
      </trkpt>
      <trkpt lat="45.12916" lon="2.64102">
        <ele>1145.8000488281</ele>
        <time>2024-01-31T07:49:24.000Z</time>
      </trkpt>
      <trkpt lat="45.12907" lon="2.64108">
        <ele>1145.4000244141</ele>
        <time>2024-01-31T07:49:25.000Z</time>
      </trkpt>
      <trkpt lat="45.129" lon="2.64112">
        <ele>1144.5999755859</ele>
        <time>2024-01-31T07:49:26.000Z</time>
      </trkpt>
      <trkpt lat="45.12892" lon="2.64117">
        <ele>1143.5999755859</ele>
        <time>2024-01-31T07:49:27.000Z</time>
      </trkpt>
      <trkpt lat="45.12884" lon="2.64121">
        <ele>1143.1999511719</ele>
        <time>2024-01-31T07:49:28.000Z</time>
      </trkpt>
      <trkpt lat="45.12874" lon="2.64123">
        <ele>1142.4000244141</ele>
        <time>2024-01-31T07:49:29.000Z</time>
      </trkpt>
      <trkpt lat="45.12856" lon="2.64126">
        <ele>1141</ele>
        <time>2024-01-31T07:49:31.000Z</time>
      </trkpt>
      <trkpt lat="45.12845" lon="2.6413">
        <ele>1140</ele>
        <time>2024-01-31T07:49:32.000Z</time>
      </trkpt>
      <trkpt lat="45.12835" lon="2.64137">
        <ele>1139.4000244141</ele>
        <time>2024-01-31T07:49:33.000Z</time>
      </trkpt>
      <trkpt lat="45.12826" lon="2.64145">
        <ele>1138</ele>
        <time>2024-01-31T07:49:34.000Z</time>
      </trkpt>
      <trkpt lat="45.12817" lon="2.64155">
        <ele>1137.4000244141</ele>
        <time>2024-01-31T07:49:35.000Z</time>
      </trkpt>
      <trkpt lat="45.12808" lon="2.64166">
        <ele>1136.1999511719</ele>
        <time>2024-01-31T07:49:36.000Z</time>
      </trkpt>
      <trkpt lat="45.12801" lon="2.64179">
        <ele>1135.1999511719</ele>
        <time>2024-01-31T07:49:37.000Z</time>
      </trkpt>
      <trkpt lat="45.12794" lon="2.64192">
        <ele>1133.8000488281</ele>
        <time>2024-01-31T07:49:38.000Z</time>
      </trkpt>
      <trkpt lat="45.1278" lon="2.64218">
        <ele>1132.4000244141</ele>
        <time>2024-01-31T07:49:40.000Z</time>
      </trkpt>
      <trkpt lat="45.12773" lon="2.64231">
        <ele>1131.4000244141</ele>
        <time>2024-01-31T07:49:41.000Z</time>
      </trkpt>
      <trkpt lat="45.12765" lon="2.64241">
        <ele>1130.1999511719</ele>
        <time>2024-01-31T07:49:42.000Z</time>
      </trkpt>
      <trkpt lat="45.12754" lon="2.64251">
        <ele>1129.1999511719</ele>
        <time>2024-01-31T07:49:43.000Z</time>
      </trkpt>
      <trkpt lat="45.12745" lon="2.64258">
        <ele>1128</ele>
        <time>2024-01-31T07:49:44.000Z</time>
      </trkpt>
      <trkpt lat="45.12729" lon="2.64272">
        <ele>1126.5999755859</ele>
        <time>2024-01-31T07:49:46.000Z</time>
      </trkpt>
      <trkpt lat="45.12722" lon="2.64278">
        <ele>1125.5999755859</ele>
        <time>2024-01-31T07:49:47.000Z</time>
      </trkpt>
      <trkpt lat="45.12717" lon="2.64285">
        <ele>1124.4000244141</ele>
        <time>2024-01-31T07:49:48.000Z</time>
      </trkpt>
      <trkpt lat="45.12714" lon="2.64293">
        <ele>1123.4000244141</ele>
        <time>2024-01-31T07:49:49.000Z</time>
      </trkpt>
      <trkpt lat="45.12714" lon="2.64312">
        <ele>1122.5999755859</ele>
        <time>2024-01-31T07:49:51.000Z</time>
      </trkpt>
      <trkpt lat="45.12716" lon="2.64319">
        <ele>1122.1999511719</ele>
        <time>2024-01-31T07:49:52.000Z</time>
      </trkpt>
      <trkpt lat="45.12718" lon="2.64325">
        <ele>1122</ele>
        <time>2024-01-31T07:49:53.000Z</time>
      </trkpt>
      <trkpt lat="45.12724" lon="2.64338">
        <ele>1121.4000244141</ele>
        <time>2024-01-31T07:49:55.000Z</time>
      </trkpt>
      <trkpt lat="45.12728" lon="2.64344">
        <ele>1121.1999511719</ele>
        <time>2024-01-31T07:49:56.000Z</time>
      </trkpt>
      <trkpt lat="45.12732" lon="2.6435">
        <ele>1121.1999511719</ele>
        <time>2024-01-31T07:49:57.000Z</time>
      </trkpt>
      <trkpt lat="45.12738" lon="2.64354">
        <ele>1121</ele>
        <time>2024-01-31T07:49:58.000Z</time>
      </trkpt>
      <trkpt lat="45.12742" lon="2.64357">
        <ele>1120.5999755859</ele>
        <time>2024-01-31T07:49:59.000Z</time>
      </trkpt>
      <trkpt lat="45.12747" lon="2.64361">
        <ele>1120.4000244141</ele>
        <time>2024-01-31T07:50:00.000Z</time>
      </trkpt>
      <trkpt lat="45.12762" lon="2.64365">
        <ele>1119.8000488281</ele>
        <time>2024-01-31T07:50:02.000Z</time>
      </trkpt>
      <trkpt lat="45.1277" lon="2.64365">
        <ele>1119.4000244141</ele>
        <time>2024-01-31T07:50:03.000Z</time>
      </trkpt>
      <trkpt lat="45.12784" lon="2.64365">
        <ele>1118.8000488281</ele>
        <time>2024-01-31T07:50:05.000Z</time>
      </trkpt>
      <trkpt lat="45.12791" lon="2.64364">
        <ele>1118.4000244141</ele>
        <time>2024-01-31T07:50:06.000Z</time>
      </trkpt>
      <trkpt lat="45.12807" lon="2.64362">
        <ele>1118</ele>
        <time>2024-01-31T07:50:08.000Z</time>
      </trkpt>
      <trkpt lat="45.12813" lon="2.64363">
        <ele>1117.8000488281</ele>
        <time>2024-01-31T07:50:09.000Z</time>
      </trkpt>
      <trkpt lat="45.1282" lon="2.64364">
        <ele>1117.4000244141</ele>
        <time>2024-01-31T07:50:10.000Z</time>
      </trkpt>
      <trkpt lat="45.12828" lon="2.64368">
        <ele>1117.1999511719</ele>
        <time>2024-01-31T07:50:11.000Z</time>
      </trkpt>
      <trkpt lat="45.12836" lon="2.64372">
        <ele>1116.1999511719</ele>
        <time>2024-01-31T07:50:12.000Z</time>
      </trkpt>
      <trkpt lat="45.12846" lon="2.64376">
        <ele>1115.5999755859</ele>
        <time>2024-01-31T07:50:13.000Z</time>
      </trkpt>
      <trkpt lat="45.12854" lon="2.64379">
        <ele>1115</ele>
        <time>2024-01-31T07:50:14.000Z</time>
      </trkpt>
      <trkpt lat="45.12864" lon="2.64381">
        <ele>1114.1999511719</ele>
        <time>2024-01-31T07:50:15.000Z</time>
      </trkpt>
      <trkpt lat="45.12874" lon="2.64382">
        <ele>1113.1999511719</ele>
        <time>2024-01-31T07:50:16.000Z</time>
      </trkpt>
      <trkpt lat="45.12884" lon="2.64381">
        <ele>1112.1999511719</ele>
        <time>2024-01-31T07:50:17.000Z</time>
      </trkpt>
      <trkpt lat="45.12905" lon="2.64377">
        <ele>1110.5999755859</ele>
        <time>2024-01-31T07:50:19.000Z</time>
      </trkpt>
      <trkpt lat="45.12916" lon="2.64375">
        <ele>1109.4000244141</ele>
        <time>2024-01-31T07:50:20.000Z</time>
      </trkpt>
      <trkpt lat="45.12938" lon="2.64371">
        <ele>1107.1999511719</ele>
        <time>2024-01-31T07:50:22.000Z</time>
      </trkpt>
      <trkpt lat="45.1295" lon="2.64368">
        <ele>1106.5999755859</ele>
        <time>2024-01-31T07:50:23.000Z</time>
      </trkpt>
      <trkpt lat="45.12961" lon="2.64364">
        <ele>1105.1999511719</ele>
        <time>2024-01-31T07:50:24.000Z</time>
      </trkpt>
      <trkpt lat="45.12971" lon="2.64363">
        <ele>1104.5999755859</ele>
        <time>2024-01-31T07:50:25.000Z</time>
      </trkpt>
      <trkpt lat="45.1298" lon="2.64363">
        <ele>1103.5999755859</ele>
        <time>2024-01-31T07:50:26.000Z</time>
      </trkpt>
      <trkpt lat="45.1299" lon="2.64365">
        <ele>1102.1999511719</ele>
        <time>2024-01-31T07:50:27.000Z</time>
      </trkpt>
      <trkpt lat="45.13009" lon="2.64375">
        <ele>1100.1999511719</ele>
        <time>2024-01-31T07:50:29.000Z</time>
      </trkpt>
      <trkpt lat="45.13025" lon="2.64387">
        <ele>1098.5999755859</ele>
        <time>2024-01-31T07:50:31.000Z</time>
      </trkpt>
      <trkpt lat="45.1303" lon="2.64394">
        <ele>1097.5999755859</ele>
        <time>2024-01-31T07:50:32.000Z</time>
      </trkpt>
      <trkpt lat="45.13034" lon="2.64402">
        <ele>1096.5999755859</ele>
        <time>2024-01-31T07:50:33.000Z</time>
      </trkpt>
      <trkpt lat="45.13037" lon="2.64411">
        <ele>1095.8000488281</ele>
        <time>2024-01-31T07:50:34.000Z</time>
      </trkpt>
      <trkpt lat="45.13038" lon="2.6442">
        <ele>1095.4000244141</ele>
        <time>2024-01-31T07:50:35.000Z</time>
      </trkpt>
      <trkpt lat="45.13039" lon="2.6444">
        <ele>1094.4000244141</ele>
        <time>2024-01-31T07:50:37.000Z</time>
      </trkpt>
      <trkpt lat="45.13039" lon="2.64451">
        <ele>1094</ele>
        <time>2024-01-31T07:50:38.000Z</time>
      </trkpt>
      <trkpt lat="45.13037" lon="2.64461">
        <ele>1093.4000244141</ele>
        <time>2024-01-31T07:50:39.000Z</time>
      </trkpt>
      <trkpt lat="45.13035" lon="2.64473">
        <ele>1092.5999755859</ele>
        <time>2024-01-31T07:50:40.000Z</time>
      </trkpt>
      <trkpt lat="45.13032" lon="2.64484">
        <ele>1092</ele>
        <time>2024-01-31T07:50:41.000Z</time>
      </trkpt>
      <trkpt lat="45.13028" lon="2.64496">
        <ele>1091.1999511719</ele>
        <time>2024-01-31T07:50:42.000Z</time>
      </trkpt>
      <trkpt lat="45.13024" lon="2.64509">
        <ele>1090.4000244141</ele>
        <time>2024-01-31T07:50:43.000Z</time>
      </trkpt>
      <trkpt lat="45.1302" lon="2.64522">
        <ele>1090</ele>
        <time>2024-01-31T07:50:44.000Z</time>
      </trkpt>
      <trkpt lat="45.13017" lon="2.64536">
        <ele>1089.1999511719</ele>
        <time>2024-01-31T07:50:45.000Z</time>
      </trkpt>
      <trkpt lat="45.13016" lon="2.64551">
        <ele>1088.5999755859</ele>
        <time>2024-01-31T07:50:46.000Z</time>
      </trkpt>
      <trkpt lat="45.13016" lon="2.64582">
        <ele>1087.1999511719</ele>
        <time>2024-01-31T07:50:48.000Z</time>
      </trkpt>
      <trkpt lat="45.13016" lon="2.64597">
        <ele>1086.4000244141</ele>
        <time>2024-01-31T07:50:49.000Z</time>
      </trkpt>
      <trkpt lat="45.13016" lon="2.64614">
        <ele>1085.5999755859</ele>
        <time>2024-01-31T07:50:50.000Z</time>
      </trkpt>
      <trkpt lat="45.13013" lon="2.64646">
        <ele>1084.1999511719</ele>
        <time>2024-01-31T07:50:52.000Z</time>
      </trkpt>
      <trkpt lat="45.13011" lon="2.64663">
        <ele>1084</ele>
        <time>2024-01-31T07:50:53.000Z</time>
      </trkpt>
      <trkpt lat="45.13008" lon="2.64696">
        <ele>1082.5999755859</ele>
        <time>2024-01-31T07:50:55.000Z</time>
      </trkpt>
      <trkpt lat="45.13008" lon="2.64714">
        <ele>1082</ele>
        <time>2024-01-31T07:50:56.000Z</time>
      </trkpt>
      <trkpt lat="45.13008" lon="2.64734">
        <ele>1081.5999755859</ele>
        <time>2024-01-31T07:50:57.000Z</time>
      </trkpt>
      <trkpt lat="45.13009" lon="2.64754">
        <ele>1080.8000488281</ele>
        <time>2024-01-31T07:50:58.000Z</time>
      </trkpt>
      <trkpt lat="45.13012" lon="2.64796">
        <ele>1078.8000488281</ele>
        <time>2024-01-31T07:51:00.000Z</time>
      </trkpt>
      <trkpt lat="45.13013" lon="2.64816">
        <ele>1078.1999511719</ele>
        <time>2024-01-31T07:51:01.000Z</time>
      </trkpt>
      <trkpt lat="45.13014" lon="2.64837">
        <ele>1077.1999511719</ele>
        <time>2024-01-31T07:51:02.000Z</time>
      </trkpt>
      <trkpt lat="45.13016" lon="2.64859">
        <ele>1076.1999511719</ele>
        <time>2024-01-31T07:51:03.000Z</time>
      </trkpt>
      <trkpt lat="45.13021" lon="2.649">
        <ele>1074.4000244141</ele>
        <time>2024-01-31T07:51:05.000Z</time>
      </trkpt>
      <trkpt lat="45.13023" lon="2.6492">
        <ele>1073.5999755859</ele>
        <time>2024-01-31T07:51:06.000Z</time>
      </trkpt>
      <trkpt lat="45.13026" lon="2.64937">
        <ele>1072.5999755859</ele>
        <time>2024-01-31T07:51:07.000Z</time>
      </trkpt>
      <trkpt lat="45.13028" lon="2.64954">
        <ele>1071.4000244141</ele>
        <time>2024-01-31T07:51:08.000Z</time>
      </trkpt>
      <trkpt lat="45.13031" lon="2.6497">
        <ele>1070</ele>
        <time>2024-01-31T07:51:09.000Z</time>
      </trkpt>
      <trkpt lat="45.13042" lon="2.65">
        <ele>1068.1999511719</ele>
        <time>2024-01-31T07:51:11.000Z</time>
      </trkpt>
      <trkpt lat="45.13045" lon="2.65013">
        <ele>1067.5999755859</ele>
        <time>2024-01-31T07:51:12.000Z</time>
      </trkpt>
      <trkpt lat="45.13051" lon="2.65028">
        <ele>1066.4000244141</ele>
        <time>2024-01-31T07:51:13.000Z</time>
      </trkpt>
      <trkpt lat="45.13053" lon="2.65041">
        <ele>1065.5999755859</ele>
        <time>2024-01-31T07:51:14.000Z</time>
      </trkpt>
      <trkpt lat="45.13053" lon="2.65053">
        <ele>1064.5999755859</ele>
        <time>2024-01-31T07:51:15.000Z</time>
      </trkpt>
      <trkpt lat="45.13051" lon="2.65066">
        <ele>1064</ele>
        <time>2024-01-31T07:51:16.000Z</time>
      </trkpt>
      <trkpt lat="45.13049" lon="2.6508">
        <ele>1063.5999755859</ele>
        <time>2024-01-31T07:51:17.000Z</time>
      </trkpt>
      <trkpt lat="45.13046" lon="2.65093">
        <ele>1063</ele>
        <time>2024-01-31T07:51:18.000Z</time>
      </trkpt>
      <trkpt lat="45.13042" lon="2.65106">
        <ele>1062.5999755859</ele>
        <time>2024-01-31T07:51:19.000Z</time>
      </trkpt>
      <trkpt lat="45.1304" lon="2.65121">
        <ele>1062.1999511719</ele>
        <time>2024-01-31T07:51:20.000Z</time>
      </trkpt>
      <trkpt lat="45.13036" lon="2.65147">
        <ele>1060.8000488281</ele>
        <time>2024-01-31T07:51:22.000Z</time>
      </trkpt>
      <trkpt lat="45.13035" lon="2.65159">
        <ele>1060</ele>
        <time>2024-01-31T07:51:23.000Z</time>
      </trkpt>
      <trkpt lat="45.13035" lon="2.65171">
        <ele>1059.1999511719</ele>
        <time>2024-01-31T07:51:24.000Z</time>
      </trkpt>
      <trkpt lat="45.13037" lon="2.65181">
        <ele>1058.4000244141</ele>
        <time>2024-01-31T07:51:25.000Z</time>
      </trkpt>
      <trkpt lat="45.13039" lon="2.65191">
        <ele>1058</ele>
        <time>2024-01-31T07:51:26.000Z</time>
      </trkpt>
      <trkpt lat="45.13043" lon="2.652">
        <ele>1057.8000488281</ele>
        <time>2024-01-31T07:51:27.000Z</time>
      </trkpt>
      <trkpt lat="45.13057" lon="2.65229">
        <ele>1057.4000244141</ele>
        <time>2024-01-31T07:51:30.000Z</time>
      </trkpt>
      <trkpt lat="45.1307" lon="2.65249">
        <ele>1057</ele>
        <time>2024-01-31T07:51:32.000Z</time>
      </trkpt>
      <trkpt lat="45.13076" lon="2.65254">
        <ele>1056.8000488281</ele>
        <time>2024-01-31T07:51:33.000Z</time>
      </trkpt>
      <trkpt lat="45.13101" lon="2.65273">
        <ele>1056</ele>
        <time>2024-01-31T07:51:36.000Z</time>
      </trkpt>
      <trkpt lat="45.13111" lon="2.65278">
        <ele>1055.5999755859</ele>
        <time>2024-01-31T07:51:37.000Z</time>
      </trkpt>
      <trkpt lat="45.13147" lon="2.65288">
        <ele>1054.4000244141</ele>
        <time>2024-01-31T07:51:40.000Z</time>
      </trkpt>
      <trkpt lat="45.13173" lon="2.65288">
        <ele>1052.5999755859</ele>
        <time>2024-01-31T07:51:42.000Z</time>
      </trkpt>
      <trkpt lat="45.13187" lon="2.65286">
        <ele>1051.5999755859</ele>
        <time>2024-01-31T07:51:43.000Z</time>
      </trkpt>
      <trkpt lat="45.13204" lon="2.65282">
        <ele>1050.8000488281</ele>
        <time>2024-01-31T07:51:44.000Z</time>
      </trkpt>
      <trkpt lat="45.13229" lon="2.65276">
        <ele>1049.1999511719</ele>
        <time>2024-01-31T07:51:46.000Z</time>
      </trkpt>
      <trkpt lat="45.13243" lon="2.65272">
        <ele>1047.8000488281</ele>
        <time>2024-01-31T07:51:47.000Z</time>
      </trkpt>
      <trkpt lat="45.13258" lon="2.65268">
        <ele>1047.1999511719</ele>
        <time>2024-01-31T07:51:48.000Z</time>
      </trkpt>
      <trkpt lat="45.13272" lon="2.65262">
        <ele>1046.5999755859</ele>
        <time>2024-01-31T07:51:49.000Z</time>
      </trkpt>
      <trkpt lat="45.13304" lon="2.65242">
        <ele>1044.8000488281</ele>
        <time>2024-01-31T07:51:51.000Z</time>
      </trkpt>
      <trkpt lat="45.13329" lon="2.65222">
        <ele>1043</ele>
        <time>2024-01-31T07:51:53.000Z</time>
      </trkpt>
      <trkpt lat="45.13358" lon="2.65199">
        <ele>1041.1999511719</ele>
        <time>2024-01-31T07:51:55.000Z</time>
      </trkpt>
      <trkpt lat="45.13386" lon="2.65184">
        <ele>1039.1999511719</ele>
        <time>2024-01-31T07:51:57.000Z</time>
      </trkpt>
      <trkpt lat="45.134" lon="2.65178">
        <ele>1037.8000488281</ele>
        <time>2024-01-31T07:51:58.000Z</time>
      </trkpt>
      <trkpt lat="45.1341" lon="2.65172">
        <ele>1036.5999755859</ele>
        <time>2024-01-31T07:51:59.000Z</time>
      </trkpt>
      <trkpt lat="45.13423" lon="2.65164">
        <ele>1035.8000488281</ele>
        <time>2024-01-31T07:52:00.000Z</time>
      </trkpt>
      <trkpt lat="45.13434" lon="2.65155">
        <ele>1035</ele>
        <time>2024-01-31T07:52:01.000Z</time>
      </trkpt>
      <trkpt lat="45.13445" lon="2.65145">
        <ele>1034.5999755859</ele>
        <time>2024-01-31T07:52:02.000Z</time>
      </trkpt>
      <trkpt lat="45.13459" lon="2.65133">
        <ele>1034</ele>
        <time>2024-01-31T07:52:03.000Z</time>
      </trkpt>
      <trkpt lat="45.13468" lon="2.65124">
        <ele>1032.8000488281</ele>
        <time>2024-01-31T07:52:04.000Z</time>
      </trkpt>
      <trkpt lat="45.13489" lon="2.65098">
        <ele>1031</ele>
        <time>2024-01-31T07:52:06.000Z</time>
      </trkpt>
      <trkpt lat="45.13506" lon="2.65082">
        <ele>1029.1999511719</ele>
        <time>2024-01-31T07:52:08.000Z</time>
      </trkpt>
      <trkpt lat="45.13518" lon="2.65075">
        <ele>1028.5999755859</ele>
        <time>2024-01-31T07:52:09.000Z</time>
      </trkpt>
      <trkpt lat="45.13525" lon="2.65072">
        <ele>1028</ele>
        <time>2024-01-31T07:52:10.000Z</time>
      </trkpt>
      <trkpt lat="45.13535" lon="2.65071">
        <ele>1027.5999755859</ele>
        <time>2024-01-31T07:52:11.000Z</time>
      </trkpt>
      <trkpt lat="45.13547" lon="2.65072">
        <ele>1027</ele>
        <time>2024-01-31T07:52:12.000Z</time>
      </trkpt>
      <trkpt lat="45.13588" lon="2.6508">
        <ele>1025</ele>
        <time>2024-01-31T07:52:15.000Z</time>
      </trkpt>
      <trkpt lat="45.13602" lon="2.65082">
        <ele>1023.4000244141</ele>
        <time>2024-01-31T07:52:16.000Z</time>
      </trkpt>
      <trkpt lat="45.13631" lon="2.65084">
        <ele>1022.200012207</ele>
        <time>2024-01-31T07:52:18.000Z</time>
      </trkpt>
      <trkpt lat="45.13645" lon="2.65081">
        <ele>1021.200012207</ele>
        <time>2024-01-31T07:52:19.000Z</time>
      </trkpt>
      <trkpt lat="45.13659" lon="2.65075">
        <ele>1020.200012207</ele>
        <time>2024-01-31T07:52:20.000Z</time>
      </trkpt>
      <trkpt lat="45.13672" lon="2.65067">
        <ele>1019.5999755859</ele>
        <time>2024-01-31T07:52:21.000Z</time>
      </trkpt>
      <trkpt lat="45.13686" lon="2.65057">
        <ele>1018.799987793</ele>
        <time>2024-01-31T07:52:22.000Z</time>
      </trkpt>
      <trkpt lat="45.13697" lon="2.65046">
        <ele>1017.799987793</ele>
        <time>2024-01-31T07:52:23.000Z</time>
      </trkpt>
      <trkpt lat="45.13706" lon="2.65034">
        <ele>1016.799987793</ele>
        <time>2024-01-31T07:52:24.000Z</time>
      </trkpt>
      <trkpt lat="45.13714" lon="2.6502">
        <ele>1015.4000244141</ele>
        <time>2024-01-31T07:52:25.000Z</time>
      </trkpt>
      <trkpt lat="45.13721" lon="2.65007">
        <ele>1014.200012207</ele>
        <time>2024-01-31T07:52:26.000Z</time>
      </trkpt>
      <trkpt lat="45.13726" lon="2.64993">
        <ele>1013.799987793</ele>
        <time>2024-01-31T07:52:27.000Z</time>
      </trkpt>
      <trkpt lat="45.13733" lon="2.64983">
        <ele>1012.4000244141</ele>
        <time>2024-01-31T07:52:28.000Z</time>
      </trkpt>
      <trkpt lat="45.13742" lon="2.64975">
        <ele>1011.799987793</ele>
        <time>2024-01-31T07:52:29.000Z</time>
      </trkpt>
      <trkpt lat="45.13753" lon="2.6497">
        <ele>1011.5999755859</ele>
        <time>2024-01-31T07:52:30.000Z</time>
      </trkpt>
      <trkpt lat="45.13764" lon="2.64966">
        <ele>1010.5999755859</ele>
        <time>2024-01-31T07:52:31.000Z</time>
      </trkpt>
      <trkpt lat="45.13788" lon="2.64955">
        <ele>1009.200012207</ele>
        <time>2024-01-31T07:52:33.000Z</time>
      </trkpt>
      <trkpt lat="45.138" lon="2.64948">
        <ele>1008.799987793</ele>
        <time>2024-01-31T07:52:34.000Z</time>
      </trkpt>
      <trkpt lat="45.13813" lon="2.6494">
        <ele>1008.200012207</ele>
        <time>2024-01-31T07:52:35.000Z</time>
      </trkpt>
      <trkpt lat="45.13839" lon="2.64927">
        <ele>1006.799987793</ele>
        <time>2024-01-31T07:52:37.000Z</time>
      </trkpt>
      <trkpt lat="45.13853" lon="2.64922">
        <ele>1006.200012207</ele>
        <time>2024-01-31T07:52:38.000Z</time>
      </trkpt>
      <trkpt lat="45.13866" lon="2.64916">
        <ele>1005.4000244141</ele>
        <time>2024-01-31T07:52:39.000Z</time>
      </trkpt>
      <trkpt lat="45.13881" lon="2.64909">
        <ele>1004.5999755859</ele>
        <time>2024-01-31T07:52:40.000Z</time>
      </trkpt>
      <trkpt lat="45.13889" lon="2.64903">
        <ele>1003.5999755859</ele>
        <time>2024-01-31T07:52:41.000Z</time>
      </trkpt>
      <trkpt lat="45.13897" lon="2.64895">
        <ele>1002.200012207</ele>
        <time>2024-01-31T07:52:42.000Z</time>
      </trkpt>
      <trkpt lat="45.13904" lon="2.64885">
        <ele>1001</ele>
        <time>2024-01-31T07:52:43.000Z</time>
      </trkpt>
      <trkpt lat="45.13916" lon="2.64862">
        <ele>1000.5999755859</ele>
        <time>2024-01-31T07:52:45.000Z</time>
      </trkpt>
      <trkpt lat="45.13923" lon="2.64852">
        <ele>1000.4000244141</ele>
        <time>2024-01-31T07:52:46.000Z</time>
      </trkpt>
      <trkpt lat="45.1393" lon="2.64844">
        <ele>999.79998779297</ele>
        <time>2024-01-31T07:52:47.000Z</time>
      </trkpt>
      <trkpt lat="45.13939" lon="2.64839">
        <ele>998.59997558594</ele>
        <time>2024-01-31T07:52:48.000Z</time>
      </trkpt>
      <trkpt lat="45.13961" lon="2.64837">
        <ele>997.20001220703</ele>
        <time>2024-01-31T07:52:50.000Z</time>
      </trkpt>
      <trkpt lat="45.13983" lon="2.64833">
        <ele>995.59997558594</ele>
        <time>2024-01-31T07:52:52.000Z</time>
      </trkpt>
      <trkpt lat="45.13994" lon="2.6483">
        <ele>994.59997558594</ele>
        <time>2024-01-31T07:52:53.000Z</time>
      </trkpt>
      <trkpt lat="45.14003" lon="2.64823">
        <ele>993.79998779297</ele>
        <time>2024-01-31T07:52:54.000Z</time>
      </trkpt>
      <trkpt lat="45.1401" lon="2.64813">
        <ele>993</ele>
        <time>2024-01-31T07:52:55.000Z</time>
      </trkpt>
      <trkpt lat="45.14016" lon="2.648">
        <ele>992.20001220703</ele>
        <time>2024-01-31T07:52:56.000Z</time>
      </trkpt>
      <trkpt lat="45.14025" lon="2.64768">
        <ele>991.20001220703</ele>
        <time>2024-01-31T07:52:58.000Z</time>
      </trkpt>
      <trkpt lat="45.14031" lon="2.64735">
        <ele>989.59997558594</ele>
        <time>2024-01-31T07:53:00.000Z</time>
      </trkpt>
      <trkpt lat="45.14036" lon="2.64721">
        <ele>988.79998779297</ele>
        <time>2024-01-31T07:53:01.000Z</time>
      </trkpt>
      <trkpt lat="45.14042" lon="2.6471">
        <ele>987.79998779297</ele>
        <time>2024-01-31T07:53:02.000Z</time>
      </trkpt>
      <trkpt lat="45.14049" lon="2.64702">
        <ele>986.79998779297</ele>
        <time>2024-01-31T07:53:03.000Z</time>
      </trkpt>
      <trkpt lat="45.14058" lon="2.64698">
        <ele>986.20001220703</ele>
        <time>2024-01-31T07:53:04.000Z</time>
      </trkpt>
      <trkpt lat="45.14091" lon="2.64689">
        <ele>984.59997558594</ele>
        <time>2024-01-31T07:53:07.000Z</time>
      </trkpt>
      <trkpt lat="45.14115" lon="2.6468">
        <ele>984</ele>
        <time>2024-01-31T07:53:09.000Z</time>
      </trkpt>
      <trkpt lat="45.14127" lon="2.64673">
        <ele>983.20001220703</ele>
        <time>2024-01-31T07:53:10.000Z</time>
      </trkpt>
      <trkpt lat="45.14147" lon="2.64653">
        <ele>981.40002441406</ele>
        <time>2024-01-31T07:53:12.000Z</time>
      </trkpt>
      <trkpt lat="45.14163" lon="2.64624">
        <ele>979.59997558594</ele>
        <time>2024-01-31T07:53:14.000Z</time>
      </trkpt>
      <trkpt lat="45.14169" lon="2.64609">
        <ele>979</ele>
        <time>2024-01-31T07:53:15.000Z</time>
      </trkpt>
      <trkpt lat="45.14176" lon="2.64594">
        <ele>978.40002441406</ele>
        <time>2024-01-31T07:53:16.000Z</time>
      </trkpt>
      <trkpt lat="45.14189" lon="2.64567">
        <ele>977.20001220703</ele>
        <time>2024-01-31T07:53:18.000Z</time>
      </trkpt>
      <trkpt lat="45.14197" lon="2.64556">
        <ele>976.40002441406</ele>
        <time>2024-01-31T07:53:19.000Z</time>
      </trkpt>
      <trkpt lat="45.14207" lon="2.64547">
        <ele>976.20001220703</ele>
        <time>2024-01-31T07:53:20.000Z</time>
      </trkpt>
      <trkpt lat="45.14227" lon="2.64534">
        <ele>975.40002441406</ele>
        <time>2024-01-31T07:53:22.000Z</time>
      </trkpt>
      <trkpt lat="45.14262" lon="2.64514">
        <ele>974.79998779297</ele>
        <time>2024-01-31T07:53:25.000Z</time>
      </trkpt>
      <trkpt lat="45.14288" lon="2.645">
        <ele>974</ele>
        <time>2024-01-31T07:53:27.000Z</time>
      </trkpt>
      <trkpt lat="45.14301" lon="2.64493">
        <ele>973.59997558594</ele>
        <time>2024-01-31T07:53:28.000Z</time>
      </trkpt>
      <trkpt lat="45.14342" lon="2.64463">
        <ele>972.59997558594</ele>
        <time>2024-01-31T07:53:31.000Z</time>
      </trkpt>
      <trkpt lat="45.14368" lon="2.64436">
        <ele>971.40002441406</ele>
        <time>2024-01-31T07:53:33.000Z</time>
      </trkpt>
      <trkpt lat="45.14381" lon="2.64421">
        <ele>970.40002441406</ele>
        <time>2024-01-31T07:53:34.000Z</time>
      </trkpt>
      <trkpt lat="45.14393" lon="2.64406">
        <ele>970</ele>
        <time>2024-01-31T07:53:35.000Z</time>
      </trkpt>
      <trkpt lat="45.14419" lon="2.64374">
        <ele>968.79998779297</ele>
        <time>2024-01-31T07:53:37.000Z</time>
      </trkpt>
      <trkpt lat="45.14431" lon="2.64358">
        <ele>967.59997558594</ele>
        <time>2024-01-31T07:53:38.000Z</time>
      </trkpt>
      <trkpt lat="45.14442" lon="2.6434">
        <ele>967</ele>
        <time>2024-01-31T07:53:39.000Z</time>
      </trkpt>
      <trkpt lat="45.14452" lon="2.64321">
        <ele>966.20001220703</ele>
        <time>2024-01-31T07:53:40.000Z</time>
      </trkpt>
      <trkpt lat="45.14471" lon="2.64285">
        <ele>964.59997558594</ele>
        <time>2024-01-31T07:53:42.000Z</time>
      </trkpt>
      <trkpt lat="45.14481" lon="2.64271">
        <ele>964</ele>
        <time>2024-01-31T07:53:43.000Z</time>
      </trkpt>
      <trkpt lat="45.14491" lon="2.64261">
        <ele>962.79998779297</ele>
        <time>2024-01-31T07:53:44.000Z</time>
      </trkpt>
      <trkpt lat="45.145" lon="2.64254">
        <ele>961.59997558594</ele>
        <time>2024-01-31T07:53:45.000Z</time>
      </trkpt>
      <trkpt lat="45.14509" lon="2.64248">
        <ele>960.40002441406</ele>
        <time>2024-01-31T07:53:46.000Z</time>
      </trkpt>
      <trkpt lat="45.14523" lon="2.64239">
        <ele>959</ele>
        <time>2024-01-31T07:53:48.000Z</time>
      </trkpt>
      <trkpt lat="45.1453" lon="2.64224">
        <ele>957.79998779297</ele>
        <time>2024-01-31T07:53:50.000Z</time>
      </trkpt>
      <trkpt lat="45.14533" lon="2.64205">
        <ele>956.59997558594</ele>
        <time>2024-01-31T07:53:52.000Z</time>
      </trkpt>
      <trkpt lat="45.14533" lon="2.64194">
        <ele>956.40002441406</ele>
        <time>2024-01-31T07:53:53.000Z</time>
      </trkpt>
      <trkpt lat="45.14535" lon="2.64186">
        <ele>956.40002441406</ele>
        <time>2024-01-31T07:53:54.000Z</time>
      </trkpt>
      <trkpt lat="45.14541" lon="2.64175">
        <ele>956</ele>
        <time>2024-01-31T07:53:56.000Z</time>
      </trkpt>
      <trkpt lat="45.14554" lon="2.64168">
        <ele>955.59997558594</ele>
        <time>2024-01-31T07:53:58.000Z</time>
      </trkpt>
      <trkpt lat="45.14561" lon="2.64165">
        <ele>955.40002441406</ele>
        <time>2024-01-31T07:53:59.000Z</time>
      </trkpt>
      <trkpt lat="45.14568" lon="2.64161">
        <ele>955</ele>
        <time>2024-01-31T07:54:00.000Z</time>
      </trkpt>
      <trkpt lat="45.14573" lon="2.64153">
        <ele>954.20001220703</ele>
        <time>2024-01-31T07:54:01.000Z</time>
      </trkpt>
      <trkpt lat="45.14577" lon="2.64143">
        <ele>954</ele>
        <time>2024-01-31T07:54:02.000Z</time>
      </trkpt>
      <trkpt lat="45.1458" lon="2.64121">
        <ele>953</ele>
        <time>2024-01-31T07:54:04.000Z</time>
      </trkpt>
      <trkpt lat="45.14579" lon="2.64111">
        <ele>952.59997558594</ele>
        <time>2024-01-31T07:54:05.000Z</time>
      </trkpt>
      <trkpt lat="45.1457" lon="2.64059">
        <ele>952</ele>
        <time>2024-01-31T07:54:10.000Z</time>
      </trkpt>
      <trkpt lat="45.14572" lon="2.64037">
        <ele>952</ele>
        <time>2024-01-31T07:54:12.000Z</time>
      </trkpt>
      <trkpt lat="45.14575" lon="2.64026">
        <ele>952</ele>
        <time>2024-01-31T07:54:13.000Z</time>
      </trkpt>
      <trkpt lat="45.14595" lon="2.63973">
        <ele>952</ele>
        <time>2024-01-31T07:54:17.000Z</time>
      </trkpt>
      <trkpt lat="45.14601" lon="2.63962">
        <ele>951.79998779297</ele>
        <time>2024-01-31T07:54:18.000Z</time>
      </trkpt>
      <trkpt lat="45.14617" lon="2.63945">
        <ele>951.40002441406</ele>
        <time>2024-01-31T07:54:20.000Z</time>
      </trkpt>
      <trkpt lat="45.14635" lon="2.63938">
        <ele>951.20001220703</ele>
        <time>2024-01-31T07:54:22.000Z</time>
      </trkpt>
      <trkpt lat="45.14645" lon="2.63935">
        <ele>951.20001220703</ele>
        <time>2024-01-31T07:54:23.000Z</time>
      </trkpt>
      <trkpt lat="45.1469" lon="2.63919">
        <ele>951.20001220703</ele>
        <time>2024-01-31T07:54:27.000Z</time>
      </trkpt>
      <trkpt lat="45.14701" lon="2.63911">
        <ele>951.20001220703</ele>
        <time>2024-01-31T07:54:28.000Z</time>
      </trkpt>
      <trkpt lat="45.14711" lon="2.63902">
        <ele>951.20001220703</ele>
        <time>2024-01-31T07:54:29.000Z</time>
      </trkpt>
      <trkpt lat="45.14728" lon="2.63877">
        <ele>951.20001220703</ele>
        <time>2024-01-31T07:54:31.000Z</time>
      </trkpt>
      <trkpt lat="45.14769" lon="2.63816">
        <ele>951.20001220703</ele>
        <time>2024-01-31T07:54:36.000Z</time>
      </trkpt>
      <trkpt lat="45.14784" lon="2.63798">
        <ele>951</ele>
        <time>2024-01-31T07:54:38.000Z</time>
      </trkpt>
      <trkpt lat="45.14794" lon="2.63788">
        <ele>951</ele>
        <time>2024-01-31T07:54:39.000Z</time>
      </trkpt>
      <trkpt lat="45.14811" lon="2.63778">
        <ele>950.79998779297</ele>
        <time>2024-01-31T07:54:41.000Z</time>
      </trkpt>
      <trkpt lat="45.14822" lon="2.63773">
        <ele>950.79998779297</ele>
        <time>2024-01-31T07:54:42.000Z</time>
      </trkpt>
      <trkpt lat="45.14831" lon="2.63767">
        <ele>950.40002441406</ele>
        <time>2024-01-31T07:54:43.000Z</time>
      </trkpt>
      <trkpt lat="45.14842" lon="2.63751">
        <ele>949.40002441406</ele>
        <time>2024-01-31T07:54:45.000Z</time>
      </trkpt>
      <trkpt lat="45.14845" lon="2.63731">
        <ele>948.59997558594</ele>
        <time>2024-01-31T07:54:47.000Z</time>
      </trkpt>
      <trkpt lat="45.14844" lon="2.63719">
        <ele>948.40002441406</ele>
        <time>2024-01-31T07:54:48.000Z</time>
      </trkpt>
      <trkpt lat="45.14841" lon="2.63681">
        <ele>948.40002441406</ele>
        <time>2024-01-31T07:54:51.000Z</time>
      </trkpt>
      <trkpt lat="45.14843" lon="2.6367">
        <ele>948.59997558594</ele>
        <time>2024-01-31T07:54:52.000Z</time>
      </trkpt>
      <trkpt lat="45.14845" lon="2.63658">
        <ele>948.79998779297</ele>
        <time>2024-01-31T07:54:53.000Z</time>
      </trkpt>
      <trkpt lat="45.14855" lon="2.63636">
        <ele>950</ele>
        <time>2024-01-31T07:54:55.000Z</time>
      </trkpt>
      <trkpt lat="45.14879" lon="2.63605">
        <ele>951.40002441406</ele>
        <time>2024-01-31T07:54:58.000Z</time>
      </trkpt>
      <trkpt lat="45.14888" lon="2.63594">
        <ele>951.79998779297</ele>
        <time>2024-01-31T07:54:59.000Z</time>
      </trkpt>
      <trkpt lat="45.14897" lon="2.63583">
        <ele>952.40002441406</ele>
        <time>2024-01-31T07:55:00.000Z</time>
      </trkpt>
      <trkpt lat="45.14915" lon="2.6356">
        <ele>953.59997558594</ele>
        <time>2024-01-31T07:55:02.000Z</time>
      </trkpt>
      <trkpt lat="45.14941" lon="2.63524">
        <ele>953.59997558594</ele>
        <time>2024-01-31T07:55:05.000Z</time>
      </trkpt>
      <trkpt lat="45.1498" lon="2.63457">
        <ele>952.59997558594</ele>
        <time>2024-01-31T07:55:10.000Z</time>
      </trkpt>
      <trkpt lat="45.14985" lon="2.63444">
        <ele>952.20001220703</ele>
        <time>2024-01-31T07:55:11.000Z</time>
      </trkpt>
      <trkpt lat="45.14989" lon="2.63431">
        <ele>951.20001220703</ele>
        <time>2024-01-31T07:55:12.000Z</time>
      </trkpt>
      <trkpt lat="45.14997" lon="2.63412">
        <ele>950.20001220703</ele>
        <time>2024-01-31T07:55:14.000Z</time>
      </trkpt>
      <trkpt lat="45.15002" lon="2.63405">
        <ele>950.20001220703</ele>
        <time>2024-01-31T07:55:15.000Z</time>
      </trkpt>
      <trkpt lat="45.15008" lon="2.63401">
        <ele>950</ele>
        <time>2024-01-31T07:55:16.000Z</time>
      </trkpt>
      <trkpt lat="45.15015" lon="2.63399">
        <ele>950</ele>
        <time>2024-01-31T07:55:17.000Z</time>
      </trkpt>
      <trkpt lat="45.15045" lon="2.63398">
        <ele>950</ele>
        <time>2024-01-31T07:55:20.000Z</time>
      </trkpt>
      <trkpt lat="45.15095" lon="2.63389">
        <ele>949.40002441406</ele>
        <time>2024-01-31T07:55:24.000Z</time>
      </trkpt>
      <trkpt lat="45.15147" lon="2.63366">
        <ele>949</ele>
        <time>2024-01-31T07:55:28.000Z</time>
      </trkpt>
      <trkpt lat="45.15159" lon="2.6336">
        <ele>948.59997558594</ele>
        <time>2024-01-31T07:55:29.000Z</time>
      </trkpt>
      <trkpt lat="45.15169" lon="2.63353">
        <ele>948.40002441406</ele>
        <time>2024-01-31T07:55:30.000Z</time>
      </trkpt>
      <trkpt lat="45.15178" lon="2.63343">
        <ele>948.40002441406</ele>
        <time>2024-01-31T07:55:31.000Z</time>
      </trkpt>
      <trkpt lat="45.15187" lon="2.63333">
        <ele>947.79998779297</ele>
        <time>2024-01-31T07:55:32.000Z</time>
      </trkpt>
      <trkpt lat="45.15205" lon="2.63318">
        <ele>947.20001220703</ele>
        <time>2024-01-31T07:55:34.000Z</time>
      </trkpt>
      <trkpt lat="45.15214" lon="2.63318">
        <ele>946.79998779297</ele>
        <time>2024-01-31T07:55:35.000Z</time>
      </trkpt>
      <trkpt lat="45.15222" lon="2.6332">
        <ele>946.59997558594</ele>
        <time>2024-01-31T07:55:36.000Z</time>
      </trkpt>
      <trkpt lat="45.15238" lon="2.63329">
        <ele>946.40002441406</ele>
        <time>2024-01-31T07:55:38.000Z</time>
      </trkpt>
      <trkpt lat="45.15255" lon="2.63329">
        <ele>946.20001220703</ele>
        <time>2024-01-31T07:55:40.000Z</time>
      </trkpt>
      <trkpt lat="45.15265" lon="2.63316">
        <ele>945.79998779297</ele>
        <time>2024-01-31T07:55:42.000Z</time>
      </trkpt>
      <trkpt lat="45.15271" lon="2.63291">
        <ele>945.79998779297</ele>
        <time>2024-01-31T07:55:44.000Z</time>
      </trkpt>
      <trkpt lat="45.15273" lon="2.63278">
        <ele>945.79998779297</ele>
        <time>2024-01-31T07:55:45.000Z</time>
      </trkpt>
      <trkpt lat="45.15289" lon="2.63224">
        <ele>945.59997558594</ele>
        <time>2024-01-31T07:55:49.000Z</time>
      </trkpt>
      <trkpt lat="45.15295" lon="2.63203">
        <ele>945.40002441406</ele>
        <time>2024-01-31T07:55:51.000Z</time>
      </trkpt>
      <trkpt lat="45.153" lon="2.63191">
        <ele>945.40002441406</ele>
        <time>2024-01-31T07:55:52.000Z</time>
      </trkpt>
      <trkpt lat="45.15305" lon="2.63185">
        <ele>945.40002441406</ele>
        <time>2024-01-31T07:55:53.000Z</time>
      </trkpt>
      <trkpt lat="45.15321" lon="2.63173">
        <ele>945.40002441406</ele>
        <time>2024-01-31T07:55:55.000Z</time>
      </trkpt>
      <trkpt lat="45.1533" lon="2.63166">
        <ele>945.20001220703</ele>
        <time>2024-01-31T07:55:56.000Z</time>
      </trkpt>
      <trkpt lat="45.15341" lon="2.63155">
        <ele>945</ele>
        <time>2024-01-31T07:55:58.000Z</time>
      </trkpt>
      <trkpt lat="45.15344" lon="2.63145">
        <ele>944.59997558594</ele>
        <time>2024-01-31T07:55:59.000Z</time>
      </trkpt>
      <trkpt lat="45.15345" lon="2.63134">
        <ele>944.59997558594</ele>
        <time>2024-01-31T07:56:00.000Z</time>
      </trkpt>
      <trkpt lat="45.15347" lon="2.6308">
        <ele>944.20001220703</ele>
        <time>2024-01-31T07:56:04.000Z</time>
      </trkpt>
      <trkpt lat="45.15353" lon="2.6305">
        <ele>943.40002441406</ele>
        <time>2024-01-31T07:56:06.000Z</time>
      </trkpt>
      <trkpt lat="45.15356" lon="2.63035">
        <ele>942.79998779297</ele>
        <time>2024-01-31T07:56:07.000Z</time>
      </trkpt>
      <trkpt lat="45.1536" lon="2.63019">
        <ele>942.20001220703</ele>
        <time>2024-01-31T07:56:08.000Z</time>
      </trkpt>
      <trkpt lat="45.15376" lon="2.62955">
        <ele>940.79998779297</ele>
        <time>2024-01-31T07:56:12.000Z</time>
      </trkpt>
      <trkpt lat="45.15378" lon="2.62939">
        <ele>940.40002441406</ele>
        <time>2024-01-31T07:56:13.000Z</time>
      </trkpt>
      <trkpt lat="45.15379" lon="2.62924">
        <ele>939.59997558594</ele>
        <time>2024-01-31T07:56:14.000Z</time>
      </trkpt>
      <trkpt lat="45.15378" lon="2.62895">
        <ele>939.20001220703</ele>
        <time>2024-01-31T07:56:16.000Z</time>
      </trkpt>
      <trkpt lat="45.15379" lon="2.62882">
        <ele>939</ele>
        <time>2024-01-31T07:56:17.000Z</time>
      </trkpt>
      <trkpt lat="45.15385" lon="2.6284">
        <ele>938.40002441406</ele>
        <time>2024-01-31T07:56:20.000Z</time>
      </trkpt>
      <trkpt lat="45.15401" lon="2.6278">
        <ele>937.40002441406</ele>
        <time>2024-01-31T07:56:24.000Z</time>
      </trkpt>
      <trkpt lat="45.15417" lon="2.62733">
        <ele>936.20001220703</ele>
        <time>2024-01-31T07:56:27.000Z</time>
      </trkpt>
      <trkpt lat="45.15435" lon="2.62671">
        <ele>934.40002441406</ele>
        <time>2024-01-31T07:56:31.000Z</time>
      </trkpt>
      <trkpt lat="45.15441" lon="2.62657">
        <ele>934.40002441406</ele>
        <time>2024-01-31T07:56:32.000Z</time>
      </trkpt>
      <trkpt lat="45.15455" lon="2.62633">
        <ele>933.79998779297</ele>
        <time>2024-01-31T07:56:34.000Z</time>
      </trkpt>
      <trkpt lat="45.15464" lon="2.62624">
        <ele>933.40002441406</ele>
        <time>2024-01-31T07:56:35.000Z</time>
      </trkpt>
      <trkpt lat="45.15483" lon="2.62609">
        <ele>932.79998779297</ele>
        <time>2024-01-31T07:56:37.000Z</time>
      </trkpt>
      <trkpt lat="45.15491" lon="2.62601">
        <ele>932.40002441406</ele>
        <time>2024-01-31T07:56:38.000Z</time>
      </trkpt>
      <trkpt lat="45.155" lon="2.62591">
        <ele>931.79998779297</ele>
        <time>2024-01-31T07:56:39.000Z</time>
      </trkpt>
      <trkpt lat="45.15507" lon="2.62579">
        <ele>931.59997558594</ele>
        <time>2024-01-31T07:56:40.000Z</time>
      </trkpt>
      <trkpt lat="45.15514" lon="2.62566">
        <ele>931.20001220703</ele>
        <time>2024-01-31T07:56:41.000Z</time>
      </trkpt>
      <trkpt lat="45.15548" lon="2.62497">
        <ele>929.79998779297</ele>
        <time>2024-01-31T07:56:46.000Z</time>
      </trkpt>
      <trkpt lat="45.15561" lon="2.62471">
        <ele>928.59997558594</ele>
        <time>2024-01-31T07:56:48.000Z</time>
      </trkpt>
      <trkpt lat="45.15576" lon="2.62432">
        <ele>927</ele>
        <time>2024-01-31T07:56:51.000Z</time>
      </trkpt>
      <trkpt lat="45.15577" lon="2.62407">
        <ele>925.79998779297</ele>
        <time>2024-01-31T07:56:53.000Z</time>
      </trkpt>
      <trkpt lat="45.15575" lon="2.62396">
        <ele>925.59997558594</ele>
        <time>2024-01-31T07:56:54.000Z</time>
      </trkpt>
      <trkpt lat="45.1557" lon="2.62387">
        <ele>925.40002441406</ele>
        <time>2024-01-31T07:56:55.000Z</time>
      </trkpt>
      <trkpt lat="45.15563" lon="2.6238">
        <ele>925.20001220703</ele>
        <time>2024-01-31T07:56:56.000Z</time>
      </trkpt>
      <trkpt lat="45.15557" lon="2.62375">
        <ele>925</ele>
        <time>2024-01-31T07:56:57.000Z</time>
      </trkpt>
      <trkpt lat="45.15552" lon="2.62372">
        <ele>924.59997558594</ele>
        <time>2024-01-31T07:56:58.000Z</time>
      </trkpt>
      <trkpt lat="45.15548" lon="2.6237">
        <ele>924.20001220703</ele>
        <time>2024-01-31T07:56:59.000Z</time>
      </trkpt>
      <trkpt lat="45.15542" lon="2.62366">
        <ele>924</ele>
        <time>2024-01-31T07:57:02.000Z</time>
      </trkpt>
      <trkpt lat="45.15541" lon="2.62364">
        <ele>924</ele>
        <time>2024-01-31T07:57:06.000Z</time>
      </trkpt>
      <trkpt lat="45.15541" lon="2.62364">
        <ele>924</ele>
        <time>2024-01-31T07:57:14.000Z</time>
      </trkpt>
      <trkpt lat="45.15541" lon="2.62364">
        <ele>924</ele>
        <time>2024-01-31T07:57:22.000Z</time>
      </trkpt>
      <trkpt lat="45.15541" lon="2.62364">
        <ele>923.79998779297</ele>
        <time>2024-01-31T07:57:31.000Z</time>
      </trkpt>
      <trkpt lat="45.15541" lon="2.62364">
        <ele>923.79998779297</ele>
        <time>2024-01-31T07:57:39.000Z</time>
      </trkpt>
      <trkpt lat="45.15541" lon="2.62364">
        <ele>923.59997558594</ele>
        <time>2024-01-31T07:57:51.000Z</time>
      </trkpt>
      <trkpt lat="45.15541" lon="2.62364">
        <ele>923.59997558594</ele>
        <time>2024-01-31T07:58:01.000Z</time>
      </trkpt>
      <trkpt lat="45.15541" lon="2.62364">
        <ele>923.59997558594</ele>
        <time>2024-01-31T07:58:02.000Z</time>
      </trkpt>
      <trkpt lat="45.15541" lon="2.62364">
        <ele>923.59997558594</ele>
        <time>2024-01-31T07:58:09.000Z</time>
      </trkpt>
      <trkpt lat="45.15534" lon="2.6236">
        <ele>924</ele>
        <time>2024-01-31T07:58:15.000Z</time>
      </trkpt>
      <trkpt lat="45.15508" lon="2.62348">
        <ele>924.20001220703</ele>
        <time>2024-01-31T07:58:20.000Z</time>
      </trkpt>
      <trkpt lat="45.15502" lon="2.62344">
        <ele>924.20001220703</ele>
        <time>2024-01-31T07:58:21.000Z</time>
      </trkpt>
      <trkpt lat="45.15494" lon="2.62333">
        <ele>924.20001220703</ele>
        <time>2024-01-31T07:58:23.000Z</time>
      </trkpt>
      <trkpt lat="45.1549" lon="2.62321">
        <ele>924.20001220703</ele>
        <time>2024-01-31T07:58:25.000Z</time>
      </trkpt>
      <trkpt lat="45.1549" lon="2.62315">
        <ele>924.40002441406</ele>
        <time>2024-01-31T07:58:26.000Z</time>
      </trkpt>
      <trkpt lat="45.15497" lon="2.62298">
        <ele>924.59997558594</ele>
        <time>2024-01-31T07:58:29.000Z</time>
      </trkpt>
      <trkpt lat="45.15506" lon="2.62283">
        <ele>925</ele>
        <time>2024-01-31T07:58:31.000Z</time>
      </trkpt>
      <trkpt lat="45.15525" lon="2.6224">
        <ele>925.20001220703</ele>
        <time>2024-01-31T07:58:36.000Z</time>
      </trkpt>
      <trkpt lat="45.15528" lon="2.6223">
        <ele>925.40002441406</ele>
        <time>2024-01-31T07:58:37.000Z</time>
      </trkpt>
      <trkpt lat="45.15528" lon="2.62206">
        <ele>926</ele>
        <time>2024-01-31T07:58:39.000Z</time>
      </trkpt>
      <trkpt lat="45.15525" lon="2.62152">
        <ele>927</ele>
        <time>2024-01-31T07:58:43.000Z</time>
      </trkpt>
      <trkpt lat="45.15529" lon="2.62127">
        <ele>927.20001220703</ele>
        <time>2024-01-31T07:58:45.000Z</time>
      </trkpt>
      <trkpt lat="45.15534" lon="2.62117">
        <ele>927.40002441406</ele>
        <time>2024-01-31T07:58:46.000Z</time>
      </trkpt>
      <trkpt lat="45.1554" lon="2.62107">
        <ele>927.59997558594</ele>
        <time>2024-01-31T07:58:47.000Z</time>
      </trkpt>
      <trkpt lat="45.15554" lon="2.62085">
        <ele>928.40002441406</ele>
        <time>2024-01-31T07:58:49.000Z</time>
      </trkpt>
      <trkpt lat="45.15563" lon="2.62074">
        <ele>929.20001220703</ele>
        <time>2024-01-31T07:58:50.000Z</time>
      </trkpt>
      <trkpt lat="45.15572" lon="2.62063">
        <ele>929.59997558594</ele>
        <time>2024-01-31T07:58:51.000Z</time>
      </trkpt>
      <trkpt lat="45.15599" lon="2.62025">
        <ele>930.59997558594</ele>
        <time>2024-01-31T07:58:54.000Z</time>
      </trkpt>
      <trkpt lat="45.15632" lon="2.61962">
        <ele>932.40002441406</ele>
        <time>2024-01-31T07:58:58.000Z</time>
      </trkpt>
      <trkpt lat="45.15665" lon="2.61887">
        <ele>932.40002441406</ele>
        <time>2024-01-31T07:59:02.000Z</time>
      </trkpt>
      <trkpt lat="45.15673" lon="2.61868">
        <ele>932.40002441406</ele>
        <time>2024-01-31T07:59:03.000Z</time>
      </trkpt>
      <trkpt lat="45.15701" lon="2.61799">
        <ele>931.59997558594</ele>
        <time>2024-01-31T07:59:07.000Z</time>
      </trkpt>
      <trkpt lat="45.15705" lon="2.61782">
        <ele>931.20001220703</ele>
        <time>2024-01-31T07:59:08.000Z</time>
      </trkpt>
      <trkpt lat="45.15706" lon="2.61765">
        <ele>931</ele>
        <time>2024-01-31T07:59:09.000Z</time>
      </trkpt>
      <trkpt lat="45.15706" lon="2.61748">
        <ele>930.79998779297</ele>
        <time>2024-01-31T07:59:10.000Z</time>
      </trkpt>
      <trkpt lat="45.15706" lon="2.61714">
        <ele>930.59997558594</ele>
        <time>2024-01-31T07:59:12.000Z</time>
      </trkpt>
      <trkpt lat="45.15708" lon="2.61699">
        <ele>930.20001220703</ele>
        <time>2024-01-31T07:59:13.000Z</time>
      </trkpt>
      <trkpt lat="45.15711" lon="2.61686">
        <ele>930.20001220703</ele>
        <time>2024-01-31T07:59:14.000Z</time>
      </trkpt>
      <trkpt lat="45.15721" lon="2.61661">
        <ele>930</ele>
        <time>2024-01-31T07:59:16.000Z</time>
      </trkpt>
      <trkpt lat="45.15758" lon="2.61587">
        <ele>930.20001220703</ele>
        <time>2024-01-31T07:59:21.000Z</time>
      </trkpt>
      <trkpt lat="45.15785" lon="2.61543">
        <ele>930</ele>
        <time>2024-01-31T07:59:24.000Z</time>
      </trkpt>
      <trkpt lat="45.15796" lon="2.61533">
        <ele>930</ele>
        <time>2024-01-31T07:59:25.000Z</time>
      </trkpt>
      <trkpt lat="45.1584" lon="2.61503">
        <ele>929</ele>
        <time>2024-01-31T07:59:29.000Z</time>
      </trkpt>
      <trkpt lat="45.15857" lon="2.61482">
        <ele>928.20001220703</ele>
        <time>2024-01-31T07:59:31.000Z</time>
      </trkpt>
      <trkpt lat="45.15864" lon="2.61469">
        <ele>927.79998779297</ele>
        <time>2024-01-31T07:59:32.000Z</time>
      </trkpt>
      <trkpt lat="45.15874" lon="2.6144">
        <ele>927</ele>
        <time>2024-01-31T07:59:34.000Z</time>
      </trkpt>
      <trkpt lat="45.15889" lon="2.61397">
        <ele>926.79998779297</ele>
        <time>2024-01-31T07:59:37.000Z</time>
      </trkpt>
      <trkpt lat="45.15896" lon="2.61385">
        <ele>926.79998779297</ele>
        <time>2024-01-31T07:59:38.000Z</time>
      </trkpt>
      <trkpt lat="45.15904" lon="2.61374">
        <ele>926.79998779297</ele>
        <time>2024-01-31T07:59:39.000Z</time>
      </trkpt>
      <trkpt lat="45.15924" lon="2.61359">
        <ele>926.79998779297</ele>
        <time>2024-01-31T07:59:41.000Z</time>
      </trkpt>
      <trkpt lat="45.15958" lon="2.61341">
        <ele>926.20001220703</ele>
        <time>2024-01-31T07:59:44.000Z</time>
      </trkpt>
      <trkpt lat="45.15969" lon="2.61333">
        <ele>926</ele>
        <time>2024-01-31T07:59:45.000Z</time>
      </trkpt>
      <trkpt lat="45.15979" lon="2.61321">
        <ele>925.79998779297</ele>
        <time>2024-01-31T07:59:46.000Z</time>
      </trkpt>
      <trkpt lat="45.16" lon="2.61293">
        <ele>924.59997558594</ele>
        <time>2024-01-31T07:59:48.000Z</time>
      </trkpt>
      <trkpt lat="45.16021" lon="2.61264">
        <ele>923.20001220703</ele>
        <time>2024-01-31T07:59:50.000Z</time>
      </trkpt>
      <trkpt lat="45.16046" lon="2.6124">
        <ele>921.79998779297</ele>
        <time>2024-01-31T07:59:52.000Z</time>
      </trkpt>
      <trkpt lat="45.16074" lon="2.6122">
        <ele>920.20001220703</ele>
        <time>2024-01-31T07:59:54.000Z</time>
      </trkpt>
      <trkpt lat="45.16103" lon="2.61202">
        <ele>918.79998779297</ele>
        <time>2024-01-31T07:59:56.000Z</time>
      </trkpt>
      <trkpt lat="45.16117" lon="2.61194">
        <ele>917.79998779297</ele>
        <time>2024-01-31T07:59:57.000Z</time>
      </trkpt>
      <trkpt lat="45.16156" lon="2.61179">
        <ele>916</ele>
        <time>2024-01-31T08:00:00.000Z</time>
      </trkpt>
      <trkpt lat="45.16177" lon="2.61174">
        <ele>914.40002441406</ele>
        <time>2024-01-31T08:00:02.000Z</time>
      </trkpt>
      <trkpt lat="45.16186" lon="2.61172">
        <ele>913.59997558594</ele>
        <time>2024-01-31T08:00:03.000Z</time>
      </trkpt>
      <trkpt lat="45.16193" lon="2.61171">
        <ele>913.20001220703</ele>
        <time>2024-01-31T08:00:04.000Z</time>
      </trkpt>
      <trkpt lat="45.16204" lon="2.61175">
        <ele>912.59997558594</ele>
        <time>2024-01-31T08:00:06.000Z</time>
      </trkpt>
      <trkpt lat="45.16215" lon="2.6118">
        <ele>912.59997558594</ele>
        <time>2024-01-31T08:00:08.000Z</time>
      </trkpt>
      <trkpt lat="45.16222" lon="2.61179">
        <ele>912.59997558594</ele>
        <time>2024-01-31T08:00:09.000Z</time>
      </trkpt>
      <trkpt lat="45.16228" lon="2.61176">
        <ele>912.79998779297</ele>
        <time>2024-01-31T08:00:10.000Z</time>
      </trkpt>
      <trkpt lat="45.16235" lon="2.61167">
        <ele>913</ele>
        <time>2024-01-31T08:00:12.000Z</time>
      </trkpt>
      <trkpt lat="45.16252" lon="2.61146">
        <ele>914.59997558594</ele>
        <time>2024-01-31T08:00:16.000Z</time>
      </trkpt>
      <trkpt lat="45.16263" lon="2.61136">
        <ele>915.40002441406</ele>
        <time>2024-01-31T08:00:18.000Z</time>
      </trkpt>
      <trkpt lat="45.16263" lon="2.61136">
        <ele>916</ele>
        <time>2024-01-31T08:00:19.000Z</time>
      </trkpt>
      <trkpt lat="45.16275" lon="2.61129">
        <ele>916.59997558594</ele>
        <time>2024-01-31T08:00:20.000Z</time>
      </trkpt>
      <trkpt lat="45.16289" lon="2.61125">
        <ele>917.79998779297</ele>
        <time>2024-01-31T08:00:22.000Z</time>
      </trkpt>
      <trkpt lat="45.16297" lon="2.61121">
        <ele>918</ele>
        <time>2024-01-31T08:00:23.000Z</time>
      </trkpt>
      <trkpt lat="45.16305" lon="2.61117">
        <ele>919</ele>
        <time>2024-01-31T08:00:24.000Z</time>
      </trkpt>
      <trkpt lat="45.16312" lon="2.61111">
        <ele>919.79998779297</ele>
        <time>2024-01-31T08:00:25.000Z</time>
      </trkpt>
      <trkpt lat="45.16319" lon="2.61103">
        <ele>920.20001220703</ele>
        <time>2024-01-31T08:00:26.000Z</time>
      </trkpt>
      <trkpt lat="45.16327" lon="2.61095">
        <ele>921.20001220703</ele>
        <time>2024-01-31T08:00:27.000Z</time>
      </trkpt>
      <trkpt lat="45.16344" lon="2.61077">
        <ele>922.59997558594</ele>
        <time>2024-01-31T08:00:29.000Z</time>
      </trkpt>
      <trkpt lat="45.16362" lon="2.61058">
        <ele>924.59997558594</ele>
        <time>2024-01-31T08:00:31.000Z</time>
      </trkpt>
      <trkpt lat="45.16373" lon="2.61045">
        <ele>925.20001220703</ele>
        <time>2024-01-31T08:00:32.000Z</time>
      </trkpt>
      <trkpt lat="45.16383" lon="2.61035">
        <ele>926.20001220703</ele>
        <time>2024-01-31T08:00:33.000Z</time>
      </trkpt>
      <trkpt lat="45.16401" lon="2.61016">
        <ele>927.20001220703</ele>
        <time>2024-01-31T08:00:35.000Z</time>
      </trkpt>
      <trkpt lat="45.1642" lon="2.60995">
        <ele>929</ele>
        <time>2024-01-31T08:00:37.000Z</time>
      </trkpt>
      <trkpt lat="45.16437" lon="2.60975">
        <ele>930.40002441406</ele>
        <time>2024-01-31T08:00:39.000Z</time>
      </trkpt>
      <trkpt lat="45.16444" lon="2.60965">
        <ele>931.20001220703</ele>
        <time>2024-01-31T08:00:40.000Z</time>
      </trkpt>
      <trkpt lat="45.1645" lon="2.60954">
        <ele>931.59997558594</ele>
        <time>2024-01-31T08:00:41.000Z</time>
      </trkpt>
      <trkpt lat="45.16455" lon="2.60943">
        <ele>932.40002441406</ele>
        <time>2024-01-31T08:00:42.000Z</time>
      </trkpt>
      <trkpt lat="45.1646" lon="2.60932">
        <ele>933.40002441406</ele>
        <time>2024-01-31T08:00:43.000Z</time>
      </trkpt>
      <trkpt lat="45.16465" lon="2.60924">
        <ele>934</ele>
        <time>2024-01-31T08:00:44.000Z</time>
      </trkpt>
      <trkpt lat="45.1647" lon="2.60918">
        <ele>934.40002441406</ele>
        <time>2024-01-31T08:00:45.000Z</time>
      </trkpt>
      <trkpt lat="45.16476" lon="2.60917">
        <ele>934.59997558594</ele>
        <time>2024-01-31T08:00:46.000Z</time>
      </trkpt>
      <trkpt lat="45.16481" lon="2.60917">
        <ele>934.79998779297</ele>
        <time>2024-01-31T08:00:47.000Z</time>
      </trkpt>
      <trkpt lat="45.16489" lon="2.60919">
        <ele>935.40002441406</ele>
        <time>2024-01-31T08:00:48.000Z</time>
      </trkpt>
      <trkpt lat="45.16497" lon="2.60919">
        <ele>936</ele>
        <time>2024-01-31T08:00:49.000Z</time>
      </trkpt>
      <trkpt lat="45.16513" lon="2.60917">
        <ele>936.40002441406</ele>
        <time>2024-01-31T08:00:51.000Z</time>
      </trkpt>
      <trkpt lat="45.1652" lon="2.60917">
        <ele>936.40002441406</ele>
        <time>2024-01-31T08:00:52.000Z</time>
      </trkpt>
      <trkpt lat="45.16536" lon="2.60917">
        <ele>936.40002441406</ele>
        <time>2024-01-31T08:00:55.000Z</time>
      </trkpt>
      <trkpt lat="45.16541" lon="2.60918">
        <ele>936</ele>
        <time>2024-01-31T08:00:58.000Z</time>
      </trkpt>
      <trkpt lat="45.16544" lon="2.60916">
        <ele>936.40002441406</ele>
        <time>2024-01-31T08:01:01.000Z</time>
      </trkpt>
      <trkpt lat="45.16547" lon="2.60914">
        <ele>936.59997558594</ele>
        <time>2024-01-31T08:01:02.000Z</time>
      </trkpt>
      <trkpt lat="45.16554" lon="2.60906">
        <ele>936.79998779297</ele>
        <time>2024-01-31T08:01:04.000Z</time>
      </trkpt>
      <trkpt lat="45.1656" lon="2.60893">
        <ele>937.40002441406</ele>
        <time>2024-01-31T08:01:06.000Z</time>
      </trkpt>
      <trkpt lat="45.16562" lon="2.60884">
        <ele>938.20001220703</ele>
        <time>2024-01-31T08:01:07.000Z</time>
      </trkpt>
      <trkpt lat="45.16565" lon="2.60864">
        <ele>939.40002441406</ele>
        <time>2024-01-31T08:01:09.000Z</time>
      </trkpt>
      <trkpt lat="45.16568" lon="2.60855">
        <ele>940.40002441406</ele>
        <time>2024-01-31T08:01:10.000Z</time>
      </trkpt>
      <trkpt lat="45.16571" lon="2.60848">
        <ele>940.59997558594</ele>
        <time>2024-01-31T08:01:11.000Z</time>
      </trkpt>
      <trkpt lat="45.16577" lon="2.60842">
        <ele>941</ele>
        <time>2024-01-31T08:01:12.000Z</time>
      </trkpt>
      <trkpt lat="45.16583" lon="2.60839">
        <ele>941.40002441406</ele>
        <time>2024-01-31T08:01:13.000Z</time>
      </trkpt>
      <trkpt lat="45.1659" lon="2.60839">
        <ele>942.20001220703</ele>
        <time>2024-01-31T08:01:14.000Z</time>
      </trkpt>
      <trkpt lat="45.16603" lon="2.60838">
        <ele>943.79998779297</ele>
        <time>2024-01-31T08:01:16.000Z</time>
      </trkpt>
      <trkpt lat="45.1661" lon="2.60835">
        <ele>944.20001220703</ele>
        <time>2024-01-31T08:01:17.000Z</time>
      </trkpt>
      <trkpt lat="45.16616" lon="2.6083">
        <ele>944.40002441406</ele>
        <time>2024-01-31T08:01:18.000Z</time>
      </trkpt>
      <trkpt lat="45.16621" lon="2.60823">
        <ele>945.20001220703</ele>
        <time>2024-01-31T08:01:19.000Z</time>
      </trkpt>
      <trkpt lat="45.16624" lon="2.60815">
        <ele>945.40002441406</ele>
        <time>2024-01-31T08:01:20.000Z</time>
      </trkpt>
      <trkpt lat="45.16628" lon="2.60798">
        <ele>946.59997558594</ele>
        <time>2024-01-31T08:01:22.000Z</time>
      </trkpt>
      <trkpt lat="45.16631" lon="2.60782">
        <ele>947.79998779297</ele>
        <time>2024-01-31T08:01:24.000Z</time>
      </trkpt>
      <trkpt lat="45.16632" lon="2.60773">
        <ele>948.40002441406</ele>
        <time>2024-01-31T08:01:25.000Z</time>
      </trkpt>
      <trkpt lat="45.16633" lon="2.60763">
        <ele>949</ele>
        <time>2024-01-31T08:01:26.000Z</time>
      </trkpt>
      <trkpt lat="45.16632" lon="2.60753">
        <ele>949.59997558594</ele>
        <time>2024-01-31T08:01:27.000Z</time>
      </trkpt>
      <trkpt lat="45.16631" lon="2.60744">
        <ele>950.20001220703</ele>
        <time>2024-01-31T08:01:28.000Z</time>
      </trkpt>
      <trkpt lat="45.16628" lon="2.60727">
        <ele>951.20001220703</ele>
        <time>2024-01-31T08:01:30.000Z</time>
      </trkpt>
      <trkpt lat="45.1663" lon="2.60713">
        <ele>952.20001220703</ele>
        <time>2024-01-31T08:01:32.000Z</time>
      </trkpt>
      <trkpt lat="45.16634" lon="2.60707">
        <ele>952.59997558594</ele>
        <time>2024-01-31T08:01:33.000Z</time>
      </trkpt>
      <trkpt lat="45.16639" lon="2.60703">
        <ele>952.79998779297</ele>
        <time>2024-01-31T08:01:34.000Z</time>
      </trkpt>
      <trkpt lat="45.16645" lon="2.60701">
        <ele>953.59997558594</ele>
        <time>2024-01-31T08:01:35.000Z</time>
      </trkpt>
      <trkpt lat="45.16653" lon="2.60698">
        <ele>954</ele>
        <time>2024-01-31T08:01:36.000Z</time>
      </trkpt>
      <trkpt lat="45.16669" lon="2.60691">
        <ele>955.20001220703</ele>
        <time>2024-01-31T08:01:38.000Z</time>
      </trkpt>
      <trkpt lat="45.16676" lon="2.60685">
        <ele>955.59997558594</ele>
        <time>2024-01-31T08:01:39.000Z</time>
      </trkpt>
      <trkpt lat="45.16683" lon="2.60677">
        <ele>956.40002441406</ele>
        <time>2024-01-31T08:01:40.000Z</time>
      </trkpt>
      <trkpt lat="45.16697" lon="2.60659">
        <ele>958</ele>
        <time>2024-01-31T08:01:42.000Z</time>
      </trkpt>
      <trkpt lat="45.16704" lon="2.60651">
        <ele>958.79998779297</ele>
        <time>2024-01-31T08:01:43.000Z</time>
      </trkpt>
      <trkpt lat="45.16711" lon="2.60648">
        <ele>959.40002441406</ele>
        <time>2024-01-31T08:01:44.000Z</time>
      </trkpt>
      <trkpt lat="45.16719" lon="2.60649">
        <ele>960.40002441406</ele>
        <time>2024-01-31T08:01:45.000Z</time>
      </trkpt>
      <trkpt lat="45.16726" lon="2.60651">
        <ele>961.20001220703</ele>
        <time>2024-01-31T08:01:46.000Z</time>
      </trkpt>
      <trkpt lat="45.16733" lon="2.60655">
        <ele>962.20001220703</ele>
        <time>2024-01-31T08:01:47.000Z</time>
      </trkpt>
      <trkpt lat="45.1674" lon="2.60658">
        <ele>962.79998779297</ele>
        <time>2024-01-31T08:01:48.000Z</time>
      </trkpt>
      <trkpt lat="45.16756" lon="2.60654">
        <ele>964.40002441406</ele>
        <time>2024-01-31T08:01:50.000Z</time>
      </trkpt>
      <trkpt lat="45.16776" lon="2.60643">
        <ele>966</ele>
        <time>2024-01-31T08:01:52.000Z</time>
      </trkpt>
      <trkpt lat="45.16786" lon="2.60635">
        <ele>966.59997558594</ele>
        <time>2024-01-31T08:01:53.000Z</time>
      </trkpt>
      <trkpt lat="45.16797" lon="2.60627">
        <ele>967.20001220703</ele>
        <time>2024-01-31T08:01:54.000Z</time>
      </trkpt>
      <trkpt lat="45.16826" lon="2.60598">
        <ele>968.79998779297</ele>
        <time>2024-01-31T08:01:57.000Z</time>
      </trkpt>
      <trkpt lat="45.16833" lon="2.60586">
        <ele>969.20001220703</ele>
        <time>2024-01-31T08:01:58.000Z</time>
      </trkpt>
      <trkpt lat="45.16839" lon="2.60574">
        <ele>970</ele>
        <time>2024-01-31T08:01:59.000Z</time>
      </trkpt>
      <trkpt lat="45.16844" lon="2.60561">
        <ele>970.79998779297</ele>
        <time>2024-01-31T08:02:00.000Z</time>
      </trkpt>
      <trkpt lat="45.16848" lon="2.60546">
        <ele>971.40002441406</ele>
        <time>2024-01-31T08:02:01.000Z</time>
      </trkpt>
      <trkpt lat="45.16851" lon="2.60531">
        <ele>972.20001220703</ele>
        <time>2024-01-31T08:02:02.000Z</time>
      </trkpt>
      <trkpt lat="45.16856" lon="2.60517">
        <ele>973</ele>
        <time>2024-01-31T08:02:03.000Z</time>
      </trkpt>
      <trkpt lat="45.16867" lon="2.60491">
        <ele>974.79998779297</ele>
        <time>2024-01-31T08:02:05.000Z</time>
      </trkpt>
      <trkpt lat="45.16871" lon="2.60478">
        <ele>976</ele>
        <time>2024-01-31T08:02:06.000Z</time>
      </trkpt>
      <trkpt lat="45.16875" lon="2.60464">
        <ele>977.20001220703</ele>
        <time>2024-01-31T08:02:07.000Z</time>
      </trkpt>
      <trkpt lat="45.16883" lon="2.60435">
        <ele>978.79998779297</ele>
        <time>2024-01-31T08:02:09.000Z</time>
      </trkpt>
      <trkpt lat="45.16891" lon="2.60405">
        <ele>980</ele>
        <time>2024-01-31T08:02:11.000Z</time>
      </trkpt>
      <trkpt lat="45.16894" lon="2.6039">
        <ele>980.40002441406</ele>
        <time>2024-01-31T08:02:12.000Z</time>
      </trkpt>
      <trkpt lat="45.16894" lon="2.60375">
        <ele>981</ele>
        <time>2024-01-31T08:02:13.000Z</time>
      </trkpt>
      <trkpt lat="45.16893" lon="2.6036">
        <ele>981.79998779297</ele>
        <time>2024-01-31T08:02:14.000Z</time>
      </trkpt>
      <trkpt lat="45.16892" lon="2.60345">
        <ele>983</ele>
        <time>2024-01-31T08:02:15.000Z</time>
      </trkpt>
      <trkpt lat="45.16891" lon="2.6033">
        <ele>983.20001220703</ele>
        <time>2024-01-31T08:02:16.000Z</time>
      </trkpt>
      <trkpt lat="45.16892" lon="2.60316">
        <ele>983.59997558594</ele>
        <time>2024-01-31T08:02:17.000Z</time>
      </trkpt>
      <trkpt lat="45.16896" lon="2.60304">
        <ele>984.59997558594</ele>
        <time>2024-01-31T08:02:18.000Z</time>
      </trkpt>
      <trkpt lat="45.16901" lon="2.60292">
        <ele>985.59997558594</ele>
        <time>2024-01-31T08:02:19.000Z</time>
      </trkpt>
      <trkpt lat="45.16907" lon="2.60281">
        <ele>986.40002441406</ele>
        <time>2024-01-31T08:02:20.000Z</time>
      </trkpt>
      <trkpt lat="45.16913" lon="2.60273">
        <ele>987.79998779297</ele>
        <time>2024-01-31T08:02:21.000Z</time>
      </trkpt>
      <trkpt lat="45.16922" lon="2.60262">
        <ele>989</ele>
        <time>2024-01-31T08:02:22.000Z</time>
      </trkpt>
      <trkpt lat="45.1693" lon="2.60255">
        <ele>989.59997558594</ele>
        <time>2024-01-31T08:02:23.000Z</time>
      </trkpt>
      <trkpt lat="45.16939" lon="2.60251">
        <ele>990.20001220703</ele>
        <time>2024-01-31T08:02:24.000Z</time>
      </trkpt>
      <trkpt lat="45.16959" lon="2.60247">
        <ele>991.79998779297</ele>
        <time>2024-01-31T08:02:26.000Z</time>
      </trkpt>
      <trkpt lat="45.16979" lon="2.60248">
        <ele>993.20001220703</ele>
        <time>2024-01-31T08:02:28.000Z</time>
      </trkpt>
      <trkpt lat="45.16988" lon="2.60252">
        <ele>994</ele>
        <time>2024-01-31T08:02:29.000Z</time>
      </trkpt>
      <trkpt lat="45.16996" lon="2.6026">
        <ele>994.40002441406</ele>
        <time>2024-01-31T08:02:30.000Z</time>
      </trkpt>
      <trkpt lat="45.17003" lon="2.6027">
        <ele>994.79998779297</ele>
        <time>2024-01-31T08:02:31.000Z</time>
      </trkpt>
      <trkpt lat="45.17017" lon="2.60286">
        <ele>996.40002441406</ele>
        <time>2024-01-31T08:02:33.000Z</time>
      </trkpt>
      <trkpt lat="45.17028" lon="2.60294">
        <ele>997</ele>
        <time>2024-01-31T08:02:34.000Z</time>
      </trkpt>
      <trkpt lat="45.17038" lon="2.603">
        <ele>998</ele>
        <time>2024-01-31T08:02:35.000Z</time>
      </trkpt>
      <trkpt lat="45.17055" lon="2.60313">
        <ele>999.59997558594</ele>
        <time>2024-01-31T08:02:37.000Z</time>
      </trkpt>
      <trkpt lat="45.17071" lon="2.60324">
        <ele>1001</ele>
        <time>2024-01-31T08:02:39.000Z</time>
      </trkpt>
      <trkpt lat="45.17085" lon="2.6032">
        <ele>1002.4000244141</ele>
        <time>2024-01-31T08:02:41.000Z</time>
      </trkpt>
      <trkpt lat="45.17096" lon="2.60302">
        <ele>1003.4000244141</ele>
        <time>2024-01-31T08:02:43.000Z</time>
      </trkpt>
      <trkpt lat="45.17105" lon="2.60277">
        <ele>1005.4000244141</ele>
        <time>2024-01-31T08:02:45.000Z</time>
      </trkpt>
      <trkpt lat="45.17107" lon="2.60264">
        <ele>1006</ele>
        <time>2024-01-31T08:02:46.000Z</time>
      </trkpt>
      <trkpt lat="45.17109" lon="2.60252">
        <ele>1006.4000244141</ele>
        <time>2024-01-31T08:02:47.000Z</time>
      </trkpt>
      <trkpt lat="45.17111" lon="2.6024">
        <ele>1007.4000244141</ele>
        <time>2024-01-31T08:02:48.000Z</time>
      </trkpt>
      <trkpt lat="45.17115" lon="2.60229">
        <ele>1007.799987793</ele>
        <time>2024-01-31T08:02:49.000Z</time>
      </trkpt>
      <trkpt lat="45.17121" lon="2.60219">
        <ele>1008.5999755859</ele>
        <time>2024-01-31T08:02:50.000Z</time>
      </trkpt>
      <trkpt lat="45.17127" lon="2.60212">
        <ele>1009.200012207</ele>
        <time>2024-01-31T08:02:51.000Z</time>
      </trkpt>
      <trkpt lat="45.17135" lon="2.60207">
        <ele>1010.200012207</ele>
        <time>2024-01-31T08:02:52.000Z</time>
      </trkpt>
      <trkpt lat="45.17144" lon="2.60203">
        <ele>1011</ele>
        <time>2024-01-31T08:02:53.000Z</time>
      </trkpt>
      <trkpt lat="45.17164" lon="2.60195">
        <ele>1012.799987793</ele>
        <time>2024-01-31T08:02:55.000Z</time>
      </trkpt>
      <trkpt lat="45.17186" lon="2.60187">
        <ele>1014.4000244141</ele>
        <time>2024-01-31T08:02:57.000Z</time>
      </trkpt>
      <trkpt lat="45.17207" lon="2.60178">
        <ele>1015.5999755859</ele>
        <time>2024-01-31T08:02:59.000Z</time>
      </trkpt>
      <trkpt lat="45.17237" lon="2.60171">
        <ele>1016.799987793</ele>
        <time>2024-01-31T08:03:02.000Z</time>
      </trkpt>
      <trkpt lat="45.17244" lon="2.60171">
        <ele>1017.5999755859</ele>
        <time>2024-01-31T08:03:03.000Z</time>
      </trkpt>
      <trkpt lat="45.17254" lon="2.60172">
        <ele>1018.4000244141</ele>
        <time>2024-01-31T08:03:04.000Z</time>
      </trkpt>
      <trkpt lat="45.17262" lon="2.60177">
        <ele>1018.799987793</ele>
        <time>2024-01-31T08:03:05.000Z</time>
      </trkpt>
      <trkpt lat="45.17269" lon="2.60183">
        <ele>1019.799987793</ele>
        <time>2024-01-31T08:03:06.000Z</time>
      </trkpt>
      <trkpt lat="45.17285" lon="2.60196">
        <ele>1021</ele>
        <time>2024-01-31T08:03:08.000Z</time>
      </trkpt>
      <trkpt lat="45.17305" lon="2.60211">
        <ele>1022.4000244141</ele>
        <time>2024-01-31T08:03:10.000Z</time>
      </trkpt>
      <trkpt lat="45.17325" lon="2.60224">
        <ele>1024.1999511719</ele>
        <time>2024-01-31T08:03:12.000Z</time>
      </trkpt>
      <trkpt lat="45.17334" lon="2.6023">
        <ele>1025.1999511719</ele>
        <time>2024-01-31T08:03:13.000Z</time>
      </trkpt>
      <trkpt lat="45.17341" lon="2.60233">
        <ele>1026.4000244141</ele>
        <time>2024-01-31T08:03:14.000Z</time>
      </trkpt>
      <trkpt lat="45.17353" lon="2.60238">
        <ele>1027.1999511719</ele>
        <time>2024-01-31T08:03:15.000Z</time>
      </trkpt>
      <trkpt lat="45.17363" lon="2.60239">
        <ele>1028</ele>
        <time>2024-01-31T08:03:16.000Z</time>
      </trkpt>
      <trkpt lat="45.17372" lon="2.6024">
        <ele>1029.1999511719</ele>
        <time>2024-01-31T08:03:17.000Z</time>
      </trkpt>
      <trkpt lat="45.1738" lon="2.60242">
        <ele>1030.4000244141</ele>
        <time>2024-01-31T08:03:18.000Z</time>
      </trkpt>
      <trkpt lat="45.1739" lon="2.60244">
        <ele>1031</ele>
        <time>2024-01-31T08:03:19.000Z</time>
      </trkpt>
      <trkpt lat="45.17398" lon="2.60247">
        <ele>1031.8000488281</ele>
        <time>2024-01-31T08:03:20.000Z</time>
      </trkpt>
      <trkpt lat="45.17411" lon="2.60249">
        <ele>1032.8000488281</ele>
        <time>2024-01-31T08:03:22.000Z</time>
      </trkpt>
      <trkpt lat="45.17419" lon="2.60247">
        <ele>1033</ele>
        <time>2024-01-31T08:03:23.000Z</time>
      </trkpt>
      <trkpt lat="45.17425" lon="2.60241">
        <ele>1033.4000244141</ele>
        <time>2024-01-31T08:03:24.000Z</time>
      </trkpt>
      <trkpt lat="45.17439" lon="2.60224">
        <ele>1034.1999511719</ele>
        <time>2024-01-31T08:03:26.000Z</time>
      </trkpt>
      <trkpt lat="45.17447" lon="2.60215">
        <ele>1035.1999511719</ele>
        <time>2024-01-31T08:03:27.000Z</time>
      </trkpt>
      <trkpt lat="45.17465" lon="2.60199">
        <ele>1037</ele>
        <time>2024-01-31T08:03:29.000Z</time>
      </trkpt>
      <trkpt lat="45.17474" lon="2.6019">
        <ele>1038</ele>
        <time>2024-01-31T08:03:30.000Z</time>
      </trkpt>
      <trkpt lat="45.17481" lon="2.6018">
        <ele>1038.5999755859</ele>
        <time>2024-01-31T08:03:31.000Z</time>
      </trkpt>
      <trkpt lat="45.1749" lon="2.6017">
        <ele>1039.8000488281</ele>
        <time>2024-01-31T08:03:32.000Z</time>
      </trkpt>
      <trkpt lat="45.17509" lon="2.60154">
        <ele>1041.5999755859</ele>
        <time>2024-01-31T08:03:34.000Z</time>
      </trkpt>
      <trkpt lat="45.1753" lon="2.60141">
        <ele>1043.8000488281</ele>
        <time>2024-01-31T08:03:36.000Z</time>
      </trkpt>
      <trkpt lat="45.17541" lon="2.60135">
        <ele>1044.8000488281</ele>
        <time>2024-01-31T08:03:37.000Z</time>
      </trkpt>
      <trkpt lat="45.17563" lon="2.60123">
        <ele>1047</ele>
        <time>2024-01-31T08:03:39.000Z</time>
      </trkpt>
      <trkpt lat="45.17573" lon="2.60118">
        <ele>1048</ele>
        <time>2024-01-31T08:03:40.000Z</time>
      </trkpt>
      <trkpt lat="45.17584" lon="2.60114">
        <ele>1049.4000244141</ele>
        <time>2024-01-31T08:03:41.000Z</time>
      </trkpt>
      <trkpt lat="45.17594" lon="2.60109">
        <ele>1050.5999755859</ele>
        <time>2024-01-31T08:03:42.000Z</time>
      </trkpt>
      <trkpt lat="45.17604" lon="2.60105">
        <ele>1051.8000488281</ele>
        <time>2024-01-31T08:03:43.000Z</time>
      </trkpt>
      <trkpt lat="45.17615" lon="2.60101">
        <ele>1052.8000488281</ele>
        <time>2024-01-31T08:03:44.000Z</time>
      </trkpt>
      <trkpt lat="45.17634" lon="2.60097">
        <ele>1054.4000244141</ele>
        <time>2024-01-31T08:03:46.000Z</time>
      </trkpt>
      <trkpt lat="45.17644" lon="2.60097">
        <ele>1055.8000488281</ele>
        <time>2024-01-31T08:03:47.000Z</time>
      </trkpt>
      <trkpt lat="45.17654" lon="2.601">
        <ele>1056.4000244141</ele>
        <time>2024-01-31T08:03:48.000Z</time>
      </trkpt>
      <trkpt lat="45.17664" lon="2.60104">
        <ele>1057.4000244141</ele>
        <time>2024-01-31T08:03:49.000Z</time>
      </trkpt>
      <trkpt lat="45.17683" lon="2.60112">
        <ele>1059.4000244141</ele>
        <time>2024-01-31T08:03:51.000Z</time>
      </trkpt>
      <trkpt lat="45.17692" lon="2.60111">
        <ele>1060.4000244141</ele>
        <time>2024-01-31T08:03:52.000Z</time>
      </trkpt>
      <trkpt lat="45.17701" lon="2.60107">
        <ele>1061.4000244141</ele>
        <time>2024-01-31T08:03:53.000Z</time>
      </trkpt>
      <trkpt lat="45.1771" lon="2.60101">
        <ele>1062.5999755859</ele>
        <time>2024-01-31T08:03:54.000Z</time>
      </trkpt>
      <trkpt lat="45.1772" lon="2.60095">
        <ele>1063.4000244141</ele>
        <time>2024-01-31T08:03:55.000Z</time>
      </trkpt>
      <trkpt lat="45.17728" lon="2.60091">
        <ele>1064.5999755859</ele>
        <time>2024-01-31T08:03:56.000Z</time>
      </trkpt>
      <trkpt lat="45.17751" lon="2.6008">
        <ele>1067</ele>
        <time>2024-01-31T08:03:58.000Z</time>
      </trkpt>
      <trkpt lat="45.17763" lon="2.60076">
        <ele>1068.1999511719</ele>
        <time>2024-01-31T08:03:59.000Z</time>
      </trkpt>
      <trkpt lat="45.17774" lon="2.60073">
        <ele>1069.4000244141</ele>
        <time>2024-01-31T08:04:00.000Z</time>
      </trkpt>
      <trkpt lat="45.17797" lon="2.6007">
        <ele>1071.4000244141</ele>
        <time>2024-01-31T08:04:02.000Z</time>
      </trkpt>
      <trkpt lat="45.17809" lon="2.60069">
        <ele>1072.4000244141</ele>
        <time>2024-01-31T08:04:03.000Z</time>
      </trkpt>
      <trkpt lat="45.1782" lon="2.60066">
        <ele>1074</ele>
        <time>2024-01-31T08:04:04.000Z</time>
      </trkpt>
      <trkpt lat="45.17841" lon="2.60055">
        <ele>1076</ele>
        <time>2024-01-31T08:04:06.000Z</time>
      </trkpt>
      <trkpt lat="45.17851" lon="2.60046">
        <ele>1077.5999755859</ele>
        <time>2024-01-31T08:04:07.000Z</time>
      </trkpt>
      <trkpt lat="45.1786" lon="2.60037">
        <ele>1078.8000488281</ele>
        <time>2024-01-31T08:04:08.000Z</time>
      </trkpt>
      <trkpt lat="45.17879" lon="2.60018">
        <ele>1080.5999755859</ele>
        <time>2024-01-31T08:04:10.000Z</time>
      </trkpt>
      <trkpt lat="45.17888" lon="2.60009">
        <ele>1081.5999755859</ele>
        <time>2024-01-31T08:04:11.000Z</time>
      </trkpt>
      <trkpt lat="45.17903" lon="2.59994">
        <ele>1082.5999755859</ele>
        <time>2024-01-31T08:04:13.000Z</time>
      </trkpt>
      <trkpt lat="45.17909" lon="2.59987">
        <ele>1083.5999755859</ele>
        <time>2024-01-31T08:04:14.000Z</time>
      </trkpt>
      <trkpt lat="45.17914" lon="2.59982">
        <ele>1084.4000244141</ele>
        <time>2024-01-31T08:04:15.000Z</time>
      </trkpt>
      <trkpt lat="45.17921" lon="2.59975">
        <ele>1085.4000244141</ele>
        <time>2024-01-31T08:04:17.000Z</time>
      </trkpt>
      <trkpt lat="45.17923" lon="2.59972">
        <ele>1085.8000488281</ele>
        <time>2024-01-31T08:04:18.000Z</time>
      </trkpt>
      <trkpt lat="45.17925" lon="2.5997">
        <ele>1086.5999755859</ele>
        <time>2024-01-31T08:04:21.000Z</time>
      </trkpt>
      <trkpt lat="45.17925" lon="2.5997">
        <ele>1087</ele>
        <time>2024-01-31T08:04:24.000Z</time>
      </trkpt>
      <trkpt lat="45.17925" lon="2.5997">
        <ele>1087</ele>
        <time>2024-01-31T08:04:30.000Z</time>
      </trkpt>
      <trkpt lat="45.17932" lon="2.59964">
        <ele>1087.4000244141</ele>
        <time>2024-01-31T08:04:35.000Z</time>
      </trkpt>
      <trkpt lat="45.17944" lon="2.59954">
        <ele>1088</ele>
        <time>2024-01-31T08:04:38.000Z</time>
      </trkpt>
      <trkpt lat="45.17955" lon="2.59944">
        <ele>1089.5999755859</ele>
        <time>2024-01-31T08:04:40.000Z</time>
      </trkpt>
      <trkpt lat="45.17967" lon="2.59932">
        <ele>1091</ele>
        <time>2024-01-31T08:04:42.000Z</time>
      </trkpt>
      <trkpt lat="45.17982" lon="2.59915">
        <ele>1093</ele>
        <time>2024-01-31T08:04:44.000Z</time>
      </trkpt>
      <trkpt lat="45.18" lon="2.59896">
        <ele>1094.5999755859</ele>
        <time>2024-01-31T08:04:46.000Z</time>
      </trkpt>
      <trkpt lat="45.18018" lon="2.5988">
        <ele>1096.8000488281</ele>
        <time>2024-01-31T08:04:48.000Z</time>
      </trkpt>
      <trkpt lat="45.18028" lon="2.59873">
        <ele>1097.4000244141</ele>
        <time>2024-01-31T08:04:49.000Z</time>
      </trkpt>
      <trkpt lat="45.18036" lon="2.59868">
        <ele>1098.5999755859</ele>
        <time>2024-01-31T08:04:50.000Z</time>
      </trkpt>
      <trkpt lat="45.18047" lon="2.59862">
        <ele>1099.5999755859</ele>
        <time>2024-01-31T08:04:51.000Z</time>
      </trkpt>
      <trkpt lat="45.18068" lon="2.59853">
        <ele>1101.4000244141</ele>
        <time>2024-01-31T08:04:53.000Z</time>
      </trkpt>
      <trkpt lat="45.18078" lon="2.59849">
        <ele>1102.4000244141</ele>
        <time>2024-01-31T08:04:54.000Z</time>
      </trkpt>
      <trkpt lat="45.18088" lon="2.59845">
        <ele>1103.4000244141</ele>
        <time>2024-01-31T08:04:55.000Z</time>
      </trkpt>
      <trkpt lat="45.18109" lon="2.59838">
        <ele>1105.1999511719</ele>
        <time>2024-01-31T08:04:57.000Z</time>
      </trkpt>
      <trkpt lat="45.18131" lon="2.59831">
        <ele>1107.1999511719</ele>
        <time>2024-01-31T08:04:59.000Z</time>
      </trkpt>
      <trkpt lat="45.1815" lon="2.59829">
        <ele>1109.1999511719</ele>
        <time>2024-01-31T08:05:01.000Z</time>
      </trkpt>
      <trkpt lat="45.18173" lon="2.59828">
        <ele>1111.5999755859</ele>
        <time>2024-01-31T08:05:03.000Z</time>
      </trkpt>
      <trkpt lat="45.18193" lon="2.59831">
        <ele>1113.8000488281</ele>
        <time>2024-01-31T08:05:05.000Z</time>
      </trkpt>
      <trkpt lat="45.18203" lon="2.59833">
        <ele>1114.5999755859</ele>
        <time>2024-01-31T08:05:06.000Z</time>
      </trkpt>
      <trkpt lat="45.18216" lon="2.59835">
        <ele>1115.8000488281</ele>
        <time>2024-01-31T08:05:07.000Z</time>
      </trkpt>
      <trkpt lat="45.18236" lon="2.59837">
        <ele>1117.4000244141</ele>
        <time>2024-01-31T08:05:09.000Z</time>
      </trkpt>
      <trkpt lat="45.18246" lon="2.59838">
        <ele>1118.5999755859</ele>
        <time>2024-01-31T08:05:10.000Z</time>
      </trkpt>
      <trkpt lat="45.18257" lon="2.59841">
        <ele>1119.5999755859</ele>
        <time>2024-01-31T08:05:11.000Z</time>
      </trkpt>
      <trkpt lat="45.18268" lon="2.59846">
        <ele>1120.8000488281</ele>
        <time>2024-01-31T08:05:12.000Z</time>
      </trkpt>
      <trkpt lat="45.18286" lon="2.59861">
        <ele>1122.5999755859</ele>
        <time>2024-01-31T08:05:14.000Z</time>
      </trkpt>
      <trkpt lat="45.18302" lon="2.59881">
        <ele>1124</ele>
        <time>2024-01-31T08:05:16.000Z</time>
      </trkpt>
      <trkpt lat="45.18309" lon="2.59893">
        <ele>1125.1999511719</ele>
        <time>2024-01-31T08:05:17.000Z</time>
      </trkpt>
      <trkpt lat="45.18317" lon="2.59904">
        <ele>1126.4000244141</ele>
        <time>2024-01-31T08:05:18.000Z</time>
      </trkpt>
      <trkpt lat="45.18324" lon="2.59915">
        <ele>1127.5999755859</ele>
        <time>2024-01-31T08:05:19.000Z</time>
      </trkpt>
      <trkpt lat="45.18336" lon="2.59937">
        <ele>1129.8000488281</ele>
        <time>2024-01-31T08:05:21.000Z</time>
      </trkpt>
      <trkpt lat="45.1834" lon="2.5995">
        <ele>1131</ele>
        <time>2024-01-31T08:05:22.000Z</time>
      </trkpt>
      <trkpt lat="45.18342" lon="2.59964">
        <ele>1132</ele>
        <time>2024-01-31T08:05:23.000Z</time>
      </trkpt>
      <trkpt lat="45.18345" lon="2.5999">
        <ele>1134.8000488281</ele>
        <time>2024-01-31T08:05:25.000Z</time>
      </trkpt>
      <trkpt lat="45.18349" lon="2.60012">
        <ele>1136.4000244141</ele>
        <time>2024-01-31T08:05:27.000Z</time>
      </trkpt>
      <trkpt lat="45.18352" lon="2.60021">
        <ele>1137</ele>
        <time>2024-01-31T08:05:28.000Z</time>
      </trkpt>
      <trkpt lat="45.18356" lon="2.60027">
        <ele>1137.4000244141</ele>
        <time>2024-01-31T08:05:29.000Z</time>
      </trkpt>
      <trkpt lat="45.18367" lon="2.60033">
        <ele>1138.1999511719</ele>
        <time>2024-01-31T08:05:30.000Z</time>
      </trkpt>
      <trkpt lat="45.18376" lon="2.60036">
        <ele>1138.5999755859</ele>
        <time>2024-01-31T08:05:31.000Z</time>
      </trkpt>
      <trkpt lat="45.18386" lon="2.60037">
        <ele>1139.1999511719</ele>
        <time>2024-01-31T08:05:32.000Z</time>
      </trkpt>
      <trkpt lat="45.18397" lon="2.60035">
        <ele>1139.8000488281</ele>
        <time>2024-01-31T08:05:33.000Z</time>
      </trkpt>
      <trkpt lat="45.18419" lon="2.60025">
        <ele>1141.5999755859</ele>
        <time>2024-01-31T08:05:35.000Z</time>
      </trkpt>
      <trkpt lat="45.18431" lon="2.6002">
        <ele>1143</ele>
        <time>2024-01-31T08:05:36.000Z</time>
      </trkpt>
      <trkpt lat="45.18442" lon="2.60015">
        <ele>1144.1999511719</ele>
        <time>2024-01-31T08:05:37.000Z</time>
      </trkpt>
      <trkpt lat="45.18454" lon="2.60009">
        <ele>1145.5999755859</ele>
        <time>2024-01-31T08:05:38.000Z</time>
      </trkpt>
      <trkpt lat="45.18466" lon="2.60003">
        <ele>1146.5999755859</ele>
        <time>2024-01-31T08:05:39.000Z</time>
      </trkpt>
      <trkpt lat="45.18477" lon="2.59995">
        <ele>1148</ele>
        <time>2024-01-31T08:05:40.000Z</time>
      </trkpt>
      <trkpt lat="45.18488" lon="2.59985">
        <ele>1148.8000488281</ele>
        <time>2024-01-31T08:05:41.000Z</time>
      </trkpt>
      <trkpt lat="45.18498" lon="2.59975">
        <ele>1150</ele>
        <time>2024-01-31T08:05:42.000Z</time>
      </trkpt>
      <trkpt lat="45.18509" lon="2.59965">
        <ele>1151.1999511719</ele>
        <time>2024-01-31T08:05:43.000Z</time>
      </trkpt>
      <trkpt lat="45.18527" lon="2.59942">
        <ele>1152.5999755859</ele>
        <time>2024-01-31T08:05:45.000Z</time>
      </trkpt>
      <trkpt lat="45.18535" lon="2.59928">
        <ele>1154</ele>
        <time>2024-01-31T08:05:46.000Z</time>
      </trkpt>
      <trkpt lat="45.18549" lon="2.59899">
        <ele>1155.8000488281</ele>
        <time>2024-01-31T08:05:48.000Z</time>
      </trkpt>
      <trkpt lat="45.18566" lon="2.59871">
        <ele>1158</ele>
        <time>2024-01-31T08:05:50.000Z</time>
      </trkpt>
      <trkpt lat="45.18584" lon="2.5984">
        <ele>1160.1999511719</ele>
        <time>2024-01-31T08:05:52.000Z</time>
      </trkpt>
      <trkpt lat="45.18595" lon="2.59811">
        <ele>1161.5999755859</ele>
        <time>2024-01-31T08:05:54.000Z</time>
      </trkpt>
      <trkpt lat="45.18603" lon="2.59779">
        <ele>1162.8000488281</ele>
        <time>2024-01-31T08:05:56.000Z</time>
      </trkpt>
      <trkpt lat="45.18606" lon="2.59762">
        <ele>1164.1999511719</ele>
        <time>2024-01-31T08:05:57.000Z</time>
      </trkpt>
      <trkpt lat="45.18607" lon="2.59746">
        <ele>1165.1999511719</ele>
        <time>2024-01-31T08:05:58.000Z</time>
      </trkpt>
      <trkpt lat="45.18608" lon="2.59729">
        <ele>1166</ele>
        <time>2024-01-31T08:05:59.000Z</time>
      </trkpt>
      <trkpt lat="45.18609" lon="2.59697">
        <ele>1168.1999511719</ele>
        <time>2024-01-31T08:06:01.000Z</time>
      </trkpt>
      <trkpt lat="45.18613" lon="2.59665">
        <ele>1169.5999755859</ele>
        <time>2024-01-31T08:06:03.000Z</time>
      </trkpt>
      <trkpt lat="45.1862" lon="2.59632">
        <ele>1171.1999511719</ele>
        <time>2024-01-31T08:06:05.000Z</time>
      </trkpt>
      <trkpt lat="45.18627" lon="2.59601">
        <ele>1172.4000244141</ele>
        <time>2024-01-31T08:06:07.000Z</time>
      </trkpt>
      <trkpt lat="45.1863" lon="2.59585">
        <ele>1173.5999755859</ele>
        <time>2024-01-31T08:06:08.000Z</time>
      </trkpt>
      <trkpt lat="45.18632" lon="2.59569">
        <ele>1174.1999511719</ele>
        <time>2024-01-31T08:06:09.000Z</time>
      </trkpt>
      <trkpt lat="45.18632" lon="2.59554">
        <ele>1175</ele>
        <time>2024-01-31T08:06:10.000Z</time>
      </trkpt>
      <trkpt lat="45.18633" lon="2.59525">
        <ele>1176.5999755859</ele>
        <time>2024-01-31T08:06:12.000Z</time>
      </trkpt>
      <trkpt lat="45.18634" lon="2.59513">
        <ele>1177.4000244141</ele>
        <time>2024-01-31T08:06:13.000Z</time>
      </trkpt>
      <trkpt lat="45.18635" lon="2.59502">
        <ele>1178.4000244141</ele>
        <time>2024-01-31T08:06:14.000Z</time>
      </trkpt>
      <trkpt lat="45.1864" lon="2.59484">
        <ele>1179.4000244141</ele>
        <time>2024-01-31T08:06:16.000Z</time>
      </trkpt>
      <trkpt lat="45.18648" lon="2.59465">
        <ele>1180.8000488281</ele>
        <time>2024-01-31T08:06:18.000Z</time>
      </trkpt>
      <trkpt lat="45.1866" lon="2.59447">
        <ele>1182.1999511719</ele>
        <time>2024-01-31T08:06:20.000Z</time>
      </trkpt>
      <trkpt lat="45.18677" lon="2.59432">
        <ele>1183.8000488281</ele>
        <time>2024-01-31T08:06:22.000Z</time>
      </trkpt>
      <trkpt lat="45.18687" lon="2.59425">
        <ele>1184</ele>
        <time>2024-01-31T08:06:23.000Z</time>
      </trkpt>
      <trkpt lat="45.18696" lon="2.5942">
        <ele>1185</ele>
        <time>2024-01-31T08:06:24.000Z</time>
      </trkpt>
      <trkpt lat="45.18707" lon="2.59414">
        <ele>1186.1999511719</ele>
        <time>2024-01-31T08:06:25.000Z</time>
      </trkpt>
      <trkpt lat="45.18717" lon="2.59409">
        <ele>1187.4000244141</ele>
        <time>2024-01-31T08:06:26.000Z</time>
      </trkpt>
      <trkpt lat="45.18726" lon="2.59402">
        <ele>1188.1999511719</ele>
        <time>2024-01-31T08:06:27.000Z</time>
      </trkpt>
      <trkpt lat="45.18735" lon="2.59394">
        <ele>1189.1999511719</ele>
        <time>2024-01-31T08:06:28.000Z</time>
      </trkpt>
      <trkpt lat="45.18742" lon="2.59383">
        <ele>1190.4000244141</ele>
        <time>2024-01-31T08:06:29.000Z</time>
      </trkpt>
      <trkpt lat="45.18749" lon="2.59372">
        <ele>1191.5999755859</ele>
        <time>2024-01-31T08:06:30.000Z</time>
      </trkpt>
      <trkpt lat="45.18765" lon="2.59352">
        <ele>1193.5999755859</ele>
        <time>2024-01-31T08:06:32.000Z</time>
      </trkpt>
      <trkpt lat="45.18784" lon="2.59335">
        <ele>1195.5999755859</ele>
        <time>2024-01-31T08:06:34.000Z</time>
      </trkpt>
      <trkpt lat="45.18794" lon="2.59327">
        <ele>1197</ele>
        <time>2024-01-31T08:06:35.000Z</time>
      </trkpt>
      <trkpt lat="45.18803" lon="2.59321">
        <ele>1198</ele>
        <time>2024-01-31T08:06:36.000Z</time>
      </trkpt>
      <trkpt lat="45.18813" lon="2.59315">
        <ele>1199</ele>
        <time>2024-01-31T08:06:37.000Z</time>
      </trkpt>
      <trkpt lat="45.18832" lon="2.59306">
        <ele>1201.4000244141</ele>
        <time>2024-01-31T08:06:39.000Z</time>
      </trkpt>
      <trkpt lat="45.18852" lon="2.59293">
        <ele>1203</ele>
        <time>2024-01-31T08:06:41.000Z</time>
      </trkpt>
      <trkpt lat="45.18868" lon="2.59274">
        <ele>1205</ele>
        <time>2024-01-31T08:06:43.000Z</time>
      </trkpt>
      <trkpt lat="45.18883" lon="2.59253">
        <ele>1206.1999511719</ele>
        <time>2024-01-31T08:06:45.000Z</time>
      </trkpt>
      <trkpt lat="45.18892" lon="2.59244">
        <ele>1206.5999755859</ele>
        <time>2024-01-31T08:06:46.000Z</time>
      </trkpt>
      <trkpt lat="45.18902" lon="2.59238">
        <ele>1207.1999511719</ele>
        <time>2024-01-31T08:06:47.000Z</time>
      </trkpt>
      <trkpt lat="45.18912" lon="2.59233">
        <ele>1207.5999755859</ele>
        <time>2024-01-31T08:06:48.000Z</time>
      </trkpt>
      <trkpt lat="45.18935" lon="2.59229">
        <ele>1208.1999511719</ele>
        <time>2024-01-31T08:06:50.000Z</time>
      </trkpt>
      <trkpt lat="45.18957" lon="2.59228">
        <ele>1209</ele>
        <time>2024-01-31T08:06:52.000Z</time>
      </trkpt>
      <trkpt lat="45.18978" lon="2.59226">
        <ele>1209.4000244141</ele>
        <time>2024-01-31T08:06:54.000Z</time>
      </trkpt>
      <trkpt lat="45.18996" lon="2.59215">
        <ele>1210.4000244141</ele>
        <time>2024-01-31T08:06:56.000Z</time>
      </trkpt>
      <trkpt lat="45.19002" lon="2.59205">
        <ele>1211</ele>
        <time>2024-01-31T08:06:57.000Z</time>
      </trkpt>
      <trkpt lat="45.19015" lon="2.59181">
        <ele>1212.5999755859</ele>
        <time>2024-01-31T08:06:59.000Z</time>
      </trkpt>
      <trkpt lat="45.1903" lon="2.59155">
        <ele>1214.5999755859</ele>
        <time>2024-01-31T08:07:01.000Z</time>
      </trkpt>
      <trkpt lat="45.19045" lon="2.59133">
        <ele>1216.1999511719</ele>
        <time>2024-01-31T08:07:03.000Z</time>
      </trkpt>
      <trkpt lat="45.19054" lon="2.59124">
        <ele>1217</ele>
        <time>2024-01-31T08:07:04.000Z</time>
      </trkpt>
      <trkpt lat="45.19062" lon="2.59118">
        <ele>1217.8000488281</ele>
        <time>2024-01-31T08:07:05.000Z</time>
      </trkpt>
      <trkpt lat="45.19071" lon="2.59111">
        <ele>1218.4000244141</ele>
        <time>2024-01-31T08:07:06.000Z</time>
      </trkpt>
      <trkpt lat="45.19078" lon="2.59103">
        <ele>1218.8000488281</ele>
        <time>2024-01-31T08:07:07.000Z</time>
      </trkpt>
      <trkpt lat="45.19085" lon="2.59094">
        <ele>1220.4000244141</ele>
        <time>2024-01-31T08:07:08.000Z</time>
      </trkpt>
      <trkpt lat="45.19094" lon="2.59074">
        <ele>1221.5999755859</ele>
        <time>2024-01-31T08:07:10.000Z</time>
      </trkpt>
      <trkpt lat="45.19103" lon="2.59055">
        <ele>1222.5999755859</ele>
        <time>2024-01-31T08:07:12.000Z</time>
      </trkpt>
      <trkpt lat="45.19111" lon="2.59037">
        <ele>1223.8000488281</ele>
        <time>2024-01-31T08:07:14.000Z</time>
      </trkpt>
      <trkpt lat="45.19126" lon="2.59005">
        <ele>1225</ele>
        <time>2024-01-31T08:07:18.000Z</time>
      </trkpt>
      <trkpt lat="45.19147" lon="2.58966">
        <ele>1226</ele>
        <time>2024-01-31T08:07:24.000Z</time>
      </trkpt>
      <trkpt lat="45.19169" lon="2.58931">
        <ele>1226</ele>
        <time>2024-01-31T08:07:31.000Z</time>
      </trkpt>
      <trkpt lat="45.19179" lon="2.58918">
        <ele>1225.4000244141</ele>
        <time>2024-01-31T08:07:35.000Z</time>
      </trkpt>
      <trkpt lat="45.1919" lon="2.58907">
        <ele>1225</ele>
        <time>2024-01-31T08:07:39.000Z</time>
      </trkpt>
      <trkpt lat="45.19193" lon="2.58906">
        <ele>1224.8000488281</ele>
        <time>2024-01-31T08:07:40.000Z</time>
      </trkpt>
      <trkpt lat="45.19201" lon="2.58903">
        <ele>1223.8000488281</ele>
        <time>2024-01-31T08:07:43.000Z</time>
      </trkpt>
      <trkpt lat="45.19202" lon="2.58901">
        <ele>1223.8000488281</ele>
        <time>2024-01-31T08:07:44.000Z</time>
      </trkpt>
      <trkpt lat="45.19203" lon="2.58898">
        <ele>1223.4000244141</ele>
        <time>2024-01-31T08:07:45.000Z</time>
      </trkpt>
      <trkpt lat="45.19202" lon="2.58894">
        <ele>1223</ele>
        <time>2024-01-31T08:07:48.000Z</time>
      </trkpt>
      <trkpt lat="45.19201" lon="2.58892">
        <ele>1223</ele>
        <time>2024-01-31T08:07:49.000Z</time>
      </trkpt>
      <trkpt lat="45.19196" lon="2.5889">
        <ele>1222.8000488281</ele>
        <time>2024-01-31T08:07:51.000Z</time>
      </trkpt>
      <trkpt lat="45.19194" lon="2.58891">
        <ele>1223</ele>
        <time>2024-01-31T08:07:52.000Z</time>
      </trkpt>
      <trkpt lat="45.19184" lon="2.58907">
        <ele>1223.8000488281</ele>
        <time>2024-01-31T08:07:57.000Z</time>
      </trkpt>
      <trkpt lat="45.19172" lon="2.58926">
        <ele>1225</ele>
        <time>2024-01-31T08:08:01.000Z</time>
      </trkpt>
      <trkpt lat="45.19168" lon="2.58931">
        <ele>1225.4000244141</ele>
        <time>2024-01-31T08:08:02.000Z</time>
      </trkpt>
      <trkpt lat="45.19155" lon="2.58951">
        <ele>1225.5999755859</ele>
        <time>2024-01-31T08:08:07.000Z</time>
      </trkpt>
      <trkpt lat="45.19133" lon="2.58983">
        <ele>1225.1999511719</ele>
        <time>2024-01-31T08:08:15.000Z</time>
      </trkpt>
      <trkpt lat="45.1913" lon="2.58988">
        <ele>1224.8000488281</ele>
        <time>2024-01-31T08:08:19.000Z</time>
      </trkpt>
      <trkpt lat="45.19129" lon="2.58989">
        <ele>1224.8000488281</ele>
        <time>2024-01-31T08:08:28.000Z</time>
      </trkpt>
      <trkpt lat="45.19124" lon="2.59">
        <ele>1224.8000488281</ele>
        <time>2024-01-31T08:08:33.000Z</time>
      </trkpt>
      <trkpt lat="45.19113" lon="2.59025">
        <ele>1224</ele>
        <time>2024-01-31T08:08:40.000Z</time>
      </trkpt>
      <trkpt lat="45.19114" lon="2.59036">
        <ele>1223.4000244141</ele>
        <time>2024-01-31T08:08:44.000Z</time>
      </trkpt>
      <trkpt lat="45.19115" lon="2.59037">
        <ele>1223.1999511719</ele>
        <time>2024-01-31T08:08:48.000Z</time>
      </trkpt>
      <trkpt lat="45.19112" lon="2.59032">
        <ele>1223.4000244141</ele>
        <time>2024-01-31T08:08:55.000Z</time>
      </trkpt>
      <trkpt lat="45.19113" lon="2.59032">
        <ele>1223.4000244141</ele>
        <time>2024-01-31T08:08:58.000Z</time>
      </trkpt>
      <trkpt lat="45.19117" lon="2.59029">
        <ele>1223.4000244141</ele>
        <time>2024-01-31T08:09:00.000Z</time>
      </trkpt>
      <trkpt lat="45.19121" lon="2.59015">
        <ele>1223.5999755859</ele>
        <time>2024-01-31T08:09:06.000Z</time>
      </trkpt>
      <trkpt lat="45.19128" lon="2.58992">
        <ele>1224.4000244141</ele>
        <time>2024-01-31T08:09:12.000Z</time>
      </trkpt>
      <trkpt lat="45.19144" lon="2.58963">
        <ele>1225</ele>
        <time>2024-01-31T08:09:17.000Z</time>
      </trkpt>
      <trkpt lat="45.19168" lon="2.5893">
        <ele>1224.8000488281</ele>
        <time>2024-01-31T08:09:24.000Z</time>
      </trkpt>
      <trkpt lat="45.1918" lon="2.58916">
        <ele>1224</ele>
        <time>2024-01-31T08:09:29.000Z</time>
      </trkpt>
      <trkpt lat="45.1918" lon="2.58916">
        <ele>1224</ele>
        <time>2024-01-31T08:09:31.000Z</time>
      </trkpt>
      <trkpt lat="45.1918" lon="2.58916">
        <ele>1224</ele>
        <time>2024-01-31T08:09:34.000Z</time>
      </trkpt>
      <trkpt lat="45.1918" lon="2.58916">
        <ele>1223.8000488281</ele>
        <time>2024-01-31T08:09:44.000Z</time>
      </trkpt>
      <trkpt lat="45.1918" lon="2.58916">
        <ele>1223.5999755859</ele>
        <time>2024-01-31T08:10:02.000Z</time>
      </trkpt>
      <trkpt lat="45.1918" lon="2.58916">
        <ele>1223.5999755859</ele>
        <time>2024-01-31T08:10:13.000Z</time>
      </trkpt>
      <trkpt lat="45.1918" lon="2.58916">
        <ele>1223.5999755859</ele>
        <time>2024-01-31T08:10:34.000Z</time>
      </trkpt>
      <trkpt lat="45.1918" lon="2.58916">
        <ele>1223.5999755859</ele>
        <time>2024-01-31T08:10:51.000Z</time>
      </trkpt>
      <trkpt lat="45.1918" lon="2.58916">
        <ele>1223.5999755859</ele>
        <time>2024-01-31T08:11:04.000Z</time>
      </trkpt>
      <trkpt lat="45.1918" lon="2.58916">
        <ele>1223.5999755859</ele>
        <time>2024-01-31T08:11:18.000Z</time>
      </trkpt>
      <trkpt lat="45.1918" lon="2.58916">
        <ele>1223.5999755859</ele>
        <time>2024-01-31T08:11:30.000Z</time>
      </trkpt>
      <trkpt lat="45.1918" lon="2.58916">
        <ele>1223.5999755859</ele>
        <time>2024-01-31T08:11:49.000Z</time>
      </trkpt>
      <trkpt lat="45.1918" lon="2.58916">
        <ele>1223.5999755859</ele>
        <time>2024-01-31T08:12:03.000Z</time>
      </trkpt>
      <trkpt lat="45.1918" lon="2.58916">
        <ele>1223.5999755859</ele>
        <time>2024-01-31T08:12:22.000Z</time>
      </trkpt>
      <trkpt lat="45.1918" lon="2.58916">
        <ele>1223.5999755859</ele>
        <time>2024-01-31T08:12:38.000Z</time>
      </trkpt>
      <trkpt lat="45.19185" lon="2.5891">
        <ele>1223.8000488281</ele>
        <time>2024-01-31T08:12:48.000Z</time>
      </trkpt>
      <trkpt lat="45.19196" lon="2.58893">
        <ele>1223</ele>
        <time>2024-01-31T08:12:52.000Z</time>
      </trkpt>
      <trkpt lat="45.19211" lon="2.58867">
        <ele>1221.5999755859</ele>
        <time>2024-01-31T08:12:56.000Z</time>
      </trkpt>
      <trkpt lat="45.19215" lon="2.58859">
        <ele>1221.1999511719</ele>
        <time>2024-01-31T08:12:57.000Z</time>
      </trkpt>
      <trkpt lat="45.1922" lon="2.58852">
        <ele>1220.4000244141</ele>
        <time>2024-01-31T08:12:58.000Z</time>
      </trkpt>
      <trkpt lat="45.1923" lon="2.58834">
        <ele>1219.4000244141</ele>
        <time>2024-01-31T08:13:00.000Z</time>
      </trkpt>
      <trkpt lat="45.19241" lon="2.58816">
        <ele>1218.8000488281</ele>
        <time>2024-01-31T08:13:02.000Z</time>
      </trkpt>
      <trkpt lat="45.19247" lon="2.58807">
        <ele>1218</ele>
        <time>2024-01-31T08:13:03.000Z</time>
      </trkpt>
      <trkpt lat="45.19264" lon="2.58777">
        <ele>1216.8000488281</ele>
        <time>2024-01-31T08:13:06.000Z</time>
      </trkpt>
      <trkpt lat="45.19276" lon="2.58758">
        <ele>1215.5999755859</ele>
        <time>2024-01-31T08:13:08.000Z</time>
      </trkpt>
      <trkpt lat="45.19282" lon="2.58748">
        <ele>1215</ele>
        <time>2024-01-31T08:13:09.000Z</time>
      </trkpt>
      <trkpt lat="45.19292" lon="2.58729">
        <ele>1214.1999511719</ele>
        <time>2024-01-31T08:13:11.000Z</time>
      </trkpt>
      <trkpt lat="45.19307" lon="2.58703">
        <ele>1213</ele>
        <time>2024-01-31T08:13:14.000Z</time>
      </trkpt>
      <trkpt lat="45.19312" lon="2.58695">
        <ele>1212.5999755859</ele>
        <time>2024-01-31T08:13:15.000Z</time>
      </trkpt>
      <trkpt lat="45.19329" lon="2.58667">
        <ele>1211.8000488281</ele>
        <time>2024-01-31T08:13:19.000Z</time>
      </trkpt>
      <trkpt lat="45.19337" lon="2.58654">
        <ele>1211.1999511719</ele>
        <time>2024-01-31T08:13:21.000Z</time>
      </trkpt>
      <trkpt lat="45.19345" lon="2.58641">
        <ele>1210.8000488281</ele>
        <time>2024-01-31T08:13:23.000Z</time>
      </trkpt>
      <trkpt lat="45.19362" lon="2.58612">
        <ele>1209.5999755859</ele>
        <time>2024-01-31T08:13:28.000Z</time>
      </trkpt>
      <trkpt lat="45.1938" lon="2.5859">
        <ele>1208.8000488281</ele>
        <time>2024-01-31T08:13:33.000Z</time>
      </trkpt>
      <trkpt lat="45.19384" lon="2.58586">
        <ele>1208.8000488281</ele>
        <time>2024-01-31T08:13:34.000Z</time>
      </trkpt>
      <trkpt lat="45.1939" lon="2.58583">
        <ele>1208.8000488281</ele>
        <time>2024-01-31T08:13:35.000Z</time>
      </trkpt>
      <trkpt lat="45.19404" lon="2.58578">
        <ele>1208.5999755859</ele>
        <time>2024-01-31T08:13:37.000Z</time>
      </trkpt>
      <trkpt lat="45.19412" lon="2.58575">
        <ele>1208.4000244141</ele>
        <time>2024-01-31T08:13:38.000Z</time>
      </trkpt>
      <trkpt lat="45.1945" lon="2.5857">
        <ele>1207.8000488281</ele>
        <time>2024-01-31T08:13:42.000Z</time>
      </trkpt>
      <trkpt lat="45.1946" lon="2.58568">
        <ele>1207.5999755859</ele>
        <time>2024-01-31T08:13:43.000Z</time>
      </trkpt>
      <trkpt lat="45.19481" lon="2.58561">
        <ele>1207</ele>
        <time>2024-01-31T08:13:45.000Z</time>
      </trkpt>
      <trkpt lat="45.19491" lon="2.58555">
        <ele>1206.5999755859</ele>
        <time>2024-01-31T08:13:46.000Z</time>
      </trkpt>
      <trkpt lat="45.19501" lon="2.58549">
        <ele>1206.4000244141</ele>
        <time>2024-01-31T08:13:47.000Z</time>
      </trkpt>
      <trkpt lat="45.19543" lon="2.58522">
        <ele>1205.8000488281</ele>
        <time>2024-01-31T08:13:51.000Z</time>
      </trkpt>
      <trkpt lat="45.19566" lon="2.58517">
        <ele>1205.5999755859</ele>
        <time>2024-01-31T08:13:53.000Z</time>
      </trkpt>
      <trkpt lat="45.19577" lon="2.58517">
        <ele>1205.4000244141</ele>
        <time>2024-01-31T08:13:54.000Z</time>
      </trkpt>
      <trkpt lat="45.19588" lon="2.58516">
        <ele>1205</ele>
        <time>2024-01-31T08:13:55.000Z</time>
      </trkpt>
      <trkpt lat="45.19611" lon="2.5851">
        <ele>1204.1999511719</ele>
        <time>2024-01-31T08:13:57.000Z</time>
      </trkpt>
      <trkpt lat="45.19635" lon="2.58497">
        <ele>1202.5999755859</ele>
        <time>2024-01-31T08:13:59.000Z</time>
      </trkpt>
      <trkpt lat="45.1966" lon="2.58484">
        <ele>1201.5999755859</ele>
        <time>2024-01-31T08:14:01.000Z</time>
      </trkpt>
      <trkpt lat="45.19673" lon="2.58479">
        <ele>1201.4000244141</ele>
        <time>2024-01-31T08:14:02.000Z</time>
      </trkpt>
      <trkpt lat="45.19701" lon="2.5847">
        <ele>1200.4000244141</ele>
        <time>2024-01-31T08:14:04.000Z</time>
      </trkpt>
      <trkpt lat="45.19729" lon="2.58463">
        <ele>1199</ele>
        <time>2024-01-31T08:14:06.000Z</time>
      </trkpt>
      <trkpt lat="45.19756" lon="2.5846">
        <ele>1197.8000488281</ele>
        <time>2024-01-31T08:14:08.000Z</time>
      </trkpt>
      <trkpt lat="45.19783" lon="2.58457">
        <ele>1196.4000244141</ele>
        <time>2024-01-31T08:14:10.000Z</time>
      </trkpt>
      <trkpt lat="45.19812" lon="2.58453">
        <ele>1194.8000488281</ele>
        <time>2024-01-31T08:14:12.000Z</time>
      </trkpt>
      <trkpt lat="45.1984" lon="2.58445">
        <ele>1193.1999511719</ele>
        <time>2024-01-31T08:14:14.000Z</time>
      </trkpt>
      <trkpt lat="45.19867" lon="2.58435">
        <ele>1192</ele>
        <time>2024-01-31T08:14:16.000Z</time>
      </trkpt>
      <trkpt lat="45.1988" lon="2.58431">
        <ele>1191.1999511719</ele>
        <time>2024-01-31T08:14:17.000Z</time>
      </trkpt>
      <trkpt lat="45.19894" lon="2.58427">
        <ele>1190.5999755859</ele>
        <time>2024-01-31T08:14:18.000Z</time>
      </trkpt>
      <trkpt lat="45.19923" lon="2.58422">
        <ele>1188.8000488281</ele>
        <time>2024-01-31T08:14:20.000Z</time>
      </trkpt>
      <trkpt lat="45.19951" lon="2.58422">
        <ele>1187.1999511719</ele>
        <time>2024-01-31T08:14:22.000Z</time>
      </trkpt>
      <trkpt lat="45.19978" lon="2.58426">
        <ele>1185.1999511719</ele>
        <time>2024-01-31T08:14:24.000Z</time>
      </trkpt>
      <trkpt lat="45.20004" lon="2.58434">
        <ele>1183.5999755859</ele>
        <time>2024-01-31T08:14:26.000Z</time>
      </trkpt>
      <trkpt lat="45.20017" lon="2.58439">
        <ele>1182.8000488281</ele>
        <time>2024-01-31T08:14:27.000Z</time>
      </trkpt>
      <trkpt lat="45.2003" lon="2.58446">
        <ele>1182.1999511719</ele>
        <time>2024-01-31T08:14:28.000Z</time>
      </trkpt>
      <trkpt lat="45.20042" lon="2.58454">
        <ele>1181.4000244141</ele>
        <time>2024-01-31T08:14:29.000Z</time>
      </trkpt>
      <trkpt lat="45.20054" lon="2.58464">
        <ele>1180.1999511719</ele>
        <time>2024-01-31T08:14:30.000Z</time>
      </trkpt>
      <trkpt lat="45.20075" lon="2.58486">
        <ele>1178.5999755859</ele>
        <time>2024-01-31T08:14:32.000Z</time>
      </trkpt>
      <trkpt lat="45.20097" lon="2.58509">
        <ele>1177</ele>
        <time>2024-01-31T08:14:34.000Z</time>
      </trkpt>
      <trkpt lat="45.20122" lon="2.5853">
        <ele>1174.8000488281</ele>
        <time>2024-01-31T08:14:36.000Z</time>
      </trkpt>
      <trkpt lat="45.20146" lon="2.58551">
        <ele>1173.5999755859</ele>
        <time>2024-01-31T08:14:38.000Z</time>
      </trkpt>
      <trkpt lat="45.20157" lon="2.58564">
        <ele>1172.8000488281</ele>
        <time>2024-01-31T08:14:39.000Z</time>
      </trkpt>
      <trkpt lat="45.20167" lon="2.58577">
        <ele>1172</ele>
        <time>2024-01-31T08:14:40.000Z</time>
      </trkpt>
      <trkpt lat="45.20176" lon="2.58591">
        <ele>1171</ele>
        <time>2024-01-31T08:14:41.000Z</time>
      </trkpt>
      <trkpt lat="45.20192" lon="2.5862">
        <ele>1169</ele>
        <time>2024-01-31T08:14:43.000Z</time>
      </trkpt>
      <trkpt lat="45.202" lon="2.58634">
        <ele>1168</ele>
        <time>2024-01-31T08:14:44.000Z</time>
      </trkpt>
      <trkpt lat="45.20207" lon="2.58648">
        <ele>1166.5999755859</ele>
        <time>2024-01-31T08:14:45.000Z</time>
      </trkpt>
      <trkpt lat="45.20213" lon="2.58676">
        <ele>1166</ele>
        <time>2024-01-31T08:14:47.000Z</time>
      </trkpt>
      <trkpt lat="45.20215" lon="2.5869">
        <ele>1165.1999511719</ele>
        <time>2024-01-31T08:14:48.000Z</time>
      </trkpt>
      <trkpt lat="45.20218" lon="2.58702">
        <ele>1164.4000244141</ele>
        <time>2024-01-31T08:14:49.000Z</time>
      </trkpt>
      <trkpt lat="45.20222" lon="2.58713">
        <ele>1163.5999755859</ele>
        <time>2024-01-31T08:14:50.000Z</time>
      </trkpt>
      <trkpt lat="45.20229" lon="2.58721">
        <ele>1163</ele>
        <time>2024-01-31T08:14:51.000Z</time>
      </trkpt>
      <trkpt lat="45.20237" lon="2.58729">
        <ele>1162.4000244141</ele>
        <time>2024-01-31T08:14:52.000Z</time>
      </trkpt>
      <trkpt lat="45.20246" lon="2.58735">
        <ele>1161.5999755859</ele>
        <time>2024-01-31T08:14:53.000Z</time>
      </trkpt>
      <trkpt lat="45.20254" lon="2.58743">
        <ele>1161.1999511719</ele>
        <time>2024-01-31T08:14:54.000Z</time>
      </trkpt>
      <trkpt lat="45.20271" lon="2.58764">
        <ele>1159.8000488281</ele>
        <time>2024-01-31T08:14:56.000Z</time>
      </trkpt>
      <trkpt lat="45.20289" lon="2.58787">
        <ele>1158.4000244141</ele>
        <time>2024-01-31T08:14:58.000Z</time>
      </trkpt>
      <trkpt lat="45.20299" lon="2.58797">
        <ele>1157.4000244141</ele>
        <time>2024-01-31T08:14:59.000Z</time>
      </trkpt>
      <trkpt lat="45.20318" lon="2.58815">
        <ele>1156</ele>
        <time>2024-01-31T08:15:01.000Z</time>
      </trkpt>
      <trkpt lat="45.20326" lon="2.58824">
        <ele>1154.8000488281</ele>
        <time>2024-01-31T08:15:02.000Z</time>
      </trkpt>
      <trkpt lat="45.20333" lon="2.58835">
        <ele>1154</ele>
        <time>2024-01-31T08:15:03.000Z</time>
      </trkpt>
      <trkpt lat="45.20339" lon="2.58847">
        <ele>1153.1999511719</ele>
        <time>2024-01-31T08:15:04.000Z</time>
      </trkpt>
      <trkpt lat="45.20348" lon="2.58877">
        <ele>1151.8000488281</ele>
        <time>2024-01-31T08:15:06.000Z</time>
      </trkpt>
      <trkpt lat="45.20355" lon="2.58909">
        <ele>1150.1999511719</ele>
        <time>2024-01-31T08:15:08.000Z</time>
      </trkpt>
      <trkpt lat="45.20362" lon="2.58943">
        <ele>1148.4000244141</ele>
        <time>2024-01-31T08:15:10.000Z</time>
      </trkpt>
      <trkpt lat="45.20366" lon="2.58961">
        <ele>1147.1999511719</ele>
        <time>2024-01-31T08:15:11.000Z</time>
      </trkpt>
      <trkpt lat="45.2037" lon="2.58977">
        <ele>1147</ele>
        <time>2024-01-31T08:15:12.000Z</time>
      </trkpt>
      <trkpt lat="45.20376" lon="2.58994">
        <ele>1146</ele>
        <time>2024-01-31T08:15:13.000Z</time>
      </trkpt>
      <trkpt lat="45.20382" lon="2.5901">
        <ele>1144.1999511719</ele>
        <time>2024-01-31T08:15:14.000Z</time>
      </trkpt>
      <trkpt lat="45.20394" lon="2.59043">
        <ele>1142.4000244141</ele>
        <time>2024-01-31T08:15:16.000Z</time>
      </trkpt>
      <trkpt lat="45.20402" lon="2.59078">
        <ele>1140.1999511719</ele>
        <time>2024-01-31T08:15:18.000Z</time>
      </trkpt>
      <trkpt lat="45.20408" lon="2.59115">
        <ele>1138.5999755859</ele>
        <time>2024-01-31T08:15:20.000Z</time>
      </trkpt>
      <trkpt lat="45.20414" lon="2.59152">
        <ele>1136.5999755859</ele>
        <time>2024-01-31T08:15:22.000Z</time>
      </trkpt>
      <trkpt lat="45.20417" lon="2.5917">
        <ele>1135.1999511719</ele>
        <time>2024-01-31T08:15:23.000Z</time>
      </trkpt>
      <trkpt lat="45.20418" lon="2.59186">
        <ele>1134.4000244141</ele>
        <time>2024-01-31T08:15:24.000Z</time>
      </trkpt>
      <trkpt lat="45.2042" lon="2.59201">
        <ele>1133.5999755859</ele>
        <time>2024-01-31T08:15:25.000Z</time>
      </trkpt>
      <trkpt lat="45.20422" lon="2.59229">
        <ele>1131.5999755859</ele>
        <time>2024-01-31T08:15:27.000Z</time>
      </trkpt>
      <trkpt lat="45.20424" lon="2.5924">
        <ele>1130.4000244141</ele>
        <time>2024-01-31T08:15:28.000Z</time>
      </trkpt>
      <trkpt lat="45.20426" lon="2.5925">
        <ele>1129.8000488281</ele>
        <time>2024-01-31T08:15:29.000Z</time>
      </trkpt>
      <trkpt lat="45.20435" lon="2.59265">
        <ele>1128.5999755859</ele>
        <time>2024-01-31T08:15:31.000Z</time>
      </trkpt>
      <trkpt lat="45.20448" lon="2.59274">
        <ele>1128.4000244141</ele>
        <time>2024-01-31T08:15:33.000Z</time>
      </trkpt>
      <trkpt lat="45.20462" lon="2.59276">
        <ele>1128</ele>
        <time>2024-01-31T08:15:35.000Z</time>
      </trkpt>
      <trkpt lat="45.20473" lon="2.59267">
        <ele>1127.1999511719</ele>
        <time>2024-01-31T08:15:37.000Z</time>
      </trkpt>
      <trkpt lat="45.20477" lon="2.59259">
        <ele>1126.8000488281</ele>
        <time>2024-01-31T08:15:38.000Z</time>
      </trkpt>
      <trkpt lat="45.20479" lon="2.59247">
        <ele>1126.8000488281</ele>
        <time>2024-01-31T08:15:39.000Z</time>
      </trkpt>
      <trkpt lat="45.20482" lon="2.59218">
        <ele>1126.8000488281</ele>
        <time>2024-01-31T08:15:41.000Z</time>
      </trkpt>
      <trkpt lat="45.20483" lon="2.59207">
        <ele>1126.5999755859</ele>
        <time>2024-01-31T08:15:42.000Z</time>
      </trkpt>
      <trkpt lat="45.20484" lon="2.59192">
        <ele>1126.1999511719</ele>
        <time>2024-01-31T08:15:43.000Z</time>
      </trkpt>
      <trkpt lat="45.20487" lon="2.59173">
        <ele>1126</ele>
        <time>2024-01-31T08:15:44.000Z</time>
      </trkpt>
      <trkpt lat="45.20495" lon="2.59121">
        <ele>1125.1999511719</ele>
        <time>2024-01-31T08:15:47.000Z</time>
      </trkpt>
      <trkpt lat="45.20498" lon="2.59106">
        <ele>1124.4000244141</ele>
        <time>2024-01-31T08:15:48.000Z</time>
      </trkpt>
      <trkpt lat="45.20502" lon="2.59089">
        <ele>1123.8000488281</ele>
        <time>2024-01-31T08:15:49.000Z</time>
      </trkpt>
      <trkpt lat="45.20514" lon="2.59041">
        <ele>1122</ele>
        <time>2024-01-31T08:15:52.000Z</time>
      </trkpt>
      <trkpt lat="45.20527" lon="2.5901">
        <ele>1120.4000244141</ele>
        <time>2024-01-31T08:15:54.000Z</time>
      </trkpt>
      <trkpt lat="45.20542" lon="2.58978">
        <ele>1118.4000244141</ele>
        <time>2024-01-31T08:15:56.000Z</time>
      </trkpt>
      <trkpt lat="45.20549" lon="2.58964">
        <ele>1118</ele>
        <time>2024-01-31T08:15:57.000Z</time>
      </trkpt>
      <trkpt lat="45.20557" lon="2.58952">
        <ele>1116.8000488281</ele>
        <time>2024-01-31T08:15:58.000Z</time>
      </trkpt>
      <trkpt lat="45.20567" lon="2.58944">
        <ele>1116</ele>
        <time>2024-01-31T08:15:59.000Z</time>
      </trkpt>
      <trkpt lat="45.20577" lon="2.58939">
        <ele>1115.8000488281</ele>
        <time>2024-01-31T08:16:00.000Z</time>
      </trkpt>
      <trkpt lat="45.20593" lon="2.5892">
        <ele>1115.1999511719</ele>
        <time>2024-01-31T08:16:02.000Z</time>
      </trkpt>
      <trkpt lat="45.20598" lon="2.5891">
        <ele>1115</ele>
        <time>2024-01-31T08:16:03.000Z</time>
      </trkpt>
      <trkpt lat="45.2061" lon="2.58881">
        <ele>1114.5999755859</ele>
        <time>2024-01-31T08:16:05.000Z</time>
      </trkpt>
      <trkpt lat="45.20619" lon="2.58855">
        <ele>1114.1999511719</ele>
        <time>2024-01-31T08:16:07.000Z</time>
      </trkpt>
      <trkpt lat="45.20626" lon="2.58823">
        <ele>1112.4000244141</ele>
        <time>2024-01-31T08:16:09.000Z</time>
      </trkpt>
      <trkpt lat="45.2063" lon="2.58805">
        <ele>1111.4000244141</ele>
        <time>2024-01-31T08:16:10.000Z</time>
      </trkpt>
      <trkpt lat="45.20635" lon="2.5879">
        <ele>1110.5999755859</ele>
        <time>2024-01-31T08:16:11.000Z</time>
      </trkpt>
      <trkpt lat="45.2064" lon="2.5878">
        <ele>1109.5999755859</ele>
        <time>2024-01-31T08:16:12.000Z</time>
      </trkpt>
      <trkpt lat="45.20648" lon="2.58766">
        <ele>1108.8000488281</ele>
        <time>2024-01-31T08:16:13.000Z</time>
      </trkpt>
      <trkpt lat="45.20655" lon="2.58758">
        <ele>1108</ele>
        <time>2024-01-31T08:16:14.000Z</time>
      </trkpt>
      <trkpt lat="45.20665" lon="2.5875">
        <ele>1107.1999511719</ele>
        <time>2024-01-31T08:16:15.000Z</time>
      </trkpt>
      <trkpt lat="45.20678" lon="2.58742">
        <ele>1107</ele>
        <time>2024-01-31T08:16:16.000Z</time>
      </trkpt>
      <trkpt lat="45.20689" lon="2.58736">
        <ele>1106.4000244141</ele>
        <time>2024-01-31T08:16:17.000Z</time>
      </trkpt>
      <trkpt lat="45.207" lon="2.58729">
        <ele>1105.5999755859</ele>
        <time>2024-01-31T08:16:18.000Z</time>
      </trkpt>
      <trkpt lat="45.2071" lon="2.5872">
        <ele>1104.8000488281</ele>
        <time>2024-01-31T08:16:19.000Z</time>
      </trkpt>
      <trkpt lat="45.2072" lon="2.5871">
        <ele>1104</ele>
        <time>2024-01-31T08:16:20.000Z</time>
      </trkpt>
      <trkpt lat="45.2073" lon="2.58698">
        <ele>1103</ele>
        <time>2024-01-31T08:16:21.000Z</time>
      </trkpt>
      <trkpt lat="45.20748" lon="2.58675">
        <ele>1101.5999755859</ele>
        <time>2024-01-31T08:16:23.000Z</time>
      </trkpt>
      <trkpt lat="45.20758" lon="2.58666">
        <ele>1101</ele>
        <time>2024-01-31T08:16:24.000Z</time>
      </trkpt>
      <trkpt lat="45.20768" lon="2.58657">
        <ele>1099.8000488281</ele>
        <time>2024-01-31T08:16:25.000Z</time>
      </trkpt>
      <trkpt lat="45.20779" lon="2.58646">
        <ele>1098.1999511719</ele>
        <time>2024-01-31T08:16:26.000Z</time>
      </trkpt>
      <trkpt lat="45.20789" lon="2.58634">
        <ele>1097</ele>
        <time>2024-01-31T08:16:27.000Z</time>
      </trkpt>
      <trkpt lat="45.20799" lon="2.58621">
        <ele>1095.8000488281</ele>
        <time>2024-01-31T08:16:28.000Z</time>
      </trkpt>
      <trkpt lat="45.20815" lon="2.58597">
        <ele>1094.4000244141</ele>
        <time>2024-01-31T08:16:30.000Z</time>
      </trkpt>
      <trkpt lat="45.20833" lon="2.58567">
        <ele>1093.4000244141</ele>
        <time>2024-01-31T08:16:32.000Z</time>
      </trkpt>
      <trkpt lat="45.2084" lon="2.58551">
        <ele>1092.5999755859</ele>
        <time>2024-01-31T08:16:33.000Z</time>
      </trkpt>
      <trkpt lat="45.20851" lon="2.58502">
        <ele>1090.8000488281</ele>
        <time>2024-01-31T08:16:36.000Z</time>
      </trkpt>
      <trkpt lat="45.20862" lon="2.58472">
        <ele>1089.5999755859</ele>
        <time>2024-01-31T08:16:38.000Z</time>
      </trkpt>
      <trkpt lat="45.20882" lon="2.58427">
        <ele>1088</ele>
        <time>2024-01-31T08:16:41.000Z</time>
      </trkpt>
      <trkpt lat="45.20896" lon="2.58399">
        <ele>1087</ele>
        <time>2024-01-31T08:16:43.000Z</time>
      </trkpt>
      <trkpt lat="45.20903" lon="2.58386">
        <ele>1086.4000244141</ele>
        <time>2024-01-31T08:16:44.000Z</time>
      </trkpt>
      <trkpt lat="45.20915" lon="2.58357">
        <ele>1085.4000244141</ele>
        <time>2024-01-31T08:16:46.000Z</time>
      </trkpt>
      <trkpt lat="45.20921" lon="2.58342">
        <ele>1085</ele>
        <time>2024-01-31T08:16:47.000Z</time>
      </trkpt>
      <trkpt lat="45.20932" lon="2.58312">
        <ele>1084</ele>
        <time>2024-01-31T08:16:49.000Z</time>
      </trkpt>
      <trkpt lat="45.20944" lon="2.58282">
        <ele>1082.5999755859</ele>
        <time>2024-01-31T08:16:51.000Z</time>
      </trkpt>
      <trkpt lat="45.20957" lon="2.58255">
        <ele>1082</ele>
        <time>2024-01-31T08:16:53.000Z</time>
      </trkpt>
      <trkpt lat="45.20966" lon="2.58244">
        <ele>1081.4000244141</ele>
        <time>2024-01-31T08:16:54.000Z</time>
      </trkpt>
      <trkpt lat="45.20976" lon="2.58233">
        <ele>1080.5999755859</ele>
        <time>2024-01-31T08:16:55.000Z</time>
      </trkpt>
      <trkpt lat="45.20986" lon="2.58223">
        <ele>1080.4000244141</ele>
        <time>2024-01-31T08:16:56.000Z</time>
      </trkpt>
      <trkpt lat="45.21008" lon="2.58203">
        <ele>1079.1999511719</ele>
        <time>2024-01-31T08:16:58.000Z</time>
      </trkpt>
      <trkpt lat="45.21027" lon="2.58185">
        <ele>1078</ele>
        <time>2024-01-31T08:17:00.000Z</time>
      </trkpt>
      <trkpt lat="45.21052" lon="2.58168">
        <ele>1076.8000488281</ele>
        <time>2024-01-31T08:17:02.000Z</time>
      </trkpt>
      <trkpt lat="45.21076" lon="2.58156">
        <ele>1075.5999755859</ele>
        <time>2024-01-31T08:17:04.000Z</time>
      </trkpt>
      <trkpt lat="45.21095" lon="2.5814">
        <ele>1074.8000488281</ele>
        <time>2024-01-31T08:17:06.000Z</time>
      </trkpt>
      <trkpt lat="45.21108" lon="2.58128">
        <ele>1074</ele>
        <time>2024-01-31T08:17:07.000Z</time>
      </trkpt>
      <trkpt lat="45.21137" lon="2.58093">
        <ele>1072.8000488281</ele>
        <time>2024-01-31T08:17:10.000Z</time>
      </trkpt>
      <trkpt lat="45.21155" lon="2.58069">
        <ele>1072.4000244141</ele>
        <time>2024-01-31T08:17:12.000Z</time>
      </trkpt>
      <trkpt lat="45.21163" lon="2.58055">
        <ele>1072</ele>
        <time>2024-01-31T08:17:13.000Z</time>
      </trkpt>
      <trkpt lat="45.21169" lon="2.58043">
        <ele>1071.8000488281</ele>
        <time>2024-01-31T08:17:14.000Z</time>
      </trkpt>
      <trkpt lat="45.21184" lon="2.5801">
        <ele>1071.1999511719</ele>
        <time>2024-01-31T08:17:16.000Z</time>
      </trkpt>
      <trkpt lat="45.21196" lon="2.57986">
        <ele>1071</ele>
        <time>2024-01-31T08:17:18.000Z</time>
      </trkpt>
      <trkpt lat="45.21203" lon="2.57978">
        <ele>1070.8000488281</ele>
        <time>2024-01-31T08:17:19.000Z</time>
      </trkpt>
      <trkpt lat="45.21221" lon="2.57968">
        <ele>1070.5999755859</ele>
        <time>2024-01-31T08:17:21.000Z</time>
      </trkpt>
      <trkpt lat="45.21262" lon="2.57959">
        <ele>1070.1999511719</ele>
        <time>2024-01-31T08:17:25.000Z</time>
      </trkpt>
      <trkpt lat="45.21291" lon="2.57935">
        <ele>1070</ele>
        <time>2024-01-31T08:17:28.000Z</time>
      </trkpt>
      <trkpt lat="45.21312" lon="2.57916">
        <ele>1069.8000488281</ele>
        <time>2024-01-31T08:17:30.000Z</time>
      </trkpt>
      <trkpt lat="45.21352" lon="2.57879">
        <ele>1068.5999755859</ele>
        <time>2024-01-31T08:17:34.000Z</time>
      </trkpt>
      <trkpt lat="45.21389" lon="2.57846">
        <ele>1067.4000244141</ele>
        <time>2024-01-31T08:17:38.000Z</time>
      </trkpt>
      <trkpt lat="45.21405" lon="2.57833">
        <ele>1067</ele>
        <time>2024-01-31T08:17:40.000Z</time>
      </trkpt>
      <trkpt lat="45.21426" lon="2.57826">
        <ele>1066.1999511719</ele>
        <time>2024-01-31T08:17:42.000Z</time>
      </trkpt>
      <trkpt lat="45.21433" lon="2.57827">
        <ele>1066</ele>
        <time>2024-01-31T08:17:43.000Z</time>
      </trkpt>
      <trkpt lat="45.21441" lon="2.57832">
        <ele>1065.5999755859</ele>
        <time>2024-01-31T08:17:44.000Z</time>
      </trkpt>
      <trkpt lat="45.2145" lon="2.57841">
        <ele>1065</ele>
        <time>2024-01-31T08:17:45.000Z</time>
      </trkpt>
      <trkpt lat="45.21459" lon="2.5785">
        <ele>1064.8000488281</ele>
        <time>2024-01-31T08:17:46.000Z</time>
      </trkpt>
      <trkpt lat="45.21478" lon="2.57862">
        <ele>1064</ele>
        <time>2024-01-31T08:17:48.000Z</time>
      </trkpt>
      <trkpt lat="45.21489" lon="2.57864">
        <ele>1062.8000488281</ele>
        <time>2024-01-31T08:17:49.000Z</time>
      </trkpt>
      <trkpt lat="45.21512" lon="2.57865">
        <ele>1062</ele>
        <time>2024-01-31T08:17:51.000Z</time>
      </trkpt>
      <trkpt lat="45.21523" lon="2.57863">
        <ele>1061.5999755859</ele>
        <time>2024-01-31T08:17:52.000Z</time>
      </trkpt>
      <trkpt lat="45.21533" lon="2.57862">
        <ele>1060.4000244141</ele>
        <time>2024-01-31T08:17:53.000Z</time>
      </trkpt>
      <trkpt lat="45.21543" lon="2.57861">
        <ele>1059.5999755859</ele>
        <time>2024-01-31T08:17:54.000Z</time>
      </trkpt>
      <trkpt lat="45.21552" lon="2.57865">
        <ele>1059</ele>
        <time>2024-01-31T08:17:55.000Z</time>
      </trkpt>
      <trkpt lat="45.2156" lon="2.57872">
        <ele>1058.4000244141</ele>
        <time>2024-01-31T08:17:56.000Z</time>
      </trkpt>
      <trkpt lat="45.21576" lon="2.57888">
        <ele>1058</ele>
        <time>2024-01-31T08:17:58.000Z</time>
      </trkpt>
      <trkpt lat="45.21593" lon="2.57907">
        <ele>1057.8000488281</ele>
        <time>2024-01-31T08:18:00.000Z</time>
      </trkpt>
      <trkpt lat="45.21603" lon="2.57916">
        <ele>1057.5999755859</ele>
        <time>2024-01-31T08:18:01.000Z</time>
      </trkpt>
      <trkpt lat="45.21614" lon="2.57924">
        <ele>1056.8000488281</ele>
        <time>2024-01-31T08:18:02.000Z</time>
      </trkpt>
      <trkpt lat="45.21639" lon="2.57936">
        <ele>1056.4000244141</ele>
        <time>2024-01-31T08:18:04.000Z</time>
      </trkpt>
      <trkpt lat="45.21649" lon="2.57938">
        <ele>1056.4000244141</ele>
        <time>2024-01-31T08:18:05.000Z</time>
      </trkpt>
      <trkpt lat="45.21678" lon="2.57942">
        <ele>1055.5999755859</ele>
        <time>2024-01-31T08:18:07.000Z</time>
      </trkpt>
      <trkpt lat="45.21704" lon="2.57941">
        <ele>1054.5999755859</ele>
        <time>2024-01-31T08:18:09.000Z</time>
      </trkpt>
      <trkpt lat="45.21725" lon="2.57938">
        <ele>1053.4000244141</ele>
        <time>2024-01-31T08:18:11.000Z</time>
      </trkpt>
      <trkpt lat="45.21741" lon="2.57932">
        <ele>1052.4000244141</ele>
        <time>2024-01-31T08:18:13.000Z</time>
      </trkpt>
      <trkpt lat="45.21752" lon="2.57925">
        <ele>1051.8000488281</ele>
        <time>2024-01-31T08:18:14.000Z</time>
      </trkpt>
      <trkpt lat="45.21771" lon="2.57912">
        <ele>1051.5999755859</ele>
        <time>2024-01-31T08:18:16.000Z</time>
      </trkpt>
      <trkpt lat="45.21782" lon="2.57905">
        <ele>1051.4000244141</ele>
        <time>2024-01-31T08:18:17.000Z</time>
      </trkpt>
      <trkpt lat="45.21793" lon="2.57899">
        <ele>1051.1999511719</ele>
        <time>2024-01-31T08:18:18.000Z</time>
      </trkpt>
      <trkpt lat="45.21818" lon="2.57886">
        <ele>1050.1999511719</ele>
        <time>2024-01-31T08:18:20.000Z</time>
      </trkpt>
      <trkpt lat="45.21841" lon="2.57872">
        <ele>1049.8000488281</ele>
        <time>2024-01-31T08:18:22.000Z</time>
      </trkpt>
      <trkpt lat="45.21868" lon="2.57851">
        <ele>1048.8000488281</ele>
        <time>2024-01-31T08:18:24.000Z</time>
      </trkpt>
      <trkpt lat="45.21878" lon="2.57845">
        <ele>1048.5999755859</ele>
        <time>2024-01-31T08:18:25.000Z</time>
      </trkpt>
      <trkpt lat="45.21904" lon="2.57829">
        <ele>1047.8000488281</ele>
        <time>2024-01-31T08:18:27.000Z</time>
      </trkpt>
      <trkpt lat="45.21926" lon="2.57812">
        <ele>1047.1999511719</ele>
        <time>2024-01-31T08:18:29.000Z</time>
      </trkpt>
      <trkpt lat="45.21936" lon="2.578">
        <ele>1047</ele>
        <time>2024-01-31T08:18:30.000Z</time>
      </trkpt>
      <trkpt lat="45.21943" lon="2.5779">
        <ele>1046.5999755859</ele>
        <time>2024-01-31T08:18:31.000Z</time>
      </trkpt>
      <trkpt lat="45.2196" lon="2.57756">
        <ele>1046.1999511719</ele>
        <time>2024-01-31T08:18:33.000Z</time>
      </trkpt>
      <trkpt lat="45.21974" lon="2.57724">
        <ele>1045.1999511719</ele>
        <time>2024-01-31T08:18:35.000Z</time>
      </trkpt>
      <trkpt lat="45.21992" lon="2.57695">
        <ele>1044.8000488281</ele>
        <time>2024-01-31T08:18:37.000Z</time>
      </trkpt>
      <trkpt lat="45.22015" lon="2.57668">
        <ele>1044.1999511719</ele>
        <time>2024-01-31T08:18:39.000Z</time>
      </trkpt>
      <trkpt lat="45.22037" lon="2.57645">
        <ele>1043.4000244141</ele>
        <time>2024-01-31T08:18:41.000Z</time>
      </trkpt>
      <trkpt lat="45.22047" lon="2.57631">
        <ele>1043</ele>
        <time>2024-01-31T08:18:42.000Z</time>
      </trkpt>
      <trkpt lat="45.22066" lon="2.57602">
        <ele>1041.8000488281</ele>
        <time>2024-01-31T08:18:44.000Z</time>
      </trkpt>
      <trkpt lat="45.22085" lon="2.57572">
        <ele>1041</ele>
        <time>2024-01-31T08:18:46.000Z</time>
      </trkpt>
      <trkpt lat="45.22102" lon="2.57546">
        <ele>1040.8000488281</ele>
        <time>2024-01-31T08:18:48.000Z</time>
      </trkpt>
      <trkpt lat="45.22139" lon="2.57488">
        <ele>1040.5999755859</ele>
        <time>2024-01-31T08:18:52.000Z</time>
      </trkpt>
      <trkpt lat="45.2218" lon="2.57424">
        <ele>1040.1999511719</ele>
        <time>2024-01-31T08:18:56.000Z</time>
      </trkpt>
      <trkpt lat="45.22214" lon="2.57351">
        <ele>1039.8000488281</ele>
        <time>2024-01-31T08:19:00.000Z</time>
      </trkpt>
      <trkpt lat="45.22221" lon="2.57333">
        <ele>1039.8000488281</ele>
        <time>2024-01-31T08:19:01.000Z</time>
      </trkpt>
      <trkpt lat="45.22247" lon="2.57277">
        <ele>1038.4000244141</ele>
        <time>2024-01-31T08:19:04.000Z</time>
      </trkpt>
      <trkpt lat="45.22277" lon="2.57205">
        <ele>1037.8000488281</ele>
        <time>2024-01-31T08:19:08.000Z</time>
      </trkpt>
      <trkpt lat="45.22285" lon="2.57188">
        <ele>1037.8000488281</ele>
        <time>2024-01-31T08:19:09.000Z</time>
      </trkpt>
      <trkpt lat="45.22292" lon="2.57175">
        <ele>1037.4000244141</ele>
        <time>2024-01-31T08:19:10.000Z</time>
      </trkpt>
      <trkpt lat="45.22318" lon="2.57119">
        <ele>1036.4000244141</ele>
        <time>2024-01-31T08:19:13.000Z</time>
      </trkpt>
      <trkpt lat="45.22325" lon="2.57101">
        <ele>1036</ele>
        <time>2024-01-31T08:19:14.000Z</time>
      </trkpt>
      <trkpt lat="45.22332" lon="2.57084">
        <ele>1035.4000244141</ele>
        <time>2024-01-31T08:19:15.000Z</time>
      </trkpt>
      <trkpt lat="45.22347" lon="2.57053">
        <ele>1033.5999755859</ele>
        <time>2024-01-31T08:19:17.000Z</time>
      </trkpt>
      <trkpt lat="45.22363" lon="2.57022">
        <ele>1032.1999511719</ele>
        <time>2024-01-31T08:19:19.000Z</time>
      </trkpt>
      <trkpt lat="45.22379" lon="2.56992">
        <ele>1031</ele>
        <time>2024-01-31T08:19:21.000Z</time>
      </trkpt>
      <trkpt lat="45.22402" lon="2.56949">
        <ele>1029.5999755859</ele>
        <time>2024-01-31T08:19:24.000Z</time>
      </trkpt>
      <trkpt lat="45.22409" lon="2.56937">
        <ele>1029.4000244141</ele>
        <time>2024-01-31T08:19:25.000Z</time>
      </trkpt>
      <trkpt lat="45.22445" lon="2.56868">
        <ele>1028.8000488281</ele>
        <time>2024-01-31T08:19:30.000Z</time>
      </trkpt>
      <trkpt lat="45.22479" lon="2.56796">
        <ele>1029.5999755859</ele>
        <time>2024-01-31T08:19:35.000Z</time>
      </trkpt>
      <trkpt lat="45.22486" lon="2.56783">
        <ele>1029.8000488281</ele>
        <time>2024-01-31T08:19:36.000Z</time>
      </trkpt>
      <trkpt lat="45.22524" lon="2.56719">
        <ele>1030</ele>
        <time>2024-01-31T08:19:41.000Z</time>
      </trkpt>
      <trkpt lat="45.22568" lon="2.56647">
        <ele>1028.5999755859</ele>
        <time>2024-01-31T08:19:46.000Z</time>
      </trkpt>
      <trkpt lat="45.22576" lon="2.56635">
        <ele>1027.4000244141</ele>
        <time>2024-01-31T08:19:47.000Z</time>
      </trkpt>
      <trkpt lat="45.22597" lon="2.56605">
        <ele>1026</ele>
        <time>2024-01-31T08:19:49.000Z</time>
      </trkpt>
      <trkpt lat="45.22607" lon="2.56591">
        <ele>1025.1999511719</ele>
        <time>2024-01-31T08:19:50.000Z</time>
      </trkpt>
      <trkpt lat="45.22614" lon="2.5658">
        <ele>1024</ele>
        <time>2024-01-31T08:19:51.000Z</time>
      </trkpt>
      <trkpt lat="45.22638" lon="2.56552">
        <ele>1022.4000244141</ele>
        <time>2024-01-31T08:19:53.000Z</time>
      </trkpt>
      <trkpt lat="45.22648" lon="2.56541">
        <ele>1022</ele>
        <time>2024-01-31T08:19:54.000Z</time>
      </trkpt>
      <trkpt lat="45.22668" lon="2.56522">
        <ele>1021</ele>
        <time>2024-01-31T08:19:56.000Z</time>
      </trkpt>
      <trkpt lat="45.22699" lon="2.56496">
        <ele>1020</ele>
        <time>2024-01-31T08:19:59.000Z</time>
      </trkpt>
      <trkpt lat="45.2273" lon="2.56467">
        <ele>1019</ele>
        <time>2024-01-31T08:20:02.000Z</time>
      </trkpt>
      <trkpt lat="45.2276" lon="2.56438">
        <ele>1017.799987793</ele>
        <time>2024-01-31T08:20:05.000Z</time>
      </trkpt>
      <trkpt lat="45.22783" lon="2.56427">
        <ele>1017</ele>
        <time>2024-01-31T08:20:07.000Z</time>
      </trkpt>
      <trkpt lat="45.22794" lon="2.56424">
        <ele>1016.799987793</ele>
        <time>2024-01-31T08:20:08.000Z</time>
      </trkpt>
      <trkpt lat="45.22806" lon="2.56421">
        <ele>1016.799987793</ele>
        <time>2024-01-31T08:20:09.000Z</time>
      </trkpt>
      <trkpt lat="45.22818" lon="2.56418">
        <ele>1016.799987793</ele>
        <time>2024-01-31T08:20:10.000Z</time>
      </trkpt>
      <trkpt lat="45.22839" lon="2.56406">
        <ele>1016.799987793</ele>
        <time>2024-01-31T08:20:12.000Z</time>
      </trkpt>
      <trkpt lat="45.22862" lon="2.5639">
        <ele>1018</ele>
        <time>2024-01-31T08:20:14.000Z</time>
      </trkpt>
      <trkpt lat="45.22886" lon="2.56373">
        <ele>1019</ele>
        <time>2024-01-31T08:20:16.000Z</time>
      </trkpt>
      <trkpt lat="45.22898" lon="2.56365">
        <ele>1019.5999755859</ele>
        <time>2024-01-31T08:20:17.000Z</time>
      </trkpt>
      <trkpt lat="45.22921" lon="2.56349">
        <ele>1020</ele>
        <time>2024-01-31T08:20:19.000Z</time>
      </trkpt>
      <trkpt lat="45.2298" lon="2.56305">
        <ele>1020.5999755859</ele>
        <time>2024-01-31T08:20:24.000Z</time>
      </trkpt>
      <trkpt lat="45.2301" lon="2.56265">
        <ele>1020.5999755859</ele>
        <time>2024-01-31T08:20:27.000Z</time>
      </trkpt>
      <trkpt lat="45.23048" lon="2.56206">
        <ele>1020.5999755859</ele>
        <time>2024-01-31T08:20:31.000Z</time>
      </trkpt>
      <trkpt lat="45.2307" lon="2.56175">
        <ele>1020.4000244141</ele>
        <time>2024-01-31T08:20:33.000Z</time>
      </trkpt>
      <trkpt lat="45.23113" lon="2.56112">
        <ele>1018.5999755859</ele>
        <time>2024-01-31T08:20:37.000Z</time>
      </trkpt>
      <trkpt lat="45.23148" lon="2.56062">
        <ele>1016.799987793</ele>
        <time>2024-01-31T08:20:40.000Z</time>
      </trkpt>
      <trkpt lat="45.23169" lon="2.56031">
        <ele>1015</ele>
        <time>2024-01-31T08:20:42.000Z</time>
      </trkpt>
      <trkpt lat="45.23189" lon="2.56">
        <ele>1014</ele>
        <time>2024-01-31T08:20:44.000Z</time>
      </trkpt>
      <trkpt lat="45.23209" lon="2.55968">
        <ele>1012.799987793</ele>
        <time>2024-01-31T08:20:46.000Z</time>
      </trkpt>
      <trkpt lat="45.23217" lon="2.55951">
        <ele>1012.200012207</ele>
        <time>2024-01-31T08:20:47.000Z</time>
      </trkpt>
      <trkpt lat="45.23225" lon="2.55934">
        <ele>1011.5999755859</ele>
        <time>2024-01-31T08:20:48.000Z</time>
      </trkpt>
      <trkpt lat="45.23237" lon="2.55902">
        <ele>1010.5999755859</ele>
        <time>2024-01-31T08:20:50.000Z</time>
      </trkpt>
      <trkpt lat="45.23246" lon="2.55882">
        <ele>1009.4000244141</ele>
        <time>2024-01-31T08:20:51.000Z</time>
      </trkpt>
      <trkpt lat="45.23261" lon="2.55847">
        <ele>1008.200012207</ele>
        <time>2024-01-31T08:20:53.000Z</time>
      </trkpt>
      <trkpt lat="45.23275" lon="2.55814">
        <ele>1006.799987793</ele>
        <time>2024-01-31T08:20:55.000Z</time>
      </trkpt>
      <trkpt lat="45.23286" lon="2.55777">
        <ele>1005</ele>
        <time>2024-01-31T08:20:57.000Z</time>
      </trkpt>
      <trkpt lat="45.2329" lon="2.55758">
        <ele>1003.5999755859</ele>
        <time>2024-01-31T08:20:58.000Z</time>
      </trkpt>
      <trkpt lat="45.23296" lon="2.55723">
        <ele>1002.200012207</ele>
        <time>2024-01-31T08:21:00.000Z</time>
      </trkpt>
      <trkpt lat="45.23299" lon="2.55709">
        <ele>1001.5999755859</ele>
        <time>2024-01-31T08:21:01.000Z</time>
      </trkpt>
      <trkpt lat="45.23302" lon="2.55695">
        <ele>1001</ele>
        <time>2024-01-31T08:21:02.000Z</time>
      </trkpt>
      <trkpt lat="45.23305" lon="2.55671">
        <ele>1000.200012207</ele>
        <time>2024-01-31T08:21:04.000Z</time>
      </trkpt>
      <trkpt lat="45.23309" lon="2.55659">
        <ele>1000</ele>
        <time>2024-01-31T08:21:05.000Z</time>
      </trkpt>
      <trkpt lat="45.23316" lon="2.55649">
        <ele>999.79998779297</ele>
        <time>2024-01-31T08:21:06.000Z</time>
      </trkpt>
      <trkpt lat="45.23334" lon="2.55632">
        <ele>999.40002441406</ele>
        <time>2024-01-31T08:21:08.000Z</time>
      </trkpt>
      <trkpt lat="45.23366" lon="2.55606">
        <ele>999</ele>
        <time>2024-01-31T08:21:11.000Z</time>
      </trkpt>
      <trkpt lat="45.2339" lon="2.55588">
        <ele>999</ele>
        <time>2024-01-31T08:21:13.000Z</time>
      </trkpt>
      <trkpt lat="45.23428" lon="2.55565">
        <ele>999</ele>
        <time>2024-01-31T08:21:16.000Z</time>
      </trkpt>
      <trkpt lat="45.23481" lon="2.55528">
        <ele>999</ele>
        <time>2024-01-31T08:21:20.000Z</time>
      </trkpt>
      <trkpt lat="45.23508" lon="2.55509">
        <ele>999</ele>
        <time>2024-01-31T08:21:22.000Z</time>
      </trkpt>
      <trkpt lat="45.2356" lon="2.55473">
        <ele>998.79998779297</ele>
        <time>2024-01-31T08:21:26.000Z</time>
      </trkpt>
      <trkpt lat="45.2357" lon="2.55462">
        <ele>998.59997558594</ele>
        <time>2024-01-31T08:21:27.000Z</time>
      </trkpt>
      <trkpt lat="45.23589" lon="2.55436">
        <ele>997.79998779297</ele>
        <time>2024-01-31T08:21:29.000Z</time>
      </trkpt>
      <trkpt lat="45.23599" lon="2.55422">
        <ele>997.40002441406</ele>
        <time>2024-01-31T08:21:30.000Z</time>
      </trkpt>
      <trkpt lat="45.23617" lon="2.55392">
        <ele>996.40002441406</ele>
        <time>2024-01-31T08:21:32.000Z</time>
      </trkpt>
      <trkpt lat="45.23631" lon="2.55358">
        <ele>994.59997558594</ele>
        <time>2024-01-31T08:21:34.000Z</time>
      </trkpt>
      <trkpt lat="45.23639" lon="2.5532">
        <ele>993.59997558594</ele>
        <time>2024-01-31T08:21:36.000Z</time>
      </trkpt>
      <trkpt lat="45.23642" lon="2.553">
        <ele>992.59997558594</ele>
        <time>2024-01-31T08:21:37.000Z</time>
      </trkpt>
      <trkpt lat="45.23648" lon="2.55238">
        <ele>991</ele>
        <time>2024-01-31T08:21:40.000Z</time>
      </trkpt>
      <trkpt lat="45.23653" lon="2.55195">
        <ele>989.79998779297</ele>
        <time>2024-01-31T08:21:42.000Z</time>
      </trkpt>
      <trkpt lat="45.23658" lon="2.55151">
        <ele>988</ele>
        <time>2024-01-31T08:21:44.000Z</time>
      </trkpt>
      <trkpt lat="45.2366" lon="2.55107">
        <ele>986.59997558594</ele>
        <time>2024-01-31T08:21:46.000Z</time>
      </trkpt>
      <trkpt lat="45.2366" lon="2.55085">
        <ele>985.20001220703</ele>
        <time>2024-01-31T08:21:47.000Z</time>
      </trkpt>
      <trkpt lat="45.2366" lon="2.5502">
        <ele>984.20001220703</ele>
        <time>2024-01-31T08:21:50.000Z</time>
      </trkpt>
      <trkpt lat="45.2366" lon="2.54957">
        <ele>982.79998779297</ele>
        <time>2024-01-31T08:21:53.000Z</time>
      </trkpt>
      <trkpt lat="45.2366" lon="2.54897">
        <ele>981.59997558594</ele>
        <time>2024-01-31T08:21:56.000Z</time>
      </trkpt>
      <trkpt lat="45.23662" lon="2.54866">
        <ele>980</ele>
        <time>2024-01-31T08:21:58.000Z</time>
      </trkpt>
      <trkpt lat="45.23664" lon="2.54852">
        <ele>979</ele>
        <time>2024-01-31T08:21:59.000Z</time>
      </trkpt>
      <trkpt lat="45.23668" lon="2.54837">
        <ele>979</ele>
        <time>2024-01-31T08:22:00.000Z</time>
      </trkpt>
      <trkpt lat="45.23673" lon="2.54822">
        <ele>978.59997558594</ele>
        <time>2024-01-31T08:22:01.000Z</time>
      </trkpt>
      <trkpt lat="45.23678" lon="2.54806">
        <ele>978</ele>
        <time>2024-01-31T08:22:02.000Z</time>
      </trkpt>
      <trkpt lat="45.23694" lon="2.54775">
        <ele>977.59997558594</ele>
        <time>2024-01-31T08:22:04.000Z</time>
      </trkpt>
      <trkpt lat="45.23712" lon="2.54745">
        <ele>975.79998779297</ele>
        <time>2024-01-31T08:22:06.000Z</time>
      </trkpt>
      <trkpt lat="45.23731" lon="2.54716">
        <ele>974.59997558594</ele>
        <time>2024-01-31T08:22:08.000Z</time>
      </trkpt>
      <trkpt lat="45.23752" lon="2.54693">
        <ele>973</ele>
        <time>2024-01-31T08:22:10.000Z</time>
      </trkpt>
      <trkpt lat="45.23773" lon="2.54673">
        <ele>972.40002441406</ele>
        <time>2024-01-31T08:22:12.000Z</time>
      </trkpt>
      <trkpt lat="45.23782" lon="2.54662">
        <ele>972</ele>
        <time>2024-01-31T08:22:13.000Z</time>
      </trkpt>
      <trkpt lat="45.2379" lon="2.54649">
        <ele>971.59997558594</ele>
        <time>2024-01-31T08:22:14.000Z</time>
      </trkpt>
      <trkpt lat="45.23802" lon="2.54601">
        <ele>970.59997558594</ele>
        <time>2024-01-31T08:22:17.000Z</time>
      </trkpt>
      <trkpt lat="45.23807" lon="2.54585">
        <ele>970.40002441406</ele>
        <time>2024-01-31T08:22:18.000Z</time>
      </trkpt>
      <trkpt lat="45.23823" lon="2.54554">
        <ele>969.40002441406</ele>
        <time>2024-01-31T08:22:20.000Z</time>
      </trkpt>
      <trkpt lat="45.23843" lon="2.54526">
        <ele>968.20001220703</ele>
        <time>2024-01-31T08:22:22.000Z</time>
      </trkpt>
      <trkpt lat="45.23864" lon="2.54496">
        <ele>967</ele>
        <time>2024-01-31T08:22:24.000Z</time>
      </trkpt>
      <trkpt lat="45.23896" lon="2.5445">
        <ele>965.40002441406</ele>
        <time>2024-01-31T08:22:27.000Z</time>
      </trkpt>
      <trkpt lat="45.23905" lon="2.54433">
        <ele>964.79998779297</ele>
        <time>2024-01-31T08:22:28.000Z</time>
      </trkpt>
      <trkpt lat="45.23913" lon="2.54416">
        <ele>963.40002441406</ele>
        <time>2024-01-31T08:22:29.000Z</time>
      </trkpt>
      <trkpt lat="45.23921" lon="2.54397">
        <ele>962.59997558594</ele>
        <time>2024-01-31T08:22:30.000Z</time>
      </trkpt>
      <trkpt lat="45.23927" lon="2.54379">
        <ele>961.79998779297</ele>
        <time>2024-01-31T08:22:31.000Z</time>
      </trkpt>
      <trkpt lat="45.23932" lon="2.54361">
        <ele>961</ele>
        <time>2024-01-31T08:22:32.000Z</time>
      </trkpt>
      <trkpt lat="45.23937" lon="2.54344">
        <ele>960.20001220703</ele>
        <time>2024-01-31T08:22:33.000Z</time>
      </trkpt>
      <trkpt lat="45.23946" lon="2.54312">
        <ele>959</ele>
        <time>2024-01-31T08:22:35.000Z</time>
      </trkpt>
      <trkpt lat="45.23951" lon="2.54297">
        <ele>958</ele>
        <time>2024-01-31T08:22:36.000Z</time>
      </trkpt>
      <trkpt lat="45.23957" lon="2.54284">
        <ele>957.59997558594</ele>
        <time>2024-01-31T08:22:37.000Z</time>
      </trkpt>
      <trkpt lat="45.23965" lon="2.54272">
        <ele>956.79998779297</ele>
        <time>2024-01-31T08:22:38.000Z</time>
      </trkpt>
      <trkpt lat="45.23974" lon="2.54263">
        <ele>956.79998779297</ele>
        <time>2024-01-31T08:22:39.000Z</time>
      </trkpt>
      <trkpt lat="45.23984" lon="2.54255">
        <ele>956.79998779297</ele>
        <time>2024-01-31T08:22:40.000Z</time>
      </trkpt>
      <trkpt lat="45.2401" lon="2.54242">
        <ele>956.59997558594</ele>
        <time>2024-01-31T08:22:42.000Z</time>
      </trkpt>
      <trkpt lat="45.24045" lon="2.54242">
        <ele>956.79998779297</ele>
        <time>2024-01-31T08:22:45.000Z</time>
      </trkpt>
      <trkpt lat="45.2408" lon="2.54239">
        <ele>958</ele>
        <time>2024-01-31T08:22:48.000Z</time>
      </trkpt>
      <trkpt lat="45.24093" lon="2.54234">
        <ele>958.40002441406</ele>
        <time>2024-01-31T08:22:49.000Z</time>
      </trkpt>
      <trkpt lat="45.24125" lon="2.5422">
        <ele>958.40002441406</ele>
        <time>2024-01-31T08:22:52.000Z</time>
      </trkpt>
      <trkpt lat="45.24136" lon="2.54218">
        <ele>958.20001220703</ele>
        <time>2024-01-31T08:22:53.000Z</time>
      </trkpt>
      <trkpt lat="45.24153" lon="2.54217">
        <ele>957</ele>
        <time>2024-01-31T08:22:55.000Z</time>
      </trkpt>
      <trkpt lat="45.24162" lon="2.54217">
        <ele>956.59997558594</ele>
        <time>2024-01-31T08:22:56.000Z</time>
      </trkpt>
      <trkpt lat="45.24175" lon="2.54215">
        <ele>956.20001220703</ele>
        <time>2024-01-31T08:22:57.000Z</time>
      </trkpt>
      <trkpt lat="45.2419" lon="2.54203">
        <ele>955.40002441406</ele>
        <time>2024-01-31T08:22:59.000Z</time>
      </trkpt>
      <trkpt lat="45.24205" lon="2.54182">
        <ele>955.20001220703</ele>
        <time>2024-01-31T08:23:01.000Z</time>
      </trkpt>
      <trkpt lat="45.24211" lon="2.5417">
        <ele>955.20001220703</ele>
        <time>2024-01-31T08:23:02.000Z</time>
      </trkpt>
      <trkpt lat="45.24216" lon="2.54157">
        <ele>955</ele>
        <time>2024-01-31T08:23:03.000Z</time>
      </trkpt>
      <trkpt lat="45.24226" lon="2.54131">
        <ele>955.20001220703</ele>
        <time>2024-01-31T08:23:06.000Z</time>
      </trkpt>
      <trkpt lat="45.24231" lon="2.54124">
        <ele>955.59997558594</ele>
        <time>2024-01-31T08:23:07.000Z</time>
      </trkpt>
      <trkpt lat="45.24236" lon="2.54119">
        <ele>956.20001220703</ele>
        <time>2024-01-31T08:23:08.000Z</time>
      </trkpt>
      <trkpt lat="45.24242" lon="2.54113">
        <ele>957</ele>
        <time>2024-01-31T08:23:09.000Z</time>
      </trkpt>
      <trkpt lat="45.2425" lon="2.54107">
        <ele>957.59997558594</ele>
        <time>2024-01-31T08:23:10.000Z</time>
      </trkpt>
      <trkpt lat="45.24277" lon="2.54084">
        <ele>959</ele>
        <time>2024-01-31T08:23:13.000Z</time>
      </trkpt>
      <trkpt lat="45.24288" lon="2.54076">
        <ele>959.79998779297</ele>
        <time>2024-01-31T08:23:14.000Z</time>
      </trkpt>
      <trkpt lat="45.243" lon="2.54071">
        <ele>960.79998779297</ele>
        <time>2024-01-31T08:23:15.000Z</time>
      </trkpt>
      <trkpt lat="45.24313" lon="2.54067">
        <ele>961.20001220703</ele>
        <time>2024-01-31T08:23:16.000Z</time>
      </trkpt>
      <trkpt lat="45.2434" lon="2.54065">
        <ele>962.59997558594</ele>
        <time>2024-01-31T08:23:18.000Z</time>
      </trkpt>
      <trkpt lat="45.24355" lon="2.54067">
        <ele>963.40002441406</ele>
        <time>2024-01-31T08:23:19.000Z</time>
      </trkpt>
      <trkpt lat="45.24371" lon="2.5407">
        <ele>964</ele>
        <time>2024-01-31T08:23:20.000Z</time>
      </trkpt>
      <trkpt lat="45.24405" lon="2.54079">
        <ele>965.20001220703</ele>
        <time>2024-01-31T08:23:22.000Z</time>
      </trkpt>
      <trkpt lat="45.24418" lon="2.54083">
        <ele>965.79998779297</ele>
        <time>2024-01-31T08:23:23.000Z</time>
      </trkpt>
      <trkpt lat="45.24482" lon="2.54099">
        <ele>966.20001220703</ele>
        <time>2024-01-31T08:23:27.000Z</time>
      </trkpt>
      <trkpt lat="45.24497" lon="2.54103">
        <ele>966.20001220703</ele>
        <time>2024-01-31T08:23:28.000Z</time>
      </trkpt>
      <trkpt lat="45.24541" lon="2.54113">
        <ele>966.20001220703</ele>
        <time>2024-01-31T08:23:31.000Z</time>
      </trkpt>
      <trkpt lat="45.24596" lon="2.54122">
        <ele>966</ele>
        <time>2024-01-31T08:23:35.000Z</time>
      </trkpt>
      <trkpt lat="45.2462" lon="2.54113">
        <ele>966</ele>
        <time>2024-01-31T08:23:37.000Z</time>
      </trkpt>
      <trkpt lat="45.24638" lon="2.54093">
        <ele>966.20001220703</ele>
        <time>2024-01-31T08:23:39.000Z</time>
      </trkpt>
      <trkpt lat="45.2466" lon="2.54046">
        <ele>966.20001220703</ele>
        <time>2024-01-31T08:23:42.000Z</time>
      </trkpt>
      <trkpt lat="45.24689" lon="2.53969">
        <ele>965.79998779297</ele>
        <time>2024-01-31T08:23:46.000Z</time>
      </trkpt>
      <trkpt lat="45.24698" lon="2.53948">
        <ele>965.59997558594</ele>
        <time>2024-01-31T08:23:47.000Z</time>
      </trkpt>
      <trkpt lat="45.24734" lon="2.53865">
        <ele>965.79998779297</ele>
        <time>2024-01-31T08:23:51.000Z</time>
      </trkpt>
      <trkpt lat="45.24744" lon="2.53845">
        <ele>966.20001220703</ele>
        <time>2024-01-31T08:23:52.000Z</time>
      </trkpt>
      <trkpt lat="45.24775" lon="2.53793">
        <ele>966.20001220703</ele>
        <time>2024-01-31T08:23:55.000Z</time>
      </trkpt>
      <trkpt lat="45.24785" lon="2.53779">
        <ele>966.20001220703</ele>
        <time>2024-01-31T08:23:56.000Z</time>
      </trkpt>
      <trkpt lat="45.24794" lon="2.53767">
        <ele>966.20001220703</ele>
        <time>2024-01-31T08:23:57.000Z</time>
      </trkpt>
      <trkpt lat="45.24805" lon="2.53757">
        <ele>966.20001220703</ele>
        <time>2024-01-31T08:23:58.000Z</time>
      </trkpt>
      <trkpt lat="45.24816" lon="2.5375">
        <ele>966.20001220703</ele>
        <time>2024-01-31T08:23:59.000Z</time>
      </trkpt>
      <trkpt lat="45.24843" lon="2.5374">
        <ele>966.59997558594</ele>
        <time>2024-01-31T08:24:01.000Z</time>
      </trkpt>
      <trkpt lat="45.24882" lon="2.53724">
        <ele>967.20001220703</ele>
        <time>2024-01-31T08:24:04.000Z</time>
      </trkpt>
      <trkpt lat="45.24895" lon="2.53716">
        <ele>967.79998779297</ele>
        <time>2024-01-31T08:24:05.000Z</time>
      </trkpt>
      <trkpt lat="45.24922" lon="2.53702">
        <ele>968.40002441406</ele>
        <time>2024-01-31T08:24:07.000Z</time>
      </trkpt>
      <trkpt lat="45.24948" lon="2.53695">
        <ele>969</ele>
        <time>2024-01-31T08:24:09.000Z</time>
      </trkpt>
      <trkpt lat="45.24972" lon="2.53697">
        <ele>969.79998779297</ele>
        <time>2024-01-31T08:24:11.000Z</time>
      </trkpt>
      <trkpt lat="45.24984" lon="2.53702">
        <ele>970.20001220703</ele>
        <time>2024-01-31T08:24:12.000Z</time>
      </trkpt>
      <trkpt lat="45.25008" lon="2.53718">
        <ele>971</ele>
        <time>2024-01-31T08:24:14.000Z</time>
      </trkpt>
      <trkpt lat="45.2503" lon="2.53735">
        <ele>971.20001220703</ele>
        <time>2024-01-31T08:24:16.000Z</time>
      </trkpt>
      <trkpt lat="45.25083" lon="2.53777">
        <ele>970</ele>
        <time>2024-01-31T08:24:21.000Z</time>
      </trkpt>
      <trkpt lat="45.25102" lon="2.53792">
        <ele>969.79998779297</ele>
        <time>2024-01-31T08:24:23.000Z</time>
      </trkpt>
      <trkpt lat="45.25125" lon="2.5381">
        <ele>969.20001220703</ele>
        <time>2024-01-31T08:24:26.000Z</time>
      </trkpt>
      <trkpt lat="45.25151" lon="2.53844">
        <ele>969.40002441406</ele>
        <time>2024-01-31T08:24:30.000Z</time>
      </trkpt>
      <trkpt lat="45.2517" lon="2.5388">
        <ele>971</ele>
        <time>2024-01-31T08:24:33.000Z</time>
      </trkpt>
      <trkpt lat="45.25176" lon="2.53893">
        <ele>971.20001220703</ele>
        <time>2024-01-31T08:24:34.000Z</time>
      </trkpt>
      <trkpt lat="45.25203" lon="2.53935">
        <ele>971.59997558594</ele>
        <time>2024-01-31T08:24:38.000Z</time>
      </trkpt>
      <trkpt lat="45.25211" lon="2.53942">
        <ele>971.59997558594</ele>
        <time>2024-01-31T08:24:39.000Z</time>
      </trkpt>
      <trkpt lat="45.2525" lon="2.53963">
        <ele>972</ele>
        <time>2024-01-31T08:24:44.000Z</time>
      </trkpt>
      <trkpt lat="45.25258" lon="2.53967">
        <ele>972.40002441406</ele>
        <time>2024-01-31T08:24:45.000Z</time>
      </trkpt>
      <trkpt lat="45.25288" lon="2.53981">
        <ele>973</ele>
        <time>2024-01-31T08:24:49.000Z</time>
      </trkpt>
      <trkpt lat="45.25302" lon="2.53981">
        <ele>973.40002441406</ele>
        <time>2024-01-31T08:24:51.000Z</time>
      </trkpt>
      <trkpt lat="45.25309" lon="2.53977">
        <ele>973.59997558594</ele>
        <time>2024-01-31T08:24:52.000Z</time>
      </trkpt>
      <trkpt lat="45.25336" lon="2.53963">
        <ele>974.79998779297</ele>
        <time>2024-01-31T08:24:56.000Z</time>
      </trkpt>
      <trkpt lat="45.25344" lon="2.53962">
        <ele>975</ele>
        <time>2024-01-31T08:24:57.000Z</time>
      </trkpt>
      <trkpt lat="45.2535" lon="2.53963">
        <ele>975.40002441406</ele>
        <time>2024-01-31T08:24:58.000Z</time>
      </trkpt>
      <trkpt lat="45.25358" lon="2.53965">
        <ele>976</ele>
        <time>2024-01-31T08:24:59.000Z</time>
      </trkpt>
      <trkpt lat="45.25374" lon="2.53971">
        <ele>977.40002441406</ele>
        <time>2024-01-31T08:25:01.000Z</time>
      </trkpt>
      <trkpt lat="45.25399" lon="2.5398">
        <ele>978.40002441406</ele>
        <time>2024-01-31T08:25:04.000Z</time>
      </trkpt>
      <trkpt lat="45.25414" lon="2.53986">
        <ele>979.79998779297</ele>
        <time>2024-01-31T08:25:06.000Z</time>
      </trkpt>
      <trkpt lat="45.2543" lon="2.53992">
        <ele>980.79998779297</ele>
        <time>2024-01-31T08:25:08.000Z</time>
      </trkpt>
      <trkpt lat="45.25447" lon="2.53999">
        <ele>982</ele>
        <time>2024-01-31T08:25:10.000Z</time>
      </trkpt>
      <trkpt lat="45.25464" lon="2.54006">
        <ele>983</ele>
        <time>2024-01-31T08:25:12.000Z</time>
      </trkpt>
      <trkpt lat="45.25483" lon="2.54012">
        <ele>984.20001220703</ele>
        <time>2024-01-31T08:25:14.000Z</time>
      </trkpt>
      <trkpt lat="45.25492" lon="2.54016">
        <ele>984.59997558594</ele>
        <time>2024-01-31T08:25:15.000Z</time>
      </trkpt>
      <trkpt lat="45.25501" lon="2.5402">
        <ele>985.40002441406</ele>
        <time>2024-01-31T08:25:16.000Z</time>
      </trkpt>
      <trkpt lat="45.2552" lon="2.5403">
        <ele>986.59997558594</ele>
        <time>2024-01-31T08:25:18.000Z</time>
      </trkpt>
      <trkpt lat="45.2554" lon="2.54043">
        <ele>987.59997558594</ele>
        <time>2024-01-31T08:25:20.000Z</time>
      </trkpt>
      <trkpt lat="45.2555" lon="2.54051">
        <ele>988</ele>
        <time>2024-01-31T08:25:21.000Z</time>
      </trkpt>
      <trkpt lat="45.25572" lon="2.54067">
        <ele>990</ele>
        <time>2024-01-31T08:25:23.000Z</time>
      </trkpt>
      <trkpt lat="45.25583" lon="2.54075">
        <ele>990.59997558594</ele>
        <time>2024-01-31T08:25:24.000Z</time>
      </trkpt>
      <trkpt lat="45.25595" lon="2.54084">
        <ele>991.20001220703</ele>
        <time>2024-01-31T08:25:25.000Z</time>
      </trkpt>
      <trkpt lat="45.2562" lon="2.54103">
        <ele>993</ele>
        <time>2024-01-31T08:25:27.000Z</time>
      </trkpt>
      <trkpt lat="45.25633" lon="2.54113">
        <ele>994</ele>
        <time>2024-01-31T08:25:28.000Z</time>
      </trkpt>
      <trkpt lat="45.25645" lon="2.54124">
        <ele>995</ele>
        <time>2024-01-31T08:25:29.000Z</time>
      </trkpt>
      <trkpt lat="45.2567" lon="2.54145">
        <ele>996.59997558594</ele>
        <time>2024-01-31T08:25:31.000Z</time>
      </trkpt>
      <trkpt lat="45.25695" lon="2.54168">
        <ele>998.20001220703</ele>
        <time>2024-01-31T08:25:33.000Z</time>
      </trkpt>
      <trkpt lat="45.25707" lon="2.54181">
        <ele>998.79998779297</ele>
        <time>2024-01-31T08:25:34.000Z</time>
      </trkpt>
      <trkpt lat="45.25718" lon="2.54195">
        <ele>999.20001220703</ele>
        <time>2024-01-31T08:25:35.000Z</time>
      </trkpt>
      <trkpt lat="45.25729" lon="2.54209">
        <ele>1000</ele>
        <time>2024-01-31T08:25:36.000Z</time>
      </trkpt>
      <trkpt lat="45.25739" lon="2.54225">
        <ele>1000.4000244141</ele>
        <time>2024-01-31T08:25:37.000Z</time>
      </trkpt>
      <trkpt lat="45.25754" lon="2.54262">
        <ele>1001.5999755859</ele>
        <time>2024-01-31T08:25:39.000Z</time>
      </trkpt>
      <trkpt lat="45.25759" lon="2.54282">
        <ele>1001.799987793</ele>
        <time>2024-01-31T08:25:40.000Z</time>
      </trkpt>
      <trkpt lat="45.25767" lon="2.54322">
        <ele>1002.799987793</ele>
        <time>2024-01-31T08:25:42.000Z</time>
      </trkpt>
      <trkpt lat="45.25774" lon="2.54363">
        <ele>1003.799987793</ele>
        <time>2024-01-31T08:25:44.000Z</time>
      </trkpt>
      <trkpt lat="45.25787" lon="2.54424">
        <ele>1005</ele>
        <time>2024-01-31T08:25:47.000Z</time>
      </trkpt>
      <trkpt lat="45.25797" lon="2.54466">
        <ele>1006</ele>
        <time>2024-01-31T08:25:49.000Z</time>
      </trkpt>
      <trkpt lat="45.25807" lon="2.54508">
        <ele>1007.200012207</ele>
        <time>2024-01-31T08:25:51.000Z</time>
      </trkpt>
      <trkpt lat="45.25816" lon="2.54549">
        <ele>1008.200012207</ele>
        <time>2024-01-31T08:25:53.000Z</time>
      </trkpt>
      <trkpt lat="45.25821" lon="2.54592">
        <ele>1009</ele>
        <time>2024-01-31T08:25:55.000Z</time>
      </trkpt>
      <trkpt lat="45.25823" lon="2.54614">
        <ele>1009.5999755859</ele>
        <time>2024-01-31T08:25:56.000Z</time>
      </trkpt>
      <trkpt lat="45.25827" lon="2.54683">
        <ele>1010.799987793</ele>
        <time>2024-01-31T08:25:59.000Z</time>
      </trkpt>
      <trkpt lat="45.25828" lon="2.54706">
        <ele>1011.200012207</ele>
        <time>2024-01-31T08:26:00.000Z</time>
      </trkpt>
      <trkpt lat="45.25829" lon="2.54729">
        <ele>1011.799987793</ele>
        <time>2024-01-31T08:26:01.000Z</time>
      </trkpt>
      <trkpt lat="45.25833" lon="2.548">
        <ele>1013</ele>
        <time>2024-01-31T08:26:04.000Z</time>
      </trkpt>
      <trkpt lat="45.25835" lon="2.54847">
        <ele>1013.5999755859</ele>
        <time>2024-01-31T08:26:06.000Z</time>
      </trkpt>
      <trkpt lat="45.25838" lon="2.54918">
        <ele>1014.200012207</ele>
        <time>2024-01-31T08:26:09.000Z</time>
      </trkpt>
      <trkpt lat="45.25847" lon="2.55008">
        <ele>1015.200012207</ele>
        <time>2024-01-31T08:26:13.000Z</time>
      </trkpt>
      <trkpt lat="45.25861" lon="2.55048">
        <ele>1016</ele>
        <time>2024-01-31T08:26:15.000Z</time>
      </trkpt>
      <trkpt lat="45.2587" lon="2.55067">
        <ele>1016.5999755859</ele>
        <time>2024-01-31T08:26:16.000Z</time>
      </trkpt>
      <trkpt lat="45.25892" lon="2.551">
        <ele>1017.799987793</ele>
        <time>2024-01-31T08:26:18.000Z</time>
      </trkpt>
      <trkpt lat="45.25903" lon="2.55116">
        <ele>1018.200012207</ele>
        <time>2024-01-31T08:26:19.000Z</time>
      </trkpt>
      <trkpt lat="45.2594" lon="2.55155">
        <ele>1019.200012207</ele>
        <time>2024-01-31T08:26:22.000Z</time>
      </trkpt>
      <trkpt lat="45.25952" lon="2.55169">
        <ele>1019.200012207</ele>
        <time>2024-01-31T08:26:23.000Z</time>
      </trkpt>
      <trkpt lat="45.25971" lon="2.55203">
        <ele>1020</ele>
        <time>2024-01-31T08:26:25.000Z</time>
      </trkpt>
      <trkpt lat="45.25978" lon="2.55223">
        <ele>1020.4000244141</ele>
        <time>2024-01-31T08:26:26.000Z</time>
      </trkpt>
      <trkpt lat="45.26001" lon="2.55314">
        <ele>1020.5999755859</ele>
        <time>2024-01-31T08:26:30.000Z</time>
      </trkpt>
      <trkpt lat="45.26016" lon="2.5541">
        <ele>1020.200012207</ele>
        <time>2024-01-31T08:26:34.000Z</time>
      </trkpt>
      <trkpt lat="45.26018" lon="2.55434">
        <ele>1020</ele>
        <time>2024-01-31T08:26:35.000Z</time>
      </trkpt>
      <trkpt lat="45.2602" lon="2.55479">
        <ele>1019.4000244141</ele>
        <time>2024-01-31T08:26:37.000Z</time>
      </trkpt>
      <trkpt lat="45.26024" lon="2.55523">
        <ele>1018.5999755859</ele>
        <time>2024-01-31T08:26:39.000Z</time>
      </trkpt>
      <trkpt lat="45.26038" lon="2.55563">
        <ele>1018.4000244141</ele>
        <time>2024-01-31T08:26:41.000Z</time>
      </trkpt>
      <trkpt lat="45.26047" lon="2.55582">
        <ele>1018.200012207</ele>
        <time>2024-01-31T08:26:42.000Z</time>
      </trkpt>
      <trkpt lat="45.26078" lon="2.55642">
        <ele>1018</ele>
        <time>2024-01-31T08:26:45.000Z</time>
      </trkpt>
      <trkpt lat="45.26098" lon="2.55683">
        <ele>1019.4000244141</ele>
        <time>2024-01-31T08:26:47.000Z</time>
      </trkpt>
      <trkpt lat="45.26108" lon="2.55702">
        <ele>1020.799987793</ele>
        <time>2024-01-31T08:26:48.000Z</time>
      </trkpt>
      <trkpt lat="45.26118" lon="2.55722">
        <ele>1021.799987793</ele>
        <time>2024-01-31T08:26:49.000Z</time>
      </trkpt>
      <trkpt lat="45.26137" lon="2.55762">
        <ele>1023.4000244141</ele>
        <time>2024-01-31T08:26:51.000Z</time>
      </trkpt>
      <trkpt lat="45.26147" lon="2.55781">
        <ele>1024.4000244141</ele>
        <time>2024-01-31T08:26:52.000Z</time>
      </trkpt>
      <trkpt lat="45.26156" lon="2.55802">
        <ele>1025</ele>
        <time>2024-01-31T08:26:53.000Z</time>
      </trkpt>
      <trkpt lat="45.26173" lon="2.55843">
        <ele>1026.5999755859</ele>
        <time>2024-01-31T08:26:55.000Z</time>
      </trkpt>
      <trkpt lat="45.26188" lon="2.55886">
        <ele>1028.4000244141</ele>
        <time>2024-01-31T08:26:57.000Z</time>
      </trkpt>
      <trkpt lat="45.262" lon="2.5593">
        <ele>1030.1999511719</ele>
        <time>2024-01-31T08:26:59.000Z</time>
      </trkpt>
      <trkpt lat="45.26205" lon="2.55952">
        <ele>1030.8000488281</ele>
        <time>2024-01-31T08:27:00.000Z</time>
      </trkpt>
      <trkpt lat="45.26208" lon="2.55975">
        <ele>1032</ele>
        <time>2024-01-31T08:27:01.000Z</time>
      </trkpt>
      <trkpt lat="45.26212" lon="2.56021">
        <ele>1033.4000244141</ele>
        <time>2024-01-31T08:27:03.000Z</time>
      </trkpt>
      <trkpt lat="45.26215" lon="2.56064">
        <ele>1034.8000488281</ele>
        <time>2024-01-31T08:27:05.000Z</time>
      </trkpt>
      <trkpt lat="45.26219" lon="2.56085">
        <ele>1035.5999755859</ele>
        <time>2024-01-31T08:27:06.000Z</time>
      </trkpt>
      <trkpt lat="45.26224" lon="2.56103">
        <ele>1036.1999511719</ele>
        <time>2024-01-31T08:27:07.000Z</time>
      </trkpt>
      <trkpt lat="45.26241" lon="2.56133">
        <ele>1037.4000244141</ele>
        <time>2024-01-31T08:27:09.000Z</time>
      </trkpt>
      <trkpt lat="45.26265" lon="2.56154">
        <ele>1039.1999511719</ele>
        <time>2024-01-31T08:27:11.000Z</time>
      </trkpt>
      <trkpt lat="45.2628" lon="2.56159">
        <ele>1039.8000488281</ele>
        <time>2024-01-31T08:27:12.000Z</time>
      </trkpt>
      <trkpt lat="45.26296" lon="2.56162">
        <ele>1040.1999511719</ele>
        <time>2024-01-31T08:27:13.000Z</time>
      </trkpt>
      <trkpt lat="45.26312" lon="2.56162">
        <ele>1041.1999511719</ele>
        <time>2024-01-31T08:27:14.000Z</time>
      </trkpt>
      <trkpt lat="45.2633" lon="2.56162">
        <ele>1042</ele>
        <time>2024-01-31T08:27:15.000Z</time>
      </trkpt>
      <trkpt lat="45.26346" lon="2.56162">
        <ele>1042.8000488281</ele>
        <time>2024-01-31T08:27:16.000Z</time>
      </trkpt>
      <trkpt lat="45.26362" lon="2.56165">
        <ele>1043.8000488281</ele>
        <time>2024-01-31T08:27:17.000Z</time>
      </trkpt>
      <trkpt lat="45.26377" lon="2.5617">
        <ele>1044.1999511719</ele>
        <time>2024-01-31T08:27:18.000Z</time>
      </trkpt>
      <trkpt lat="45.2639" lon="2.56181">
        <ele>1045</ele>
        <time>2024-01-31T08:27:19.000Z</time>
      </trkpt>
      <trkpt lat="45.26402" lon="2.56194">
        <ele>1045.8000488281</ele>
        <time>2024-01-31T08:27:20.000Z</time>
      </trkpt>
      <trkpt lat="45.26413" lon="2.56208">
        <ele>1046.1999511719</ele>
        <time>2024-01-31T08:27:21.000Z</time>
      </trkpt>
      <trkpt lat="45.2642" lon="2.56224">
        <ele>1046.5999755859</ele>
        <time>2024-01-31T08:27:22.000Z</time>
      </trkpt>
      <trkpt lat="45.26425" lon="2.56242">
        <ele>1046.8000488281</ele>
        <time>2024-01-31T08:27:23.000Z</time>
      </trkpt>
      <trkpt lat="45.2643" lon="2.56279">
        <ele>1046.8000488281</ele>
        <time>2024-01-31T08:27:25.000Z</time>
      </trkpt>
      <trkpt lat="45.26428" lon="2.5634">
        <ele>1046.1999511719</ele>
        <time>2024-01-31T08:27:28.000Z</time>
      </trkpt>
      <trkpt lat="45.26424" lon="2.56385">
        <ele>1045.5999755859</ele>
        <time>2024-01-31T08:27:30.000Z</time>
      </trkpt>
      <trkpt lat="45.26421" lon="2.5643">
        <ele>1044</ele>
        <time>2024-01-31T08:27:32.000Z</time>
      </trkpt>
      <trkpt lat="45.26419" lon="2.56452">
        <ele>1043.5999755859</ele>
        <time>2024-01-31T08:27:33.000Z</time>
      </trkpt>
      <trkpt lat="45.26417" lon="2.56473">
        <ele>1042.5999755859</ele>
        <time>2024-01-31T08:27:34.000Z</time>
      </trkpt>
      <trkpt lat="45.26416" lon="2.56493">
        <ele>1041.8000488281</ele>
        <time>2024-01-31T08:27:35.000Z</time>
      </trkpt>
      <trkpt lat="45.26417" lon="2.56512">
        <ele>1040.8000488281</ele>
        <time>2024-01-31T08:27:36.000Z</time>
      </trkpt>
      <trkpt lat="45.26419" lon="2.5653">
        <ele>1040</ele>
        <time>2024-01-31T08:27:37.000Z</time>
      </trkpt>
      <trkpt lat="45.26424" lon="2.56547">
        <ele>1039</ele>
        <time>2024-01-31T08:27:38.000Z</time>
      </trkpt>
      <trkpt lat="45.2643" lon="2.56563">
        <ele>1038.5999755859</ele>
        <time>2024-01-31T08:27:39.000Z</time>
      </trkpt>
      <trkpt lat="45.26437" lon="2.56577">
        <ele>1037.8000488281</ele>
        <time>2024-01-31T08:27:40.000Z</time>
      </trkpt>
      <trkpt lat="45.26456" lon="2.56603">
        <ele>1036.5999755859</ele>
        <time>2024-01-31T08:27:42.000Z</time>
      </trkpt>
      <trkpt lat="45.26488" lon="2.56644">
        <ele>1034.8000488281</ele>
        <time>2024-01-31T08:27:45.000Z</time>
      </trkpt>
      <trkpt lat="45.26497" lon="2.56659">
        <ele>1034.1999511719</ele>
        <time>2024-01-31T08:27:46.000Z</time>
      </trkpt>
      <trkpt lat="45.26504" lon="2.56675">
        <ele>1033</ele>
        <time>2024-01-31T08:27:47.000Z</time>
      </trkpt>
      <trkpt lat="45.26509" lon="2.56693">
        <ele>1032.4000244141</ele>
        <time>2024-01-31T08:27:48.000Z</time>
      </trkpt>
      <trkpt lat="45.26513" lon="2.56712">
        <ele>1031.5999755859</ele>
        <time>2024-01-31T08:27:49.000Z</time>
      </trkpt>
      <trkpt lat="45.26513" lon="2.5673">
        <ele>1031</ele>
        <time>2024-01-31T08:27:50.000Z</time>
      </trkpt>
      <trkpt lat="45.2651" lon="2.56748">
        <ele>1030.4000244141</ele>
        <time>2024-01-31T08:27:51.000Z</time>
      </trkpt>
      <trkpt lat="45.26506" lon="2.56766">
        <ele>1029.5999755859</ele>
        <time>2024-01-31T08:27:52.000Z</time>
      </trkpt>
      <trkpt lat="45.26499" lon="2.56783">
        <ele>1029</ele>
        <time>2024-01-31T08:27:53.000Z</time>
      </trkpt>
      <trkpt lat="45.26492" lon="2.56798">
        <ele>1028.1999511719</ele>
        <time>2024-01-31T08:27:54.000Z</time>
      </trkpt>
      <trkpt lat="45.26482" lon="2.56811">
        <ele>1027.1999511719</ele>
        <time>2024-01-31T08:27:55.000Z</time>
      </trkpt>
      <trkpt lat="45.2647" lon="2.56821">
        <ele>1026.4000244141</ele>
        <time>2024-01-31T08:27:56.000Z</time>
      </trkpt>
      <trkpt lat="45.26458" lon="2.56831">
        <ele>1026.1999511719</ele>
        <time>2024-01-31T08:27:57.000Z</time>
      </trkpt>
      <trkpt lat="45.26433" lon="2.5685">
        <ele>1025.1999511719</ele>
        <time>2024-01-31T08:27:59.000Z</time>
      </trkpt>
      <trkpt lat="45.26409" lon="2.56867">
        <ele>1024</ele>
        <time>2024-01-31T08:28:01.000Z</time>
      </trkpt>
      <trkpt lat="45.26383" lon="2.56878">
        <ele>1022.4000244141</ele>
        <time>2024-01-31T08:28:03.000Z</time>
      </trkpt>
      <trkpt lat="45.26368" lon="2.5688">
        <ele>1022</ele>
        <time>2024-01-31T08:28:04.000Z</time>
      </trkpt>
      <trkpt lat="45.2634" lon="2.56884">
        <ele>1020.799987793</ele>
        <time>2024-01-31T08:28:06.000Z</time>
      </trkpt>
      <trkpt lat="45.26326" lon="2.56887">
        <ele>1020.200012207</ele>
        <time>2024-01-31T08:28:07.000Z</time>
      </trkpt>
      <trkpt lat="45.26312" lon="2.56893">
        <ele>1019.5999755859</ele>
        <time>2024-01-31T08:28:08.000Z</time>
      </trkpt>
      <trkpt lat="45.26299" lon="2.569">
        <ele>1018.799987793</ele>
        <time>2024-01-31T08:28:09.000Z</time>
      </trkpt>
      <trkpt lat="45.26285" lon="2.56909">
        <ele>1018.200012207</ele>
        <time>2024-01-31T08:28:10.000Z</time>
      </trkpt>
      <trkpt lat="45.26272" lon="2.56919">
        <ele>1017.5999755859</ele>
        <time>2024-01-31T08:28:11.000Z</time>
      </trkpt>
      <trkpt lat="45.26247" lon="2.56942">
        <ele>1016.4000244141</ele>
        <time>2024-01-31T08:28:13.000Z</time>
      </trkpt>
      <trkpt lat="45.26222" lon="2.56964">
        <ele>1014.5999755859</ele>
        <time>2024-01-31T08:28:15.000Z</time>
      </trkpt>
      <trkpt lat="45.26201" lon="2.56989">
        <ele>1013</ele>
        <time>2024-01-31T08:28:17.000Z</time>
      </trkpt>
      <trkpt lat="45.26191" lon="2.57003">
        <ele>1011.5999755859</ele>
        <time>2024-01-31T08:28:18.000Z</time>
      </trkpt>
      <trkpt lat="45.26184" lon="2.57018">
        <ele>1010.200012207</ele>
        <time>2024-01-31T08:28:19.000Z</time>
      </trkpt>
      <trkpt lat="45.26179" lon="2.57034">
        <ele>1009.200012207</ele>
        <time>2024-01-31T08:28:20.000Z</time>
      </trkpt>
      <trkpt lat="45.26176" lon="2.57053">
        <ele>1008.4000244141</ele>
        <time>2024-01-31T08:28:21.000Z</time>
      </trkpt>
      <trkpt lat="45.26176" lon="2.57072">
        <ele>1007.799987793</ele>
        <time>2024-01-31T08:28:22.000Z</time>
      </trkpt>
      <trkpt lat="45.26178" lon="2.57091">
        <ele>1007.200012207</ele>
        <time>2024-01-31T08:28:23.000Z</time>
      </trkpt>
      <trkpt lat="45.26184" lon="2.57109">
        <ele>1006</ele>
        <time>2024-01-31T08:28:24.000Z</time>
      </trkpt>
      <trkpt lat="45.2619" lon="2.57125">
        <ele>1005</ele>
        <time>2024-01-31T08:28:25.000Z</time>
      </trkpt>
      <trkpt lat="45.26199" lon="2.57139">
        <ele>1003.5999755859</ele>
        <time>2024-01-31T08:28:26.000Z</time>
      </trkpt>
      <trkpt lat="45.26211" lon="2.5715">
        <ele>1002.5999755859</ele>
        <time>2024-01-31T08:28:27.000Z</time>
      </trkpt>
      <trkpt lat="45.26224" lon="2.57159">
        <ele>1001.5999755859</ele>
        <time>2024-01-31T08:28:28.000Z</time>
      </trkpt>
      <trkpt lat="45.26252" lon="2.57171">
        <ele>1000.200012207</ele>
        <time>2024-01-31T08:28:30.000Z</time>
      </trkpt>
      <trkpt lat="45.26286" lon="2.57184">
        <ele>999.20001220703</ele>
        <time>2024-01-31T08:28:32.000Z</time>
      </trkpt>
      <trkpt lat="45.26316" lon="2.57194">
        <ele>997.79998779297</ele>
        <time>2024-01-31T08:28:34.000Z</time>
      </trkpt>
      <trkpt lat="45.26348" lon="2.5721">
        <ele>996.59997558594</ele>
        <time>2024-01-31T08:28:36.000Z</time>
      </trkpt>
      <trkpt lat="45.26363" lon="2.5722">
        <ele>995.79998779297</ele>
        <time>2024-01-31T08:28:37.000Z</time>
      </trkpt>
      <trkpt lat="45.26378" lon="2.57232">
        <ele>995.20001220703</ele>
        <time>2024-01-31T08:28:38.000Z</time>
      </trkpt>
      <trkpt lat="45.26408" lon="2.57251">
        <ele>994</ele>
        <time>2024-01-31T08:28:40.000Z</time>
      </trkpt>
      <trkpt lat="45.26424" lon="2.57258">
        <ele>993.40002441406</ele>
        <time>2024-01-31T08:28:41.000Z</time>
      </trkpt>
      <trkpt lat="45.26457" lon="2.57267">
        <ele>992.59997558594</ele>
        <time>2024-01-31T08:28:43.000Z</time>
      </trkpt>
      <trkpt lat="45.26492" lon="2.57274">
        <ele>991.40002441406</ele>
        <time>2024-01-31T08:28:45.000Z</time>
      </trkpt>
      <trkpt lat="45.26525" lon="2.57272">
        <ele>989.79998779297</ele>
        <time>2024-01-31T08:28:47.000Z</time>
      </trkpt>
      <trkpt lat="45.26541" lon="2.57272">
        <ele>989.20001220703</ele>
        <time>2024-01-31T08:28:48.000Z</time>
      </trkpt>
      <trkpt lat="45.26557" lon="2.57273">
        <ele>988.79998779297</ele>
        <time>2024-01-31T08:28:49.000Z</time>
      </trkpt>
      <trkpt lat="45.26572" lon="2.57277">
        <ele>987.59997558594</ele>
        <time>2024-01-31T08:28:50.000Z</time>
      </trkpt>
      <trkpt lat="45.26587" lon="2.57284">
        <ele>987.40002441406</ele>
        <time>2024-01-31T08:28:51.000Z</time>
      </trkpt>
      <trkpt lat="45.26615" lon="2.57305">
        <ele>986.40002441406</ele>
        <time>2024-01-31T08:28:53.000Z</time>
      </trkpt>
      <trkpt lat="45.26643" lon="2.5733">
        <ele>985.20001220703</ele>
        <time>2024-01-31T08:28:55.000Z</time>
      </trkpt>
      <trkpt lat="45.26672" lon="2.57353">
        <ele>983.79998779297</ele>
        <time>2024-01-31T08:28:57.000Z</time>
      </trkpt>
      <trkpt lat="45.26701" lon="2.57376">
        <ele>982</ele>
        <time>2024-01-31T08:28:59.000Z</time>
      </trkpt>
      <trkpt lat="45.26726" lon="2.57402">
        <ele>980.20001220703</ele>
        <time>2024-01-31T08:29:01.000Z</time>
      </trkpt>
      <trkpt lat="45.26737" lon="2.57418">
        <ele>978.79998779297</ele>
        <time>2024-01-31T08:29:02.000Z</time>
      </trkpt>
      <trkpt lat="45.26746" lon="2.57436">
        <ele>978</ele>
        <time>2024-01-31T08:29:03.000Z</time>
      </trkpt>
      <trkpt lat="45.26752" lon="2.57455">
        <ele>977.40002441406</ele>
        <time>2024-01-31T08:29:04.000Z</time>
      </trkpt>
      <trkpt lat="45.26757" lon="2.57476">
        <ele>976.40002441406</ele>
        <time>2024-01-31T08:29:05.000Z</time>
      </trkpt>
      <trkpt lat="45.26761" lon="2.57498">
        <ele>975.79998779297</ele>
        <time>2024-01-31T08:29:06.000Z</time>
      </trkpt>
      <trkpt lat="45.26762" lon="2.57521">
        <ele>975.40002441406</ele>
        <time>2024-01-31T08:29:07.000Z</time>
      </trkpt>
      <trkpt lat="45.26763" lon="2.57538">
        <ele>975</ele>
        <time>2024-01-31T08:29:08.000Z</time>
      </trkpt>
      <trkpt lat="45.26765" lon="2.57566">
        <ele>974.20001220703</ele>
        <time>2024-01-31T08:29:09.000Z</time>
      </trkpt>
      <trkpt lat="45.2677" lon="2.57611">
        <ele>973.20001220703</ele>
        <time>2024-01-31T08:29:11.000Z</time>
      </trkpt>
      <trkpt lat="45.26777" lon="2.57651">
        <ele>972.59997558594</ele>
        <time>2024-01-31T08:29:13.000Z</time>
      </trkpt>
      <trkpt lat="45.26781" lon="2.57674">
        <ele>971.79998779297</ele>
        <time>2024-01-31T08:29:14.000Z</time>
      </trkpt>
      <trkpt lat="45.26791" lon="2.57725">
        <ele>970.59997558594</ele>
        <time>2024-01-31T08:29:16.000Z</time>
      </trkpt>
      <trkpt lat="45.26796" lon="2.57747">
        <ele>969.59997558594</ele>
        <time>2024-01-31T08:29:17.000Z</time>
      </trkpt>
      <trkpt lat="45.26806" lon="2.57788">
        <ele>968.40002441406</ele>
        <time>2024-01-31T08:29:19.000Z</time>
      </trkpt>
      <trkpt lat="45.26813" lon="2.57833">
        <ele>966.79998779297</ele>
        <time>2024-01-31T08:29:21.000Z</time>
      </trkpt>
      <trkpt lat="45.26815" lon="2.57861">
        <ele>966.20001220703</ele>
        <time>2024-01-31T08:29:22.000Z</time>
      </trkpt>
      <trkpt lat="45.26814" lon="2.57884">
        <ele>965.59997558594</ele>
        <time>2024-01-31T08:29:23.000Z</time>
      </trkpt>
      <trkpt lat="45.26807" lon="2.57931">
        <ele>963.79998779297</ele>
        <time>2024-01-31T08:29:25.000Z</time>
      </trkpt>
      <trkpt lat="45.26795" lon="2.57976">
        <ele>962.40002441406</ele>
        <time>2024-01-31T08:29:27.000Z</time>
      </trkpt>
      <trkpt lat="45.26783" lon="2.58021">
        <ele>961</ele>
        <time>2024-01-31T08:29:29.000Z</time>
      </trkpt>
      <trkpt lat="45.26775" lon="2.58043">
        <ele>960.59997558594</ele>
        <time>2024-01-31T08:29:30.000Z</time>
      </trkpt>
      <trkpt lat="45.26768" lon="2.58066">
        <ele>959.79998779297</ele>
        <time>2024-01-31T08:29:31.000Z</time>
      </trkpt>
      <trkpt lat="45.26752" lon="2.58111">
        <ele>958.59997558594</ele>
        <time>2024-01-31T08:29:33.000Z</time>
      </trkpt>
      <trkpt lat="45.26741" lon="2.58138">
        <ele>958</ele>
        <time>2024-01-31T08:29:34.000Z</time>
      </trkpt>
      <trkpt lat="45.26731" lon="2.58159">
        <ele>957.20001220703</ele>
        <time>2024-01-31T08:29:35.000Z</time>
      </trkpt>
      <trkpt lat="45.26709" lon="2.58199">
        <ele>956</ele>
        <time>2024-01-31T08:29:37.000Z</time>
      </trkpt>
      <trkpt lat="45.267" lon="2.58215">
        <ele>955.40002441406</ele>
        <time>2024-01-31T08:29:38.000Z</time>
      </trkpt>
      <trkpt lat="45.26688" lon="2.58235">
        <ele>954.59997558594</ele>
        <time>2024-01-31T08:29:39.000Z</time>
      </trkpt>
      <trkpt lat="45.26666" lon="2.58278">
        <ele>953.40002441406</ele>
        <time>2024-01-31T08:29:41.000Z</time>
      </trkpt>
      <trkpt lat="45.26659" lon="2.58297">
        <ele>952.59997558594</ele>
        <time>2024-01-31T08:29:42.000Z</time>
      </trkpt>
      <trkpt lat="45.26655" lon="2.58313">
        <ele>951.59997558594</ele>
        <time>2024-01-31T08:29:43.000Z</time>
      </trkpt>
      <trkpt lat="45.26648" lon="2.58338">
        <ele>950.59997558594</ele>
        <time>2024-01-31T08:29:44.000Z</time>
      </trkpt>
      <trkpt lat="45.26645" lon="2.58356">
        <ele>949.79998779297</ele>
        <time>2024-01-31T08:29:45.000Z</time>
      </trkpt>
      <trkpt lat="45.26645" lon="2.58378">
        <ele>949.20001220703</ele>
        <time>2024-01-31T08:29:46.000Z</time>
      </trkpt>
      <trkpt lat="45.26645" lon="2.584">
        <ele>948.40002441406</ele>
        <time>2024-01-31T08:29:47.000Z</time>
      </trkpt>
      <trkpt lat="45.26647" lon="2.58422">
        <ele>948.20001220703</ele>
        <time>2024-01-31T08:29:48.000Z</time>
      </trkpt>
      <trkpt lat="45.2665" lon="2.58466">
        <ele>946.59997558594</ele>
        <time>2024-01-31T08:29:50.000Z</time>
      </trkpt>
      <trkpt lat="45.26656" lon="2.58511">
        <ele>945.40002441406</ele>
        <time>2024-01-31T08:29:52.000Z</time>
      </trkpt>
      <trkpt lat="45.26656" lon="2.58535">
        <ele>944.59997558594</ele>
        <time>2024-01-31T08:29:53.000Z</time>
      </trkpt>
      <trkpt lat="45.26655" lon="2.58558">
        <ele>944</ele>
        <time>2024-01-31T08:29:54.000Z</time>
      </trkpt>
      <trkpt lat="45.26652" lon="2.5858">
        <ele>943.40002441406</ele>
        <time>2024-01-31T08:29:55.000Z</time>
      </trkpt>
      <trkpt lat="45.26648" lon="2.58602">
        <ele>942.59997558594</ele>
        <time>2024-01-31T08:29:56.000Z</time>
      </trkpt>
      <trkpt lat="45.26632" lon="2.58671">
        <ele>941.20001220703</ele>
        <time>2024-01-31T08:29:59.000Z</time>
      </trkpt>
      <trkpt lat="45.26623" lon="2.58717">
        <ele>939.79998779297</ele>
        <time>2024-01-31T08:30:01.000Z</time>
      </trkpt>
      <trkpt lat="45.2662" lon="2.5874">
        <ele>939.20001220703</ele>
        <time>2024-01-31T08:30:02.000Z</time>
      </trkpt>
      <trkpt lat="45.26618" lon="2.58764">
        <ele>938.40002441406</ele>
        <time>2024-01-31T08:30:03.000Z</time>
      </trkpt>
      <trkpt lat="45.26617" lon="2.58789">
        <ele>937.40002441406</ele>
        <time>2024-01-31T08:30:04.000Z</time>
      </trkpt>
      <trkpt lat="45.26617" lon="2.58839">
        <ele>935.59997558594</ele>
        <time>2024-01-31T08:30:06.000Z</time>
      </trkpt>
      <trkpt lat="45.26617" lon="2.58865">
        <ele>934.40002441406</ele>
        <time>2024-01-31T08:30:07.000Z</time>
      </trkpt>
      <trkpt lat="45.26618" lon="2.58916">
        <ele>932.40002441406</ele>
        <time>2024-01-31T08:30:09.000Z</time>
      </trkpt>
      <trkpt lat="45.26621" lon="2.58966">
        <ele>931.20001220703</ele>
        <time>2024-01-31T08:30:11.000Z</time>
      </trkpt>
      <trkpt lat="45.26623" lon="2.58991">
        <ele>930.20001220703</ele>
        <time>2024-01-31T08:30:12.000Z</time>
      </trkpt>
      <trkpt lat="45.26627" lon="2.59016">
        <ele>929.40002441406</ele>
        <time>2024-01-31T08:30:13.000Z</time>
      </trkpt>
      <trkpt lat="45.26635" lon="2.59066">
        <ele>927.79998779297</ele>
        <time>2024-01-31T08:30:15.000Z</time>
      </trkpt>
      <trkpt lat="45.26644" lon="2.59116">
        <ele>926.20001220703</ele>
        <time>2024-01-31T08:30:17.000Z</time>
      </trkpt>
      <trkpt lat="45.26654" lon="2.59166">
        <ele>924.59997558594</ele>
        <time>2024-01-31T08:30:19.000Z</time>
      </trkpt>
      <trkpt lat="45.26662" lon="2.59215">
        <ele>923.20001220703</ele>
        <time>2024-01-31T08:30:21.000Z</time>
      </trkpt>
      <trkpt lat="45.26667" lon="2.59239">
        <ele>923</ele>
        <time>2024-01-31T08:30:22.000Z</time>
      </trkpt>
      <trkpt lat="45.2667" lon="2.59263">
        <ele>922</ele>
        <time>2024-01-31T08:30:23.000Z</time>
      </trkpt>
      <trkpt lat="45.26673" lon="2.5931">
        <ele>921</ele>
        <time>2024-01-31T08:30:25.000Z</time>
      </trkpt>
      <trkpt lat="45.26667" lon="2.59354">
        <ele>919</ele>
        <time>2024-01-31T08:30:27.000Z</time>
      </trkpt>
      <trkpt lat="45.26659" lon="2.59397">
        <ele>918.20001220703</ele>
        <time>2024-01-31T08:30:29.000Z</time>
      </trkpt>
      <trkpt lat="45.26658" lon="2.59418">
        <ele>917.59997558594</ele>
        <time>2024-01-31T08:30:30.000Z</time>
      </trkpt>
      <trkpt lat="45.26658" lon="2.5944">
        <ele>916.40002441406</ele>
        <time>2024-01-31T08:30:31.000Z</time>
      </trkpt>
      <trkpt lat="45.2666" lon="2.59461">
        <ele>915.79998779297</ele>
        <time>2024-01-31T08:30:32.000Z</time>
      </trkpt>
      <trkpt lat="45.26664" lon="2.59482">
        <ele>915.79998779297</ele>
        <time>2024-01-31T08:30:33.000Z</time>
      </trkpt>
      <trkpt lat="45.2667" lon="2.59502">
        <ele>915.20001220703</ele>
        <time>2024-01-31T08:30:34.000Z</time>
      </trkpt>
      <trkpt lat="45.26693" lon="2.59565">
        <ele>914.20001220703</ele>
        <time>2024-01-31T08:30:37.000Z</time>
      </trkpt>
      <trkpt lat="45.26713" lon="2.59625">
        <ele>912.59997558594</ele>
        <time>2024-01-31T08:30:40.000Z</time>
      </trkpt>
      <trkpt lat="45.26721" lon="2.59661">
        <ele>910.79998779297</ele>
        <time>2024-01-31T08:30:42.000Z</time>
      </trkpt>
      <trkpt lat="45.26719" lon="2.59719">
        <ele>909.59997558594</ele>
        <time>2024-01-31T08:30:45.000Z</time>
      </trkpt>
      <trkpt lat="45.26709" lon="2.59809">
        <ele>908.59997558594</ele>
        <time>2024-01-31T08:30:49.000Z</time>
      </trkpt>
      <trkpt lat="45.26701" lon="2.59854">
        <ele>907.59997558594</ele>
        <time>2024-01-31T08:30:51.000Z</time>
      </trkpt>
      <trkpt lat="45.26694" lon="2.59874">
        <ele>906.79998779297</ele>
        <time>2024-01-31T08:30:52.000Z</time>
      </trkpt>
      <trkpt lat="45.26685" lon="2.59892">
        <ele>906</ele>
        <time>2024-01-31T08:30:53.000Z</time>
      </trkpt>
      <trkpt lat="45.26669" lon="2.59929">
        <ele>905</ele>
        <time>2024-01-31T08:30:55.000Z</time>
      </trkpt>
      <trkpt lat="45.26663" lon="2.59948">
        <ele>904.20001220703</ele>
        <time>2024-01-31T08:30:56.000Z</time>
      </trkpt>
      <trkpt lat="45.26659" lon="2.59969">
        <ele>903.79998779297</ele>
        <time>2024-01-31T08:30:57.000Z</time>
      </trkpt>
      <trkpt lat="45.26647" lon="2.60035">
        <ele>902.40002441406</ele>
        <time>2024-01-31T08:31:00.000Z</time>
      </trkpt>
      <trkpt lat="45.26643" lon="2.60101">
        <ele>901.20001220703</ele>
        <time>2024-01-31T08:31:03.000Z</time>
      </trkpt>
      <trkpt lat="45.26644" lon="2.60143">
        <ele>899.59997558594</ele>
        <time>2024-01-31T08:31:05.000Z</time>
      </trkpt>
      <trkpt lat="45.26644" lon="2.60183">
        <ele>898.40002441406</ele>
        <time>2024-01-31T08:31:07.000Z</time>
      </trkpt>
      <trkpt lat="45.26643" lon="2.60201">
        <ele>898</ele>
        <time>2024-01-31T08:31:08.000Z</time>
      </trkpt>
      <trkpt lat="45.2664" lon="2.60218">
        <ele>897.40002441406</ele>
        <time>2024-01-31T08:31:09.000Z</time>
      </trkpt>
      <trkpt lat="45.26633" lon="2.6025">
        <ele>896.59997558594</ele>
        <time>2024-01-31T08:31:11.000Z</time>
      </trkpt>
      <trkpt lat="45.2663" lon="2.60264">
        <ele>896</ele>
        <time>2024-01-31T08:31:12.000Z</time>
      </trkpt>
      <trkpt lat="45.26628" lon="2.60278">
        <ele>895.79998779297</ele>
        <time>2024-01-31T08:31:13.000Z</time>
      </trkpt>
      <trkpt lat="45.26628" lon="2.60291">
        <ele>895.40002441406</ele>
        <time>2024-01-31T08:31:14.000Z</time>
      </trkpt>
      <trkpt lat="45.26631" lon="2.60303">
        <ele>895</ele>
        <time>2024-01-31T08:31:15.000Z</time>
      </trkpt>
      <trkpt lat="45.26635" lon="2.60313">
        <ele>894.79998779297</ele>
        <time>2024-01-31T08:31:16.000Z</time>
      </trkpt>
      <trkpt lat="45.26641" lon="2.60321">
        <ele>894.79998779297</ele>
        <time>2024-01-31T08:31:17.000Z</time>
      </trkpt>
      <trkpt lat="45.26648" lon="2.60326">
        <ele>894.59997558594</ele>
        <time>2024-01-31T08:31:18.000Z</time>
      </trkpt>
      <trkpt lat="45.26655" lon="2.60327">
        <ele>894.59997558594</ele>
        <time>2024-01-31T08:31:19.000Z</time>
      </trkpt>
      <trkpt lat="45.26664" lon="2.60323">
        <ele>894.59997558594</ele>
        <time>2024-01-31T08:31:20.000Z</time>
      </trkpt>
      <trkpt lat="45.26672" lon="2.60315">
        <ele>894.59997558594</ele>
        <time>2024-01-31T08:31:21.000Z</time>
      </trkpt>
      <trkpt lat="45.26679" lon="2.60304">
        <ele>895</ele>
        <time>2024-01-31T08:31:22.000Z</time>
      </trkpt>
      <trkpt lat="45.26702" lon="2.60272">
        <ele>895</ele>
        <time>2024-01-31T08:31:25.000Z</time>
      </trkpt>
      <trkpt lat="45.26721" lon="2.6026">
        <ele>895.20001220703</ele>
        <time>2024-01-31T08:31:27.000Z</time>
      </trkpt>
      <trkpt lat="45.26732" lon="2.60259">
        <ele>895.40002441406</ele>
        <time>2024-01-31T08:31:28.000Z</time>
      </trkpt>
      <trkpt lat="45.26764" lon="2.60262">
        <ele>896.20001220703</ele>
        <time>2024-01-31T08:31:31.000Z</time>
      </trkpt>
      <trkpt lat="45.26772" lon="2.60266">
        <ele>896.40002441406</ele>
        <time>2024-01-31T08:31:32.000Z</time>
      </trkpt>
      <trkpt lat="45.26789" lon="2.60281">
        <ele>896.79998779297</ele>
        <time>2024-01-31T08:31:34.000Z</time>
      </trkpt>
      <trkpt lat="45.26797" lon="2.60292">
        <ele>897.20001220703</ele>
        <time>2024-01-31T08:31:35.000Z</time>
      </trkpt>
      <trkpt lat="45.26804" lon="2.60304">
        <ele>897.40002441406</ele>
        <time>2024-01-31T08:31:36.000Z</time>
      </trkpt>
      <trkpt lat="45.26831" lon="2.60349">
        <ele>898.59997558594</ele>
        <time>2024-01-31T08:31:40.000Z</time>
      </trkpt>
      <trkpt lat="45.26844" lon="2.60372">
        <ele>899</ele>
        <time>2024-01-31T08:31:42.000Z</time>
      </trkpt>
      <trkpt lat="45.26859" lon="2.60394">
        <ele>899.59997558594</ele>
        <time>2024-01-31T08:31:44.000Z</time>
      </trkpt>
      <trkpt lat="45.26882" lon="2.6043">
        <ele>900.59997558594</ele>
        <time>2024-01-31T08:31:47.000Z</time>
      </trkpt>
      <trkpt lat="45.26897" lon="2.60455">
        <ele>901.20001220703</ele>
        <time>2024-01-31T08:31:49.000Z</time>
      </trkpt>
      <trkpt lat="45.26903" lon="2.60468">
        <ele>901.59997558594</ele>
        <time>2024-01-31T08:31:50.000Z</time>
      </trkpt>
      <trkpt lat="45.26909" lon="2.60481">
        <ele>901.79998779297</ele>
        <time>2024-01-31T08:31:51.000Z</time>
      </trkpt>
      <trkpt lat="45.26919" lon="2.60505">
        <ele>902</ele>
        <time>2024-01-31T08:31:53.000Z</time>
      </trkpt>
      <trkpt lat="45.26929" lon="2.60527">
        <ele>902.20001220703</ele>
        <time>2024-01-31T08:31:55.000Z</time>
      </trkpt>
      <trkpt lat="45.26943" lon="2.60539">
        <ele>902.40002441406</ele>
        <time>2024-01-31T08:31:57.000Z</time>
      </trkpt>
      <trkpt lat="45.26963" lon="2.60539">
        <ele>902.40002441406</ele>
        <time>2024-01-31T08:31:59.000Z</time>
      </trkpt>
      <trkpt lat="45.26974" lon="2.60537">
        <ele>903</ele>
        <time>2024-01-31T08:32:00.000Z</time>
      </trkpt>
      <trkpt lat="45.26998" lon="2.60536">
        <ele>903.59997558594</ele>
        <time>2024-01-31T08:32:02.000Z</time>
      </trkpt>
      <trkpt lat="45.2701" lon="2.60539">
        <ele>904.20001220703</ele>
        <time>2024-01-31T08:32:03.000Z</time>
      </trkpt>
      <trkpt lat="45.27049" lon="2.60548">
        <ele>904.59997558594</ele>
        <time>2024-01-31T08:32:06.000Z</time>
      </trkpt>
      <trkpt lat="45.27063" lon="2.60548">
        <ele>904.59997558594</ele>
        <time>2024-01-31T08:32:07.000Z</time>
      </trkpt>
      <trkpt lat="45.27077" lon="2.60545">
        <ele>904.79998779297</ele>
        <time>2024-01-31T08:32:08.000Z</time>
      </trkpt>
      <trkpt lat="45.271" lon="2.6053">
        <ele>905</ele>
        <time>2024-01-31T08:32:10.000Z</time>
      </trkpt>
      <trkpt lat="45.27121" lon="2.60507">
        <ele>905.40002441406</ele>
        <time>2024-01-31T08:32:12.000Z</time>
      </trkpt>
      <trkpt lat="45.27143" lon="2.60481">
        <ele>906</ele>
        <time>2024-01-31T08:32:14.000Z</time>
      </trkpt>
      <trkpt lat="45.27164" lon="2.60455">
        <ele>906.40002441406</ele>
        <time>2024-01-31T08:32:16.000Z</time>
      </trkpt>
      <trkpt lat="45.27196" lon="2.60416">
        <ele>906.79998779297</ele>
        <time>2024-01-31T08:32:19.000Z</time>
      </trkpt>
      <trkpt lat="45.27207" lon="2.60406">
        <ele>906.79998779297</ele>
        <time>2024-01-31T08:32:20.000Z</time>
      </trkpt>
      <trkpt lat="45.27219" lon="2.60398">
        <ele>907.20001220703</ele>
        <time>2024-01-31T08:32:21.000Z</time>
      </trkpt>
      <trkpt lat="45.27233" lon="2.60392">
        <ele>907.40002441406</ele>
        <time>2024-01-31T08:32:22.000Z</time>
      </trkpt>
      <trkpt lat="45.27246" lon="2.60388">
        <ele>907.40002441406</ele>
        <time>2024-01-31T08:32:23.000Z</time>
      </trkpt>
      <trkpt lat="45.27259" lon="2.60387">
        <ele>907.59997558594</ele>
        <time>2024-01-31T08:32:24.000Z</time>
      </trkpt>
      <trkpt lat="45.2727" lon="2.60389">
        <ele>907.59997558594</ele>
        <time>2024-01-31T08:32:25.000Z</time>
      </trkpt>
      <trkpt lat="45.2728" lon="2.60395">
        <ele>907.59997558594</ele>
        <time>2024-01-31T08:32:26.000Z</time>
      </trkpt>
      <trkpt lat="45.27288" lon="2.60405">
        <ele>907.79998779297</ele>
        <time>2024-01-31T08:32:27.000Z</time>
      </trkpt>
      <trkpt lat="45.27293" lon="2.60419">
        <ele>907.79998779297</ele>
        <time>2024-01-31T08:32:28.000Z</time>
      </trkpt>
      <trkpt lat="45.27296" lon="2.60435">
        <ele>908</ele>
        <time>2024-01-31T08:32:29.000Z</time>
      </trkpt>
      <trkpt lat="45.27298" lon="2.60453">
        <ele>908.40002441406</ele>
        <time>2024-01-31T08:32:30.000Z</time>
      </trkpt>
      <trkpt lat="45.27298" lon="2.60492">
        <ele>908.79998779297</ele>
        <time>2024-01-31T08:32:32.000Z</time>
      </trkpt>
      <trkpt lat="45.273" lon="2.60533">
        <ele>909.20001220703</ele>
        <time>2024-01-31T08:32:34.000Z</time>
      </trkpt>
      <trkpt lat="45.27305" lon="2.60553">
        <ele>909.40002441406</ele>
        <time>2024-01-31T08:32:35.000Z</time>
      </trkpt>
      <trkpt lat="45.27312" lon="2.60572">
        <ele>909.79998779297</ele>
        <time>2024-01-31T08:32:36.000Z</time>
      </trkpt>
      <trkpt lat="45.27329" lon="2.6061">
        <ele>910.59997558594</ele>
        <time>2024-01-31T08:32:38.000Z</time>
      </trkpt>
      <trkpt lat="45.27336" lon="2.6063">
        <ele>910.79998779297</ele>
        <time>2024-01-31T08:32:39.000Z</time>
      </trkpt>
      <trkpt lat="45.27343" lon="2.60671">
        <ele>911</ele>
        <time>2024-01-31T08:32:41.000Z</time>
      </trkpt>
      <trkpt lat="45.27344" lon="2.60714">
        <ele>911</ele>
        <time>2024-01-31T08:32:43.000Z</time>
      </trkpt>
      <trkpt lat="45.27343" lon="2.60737">
        <ele>911.20001220703</ele>
        <time>2024-01-31T08:32:44.000Z</time>
      </trkpt>
      <trkpt lat="45.27334" lon="2.60781">
        <ele>911.79998779297</ele>
        <time>2024-01-31T08:32:46.000Z</time>
      </trkpt>
      <trkpt lat="45.27324" lon="2.60822">
        <ele>912.40002441406</ele>
        <time>2024-01-31T08:32:48.000Z</time>
      </trkpt>
      <trkpt lat="45.27319" lon="2.60842">
        <ele>912.79998779297</ele>
        <time>2024-01-31T08:32:49.000Z</time>
      </trkpt>
      <trkpt lat="45.27316" lon="2.60885">
        <ele>913.59997558594</ele>
        <time>2024-01-31T08:32:51.000Z</time>
      </trkpt>
      <trkpt lat="45.27316" lon="2.60907">
        <ele>914</ele>
        <time>2024-01-31T08:32:52.000Z</time>
      </trkpt>
      <trkpt lat="45.27317" lon="2.6095">
        <ele>915.20001220703</ele>
        <time>2024-01-31T08:32:54.000Z</time>
      </trkpt>
      <trkpt lat="45.27316" lon="2.60995">
        <ele>916.20001220703</ele>
        <time>2024-01-31T08:32:56.000Z</time>
      </trkpt>
      <trkpt lat="45.27316" lon="2.61017">
        <ele>917.20001220703</ele>
        <time>2024-01-31T08:32:57.000Z</time>
      </trkpt>
      <trkpt lat="45.27315" lon="2.61061">
        <ele>918.40002441406</ele>
        <time>2024-01-31T08:32:59.000Z</time>
      </trkpt>
      <trkpt lat="45.27315" lon="2.61123">
        <ele>919.40002441406</ele>
        <time>2024-01-31T08:33:02.000Z</time>
      </trkpt>
      <trkpt lat="45.27316" lon="2.61141">
        <ele>920</ele>
        <time>2024-01-31T08:33:03.000Z</time>
      </trkpt>
      <trkpt lat="45.27319" lon="2.61159">
        <ele>920.59997558594</ele>
        <time>2024-01-31T08:33:04.000Z</time>
      </trkpt>
      <trkpt lat="45.27324" lon="2.61175">
        <ele>921</ele>
        <time>2024-01-31T08:33:05.000Z</time>
      </trkpt>
      <trkpt lat="45.27331" lon="2.61191">
        <ele>921.79998779297</ele>
        <time>2024-01-31T08:33:06.000Z</time>
      </trkpt>
      <trkpt lat="45.27348" lon="2.61224">
        <ele>923.40002441406</ele>
        <time>2024-01-31T08:33:08.000Z</time>
      </trkpt>
      <trkpt lat="45.27366" lon="2.6126">
        <ele>924.59997558594</ele>
        <time>2024-01-31T08:33:10.000Z</time>
      </trkpt>
      <trkpt lat="45.27383" lon="2.61297">
        <ele>926.20001220703</ele>
        <time>2024-01-31T08:33:12.000Z</time>
      </trkpt>
      <trkpt lat="45.27396" lon="2.61339">
        <ele>927.40002441406</ele>
        <time>2024-01-31T08:33:14.000Z</time>
      </trkpt>
      <trkpt lat="45.27401" lon="2.61363">
        <ele>927.59997558594</ele>
        <time>2024-01-31T08:33:15.000Z</time>
      </trkpt>
      <trkpt lat="45.27412" lon="2.61445">
        <ele>928</ele>
        <time>2024-01-31T08:33:18.000Z</time>
      </trkpt>
      <trkpt lat="45.27425" lon="2.61533">
        <ele>927.79998779297</ele>
        <time>2024-01-31T08:33:21.000Z</time>
      </trkpt>
      <trkpt lat="45.27434" lon="2.61594">
        <ele>927.59997558594</ele>
        <time>2024-01-31T08:33:23.000Z</time>
      </trkpt>
      <trkpt lat="45.27447" lon="2.61687">
        <ele>927</ele>
        <time>2024-01-31T08:33:26.000Z</time>
      </trkpt>
      <trkpt lat="45.2746" lon="2.61781">
        <ele>926.20001220703</ele>
        <time>2024-01-31T08:33:29.000Z</time>
      </trkpt>
      <trkpt lat="45.27463" lon="2.61811">
        <ele>926</ele>
        <time>2024-01-31T08:33:30.000Z</time>
      </trkpt>
      <trkpt lat="45.27474" lon="2.61901">
        <ele>925.40002441406</ele>
        <time>2024-01-31T08:33:33.000Z</time>
      </trkpt>
      <trkpt lat="45.27477" lon="2.6193">
        <ele>925.20001220703</ele>
        <time>2024-01-31T08:33:34.000Z</time>
      </trkpt>
      <trkpt lat="45.27482" lon="2.61983">
        <ele>924.40002441406</ele>
        <time>2024-01-31T08:33:36.000Z</time>
      </trkpt>
      <trkpt lat="45.27486" lon="2.62007">
        <ele>924</ele>
        <time>2024-01-31T08:33:37.000Z</time>
      </trkpt>
      <trkpt lat="45.27491" lon="2.6203">
        <ele>923.40002441406</ele>
        <time>2024-01-31T08:33:38.000Z</time>
      </trkpt>
      <trkpt lat="45.27498" lon="2.62051">
        <ele>922.59997558594</ele>
        <time>2024-01-31T08:33:39.000Z</time>
      </trkpt>
      <trkpt lat="45.27516" lon="2.62091">
        <ele>921</ele>
        <time>2024-01-31T08:33:41.000Z</time>
      </trkpt>
      <trkpt lat="45.27527" lon="2.62111">
        <ele>919.40002441406</ele>
        <time>2024-01-31T08:33:42.000Z</time>
      </trkpt>
      <trkpt lat="45.27536" lon="2.62131">
        <ele>918</ele>
        <time>2024-01-31T08:33:43.000Z</time>
      </trkpt>
      <trkpt lat="45.27556" lon="2.62171">
        <ele>916</ele>
        <time>2024-01-31T08:33:45.000Z</time>
      </trkpt>
      <trkpt lat="45.27577" lon="2.62208">
        <ele>913.59997558594</ele>
        <time>2024-01-31T08:33:47.000Z</time>
      </trkpt>
      <trkpt lat="45.27586" lon="2.62225">
        <ele>912.40002441406</ele>
        <time>2024-01-31T08:33:48.000Z</time>
      </trkpt>
      <trkpt lat="45.27595" lon="2.6224">
        <ele>912</ele>
        <time>2024-01-31T08:33:49.000Z</time>
      </trkpt>
      <trkpt lat="45.27603" lon="2.62253">
        <ele>911</ele>
        <time>2024-01-31T08:33:50.000Z</time>
      </trkpt>
      <trkpt lat="45.27624" lon="2.6227">
        <ele>910.20001220703</ele>
        <time>2024-01-31T08:33:52.000Z</time>
      </trkpt>
      <trkpt lat="45.27637" lon="2.62274">
        <ele>909.79998779297</ele>
        <time>2024-01-31T08:33:53.000Z</time>
      </trkpt>
      <trkpt lat="45.27666" lon="2.62277">
        <ele>908.79998779297</ele>
        <time>2024-01-31T08:33:55.000Z</time>
      </trkpt>
      <trkpt lat="45.27682" lon="2.62276">
        <ele>908.40002441406</ele>
        <time>2024-01-31T08:33:56.000Z</time>
      </trkpt>
      <trkpt lat="45.27713" lon="2.62265">
        <ele>906.79998779297</ele>
        <time>2024-01-31T08:33:58.000Z</time>
      </trkpt>
      <trkpt lat="45.27741" lon="2.62254">
        <ele>905.20001220703</ele>
        <time>2024-01-31T08:34:00.000Z</time>
      </trkpt>
      <trkpt lat="45.27754" lon="2.62252">
        <ele>904</ele>
        <time>2024-01-31T08:34:01.000Z</time>
      </trkpt>
      <trkpt lat="45.27767" lon="2.62253">
        <ele>903.59997558594</ele>
        <time>2024-01-31T08:34:02.000Z</time>
      </trkpt>
      <trkpt lat="45.27779" lon="2.62258">
        <ele>903.20001220703</ele>
        <time>2024-01-31T08:34:03.000Z</time>
      </trkpt>
      <trkpt lat="45.27804" lon="2.62273">
        <ele>902.79998779297</ele>
        <time>2024-01-31T08:34:05.000Z</time>
      </trkpt>
      <trkpt lat="45.27831" lon="2.6228">
        <ele>902.59997558594</ele>
        <time>2024-01-31T08:34:07.000Z</time>
      </trkpt>
      <trkpt lat="45.27849" lon="2.62281">
        <ele>902.59997558594</ele>
        <time>2024-01-31T08:34:08.000Z</time>
      </trkpt>
      <trkpt lat="45.27909" lon="2.6228">
        <ele>901.40002441406</ele>
        <time>2024-01-31T08:34:12.000Z</time>
      </trkpt>
      <trkpt lat="45.2792" lon="2.62282">
        <ele>900.79998779297</ele>
        <time>2024-01-31T08:34:13.000Z</time>
      </trkpt>
      <trkpt lat="45.27932" lon="2.62288">
        <ele>900.20001220703</ele>
        <time>2024-01-31T08:34:14.000Z</time>
      </trkpt>
      <trkpt lat="45.27941" lon="2.62298">
        <ele>900</ele>
        <time>2024-01-31T08:34:15.000Z</time>
      </trkpt>
      <trkpt lat="45.2795" lon="2.62313">
        <ele>899.79998779297</ele>
        <time>2024-01-31T08:34:16.000Z</time>
      </trkpt>
      <trkpt lat="45.27969" lon="2.62345">
        <ele>899</ele>
        <time>2024-01-31T08:34:18.000Z</time>
      </trkpt>
      <trkpt lat="45.2798" lon="2.62367">
        <ele>898.59997558594</ele>
        <time>2024-01-31T08:34:19.000Z</time>
      </trkpt>
      <trkpt lat="45.28013" lon="2.62448">
        <ele>898.40002441406</ele>
        <time>2024-01-31T08:34:23.000Z</time>
      </trkpt>
      <trkpt lat="45.28019" lon="2.62465">
        <ele>898.40002441406</ele>
        <time>2024-01-31T08:34:24.000Z</time>
      </trkpt>
      <trkpt lat="45.28031" lon="2.62517">
        <ele>898.20001220703</ele>
        <time>2024-01-31T08:34:26.000Z</time>
      </trkpt>
      <trkpt lat="45.28046" lon="2.62605">
        <ele>898</ele>
        <time>2024-01-31T08:34:30.000Z</time>
      </trkpt>
      <trkpt lat="45.2805" lon="2.62629">
        <ele>897.59997558594</ele>
        <time>2024-01-31T08:34:31.000Z</time>
      </trkpt>
      <trkpt lat="45.28054" lon="2.62676">
        <ele>897</ele>
        <time>2024-01-31T08:34:33.000Z</time>
      </trkpt>
      <trkpt lat="45.28055" lon="2.62699">
        <ele>896.59997558594</ele>
        <time>2024-01-31T08:34:34.000Z</time>
      </trkpt>
      <trkpt lat="45.28053" lon="2.62721">
        <ele>896.40002441406</ele>
        <time>2024-01-31T08:34:35.000Z</time>
      </trkpt>
      <trkpt lat="45.2805" lon="2.62744">
        <ele>895.59997558594</ele>
        <time>2024-01-31T08:34:36.000Z</time>
      </trkpt>
      <trkpt lat="45.28046" lon="2.62766">
        <ele>894.59997558594</ele>
        <time>2024-01-31T08:34:37.000Z</time>
      </trkpt>
      <trkpt lat="45.28043" lon="2.62788">
        <ele>893.79998779297</ele>
        <time>2024-01-31T08:34:38.000Z</time>
      </trkpt>
      <trkpt lat="45.28043" lon="2.6281">
        <ele>892.79998779297</ele>
        <time>2024-01-31T08:34:39.000Z</time>
      </trkpt>
      <trkpt lat="45.28043" lon="2.62838">
        <ele>892</ele>
        <time>2024-01-31T08:34:40.000Z</time>
      </trkpt>
      <trkpt lat="45.28043" lon="2.62858">
        <ele>891.20001220703</ele>
        <time>2024-01-31T08:34:41.000Z</time>
      </trkpt>
      <trkpt lat="45.28048" lon="2.62906">
        <ele>889.59997558594</ele>
        <time>2024-01-31T08:34:43.000Z</time>
      </trkpt>
      <trkpt lat="45.28051" lon="2.6293">
        <ele>888.79998779297</ele>
        <time>2024-01-31T08:34:44.000Z</time>
      </trkpt>
      <trkpt lat="45.28054" lon="2.62954">
        <ele>887.79998779297</ele>
        <time>2024-01-31T08:34:45.000Z</time>
      </trkpt>
      <trkpt lat="45.28059" lon="2.63003">
        <ele>886.20001220703</ele>
        <time>2024-01-31T08:34:47.000Z</time>
      </trkpt>
      <trkpt lat="45.28064" lon="2.63026">
        <ele>885</ele>
        <time>2024-01-31T08:34:48.000Z</time>
      </trkpt>
      <trkpt lat="45.28069" lon="2.63048">
        <ele>884.20001220703</ele>
        <time>2024-01-31T08:34:49.000Z</time>
      </trkpt>
      <trkpt lat="45.28077" lon="2.63068">
        <ele>883.40002441406</ele>
        <time>2024-01-31T08:34:50.000Z</time>
      </trkpt>
      <trkpt lat="45.28086" lon="2.63084">
        <ele>882.40002441406</ele>
        <time>2024-01-31T08:34:51.000Z</time>
      </trkpt>
      <trkpt lat="45.28111" lon="2.63109">
        <ele>881.59997558594</ele>
        <time>2024-01-31T08:34:53.000Z</time>
      </trkpt>
      <trkpt lat="45.28142" lon="2.6312">
        <ele>881.59997558594</ele>
        <time>2024-01-31T08:34:55.000Z</time>
      </trkpt>
      <trkpt lat="45.28174" lon="2.63123">
        <ele>881.20001220703</ele>
        <time>2024-01-31T08:34:57.000Z</time>
      </trkpt>
      <trkpt lat="45.28191" lon="2.63123">
        <ele>881.20001220703</ele>
        <time>2024-01-31T08:34:58.000Z</time>
      </trkpt>
      <trkpt lat="45.28258" lon="2.63133">
        <ele>880.59997558594</ele>
        <time>2024-01-31T08:35:02.000Z</time>
      </trkpt>
      <trkpt lat="45.28307" lon="2.63151">
        <ele>880.20001220703</ele>
        <time>2024-01-31T08:35:05.000Z</time>
      </trkpt>
      <trkpt lat="45.28369" lon="2.63172">
        <ele>879.40002441406</ele>
        <time>2024-01-31T08:35:09.000Z</time>
      </trkpt>
      <trkpt lat="45.28403" lon="2.63187">
        <ele>879.40002441406</ele>
        <time>2024-01-31T08:35:11.000Z</time>
      </trkpt>
      <trkpt lat="45.28416" lon="2.63198">
        <ele>879.59997558594</ele>
        <time>2024-01-31T08:35:12.000Z</time>
      </trkpt>
      <trkpt lat="45.28426" lon="2.63208">
        <ele>879.79998779297</ele>
        <time>2024-01-31T08:35:13.000Z</time>
      </trkpt>
      <trkpt lat="45.2845" lon="2.63239">
        <ele>880.20001220703</ele>
        <time>2024-01-31T08:35:15.000Z</time>
      </trkpt>
      <trkpt lat="45.28476" lon="2.63296">
        <ele>880.20001220703</ele>
        <time>2024-01-31T08:35:18.000Z</time>
      </trkpt>
      <trkpt lat="45.28498" lon="2.63359">
        <ele>879</ele>
        <time>2024-01-31T08:35:21.000Z</time>
      </trkpt>
      <trkpt lat="45.28512" lon="2.63396">
        <ele>877.20001220703</ele>
        <time>2024-01-31T08:35:23.000Z</time>
      </trkpt>
      <trkpt lat="45.28526" lon="2.63435">
        <ele>876</ele>
        <time>2024-01-31T08:35:25.000Z</time>
      </trkpt>
      <trkpt lat="45.28532" lon="2.63455">
        <ele>875</ele>
        <time>2024-01-31T08:35:26.000Z</time>
      </trkpt>
      <trkpt lat="45.28544" lon="2.63497">
        <ele>873.79998779297</ele>
        <time>2024-01-31T08:35:28.000Z</time>
      </trkpt>
      <trkpt lat="45.28551" lon="2.63519">
        <ele>873.40002441406</ele>
        <time>2024-01-31T08:35:29.000Z</time>
      </trkpt>
      <trkpt lat="45.28558" lon="2.6354">
        <ele>872.59997558594</ele>
        <time>2024-01-31T08:35:30.000Z</time>
      </trkpt>
      <trkpt lat="45.28578" lon="2.63605">
        <ele>871</ele>
        <time>2024-01-31T08:35:33.000Z</time>
      </trkpt>
      <trkpt lat="45.2859" lon="2.63646">
        <ele>869.40002441406</ele>
        <time>2024-01-31T08:35:35.000Z</time>
      </trkpt>
      <trkpt lat="45.28596" lon="2.63664">
        <ele>868.59997558594</ele>
        <time>2024-01-31T08:35:36.000Z</time>
      </trkpt>
      <trkpt lat="45.28601" lon="2.6368">
        <ele>867.59997558594</ele>
        <time>2024-01-31T08:35:37.000Z</time>
      </trkpt>
      <trkpt lat="45.28605" lon="2.63694">
        <ele>866.59997558594</ele>
        <time>2024-01-31T08:35:38.000Z</time>
      </trkpt>
      <trkpt lat="45.28609" lon="2.63704">
        <ele>865</ele>
        <time>2024-01-31T08:35:39.000Z</time>
      </trkpt>
      <trkpt lat="45.28615" lon="2.63719">
        <ele>863.20001220703</ele>
        <time>2024-01-31T08:35:41.000Z</time>
      </trkpt>
      <trkpt lat="45.28616" lon="2.63724">
        <ele>862.59997558594</ele>
        <time>2024-01-31T08:35:42.000Z</time>
      </trkpt>
      <trkpt lat="45.28618" lon="2.63732">
        <ele>862.40002441406</ele>
        <time>2024-01-31T08:35:45.000Z</time>
      </trkpt>
      <trkpt lat="45.28618" lon="2.63735">
        <ele>862.40002441406</ele>
        <time>2024-01-31T08:35:46.000Z</time>
      </trkpt>
      <trkpt lat="45.28615" lon="2.63745">
        <ele>862.40002441406</ele>
        <time>2024-01-31T08:35:48.000Z</time>
      </trkpt>
      <trkpt lat="45.28613" lon="2.63752">
        <ele>862.40002441406</ele>
        <time>2024-01-31T08:35:49.000Z</time>
      </trkpt>
      <trkpt lat="45.28598" lon="2.63784">
        <ele>862.40002441406</ele>
        <time>2024-01-31T08:35:52.000Z</time>
      </trkpt>
      <trkpt lat="45.28587" lon="2.63813">
        <ele>862</ele>
        <time>2024-01-31T08:35:54.000Z</time>
      </trkpt>
      <trkpt lat="45.2858" lon="2.6383">
        <ele>862</ele>
        <time>2024-01-31T08:35:55.000Z</time>
      </trkpt>
      <trkpt lat="45.2856" lon="2.63885">
        <ele>861</ele>
        <time>2024-01-31T08:35:58.000Z</time>
      </trkpt>
      <trkpt lat="45.28553" lon="2.63905">
        <ele>860.79998779297</ele>
        <time>2024-01-31T08:35:59.000Z</time>
      </trkpt>
      <trkpt lat="45.28541" lon="2.63947">
        <ele>860.40002441406</ele>
        <time>2024-01-31T08:36:01.000Z</time>
      </trkpt>
      <trkpt lat="45.28539" lon="2.63968">
        <ele>860.20001220703</ele>
        <time>2024-01-31T08:36:02.000Z</time>
      </trkpt>
      <trkpt lat="45.28538" lon="2.6399">
        <ele>860</ele>
        <time>2024-01-31T08:36:03.000Z</time>
      </trkpt>
      <trkpt lat="45.28538" lon="2.64011">
        <ele>859.79998779297</ele>
        <time>2024-01-31T08:36:04.000Z</time>
      </trkpt>
      <trkpt lat="45.2854" lon="2.64034">
        <ele>859.40002441406</ele>
        <time>2024-01-31T08:36:05.000Z</time>
      </trkpt>
      <trkpt lat="45.2855" lon="2.64123">
        <ele>858.79998779297</ele>
        <time>2024-01-31T08:36:09.000Z</time>
      </trkpt>
      <trkpt lat="45.28551" lon="2.64145">
        <ele>858.59997558594</ele>
        <time>2024-01-31T08:36:10.000Z</time>
      </trkpt>
      <trkpt lat="45.28552" lon="2.64168">
        <ele>858.40002441406</ele>
        <time>2024-01-31T08:36:11.000Z</time>
      </trkpt>
      <trkpt lat="45.28549" lon="2.6423">
        <ele>857.79998779297</ele>
        <time>2024-01-31T08:36:14.000Z</time>
      </trkpt>
      <trkpt lat="45.28546" lon="2.6425">
        <ele>857.40002441406</ele>
        <time>2024-01-31T08:36:15.000Z</time>
      </trkpt>
      <trkpt lat="45.28541" lon="2.64287">
        <ele>856</ele>
        <time>2024-01-31T08:36:17.000Z</time>
      </trkpt>
      <trkpt lat="45.28534" lon="2.64323">
        <ele>855.40002441406</ele>
        <time>2024-01-31T08:36:19.000Z</time>
      </trkpt>
      <trkpt lat="45.2853" lon="2.6434">
        <ele>854.40002441406</ele>
        <time>2024-01-31T08:36:20.000Z</time>
      </trkpt>
      <trkpt lat="45.28525" lon="2.64375">
        <ele>853.59997558594</ele>
        <time>2024-01-31T08:36:22.000Z</time>
      </trkpt>
      <trkpt lat="45.28524" lon="2.64393">
        <ele>853</ele>
        <time>2024-01-31T08:36:23.000Z</time>
      </trkpt>
      <trkpt lat="45.28527" lon="2.64461">
        <ele>852.20001220703</ele>
        <time>2024-01-31T08:36:27.000Z</time>
      </trkpt>
      <trkpt lat="45.28524" lon="2.64546">
        <ele>852.59997558594</ele>
        <time>2024-01-31T08:36:32.000Z</time>
      </trkpt>
      <trkpt lat="45.28522" lon="2.64633">
        <ele>852.40002441406</ele>
        <time>2024-01-31T08:36:37.000Z</time>
      </trkpt>
      <trkpt lat="45.28524" lon="2.64665">
        <ele>852</ele>
        <time>2024-01-31T08:36:39.000Z</time>
      </trkpt>
      <trkpt lat="45.28526" lon="2.64692">
        <ele>851.20001220703</ele>
        <time>2024-01-31T08:36:41.000Z</time>
      </trkpt>
      <trkpt lat="45.28526" lon="2.64705">
        <ele>851.20001220703</ele>
        <time>2024-01-31T08:36:42.000Z</time>
      </trkpt>
      <trkpt lat="45.28524" lon="2.64716">
        <ele>851.20001220703</ele>
        <time>2024-01-31T08:36:43.000Z</time>
      </trkpt>
      <trkpt lat="45.28517" lon="2.6474">
        <ele>851.40002441406</ele>
        <time>2024-01-31T08:36:45.000Z</time>
      </trkpt>
      <trkpt lat="45.28498" lon="2.64795">
        <ele>852</ele>
        <time>2024-01-31T08:36:49.000Z</time>
      </trkpt>
      <trkpt lat="45.28477" lon="2.64878">
        <ele>852.20001220703</ele>
        <time>2024-01-31T08:36:54.000Z</time>
      </trkpt>
      <trkpt lat="45.2845" lon="2.64956">
        <ele>852.20001220703</ele>
        <time>2024-01-31T08:36:59.000Z</time>
      </trkpt>
      <trkpt lat="45.28437" lon="2.64985">
        <ele>852.40002441406</ele>
        <time>2024-01-31T08:37:01.000Z</time>
      </trkpt>
      <trkpt lat="45.28418" lon="2.65028">
        <ele>853</ele>
        <time>2024-01-31T08:37:04.000Z</time>
      </trkpt>
      <trkpt lat="45.2839" lon="2.65084">
        <ele>853.40002441406</ele>
        <time>2024-01-31T08:37:08.000Z</time>
      </trkpt>
      <trkpt lat="45.2836" lon="2.65155">
        <ele>854</ele>
        <time>2024-01-31T08:37:13.000Z</time>
      </trkpt>
      <trkpt lat="45.28358" lon="2.6517">
        <ele>854.20001220703</ele>
        <time>2024-01-31T08:37:14.000Z</time>
      </trkpt>
      <trkpt lat="45.28355" lon="2.652">
        <ele>854.20001220703</ele>
        <time>2024-01-31T08:37:16.000Z</time>
      </trkpt>
      <trkpt lat="45.28345" lon="2.65265">
        <ele>854.20001220703</ele>
        <time>2024-01-31T08:37:21.000Z</time>
      </trkpt>
      <trkpt lat="45.28333" lon="2.65317">
        <ele>853.20001220703</ele>
        <time>2024-01-31T08:37:26.000Z</time>
      </trkpt>
      <trkpt lat="45.28321" lon="2.65378">
        <ele>852.79998779297</ele>
        <time>2024-01-31T08:37:31.000Z</time>
      </trkpt>
      <trkpt lat="45.28313" lon="2.65427">
        <ele>852</ele>
        <time>2024-01-31T08:37:35.000Z</time>
      </trkpt>
      <trkpt lat="45.28305" lon="2.65462">
        <ele>851.79998779297</ele>
        <time>2024-01-31T08:37:38.000Z</time>
      </trkpt>
      <trkpt lat="45.28284" lon="2.65532">
        <ele>851.20001220703</ele>
        <time>2024-01-31T08:37:44.000Z</time>
      </trkpt>
      <trkpt lat="45.28275" lon="2.65556">
        <ele>850.79998779297</ele>
        <time>2024-01-31T08:37:46.000Z</time>
      </trkpt>
      <trkpt lat="45.28255" lon="2.65606">
        <ele>849.59997558594</ele>
        <time>2024-01-31T08:37:50.000Z</time>
      </trkpt>
      <trkpt lat="45.28244" lon="2.65629">
        <ele>848.79998779297</ele>
        <time>2024-01-31T08:37:52.000Z</time>
      </trkpt>
      <trkpt lat="45.28239" lon="2.65642">
        <ele>848.59997558594</ele>
        <time>2024-01-31T08:37:53.000Z</time>
      </trkpt>
      <trkpt lat="45.2822" lon="2.65688">
        <ele>847.40002441406</ele>
        <time>2024-01-31T08:37:57.000Z</time>
      </trkpt>
      <trkpt lat="45.282" lon="2.65734">
        <ele>846.40002441406</ele>
        <time>2024-01-31T08:38:01.000Z</time>
      </trkpt>
      <trkpt lat="45.28191" lon="2.65757">
        <ele>845.40002441406</ele>
        <time>2024-01-31T08:38:03.000Z</time>
      </trkpt>
      <trkpt lat="45.28186" lon="2.65768">
        <ele>844.79998779297</ele>
        <time>2024-01-31T08:38:04.000Z</time>
      </trkpt>
      <trkpt lat="45.28162" lon="2.65819">
        <ele>843.79998779297</ele>
        <time>2024-01-31T08:38:09.000Z</time>
      </trkpt>
      <trkpt lat="45.28143" lon="2.65867">
        <ele>842.79998779297</ele>
        <time>2024-01-31T08:38:14.000Z</time>
      </trkpt>
      <trkpt lat="45.28137" lon="2.65884">
        <ele>842.79998779297</ele>
        <time>2024-01-31T08:38:16.000Z</time>
      </trkpt>
      <trkpt lat="45.28135" lon="2.65892">
        <ele>842.59997558594</ele>
        <time>2024-01-31T08:38:17.000Z</time>
      </trkpt>
      <trkpt lat="45.28133" lon="2.65898">
        <ele>842.59997558594</ele>
        <time>2024-01-31T08:38:18.000Z</time>
      </trkpt>
      <trkpt lat="45.28128" lon="2.65908">
        <ele>842.40002441406</ele>
        <time>2024-01-31T08:38:20.000Z</time>
      </trkpt>
      <trkpt lat="45.28123" lon="2.65915">
        <ele>842.59997558594</ele>
        <time>2024-01-31T08:38:22.000Z</time>
      </trkpt>
      <trkpt lat="45.28117" lon="2.65924">
        <ele>842.79998779297</ele>
        <time>2024-01-31T08:38:24.000Z</time>
      </trkpt>
      <trkpt lat="45.28116" lon="2.65936">
        <ele>842.79998779297</ele>
        <time>2024-01-31T08:38:26.000Z</time>
      </trkpt>
      <trkpt lat="45.28116" lon="2.65943">
        <ele>842.79998779297</ele>
        <time>2024-01-31T08:38:27.000Z</time>
      </trkpt>
      <trkpt lat="45.28114" lon="2.65967">
        <ele>842.40002441406</ele>
        <time>2024-01-31T08:38:31.000Z</time>
      </trkpt>
      <trkpt lat="45.28113" lon="2.65972">
        <ele>842.40002441406</ele>
        <time>2024-01-31T08:38:32.000Z</time>
      </trkpt>
      <trkpt lat="45.28112" lon="2.65978">
        <ele>842.40002441406</ele>
        <time>2024-01-31T08:38:33.000Z</time>
      </trkpt>
      <trkpt lat="45.28107" lon="2.65989">
        <ele>842.40002441406</ele>
        <time>2024-01-31T08:38:35.000Z</time>
      </trkpt>
      <trkpt lat="45.28103" lon="2.65994">
        <ele>842.40002441406</ele>
        <time>2024-01-31T08:38:36.000Z</time>
      </trkpt>
      <trkpt lat="45.28089" lon="2.66008">
        <ele>842.40002441406</ele>
        <time>2024-01-31T08:38:39.000Z</time>
      </trkpt>
      <trkpt lat="45.28075" lon="2.6602">
        <ele>842.59997558594</ele>
        <time>2024-01-31T08:38:41.000Z</time>
      </trkpt>
      <trkpt lat="45.28044" lon="2.66055">
        <ele>842.79998779297</ele>
        <time>2024-01-31T08:38:45.000Z</time>
      </trkpt>
      <trkpt lat="45.28005" lon="2.66101">
        <ele>841.79998779297</ele>
        <time>2024-01-31T08:38:50.000Z</time>
      </trkpt>
      <trkpt lat="45.27993" lon="2.66111">
        <ele>840.2</ele>
      </trkpt>
      <trkpt lat="45.27959" lon="2.66106">
        <ele>843.2</ele>
      </trkpt>
      <trkpt lat="45.27931" lon="2.66113">
        <ele>843.3</ele>
      </trkpt>
      <trkpt lat="45.27888" lon="2.66122">
        <ele>845.8</ele>
      </trkpt>
      <trkpt lat="45.27841" lon="2.66136">
        <ele>845.8</ele>
      </trkpt>
      <trkpt lat="45.27781" lon="2.66131">
        <ele>842.1</ele>
      </trkpt>
      <trkpt lat="45.27749" lon="2.66131">
        <ele>843.2</ele>
      </trkpt>
      <trkpt lat="45.27717" lon="2.66133">
        <ele>842.4</ele>
      </trkpt>
      <trkpt lat="45.27713" lon="2.66138">
        <ele>842.1</ele>
      </trkpt>
      <trkpt lat="45.27716" lon="2.66145">
        <ele>841.4</ele>
      </trkpt>
    </trkseg>
  </trk>
  <trk>
    <name><![CDATA[Etape 3: La Tour-d'Auvergne - Clermont-Ferrand]]></name>
    <desc><![CDATA[

































































































































































































































































































































































































































































































































































































]]></desc>
    <extensions>
      <line xmlns="http://www.topografix.com/GPX/gpx_style/0/2">
        <color>0000FF</color>
        <width>4</width>
      </line>
    </extensions>
    <trkseg>
      <trkpt lat="45.53288" lon="2.68745">
        <ele>942</ele>
        <time>2024-05-26T07:54:26.000Z</time>
        <extensions>
          <gpxtpx:TrackPointExtension xmlns:gpxtpx="http://www.garmin.com/xmlschemas/TrackPointExtension/v1">
            <gpxtpx:hr>72</gpxtpx:hr>
          </gpxtpx:TrackPointExtension>
        </extensions>
      </trkpt>
      <trkpt lat="45.53288" lon="2.68745">
        <ele>942</ele>
        <time>2024-05-26T07:54:27.000Z</time>
        <extensions>
          <gpxtpx:TrackPointExtension xmlns:gpxtpx="http://www.garmin.com/xmlschemas/TrackPointExtension/v1">
            <gpxtpx:hr>73</gpxtpx:hr>
          </gpxtpx:TrackPointExtension>
        </extensions>
      </trkpt>
      <trkpt lat="45.5329" lon="2.68748">
        <ele>942</ele>
        <time>2024-05-26T07:54:40.000Z</time>
        <extensions>
          <gpxtpx:TrackPointExtension xmlns:gpxtpx="http://www.garmin.com/xmlschemas/TrackPointExtension/v1">
            <gpxtpx:hr>76</gpxtpx:hr>
          </gpxtpx:TrackPointExtension>
        </extensions>
      </trkpt>
      <trkpt lat="45.53291" lon="2.6875">
        <ele>942</ele>
        <time>2024-05-26T07:54:41.000Z</time>
        <extensions>
          <gpxtpx:TrackPointExtension xmlns:gpxtpx="http://www.garmin.com/xmlschemas/TrackPointExtension/v1">
            <gpxtpx:hr>76</gpxtpx:hr>
          </gpxtpx:TrackPointExtension>
        </extensions>
      </trkpt>
      <trkpt lat="45.53296" lon="2.68758">
        <ele>942</ele>
        <time>2024-05-26T07:54:45.000Z</time>
        <extensions>
          <gpxtpx:TrackPointExtension xmlns:gpxtpx="http://www.garmin.com/xmlschemas/TrackPointExtension/v1">
            <gpxtpx:hr>79</gpxtpx:hr>
          </gpxtpx:TrackPointExtension>
        </extensions>
      </trkpt>
      <trkpt lat="45.53301" lon="2.68765">
        <ele>942.20001220703</ele>
        <time>2024-05-26T07:54:48.000Z</time>
        <extensions>
          <gpxtpx:TrackPointExtension xmlns:gpxtpx="http://www.garmin.com/xmlschemas/TrackPointExtension/v1">
            <gpxtpx:hr>81</gpxtpx:hr>
          </gpxtpx:TrackPointExtension>
        </extensions>
      </trkpt>
      <trkpt lat="45.53309" lon="2.68776">
        <ele>942.40002441406</ele>
        <time>2024-05-26T07:54:52.000Z</time>
        <extensions>
          <gpxtpx:TrackPointExtension xmlns:gpxtpx="http://www.garmin.com/xmlschemas/TrackPointExtension/v1">
            <gpxtpx:hr>85</gpxtpx:hr>
          </gpxtpx:TrackPointExtension>
        </extensions>
      </trkpt>
      <trkpt lat="45.53315" lon="2.68785">
        <ele>942.79998779297</ele>
        <time>2024-05-26T07:54:55.000Z</time>
        <extensions>
          <gpxtpx:TrackPointExtension xmlns:gpxtpx="http://www.garmin.com/xmlschemas/TrackPointExtension/v1">
            <gpxtpx:hr>88</gpxtpx:hr>
          </gpxtpx:TrackPointExtension>
        </extensions>
      </trkpt>
      <trkpt lat="45.53317" lon="2.68788">
        <ele>942.79998779297</ele>
        <time>2024-05-26T07:54:56.000Z</time>
        <extensions>
          <gpxtpx:TrackPointExtension xmlns:gpxtpx="http://www.garmin.com/xmlschemas/TrackPointExtension/v1">
            <gpxtpx:hr>88</gpxtpx:hr>
          </gpxtpx:TrackPointExtension>
        </extensions>
      </trkpt>
      <trkpt lat="45.53326" lon="2.68801">
        <ele>943.20001220703</ele>
        <time>2024-05-26T07:55:00.000Z</time>
        <extensions>
          <gpxtpx:TrackPointExtension xmlns:gpxtpx="http://www.garmin.com/xmlschemas/TrackPointExtension/v1">
            <gpxtpx:hr>90</gpxtpx:hr>
          </gpxtpx:TrackPointExtension>
        </extensions>
      </trkpt>
      <trkpt lat="45.53336" lon="2.6881">
        <ele>943.79998779297</ele>
        <time>2024-05-26T07:55:04.000Z</time>
        <extensions>
          <gpxtpx:TrackPointExtension xmlns:gpxtpx="http://www.garmin.com/xmlschemas/TrackPointExtension/v1">
            <gpxtpx:hr>90</gpxtpx:hr>
          </gpxtpx:TrackPointExtension>
        </extensions>
      </trkpt>
      <trkpt lat="45.53342" lon="2.68814">
        <ele>943.79998779297</ele>
        <time>2024-05-26T07:55:06.000Z</time>
        <extensions>
          <gpxtpx:TrackPointExtension xmlns:gpxtpx="http://www.garmin.com/xmlschemas/TrackPointExtension/v1">
            <gpxtpx:hr>90</gpxtpx:hr>
          </gpxtpx:TrackPointExtension>
        </extensions>
      </trkpt>
      <trkpt lat="45.53348" lon="2.68817">
        <ele>944.40002441406</ele>
        <time>2024-05-26T07:55:08.000Z</time>
        <extensions>
          <gpxtpx:TrackPointExtension xmlns:gpxtpx="http://www.garmin.com/xmlschemas/TrackPointExtension/v1">
            <gpxtpx:hr>90</gpxtpx:hr>
          </gpxtpx:TrackPointExtension>
        </extensions>
      </trkpt>
      <trkpt lat="45.53357" lon="2.68821">
        <ele>944.79998779297</ele>
        <time>2024-05-26T07:55:11.000Z</time>
        <extensions>
          <gpxtpx:TrackPointExtension xmlns:gpxtpx="http://www.garmin.com/xmlschemas/TrackPointExtension/v1">
            <gpxtpx:hr>91</gpxtpx:hr>
          </gpxtpx:TrackPointExtension>
        </extensions>
      </trkpt>
      <trkpt lat="45.53373" lon="2.68826">
        <ele>945.40002441406</ele>
        <time>2024-05-26T07:55:16.000Z</time>
        <extensions>
          <gpxtpx:TrackPointExtension xmlns:gpxtpx="http://www.garmin.com/xmlschemas/TrackPointExtension/v1">
            <gpxtpx:hr>91</gpxtpx:hr>
          </gpxtpx:TrackPointExtension>
        </extensions>
      </trkpt>
      <trkpt lat="45.5338" lon="2.68827">
        <ele>945.79998779297</ele>
        <time>2024-05-26T07:55:18.000Z</time>
        <extensions>
          <gpxtpx:TrackPointExtension xmlns:gpxtpx="http://www.garmin.com/xmlschemas/TrackPointExtension/v1">
            <gpxtpx:hr>94</gpxtpx:hr>
          </gpxtpx:TrackPointExtension>
        </extensions>
      </trkpt>
      <trkpt lat="45.53383" lon="2.68827">
        <ele>945.79998779297</ele>
        <time>2024-05-26T07:55:19.000Z</time>
        <extensions>
          <gpxtpx:TrackPointExtension xmlns:gpxtpx="http://www.garmin.com/xmlschemas/TrackPointExtension/v1">
            <gpxtpx:hr>94</gpxtpx:hr>
          </gpxtpx:TrackPointExtension>
        </extensions>
      </trkpt>
      <trkpt lat="45.53392" lon="2.68827">
        <ele>945.79998779297</ele>
        <time>2024-05-26T07:55:22.000Z</time>
        <extensions>
          <gpxtpx:TrackPointExtension xmlns:gpxtpx="http://www.garmin.com/xmlschemas/TrackPointExtension/v1">
            <gpxtpx:hr>98</gpxtpx:hr>
          </gpxtpx:TrackPointExtension>
        </extensions>
      </trkpt>
      <trkpt lat="45.534" lon="2.68829">
        <ele>946.40002441406</ele>
        <time>2024-05-26T07:55:25.000Z</time>
        <extensions>
          <gpxtpx:TrackPointExtension xmlns:gpxtpx="http://www.garmin.com/xmlschemas/TrackPointExtension/v1">
            <gpxtpx:hr>101</gpxtpx:hr>
          </gpxtpx:TrackPointExtension>
        </extensions>
      </trkpt>
      <trkpt lat="45.5341" lon="2.68832">
        <ele>946.40002441406</ele>
        <time>2024-05-26T07:55:28.000Z</time>
        <extensions>
          <gpxtpx:TrackPointExtension xmlns:gpxtpx="http://www.garmin.com/xmlschemas/TrackPointExtension/v1">
            <gpxtpx:hr>101</gpxtpx:hr>
          </gpxtpx:TrackPointExtension>
        </extensions>
      </trkpt>
      <trkpt lat="45.53413" lon="2.68834">
        <ele>946.40002441406</ele>
        <time>2024-05-26T07:55:29.000Z</time>
        <extensions>
          <gpxtpx:TrackPointExtension xmlns:gpxtpx="http://www.garmin.com/xmlschemas/TrackPointExtension/v1">
            <gpxtpx:hr>102</gpxtpx:hr>
          </gpxtpx:TrackPointExtension>
        </extensions>
      </trkpt>
      <trkpt lat="45.53416" lon="2.68835">
        <ele>946.59997558594</ele>
        <time>2024-05-26T07:55:30.000Z</time>
        <extensions>
          <gpxtpx:TrackPointExtension xmlns:gpxtpx="http://www.garmin.com/xmlschemas/TrackPointExtension/v1">
            <gpxtpx:hr>102</gpxtpx:hr>
          </gpxtpx:TrackPointExtension>
        </extensions>
      </trkpt>
      <trkpt lat="45.53434" lon="2.68845">
        <ele>947.20001220703</ele>
        <time>2024-05-26T07:55:36.000Z</time>
        <extensions>
          <gpxtpx:TrackPointExtension xmlns:gpxtpx="http://www.garmin.com/xmlschemas/TrackPointExtension/v1">
            <gpxtpx:hr>103</gpxtpx:hr>
          </gpxtpx:TrackPointExtension>
        </extensions>
      </trkpt>
      <trkpt lat="45.53444" lon="2.6885">
        <ele>947.59997558594</ele>
        <time>2024-05-26T07:55:39.000Z</time>
        <extensions>
          <gpxtpx:TrackPointExtension xmlns:gpxtpx="http://www.garmin.com/xmlschemas/TrackPointExtension/v1">
            <gpxtpx:hr>104</gpxtpx:hr>
          </gpxtpx:TrackPointExtension>
        </extensions>
      </trkpt>
      <trkpt lat="45.53459" lon="2.68858">
        <ele>948.59997558594</ele>
        <time>2024-05-26T07:55:44.000Z</time>
        <extensions>
          <gpxtpx:TrackPointExtension xmlns:gpxtpx="http://www.garmin.com/xmlschemas/TrackPointExtension/v1">
            <gpxtpx:hr>104</gpxtpx:hr>
          </gpxtpx:TrackPointExtension>
        </extensions>
      </trkpt>
      <trkpt lat="45.53462" lon="2.6886">
        <ele>949</ele>
        <time>2024-05-26T07:55:45.000Z</time>
        <extensions>
          <gpxtpx:TrackPointExtension xmlns:gpxtpx="http://www.garmin.com/xmlschemas/TrackPointExtension/v1">
            <gpxtpx:hr>104</gpxtpx:hr>
          </gpxtpx:TrackPointExtension>
        </extensions>
      </trkpt>
      <trkpt lat="45.53481" lon="2.68873">
        <ele>949.59997558594</ele>
        <time>2024-05-26T07:55:52.000Z</time>
        <extensions>
          <gpxtpx:TrackPointExtension xmlns:gpxtpx="http://www.garmin.com/xmlschemas/TrackPointExtension/v1">
            <gpxtpx:hr>104</gpxtpx:hr>
          </gpxtpx:TrackPointExtension>
        </extensions>
      </trkpt>
      <trkpt lat="45.53484" lon="2.68874">
        <ele>949.79998779297</ele>
        <time>2024-05-26T07:55:53.000Z</time>
        <extensions>
          <gpxtpx:TrackPointExtension xmlns:gpxtpx="http://www.garmin.com/xmlschemas/TrackPointExtension/v1">
            <gpxtpx:hr>104</gpxtpx:hr>
          </gpxtpx:TrackPointExtension>
        </extensions>
      </trkpt>
      <trkpt lat="45.53492" lon="2.68879">
        <ele>950</ele>
        <time>2024-05-26T07:55:56.000Z</time>
        <extensions>
          <gpxtpx:TrackPointExtension xmlns:gpxtpx="http://www.garmin.com/xmlschemas/TrackPointExtension/v1">
            <gpxtpx:hr>104</gpxtpx:hr>
          </gpxtpx:TrackPointExtension>
        </extensions>
      </trkpt>
      <trkpt lat="45.53503" lon="2.68887">
        <ele>951</ele>
        <time>2024-05-26T07:56:00.000Z</time>
        <extensions>
          <gpxtpx:TrackPointExtension xmlns:gpxtpx="http://www.garmin.com/xmlschemas/TrackPointExtension/v1">
            <gpxtpx:hr>104</gpxtpx:hr>
          </gpxtpx:TrackPointExtension>
        </extensions>
      </trkpt>
      <trkpt lat="45.53519" lon="2.68898">
        <ele>952</ele>
        <time>2024-05-26T07:56:06.000Z</time>
        <extensions>
          <gpxtpx:TrackPointExtension xmlns:gpxtpx="http://www.garmin.com/xmlschemas/TrackPointExtension/v1">
            <gpxtpx:hr>104</gpxtpx:hr>
          </gpxtpx:TrackPointExtension>
        </extensions>
      </trkpt>
      <trkpt lat="45.53527" lon="2.68904">
        <ele>952.79998779297</ele>
        <time>2024-05-26T07:56:09.000Z</time>
        <extensions>
          <gpxtpx:TrackPointExtension xmlns:gpxtpx="http://www.garmin.com/xmlschemas/TrackPointExtension/v1">
            <gpxtpx:hr>104</gpxtpx:hr>
          </gpxtpx:TrackPointExtension>
        </extensions>
      </trkpt>
      <trkpt lat="45.53535" lon="2.6891">
        <ele>953.20001220703</ele>
        <time>2024-05-26T07:56:12.000Z</time>
        <extensions>
          <gpxtpx:TrackPointExtension xmlns:gpxtpx="http://www.garmin.com/xmlschemas/TrackPointExtension/v1">
            <gpxtpx:hr>105</gpxtpx:hr>
          </gpxtpx:TrackPointExtension>
        </extensions>
      </trkpt>
      <trkpt lat="45.53552" lon="2.68927">
        <ele>954.20001220703</ele>
        <time>2024-05-26T07:56:19.000Z</time>
        <extensions>
          <gpxtpx:TrackPointExtension xmlns:gpxtpx="http://www.garmin.com/xmlschemas/TrackPointExtension/v1">
            <gpxtpx:hr>105</gpxtpx:hr>
          </gpxtpx:TrackPointExtension>
        </extensions>
      </trkpt>
      <trkpt lat="45.53554" lon="2.68929">
        <ele>954.40002441406</ele>
        <time>2024-05-26T07:56:20.000Z</time>
        <extensions>
          <gpxtpx:TrackPointExtension xmlns:gpxtpx="http://www.garmin.com/xmlschemas/TrackPointExtension/v1">
            <gpxtpx:hr>106</gpxtpx:hr>
          </gpxtpx:TrackPointExtension>
        </extensions>
      </trkpt>
      <trkpt lat="45.53561" lon="2.68938">
        <ele>955.20001220703</ele>
        <time>2024-05-26T07:56:23.000Z</time>
        <extensions>
          <gpxtpx:TrackPointExtension xmlns:gpxtpx="http://www.garmin.com/xmlschemas/TrackPointExtension/v1">
            <gpxtpx:hr>106</gpxtpx:hr>
          </gpxtpx:TrackPointExtension>
        </extensions>
      </trkpt>
      <trkpt lat="45.53563" lon="2.68941">
        <ele>955.40002441406</ele>
        <time>2024-05-26T07:56:24.000Z</time>
        <extensions>
          <gpxtpx:TrackPointExtension xmlns:gpxtpx="http://www.garmin.com/xmlschemas/TrackPointExtension/v1">
            <gpxtpx:hr>107</gpxtpx:hr>
          </gpxtpx:TrackPointExtension>
        </extensions>
      </trkpt>
      <trkpt lat="45.53567" lon="2.68949">
        <ele>955.79998779297</ele>
        <time>2024-05-26T07:56:26.000Z</time>
        <extensions>
          <gpxtpx:TrackPointExtension xmlns:gpxtpx="http://www.garmin.com/xmlschemas/TrackPointExtension/v1">
            <gpxtpx:hr>108</gpxtpx:hr>
          </gpxtpx:TrackPointExtension>
        </extensions>
      </trkpt>
      <trkpt lat="45.53574" lon="2.68968">
        <ele>956.59997558594</ele>
        <time>2024-05-26T07:56:31.000Z</time>
        <extensions>
          <gpxtpx:TrackPointExtension xmlns:gpxtpx="http://www.garmin.com/xmlschemas/TrackPointExtension/v1">
            <gpxtpx:hr>109</gpxtpx:hr>
          </gpxtpx:TrackPointExtension>
        </extensions>
      </trkpt>
      <trkpt lat="45.53576" lon="2.68976">
        <ele>957</ele>
        <time>2024-05-26T07:56:33.000Z</time>
        <extensions>
          <gpxtpx:TrackPointExtension xmlns:gpxtpx="http://www.garmin.com/xmlschemas/TrackPointExtension/v1">
            <gpxtpx:hr>110</gpxtpx:hr>
          </gpxtpx:TrackPointExtension>
        </extensions>
      </trkpt>
      <trkpt lat="45.5358" lon="2.68988">
        <ele>957.59997558594</ele>
        <time>2024-05-26T07:56:36.000Z</time>
        <extensions>
          <gpxtpx:TrackPointExtension xmlns:gpxtpx="http://www.garmin.com/xmlschemas/TrackPointExtension/v1">
            <gpxtpx:hr>110</gpxtpx:hr>
          </gpxtpx:TrackPointExtension>
        </extensions>
      </trkpt>
      <trkpt lat="45.53586" lon="2.69006">
        <ele>958.40002441406</ele>
        <time>2024-05-26T07:56:41.000Z</time>
        <extensions>
          <gpxtpx:TrackPointExtension xmlns:gpxtpx="http://www.garmin.com/xmlschemas/TrackPointExtension/v1">
            <gpxtpx:hr>113</gpxtpx:hr>
          </gpxtpx:TrackPointExtension>
        </extensions>
      </trkpt>
      <trkpt lat="45.53588" lon="2.69014">
        <ele>958.79998779297</ele>
        <time>2024-05-26T07:56:43.000Z</time>
        <extensions>
          <gpxtpx:TrackPointExtension xmlns:gpxtpx="http://www.garmin.com/xmlschemas/TrackPointExtension/v1">
            <gpxtpx:hr>112</gpxtpx:hr>
          </gpxtpx:TrackPointExtension>
        </extensions>
      </trkpt>
      <trkpt lat="45.53592" lon="2.69035">
        <ele>959.79998779297</ele>
        <time>2024-05-26T07:56:48.000Z</time>
        <extensions>
          <gpxtpx:TrackPointExtension xmlns:gpxtpx="http://www.garmin.com/xmlschemas/TrackPointExtension/v1">
            <gpxtpx:hr>112</gpxtpx:hr>
          </gpxtpx:TrackPointExtension>
        </extensions>
      </trkpt>
      <trkpt lat="45.53593" lon="2.69043">
        <ele>960</ele>
        <time>2024-05-26T07:56:50.000Z</time>
        <extensions>
          <gpxtpx:TrackPointExtension xmlns:gpxtpx="http://www.garmin.com/xmlschemas/TrackPointExtension/v1">
            <gpxtpx:hr>112</gpxtpx:hr>
          </gpxtpx:TrackPointExtension>
        </extensions>
      </trkpt>
      <trkpt lat="45.53595" lon="2.69064">
        <ele>960.79998779297</ele>
        <time>2024-05-26T07:56:55.000Z</time>
        <extensions>
          <gpxtpx:TrackPointExtension xmlns:gpxtpx="http://www.garmin.com/xmlschemas/TrackPointExtension/v1">
            <gpxtpx:hr>114</gpxtpx:hr>
          </gpxtpx:TrackPointExtension>
        </extensions>
      </trkpt>
      <trkpt lat="45.53598" lon="2.69092">
        <ele>961.40002441406</ele>
        <time>2024-05-26T07:57:01.000Z</time>
        <extensions>
          <gpxtpx:TrackPointExtension xmlns:gpxtpx="http://www.garmin.com/xmlschemas/TrackPointExtension/v1">
            <gpxtpx:hr>115</gpxtpx:hr>
          </gpxtpx:TrackPointExtension>
        </extensions>
      </trkpt>
      <trkpt lat="45.53599" lon="2.69105">
        <ele>962</ele>
        <time>2024-05-26T07:57:04.000Z</time>
        <extensions>
          <gpxtpx:TrackPointExtension xmlns:gpxtpx="http://www.garmin.com/xmlschemas/TrackPointExtension/v1">
            <gpxtpx:hr>114</gpxtpx:hr>
          </gpxtpx:TrackPointExtension>
        </extensions>
      </trkpt>
      <trkpt lat="45.53601" lon="2.69126">
        <ele>963</ele>
        <time>2024-05-26T07:57:09.000Z</time>
        <extensions>
          <gpxtpx:TrackPointExtension xmlns:gpxtpx="http://www.garmin.com/xmlschemas/TrackPointExtension/v1">
            <gpxtpx:hr>115</gpxtpx:hr>
          </gpxtpx:TrackPointExtension>
        </extensions>
      </trkpt>
      <trkpt lat="45.53601" lon="2.6913">
        <ele>963</ele>
        <time>2024-05-26T07:57:10.000Z</time>
        <extensions>
          <gpxtpx:TrackPointExtension xmlns:gpxtpx="http://www.garmin.com/xmlschemas/TrackPointExtension/v1">
            <gpxtpx:hr>115</gpxtpx:hr>
          </gpxtpx:TrackPointExtension>
        </extensions>
      </trkpt>
      <trkpt lat="45.53597" lon="2.69149">
        <ele>964.20001220703</ele>
        <time>2024-05-26T07:57:15.000Z</time>
        <extensions>
          <gpxtpx:TrackPointExtension xmlns:gpxtpx="http://www.garmin.com/xmlschemas/TrackPointExtension/v1">
            <gpxtpx:hr>114</gpxtpx:hr>
          </gpxtpx:TrackPointExtension>
        </extensions>
      </trkpt>
      <trkpt lat="45.53595" lon="2.69153">
        <ele>964.20001220703</ele>
        <time>2024-05-26T07:57:16.000Z</time>
        <extensions>
          <gpxtpx:TrackPointExtension xmlns:gpxtpx="http://www.garmin.com/xmlschemas/TrackPointExtension/v1">
            <gpxtpx:hr>114</gpxtpx:hr>
          </gpxtpx:TrackPointExtension>
        </extensions>
      </trkpt>
      <trkpt lat="45.5358" lon="2.69171">
        <ele>964.79998779297</ele>
        <time>2024-05-26T07:57:22.000Z</time>
        <extensions>
          <gpxtpx:TrackPointExtension xmlns:gpxtpx="http://www.garmin.com/xmlschemas/TrackPointExtension/v1">
            <gpxtpx:hr>113</gpxtpx:hr>
          </gpxtpx:TrackPointExtension>
        </extensions>
      </trkpt>
      <trkpt lat="45.53575" lon="2.69175">
        <ele>965.20001220703</ele>
        <time>2024-05-26T07:57:24.000Z</time>
        <extensions>
          <gpxtpx:TrackPointExtension xmlns:gpxtpx="http://www.garmin.com/xmlschemas/TrackPointExtension/v1">
            <gpxtpx:hr>113</gpxtpx:hr>
          </gpxtpx:TrackPointExtension>
        </extensions>
      </trkpt>
      <trkpt lat="45.53566" lon="2.69179">
        <ele>965.59997558594</ele>
        <time>2024-05-26T07:57:27.000Z</time>
        <extensions>
          <gpxtpx:TrackPointExtension xmlns:gpxtpx="http://www.garmin.com/xmlschemas/TrackPointExtension/v1">
            <gpxtpx:hr>113</gpxtpx:hr>
          </gpxtpx:TrackPointExtension>
        </extensions>
      </trkpt>
      <trkpt lat="45.53554" lon="2.69179">
        <ele>966.40002441406</ele>
        <time>2024-05-26T07:57:31.000Z</time>
        <extensions>
          <gpxtpx:TrackPointExtension xmlns:gpxtpx="http://www.garmin.com/xmlschemas/TrackPointExtension/v1">
            <gpxtpx:hr>113</gpxtpx:hr>
          </gpxtpx:TrackPointExtension>
        </extensions>
      </trkpt>
      <trkpt lat="45.53548" lon="2.69177">
        <ele>966.59997558594</ele>
        <time>2024-05-26T07:57:33.000Z</time>
        <extensions>
          <gpxtpx:TrackPointExtension xmlns:gpxtpx="http://www.garmin.com/xmlschemas/TrackPointExtension/v1">
            <gpxtpx:hr>112</gpxtpx:hr>
          </gpxtpx:TrackPointExtension>
        </extensions>
      </trkpt>
      <trkpt lat="45.53534" lon="2.69168">
        <ele>967.59997558594</ele>
        <time>2024-05-26T07:57:38.000Z</time>
        <extensions>
          <gpxtpx:TrackPointExtension xmlns:gpxtpx="http://www.garmin.com/xmlschemas/TrackPointExtension/v1">
            <gpxtpx:hr>112</gpxtpx:hr>
          </gpxtpx:TrackPointExtension>
        </extensions>
      </trkpt>
      <trkpt lat="45.5352" lon="2.69158">
        <ele>968.20001220703</ele>
        <time>2024-05-26T07:57:43.000Z</time>
        <extensions>
          <gpxtpx:TrackPointExtension xmlns:gpxtpx="http://www.garmin.com/xmlschemas/TrackPointExtension/v1">
            <gpxtpx:hr>112</gpxtpx:hr>
          </gpxtpx:TrackPointExtension>
        </extensions>
      </trkpt>
      <trkpt lat="45.53512" lon="2.69152">
        <ele>968.79998779297</ele>
        <time>2024-05-26T07:57:46.000Z</time>
        <extensions>
          <gpxtpx:TrackPointExtension xmlns:gpxtpx="http://www.garmin.com/xmlschemas/TrackPointExtension/v1">
            <gpxtpx:hr>114</gpxtpx:hr>
          </gpxtpx:TrackPointExtension>
        </extensions>
      </trkpt>
      <trkpt lat="45.53493" lon="2.69137">
        <ele>969.79998779297</ele>
        <time>2024-05-26T07:57:53.000Z</time>
        <extensions>
          <gpxtpx:TrackPointExtension xmlns:gpxtpx="http://www.garmin.com/xmlschemas/TrackPointExtension/v1">
            <gpxtpx:hr>114</gpxtpx:hr>
          </gpxtpx:TrackPointExtension>
        </extensions>
      </trkpt>
      <trkpt lat="45.53473" lon="2.69124">
        <ele>970.79998779297</ele>
        <time>2024-05-26T07:58:00.000Z</time>
        <extensions>
          <gpxtpx:TrackPointExtension xmlns:gpxtpx="http://www.garmin.com/xmlschemas/TrackPointExtension/v1">
            <gpxtpx:hr>115</gpxtpx:hr>
          </gpxtpx:TrackPointExtension>
        </extensions>
      </trkpt>
      <trkpt lat="45.53468" lon="2.6912">
        <ele>971.20001220703</ele>
        <time>2024-05-26T07:58:02.000Z</time>
        <extensions>
          <gpxtpx:TrackPointExtension xmlns:gpxtpx="http://www.garmin.com/xmlschemas/TrackPointExtension/v1">
            <gpxtpx:hr>115</gpxtpx:hr>
          </gpxtpx:TrackPointExtension>
        </extensions>
      </trkpt>
      <trkpt lat="45.53451" lon="2.69107">
        <ele>972</ele>
        <time>2024-05-26T07:58:08.000Z</time>
        <extensions>
          <gpxtpx:TrackPointExtension xmlns:gpxtpx="http://www.garmin.com/xmlschemas/TrackPointExtension/v1">
            <gpxtpx:hr>115</gpxtpx:hr>
          </gpxtpx:TrackPointExtension>
        </extensions>
      </trkpt>
      <trkpt lat="45.53449" lon="2.69105">
        <ele>972.40002441406</ele>
        <time>2024-05-26T07:58:09.000Z</time>
        <extensions>
          <gpxtpx:TrackPointExtension xmlns:gpxtpx="http://www.garmin.com/xmlschemas/TrackPointExtension/v1">
            <gpxtpx:hr>115</gpxtpx:hr>
          </gpxtpx:TrackPointExtension>
        </extensions>
      </trkpt>
      <trkpt lat="45.53436" lon="2.69094">
        <ele>972.79998779297</ele>
        <time>2024-05-26T07:58:14.000Z</time>
        <extensions>
          <gpxtpx:TrackPointExtension xmlns:gpxtpx="http://www.garmin.com/xmlschemas/TrackPointExtension/v1">
            <gpxtpx:hr>114</gpxtpx:hr>
          </gpxtpx:TrackPointExtension>
        </extensions>
      </trkpt>
      <trkpt lat="45.53433" lon="2.69092">
        <ele>973.20001220703</ele>
        <time>2024-05-26T07:58:15.000Z</time>
        <extensions>
          <gpxtpx:TrackPointExtension xmlns:gpxtpx="http://www.garmin.com/xmlschemas/TrackPointExtension/v1">
            <gpxtpx:hr>114</gpxtpx:hr>
          </gpxtpx:TrackPointExtension>
        </extensions>
      </trkpt>
      <trkpt lat="45.53415" lon="2.69076">
        <ele>974.20001220703</ele>
        <time>2024-05-26T07:58:22.000Z</time>
        <extensions>
          <gpxtpx:TrackPointExtension xmlns:gpxtpx="http://www.garmin.com/xmlschemas/TrackPointExtension/v1">
            <gpxtpx:hr>114</gpxtpx:hr>
          </gpxtpx:TrackPointExtension>
        </extensions>
      </trkpt>
      <trkpt lat="45.53412" lon="2.69074">
        <ele>974.20001220703</ele>
        <time>2024-05-26T07:58:23.000Z</time>
        <extensions>
          <gpxtpx:TrackPointExtension xmlns:gpxtpx="http://www.garmin.com/xmlschemas/TrackPointExtension/v1">
            <gpxtpx:hr>114</gpxtpx:hr>
          </gpxtpx:TrackPointExtension>
        </extensions>
      </trkpt>
      <trkpt lat="45.534" lon="2.69067">
        <ele>975</ele>
        <time>2024-05-26T07:58:27.000Z</time>
        <extensions>
          <gpxtpx:TrackPointExtension xmlns:gpxtpx="http://www.garmin.com/xmlschemas/TrackPointExtension/v1">
            <gpxtpx:hr>114</gpxtpx:hr>
          </gpxtpx:TrackPointExtension>
        </extensions>
      </trkpt>
      <trkpt lat="45.53394" lon="2.69063">
        <ele>975.40002441406</ele>
        <time>2024-05-26T07:58:29.000Z</time>
        <extensions>
          <gpxtpx:TrackPointExtension xmlns:gpxtpx="http://www.garmin.com/xmlschemas/TrackPointExtension/v1">
            <gpxtpx:hr>114</gpxtpx:hr>
          </gpxtpx:TrackPointExtension>
        </extensions>
      </trkpt>
      <trkpt lat="45.53383" lon="2.69055">
        <ele>975.79998779297</ele>
        <time>2024-05-26T07:58:33.000Z</time>
        <extensions>
          <gpxtpx:TrackPointExtension xmlns:gpxtpx="http://www.garmin.com/xmlschemas/TrackPointExtension/v1">
            <gpxtpx:hr>113</gpxtpx:hr>
          </gpxtpx:TrackPointExtension>
        </extensions>
      </trkpt>
      <trkpt lat="45.53372" lon="2.69047">
        <ele>976.20001220703</ele>
        <time>2024-05-26T07:58:37.000Z</time>
        <extensions>
          <gpxtpx:TrackPointExtension xmlns:gpxtpx="http://www.garmin.com/xmlschemas/TrackPointExtension/v1">
            <gpxtpx:hr>113</gpxtpx:hr>
          </gpxtpx:TrackPointExtension>
        </extensions>
      </trkpt>
      <trkpt lat="45.53365" lon="2.6904">
        <ele>976.59997558594</ele>
        <time>2024-05-26T07:58:40.000Z</time>
        <extensions>
          <gpxtpx:TrackPointExtension xmlns:gpxtpx="http://www.garmin.com/xmlschemas/TrackPointExtension/v1">
            <gpxtpx:hr>113</gpxtpx:hr>
          </gpxtpx:TrackPointExtension>
        </extensions>
      </trkpt>
      <trkpt lat="45.53348" lon="2.69032">
        <ele>977.20001220703</ele>
        <time>2024-05-26T07:58:45.000Z</time>
        <extensions>
          <gpxtpx:TrackPointExtension xmlns:gpxtpx="http://www.garmin.com/xmlschemas/TrackPointExtension/v1">
            <gpxtpx:hr>112</gpxtpx:hr>
          </gpxtpx:TrackPointExtension>
        </extensions>
      </trkpt>
      <trkpt lat="45.5334" lon="2.69028">
        <ele>977.59997558594</ele>
        <time>2024-05-26T07:58:48.000Z</time>
        <extensions>
          <gpxtpx:TrackPointExtension xmlns:gpxtpx="http://www.garmin.com/xmlschemas/TrackPointExtension/v1">
            <gpxtpx:hr>111</gpxtpx:hr>
          </gpxtpx:TrackPointExtension>
        </extensions>
      </trkpt>
      <trkpt lat="45.53323" lon="2.69036">
        <ele>978.20001220703</ele>
        <time>2024-05-26T07:58:54.000Z</time>
        <extensions>
          <gpxtpx:TrackPointExtension xmlns:gpxtpx="http://www.garmin.com/xmlschemas/TrackPointExtension/v1">
            <gpxtpx:hr>111</gpxtpx:hr>
          </gpxtpx:TrackPointExtension>
        </extensions>
      </trkpt>
      <trkpt lat="45.53309" lon="2.69047">
        <ele>979.40002441406</ele>
        <time>2024-05-26T07:59:00.000Z</time>
        <extensions>
          <gpxtpx:TrackPointExtension xmlns:gpxtpx="http://www.garmin.com/xmlschemas/TrackPointExtension/v1">
            <gpxtpx:hr>112</gpxtpx:hr>
          </gpxtpx:TrackPointExtension>
        </extensions>
      </trkpt>
      <trkpt lat="45.53306" lon="2.69047">
        <ele>979.40002441406</ele>
        <time>2024-05-26T07:59:01.000Z</time>
        <extensions>
          <gpxtpx:TrackPointExtension xmlns:gpxtpx="http://www.garmin.com/xmlschemas/TrackPointExtension/v1">
            <gpxtpx:hr>112</gpxtpx:hr>
          </gpxtpx:TrackPointExtension>
        </extensions>
      </trkpt>
      <trkpt lat="45.53281" lon="2.69048">
        <ele>980.20001220703</ele>
        <time>2024-05-26T07:59:09.000Z</time>
        <extensions>
          <gpxtpx:TrackPointExtension xmlns:gpxtpx="http://www.garmin.com/xmlschemas/TrackPointExtension/v1">
            <gpxtpx:hr>113</gpxtpx:hr>
          </gpxtpx:TrackPointExtension>
        </extensions>
      </trkpt>
      <trkpt lat="45.53279" lon="2.69052">
        <ele>980.40002441406</ele>
        <time>2024-05-26T07:59:11.000Z</time>
        <extensions>
          <gpxtpx:TrackPointExtension xmlns:gpxtpx="http://www.garmin.com/xmlschemas/TrackPointExtension/v1">
            <gpxtpx:hr>113</gpxtpx:hr>
          </gpxtpx:TrackPointExtension>
        </extensions>
      </trkpt>
      <trkpt lat="45.5328" lon="2.69059">
        <ele>980.59997558594</ele>
        <time>2024-05-26T07:59:13.000Z</time>
        <extensions>
          <gpxtpx:TrackPointExtension xmlns:gpxtpx="http://www.garmin.com/xmlschemas/TrackPointExtension/v1">
            <gpxtpx:hr>112</gpxtpx:hr>
          </gpxtpx:TrackPointExtension>
        </extensions>
      </trkpt>
      <trkpt lat="45.53288" lon="2.69071">
        <ele>981.20001220703</ele>
        <time>2024-05-26T07:59:17.000Z</time>
        <extensions>
          <gpxtpx:TrackPointExtension xmlns:gpxtpx="http://www.garmin.com/xmlschemas/TrackPointExtension/v1">
            <gpxtpx:hr>112</gpxtpx:hr>
          </gpxtpx:TrackPointExtension>
        </extensions>
      </trkpt>
      <trkpt lat="45.53292" lon="2.69075">
        <ele>981.40002441406</ele>
        <time>2024-05-26T07:59:19.000Z</time>
        <extensions>
          <gpxtpx:TrackPointExtension xmlns:gpxtpx="http://www.garmin.com/xmlschemas/TrackPointExtension/v1">
            <gpxtpx:hr>111</gpxtpx:hr>
          </gpxtpx:TrackPointExtension>
        </extensions>
      </trkpt>
      <trkpt lat="45.53295" lon="2.69078">
        <ele>981.40002441406</ele>
        <time>2024-05-26T07:59:20.000Z</time>
        <extensions>
          <gpxtpx:TrackPointExtension xmlns:gpxtpx="http://www.garmin.com/xmlschemas/TrackPointExtension/v1">
            <gpxtpx:hr>111</gpxtpx:hr>
          </gpxtpx:TrackPointExtension>
        </extensions>
      </trkpt>
      <trkpt lat="45.5331" lon="2.69095">
        <ele>982.59997558594</ele>
        <time>2024-05-26T07:59:26.000Z</time>
        <extensions>
          <gpxtpx:TrackPointExtension xmlns:gpxtpx="http://www.garmin.com/xmlschemas/TrackPointExtension/v1">
            <gpxtpx:hr>111</gpxtpx:hr>
          </gpxtpx:TrackPointExtension>
        </extensions>
      </trkpt>
      <trkpt lat="45.53313" lon="2.69096">
        <ele>982.79998779297</ele>
        <time>2024-05-26T07:59:27.000Z</time>
        <extensions>
          <gpxtpx:TrackPointExtension xmlns:gpxtpx="http://www.garmin.com/xmlschemas/TrackPointExtension/v1">
            <gpxtpx:hr>111</gpxtpx:hr>
          </gpxtpx:TrackPointExtension>
        </extensions>
      </trkpt>
      <trkpt lat="45.53335" lon="2.69113">
        <ele>983.59997558594</ele>
        <time>2024-05-26T07:59:35.000Z</time>
        <extensions>
          <gpxtpx:TrackPointExtension xmlns:gpxtpx="http://www.garmin.com/xmlschemas/TrackPointExtension/v1">
            <gpxtpx:hr>109</gpxtpx:hr>
          </gpxtpx:TrackPointExtension>
        </extensions>
      </trkpt>
      <trkpt lat="45.53351" lon="2.69127">
        <ele>985</ele>
        <time>2024-05-26T07:59:41.000Z</time>
        <extensions>
          <gpxtpx:TrackPointExtension xmlns:gpxtpx="http://www.garmin.com/xmlschemas/TrackPointExtension/v1">
            <gpxtpx:hr>107</gpxtpx:hr>
          </gpxtpx:TrackPointExtension>
        </extensions>
      </trkpt>
      <trkpt lat="45.53356" lon="2.6913">
        <ele>985.20001220703</ele>
        <time>2024-05-26T07:59:43.000Z</time>
        <extensions>
          <gpxtpx:TrackPointExtension xmlns:gpxtpx="http://www.garmin.com/xmlschemas/TrackPointExtension/v1">
            <gpxtpx:hr>107</gpxtpx:hr>
          </gpxtpx:TrackPointExtension>
        </extensions>
      </trkpt>
      <trkpt lat="45.5336" lon="2.69133">
        <ele>985.20001220703</ele>
        <time>2024-05-26T07:59:44.000Z</time>
        <extensions>
          <gpxtpx:TrackPointExtension xmlns:gpxtpx="http://www.garmin.com/xmlschemas/TrackPointExtension/v1">
            <gpxtpx:hr>107</gpxtpx:hr>
          </gpxtpx:TrackPointExtension>
        </extensions>
      </trkpt>
      <trkpt lat="45.53378" lon="2.69157">
        <ele>985.40002441406</ele>
        <time>2024-05-26T07:59:51.000Z</time>
        <extensions>
          <gpxtpx:TrackPointExtension xmlns:gpxtpx="http://www.garmin.com/xmlschemas/TrackPointExtension/v1">
            <gpxtpx:hr>107</gpxtpx:hr>
          </gpxtpx:TrackPointExtension>
        </extensions>
      </trkpt>
      <trkpt lat="45.53388" lon="2.69178">
        <ele>985.79998779297</ele>
        <time>2024-05-26T07:59:56.000Z</time>
        <extensions>
          <gpxtpx:TrackPointExtension xmlns:gpxtpx="http://www.garmin.com/xmlschemas/TrackPointExtension/v1">
            <gpxtpx:hr>110</gpxtpx:hr>
          </gpxtpx:TrackPointExtension>
        </extensions>
      </trkpt>
      <trkpt lat="45.53394" lon="2.6919">
        <ele>986.20001220703</ele>
        <time>2024-05-26T07:59:59.000Z</time>
        <extensions>
          <gpxtpx:TrackPointExtension xmlns:gpxtpx="http://www.garmin.com/xmlschemas/TrackPointExtension/v1">
            <gpxtpx:hr>108</gpxtpx:hr>
          </gpxtpx:TrackPointExtension>
        </extensions>
      </trkpt>
      <trkpt lat="45.53397" lon="2.69199">
        <ele>986.40002441406</ele>
        <time>2024-05-26T08:00:01.000Z</time>
        <extensions>
          <gpxtpx:TrackPointExtension xmlns:gpxtpx="http://www.garmin.com/xmlschemas/TrackPointExtension/v1">
            <gpxtpx:hr>108</gpxtpx:hr>
          </gpxtpx:TrackPointExtension>
        </extensions>
      </trkpt>
      <trkpt lat="45.5342" lon="2.69251">
        <ele>987.40002441406</ele>
        <time>2024-05-26T08:00:13.000Z</time>
        <extensions>
          <gpxtpx:TrackPointExtension xmlns:gpxtpx="http://www.garmin.com/xmlschemas/TrackPointExtension/v1">
            <gpxtpx:hr>107</gpxtpx:hr>
          </gpxtpx:TrackPointExtension>
        </extensions>
      </trkpt>
      <trkpt lat="45.53435" lon="2.69287">
        <ele>988.20001220703</ele>
        <time>2024-05-26T08:00:21.000Z</time>
        <extensions>
          <gpxtpx:TrackPointExtension xmlns:gpxtpx="http://www.garmin.com/xmlschemas/TrackPointExtension/v1">
            <gpxtpx:hr>108</gpxtpx:hr>
          </gpxtpx:TrackPointExtension>
        </extensions>
      </trkpt>
      <trkpt lat="45.53437" lon="2.69291">
        <ele>988.59997558594</ele>
        <time>2024-05-26T08:00:22.000Z</time>
        <extensions>
          <gpxtpx:TrackPointExtension xmlns:gpxtpx="http://www.garmin.com/xmlschemas/TrackPointExtension/v1">
            <gpxtpx:hr>108</gpxtpx:hr>
          </gpxtpx:TrackPointExtension>
        </extensions>
      </trkpt>
      <trkpt lat="45.5345" lon="2.69322">
        <ele>989.59997558594</ele>
        <time>2024-05-26T08:00:29.000Z</time>
        <extensions>
          <gpxtpx:TrackPointExtension xmlns:gpxtpx="http://www.garmin.com/xmlschemas/TrackPointExtension/v1">
            <gpxtpx:hr>108</gpxtpx:hr>
          </gpxtpx:TrackPointExtension>
        </extensions>
      </trkpt>
      <trkpt lat="45.53456" lon="2.69339">
        <ele>990</ele>
        <time>2024-05-26T08:00:33.000Z</time>
        <extensions>
          <gpxtpx:TrackPointExtension xmlns:gpxtpx="http://www.garmin.com/xmlschemas/TrackPointExtension/v1">
            <gpxtpx:hr>109</gpxtpx:hr>
          </gpxtpx:TrackPointExtension>
        </extensions>
      </trkpt>
      <trkpt lat="45.53462" lon="2.69361">
        <ele>990.79998779297</ele>
        <time>2024-05-26T08:00:38.000Z</time>
        <extensions>
          <gpxtpx:TrackPointExtension xmlns:gpxtpx="http://www.garmin.com/xmlschemas/TrackPointExtension/v1">
            <gpxtpx:hr>110</gpxtpx:hr>
          </gpxtpx:TrackPointExtension>
        </extensions>
      </trkpt>
      <trkpt lat="45.53468" lon="2.69378">
        <ele>991.59997558594</ele>
        <time>2024-05-26T08:00:42.000Z</time>
        <extensions>
          <gpxtpx:TrackPointExtension xmlns:gpxtpx="http://www.garmin.com/xmlschemas/TrackPointExtension/v1">
            <gpxtpx:hr>110</gpxtpx:hr>
          </gpxtpx:TrackPointExtension>
        </extensions>
      </trkpt>
      <trkpt lat="45.53471" lon="2.69392">
        <ele>991.79998779297</ele>
        <time>2024-05-26T08:00:45.000Z</time>
        <extensions>
          <gpxtpx:TrackPointExtension xmlns:gpxtpx="http://www.garmin.com/xmlschemas/TrackPointExtension/v1">
            <gpxtpx:hr>110</gpxtpx:hr>
          </gpxtpx:TrackPointExtension>
        </extensions>
      </trkpt>
      <trkpt lat="45.53479" lon="2.69417">
        <ele>992.79998779297</ele>
        <time>2024-05-26T08:00:51.000Z</time>
        <extensions>
          <gpxtpx:TrackPointExtension xmlns:gpxtpx="http://www.garmin.com/xmlschemas/TrackPointExtension/v1">
            <gpxtpx:hr>112</gpxtpx:hr>
          </gpxtpx:TrackPointExtension>
        </extensions>
      </trkpt>
      <trkpt lat="45.5348" lon="2.69421">
        <ele>993</ele>
        <time>2024-05-26T08:00:52.000Z</time>
        <extensions>
          <gpxtpx:TrackPointExtension xmlns:gpxtpx="http://www.garmin.com/xmlschemas/TrackPointExtension/v1">
            <gpxtpx:hr>112</gpxtpx:hr>
          </gpxtpx:TrackPointExtension>
        </extensions>
      </trkpt>
      <trkpt lat="45.53487" lon="2.69447">
        <ele>994</ele>
        <time>2024-05-26T08:00:58.000Z</time>
        <extensions>
          <gpxtpx:TrackPointExtension xmlns:gpxtpx="http://www.garmin.com/xmlschemas/TrackPointExtension/v1">
            <gpxtpx:hr>113</gpxtpx:hr>
          </gpxtpx:TrackPointExtension>
        </extensions>
      </trkpt>
      <trkpt lat="45.53493" lon="2.69473">
        <ele>994.79998779297</ele>
        <time>2024-05-26T08:01:04.000Z</time>
        <extensions>
          <gpxtpx:TrackPointExtension xmlns:gpxtpx="http://www.garmin.com/xmlschemas/TrackPointExtension/v1">
            <gpxtpx:hr>114</gpxtpx:hr>
          </gpxtpx:TrackPointExtension>
        </extensions>
      </trkpt>
      <trkpt lat="45.53494" lon="2.69477">
        <ele>995</ele>
        <time>2024-05-26T08:01:05.000Z</time>
        <extensions>
          <gpxtpx:TrackPointExtension xmlns:gpxtpx="http://www.garmin.com/xmlschemas/TrackPointExtension/v1">
            <gpxtpx:hr>113</gpxtpx:hr>
          </gpxtpx:TrackPointExtension>
        </extensions>
      </trkpt>
      <trkpt lat="45.535" lon="2.695">
        <ele>995.79998779297</ele>
        <time>2024-05-26T08:01:10.000Z</time>
        <extensions>
          <gpxtpx:TrackPointExtension xmlns:gpxtpx="http://www.garmin.com/xmlschemas/TrackPointExtension/v1">
            <gpxtpx:hr>113</gpxtpx:hr>
          </gpxtpx:TrackPointExtension>
        </extensions>
      </trkpt>
      <trkpt lat="45.53501" lon="2.69504">
        <ele>996</ele>
        <time>2024-05-26T08:01:11.000Z</time>
        <extensions>
          <gpxtpx:TrackPointExtension xmlns:gpxtpx="http://www.garmin.com/xmlschemas/TrackPointExtension/v1">
            <gpxtpx:hr>113</gpxtpx:hr>
          </gpxtpx:TrackPointExtension>
        </extensions>
      </trkpt>
      <trkpt lat="45.53503" lon="2.69512">
        <ele>996.20001220703</ele>
        <time>2024-05-26T08:01:13.000Z</time>
        <extensions>
          <gpxtpx:TrackPointExtension xmlns:gpxtpx="http://www.garmin.com/xmlschemas/TrackPointExtension/v1">
            <gpxtpx:hr>113</gpxtpx:hr>
          </gpxtpx:TrackPointExtension>
        </extensions>
      </trkpt>
      <trkpt lat="45.53504" lon="2.69516">
        <ele>996.40002441406</ele>
        <time>2024-05-26T08:01:14.000Z</time>
        <extensions>
          <gpxtpx:TrackPointExtension xmlns:gpxtpx="http://www.garmin.com/xmlschemas/TrackPointExtension/v1">
            <gpxtpx:hr>113</gpxtpx:hr>
          </gpxtpx:TrackPointExtension>
        </extensions>
      </trkpt>
      <trkpt lat="45.53511" lon="2.69542">
        <ele>997.40002441406</ele>
        <time>2024-05-26T08:01:20.000Z</time>
        <extensions>
          <gpxtpx:TrackPointExtension xmlns:gpxtpx="http://www.garmin.com/xmlschemas/TrackPointExtension/v1">
            <gpxtpx:hr>115</gpxtpx:hr>
          </gpxtpx:TrackPointExtension>
        </extensions>
      </trkpt>
      <trkpt lat="45.53513" lon="2.6955">
        <ele>997.59997558594</ele>
        <time>2024-05-26T08:01:22.000Z</time>
        <extensions>
          <gpxtpx:TrackPointExtension xmlns:gpxtpx="http://www.garmin.com/xmlschemas/TrackPointExtension/v1">
            <gpxtpx:hr>116</gpxtpx:hr>
          </gpxtpx:TrackPointExtension>
        </extensions>
      </trkpt>
      <trkpt lat="45.53516" lon="2.69563">
        <ele>998.40002441406</ele>
        <time>2024-05-26T08:01:25.000Z</time>
        <extensions>
          <gpxtpx:TrackPointExtension xmlns:gpxtpx="http://www.garmin.com/xmlschemas/TrackPointExtension/v1">
            <gpxtpx:hr>117</gpxtpx:hr>
          </gpxtpx:TrackPointExtension>
        </extensions>
      </trkpt>
      <trkpt lat="45.53522" lon="2.69588">
        <ele>999.40002441406</ele>
        <time>2024-05-26T08:01:31.000Z</time>
        <extensions>
          <gpxtpx:TrackPointExtension xmlns:gpxtpx="http://www.garmin.com/xmlschemas/TrackPointExtension/v1">
            <gpxtpx:hr>117</gpxtpx:hr>
          </gpxtpx:TrackPointExtension>
        </extensions>
      </trkpt>
      <trkpt lat="45.53527" lon="2.6961">
        <ele>1000.4000244141</ele>
        <time>2024-05-26T08:01:36.000Z</time>
        <extensions>
          <gpxtpx:TrackPointExtension xmlns:gpxtpx="http://www.garmin.com/xmlschemas/TrackPointExtension/v1">
            <gpxtpx:hr>118</gpxtpx:hr>
          </gpxtpx:TrackPointExtension>
        </extensions>
      </trkpt>
      <trkpt lat="45.53527" lon="2.69619">
        <ele>1000.5999755859</ele>
        <time>2024-05-26T08:01:38.000Z</time>
        <extensions>
          <gpxtpx:TrackPointExtension xmlns:gpxtpx="http://www.garmin.com/xmlschemas/TrackPointExtension/v1">
            <gpxtpx:hr>119</gpxtpx:hr>
          </gpxtpx:TrackPointExtension>
        </extensions>
      </trkpt>
      <trkpt lat="45.5353" lon="2.69641">
        <ele>1001.799987793</ele>
        <time>2024-05-26T08:01:43.000Z</time>
        <extensions>
          <gpxtpx:TrackPointExtension xmlns:gpxtpx="http://www.garmin.com/xmlschemas/TrackPointExtension/v1">
            <gpxtpx:hr>120</gpxtpx:hr>
          </gpxtpx:TrackPointExtension>
        </extensions>
      </trkpt>
      <trkpt lat="45.53532" lon="2.6965">
        <ele>1002.4000244141</ele>
        <time>2024-05-26T08:01:45.000Z</time>
        <extensions>
          <gpxtpx:TrackPointExtension xmlns:gpxtpx="http://www.garmin.com/xmlschemas/TrackPointExtension/v1">
            <gpxtpx:hr>120</gpxtpx:hr>
          </gpxtpx:TrackPointExtension>
        </extensions>
      </trkpt>
      <trkpt lat="45.53535" lon="2.69667">
        <ele>1002.799987793</ele>
        <time>2024-05-26T08:01:49.000Z</time>
        <extensions>
          <gpxtpx:TrackPointExtension xmlns:gpxtpx="http://www.garmin.com/xmlschemas/TrackPointExtension/v1">
            <gpxtpx:hr>121</gpxtpx:hr>
          </gpxtpx:TrackPointExtension>
        </extensions>
      </trkpt>
      <trkpt lat="45.53539" lon="2.69682">
        <ele>1003.4000244141</ele>
        <time>2024-05-26T08:01:52.000Z</time>
        <extensions>
          <gpxtpx:TrackPointExtension xmlns:gpxtpx="http://www.garmin.com/xmlschemas/TrackPointExtension/v1">
            <gpxtpx:hr>119</gpxtpx:hr>
          </gpxtpx:TrackPointExtension>
        </extensions>
      </trkpt>
      <trkpt lat="45.53544" lon="2.69702">
        <ele>1004</ele>
        <time>2024-05-26T08:01:56.000Z</time>
        <extensions>
          <gpxtpx:TrackPointExtension xmlns:gpxtpx="http://www.garmin.com/xmlschemas/TrackPointExtension/v1">
            <gpxtpx:hr>120</gpxtpx:hr>
          </gpxtpx:TrackPointExtension>
        </extensions>
      </trkpt>
      <trkpt lat="45.53545" lon="2.69712">
        <ele>1004.200012207</ele>
        <time>2024-05-26T08:01:58.000Z</time>
        <extensions>
          <gpxtpx:TrackPointExtension xmlns:gpxtpx="http://www.garmin.com/xmlschemas/TrackPointExtension/v1">
            <gpxtpx:hr>119</gpxtpx:hr>
          </gpxtpx:TrackPointExtension>
        </extensions>
      </trkpt>
      <trkpt lat="45.53548" lon="2.69737">
        <ele>1005</ele>
        <time>2024-05-26T08:02:03.000Z</time>
        <extensions>
          <gpxtpx:TrackPointExtension xmlns:gpxtpx="http://www.garmin.com/xmlschemas/TrackPointExtension/v1">
            <gpxtpx:hr>122</gpxtpx:hr>
          </gpxtpx:TrackPointExtension>
        </extensions>
      </trkpt>
      <trkpt lat="45.53549" lon="2.69751">
        <ele>1005.5999755859</ele>
        <time>2024-05-26T08:02:06.000Z</time>
        <extensions>
          <gpxtpx:TrackPointExtension xmlns:gpxtpx="http://www.garmin.com/xmlschemas/TrackPointExtension/v1">
            <gpxtpx:hr>122</gpxtpx:hr>
          </gpxtpx:TrackPointExtension>
        </extensions>
      </trkpt>
      <trkpt lat="45.53552" lon="2.69767">
        <ele>1006.200012207</ele>
        <time>2024-05-26T08:02:09.000Z</time>
        <extensions>
          <gpxtpx:TrackPointExtension xmlns:gpxtpx="http://www.garmin.com/xmlschemas/TrackPointExtension/v1">
            <gpxtpx:hr>122</gpxtpx:hr>
          </gpxtpx:TrackPointExtension>
        </extensions>
      </trkpt>
      <trkpt lat="45.53559" lon="2.69795">
        <ele>1007</ele>
        <time>2024-05-26T08:02:15.000Z</time>
        <extensions>
          <gpxtpx:TrackPointExtension xmlns:gpxtpx="http://www.garmin.com/xmlschemas/TrackPointExtension/v1">
            <gpxtpx:hr>122</gpxtpx:hr>
          </gpxtpx:TrackPointExtension>
        </extensions>
      </trkpt>
      <trkpt lat="45.53563" lon="2.69803">
        <ele>1007.200012207</ele>
        <time>2024-05-26T08:02:17.000Z</time>
        <extensions>
          <gpxtpx:TrackPointExtension xmlns:gpxtpx="http://www.garmin.com/xmlschemas/TrackPointExtension/v1">
            <gpxtpx:hr>123</gpxtpx:hr>
          </gpxtpx:TrackPointExtension>
        </extensions>
      </trkpt>
      <trkpt lat="45.53573" lon="2.69823">
        <ele>1008.200012207</ele>
        <time>2024-05-26T08:02:22.000Z</time>
        <extensions>
          <gpxtpx:TrackPointExtension xmlns:gpxtpx="http://www.garmin.com/xmlschemas/TrackPointExtension/v1">
            <gpxtpx:hr>123</gpxtpx:hr>
          </gpxtpx:TrackPointExtension>
        </extensions>
      </trkpt>
      <trkpt lat="45.53576" lon="2.69826">
        <ele>1008.4000244141</ele>
        <time>2024-05-26T08:02:23.000Z</time>
        <extensions>
          <gpxtpx:TrackPointExtension xmlns:gpxtpx="http://www.garmin.com/xmlschemas/TrackPointExtension/v1">
            <gpxtpx:hr>123</gpxtpx:hr>
          </gpxtpx:TrackPointExtension>
        </extensions>
      </trkpt>
      <trkpt lat="45.53591" lon="2.69837">
        <ele>1009.5999755859</ele>
        <time>2024-05-26T08:02:28.000Z</time>
        <extensions>
          <gpxtpx:TrackPointExtension xmlns:gpxtpx="http://www.garmin.com/xmlschemas/TrackPointExtension/v1">
            <gpxtpx:hr>122</gpxtpx:hr>
          </gpxtpx:TrackPointExtension>
        </extensions>
      </trkpt>
      <trkpt lat="45.53607" lon="2.69847">
        <ele>1010.200012207</ele>
        <time>2024-05-26T08:02:33.000Z</time>
        <extensions>
          <gpxtpx:TrackPointExtension xmlns:gpxtpx="http://www.garmin.com/xmlschemas/TrackPointExtension/v1">
            <gpxtpx:hr>123</gpxtpx:hr>
          </gpxtpx:TrackPointExtension>
        </extensions>
      </trkpt>
      <trkpt lat="45.53612" lon="2.69851">
        <ele>1010.799987793</ele>
        <time>2024-05-26T08:02:35.000Z</time>
        <extensions>
          <gpxtpx:TrackPointExtension xmlns:gpxtpx="http://www.garmin.com/xmlschemas/TrackPointExtension/v1">
            <gpxtpx:hr>123</gpxtpx:hr>
          </gpxtpx:TrackPointExtension>
        </extensions>
      </trkpt>
      <trkpt lat="45.53628" lon="2.69859">
        <ele>1011.5999755859</ele>
        <time>2024-05-26T08:02:40.000Z</time>
        <extensions>
          <gpxtpx:TrackPointExtension xmlns:gpxtpx="http://www.garmin.com/xmlschemas/TrackPointExtension/v1">
            <gpxtpx:hr>122</gpxtpx:hr>
          </gpxtpx:TrackPointExtension>
        </extensions>
      </trkpt>
      <trkpt lat="45.53631" lon="2.69861">
        <ele>1012</ele>
        <time>2024-05-26T08:02:41.000Z</time>
        <extensions>
          <gpxtpx:TrackPointExtension xmlns:gpxtpx="http://www.garmin.com/xmlschemas/TrackPointExtension/v1">
            <gpxtpx:hr>123</gpxtpx:hr>
          </gpxtpx:TrackPointExtension>
        </extensions>
      </trkpt>
      <trkpt lat="45.53648" lon="2.69871">
        <ele>1013.4000244141</ele>
        <time>2024-05-26T08:02:47.000Z</time>
        <extensions>
          <gpxtpx:TrackPointExtension xmlns:gpxtpx="http://www.garmin.com/xmlschemas/TrackPointExtension/v1">
            <gpxtpx:hr>124</gpxtpx:hr>
          </gpxtpx:TrackPointExtension>
        </extensions>
      </trkpt>
      <trkpt lat="45.53652" lon="2.69873">
        <ele>1013.4000244141</ele>
        <time>2024-05-26T08:02:48.000Z</time>
        <extensions>
          <gpxtpx:TrackPointExtension xmlns:gpxtpx="http://www.garmin.com/xmlschemas/TrackPointExtension/v1">
            <gpxtpx:hr>124</gpxtpx:hr>
          </gpxtpx:TrackPointExtension>
        </extensions>
      </trkpt>
      <trkpt lat="45.53664" lon="2.69883">
        <ele>1014.200012207</ele>
        <time>2024-05-26T08:02:52.000Z</time>
        <extensions>
          <gpxtpx:TrackPointExtension xmlns:gpxtpx="http://www.garmin.com/xmlschemas/TrackPointExtension/v1">
            <gpxtpx:hr>127</gpxtpx:hr>
          </gpxtpx:TrackPointExtension>
        </extensions>
      </trkpt>
      <trkpt lat="45.53666" lon="2.69885">
        <ele>1014.4000244141</ele>
        <time>2024-05-26T08:02:53.000Z</time>
        <extensions>
          <gpxtpx:TrackPointExtension xmlns:gpxtpx="http://www.garmin.com/xmlschemas/TrackPointExtension/v1">
            <gpxtpx:hr>127</gpxtpx:hr>
          </gpxtpx:TrackPointExtension>
        </extensions>
      </trkpt>
      <trkpt lat="45.53684" lon="2.69905">
        <ele>1015.5999755859</ele>
        <time>2024-05-26T08:03:00.000Z</time>
        <extensions>
          <gpxtpx:TrackPointExtension xmlns:gpxtpx="http://www.garmin.com/xmlschemas/TrackPointExtension/v1">
            <gpxtpx:hr>126</gpxtpx:hr>
          </gpxtpx:TrackPointExtension>
        </extensions>
      </trkpt>
      <trkpt lat="45.53686" lon="2.69909">
        <ele>1015.799987793</ele>
        <time>2024-05-26T08:03:01.000Z</time>
        <extensions>
          <gpxtpx:TrackPointExtension xmlns:gpxtpx="http://www.garmin.com/xmlschemas/TrackPointExtension/v1">
            <gpxtpx:hr>126</gpxtpx:hr>
          </gpxtpx:TrackPointExtension>
        </extensions>
      </trkpt>
      <trkpt lat="45.53694" lon="2.69923">
        <ele>1016.799987793</ele>
        <time>2024-05-26T08:03:05.000Z</time>
        <extensions>
          <gpxtpx:TrackPointExtension xmlns:gpxtpx="http://www.garmin.com/xmlschemas/TrackPointExtension/v1">
            <gpxtpx:hr>125</gpxtpx:hr>
          </gpxtpx:TrackPointExtension>
        </extensions>
      </trkpt>
      <trkpt lat="45.53698" lon="2.6993">
        <ele>1017.200012207</ele>
        <time>2024-05-26T08:03:07.000Z</time>
        <extensions>
          <gpxtpx:TrackPointExtension xmlns:gpxtpx="http://www.garmin.com/xmlschemas/TrackPointExtension/v1">
            <gpxtpx:hr>125</gpxtpx:hr>
          </gpxtpx:TrackPointExtension>
        </extensions>
      </trkpt>
      <trkpt lat="45.53703" lon="2.69947">
        <ele>1017.799987793</ele>
        <time>2024-05-26T08:03:11.000Z</time>
        <extensions>
          <gpxtpx:TrackPointExtension xmlns:gpxtpx="http://www.garmin.com/xmlschemas/TrackPointExtension/v1">
            <gpxtpx:hr>125</gpxtpx:hr>
          </gpxtpx:TrackPointExtension>
        </extensions>
      </trkpt>
      <trkpt lat="45.53706" lon="2.69961">
        <ele>1018.5999755859</ele>
        <time>2024-05-26T08:03:14.000Z</time>
        <extensions>
          <gpxtpx:TrackPointExtension xmlns:gpxtpx="http://www.garmin.com/xmlschemas/TrackPointExtension/v1">
            <gpxtpx:hr>126</gpxtpx:hr>
          </gpxtpx:TrackPointExtension>
        </extensions>
      </trkpt>
      <trkpt lat="45.53708" lon="2.69974">
        <ele>1019</ele>
        <time>2024-05-26T08:03:17.000Z</time>
        <extensions>
          <gpxtpx:TrackPointExtension xmlns:gpxtpx="http://www.garmin.com/xmlschemas/TrackPointExtension/v1">
            <gpxtpx:hr>126</gpxtpx:hr>
          </gpxtpx:TrackPointExtension>
        </extensions>
      </trkpt>
      <trkpt lat="45.53712" lon="2.69993">
        <ele>1019.799987793</ele>
        <time>2024-05-26T08:03:21.000Z</time>
        <extensions>
          <gpxtpx:TrackPointExtension xmlns:gpxtpx="http://www.garmin.com/xmlschemas/TrackPointExtension/v1">
            <gpxtpx:hr>127</gpxtpx:hr>
          </gpxtpx:TrackPointExtension>
        </extensions>
      </trkpt>
      <trkpt lat="45.53714" lon="2.70002">
        <ele>1020</ele>
        <time>2024-05-26T08:03:23.000Z</time>
        <extensions>
          <gpxtpx:TrackPointExtension xmlns:gpxtpx="http://www.garmin.com/xmlschemas/TrackPointExtension/v1">
            <gpxtpx:hr>127</gpxtpx:hr>
          </gpxtpx:TrackPointExtension>
        </extensions>
      </trkpt>
      <trkpt lat="45.53714" lon="2.70016">
        <ele>1020.5999755859</ele>
        <time>2024-05-26T08:03:26.000Z</time>
        <extensions>
          <gpxtpx:TrackPointExtension xmlns:gpxtpx="http://www.garmin.com/xmlschemas/TrackPointExtension/v1">
            <gpxtpx:hr>128</gpxtpx:hr>
          </gpxtpx:TrackPointExtension>
        </extensions>
      </trkpt>
      <trkpt lat="45.53715" lon="2.70029">
        <ele>1021.200012207</ele>
        <time>2024-05-26T08:03:29.000Z</time>
        <extensions>
          <gpxtpx:TrackPointExtension xmlns:gpxtpx="http://www.garmin.com/xmlschemas/TrackPointExtension/v1">
            <gpxtpx:hr>128</gpxtpx:hr>
          </gpxtpx:TrackPointExtension>
        </extensions>
      </trkpt>
      <trkpt lat="45.53715" lon="2.70048">
        <ele>1022</ele>
        <time>2024-05-26T08:03:33.000Z</time>
        <extensions>
          <gpxtpx:TrackPointExtension xmlns:gpxtpx="http://www.garmin.com/xmlschemas/TrackPointExtension/v1">
            <gpxtpx:hr>128</gpxtpx:hr>
          </gpxtpx:TrackPointExtension>
        </extensions>
      </trkpt>
      <trkpt lat="45.53715" lon="2.70052">
        <ele>1022.200012207</ele>
        <time>2024-05-26T08:03:34.000Z</time>
        <extensions>
          <gpxtpx:TrackPointExtension xmlns:gpxtpx="http://www.garmin.com/xmlschemas/TrackPointExtension/v1">
            <gpxtpx:hr>128</gpxtpx:hr>
          </gpxtpx:TrackPointExtension>
        </extensions>
      </trkpt>
      <trkpt lat="45.53714" lon="2.70075">
        <ele>1023</ele>
        <time>2024-05-26T08:03:39.000Z</time>
        <extensions>
          <gpxtpx:TrackPointExtension xmlns:gpxtpx="http://www.garmin.com/xmlschemas/TrackPointExtension/v1">
            <gpxtpx:hr>127</gpxtpx:hr>
          </gpxtpx:TrackPointExtension>
        </extensions>
      </trkpt>
      <trkpt lat="45.53714" lon="2.70081">
        <ele>1023.200012207</ele>
        <time>2024-05-26T08:03:40.000Z</time>
        <extensions>
          <gpxtpx:TrackPointExtension xmlns:gpxtpx="http://www.garmin.com/xmlschemas/TrackPointExtension/v1">
            <gpxtpx:hr>126</gpxtpx:hr>
          </gpxtpx:TrackPointExtension>
        </extensions>
      </trkpt>
      <trkpt lat="45.53712" lon="2.70103">
        <ele>1024.4000244141</ele>
        <time>2024-05-26T08:03:45.000Z</time>
        <extensions>
          <gpxtpx:TrackPointExtension xmlns:gpxtpx="http://www.garmin.com/xmlschemas/TrackPointExtension/v1">
            <gpxtpx:hr>126</gpxtpx:hr>
          </gpxtpx:TrackPointExtension>
        </extensions>
      </trkpt>
      <trkpt lat="45.53711" lon="2.70108">
        <ele>1024.4000244141</ele>
        <time>2024-05-26T08:03:46.000Z</time>
        <extensions>
          <gpxtpx:TrackPointExtension xmlns:gpxtpx="http://www.garmin.com/xmlschemas/TrackPointExtension/v1">
            <gpxtpx:hr>126</gpxtpx:hr>
          </gpxtpx:TrackPointExtension>
        </extensions>
      </trkpt>
      <trkpt lat="45.5371" lon="2.7013">
        <ele>1025.4000244141</ele>
        <time>2024-05-26T08:03:51.000Z</time>
        <extensions>
          <gpxtpx:TrackPointExtension xmlns:gpxtpx="http://www.garmin.com/xmlschemas/TrackPointExtension/v1">
            <gpxtpx:hr>124</gpxtpx:hr>
          </gpxtpx:TrackPointExtension>
        </extensions>
      </trkpt>
      <trkpt lat="45.5371" lon="2.70143">
        <ele>1025.8000488281</ele>
        <time>2024-05-26T08:03:54.000Z</time>
        <extensions>
          <gpxtpx:TrackPointExtension xmlns:gpxtpx="http://www.garmin.com/xmlschemas/TrackPointExtension/v1">
            <gpxtpx:hr>124</gpxtpx:hr>
          </gpxtpx:TrackPointExtension>
        </extensions>
      </trkpt>
      <trkpt lat="45.53711" lon="2.7016">
        <ele>1026.5999755859</ele>
        <time>2024-05-26T08:03:58.000Z</time>
        <extensions>
          <gpxtpx:TrackPointExtension xmlns:gpxtpx="http://www.garmin.com/xmlschemas/TrackPointExtension/v1">
            <gpxtpx:hr>125</gpxtpx:hr>
          </gpxtpx:TrackPointExtension>
        </extensions>
      </trkpt>
      <trkpt lat="45.53712" lon="2.70174">
        <ele>1027</ele>
        <time>2024-05-26T08:04:01.000Z</time>
        <extensions>
          <gpxtpx:TrackPointExtension xmlns:gpxtpx="http://www.garmin.com/xmlschemas/TrackPointExtension/v1">
            <gpxtpx:hr>125</gpxtpx:hr>
          </gpxtpx:TrackPointExtension>
        </extensions>
      </trkpt>
      <trkpt lat="45.53712" lon="2.70192">
        <ele>1027.5999755859</ele>
        <time>2024-05-26T08:04:05.000Z</time>
        <extensions>
          <gpxtpx:TrackPointExtension xmlns:gpxtpx="http://www.garmin.com/xmlschemas/TrackPointExtension/v1">
            <gpxtpx:hr>125</gpxtpx:hr>
          </gpxtpx:TrackPointExtension>
        </extensions>
      </trkpt>
      <trkpt lat="45.53714" lon="2.70208">
        <ele>1028.4000244141</ele>
        <time>2024-05-26T08:04:09.000Z</time>
        <extensions>
          <gpxtpx:TrackPointExtension xmlns:gpxtpx="http://www.garmin.com/xmlschemas/TrackPointExtension/v1">
            <gpxtpx:hr>125</gpxtpx:hr>
          </gpxtpx:TrackPointExtension>
        </extensions>
      </trkpt>
      <trkpt lat="45.53714" lon="2.70218">
        <ele>1028.8000488281</ele>
        <time>2024-05-26T08:04:11.000Z</time>
        <extensions>
          <gpxtpx:TrackPointExtension xmlns:gpxtpx="http://www.garmin.com/xmlschemas/TrackPointExtension/v1">
            <gpxtpx:hr>124</gpxtpx:hr>
          </gpxtpx:TrackPointExtension>
        </extensions>
      </trkpt>
      <trkpt lat="45.53714" lon="2.7023">
        <ele>1029.1999511719</ele>
        <time>2024-05-26T08:04:14.000Z</time>
        <extensions>
          <gpxtpx:TrackPointExtension xmlns:gpxtpx="http://www.garmin.com/xmlschemas/TrackPointExtension/v1">
            <gpxtpx:hr>124</gpxtpx:hr>
          </gpxtpx:TrackPointExtension>
        </extensions>
      </trkpt>
      <trkpt lat="45.53712" lon="2.70249">
        <ele>1029.8000488281</ele>
        <time>2024-05-26T08:04:18.000Z</time>
        <extensions>
          <gpxtpx:TrackPointExtension xmlns:gpxtpx="http://www.garmin.com/xmlschemas/TrackPointExtension/v1">
            <gpxtpx:hr>124</gpxtpx:hr>
          </gpxtpx:TrackPointExtension>
        </extensions>
      </trkpt>
      <trkpt lat="45.53711" lon="2.70267">
        <ele>1030.5999755859</ele>
        <time>2024-05-26T08:04:22.000Z</time>
        <extensions>
          <gpxtpx:TrackPointExtension xmlns:gpxtpx="http://www.garmin.com/xmlschemas/TrackPointExtension/v1">
            <gpxtpx:hr>125</gpxtpx:hr>
          </gpxtpx:TrackPointExtension>
        </extensions>
      </trkpt>
      <trkpt lat="45.53712" lon="2.70284">
        <ele>1031</ele>
        <time>2024-05-26T08:04:26.000Z</time>
        <extensions>
          <gpxtpx:TrackPointExtension xmlns:gpxtpx="http://www.garmin.com/xmlschemas/TrackPointExtension/v1">
            <gpxtpx:hr>125</gpxtpx:hr>
          </gpxtpx:TrackPointExtension>
        </extensions>
      </trkpt>
      <trkpt lat="45.53712" lon="2.70296">
        <ele>1031</ele>
        <time>2024-05-26T08:04:28.000Z</time>
        <extensions>
          <gpxtpx:TrackPointExtension xmlns:gpxtpx="http://www.garmin.com/xmlschemas/TrackPointExtension/v1">
            <gpxtpx:hr>126</gpxtpx:hr>
          </gpxtpx:TrackPointExtension>
        </extensions>
      </trkpt>
      <trkpt lat="45.53712" lon="2.70328">
        <ele>1032.1999511719</ele>
        <time>2024-05-26T08:04:35.000Z</time>
        <extensions>
          <gpxtpx:TrackPointExtension xmlns:gpxtpx="http://www.garmin.com/xmlschemas/TrackPointExtension/v1">
            <gpxtpx:hr>125</gpxtpx:hr>
          </gpxtpx:TrackPointExtension>
        </extensions>
      </trkpt>
      <trkpt lat="45.53712" lon="2.70332">
        <ele>1032.5999755859</ele>
        <time>2024-05-26T08:04:36.000Z</time>
        <extensions>
          <gpxtpx:TrackPointExtension xmlns:gpxtpx="http://www.garmin.com/xmlschemas/TrackPointExtension/v1">
            <gpxtpx:hr>125</gpxtpx:hr>
          </gpxtpx:TrackPointExtension>
        </extensions>
      </trkpt>
      <trkpt lat="45.53712" lon="2.70344">
        <ele>1033</ele>
        <time>2024-05-26T08:04:39.000Z</time>
        <extensions>
          <gpxtpx:TrackPointExtension xmlns:gpxtpx="http://www.garmin.com/xmlschemas/TrackPointExtension/v1">
            <gpxtpx:hr>122</gpxtpx:hr>
          </gpxtpx:TrackPointExtension>
        </extensions>
      </trkpt>
      <trkpt lat="45.53712" lon="2.70349">
        <ele>1033.4000244141</ele>
        <time>2024-05-26T08:04:40.000Z</time>
        <extensions>
          <gpxtpx:TrackPointExtension xmlns:gpxtpx="http://www.garmin.com/xmlschemas/TrackPointExtension/v1">
            <gpxtpx:hr>122</gpxtpx:hr>
          </gpxtpx:TrackPointExtension>
        </extensions>
      </trkpt>
      <trkpt lat="45.53711" lon="2.70367">
        <ele>1034</ele>
        <time>2024-05-26T08:04:44.000Z</time>
        <extensions>
          <gpxtpx:TrackPointExtension xmlns:gpxtpx="http://www.garmin.com/xmlschemas/TrackPointExtension/v1">
            <gpxtpx:hr>121</gpxtpx:hr>
          </gpxtpx:TrackPointExtension>
        </extensions>
      </trkpt>
      <trkpt lat="45.53711" lon="2.70382">
        <ele>1034.4000244141</ele>
        <time>2024-05-26T08:04:47.000Z</time>
        <extensions>
          <gpxtpx:TrackPointExtension xmlns:gpxtpx="http://www.garmin.com/xmlschemas/TrackPointExtension/v1">
            <gpxtpx:hr>121</gpxtpx:hr>
          </gpxtpx:TrackPointExtension>
        </extensions>
      </trkpt>
      <trkpt lat="45.5371" lon="2.70404">
        <ele>1035.4000244141</ele>
        <time>2024-05-26T08:04:52.000Z</time>
        <extensions>
          <gpxtpx:TrackPointExtension xmlns:gpxtpx="http://www.garmin.com/xmlschemas/TrackPointExtension/v1">
            <gpxtpx:hr>121</gpxtpx:hr>
          </gpxtpx:TrackPointExtension>
        </extensions>
      </trkpt>
      <trkpt lat="45.5371" lon="2.70409">
        <ele>1035.5999755859</ele>
        <time>2024-05-26T08:04:53.000Z</time>
        <extensions>
          <gpxtpx:TrackPointExtension xmlns:gpxtpx="http://www.garmin.com/xmlschemas/TrackPointExtension/v1">
            <gpxtpx:hr>122</gpxtpx:hr>
          </gpxtpx:TrackPointExtension>
        </extensions>
      </trkpt>
      <trkpt lat="45.53709" lon="2.7043">
        <ele>1036.5999755859</ele>
        <time>2024-05-26T08:04:58.000Z</time>
        <extensions>
          <gpxtpx:TrackPointExtension xmlns:gpxtpx="http://www.garmin.com/xmlschemas/TrackPointExtension/v1">
            <gpxtpx:hr>123</gpxtpx:hr>
          </gpxtpx:TrackPointExtension>
        </extensions>
      </trkpt>
      <trkpt lat="45.53707" lon="2.70447">
        <ele>1037.1999511719</ele>
        <time>2024-05-26T08:05:02.000Z</time>
        <extensions>
          <gpxtpx:TrackPointExtension xmlns:gpxtpx="http://www.garmin.com/xmlschemas/TrackPointExtension/v1">
            <gpxtpx:hr>124</gpxtpx:hr>
          </gpxtpx:TrackPointExtension>
        </extensions>
      </trkpt>
      <trkpt lat="45.53704" lon="2.7046">
        <ele>1037.8000488281</ele>
        <time>2024-05-26T08:05:05.000Z</time>
        <extensions>
          <gpxtpx:TrackPointExtension xmlns:gpxtpx="http://www.garmin.com/xmlschemas/TrackPointExtension/v1">
            <gpxtpx:hr>124</gpxtpx:hr>
          </gpxtpx:TrackPointExtension>
        </extensions>
      </trkpt>
      <trkpt lat="45.53698" lon="2.70477">
        <ele>1038.4000244141</ele>
        <time>2024-05-26T08:05:09.000Z</time>
        <extensions>
          <gpxtpx:TrackPointExtension xmlns:gpxtpx="http://www.garmin.com/xmlschemas/TrackPointExtension/v1">
            <gpxtpx:hr>124</gpxtpx:hr>
          </gpxtpx:TrackPointExtension>
        </extensions>
      </trkpt>
      <trkpt lat="45.53693" lon="2.70487">
        <ele>1038.8000488281</ele>
        <time>2024-05-26T08:05:12.000Z</time>
        <extensions>
          <gpxtpx:TrackPointExtension xmlns:gpxtpx="http://www.garmin.com/xmlschemas/TrackPointExtension/v1">
            <gpxtpx:hr>124</gpxtpx:hr>
          </gpxtpx:TrackPointExtension>
        </extensions>
      </trkpt>
      <trkpt lat="45.53688" lon="2.705">
        <ele>1039.4000244141</ele>
        <time>2024-05-26T08:05:15.000Z</time>
        <extensions>
          <gpxtpx:TrackPointExtension xmlns:gpxtpx="http://www.garmin.com/xmlschemas/TrackPointExtension/v1">
            <gpxtpx:hr>124</gpxtpx:hr>
          </gpxtpx:TrackPointExtension>
        </extensions>
      </trkpt>
      <trkpt lat="45.5368" lon="2.70515">
        <ele>1040</ele>
        <time>2024-05-26T08:05:19.000Z</time>
        <extensions>
          <gpxtpx:TrackPointExtension xmlns:gpxtpx="http://www.garmin.com/xmlschemas/TrackPointExtension/v1">
            <gpxtpx:hr>124</gpxtpx:hr>
          </gpxtpx:TrackPointExtension>
        </extensions>
      </trkpt>
      <trkpt lat="45.53675" lon="2.70529">
        <ele>1040.1999511719</ele>
        <time>2024-05-26T08:05:22.000Z</time>
        <extensions>
          <gpxtpx:TrackPointExtension xmlns:gpxtpx="http://www.garmin.com/xmlschemas/TrackPointExtension/v1">
            <gpxtpx:hr>124</gpxtpx:hr>
          </gpxtpx:TrackPointExtension>
        </extensions>
      </trkpt>
      <trkpt lat="45.53671" lon="2.7056">
        <ele>1041</ele>
        <time>2024-05-26T08:05:28.000Z</time>
        <extensions>
          <gpxtpx:TrackPointExtension xmlns:gpxtpx="http://www.garmin.com/xmlschemas/TrackPointExtension/v1">
            <gpxtpx:hr>123</gpxtpx:hr>
          </gpxtpx:TrackPointExtension>
        </extensions>
      </trkpt>
      <trkpt lat="45.5367" lon="2.70588">
        <ele>1042</ele>
        <time>2024-05-26T08:05:34.000Z</time>
        <extensions>
          <gpxtpx:TrackPointExtension xmlns:gpxtpx="http://www.garmin.com/xmlschemas/TrackPointExtension/v1">
            <gpxtpx:hr>124</gpxtpx:hr>
          </gpxtpx:TrackPointExtension>
        </extensions>
      </trkpt>
      <trkpt lat="45.53671" lon="2.70598">
        <ele>1042.4000244141</ele>
        <time>2024-05-26T08:05:36.000Z</time>
        <extensions>
          <gpxtpx:TrackPointExtension xmlns:gpxtpx="http://www.garmin.com/xmlschemas/TrackPointExtension/v1">
            <gpxtpx:hr>123</gpxtpx:hr>
          </gpxtpx:TrackPointExtension>
        </extensions>
      </trkpt>
      <trkpt lat="45.53673" lon="2.70616">
        <ele>1043.1999511719</ele>
        <time>2024-05-26T08:05:40.000Z</time>
        <extensions>
          <gpxtpx:TrackPointExtension xmlns:gpxtpx="http://www.garmin.com/xmlschemas/TrackPointExtension/v1">
            <gpxtpx:hr>122</gpxtpx:hr>
          </gpxtpx:TrackPointExtension>
        </extensions>
      </trkpt>
      <trkpt lat="45.53675" lon="2.70631">
        <ele>1043.5999755859</ele>
        <time>2024-05-26T08:05:44.000Z</time>
        <extensions>
          <gpxtpx:TrackPointExtension xmlns:gpxtpx="http://www.garmin.com/xmlschemas/TrackPointExtension/v1">
            <gpxtpx:hr>122</gpxtpx:hr>
          </gpxtpx:TrackPointExtension>
        </extensions>
      </trkpt>
      <trkpt lat="45.53676" lon="2.70644">
        <ele>1044.1999511719</ele>
        <time>2024-05-26T08:05:47.000Z</time>
        <extensions>
          <gpxtpx:TrackPointExtension xmlns:gpxtpx="http://www.garmin.com/xmlschemas/TrackPointExtension/v1">
            <gpxtpx:hr>122</gpxtpx:hr>
          </gpxtpx:TrackPointExtension>
        </extensions>
      </trkpt>
      <trkpt lat="45.53677" lon="2.70656">
        <ele>1044.5999755859</ele>
        <time>2024-05-26T08:05:50.000Z</time>
        <extensions>
          <gpxtpx:TrackPointExtension xmlns:gpxtpx="http://www.garmin.com/xmlschemas/TrackPointExtension/v1">
            <gpxtpx:hr>122</gpxtpx:hr>
          </gpxtpx:TrackPointExtension>
        </extensions>
      </trkpt>
      <trkpt lat="45.53679" lon="2.70673">
        <ele>1045.1999511719</ele>
        <time>2024-05-26T08:05:54.000Z</time>
        <extensions>
          <gpxtpx:TrackPointExtension xmlns:gpxtpx="http://www.garmin.com/xmlschemas/TrackPointExtension/v1">
            <gpxtpx:hr>122</gpxtpx:hr>
          </gpxtpx:TrackPointExtension>
        </extensions>
      </trkpt>
      <trkpt lat="45.53681" lon="2.70685">
        <ele>1045.5999755859</ele>
        <time>2024-05-26T08:05:58.000Z</time>
        <extensions>
          <gpxtpx:TrackPointExtension xmlns:gpxtpx="http://www.garmin.com/xmlschemas/TrackPointExtension/v1">
            <gpxtpx:hr>122</gpxtpx:hr>
          </gpxtpx:TrackPointExtension>
        </extensions>
      </trkpt>
      <trkpt lat="45.53681" lon="2.70696">
        <ele>1046</ele>
        <time>2024-05-26T08:06:02.000Z</time>
        <extensions>
          <gpxtpx:TrackPointExtension xmlns:gpxtpx="http://www.garmin.com/xmlschemas/TrackPointExtension/v1">
            <gpxtpx:hr>119</gpxtpx:hr>
          </gpxtpx:TrackPointExtension>
        </extensions>
      </trkpt>
      <trkpt lat="45.53682" lon="2.70703">
        <ele>1046</ele>
        <time>2024-05-26T08:06:04.000Z</time>
        <extensions>
          <gpxtpx:TrackPointExtension xmlns:gpxtpx="http://www.garmin.com/xmlschemas/TrackPointExtension/v1">
            <gpxtpx:hr>120</gpxtpx:hr>
          </gpxtpx:TrackPointExtension>
        </extensions>
      </trkpt>
      <trkpt lat="45.53683" lon="2.70711">
        <ele>1046.4000244141</ele>
        <time>2024-05-26T08:06:06.000Z</time>
        <extensions>
          <gpxtpx:TrackPointExtension xmlns:gpxtpx="http://www.garmin.com/xmlschemas/TrackPointExtension/v1">
            <gpxtpx:hr>119</gpxtpx:hr>
          </gpxtpx:TrackPointExtension>
        </extensions>
      </trkpt>
      <trkpt lat="45.53684" lon="2.70728">
        <ele>1047</ele>
        <time>2024-05-26T08:06:10.000Z</time>
        <extensions>
          <gpxtpx:TrackPointExtension xmlns:gpxtpx="http://www.garmin.com/xmlschemas/TrackPointExtension/v1">
            <gpxtpx:hr>118</gpxtpx:hr>
          </gpxtpx:TrackPointExtension>
        </extensions>
      </trkpt>
      <trkpt lat="45.53687" lon="2.7074">
        <ele>1047.5999755859</ele>
        <time>2024-05-26T08:06:13.000Z</time>
        <extensions>
          <gpxtpx:TrackPointExtension xmlns:gpxtpx="http://www.garmin.com/xmlschemas/TrackPointExtension/v1">
            <gpxtpx:hr>118</gpxtpx:hr>
          </gpxtpx:TrackPointExtension>
        </extensions>
      </trkpt>
      <trkpt lat="45.5369" lon="2.70764">
        <ele>1048.5999755859</ele>
        <time>2024-05-26T08:06:19.000Z</time>
        <extensions>
          <gpxtpx:TrackPointExtension xmlns:gpxtpx="http://www.garmin.com/xmlschemas/TrackPointExtension/v1">
            <gpxtpx:hr>118</gpxtpx:hr>
          </gpxtpx:TrackPointExtension>
        </extensions>
      </trkpt>
      <trkpt lat="45.53695" lon="2.70789">
        <ele>1049.8000488281</ele>
        <time>2024-05-26T08:06:25.000Z</time>
        <extensions>
          <gpxtpx:TrackPointExtension xmlns:gpxtpx="http://www.garmin.com/xmlschemas/TrackPointExtension/v1">
            <gpxtpx:hr>118</gpxtpx:hr>
          </gpxtpx:TrackPointExtension>
        </extensions>
      </trkpt>
      <trkpt lat="45.53696" lon="2.70797">
        <ele>1050</ele>
        <time>2024-05-26T08:06:27.000Z</time>
        <extensions>
          <gpxtpx:TrackPointExtension xmlns:gpxtpx="http://www.garmin.com/xmlschemas/TrackPointExtension/v1">
            <gpxtpx:hr>117</gpxtpx:hr>
          </gpxtpx:TrackPointExtension>
        </extensions>
      </trkpt>
      <trkpt lat="45.537" lon="2.70818">
        <ele>1051</ele>
        <time>2024-05-26T08:06:32.000Z</time>
        <extensions>
          <gpxtpx:TrackPointExtension xmlns:gpxtpx="http://www.garmin.com/xmlschemas/TrackPointExtension/v1">
            <gpxtpx:hr>117</gpxtpx:hr>
          </gpxtpx:TrackPointExtension>
        </extensions>
      </trkpt>
      <trkpt lat="45.53702" lon="2.70827">
        <ele>1051.4000244141</ele>
        <time>2024-05-26T08:06:34.000Z</time>
        <extensions>
          <gpxtpx:TrackPointExtension xmlns:gpxtpx="http://www.garmin.com/xmlschemas/TrackPointExtension/v1">
            <gpxtpx:hr>117</gpxtpx:hr>
          </gpxtpx:TrackPointExtension>
        </extensions>
      </trkpt>
      <trkpt lat="45.53703" lon="2.70835">
        <ele>1052</ele>
        <time>2024-05-26T08:06:36.000Z</time>
        <extensions>
          <gpxtpx:TrackPointExtension xmlns:gpxtpx="http://www.garmin.com/xmlschemas/TrackPointExtension/v1">
            <gpxtpx:hr>119</gpxtpx:hr>
          </gpxtpx:TrackPointExtension>
        </extensions>
      </trkpt>
      <trkpt lat="45.53706" lon="2.70851">
        <ele>1052.8000488281</ele>
        <time>2024-05-26T08:06:40.000Z</time>
        <extensions>
          <gpxtpx:TrackPointExtension xmlns:gpxtpx="http://www.garmin.com/xmlschemas/TrackPointExtension/v1">
            <gpxtpx:hr>120</gpxtpx:hr>
          </gpxtpx:TrackPointExtension>
        </extensions>
      </trkpt>
      <trkpt lat="45.53707" lon="2.70865">
        <ele>1053</ele>
        <time>2024-05-26T08:06:43.000Z</time>
        <extensions>
          <gpxtpx:TrackPointExtension xmlns:gpxtpx="http://www.garmin.com/xmlschemas/TrackPointExtension/v1">
            <gpxtpx:hr>120</gpxtpx:hr>
          </gpxtpx:TrackPointExtension>
        </extensions>
      </trkpt>
      <trkpt lat="45.53709" lon="2.70878">
        <ele>1053.8000488281</ele>
        <time>2024-05-26T08:06:46.000Z</time>
        <extensions>
          <gpxtpx:TrackPointExtension xmlns:gpxtpx="http://www.garmin.com/xmlschemas/TrackPointExtension/v1">
            <gpxtpx:hr>121</gpxtpx:hr>
          </gpxtpx:TrackPointExtension>
        </extensions>
      </trkpt>
      <trkpt lat="45.5371" lon="2.70883">
        <ele>1054.4000244141</ele>
        <time>2024-05-26T08:06:47.000Z</time>
        <extensions>
          <gpxtpx:TrackPointExtension xmlns:gpxtpx="http://www.garmin.com/xmlschemas/TrackPointExtension/v1">
            <gpxtpx:hr>121</gpxtpx:hr>
          </gpxtpx:TrackPointExtension>
        </extensions>
      </trkpt>
      <trkpt lat="45.53713" lon="2.709">
        <ele>1055</ele>
        <time>2024-05-26T08:06:51.000Z</time>
        <extensions>
          <gpxtpx:TrackPointExtension xmlns:gpxtpx="http://www.garmin.com/xmlschemas/TrackPointExtension/v1">
            <gpxtpx:hr>121</gpxtpx:hr>
          </gpxtpx:TrackPointExtension>
        </extensions>
      </trkpt>
      <trkpt lat="45.53715" lon="2.70909">
        <ele>1055.1999511719</ele>
        <time>2024-05-26T08:06:53.000Z</time>
        <extensions>
          <gpxtpx:TrackPointExtension xmlns:gpxtpx="http://www.garmin.com/xmlschemas/TrackPointExtension/v1">
            <gpxtpx:hr>120</gpxtpx:hr>
          </gpxtpx:TrackPointExtension>
        </extensions>
      </trkpt>
      <trkpt lat="45.53717" lon="2.70922">
        <ele>1055.5999755859</ele>
        <time>2024-05-26T08:06:56.000Z</time>
        <extensions>
          <gpxtpx:TrackPointExtension xmlns:gpxtpx="http://www.garmin.com/xmlschemas/TrackPointExtension/v1">
            <gpxtpx:hr>120</gpxtpx:hr>
          </gpxtpx:TrackPointExtension>
        </extensions>
      </trkpt>
      <trkpt lat="45.53722" lon="2.70943">
        <ele>1056.4000244141</ele>
        <time>2024-05-26T08:07:01.000Z</time>
        <extensions>
          <gpxtpx:TrackPointExtension xmlns:gpxtpx="http://www.garmin.com/xmlschemas/TrackPointExtension/v1">
            <gpxtpx:hr>122</gpxtpx:hr>
          </gpxtpx:TrackPointExtension>
        </extensions>
      </trkpt>
      <trkpt lat="45.53723" lon="2.70947">
        <ele>1056.5999755859</ele>
        <time>2024-05-26T08:07:02.000Z</time>
        <extensions>
          <gpxtpx:TrackPointExtension xmlns:gpxtpx="http://www.garmin.com/xmlschemas/TrackPointExtension/v1">
            <gpxtpx:hr>123</gpxtpx:hr>
          </gpxtpx:TrackPointExtension>
        </extensions>
      </trkpt>
      <trkpt lat="45.53728" lon="2.70975">
        <ele>1057.4000244141</ele>
        <time>2024-05-26T08:07:09.000Z</time>
        <extensions>
          <gpxtpx:TrackPointExtension xmlns:gpxtpx="http://www.garmin.com/xmlschemas/TrackPointExtension/v1">
            <gpxtpx:hr>123</gpxtpx:hr>
          </gpxtpx:TrackPointExtension>
        </extensions>
      </trkpt>
      <trkpt lat="45.53729" lon="2.70979">
        <ele>1057.8000488281</ele>
        <time>2024-05-26T08:07:10.000Z</time>
        <extensions>
          <gpxtpx:TrackPointExtension xmlns:gpxtpx="http://www.garmin.com/xmlschemas/TrackPointExtension/v1">
            <gpxtpx:hr>123</gpxtpx:hr>
          </gpxtpx:TrackPointExtension>
        </extensions>
      </trkpt>
      <trkpt lat="45.53733" lon="2.71004">
        <ele>1058.8000488281</ele>
        <time>2024-05-26T08:07:16.000Z</time>
        <extensions>
          <gpxtpx:TrackPointExtension xmlns:gpxtpx="http://www.garmin.com/xmlschemas/TrackPointExtension/v1">
            <gpxtpx:hr>122</gpxtpx:hr>
          </gpxtpx:TrackPointExtension>
        </extensions>
      </trkpt>
      <trkpt lat="45.53733" lon="2.71008">
        <ele>1058.8000488281</ele>
        <time>2024-05-26T08:07:17.000Z</time>
        <extensions>
          <gpxtpx:TrackPointExtension xmlns:gpxtpx="http://www.garmin.com/xmlschemas/TrackPointExtension/v1">
            <gpxtpx:hr>122</gpxtpx:hr>
          </gpxtpx:TrackPointExtension>
        </extensions>
      </trkpt>
      <trkpt lat="45.53735" lon="2.71035">
        <ele>1059.8000488281</ele>
        <time>2024-05-26T08:07:23.000Z</time>
        <extensions>
          <gpxtpx:TrackPointExtension xmlns:gpxtpx="http://www.garmin.com/xmlschemas/TrackPointExtension/v1">
            <gpxtpx:hr>121</gpxtpx:hr>
          </gpxtpx:TrackPointExtension>
        </extensions>
      </trkpt>
      <trkpt lat="45.53737" lon="2.71052">
        <ele>1060.4000244141</ele>
        <time>2024-05-26T08:07:27.000Z</time>
        <extensions>
          <gpxtpx:TrackPointExtension xmlns:gpxtpx="http://www.garmin.com/xmlschemas/TrackPointExtension/v1">
            <gpxtpx:hr>121</gpxtpx:hr>
          </gpxtpx:TrackPointExtension>
        </extensions>
      </trkpt>
      <trkpt lat="45.53738" lon="2.71065">
        <ele>1060.8000488281</ele>
        <time>2024-05-26T08:07:30.000Z</time>
        <extensions>
          <gpxtpx:TrackPointExtension xmlns:gpxtpx="http://www.garmin.com/xmlschemas/TrackPointExtension/v1">
            <gpxtpx:hr>121</gpxtpx:hr>
          </gpxtpx:TrackPointExtension>
        </extensions>
      </trkpt>
      <trkpt lat="45.5374" lon="2.71082">
        <ele>1061.4000244141</ele>
        <time>2024-05-26T08:07:34.000Z</time>
        <extensions>
          <gpxtpx:TrackPointExtension xmlns:gpxtpx="http://www.garmin.com/xmlschemas/TrackPointExtension/v1">
            <gpxtpx:hr>121</gpxtpx:hr>
          </gpxtpx:TrackPointExtension>
        </extensions>
      </trkpt>
      <trkpt lat="45.5374" lon="2.71099">
        <ele>1062.1999511719</ele>
        <time>2024-05-26T08:07:38.000Z</time>
        <extensions>
          <gpxtpx:TrackPointExtension xmlns:gpxtpx="http://www.garmin.com/xmlschemas/TrackPointExtension/v1">
            <gpxtpx:hr>121</gpxtpx:hr>
          </gpxtpx:TrackPointExtension>
        </extensions>
      </trkpt>
      <trkpt lat="45.53741" lon="2.71112">
        <ele>1062.4000244141</ele>
        <time>2024-05-26T08:07:41.000Z</time>
        <extensions>
          <gpxtpx:TrackPointExtension xmlns:gpxtpx="http://www.garmin.com/xmlschemas/TrackPointExtension/v1">
            <gpxtpx:hr>121</gpxtpx:hr>
          </gpxtpx:TrackPointExtension>
        </extensions>
      </trkpt>
      <trkpt lat="45.5374" lon="2.71132">
        <ele>1063.1999511719</ele>
        <time>2024-05-26T08:07:46.000Z</time>
        <extensions>
          <gpxtpx:TrackPointExtension xmlns:gpxtpx="http://www.garmin.com/xmlschemas/TrackPointExtension/v1">
            <gpxtpx:hr>120</gpxtpx:hr>
          </gpxtpx:TrackPointExtension>
        </extensions>
      </trkpt>
      <trkpt lat="45.53738" lon="2.71143">
        <ele>1063.8000488281</ele>
        <time>2024-05-26T08:07:49.000Z</time>
        <extensions>
          <gpxtpx:TrackPointExtension xmlns:gpxtpx="http://www.garmin.com/xmlschemas/TrackPointExtension/v1">
            <gpxtpx:hr>120</gpxtpx:hr>
          </gpxtpx:TrackPointExtension>
        </extensions>
      </trkpt>
      <trkpt lat="45.53736" lon="2.71151">
        <ele>1064.1999511719</ele>
        <time>2024-05-26T08:07:51.000Z</time>
        <extensions>
          <gpxtpx:TrackPointExtension xmlns:gpxtpx="http://www.garmin.com/xmlschemas/TrackPointExtension/v1">
            <gpxtpx:hr>120</gpxtpx:hr>
          </gpxtpx:TrackPointExtension>
        </extensions>
      </trkpt>
      <trkpt lat="45.53733" lon="2.71166">
        <ele>1064.8000488281</ele>
        <time>2024-05-26T08:07:55.000Z</time>
        <extensions>
          <gpxtpx:TrackPointExtension xmlns:gpxtpx="http://www.garmin.com/xmlschemas/TrackPointExtension/v1">
            <gpxtpx:hr>119</gpxtpx:hr>
          </gpxtpx:TrackPointExtension>
        </extensions>
      </trkpt>
      <trkpt lat="45.53732" lon="2.71181">
        <ele>1065.4000244141</ele>
        <time>2024-05-26T08:07:59.000Z</time>
        <extensions>
          <gpxtpx:TrackPointExtension xmlns:gpxtpx="http://www.garmin.com/xmlschemas/TrackPointExtension/v1">
            <gpxtpx:hr>119</gpxtpx:hr>
          </gpxtpx:TrackPointExtension>
        </extensions>
      </trkpt>
      <trkpt lat="45.53729" lon="2.71203">
        <ele>1066.4000244141</ele>
        <time>2024-05-26T08:08:05.000Z</time>
        <extensions>
          <gpxtpx:TrackPointExtension xmlns:gpxtpx="http://www.garmin.com/xmlschemas/TrackPointExtension/v1">
            <gpxtpx:hr>119</gpxtpx:hr>
          </gpxtpx:TrackPointExtension>
        </extensions>
      </trkpt>
      <trkpt lat="45.53729" lon="2.71207">
        <ele>1066.4000244141</ele>
        <time>2024-05-26T08:08:06.000Z</time>
        <extensions>
          <gpxtpx:TrackPointExtension xmlns:gpxtpx="http://www.garmin.com/xmlschemas/TrackPointExtension/v1">
            <gpxtpx:hr>119</gpxtpx:hr>
          </gpxtpx:TrackPointExtension>
        </extensions>
      </trkpt>
      <trkpt lat="45.5373" lon="2.71234">
        <ele>1067.4000244141</ele>
        <time>2024-05-26T08:08:13.000Z</time>
        <extensions>
          <gpxtpx:TrackPointExtension xmlns:gpxtpx="http://www.garmin.com/xmlschemas/TrackPointExtension/v1">
            <gpxtpx:hr>118</gpxtpx:hr>
          </gpxtpx:TrackPointExtension>
        </extensions>
      </trkpt>
      <trkpt lat="45.53731" lon="2.71238">
        <ele>1067.5999755859</ele>
        <time>2024-05-26T08:08:14.000Z</time>
        <extensions>
          <gpxtpx:TrackPointExtension xmlns:gpxtpx="http://www.garmin.com/xmlschemas/TrackPointExtension/v1">
            <gpxtpx:hr>118</gpxtpx:hr>
          </gpxtpx:TrackPointExtension>
        </extensions>
      </trkpt>
      <trkpt lat="45.53737" lon="2.71255">
        <ele>1068.1999511719</ele>
        <time>2024-05-26T08:08:19.000Z</time>
        <extensions>
          <gpxtpx:TrackPointExtension xmlns:gpxtpx="http://www.garmin.com/xmlschemas/TrackPointExtension/v1">
            <gpxtpx:hr>118</gpxtpx:hr>
          </gpxtpx:TrackPointExtension>
        </extensions>
      </trkpt>
      <trkpt lat="45.53739" lon="2.71259">
        <ele>1068.5999755859</ele>
        <time>2024-05-26T08:08:20.000Z</time>
        <extensions>
          <gpxtpx:TrackPointExtension xmlns:gpxtpx="http://www.garmin.com/xmlschemas/TrackPointExtension/v1">
            <gpxtpx:hr>118</gpxtpx:hr>
          </gpxtpx:TrackPointExtension>
        </extensions>
      </trkpt>
      <trkpt lat="45.53751" lon="2.71281">
        <ele>1069.4000244141</ele>
        <time>2024-05-26T08:08:27.000Z</time>
        <extensions>
          <gpxtpx:TrackPointExtension xmlns:gpxtpx="http://www.garmin.com/xmlschemas/TrackPointExtension/v1">
            <gpxtpx:hr>117</gpxtpx:hr>
          </gpxtpx:TrackPointExtension>
        </extensions>
      </trkpt>
      <trkpt lat="45.53754" lon="2.71287">
        <ele>1069.5999755859</ele>
        <time>2024-05-26T08:08:29.000Z</time>
        <extensions>
          <gpxtpx:TrackPointExtension xmlns:gpxtpx="http://www.garmin.com/xmlschemas/TrackPointExtension/v1">
            <gpxtpx:hr>117</gpxtpx:hr>
          </gpxtpx:TrackPointExtension>
        </extensions>
      </trkpt>
      <trkpt lat="45.53763" lon="2.71306">
        <ele>1070.4000244141</ele>
        <time>2024-05-26T08:08:35.000Z</time>
        <extensions>
          <gpxtpx:TrackPointExtension xmlns:gpxtpx="http://www.garmin.com/xmlschemas/TrackPointExtension/v1">
            <gpxtpx:hr>116</gpxtpx:hr>
          </gpxtpx:TrackPointExtension>
        </extensions>
      </trkpt>
      <trkpt lat="45.53766" lon="2.71312">
        <ele>1070.5999755859</ele>
        <time>2024-05-26T08:08:37.000Z</time>
        <extensions>
          <gpxtpx:TrackPointExtension xmlns:gpxtpx="http://www.garmin.com/xmlschemas/TrackPointExtension/v1">
            <gpxtpx:hr>116</gpxtpx:hr>
          </gpxtpx:TrackPointExtension>
        </extensions>
      </trkpt>
      <trkpt lat="45.53774" lon="2.71332">
        <ele>1071.8000488281</ele>
        <time>2024-05-26T08:08:43.000Z</time>
        <extensions>
          <gpxtpx:TrackPointExtension xmlns:gpxtpx="http://www.garmin.com/xmlschemas/TrackPointExtension/v1">
            <gpxtpx:hr>115</gpxtpx:hr>
          </gpxtpx:TrackPointExtension>
        </extensions>
      </trkpt>
      <trkpt lat="45.53775" lon="2.71335">
        <ele>1071.8000488281</ele>
        <time>2024-05-26T08:08:44.000Z</time>
        <extensions>
          <gpxtpx:TrackPointExtension xmlns:gpxtpx="http://www.garmin.com/xmlschemas/TrackPointExtension/v1">
            <gpxtpx:hr>115</gpxtpx:hr>
          </gpxtpx:TrackPointExtension>
        </extensions>
      </trkpt>
      <trkpt lat="45.53778" lon="2.71358">
        <ele>1072.8000488281</ele>
        <time>2024-05-26T08:08:50.000Z</time>
        <extensions>
          <gpxtpx:TrackPointExtension xmlns:gpxtpx="http://www.garmin.com/xmlschemas/TrackPointExtension/v1">
            <gpxtpx:hr>116</gpxtpx:hr>
          </gpxtpx:TrackPointExtension>
        </extensions>
      </trkpt>
      <trkpt lat="45.53779" lon="2.71362">
        <ele>1073</ele>
        <time>2024-05-26T08:08:51.000Z</time>
        <extensions>
          <gpxtpx:TrackPointExtension xmlns:gpxtpx="http://www.garmin.com/xmlschemas/TrackPointExtension/v1">
            <gpxtpx:hr>116</gpxtpx:hr>
          </gpxtpx:TrackPointExtension>
        </extensions>
      </trkpt>
      <trkpt lat="45.53777" lon="2.71384">
        <ele>1073.8000488281</ele>
        <time>2024-05-26T08:08:57.000Z</time>
        <extensions>
          <gpxtpx:TrackPointExtension xmlns:gpxtpx="http://www.garmin.com/xmlschemas/TrackPointExtension/v1">
            <gpxtpx:hr>115</gpxtpx:hr>
          </gpxtpx:TrackPointExtension>
        </extensions>
      </trkpt>
      <trkpt lat="45.53777" lon="2.71388">
        <ele>1074</ele>
        <time>2024-05-26T08:08:58.000Z</time>
        <extensions>
          <gpxtpx:TrackPointExtension xmlns:gpxtpx="http://www.garmin.com/xmlschemas/TrackPointExtension/v1">
            <gpxtpx:hr>115</gpxtpx:hr>
          </gpxtpx:TrackPointExtension>
        </extensions>
      </trkpt>
      <trkpt lat="45.53775" lon="2.71411">
        <ele>1075</ele>
        <time>2024-05-26T08:09:04.000Z</time>
        <extensions>
          <gpxtpx:TrackPointExtension xmlns:gpxtpx="http://www.garmin.com/xmlschemas/TrackPointExtension/v1">
            <gpxtpx:hr>115</gpxtpx:hr>
          </gpxtpx:TrackPointExtension>
        </extensions>
      </trkpt>
      <trkpt lat="45.53772" lon="2.71427">
        <ele>1075.4000244141</ele>
        <time>2024-05-26T08:09:08.000Z</time>
        <extensions>
          <gpxtpx:TrackPointExtension xmlns:gpxtpx="http://www.garmin.com/xmlschemas/TrackPointExtension/v1">
            <gpxtpx:hr>118</gpxtpx:hr>
          </gpxtpx:TrackPointExtension>
        </extensions>
      </trkpt>
      <trkpt lat="45.53772" lon="2.7144">
        <ele>1076.1999511719</ele>
        <time>2024-05-26T08:09:11.000Z</time>
        <extensions>
          <gpxtpx:TrackPointExtension xmlns:gpxtpx="http://www.garmin.com/xmlschemas/TrackPointExtension/v1">
            <gpxtpx:hr>117</gpxtpx:hr>
          </gpxtpx:TrackPointExtension>
        </extensions>
      </trkpt>
      <trkpt lat="45.53774" lon="2.71452">
        <ele>1076.5999755859</ele>
        <time>2024-05-26T08:09:14.000Z</time>
        <extensions>
          <gpxtpx:TrackPointExtension xmlns:gpxtpx="http://www.garmin.com/xmlschemas/TrackPointExtension/v1">
            <gpxtpx:hr>116</gpxtpx:hr>
          </gpxtpx:TrackPointExtension>
        </extensions>
      </trkpt>
      <trkpt lat="45.53775" lon="2.71468">
        <ele>1077.1999511719</ele>
        <time>2024-05-26T08:09:18.000Z</time>
        <extensions>
          <gpxtpx:TrackPointExtension xmlns:gpxtpx="http://www.garmin.com/xmlschemas/TrackPointExtension/v1">
            <gpxtpx:hr>117</gpxtpx:hr>
          </gpxtpx:TrackPointExtension>
        </extensions>
      </trkpt>
      <trkpt lat="45.53777" lon="2.71479">
        <ele>1077.5999755859</ele>
        <time>2024-05-26T08:09:21.000Z</time>
        <extensions>
          <gpxtpx:TrackPointExtension xmlns:gpxtpx="http://www.garmin.com/xmlschemas/TrackPointExtension/v1">
            <gpxtpx:hr>117</gpxtpx:hr>
          </gpxtpx:TrackPointExtension>
        </extensions>
      </trkpt>
      <trkpt lat="45.53783" lon="2.71496">
        <ele>1078.1999511719</ele>
        <time>2024-05-26T08:09:26.000Z</time>
        <extensions>
          <gpxtpx:TrackPointExtension xmlns:gpxtpx="http://www.garmin.com/xmlschemas/TrackPointExtension/v1">
            <gpxtpx:hr>116</gpxtpx:hr>
          </gpxtpx:TrackPointExtension>
        </extensions>
      </trkpt>
      <trkpt lat="45.53786" lon="2.71503">
        <ele>1078.8000488281</ele>
        <time>2024-05-26T08:09:28.000Z</time>
        <extensions>
          <gpxtpx:TrackPointExtension xmlns:gpxtpx="http://www.garmin.com/xmlschemas/TrackPointExtension/v1">
            <gpxtpx:hr>116</gpxtpx:hr>
          </gpxtpx:TrackPointExtension>
        </extensions>
      </trkpt>
      <trkpt lat="45.53792" lon="2.71512">
        <ele>1079.4000244141</ele>
        <time>2024-05-26T08:09:31.000Z</time>
        <extensions>
          <gpxtpx:TrackPointExtension xmlns:gpxtpx="http://www.garmin.com/xmlschemas/TrackPointExtension/v1">
            <gpxtpx:hr>114</gpxtpx:hr>
          </gpxtpx:TrackPointExtension>
        </extensions>
      </trkpt>
      <trkpt lat="45.53798" lon="2.71521">
        <ele>1079.5999755859</ele>
        <time>2024-05-26T08:09:34.000Z</time>
        <extensions>
          <gpxtpx:TrackPointExtension xmlns:gpxtpx="http://www.garmin.com/xmlschemas/TrackPointExtension/v1">
            <gpxtpx:hr>114</gpxtpx:hr>
          </gpxtpx:TrackPointExtension>
        </extensions>
      </trkpt>
      <trkpt lat="45.53804" lon="2.71536">
        <ele>1080.4000244141</ele>
        <time>2024-05-26T08:09:38.000Z</time>
        <extensions>
          <gpxtpx:TrackPointExtension xmlns:gpxtpx="http://www.garmin.com/xmlschemas/TrackPointExtension/v1">
            <gpxtpx:hr>114</gpxtpx:hr>
          </gpxtpx:TrackPointExtension>
        </extensions>
      </trkpt>
      <trkpt lat="45.53809" lon="2.71546">
        <ele>1081</ele>
        <time>2024-05-26T08:09:41.000Z</time>
        <extensions>
          <gpxtpx:TrackPointExtension xmlns:gpxtpx="http://www.garmin.com/xmlschemas/TrackPointExtension/v1">
            <gpxtpx:hr>114</gpxtpx:hr>
          </gpxtpx:TrackPointExtension>
        </extensions>
      </trkpt>
      <trkpt lat="45.5381" lon="2.7155">
        <ele>1081.1999511719</ele>
        <time>2024-05-26T08:09:42.000Z</time>
        <extensions>
          <gpxtpx:TrackPointExtension xmlns:gpxtpx="http://www.garmin.com/xmlschemas/TrackPointExtension/v1">
            <gpxtpx:hr>114</gpxtpx:hr>
          </gpxtpx:TrackPointExtension>
        </extensions>
      </trkpt>
      <trkpt lat="45.53813" lon="2.71556">
        <ele>1081.5999755859</ele>
        <time>2024-05-26T08:09:44.000Z</time>
        <extensions>
          <gpxtpx:TrackPointExtension xmlns:gpxtpx="http://www.garmin.com/xmlschemas/TrackPointExtension/v1">
            <gpxtpx:hr>114</gpxtpx:hr>
          </gpxtpx:TrackPointExtension>
        </extensions>
      </trkpt>
      <trkpt lat="45.53817" lon="2.71566">
        <ele>1082.8000488281</ele>
        <time>2024-05-26T08:09:47.000Z</time>
        <extensions>
          <gpxtpx:TrackPointExtension xmlns:gpxtpx="http://www.garmin.com/xmlschemas/TrackPointExtension/v1">
            <gpxtpx:hr>115</gpxtpx:hr>
          </gpxtpx:TrackPointExtension>
        </extensions>
      </trkpt>
      <trkpt lat="45.53821" lon="2.71572">
        <ele>1083.1999511719</ele>
        <time>2024-05-26T08:09:49.000Z</time>
        <extensions>
          <gpxtpx:TrackPointExtension xmlns:gpxtpx="http://www.garmin.com/xmlschemas/TrackPointExtension/v1">
            <gpxtpx:hr>115</gpxtpx:hr>
          </gpxtpx:TrackPointExtension>
        </extensions>
      </trkpt>
      <trkpt lat="45.53829" lon="2.7159">
        <ele>1083.5999755859</ele>
        <time>2024-05-26T08:09:54.000Z</time>
        <extensions>
          <gpxtpx:TrackPointExtension xmlns:gpxtpx="http://www.garmin.com/xmlschemas/TrackPointExtension/v1">
            <gpxtpx:hr>113</gpxtpx:hr>
          </gpxtpx:TrackPointExtension>
        </extensions>
      </trkpt>
      <trkpt lat="45.53833" lon="2.71597">
        <ele>1084</ele>
        <time>2024-05-26T08:09:56.000Z</time>
        <extensions>
          <gpxtpx:TrackPointExtension xmlns:gpxtpx="http://www.garmin.com/xmlschemas/TrackPointExtension/v1">
            <gpxtpx:hr>112</gpxtpx:hr>
          </gpxtpx:TrackPointExtension>
        </extensions>
      </trkpt>
      <trkpt lat="45.53838" lon="2.71612">
        <ele>1084.8000488281</ele>
        <time>2024-05-26T08:10:00.000Z</time>
        <extensions>
          <gpxtpx:TrackPointExtension xmlns:gpxtpx="http://www.garmin.com/xmlschemas/TrackPointExtension/v1">
            <gpxtpx:hr>113</gpxtpx:hr>
          </gpxtpx:TrackPointExtension>
        </extensions>
      </trkpt>
      <trkpt lat="45.53839" lon="2.71616">
        <ele>1085</ele>
        <time>2024-05-26T08:10:01.000Z</time>
        <extensions>
          <gpxtpx:TrackPointExtension xmlns:gpxtpx="http://www.garmin.com/xmlschemas/TrackPointExtension/v1">
            <gpxtpx:hr>114</gpxtpx:hr>
          </gpxtpx:TrackPointExtension>
        </extensions>
      </trkpt>
      <trkpt lat="45.53844" lon="2.71628">
        <ele>1085.8000488281</ele>
        <time>2024-05-26T08:10:04.000Z</time>
        <extensions>
          <gpxtpx:TrackPointExtension xmlns:gpxtpx="http://www.garmin.com/xmlschemas/TrackPointExtension/v1">
            <gpxtpx:hr>117</gpxtpx:hr>
          </gpxtpx:TrackPointExtension>
        </extensions>
      </trkpt>
      <trkpt lat="45.53846" lon="2.71636">
        <ele>1086.1999511719</ele>
        <time>2024-05-26T08:10:06.000Z</time>
        <extensions>
          <gpxtpx:TrackPointExtension xmlns:gpxtpx="http://www.garmin.com/xmlschemas/TrackPointExtension/v1">
            <gpxtpx:hr>119</gpxtpx:hr>
          </gpxtpx:TrackPointExtension>
        </extensions>
      </trkpt>
      <trkpt lat="45.53848" lon="2.7164">
        <ele>1086.4000244141</ele>
        <time>2024-05-26T08:10:07.000Z</time>
        <extensions>
          <gpxtpx:TrackPointExtension xmlns:gpxtpx="http://www.garmin.com/xmlschemas/TrackPointExtension/v1">
            <gpxtpx:hr>120</gpxtpx:hr>
          </gpxtpx:TrackPointExtension>
        </extensions>
      </trkpt>
      <trkpt lat="45.53851" lon="2.7166">
        <ele>1087.1999511719</ele>
        <time>2024-05-26T08:10:12.000Z</time>
        <extensions>
          <gpxtpx:TrackPointExtension xmlns:gpxtpx="http://www.garmin.com/xmlschemas/TrackPointExtension/v1">
            <gpxtpx:hr>122</gpxtpx:hr>
          </gpxtpx:TrackPointExtension>
        </extensions>
      </trkpt>
      <trkpt lat="45.53852" lon="2.71664">
        <ele>1087.5999755859</ele>
        <time>2024-05-26T08:10:13.000Z</time>
        <extensions>
          <gpxtpx:TrackPointExtension xmlns:gpxtpx="http://www.garmin.com/xmlschemas/TrackPointExtension/v1">
            <gpxtpx:hr>122</gpxtpx:hr>
          </gpxtpx:TrackPointExtension>
        </extensions>
      </trkpt>
      <trkpt lat="45.53854" lon="2.71681">
        <ele>1088.1999511719</ele>
        <time>2024-05-26T08:10:17.000Z</time>
        <extensions>
          <gpxtpx:TrackPointExtension xmlns:gpxtpx="http://www.garmin.com/xmlschemas/TrackPointExtension/v1">
            <gpxtpx:hr>121</gpxtpx:hr>
          </gpxtpx:TrackPointExtension>
        </extensions>
      </trkpt>
      <trkpt lat="45.53855" lon="2.71689">
        <ele>1088.5999755859</ele>
        <time>2024-05-26T08:10:19.000Z</time>
        <extensions>
          <gpxtpx:TrackPointExtension xmlns:gpxtpx="http://www.garmin.com/xmlschemas/TrackPointExtension/v1">
            <gpxtpx:hr>120</gpxtpx:hr>
          </gpxtpx:TrackPointExtension>
        </extensions>
      </trkpt>
      <trkpt lat="45.53856" lon="2.71698">
        <ele>1089</ele>
        <time>2024-05-26T08:10:21.000Z</time>
        <extensions>
          <gpxtpx:TrackPointExtension xmlns:gpxtpx="http://www.garmin.com/xmlschemas/TrackPointExtension/v1">
            <gpxtpx:hr>119</gpxtpx:hr>
          </gpxtpx:TrackPointExtension>
        </extensions>
      </trkpt>
      <trkpt lat="45.53858" lon="2.71707">
        <ele>1089.4000244141</ele>
        <time>2024-05-26T08:10:23.000Z</time>
        <extensions>
          <gpxtpx:TrackPointExtension xmlns:gpxtpx="http://www.garmin.com/xmlschemas/TrackPointExtension/v1">
            <gpxtpx:hr>119</gpxtpx:hr>
          </gpxtpx:TrackPointExtension>
        </extensions>
      </trkpt>
      <trkpt lat="45.53859" lon="2.71714">
        <ele>1089.8000488281</ele>
        <time>2024-05-26T08:10:25.000Z</time>
        <extensions>
          <gpxtpx:TrackPointExtension xmlns:gpxtpx="http://www.garmin.com/xmlschemas/TrackPointExtension/v1">
            <gpxtpx:hr>120</gpxtpx:hr>
          </gpxtpx:TrackPointExtension>
        </extensions>
      </trkpt>
      <trkpt lat="45.53862" lon="2.7174">
        <ele>1090.4000244141</ele>
        <time>2024-05-26T08:10:31.000Z</time>
        <extensions>
          <gpxtpx:TrackPointExtension xmlns:gpxtpx="http://www.garmin.com/xmlschemas/TrackPointExtension/v1">
            <gpxtpx:hr>122</gpxtpx:hr>
          </gpxtpx:TrackPointExtension>
        </extensions>
      </trkpt>
      <trkpt lat="45.53863" lon="2.71749">
        <ele>1090.8000488281</ele>
        <time>2024-05-26T08:10:33.000Z</time>
        <extensions>
          <gpxtpx:TrackPointExtension xmlns:gpxtpx="http://www.garmin.com/xmlschemas/TrackPointExtension/v1">
            <gpxtpx:hr>122</gpxtpx:hr>
          </gpxtpx:TrackPointExtension>
        </extensions>
      </trkpt>
      <trkpt lat="45.53868" lon="2.7177">
        <ele>1092</ele>
        <time>2024-05-26T08:10:38.000Z</time>
        <extensions>
          <gpxtpx:TrackPointExtension xmlns:gpxtpx="http://www.garmin.com/xmlschemas/TrackPointExtension/v1">
            <gpxtpx:hr>122</gpxtpx:hr>
          </gpxtpx:TrackPointExtension>
        </extensions>
      </trkpt>
      <trkpt lat="45.53869" lon="2.71773">
        <ele>1092.1999511719</ele>
        <time>2024-05-26T08:10:39.000Z</time>
        <extensions>
          <gpxtpx:TrackPointExtension xmlns:gpxtpx="http://www.garmin.com/xmlschemas/TrackPointExtension/v1">
            <gpxtpx:hr>122</gpxtpx:hr>
          </gpxtpx:TrackPointExtension>
        </extensions>
      </trkpt>
      <trkpt lat="45.53871" lon="2.71786">
        <ele>1092.8000488281</ele>
        <time>2024-05-26T08:10:43.000Z</time>
        <extensions>
          <gpxtpx:TrackPointExtension xmlns:gpxtpx="http://www.garmin.com/xmlschemas/TrackPointExtension/v1">
            <gpxtpx:hr>122</gpxtpx:hr>
          </gpxtpx:TrackPointExtension>
        </extensions>
      </trkpt>
      <trkpt lat="45.53873" lon="2.71796">
        <ele>1093</ele>
        <time>2024-05-26T08:10:46.000Z</time>
        <extensions>
          <gpxtpx:TrackPointExtension xmlns:gpxtpx="http://www.garmin.com/xmlschemas/TrackPointExtension/v1">
            <gpxtpx:hr>121</gpxtpx:hr>
          </gpxtpx:TrackPointExtension>
        </extensions>
      </trkpt>
      <trkpt lat="45.53875" lon="2.71808">
        <ele>1093.1999511719</ele>
        <time>2024-05-26T08:10:49.000Z</time>
        <extensions>
          <gpxtpx:TrackPointExtension xmlns:gpxtpx="http://www.garmin.com/xmlschemas/TrackPointExtension/v1">
            <gpxtpx:hr>121</gpxtpx:hr>
          </gpxtpx:TrackPointExtension>
        </extensions>
      </trkpt>
      <trkpt lat="45.53879" lon="2.71834">
        <ele>1094.1999511719</ele>
        <time>2024-05-26T08:10:56.000Z</time>
        <extensions>
          <gpxtpx:TrackPointExtension xmlns:gpxtpx="http://www.garmin.com/xmlschemas/TrackPointExtension/v1">
            <gpxtpx:hr>119</gpxtpx:hr>
          </gpxtpx:TrackPointExtension>
        </extensions>
      </trkpt>
      <trkpt lat="45.53887" lon="2.71865">
        <ele>1095.4000244141</ele>
        <time>2024-05-26T08:11:03.000Z</time>
        <extensions>
          <gpxtpx:TrackPointExtension xmlns:gpxtpx="http://www.garmin.com/xmlschemas/TrackPointExtension/v1">
            <gpxtpx:hr>117</gpxtpx:hr>
          </gpxtpx:TrackPointExtension>
        </extensions>
      </trkpt>
      <trkpt lat="45.53889" lon="2.71869">
        <ele>1095.5999755859</ele>
        <time>2024-05-26T08:11:04.000Z</time>
        <extensions>
          <gpxtpx:TrackPointExtension xmlns:gpxtpx="http://www.garmin.com/xmlschemas/TrackPointExtension/v1">
            <gpxtpx:hr>117</gpxtpx:hr>
          </gpxtpx:TrackPointExtension>
        </extensions>
      </trkpt>
      <trkpt lat="45.53892" lon="2.71886">
        <ele>1096.4000244141</ele>
        <time>2024-05-26T08:11:08.000Z</time>
        <extensions>
          <gpxtpx:TrackPointExtension xmlns:gpxtpx="http://www.garmin.com/xmlschemas/TrackPointExtension/v1">
            <gpxtpx:hr>120</gpxtpx:hr>
          </gpxtpx:TrackPointExtension>
        </extensions>
      </trkpt>
      <trkpt lat="45.53895" lon="2.71898">
        <ele>1097</ele>
        <time>2024-05-26T08:11:11.000Z</time>
        <extensions>
          <gpxtpx:TrackPointExtension xmlns:gpxtpx="http://www.garmin.com/xmlschemas/TrackPointExtension/v1">
            <gpxtpx:hr>123</gpxtpx:hr>
          </gpxtpx:TrackPointExtension>
        </extensions>
      </trkpt>
      <trkpt lat="45.53895" lon="2.71902">
        <ele>1097.1999511719</ele>
        <time>2024-05-26T08:11:12.000Z</time>
        <extensions>
          <gpxtpx:TrackPointExtension xmlns:gpxtpx="http://www.garmin.com/xmlschemas/TrackPointExtension/v1">
            <gpxtpx:hr>123</gpxtpx:hr>
          </gpxtpx:TrackPointExtension>
        </extensions>
      </trkpt>
      <trkpt lat="45.53896" lon="2.71906">
        <ele>1097.4000244141</ele>
        <time>2024-05-26T08:11:13.000Z</time>
        <extensions>
          <gpxtpx:TrackPointExtension xmlns:gpxtpx="http://www.garmin.com/xmlschemas/TrackPointExtension/v1">
            <gpxtpx:hr>123</gpxtpx:hr>
          </gpxtpx:TrackPointExtension>
        </extensions>
      </trkpt>
      <trkpt lat="45.53903" lon="2.71935">
        <ele>1098.5999755859</ele>
        <time>2024-05-26T08:11:20.000Z</time>
        <extensions>
          <gpxtpx:TrackPointExtension xmlns:gpxtpx="http://www.garmin.com/xmlschemas/TrackPointExtension/v1">
            <gpxtpx:hr>123</gpxtpx:hr>
          </gpxtpx:TrackPointExtension>
        </extensions>
      </trkpt>
      <trkpt lat="45.53904" lon="2.71939">
        <ele>1098.5999755859</ele>
        <time>2024-05-26T08:11:21.000Z</time>
        <extensions>
          <gpxtpx:TrackPointExtension xmlns:gpxtpx="http://www.garmin.com/xmlschemas/TrackPointExtension/v1">
            <gpxtpx:hr>123</gpxtpx:hr>
          </gpxtpx:TrackPointExtension>
        </extensions>
      </trkpt>
      <trkpt lat="45.53911" lon="2.71962">
        <ele>1099.5999755859</ele>
        <time>2024-05-26T08:11:27.000Z</time>
        <extensions>
          <gpxtpx:TrackPointExtension xmlns:gpxtpx="http://www.garmin.com/xmlschemas/TrackPointExtension/v1">
            <gpxtpx:hr>122</gpxtpx:hr>
          </gpxtpx:TrackPointExtension>
        </extensions>
      </trkpt>
      <trkpt lat="45.53912" lon="2.71966">
        <ele>1100</ele>
        <time>2024-05-26T08:11:28.000Z</time>
        <extensions>
          <gpxtpx:TrackPointExtension xmlns:gpxtpx="http://www.garmin.com/xmlschemas/TrackPointExtension/v1">
            <gpxtpx:hr>122</gpxtpx:hr>
          </gpxtpx:TrackPointExtension>
        </extensions>
      </trkpt>
      <trkpt lat="45.53915" lon="2.71984">
        <ele>1100.5999755859</ele>
        <time>2024-05-26T08:11:32.000Z</time>
        <extensions>
          <gpxtpx:TrackPointExtension xmlns:gpxtpx="http://www.garmin.com/xmlschemas/TrackPointExtension/v1">
            <gpxtpx:hr>125</gpxtpx:hr>
          </gpxtpx:TrackPointExtension>
        </extensions>
      </trkpt>
      <trkpt lat="45.53915" lon="2.71989">
        <ele>1100.8000488281</ele>
        <time>2024-05-26T08:11:33.000Z</time>
        <extensions>
          <gpxtpx:TrackPointExtension xmlns:gpxtpx="http://www.garmin.com/xmlschemas/TrackPointExtension/v1">
            <gpxtpx:hr>122</gpxtpx:hr>
          </gpxtpx:TrackPointExtension>
        </extensions>
      </trkpt>
      <trkpt lat="45.53916" lon="2.72002">
        <ele>1101</ele>
        <time>2024-05-26T08:11:36.000Z</time>
        <extensions>
          <gpxtpx:TrackPointExtension xmlns:gpxtpx="http://www.garmin.com/xmlschemas/TrackPointExtension/v1">
            <gpxtpx:hr>122</gpxtpx:hr>
          </gpxtpx:TrackPointExtension>
        </extensions>
      </trkpt>
      <trkpt lat="45.53919" lon="2.72019">
        <ele>1101.8000488281</ele>
        <time>2024-05-26T08:11:40.000Z</time>
        <extensions>
          <gpxtpx:TrackPointExtension xmlns:gpxtpx="http://www.garmin.com/xmlschemas/TrackPointExtension/v1">
            <gpxtpx:hr>122</gpxtpx:hr>
          </gpxtpx:TrackPointExtension>
        </extensions>
      </trkpt>
      <trkpt lat="45.53924" lon="2.72038">
        <ele>1102.4000244141</ele>
        <time>2024-05-26T08:11:45.000Z</time>
        <extensions>
          <gpxtpx:TrackPointExtension xmlns:gpxtpx="http://www.garmin.com/xmlschemas/TrackPointExtension/v1">
            <gpxtpx:hr>122</gpxtpx:hr>
          </gpxtpx:TrackPointExtension>
        </extensions>
      </trkpt>
      <trkpt lat="45.53927" lon="2.72052">
        <ele>1103</ele>
        <time>2024-05-26T08:11:49.000Z</time>
        <extensions>
          <gpxtpx:TrackPointExtension xmlns:gpxtpx="http://www.garmin.com/xmlschemas/TrackPointExtension/v1">
            <gpxtpx:hr>121</gpxtpx:hr>
          </gpxtpx:TrackPointExtension>
        </extensions>
      </trkpt>
      <trkpt lat="45.5393" lon="2.72065">
        <ele>1103.5999755859</ele>
        <time>2024-05-26T08:11:53.000Z</time>
        <extensions>
          <gpxtpx:TrackPointExtension xmlns:gpxtpx="http://www.garmin.com/xmlschemas/TrackPointExtension/v1">
            <gpxtpx:hr>120</gpxtpx:hr>
          </gpxtpx:TrackPointExtension>
        </extensions>
      </trkpt>
      <trkpt lat="45.53933" lon="2.72081">
        <ele>1104</ele>
        <time>2024-05-26T08:11:58.000Z</time>
        <extensions>
          <gpxtpx:TrackPointExtension xmlns:gpxtpx="http://www.garmin.com/xmlschemas/TrackPointExtension/v1">
            <gpxtpx:hr>120</gpxtpx:hr>
          </gpxtpx:TrackPointExtension>
        </extensions>
      </trkpt>
      <trkpt lat="45.53936" lon="2.72094">
        <ele>1104.5999755859</ele>
        <time>2024-05-26T08:12:02.000Z</time>
        <extensions>
          <gpxtpx:TrackPointExtension xmlns:gpxtpx="http://www.garmin.com/xmlschemas/TrackPointExtension/v1">
            <gpxtpx:hr>120</gpxtpx:hr>
          </gpxtpx:TrackPointExtension>
        </extensions>
      </trkpt>
      <trkpt lat="45.53938" lon="2.72103">
        <ele>1105.1999511719</ele>
        <time>2024-05-26T08:12:05.000Z</time>
        <extensions>
          <gpxtpx:TrackPointExtension xmlns:gpxtpx="http://www.garmin.com/xmlschemas/TrackPointExtension/v1">
            <gpxtpx:hr>119</gpxtpx:hr>
          </gpxtpx:TrackPointExtension>
        </extensions>
      </trkpt>
      <trkpt lat="45.53941" lon="2.72118">
        <ele>1105.5999755859</ele>
        <time>2024-05-26T08:12:10.000Z</time>
        <extensions>
          <gpxtpx:TrackPointExtension xmlns:gpxtpx="http://www.garmin.com/xmlschemas/TrackPointExtension/v1">
            <gpxtpx:hr>120</gpxtpx:hr>
          </gpxtpx:TrackPointExtension>
        </extensions>
      </trkpt>
      <trkpt lat="45.53944" lon="2.72131">
        <ele>1106.4000244141</ele>
        <time>2024-05-26T08:12:14.000Z</time>
        <extensions>
          <gpxtpx:TrackPointExtension xmlns:gpxtpx="http://www.garmin.com/xmlschemas/TrackPointExtension/v1">
            <gpxtpx:hr>122</gpxtpx:hr>
          </gpxtpx:TrackPointExtension>
        </extensions>
      </trkpt>
      <trkpt lat="45.53948" lon="2.72147">
        <ele>1106.8000488281</ele>
        <time>2024-05-26T08:12:19.000Z</time>
        <extensions>
          <gpxtpx:TrackPointExtension xmlns:gpxtpx="http://www.garmin.com/xmlschemas/TrackPointExtension/v1">
            <gpxtpx:hr>121</gpxtpx:hr>
          </gpxtpx:TrackPointExtension>
        </extensions>
      </trkpt>
      <trkpt lat="45.53949" lon="2.72154">
        <ele>1107.1999511719</ele>
        <time>2024-05-26T08:12:21.000Z</time>
        <extensions>
          <gpxtpx:TrackPointExtension xmlns:gpxtpx="http://www.garmin.com/xmlschemas/TrackPointExtension/v1">
            <gpxtpx:hr>118</gpxtpx:hr>
          </gpxtpx:TrackPointExtension>
        </extensions>
      </trkpt>
      <trkpt lat="45.5395" lon="2.72157">
        <ele>1107.4000244141</ele>
        <time>2024-05-26T08:12:22.000Z</time>
        <extensions>
          <gpxtpx:TrackPointExtension xmlns:gpxtpx="http://www.garmin.com/xmlschemas/TrackPointExtension/v1">
            <gpxtpx:hr>117</gpxtpx:hr>
          </gpxtpx:TrackPointExtension>
        </extensions>
      </trkpt>
      <trkpt lat="45.53954" lon="2.72173">
        <ele>1108.1999511719</ele>
        <time>2024-05-26T08:12:27.000Z</time>
        <extensions>
          <gpxtpx:TrackPointExtension xmlns:gpxtpx="http://www.garmin.com/xmlschemas/TrackPointExtension/v1">
            <gpxtpx:hr>117</gpxtpx:hr>
          </gpxtpx:TrackPointExtension>
        </extensions>
      </trkpt>
      <trkpt lat="45.53955" lon="2.72177">
        <ele>1108.4000244141</ele>
        <time>2024-05-26T08:12:28.000Z</time>
        <extensions>
          <gpxtpx:TrackPointExtension xmlns:gpxtpx="http://www.garmin.com/xmlschemas/TrackPointExtension/v1">
            <gpxtpx:hr>117</gpxtpx:hr>
          </gpxtpx:TrackPointExtension>
        </extensions>
      </trkpt>
      <trkpt lat="45.5396" lon="2.72202">
        <ele>1109.4000244141</ele>
        <time>2024-05-26T08:12:35.000Z</time>
        <extensions>
          <gpxtpx:TrackPointExtension xmlns:gpxtpx="http://www.garmin.com/xmlschemas/TrackPointExtension/v1">
            <gpxtpx:hr>117</gpxtpx:hr>
          </gpxtpx:TrackPointExtension>
        </extensions>
      </trkpt>
      <trkpt lat="45.53962" lon="2.72209">
        <ele>1109.8000488281</ele>
        <time>2024-05-26T08:12:37.000Z</time>
        <extensions>
          <gpxtpx:TrackPointExtension xmlns:gpxtpx="http://www.garmin.com/xmlschemas/TrackPointExtension/v1">
            <gpxtpx:hr>117</gpxtpx:hr>
          </gpxtpx:TrackPointExtension>
        </extensions>
      </trkpt>
      <trkpt lat="45.53968" lon="2.72237">
        <ele>1110.8000488281</ele>
        <time>2024-05-26T08:12:45.000Z</time>
        <extensions>
          <gpxtpx:TrackPointExtension xmlns:gpxtpx="http://www.garmin.com/xmlschemas/TrackPointExtension/v1">
            <gpxtpx:hr>115</gpxtpx:hr>
          </gpxtpx:TrackPointExtension>
        </extensions>
      </trkpt>
      <trkpt lat="45.53972" lon="2.72264">
        <ele>1111.8000488281</ele>
        <time>2024-05-26T08:12:52.000Z</time>
        <extensions>
          <gpxtpx:TrackPointExtension xmlns:gpxtpx="http://www.garmin.com/xmlschemas/TrackPointExtension/v1">
            <gpxtpx:hr>113</gpxtpx:hr>
          </gpxtpx:TrackPointExtension>
        </extensions>
      </trkpt>
      <trkpt lat="45.53973" lon="2.72268">
        <ele>1111.8000488281</ele>
        <time>2024-05-26T08:12:53.000Z</time>
        <extensions>
          <gpxtpx:TrackPointExtension xmlns:gpxtpx="http://www.garmin.com/xmlschemas/TrackPointExtension/v1">
            <gpxtpx:hr>113</gpxtpx:hr>
          </gpxtpx:TrackPointExtension>
        </extensions>
      </trkpt>
      <trkpt lat="45.53977" lon="2.72292">
        <ele>1112.8000488281</ele>
        <time>2024-05-26T08:12:59.000Z</time>
        <extensions>
          <gpxtpx:TrackPointExtension xmlns:gpxtpx="http://www.garmin.com/xmlschemas/TrackPointExtension/v1">
            <gpxtpx:hr>113</gpxtpx:hr>
          </gpxtpx:TrackPointExtension>
        </extensions>
      </trkpt>
      <trkpt lat="45.53979" lon="2.72312">
        <ele>1113.8000488281</ele>
        <time>2024-05-26T08:13:04.000Z</time>
        <extensions>
          <gpxtpx:TrackPointExtension xmlns:gpxtpx="http://www.garmin.com/xmlschemas/TrackPointExtension/v1">
            <gpxtpx:hr>115</gpxtpx:hr>
          </gpxtpx:TrackPointExtension>
        </extensions>
      </trkpt>
      <trkpt lat="45.53981" lon="2.72325">
        <ele>1114</ele>
        <time>2024-05-26T08:13:07.000Z</time>
        <extensions>
          <gpxtpx:TrackPointExtension xmlns:gpxtpx="http://www.garmin.com/xmlschemas/TrackPointExtension/v1">
            <gpxtpx:hr>114</gpxtpx:hr>
          </gpxtpx:TrackPointExtension>
        </extensions>
      </trkpt>
      <trkpt lat="45.53984" lon="2.7235">
        <ele>1115</ele>
        <time>2024-05-26T08:13:13.000Z</time>
        <extensions>
          <gpxtpx:TrackPointExtension xmlns:gpxtpx="http://www.garmin.com/xmlschemas/TrackPointExtension/v1">
            <gpxtpx:hr>116</gpxtpx:hr>
          </gpxtpx:TrackPointExtension>
        </extensions>
      </trkpt>
      <trkpt lat="45.53985" lon="2.72354">
        <ele>1115.1999511719</ele>
        <time>2024-05-26T08:13:14.000Z</time>
        <extensions>
          <gpxtpx:TrackPointExtension xmlns:gpxtpx="http://www.garmin.com/xmlschemas/TrackPointExtension/v1">
            <gpxtpx:hr>116</gpxtpx:hr>
          </gpxtpx:TrackPointExtension>
        </extensions>
      </trkpt>
      <trkpt lat="45.53988" lon="2.72379">
        <ele>1116.4000244141</ele>
        <time>2024-05-26T08:13:20.000Z</time>
        <extensions>
          <gpxtpx:TrackPointExtension xmlns:gpxtpx="http://www.garmin.com/xmlschemas/TrackPointExtension/v1">
            <gpxtpx:hr>118</gpxtpx:hr>
          </gpxtpx:TrackPointExtension>
        </extensions>
      </trkpt>
      <trkpt lat="45.53988" lon="2.72383">
        <ele>1116.5999755859</ele>
        <time>2024-05-26T08:13:21.000Z</time>
        <extensions>
          <gpxtpx:TrackPointExtension xmlns:gpxtpx="http://www.garmin.com/xmlschemas/TrackPointExtension/v1">
            <gpxtpx:hr>118</gpxtpx:hr>
          </gpxtpx:TrackPointExtension>
        </extensions>
      </trkpt>
      <trkpt lat="45.53991" lon="2.72404">
        <ele>1117.5999755859</ele>
        <time>2024-05-26T08:13:26.000Z</time>
        <extensions>
          <gpxtpx:TrackPointExtension xmlns:gpxtpx="http://www.garmin.com/xmlschemas/TrackPointExtension/v1">
            <gpxtpx:hr>118</gpxtpx:hr>
          </gpxtpx:TrackPointExtension>
        </extensions>
      </trkpt>
      <trkpt lat="45.53994" lon="2.72425">
        <ele>1118.4000244141</ele>
        <time>2024-05-26T08:13:31.000Z</time>
        <extensions>
          <gpxtpx:TrackPointExtension xmlns:gpxtpx="http://www.garmin.com/xmlschemas/TrackPointExtension/v1">
            <gpxtpx:hr>118</gpxtpx:hr>
          </gpxtpx:TrackPointExtension>
        </extensions>
      </trkpt>
      <trkpt lat="45.53995" lon="2.7243">
        <ele>1118.5999755859</ele>
        <time>2024-05-26T08:13:32.000Z</time>
        <extensions>
          <gpxtpx:TrackPointExtension xmlns:gpxtpx="http://www.garmin.com/xmlschemas/TrackPointExtension/v1">
            <gpxtpx:hr>119</gpxtpx:hr>
          </gpxtpx:TrackPointExtension>
        </extensions>
      </trkpt>
      <trkpt lat="45.53998" lon="2.72456">
        <ele>1119.8000488281</ele>
        <time>2024-05-26T08:13:38.000Z</time>
        <extensions>
          <gpxtpx:TrackPointExtension xmlns:gpxtpx="http://www.garmin.com/xmlschemas/TrackPointExtension/v1">
            <gpxtpx:hr>119</gpxtpx:hr>
          </gpxtpx:TrackPointExtension>
        </extensions>
      </trkpt>
      <trkpt lat="45.54" lon="2.72469">
        <ele>1120.1999511719</ele>
        <time>2024-05-26T08:13:41.000Z</time>
        <extensions>
          <gpxtpx:TrackPointExtension xmlns:gpxtpx="http://www.garmin.com/xmlschemas/TrackPointExtension/v1">
            <gpxtpx:hr>120</gpxtpx:hr>
          </gpxtpx:TrackPointExtension>
        </extensions>
      </trkpt>
      <trkpt lat="45.54001" lon="2.72477">
        <ele>1120.8000488281</ele>
        <time>2024-05-26T08:13:43.000Z</time>
        <extensions>
          <gpxtpx:TrackPointExtension xmlns:gpxtpx="http://www.garmin.com/xmlschemas/TrackPointExtension/v1">
            <gpxtpx:hr>120</gpxtpx:hr>
          </gpxtpx:TrackPointExtension>
        </extensions>
      </trkpt>
      <trkpt lat="45.54005" lon="2.72503">
        <ele>1122</ele>
        <time>2024-05-26T08:13:49.000Z</time>
        <extensions>
          <gpxtpx:TrackPointExtension xmlns:gpxtpx="http://www.garmin.com/xmlschemas/TrackPointExtension/v1">
            <gpxtpx:hr>121</gpxtpx:hr>
          </gpxtpx:TrackPointExtension>
        </extensions>
      </trkpt>
      <trkpt lat="45.54006" lon="2.72512">
        <ele>1122.4000244141</ele>
        <time>2024-05-26T08:13:51.000Z</time>
        <extensions>
          <gpxtpx:TrackPointExtension xmlns:gpxtpx="http://www.garmin.com/xmlschemas/TrackPointExtension/v1">
            <gpxtpx:hr>121</gpxtpx:hr>
          </gpxtpx:TrackPointExtension>
        </extensions>
      </trkpt>
      <trkpt lat="45.5401" lon="2.72543">
        <ele>1123.1999511719</ele>
        <time>2024-05-26T08:13:58.000Z</time>
        <extensions>
          <gpxtpx:TrackPointExtension xmlns:gpxtpx="http://www.garmin.com/xmlschemas/TrackPointExtension/v1">
            <gpxtpx:hr>121</gpxtpx:hr>
          </gpxtpx:TrackPointExtension>
        </extensions>
      </trkpt>
      <trkpt lat="45.54013" lon="2.72561">
        <ele>1124</ele>
        <time>2024-05-26T08:14:02.000Z</time>
        <extensions>
          <gpxtpx:TrackPointExtension xmlns:gpxtpx="http://www.garmin.com/xmlschemas/TrackPointExtension/v1">
            <gpxtpx:hr>121</gpxtpx:hr>
          </gpxtpx:TrackPointExtension>
        </extensions>
      </trkpt>
      <trkpt lat="45.54015" lon="2.72573">
        <ele>1124.5999755859</ele>
        <time>2024-05-26T08:14:05.000Z</time>
        <extensions>
          <gpxtpx:TrackPointExtension xmlns:gpxtpx="http://www.garmin.com/xmlschemas/TrackPointExtension/v1">
            <gpxtpx:hr>121</gpxtpx:hr>
          </gpxtpx:TrackPointExtension>
        </extensions>
      </trkpt>
      <trkpt lat="45.54018" lon="2.72594">
        <ele>1125.4000244141</ele>
        <time>2024-05-26T08:14:10.000Z</time>
        <extensions>
          <gpxtpx:TrackPointExtension xmlns:gpxtpx="http://www.garmin.com/xmlschemas/TrackPointExtension/v1">
            <gpxtpx:hr>124</gpxtpx:hr>
          </gpxtpx:TrackPointExtension>
        </extensions>
      </trkpt>
      <trkpt lat="45.54018" lon="2.72598">
        <ele>1125.4000244141</ele>
        <time>2024-05-26T08:14:11.000Z</time>
        <extensions>
          <gpxtpx:TrackPointExtension xmlns:gpxtpx="http://www.garmin.com/xmlschemas/TrackPointExtension/v1">
            <gpxtpx:hr>126</gpxtpx:hr>
          </gpxtpx:TrackPointExtension>
        </extensions>
      </trkpt>
      <trkpt lat="45.54019" lon="2.72603">
        <ele>1125.5999755859</ele>
        <time>2024-05-26T08:14:12.000Z</time>
        <extensions>
          <gpxtpx:TrackPointExtension xmlns:gpxtpx="http://www.garmin.com/xmlschemas/TrackPointExtension/v1">
            <gpxtpx:hr>126</gpxtpx:hr>
          </gpxtpx:TrackPointExtension>
        </extensions>
      </trkpt>
      <trkpt lat="45.54022" lon="2.7262">
        <ele>1126.1999511719</ele>
        <time>2024-05-26T08:14:16.000Z</time>
        <extensions>
          <gpxtpx:TrackPointExtension xmlns:gpxtpx="http://www.garmin.com/xmlschemas/TrackPointExtension/v1">
            <gpxtpx:hr>123</gpxtpx:hr>
          </gpxtpx:TrackPointExtension>
        </extensions>
      </trkpt>
      <trkpt lat="45.54024" lon="2.72628">
        <ele>1126.8000488281</ele>
        <time>2024-05-26T08:14:18.000Z</time>
        <extensions>
          <gpxtpx:TrackPointExtension xmlns:gpxtpx="http://www.garmin.com/xmlschemas/TrackPointExtension/v1">
            <gpxtpx:hr>122</gpxtpx:hr>
          </gpxtpx:TrackPointExtension>
        </extensions>
      </trkpt>
      <trkpt lat="45.54028" lon="2.72645">
        <ele>1127.5999755859</ele>
        <time>2024-05-26T08:14:22.000Z</time>
        <extensions>
          <gpxtpx:TrackPointExtension xmlns:gpxtpx="http://www.garmin.com/xmlschemas/TrackPointExtension/v1">
            <gpxtpx:hr>121</gpxtpx:hr>
          </gpxtpx:TrackPointExtension>
        </extensions>
      </trkpt>
      <trkpt lat="45.5403" lon="2.72649">
        <ele>1127.8000488281</ele>
        <time>2024-05-26T08:14:23.000Z</time>
        <extensions>
          <gpxtpx:TrackPointExtension xmlns:gpxtpx="http://www.garmin.com/xmlschemas/TrackPointExtension/v1">
            <gpxtpx:hr>121</gpxtpx:hr>
          </gpxtpx:TrackPointExtension>
        </extensions>
      </trkpt>
      <trkpt lat="45.54037" lon="2.72678">
        <ele>1129</ele>
        <time>2024-05-26T08:14:30.000Z</time>
        <extensions>
          <gpxtpx:TrackPointExtension xmlns:gpxtpx="http://www.garmin.com/xmlschemas/TrackPointExtension/v1">
            <gpxtpx:hr>122</gpxtpx:hr>
          </gpxtpx:TrackPointExtension>
        </extensions>
      </trkpt>
      <trkpt lat="45.54041" lon="2.7269">
        <ele>1129.4000244141</ele>
        <time>2024-05-26T08:14:33.000Z</time>
        <extensions>
          <gpxtpx:TrackPointExtension xmlns:gpxtpx="http://www.garmin.com/xmlschemas/TrackPointExtension/v1">
            <gpxtpx:hr>121</gpxtpx:hr>
          </gpxtpx:TrackPointExtension>
        </extensions>
      </trkpt>
      <trkpt lat="45.54047" lon="2.72705">
        <ele>1130.1999511719</ele>
        <time>2024-05-26T08:14:37.000Z</time>
        <extensions>
          <gpxtpx:TrackPointExtension xmlns:gpxtpx="http://www.garmin.com/xmlschemas/TrackPointExtension/v1">
            <gpxtpx:hr>119</gpxtpx:hr>
          </gpxtpx:TrackPointExtension>
        </extensions>
      </trkpt>
      <trkpt lat="45.54055" lon="2.72723">
        <ele>1131.4000244141</ele>
        <time>2024-05-26T08:14:42.000Z</time>
        <extensions>
          <gpxtpx:TrackPointExtension xmlns:gpxtpx="http://www.garmin.com/xmlschemas/TrackPointExtension/v1">
            <gpxtpx:hr>119</gpxtpx:hr>
          </gpxtpx:TrackPointExtension>
        </extensions>
      </trkpt>
      <trkpt lat="45.54064" lon="2.72745">
        <ele>1132.5999755859</ele>
        <time>2024-05-26T08:14:48.000Z</time>
        <extensions>
          <gpxtpx:TrackPointExtension xmlns:gpxtpx="http://www.garmin.com/xmlschemas/TrackPointExtension/v1">
            <gpxtpx:hr>121</gpxtpx:hr>
          </gpxtpx:TrackPointExtension>
        </extensions>
      </trkpt>
      <trkpt lat="45.54068" lon="2.72757">
        <ele>1133</ele>
        <time>2024-05-26T08:14:51.000Z</time>
        <extensions>
          <gpxtpx:TrackPointExtension xmlns:gpxtpx="http://www.garmin.com/xmlschemas/TrackPointExtension/v1">
            <gpxtpx:hr>121</gpxtpx:hr>
          </gpxtpx:TrackPointExtension>
        </extensions>
      </trkpt>
      <trkpt lat="45.54075" lon="2.72775">
        <ele>1133.5999755859</ele>
        <time>2024-05-26T08:14:56.000Z</time>
        <extensions>
          <gpxtpx:TrackPointExtension xmlns:gpxtpx="http://www.garmin.com/xmlschemas/TrackPointExtension/v1">
            <gpxtpx:hr>121</gpxtpx:hr>
          </gpxtpx:TrackPointExtension>
        </extensions>
      </trkpt>
      <trkpt lat="45.54078" lon="2.72782">
        <ele>1134</ele>
        <time>2024-05-26T08:14:58.000Z</time>
        <extensions>
          <gpxtpx:TrackPointExtension xmlns:gpxtpx="http://www.garmin.com/xmlschemas/TrackPointExtension/v1">
            <gpxtpx:hr>121</gpxtpx:hr>
          </gpxtpx:TrackPointExtension>
        </extensions>
      </trkpt>
      <trkpt lat="45.54082" lon="2.72793">
        <ele>1134.5999755859</ele>
        <time>2024-05-26T08:15:01.000Z</time>
        <extensions>
          <gpxtpx:TrackPointExtension xmlns:gpxtpx="http://www.garmin.com/xmlschemas/TrackPointExtension/v1">
            <gpxtpx:hr>121</gpxtpx:hr>
          </gpxtpx:TrackPointExtension>
        </extensions>
      </trkpt>
      <trkpt lat="45.54086" lon="2.728">
        <ele>1135</ele>
        <time>2024-05-26T08:15:03.000Z</time>
        <extensions>
          <gpxtpx:TrackPointExtension xmlns:gpxtpx="http://www.garmin.com/xmlschemas/TrackPointExtension/v1">
            <gpxtpx:hr>124</gpxtpx:hr>
          </gpxtpx:TrackPointExtension>
        </extensions>
      </trkpt>
      <trkpt lat="45.54087" lon="2.72803">
        <ele>1135.1999511719</ele>
        <time>2024-05-26T08:15:04.000Z</time>
        <extensions>
          <gpxtpx:TrackPointExtension xmlns:gpxtpx="http://www.garmin.com/xmlschemas/TrackPointExtension/v1">
            <gpxtpx:hr>121</gpxtpx:hr>
          </gpxtpx:TrackPointExtension>
        </extensions>
      </trkpt>
      <trkpt lat="45.54091" lon="2.72811">
        <ele>1135.4000244141</ele>
        <time>2024-05-26T08:15:06.000Z</time>
        <extensions>
          <gpxtpx:TrackPointExtension xmlns:gpxtpx="http://www.garmin.com/xmlschemas/TrackPointExtension/v1">
            <gpxtpx:hr>120</gpxtpx:hr>
          </gpxtpx:TrackPointExtension>
        </extensions>
      </trkpt>
      <trkpt lat="45.54095" lon="2.72818">
        <ele>1135.8000488281</ele>
        <time>2024-05-26T08:15:08.000Z</time>
        <extensions>
          <gpxtpx:TrackPointExtension xmlns:gpxtpx="http://www.garmin.com/xmlschemas/TrackPointExtension/v1">
            <gpxtpx:hr>118</gpxtpx:hr>
          </gpxtpx:TrackPointExtension>
        </extensions>
      </trkpt>
      <trkpt lat="45.54104" lon="2.7284">
        <ele>1136.8000488281</ele>
        <time>2024-05-26T08:15:14.000Z</time>
        <extensions>
          <gpxtpx:TrackPointExtension xmlns:gpxtpx="http://www.garmin.com/xmlschemas/TrackPointExtension/v1">
            <gpxtpx:hr>117</gpxtpx:hr>
          </gpxtpx:TrackPointExtension>
        </extensions>
      </trkpt>
      <trkpt lat="45.54105" lon="2.72843">
        <ele>1136.8000488281</ele>
        <time>2024-05-26T08:15:15.000Z</time>
        <extensions>
          <gpxtpx:TrackPointExtension xmlns:gpxtpx="http://www.garmin.com/xmlschemas/TrackPointExtension/v1">
            <gpxtpx:hr>117</gpxtpx:hr>
          </gpxtpx:TrackPointExtension>
        </extensions>
      </trkpt>
      <trkpt lat="45.54114" lon="2.72871">
        <ele>1138</ele>
        <time>2024-05-26T08:15:22.000Z</time>
        <extensions>
          <gpxtpx:TrackPointExtension xmlns:gpxtpx="http://www.garmin.com/xmlschemas/TrackPointExtension/v1">
            <gpxtpx:hr>117</gpxtpx:hr>
          </gpxtpx:TrackPointExtension>
        </extensions>
      </trkpt>
      <trkpt lat="45.54121" lon="2.72891">
        <ele>1139</ele>
        <time>2024-05-26T08:15:27.000Z</time>
        <extensions>
          <gpxtpx:TrackPointExtension xmlns:gpxtpx="http://www.garmin.com/xmlschemas/TrackPointExtension/v1">
            <gpxtpx:hr>116</gpxtpx:hr>
          </gpxtpx:TrackPointExtension>
        </extensions>
      </trkpt>
      <trkpt lat="45.54123" lon="2.72898">
        <ele>1139.1999511719</ele>
        <time>2024-05-26T08:15:29.000Z</time>
        <extensions>
          <gpxtpx:TrackPointExtension xmlns:gpxtpx="http://www.garmin.com/xmlschemas/TrackPointExtension/v1">
            <gpxtpx:hr>116</gpxtpx:hr>
          </gpxtpx:TrackPointExtension>
        </extensions>
      </trkpt>
      <trkpt lat="45.54126" lon="2.72914">
        <ele>1140.1999511719</ele>
        <time>2024-05-26T08:15:33.000Z</time>
        <extensions>
          <gpxtpx:TrackPointExtension xmlns:gpxtpx="http://www.garmin.com/xmlschemas/TrackPointExtension/v1">
            <gpxtpx:hr>115</gpxtpx:hr>
          </gpxtpx:TrackPointExtension>
        </extensions>
      </trkpt>
      <trkpt lat="45.54127" lon="2.72923">
        <ele>1140.5999755859</ele>
        <time>2024-05-26T08:15:35.000Z</time>
        <extensions>
          <gpxtpx:TrackPointExtension xmlns:gpxtpx="http://www.garmin.com/xmlschemas/TrackPointExtension/v1">
            <gpxtpx:hr>116</gpxtpx:hr>
          </gpxtpx:TrackPointExtension>
        </extensions>
      </trkpt>
      <trkpt lat="45.54129" lon="2.72936">
        <ele>1141.1999511719</ele>
        <time>2024-05-26T08:15:38.000Z</time>
        <extensions>
          <gpxtpx:TrackPointExtension xmlns:gpxtpx="http://www.garmin.com/xmlschemas/TrackPointExtension/v1">
            <gpxtpx:hr>117</gpxtpx:hr>
          </gpxtpx:TrackPointExtension>
        </extensions>
      </trkpt>
      <trkpt lat="45.54132" lon="2.72954">
        <ele>1141.5999755859</ele>
        <time>2024-05-26T08:15:42.000Z</time>
        <extensions>
          <gpxtpx:TrackPointExtension xmlns:gpxtpx="http://www.garmin.com/xmlschemas/TrackPointExtension/v1">
            <gpxtpx:hr>118</gpxtpx:hr>
          </gpxtpx:TrackPointExtension>
        </extensions>
      </trkpt>
      <trkpt lat="45.54135" lon="2.72976">
        <ele>1142.1999511719</ele>
        <time>2024-05-26T08:15:47.000Z</time>
        <extensions>
          <gpxtpx:TrackPointExtension xmlns:gpxtpx="http://www.garmin.com/xmlschemas/TrackPointExtension/v1">
            <gpxtpx:hr>119</gpxtpx:hr>
          </gpxtpx:TrackPointExtension>
        </extensions>
      </trkpt>
      <trkpt lat="45.54136" lon="2.72983">
        <ele>1142.8000488281</ele>
        <time>2024-05-26T08:15:49.000Z</time>
        <extensions>
          <gpxtpx:TrackPointExtension xmlns:gpxtpx="http://www.garmin.com/xmlschemas/TrackPointExtension/v1">
            <gpxtpx:hr>120</gpxtpx:hr>
          </gpxtpx:TrackPointExtension>
        </extensions>
      </trkpt>
      <trkpt lat="45.54137" lon="2.72996">
        <ele>1143.1999511719</ele>
        <time>2024-05-26T08:15:52.000Z</time>
        <extensions>
          <gpxtpx:TrackPointExtension xmlns:gpxtpx="http://www.garmin.com/xmlschemas/TrackPointExtension/v1">
            <gpxtpx:hr>120</gpxtpx:hr>
          </gpxtpx:TrackPointExtension>
        </extensions>
      </trkpt>
      <trkpt lat="45.54137" lon="2.73006">
        <ele>1143.5999755859</ele>
        <time>2024-05-26T08:15:54.000Z</time>
        <extensions>
          <gpxtpx:TrackPointExtension xmlns:gpxtpx="http://www.garmin.com/xmlschemas/TrackPointExtension/v1">
            <gpxtpx:hr>119</gpxtpx:hr>
          </gpxtpx:TrackPointExtension>
        </extensions>
      </trkpt>
      <trkpt lat="45.54138" lon="2.7301">
        <ele>1143.8000488281</ele>
        <time>2024-05-26T08:15:55.000Z</time>
        <extensions>
          <gpxtpx:TrackPointExtension xmlns:gpxtpx="http://www.garmin.com/xmlschemas/TrackPointExtension/v1">
            <gpxtpx:hr>120</gpxtpx:hr>
          </gpxtpx:TrackPointExtension>
        </extensions>
      </trkpt>
      <trkpt lat="45.54141" lon="2.73021">
        <ele>1144.1999511719</ele>
        <time>2024-05-26T08:15:58.000Z</time>
        <extensions>
          <gpxtpx:TrackPointExtension xmlns:gpxtpx="http://www.garmin.com/xmlschemas/TrackPointExtension/v1">
            <gpxtpx:hr>120</gpxtpx:hr>
          </gpxtpx:TrackPointExtension>
        </extensions>
      </trkpt>
      <trkpt lat="45.54142" lon="2.73029">
        <ele>1144.5999755859</ele>
        <time>2024-05-26T08:16:00.000Z</time>
        <extensions>
          <gpxtpx:TrackPointExtension xmlns:gpxtpx="http://www.garmin.com/xmlschemas/TrackPointExtension/v1">
            <gpxtpx:hr>120</gpxtpx:hr>
          </gpxtpx:TrackPointExtension>
        </extensions>
      </trkpt>
      <trkpt lat="45.54144" lon="2.73045">
        <ele>1145.4000244141</ele>
        <time>2024-05-26T08:16:04.000Z</time>
        <extensions>
          <gpxtpx:TrackPointExtension xmlns:gpxtpx="http://www.garmin.com/xmlschemas/TrackPointExtension/v1">
            <gpxtpx:hr>120</gpxtpx:hr>
          </gpxtpx:TrackPointExtension>
        </extensions>
      </trkpt>
      <trkpt lat="45.54144" lon="2.73063">
        <ele>1145.8000488281</ele>
        <time>2024-05-26T08:16:08.000Z</time>
        <extensions>
          <gpxtpx:TrackPointExtension xmlns:gpxtpx="http://www.garmin.com/xmlschemas/TrackPointExtension/v1">
            <gpxtpx:hr>118</gpxtpx:hr>
          </gpxtpx:TrackPointExtension>
        </extensions>
      </trkpt>
      <trkpt lat="45.54145" lon="2.73075">
        <ele>1146.1999511719</ele>
        <time>2024-05-26T08:16:11.000Z</time>
        <extensions>
          <gpxtpx:TrackPointExtension xmlns:gpxtpx="http://www.garmin.com/xmlschemas/TrackPointExtension/v1">
            <gpxtpx:hr>117</gpxtpx:hr>
          </gpxtpx:TrackPointExtension>
        </extensions>
      </trkpt>
      <trkpt lat="45.54147" lon="2.73091">
        <ele>1146.8000488281</ele>
        <time>2024-05-26T08:16:15.000Z</time>
        <extensions>
          <gpxtpx:TrackPointExtension xmlns:gpxtpx="http://www.garmin.com/xmlschemas/TrackPointExtension/v1">
            <gpxtpx:hr>119</gpxtpx:hr>
          </gpxtpx:TrackPointExtension>
        </extensions>
      </trkpt>
      <trkpt lat="45.54149" lon="2.73097">
        <ele>1147.4000244141</ele>
        <time>2024-05-26T08:16:17.000Z</time>
        <extensions>
          <gpxtpx:TrackPointExtension xmlns:gpxtpx="http://www.garmin.com/xmlschemas/TrackPointExtension/v1">
            <gpxtpx:hr>116</gpxtpx:hr>
          </gpxtpx:TrackPointExtension>
        </extensions>
      </trkpt>
      <trkpt lat="45.54149" lon="2.73098">
        <ele>1147.4000244141</ele>
        <time>2024-05-26T08:16:18.000Z</time>
        <extensions>
          <gpxtpx:TrackPointExtension xmlns:gpxtpx="http://www.garmin.com/xmlschemas/TrackPointExtension/v1">
            <gpxtpx:hr>113</gpxtpx:hr>
          </gpxtpx:TrackPointExtension>
        </extensions>
      </trkpt>
      <trkpt lat="45.54149" lon="2.73101">
        <ele>1147.5999755859</ele>
        <time>2024-05-26T08:16:19.000Z</time>
        <extensions>
          <gpxtpx:TrackPointExtension xmlns:gpxtpx="http://www.garmin.com/xmlschemas/TrackPointExtension/v1">
            <gpxtpx:hr>116</gpxtpx:hr>
          </gpxtpx:TrackPointExtension>
        </extensions>
      </trkpt>
      <trkpt lat="45.5415" lon="2.73117">
        <ele>1148</ele>
        <time>2024-05-26T08:16:24.000Z</time>
        <extensions>
          <gpxtpx:TrackPointExtension xmlns:gpxtpx="http://www.garmin.com/xmlschemas/TrackPointExtension/v1">
            <gpxtpx:hr>116</gpxtpx:hr>
          </gpxtpx:TrackPointExtension>
        </extensions>
      </trkpt>
      <trkpt lat="45.54151" lon="2.73126">
        <ele>1148.4000244141</ele>
        <time>2024-05-26T08:16:26.000Z</time>
        <extensions>
          <gpxtpx:TrackPointExtension xmlns:gpxtpx="http://www.garmin.com/xmlschemas/TrackPointExtension/v1">
            <gpxtpx:hr>116</gpxtpx:hr>
          </gpxtpx:TrackPointExtension>
        </extensions>
      </trkpt>
      <trkpt lat="45.54152" lon="2.73146">
        <ele>1149</ele>
        <time>2024-05-26T08:16:31.000Z</time>
        <extensions>
          <gpxtpx:TrackPointExtension xmlns:gpxtpx="http://www.garmin.com/xmlschemas/TrackPointExtension/v1">
            <gpxtpx:hr>115</gpxtpx:hr>
          </gpxtpx:TrackPointExtension>
        </extensions>
      </trkpt>
      <trkpt lat="45.54153" lon="2.73148">
        <ele>1149.1999511719</ele>
        <time>2024-05-26T08:16:32.000Z</time>
        <extensions>
          <gpxtpx:TrackPointExtension xmlns:gpxtpx="http://www.garmin.com/xmlschemas/TrackPointExtension/v1">
            <gpxtpx:hr>115</gpxtpx:hr>
          </gpxtpx:TrackPointExtension>
        </extensions>
      </trkpt>
      <trkpt lat="45.54154" lon="2.73152">
        <ele>1149.4000244141</ele>
        <time>2024-05-26T08:16:33.000Z</time>
        <extensions>
          <gpxtpx:TrackPointExtension xmlns:gpxtpx="http://www.garmin.com/xmlschemas/TrackPointExtension/v1">
            <gpxtpx:hr>114</gpxtpx:hr>
          </gpxtpx:TrackPointExtension>
        </extensions>
      </trkpt>
      <trkpt lat="45.54155" lon="2.73163">
        <ele>1149.8000488281</ele>
        <time>2024-05-26T08:16:36.000Z</time>
        <extensions>
          <gpxtpx:TrackPointExtension xmlns:gpxtpx="http://www.garmin.com/xmlschemas/TrackPointExtension/v1">
            <gpxtpx:hr>114</gpxtpx:hr>
          </gpxtpx:TrackPointExtension>
        </extensions>
      </trkpt>
      <trkpt lat="45.54156" lon="2.73176">
        <ele>1150.1999511719</ele>
        <time>2024-05-26T08:16:39.000Z</time>
        <extensions>
          <gpxtpx:TrackPointExtension xmlns:gpxtpx="http://www.garmin.com/xmlschemas/TrackPointExtension/v1">
            <gpxtpx:hr>115</gpxtpx:hr>
          </gpxtpx:TrackPointExtension>
        </extensions>
      </trkpt>
      <trkpt lat="45.54158" lon="2.73183">
        <ele>1150.4000244141</ele>
        <time>2024-05-26T08:16:41.000Z</time>
        <extensions>
          <gpxtpx:TrackPointExtension xmlns:gpxtpx="http://www.garmin.com/xmlschemas/TrackPointExtension/v1">
            <gpxtpx:hr>116</gpxtpx:hr>
          </gpxtpx:TrackPointExtension>
        </extensions>
      </trkpt>
      <trkpt lat="45.54162" lon="2.73203">
        <ele>1151.1999511719</ele>
        <time>2024-05-26T08:16:46.000Z</time>
        <extensions>
          <gpxtpx:TrackPointExtension xmlns:gpxtpx="http://www.garmin.com/xmlschemas/TrackPointExtension/v1">
            <gpxtpx:hr>117</gpxtpx:hr>
          </gpxtpx:TrackPointExtension>
        </extensions>
      </trkpt>
      <trkpt lat="45.54164" lon="2.7321">
        <ele>1151.5999755859</ele>
        <time>2024-05-26T08:16:48.000Z</time>
        <extensions>
          <gpxtpx:TrackPointExtension xmlns:gpxtpx="http://www.garmin.com/xmlschemas/TrackPointExtension/v1">
            <gpxtpx:hr>117</gpxtpx:hr>
          </gpxtpx:TrackPointExtension>
        </extensions>
      </trkpt>
      <trkpt lat="45.54167" lon="2.73221">
        <ele>1152.1999511719</ele>
        <time>2024-05-26T08:16:51.000Z</time>
        <extensions>
          <gpxtpx:TrackPointExtension xmlns:gpxtpx="http://www.garmin.com/xmlschemas/TrackPointExtension/v1">
            <gpxtpx:hr>116</gpxtpx:hr>
          </gpxtpx:TrackPointExtension>
        </extensions>
      </trkpt>
      <trkpt lat="45.54168" lon="2.73225">
        <ele>1152.4000244141</ele>
        <time>2024-05-26T08:16:52.000Z</time>
        <extensions>
          <gpxtpx:TrackPointExtension xmlns:gpxtpx="http://www.garmin.com/xmlschemas/TrackPointExtension/v1">
            <gpxtpx:hr>116</gpxtpx:hr>
          </gpxtpx:TrackPointExtension>
        </extensions>
      </trkpt>
      <trkpt lat="45.54172" lon="2.73246">
        <ele>1153.4000244141</ele>
        <time>2024-05-26T08:16:57.000Z</time>
        <extensions>
          <gpxtpx:TrackPointExtension xmlns:gpxtpx="http://www.garmin.com/xmlschemas/TrackPointExtension/v1">
            <gpxtpx:hr>118</gpxtpx:hr>
          </gpxtpx:TrackPointExtension>
        </extensions>
      </trkpt>
      <trkpt lat="45.54173" lon="2.7325">
        <ele>1153.4000244141</ele>
        <time>2024-05-26T08:16:58.000Z</time>
        <extensions>
          <gpxtpx:TrackPointExtension xmlns:gpxtpx="http://www.garmin.com/xmlschemas/TrackPointExtension/v1">
            <gpxtpx:hr>118</gpxtpx:hr>
          </gpxtpx:TrackPointExtension>
        </extensions>
      </trkpt>
      <trkpt lat="45.54176" lon="2.73269">
        <ele>1154.5999755859</ele>
        <time>2024-05-26T08:17:03.000Z</time>
        <extensions>
          <gpxtpx:TrackPointExtension xmlns:gpxtpx="http://www.garmin.com/xmlschemas/TrackPointExtension/v1">
            <gpxtpx:hr>118</gpxtpx:hr>
          </gpxtpx:TrackPointExtension>
        </extensions>
      </trkpt>
      <trkpt lat="45.5418" lon="2.73293">
        <ele>1155.4000244141</ele>
        <time>2024-05-26T08:17:09.000Z</time>
        <extensions>
          <gpxtpx:TrackPointExtension xmlns:gpxtpx="http://www.garmin.com/xmlschemas/TrackPointExtension/v1">
            <gpxtpx:hr>123</gpxtpx:hr>
          </gpxtpx:TrackPointExtension>
        </extensions>
      </trkpt>
      <trkpt lat="45.54181" lon="2.73296">
        <ele>1155.5999755859</ele>
        <time>2024-05-26T08:17:10.000Z</time>
        <extensions>
          <gpxtpx:TrackPointExtension xmlns:gpxtpx="http://www.garmin.com/xmlschemas/TrackPointExtension/v1">
            <gpxtpx:hr>119</gpxtpx:hr>
          </gpxtpx:TrackPointExtension>
        </extensions>
      </trkpt>
      <trkpt lat="45.54187" lon="2.73318">
        <ele>1156.5999755859</ele>
        <time>2024-05-26T08:17:15.000Z</time>
        <extensions>
          <gpxtpx:TrackPointExtension xmlns:gpxtpx="http://www.garmin.com/xmlschemas/TrackPointExtension/v1">
            <gpxtpx:hr>119</gpxtpx:hr>
          </gpxtpx:TrackPointExtension>
        </extensions>
      </trkpt>
      <trkpt lat="45.54189" lon="2.73326">
        <ele>1156.8000488281</ele>
        <time>2024-05-26T08:17:17.000Z</time>
        <extensions>
          <gpxtpx:TrackPointExtension xmlns:gpxtpx="http://www.garmin.com/xmlschemas/TrackPointExtension/v1">
            <gpxtpx:hr>119</gpxtpx:hr>
          </gpxtpx:TrackPointExtension>
        </extensions>
      </trkpt>
      <trkpt lat="45.54194" lon="2.73346">
        <ele>1158</ele>
        <time>2024-05-26T08:17:22.000Z</time>
        <extensions>
          <gpxtpx:TrackPointExtension xmlns:gpxtpx="http://www.garmin.com/xmlschemas/TrackPointExtension/v1">
            <gpxtpx:hr>119</gpxtpx:hr>
          </gpxtpx:TrackPointExtension>
        </extensions>
      </trkpt>
      <trkpt lat="45.54194" lon="2.7335">
        <ele>1158</ele>
        <time>2024-05-26T08:17:23.000Z</time>
        <extensions>
          <gpxtpx:TrackPointExtension xmlns:gpxtpx="http://www.garmin.com/xmlschemas/TrackPointExtension/v1">
            <gpxtpx:hr>119</gpxtpx:hr>
          </gpxtpx:TrackPointExtension>
        </extensions>
      </trkpt>
      <trkpt lat="45.54199" lon="2.73375">
        <ele>1159</ele>
        <time>2024-05-26T08:17:29.000Z</time>
        <extensions>
          <gpxtpx:TrackPointExtension xmlns:gpxtpx="http://www.garmin.com/xmlschemas/TrackPointExtension/v1">
            <gpxtpx:hr>122</gpxtpx:hr>
          </gpxtpx:TrackPointExtension>
        </extensions>
      </trkpt>
      <trkpt lat="45.542" lon="2.73379">
        <ele>1159.1999511719</ele>
        <time>2024-05-26T08:17:30.000Z</time>
        <extensions>
          <gpxtpx:TrackPointExtension xmlns:gpxtpx="http://www.garmin.com/xmlschemas/TrackPointExtension/v1">
            <gpxtpx:hr>123</gpxtpx:hr>
          </gpxtpx:TrackPointExtension>
        </extensions>
      </trkpt>
      <trkpt lat="45.54206" lon="2.73406">
        <ele>1160</ele>
        <time>2024-05-26T08:17:36.000Z</time>
        <extensions>
          <gpxtpx:TrackPointExtension xmlns:gpxtpx="http://www.garmin.com/xmlschemas/TrackPointExtension/v1">
            <gpxtpx:hr>123</gpxtpx:hr>
          </gpxtpx:TrackPointExtension>
        </extensions>
      </trkpt>
      <trkpt lat="45.54207" lon="2.73411">
        <ele>1160.4000244141</ele>
        <time>2024-05-26T08:17:37.000Z</time>
        <extensions>
          <gpxtpx:TrackPointExtension xmlns:gpxtpx="http://www.garmin.com/xmlschemas/TrackPointExtension/v1">
            <gpxtpx:hr>123</gpxtpx:hr>
          </gpxtpx:TrackPointExtension>
        </extensions>
      </trkpt>
      <trkpt lat="45.54208" lon="2.73414">
        <ele>1160.4000244141</ele>
        <time>2024-05-26T08:17:38.000Z</time>
        <extensions>
          <gpxtpx:TrackPointExtension xmlns:gpxtpx="http://www.garmin.com/xmlschemas/TrackPointExtension/v1">
            <gpxtpx:hr>120</gpxtpx:hr>
          </gpxtpx:TrackPointExtension>
        </extensions>
      </trkpt>
      <trkpt lat="45.54211" lon="2.73426">
        <ele>1161</ele>
        <time>2024-05-26T08:17:41.000Z</time>
        <extensions>
          <gpxtpx:TrackPointExtension xmlns:gpxtpx="http://www.garmin.com/xmlschemas/TrackPointExtension/v1">
            <gpxtpx:hr>123</gpxtpx:hr>
          </gpxtpx:TrackPointExtension>
        </extensions>
      </trkpt>
      <trkpt lat="45.54212" lon="2.73431">
        <ele>1161.4000244141</ele>
        <time>2024-05-26T08:17:42.000Z</time>
        <extensions>
          <gpxtpx:TrackPointExtension xmlns:gpxtpx="http://www.garmin.com/xmlschemas/TrackPointExtension/v1">
            <gpxtpx:hr>123</gpxtpx:hr>
          </gpxtpx:TrackPointExtension>
        </extensions>
      </trkpt>
      <trkpt lat="45.54215" lon="2.73443">
        <ele>1161.5999755859</ele>
        <time>2024-05-26T08:17:45.000Z</time>
        <extensions>
          <gpxtpx:TrackPointExtension xmlns:gpxtpx="http://www.garmin.com/xmlschemas/TrackPointExtension/v1">
            <gpxtpx:hr>122</gpxtpx:hr>
          </gpxtpx:TrackPointExtension>
        </extensions>
      </trkpt>
      <trkpt lat="45.54217" lon="2.73455">
        <ele>1162.1999511719</ele>
        <time>2024-05-26T08:17:48.000Z</time>
        <extensions>
          <gpxtpx:TrackPointExtension xmlns:gpxtpx="http://www.garmin.com/xmlschemas/TrackPointExtension/v1">
            <gpxtpx:hr>119</gpxtpx:hr>
          </gpxtpx:TrackPointExtension>
        </extensions>
      </trkpt>
      <trkpt lat="45.54219" lon="2.73465">
        <ele>1162.4000244141</ele>
        <time>2024-05-26T08:17:50.000Z</time>
        <extensions>
          <gpxtpx:TrackPointExtension xmlns:gpxtpx="http://www.garmin.com/xmlschemas/TrackPointExtension/v1">
            <gpxtpx:hr>117</gpxtpx:hr>
          </gpxtpx:TrackPointExtension>
        </extensions>
      </trkpt>
      <trkpt lat="45.5422" lon="2.7347">
        <ele>1162.5999755859</ele>
        <time>2024-05-26T08:17:51.000Z</time>
        <extensions>
          <gpxtpx:TrackPointExtension xmlns:gpxtpx="http://www.garmin.com/xmlschemas/TrackPointExtension/v1">
            <gpxtpx:hr>114</gpxtpx:hr>
          </gpxtpx:TrackPointExtension>
        </extensions>
      </trkpt>
      <trkpt lat="45.54221" lon="2.73478">
        <ele>1163.1999511719</ele>
        <time>2024-05-26T08:17:53.000Z</time>
        <extensions>
          <gpxtpx:TrackPointExtension xmlns:gpxtpx="http://www.garmin.com/xmlschemas/TrackPointExtension/v1">
            <gpxtpx:hr>110</gpxtpx:hr>
          </gpxtpx:TrackPointExtension>
        </extensions>
      </trkpt>
      <trkpt lat="45.54221" lon="2.73481">
        <ele>1163.5999755859</ele>
        <time>2024-05-26T08:17:54.000Z</time>
        <extensions>
          <gpxtpx:TrackPointExtension xmlns:gpxtpx="http://www.garmin.com/xmlschemas/TrackPointExtension/v1">
            <gpxtpx:hr>109</gpxtpx:hr>
          </gpxtpx:TrackPointExtension>
        </extensions>
      </trkpt>
      <trkpt lat="45.54221" lon="2.73498">
        <ele>1164</ele>
        <time>2024-05-26T08:17:58.000Z</time>
        <extensions>
          <gpxtpx:TrackPointExtension xmlns:gpxtpx="http://www.garmin.com/xmlschemas/TrackPointExtension/v1">
            <gpxtpx:hr>108</gpxtpx:hr>
          </gpxtpx:TrackPointExtension>
        </extensions>
      </trkpt>
      <trkpt lat="45.5422" lon="2.7351">
        <ele>1164.5999755859</ele>
        <time>2024-05-26T08:18:01.000Z</time>
        <extensions>
          <gpxtpx:TrackPointExtension xmlns:gpxtpx="http://www.garmin.com/xmlschemas/TrackPointExtension/v1">
            <gpxtpx:hr>109</gpxtpx:hr>
          </gpxtpx:TrackPointExtension>
        </extensions>
      </trkpt>
      <trkpt lat="45.54216" lon="2.73525">
        <ele>1165.4000244141</ele>
        <time>2024-05-26T08:18:05.000Z</time>
        <extensions>
          <gpxtpx:TrackPointExtension xmlns:gpxtpx="http://www.garmin.com/xmlschemas/TrackPointExtension/v1">
            <gpxtpx:hr>112</gpxtpx:hr>
          </gpxtpx:TrackPointExtension>
        </extensions>
      </trkpt>
      <trkpt lat="45.54213" lon="2.73532">
        <ele>1165.8000488281</ele>
        <time>2024-05-26T08:18:07.000Z</time>
        <extensions>
          <gpxtpx:TrackPointExtension xmlns:gpxtpx="http://www.garmin.com/xmlschemas/TrackPointExtension/v1">
            <gpxtpx:hr>115</gpxtpx:hr>
          </gpxtpx:TrackPointExtension>
        </extensions>
      </trkpt>
      <trkpt lat="45.54203" lon="2.73548">
        <ele>1166.4000244141</ele>
        <time>2024-05-26T08:18:12.000Z</time>
        <extensions>
          <gpxtpx:TrackPointExtension xmlns:gpxtpx="http://www.garmin.com/xmlschemas/TrackPointExtension/v1">
            <gpxtpx:hr>117</gpxtpx:hr>
          </gpxtpx:TrackPointExtension>
        </extensions>
      </trkpt>
      <trkpt lat="45.54196" lon="2.73559">
        <ele>1167</ele>
        <time>2024-05-26T08:18:16.000Z</time>
        <extensions>
          <gpxtpx:TrackPointExtension xmlns:gpxtpx="http://www.garmin.com/xmlschemas/TrackPointExtension/v1">
            <gpxtpx:hr>116</gpxtpx:hr>
          </gpxtpx:TrackPointExtension>
        </extensions>
      </trkpt>
      <trkpt lat="45.5419" lon="2.73572">
        <ele>1168</ele>
        <time>2024-05-26T08:18:20.000Z</time>
        <extensions>
          <gpxtpx:TrackPointExtension xmlns:gpxtpx="http://www.garmin.com/xmlschemas/TrackPointExtension/v1">
            <gpxtpx:hr>116</gpxtpx:hr>
          </gpxtpx:TrackPointExtension>
        </extensions>
      </trkpt>
      <trkpt lat="45.54189" lon="2.73575">
        <ele>1168.1999511719</ele>
        <time>2024-05-26T08:18:21.000Z</time>
        <extensions>
          <gpxtpx:TrackPointExtension xmlns:gpxtpx="http://www.garmin.com/xmlschemas/TrackPointExtension/v1">
            <gpxtpx:hr>116</gpxtpx:hr>
          </gpxtpx:TrackPointExtension>
        </extensions>
      </trkpt>
      <trkpt lat="45.54184" lon="2.736">
        <ele>1169.1999511719</ele>
        <time>2024-05-26T08:18:28.000Z</time>
        <extensions>
          <gpxtpx:TrackPointExtension xmlns:gpxtpx="http://www.garmin.com/xmlschemas/TrackPointExtension/v1">
            <gpxtpx:hr>115</gpxtpx:hr>
          </gpxtpx:TrackPointExtension>
        </extensions>
      </trkpt>
      <trkpt lat="45.54185" lon="2.73604">
        <ele>1169.1999511719</ele>
        <time>2024-05-26T08:18:29.000Z</time>
        <extensions>
          <gpxtpx:TrackPointExtension xmlns:gpxtpx="http://www.garmin.com/xmlschemas/TrackPointExtension/v1">
            <gpxtpx:hr>115</gpxtpx:hr>
          </gpxtpx:TrackPointExtension>
        </extensions>
      </trkpt>
      <trkpt lat="45.54188" lon="2.73618">
        <ele>1169.8000488281</ele>
        <time>2024-05-26T08:18:34.000Z</time>
        <extensions>
          <gpxtpx:TrackPointExtension xmlns:gpxtpx="http://www.garmin.com/xmlschemas/TrackPointExtension/v1">
            <gpxtpx:hr>118</gpxtpx:hr>
          </gpxtpx:TrackPointExtension>
        </extensions>
      </trkpt>
      <trkpt lat="45.54189" lon="2.73623">
        <ele>1170.1999511719</ele>
        <time>2024-05-26T08:18:37.000Z</time>
        <extensions>
          <gpxtpx:TrackPointExtension xmlns:gpxtpx="http://www.garmin.com/xmlschemas/TrackPointExtension/v1">
            <gpxtpx:hr>118</gpxtpx:hr>
          </gpxtpx:TrackPointExtension>
        </extensions>
      </trkpt>
      <trkpt lat="45.54189" lon="2.73623">
        <ele>1170.1999511719</ele>
        <time>2024-05-26T08:18:39.000Z</time>
        <extensions>
          <gpxtpx:TrackPointExtension xmlns:gpxtpx="http://www.garmin.com/xmlschemas/TrackPointExtension/v1">
            <gpxtpx:hr>118</gpxtpx:hr>
          </gpxtpx:TrackPointExtension>
        </extensions>
      </trkpt>
      <trkpt lat="45.54189" lon="2.73623">
        <ele>1170.1999511719</ele>
        <time>2024-05-26T08:18:43.000Z</time>
        <extensions>
          <gpxtpx:TrackPointExtension xmlns:gpxtpx="http://www.garmin.com/xmlschemas/TrackPointExtension/v1">
            <gpxtpx:hr>117</gpxtpx:hr>
          </gpxtpx:TrackPointExtension>
        </extensions>
      </trkpt>
      <trkpt lat="45.54189" lon="2.73623">
        <ele>1170.4000244141</ele>
        <time>2024-05-26T08:18:51.000Z</time>
        <extensions>
          <gpxtpx:TrackPointExtension xmlns:gpxtpx="http://www.garmin.com/xmlschemas/TrackPointExtension/v1">
            <gpxtpx:hr>115</gpxtpx:hr>
          </gpxtpx:TrackPointExtension>
        </extensions>
      </trkpt>
      <trkpt lat="45.54189" lon="2.73623">
        <ele>1170.1999511719</ele>
        <time>2024-05-26T08:18:59.000Z</time>
        <extensions>
          <gpxtpx:TrackPointExtension xmlns:gpxtpx="http://www.garmin.com/xmlschemas/TrackPointExtension/v1">
            <gpxtpx:hr>112</gpxtpx:hr>
          </gpxtpx:TrackPointExtension>
        </extensions>
      </trkpt>
      <trkpt lat="45.54192" lon="2.73629">
        <ele>1170.4000244141</ele>
        <time>2024-05-26T08:19:08.000Z</time>
        <extensions>
          <gpxtpx:TrackPointExtension xmlns:gpxtpx="http://www.garmin.com/xmlschemas/TrackPointExtension/v1">
            <gpxtpx:hr>111</gpxtpx:hr>
          </gpxtpx:TrackPointExtension>
        </extensions>
      </trkpt>
      <trkpt lat="45.54197" lon="2.73646">
        <ele>1170.8000488281</ele>
        <time>2024-05-26T08:19:13.000Z</time>
        <extensions>
          <gpxtpx:TrackPointExtension xmlns:gpxtpx="http://www.garmin.com/xmlschemas/TrackPointExtension/v1">
            <gpxtpx:hr>110</gpxtpx:hr>
          </gpxtpx:TrackPointExtension>
        </extensions>
      </trkpt>
      <trkpt lat="45.54199" lon="2.73649">
        <ele>1170.8000488281</ele>
        <time>2024-05-26T08:19:14.000Z</time>
        <extensions>
          <gpxtpx:TrackPointExtension xmlns:gpxtpx="http://www.garmin.com/xmlschemas/TrackPointExtension/v1">
            <gpxtpx:hr>110</gpxtpx:hr>
          </gpxtpx:TrackPointExtension>
        </extensions>
      </trkpt>
      <trkpt lat="45.542" lon="2.73653">
        <ele>1171.4000244141</ele>
        <time>2024-05-26T08:19:15.000Z</time>
        <extensions>
          <gpxtpx:TrackPointExtension xmlns:gpxtpx="http://www.garmin.com/xmlschemas/TrackPointExtension/v1">
            <gpxtpx:hr>111</gpxtpx:hr>
          </gpxtpx:TrackPointExtension>
        </extensions>
      </trkpt>
      <trkpt lat="45.54205" lon="2.73669">
        <ele>1172</ele>
        <time>2024-05-26T08:19:19.000Z</time>
        <extensions>
          <gpxtpx:TrackPointExtension xmlns:gpxtpx="http://www.garmin.com/xmlschemas/TrackPointExtension/v1">
            <gpxtpx:hr>111</gpxtpx:hr>
          </gpxtpx:TrackPointExtension>
        </extensions>
      </trkpt>
      <trkpt lat="45.5421" lon="2.73681">
        <ele>1172.4000244141</ele>
        <time>2024-05-26T08:19:22.000Z</time>
        <extensions>
          <gpxtpx:TrackPointExtension xmlns:gpxtpx="http://www.garmin.com/xmlschemas/TrackPointExtension/v1">
            <gpxtpx:hr>110</gpxtpx:hr>
          </gpxtpx:TrackPointExtension>
        </extensions>
      </trkpt>
      <trkpt lat="45.54216" lon="2.73696">
        <ele>1173.1999511719</ele>
        <time>2024-05-26T08:19:26.000Z</time>
        <extensions>
          <gpxtpx:TrackPointExtension xmlns:gpxtpx="http://www.garmin.com/xmlschemas/TrackPointExtension/v1">
            <gpxtpx:hr>110</gpxtpx:hr>
          </gpxtpx:TrackPointExtension>
        </extensions>
      </trkpt>
      <trkpt lat="45.54217" lon="2.73701">
        <ele>1173.4000244141</ele>
        <time>2024-05-26T08:19:27.000Z</time>
        <extensions>
          <gpxtpx:TrackPointExtension xmlns:gpxtpx="http://www.garmin.com/xmlschemas/TrackPointExtension/v1">
            <gpxtpx:hr>109</gpxtpx:hr>
          </gpxtpx:TrackPointExtension>
        </extensions>
      </trkpt>
      <trkpt lat="45.54223" lon="2.73718">
        <ele>1174.8000488281</ele>
        <time>2024-05-26T08:19:31.000Z</time>
        <extensions>
          <gpxtpx:TrackPointExtension xmlns:gpxtpx="http://www.garmin.com/xmlschemas/TrackPointExtension/v1">
            <gpxtpx:hr>108</gpxtpx:hr>
          </gpxtpx:TrackPointExtension>
        </extensions>
      </trkpt>
      <trkpt lat="45.54226" lon="2.73726">
        <ele>1175.1999511719</ele>
        <time>2024-05-26T08:19:33.000Z</time>
        <extensions>
          <gpxtpx:TrackPointExtension xmlns:gpxtpx="http://www.garmin.com/xmlschemas/TrackPointExtension/v1">
            <gpxtpx:hr>109</gpxtpx:hr>
          </gpxtpx:TrackPointExtension>
        </extensions>
      </trkpt>
      <trkpt lat="45.54232" lon="2.73741">
        <ele>1176</ele>
        <time>2024-05-26T08:19:37.000Z</time>
        <extensions>
          <gpxtpx:TrackPointExtension xmlns:gpxtpx="http://www.garmin.com/xmlschemas/TrackPointExtension/v1">
            <gpxtpx:hr>108</gpxtpx:hr>
          </gpxtpx:TrackPointExtension>
        </extensions>
      </trkpt>
      <trkpt lat="45.5424" lon="2.73769">
        <ele>1177</ele>
        <time>2024-05-26T08:19:43.000Z</time>
        <extensions>
          <gpxtpx:TrackPointExtension xmlns:gpxtpx="http://www.garmin.com/xmlschemas/TrackPointExtension/v1">
            <gpxtpx:hr>111</gpxtpx:hr>
          </gpxtpx:TrackPointExtension>
        </extensions>
      </trkpt>
      <trkpt lat="45.54242" lon="2.73773">
        <ele>1177.1999511719</ele>
        <time>2024-05-26T08:19:44.000Z</time>
        <extensions>
          <gpxtpx:TrackPointExtension xmlns:gpxtpx="http://www.garmin.com/xmlschemas/TrackPointExtension/v1">
            <gpxtpx:hr>111</gpxtpx:hr>
          </gpxtpx:TrackPointExtension>
        </extensions>
      </trkpt>
      <trkpt lat="45.54247" lon="2.7379">
        <ele>1178.1999511719</ele>
        <time>2024-05-26T08:19:48.000Z</time>
        <extensions>
          <gpxtpx:TrackPointExtension xmlns:gpxtpx="http://www.garmin.com/xmlschemas/TrackPointExtension/v1">
            <gpxtpx:hr>112</gpxtpx:hr>
          </gpxtpx:TrackPointExtension>
        </extensions>
      </trkpt>
      <trkpt lat="45.54252" lon="2.73803">
        <ele>1178.5999755859</ele>
        <time>2024-05-26T08:19:51.000Z</time>
        <extensions>
          <gpxtpx:TrackPointExtension xmlns:gpxtpx="http://www.garmin.com/xmlschemas/TrackPointExtension/v1">
            <gpxtpx:hr>115</gpxtpx:hr>
          </gpxtpx:TrackPointExtension>
        </extensions>
      </trkpt>
      <trkpt lat="45.54258" lon="2.7382">
        <ele>1179.1999511719</ele>
        <time>2024-05-26T08:19:55.000Z</time>
        <extensions>
          <gpxtpx:TrackPointExtension xmlns:gpxtpx="http://www.garmin.com/xmlschemas/TrackPointExtension/v1">
            <gpxtpx:hr>116</gpxtpx:hr>
          </gpxtpx:TrackPointExtension>
        </extensions>
      </trkpt>
      <trkpt lat="45.54264" lon="2.73836">
        <ele>1180</ele>
        <time>2024-05-26T08:19:59.000Z</time>
        <extensions>
          <gpxtpx:TrackPointExtension xmlns:gpxtpx="http://www.garmin.com/xmlschemas/TrackPointExtension/v1">
            <gpxtpx:hr>117</gpxtpx:hr>
          </gpxtpx:TrackPointExtension>
        </extensions>
      </trkpt>
      <trkpt lat="45.54266" lon="2.7384">
        <ele>1180.4000244141</ele>
        <time>2024-05-26T08:20:00.000Z</time>
        <extensions>
          <gpxtpx:TrackPointExtension xmlns:gpxtpx="http://www.garmin.com/xmlschemas/TrackPointExtension/v1">
            <gpxtpx:hr>117</gpxtpx:hr>
          </gpxtpx:TrackPointExtension>
        </extensions>
      </trkpt>
      <trkpt lat="45.54266" lon="2.73844">
        <ele>1180.5999755859</ele>
        <time>2024-05-26T08:20:01.000Z</time>
        <extensions>
          <gpxtpx:TrackPointExtension xmlns:gpxtpx="http://www.garmin.com/xmlschemas/TrackPointExtension/v1">
            <gpxtpx:hr>118</gpxtpx:hr>
          </gpxtpx:TrackPointExtension>
        </extensions>
      </trkpt>
      <trkpt lat="45.54273" lon="2.73864">
        <ele>1181.4000244141</ele>
        <time>2024-05-26T08:20:06.000Z</time>
        <extensions>
          <gpxtpx:TrackPointExtension xmlns:gpxtpx="http://www.garmin.com/xmlschemas/TrackPointExtension/v1">
            <gpxtpx:hr>121</gpxtpx:hr>
          </gpxtpx:TrackPointExtension>
        </extensions>
      </trkpt>
      <trkpt lat="45.54277" lon="2.73876">
        <ele>1181.8000488281</ele>
        <time>2024-05-26T08:20:09.000Z</time>
        <extensions>
          <gpxtpx:TrackPointExtension xmlns:gpxtpx="http://www.garmin.com/xmlschemas/TrackPointExtension/v1">
            <gpxtpx:hr>122</gpxtpx:hr>
          </gpxtpx:TrackPointExtension>
        </extensions>
      </trkpt>
      <trkpt lat="45.54281" lon="2.73887">
        <ele>1182.5999755859</ele>
        <time>2024-05-26T08:20:12.000Z</time>
        <extensions>
          <gpxtpx:TrackPointExtension xmlns:gpxtpx="http://www.garmin.com/xmlschemas/TrackPointExtension/v1">
            <gpxtpx:hr>122</gpxtpx:hr>
          </gpxtpx:TrackPointExtension>
        </extensions>
      </trkpt>
      <trkpt lat="45.54287" lon="2.73905">
        <ele>1183.5999755859</ele>
        <time>2024-05-26T08:20:17.000Z</time>
        <extensions>
          <gpxtpx:TrackPointExtension xmlns:gpxtpx="http://www.garmin.com/xmlschemas/TrackPointExtension/v1">
            <gpxtpx:hr>121</gpxtpx:hr>
          </gpxtpx:TrackPointExtension>
        </extensions>
      </trkpt>
      <trkpt lat="45.54288" lon="2.73909">
        <ele>1183.5999755859</ele>
        <time>2024-05-26T08:20:18.000Z</time>
        <extensions>
          <gpxtpx:TrackPointExtension xmlns:gpxtpx="http://www.garmin.com/xmlschemas/TrackPointExtension/v1">
            <gpxtpx:hr>121</gpxtpx:hr>
          </gpxtpx:TrackPointExtension>
        </extensions>
      </trkpt>
      <trkpt lat="45.54292" lon="2.73918">
        <ele>1183.8000488281</ele>
        <time>2024-05-26T08:20:21.000Z</time>
        <extensions>
          <gpxtpx:TrackPointExtension xmlns:gpxtpx="http://www.garmin.com/xmlschemas/TrackPointExtension/v1">
            <gpxtpx:hr>118</gpxtpx:hr>
          </gpxtpx:TrackPointExtension>
        </extensions>
      </trkpt>
      <trkpt lat="45.54297" lon="2.73929">
        <ele>1184.4000244141</ele>
        <time>2024-05-26T08:20:25.000Z</time>
        <extensions>
          <gpxtpx:TrackPointExtension xmlns:gpxtpx="http://www.garmin.com/xmlschemas/TrackPointExtension/v1">
            <gpxtpx:hr>118</gpxtpx:hr>
          </gpxtpx:TrackPointExtension>
        </extensions>
      </trkpt>
      <trkpt lat="45.54299" lon="2.73936">
        <ele>1184.5999755859</ele>
        <time>2024-05-26T08:20:27.000Z</time>
        <extensions>
          <gpxtpx:TrackPointExtension xmlns:gpxtpx="http://www.garmin.com/xmlschemas/TrackPointExtension/v1">
            <gpxtpx:hr>118</gpxtpx:hr>
          </gpxtpx:TrackPointExtension>
        </extensions>
      </trkpt>
      <trkpt lat="45.54308" lon="2.73957">
        <ele>1185.5999755859</ele>
        <time>2024-05-26T08:20:34.000Z</time>
        <extensions>
          <gpxtpx:TrackPointExtension xmlns:gpxtpx="http://www.garmin.com/xmlschemas/TrackPointExtension/v1">
            <gpxtpx:hr>118</gpxtpx:hr>
          </gpxtpx:TrackPointExtension>
        </extensions>
      </trkpt>
      <trkpt lat="45.54317" lon="2.73976">
        <ele>1186.8000488281</ele>
        <time>2024-05-26T08:20:41.000Z</time>
        <extensions>
          <gpxtpx:TrackPointExtension xmlns:gpxtpx="http://www.garmin.com/xmlschemas/TrackPointExtension/v1">
            <gpxtpx:hr>120</gpxtpx:hr>
          </gpxtpx:TrackPointExtension>
        </extensions>
      </trkpt>
      <trkpt lat="45.54321" lon="2.73982">
        <ele>1187</ele>
        <time>2024-05-26T08:20:43.000Z</time>
        <extensions>
          <gpxtpx:TrackPointExtension xmlns:gpxtpx="http://www.garmin.com/xmlschemas/TrackPointExtension/v1">
            <gpxtpx:hr>120</gpxtpx:hr>
          </gpxtpx:TrackPointExtension>
        </extensions>
      </trkpt>
      <trkpt lat="45.54331" lon="2.73992">
        <ele>1188</ele>
        <time>2024-05-26T08:20:48.000Z</time>
        <extensions>
          <gpxtpx:TrackPointExtension xmlns:gpxtpx="http://www.garmin.com/xmlschemas/TrackPointExtension/v1">
            <gpxtpx:hr>119</gpxtpx:hr>
          </gpxtpx:TrackPointExtension>
        </extensions>
      </trkpt>
      <trkpt lat="45.5434" lon="2.73996">
        <ele>1188.4000244141</ele>
        <time>2024-05-26T08:20:52.000Z</time>
        <extensions>
          <gpxtpx:TrackPointExtension xmlns:gpxtpx="http://www.garmin.com/xmlschemas/TrackPointExtension/v1">
            <gpxtpx:hr>118</gpxtpx:hr>
          </gpxtpx:TrackPointExtension>
        </extensions>
      </trkpt>
      <trkpt lat="45.5435" lon="2.74">
        <ele>1189.1999511719</ele>
        <time>2024-05-26T08:20:56.000Z</time>
        <extensions>
          <gpxtpx:TrackPointExtension xmlns:gpxtpx="http://www.garmin.com/xmlschemas/TrackPointExtension/v1">
            <gpxtpx:hr>118</gpxtpx:hr>
          </gpxtpx:TrackPointExtension>
        </extensions>
      </trkpt>
      <trkpt lat="45.54363" lon="2.74001">
        <ele>1190</ele>
        <time>2024-05-26T08:21:01.000Z</time>
        <extensions>
          <gpxtpx:TrackPointExtension xmlns:gpxtpx="http://www.garmin.com/xmlschemas/TrackPointExtension/v1">
            <gpxtpx:hr>119</gpxtpx:hr>
          </gpxtpx:TrackPointExtension>
        </extensions>
      </trkpt>
      <trkpt lat="45.54368" lon="2.74001">
        <ele>1190.4000244141</ele>
        <time>2024-05-26T08:21:03.000Z</time>
        <extensions>
          <gpxtpx:TrackPointExtension xmlns:gpxtpx="http://www.garmin.com/xmlschemas/TrackPointExtension/v1">
            <gpxtpx:hr>118</gpxtpx:hr>
          </gpxtpx:TrackPointExtension>
        </extensions>
      </trkpt>
      <trkpt lat="45.54382" lon="2.73996">
        <ele>1191.4000244141</ele>
        <time>2024-05-26T08:21:08.000Z</time>
        <extensions>
          <gpxtpx:TrackPointExtension xmlns:gpxtpx="http://www.garmin.com/xmlschemas/TrackPointExtension/v1">
            <gpxtpx:hr>118</gpxtpx:hr>
          </gpxtpx:TrackPointExtension>
        </extensions>
      </trkpt>
      <trkpt lat="45.54386" lon="2.73995">
        <ele>1191.8000488281</ele>
        <time>2024-05-26T08:21:10.000Z</time>
        <extensions>
          <gpxtpx:TrackPointExtension xmlns:gpxtpx="http://www.garmin.com/xmlschemas/TrackPointExtension/v1">
            <gpxtpx:hr>119</gpxtpx:hr>
          </gpxtpx:TrackPointExtension>
        </extensions>
      </trkpt>
      <trkpt lat="45.54399" lon="2.73991">
        <ele>1192.4000244141</ele>
        <time>2024-05-26T08:21:15.000Z</time>
        <extensions>
          <gpxtpx:TrackPointExtension xmlns:gpxtpx="http://www.garmin.com/xmlschemas/TrackPointExtension/v1">
            <gpxtpx:hr>117</gpxtpx:hr>
          </gpxtpx:TrackPointExtension>
        </extensions>
      </trkpt>
      <trkpt lat="45.54406" lon="2.73988">
        <ele>1192.8000488281</ele>
        <time>2024-05-26T08:21:18.000Z</time>
        <extensions>
          <gpxtpx:TrackPointExtension xmlns:gpxtpx="http://www.garmin.com/xmlschemas/TrackPointExtension/v1">
            <gpxtpx:hr>116</gpxtpx:hr>
          </gpxtpx:TrackPointExtension>
        </extensions>
      </trkpt>
      <trkpt lat="45.54417" lon="2.7398">
        <ele>1193.4000244141</ele>
        <time>2024-05-26T08:21:23.000Z</time>
        <extensions>
          <gpxtpx:TrackPointExtension xmlns:gpxtpx="http://www.garmin.com/xmlschemas/TrackPointExtension/v1">
            <gpxtpx:hr>114</gpxtpx:hr>
          </gpxtpx:TrackPointExtension>
        </extensions>
      </trkpt>
      <trkpt lat="45.54419" lon="2.73978">
        <ele>1193.5999755859</ele>
        <time>2024-05-26T08:21:24.000Z</time>
        <extensions>
          <gpxtpx:TrackPointExtension xmlns:gpxtpx="http://www.garmin.com/xmlschemas/TrackPointExtension/v1">
            <gpxtpx:hr>114</gpxtpx:hr>
          </gpxtpx:TrackPointExtension>
        </extensions>
      </trkpt>
      <trkpt lat="45.5443" lon="2.73965">
        <ele>1194.4000244141</ele>
        <time>2024-05-26T08:21:30.000Z</time>
        <extensions>
          <gpxtpx:TrackPointExtension xmlns:gpxtpx="http://www.garmin.com/xmlschemas/TrackPointExtension/v1">
            <gpxtpx:hr>116</gpxtpx:hr>
          </gpxtpx:TrackPointExtension>
        </extensions>
      </trkpt>
      <trkpt lat="45.54435" lon="2.73957">
        <ele>1195</ele>
        <time>2024-05-26T08:21:33.000Z</time>
        <extensions>
          <gpxtpx:TrackPointExtension xmlns:gpxtpx="http://www.garmin.com/xmlschemas/TrackPointExtension/v1">
            <gpxtpx:hr>116</gpxtpx:hr>
          </gpxtpx:TrackPointExtension>
        </extensions>
      </trkpt>
      <trkpt lat="45.54438" lon="2.73952">
        <ele>1195.5999755859</ele>
        <time>2024-05-26T08:21:35.000Z</time>
        <extensions>
          <gpxtpx:TrackPointExtension xmlns:gpxtpx="http://www.garmin.com/xmlschemas/TrackPointExtension/v1">
            <gpxtpx:hr>115</gpxtpx:hr>
          </gpxtpx:TrackPointExtension>
        </extensions>
      </trkpt>
      <trkpt lat="45.54445" lon="2.73929">
        <ele>1196.4000244141</ele>
        <time>2024-05-26T08:21:42.000Z</time>
        <extensions>
          <gpxtpx:TrackPointExtension xmlns:gpxtpx="http://www.garmin.com/xmlschemas/TrackPointExtension/v1">
            <gpxtpx:hr>113</gpxtpx:hr>
          </gpxtpx:TrackPointExtension>
        </extensions>
      </trkpt>
      <trkpt lat="45.54447" lon="2.73923">
        <ele>1196.8000488281</ele>
        <time>2024-05-26T08:21:44.000Z</time>
        <extensions>
          <gpxtpx:TrackPointExtension xmlns:gpxtpx="http://www.garmin.com/xmlschemas/TrackPointExtension/v1">
            <gpxtpx:hr>113</gpxtpx:hr>
          </gpxtpx:TrackPointExtension>
        </extensions>
      </trkpt>
      <trkpt lat="45.54453" lon="2.73898">
        <ele>1197.5999755859</ele>
        <time>2024-05-26T08:21:51.000Z</time>
        <extensions>
          <gpxtpx:TrackPointExtension xmlns:gpxtpx="http://www.garmin.com/xmlschemas/TrackPointExtension/v1">
            <gpxtpx:hr>115</gpxtpx:hr>
          </gpxtpx:TrackPointExtension>
        </extensions>
      </trkpt>
      <trkpt lat="45.54453" lon="2.73895">
        <ele>1198</ele>
        <time>2024-05-26T08:21:52.000Z</time>
        <extensions>
          <gpxtpx:TrackPointExtension xmlns:gpxtpx="http://www.garmin.com/xmlschemas/TrackPointExtension/v1">
            <gpxtpx:hr>115</gpxtpx:hr>
          </gpxtpx:TrackPointExtension>
        </extensions>
      </trkpt>
      <trkpt lat="45.54455" lon="2.73886">
        <ele>1198.1999511719</ele>
        <time>2024-05-26T08:21:55.000Z</time>
        <extensions>
          <gpxtpx:TrackPointExtension xmlns:gpxtpx="http://www.garmin.com/xmlschemas/TrackPointExtension/v1">
            <gpxtpx:hr>111</gpxtpx:hr>
          </gpxtpx:TrackPointExtension>
        </extensions>
      </trkpt>
      <trkpt lat="45.54458" lon="2.73871">
        <ele>1198.8000488281</ele>
        <time>2024-05-26T08:22:00.000Z</time>
        <extensions>
          <gpxtpx:TrackPointExtension xmlns:gpxtpx="http://www.garmin.com/xmlschemas/TrackPointExtension/v1">
            <gpxtpx:hr>109</gpxtpx:hr>
          </gpxtpx:TrackPointExtension>
        </extensions>
      </trkpt>
      <trkpt lat="45.54458" lon="2.73868">
        <ele>1199</ele>
        <time>2024-05-26T08:22:01.000Z</time>
        <extensions>
          <gpxtpx:TrackPointExtension xmlns:gpxtpx="http://www.garmin.com/xmlschemas/TrackPointExtension/v1">
            <gpxtpx:hr>109</gpxtpx:hr>
          </gpxtpx:TrackPointExtension>
        </extensions>
      </trkpt>
      <trkpt lat="45.54461" lon="2.73851">
        <ele>1199.8000488281</ele>
        <time>2024-05-26T08:22:06.000Z</time>
        <extensions>
          <gpxtpx:TrackPointExtension xmlns:gpxtpx="http://www.garmin.com/xmlschemas/TrackPointExtension/v1">
            <gpxtpx:hr>110</gpxtpx:hr>
          </gpxtpx:TrackPointExtension>
        </extensions>
      </trkpt>
      <trkpt lat="45.54464" lon="2.73839">
        <ele>1200.1999511719</ele>
        <time>2024-05-26T08:22:10.000Z</time>
        <extensions>
          <gpxtpx:TrackPointExtension xmlns:gpxtpx="http://www.garmin.com/xmlschemas/TrackPointExtension/v1">
            <gpxtpx:hr>111</gpxtpx:hr>
          </gpxtpx:TrackPointExtension>
        </extensions>
      </trkpt>
      <trkpt lat="45.54468" lon="2.73817">
        <ele>1200.8000488281</ele>
        <time>2024-05-26T08:22:16.000Z</time>
        <extensions>
          <gpxtpx:TrackPointExtension xmlns:gpxtpx="http://www.garmin.com/xmlschemas/TrackPointExtension/v1">
            <gpxtpx:hr>110</gpxtpx:hr>
          </gpxtpx:TrackPointExtension>
        </extensions>
      </trkpt>
      <trkpt lat="45.54469" lon="2.73811">
        <ele>1201.1999511719</ele>
        <time>2024-05-26T08:22:18.000Z</time>
        <extensions>
          <gpxtpx:TrackPointExtension xmlns:gpxtpx="http://www.garmin.com/xmlschemas/TrackPointExtension/v1">
            <gpxtpx:hr>110</gpxtpx:hr>
          </gpxtpx:TrackPointExtension>
        </extensions>
      </trkpt>
      <trkpt lat="45.54471" lon="2.73797">
        <ele>1201.4000244141</ele>
        <time>2024-05-26T08:22:22.000Z</time>
        <extensions>
          <gpxtpx:TrackPointExtension xmlns:gpxtpx="http://www.garmin.com/xmlschemas/TrackPointExtension/v1">
            <gpxtpx:hr>107</gpxtpx:hr>
          </gpxtpx:TrackPointExtension>
        </extensions>
      </trkpt>
      <trkpt lat="45.54474" lon="2.73778">
        <ele>1202.1999511719</ele>
        <time>2024-05-26T08:22:27.000Z</time>
        <extensions>
          <gpxtpx:TrackPointExtension xmlns:gpxtpx="http://www.garmin.com/xmlschemas/TrackPointExtension/v1">
            <gpxtpx:hr>106</gpxtpx:hr>
          </gpxtpx:TrackPointExtension>
        </extensions>
      </trkpt>
      <trkpt lat="45.54474" lon="2.73775">
        <ele>1202.4000244141</ele>
        <time>2024-05-26T08:22:28.000Z</time>
        <extensions>
          <gpxtpx:TrackPointExtension xmlns:gpxtpx="http://www.garmin.com/xmlschemas/TrackPointExtension/v1">
            <gpxtpx:hr>106</gpxtpx:hr>
          </gpxtpx:TrackPointExtension>
        </extensions>
      </trkpt>
      <trkpt lat="45.54476" lon="2.73761">
        <ele>1203.4000244141</ele>
        <time>2024-05-26T08:22:32.000Z</time>
        <extensions>
          <gpxtpx:TrackPointExtension xmlns:gpxtpx="http://www.garmin.com/xmlschemas/TrackPointExtension/v1">
            <gpxtpx:hr>106</gpxtpx:hr>
          </gpxtpx:TrackPointExtension>
        </extensions>
      </trkpt>
      <trkpt lat="45.54477" lon="2.7375">
        <ele>1203.5999755859</ele>
        <time>2024-05-26T08:22:35.000Z</time>
        <extensions>
          <gpxtpx:TrackPointExtension xmlns:gpxtpx="http://www.garmin.com/xmlschemas/TrackPointExtension/v1">
            <gpxtpx:hr>107</gpxtpx:hr>
          </gpxtpx:TrackPointExtension>
        </extensions>
      </trkpt>
      <trkpt lat="45.54477" lon="2.73735">
        <ele>1204.4000244141</ele>
        <time>2024-05-26T08:22:39.000Z</time>
        <extensions>
          <gpxtpx:TrackPointExtension xmlns:gpxtpx="http://www.garmin.com/xmlschemas/TrackPointExtension/v1">
            <gpxtpx:hr>110</gpxtpx:hr>
          </gpxtpx:TrackPointExtension>
        </extensions>
      </trkpt>
      <trkpt lat="45.54477" lon="2.73728">
        <ele>1204.8000488281</ele>
        <time>2024-05-26T08:22:41.000Z</time>
        <extensions>
          <gpxtpx:TrackPointExtension xmlns:gpxtpx="http://www.garmin.com/xmlschemas/TrackPointExtension/v1">
            <gpxtpx:hr>110</gpxtpx:hr>
          </gpxtpx:TrackPointExtension>
        </extensions>
      </trkpt>
      <trkpt lat="45.54476" lon="2.73714">
        <ele>1205</ele>
        <time>2024-05-26T08:22:45.000Z</time>
        <extensions>
          <gpxtpx:TrackPointExtension xmlns:gpxtpx="http://www.garmin.com/xmlschemas/TrackPointExtension/v1">
            <gpxtpx:hr>111</gpxtpx:hr>
          </gpxtpx:TrackPointExtension>
        </extensions>
      </trkpt>
      <trkpt lat="45.54475" lon="2.73693">
        <ele>1205.8000488281</ele>
        <time>2024-05-26T08:22:51.000Z</time>
        <extensions>
          <gpxtpx:TrackPointExtension xmlns:gpxtpx="http://www.garmin.com/xmlschemas/TrackPointExtension/v1">
            <gpxtpx:hr>111</gpxtpx:hr>
          </gpxtpx:TrackPointExtension>
        </extensions>
      </trkpt>
      <trkpt lat="45.54474" lon="2.73687">
        <ele>1206</ele>
        <time>2024-05-26T08:22:53.000Z</time>
        <extensions>
          <gpxtpx:TrackPointExtension xmlns:gpxtpx="http://www.garmin.com/xmlschemas/TrackPointExtension/v1">
            <gpxtpx:hr>110</gpxtpx:hr>
          </gpxtpx:TrackPointExtension>
        </extensions>
      </trkpt>
      <trkpt lat="45.54472" lon="2.73667">
        <ele>1206.8000488281</ele>
        <time>2024-05-26T08:22:59.000Z</time>
        <extensions>
          <gpxtpx:TrackPointExtension xmlns:gpxtpx="http://www.garmin.com/xmlschemas/TrackPointExtension/v1">
            <gpxtpx:hr>111</gpxtpx:hr>
          </gpxtpx:TrackPointExtension>
        </extensions>
      </trkpt>
      <trkpt lat="45.54472" lon="2.73664">
        <ele>1206.8000488281</ele>
        <time>2024-05-26T08:23:00.000Z</time>
        <extensions>
          <gpxtpx:TrackPointExtension xmlns:gpxtpx="http://www.garmin.com/xmlschemas/TrackPointExtension/v1">
            <gpxtpx:hr>111</gpxtpx:hr>
          </gpxtpx:TrackPointExtension>
        </extensions>
      </trkpt>
      <trkpt lat="45.54472" lon="2.73649">
        <ele>1207.8000488281</ele>
        <time>2024-05-26T08:23:05.000Z</time>
        <extensions>
          <gpxtpx:TrackPointExtension xmlns:gpxtpx="http://www.garmin.com/xmlschemas/TrackPointExtension/v1">
            <gpxtpx:hr>114</gpxtpx:hr>
          </gpxtpx:TrackPointExtension>
        </extensions>
      </trkpt>
      <trkpt lat="45.54471" lon="2.73642">
        <ele>1207.8000488281</ele>
        <time>2024-05-26T08:23:07.000Z</time>
        <extensions>
          <gpxtpx:TrackPointExtension xmlns:gpxtpx="http://www.garmin.com/xmlschemas/TrackPointExtension/v1">
            <gpxtpx:hr>114</gpxtpx:hr>
          </gpxtpx:TrackPointExtension>
        </extensions>
      </trkpt>
      <trkpt lat="45.54471" lon="2.73635">
        <ele>1208.1999511719</ele>
        <time>2024-05-26T08:23:09.000Z</time>
        <extensions>
          <gpxtpx:TrackPointExtension xmlns:gpxtpx="http://www.garmin.com/xmlschemas/TrackPointExtension/v1">
            <gpxtpx:hr>114</gpxtpx:hr>
          </gpxtpx:TrackPointExtension>
        </extensions>
      </trkpt>
      <trkpt lat="45.54471" lon="2.73618">
        <ele>1209</ele>
        <time>2024-05-26T08:23:14.000Z</time>
        <extensions>
          <gpxtpx:TrackPointExtension xmlns:gpxtpx="http://www.garmin.com/xmlschemas/TrackPointExtension/v1">
            <gpxtpx:hr>111</gpxtpx:hr>
          </gpxtpx:TrackPointExtension>
        </extensions>
      </trkpt>
      <trkpt lat="45.54471" lon="2.73608">
        <ele>1209.5999755859</ele>
        <time>2024-05-26T08:23:17.000Z</time>
        <extensions>
          <gpxtpx:TrackPointExtension xmlns:gpxtpx="http://www.garmin.com/xmlschemas/TrackPointExtension/v1">
            <gpxtpx:hr>109</gpxtpx:hr>
          </gpxtpx:TrackPointExtension>
        </extensions>
      </trkpt>
      <trkpt lat="45.54472" lon="2.73586">
        <ele>1210.1999511719</ele>
        <time>2024-05-26T08:23:24.000Z</time>
        <extensions>
          <gpxtpx:TrackPointExtension xmlns:gpxtpx="http://www.garmin.com/xmlschemas/TrackPointExtension/v1">
            <gpxtpx:hr>106</gpxtpx:hr>
          </gpxtpx:TrackPointExtension>
        </extensions>
      </trkpt>
      <trkpt lat="45.54473" lon="2.73582">
        <ele>1210.4000244141</ele>
        <time>2024-05-26T08:23:25.000Z</time>
        <extensions>
          <gpxtpx:TrackPointExtension xmlns:gpxtpx="http://www.garmin.com/xmlschemas/TrackPointExtension/v1">
            <gpxtpx:hr>106</gpxtpx:hr>
          </gpxtpx:TrackPointExtension>
        </extensions>
      </trkpt>
      <trkpt lat="45.54479" lon="2.73562">
        <ele>1211.1999511719</ele>
        <time>2024-05-26T08:23:31.000Z</time>
        <extensions>
          <gpxtpx:TrackPointExtension xmlns:gpxtpx="http://www.garmin.com/xmlschemas/TrackPointExtension/v1">
            <gpxtpx:hr>106</gpxtpx:hr>
          </gpxtpx:TrackPointExtension>
        </extensions>
      </trkpt>
      <trkpt lat="45.54484" lon="2.73554">
        <ele>1212</ele>
        <time>2024-05-26T08:23:34.000Z</time>
        <extensions>
          <gpxtpx:TrackPointExtension xmlns:gpxtpx="http://www.garmin.com/xmlschemas/TrackPointExtension/v1">
            <gpxtpx:hr>106</gpxtpx:hr>
          </gpxtpx:TrackPointExtension>
        </extensions>
      </trkpt>
      <trkpt lat="45.54489" lon="2.73547">
        <ele>1212.1999511719</ele>
        <time>2024-05-26T08:23:37.000Z</time>
        <extensions>
          <gpxtpx:TrackPointExtension xmlns:gpxtpx="http://www.garmin.com/xmlschemas/TrackPointExtension/v1">
            <gpxtpx:hr>108</gpxtpx:hr>
          </gpxtpx:TrackPointExtension>
        </extensions>
      </trkpt>
      <trkpt lat="45.54498" lon="2.73541">
        <ele>1213.1999511719</ele>
        <time>2024-05-26T08:23:41.000Z</time>
        <extensions>
          <gpxtpx:TrackPointExtension xmlns:gpxtpx="http://www.garmin.com/xmlschemas/TrackPointExtension/v1">
            <gpxtpx:hr>108</gpxtpx:hr>
          </gpxtpx:TrackPointExtension>
        </extensions>
      </trkpt>
      <trkpt lat="45.545" lon="2.73539">
        <ele>1213.4000244141</ele>
        <time>2024-05-26T08:23:42.000Z</time>
        <extensions>
          <gpxtpx:TrackPointExtension xmlns:gpxtpx="http://www.garmin.com/xmlschemas/TrackPointExtension/v1">
            <gpxtpx:hr>108</gpxtpx:hr>
          </gpxtpx:TrackPointExtension>
        </extensions>
      </trkpt>
      <trkpt lat="45.54515" lon="2.73539">
        <ele>1214.4000244141</ele>
        <time>2024-05-26T08:23:48.000Z</time>
        <extensions>
          <gpxtpx:TrackPointExtension xmlns:gpxtpx="http://www.garmin.com/xmlschemas/TrackPointExtension/v1">
            <gpxtpx:hr>108</gpxtpx:hr>
          </gpxtpx:TrackPointExtension>
        </extensions>
      </trkpt>
      <trkpt lat="45.54518" lon="2.7354">
        <ele>1214.5999755859</ele>
        <time>2024-05-26T08:23:49.000Z</time>
        <extensions>
          <gpxtpx:TrackPointExtension xmlns:gpxtpx="http://www.garmin.com/xmlschemas/TrackPointExtension/v1">
            <gpxtpx:hr>109</gpxtpx:hr>
          </gpxtpx:TrackPointExtension>
        </extensions>
      </trkpt>
      <trkpt lat="45.54533" lon="2.73549">
        <ele>1215.5999755859</ele>
        <time>2024-05-26T08:23:56.000Z</time>
        <extensions>
          <gpxtpx:TrackPointExtension xmlns:gpxtpx="http://www.garmin.com/xmlschemas/TrackPointExtension/v1">
            <gpxtpx:hr>111</gpxtpx:hr>
          </gpxtpx:TrackPointExtension>
        </extensions>
      </trkpt>
      <trkpt lat="45.54535" lon="2.73552">
        <ele>1215.8000488281</ele>
        <time>2024-05-26T08:23:57.000Z</time>
        <extensions>
          <gpxtpx:TrackPointExtension xmlns:gpxtpx="http://www.garmin.com/xmlschemas/TrackPointExtension/v1">
            <gpxtpx:hr>111</gpxtpx:hr>
          </gpxtpx:TrackPointExtension>
        </extensions>
      </trkpt>
      <trkpt lat="45.54551" lon="2.73574">
        <ele>1216.8000488281</ele>
        <time>2024-05-26T08:24:06.000Z</time>
        <extensions>
          <gpxtpx:TrackPointExtension xmlns:gpxtpx="http://www.garmin.com/xmlschemas/TrackPointExtension/v1">
            <gpxtpx:hr>109</gpxtpx:hr>
          </gpxtpx:TrackPointExtension>
        </extensions>
      </trkpt>
      <trkpt lat="45.54553" lon="2.73577">
        <ele>1217</ele>
        <time>2024-05-26T08:24:07.000Z</time>
        <extensions>
          <gpxtpx:TrackPointExtension xmlns:gpxtpx="http://www.garmin.com/xmlschemas/TrackPointExtension/v1">
            <gpxtpx:hr>109</gpxtpx:hr>
          </gpxtpx:TrackPointExtension>
        </extensions>
      </trkpt>
      <trkpt lat="45.54564" lon="2.73602">
        <ele>1217.5999755859</ele>
        <time>2024-05-26T08:24:15.000Z</time>
        <extensions>
          <gpxtpx:TrackPointExtension xmlns:gpxtpx="http://www.garmin.com/xmlschemas/TrackPointExtension/v1">
            <gpxtpx:hr>108</gpxtpx:hr>
          </gpxtpx:TrackPointExtension>
        </extensions>
      </trkpt>
      <trkpt lat="45.54569" lon="2.73616">
        <ele>1217.8000488281</ele>
        <time>2024-05-26T08:24:19.000Z</time>
        <extensions>
          <gpxtpx:TrackPointExtension xmlns:gpxtpx="http://www.garmin.com/xmlschemas/TrackPointExtension/v1">
            <gpxtpx:hr>108</gpxtpx:hr>
          </gpxtpx:TrackPointExtension>
        </extensions>
      </trkpt>
      <trkpt lat="45.54578" lon="2.73639">
        <ele>1218.4000244141</ele>
        <time>2024-05-26T08:24:25.000Z</time>
        <extensions>
          <gpxtpx:TrackPointExtension xmlns:gpxtpx="http://www.garmin.com/xmlschemas/TrackPointExtension/v1">
            <gpxtpx:hr>109</gpxtpx:hr>
          </gpxtpx:TrackPointExtension>
        </extensions>
      </trkpt>
      <trkpt lat="45.54594" lon="2.73684">
        <ele>1219</ele>
        <time>2024-05-26T08:24:35.000Z</time>
        <extensions>
          <gpxtpx:TrackPointExtension xmlns:gpxtpx="http://www.garmin.com/xmlschemas/TrackPointExtension/v1">
            <gpxtpx:hr>110</gpxtpx:hr>
          </gpxtpx:TrackPointExtension>
        </extensions>
      </trkpt>
      <trkpt lat="45.5461" lon="2.73738">
        <ele>1219.8000488281</ele>
        <time>2024-05-26T08:24:46.000Z</time>
        <extensions>
          <gpxtpx:TrackPointExtension xmlns:gpxtpx="http://www.garmin.com/xmlschemas/TrackPointExtension/v1">
            <gpxtpx:hr>109</gpxtpx:hr>
          </gpxtpx:TrackPointExtension>
        </extensions>
      </trkpt>
      <trkpt lat="45.54612" lon="2.73743">
        <ele>1220</ele>
        <time>2024-05-26T08:24:47.000Z</time>
        <extensions>
          <gpxtpx:TrackPointExtension xmlns:gpxtpx="http://www.garmin.com/xmlschemas/TrackPointExtension/v1">
            <gpxtpx:hr>108</gpxtpx:hr>
          </gpxtpx:TrackPointExtension>
        </extensions>
      </trkpt>
      <trkpt lat="45.54624" lon="2.73794">
        <ele>1220.5999755859</ele>
        <time>2024-05-26T08:24:57.000Z</time>
        <extensions>
          <gpxtpx:TrackPointExtension xmlns:gpxtpx="http://www.garmin.com/xmlschemas/TrackPointExtension/v1">
            <gpxtpx:hr>106</gpxtpx:hr>
          </gpxtpx:TrackPointExtension>
        </extensions>
      </trkpt>
      <trkpt lat="45.54626" lon="2.73799">
        <ele>1221</ele>
        <time>2024-05-26T08:24:58.000Z</time>
        <extensions>
          <gpxtpx:TrackPointExtension xmlns:gpxtpx="http://www.garmin.com/xmlschemas/TrackPointExtension/v1">
            <gpxtpx:hr>107</gpxtpx:hr>
          </gpxtpx:TrackPointExtension>
        </extensions>
      </trkpt>
      <trkpt lat="45.54634" lon="2.73829">
        <ele>1221.4000244141</ele>
        <time>2024-05-26T08:25:04.000Z</time>
        <extensions>
          <gpxtpx:TrackPointExtension xmlns:gpxtpx="http://www.garmin.com/xmlschemas/TrackPointExtension/v1">
            <gpxtpx:hr>107</gpxtpx:hr>
          </gpxtpx:TrackPointExtension>
        </extensions>
      </trkpt>
      <trkpt lat="45.54646" lon="2.7385">
        <ele>1221.8000488281</ele>
        <time>2024-05-26T08:25:09.000Z</time>
        <extensions>
          <gpxtpx:TrackPointExtension xmlns:gpxtpx="http://www.garmin.com/xmlschemas/TrackPointExtension/v1">
            <gpxtpx:hr>104</gpxtpx:hr>
          </gpxtpx:TrackPointExtension>
        </extensions>
      </trkpt>
      <trkpt lat="45.54649" lon="2.73853">
        <ele>1221.8000488281</ele>
        <time>2024-05-26T08:25:10.000Z</time>
        <extensions>
          <gpxtpx:TrackPointExtension xmlns:gpxtpx="http://www.garmin.com/xmlschemas/TrackPointExtension/v1">
            <gpxtpx:hr>104</gpxtpx:hr>
          </gpxtpx:TrackPointExtension>
        </extensions>
      </trkpt>
      <trkpt lat="45.54659" lon="2.73861">
        <ele>1222</ele>
        <time>2024-05-26T08:25:13.000Z</time>
        <extensions>
          <gpxtpx:TrackPointExtension xmlns:gpxtpx="http://www.garmin.com/xmlschemas/TrackPointExtension/v1">
            <gpxtpx:hr>104</gpxtpx:hr>
          </gpxtpx:TrackPointExtension>
        </extensions>
      </trkpt>
      <trkpt lat="45.54666" lon="2.73865">
        <ele>1222.4000244141</ele>
        <time>2024-05-26T08:25:15.000Z</time>
        <extensions>
          <gpxtpx:TrackPointExtension xmlns:gpxtpx="http://www.garmin.com/xmlschemas/TrackPointExtension/v1">
            <gpxtpx:hr>103</gpxtpx:hr>
          </gpxtpx:TrackPointExtension>
        </extensions>
      </trkpt>
      <trkpt lat="45.54682" lon="2.73883">
        <ele>1223</ele>
        <time>2024-05-26T08:25:20.000Z</time>
        <extensions>
          <gpxtpx:TrackPointExtension xmlns:gpxtpx="http://www.garmin.com/xmlschemas/TrackPointExtension/v1">
            <gpxtpx:hr>104</gpxtpx:hr>
          </gpxtpx:TrackPointExtension>
        </extensions>
      </trkpt>
      <trkpt lat="45.54684" lon="2.73887">
        <ele>1223.1999511719</ele>
        <time>2024-05-26T08:25:21.000Z</time>
        <extensions>
          <gpxtpx:TrackPointExtension xmlns:gpxtpx="http://www.garmin.com/xmlschemas/TrackPointExtension/v1">
            <gpxtpx:hr>104</gpxtpx:hr>
          </gpxtpx:TrackPointExtension>
        </extensions>
      </trkpt>
      <trkpt lat="45.54697" lon="2.73914">
        <ele>1223.8000488281</ele>
        <time>2024-05-26T08:25:26.000Z</time>
        <extensions>
          <gpxtpx:TrackPointExtension xmlns:gpxtpx="http://www.garmin.com/xmlschemas/TrackPointExtension/v1">
            <gpxtpx:hr>104</gpxtpx:hr>
          </gpxtpx:TrackPointExtension>
        </extensions>
      </trkpt>
      <trkpt lat="45.54703" lon="2.73931">
        <ele>1223.5999755859</ele>
        <time>2024-05-26T08:25:29.000Z</time>
        <extensions>
          <gpxtpx:TrackPointExtension xmlns:gpxtpx="http://www.garmin.com/xmlschemas/TrackPointExtension/v1">
            <gpxtpx:hr>105</gpxtpx:hr>
          </gpxtpx:TrackPointExtension>
        </extensions>
      </trkpt>
      <trkpt lat="45.54711" lon="2.73947">
        <ele>1223.4000244141</ele>
        <time>2024-05-26T08:25:32.000Z</time>
        <extensions>
          <gpxtpx:TrackPointExtension xmlns:gpxtpx="http://www.garmin.com/xmlschemas/TrackPointExtension/v1">
            <gpxtpx:hr>105</gpxtpx:hr>
          </gpxtpx:TrackPointExtension>
        </extensions>
      </trkpt>
      <trkpt lat="45.54718" lon="2.73955">
        <ele>1223.5999755859</ele>
        <time>2024-05-26T08:25:34.000Z</time>
        <extensions>
          <gpxtpx:TrackPointExtension xmlns:gpxtpx="http://www.garmin.com/xmlschemas/TrackPointExtension/v1">
            <gpxtpx:hr>105</gpxtpx:hr>
          </gpxtpx:TrackPointExtension>
        </extensions>
      </trkpt>
      <trkpt lat="45.54729" lon="2.73964">
        <ele>1224.4000244141</ele>
        <time>2024-05-26T08:25:37.000Z</time>
        <extensions>
          <gpxtpx:TrackPointExtension xmlns:gpxtpx="http://www.garmin.com/xmlschemas/TrackPointExtension/v1">
            <gpxtpx:hr>106</gpxtpx:hr>
          </gpxtpx:TrackPointExtension>
        </extensions>
      </trkpt>
      <trkpt lat="45.54733" lon="2.73967">
        <ele>1224.4000244141</ele>
        <time>2024-05-26T08:25:38.000Z</time>
        <extensions>
          <gpxtpx:TrackPointExtension xmlns:gpxtpx="http://www.garmin.com/xmlschemas/TrackPointExtension/v1">
            <gpxtpx:hr>106</gpxtpx:hr>
          </gpxtpx:TrackPointExtension>
        </extensions>
      </trkpt>
      <trkpt lat="45.54753" lon="2.73983">
        <ele>1225.4000244141</ele>
        <time>2024-05-26T08:25:43.000Z</time>
        <extensions>
          <gpxtpx:TrackPointExtension xmlns:gpxtpx="http://www.garmin.com/xmlschemas/TrackPointExtension/v1">
            <gpxtpx:hr>108</gpxtpx:hr>
          </gpxtpx:TrackPointExtension>
        </extensions>
      </trkpt>
      <trkpt lat="45.54762" lon="2.73996">
        <ele>1225.8000488281</ele>
        <time>2024-05-26T08:25:46.000Z</time>
        <extensions>
          <gpxtpx:TrackPointExtension xmlns:gpxtpx="http://www.garmin.com/xmlschemas/TrackPointExtension/v1">
            <gpxtpx:hr>108</gpxtpx:hr>
          </gpxtpx:TrackPointExtension>
        </extensions>
      </trkpt>
      <trkpt lat="45.5478" lon="2.74034">
        <ele>1226.1999511719</ele>
        <time>2024-05-26T08:25:53.000Z</time>
        <extensions>
          <gpxtpx:TrackPointExtension xmlns:gpxtpx="http://www.garmin.com/xmlschemas/TrackPointExtension/v1">
            <gpxtpx:hr>109</gpxtpx:hr>
          </gpxtpx:TrackPointExtension>
        </extensions>
      </trkpt>
      <trkpt lat="45.54782" lon="2.74039">
        <ele>1226.4000244141</ele>
        <time>2024-05-26T08:25:54.000Z</time>
        <extensions>
          <gpxtpx:TrackPointExtension xmlns:gpxtpx="http://www.garmin.com/xmlschemas/TrackPointExtension/v1">
            <gpxtpx:hr>109</gpxtpx:hr>
          </gpxtpx:TrackPointExtension>
        </extensions>
      </trkpt>
      <trkpt lat="45.54788" lon="2.74049">
        <ele>1226.4000244141</ele>
        <time>2024-05-26T08:25:56.000Z</time>
        <extensions>
          <gpxtpx:TrackPointExtension xmlns:gpxtpx="http://www.garmin.com/xmlschemas/TrackPointExtension/v1">
            <gpxtpx:hr>110</gpxtpx:hr>
          </gpxtpx:TrackPointExtension>
        </extensions>
      </trkpt>
      <trkpt lat="45.54793" lon="2.74059">
        <ele>1227</ele>
        <time>2024-05-26T08:25:58.000Z</time>
        <extensions>
          <gpxtpx:TrackPointExtension xmlns:gpxtpx="http://www.garmin.com/xmlschemas/TrackPointExtension/v1">
            <gpxtpx:hr>110</gpxtpx:hr>
          </gpxtpx:TrackPointExtension>
        </extensions>
      </trkpt>
      <trkpt lat="45.54802" lon="2.74073">
        <ele>1227.4000244141</ele>
        <time>2024-05-26T08:26:01.000Z</time>
        <extensions>
          <gpxtpx:TrackPointExtension xmlns:gpxtpx="http://www.garmin.com/xmlschemas/TrackPointExtension/v1">
            <gpxtpx:hr>110</gpxtpx:hr>
          </gpxtpx:TrackPointExtension>
        </extensions>
      </trkpt>
      <trkpt lat="45.5481" lon="2.74087">
        <ele>1227.5999755859</ele>
        <time>2024-05-26T08:26:04.000Z</time>
        <extensions>
          <gpxtpx:TrackPointExtension xmlns:gpxtpx="http://www.garmin.com/xmlschemas/TrackPointExtension/v1">
            <gpxtpx:hr>110</gpxtpx:hr>
          </gpxtpx:TrackPointExtension>
        </extensions>
      </trkpt>
      <trkpt lat="45.54827" lon="2.74124">
        <ele>1228.5999755859</ele>
        <time>2024-05-26T08:26:11.000Z</time>
        <extensions>
          <gpxtpx:TrackPointExtension xmlns:gpxtpx="http://www.garmin.com/xmlschemas/TrackPointExtension/v1">
            <gpxtpx:hr>109</gpxtpx:hr>
          </gpxtpx:TrackPointExtension>
        </extensions>
      </trkpt>
      <trkpt lat="45.5483" lon="2.74129">
        <ele>1228.5999755859</ele>
        <time>2024-05-26T08:26:12.000Z</time>
        <extensions>
          <gpxtpx:TrackPointExtension xmlns:gpxtpx="http://www.garmin.com/xmlschemas/TrackPointExtension/v1">
            <gpxtpx:hr>109</gpxtpx:hr>
          </gpxtpx:TrackPointExtension>
        </extensions>
      </trkpt>
      <trkpt lat="45.54848" lon="2.74171">
        <ele>1229.1999511719</ele>
        <time>2024-05-26T08:26:20.000Z</time>
        <extensions>
          <gpxtpx:TrackPointExtension xmlns:gpxtpx="http://www.garmin.com/xmlschemas/TrackPointExtension/v1">
            <gpxtpx:hr>108</gpxtpx:hr>
          </gpxtpx:TrackPointExtension>
        </extensions>
      </trkpt>
      <trkpt lat="45.54851" lon="2.74176">
        <ele>1229.1999511719</ele>
        <time>2024-05-26T08:26:21.000Z</time>
        <extensions>
          <gpxtpx:TrackPointExtension xmlns:gpxtpx="http://www.garmin.com/xmlschemas/TrackPointExtension/v1">
            <gpxtpx:hr>108</gpxtpx:hr>
          </gpxtpx:TrackPointExtension>
        </extensions>
      </trkpt>
      <trkpt lat="45.54856" lon="2.74186">
        <ele>1229.4000244141</ele>
        <time>2024-05-26T08:26:23.000Z</time>
        <extensions>
          <gpxtpx:TrackPointExtension xmlns:gpxtpx="http://www.garmin.com/xmlschemas/TrackPointExtension/v1">
            <gpxtpx:hr>108</gpxtpx:hr>
          </gpxtpx:TrackPointExtension>
        </extensions>
      </trkpt>
      <trkpt lat="45.54864" lon="2.74193">
        <ele>1229.5999755859</ele>
        <time>2024-05-26T08:26:25.000Z</time>
        <extensions>
          <gpxtpx:TrackPointExtension xmlns:gpxtpx="http://www.garmin.com/xmlschemas/TrackPointExtension/v1">
            <gpxtpx:hr>108</gpxtpx:hr>
          </gpxtpx:TrackPointExtension>
        </extensions>
      </trkpt>
      <trkpt lat="45.54871" lon="2.742">
        <ele>1229.8000488281</ele>
        <time>2024-05-26T08:26:27.000Z</time>
        <extensions>
          <gpxtpx:TrackPointExtension xmlns:gpxtpx="http://www.garmin.com/xmlschemas/TrackPointExtension/v1">
            <gpxtpx:hr>108</gpxtpx:hr>
          </gpxtpx:TrackPointExtension>
        </extensions>
      </trkpt>
      <trkpt lat="45.54883" lon="2.74207">
        <ele>1230.5999755859</ele>
        <time>2024-05-26T08:26:30.000Z</time>
        <extensions>
          <gpxtpx:TrackPointExtension xmlns:gpxtpx="http://www.garmin.com/xmlschemas/TrackPointExtension/v1">
            <gpxtpx:hr>107</gpxtpx:hr>
          </gpxtpx:TrackPointExtension>
        </extensions>
      </trkpt>
      <trkpt lat="45.54903" lon="2.74217">
        <ele>1231.5999755859</ele>
        <time>2024-05-26T08:26:35.000Z</time>
        <extensions>
          <gpxtpx:TrackPointExtension xmlns:gpxtpx="http://www.garmin.com/xmlschemas/TrackPointExtension/v1">
            <gpxtpx:hr>107</gpxtpx:hr>
          </gpxtpx:TrackPointExtension>
        </extensions>
      </trkpt>
      <trkpt lat="45.54908" lon="2.74221">
        <ele>1231.5999755859</ele>
        <time>2024-05-26T08:26:36.000Z</time>
        <extensions>
          <gpxtpx:TrackPointExtension xmlns:gpxtpx="http://www.garmin.com/xmlschemas/TrackPointExtension/v1">
            <gpxtpx:hr>107</gpxtpx:hr>
          </gpxtpx:TrackPointExtension>
        </extensions>
      </trkpt>
      <trkpt lat="45.54915" lon="2.74227">
        <ele>1231.5999755859</ele>
        <time>2024-05-26T08:26:38.000Z</time>
        <extensions>
          <gpxtpx:TrackPointExtension xmlns:gpxtpx="http://www.garmin.com/xmlschemas/TrackPointExtension/v1">
            <gpxtpx:hr>107</gpxtpx:hr>
          </gpxtpx:TrackPointExtension>
        </extensions>
      </trkpt>
      <trkpt lat="45.54921" lon="2.74236">
        <ele>1231.5999755859</ele>
        <time>2024-05-26T08:26:40.000Z</time>
        <extensions>
          <gpxtpx:TrackPointExtension xmlns:gpxtpx="http://www.garmin.com/xmlschemas/TrackPointExtension/v1">
            <gpxtpx:hr>108</gpxtpx:hr>
          </gpxtpx:TrackPointExtension>
        </extensions>
      </trkpt>
      <trkpt lat="45.54924" lon="2.7424">
        <ele>1231.8000488281</ele>
        <time>2024-05-26T08:26:41.000Z</time>
        <extensions>
          <gpxtpx:TrackPointExtension xmlns:gpxtpx="http://www.garmin.com/xmlschemas/TrackPointExtension/v1">
            <gpxtpx:hr>108</gpxtpx:hr>
          </gpxtpx:TrackPointExtension>
        </extensions>
      </trkpt>
      <trkpt lat="45.54927" lon="2.74246">
        <ele>1231.8000488281</ele>
        <time>2024-05-26T08:26:42.000Z</time>
        <extensions>
          <gpxtpx:TrackPointExtension xmlns:gpxtpx="http://www.garmin.com/xmlschemas/TrackPointExtension/v1">
            <gpxtpx:hr>108</gpxtpx:hr>
          </gpxtpx:TrackPointExtension>
        </extensions>
      </trkpt>
      <trkpt lat="45.54934" lon="2.74262">
        <ele>1232.1999511719</ele>
        <time>2024-05-26T08:26:45.000Z</time>
        <extensions>
          <gpxtpx:TrackPointExtension xmlns:gpxtpx="http://www.garmin.com/xmlschemas/TrackPointExtension/v1">
            <gpxtpx:hr>108</gpxtpx:hr>
          </gpxtpx:TrackPointExtension>
        </extensions>
      </trkpt>
      <trkpt lat="45.54936" lon="2.74268">
        <ele>1232.1999511719</ele>
        <time>2024-05-26T08:26:46.000Z</time>
        <extensions>
          <gpxtpx:TrackPointExtension xmlns:gpxtpx="http://www.garmin.com/xmlschemas/TrackPointExtension/v1">
            <gpxtpx:hr>108</gpxtpx:hr>
          </gpxtpx:TrackPointExtension>
        </extensions>
      </trkpt>
      <trkpt lat="45.54941" lon="2.74283">
        <ele>1232.1999511719</ele>
        <time>2024-05-26T08:26:49.000Z</time>
        <extensions>
          <gpxtpx:TrackPointExtension xmlns:gpxtpx="http://www.garmin.com/xmlschemas/TrackPointExtension/v1">
            <gpxtpx:hr>108</gpxtpx:hr>
          </gpxtpx:TrackPointExtension>
        </extensions>
      </trkpt>
      <trkpt lat="45.54947" lon="2.7429">
        <ele>1232.1999511719</ele>
        <time>2024-05-26T08:26:51.000Z</time>
        <extensions>
          <gpxtpx:TrackPointExtension xmlns:gpxtpx="http://www.garmin.com/xmlschemas/TrackPointExtension/v1">
            <gpxtpx:hr>108</gpxtpx:hr>
          </gpxtpx:TrackPointExtension>
        </extensions>
      </trkpt>
      <trkpt lat="45.5495" lon="2.74293">
        <ele>1232.4000244141</ele>
        <time>2024-05-26T08:26:52.000Z</time>
        <extensions>
          <gpxtpx:TrackPointExtension xmlns:gpxtpx="http://www.garmin.com/xmlschemas/TrackPointExtension/v1">
            <gpxtpx:hr>108</gpxtpx:hr>
          </gpxtpx:TrackPointExtension>
        </extensions>
      </trkpt>
      <trkpt lat="45.54958" lon="2.74297">
        <ele>1232.5999755859</ele>
        <time>2024-05-26T08:26:54.000Z</time>
        <extensions>
          <gpxtpx:TrackPointExtension xmlns:gpxtpx="http://www.garmin.com/xmlschemas/TrackPointExtension/v1">
            <gpxtpx:hr>109</gpxtpx:hr>
          </gpxtpx:TrackPointExtension>
        </extensions>
      </trkpt>
      <trkpt lat="45.54962" lon="2.74298">
        <ele>1232.8000488281</ele>
        <time>2024-05-26T08:26:55.000Z</time>
        <extensions>
          <gpxtpx:TrackPointExtension xmlns:gpxtpx="http://www.garmin.com/xmlschemas/TrackPointExtension/v1">
            <gpxtpx:hr>109</gpxtpx:hr>
          </gpxtpx:TrackPointExtension>
        </extensions>
      </trkpt>
      <trkpt lat="45.54975" lon="2.74298">
        <ele>1232.8000488281</ele>
        <time>2024-05-26T08:26:58.000Z</time>
        <extensions>
          <gpxtpx:TrackPointExtension xmlns:gpxtpx="http://www.garmin.com/xmlschemas/TrackPointExtension/v1">
            <gpxtpx:hr>109</gpxtpx:hr>
          </gpxtpx:TrackPointExtension>
        </extensions>
      </trkpt>
      <trkpt lat="45.54984" lon="2.74297">
        <ele>1233</ele>
        <time>2024-05-26T08:27:00.000Z</time>
        <extensions>
          <gpxtpx:TrackPointExtension xmlns:gpxtpx="http://www.garmin.com/xmlschemas/TrackPointExtension/v1">
            <gpxtpx:hr>106</gpxtpx:hr>
          </gpxtpx:TrackPointExtension>
        </extensions>
      </trkpt>
      <trkpt lat="45.54997" lon="2.74296">
        <ele>1233.4000244141</ele>
        <time>2024-05-26T08:27:03.000Z</time>
        <extensions>
          <gpxtpx:TrackPointExtension xmlns:gpxtpx="http://www.garmin.com/xmlschemas/TrackPointExtension/v1">
            <gpxtpx:hr>104</gpxtpx:hr>
          </gpxtpx:TrackPointExtension>
        </extensions>
      </trkpt>
      <trkpt lat="45.5501" lon="2.743">
        <ele>1233.5999755859</ele>
        <time>2024-05-26T08:27:06.000Z</time>
        <extensions>
          <gpxtpx:TrackPointExtension xmlns:gpxtpx="http://www.garmin.com/xmlschemas/TrackPointExtension/v1">
            <gpxtpx:hr>105</gpxtpx:hr>
          </gpxtpx:TrackPointExtension>
        </extensions>
      </trkpt>
      <trkpt lat="45.55019" lon="2.74306">
        <ele>1233.8000488281</ele>
        <time>2024-05-26T08:27:08.000Z</time>
        <extensions>
          <gpxtpx:TrackPointExtension xmlns:gpxtpx="http://www.garmin.com/xmlschemas/TrackPointExtension/v1">
            <gpxtpx:hr>105</gpxtpx:hr>
          </gpxtpx:TrackPointExtension>
        </extensions>
      </trkpt>
      <trkpt lat="45.55026" lon="2.74315">
        <ele>1234.1999511719</ele>
        <time>2024-05-26T08:27:10.000Z</time>
        <extensions>
          <gpxtpx:TrackPointExtension xmlns:gpxtpx="http://www.garmin.com/xmlschemas/TrackPointExtension/v1">
            <gpxtpx:hr>106</gpxtpx:hr>
          </gpxtpx:TrackPointExtension>
        </extensions>
      </trkpt>
      <trkpt lat="45.55031" lon="2.74325">
        <ele>1234.5999755859</ele>
        <time>2024-05-26T08:27:12.000Z</time>
        <extensions>
          <gpxtpx:TrackPointExtension xmlns:gpxtpx="http://www.garmin.com/xmlschemas/TrackPointExtension/v1">
            <gpxtpx:hr>106</gpxtpx:hr>
          </gpxtpx:TrackPointExtension>
        </extensions>
      </trkpt>
      <trkpt lat="45.55035" lon="2.74335">
        <ele>1234.8000488281</ele>
        <time>2024-05-26T08:27:14.000Z</time>
        <extensions>
          <gpxtpx:TrackPointExtension xmlns:gpxtpx="http://www.garmin.com/xmlschemas/TrackPointExtension/v1">
            <gpxtpx:hr>106</gpxtpx:hr>
          </gpxtpx:TrackPointExtension>
        </extensions>
      </trkpt>
      <trkpt lat="45.55038" lon="2.7434">
        <ele>1234.8000488281</ele>
        <time>2024-05-26T08:27:15.000Z</time>
        <extensions>
          <gpxtpx:TrackPointExtension xmlns:gpxtpx="http://www.garmin.com/xmlschemas/TrackPointExtension/v1">
            <gpxtpx:hr>107</gpxtpx:hr>
          </gpxtpx:TrackPointExtension>
        </extensions>
      </trkpt>
      <trkpt lat="45.55041" lon="2.74345">
        <ele>1234.8000488281</ele>
        <time>2024-05-26T08:27:16.000Z</time>
        <extensions>
          <gpxtpx:TrackPointExtension xmlns:gpxtpx="http://www.garmin.com/xmlschemas/TrackPointExtension/v1">
            <gpxtpx:hr>107</gpxtpx:hr>
          </gpxtpx:TrackPointExtension>
        </extensions>
      </trkpt>
      <trkpt lat="45.55044" lon="2.74349">
        <ele>1235</ele>
        <time>2024-05-26T08:27:17.000Z</time>
        <extensions>
          <gpxtpx:TrackPointExtension xmlns:gpxtpx="http://www.garmin.com/xmlschemas/TrackPointExtension/v1">
            <gpxtpx:hr>107</gpxtpx:hr>
          </gpxtpx:TrackPointExtension>
        </extensions>
      </trkpt>
      <trkpt lat="45.55049" lon="2.74352">
        <ele>1235</ele>
        <time>2024-05-26T08:27:18.000Z</time>
        <extensions>
          <gpxtpx:TrackPointExtension xmlns:gpxtpx="http://www.garmin.com/xmlschemas/TrackPointExtension/v1">
            <gpxtpx:hr>108</gpxtpx:hr>
          </gpxtpx:TrackPointExtension>
        </extensions>
      </trkpt>
      <trkpt lat="45.55061" lon="2.74356">
        <ele>1235.8000488281</ele>
        <time>2024-05-26T08:27:21.000Z</time>
        <extensions>
          <gpxtpx:TrackPointExtension xmlns:gpxtpx="http://www.garmin.com/xmlschemas/TrackPointExtension/v1">
            <gpxtpx:hr>108</gpxtpx:hr>
          </gpxtpx:TrackPointExtension>
        </extensions>
      </trkpt>
      <trkpt lat="45.55064" lon="2.74356">
        <ele>1236</ele>
        <time>2024-05-26T08:27:22.000Z</time>
        <extensions>
          <gpxtpx:TrackPointExtension xmlns:gpxtpx="http://www.garmin.com/xmlschemas/TrackPointExtension/v1">
            <gpxtpx:hr>108</gpxtpx:hr>
          </gpxtpx:TrackPointExtension>
        </extensions>
      </trkpt>
      <trkpt lat="45.55072" lon="2.74354">
        <ele>1236.1999511719</ele>
        <time>2024-05-26T08:27:24.000Z</time>
        <extensions>
          <gpxtpx:TrackPointExtension xmlns:gpxtpx="http://www.garmin.com/xmlschemas/TrackPointExtension/v1">
            <gpxtpx:hr>108</gpxtpx:hr>
          </gpxtpx:TrackPointExtension>
        </extensions>
      </trkpt>
      <trkpt lat="45.55082" lon="2.74349">
        <ele>1236.4000244141</ele>
        <time>2024-05-26T08:27:27.000Z</time>
        <extensions>
          <gpxtpx:TrackPointExtension xmlns:gpxtpx="http://www.garmin.com/xmlschemas/TrackPointExtension/v1">
            <gpxtpx:hr>108</gpxtpx:hr>
          </gpxtpx:TrackPointExtension>
        </extensions>
      </trkpt>
      <trkpt lat="45.55098" lon="2.74349">
        <ele>1237</ele>
        <time>2024-05-26T08:27:31.000Z</time>
        <extensions>
          <gpxtpx:TrackPointExtension xmlns:gpxtpx="http://www.garmin.com/xmlschemas/TrackPointExtension/v1">
            <gpxtpx:hr>109</gpxtpx:hr>
          </gpxtpx:TrackPointExtension>
        </extensions>
      </trkpt>
      <trkpt lat="45.55108" lon="2.74351">
        <ele>1237</ele>
        <time>2024-05-26T08:27:33.000Z</time>
        <extensions>
          <gpxtpx:TrackPointExtension xmlns:gpxtpx="http://www.garmin.com/xmlschemas/TrackPointExtension/v1">
            <gpxtpx:hr>109</gpxtpx:hr>
          </gpxtpx:TrackPointExtension>
        </extensions>
      </trkpt>
      <trkpt lat="45.55113" lon="2.74353">
        <ele>1237</ele>
        <time>2024-05-26T08:27:34.000Z</time>
        <extensions>
          <gpxtpx:TrackPointExtension xmlns:gpxtpx="http://www.garmin.com/xmlschemas/TrackPointExtension/v1">
            <gpxtpx:hr>109</gpxtpx:hr>
          </gpxtpx:TrackPointExtension>
        </extensions>
      </trkpt>
      <trkpt lat="45.55121" lon="2.7436">
        <ele>1237.1999511719</ele>
        <time>2024-05-26T08:27:36.000Z</time>
        <extensions>
          <gpxtpx:TrackPointExtension xmlns:gpxtpx="http://www.garmin.com/xmlschemas/TrackPointExtension/v1">
            <gpxtpx:hr>110</gpxtpx:hr>
          </gpxtpx:TrackPointExtension>
        </extensions>
      </trkpt>
      <trkpt lat="45.55129" lon="2.74368">
        <ele>1237.5999755859</ele>
        <time>2024-05-26T08:27:38.000Z</time>
        <extensions>
          <gpxtpx:TrackPointExtension xmlns:gpxtpx="http://www.garmin.com/xmlschemas/TrackPointExtension/v1">
            <gpxtpx:hr>110</gpxtpx:hr>
          </gpxtpx:TrackPointExtension>
        </extensions>
      </trkpt>
      <trkpt lat="45.55132" lon="2.74372">
        <ele>1237.8000488281</ele>
        <time>2024-05-26T08:27:39.000Z</time>
        <extensions>
          <gpxtpx:TrackPointExtension xmlns:gpxtpx="http://www.garmin.com/xmlschemas/TrackPointExtension/v1">
            <gpxtpx:hr>110</gpxtpx:hr>
          </gpxtpx:TrackPointExtension>
        </extensions>
      </trkpt>
      <trkpt lat="45.55138" lon="2.7438">
        <ele>1238</ele>
        <time>2024-05-26T08:27:41.000Z</time>
        <extensions>
          <gpxtpx:TrackPointExtension xmlns:gpxtpx="http://www.garmin.com/xmlschemas/TrackPointExtension/v1">
            <gpxtpx:hr>109</gpxtpx:hr>
          </gpxtpx:TrackPointExtension>
        </extensions>
      </trkpt>
      <trkpt lat="45.55141" lon="2.74385">
        <ele>1238.4000244141</ele>
        <time>2024-05-26T08:27:42.000Z</time>
        <extensions>
          <gpxtpx:TrackPointExtension xmlns:gpxtpx="http://www.garmin.com/xmlschemas/TrackPointExtension/v1">
            <gpxtpx:hr>108</gpxtpx:hr>
          </gpxtpx:TrackPointExtension>
        </extensions>
      </trkpt>
      <trkpt lat="45.5517" lon="2.74418">
        <ele>1239.4000244141</ele>
        <time>2024-05-26T08:27:50.000Z</time>
        <extensions>
          <gpxtpx:TrackPointExtension xmlns:gpxtpx="http://www.garmin.com/xmlschemas/TrackPointExtension/v1">
            <gpxtpx:hr>108</gpxtpx:hr>
          </gpxtpx:TrackPointExtension>
        </extensions>
      </trkpt>
      <trkpt lat="45.55183" lon="2.74426">
        <ele>1239.8000488281</ele>
        <time>2024-05-26T08:27:53.000Z</time>
        <extensions>
          <gpxtpx:TrackPointExtension xmlns:gpxtpx="http://www.garmin.com/xmlschemas/TrackPointExtension/v1">
            <gpxtpx:hr>108</gpxtpx:hr>
          </gpxtpx:TrackPointExtension>
        </extensions>
      </trkpt>
      <trkpt lat="45.55195" lon="2.74431">
        <ele>1240</ele>
        <time>2024-05-26T08:27:56.000Z</time>
        <extensions>
          <gpxtpx:TrackPointExtension xmlns:gpxtpx="http://www.garmin.com/xmlschemas/TrackPointExtension/v1">
            <gpxtpx:hr>107</gpxtpx:hr>
          </gpxtpx:TrackPointExtension>
        </extensions>
      </trkpt>
      <trkpt lat="45.55199" lon="2.74432">
        <ele>1240</ele>
        <time>2024-05-26T08:27:57.000Z</time>
        <extensions>
          <gpxtpx:TrackPointExtension xmlns:gpxtpx="http://www.garmin.com/xmlschemas/TrackPointExtension/v1">
            <gpxtpx:hr>107</gpxtpx:hr>
          </gpxtpx:TrackPointExtension>
        </extensions>
      </trkpt>
      <trkpt lat="45.55224" lon="2.74442">
        <ele>1240.5999755859</ele>
        <time>2024-05-26T08:28:03.000Z</time>
        <extensions>
          <gpxtpx:TrackPointExtension xmlns:gpxtpx="http://www.garmin.com/xmlschemas/TrackPointExtension/v1">
            <gpxtpx:hr>109</gpxtpx:hr>
          </gpxtpx:TrackPointExtension>
        </extensions>
      </trkpt>
      <trkpt lat="45.55228" lon="2.74443">
        <ele>1240.5999755859</ele>
        <time>2024-05-26T08:28:04.000Z</time>
        <extensions>
          <gpxtpx:TrackPointExtension xmlns:gpxtpx="http://www.garmin.com/xmlschemas/TrackPointExtension/v1">
            <gpxtpx:hr>109</gpxtpx:hr>
          </gpxtpx:TrackPointExtension>
        </extensions>
      </trkpt>
      <trkpt lat="45.55253" lon="2.74454">
        <ele>1241.1999511719</ele>
        <time>2024-05-26T08:28:10.000Z</time>
        <extensions>
          <gpxtpx:TrackPointExtension xmlns:gpxtpx="http://www.garmin.com/xmlschemas/TrackPointExtension/v1">
            <gpxtpx:hr>109</gpxtpx:hr>
          </gpxtpx:TrackPointExtension>
        </extensions>
      </trkpt>
      <trkpt lat="45.55274" lon="2.74453">
        <ele>1241.4000244141</ele>
        <time>2024-05-26T08:28:15.000Z</time>
        <extensions>
          <gpxtpx:TrackPointExtension xmlns:gpxtpx="http://www.garmin.com/xmlschemas/TrackPointExtension/v1">
            <gpxtpx:hr>109</gpxtpx:hr>
          </gpxtpx:TrackPointExtension>
        </extensions>
      </trkpt>
      <trkpt lat="45.55279" lon="2.74451">
        <ele>1241.1999511719</ele>
        <time>2024-05-26T08:28:16.000Z</time>
        <extensions>
          <gpxtpx:TrackPointExtension xmlns:gpxtpx="http://www.garmin.com/xmlschemas/TrackPointExtension/v1">
            <gpxtpx:hr>108</gpxtpx:hr>
          </gpxtpx:TrackPointExtension>
        </extensions>
      </trkpt>
      <trkpt lat="45.55295" lon="2.74446">
        <ele>1241.4000244141</ele>
        <time>2024-05-26T08:28:20.000Z</time>
        <extensions>
          <gpxtpx:TrackPointExtension xmlns:gpxtpx="http://www.garmin.com/xmlschemas/TrackPointExtension/v1">
            <gpxtpx:hr>108</gpxtpx:hr>
          </gpxtpx:TrackPointExtension>
        </extensions>
      </trkpt>
      <trkpt lat="45.55299" lon="2.74444">
        <ele>1241.5999755859</ele>
        <time>2024-05-26T08:28:21.000Z</time>
        <extensions>
          <gpxtpx:TrackPointExtension xmlns:gpxtpx="http://www.garmin.com/xmlschemas/TrackPointExtension/v1">
            <gpxtpx:hr>107</gpxtpx:hr>
          </gpxtpx:TrackPointExtension>
        </extensions>
      </trkpt>
      <trkpt lat="45.55303" lon="2.74441">
        <ele>1241.5999755859</ele>
        <time>2024-05-26T08:28:22.000Z</time>
        <extensions>
          <gpxtpx:TrackPointExtension xmlns:gpxtpx="http://www.garmin.com/xmlschemas/TrackPointExtension/v1">
            <gpxtpx:hr>107</gpxtpx:hr>
          </gpxtpx:TrackPointExtension>
        </extensions>
      </trkpt>
      <trkpt lat="45.55313" lon="2.74434">
        <ele>1242.1999511719</ele>
        <time>2024-05-26T08:28:25.000Z</time>
        <extensions>
          <gpxtpx:TrackPointExtension xmlns:gpxtpx="http://www.garmin.com/xmlschemas/TrackPointExtension/v1">
            <gpxtpx:hr>107</gpxtpx:hr>
          </gpxtpx:TrackPointExtension>
        </extensions>
      </trkpt>
      <trkpt lat="45.55316" lon="2.74432">
        <ele>1242.4000244141</ele>
        <time>2024-05-26T08:28:26.000Z</time>
        <extensions>
          <gpxtpx:TrackPointExtension xmlns:gpxtpx="http://www.garmin.com/xmlschemas/TrackPointExtension/v1">
            <gpxtpx:hr>108</gpxtpx:hr>
          </gpxtpx:TrackPointExtension>
        </extensions>
      </trkpt>
      <trkpt lat="45.55319" lon="2.74429">
        <ele>1242.5999755859</ele>
        <time>2024-05-26T08:28:27.000Z</time>
        <extensions>
          <gpxtpx:TrackPointExtension xmlns:gpxtpx="http://www.garmin.com/xmlschemas/TrackPointExtension/v1">
            <gpxtpx:hr>108</gpxtpx:hr>
          </gpxtpx:TrackPointExtension>
        </extensions>
      </trkpt>
      <trkpt lat="45.55342" lon="2.74412">
        <ele>1243.4000244141</ele>
        <time>2024-05-26T08:28:33.000Z</time>
        <extensions>
          <gpxtpx:TrackPointExtension xmlns:gpxtpx="http://www.garmin.com/xmlschemas/TrackPointExtension/v1">
            <gpxtpx:hr>109</gpxtpx:hr>
          </gpxtpx:TrackPointExtension>
        </extensions>
      </trkpt>
      <trkpt lat="45.55353" lon="2.74404">
        <ele>1243.8000488281</ele>
        <time>2024-05-26T08:28:36.000Z</time>
        <extensions>
          <gpxtpx:TrackPointExtension xmlns:gpxtpx="http://www.garmin.com/xmlschemas/TrackPointExtension/v1">
            <gpxtpx:hr>107</gpxtpx:hr>
          </gpxtpx:TrackPointExtension>
        </extensions>
      </trkpt>
      <trkpt lat="45.55368" lon="2.74395">
        <ele>1244.1999511719</ele>
        <time>2024-05-26T08:28:40.000Z</time>
        <extensions>
          <gpxtpx:TrackPointExtension xmlns:gpxtpx="http://www.garmin.com/xmlschemas/TrackPointExtension/v1">
            <gpxtpx:hr>106</gpxtpx:hr>
          </gpxtpx:TrackPointExtension>
        </extensions>
      </trkpt>
      <trkpt lat="45.55387" lon="2.74381">
        <ele>1244.8000488281</ele>
        <time>2024-05-26T08:28:45.000Z</time>
        <extensions>
          <gpxtpx:TrackPointExtension xmlns:gpxtpx="http://www.garmin.com/xmlschemas/TrackPointExtension/v1">
            <gpxtpx:hr>105</gpxtpx:hr>
          </gpxtpx:TrackPointExtension>
        </extensions>
      </trkpt>
      <trkpt lat="45.55392" lon="2.74378">
        <ele>1245.1999511719</ele>
        <time>2024-05-26T08:28:46.000Z</time>
        <extensions>
          <gpxtpx:TrackPointExtension xmlns:gpxtpx="http://www.garmin.com/xmlschemas/TrackPointExtension/v1">
            <gpxtpx:hr>106</gpxtpx:hr>
          </gpxtpx:TrackPointExtension>
        </extensions>
      </trkpt>
      <trkpt lat="45.55397" lon="2.74378">
        <ele>1245.5999755859</ele>
        <time>2024-05-26T08:28:47.000Z</time>
        <extensions>
          <gpxtpx:TrackPointExtension xmlns:gpxtpx="http://www.garmin.com/xmlschemas/TrackPointExtension/v1">
            <gpxtpx:hr>106</gpxtpx:hr>
          </gpxtpx:TrackPointExtension>
        </extensions>
      </trkpt>
      <trkpt lat="45.55408" lon="2.74371">
        <ele>1246.1999511719</ele>
        <time>2024-05-26T08:28:50.000Z</time>
        <extensions>
          <gpxtpx:TrackPointExtension xmlns:gpxtpx="http://www.garmin.com/xmlschemas/TrackPointExtension/v1">
            <gpxtpx:hr>106</gpxtpx:hr>
          </gpxtpx:TrackPointExtension>
        </extensions>
      </trkpt>
      <trkpt lat="45.55427" lon="2.74356">
        <ele>1247</ele>
        <time>2024-05-26T08:28:55.000Z</time>
        <extensions>
          <gpxtpx:TrackPointExtension xmlns:gpxtpx="http://www.garmin.com/xmlschemas/TrackPointExtension/v1">
            <gpxtpx:hr>107</gpxtpx:hr>
          </gpxtpx:TrackPointExtension>
        </extensions>
      </trkpt>
      <trkpt lat="45.55434" lon="2.74352">
        <ele>1247.4000244141</ele>
        <time>2024-05-26T08:28:57.000Z</time>
        <extensions>
          <gpxtpx:TrackPointExtension xmlns:gpxtpx="http://www.garmin.com/xmlschemas/TrackPointExtension/v1">
            <gpxtpx:hr>108</gpxtpx:hr>
          </gpxtpx:TrackPointExtension>
        </extensions>
      </trkpt>
      <trkpt lat="45.55445" lon="2.74347">
        <ele>1247.8000488281</ele>
        <time>2024-05-26T08:29:00.000Z</time>
        <extensions>
          <gpxtpx:TrackPointExtension xmlns:gpxtpx="http://www.garmin.com/xmlschemas/TrackPointExtension/v1">
            <gpxtpx:hr>108</gpxtpx:hr>
          </gpxtpx:TrackPointExtension>
        </extensions>
      </trkpt>
      <trkpt lat="45.55459" lon="2.74335">
        <ele>1248.4000244141</ele>
        <time>2024-05-26T08:29:05.000Z</time>
        <extensions>
          <gpxtpx:TrackPointExtension xmlns:gpxtpx="http://www.garmin.com/xmlschemas/TrackPointExtension/v1">
            <gpxtpx:hr>109</gpxtpx:hr>
          </gpxtpx:TrackPointExtension>
        </extensions>
      </trkpt>
      <trkpt lat="45.55482" lon="2.74326">
        <ele>1248.5999755859</ele>
        <time>2024-05-26T08:30:27.000Z</time>
        <extensions>
          <gpxtpx:TrackPointExtension xmlns:gpxtpx="http://www.garmin.com/xmlschemas/TrackPointExtension/v1">
            <gpxtpx:hr>103</gpxtpx:hr>
          </gpxtpx:TrackPointExtension>
        </extensions>
      </trkpt>
      <trkpt lat="45.55506" lon="2.74326">
        <ele>1248.1999511719</ele>
        <time>2024-05-26T08:30:33.000Z</time>
        <extensions>
          <gpxtpx:TrackPointExtension xmlns:gpxtpx="http://www.garmin.com/xmlschemas/TrackPointExtension/v1">
            <gpxtpx:hr>103</gpxtpx:hr>
          </gpxtpx:TrackPointExtension>
        </extensions>
      </trkpt>
      <trkpt lat="45.55516" lon="2.74331">
        <ele>1248</ele>
        <time>2024-05-26T08:30:35.000Z</time>
        <extensions>
          <gpxtpx:TrackPointExtension xmlns:gpxtpx="http://www.garmin.com/xmlschemas/TrackPointExtension/v1">
            <gpxtpx:hr>103</gpxtpx:hr>
          </gpxtpx:TrackPointExtension>
        </extensions>
      </trkpt>
      <trkpt lat="45.55521" lon="2.74336">
        <ele>1247.1999511719</ele>
        <time>2024-05-26T08:30:36.000Z</time>
        <extensions>
          <gpxtpx:TrackPointExtension xmlns:gpxtpx="http://www.garmin.com/xmlschemas/TrackPointExtension/v1">
            <gpxtpx:hr>103</gpxtpx:hr>
          </gpxtpx:TrackPointExtension>
        </extensions>
      </trkpt>
      <trkpt lat="45.55526" lon="2.74341">
        <ele>1246.8000488281</ele>
        <time>2024-05-26T08:30:37.000Z</time>
        <extensions>
          <gpxtpx:TrackPointExtension xmlns:gpxtpx="http://www.garmin.com/xmlschemas/TrackPointExtension/v1">
            <gpxtpx:hr>102</gpxtpx:hr>
          </gpxtpx:TrackPointExtension>
        </extensions>
      </trkpt>
      <trkpt lat="45.55545" lon="2.74368">
        <ele>1246.1999511719</ele>
        <time>2024-05-26T08:30:41.000Z</time>
        <extensions>
          <gpxtpx:TrackPointExtension xmlns:gpxtpx="http://www.garmin.com/xmlschemas/TrackPointExtension/v1">
            <gpxtpx:hr>102</gpxtpx:hr>
          </gpxtpx:TrackPointExtension>
        </extensions>
      </trkpt>
      <trkpt lat="45.55549" lon="2.74376">
        <ele>1245.5999755859</ele>
        <time>2024-05-26T08:30:42.000Z</time>
        <extensions>
          <gpxtpx:TrackPointExtension xmlns:gpxtpx="http://www.garmin.com/xmlschemas/TrackPointExtension/v1">
            <gpxtpx:hr>101</gpxtpx:hr>
          </gpxtpx:TrackPointExtension>
        </extensions>
      </trkpt>
      <trkpt lat="45.55558" lon="2.74394">
        <ele>1245</ele>
        <time>2024-05-26T08:30:44.000Z</time>
        <extensions>
          <gpxtpx:TrackPointExtension xmlns:gpxtpx="http://www.garmin.com/xmlschemas/TrackPointExtension/v1">
            <gpxtpx:hr>101</gpxtpx:hr>
          </gpxtpx:TrackPointExtension>
        </extensions>
      </trkpt>
      <trkpt lat="45.55562" lon="2.74405">
        <ele>1244.5999755859</ele>
        <time>2024-05-26T08:30:45.000Z</time>
        <extensions>
          <gpxtpx:TrackPointExtension xmlns:gpxtpx="http://www.garmin.com/xmlschemas/TrackPointExtension/v1">
            <gpxtpx:hr>100</gpxtpx:hr>
          </gpxtpx:TrackPointExtension>
        </extensions>
      </trkpt>
      <trkpt lat="45.55564" lon="2.74416">
        <ele>1244.1999511719</ele>
        <time>2024-05-26T08:30:46.000Z</time>
        <extensions>
          <gpxtpx:TrackPointExtension xmlns:gpxtpx="http://www.garmin.com/xmlschemas/TrackPointExtension/v1">
            <gpxtpx:hr>99</gpxtpx:hr>
          </gpxtpx:TrackPointExtension>
        </extensions>
      </trkpt>
      <trkpt lat="45.55566" lon="2.74427">
        <ele>1243.5999755859</ele>
        <time>2024-05-26T08:30:47.000Z</time>
        <extensions>
          <gpxtpx:TrackPointExtension xmlns:gpxtpx="http://www.garmin.com/xmlschemas/TrackPointExtension/v1">
            <gpxtpx:hr>100</gpxtpx:hr>
          </gpxtpx:TrackPointExtension>
        </extensions>
      </trkpt>
      <trkpt lat="45.55568" lon="2.74451">
        <ele>1242.8000488281</ele>
        <time>2024-05-26T08:30:49.000Z</time>
        <extensions>
          <gpxtpx:TrackPointExtension xmlns:gpxtpx="http://www.garmin.com/xmlschemas/TrackPointExtension/v1">
            <gpxtpx:hr>100</gpxtpx:hr>
          </gpxtpx:TrackPointExtension>
        </extensions>
      </trkpt>
      <trkpt lat="45.55567" lon="2.74463">
        <ele>1242.5999755859</ele>
        <time>2024-05-26T08:30:50.000Z</time>
        <extensions>
          <gpxtpx:TrackPointExtension xmlns:gpxtpx="http://www.garmin.com/xmlschemas/TrackPointExtension/v1">
            <gpxtpx:hr>99</gpxtpx:hr>
          </gpxtpx:TrackPointExtension>
        </extensions>
      </trkpt>
      <trkpt lat="45.55566" lon="2.74476">
        <ele>1242.1999511719</ele>
        <time>2024-05-26T08:30:51.000Z</time>
        <extensions>
          <gpxtpx:TrackPointExtension xmlns:gpxtpx="http://www.garmin.com/xmlschemas/TrackPointExtension/v1">
            <gpxtpx:hr>99</gpxtpx:hr>
          </gpxtpx:TrackPointExtension>
        </extensions>
      </trkpt>
      <trkpt lat="45.55564" lon="2.74503">
        <ele>1241.5999755859</ele>
        <time>2024-05-26T08:30:53.000Z</time>
        <extensions>
          <gpxtpx:TrackPointExtension xmlns:gpxtpx="http://www.garmin.com/xmlschemas/TrackPointExtension/v1">
            <gpxtpx:hr>97</gpxtpx:hr>
          </gpxtpx:TrackPointExtension>
        </extensions>
      </trkpt>
      <trkpt lat="45.55562" lon="2.74528">
        <ele>1241</ele>
        <time>2024-05-26T08:30:55.000Z</time>
        <extensions>
          <gpxtpx:TrackPointExtension xmlns:gpxtpx="http://www.garmin.com/xmlschemas/TrackPointExtension/v1">
            <gpxtpx:hr>96</gpxtpx:hr>
          </gpxtpx:TrackPointExtension>
        </extensions>
      </trkpt>
      <trkpt lat="45.5556" lon="2.74556">
        <ele>1240</ele>
        <time>2024-05-26T08:30:57.000Z</time>
        <extensions>
          <gpxtpx:TrackPointExtension xmlns:gpxtpx="http://www.garmin.com/xmlschemas/TrackPointExtension/v1">
            <gpxtpx:hr>96</gpxtpx:hr>
          </gpxtpx:TrackPointExtension>
        </extensions>
      </trkpt>
      <trkpt lat="45.55558" lon="2.7457">
        <ele>1239</ele>
        <time>2024-05-26T08:30:58.000Z</time>
        <extensions>
          <gpxtpx:TrackPointExtension xmlns:gpxtpx="http://www.garmin.com/xmlschemas/TrackPointExtension/v1">
            <gpxtpx:hr>96</gpxtpx:hr>
          </gpxtpx:TrackPointExtension>
        </extensions>
      </trkpt>
      <trkpt lat="45.55558" lon="2.74583">
        <ele>1238.4000244141</ele>
        <time>2024-05-26T08:30:59.000Z</time>
        <extensions>
          <gpxtpx:TrackPointExtension xmlns:gpxtpx="http://www.garmin.com/xmlschemas/TrackPointExtension/v1">
            <gpxtpx:hr>97</gpxtpx:hr>
          </gpxtpx:TrackPointExtension>
        </extensions>
      </trkpt>
      <trkpt lat="45.5556" lon="2.74596">
        <ele>1238</ele>
        <time>2024-05-26T08:31:00.000Z</time>
        <extensions>
          <gpxtpx:TrackPointExtension xmlns:gpxtpx="http://www.garmin.com/xmlschemas/TrackPointExtension/v1">
            <gpxtpx:hr>97</gpxtpx:hr>
          </gpxtpx:TrackPointExtension>
        </extensions>
      </trkpt>
      <trkpt lat="45.55565" lon="2.74606">
        <ele>1237.5999755859</ele>
        <time>2024-05-26T08:31:01.000Z</time>
        <extensions>
          <gpxtpx:TrackPointExtension xmlns:gpxtpx="http://www.garmin.com/xmlschemas/TrackPointExtension/v1">
            <gpxtpx:hr>97</gpxtpx:hr>
          </gpxtpx:TrackPointExtension>
        </extensions>
      </trkpt>
      <trkpt lat="45.55572" lon="2.74612">
        <ele>1237</ele>
        <time>2024-05-26T08:31:02.000Z</time>
        <extensions>
          <gpxtpx:TrackPointExtension xmlns:gpxtpx="http://www.garmin.com/xmlschemas/TrackPointExtension/v1">
            <gpxtpx:hr>97</gpxtpx:hr>
          </gpxtpx:TrackPointExtension>
        </extensions>
      </trkpt>
      <trkpt lat="45.55581" lon="2.74613">
        <ele>1236.1999511719</ele>
        <time>2024-05-26T08:31:03.000Z</time>
        <extensions>
          <gpxtpx:TrackPointExtension xmlns:gpxtpx="http://www.garmin.com/xmlschemas/TrackPointExtension/v1">
            <gpxtpx:hr>97</gpxtpx:hr>
          </gpxtpx:TrackPointExtension>
        </extensions>
      </trkpt>
      <trkpt lat="45.55589" lon="2.74605">
        <ele>1235.8000488281</ele>
        <time>2024-05-26T08:31:04.000Z</time>
        <extensions>
          <gpxtpx:TrackPointExtension xmlns:gpxtpx="http://www.garmin.com/xmlschemas/TrackPointExtension/v1">
            <gpxtpx:hr>96</gpxtpx:hr>
          </gpxtpx:TrackPointExtension>
        </extensions>
      </trkpt>
      <trkpt lat="45.55595" lon="2.74596">
        <ele>1235.5999755859</ele>
        <time>2024-05-26T08:31:05.000Z</time>
        <extensions>
          <gpxtpx:TrackPointExtension xmlns:gpxtpx="http://www.garmin.com/xmlschemas/TrackPointExtension/v1">
            <gpxtpx:hr>96</gpxtpx:hr>
          </gpxtpx:TrackPointExtension>
        </extensions>
      </trkpt>
      <trkpt lat="45.55605" lon="2.74574">
        <ele>1235.5999755859</ele>
        <time>2024-05-26T08:31:07.000Z</time>
        <extensions>
          <gpxtpx:TrackPointExtension xmlns:gpxtpx="http://www.garmin.com/xmlschemas/TrackPointExtension/v1">
            <gpxtpx:hr>97</gpxtpx:hr>
          </gpxtpx:TrackPointExtension>
        </extensions>
      </trkpt>
      <trkpt lat="45.55612" lon="2.7456">
        <ele>1235</ele>
        <time>2024-05-26T08:31:08.000Z</time>
        <extensions>
          <gpxtpx:TrackPointExtension xmlns:gpxtpx="http://www.garmin.com/xmlschemas/TrackPointExtension/v1">
            <gpxtpx:hr>100</gpxtpx:hr>
          </gpxtpx:TrackPointExtension>
        </extensions>
      </trkpt>
      <trkpt lat="45.55617" lon="2.7455">
        <ele>1234.8000488281</ele>
        <time>2024-05-26T08:31:09.000Z</time>
        <extensions>
          <gpxtpx:TrackPointExtension xmlns:gpxtpx="http://www.garmin.com/xmlschemas/TrackPointExtension/v1">
            <gpxtpx:hr>97</gpxtpx:hr>
          </gpxtpx:TrackPointExtension>
        </extensions>
      </trkpt>
      <trkpt lat="45.55624" lon="2.74538">
        <ele>1234</ele>
        <time>2024-05-26T08:31:10.000Z</time>
        <extensions>
          <gpxtpx:TrackPointExtension xmlns:gpxtpx="http://www.garmin.com/xmlschemas/TrackPointExtension/v1">
            <gpxtpx:hr>97</gpxtpx:hr>
          </gpxtpx:TrackPointExtension>
        </extensions>
      </trkpt>
      <trkpt lat="45.55632" lon="2.74528">
        <ele>1232.4000244141</ele>
        <time>2024-05-26T08:31:11.000Z</time>
        <extensions>
          <gpxtpx:TrackPointExtension xmlns:gpxtpx="http://www.garmin.com/xmlschemas/TrackPointExtension/v1">
            <gpxtpx:hr>97</gpxtpx:hr>
          </gpxtpx:TrackPointExtension>
        </extensions>
      </trkpt>
      <trkpt lat="45.5564" lon="2.7452">
        <ele>1231.8000488281</ele>
        <time>2024-05-26T08:31:12.000Z</time>
        <extensions>
          <gpxtpx:TrackPointExtension xmlns:gpxtpx="http://www.garmin.com/xmlschemas/TrackPointExtension/v1">
            <gpxtpx:hr>98</gpxtpx:hr>
          </gpxtpx:TrackPointExtension>
        </extensions>
      </trkpt>
      <trkpt lat="45.5566" lon="2.7451">
        <ele>1229</ele>
        <time>2024-05-26T08:31:14.000Z</time>
        <extensions>
          <gpxtpx:TrackPointExtension xmlns:gpxtpx="http://www.garmin.com/xmlschemas/TrackPointExtension/v1">
            <gpxtpx:hr>97</gpxtpx:hr>
          </gpxtpx:TrackPointExtension>
        </extensions>
      </trkpt>
      <trkpt lat="45.55683" lon="2.74516">
        <ele>1228</ele>
        <time>2024-05-26T08:31:16.000Z</time>
        <extensions>
          <gpxtpx:TrackPointExtension xmlns:gpxtpx="http://www.garmin.com/xmlschemas/TrackPointExtension/v1">
            <gpxtpx:hr>98</gpxtpx:hr>
          </gpxtpx:TrackPointExtension>
        </extensions>
      </trkpt>
      <trkpt lat="45.55696" lon="2.74543">
        <ele>1227.5999755859</ele>
        <time>2024-05-26T08:31:18.000Z</time>
        <extensions>
          <gpxtpx:TrackPointExtension xmlns:gpxtpx="http://www.garmin.com/xmlschemas/TrackPointExtension/v1">
            <gpxtpx:hr>98</gpxtpx:hr>
          </gpxtpx:TrackPointExtension>
        </extensions>
      </trkpt>
      <trkpt lat="45.55703" lon="2.74577">
        <ele>1226.4000244141</ele>
        <time>2024-05-26T08:31:20.000Z</time>
        <extensions>
          <gpxtpx:TrackPointExtension xmlns:gpxtpx="http://www.garmin.com/xmlschemas/TrackPointExtension/v1">
            <gpxtpx:hr>96</gpxtpx:hr>
          </gpxtpx:TrackPointExtension>
        </extensions>
      </trkpt>
      <trkpt lat="45.55701" lon="2.74592">
        <ele>1225.1999511719</ele>
        <time>2024-05-26T08:31:21.000Z</time>
        <extensions>
          <gpxtpx:TrackPointExtension xmlns:gpxtpx="http://www.garmin.com/xmlschemas/TrackPointExtension/v1">
            <gpxtpx:hr>96</gpxtpx:hr>
          </gpxtpx:TrackPointExtension>
        </extensions>
      </trkpt>
      <trkpt lat="45.55696" lon="2.74606">
        <ele>1224.4000244141</ele>
        <time>2024-05-26T08:31:22.000Z</time>
        <extensions>
          <gpxtpx:TrackPointExtension xmlns:gpxtpx="http://www.garmin.com/xmlschemas/TrackPointExtension/v1">
            <gpxtpx:hr>95</gpxtpx:hr>
          </gpxtpx:TrackPointExtension>
        </extensions>
      </trkpt>
      <trkpt lat="45.55692" lon="2.74619">
        <ele>1224</ele>
        <time>2024-05-26T08:31:23.000Z</time>
        <extensions>
          <gpxtpx:TrackPointExtension xmlns:gpxtpx="http://www.garmin.com/xmlschemas/TrackPointExtension/v1">
            <gpxtpx:hr>95</gpxtpx:hr>
          </gpxtpx:TrackPointExtension>
        </extensions>
      </trkpt>
      <trkpt lat="45.55685" lon="2.74647">
        <ele>1223.1999511719</ele>
        <time>2024-05-26T08:31:25.000Z</time>
        <extensions>
          <gpxtpx:TrackPointExtension xmlns:gpxtpx="http://www.garmin.com/xmlschemas/TrackPointExtension/v1">
            <gpxtpx:hr>94</gpxtpx:hr>
          </gpxtpx:TrackPointExtension>
        </extensions>
      </trkpt>
      <trkpt lat="45.55684" lon="2.7466">
        <ele>1223</ele>
        <time>2024-05-26T08:31:26.000Z</time>
        <extensions>
          <gpxtpx:TrackPointExtension xmlns:gpxtpx="http://www.garmin.com/xmlschemas/TrackPointExtension/v1">
            <gpxtpx:hr>95</gpxtpx:hr>
          </gpxtpx:TrackPointExtension>
        </extensions>
      </trkpt>
      <trkpt lat="45.55685" lon="2.74671">
        <ele>1222.4000244141</ele>
        <time>2024-05-26T08:31:27.000Z</time>
        <extensions>
          <gpxtpx:TrackPointExtension xmlns:gpxtpx="http://www.garmin.com/xmlschemas/TrackPointExtension/v1">
            <gpxtpx:hr>95</gpxtpx:hr>
          </gpxtpx:TrackPointExtension>
        </extensions>
      </trkpt>
      <trkpt lat="45.55687" lon="2.7468">
        <ele>1222.1999511719</ele>
        <time>2024-05-26T08:31:28.000Z</time>
        <extensions>
          <gpxtpx:TrackPointExtension xmlns:gpxtpx="http://www.garmin.com/xmlschemas/TrackPointExtension/v1">
            <gpxtpx:hr>94</gpxtpx:hr>
          </gpxtpx:TrackPointExtension>
        </extensions>
      </trkpt>
      <trkpt lat="45.55692" lon="2.74687">
        <ele>1221.8000488281</ele>
        <time>2024-05-26T08:31:29.000Z</time>
        <extensions>
          <gpxtpx:TrackPointExtension xmlns:gpxtpx="http://www.garmin.com/xmlschemas/TrackPointExtension/v1">
            <gpxtpx:hr>95</gpxtpx:hr>
          </gpxtpx:TrackPointExtension>
        </extensions>
      </trkpt>
      <trkpt lat="45.55699" lon="2.74691">
        <ele>1220.5999755859</ele>
        <time>2024-05-26T08:31:30.000Z</time>
        <extensions>
          <gpxtpx:TrackPointExtension xmlns:gpxtpx="http://www.garmin.com/xmlschemas/TrackPointExtension/v1">
            <gpxtpx:hr>95</gpxtpx:hr>
          </gpxtpx:TrackPointExtension>
        </extensions>
      </trkpt>
      <trkpt lat="45.55708" lon="2.74694">
        <ele>1219.1999511719</ele>
        <time>2024-05-26T08:31:31.000Z</time>
        <extensions>
          <gpxtpx:TrackPointExtension xmlns:gpxtpx="http://www.garmin.com/xmlschemas/TrackPointExtension/v1">
            <gpxtpx:hr>95</gpxtpx:hr>
          </gpxtpx:TrackPointExtension>
        </extensions>
      </trkpt>
      <trkpt lat="45.55717" lon="2.74698">
        <ele>1218.8000488281</ele>
        <time>2024-05-26T08:31:32.000Z</time>
        <extensions>
          <gpxtpx:TrackPointExtension xmlns:gpxtpx="http://www.garmin.com/xmlschemas/TrackPointExtension/v1">
            <gpxtpx:hr>95</gpxtpx:hr>
          </gpxtpx:TrackPointExtension>
        </extensions>
      </trkpt>
      <trkpt lat="45.55726" lon="2.747">
        <ele>1218.1999511719</ele>
        <time>2024-05-26T08:31:33.000Z</time>
        <extensions>
          <gpxtpx:TrackPointExtension xmlns:gpxtpx="http://www.garmin.com/xmlschemas/TrackPointExtension/v1">
            <gpxtpx:hr>95</gpxtpx:hr>
          </gpxtpx:TrackPointExtension>
        </extensions>
      </trkpt>
      <trkpt lat="45.55736" lon="2.74703">
        <ele>1217.5999755859</ele>
        <time>2024-05-26T08:31:34.000Z</time>
        <extensions>
          <gpxtpx:TrackPointExtension xmlns:gpxtpx="http://www.garmin.com/xmlschemas/TrackPointExtension/v1">
            <gpxtpx:hr>97</gpxtpx:hr>
          </gpxtpx:TrackPointExtension>
        </extensions>
      </trkpt>
      <trkpt lat="45.55747" lon="2.74706">
        <ele>1216.4000244141</ele>
        <time>2024-05-26T08:31:35.000Z</time>
        <extensions>
          <gpxtpx:TrackPointExtension xmlns:gpxtpx="http://www.garmin.com/xmlschemas/TrackPointExtension/v1">
            <gpxtpx:hr>95</gpxtpx:hr>
          </gpxtpx:TrackPointExtension>
        </extensions>
      </trkpt>
      <trkpt lat="45.55757" lon="2.74709">
        <ele>1215.1999511719</ele>
        <time>2024-05-26T08:31:36.000Z</time>
        <extensions>
          <gpxtpx:TrackPointExtension xmlns:gpxtpx="http://www.garmin.com/xmlschemas/TrackPointExtension/v1">
            <gpxtpx:hr>95</gpxtpx:hr>
          </gpxtpx:TrackPointExtension>
        </extensions>
      </trkpt>
      <trkpt lat="45.5578" lon="2.74716">
        <ele>1214.4000244141</ele>
        <time>2024-05-26T08:31:38.000Z</time>
        <extensions>
          <gpxtpx:TrackPointExtension xmlns:gpxtpx="http://www.garmin.com/xmlschemas/TrackPointExtension/v1">
            <gpxtpx:hr>95</gpxtpx:hr>
          </gpxtpx:TrackPointExtension>
        </extensions>
      </trkpt>
      <trkpt lat="45.55787" lon="2.74724">
        <ele>1214.1999511719</ele>
        <time>2024-05-26T08:31:39.000Z</time>
        <extensions>
          <gpxtpx:TrackPointExtension xmlns:gpxtpx="http://www.garmin.com/xmlschemas/TrackPointExtension/v1">
            <gpxtpx:hr>95</gpxtpx:hr>
          </gpxtpx:TrackPointExtension>
        </extensions>
      </trkpt>
      <trkpt lat="45.55795" lon="2.74738">
        <ele>1214</ele>
        <time>2024-05-26T08:31:40.000Z</time>
        <extensions>
          <gpxtpx:TrackPointExtension xmlns:gpxtpx="http://www.garmin.com/xmlschemas/TrackPointExtension/v1">
            <gpxtpx:hr>95</gpxtpx:hr>
          </gpxtpx:TrackPointExtension>
        </extensions>
      </trkpt>
      <trkpt lat="45.558" lon="2.74752">
        <ele>1213.5999755859</ele>
        <time>2024-05-26T08:31:41.000Z</time>
        <extensions>
          <gpxtpx:TrackPointExtension xmlns:gpxtpx="http://www.garmin.com/xmlschemas/TrackPointExtension/v1">
            <gpxtpx:hr>95</gpxtpx:hr>
          </gpxtpx:TrackPointExtension>
        </extensions>
      </trkpt>
      <trkpt lat="45.55803" lon="2.74769">
        <ele>1213.4000244141</ele>
        <time>2024-05-26T08:31:42.000Z</time>
        <extensions>
          <gpxtpx:TrackPointExtension xmlns:gpxtpx="http://www.garmin.com/xmlschemas/TrackPointExtension/v1">
            <gpxtpx:hr>96</gpxtpx:hr>
          </gpxtpx:TrackPointExtension>
        </extensions>
      </trkpt>
      <trkpt lat="45.55802" lon="2.74787">
        <ele>1212.1999511719</ele>
        <time>2024-05-26T08:31:43.000Z</time>
        <extensions>
          <gpxtpx:TrackPointExtension xmlns:gpxtpx="http://www.garmin.com/xmlschemas/TrackPointExtension/v1">
            <gpxtpx:hr>95</gpxtpx:hr>
          </gpxtpx:TrackPointExtension>
        </extensions>
      </trkpt>
      <trkpt lat="45.55798" lon="2.74802">
        <ele>1212</ele>
        <time>2024-05-26T08:31:44.000Z</time>
        <extensions>
          <gpxtpx:TrackPointExtension xmlns:gpxtpx="http://www.garmin.com/xmlschemas/TrackPointExtension/v1">
            <gpxtpx:hr>95</gpxtpx:hr>
          </gpxtpx:TrackPointExtension>
        </extensions>
      </trkpt>
      <trkpt lat="45.55793" lon="2.74815">
        <ele>1211.4000244141</ele>
        <time>2024-05-26T08:31:45.000Z</time>
        <extensions>
          <gpxtpx:TrackPointExtension xmlns:gpxtpx="http://www.garmin.com/xmlschemas/TrackPointExtension/v1">
            <gpxtpx:hr>95</gpxtpx:hr>
          </gpxtpx:TrackPointExtension>
        </extensions>
      </trkpt>
      <trkpt lat="45.55786" lon="2.74826">
        <ele>1210</ele>
        <time>2024-05-26T08:31:46.000Z</time>
        <extensions>
          <gpxtpx:TrackPointExtension xmlns:gpxtpx="http://www.garmin.com/xmlschemas/TrackPointExtension/v1">
            <gpxtpx:hr>94</gpxtpx:hr>
          </gpxtpx:TrackPointExtension>
        </extensions>
      </trkpt>
      <trkpt lat="45.55771" lon="2.74844">
        <ele>1209</ele>
        <time>2024-05-26T08:31:48.000Z</time>
        <extensions>
          <gpxtpx:TrackPointExtension xmlns:gpxtpx="http://www.garmin.com/xmlschemas/TrackPointExtension/v1">
            <gpxtpx:hr>95</gpxtpx:hr>
          </gpxtpx:TrackPointExtension>
        </extensions>
      </trkpt>
      <trkpt lat="45.55754" lon="2.74862">
        <ele>1208.1999511719</ele>
        <time>2024-05-26T08:31:50.000Z</time>
        <extensions>
          <gpxtpx:TrackPointExtension xmlns:gpxtpx="http://www.garmin.com/xmlschemas/TrackPointExtension/v1">
            <gpxtpx:hr>94</gpxtpx:hr>
          </gpxtpx:TrackPointExtension>
        </extensions>
      </trkpt>
      <trkpt lat="45.55749" lon="2.74873">
        <ele>1208</ele>
        <time>2024-05-26T08:31:51.000Z</time>
        <extensions>
          <gpxtpx:TrackPointExtension xmlns:gpxtpx="http://www.garmin.com/xmlschemas/TrackPointExtension/v1">
            <gpxtpx:hr>93</gpxtpx:hr>
          </gpxtpx:TrackPointExtension>
        </extensions>
      </trkpt>
      <trkpt lat="45.55743" lon="2.74887">
        <ele>1207.4000244141</ele>
        <time>2024-05-26T08:31:52.000Z</time>
        <extensions>
          <gpxtpx:TrackPointExtension xmlns:gpxtpx="http://www.garmin.com/xmlschemas/TrackPointExtension/v1">
            <gpxtpx:hr>93</gpxtpx:hr>
          </gpxtpx:TrackPointExtension>
        </extensions>
      </trkpt>
      <trkpt lat="45.55743" lon="2.749">
        <ele>1206.5999755859</ele>
        <time>2024-05-26T08:31:53.000Z</time>
        <extensions>
          <gpxtpx:TrackPointExtension xmlns:gpxtpx="http://www.garmin.com/xmlschemas/TrackPointExtension/v1">
            <gpxtpx:hr>93</gpxtpx:hr>
          </gpxtpx:TrackPointExtension>
        </extensions>
      </trkpt>
      <trkpt lat="45.55747" lon="2.7491">
        <ele>1205.4000244141</ele>
        <time>2024-05-26T08:31:54.000Z</time>
        <extensions>
          <gpxtpx:TrackPointExtension xmlns:gpxtpx="http://www.garmin.com/xmlschemas/TrackPointExtension/v1">
            <gpxtpx:hr>93</gpxtpx:hr>
          </gpxtpx:TrackPointExtension>
        </extensions>
      </trkpt>
      <trkpt lat="45.55752" lon="2.74919">
        <ele>1204.4000244141</ele>
        <time>2024-05-26T08:31:55.000Z</time>
        <extensions>
          <gpxtpx:TrackPointExtension xmlns:gpxtpx="http://www.garmin.com/xmlschemas/TrackPointExtension/v1">
            <gpxtpx:hr>93</gpxtpx:hr>
          </gpxtpx:TrackPointExtension>
        </extensions>
      </trkpt>
      <trkpt lat="45.5576" lon="2.74929">
        <ele>1204.1999511719</ele>
        <time>2024-05-26T08:31:56.000Z</time>
        <extensions>
          <gpxtpx:TrackPointExtension xmlns:gpxtpx="http://www.garmin.com/xmlschemas/TrackPointExtension/v1">
            <gpxtpx:hr>94</gpxtpx:hr>
          </gpxtpx:TrackPointExtension>
        </extensions>
      </trkpt>
      <trkpt lat="45.55766" lon="2.74941">
        <ele>1203.8000488281</ele>
        <time>2024-05-26T08:31:57.000Z</time>
        <extensions>
          <gpxtpx:TrackPointExtension xmlns:gpxtpx="http://www.garmin.com/xmlschemas/TrackPointExtension/v1">
            <gpxtpx:hr>95</gpxtpx:hr>
          </gpxtpx:TrackPointExtension>
        </extensions>
      </trkpt>
      <trkpt lat="45.55769" lon="2.74952">
        <ele>1203.5999755859</ele>
        <time>2024-05-26T08:31:58.000Z</time>
        <extensions>
          <gpxtpx:TrackPointExtension xmlns:gpxtpx="http://www.garmin.com/xmlschemas/TrackPointExtension/v1">
            <gpxtpx:hr>95</gpxtpx:hr>
          </gpxtpx:TrackPointExtension>
        </extensions>
      </trkpt>
      <trkpt lat="45.55771" lon="2.74968">
        <ele>1203.1999511719</ele>
        <time>2024-05-26T08:31:59.000Z</time>
        <extensions>
          <gpxtpx:TrackPointExtension xmlns:gpxtpx="http://www.garmin.com/xmlschemas/TrackPointExtension/v1">
            <gpxtpx:hr>96</gpxtpx:hr>
          </gpxtpx:TrackPointExtension>
        </extensions>
      </trkpt>
      <trkpt lat="45.5577" lon="2.74983">
        <ele>1202.8000488281</ele>
        <time>2024-05-26T08:32:00.000Z</time>
        <extensions>
          <gpxtpx:TrackPointExtension xmlns:gpxtpx="http://www.garmin.com/xmlschemas/TrackPointExtension/v1">
            <gpxtpx:hr>97</gpxtpx:hr>
          </gpxtpx:TrackPointExtension>
        </extensions>
      </trkpt>
      <trkpt lat="45.55766" lon="2.7501">
        <ele>1201.1999511719</ele>
        <time>2024-05-26T08:32:02.000Z</time>
        <extensions>
          <gpxtpx:TrackPointExtension xmlns:gpxtpx="http://www.garmin.com/xmlschemas/TrackPointExtension/v1">
            <gpxtpx:hr>96</gpxtpx:hr>
          </gpxtpx:TrackPointExtension>
        </extensions>
      </trkpt>
      <trkpt lat="45.55767" lon="2.75023">
        <ele>1200.5999755859</ele>
        <time>2024-05-26T08:32:03.000Z</time>
        <extensions>
          <gpxtpx:TrackPointExtension xmlns:gpxtpx="http://www.garmin.com/xmlschemas/TrackPointExtension/v1">
            <gpxtpx:hr>96</gpxtpx:hr>
          </gpxtpx:TrackPointExtension>
        </extensions>
      </trkpt>
      <trkpt lat="45.55769" lon="2.75033">
        <ele>1200.1999511719</ele>
        <time>2024-05-26T08:32:04.000Z</time>
        <extensions>
          <gpxtpx:TrackPointExtension xmlns:gpxtpx="http://www.garmin.com/xmlschemas/TrackPointExtension/v1">
            <gpxtpx:hr>95</gpxtpx:hr>
          </gpxtpx:TrackPointExtension>
        </extensions>
      </trkpt>
      <trkpt lat="45.55774" lon="2.7504">
        <ele>1199</ele>
        <time>2024-05-26T08:32:05.000Z</time>
        <extensions>
          <gpxtpx:TrackPointExtension xmlns:gpxtpx="http://www.garmin.com/xmlschemas/TrackPointExtension/v1">
            <gpxtpx:hr>94</gpxtpx:hr>
          </gpxtpx:TrackPointExtension>
        </extensions>
      </trkpt>
      <trkpt lat="45.55779" lon="2.75043">
        <ele>1198.4000244141</ele>
        <time>2024-05-26T08:32:06.000Z</time>
        <extensions>
          <gpxtpx:TrackPointExtension xmlns:gpxtpx="http://www.garmin.com/xmlschemas/TrackPointExtension/v1">
            <gpxtpx:hr>94</gpxtpx:hr>
          </gpxtpx:TrackPointExtension>
        </extensions>
      </trkpt>
      <trkpt lat="45.55787" lon="2.75042">
        <ele>1198.1999511719</ele>
        <time>2024-05-26T08:32:07.000Z</time>
        <extensions>
          <gpxtpx:TrackPointExtension xmlns:gpxtpx="http://www.garmin.com/xmlschemas/TrackPointExtension/v1">
            <gpxtpx:hr>94</gpxtpx:hr>
          </gpxtpx:TrackPointExtension>
        </extensions>
      </trkpt>
      <trkpt lat="45.55802" lon="2.7504">
        <ele>1197.5999755859</ele>
        <time>2024-05-26T08:32:09.000Z</time>
        <extensions>
          <gpxtpx:TrackPointExtension xmlns:gpxtpx="http://www.garmin.com/xmlschemas/TrackPointExtension/v1">
            <gpxtpx:hr>93</gpxtpx:hr>
          </gpxtpx:TrackPointExtension>
        </extensions>
      </trkpt>
      <trkpt lat="45.55809" lon="2.75042">
        <ele>1197.4000244141</ele>
        <time>2024-05-26T08:32:10.000Z</time>
        <extensions>
          <gpxtpx:TrackPointExtension xmlns:gpxtpx="http://www.garmin.com/xmlschemas/TrackPointExtension/v1">
            <gpxtpx:hr>93</gpxtpx:hr>
          </gpxtpx:TrackPointExtension>
        </extensions>
      </trkpt>
      <trkpt lat="45.55815" lon="2.75048">
        <ele>1197</ele>
        <time>2024-05-26T08:32:11.000Z</time>
        <extensions>
          <gpxtpx:TrackPointExtension xmlns:gpxtpx="http://www.garmin.com/xmlschemas/TrackPointExtension/v1">
            <gpxtpx:hr>93</gpxtpx:hr>
          </gpxtpx:TrackPointExtension>
        </extensions>
      </trkpt>
      <trkpt lat="45.5582" lon="2.75056">
        <ele>1196.1999511719</ele>
        <time>2024-05-26T08:32:12.000Z</time>
        <extensions>
          <gpxtpx:TrackPointExtension xmlns:gpxtpx="http://www.garmin.com/xmlschemas/TrackPointExtension/v1">
            <gpxtpx:hr>93</gpxtpx:hr>
          </gpxtpx:TrackPointExtension>
        </extensions>
      </trkpt>
      <trkpt lat="45.55822" lon="2.75066">
        <ele>1195.5999755859</ele>
        <time>2024-05-26T08:32:13.000Z</time>
        <extensions>
          <gpxtpx:TrackPointExtension xmlns:gpxtpx="http://www.garmin.com/xmlschemas/TrackPointExtension/v1">
            <gpxtpx:hr>93</gpxtpx:hr>
          </gpxtpx:TrackPointExtension>
        </extensions>
      </trkpt>
      <trkpt lat="45.55821" lon="2.75076">
        <ele>1195.1999511719</ele>
        <time>2024-05-26T08:32:14.000Z</time>
        <extensions>
          <gpxtpx:TrackPointExtension xmlns:gpxtpx="http://www.garmin.com/xmlschemas/TrackPointExtension/v1">
            <gpxtpx:hr>92</gpxtpx:hr>
          </gpxtpx:TrackPointExtension>
        </extensions>
      </trkpt>
      <trkpt lat="45.55819" lon="2.75098">
        <ele>1194.5999755859</ele>
        <time>2024-05-26T08:32:16.000Z</time>
        <extensions>
          <gpxtpx:TrackPointExtension xmlns:gpxtpx="http://www.garmin.com/xmlschemas/TrackPointExtension/v1">
            <gpxtpx:hr>91</gpxtpx:hr>
          </gpxtpx:TrackPointExtension>
        </extensions>
      </trkpt>
      <trkpt lat="45.55817" lon="2.75109">
        <ele>1194</ele>
        <time>2024-05-26T08:32:17.000Z</time>
        <extensions>
          <gpxtpx:TrackPointExtension xmlns:gpxtpx="http://www.garmin.com/xmlschemas/TrackPointExtension/v1">
            <gpxtpx:hr>90</gpxtpx:hr>
          </gpxtpx:TrackPointExtension>
        </extensions>
      </trkpt>
      <trkpt lat="45.55814" lon="2.7512">
        <ele>1193.5999755859</ele>
        <time>2024-05-26T08:32:18.000Z</time>
        <extensions>
          <gpxtpx:TrackPointExtension xmlns:gpxtpx="http://www.garmin.com/xmlschemas/TrackPointExtension/v1">
            <gpxtpx:hr>92</gpxtpx:hr>
          </gpxtpx:TrackPointExtension>
        </extensions>
      </trkpt>
      <trkpt lat="45.5581" lon="2.7513">
        <ele>1192.5999755859</ele>
        <time>2024-05-26T08:32:19.000Z</time>
        <extensions>
          <gpxtpx:TrackPointExtension xmlns:gpxtpx="http://www.garmin.com/xmlschemas/TrackPointExtension/v1">
            <gpxtpx:hr>91</gpxtpx:hr>
          </gpxtpx:TrackPointExtension>
        </extensions>
      </trkpt>
      <trkpt lat="45.55805" lon="2.7514">
        <ele>1192.1999511719</ele>
        <time>2024-05-26T08:32:20.000Z</time>
        <extensions>
          <gpxtpx:TrackPointExtension xmlns:gpxtpx="http://www.garmin.com/xmlschemas/TrackPointExtension/v1">
            <gpxtpx:hr>91</gpxtpx:hr>
          </gpxtpx:TrackPointExtension>
        </extensions>
      </trkpt>
      <trkpt lat="45.55794" lon="2.75158">
        <ele>1191.5999755859</ele>
        <time>2024-05-26T08:32:22.000Z</time>
        <extensions>
          <gpxtpx:TrackPointExtension xmlns:gpxtpx="http://www.garmin.com/xmlschemas/TrackPointExtension/v1">
            <gpxtpx:hr>90</gpxtpx:hr>
          </gpxtpx:TrackPointExtension>
        </extensions>
      </trkpt>
      <trkpt lat="45.55788" lon="2.75165">
        <ele>1191.4000244141</ele>
        <time>2024-05-26T08:32:23.000Z</time>
        <extensions>
          <gpxtpx:TrackPointExtension xmlns:gpxtpx="http://www.garmin.com/xmlschemas/TrackPointExtension/v1">
            <gpxtpx:hr>91</gpxtpx:hr>
          </gpxtpx:TrackPointExtension>
        </extensions>
      </trkpt>
      <trkpt lat="45.5578" lon="2.75173">
        <ele>1190.4000244141</ele>
        <time>2024-05-26T08:32:24.000Z</time>
        <extensions>
          <gpxtpx:TrackPointExtension xmlns:gpxtpx="http://www.garmin.com/xmlschemas/TrackPointExtension/v1">
            <gpxtpx:hr>91</gpxtpx:hr>
          </gpxtpx:TrackPointExtension>
        </extensions>
      </trkpt>
      <trkpt lat="45.55774" lon="2.75179">
        <ele>1190</ele>
        <time>2024-05-26T08:32:25.000Z</time>
        <extensions>
          <gpxtpx:TrackPointExtension xmlns:gpxtpx="http://www.garmin.com/xmlschemas/TrackPointExtension/v1">
            <gpxtpx:hr>91</gpxtpx:hr>
          </gpxtpx:TrackPointExtension>
        </extensions>
      </trkpt>
      <trkpt lat="45.55767" lon="2.75187">
        <ele>1189.5999755859</ele>
        <time>2024-05-26T08:32:26.000Z</time>
        <extensions>
          <gpxtpx:TrackPointExtension xmlns:gpxtpx="http://www.garmin.com/xmlschemas/TrackPointExtension/v1">
            <gpxtpx:hr>92</gpxtpx:hr>
          </gpxtpx:TrackPointExtension>
        </extensions>
      </trkpt>
      <trkpt lat="45.55751" lon="2.75201">
        <ele>1188.4000244141</ele>
        <time>2024-05-26T08:32:28.000Z</time>
        <extensions>
          <gpxtpx:TrackPointExtension xmlns:gpxtpx="http://www.garmin.com/xmlschemas/TrackPointExtension/v1">
            <gpxtpx:hr>90</gpxtpx:hr>
          </gpxtpx:TrackPointExtension>
        </extensions>
      </trkpt>
      <trkpt lat="45.55735" lon="2.75216">
        <ele>1188</ele>
        <time>2024-05-26T08:32:30.000Z</time>
        <extensions>
          <gpxtpx:TrackPointExtension xmlns:gpxtpx="http://www.garmin.com/xmlschemas/TrackPointExtension/v1">
            <gpxtpx:hr>93</gpxtpx:hr>
          </gpxtpx:TrackPointExtension>
        </extensions>
      </trkpt>
      <trkpt lat="45.55726" lon="2.75225">
        <ele>1187.8000488281</ele>
        <time>2024-05-26T08:32:31.000Z</time>
        <extensions>
          <gpxtpx:TrackPointExtension xmlns:gpxtpx="http://www.garmin.com/xmlschemas/TrackPointExtension/v1">
            <gpxtpx:hr>93</gpxtpx:hr>
          </gpxtpx:TrackPointExtension>
        </extensions>
      </trkpt>
      <trkpt lat="45.5572" lon="2.75234">
        <ele>1187.1999511719</ele>
        <time>2024-05-26T08:32:32.000Z</time>
        <extensions>
          <gpxtpx:TrackPointExtension xmlns:gpxtpx="http://www.garmin.com/xmlschemas/TrackPointExtension/v1">
            <gpxtpx:hr>93</gpxtpx:hr>
          </gpxtpx:TrackPointExtension>
        </extensions>
      </trkpt>
      <trkpt lat="45.55714" lon="2.75243">
        <ele>1187.1999511719</ele>
        <time>2024-05-26T08:32:33.000Z</time>
        <extensions>
          <gpxtpx:TrackPointExtension xmlns:gpxtpx="http://www.garmin.com/xmlschemas/TrackPointExtension/v1">
            <gpxtpx:hr>94</gpxtpx:hr>
          </gpxtpx:TrackPointExtension>
        </extensions>
      </trkpt>
      <trkpt lat="45.557" lon="2.7526">
        <ele>1186.5999755859</ele>
        <time>2024-05-26T08:32:35.000Z</time>
        <extensions>
          <gpxtpx:TrackPointExtension xmlns:gpxtpx="http://www.garmin.com/xmlschemas/TrackPointExtension/v1">
            <gpxtpx:hr>95</gpxtpx:hr>
          </gpxtpx:TrackPointExtension>
        </extensions>
      </trkpt>
      <trkpt lat="45.55695" lon="2.75269">
        <ele>1186.1999511719</ele>
        <time>2024-05-26T08:32:36.000Z</time>
        <extensions>
          <gpxtpx:TrackPointExtension xmlns:gpxtpx="http://www.garmin.com/xmlschemas/TrackPointExtension/v1">
            <gpxtpx:hr>95</gpxtpx:hr>
          </gpxtpx:TrackPointExtension>
        </extensions>
      </trkpt>
      <trkpt lat="45.5569" lon="2.75276">
        <ele>1185.5999755859</ele>
        <time>2024-05-26T08:32:37.000Z</time>
        <extensions>
          <gpxtpx:TrackPointExtension xmlns:gpxtpx="http://www.garmin.com/xmlschemas/TrackPointExtension/v1">
            <gpxtpx:hr>97</gpxtpx:hr>
          </gpxtpx:TrackPointExtension>
        </extensions>
      </trkpt>
      <trkpt lat="45.55678" lon="2.75291">
        <ele>1185.1999511719</ele>
        <time>2024-05-26T08:32:39.000Z</time>
        <extensions>
          <gpxtpx:TrackPointExtension xmlns:gpxtpx="http://www.garmin.com/xmlschemas/TrackPointExtension/v1">
            <gpxtpx:hr>99</gpxtpx:hr>
          </gpxtpx:TrackPointExtension>
        </extensions>
      </trkpt>
      <trkpt lat="45.55665" lon="2.75304">
        <ele>1183.4000244141</ele>
        <time>2024-05-26T08:32:41.000Z</time>
        <extensions>
          <gpxtpx:TrackPointExtension xmlns:gpxtpx="http://www.garmin.com/xmlschemas/TrackPointExtension/v1">
            <gpxtpx:hr>99</gpxtpx:hr>
          </gpxtpx:TrackPointExtension>
        </extensions>
      </trkpt>
      <trkpt lat="45.55658" lon="2.75311">
        <ele>1182.8000488281</ele>
        <time>2024-05-26T08:32:42.000Z</time>
        <extensions>
          <gpxtpx:TrackPointExtension xmlns:gpxtpx="http://www.garmin.com/xmlschemas/TrackPointExtension/v1">
            <gpxtpx:hr>99</gpxtpx:hr>
          </gpxtpx:TrackPointExtension>
        </extensions>
      </trkpt>
      <trkpt lat="45.55643" lon="2.75324">
        <ele>1181.8000488281</ele>
        <time>2024-05-26T08:32:44.000Z</time>
        <extensions>
          <gpxtpx:TrackPointExtension xmlns:gpxtpx="http://www.garmin.com/xmlschemas/TrackPointExtension/v1">
            <gpxtpx:hr>99</gpxtpx:hr>
          </gpxtpx:TrackPointExtension>
        </extensions>
      </trkpt>
      <trkpt lat="45.55626" lon="2.75346">
        <ele>1180.5999755859</ele>
        <time>2024-05-26T08:32:47.000Z</time>
        <extensions>
          <gpxtpx:TrackPointExtension xmlns:gpxtpx="http://www.garmin.com/xmlschemas/TrackPointExtension/v1">
            <gpxtpx:hr>98</gpxtpx:hr>
          </gpxtpx:TrackPointExtension>
        </extensions>
      </trkpt>
      <trkpt lat="45.55611" lon="2.75378">
        <ele>1179.5999755859</ele>
        <time>2024-05-26T08:32:51.000Z</time>
        <extensions>
          <gpxtpx:TrackPointExtension xmlns:gpxtpx="http://www.garmin.com/xmlschemas/TrackPointExtension/v1">
            <gpxtpx:hr>98</gpxtpx:hr>
          </gpxtpx:TrackPointExtension>
        </extensions>
      </trkpt>
      <trkpt lat="45.55604" lon="2.75395">
        <ele>1178.5999755859</ele>
        <time>2024-05-26T08:32:53.000Z</time>
        <extensions>
          <gpxtpx:TrackPointExtension xmlns:gpxtpx="http://www.garmin.com/xmlschemas/TrackPointExtension/v1">
            <gpxtpx:hr>97</gpxtpx:hr>
          </gpxtpx:TrackPointExtension>
        </extensions>
      </trkpt>
      <trkpt lat="45.556" lon="2.75404">
        <ele>1178.1999511719</ele>
        <time>2024-05-26T08:32:54.000Z</time>
        <extensions>
          <gpxtpx:TrackPointExtension xmlns:gpxtpx="http://www.garmin.com/xmlschemas/TrackPointExtension/v1">
            <gpxtpx:hr>97</gpxtpx:hr>
          </gpxtpx:TrackPointExtension>
        </extensions>
      </trkpt>
      <trkpt lat="45.55589" lon="2.75426">
        <ele>1177.5999755859</ele>
        <time>2024-05-26T08:32:57.000Z</time>
        <extensions>
          <gpxtpx:TrackPointExtension xmlns:gpxtpx="http://www.garmin.com/xmlschemas/TrackPointExtension/v1">
            <gpxtpx:hr>96</gpxtpx:hr>
          </gpxtpx:TrackPointExtension>
        </extensions>
      </trkpt>
      <trkpt lat="45.55584" lon="2.75432">
        <ele>1177.4000244141</ele>
        <time>2024-05-26T08:32:58.000Z</time>
        <extensions>
          <gpxtpx:TrackPointExtension xmlns:gpxtpx="http://www.garmin.com/xmlschemas/TrackPointExtension/v1">
            <gpxtpx:hr>96</gpxtpx:hr>
          </gpxtpx:TrackPointExtension>
        </extensions>
      </trkpt>
      <trkpt lat="45.55578" lon="2.75437">
        <ele>1176.5999755859</ele>
        <time>2024-05-26T08:32:59.000Z</time>
        <extensions>
          <gpxtpx:TrackPointExtension xmlns:gpxtpx="http://www.garmin.com/xmlschemas/TrackPointExtension/v1">
            <gpxtpx:hr>96</gpxtpx:hr>
          </gpxtpx:TrackPointExtension>
        </extensions>
      </trkpt>
      <trkpt lat="45.55572" lon="2.75443">
        <ele>1175</ele>
        <time>2024-05-26T08:33:00.000Z</time>
        <extensions>
          <gpxtpx:TrackPointExtension xmlns:gpxtpx="http://www.garmin.com/xmlschemas/TrackPointExtension/v1">
            <gpxtpx:hr>96</gpxtpx:hr>
          </gpxtpx:TrackPointExtension>
        </extensions>
      </trkpt>
      <trkpt lat="45.55562" lon="2.75455">
        <ele>1174.4000244141</ele>
        <time>2024-05-26T08:33:02.000Z</time>
        <extensions>
          <gpxtpx:TrackPointExtension xmlns:gpxtpx="http://www.garmin.com/xmlschemas/TrackPointExtension/v1">
            <gpxtpx:hr>94</gpxtpx:hr>
          </gpxtpx:TrackPointExtension>
        </extensions>
      </trkpt>
      <trkpt lat="45.55557" lon="2.75463">
        <ele>1173</ele>
        <time>2024-05-26T08:33:03.000Z</time>
        <extensions>
          <gpxtpx:TrackPointExtension xmlns:gpxtpx="http://www.garmin.com/xmlschemas/TrackPointExtension/v1">
            <gpxtpx:hr>95</gpxtpx:hr>
          </gpxtpx:TrackPointExtension>
        </extensions>
      </trkpt>
      <trkpt lat="45.55552" lon="2.75472">
        <ele>1172.8000488281</ele>
        <time>2024-05-26T08:33:04.000Z</time>
        <extensions>
          <gpxtpx:TrackPointExtension xmlns:gpxtpx="http://www.garmin.com/xmlschemas/TrackPointExtension/v1">
            <gpxtpx:hr>96</gpxtpx:hr>
          </gpxtpx:TrackPointExtension>
        </extensions>
      </trkpt>
      <trkpt lat="45.55546" lon="2.75492">
        <ele>1172.5999755859</ele>
        <time>2024-05-26T08:33:06.000Z</time>
        <extensions>
          <gpxtpx:TrackPointExtension xmlns:gpxtpx="http://www.garmin.com/xmlschemas/TrackPointExtension/v1">
            <gpxtpx:hr>95</gpxtpx:hr>
          </gpxtpx:TrackPointExtension>
        </extensions>
      </trkpt>
      <trkpt lat="45.55538" lon="2.75533">
        <ele>1171.5999755859</ele>
        <time>2024-05-26T08:33:10.000Z</time>
        <extensions>
          <gpxtpx:TrackPointExtension xmlns:gpxtpx="http://www.garmin.com/xmlschemas/TrackPointExtension/v1">
            <gpxtpx:hr>98</gpxtpx:hr>
          </gpxtpx:TrackPointExtension>
        </extensions>
      </trkpt>
      <trkpt lat="45.55535" lon="2.75543">
        <ele>1171</ele>
        <time>2024-05-26T08:33:11.000Z</time>
        <extensions>
          <gpxtpx:TrackPointExtension xmlns:gpxtpx="http://www.garmin.com/xmlschemas/TrackPointExtension/v1">
            <gpxtpx:hr>97</gpxtpx:hr>
          </gpxtpx:TrackPointExtension>
        </extensions>
      </trkpt>
      <trkpt lat="45.55533" lon="2.75553">
        <ele>1170.4000244141</ele>
        <time>2024-05-26T08:33:12.000Z</time>
        <extensions>
          <gpxtpx:TrackPointExtension xmlns:gpxtpx="http://www.garmin.com/xmlschemas/TrackPointExtension/v1">
            <gpxtpx:hr>97</gpxtpx:hr>
          </gpxtpx:TrackPointExtension>
        </extensions>
      </trkpt>
      <trkpt lat="45.55527" lon="2.75584">
        <ele>1169.4000244141</ele>
        <time>2024-05-26T08:33:15.000Z</time>
        <extensions>
          <gpxtpx:TrackPointExtension xmlns:gpxtpx="http://www.garmin.com/xmlschemas/TrackPointExtension/v1">
            <gpxtpx:hr>94</gpxtpx:hr>
          </gpxtpx:TrackPointExtension>
        </extensions>
      </trkpt>
      <trkpt lat="45.55526" lon="2.75595">
        <ele>1169.1999511719</ele>
        <time>2024-05-26T08:33:16.000Z</time>
        <extensions>
          <gpxtpx:TrackPointExtension xmlns:gpxtpx="http://www.garmin.com/xmlschemas/TrackPointExtension/v1">
            <gpxtpx:hr>94</gpxtpx:hr>
          </gpxtpx:TrackPointExtension>
        </extensions>
      </trkpt>
      <trkpt lat="45.55527" lon="2.75615">
        <ele>1168</ele>
        <time>2024-05-26T08:33:18.000Z</time>
        <extensions>
          <gpxtpx:TrackPointExtension xmlns:gpxtpx="http://www.garmin.com/xmlschemas/TrackPointExtension/v1">
            <gpxtpx:hr>91</gpxtpx:hr>
          </gpxtpx:TrackPointExtension>
        </extensions>
      </trkpt>
      <trkpt lat="45.55531" lon="2.75635">
        <ele>1167.1999511719</ele>
        <time>2024-05-26T08:33:20.000Z</time>
        <extensions>
          <gpxtpx:TrackPointExtension xmlns:gpxtpx="http://www.garmin.com/xmlschemas/TrackPointExtension/v1">
            <gpxtpx:hr>89</gpxtpx:hr>
          </gpxtpx:TrackPointExtension>
        </extensions>
      </trkpt>
      <trkpt lat="45.55534" lon="2.75645">
        <ele>1166.8000488281</ele>
        <time>2024-05-26T08:33:21.000Z</time>
        <extensions>
          <gpxtpx:TrackPointExtension xmlns:gpxtpx="http://www.garmin.com/xmlschemas/TrackPointExtension/v1">
            <gpxtpx:hr>88</gpxtpx:hr>
          </gpxtpx:TrackPointExtension>
        </extensions>
      </trkpt>
      <trkpt lat="45.55541" lon="2.75665">
        <ele>1166</ele>
        <time>2024-05-26T08:33:23.000Z</time>
        <extensions>
          <gpxtpx:TrackPointExtension xmlns:gpxtpx="http://www.garmin.com/xmlschemas/TrackPointExtension/v1">
            <gpxtpx:hr>84</gpxtpx:hr>
          </gpxtpx:TrackPointExtension>
        </extensions>
      </trkpt>
      <trkpt lat="45.55544" lon="2.75676">
        <ele>1165.5999755859</ele>
        <time>2024-05-26T08:33:24.000Z</time>
        <extensions>
          <gpxtpx:TrackPointExtension xmlns:gpxtpx="http://www.garmin.com/xmlschemas/TrackPointExtension/v1">
            <gpxtpx:hr>84</gpxtpx:hr>
          </gpxtpx:TrackPointExtension>
        </extensions>
      </trkpt>
      <trkpt lat="45.55547" lon="2.75687">
        <ele>1164.8000488281</ele>
        <time>2024-05-26T08:33:25.000Z</time>
        <extensions>
          <gpxtpx:TrackPointExtension xmlns:gpxtpx="http://www.garmin.com/xmlschemas/TrackPointExtension/v1">
            <gpxtpx:hr>83</gpxtpx:hr>
          </gpxtpx:TrackPointExtension>
        </extensions>
      </trkpt>
      <trkpt lat="45.55549" lon="2.75697">
        <ele>1164.5999755859</ele>
        <time>2024-05-26T08:33:26.000Z</time>
        <extensions>
          <gpxtpx:TrackPointExtension xmlns:gpxtpx="http://www.garmin.com/xmlschemas/TrackPointExtension/v1">
            <gpxtpx:hr>83</gpxtpx:hr>
          </gpxtpx:TrackPointExtension>
        </extensions>
      </trkpt>
      <trkpt lat="45.55552" lon="2.75709">
        <ele>1163.8000488281</ele>
        <time>2024-05-26T08:33:27.000Z</time>
        <extensions>
          <gpxtpx:TrackPointExtension xmlns:gpxtpx="http://www.garmin.com/xmlschemas/TrackPointExtension/v1">
            <gpxtpx:hr>83</gpxtpx:hr>
          </gpxtpx:TrackPointExtension>
        </extensions>
      </trkpt>
      <trkpt lat="45.55557" lon="2.75733">
        <ele>1162.5999755859</ele>
        <time>2024-05-26T08:33:29.000Z</time>
        <extensions>
          <gpxtpx:TrackPointExtension xmlns:gpxtpx="http://www.garmin.com/xmlschemas/TrackPointExtension/v1">
            <gpxtpx:hr>83</gpxtpx:hr>
          </gpxtpx:TrackPointExtension>
        </extensions>
      </trkpt>
      <trkpt lat="45.55559" lon="2.75745">
        <ele>1162.1999511719</ele>
        <time>2024-05-26T08:33:30.000Z</time>
        <extensions>
          <gpxtpx:TrackPointExtension xmlns:gpxtpx="http://www.garmin.com/xmlschemas/TrackPointExtension/v1">
            <gpxtpx:hr>85</gpxtpx:hr>
          </gpxtpx:TrackPointExtension>
        </extensions>
      </trkpt>
      <trkpt lat="45.55573" lon="2.75778">
        <ele>1161.4000244141</ele>
        <time>2024-05-26T08:33:33.000Z</time>
        <extensions>
          <gpxtpx:TrackPointExtension xmlns:gpxtpx="http://www.garmin.com/xmlschemas/TrackPointExtension/v1">
            <gpxtpx:hr>84</gpxtpx:hr>
          </gpxtpx:TrackPointExtension>
        </extensions>
      </trkpt>
      <trkpt lat="45.55579" lon="2.75789">
        <ele>1161</ele>
        <time>2024-05-26T08:33:34.000Z</time>
        <extensions>
          <gpxtpx:TrackPointExtension xmlns:gpxtpx="http://www.garmin.com/xmlschemas/TrackPointExtension/v1">
            <gpxtpx:hr>84</gpxtpx:hr>
          </gpxtpx:TrackPointExtension>
        </extensions>
      </trkpt>
      <trkpt lat="45.55591" lon="2.75811">
        <ele>1160.4000244141</ele>
        <time>2024-05-26T08:33:36.000Z</time>
        <extensions>
          <gpxtpx:TrackPointExtension xmlns:gpxtpx="http://www.garmin.com/xmlschemas/TrackPointExtension/v1">
            <gpxtpx:hr>86</gpxtpx:hr>
          </gpxtpx:TrackPointExtension>
        </extensions>
      </trkpt>
      <trkpt lat="45.55603" lon="2.75831">
        <ele>1159.8000488281</ele>
        <time>2024-05-26T08:33:38.000Z</time>
        <extensions>
          <gpxtpx:TrackPointExtension xmlns:gpxtpx="http://www.garmin.com/xmlschemas/TrackPointExtension/v1">
            <gpxtpx:hr>86</gpxtpx:hr>
          </gpxtpx:TrackPointExtension>
        </extensions>
      </trkpt>
      <trkpt lat="45.55616" lon="2.75847">
        <ele>1159.4000244141</ele>
        <time>2024-05-26T08:33:40.000Z</time>
        <extensions>
          <gpxtpx:TrackPointExtension xmlns:gpxtpx="http://www.garmin.com/xmlschemas/TrackPointExtension/v1">
            <gpxtpx:hr>86</gpxtpx:hr>
          </gpxtpx:TrackPointExtension>
        </extensions>
      </trkpt>
      <trkpt lat="45.55623" lon="2.75855">
        <ele>1159</ele>
        <time>2024-05-26T08:33:41.000Z</time>
        <extensions>
          <gpxtpx:TrackPointExtension xmlns:gpxtpx="http://www.garmin.com/xmlschemas/TrackPointExtension/v1">
            <gpxtpx:hr>85</gpxtpx:hr>
          </gpxtpx:TrackPointExtension>
        </extensions>
      </trkpt>
      <trkpt lat="45.55652" lon="2.75886">
        <ele>1157.8000488281</ele>
        <time>2024-05-26T08:33:45.000Z</time>
        <extensions>
          <gpxtpx:TrackPointExtension xmlns:gpxtpx="http://www.garmin.com/xmlschemas/TrackPointExtension/v1">
            <gpxtpx:hr>88</gpxtpx:hr>
          </gpxtpx:TrackPointExtension>
        </extensions>
      </trkpt>
      <trkpt lat="45.55659" lon="2.7589">
        <ele>1157.5999755859</ele>
        <time>2024-05-26T08:33:46.000Z</time>
        <extensions>
          <gpxtpx:TrackPointExtension xmlns:gpxtpx="http://www.garmin.com/xmlschemas/TrackPointExtension/v1">
            <gpxtpx:hr>88</gpxtpx:hr>
          </gpxtpx:TrackPointExtension>
        </extensions>
      </trkpt>
      <trkpt lat="45.55673" lon="2.75884">
        <ele>1158.4000244141</ele>
        <time>2024-05-26T08:33:48.000Z</time>
        <extensions>
          <gpxtpx:TrackPointExtension xmlns:gpxtpx="http://www.garmin.com/xmlschemas/TrackPointExtension/v1">
            <gpxtpx:hr>88</gpxtpx:hr>
          </gpxtpx:TrackPointExtension>
        </extensions>
      </trkpt>
      <trkpt lat="45.55679" lon="2.75877">
        <ele>1159</ele>
        <time>2024-05-26T08:33:49.000Z</time>
        <extensions>
          <gpxtpx:TrackPointExtension xmlns:gpxtpx="http://www.garmin.com/xmlschemas/TrackPointExtension/v1">
            <gpxtpx:hr>90</gpxtpx:hr>
          </gpxtpx:TrackPointExtension>
        </extensions>
      </trkpt>
      <trkpt lat="45.55692" lon="2.75861">
        <ele>1159.4000244141</ele>
        <time>2024-05-26T08:33:51.000Z</time>
        <extensions>
          <gpxtpx:TrackPointExtension xmlns:gpxtpx="http://www.garmin.com/xmlschemas/TrackPointExtension/v1">
            <gpxtpx:hr>89</gpxtpx:hr>
          </gpxtpx:TrackPointExtension>
        </extensions>
      </trkpt>
      <trkpt lat="45.55698" lon="2.75851">
        <ele>1159.4000244141</ele>
        <time>2024-05-26T08:33:52.000Z</time>
        <extensions>
          <gpxtpx:TrackPointExtension xmlns:gpxtpx="http://www.garmin.com/xmlschemas/TrackPointExtension/v1">
            <gpxtpx:hr>89</gpxtpx:hr>
          </gpxtpx:TrackPointExtension>
        </extensions>
      </trkpt>
      <trkpt lat="45.55715" lon="2.75827">
        <ele>1159</ele>
        <time>2024-05-26T08:33:55.000Z</time>
        <extensions>
          <gpxtpx:TrackPointExtension xmlns:gpxtpx="http://www.garmin.com/xmlschemas/TrackPointExtension/v1">
            <gpxtpx:hr>91</gpxtpx:hr>
          </gpxtpx:TrackPointExtension>
        </extensions>
      </trkpt>
      <trkpt lat="45.55722" lon="2.75821">
        <ele>1158.8000488281</ele>
        <time>2024-05-26T08:33:56.000Z</time>
        <extensions>
          <gpxtpx:TrackPointExtension xmlns:gpxtpx="http://www.garmin.com/xmlschemas/TrackPointExtension/v1">
            <gpxtpx:hr>89</gpxtpx:hr>
          </gpxtpx:TrackPointExtension>
        </extensions>
      </trkpt>
      <trkpt lat="45.55737" lon="2.75809">
        <ele>1158</ele>
        <time>2024-05-26T08:33:58.000Z</time>
        <extensions>
          <gpxtpx:TrackPointExtension xmlns:gpxtpx="http://www.garmin.com/xmlschemas/TrackPointExtension/v1">
            <gpxtpx:hr>92</gpxtpx:hr>
          </gpxtpx:TrackPointExtension>
        </extensions>
      </trkpt>
      <trkpt lat="45.55744" lon="2.75803">
        <ele>1157.8000488281</ele>
        <time>2024-05-26T08:33:59.000Z</time>
        <extensions>
          <gpxtpx:TrackPointExtension xmlns:gpxtpx="http://www.garmin.com/xmlschemas/TrackPointExtension/v1">
            <gpxtpx:hr>91</gpxtpx:hr>
          </gpxtpx:TrackPointExtension>
        </extensions>
      </trkpt>
      <trkpt lat="45.55758" lon="2.75788">
        <ele>1157.5999755859</ele>
        <time>2024-05-26T08:34:01.000Z</time>
        <extensions>
          <gpxtpx:TrackPointExtension xmlns:gpxtpx="http://www.garmin.com/xmlschemas/TrackPointExtension/v1">
            <gpxtpx:hr>94</gpxtpx:hr>
          </gpxtpx:TrackPointExtension>
        </extensions>
      </trkpt>
      <trkpt lat="45.55764" lon="2.75781">
        <ele>1157.5999755859</ele>
        <time>2024-05-26T08:34:02.000Z</time>
        <extensions>
          <gpxtpx:TrackPointExtension xmlns:gpxtpx="http://www.garmin.com/xmlschemas/TrackPointExtension/v1">
            <gpxtpx:hr>95</gpxtpx:hr>
          </gpxtpx:TrackPointExtension>
        </extensions>
      </trkpt>
      <trkpt lat="45.55785" lon="2.75761">
        <ele>1157.8000488281</ele>
        <time>2024-05-26T08:34:05.000Z</time>
        <extensions>
          <gpxtpx:TrackPointExtension xmlns:gpxtpx="http://www.garmin.com/xmlschemas/TrackPointExtension/v1">
            <gpxtpx:hr>96</gpxtpx:hr>
          </gpxtpx:TrackPointExtension>
        </extensions>
      </trkpt>
      <trkpt lat="45.55793" lon="2.75756">
        <ele>1159</ele>
        <time>2024-05-26T08:34:06.000Z</time>
        <extensions>
          <gpxtpx:TrackPointExtension xmlns:gpxtpx="http://www.garmin.com/xmlschemas/TrackPointExtension/v1">
            <gpxtpx:hr>95</gpxtpx:hr>
          </gpxtpx:TrackPointExtension>
        </extensions>
      </trkpt>
      <trkpt lat="45.55801" lon="2.75754">
        <ele>1159.1999511719</ele>
        <time>2024-05-26T08:34:07.000Z</time>
        <extensions>
          <gpxtpx:TrackPointExtension xmlns:gpxtpx="http://www.garmin.com/xmlschemas/TrackPointExtension/v1">
            <gpxtpx:hr>96</gpxtpx:hr>
          </gpxtpx:TrackPointExtension>
        </extensions>
      </trkpt>
      <trkpt lat="45.55809" lon="2.75752">
        <ele>1159.1999511719</ele>
        <time>2024-05-26T08:34:08.000Z</time>
        <extensions>
          <gpxtpx:TrackPointExtension xmlns:gpxtpx="http://www.garmin.com/xmlschemas/TrackPointExtension/v1">
            <gpxtpx:hr>97</gpxtpx:hr>
          </gpxtpx:TrackPointExtension>
        </extensions>
      </trkpt>
      <trkpt lat="45.55834" lon="2.75747">
        <ele>1159.1999511719</ele>
        <time>2024-05-26T08:34:11.000Z</time>
        <extensions>
          <gpxtpx:TrackPointExtension xmlns:gpxtpx="http://www.garmin.com/xmlschemas/TrackPointExtension/v1">
            <gpxtpx:hr>97</gpxtpx:hr>
          </gpxtpx:TrackPointExtension>
        </extensions>
      </trkpt>
      <trkpt lat="45.55848" lon="2.75741">
        <ele>1159</ele>
        <time>2024-05-26T08:34:13.000Z</time>
        <extensions>
          <gpxtpx:TrackPointExtension xmlns:gpxtpx="http://www.garmin.com/xmlschemas/TrackPointExtension/v1">
            <gpxtpx:hr>97</gpxtpx:hr>
          </gpxtpx:TrackPointExtension>
        </extensions>
      </trkpt>
      <trkpt lat="45.55861" lon="2.75732">
        <ele>1158.8000488281</ele>
        <time>2024-05-26T08:34:15.000Z</time>
        <extensions>
          <gpxtpx:TrackPointExtension xmlns:gpxtpx="http://www.garmin.com/xmlschemas/TrackPointExtension/v1">
            <gpxtpx:hr>97</gpxtpx:hr>
          </gpxtpx:TrackPointExtension>
        </extensions>
      </trkpt>
      <trkpt lat="45.5588" lon="2.75713">
        <ele>1157.8000488281</ele>
        <time>2024-05-26T08:34:18.000Z</time>
        <extensions>
          <gpxtpx:TrackPointExtension xmlns:gpxtpx="http://www.garmin.com/xmlschemas/TrackPointExtension/v1">
            <gpxtpx:hr>95</gpxtpx:hr>
          </gpxtpx:TrackPointExtension>
        </extensions>
      </trkpt>
      <trkpt lat="45.55887" lon="2.75707">
        <ele>1157.8000488281</ele>
        <time>2024-05-26T08:34:19.000Z</time>
        <extensions>
          <gpxtpx:TrackPointExtension xmlns:gpxtpx="http://www.garmin.com/xmlschemas/TrackPointExtension/v1">
            <gpxtpx:hr>97</gpxtpx:hr>
          </gpxtpx:TrackPointExtension>
        </extensions>
      </trkpt>
      <trkpt lat="45.55895" lon="2.75702">
        <ele>1157.8000488281</ele>
        <time>2024-05-26T08:34:20.000Z</time>
        <extensions>
          <gpxtpx:TrackPointExtension xmlns:gpxtpx="http://www.garmin.com/xmlschemas/TrackPointExtension/v1">
            <gpxtpx:hr>97</gpxtpx:hr>
          </gpxtpx:TrackPointExtension>
        </extensions>
      </trkpt>
      <trkpt lat="45.55926" lon="2.75683">
        <ele>1159.1999511719</ele>
        <time>2024-05-26T08:34:24.000Z</time>
        <extensions>
          <gpxtpx:TrackPointExtension xmlns:gpxtpx="http://www.garmin.com/xmlschemas/TrackPointExtension/v1">
            <gpxtpx:hr>100</gpxtpx:hr>
          </gpxtpx:TrackPointExtension>
        </extensions>
      </trkpt>
      <trkpt lat="45.55943" lon="2.75672">
        <ele>1159.4000244141</ele>
        <time>2024-05-26T08:34:26.000Z</time>
        <extensions>
          <gpxtpx:TrackPointExtension xmlns:gpxtpx="http://www.garmin.com/xmlschemas/TrackPointExtension/v1">
            <gpxtpx:hr>102</gpxtpx:hr>
          </gpxtpx:TrackPointExtension>
        </extensions>
      </trkpt>
      <trkpt lat="45.55967" lon="2.75662">
        <ele>1159.5999755859</ele>
        <time>2024-05-26T08:34:29.000Z</time>
        <extensions>
          <gpxtpx:TrackPointExtension xmlns:gpxtpx="http://www.garmin.com/xmlschemas/TrackPointExtension/v1">
            <gpxtpx:hr>105</gpxtpx:hr>
          </gpxtpx:TrackPointExtension>
        </extensions>
      </trkpt>
      <trkpt lat="45.55989" lon="2.75655">
        <ele>1159.5999755859</ele>
        <time>2024-05-26T08:34:32.000Z</time>
        <extensions>
          <gpxtpx:TrackPointExtension xmlns:gpxtpx="http://www.garmin.com/xmlschemas/TrackPointExtension/v1">
            <gpxtpx:hr>107</gpxtpx:hr>
          </gpxtpx:TrackPointExtension>
        </extensions>
      </trkpt>
      <trkpt lat="45.56042" lon="2.75649">
        <ele>1159.4000244141</ele>
        <time>2024-05-26T08:34:38.000Z</time>
        <extensions>
          <gpxtpx:TrackPointExtension xmlns:gpxtpx="http://www.garmin.com/xmlschemas/TrackPointExtension/v1">
            <gpxtpx:hr>108</gpxtpx:hr>
          </gpxtpx:TrackPointExtension>
        </extensions>
      </trkpt>
      <trkpt lat="45.56076" lon="2.75646">
        <ele>1158.8000488281</ele>
        <time>2024-05-26T08:34:42.000Z</time>
        <extensions>
          <gpxtpx:TrackPointExtension xmlns:gpxtpx="http://www.garmin.com/xmlschemas/TrackPointExtension/v1">
            <gpxtpx:hr>111</gpxtpx:hr>
          </gpxtpx:TrackPointExtension>
        </extensions>
      </trkpt>
      <trkpt lat="45.56093" lon="2.75643">
        <ele>1158.5999755859</ele>
        <time>2024-05-26T08:34:44.000Z</time>
        <extensions>
          <gpxtpx:TrackPointExtension xmlns:gpxtpx="http://www.garmin.com/xmlschemas/TrackPointExtension/v1">
            <gpxtpx:hr>111</gpxtpx:hr>
          </gpxtpx:TrackPointExtension>
        </extensions>
      </trkpt>
      <trkpt lat="45.56112" lon="2.75642">
        <ele>1158.5999755859</ele>
        <time>2024-05-26T08:34:46.000Z</time>
        <extensions>
          <gpxtpx:TrackPointExtension xmlns:gpxtpx="http://www.garmin.com/xmlschemas/TrackPointExtension/v1">
            <gpxtpx:hr>114</gpxtpx:hr>
          </gpxtpx:TrackPointExtension>
        </extensions>
      </trkpt>
      <trkpt lat="45.56145" lon="2.75645">
        <ele>1158.5999755859</ele>
        <time>2024-05-26T08:34:50.000Z</time>
        <extensions>
          <gpxtpx:TrackPointExtension xmlns:gpxtpx="http://www.garmin.com/xmlschemas/TrackPointExtension/v1">
            <gpxtpx:hr>116</gpxtpx:hr>
          </gpxtpx:TrackPointExtension>
        </extensions>
      </trkpt>
      <trkpt lat="45.56179" lon="2.75649">
        <ele>1158.8000488281</ele>
        <time>2024-05-26T08:34:54.000Z</time>
        <extensions>
          <gpxtpx:TrackPointExtension xmlns:gpxtpx="http://www.garmin.com/xmlschemas/TrackPointExtension/v1">
            <gpxtpx:hr>116</gpxtpx:hr>
          </gpxtpx:TrackPointExtension>
        </extensions>
      </trkpt>
      <trkpt lat="45.56197" lon="2.75651">
        <ele>1158.8000488281</ele>
        <time>2024-05-26T08:34:56.000Z</time>
        <extensions>
          <gpxtpx:TrackPointExtension xmlns:gpxtpx="http://www.garmin.com/xmlschemas/TrackPointExtension/v1">
            <gpxtpx:hr>116</gpxtpx:hr>
          </gpxtpx:TrackPointExtension>
        </extensions>
      </trkpt>
      <trkpt lat="45.56213" lon="2.75651">
        <ele>1159</ele>
        <time>2024-05-26T08:34:58.000Z</time>
        <extensions>
          <gpxtpx:TrackPointExtension xmlns:gpxtpx="http://www.garmin.com/xmlschemas/TrackPointExtension/v1">
            <gpxtpx:hr>119</gpxtpx:hr>
          </gpxtpx:TrackPointExtension>
        </extensions>
      </trkpt>
      <trkpt lat="45.5623" lon="2.75651">
        <ele>1158.8000488281</ele>
        <time>2024-05-26T08:35:00.000Z</time>
        <extensions>
          <gpxtpx:TrackPointExtension xmlns:gpxtpx="http://www.garmin.com/xmlschemas/TrackPointExtension/v1">
            <gpxtpx:hr>120</gpxtpx:hr>
          </gpxtpx:TrackPointExtension>
        </extensions>
      </trkpt>
      <trkpt lat="45.56255" lon="2.75655">
        <ele>1158.8000488281</ele>
        <time>2024-05-26T08:35:03.000Z</time>
        <extensions>
          <gpxtpx:TrackPointExtension xmlns:gpxtpx="http://www.garmin.com/xmlschemas/TrackPointExtension/v1">
            <gpxtpx:hr>123</gpxtpx:hr>
          </gpxtpx:TrackPointExtension>
        </extensions>
      </trkpt>
      <trkpt lat="45.56271" lon="2.75659">
        <ele>1158.8000488281</ele>
        <time>2024-05-26T08:35:05.000Z</time>
        <extensions>
          <gpxtpx:TrackPointExtension xmlns:gpxtpx="http://www.garmin.com/xmlschemas/TrackPointExtension/v1">
            <gpxtpx:hr>123</gpxtpx:hr>
          </gpxtpx:TrackPointExtension>
        </extensions>
      </trkpt>
      <trkpt lat="45.56296" lon="2.75663">
        <ele>1159.1999511719</ele>
        <time>2024-05-26T08:35:08.000Z</time>
        <extensions>
          <gpxtpx:TrackPointExtension xmlns:gpxtpx="http://www.garmin.com/xmlschemas/TrackPointExtension/v1">
            <gpxtpx:hr>122</gpxtpx:hr>
          </gpxtpx:TrackPointExtension>
        </extensions>
      </trkpt>
      <trkpt lat="45.56312" lon="2.75665">
        <ele>1159.4000244141</ele>
        <time>2024-05-26T08:35:10.000Z</time>
        <extensions>
          <gpxtpx:TrackPointExtension xmlns:gpxtpx="http://www.garmin.com/xmlschemas/TrackPointExtension/v1">
            <gpxtpx:hr>123</gpxtpx:hr>
          </gpxtpx:TrackPointExtension>
        </extensions>
      </trkpt>
      <trkpt lat="45.56353" lon="2.75674">
        <ele>1159.8000488281</ele>
        <time>2024-05-26T08:35:16.000Z</time>
        <extensions>
          <gpxtpx:TrackPointExtension xmlns:gpxtpx="http://www.garmin.com/xmlschemas/TrackPointExtension/v1">
            <gpxtpx:hr>121</gpxtpx:hr>
          </gpxtpx:TrackPointExtension>
        </extensions>
      </trkpt>
      <trkpt lat="45.56374" lon="2.75674">
        <ele>1159.4000244141</ele>
        <time>2024-05-26T08:35:19.000Z</time>
        <extensions>
          <gpxtpx:TrackPointExtension xmlns:gpxtpx="http://www.garmin.com/xmlschemas/TrackPointExtension/v1">
            <gpxtpx:hr>117</gpxtpx:hr>
          </gpxtpx:TrackPointExtension>
        </extensions>
      </trkpt>
      <trkpt lat="45.5639" lon="2.75672">
        <ele>1158.8000488281</ele>
        <time>2024-05-26T08:35:21.000Z</time>
        <extensions>
          <gpxtpx:TrackPointExtension xmlns:gpxtpx="http://www.garmin.com/xmlschemas/TrackPointExtension/v1">
            <gpxtpx:hr>113</gpxtpx:hr>
          </gpxtpx:TrackPointExtension>
        </extensions>
      </trkpt>
      <trkpt lat="45.56398" lon="2.7567">
        <ele>1158</ele>
        <time>2024-05-26T08:35:22.000Z</time>
        <extensions>
          <gpxtpx:TrackPointExtension xmlns:gpxtpx="http://www.garmin.com/xmlschemas/TrackPointExtension/v1">
            <gpxtpx:hr>113</gpxtpx:hr>
          </gpxtpx:TrackPointExtension>
        </extensions>
      </trkpt>
      <trkpt lat="45.56408" lon="2.75668">
        <ele>1156.5999755859</ele>
        <time>2024-05-26T08:35:23.000Z</time>
        <extensions>
          <gpxtpx:TrackPointExtension xmlns:gpxtpx="http://www.garmin.com/xmlschemas/TrackPointExtension/v1">
            <gpxtpx:hr>112</gpxtpx:hr>
          </gpxtpx:TrackPointExtension>
        </extensions>
      </trkpt>
      <trkpt lat="45.56418" lon="2.75667">
        <ele>1155.4000244141</ele>
        <time>2024-05-26T08:35:24.000Z</time>
        <extensions>
          <gpxtpx:TrackPointExtension xmlns:gpxtpx="http://www.garmin.com/xmlschemas/TrackPointExtension/v1">
            <gpxtpx:hr>112</gpxtpx:hr>
          </gpxtpx:TrackPointExtension>
        </extensions>
      </trkpt>
      <trkpt lat="45.56428" lon="2.75667">
        <ele>1155.1999511719</ele>
        <time>2024-05-26T08:35:25.000Z</time>
        <extensions>
          <gpxtpx:TrackPointExtension xmlns:gpxtpx="http://www.garmin.com/xmlschemas/TrackPointExtension/v1">
            <gpxtpx:hr>112</gpxtpx:hr>
          </gpxtpx:TrackPointExtension>
        </extensions>
      </trkpt>
      <trkpt lat="45.5645" lon="2.75667">
        <ele>1154.1999511719</ele>
        <time>2024-05-26T08:35:27.000Z</time>
        <extensions>
          <gpxtpx:TrackPointExtension xmlns:gpxtpx="http://www.garmin.com/xmlschemas/TrackPointExtension/v1">
            <gpxtpx:hr>111</gpxtpx:hr>
          </gpxtpx:TrackPointExtension>
        </extensions>
      </trkpt>
      <trkpt lat="45.56471" lon="2.7567">
        <ele>1152</ele>
        <time>2024-05-26T08:35:29.000Z</time>
        <extensions>
          <gpxtpx:TrackPointExtension xmlns:gpxtpx="http://www.garmin.com/xmlschemas/TrackPointExtension/v1">
            <gpxtpx:hr>111</gpxtpx:hr>
          </gpxtpx:TrackPointExtension>
        </extensions>
      </trkpt>
      <trkpt lat="45.56481" lon="2.7567">
        <ele>1150.8000488281</ele>
        <time>2024-05-26T08:35:30.000Z</time>
        <extensions>
          <gpxtpx:TrackPointExtension xmlns:gpxtpx="http://www.garmin.com/xmlschemas/TrackPointExtension/v1">
            <gpxtpx:hr>111</gpxtpx:hr>
          </gpxtpx:TrackPointExtension>
        </extensions>
      </trkpt>
      <trkpt lat="45.56492" lon="2.7567">
        <ele>1149.5999755859</ele>
        <time>2024-05-26T08:35:31.000Z</time>
        <extensions>
          <gpxtpx:TrackPointExtension xmlns:gpxtpx="http://www.garmin.com/xmlschemas/TrackPointExtension/v1">
            <gpxtpx:hr>111</gpxtpx:hr>
          </gpxtpx:TrackPointExtension>
        </extensions>
      </trkpt>
      <trkpt lat="45.56514" lon="2.75668">
        <ele>1147.8000488281</ele>
        <time>2024-05-26T08:35:33.000Z</time>
        <extensions>
          <gpxtpx:TrackPointExtension xmlns:gpxtpx="http://www.garmin.com/xmlschemas/TrackPointExtension/v1">
            <gpxtpx:hr>111</gpxtpx:hr>
          </gpxtpx:TrackPointExtension>
        </extensions>
      </trkpt>
      <trkpt lat="45.56537" lon="2.75667">
        <ele>1145</ele>
        <time>2024-05-26T08:35:35.000Z</time>
        <extensions>
          <gpxtpx:TrackPointExtension xmlns:gpxtpx="http://www.garmin.com/xmlschemas/TrackPointExtension/v1">
            <gpxtpx:hr>111</gpxtpx:hr>
          </gpxtpx:TrackPointExtension>
        </extensions>
      </trkpt>
      <trkpt lat="45.5656" lon="2.75671">
        <ele>1143.1999511719</ele>
        <time>2024-05-26T08:35:37.000Z</time>
        <extensions>
          <gpxtpx:TrackPointExtension xmlns:gpxtpx="http://www.garmin.com/xmlschemas/TrackPointExtension/v1">
            <gpxtpx:hr>111</gpxtpx:hr>
          </gpxtpx:TrackPointExtension>
        </extensions>
      </trkpt>
      <trkpt lat="45.56572" lon="2.75674">
        <ele>1139</ele>
        <time>2024-05-26T08:35:38.000Z</time>
        <extensions>
          <gpxtpx:TrackPointExtension xmlns:gpxtpx="http://www.garmin.com/xmlschemas/TrackPointExtension/v1">
            <gpxtpx:hr>111</gpxtpx:hr>
          </gpxtpx:TrackPointExtension>
        </extensions>
      </trkpt>
      <trkpt lat="45.56584" lon="2.75681">
        <ele>1135.8000488281</ele>
        <time>2024-05-26T08:35:39.000Z</time>
        <extensions>
          <gpxtpx:TrackPointExtension xmlns:gpxtpx="http://www.garmin.com/xmlschemas/TrackPointExtension/v1">
            <gpxtpx:hr>111</gpxtpx:hr>
          </gpxtpx:TrackPointExtension>
        </extensions>
      </trkpt>
      <trkpt lat="45.56608" lon="2.75693">
        <ele>1133.1999511719</ele>
        <time>2024-05-26T08:35:41.000Z</time>
        <extensions>
          <gpxtpx:TrackPointExtension xmlns:gpxtpx="http://www.garmin.com/xmlschemas/TrackPointExtension/v1">
            <gpxtpx:hr>111</gpxtpx:hr>
          </gpxtpx:TrackPointExtension>
        </extensions>
      </trkpt>
      <trkpt lat="45.5662" lon="2.75701">
        <ele>1132.1999511719</ele>
        <time>2024-05-26T08:35:42.000Z</time>
        <extensions>
          <gpxtpx:TrackPointExtension xmlns:gpxtpx="http://www.garmin.com/xmlschemas/TrackPointExtension/v1">
            <gpxtpx:hr>111</gpxtpx:hr>
          </gpxtpx:TrackPointExtension>
        </extensions>
      </trkpt>
      <trkpt lat="45.56632" lon="2.75708">
        <ele>1131</ele>
        <time>2024-05-26T08:35:43.000Z</time>
        <extensions>
          <gpxtpx:TrackPointExtension xmlns:gpxtpx="http://www.garmin.com/xmlschemas/TrackPointExtension/v1">
            <gpxtpx:hr>110</gpxtpx:hr>
          </gpxtpx:TrackPointExtension>
        </extensions>
      </trkpt>
      <trkpt lat="45.56692" lon="2.75747">
        <ele>1129.5999755859</ele>
        <time>2024-05-26T08:35:48.000Z</time>
        <extensions>
          <gpxtpx:TrackPointExtension xmlns:gpxtpx="http://www.garmin.com/xmlschemas/TrackPointExtension/v1">
            <gpxtpx:hr>111</gpxtpx:hr>
          </gpxtpx:TrackPointExtension>
        </extensions>
      </trkpt>
      <trkpt lat="45.56718" lon="2.75762">
        <ele>1128.8000488281</ele>
        <time>2024-05-26T08:35:50.000Z</time>
        <extensions>
          <gpxtpx:TrackPointExtension xmlns:gpxtpx="http://www.garmin.com/xmlschemas/TrackPointExtension/v1">
            <gpxtpx:hr>112</gpxtpx:hr>
          </gpxtpx:TrackPointExtension>
        </extensions>
      </trkpt>
      <trkpt lat="45.56732" lon="2.75766">
        <ele>1128.4000244141</ele>
        <time>2024-05-26T08:35:51.000Z</time>
        <extensions>
          <gpxtpx:TrackPointExtension xmlns:gpxtpx="http://www.garmin.com/xmlschemas/TrackPointExtension/v1">
            <gpxtpx:hr>111</gpxtpx:hr>
          </gpxtpx:TrackPointExtension>
        </extensions>
      </trkpt>
      <trkpt lat="45.56745" lon="2.75768">
        <ele>1128.1999511719</ele>
        <time>2024-05-26T08:35:52.000Z</time>
        <extensions>
          <gpxtpx:TrackPointExtension xmlns:gpxtpx="http://www.garmin.com/xmlschemas/TrackPointExtension/v1">
            <gpxtpx:hr>111</gpxtpx:hr>
          </gpxtpx:TrackPointExtension>
        </extensions>
      </trkpt>
      <trkpt lat="45.56758" lon="2.75769">
        <ele>1127.1999511719</ele>
        <time>2024-05-26T08:35:53.000Z</time>
        <extensions>
          <gpxtpx:TrackPointExtension xmlns:gpxtpx="http://www.garmin.com/xmlschemas/TrackPointExtension/v1">
            <gpxtpx:hr>112</gpxtpx:hr>
          </gpxtpx:TrackPointExtension>
        </extensions>
      </trkpt>
      <trkpt lat="45.56772" lon="2.75772">
        <ele>1126.5999755859</ele>
        <time>2024-05-26T08:35:54.000Z</time>
        <extensions>
          <gpxtpx:TrackPointExtension xmlns:gpxtpx="http://www.garmin.com/xmlschemas/TrackPointExtension/v1">
            <gpxtpx:hr>112</gpxtpx:hr>
          </gpxtpx:TrackPointExtension>
        </extensions>
      </trkpt>
      <trkpt lat="45.56785" lon="2.75775">
        <ele>1124.8000488281</ele>
        <time>2024-05-26T08:35:55.000Z</time>
        <extensions>
          <gpxtpx:TrackPointExtension xmlns:gpxtpx="http://www.garmin.com/xmlschemas/TrackPointExtension/v1">
            <gpxtpx:hr>112</gpxtpx:hr>
          </gpxtpx:TrackPointExtension>
        </extensions>
      </trkpt>
      <trkpt lat="45.56799" lon="2.7578">
        <ele>1124</ele>
        <time>2024-05-26T08:35:56.000Z</time>
        <extensions>
          <gpxtpx:TrackPointExtension xmlns:gpxtpx="http://www.garmin.com/xmlschemas/TrackPointExtension/v1">
            <gpxtpx:hr>112</gpxtpx:hr>
          </gpxtpx:TrackPointExtension>
        </extensions>
      </trkpt>
      <trkpt lat="45.56813" lon="2.75785">
        <ele>1121.4000244141</ele>
        <time>2024-05-26T08:35:57.000Z</time>
        <extensions>
          <gpxtpx:TrackPointExtension xmlns:gpxtpx="http://www.garmin.com/xmlschemas/TrackPointExtension/v1">
            <gpxtpx:hr>113</gpxtpx:hr>
          </gpxtpx:TrackPointExtension>
        </extensions>
      </trkpt>
      <trkpt lat="45.56825" lon="2.75791">
        <ele>1119.8000488281</ele>
        <time>2024-05-26T08:35:58.000Z</time>
        <extensions>
          <gpxtpx:TrackPointExtension xmlns:gpxtpx="http://www.garmin.com/xmlschemas/TrackPointExtension/v1">
            <gpxtpx:hr>113</gpxtpx:hr>
          </gpxtpx:TrackPointExtension>
        </extensions>
      </trkpt>
      <trkpt lat="45.56837" lon="2.75798">
        <ele>1119</ele>
        <time>2024-05-26T08:35:59.000Z</time>
        <extensions>
          <gpxtpx:TrackPointExtension xmlns:gpxtpx="http://www.garmin.com/xmlschemas/TrackPointExtension/v1">
            <gpxtpx:hr>113</gpxtpx:hr>
          </gpxtpx:TrackPointExtension>
        </extensions>
      </trkpt>
      <trkpt lat="45.56847" lon="2.75807">
        <ele>1118.4000244141</ele>
        <time>2024-05-26T08:36:00.000Z</time>
        <extensions>
          <gpxtpx:TrackPointExtension xmlns:gpxtpx="http://www.garmin.com/xmlschemas/TrackPointExtension/v1">
            <gpxtpx:hr>113</gpxtpx:hr>
          </gpxtpx:TrackPointExtension>
        </extensions>
      </trkpt>
      <trkpt lat="45.56864" lon="2.75831">
        <ele>1118</ele>
        <time>2024-05-26T08:36:02.000Z</time>
        <extensions>
          <gpxtpx:TrackPointExtension xmlns:gpxtpx="http://www.garmin.com/xmlschemas/TrackPointExtension/v1">
            <gpxtpx:hr>113</gpxtpx:hr>
          </gpxtpx:TrackPointExtension>
        </extensions>
      </trkpt>
      <trkpt lat="45.56873" lon="2.7586">
        <ele>1117.5999755859</ele>
        <time>2024-05-26T08:36:04.000Z</time>
        <extensions>
          <gpxtpx:TrackPointExtension xmlns:gpxtpx="http://www.garmin.com/xmlschemas/TrackPointExtension/v1">
            <gpxtpx:hr>112</gpxtpx:hr>
          </gpxtpx:TrackPointExtension>
        </extensions>
      </trkpt>
      <trkpt lat="45.56875" lon="2.75875">
        <ele>1117</ele>
        <time>2024-05-26T08:36:05.000Z</time>
        <extensions>
          <gpxtpx:TrackPointExtension xmlns:gpxtpx="http://www.garmin.com/xmlschemas/TrackPointExtension/v1">
            <gpxtpx:hr>113</gpxtpx:hr>
          </gpxtpx:TrackPointExtension>
        </extensions>
      </trkpt>
      <trkpt lat="45.56877" lon="2.75907">
        <ele>1115.5999755859</ele>
        <time>2024-05-26T08:36:07.000Z</time>
        <extensions>
          <gpxtpx:TrackPointExtension xmlns:gpxtpx="http://www.garmin.com/xmlschemas/TrackPointExtension/v1">
            <gpxtpx:hr>113</gpxtpx:hr>
          </gpxtpx:TrackPointExtension>
        </extensions>
      </trkpt>
      <trkpt lat="45.5688" lon="2.75923">
        <ele>1114</ele>
        <time>2024-05-26T08:36:08.000Z</time>
        <extensions>
          <gpxtpx:TrackPointExtension xmlns:gpxtpx="http://www.garmin.com/xmlschemas/TrackPointExtension/v1">
            <gpxtpx:hr>112</gpxtpx:hr>
          </gpxtpx:TrackPointExtension>
        </extensions>
      </trkpt>
      <trkpt lat="45.56885" lon="2.75938">
        <ele>1113.5999755859</ele>
        <time>2024-05-26T08:36:09.000Z</time>
        <extensions>
          <gpxtpx:TrackPointExtension xmlns:gpxtpx="http://www.garmin.com/xmlschemas/TrackPointExtension/v1">
            <gpxtpx:hr>112</gpxtpx:hr>
          </gpxtpx:TrackPointExtension>
        </extensions>
      </trkpt>
      <trkpt lat="45.56895" lon="2.75963">
        <ele>1113</ele>
        <time>2024-05-26T08:36:11.000Z</time>
        <extensions>
          <gpxtpx:TrackPointExtension xmlns:gpxtpx="http://www.garmin.com/xmlschemas/TrackPointExtension/v1">
            <gpxtpx:hr>112</gpxtpx:hr>
          </gpxtpx:TrackPointExtension>
        </extensions>
      </trkpt>
      <trkpt lat="45.56903" lon="2.75977">
        <ele>1112.8000488281</ele>
        <time>2024-05-26T08:36:12.000Z</time>
        <extensions>
          <gpxtpx:TrackPointExtension xmlns:gpxtpx="http://www.garmin.com/xmlschemas/TrackPointExtension/v1">
            <gpxtpx:hr>112</gpxtpx:hr>
          </gpxtpx:TrackPointExtension>
        </extensions>
      </trkpt>
      <trkpt lat="45.56912" lon="2.75993">
        <ele>1112.4000244141</ele>
        <time>2024-05-26T08:36:13.000Z</time>
        <extensions>
          <gpxtpx:TrackPointExtension xmlns:gpxtpx="http://www.garmin.com/xmlschemas/TrackPointExtension/v1">
            <gpxtpx:hr>112</gpxtpx:hr>
          </gpxtpx:TrackPointExtension>
        </extensions>
      </trkpt>
      <trkpt lat="45.56927" lon="2.76018">
        <ele>1111</ele>
        <time>2024-05-26T08:36:15.000Z</time>
        <extensions>
          <gpxtpx:TrackPointExtension xmlns:gpxtpx="http://www.garmin.com/xmlschemas/TrackPointExtension/v1">
            <gpxtpx:hr>112</gpxtpx:hr>
          </gpxtpx:TrackPointExtension>
        </extensions>
      </trkpt>
      <trkpt lat="45.56942" lon="2.76044">
        <ele>1109.4000244141</ele>
        <time>2024-05-26T08:36:17.000Z</time>
        <extensions>
          <gpxtpx:TrackPointExtension xmlns:gpxtpx="http://www.garmin.com/xmlschemas/TrackPointExtension/v1">
            <gpxtpx:hr>111</gpxtpx:hr>
          </gpxtpx:TrackPointExtension>
        </extensions>
      </trkpt>
      <trkpt lat="45.56958" lon="2.76069">
        <ele>1108.4000244141</ele>
        <time>2024-05-26T08:36:19.000Z</time>
        <extensions>
          <gpxtpx:TrackPointExtension xmlns:gpxtpx="http://www.garmin.com/xmlschemas/TrackPointExtension/v1">
            <gpxtpx:hr>112</gpxtpx:hr>
          </gpxtpx:TrackPointExtension>
        </extensions>
      </trkpt>
      <trkpt lat="45.56972" lon="2.76095">
        <ele>1106.5999755859</ele>
        <time>2024-05-26T08:36:21.000Z</time>
        <extensions>
          <gpxtpx:TrackPointExtension xmlns:gpxtpx="http://www.garmin.com/xmlschemas/TrackPointExtension/v1">
            <gpxtpx:hr>112</gpxtpx:hr>
          </gpxtpx:TrackPointExtension>
        </extensions>
      </trkpt>
      <trkpt lat="45.5698" lon="2.76108">
        <ele>1105.5999755859</ele>
        <time>2024-05-26T08:36:22.000Z</time>
        <extensions>
          <gpxtpx:TrackPointExtension xmlns:gpxtpx="http://www.garmin.com/xmlschemas/TrackPointExtension/v1">
            <gpxtpx:hr>112</gpxtpx:hr>
          </gpxtpx:TrackPointExtension>
        </extensions>
      </trkpt>
      <trkpt lat="45.57" lon="2.76143">
        <ele>1104.5999755859</ele>
        <time>2024-05-26T08:36:25.000Z</time>
        <extensions>
          <gpxtpx:TrackPointExtension xmlns:gpxtpx="http://www.garmin.com/xmlschemas/TrackPointExtension/v1">
            <gpxtpx:hr>112</gpxtpx:hr>
          </gpxtpx:TrackPointExtension>
        </extensions>
      </trkpt>
      <trkpt lat="45.57007" lon="2.76153">
        <ele>1104.4000244141</ele>
        <time>2024-05-26T08:36:26.000Z</time>
        <extensions>
          <gpxtpx:TrackPointExtension xmlns:gpxtpx="http://www.garmin.com/xmlschemas/TrackPointExtension/v1">
            <gpxtpx:hr>111</gpxtpx:hr>
          </gpxtpx:TrackPointExtension>
        </extensions>
      </trkpt>
      <trkpt lat="45.57022" lon="2.76166">
        <ele>1102.8000488281</ele>
        <time>2024-05-26T08:36:28.000Z</time>
        <extensions>
          <gpxtpx:TrackPointExtension xmlns:gpxtpx="http://www.garmin.com/xmlschemas/TrackPointExtension/v1">
            <gpxtpx:hr>111</gpxtpx:hr>
          </gpxtpx:TrackPointExtension>
        </extensions>
      </trkpt>
      <trkpt lat="45.5703" lon="2.76166">
        <ele>1101.5999755859</ele>
        <time>2024-05-26T08:36:29.000Z</time>
        <extensions>
          <gpxtpx:TrackPointExtension xmlns:gpxtpx="http://www.garmin.com/xmlschemas/TrackPointExtension/v1">
            <gpxtpx:hr>111</gpxtpx:hr>
          </gpxtpx:TrackPointExtension>
        </extensions>
      </trkpt>
      <trkpt lat="45.57037" lon="2.76161">
        <ele>1101.4000244141</ele>
        <time>2024-05-26T08:36:30.000Z</time>
        <extensions>
          <gpxtpx:TrackPointExtension xmlns:gpxtpx="http://www.garmin.com/xmlschemas/TrackPointExtension/v1">
            <gpxtpx:hr>112</gpxtpx:hr>
          </gpxtpx:TrackPointExtension>
        </extensions>
      </trkpt>
      <trkpt lat="45.57043" lon="2.76153">
        <ele>1101</ele>
        <time>2024-05-26T08:36:31.000Z</time>
        <extensions>
          <gpxtpx:TrackPointExtension xmlns:gpxtpx="http://www.garmin.com/xmlschemas/TrackPointExtension/v1">
            <gpxtpx:hr>111</gpxtpx:hr>
          </gpxtpx:TrackPointExtension>
        </extensions>
      </trkpt>
      <trkpt lat="45.57047" lon="2.76141">
        <ele>1099.8000488281</ele>
        <time>2024-05-26T08:36:32.000Z</time>
        <extensions>
          <gpxtpx:TrackPointExtension xmlns:gpxtpx="http://www.garmin.com/xmlschemas/TrackPointExtension/v1">
            <gpxtpx:hr>111</gpxtpx:hr>
          </gpxtpx:TrackPointExtension>
        </extensions>
      </trkpt>
      <trkpt lat="45.57048" lon="2.76128">
        <ele>1098</ele>
        <time>2024-05-26T08:36:33.000Z</time>
        <extensions>
          <gpxtpx:TrackPointExtension xmlns:gpxtpx="http://www.garmin.com/xmlschemas/TrackPointExtension/v1">
            <gpxtpx:hr>112</gpxtpx:hr>
          </gpxtpx:TrackPointExtension>
        </extensions>
      </trkpt>
      <trkpt lat="45.57046" lon="2.76097">
        <ele>1096.8000488281</ele>
        <time>2024-05-26T08:36:35.000Z</time>
        <extensions>
          <gpxtpx:TrackPointExtension xmlns:gpxtpx="http://www.garmin.com/xmlschemas/TrackPointExtension/v1">
            <gpxtpx:hr>113</gpxtpx:hr>
          </gpxtpx:TrackPointExtension>
        </extensions>
      </trkpt>
      <trkpt lat="45.57044" lon="2.76081">
        <ele>1096.1999511719</ele>
        <time>2024-05-26T08:36:36.000Z</time>
        <extensions>
          <gpxtpx:TrackPointExtension xmlns:gpxtpx="http://www.garmin.com/xmlschemas/TrackPointExtension/v1">
            <gpxtpx:hr>114</gpxtpx:hr>
          </gpxtpx:TrackPointExtension>
        </extensions>
      </trkpt>
      <trkpt lat="45.57042" lon="2.76065">
        <ele>1094.5999755859</ele>
        <time>2024-05-26T08:36:37.000Z</time>
        <extensions>
          <gpxtpx:TrackPointExtension xmlns:gpxtpx="http://www.garmin.com/xmlschemas/TrackPointExtension/v1">
            <gpxtpx:hr>114</gpxtpx:hr>
          </gpxtpx:TrackPointExtension>
        </extensions>
      </trkpt>
      <trkpt lat="45.57041" lon="2.76049">
        <ele>1093.5999755859</ele>
        <time>2024-05-26T08:36:38.000Z</time>
        <extensions>
          <gpxtpx:TrackPointExtension xmlns:gpxtpx="http://www.garmin.com/xmlschemas/TrackPointExtension/v1">
            <gpxtpx:hr>115</gpxtpx:hr>
          </gpxtpx:TrackPointExtension>
        </extensions>
      </trkpt>
      <trkpt lat="45.57042" lon="2.76033">
        <ele>1093.1999511719</ele>
        <time>2024-05-26T08:36:39.000Z</time>
        <extensions>
          <gpxtpx:TrackPointExtension xmlns:gpxtpx="http://www.garmin.com/xmlschemas/TrackPointExtension/v1">
            <gpxtpx:hr>116</gpxtpx:hr>
          </gpxtpx:TrackPointExtension>
        </extensions>
      </trkpt>
      <trkpt lat="45.57047" lon="2.76001">
        <ele>1091.5999755859</ele>
        <time>2024-05-26T08:36:41.000Z</time>
        <extensions>
          <gpxtpx:TrackPointExtension xmlns:gpxtpx="http://www.garmin.com/xmlschemas/TrackPointExtension/v1">
            <gpxtpx:hr>115</gpxtpx:hr>
          </gpxtpx:TrackPointExtension>
        </extensions>
      </trkpt>
      <trkpt lat="45.5705" lon="2.75984">
        <ele>1090.5999755859</ele>
        <time>2024-05-26T08:36:42.000Z</time>
        <extensions>
          <gpxtpx:TrackPointExtension xmlns:gpxtpx="http://www.garmin.com/xmlschemas/TrackPointExtension/v1">
            <gpxtpx:hr>114</gpxtpx:hr>
          </gpxtpx:TrackPointExtension>
        </extensions>
      </trkpt>
      <trkpt lat="45.57054" lon="2.75969">
        <ele>1090.1999511719</ele>
        <time>2024-05-26T08:36:43.000Z</time>
        <extensions>
          <gpxtpx:TrackPointExtension xmlns:gpxtpx="http://www.garmin.com/xmlschemas/TrackPointExtension/v1">
            <gpxtpx:hr>114</gpxtpx:hr>
          </gpxtpx:TrackPointExtension>
        </extensions>
      </trkpt>
      <trkpt lat="45.57059" lon="2.75955">
        <ele>1089.5999755859</ele>
        <time>2024-05-26T08:36:44.000Z</time>
        <extensions>
          <gpxtpx:TrackPointExtension xmlns:gpxtpx="http://www.garmin.com/xmlschemas/TrackPointExtension/v1">
            <gpxtpx:hr>114</gpxtpx:hr>
          </gpxtpx:TrackPointExtension>
        </extensions>
      </trkpt>
      <trkpt lat="45.57066" lon="2.75943">
        <ele>1087.8000488281</ele>
        <time>2024-05-26T08:36:45.000Z</time>
        <extensions>
          <gpxtpx:TrackPointExtension xmlns:gpxtpx="http://www.garmin.com/xmlschemas/TrackPointExtension/v1">
            <gpxtpx:hr>114</gpxtpx:hr>
          </gpxtpx:TrackPointExtension>
        </extensions>
      </trkpt>
      <trkpt lat="45.57076" lon="2.75933">
        <ele>1086.8000488281</ele>
        <time>2024-05-26T08:36:46.000Z</time>
        <extensions>
          <gpxtpx:TrackPointExtension xmlns:gpxtpx="http://www.garmin.com/xmlschemas/TrackPointExtension/v1">
            <gpxtpx:hr>114</gpxtpx:hr>
          </gpxtpx:TrackPointExtension>
        </extensions>
      </trkpt>
      <trkpt lat="45.57095" lon="2.75917">
        <ele>1085.5999755859</ele>
        <time>2024-05-26T08:36:48.000Z</time>
        <extensions>
          <gpxtpx:TrackPointExtension xmlns:gpxtpx="http://www.garmin.com/xmlschemas/TrackPointExtension/v1">
            <gpxtpx:hr>113</gpxtpx:hr>
          </gpxtpx:TrackPointExtension>
        </extensions>
      </trkpt>
      <trkpt lat="45.57115" lon="2.75904">
        <ele>1085.1999511719</ele>
        <time>2024-05-26T08:36:50.000Z</time>
        <extensions>
          <gpxtpx:TrackPointExtension xmlns:gpxtpx="http://www.garmin.com/xmlschemas/TrackPointExtension/v1">
            <gpxtpx:hr>112</gpxtpx:hr>
          </gpxtpx:TrackPointExtension>
        </extensions>
      </trkpt>
      <trkpt lat="45.57125" lon="2.75895">
        <ele>1084.4000244141</ele>
        <time>2024-05-26T08:36:51.000Z</time>
        <extensions>
          <gpxtpx:TrackPointExtension xmlns:gpxtpx="http://www.garmin.com/xmlschemas/TrackPointExtension/v1">
            <gpxtpx:hr>112</gpxtpx:hr>
          </gpxtpx:TrackPointExtension>
        </extensions>
      </trkpt>
      <trkpt lat="45.57143" lon="2.75871">
        <ele>1082.4000244141</ele>
        <time>2024-05-26T08:36:53.000Z</time>
        <extensions>
          <gpxtpx:TrackPointExtension xmlns:gpxtpx="http://www.garmin.com/xmlschemas/TrackPointExtension/v1">
            <gpxtpx:hr>112</gpxtpx:hr>
          </gpxtpx:TrackPointExtension>
        </extensions>
      </trkpt>
      <trkpt lat="45.5715" lon="2.75859">
        <ele>1080.5999755859</ele>
        <time>2024-05-26T08:36:54.000Z</time>
        <extensions>
          <gpxtpx:TrackPointExtension xmlns:gpxtpx="http://www.garmin.com/xmlschemas/TrackPointExtension/v1">
            <gpxtpx:hr>111</gpxtpx:hr>
          </gpxtpx:TrackPointExtension>
        </extensions>
      </trkpt>
      <trkpt lat="45.57156" lon="2.75845">
        <ele>1077.5999755859</ele>
        <time>2024-05-26T08:36:55.000Z</time>
        <extensions>
          <gpxtpx:TrackPointExtension xmlns:gpxtpx="http://www.garmin.com/xmlschemas/TrackPointExtension/v1">
            <gpxtpx:hr>111</gpxtpx:hr>
          </gpxtpx:TrackPointExtension>
        </extensions>
      </trkpt>
      <trkpt lat="45.57163" lon="2.75832">
        <ele>1076.1999511719</ele>
        <time>2024-05-26T08:36:56.000Z</time>
        <extensions>
          <gpxtpx:TrackPointExtension xmlns:gpxtpx="http://www.garmin.com/xmlschemas/TrackPointExtension/v1">
            <gpxtpx:hr>111</gpxtpx:hr>
          </gpxtpx:TrackPointExtension>
        </extensions>
      </trkpt>
      <trkpt lat="45.57171" lon="2.75819">
        <ele>1076</ele>
        <time>2024-05-26T08:36:57.000Z</time>
        <extensions>
          <gpxtpx:TrackPointExtension xmlns:gpxtpx="http://www.garmin.com/xmlschemas/TrackPointExtension/v1">
            <gpxtpx:hr>110</gpxtpx:hr>
          </gpxtpx:TrackPointExtension>
        </extensions>
      </trkpt>
      <trkpt lat="45.57186" lon="2.75795">
        <ele>1075.8000488281</ele>
        <time>2024-05-26T08:36:59.000Z</time>
        <extensions>
          <gpxtpx:TrackPointExtension xmlns:gpxtpx="http://www.garmin.com/xmlschemas/TrackPointExtension/v1">
            <gpxtpx:hr>109</gpxtpx:hr>
          </gpxtpx:TrackPointExtension>
        </extensions>
      </trkpt>
      <trkpt lat="45.57203" lon="2.75773">
        <ele>1075</ele>
        <time>2024-05-26T08:37:01.000Z</time>
        <extensions>
          <gpxtpx:TrackPointExtension xmlns:gpxtpx="http://www.garmin.com/xmlschemas/TrackPointExtension/v1">
            <gpxtpx:hr>108</gpxtpx:hr>
          </gpxtpx:TrackPointExtension>
        </extensions>
      </trkpt>
      <trkpt lat="45.57212" lon="2.75762">
        <ele>1073.8000488281</ele>
        <time>2024-05-26T08:37:02.000Z</time>
        <extensions>
          <gpxtpx:TrackPointExtension xmlns:gpxtpx="http://www.garmin.com/xmlschemas/TrackPointExtension/v1">
            <gpxtpx:hr>108</gpxtpx:hr>
          </gpxtpx:TrackPointExtension>
        </extensions>
      </trkpt>
      <trkpt lat="45.57221" lon="2.7575">
        <ele>1072.8000488281</ele>
        <time>2024-05-26T08:37:03.000Z</time>
        <extensions>
          <gpxtpx:TrackPointExtension xmlns:gpxtpx="http://www.garmin.com/xmlschemas/TrackPointExtension/v1">
            <gpxtpx:hr>109</gpxtpx:hr>
          </gpxtpx:TrackPointExtension>
        </extensions>
      </trkpt>
      <trkpt lat="45.57234" lon="2.75723">
        <ele>1072</ele>
        <time>2024-05-26T08:37:05.000Z</time>
        <extensions>
          <gpxtpx:TrackPointExtension xmlns:gpxtpx="http://www.garmin.com/xmlschemas/TrackPointExtension/v1">
            <gpxtpx:hr>108</gpxtpx:hr>
          </gpxtpx:TrackPointExtension>
        </extensions>
      </trkpt>
      <trkpt lat="45.57238" lon="2.75709">
        <ele>1071.8000488281</ele>
        <time>2024-05-26T08:37:06.000Z</time>
        <extensions>
          <gpxtpx:TrackPointExtension xmlns:gpxtpx="http://www.garmin.com/xmlschemas/TrackPointExtension/v1">
            <gpxtpx:hr>108</gpxtpx:hr>
          </gpxtpx:TrackPointExtension>
        </extensions>
      </trkpt>
      <trkpt lat="45.57245" lon="2.75698">
        <ele>1070.4000244141</ele>
        <time>2024-05-26T08:37:07.000Z</time>
        <extensions>
          <gpxtpx:TrackPointExtension xmlns:gpxtpx="http://www.garmin.com/xmlschemas/TrackPointExtension/v1">
            <gpxtpx:hr>108</gpxtpx:hr>
          </gpxtpx:TrackPointExtension>
        </extensions>
      </trkpt>
      <trkpt lat="45.57252" lon="2.75689">
        <ele>1069.1999511719</ele>
        <time>2024-05-26T08:37:08.000Z</time>
        <extensions>
          <gpxtpx:TrackPointExtension xmlns:gpxtpx="http://www.garmin.com/xmlschemas/TrackPointExtension/v1">
            <gpxtpx:hr>107</gpxtpx:hr>
          </gpxtpx:TrackPointExtension>
        </extensions>
      </trkpt>
      <trkpt lat="45.57261" lon="2.75683">
        <ele>1067.8000488281</ele>
        <time>2024-05-26T08:37:09.000Z</time>
        <extensions>
          <gpxtpx:TrackPointExtension xmlns:gpxtpx="http://www.garmin.com/xmlschemas/TrackPointExtension/v1">
            <gpxtpx:hr>107</gpxtpx:hr>
          </gpxtpx:TrackPointExtension>
        </extensions>
      </trkpt>
      <trkpt lat="45.57281" lon="2.75676">
        <ele>1067</ele>
        <time>2024-05-26T08:37:11.000Z</time>
        <extensions>
          <gpxtpx:TrackPointExtension xmlns:gpxtpx="http://www.garmin.com/xmlschemas/TrackPointExtension/v1">
            <gpxtpx:hr>106</gpxtpx:hr>
          </gpxtpx:TrackPointExtension>
        </extensions>
      </trkpt>
      <trkpt lat="45.57291" lon="2.75672">
        <ele>1066</ele>
        <time>2024-05-26T08:37:12.000Z</time>
        <extensions>
          <gpxtpx:TrackPointExtension xmlns:gpxtpx="http://www.garmin.com/xmlschemas/TrackPointExtension/v1">
            <gpxtpx:hr>107</gpxtpx:hr>
          </gpxtpx:TrackPointExtension>
        </extensions>
      </trkpt>
      <trkpt lat="45.57308" lon="2.75656">
        <ele>1065.1999511719</ele>
        <time>2024-05-26T08:37:14.000Z</time>
        <extensions>
          <gpxtpx:TrackPointExtension xmlns:gpxtpx="http://www.garmin.com/xmlschemas/TrackPointExtension/v1">
            <gpxtpx:hr>108</gpxtpx:hr>
          </gpxtpx:TrackPointExtension>
        </extensions>
      </trkpt>
      <trkpt lat="45.57312" lon="2.75646">
        <ele>1065</ele>
        <time>2024-05-26T08:37:15.000Z</time>
        <extensions>
          <gpxtpx:TrackPointExtension xmlns:gpxtpx="http://www.garmin.com/xmlschemas/TrackPointExtension/v1">
            <gpxtpx:hr>108</gpxtpx:hr>
          </gpxtpx:TrackPointExtension>
        </extensions>
      </trkpt>
      <trkpt lat="45.57313" lon="2.75633">
        <ele>1064.5999755859</ele>
        <time>2024-05-26T08:37:16.000Z</time>
        <extensions>
          <gpxtpx:TrackPointExtension xmlns:gpxtpx="http://www.garmin.com/xmlschemas/TrackPointExtension/v1">
            <gpxtpx:hr>108</gpxtpx:hr>
          </gpxtpx:TrackPointExtension>
        </extensions>
      </trkpt>
      <trkpt lat="45.57318" lon="2.75606">
        <ele>1063.1999511719</ele>
        <time>2024-05-26T08:37:18.000Z</time>
        <extensions>
          <gpxtpx:TrackPointExtension xmlns:gpxtpx="http://www.garmin.com/xmlschemas/TrackPointExtension/v1">
            <gpxtpx:hr>110</gpxtpx:hr>
          </gpxtpx:TrackPointExtension>
        </extensions>
      </trkpt>
      <trkpt lat="45.57324" lon="2.75595">
        <ele>1061.4000244141</ele>
        <time>2024-05-26T08:37:19.000Z</time>
        <extensions>
          <gpxtpx:TrackPointExtension xmlns:gpxtpx="http://www.garmin.com/xmlschemas/TrackPointExtension/v1">
            <gpxtpx:hr>110</gpxtpx:hr>
          </gpxtpx:TrackPointExtension>
        </extensions>
      </trkpt>
      <trkpt lat="45.57332" lon="2.75589">
        <ele>1061</ele>
        <time>2024-05-26T08:37:20.000Z</time>
        <extensions>
          <gpxtpx:TrackPointExtension xmlns:gpxtpx="http://www.garmin.com/xmlschemas/TrackPointExtension/v1">
            <gpxtpx:hr>111</gpxtpx:hr>
          </gpxtpx:TrackPointExtension>
        </extensions>
      </trkpt>
      <trkpt lat="45.5735" lon="2.75582">
        <ele>1060.4000244141</ele>
        <time>2024-05-26T08:37:22.000Z</time>
        <extensions>
          <gpxtpx:TrackPointExtension xmlns:gpxtpx="http://www.garmin.com/xmlschemas/TrackPointExtension/v1">
            <gpxtpx:hr>111</gpxtpx:hr>
          </gpxtpx:TrackPointExtension>
        </extensions>
      </trkpt>
      <trkpt lat="45.57361" lon="2.75579">
        <ele>1060.1999511719</ele>
        <time>2024-05-26T08:37:23.000Z</time>
        <extensions>
          <gpxtpx:TrackPointExtension xmlns:gpxtpx="http://www.garmin.com/xmlschemas/TrackPointExtension/v1">
            <gpxtpx:hr>111</gpxtpx:hr>
          </gpxtpx:TrackPointExtension>
        </extensions>
      </trkpt>
      <trkpt lat="45.57368" lon="2.7558">
        <ele>1059.1999511719</ele>
        <time>2024-05-26T08:37:24.000Z</time>
        <extensions>
          <gpxtpx:TrackPointExtension xmlns:gpxtpx="http://www.garmin.com/xmlschemas/TrackPointExtension/v1">
            <gpxtpx:hr>112</gpxtpx:hr>
          </gpxtpx:TrackPointExtension>
        </extensions>
      </trkpt>
      <trkpt lat="45.57376" lon="2.75581">
        <ele>1058.5999755859</ele>
        <time>2024-05-26T08:37:25.000Z</time>
        <extensions>
          <gpxtpx:TrackPointExtension xmlns:gpxtpx="http://www.garmin.com/xmlschemas/TrackPointExtension/v1">
            <gpxtpx:hr>113</gpxtpx:hr>
          </gpxtpx:TrackPointExtension>
        </extensions>
      </trkpt>
      <trkpt lat="45.57383" lon="2.75584">
        <ele>1057.5999755859</ele>
        <time>2024-05-26T08:37:26.000Z</time>
        <extensions>
          <gpxtpx:TrackPointExtension xmlns:gpxtpx="http://www.garmin.com/xmlschemas/TrackPointExtension/v1">
            <gpxtpx:hr>113</gpxtpx:hr>
          </gpxtpx:TrackPointExtension>
        </extensions>
      </trkpt>
      <trkpt lat="45.57396" lon="2.75594">
        <ele>1056.4000244141</ele>
        <time>2024-05-26T08:37:28.000Z</time>
        <extensions>
          <gpxtpx:TrackPointExtension xmlns:gpxtpx="http://www.garmin.com/xmlschemas/TrackPointExtension/v1">
            <gpxtpx:hr>113</gpxtpx:hr>
          </gpxtpx:TrackPointExtension>
        </extensions>
      </trkpt>
      <trkpt lat="45.57409" lon="2.75608">
        <ele>1055.4000244141</ele>
        <time>2024-05-26T08:37:30.000Z</time>
        <extensions>
          <gpxtpx:TrackPointExtension xmlns:gpxtpx="http://www.garmin.com/xmlschemas/TrackPointExtension/v1">
            <gpxtpx:hr>112</gpxtpx:hr>
          </gpxtpx:TrackPointExtension>
        </extensions>
      </trkpt>
      <trkpt lat="45.57422" lon="2.75622">
        <ele>1054</ele>
        <time>2024-05-26T08:37:32.000Z</time>
        <extensions>
          <gpxtpx:TrackPointExtension xmlns:gpxtpx="http://www.garmin.com/xmlschemas/TrackPointExtension/v1">
            <gpxtpx:hr>111</gpxtpx:hr>
          </gpxtpx:TrackPointExtension>
        </extensions>
      </trkpt>
      <trkpt lat="45.57437" lon="2.75632">
        <ele>1052</ele>
        <time>2024-05-26T08:37:34.000Z</time>
        <extensions>
          <gpxtpx:TrackPointExtension xmlns:gpxtpx="http://www.garmin.com/xmlschemas/TrackPointExtension/v1">
            <gpxtpx:hr>111</gpxtpx:hr>
          </gpxtpx:TrackPointExtension>
        </extensions>
      </trkpt>
      <trkpt lat="45.57444" lon="2.75632">
        <ele>1051</ele>
        <time>2024-05-26T08:37:35.000Z</time>
        <extensions>
          <gpxtpx:TrackPointExtension xmlns:gpxtpx="http://www.garmin.com/xmlschemas/TrackPointExtension/v1">
            <gpxtpx:hr>110</gpxtpx:hr>
          </gpxtpx:TrackPointExtension>
        </extensions>
      </trkpt>
      <trkpt lat="45.57452" lon="2.7563">
        <ele>1050.5999755859</ele>
        <time>2024-05-26T08:37:36.000Z</time>
        <extensions>
          <gpxtpx:TrackPointExtension xmlns:gpxtpx="http://www.garmin.com/xmlschemas/TrackPointExtension/v1">
            <gpxtpx:hr>110</gpxtpx:hr>
          </gpxtpx:TrackPointExtension>
        </extensions>
      </trkpt>
      <trkpt lat="45.57462" lon="2.75624">
        <ele>1050.4000244141</ele>
        <time>2024-05-26T08:37:37.000Z</time>
        <extensions>
          <gpxtpx:TrackPointExtension xmlns:gpxtpx="http://www.garmin.com/xmlschemas/TrackPointExtension/v1">
            <gpxtpx:hr>111</gpxtpx:hr>
          </gpxtpx:TrackPointExtension>
        </extensions>
      </trkpt>
      <trkpt lat="45.5747" lon="2.75618">
        <ele>1049.8000488281</ele>
        <time>2024-05-26T08:37:38.000Z</time>
        <extensions>
          <gpxtpx:TrackPointExtension xmlns:gpxtpx="http://www.garmin.com/xmlschemas/TrackPointExtension/v1">
            <gpxtpx:hr>113</gpxtpx:hr>
          </gpxtpx:TrackPointExtension>
        </extensions>
      </trkpt>
      <trkpt lat="45.57478" lon="2.75613">
        <ele>1049.4000244141</ele>
        <time>2024-05-26T08:37:39.000Z</time>
        <extensions>
          <gpxtpx:TrackPointExtension xmlns:gpxtpx="http://www.garmin.com/xmlschemas/TrackPointExtension/v1">
            <gpxtpx:hr>112</gpxtpx:hr>
          </gpxtpx:TrackPointExtension>
        </extensions>
      </trkpt>
      <trkpt lat="45.57486" lon="2.75611">
        <ele>1049</ele>
        <time>2024-05-26T08:37:40.000Z</time>
        <extensions>
          <gpxtpx:TrackPointExtension xmlns:gpxtpx="http://www.garmin.com/xmlschemas/TrackPointExtension/v1">
            <gpxtpx:hr>111</gpxtpx:hr>
          </gpxtpx:TrackPointExtension>
        </extensions>
      </trkpt>
      <trkpt lat="45.57493" lon="2.75613">
        <ele>1048.4000244141</ele>
        <time>2024-05-26T08:37:41.000Z</time>
        <extensions>
          <gpxtpx:TrackPointExtension xmlns:gpxtpx="http://www.garmin.com/xmlschemas/TrackPointExtension/v1">
            <gpxtpx:hr>109</gpxtpx:hr>
          </gpxtpx:TrackPointExtension>
        </extensions>
      </trkpt>
      <trkpt lat="45.57501" lon="2.75618">
        <ele>1047.1999511719</ele>
        <time>2024-05-26T08:37:42.000Z</time>
        <extensions>
          <gpxtpx:TrackPointExtension xmlns:gpxtpx="http://www.garmin.com/xmlschemas/TrackPointExtension/v1">
            <gpxtpx:hr>108</gpxtpx:hr>
          </gpxtpx:TrackPointExtension>
        </extensions>
      </trkpt>
      <trkpt lat="45.57509" lon="2.75624">
        <ele>1046.4000244141</ele>
        <time>2024-05-26T08:37:43.000Z</time>
        <extensions>
          <gpxtpx:TrackPointExtension xmlns:gpxtpx="http://www.garmin.com/xmlschemas/TrackPointExtension/v1">
            <gpxtpx:hr>106</gpxtpx:hr>
          </gpxtpx:TrackPointExtension>
        </extensions>
      </trkpt>
      <trkpt lat="45.57517" lon="2.75629">
        <ele>1045.4000244141</ele>
        <time>2024-05-26T08:37:44.000Z</time>
        <extensions>
          <gpxtpx:TrackPointExtension xmlns:gpxtpx="http://www.garmin.com/xmlschemas/TrackPointExtension/v1">
            <gpxtpx:hr>107</gpxtpx:hr>
          </gpxtpx:TrackPointExtension>
        </extensions>
      </trkpt>
      <trkpt lat="45.57535" lon="2.75629">
        <ele>1044</ele>
        <time>2024-05-26T08:37:46.000Z</time>
        <extensions>
          <gpxtpx:TrackPointExtension xmlns:gpxtpx="http://www.garmin.com/xmlschemas/TrackPointExtension/v1">
            <gpxtpx:hr>106</gpxtpx:hr>
          </gpxtpx:TrackPointExtension>
        </extensions>
      </trkpt>
      <trkpt lat="45.57542" lon="2.75622">
        <ele>1043.1999511719</ele>
        <time>2024-05-26T08:37:47.000Z</time>
        <extensions>
          <gpxtpx:TrackPointExtension xmlns:gpxtpx="http://www.garmin.com/xmlschemas/TrackPointExtension/v1">
            <gpxtpx:hr>106</gpxtpx:hr>
          </gpxtpx:TrackPointExtension>
        </extensions>
      </trkpt>
      <trkpt lat="45.57546" lon="2.75611">
        <ele>1042.5999755859</ele>
        <time>2024-05-26T08:37:48.000Z</time>
        <extensions>
          <gpxtpx:TrackPointExtension xmlns:gpxtpx="http://www.garmin.com/xmlschemas/TrackPointExtension/v1">
            <gpxtpx:hr>106</gpxtpx:hr>
          </gpxtpx:TrackPointExtension>
        </extensions>
      </trkpt>
      <trkpt lat="45.57548" lon="2.75599">
        <ele>1042</ele>
        <time>2024-05-26T08:37:49.000Z</time>
        <extensions>
          <gpxtpx:TrackPointExtension xmlns:gpxtpx="http://www.garmin.com/xmlschemas/TrackPointExtension/v1">
            <gpxtpx:hr>106</gpxtpx:hr>
          </gpxtpx:TrackPointExtension>
        </extensions>
      </trkpt>
      <trkpt lat="45.57549" lon="2.75586">
        <ele>1041.1999511719</ele>
        <time>2024-05-26T08:37:50.000Z</time>
        <extensions>
          <gpxtpx:TrackPointExtension xmlns:gpxtpx="http://www.garmin.com/xmlschemas/TrackPointExtension/v1">
            <gpxtpx:hr>104</gpxtpx:hr>
          </gpxtpx:TrackPointExtension>
        </extensions>
      </trkpt>
      <trkpt lat="45.57549" lon="2.75573">
        <ele>1041</ele>
        <time>2024-05-26T08:37:51.000Z</time>
        <extensions>
          <gpxtpx:TrackPointExtension xmlns:gpxtpx="http://www.garmin.com/xmlschemas/TrackPointExtension/v1">
            <gpxtpx:hr>105</gpxtpx:hr>
          </gpxtpx:TrackPointExtension>
        </extensions>
      </trkpt>
      <trkpt lat="45.57542" lon="2.7555">
        <ele>1039.5999755859</ele>
        <time>2024-05-26T08:37:53.000Z</time>
        <extensions>
          <gpxtpx:TrackPointExtension xmlns:gpxtpx="http://www.garmin.com/xmlschemas/TrackPointExtension/v1">
            <gpxtpx:hr>106</gpxtpx:hr>
          </gpxtpx:TrackPointExtension>
        </extensions>
      </trkpt>
      <trkpt lat="45.57537" lon="2.75539">
        <ele>1039.4000244141</ele>
        <time>2024-05-26T08:37:54.000Z</time>
        <extensions>
          <gpxtpx:TrackPointExtension xmlns:gpxtpx="http://www.garmin.com/xmlschemas/TrackPointExtension/v1">
            <gpxtpx:hr>105</gpxtpx:hr>
          </gpxtpx:TrackPointExtension>
        </extensions>
      </trkpt>
      <trkpt lat="45.57532" lon="2.75526">
        <ele>1038.1999511719</ele>
        <time>2024-05-26T08:37:55.000Z</time>
        <extensions>
          <gpxtpx:TrackPointExtension xmlns:gpxtpx="http://www.garmin.com/xmlschemas/TrackPointExtension/v1">
            <gpxtpx:hr>105</gpxtpx:hr>
          </gpxtpx:TrackPointExtension>
        </extensions>
      </trkpt>
      <trkpt lat="45.57528" lon="2.75501">
        <ele>1037.1999511719</ele>
        <time>2024-05-26T08:37:57.000Z</time>
        <extensions>
          <gpxtpx:TrackPointExtension xmlns:gpxtpx="http://www.garmin.com/xmlschemas/TrackPointExtension/v1">
            <gpxtpx:hr>106</gpxtpx:hr>
          </gpxtpx:TrackPointExtension>
        </extensions>
      </trkpt>
      <trkpt lat="45.57527" lon="2.7549">
        <ele>1036.4000244141</ele>
        <time>2024-05-26T08:37:58.000Z</time>
        <extensions>
          <gpxtpx:TrackPointExtension xmlns:gpxtpx="http://www.garmin.com/xmlschemas/TrackPointExtension/v1">
            <gpxtpx:hr>105</gpxtpx:hr>
          </gpxtpx:TrackPointExtension>
        </extensions>
      </trkpt>
      <trkpt lat="45.57529" lon="2.75481">
        <ele>1035.5999755859</ele>
        <time>2024-05-26T08:37:59.000Z</time>
        <extensions>
          <gpxtpx:TrackPointExtension xmlns:gpxtpx="http://www.garmin.com/xmlschemas/TrackPointExtension/v1">
            <gpxtpx:hr>104</gpxtpx:hr>
          </gpxtpx:TrackPointExtension>
        </extensions>
      </trkpt>
      <trkpt lat="45.57533" lon="2.75474">
        <ele>1035</ele>
        <time>2024-05-26T08:38:00.000Z</time>
        <extensions>
          <gpxtpx:TrackPointExtension xmlns:gpxtpx="http://www.garmin.com/xmlschemas/TrackPointExtension/v1">
            <gpxtpx:hr>104</gpxtpx:hr>
          </gpxtpx:TrackPointExtension>
        </extensions>
      </trkpt>
      <trkpt lat="45.57539" lon="2.75469">
        <ele>1034</ele>
        <time>2024-05-26T08:38:01.000Z</time>
        <extensions>
          <gpxtpx:TrackPointExtension xmlns:gpxtpx="http://www.garmin.com/xmlschemas/TrackPointExtension/v1">
            <gpxtpx:hr>103</gpxtpx:hr>
          </gpxtpx:TrackPointExtension>
        </extensions>
      </trkpt>
      <trkpt lat="45.57547" lon="2.75465">
        <ele>1033</ele>
        <time>2024-05-26T08:38:02.000Z</time>
        <extensions>
          <gpxtpx:TrackPointExtension xmlns:gpxtpx="http://www.garmin.com/xmlschemas/TrackPointExtension/v1">
            <gpxtpx:hr>102</gpxtpx:hr>
          </gpxtpx:TrackPointExtension>
        </extensions>
      </trkpt>
      <trkpt lat="45.57556" lon="2.75463">
        <ele>1032</ele>
        <time>2024-05-26T08:38:03.000Z</time>
        <extensions>
          <gpxtpx:TrackPointExtension xmlns:gpxtpx="http://www.garmin.com/xmlschemas/TrackPointExtension/v1">
            <gpxtpx:hr>102</gpxtpx:hr>
          </gpxtpx:TrackPointExtension>
        </extensions>
      </trkpt>
      <trkpt lat="45.57563" lon="2.75459">
        <ele>1031.4000244141</ele>
        <time>2024-05-26T08:38:04.000Z</time>
        <extensions>
          <gpxtpx:TrackPointExtension xmlns:gpxtpx="http://www.garmin.com/xmlschemas/TrackPointExtension/v1">
            <gpxtpx:hr>101</gpxtpx:hr>
          </gpxtpx:TrackPointExtension>
        </extensions>
      </trkpt>
      <trkpt lat="45.57576" lon="2.75444">
        <ele>1030.5999755859</ele>
        <time>2024-05-26T08:38:06.000Z</time>
        <extensions>
          <gpxtpx:TrackPointExtension xmlns:gpxtpx="http://www.garmin.com/xmlschemas/TrackPointExtension/v1">
            <gpxtpx:hr>100</gpxtpx:hr>
          </gpxtpx:TrackPointExtension>
        </extensions>
      </trkpt>
      <trkpt lat="45.5758" lon="2.75434">
        <ele>1029.8000488281</ele>
        <time>2024-05-26T08:38:07.000Z</time>
        <extensions>
          <gpxtpx:TrackPointExtension xmlns:gpxtpx="http://www.garmin.com/xmlschemas/TrackPointExtension/v1">
            <gpxtpx:hr>100</gpxtpx:hr>
          </gpxtpx:TrackPointExtension>
        </extensions>
      </trkpt>
      <trkpt lat="45.57578" lon="2.75423">
        <ele>1029.1999511719</ele>
        <time>2024-05-26T08:38:08.000Z</time>
        <extensions>
          <gpxtpx:TrackPointExtension xmlns:gpxtpx="http://www.garmin.com/xmlschemas/TrackPointExtension/v1">
            <gpxtpx:hr>99</gpxtpx:hr>
          </gpxtpx:TrackPointExtension>
        </extensions>
      </trkpt>
      <trkpt lat="45.57573" lon="2.75412">
        <ele>1028.5999755859</ele>
        <time>2024-05-26T08:38:09.000Z</time>
        <extensions>
          <gpxtpx:TrackPointExtension xmlns:gpxtpx="http://www.garmin.com/xmlschemas/TrackPointExtension/v1">
            <gpxtpx:hr>99</gpxtpx:hr>
          </gpxtpx:TrackPointExtension>
        </extensions>
      </trkpt>
      <trkpt lat="45.57563" lon="2.75391">
        <ele>1027.8000488281</ele>
        <time>2024-05-26T08:38:11.000Z</time>
        <extensions>
          <gpxtpx:TrackPointExtension xmlns:gpxtpx="http://www.garmin.com/xmlschemas/TrackPointExtension/v1">
            <gpxtpx:hr>98</gpxtpx:hr>
          </gpxtpx:TrackPointExtension>
        </extensions>
      </trkpt>
      <trkpt lat="45.57562" lon="2.75378">
        <ele>1027</ele>
        <time>2024-05-26T08:38:12.000Z</time>
        <extensions>
          <gpxtpx:TrackPointExtension xmlns:gpxtpx="http://www.garmin.com/xmlschemas/TrackPointExtension/v1">
            <gpxtpx:hr>98</gpxtpx:hr>
          </gpxtpx:TrackPointExtension>
        </extensions>
      </trkpt>
      <trkpt lat="45.57561" lon="2.75351">
        <ele>1021.5999755859</ele>
        <time>2024-05-26T08:38:14.000Z</time>
        <extensions>
          <gpxtpx:TrackPointExtension xmlns:gpxtpx="http://www.garmin.com/xmlschemas/TrackPointExtension/v1">
            <gpxtpx:hr>98</gpxtpx:hr>
          </gpxtpx:TrackPointExtension>
        </extensions>
      </trkpt>
      <trkpt lat="45.5756" lon="2.75337">
        <ele>1021</ele>
        <time>2024-05-26T08:38:15.000Z</time>
        <extensions>
          <gpxtpx:TrackPointExtension xmlns:gpxtpx="http://www.garmin.com/xmlschemas/TrackPointExtension/v1">
            <gpxtpx:hr>98</gpxtpx:hr>
          </gpxtpx:TrackPointExtension>
        </extensions>
      </trkpt>
      <trkpt lat="45.57559" lon="2.75323">
        <ele>1020</ele>
        <time>2024-05-26T08:38:16.000Z</time>
        <extensions>
          <gpxtpx:TrackPointExtension xmlns:gpxtpx="http://www.garmin.com/xmlschemas/TrackPointExtension/v1">
            <gpxtpx:hr>98</gpxtpx:hr>
          </gpxtpx:TrackPointExtension>
        </extensions>
      </trkpt>
      <trkpt lat="45.57558" lon="2.75283">
        <ele>1019.4000244141</ele>
        <time>2024-05-26T08:38:19.000Z</time>
        <extensions>
          <gpxtpx:TrackPointExtension xmlns:gpxtpx="http://www.garmin.com/xmlschemas/TrackPointExtension/v1">
            <gpxtpx:hr>99</gpxtpx:hr>
          </gpxtpx:TrackPointExtension>
        </extensions>
      </trkpt>
      <trkpt lat="45.5756" lon="2.75272">
        <ele>1019.4000244141</ele>
        <time>2024-05-26T08:38:20.000Z</time>
        <extensions>
          <gpxtpx:TrackPointExtension xmlns:gpxtpx="http://www.garmin.com/xmlschemas/TrackPointExtension/v1">
            <gpxtpx:hr>99</gpxtpx:hr>
          </gpxtpx:TrackPointExtension>
        </extensions>
      </trkpt>
      <trkpt lat="45.57564" lon="2.75263">
        <ele>1019.4000244141</ele>
        <time>2024-05-26T08:38:21.000Z</time>
        <extensions>
          <gpxtpx:TrackPointExtension xmlns:gpxtpx="http://www.garmin.com/xmlschemas/TrackPointExtension/v1">
            <gpxtpx:hr>100</gpxtpx:hr>
          </gpxtpx:TrackPointExtension>
        </extensions>
      </trkpt>
      <trkpt lat="45.57568" lon="2.75255">
        <ele>1018.5999755859</ele>
        <time>2024-05-26T08:38:22.000Z</time>
        <extensions>
          <gpxtpx:TrackPointExtension xmlns:gpxtpx="http://www.garmin.com/xmlschemas/TrackPointExtension/v1">
            <gpxtpx:hr>100</gpxtpx:hr>
          </gpxtpx:TrackPointExtension>
        </extensions>
      </trkpt>
      <trkpt lat="45.57574" lon="2.75252">
        <ele>1016.799987793</ele>
        <time>2024-05-26T08:38:23.000Z</time>
        <extensions>
          <gpxtpx:TrackPointExtension xmlns:gpxtpx="http://www.garmin.com/xmlschemas/TrackPointExtension/v1">
            <gpxtpx:hr>100</gpxtpx:hr>
          </gpxtpx:TrackPointExtension>
        </extensions>
      </trkpt>
      <trkpt lat="45.57581" lon="2.75254">
        <ele>1016.5999755859</ele>
        <time>2024-05-26T08:38:24.000Z</time>
        <extensions>
          <gpxtpx:TrackPointExtension xmlns:gpxtpx="http://www.garmin.com/xmlschemas/TrackPointExtension/v1">
            <gpxtpx:hr>100</gpxtpx:hr>
          </gpxtpx:TrackPointExtension>
        </extensions>
      </trkpt>
      <trkpt lat="45.57588" lon="2.75259">
        <ele>1016.4000244141</ele>
        <time>2024-05-26T08:38:25.000Z</time>
        <extensions>
          <gpxtpx:TrackPointExtension xmlns:gpxtpx="http://www.garmin.com/xmlschemas/TrackPointExtension/v1">
            <gpxtpx:hr>100</gpxtpx:hr>
          </gpxtpx:TrackPointExtension>
        </extensions>
      </trkpt>
      <trkpt lat="45.57599" lon="2.75276">
        <ele>1015.5999755859</ele>
        <time>2024-05-26T08:38:27.000Z</time>
        <extensions>
          <gpxtpx:TrackPointExtension xmlns:gpxtpx="http://www.garmin.com/xmlschemas/TrackPointExtension/v1">
            <gpxtpx:hr>100</gpxtpx:hr>
          </gpxtpx:TrackPointExtension>
        </extensions>
      </trkpt>
      <trkpt lat="45.57604" lon="2.75286">
        <ele>1013.799987793</ele>
        <time>2024-05-26T08:38:28.000Z</time>
        <extensions>
          <gpxtpx:TrackPointExtension xmlns:gpxtpx="http://www.garmin.com/xmlschemas/TrackPointExtension/v1">
            <gpxtpx:hr>100</gpxtpx:hr>
          </gpxtpx:TrackPointExtension>
        </extensions>
      </trkpt>
      <trkpt lat="45.57615" lon="2.75308">
        <ele>1012</ele>
        <time>2024-05-26T08:38:30.000Z</time>
        <extensions>
          <gpxtpx:TrackPointExtension xmlns:gpxtpx="http://www.garmin.com/xmlschemas/TrackPointExtension/v1">
            <gpxtpx:hr>100</gpxtpx:hr>
          </gpxtpx:TrackPointExtension>
        </extensions>
      </trkpt>
      <trkpt lat="45.57626" lon="2.75328">
        <ele>1010.5999755859</ele>
        <time>2024-05-26T08:38:32.000Z</time>
        <extensions>
          <gpxtpx:TrackPointExtension xmlns:gpxtpx="http://www.garmin.com/xmlschemas/TrackPointExtension/v1">
            <gpxtpx:hr>100</gpxtpx:hr>
          </gpxtpx:TrackPointExtension>
        </extensions>
      </trkpt>
      <trkpt lat="45.57639" lon="2.7534">
        <ele>1008.5999755859</ele>
        <time>2024-05-26T08:38:34.000Z</time>
        <extensions>
          <gpxtpx:TrackPointExtension xmlns:gpxtpx="http://www.garmin.com/xmlschemas/TrackPointExtension/v1">
            <gpxtpx:hr>100</gpxtpx:hr>
          </gpxtpx:TrackPointExtension>
        </extensions>
      </trkpt>
      <trkpt lat="45.57644" lon="2.75338">
        <ele>1008</ele>
        <time>2024-05-26T08:38:35.000Z</time>
        <extensions>
          <gpxtpx:TrackPointExtension xmlns:gpxtpx="http://www.garmin.com/xmlschemas/TrackPointExtension/v1">
            <gpxtpx:hr>100</gpxtpx:hr>
          </gpxtpx:TrackPointExtension>
        </extensions>
      </trkpt>
      <trkpt lat="45.57649" lon="2.75332">
        <ele>1007.5999755859</ele>
        <time>2024-05-26T08:38:36.000Z</time>
        <extensions>
          <gpxtpx:TrackPointExtension xmlns:gpxtpx="http://www.garmin.com/xmlschemas/TrackPointExtension/v1">
            <gpxtpx:hr>100</gpxtpx:hr>
          </gpxtpx:TrackPointExtension>
        </extensions>
      </trkpt>
      <trkpt lat="45.57652" lon="2.75323">
        <ele>1007.4000244141</ele>
        <time>2024-05-26T08:38:37.000Z</time>
        <extensions>
          <gpxtpx:TrackPointExtension xmlns:gpxtpx="http://www.garmin.com/xmlschemas/TrackPointExtension/v1">
            <gpxtpx:hr>100</gpxtpx:hr>
          </gpxtpx:TrackPointExtension>
        </extensions>
      </trkpt>
      <trkpt lat="45.57652" lon="2.75314">
        <ele>1007.200012207</ele>
        <time>2024-05-26T08:38:38.000Z</time>
        <extensions>
          <gpxtpx:TrackPointExtension xmlns:gpxtpx="http://www.garmin.com/xmlschemas/TrackPointExtension/v1">
            <gpxtpx:hr>100</gpxtpx:hr>
          </gpxtpx:TrackPointExtension>
        </extensions>
      </trkpt>
      <trkpt lat="45.57649" lon="2.75294">
        <ele>1006</ele>
        <time>2024-05-26T08:38:40.000Z</time>
        <extensions>
          <gpxtpx:TrackPointExtension xmlns:gpxtpx="http://www.garmin.com/xmlschemas/TrackPointExtension/v1">
            <gpxtpx:hr>99</gpxtpx:hr>
          </gpxtpx:TrackPointExtension>
        </extensions>
      </trkpt>
      <trkpt lat="45.57646" lon="2.75271">
        <ele>1004.5999755859</ele>
        <time>2024-05-26T08:38:42.000Z</time>
        <extensions>
          <gpxtpx:TrackPointExtension xmlns:gpxtpx="http://www.garmin.com/xmlschemas/TrackPointExtension/v1">
            <gpxtpx:hr>99</gpxtpx:hr>
          </gpxtpx:TrackPointExtension>
        </extensions>
      </trkpt>
      <trkpt lat="45.57645" lon="2.75231">
        <ele>1002.799987793</ele>
        <time>2024-05-26T08:38:45.000Z</time>
        <extensions>
          <gpxtpx:TrackPointExtension xmlns:gpxtpx="http://www.garmin.com/xmlschemas/TrackPointExtension/v1">
            <gpxtpx:hr>102</gpxtpx:hr>
          </gpxtpx:TrackPointExtension>
        </extensions>
      </trkpt>
      <trkpt lat="45.57648" lon="2.75172">
        <ele>1001.5999755859</ele>
        <time>2024-05-26T08:38:49.000Z</time>
        <extensions>
          <gpxtpx:TrackPointExtension xmlns:gpxtpx="http://www.garmin.com/xmlschemas/TrackPointExtension/v1">
            <gpxtpx:hr>101</gpxtpx:hr>
          </gpxtpx:TrackPointExtension>
        </extensions>
      </trkpt>
      <trkpt lat="45.57649" lon="2.75143">
        <ele>1000.5999755859</ele>
        <time>2024-05-26T08:38:51.000Z</time>
        <extensions>
          <gpxtpx:TrackPointExtension xmlns:gpxtpx="http://www.garmin.com/xmlschemas/TrackPointExtension/v1">
            <gpxtpx:hr>104</gpxtpx:hr>
          </gpxtpx:TrackPointExtension>
        </extensions>
      </trkpt>
      <trkpt lat="45.57649" lon="2.75128">
        <ele>996.79998779297</ele>
        <time>2024-05-26T08:38:52.000Z</time>
        <extensions>
          <gpxtpx:TrackPointExtension xmlns:gpxtpx="http://www.garmin.com/xmlschemas/TrackPointExtension/v1">
            <gpxtpx:hr>104</gpxtpx:hr>
          </gpxtpx:TrackPointExtension>
        </extensions>
      </trkpt>
      <trkpt lat="45.57646" lon="2.75097">
        <ele>996.20001220703</ele>
        <time>2024-05-26T08:38:54.000Z</time>
        <extensions>
          <gpxtpx:TrackPointExtension xmlns:gpxtpx="http://www.garmin.com/xmlschemas/TrackPointExtension/v1">
            <gpxtpx:hr>107</gpxtpx:hr>
          </gpxtpx:TrackPointExtension>
        </extensions>
      </trkpt>
      <trkpt lat="45.57643" lon="2.75083">
        <ele>995.59997558594</ele>
        <time>2024-05-26T08:38:55.000Z</time>
        <extensions>
          <gpxtpx:TrackPointExtension xmlns:gpxtpx="http://www.garmin.com/xmlschemas/TrackPointExtension/v1">
            <gpxtpx:hr>109</gpxtpx:hr>
          </gpxtpx:TrackPointExtension>
        </extensions>
      </trkpt>
      <trkpt lat="45.57642" lon="2.75071">
        <ele>994.79998779297</ele>
        <time>2024-05-26T08:38:56.000Z</time>
        <extensions>
          <gpxtpx:TrackPointExtension xmlns:gpxtpx="http://www.garmin.com/xmlschemas/TrackPointExtension/v1">
            <gpxtpx:hr>110</gpxtpx:hr>
          </gpxtpx:TrackPointExtension>
        </extensions>
      </trkpt>
      <trkpt lat="45.57645" lon="2.75048">
        <ele>993.40002441406</ele>
        <time>2024-05-26T08:38:58.000Z</time>
        <extensions>
          <gpxtpx:TrackPointExtension xmlns:gpxtpx="http://www.garmin.com/xmlschemas/TrackPointExtension/v1">
            <gpxtpx:hr>114</gpxtpx:hr>
          </gpxtpx:TrackPointExtension>
        </extensions>
      </trkpt>
      <trkpt lat="45.57649" lon="2.75038">
        <ele>992.20001220703</ele>
        <time>2024-05-26T08:38:59.000Z</time>
        <extensions>
          <gpxtpx:TrackPointExtension xmlns:gpxtpx="http://www.garmin.com/xmlschemas/TrackPointExtension/v1">
            <gpxtpx:hr>115</gpxtpx:hr>
          </gpxtpx:TrackPointExtension>
        </extensions>
      </trkpt>
      <trkpt lat="45.57655" lon="2.7503">
        <ele>991.20001220703</ele>
        <time>2024-05-26T08:39:00.000Z</time>
        <extensions>
          <gpxtpx:TrackPointExtension xmlns:gpxtpx="http://www.garmin.com/xmlschemas/TrackPointExtension/v1">
            <gpxtpx:hr>115</gpxtpx:hr>
          </gpxtpx:TrackPointExtension>
        </extensions>
      </trkpt>
      <trkpt lat="45.57663" lon="2.75023">
        <ele>991</ele>
        <time>2024-05-26T08:39:01.000Z</time>
        <extensions>
          <gpxtpx:TrackPointExtension xmlns:gpxtpx="http://www.garmin.com/xmlschemas/TrackPointExtension/v1">
            <gpxtpx:hr>115</gpxtpx:hr>
          </gpxtpx:TrackPointExtension>
        </extensions>
      </trkpt>
      <trkpt lat="45.57671" lon="2.75018">
        <ele>990.79998779297</ele>
        <time>2024-05-26T08:39:02.000Z</time>
        <extensions>
          <gpxtpx:TrackPointExtension xmlns:gpxtpx="http://www.garmin.com/xmlschemas/TrackPointExtension/v1">
            <gpxtpx:hr>116</gpxtpx:hr>
          </gpxtpx:TrackPointExtension>
        </extensions>
      </trkpt>
      <trkpt lat="45.5769" lon="2.75011">
        <ele>989.59997558594</ele>
        <time>2024-05-26T08:39:04.000Z</time>
        <extensions>
          <gpxtpx:TrackPointExtension xmlns:gpxtpx="http://www.garmin.com/xmlschemas/TrackPointExtension/v1">
            <gpxtpx:hr>116</gpxtpx:hr>
          </gpxtpx:TrackPointExtension>
        </extensions>
      </trkpt>
      <trkpt lat="45.577" lon="2.75007">
        <ele>987.79998779297</ele>
        <time>2024-05-26T08:39:05.000Z</time>
        <extensions>
          <gpxtpx:TrackPointExtension xmlns:gpxtpx="http://www.garmin.com/xmlschemas/TrackPointExtension/v1">
            <gpxtpx:hr>116</gpxtpx:hr>
          </gpxtpx:TrackPointExtension>
        </extensions>
      </trkpt>
      <trkpt lat="45.57721" lon="2.75">
        <ele>986.79998779297</ele>
        <time>2024-05-26T08:39:07.000Z</time>
        <extensions>
          <gpxtpx:TrackPointExtension xmlns:gpxtpx="http://www.garmin.com/xmlschemas/TrackPointExtension/v1">
            <gpxtpx:hr>115</gpxtpx:hr>
          </gpxtpx:TrackPointExtension>
        </extensions>
      </trkpt>
      <trkpt lat="45.57743" lon="2.7499">
        <ele>985.20001220703</ele>
        <time>2024-05-26T08:39:09.000Z</time>
        <extensions>
          <gpxtpx:TrackPointExtension xmlns:gpxtpx="http://www.garmin.com/xmlschemas/TrackPointExtension/v1">
            <gpxtpx:hr>114</gpxtpx:hr>
          </gpxtpx:TrackPointExtension>
        </extensions>
      </trkpt>
      <trkpt lat="45.57755" lon="2.74985">
        <ele>983.79998779297</ele>
        <time>2024-05-26T08:39:10.000Z</time>
        <extensions>
          <gpxtpx:TrackPointExtension xmlns:gpxtpx="http://www.garmin.com/xmlschemas/TrackPointExtension/v1">
            <gpxtpx:hr>114</gpxtpx:hr>
          </gpxtpx:TrackPointExtension>
        </extensions>
      </trkpt>
      <trkpt lat="45.57779" lon="2.74973">
        <ele>982.59997558594</ele>
        <time>2024-05-26T08:39:12.000Z</time>
        <extensions>
          <gpxtpx:TrackPointExtension xmlns:gpxtpx="http://www.garmin.com/xmlschemas/TrackPointExtension/v1">
            <gpxtpx:hr>113</gpxtpx:hr>
          </gpxtpx:TrackPointExtension>
        </extensions>
      </trkpt>
      <trkpt lat="45.57803" lon="2.74961">
        <ele>981</ele>
        <time>2024-05-26T08:39:14.000Z</time>
        <extensions>
          <gpxtpx:TrackPointExtension xmlns:gpxtpx="http://www.garmin.com/xmlschemas/TrackPointExtension/v1">
            <gpxtpx:hr>113</gpxtpx:hr>
          </gpxtpx:TrackPointExtension>
        </extensions>
      </trkpt>
      <trkpt lat="45.57827" lon="2.74948">
        <ele>979.40002441406</ele>
        <time>2024-05-26T08:39:16.000Z</time>
        <extensions>
          <gpxtpx:TrackPointExtension xmlns:gpxtpx="http://www.garmin.com/xmlschemas/TrackPointExtension/v1">
            <gpxtpx:hr>112</gpxtpx:hr>
          </gpxtpx:TrackPointExtension>
        </extensions>
      </trkpt>
      <trkpt lat="45.57852" lon="2.74933">
        <ele>977</ele>
        <time>2024-05-26T08:39:18.000Z</time>
        <extensions>
          <gpxtpx:TrackPointExtension xmlns:gpxtpx="http://www.garmin.com/xmlschemas/TrackPointExtension/v1">
            <gpxtpx:hr>110</gpxtpx:hr>
          </gpxtpx:TrackPointExtension>
        </extensions>
      </trkpt>
      <trkpt lat="45.57872" lon="2.74924">
        <ele>975.59997558594</ele>
        <time>2024-05-26T08:39:20.000Z</time>
        <extensions>
          <gpxtpx:TrackPointExtension xmlns:gpxtpx="http://www.garmin.com/xmlschemas/TrackPointExtension/v1">
            <gpxtpx:hr>108</gpxtpx:hr>
          </gpxtpx:TrackPointExtension>
        </extensions>
      </trkpt>
      <trkpt lat="45.57883" lon="2.74919">
        <ele>975.40002441406</ele>
        <time>2024-05-26T08:39:21.000Z</time>
        <extensions>
          <gpxtpx:TrackPointExtension xmlns:gpxtpx="http://www.garmin.com/xmlschemas/TrackPointExtension/v1">
            <gpxtpx:hr>107</gpxtpx:hr>
          </gpxtpx:TrackPointExtension>
        </extensions>
      </trkpt>
      <trkpt lat="45.57904" lon="2.74914">
        <ele>974.20001220703</ele>
        <time>2024-05-26T08:39:23.000Z</time>
        <extensions>
          <gpxtpx:TrackPointExtension xmlns:gpxtpx="http://www.garmin.com/xmlschemas/TrackPointExtension/v1">
            <gpxtpx:hr>106</gpxtpx:hr>
          </gpxtpx:TrackPointExtension>
        </extensions>
      </trkpt>
      <trkpt lat="45.57912" lon="2.74914">
        <ele>973</ele>
        <time>2024-05-26T08:39:24.000Z</time>
        <extensions>
          <gpxtpx:TrackPointExtension xmlns:gpxtpx="http://www.garmin.com/xmlschemas/TrackPointExtension/v1">
            <gpxtpx:hr>106</gpxtpx:hr>
          </gpxtpx:TrackPointExtension>
        </extensions>
      </trkpt>
      <trkpt lat="45.57919" lon="2.74917">
        <ele>972.59997558594</ele>
        <time>2024-05-26T08:39:25.000Z</time>
        <extensions>
          <gpxtpx:TrackPointExtension xmlns:gpxtpx="http://www.garmin.com/xmlschemas/TrackPointExtension/v1">
            <gpxtpx:hr>105</gpxtpx:hr>
          </gpxtpx:TrackPointExtension>
        </extensions>
      </trkpt>
      <trkpt lat="45.57925" lon="2.74923">
        <ele>971.79998779297</ele>
        <time>2024-05-26T08:39:26.000Z</time>
        <extensions>
          <gpxtpx:TrackPointExtension xmlns:gpxtpx="http://www.garmin.com/xmlschemas/TrackPointExtension/v1">
            <gpxtpx:hr>104</gpxtpx:hr>
          </gpxtpx:TrackPointExtension>
        </extensions>
      </trkpt>
      <trkpt lat="45.57928" lon="2.7493">
        <ele>970.59997558594</ele>
        <time>2024-05-26T08:39:27.000Z</time>
        <extensions>
          <gpxtpx:TrackPointExtension xmlns:gpxtpx="http://www.garmin.com/xmlschemas/TrackPointExtension/v1">
            <gpxtpx:hr>104</gpxtpx:hr>
          </gpxtpx:TrackPointExtension>
        </extensions>
      </trkpt>
      <trkpt lat="45.57932" lon="2.7494">
        <ele>969.40002441406</ele>
        <time>2024-05-26T08:39:28.000Z</time>
        <extensions>
          <gpxtpx:TrackPointExtension xmlns:gpxtpx="http://www.garmin.com/xmlschemas/TrackPointExtension/v1">
            <gpxtpx:hr>104</gpxtpx:hr>
          </gpxtpx:TrackPointExtension>
        </extensions>
      </trkpt>
      <trkpt lat="45.57935" lon="2.74954">
        <ele>968.79998779297</ele>
        <time>2024-05-26T08:39:29.000Z</time>
        <extensions>
          <gpxtpx:TrackPointExtension xmlns:gpxtpx="http://www.garmin.com/xmlschemas/TrackPointExtension/v1">
            <gpxtpx:hr>104</gpxtpx:hr>
          </gpxtpx:TrackPointExtension>
        </extensions>
      </trkpt>
      <trkpt lat="45.57937" lon="2.74967">
        <ele>968.20001220703</ele>
        <time>2024-05-26T08:39:30.000Z</time>
        <extensions>
          <gpxtpx:TrackPointExtension xmlns:gpxtpx="http://www.garmin.com/xmlschemas/TrackPointExtension/v1">
            <gpxtpx:hr>105</gpxtpx:hr>
          </gpxtpx:TrackPointExtension>
        </extensions>
      </trkpt>
      <trkpt lat="45.57938" lon="2.74993">
        <ele>967.20001220703</ele>
        <time>2024-05-26T08:39:32.000Z</time>
        <extensions>
          <gpxtpx:TrackPointExtension xmlns:gpxtpx="http://www.garmin.com/xmlschemas/TrackPointExtension/v1">
            <gpxtpx:hr>106</gpxtpx:hr>
          </gpxtpx:TrackPointExtension>
        </extensions>
      </trkpt>
      <trkpt lat="45.57941" lon="2.75017">
        <ele>966</ele>
        <time>2024-05-26T08:39:34.000Z</time>
        <extensions>
          <gpxtpx:TrackPointExtension xmlns:gpxtpx="http://www.garmin.com/xmlschemas/TrackPointExtension/v1">
            <gpxtpx:hr>107</gpxtpx:hr>
          </gpxtpx:TrackPointExtension>
        </extensions>
      </trkpt>
      <trkpt lat="45.57955" lon="2.75037">
        <ele>965.40002441406</ele>
        <time>2024-05-26T08:39:36.000Z</time>
        <extensions>
          <gpxtpx:TrackPointExtension xmlns:gpxtpx="http://www.garmin.com/xmlschemas/TrackPointExtension/v1">
            <gpxtpx:hr>107</gpxtpx:hr>
          </gpxtpx:TrackPointExtension>
        </extensions>
      </trkpt>
      <trkpt lat="45.57965" lon="2.75043">
        <ele>964.79998779297</ele>
        <time>2024-05-26T08:39:37.000Z</time>
        <extensions>
          <gpxtpx:TrackPointExtension xmlns:gpxtpx="http://www.garmin.com/xmlschemas/TrackPointExtension/v1">
            <gpxtpx:hr>107</gpxtpx:hr>
          </gpxtpx:TrackPointExtension>
        </extensions>
      </trkpt>
      <trkpt lat="45.57972" lon="2.75044">
        <ele>964.59997558594</ele>
        <time>2024-05-26T08:39:38.000Z</time>
        <extensions>
          <gpxtpx:TrackPointExtension xmlns:gpxtpx="http://www.garmin.com/xmlschemas/TrackPointExtension/v1">
            <gpxtpx:hr>107</gpxtpx:hr>
          </gpxtpx:TrackPointExtension>
        </extensions>
      </trkpt>
      <trkpt lat="45.57983" lon="2.75041">
        <ele>963.40002441406</ele>
        <time>2024-05-26T08:39:39.000Z</time>
        <extensions>
          <gpxtpx:TrackPointExtension xmlns:gpxtpx="http://www.garmin.com/xmlschemas/TrackPointExtension/v1">
            <gpxtpx:hr>107</gpxtpx:hr>
          </gpxtpx:TrackPointExtension>
        </extensions>
      </trkpt>
      <trkpt lat="45.57992" lon="2.75037">
        <ele>962.20001220703</ele>
        <time>2024-05-26T08:39:40.000Z</time>
        <extensions>
          <gpxtpx:TrackPointExtension xmlns:gpxtpx="http://www.garmin.com/xmlschemas/TrackPointExtension/v1">
            <gpxtpx:hr>107</gpxtpx:hr>
          </gpxtpx:TrackPointExtension>
        </extensions>
      </trkpt>
      <trkpt lat="45.57997" lon="2.7503">
        <ele>961</ele>
        <time>2024-05-26T08:39:41.000Z</time>
        <extensions>
          <gpxtpx:TrackPointExtension xmlns:gpxtpx="http://www.garmin.com/xmlschemas/TrackPointExtension/v1">
            <gpxtpx:hr>107</gpxtpx:hr>
          </gpxtpx:TrackPointExtension>
        </extensions>
      </trkpt>
      <trkpt lat="45.58004" lon="2.75018">
        <ele>960.40002441406</ele>
        <time>2024-05-26T08:39:42.000Z</time>
        <extensions>
          <gpxtpx:TrackPointExtension xmlns:gpxtpx="http://www.garmin.com/xmlschemas/TrackPointExtension/v1">
            <gpxtpx:hr>107</gpxtpx:hr>
          </gpxtpx:TrackPointExtension>
        </extensions>
      </trkpt>
      <trkpt lat="45.58009" lon="2.75008">
        <ele>959.40002441406</ele>
        <time>2024-05-26T08:39:43.000Z</time>
        <extensions>
          <gpxtpx:TrackPointExtension xmlns:gpxtpx="http://www.garmin.com/xmlschemas/TrackPointExtension/v1">
            <gpxtpx:hr>107</gpxtpx:hr>
          </gpxtpx:TrackPointExtension>
        </extensions>
      </trkpt>
      <trkpt lat="45.58019" lon="2.74982">
        <ele>957.79998779297</ele>
        <time>2024-05-26T08:39:45.000Z</time>
        <extensions>
          <gpxtpx:TrackPointExtension xmlns:gpxtpx="http://www.garmin.com/xmlschemas/TrackPointExtension/v1">
            <gpxtpx:hr>106</gpxtpx:hr>
          </gpxtpx:TrackPointExtension>
        </extensions>
      </trkpt>
      <trkpt lat="45.58024" lon="2.74968">
        <ele>957.40002441406</ele>
        <time>2024-05-26T08:39:46.000Z</time>
        <extensions>
          <gpxtpx:TrackPointExtension xmlns:gpxtpx="http://www.garmin.com/xmlschemas/TrackPointExtension/v1">
            <gpxtpx:hr>107</gpxtpx:hr>
          </gpxtpx:TrackPointExtension>
        </extensions>
      </trkpt>
      <trkpt lat="45.58031" lon="2.74952">
        <ele>957</ele>
        <time>2024-05-26T08:39:47.000Z</time>
        <extensions>
          <gpxtpx:TrackPointExtension xmlns:gpxtpx="http://www.garmin.com/xmlschemas/TrackPointExtension/v1">
            <gpxtpx:hr>107</gpxtpx:hr>
          </gpxtpx:TrackPointExtension>
        </extensions>
      </trkpt>
      <trkpt lat="45.58037" lon="2.74943">
        <ele>956.40002441406</ele>
        <time>2024-05-26T08:39:48.000Z</time>
        <extensions>
          <gpxtpx:TrackPointExtension xmlns:gpxtpx="http://www.garmin.com/xmlschemas/TrackPointExtension/v1">
            <gpxtpx:hr>107</gpxtpx:hr>
          </gpxtpx:TrackPointExtension>
        </extensions>
      </trkpt>
      <trkpt lat="45.58045" lon="2.74932">
        <ele>955.20001220703</ele>
        <time>2024-05-26T08:39:49.000Z</time>
        <extensions>
          <gpxtpx:TrackPointExtension xmlns:gpxtpx="http://www.garmin.com/xmlschemas/TrackPointExtension/v1">
            <gpxtpx:hr>108</gpxtpx:hr>
          </gpxtpx:TrackPointExtension>
        </extensions>
      </trkpt>
      <trkpt lat="45.58071" lon="2.74904">
        <ele>953.79998779297</ele>
        <time>2024-05-26T08:39:52.000Z</time>
        <extensions>
          <gpxtpx:TrackPointExtension xmlns:gpxtpx="http://www.garmin.com/xmlschemas/TrackPointExtension/v1">
            <gpxtpx:hr>107</gpxtpx:hr>
          </gpxtpx:TrackPointExtension>
        </extensions>
      </trkpt>
      <trkpt lat="45.58075" lon="2.74891">
        <ele>952.79998779297</ele>
        <time>2024-05-26T08:39:53.000Z</time>
        <extensions>
          <gpxtpx:TrackPointExtension xmlns:gpxtpx="http://www.garmin.com/xmlschemas/TrackPointExtension/v1">
            <gpxtpx:hr>107</gpxtpx:hr>
          </gpxtpx:TrackPointExtension>
        </extensions>
      </trkpt>
      <trkpt lat="45.5808" lon="2.74878">
        <ele>951.59997558594</ele>
        <time>2024-05-26T08:39:54.000Z</time>
        <extensions>
          <gpxtpx:TrackPointExtension xmlns:gpxtpx="http://www.garmin.com/xmlschemas/TrackPointExtension/v1">
            <gpxtpx:hr>107</gpxtpx:hr>
          </gpxtpx:TrackPointExtension>
        </extensions>
      </trkpt>
      <trkpt lat="45.58084" lon="2.74864">
        <ele>951</ele>
        <time>2024-05-26T08:39:55.000Z</time>
        <extensions>
          <gpxtpx:TrackPointExtension xmlns:gpxtpx="http://www.garmin.com/xmlschemas/TrackPointExtension/v1">
            <gpxtpx:hr>108</gpxtpx:hr>
          </gpxtpx:TrackPointExtension>
        </extensions>
      </trkpt>
      <trkpt lat="45.58086" lon="2.7485">
        <ele>950.59997558594</ele>
        <time>2024-05-26T08:39:56.000Z</time>
        <extensions>
          <gpxtpx:TrackPointExtension xmlns:gpxtpx="http://www.garmin.com/xmlschemas/TrackPointExtension/v1">
            <gpxtpx:hr>106</gpxtpx:hr>
          </gpxtpx:TrackPointExtension>
        </extensions>
      </trkpt>
      <trkpt lat="45.58093" lon="2.74824">
        <ele>950</ele>
        <time>2024-05-26T08:39:58.000Z</time>
        <extensions>
          <gpxtpx:TrackPointExtension xmlns:gpxtpx="http://www.garmin.com/xmlschemas/TrackPointExtension/v1">
            <gpxtpx:hr>107</gpxtpx:hr>
          </gpxtpx:TrackPointExtension>
        </extensions>
      </trkpt>
      <trkpt lat="45.58098" lon="2.74811">
        <ele>948</ele>
        <time>2024-05-26T08:39:59.000Z</time>
        <extensions>
          <gpxtpx:TrackPointExtension xmlns:gpxtpx="http://www.garmin.com/xmlschemas/TrackPointExtension/v1">
            <gpxtpx:hr>107</gpxtpx:hr>
          </gpxtpx:TrackPointExtension>
        </extensions>
      </trkpt>
      <trkpt lat="45.58104" lon="2.74801">
        <ele>947.79998779297</ele>
        <time>2024-05-26T08:40:00.000Z</time>
        <extensions>
          <gpxtpx:TrackPointExtension xmlns:gpxtpx="http://www.garmin.com/xmlschemas/TrackPointExtension/v1">
            <gpxtpx:hr>108</gpxtpx:hr>
          </gpxtpx:TrackPointExtension>
        </extensions>
      </trkpt>
      <trkpt lat="45.58118" lon="2.74781">
        <ele>946.79998779297</ele>
        <time>2024-05-26T08:40:02.000Z</time>
        <extensions>
          <gpxtpx:TrackPointExtension xmlns:gpxtpx="http://www.garmin.com/xmlschemas/TrackPointExtension/v1">
            <gpxtpx:hr>107</gpxtpx:hr>
          </gpxtpx:TrackPointExtension>
        </extensions>
      </trkpt>
      <trkpt lat="45.58126" lon="2.74772">
        <ele>944.20001220703</ele>
        <time>2024-05-26T08:40:03.000Z</time>
        <extensions>
          <gpxtpx:TrackPointExtension xmlns:gpxtpx="http://www.garmin.com/xmlschemas/TrackPointExtension/v1">
            <gpxtpx:hr>107</gpxtpx:hr>
          </gpxtpx:TrackPointExtension>
        </extensions>
      </trkpt>
      <trkpt lat="45.58151" lon="2.74748">
        <ele>942.59997558594</ele>
        <time>2024-05-26T08:40:06.000Z</time>
        <extensions>
          <gpxtpx:TrackPointExtension xmlns:gpxtpx="http://www.garmin.com/xmlschemas/TrackPointExtension/v1">
            <gpxtpx:hr>104</gpxtpx:hr>
          </gpxtpx:TrackPointExtension>
        </extensions>
      </trkpt>
      <trkpt lat="45.5816" lon="2.7474">
        <ele>941.20001220703</ele>
        <time>2024-05-26T08:40:07.000Z</time>
        <extensions>
          <gpxtpx:TrackPointExtension xmlns:gpxtpx="http://www.garmin.com/xmlschemas/TrackPointExtension/v1">
            <gpxtpx:hr>103</gpxtpx:hr>
          </gpxtpx:TrackPointExtension>
        </extensions>
      </trkpt>
      <trkpt lat="45.58178" lon="2.74722">
        <ele>940</ele>
        <time>2024-05-26T08:40:09.000Z</time>
        <extensions>
          <gpxtpx:TrackPointExtension xmlns:gpxtpx="http://www.garmin.com/xmlschemas/TrackPointExtension/v1">
            <gpxtpx:hr>103</gpxtpx:hr>
          </gpxtpx:TrackPointExtension>
        </extensions>
      </trkpt>
      <trkpt lat="45.58188" lon="2.74715">
        <ele>939.59997558594</ele>
        <time>2024-05-26T08:40:10.000Z</time>
        <extensions>
          <gpxtpx:TrackPointExtension xmlns:gpxtpx="http://www.garmin.com/xmlschemas/TrackPointExtension/v1">
            <gpxtpx:hr>103</gpxtpx:hr>
          </gpxtpx:TrackPointExtension>
        </extensions>
      </trkpt>
      <trkpt lat="45.58199" lon="2.74709">
        <ele>938.40002441406</ele>
        <time>2024-05-26T08:40:11.000Z</time>
        <extensions>
          <gpxtpx:TrackPointExtension xmlns:gpxtpx="http://www.garmin.com/xmlschemas/TrackPointExtension/v1">
            <gpxtpx:hr>103</gpxtpx:hr>
          </gpxtpx:TrackPointExtension>
        </extensions>
      </trkpt>
      <trkpt lat="45.58219" lon="2.747">
        <ele>937</ele>
        <time>2024-05-26T08:40:13.000Z</time>
        <extensions>
          <gpxtpx:TrackPointExtension xmlns:gpxtpx="http://www.garmin.com/xmlschemas/TrackPointExtension/v1">
            <gpxtpx:hr>103</gpxtpx:hr>
          </gpxtpx:TrackPointExtension>
        </extensions>
      </trkpt>
      <trkpt lat="45.58238" lon="2.74691">
        <ele>935.40002441406</ele>
        <time>2024-05-26T08:40:15.000Z</time>
        <extensions>
          <gpxtpx:TrackPointExtension xmlns:gpxtpx="http://www.garmin.com/xmlschemas/TrackPointExtension/v1">
            <gpxtpx:hr>103</gpxtpx:hr>
          </gpxtpx:TrackPointExtension>
        </extensions>
      </trkpt>
      <trkpt lat="45.58246" lon="2.74684">
        <ele>934.40002441406</ele>
        <time>2024-05-26T08:40:16.000Z</time>
        <extensions>
          <gpxtpx:TrackPointExtension xmlns:gpxtpx="http://www.garmin.com/xmlschemas/TrackPointExtension/v1">
            <gpxtpx:hr>104</gpxtpx:hr>
          </gpxtpx:TrackPointExtension>
        </extensions>
      </trkpt>
      <trkpt lat="45.58258" lon="2.74666">
        <ele>932.79998779297</ele>
        <time>2024-05-26T08:40:18.000Z</time>
        <extensions>
          <gpxtpx:TrackPointExtension xmlns:gpxtpx="http://www.garmin.com/xmlschemas/TrackPointExtension/v1">
            <gpxtpx:hr>104</gpxtpx:hr>
          </gpxtpx:TrackPointExtension>
        </extensions>
      </trkpt>
      <trkpt lat="45.58266" lon="2.74646">
        <ele>931.79998779297</ele>
        <time>2024-05-26T08:40:20.000Z</time>
        <extensions>
          <gpxtpx:TrackPointExtension xmlns:gpxtpx="http://www.garmin.com/xmlschemas/TrackPointExtension/v1">
            <gpxtpx:hr>104</gpxtpx:hr>
          </gpxtpx:TrackPointExtension>
        </extensions>
      </trkpt>
      <trkpt lat="45.58273" lon="2.74635">
        <ele>930</ele>
        <time>2024-05-26T08:40:21.000Z</time>
        <extensions>
          <gpxtpx:TrackPointExtension xmlns:gpxtpx="http://www.garmin.com/xmlschemas/TrackPointExtension/v1">
            <gpxtpx:hr>105</gpxtpx:hr>
          </gpxtpx:TrackPointExtension>
        </extensions>
      </trkpt>
      <trkpt lat="45.5828" lon="2.74627">
        <ele>929.59997558594</ele>
        <time>2024-05-26T08:40:22.000Z</time>
        <extensions>
          <gpxtpx:TrackPointExtension xmlns:gpxtpx="http://www.garmin.com/xmlschemas/TrackPointExtension/v1">
            <gpxtpx:hr>104</gpxtpx:hr>
          </gpxtpx:TrackPointExtension>
        </extensions>
      </trkpt>
      <trkpt lat="45.58288" lon="2.7462">
        <ele>928.79998779297</ele>
        <time>2024-05-26T08:40:23.000Z</time>
        <extensions>
          <gpxtpx:TrackPointExtension xmlns:gpxtpx="http://www.garmin.com/xmlschemas/TrackPointExtension/v1">
            <gpxtpx:hr>104</gpxtpx:hr>
          </gpxtpx:TrackPointExtension>
        </extensions>
      </trkpt>
      <trkpt lat="45.58311" lon="2.74596">
        <ele>927.20001220703</ele>
        <time>2024-05-26T08:40:26.000Z</time>
        <extensions>
          <gpxtpx:TrackPointExtension xmlns:gpxtpx="http://www.garmin.com/xmlschemas/TrackPointExtension/v1">
            <gpxtpx:hr>105</gpxtpx:hr>
          </gpxtpx:TrackPointExtension>
        </extensions>
      </trkpt>
      <trkpt lat="45.58317" lon="2.7459">
        <ele>926.20001220703</ele>
        <time>2024-05-26T08:40:27.000Z</time>
        <extensions>
          <gpxtpx:TrackPointExtension xmlns:gpxtpx="http://www.garmin.com/xmlschemas/TrackPointExtension/v1">
            <gpxtpx:hr>105</gpxtpx:hr>
          </gpxtpx:TrackPointExtension>
        </extensions>
      </trkpt>
      <trkpt lat="45.58331" lon="2.74573">
        <ele>925</ele>
        <time>2024-05-26T08:40:29.000Z</time>
        <extensions>
          <gpxtpx:TrackPointExtension xmlns:gpxtpx="http://www.garmin.com/xmlschemas/TrackPointExtension/v1">
            <gpxtpx:hr>106</gpxtpx:hr>
          </gpxtpx:TrackPointExtension>
        </extensions>
      </trkpt>
      <trkpt lat="45.58338" lon="2.74564">
        <ele>923.40002441406</ele>
        <time>2024-05-26T08:40:30.000Z</time>
        <extensions>
          <gpxtpx:TrackPointExtension xmlns:gpxtpx="http://www.garmin.com/xmlschemas/TrackPointExtension/v1">
            <gpxtpx:hr>106</gpxtpx:hr>
          </gpxtpx:TrackPointExtension>
        </extensions>
      </trkpt>
      <trkpt lat="45.58345" lon="2.74554">
        <ele>922.40002441406</ele>
        <time>2024-05-26T08:40:31.000Z</time>
        <extensions>
          <gpxtpx:TrackPointExtension xmlns:gpxtpx="http://www.garmin.com/xmlschemas/TrackPointExtension/v1">
            <gpxtpx:hr>107</gpxtpx:hr>
          </gpxtpx:TrackPointExtension>
        </extensions>
      </trkpt>
      <trkpt lat="45.58353" lon="2.74545">
        <ele>921.20001220703</ele>
        <time>2024-05-26T08:40:32.000Z</time>
        <extensions>
          <gpxtpx:TrackPointExtension xmlns:gpxtpx="http://www.garmin.com/xmlschemas/TrackPointExtension/v1">
            <gpxtpx:hr>107</gpxtpx:hr>
          </gpxtpx:TrackPointExtension>
        </extensions>
      </trkpt>
      <trkpt lat="45.58376" lon="2.74516">
        <ele>919.79998779297</ele>
        <time>2024-05-26T08:40:35.000Z</time>
        <extensions>
          <gpxtpx:TrackPointExtension xmlns:gpxtpx="http://www.garmin.com/xmlschemas/TrackPointExtension/v1">
            <gpxtpx:hr>110</gpxtpx:hr>
          </gpxtpx:TrackPointExtension>
        </extensions>
      </trkpt>
      <trkpt lat="45.58384" lon="2.74506">
        <ele>919</ele>
        <time>2024-05-26T08:40:36.000Z</time>
        <extensions>
          <gpxtpx:TrackPointExtension xmlns:gpxtpx="http://www.garmin.com/xmlschemas/TrackPointExtension/v1">
            <gpxtpx:hr>111</gpxtpx:hr>
          </gpxtpx:TrackPointExtension>
        </extensions>
      </trkpt>
      <trkpt lat="45.58391" lon="2.74496">
        <ele>917.59997558594</ele>
        <time>2024-05-26T08:40:37.000Z</time>
        <extensions>
          <gpxtpx:TrackPointExtension xmlns:gpxtpx="http://www.garmin.com/xmlschemas/TrackPointExtension/v1">
            <gpxtpx:hr>112</gpxtpx:hr>
          </gpxtpx:TrackPointExtension>
        </extensions>
      </trkpt>
      <trkpt lat="45.58404" lon="2.74476">
        <ele>916.40002441406</ele>
        <time>2024-05-26T08:40:39.000Z</time>
        <extensions>
          <gpxtpx:TrackPointExtension xmlns:gpxtpx="http://www.garmin.com/xmlschemas/TrackPointExtension/v1">
            <gpxtpx:hr>114</gpxtpx:hr>
          </gpxtpx:TrackPointExtension>
        </extensions>
      </trkpt>
      <trkpt lat="45.58409" lon="2.74462">
        <ele>915.79998779297</ele>
        <time>2024-05-26T08:40:40.000Z</time>
        <extensions>
          <gpxtpx:TrackPointExtension xmlns:gpxtpx="http://www.garmin.com/xmlschemas/TrackPointExtension/v1">
            <gpxtpx:hr>114</gpxtpx:hr>
          </gpxtpx:TrackPointExtension>
        </extensions>
      </trkpt>
      <trkpt lat="45.58413" lon="2.74448">
        <ele>915</ele>
        <time>2024-05-26T08:40:41.000Z</time>
        <extensions>
          <gpxtpx:TrackPointExtension xmlns:gpxtpx="http://www.garmin.com/xmlschemas/TrackPointExtension/v1">
            <gpxtpx:hr>114</gpxtpx:hr>
          </gpxtpx:TrackPointExtension>
        </extensions>
      </trkpt>
      <trkpt lat="45.58417" lon="2.74435">
        <ele>914</ele>
        <time>2024-05-26T08:40:42.000Z</time>
        <extensions>
          <gpxtpx:TrackPointExtension xmlns:gpxtpx="http://www.garmin.com/xmlschemas/TrackPointExtension/v1">
            <gpxtpx:hr>115</gpxtpx:hr>
          </gpxtpx:TrackPointExtension>
        </extensions>
      </trkpt>
      <trkpt lat="45.58424" lon="2.74406">
        <ele>912.20001220703</ele>
        <time>2024-05-26T08:40:44.000Z</time>
        <extensions>
          <gpxtpx:TrackPointExtension xmlns:gpxtpx="http://www.garmin.com/xmlschemas/TrackPointExtension/v1">
            <gpxtpx:hr>115</gpxtpx:hr>
          </gpxtpx:TrackPointExtension>
        </extensions>
      </trkpt>
      <trkpt lat="45.58433" lon="2.74377">
        <ele>910.79998779297</ele>
        <time>2024-05-26T08:40:46.000Z</time>
        <extensions>
          <gpxtpx:TrackPointExtension xmlns:gpxtpx="http://www.garmin.com/xmlschemas/TrackPointExtension/v1">
            <gpxtpx:hr>115</gpxtpx:hr>
          </gpxtpx:TrackPointExtension>
        </extensions>
      </trkpt>
      <trkpt lat="45.58436" lon="2.74361">
        <ele>909.59997558594</ele>
        <time>2024-05-26T08:40:47.000Z</time>
        <extensions>
          <gpxtpx:TrackPointExtension xmlns:gpxtpx="http://www.garmin.com/xmlschemas/TrackPointExtension/v1">
            <gpxtpx:hr>116</gpxtpx:hr>
          </gpxtpx:TrackPointExtension>
        </extensions>
      </trkpt>
      <trkpt lat="45.58442" lon="2.74329">
        <ele>908.20001220703</ele>
        <time>2024-05-26T08:40:49.000Z</time>
        <extensions>
          <gpxtpx:TrackPointExtension xmlns:gpxtpx="http://www.garmin.com/xmlschemas/TrackPointExtension/v1">
            <gpxtpx:hr>117</gpxtpx:hr>
          </gpxtpx:TrackPointExtension>
        </extensions>
      </trkpt>
      <trkpt lat="45.58446" lon="2.74313">
        <ele>907</ele>
        <time>2024-05-26T08:40:50.000Z</time>
        <extensions>
          <gpxtpx:TrackPointExtension xmlns:gpxtpx="http://www.garmin.com/xmlschemas/TrackPointExtension/v1">
            <gpxtpx:hr>117</gpxtpx:hr>
          </gpxtpx:TrackPointExtension>
        </extensions>
      </trkpt>
      <trkpt lat="45.58454" lon="2.74283">
        <ele>905.20001220703</ele>
        <time>2024-05-26T08:40:52.000Z</time>
        <extensions>
          <gpxtpx:TrackPointExtension xmlns:gpxtpx="http://www.garmin.com/xmlschemas/TrackPointExtension/v1">
            <gpxtpx:hr>117</gpxtpx:hr>
          </gpxtpx:TrackPointExtension>
        </extensions>
      </trkpt>
      <trkpt lat="45.5846" lon="2.7427">
        <ele>903.59997558594</ele>
        <time>2024-05-26T08:40:53.000Z</time>
        <extensions>
          <gpxtpx:TrackPointExtension xmlns:gpxtpx="http://www.garmin.com/xmlschemas/TrackPointExtension/v1">
            <gpxtpx:hr>117</gpxtpx:hr>
          </gpxtpx:TrackPointExtension>
        </extensions>
      </trkpt>
      <trkpt lat="45.58467" lon="2.74258">
        <ele>902.59997558594</ele>
        <time>2024-05-26T08:40:54.000Z</time>
        <extensions>
          <gpxtpx:TrackPointExtension xmlns:gpxtpx="http://www.garmin.com/xmlschemas/TrackPointExtension/v1">
            <gpxtpx:hr>119</gpxtpx:hr>
          </gpxtpx:TrackPointExtension>
        </extensions>
      </trkpt>
      <trkpt lat="45.58475" lon="2.74247">
        <ele>901.59997558594</ele>
        <time>2024-05-26T08:40:55.000Z</time>
        <extensions>
          <gpxtpx:TrackPointExtension xmlns:gpxtpx="http://www.garmin.com/xmlschemas/TrackPointExtension/v1">
            <gpxtpx:hr>118</gpxtpx:hr>
          </gpxtpx:TrackPointExtension>
        </extensions>
      </trkpt>
      <trkpt lat="45.58483" lon="2.74237">
        <ele>900.79998779297</ele>
        <time>2024-05-26T08:40:56.000Z</time>
        <extensions>
          <gpxtpx:TrackPointExtension xmlns:gpxtpx="http://www.garmin.com/xmlschemas/TrackPointExtension/v1">
            <gpxtpx:hr>116</gpxtpx:hr>
          </gpxtpx:TrackPointExtension>
        </extensions>
      </trkpt>
      <trkpt lat="45.58492" lon="2.74227">
        <ele>900.20001220703</ele>
        <time>2024-05-26T08:40:57.000Z</time>
        <extensions>
          <gpxtpx:TrackPointExtension xmlns:gpxtpx="http://www.garmin.com/xmlschemas/TrackPointExtension/v1">
            <gpxtpx:hr>116</gpxtpx:hr>
          </gpxtpx:TrackPointExtension>
        </extensions>
      </trkpt>
      <trkpt lat="45.58499" lon="2.74215">
        <ele>899.40002441406</ele>
        <time>2024-05-26T08:40:58.000Z</time>
        <extensions>
          <gpxtpx:TrackPointExtension xmlns:gpxtpx="http://www.garmin.com/xmlschemas/TrackPointExtension/v1">
            <gpxtpx:hr>115</gpxtpx:hr>
          </gpxtpx:TrackPointExtension>
        </extensions>
      </trkpt>
      <trkpt lat="45.58506" lon="2.74203">
        <ele>898.20001220703</ele>
        <time>2024-05-26T08:40:59.000Z</time>
        <extensions>
          <gpxtpx:TrackPointExtension xmlns:gpxtpx="http://www.garmin.com/xmlschemas/TrackPointExtension/v1">
            <gpxtpx:hr>115</gpxtpx:hr>
          </gpxtpx:TrackPointExtension>
        </extensions>
      </trkpt>
      <trkpt lat="45.58518" lon="2.74176">
        <ele>896.40002441406</ele>
        <time>2024-05-26T08:41:01.000Z</time>
        <extensions>
          <gpxtpx:TrackPointExtension xmlns:gpxtpx="http://www.garmin.com/xmlschemas/TrackPointExtension/v1">
            <gpxtpx:hr>116</gpxtpx:hr>
          </gpxtpx:TrackPointExtension>
        </extensions>
      </trkpt>
      <trkpt lat="45.58529" lon="2.7415">
        <ele>895</ele>
        <time>2024-05-26T08:41:03.000Z</time>
        <extensions>
          <gpxtpx:TrackPointExtension xmlns:gpxtpx="http://www.garmin.com/xmlschemas/TrackPointExtension/v1">
            <gpxtpx:hr>115</gpxtpx:hr>
          </gpxtpx:TrackPointExtension>
        </extensions>
      </trkpt>
      <trkpt lat="45.58534" lon="2.74137">
        <ele>894.40002441406</ele>
        <time>2024-05-26T08:41:04.000Z</time>
        <extensions>
          <gpxtpx:TrackPointExtension xmlns:gpxtpx="http://www.garmin.com/xmlschemas/TrackPointExtension/v1">
            <gpxtpx:hr>115</gpxtpx:hr>
          </gpxtpx:TrackPointExtension>
        </extensions>
      </trkpt>
      <trkpt lat="45.58539" lon="2.74127">
        <ele>893</ele>
        <time>2024-05-26T08:41:05.000Z</time>
        <extensions>
          <gpxtpx:TrackPointExtension xmlns:gpxtpx="http://www.garmin.com/xmlschemas/TrackPointExtension/v1">
            <gpxtpx:hr>115</gpxtpx:hr>
          </gpxtpx:TrackPointExtension>
        </extensions>
      </trkpt>
      <trkpt lat="45.58551" lon="2.74112">
        <ele>891.20001220703</ele>
        <time>2024-05-26T08:41:07.000Z</time>
        <extensions>
          <gpxtpx:TrackPointExtension xmlns:gpxtpx="http://www.garmin.com/xmlschemas/TrackPointExtension/v1">
            <gpxtpx:hr>115</gpxtpx:hr>
          </gpxtpx:TrackPointExtension>
        </extensions>
      </trkpt>
      <trkpt lat="45.58566" lon="2.74113">
        <ele>889.59997558594</ele>
        <time>2024-05-26T08:41:09.000Z</time>
        <extensions>
          <gpxtpx:TrackPointExtension xmlns:gpxtpx="http://www.garmin.com/xmlschemas/TrackPointExtension/v1">
            <gpxtpx:hr>115</gpxtpx:hr>
          </gpxtpx:TrackPointExtension>
        </extensions>
      </trkpt>
      <trkpt lat="45.58573" lon="2.74118">
        <ele>888</ele>
        <time>2024-05-26T08:41:10.000Z</time>
        <extensions>
          <gpxtpx:TrackPointExtension xmlns:gpxtpx="http://www.garmin.com/xmlschemas/TrackPointExtension/v1">
            <gpxtpx:hr>115</gpxtpx:hr>
          </gpxtpx:TrackPointExtension>
        </extensions>
      </trkpt>
      <trkpt lat="45.58596" lon="2.74138">
        <ele>886.79998779297</ele>
        <time>2024-05-26T08:41:13.000Z</time>
        <extensions>
          <gpxtpx:TrackPointExtension xmlns:gpxtpx="http://www.garmin.com/xmlschemas/TrackPointExtension/v1">
            <gpxtpx:hr>114</gpxtpx:hr>
          </gpxtpx:TrackPointExtension>
        </extensions>
      </trkpt>
      <trkpt lat="45.58613" lon="2.74155">
        <ele>886</ele>
        <time>2024-05-26T08:41:15.000Z</time>
        <extensions>
          <gpxtpx:TrackPointExtension xmlns:gpxtpx="http://www.garmin.com/xmlschemas/TrackPointExtension/v1">
            <gpxtpx:hr>114</gpxtpx:hr>
          </gpxtpx:TrackPointExtension>
        </extensions>
      </trkpt>
      <trkpt lat="45.58622" lon="2.7416">
        <ele>884.79998779297</ele>
        <time>2024-05-26T08:41:16.000Z</time>
        <extensions>
          <gpxtpx:TrackPointExtension xmlns:gpxtpx="http://www.garmin.com/xmlschemas/TrackPointExtension/v1">
            <gpxtpx:hr>114</gpxtpx:hr>
          </gpxtpx:TrackPointExtension>
        </extensions>
      </trkpt>
      <trkpt lat="45.58629" lon="2.74163">
        <ele>883.79998779297</ele>
        <time>2024-05-26T08:41:17.000Z</time>
        <extensions>
          <gpxtpx:TrackPointExtension xmlns:gpxtpx="http://www.garmin.com/xmlschemas/TrackPointExtension/v1">
            <gpxtpx:hr>114</gpxtpx:hr>
          </gpxtpx:TrackPointExtension>
        </extensions>
      </trkpt>
      <trkpt lat="45.58635" lon="2.74164">
        <ele>883.40002441406</ele>
        <time>2024-05-26T08:41:18.000Z</time>
        <extensions>
          <gpxtpx:TrackPointExtension xmlns:gpxtpx="http://www.garmin.com/xmlschemas/TrackPointExtension/v1">
            <gpxtpx:hr>114</gpxtpx:hr>
          </gpxtpx:TrackPointExtension>
        </extensions>
      </trkpt>
      <trkpt lat="45.58644" lon="2.74164">
        <ele>882.79998779297</ele>
        <time>2024-05-26T08:41:19.000Z</time>
        <extensions>
          <gpxtpx:TrackPointExtension xmlns:gpxtpx="http://www.garmin.com/xmlschemas/TrackPointExtension/v1">
            <gpxtpx:hr>114</gpxtpx:hr>
          </gpxtpx:TrackPointExtension>
        </extensions>
      </trkpt>
      <trkpt lat="45.58651" lon="2.74163">
        <ele>881.40002441406</ele>
        <time>2024-05-26T08:41:20.000Z</time>
        <extensions>
          <gpxtpx:TrackPointExtension xmlns:gpxtpx="http://www.garmin.com/xmlschemas/TrackPointExtension/v1">
            <gpxtpx:hr>114</gpxtpx:hr>
          </gpxtpx:TrackPointExtension>
        </extensions>
      </trkpt>
      <trkpt lat="45.58658" lon="2.74162">
        <ele>880.59997558594</ele>
        <time>2024-05-26T08:41:21.000Z</time>
        <extensions>
          <gpxtpx:TrackPointExtension xmlns:gpxtpx="http://www.garmin.com/xmlschemas/TrackPointExtension/v1">
            <gpxtpx:hr>115</gpxtpx:hr>
          </gpxtpx:TrackPointExtension>
        </extensions>
      </trkpt>
      <trkpt lat="45.58675" lon="2.74159">
        <ele>880</ele>
        <time>2024-05-26T08:41:23.000Z</time>
        <extensions>
          <gpxtpx:TrackPointExtension xmlns:gpxtpx="http://www.garmin.com/xmlschemas/TrackPointExtension/v1">
            <gpxtpx:hr>117</gpxtpx:hr>
          </gpxtpx:TrackPointExtension>
        </extensions>
      </trkpt>
      <trkpt lat="45.58693" lon="2.74156">
        <ele>878.79998779297</ele>
        <time>2024-05-26T08:41:25.000Z</time>
        <extensions>
          <gpxtpx:TrackPointExtension xmlns:gpxtpx="http://www.garmin.com/xmlschemas/TrackPointExtension/v1">
            <gpxtpx:hr>115</gpxtpx:hr>
          </gpxtpx:TrackPointExtension>
        </extensions>
      </trkpt>
      <trkpt lat="45.58701" lon="2.74154">
        <ele>878.20001220703</ele>
        <time>2024-05-26T08:41:26.000Z</time>
        <extensions>
          <gpxtpx:TrackPointExtension xmlns:gpxtpx="http://www.garmin.com/xmlschemas/TrackPointExtension/v1">
            <gpxtpx:hr>115</gpxtpx:hr>
          </gpxtpx:TrackPointExtension>
        </extensions>
      </trkpt>
      <trkpt lat="45.58708" lon="2.74154">
        <ele>876.59997558594</ele>
        <time>2024-05-26T08:41:27.000Z</time>
        <extensions>
          <gpxtpx:TrackPointExtension xmlns:gpxtpx="http://www.garmin.com/xmlschemas/TrackPointExtension/v1">
            <gpxtpx:hr>114</gpxtpx:hr>
          </gpxtpx:TrackPointExtension>
        </extensions>
      </trkpt>
      <trkpt lat="45.58719" lon="2.74154">
        <ele>875.59997558594</ele>
        <time>2024-05-26T08:41:28.000Z</time>
        <extensions>
          <gpxtpx:TrackPointExtension xmlns:gpxtpx="http://www.garmin.com/xmlschemas/TrackPointExtension/v1">
            <gpxtpx:hr>116</gpxtpx:hr>
          </gpxtpx:TrackPointExtension>
        </extensions>
      </trkpt>
      <trkpt lat="45.58727" lon="2.74153">
        <ele>875.40002441406</ele>
        <time>2024-05-26T08:41:29.000Z</time>
        <extensions>
          <gpxtpx:TrackPointExtension xmlns:gpxtpx="http://www.garmin.com/xmlschemas/TrackPointExtension/v1">
            <gpxtpx:hr>115</gpxtpx:hr>
          </gpxtpx:TrackPointExtension>
        </extensions>
      </trkpt>
      <trkpt lat="45.58737" lon="2.7415">
        <ele>874.79998779297</ele>
        <time>2024-05-26T08:41:30.000Z</time>
        <extensions>
          <gpxtpx:TrackPointExtension xmlns:gpxtpx="http://www.garmin.com/xmlschemas/TrackPointExtension/v1">
            <gpxtpx:hr>115</gpxtpx:hr>
          </gpxtpx:TrackPointExtension>
        </extensions>
      </trkpt>
      <trkpt lat="45.58747" lon="2.74149">
        <ele>873.59997558594</ele>
        <time>2024-05-26T08:41:31.000Z</time>
        <extensions>
          <gpxtpx:TrackPointExtension xmlns:gpxtpx="http://www.garmin.com/xmlschemas/TrackPointExtension/v1">
            <gpxtpx:hr>115</gpxtpx:hr>
          </gpxtpx:TrackPointExtension>
        </extensions>
      </trkpt>
      <trkpt lat="45.58766" lon="2.74143">
        <ele>871.79998779297</ele>
        <time>2024-05-26T08:41:33.000Z</time>
        <extensions>
          <gpxtpx:TrackPointExtension xmlns:gpxtpx="http://www.garmin.com/xmlschemas/TrackPointExtension/v1">
            <gpxtpx:hr>116</gpxtpx:hr>
          </gpxtpx:TrackPointExtension>
        </extensions>
      </trkpt>
      <trkpt lat="45.58775" lon="2.74141">
        <ele>871.59997558594</ele>
        <time>2024-05-26T08:41:34.000Z</time>
        <extensions>
          <gpxtpx:TrackPointExtension xmlns:gpxtpx="http://www.garmin.com/xmlschemas/TrackPointExtension/v1">
            <gpxtpx:hr>116</gpxtpx:hr>
          </gpxtpx:TrackPointExtension>
        </extensions>
      </trkpt>
      <trkpt lat="45.58794" lon="2.74136">
        <ele>870.79998779297</ele>
        <time>2024-05-26T08:41:36.000Z</time>
        <extensions>
          <gpxtpx:TrackPointExtension xmlns:gpxtpx="http://www.garmin.com/xmlschemas/TrackPointExtension/v1">
            <gpxtpx:hr>117</gpxtpx:hr>
          </gpxtpx:TrackPointExtension>
        </extensions>
      </trkpt>
      <trkpt lat="45.58807" lon="2.74131">
        <ele>870</ele>
        <time>2024-05-26T08:41:38.000Z</time>
        <extensions>
          <gpxtpx:TrackPointExtension xmlns:gpxtpx="http://www.garmin.com/xmlschemas/TrackPointExtension/v1">
            <gpxtpx:hr>117</gpxtpx:hr>
          </gpxtpx:TrackPointExtension>
        </extensions>
      </trkpt>
      <trkpt lat="45.58812" lon="2.7413">
        <ele>869.40002441406</ele>
        <time>2024-05-26T08:41:39.000Z</time>
        <extensions>
          <gpxtpx:TrackPointExtension xmlns:gpxtpx="http://www.garmin.com/xmlschemas/TrackPointExtension/v1">
            <gpxtpx:hr>117</gpxtpx:hr>
          </gpxtpx:TrackPointExtension>
        </extensions>
      </trkpt>
      <trkpt lat="45.58822" lon="2.74125">
        <ele>867.59997558594</ele>
        <time>2024-05-26T08:41:42.000Z</time>
        <extensions>
          <gpxtpx:TrackPointExtension xmlns:gpxtpx="http://www.garmin.com/xmlschemas/TrackPointExtension/v1">
            <gpxtpx:hr>116</gpxtpx:hr>
          </gpxtpx:TrackPointExtension>
        </extensions>
      </trkpt>
      <trkpt lat="45.58825" lon="2.74125">
        <ele>866.79998779297</ele>
        <time>2024-05-26T08:41:44.000Z</time>
        <extensions>
          <gpxtpx:TrackPointExtension xmlns:gpxtpx="http://www.garmin.com/xmlschemas/TrackPointExtension/v1">
            <gpxtpx:hr>117</gpxtpx:hr>
          </gpxtpx:TrackPointExtension>
        </extensions>
      </trkpt>
      <trkpt lat="45.58827" lon="2.74125">
        <ele>866.40002441406</ele>
        <time>2024-05-26T08:41:45.000Z</time>
        <extensions>
          <gpxtpx:TrackPointExtension xmlns:gpxtpx="http://www.garmin.com/xmlschemas/TrackPointExtension/v1">
            <gpxtpx:hr>117</gpxtpx:hr>
          </gpxtpx:TrackPointExtension>
        </extensions>
      </trkpt>
      <trkpt lat="45.58837" lon="2.74153">
        <ele>865</ele>
        <time>2024-05-26T08:42:48.000Z</time>
        <extensions>
          <gpxtpx:TrackPointExtension xmlns:gpxtpx="http://www.garmin.com/xmlschemas/TrackPointExtension/v1">
            <gpxtpx:hr>117</gpxtpx:hr>
          </gpxtpx:TrackPointExtension>
        </extensions>
      </trkpt>
      <trkpt lat="45.58839" lon="2.74159">
        <ele>864.79998779297</ele>
        <time>2024-05-26T08:42:50.000Z</time>
        <extensions>
          <gpxtpx:TrackPointExtension xmlns:gpxtpx="http://www.garmin.com/xmlschemas/TrackPointExtension/v1">
            <gpxtpx:hr>119</gpxtpx:hr>
          </gpxtpx:TrackPointExtension>
        </extensions>
      </trkpt>
      <trkpt lat="45.58844" lon="2.74177">
        <ele>865.20001220703</ele>
        <time>2024-05-26T08:42:53.000Z</time>
        <extensions>
          <gpxtpx:TrackPointExtension xmlns:gpxtpx="http://www.garmin.com/xmlschemas/TrackPointExtension/v1">
            <gpxtpx:hr>119</gpxtpx:hr>
          </gpxtpx:TrackPointExtension>
        </extensions>
      </trkpt>
      <trkpt lat="45.58846" lon="2.74185">
        <ele>865.40002441406</ele>
        <time>2024-05-26T08:42:54.000Z</time>
        <extensions>
          <gpxtpx:TrackPointExtension xmlns:gpxtpx="http://www.garmin.com/xmlschemas/TrackPointExtension/v1">
            <gpxtpx:hr>121</gpxtpx:hr>
          </gpxtpx:TrackPointExtension>
        </extensions>
      </trkpt>
      <trkpt lat="45.58853" lon="2.74217">
        <ele>865.79998779297</ele>
        <time>2024-05-26T08:42:58.000Z</time>
        <extensions>
          <gpxtpx:TrackPointExtension xmlns:gpxtpx="http://www.garmin.com/xmlschemas/TrackPointExtension/v1">
            <gpxtpx:hr>123</gpxtpx:hr>
          </gpxtpx:TrackPointExtension>
        </extensions>
      </trkpt>
      <trkpt lat="45.58856" lon="2.74234">
        <ele>865.79998779297</ele>
        <time>2024-05-26T08:43:00.000Z</time>
        <extensions>
          <gpxtpx:TrackPointExtension xmlns:gpxtpx="http://www.garmin.com/xmlschemas/TrackPointExtension/v1">
            <gpxtpx:hr>120</gpxtpx:hr>
          </gpxtpx:TrackPointExtension>
        </extensions>
      </trkpt>
      <trkpt lat="45.58862" lon="2.74258">
        <ele>865.79998779297</ele>
        <time>2024-05-26T08:43:03.000Z</time>
        <extensions>
          <gpxtpx:TrackPointExtension xmlns:gpxtpx="http://www.garmin.com/xmlschemas/TrackPointExtension/v1">
            <gpxtpx:hr>119</gpxtpx:hr>
          </gpxtpx:TrackPointExtension>
        </extensions>
      </trkpt>
      <trkpt lat="45.58873" lon="2.74301">
        <ele>865.79998779297</ele>
        <time>2024-05-26T08:43:08.000Z</time>
        <extensions>
          <gpxtpx:TrackPointExtension xmlns:gpxtpx="http://www.garmin.com/xmlschemas/TrackPointExtension/v1">
            <gpxtpx:hr>116</gpxtpx:hr>
          </gpxtpx:TrackPointExtension>
        </extensions>
      </trkpt>
      <trkpt lat="45.58876" lon="2.74308">
        <ele>865.59997558594</ele>
        <time>2024-05-26T08:43:09.000Z</time>
        <extensions>
          <gpxtpx:TrackPointExtension xmlns:gpxtpx="http://www.garmin.com/xmlschemas/TrackPointExtension/v1">
            <gpxtpx:hr>116</gpxtpx:hr>
          </gpxtpx:TrackPointExtension>
        </extensions>
      </trkpt>
      <trkpt lat="45.58885" lon="2.74334">
        <ele>865</ele>
        <time>2024-05-26T08:43:13.000Z</time>
        <extensions>
          <gpxtpx:TrackPointExtension xmlns:gpxtpx="http://www.garmin.com/xmlschemas/TrackPointExtension/v1">
            <gpxtpx:hr>116</gpxtpx:hr>
          </gpxtpx:TrackPointExtension>
        </extensions>
      </trkpt>
      <trkpt lat="45.58885" lon="2.7434">
        <ele>865</ele>
        <time>2024-05-26T08:43:14.000Z</time>
        <extensions>
          <gpxtpx:TrackPointExtension xmlns:gpxtpx="http://www.garmin.com/xmlschemas/TrackPointExtension/v1">
            <gpxtpx:hr>116</gpxtpx:hr>
          </gpxtpx:TrackPointExtension>
        </extensions>
      </trkpt>
      <trkpt lat="45.58885" lon="2.74344">
        <ele>865</ele>
        <time>2024-05-26T08:43:15.000Z</time>
        <extensions>
          <gpxtpx:TrackPointExtension xmlns:gpxtpx="http://www.garmin.com/xmlschemas/TrackPointExtension/v1">
            <gpxtpx:hr>115</gpxtpx:hr>
          </gpxtpx:TrackPointExtension>
        </extensions>
      </trkpt>
      <trkpt lat="45.58889" lon="2.74351">
        <ele>864.79998779297</ele>
        <time>2024-05-26T08:43:17.000Z</time>
        <extensions>
          <gpxtpx:TrackPointExtension xmlns:gpxtpx="http://www.garmin.com/xmlschemas/TrackPointExtension/v1">
            <gpxtpx:hr>115</gpxtpx:hr>
          </gpxtpx:TrackPointExtension>
        </extensions>
      </trkpt>
      <trkpt lat="45.58901" lon="2.74372">
        <ele>864.79998779297</ele>
        <time>2024-05-26T08:43:21.000Z</time>
        <extensions>
          <gpxtpx:TrackPointExtension xmlns:gpxtpx="http://www.garmin.com/xmlschemas/TrackPointExtension/v1">
            <gpxtpx:hr>115</gpxtpx:hr>
          </gpxtpx:TrackPointExtension>
        </extensions>
      </trkpt>
      <trkpt lat="45.58903" lon="2.74379">
        <ele>865</ele>
        <time>2024-05-26T08:43:22.000Z</time>
        <extensions>
          <gpxtpx:TrackPointExtension xmlns:gpxtpx="http://www.garmin.com/xmlschemas/TrackPointExtension/v1">
            <gpxtpx:hr>116</gpxtpx:hr>
          </gpxtpx:TrackPointExtension>
        </extensions>
      </trkpt>
      <trkpt lat="45.58918" lon="2.74422">
        <ele>865.59997558594</ele>
        <time>2024-05-26T08:43:28.000Z</time>
        <extensions>
          <gpxtpx:TrackPointExtension xmlns:gpxtpx="http://www.garmin.com/xmlschemas/TrackPointExtension/v1">
            <gpxtpx:hr>115</gpxtpx:hr>
          </gpxtpx:TrackPointExtension>
        </extensions>
      </trkpt>
      <trkpt lat="45.5894" lon="2.74478">
        <ele>866.20001220703</ele>
        <time>2024-05-26T08:43:35.000Z</time>
        <extensions>
          <gpxtpx:TrackPointExtension xmlns:gpxtpx="http://www.garmin.com/xmlschemas/TrackPointExtension/v1">
            <gpxtpx:hr>115</gpxtpx:hr>
          </gpxtpx:TrackPointExtension>
        </extensions>
      </trkpt>
      <trkpt lat="45.58949" lon="2.74503">
        <ele>866.40002441406</ele>
        <time>2024-05-26T08:43:38.000Z</time>
        <extensions>
          <gpxtpx:TrackPointExtension xmlns:gpxtpx="http://www.garmin.com/xmlschemas/TrackPointExtension/v1">
            <gpxtpx:hr>118</gpxtpx:hr>
          </gpxtpx:TrackPointExtension>
        </extensions>
      </trkpt>
      <trkpt lat="45.58952" lon="2.74511">
        <ele>866.59997558594</ele>
        <time>2024-05-26T08:43:39.000Z</time>
        <extensions>
          <gpxtpx:TrackPointExtension xmlns:gpxtpx="http://www.garmin.com/xmlschemas/TrackPointExtension/v1">
            <gpxtpx:hr>117</gpxtpx:hr>
          </gpxtpx:TrackPointExtension>
        </extensions>
      </trkpt>
      <trkpt lat="45.58961" lon="2.74536">
        <ele>866.79998779297</ele>
        <time>2024-05-26T08:43:42.000Z</time>
        <extensions>
          <gpxtpx:TrackPointExtension xmlns:gpxtpx="http://www.garmin.com/xmlschemas/TrackPointExtension/v1">
            <gpxtpx:hr>120</gpxtpx:hr>
          </gpxtpx:TrackPointExtension>
        </extensions>
      </trkpt>
      <trkpt lat="45.58968" lon="2.74554">
        <ele>867.20001220703</ele>
        <time>2024-05-26T08:43:44.000Z</time>
        <extensions>
          <gpxtpx:TrackPointExtension xmlns:gpxtpx="http://www.garmin.com/xmlschemas/TrackPointExtension/v1">
            <gpxtpx:hr>123</gpxtpx:hr>
          </gpxtpx:TrackPointExtension>
        </extensions>
      </trkpt>
      <trkpt lat="45.58983" lon="2.74596">
        <ele>867.59997558594</ele>
        <time>2024-05-26T08:43:49.000Z</time>
        <extensions>
          <gpxtpx:TrackPointExtension xmlns:gpxtpx="http://www.garmin.com/xmlschemas/TrackPointExtension/v1">
            <gpxtpx:hr>125</gpxtpx:hr>
          </gpxtpx:TrackPointExtension>
        </extensions>
      </trkpt>
      <trkpt lat="45.58987" lon="2.74612">
        <ele>867.79998779297</ele>
        <time>2024-05-26T08:43:51.000Z</time>
        <extensions>
          <gpxtpx:TrackPointExtension xmlns:gpxtpx="http://www.garmin.com/xmlschemas/TrackPointExtension/v1">
            <gpxtpx:hr>126</gpxtpx:hr>
          </gpxtpx:TrackPointExtension>
        </extensions>
      </trkpt>
      <trkpt lat="45.58992" lon="2.74643">
        <ele>867.40002441406</ele>
        <time>2024-05-26T08:43:55.000Z</time>
        <extensions>
          <gpxtpx:TrackPointExtension xmlns:gpxtpx="http://www.garmin.com/xmlschemas/TrackPointExtension/v1">
            <gpxtpx:hr>129</gpxtpx:hr>
          </gpxtpx:TrackPointExtension>
        </extensions>
      </trkpt>
      <trkpt lat="45.58993" lon="2.74656">
        <ele>867.40002441406</ele>
        <time>2024-05-26T08:43:57.000Z</time>
        <extensions>
          <gpxtpx:TrackPointExtension xmlns:gpxtpx="http://www.garmin.com/xmlschemas/TrackPointExtension/v1">
            <gpxtpx:hr>130</gpxtpx:hr>
          </gpxtpx:TrackPointExtension>
        </extensions>
      </trkpt>
      <trkpt lat="45.58996" lon="2.74692">
        <ele>867.79998779297</ele>
        <time>2024-05-26T08:44:03.000Z</time>
        <extensions>
          <gpxtpx:TrackPointExtension xmlns:gpxtpx="http://www.garmin.com/xmlschemas/TrackPointExtension/v1">
            <gpxtpx:hr>131</gpxtpx:hr>
          </gpxtpx:TrackPointExtension>
        </extensions>
      </trkpt>
      <trkpt lat="45.58997" lon="2.74704">
        <ele>868</ele>
        <time>2024-05-26T08:44:05.000Z</time>
        <extensions>
          <gpxtpx:TrackPointExtension xmlns:gpxtpx="http://www.garmin.com/xmlschemas/TrackPointExtension/v1">
            <gpxtpx:hr>130</gpxtpx:hr>
          </gpxtpx:TrackPointExtension>
        </extensions>
      </trkpt>
      <trkpt lat="45.58999" lon="2.74731">
        <ele>868.40002441406</ele>
        <time>2024-05-26T08:44:09.000Z</time>
        <extensions>
          <gpxtpx:TrackPointExtension xmlns:gpxtpx="http://www.garmin.com/xmlschemas/TrackPointExtension/v1">
            <gpxtpx:hr>131</gpxtpx:hr>
          </gpxtpx:TrackPointExtension>
        </extensions>
      </trkpt>
      <trkpt lat="45.59002" lon="2.74758">
        <ele>868.59997558594</ele>
        <time>2024-05-26T08:44:13.000Z</time>
        <extensions>
          <gpxtpx:TrackPointExtension xmlns:gpxtpx="http://www.garmin.com/xmlschemas/TrackPointExtension/v1">
            <gpxtpx:hr>134</gpxtpx:hr>
          </gpxtpx:TrackPointExtension>
        </extensions>
      </trkpt>
      <trkpt lat="45.59003" lon="2.74765">
        <ele>868.59997558594</ele>
        <time>2024-05-26T08:44:14.000Z</time>
        <extensions>
          <gpxtpx:TrackPointExtension xmlns:gpxtpx="http://www.garmin.com/xmlschemas/TrackPointExtension/v1">
            <gpxtpx:hr>131</gpxtpx:hr>
          </gpxtpx:TrackPointExtension>
        </extensions>
      </trkpt>
      <trkpt lat="45.59003" lon="2.74771">
        <ele>868.59997558594</ele>
        <time>2024-05-26T08:44:15.000Z</time>
        <extensions>
          <gpxtpx:TrackPointExtension xmlns:gpxtpx="http://www.garmin.com/xmlschemas/TrackPointExtension/v1">
            <gpxtpx:hr>131</gpxtpx:hr>
          </gpxtpx:TrackPointExtension>
        </extensions>
      </trkpt>
      <trkpt lat="45.59003" lon="2.74778">
        <ele>868.59997558594</ele>
        <time>2024-05-26T08:44:16.000Z</time>
        <extensions>
          <gpxtpx:TrackPointExtension xmlns:gpxtpx="http://www.garmin.com/xmlschemas/TrackPointExtension/v1">
            <gpxtpx:hr>131</gpxtpx:hr>
          </gpxtpx:TrackPointExtension>
        </extensions>
      </trkpt>
      <trkpt lat="45.59003" lon="2.74786">
        <ele>868.59997558594</ele>
        <time>2024-05-26T08:44:17.000Z</time>
        <extensions>
          <gpxtpx:TrackPointExtension xmlns:gpxtpx="http://www.garmin.com/xmlschemas/TrackPointExtension/v1">
            <gpxtpx:hr>131</gpxtpx:hr>
          </gpxtpx:TrackPointExtension>
        </extensions>
      </trkpt>
      <trkpt lat="45.59004" lon="2.74806">
        <ele>868.79998779297</ele>
        <time>2024-05-26T08:44:20.000Z</time>
        <extensions>
          <gpxtpx:TrackPointExtension xmlns:gpxtpx="http://www.garmin.com/xmlschemas/TrackPointExtension/v1">
            <gpxtpx:hr>130</gpxtpx:hr>
          </gpxtpx:TrackPointExtension>
        </extensions>
      </trkpt>
      <trkpt lat="45.59005" lon="2.74824">
        <ele>869.20001220703</ele>
        <time>2024-05-26T08:44:23.000Z</time>
        <extensions>
          <gpxtpx:TrackPointExtension xmlns:gpxtpx="http://www.garmin.com/xmlschemas/TrackPointExtension/v1">
            <gpxtpx:hr>130</gpxtpx:hr>
          </gpxtpx:TrackPointExtension>
        </extensions>
      </trkpt>
      <trkpt lat="45.59005" lon="2.74843">
        <ele>869.40002441406</ele>
        <time>2024-05-26T08:44:26.000Z</time>
        <extensions>
          <gpxtpx:TrackPointExtension xmlns:gpxtpx="http://www.garmin.com/xmlschemas/TrackPointExtension/v1">
            <gpxtpx:hr>131</gpxtpx:hr>
          </gpxtpx:TrackPointExtension>
        </extensions>
      </trkpt>
      <trkpt lat="45.59006" lon="2.74876">
        <ele>869.59997558594</ele>
        <time>2024-05-26T08:44:31.000Z</time>
        <extensions>
          <gpxtpx:TrackPointExtension xmlns:gpxtpx="http://www.garmin.com/xmlschemas/TrackPointExtension/v1">
            <gpxtpx:hr>128</gpxtpx:hr>
          </gpxtpx:TrackPointExtension>
        </extensions>
      </trkpt>
      <trkpt lat="45.59006" lon="2.74882">
        <ele>869.59997558594</ele>
        <time>2024-05-26T08:44:32.000Z</time>
        <extensions>
          <gpxtpx:TrackPointExtension xmlns:gpxtpx="http://www.garmin.com/xmlschemas/TrackPointExtension/v1">
            <gpxtpx:hr>129</gpxtpx:hr>
          </gpxtpx:TrackPointExtension>
        </extensions>
      </trkpt>
      <trkpt lat="45.59006" lon="2.74888">
        <ele>869.79998779297</ele>
        <time>2024-05-26T08:44:33.000Z</time>
        <extensions>
          <gpxtpx:TrackPointExtension xmlns:gpxtpx="http://www.garmin.com/xmlschemas/TrackPointExtension/v1">
            <gpxtpx:hr>129</gpxtpx:hr>
          </gpxtpx:TrackPointExtension>
        </extensions>
      </trkpt>
      <trkpt lat="45.59006" lon="2.74913">
        <ele>870</ele>
        <time>2024-05-26T08:44:37.000Z</time>
        <extensions>
          <gpxtpx:TrackPointExtension xmlns:gpxtpx="http://www.garmin.com/xmlschemas/TrackPointExtension/v1">
            <gpxtpx:hr>131</gpxtpx:hr>
          </gpxtpx:TrackPointExtension>
        </extensions>
      </trkpt>
      <trkpt lat="45.59005" lon="2.74925">
        <ele>870.40002441406</ele>
        <time>2024-05-26T08:44:39.000Z</time>
        <extensions>
          <gpxtpx:TrackPointExtension xmlns:gpxtpx="http://www.garmin.com/xmlschemas/TrackPointExtension/v1">
            <gpxtpx:hr>131</gpxtpx:hr>
          </gpxtpx:TrackPointExtension>
        </extensions>
      </trkpt>
      <trkpt lat="45.59005" lon="2.7493">
        <ele>870.40002441406</ele>
        <time>2024-05-26T08:44:40.000Z</time>
        <extensions>
          <gpxtpx:TrackPointExtension xmlns:gpxtpx="http://www.garmin.com/xmlschemas/TrackPointExtension/v1">
            <gpxtpx:hr>131</gpxtpx:hr>
          </gpxtpx:TrackPointExtension>
        </extensions>
      </trkpt>
      <trkpt lat="45.59006" lon="2.74944">
        <ele>870.79998779297</ele>
        <time>2024-05-26T08:44:42.000Z</time>
        <extensions>
          <gpxtpx:TrackPointExtension xmlns:gpxtpx="http://www.garmin.com/xmlschemas/TrackPointExtension/v1">
            <gpxtpx:hr>132</gpxtpx:hr>
          </gpxtpx:TrackPointExtension>
        </extensions>
      </trkpt>
      <trkpt lat="45.59005" lon="2.74955">
        <ele>871</ele>
        <time>2024-05-26T08:44:44.000Z</time>
        <extensions>
          <gpxtpx:TrackPointExtension xmlns:gpxtpx="http://www.garmin.com/xmlschemas/TrackPointExtension/v1">
            <gpxtpx:hr>132</gpxtpx:hr>
          </gpxtpx:TrackPointExtension>
        </extensions>
      </trkpt>
      <trkpt lat="45.59007" lon="2.74998">
        <ele>870.40002441406</ele>
        <time>2024-05-26T08:44:52.000Z</time>
        <extensions>
          <gpxtpx:TrackPointExtension xmlns:gpxtpx="http://www.garmin.com/xmlschemas/TrackPointExtension/v1">
            <gpxtpx:hr>132</gpxtpx:hr>
          </gpxtpx:TrackPointExtension>
        </extensions>
      </trkpt>
      <trkpt lat="45.59007" lon="2.75032">
        <ele>870.79998779297</ele>
        <time>2024-05-26T08:44:58.000Z</time>
        <extensions>
          <gpxtpx:TrackPointExtension xmlns:gpxtpx="http://www.garmin.com/xmlschemas/TrackPointExtension/v1">
            <gpxtpx:hr>131</gpxtpx:hr>
          </gpxtpx:TrackPointExtension>
        </extensions>
      </trkpt>
      <trkpt lat="45.59007" lon="2.75044">
        <ele>871.20001220703</ele>
        <time>2024-05-26T08:45:00.000Z</time>
        <extensions>
          <gpxtpx:TrackPointExtension xmlns:gpxtpx="http://www.garmin.com/xmlschemas/TrackPointExtension/v1">
            <gpxtpx:hr>131</gpxtpx:hr>
          </gpxtpx:TrackPointExtension>
        </extensions>
      </trkpt>
      <trkpt lat="45.59007" lon="2.75062">
        <ele>871.40002441406</ele>
        <time>2024-05-26T08:45:03.000Z</time>
        <extensions>
          <gpxtpx:TrackPointExtension xmlns:gpxtpx="http://www.garmin.com/xmlschemas/TrackPointExtension/v1">
            <gpxtpx:hr>131</gpxtpx:hr>
          </gpxtpx:TrackPointExtension>
        </extensions>
      </trkpt>
      <trkpt lat="45.59007" lon="2.75068">
        <ele>871.40002441406</ele>
        <time>2024-05-26T08:45:04.000Z</time>
        <extensions>
          <gpxtpx:TrackPointExtension xmlns:gpxtpx="http://www.garmin.com/xmlschemas/TrackPointExtension/v1">
            <gpxtpx:hr>131</gpxtpx:hr>
          </gpxtpx:TrackPointExtension>
        </extensions>
      </trkpt>
      <trkpt lat="45.59006" lon="2.75099">
        <ele>871.40002441406</ele>
        <time>2024-05-26T08:45:09.000Z</time>
        <extensions>
          <gpxtpx:TrackPointExtension xmlns:gpxtpx="http://www.garmin.com/xmlschemas/TrackPointExtension/v1">
            <gpxtpx:hr>130</gpxtpx:hr>
          </gpxtpx:TrackPointExtension>
        </extensions>
      </trkpt>
      <trkpt lat="45.59007" lon="2.75105">
        <ele>871.40002441406</ele>
        <time>2024-05-26T08:45:10.000Z</time>
        <extensions>
          <gpxtpx:TrackPointExtension xmlns:gpxtpx="http://www.garmin.com/xmlschemas/TrackPointExtension/v1">
            <gpxtpx:hr>130</gpxtpx:hr>
          </gpxtpx:TrackPointExtension>
        </extensions>
      </trkpt>
      <trkpt lat="45.59007" lon="2.75137">
        <ele>871.79998779297</ele>
        <time>2024-05-26T08:45:15.000Z</time>
        <extensions>
          <gpxtpx:TrackPointExtension xmlns:gpxtpx="http://www.garmin.com/xmlschemas/TrackPointExtension/v1">
            <gpxtpx:hr>130</gpxtpx:hr>
          </gpxtpx:TrackPointExtension>
        </extensions>
      </trkpt>
      <trkpt lat="45.59007" lon="2.75144">
        <ele>871.79998779297</ele>
        <time>2024-05-26T08:45:16.000Z</time>
        <extensions>
          <gpxtpx:TrackPointExtension xmlns:gpxtpx="http://www.garmin.com/xmlschemas/TrackPointExtension/v1">
            <gpxtpx:hr>130</gpxtpx:hr>
          </gpxtpx:TrackPointExtension>
        </extensions>
      </trkpt>
      <trkpt lat="45.59006" lon="2.7515">
        <ele>872</ele>
        <time>2024-05-26T08:45:17.000Z</time>
        <extensions>
          <gpxtpx:TrackPointExtension xmlns:gpxtpx="http://www.garmin.com/xmlschemas/TrackPointExtension/v1">
            <gpxtpx:hr>130</gpxtpx:hr>
          </gpxtpx:TrackPointExtension>
        </extensions>
      </trkpt>
      <trkpt lat="45.59006" lon="2.75175">
        <ele>872.59997558594</ele>
        <time>2024-05-26T08:45:21.000Z</time>
        <extensions>
          <gpxtpx:TrackPointExtension xmlns:gpxtpx="http://www.garmin.com/xmlschemas/TrackPointExtension/v1">
            <gpxtpx:hr>130</gpxtpx:hr>
          </gpxtpx:TrackPointExtension>
        </extensions>
      </trkpt>
      <trkpt lat="45.59006" lon="2.75188">
        <ele>872.79998779297</ele>
        <time>2024-05-26T08:45:23.000Z</time>
        <extensions>
          <gpxtpx:TrackPointExtension xmlns:gpxtpx="http://www.garmin.com/xmlschemas/TrackPointExtension/v1">
            <gpxtpx:hr>130</gpxtpx:hr>
          </gpxtpx:TrackPointExtension>
        </extensions>
      </trkpt>
      <trkpt lat="45.59006" lon="2.75237">
        <ele>873</ele>
        <time>2024-05-26T08:45:31.000Z</time>
        <extensions>
          <gpxtpx:TrackPointExtension xmlns:gpxtpx="http://www.garmin.com/xmlschemas/TrackPointExtension/v1">
            <gpxtpx:hr>129</gpxtpx:hr>
          </gpxtpx:TrackPointExtension>
        </extensions>
      </trkpt>
      <trkpt lat="45.59006" lon="2.75243">
        <ele>873.20001220703</ele>
        <time>2024-05-26T08:45:32.000Z</time>
        <extensions>
          <gpxtpx:TrackPointExtension xmlns:gpxtpx="http://www.garmin.com/xmlschemas/TrackPointExtension/v1">
            <gpxtpx:hr>129</gpxtpx:hr>
          </gpxtpx:TrackPointExtension>
        </extensions>
      </trkpt>
      <trkpt lat="45.59006" lon="2.75255">
        <ele>873.40002441406</ele>
        <time>2024-05-26T08:45:34.000Z</time>
        <extensions>
          <gpxtpx:TrackPointExtension xmlns:gpxtpx="http://www.garmin.com/xmlschemas/TrackPointExtension/v1">
            <gpxtpx:hr>127</gpxtpx:hr>
          </gpxtpx:TrackPointExtension>
        </extensions>
      </trkpt>
      <trkpt lat="45.59006" lon="2.75268">
        <ele>873.59997558594</ele>
        <time>2024-05-26T08:45:36.000Z</time>
        <extensions>
          <gpxtpx:TrackPointExtension xmlns:gpxtpx="http://www.garmin.com/xmlschemas/TrackPointExtension/v1">
            <gpxtpx:hr>130</gpxtpx:hr>
          </gpxtpx:TrackPointExtension>
        </extensions>
      </trkpt>
      <trkpt lat="45.59006" lon="2.75292">
        <ele>873.79998779297</ele>
        <time>2024-05-26T08:45:40.000Z</time>
        <extensions>
          <gpxtpx:TrackPointExtension xmlns:gpxtpx="http://www.garmin.com/xmlschemas/TrackPointExtension/v1">
            <gpxtpx:hr>127</gpxtpx:hr>
          </gpxtpx:TrackPointExtension>
        </extensions>
      </trkpt>
      <trkpt lat="45.59007" lon="2.75297">
        <ele>874</ele>
        <time>2024-05-26T08:45:41.000Z</time>
        <extensions>
          <gpxtpx:TrackPointExtension xmlns:gpxtpx="http://www.garmin.com/xmlschemas/TrackPointExtension/v1">
            <gpxtpx:hr>127</gpxtpx:hr>
          </gpxtpx:TrackPointExtension>
        </extensions>
      </trkpt>
      <trkpt lat="45.59007" lon="2.75316">
        <ele>874.20001220703</ele>
        <time>2024-05-26T08:45:44.000Z</time>
        <extensions>
          <gpxtpx:TrackPointExtension xmlns:gpxtpx="http://www.garmin.com/xmlschemas/TrackPointExtension/v1">
            <gpxtpx:hr>127</gpxtpx:hr>
          </gpxtpx:TrackPointExtension>
        </extensions>
      </trkpt>
      <trkpt lat="45.59008" lon="2.75372">
        <ele>874.59997558594</ele>
        <time>2024-05-26T08:45:53.000Z</time>
        <extensions>
          <gpxtpx:TrackPointExtension xmlns:gpxtpx="http://www.garmin.com/xmlschemas/TrackPointExtension/v1">
            <gpxtpx:hr>125</gpxtpx:hr>
          </gpxtpx:TrackPointExtension>
        </extensions>
      </trkpt>
      <trkpt lat="45.59007" lon="2.75383">
        <ele>874.79998779297</ele>
        <time>2024-05-26T08:45:55.000Z</time>
        <extensions>
          <gpxtpx:TrackPointExtension xmlns:gpxtpx="http://www.garmin.com/xmlschemas/TrackPointExtension/v1">
            <gpxtpx:hr>125</gpxtpx:hr>
          </gpxtpx:TrackPointExtension>
        </extensions>
      </trkpt>
      <trkpt lat="45.59008" lon="2.75408">
        <ele>875.20001220703</ele>
        <time>2024-05-26T08:45:59.000Z</time>
        <extensions>
          <gpxtpx:TrackPointExtension xmlns:gpxtpx="http://www.garmin.com/xmlschemas/TrackPointExtension/v1">
            <gpxtpx:hr>123</gpxtpx:hr>
          </gpxtpx:TrackPointExtension>
        </extensions>
      </trkpt>
      <trkpt lat="45.59008" lon="2.75414">
        <ele>875.40002441406</ele>
        <time>2024-05-26T08:46:00.000Z</time>
        <extensions>
          <gpxtpx:TrackPointExtension xmlns:gpxtpx="http://www.garmin.com/xmlschemas/TrackPointExtension/v1">
            <gpxtpx:hr>123</gpxtpx:hr>
          </gpxtpx:TrackPointExtension>
        </extensions>
      </trkpt>
      <trkpt lat="45.59009" lon="2.75449">
        <ele>875.79998779297</ele>
        <time>2024-05-26T08:46:06.000Z</time>
        <extensions>
          <gpxtpx:TrackPointExtension xmlns:gpxtpx="http://www.garmin.com/xmlschemas/TrackPointExtension/v1">
            <gpxtpx:hr>126</gpxtpx:hr>
          </gpxtpx:TrackPointExtension>
        </extensions>
      </trkpt>
      <trkpt lat="45.59009" lon="2.75462">
        <ele>875.79998779297</ele>
        <time>2024-05-26T08:46:08.000Z</time>
        <extensions>
          <gpxtpx:TrackPointExtension xmlns:gpxtpx="http://www.garmin.com/xmlschemas/TrackPointExtension/v1">
            <gpxtpx:hr>126</gpxtpx:hr>
          </gpxtpx:TrackPointExtension>
        </extensions>
      </trkpt>
      <trkpt lat="45.5901" lon="2.75492">
        <ele>875.79998779297</ele>
        <time>2024-05-26T08:46:13.000Z</time>
        <extensions>
          <gpxtpx:TrackPointExtension xmlns:gpxtpx="http://www.garmin.com/xmlschemas/TrackPointExtension/v1">
            <gpxtpx:hr>126</gpxtpx:hr>
          </gpxtpx:TrackPointExtension>
        </extensions>
      </trkpt>
      <trkpt lat="45.59009" lon="2.75498">
        <ele>876</ele>
        <time>2024-05-26T08:46:14.000Z</time>
        <extensions>
          <gpxtpx:TrackPointExtension xmlns:gpxtpx="http://www.garmin.com/xmlschemas/TrackPointExtension/v1">
            <gpxtpx:hr>126</gpxtpx:hr>
          </gpxtpx:TrackPointExtension>
        </extensions>
      </trkpt>
      <trkpt lat="45.59009" lon="2.7551">
        <ele>876.20001220703</ele>
        <time>2024-05-26T08:46:16.000Z</time>
        <extensions>
          <gpxtpx:TrackPointExtension xmlns:gpxtpx="http://www.garmin.com/xmlschemas/TrackPointExtension/v1">
            <gpxtpx:hr>126</gpxtpx:hr>
          </gpxtpx:TrackPointExtension>
        </extensions>
      </trkpt>
      <trkpt lat="45.59008" lon="2.75516">
        <ele>876.20001220703</ele>
        <time>2024-05-26T08:46:17.000Z</time>
        <extensions>
          <gpxtpx:TrackPointExtension xmlns:gpxtpx="http://www.garmin.com/xmlschemas/TrackPointExtension/v1">
            <gpxtpx:hr>126</gpxtpx:hr>
          </gpxtpx:TrackPointExtension>
        </extensions>
      </trkpt>
      <trkpt lat="45.59007" lon="2.75522">
        <ele>876.40002441406</ele>
        <time>2024-05-26T08:46:18.000Z</time>
        <extensions>
          <gpxtpx:TrackPointExtension xmlns:gpxtpx="http://www.garmin.com/xmlschemas/TrackPointExtension/v1">
            <gpxtpx:hr>125</gpxtpx:hr>
          </gpxtpx:TrackPointExtension>
        </extensions>
      </trkpt>
      <trkpt lat="45.59007" lon="2.75534">
        <ele>876.59997558594</ele>
        <time>2024-05-26T08:46:20.000Z</time>
        <extensions>
          <gpxtpx:TrackPointExtension xmlns:gpxtpx="http://www.garmin.com/xmlschemas/TrackPointExtension/v1">
            <gpxtpx:hr>126</gpxtpx:hr>
          </gpxtpx:TrackPointExtension>
        </extensions>
      </trkpt>
      <trkpt lat="45.59007" lon="2.7554">
        <ele>876.79998779297</ele>
        <time>2024-05-26T08:46:21.000Z</time>
        <extensions>
          <gpxtpx:TrackPointExtension xmlns:gpxtpx="http://www.garmin.com/xmlschemas/TrackPointExtension/v1">
            <gpxtpx:hr>126</gpxtpx:hr>
          </gpxtpx:TrackPointExtension>
        </extensions>
      </trkpt>
      <trkpt lat="45.59007" lon="2.75558">
        <ele>877.20001220703</ele>
        <time>2024-05-26T08:46:24.000Z</time>
        <extensions>
          <gpxtpx:TrackPointExtension xmlns:gpxtpx="http://www.garmin.com/xmlschemas/TrackPointExtension/v1">
            <gpxtpx:hr>127</gpxtpx:hr>
          </gpxtpx:TrackPointExtension>
        </extensions>
      </trkpt>
      <trkpt lat="45.59008" lon="2.75571">
        <ele>877.20001220703</ele>
        <time>2024-05-26T08:46:26.000Z</time>
        <extensions>
          <gpxtpx:TrackPointExtension xmlns:gpxtpx="http://www.garmin.com/xmlschemas/TrackPointExtension/v1">
            <gpxtpx:hr>127</gpxtpx:hr>
          </gpxtpx:TrackPointExtension>
        </extensions>
      </trkpt>
      <trkpt lat="45.59008" lon="2.75596">
        <ele>877.20001220703</ele>
        <time>2024-05-26T08:46:30.000Z</time>
        <extensions>
          <gpxtpx:TrackPointExtension xmlns:gpxtpx="http://www.garmin.com/xmlschemas/TrackPointExtension/v1">
            <gpxtpx:hr>125</gpxtpx:hr>
          </gpxtpx:TrackPointExtension>
        </extensions>
      </trkpt>
      <trkpt lat="45.59009" lon="2.75621">
        <ele>877.79998779297</ele>
        <time>2024-05-26T08:46:34.000Z</time>
        <extensions>
          <gpxtpx:TrackPointExtension xmlns:gpxtpx="http://www.garmin.com/xmlschemas/TrackPointExtension/v1">
            <gpxtpx:hr>123</gpxtpx:hr>
          </gpxtpx:TrackPointExtension>
        </extensions>
      </trkpt>
      <trkpt lat="45.59009" lon="2.7564">
        <ele>878.20001220703</ele>
        <time>2024-05-26T08:46:37.000Z</time>
        <extensions>
          <gpxtpx:TrackPointExtension xmlns:gpxtpx="http://www.garmin.com/xmlschemas/TrackPointExtension/v1">
            <gpxtpx:hr>119</gpxtpx:hr>
          </gpxtpx:TrackPointExtension>
        </extensions>
      </trkpt>
      <trkpt lat="45.59009" lon="2.75652">
        <ele>878.20001220703</ele>
        <time>2024-05-26T08:46:39.000Z</time>
        <extensions>
          <gpxtpx:TrackPointExtension xmlns:gpxtpx="http://www.garmin.com/xmlschemas/TrackPointExtension/v1">
            <gpxtpx:hr>115</gpxtpx:hr>
          </gpxtpx:TrackPointExtension>
        </extensions>
      </trkpt>
      <trkpt lat="45.59008" lon="2.75665">
        <ele>878.40002441406</ele>
        <time>2024-05-26T08:46:41.000Z</time>
        <extensions>
          <gpxtpx:TrackPointExtension xmlns:gpxtpx="http://www.garmin.com/xmlschemas/TrackPointExtension/v1">
            <gpxtpx:hr>112</gpxtpx:hr>
          </gpxtpx:TrackPointExtension>
        </extensions>
      </trkpt>
      <trkpt lat="45.59009" lon="2.75678">
        <ele>878.79998779297</ele>
        <time>2024-05-26T08:46:43.000Z</time>
        <extensions>
          <gpxtpx:TrackPointExtension xmlns:gpxtpx="http://www.garmin.com/xmlschemas/TrackPointExtension/v1">
            <gpxtpx:hr>109</gpxtpx:hr>
          </gpxtpx:TrackPointExtension>
        </extensions>
      </trkpt>
      <trkpt lat="45.59009" lon="2.75696">
        <ele>879.40002441406</ele>
        <time>2024-05-26T08:46:46.000Z</time>
        <extensions>
          <gpxtpx:TrackPointExtension xmlns:gpxtpx="http://www.garmin.com/xmlschemas/TrackPointExtension/v1">
            <gpxtpx:hr>107</gpxtpx:hr>
          </gpxtpx:TrackPointExtension>
        </extensions>
      </trkpt>
      <trkpt lat="45.59009" lon="2.75715">
        <ele>879.79998779297</ele>
        <time>2024-05-26T08:46:49.000Z</time>
        <extensions>
          <gpxtpx:TrackPointExtension xmlns:gpxtpx="http://www.garmin.com/xmlschemas/TrackPointExtension/v1">
            <gpxtpx:hr>106</gpxtpx:hr>
          </gpxtpx:TrackPointExtension>
        </extensions>
      </trkpt>
      <trkpt lat="45.5901" lon="2.75783">
        <ele>880.59997558594</ele>
        <time>2024-05-26T08:47:00.000Z</time>
        <extensions>
          <gpxtpx:TrackPointExtension xmlns:gpxtpx="http://www.garmin.com/xmlschemas/TrackPointExtension/v1">
            <gpxtpx:hr>103</gpxtpx:hr>
          </gpxtpx:TrackPointExtension>
        </extensions>
      </trkpt>
      <trkpt lat="45.59011" lon="2.75789">
        <ele>880.59997558594</ele>
        <time>2024-05-26T08:47:01.000Z</time>
        <extensions>
          <gpxtpx:TrackPointExtension xmlns:gpxtpx="http://www.garmin.com/xmlschemas/TrackPointExtension/v1">
            <gpxtpx:hr>103</gpxtpx:hr>
          </gpxtpx:TrackPointExtension>
        </extensions>
      </trkpt>
      <trkpt lat="45.59015" lon="2.75821">
        <ele>881.59997558594</ele>
        <time>2024-05-26T08:47:07.000Z</time>
        <extensions>
          <gpxtpx:TrackPointExtension xmlns:gpxtpx="http://www.garmin.com/xmlschemas/TrackPointExtension/v1">
            <gpxtpx:hr>101</gpxtpx:hr>
          </gpxtpx:TrackPointExtension>
        </extensions>
      </trkpt>
      <trkpt lat="45.59016" lon="2.75825">
        <ele>881.59997558594</ele>
        <time>2024-05-26T08:47:08.000Z</time>
        <extensions>
          <gpxtpx:TrackPointExtension xmlns:gpxtpx="http://www.garmin.com/xmlschemas/TrackPointExtension/v1">
            <gpxtpx:hr>101</gpxtpx:hr>
          </gpxtpx:TrackPointExtension>
        </extensions>
      </trkpt>
      <trkpt lat="45.5902" lon="2.75849">
        <ele>881.79998779297</ele>
        <time>2024-05-26T08:47:13.000Z</time>
        <extensions>
          <gpxtpx:TrackPointExtension xmlns:gpxtpx="http://www.garmin.com/xmlschemas/TrackPointExtension/v1">
            <gpxtpx:hr>98</gpxtpx:hr>
          </gpxtpx:TrackPointExtension>
        </extensions>
      </trkpt>
      <trkpt lat="45.59022" lon="2.75863">
        <ele>881.79998779297</ele>
        <time>2024-05-26T08:47:16.000Z</time>
        <extensions>
          <gpxtpx:TrackPointExtension xmlns:gpxtpx="http://www.garmin.com/xmlschemas/TrackPointExtension/v1">
            <gpxtpx:hr>95</gpxtpx:hr>
          </gpxtpx:TrackPointExtension>
        </extensions>
      </trkpt>
      <trkpt lat="45.59023" lon="2.75873">
        <ele>882</ele>
        <time>2024-05-26T08:47:18.000Z</time>
        <extensions>
          <gpxtpx:TrackPointExtension xmlns:gpxtpx="http://www.garmin.com/xmlschemas/TrackPointExtension/v1">
            <gpxtpx:hr>95</gpxtpx:hr>
          </gpxtpx:TrackPointExtension>
        </extensions>
      </trkpt>
      <trkpt lat="45.59029" lon="2.75903">
        <ele>882.59997558594</ele>
        <time>2024-05-26T08:47:24.000Z</time>
        <extensions>
          <gpxtpx:TrackPointExtension xmlns:gpxtpx="http://www.garmin.com/xmlschemas/TrackPointExtension/v1">
            <gpxtpx:hr>96</gpxtpx:hr>
          </gpxtpx:TrackPointExtension>
        </extensions>
      </trkpt>
      <trkpt lat="45.59031" lon="2.75928">
        <ele>882.40002441406</ele>
        <time>2024-05-26T08:47:29.000Z</time>
        <extensions>
          <gpxtpx:TrackPointExtension xmlns:gpxtpx="http://www.garmin.com/xmlschemas/TrackPointExtension/v1">
            <gpxtpx:hr>96</gpxtpx:hr>
          </gpxtpx:TrackPointExtension>
        </extensions>
      </trkpt>
      <trkpt lat="45.59033" lon="2.75959">
        <ele>882.40002441406</ele>
        <time>2024-05-26T08:47:34.000Z</time>
        <extensions>
          <gpxtpx:TrackPointExtension xmlns:gpxtpx="http://www.garmin.com/xmlschemas/TrackPointExtension/v1">
            <gpxtpx:hr>96</gpxtpx:hr>
          </gpxtpx:TrackPointExtension>
        </extensions>
      </trkpt>
      <trkpt lat="45.59036" lon="2.75975">
        <ele>882.79998779297</ele>
        <time>2024-05-26T08:47:36.000Z</time>
        <extensions>
          <gpxtpx:TrackPointExtension xmlns:gpxtpx="http://www.garmin.com/xmlschemas/TrackPointExtension/v1">
            <gpxtpx:hr>99</gpxtpx:hr>
          </gpxtpx:TrackPointExtension>
        </extensions>
      </trkpt>
      <trkpt lat="45.59037" lon="2.75983">
        <ele>883.40002441406</ele>
        <time>2024-05-26T08:47:37.000Z</time>
        <extensions>
          <gpxtpx:TrackPointExtension xmlns:gpxtpx="http://www.garmin.com/xmlschemas/TrackPointExtension/v1">
            <gpxtpx:hr>103</gpxtpx:hr>
          </gpxtpx:TrackPointExtension>
        </extensions>
      </trkpt>
      <trkpt lat="45.59039" lon="2.75997">
        <ele>883.79998779297</ele>
        <time>2024-05-26T08:47:39.000Z</time>
        <extensions>
          <gpxtpx:TrackPointExtension xmlns:gpxtpx="http://www.garmin.com/xmlschemas/TrackPointExtension/v1">
            <gpxtpx:hr>106</gpxtpx:hr>
          </gpxtpx:TrackPointExtension>
        </extensions>
      </trkpt>
      <trkpt lat="45.5904" lon="2.76003">
        <ele>884</ele>
        <time>2024-05-26T08:47:40.000Z</time>
        <extensions>
          <gpxtpx:TrackPointExtension xmlns:gpxtpx="http://www.garmin.com/xmlschemas/TrackPointExtension/v1">
            <gpxtpx:hr>106</gpxtpx:hr>
          </gpxtpx:TrackPointExtension>
        </extensions>
      </trkpt>
      <trkpt lat="45.59046" lon="2.7605">
        <ele>885</ele>
        <time>2024-05-26T08:47:48.000Z</time>
        <extensions>
          <gpxtpx:TrackPointExtension xmlns:gpxtpx="http://www.garmin.com/xmlschemas/TrackPointExtension/v1">
            <gpxtpx:hr>108</gpxtpx:hr>
          </gpxtpx:TrackPointExtension>
        </extensions>
      </trkpt>
      <trkpt lat="45.59046" lon="2.76061">
        <ele>885</ele>
        <time>2024-05-26T08:47:50.000Z</time>
        <extensions>
          <gpxtpx:TrackPointExtension xmlns:gpxtpx="http://www.garmin.com/xmlschemas/TrackPointExtension/v1">
            <gpxtpx:hr>109</gpxtpx:hr>
          </gpxtpx:TrackPointExtension>
        </extensions>
      </trkpt>
      <trkpt lat="45.59047" lon="2.76103">
        <ele>885.79998779297</ele>
        <time>2024-05-26T08:47:57.000Z</time>
        <extensions>
          <gpxtpx:TrackPointExtension xmlns:gpxtpx="http://www.garmin.com/xmlschemas/TrackPointExtension/v1">
            <gpxtpx:hr>112</gpxtpx:hr>
          </gpxtpx:TrackPointExtension>
        </extensions>
      </trkpt>
      <trkpt lat="45.59046" lon="2.76122">
        <ele>885.79998779297</ele>
        <time>2024-05-26T08:48:00.000Z</time>
        <extensions>
          <gpxtpx:TrackPointExtension xmlns:gpxtpx="http://www.garmin.com/xmlschemas/TrackPointExtension/v1">
            <gpxtpx:hr>112</gpxtpx:hr>
          </gpxtpx:TrackPointExtension>
        </extensions>
      </trkpt>
      <trkpt lat="45.59044" lon="2.76133">
        <ele>886</ele>
        <time>2024-05-26T08:48:02.000Z</time>
        <extensions>
          <gpxtpx:TrackPointExtension xmlns:gpxtpx="http://www.garmin.com/xmlschemas/TrackPointExtension/v1">
            <gpxtpx:hr>111</gpxtpx:hr>
          </gpxtpx:TrackPointExtension>
        </extensions>
      </trkpt>
      <trkpt lat="45.5904" lon="2.76163">
        <ele>886.40002441406</ele>
        <time>2024-05-26T08:48:07.000Z</time>
        <extensions>
          <gpxtpx:TrackPointExtension xmlns:gpxtpx="http://www.garmin.com/xmlschemas/TrackPointExtension/v1">
            <gpxtpx:hr>112</gpxtpx:hr>
          </gpxtpx:TrackPointExtension>
        </extensions>
      </trkpt>
      <trkpt lat="45.59029" lon="2.76216">
        <ele>886.79998779297</ele>
        <time>2024-05-26T08:48:16.000Z</time>
        <extensions>
          <gpxtpx:TrackPointExtension xmlns:gpxtpx="http://www.garmin.com/xmlschemas/TrackPointExtension/v1">
            <gpxtpx:hr>114</gpxtpx:hr>
          </gpxtpx:TrackPointExtension>
        </extensions>
      </trkpt>
      <trkpt lat="45.59028" lon="2.76222">
        <ele>887</ele>
        <time>2024-05-26T08:48:17.000Z</time>
        <extensions>
          <gpxtpx:TrackPointExtension xmlns:gpxtpx="http://www.garmin.com/xmlschemas/TrackPointExtension/v1">
            <gpxtpx:hr>114</gpxtpx:hr>
          </gpxtpx:TrackPointExtension>
        </extensions>
      </trkpt>
      <trkpt lat="45.59027" lon="2.76228">
        <ele>887</ele>
        <time>2024-05-26T08:48:18.000Z</time>
        <extensions>
          <gpxtpx:TrackPointExtension xmlns:gpxtpx="http://www.garmin.com/xmlschemas/TrackPointExtension/v1">
            <gpxtpx:hr>115</gpxtpx:hr>
          </gpxtpx:TrackPointExtension>
        </extensions>
      </trkpt>
      <trkpt lat="45.59022" lon="2.76252">
        <ele>887.40002441406</ele>
        <time>2024-05-26T08:48:22.000Z</time>
        <extensions>
          <gpxtpx:TrackPointExtension xmlns:gpxtpx="http://www.garmin.com/xmlschemas/TrackPointExtension/v1">
            <gpxtpx:hr>115</gpxtpx:hr>
          </gpxtpx:TrackPointExtension>
        </extensions>
      </trkpt>
      <trkpt lat="45.59019" lon="2.76285">
        <ele>888</ele>
        <time>2024-05-26T08:48:27.000Z</time>
        <extensions>
          <gpxtpx:TrackPointExtension xmlns:gpxtpx="http://www.garmin.com/xmlschemas/TrackPointExtension/v1">
            <gpxtpx:hr>115</gpxtpx:hr>
          </gpxtpx:TrackPointExtension>
        </extensions>
      </trkpt>
      <trkpt lat="45.59018" lon="2.76291">
        <ele>888.20001220703</ele>
        <time>2024-05-26T08:48:28.000Z</time>
        <extensions>
          <gpxtpx:TrackPointExtension xmlns:gpxtpx="http://www.garmin.com/xmlschemas/TrackPointExtension/v1">
            <gpxtpx:hr>115</gpxtpx:hr>
          </gpxtpx:TrackPointExtension>
        </extensions>
      </trkpt>
      <trkpt lat="45.59017" lon="2.76297">
        <ele>888.40002441406</ele>
        <time>2024-05-26T08:48:29.000Z</time>
        <extensions>
          <gpxtpx:TrackPointExtension xmlns:gpxtpx="http://www.garmin.com/xmlschemas/TrackPointExtension/v1">
            <gpxtpx:hr>115</gpxtpx:hr>
          </gpxtpx:TrackPointExtension>
        </extensions>
      </trkpt>
      <trkpt lat="45.59016" lon="2.76303">
        <ele>888.59997558594</ele>
        <time>2024-05-26T08:48:30.000Z</time>
        <extensions>
          <gpxtpx:TrackPointExtension xmlns:gpxtpx="http://www.garmin.com/xmlschemas/TrackPointExtension/v1">
            <gpxtpx:hr>116</gpxtpx:hr>
          </gpxtpx:TrackPointExtension>
        </extensions>
      </trkpt>
      <trkpt lat="45.59011" lon="2.76326">
        <ele>889</ele>
        <time>2024-05-26T08:48:34.000Z</time>
        <extensions>
          <gpxtpx:TrackPointExtension xmlns:gpxtpx="http://www.garmin.com/xmlschemas/TrackPointExtension/v1">
            <gpxtpx:hr>118</gpxtpx:hr>
          </gpxtpx:TrackPointExtension>
        </extensions>
      </trkpt>
      <trkpt lat="45.5901" lon="2.76332">
        <ele>889.40002441406</ele>
        <time>2024-05-26T08:48:35.000Z</time>
        <extensions>
          <gpxtpx:TrackPointExtension xmlns:gpxtpx="http://www.garmin.com/xmlschemas/TrackPointExtension/v1">
            <gpxtpx:hr>117</gpxtpx:hr>
          </gpxtpx:TrackPointExtension>
        </extensions>
      </trkpt>
      <trkpt lat="45.59002" lon="2.76367">
        <ele>890</ele>
        <time>2024-05-26T08:48:41.000Z</time>
        <extensions>
          <gpxtpx:TrackPointExtension xmlns:gpxtpx="http://www.garmin.com/xmlschemas/TrackPointExtension/v1">
            <gpxtpx:hr>117</gpxtpx:hr>
          </gpxtpx:TrackPointExtension>
        </extensions>
      </trkpt>
      <trkpt lat="45.58998" lon="2.76391">
        <ele>890.40002441406</ele>
        <time>2024-05-26T08:48:45.000Z</time>
        <extensions>
          <gpxtpx:TrackPointExtension xmlns:gpxtpx="http://www.garmin.com/xmlschemas/TrackPointExtension/v1">
            <gpxtpx:hr>116</gpxtpx:hr>
          </gpxtpx:TrackPointExtension>
        </extensions>
      </trkpt>
      <trkpt lat="45.58992" lon="2.7643">
        <ele>891.40002441406</ele>
        <time>2024-05-26T08:48:52.000Z</time>
        <extensions>
          <gpxtpx:TrackPointExtension xmlns:gpxtpx="http://www.garmin.com/xmlschemas/TrackPointExtension/v1">
            <gpxtpx:hr>115</gpxtpx:hr>
          </gpxtpx:TrackPointExtension>
        </extensions>
      </trkpt>
      <trkpt lat="45.58991" lon="2.76435">
        <ele>891.59997558594</ele>
        <time>2024-05-26T08:48:53.000Z</time>
        <extensions>
          <gpxtpx:TrackPointExtension xmlns:gpxtpx="http://www.garmin.com/xmlschemas/TrackPointExtension/v1">
            <gpxtpx:hr>117</gpxtpx:hr>
          </gpxtpx:TrackPointExtension>
        </extensions>
      </trkpt>
      <trkpt lat="45.58983" lon="2.76471">
        <ele>892.20001220703</ele>
        <time>2024-05-26T08:49:00.000Z</time>
        <extensions>
          <gpxtpx:TrackPointExtension xmlns:gpxtpx="http://www.garmin.com/xmlschemas/TrackPointExtension/v1">
            <gpxtpx:hr>118</gpxtpx:hr>
          </gpxtpx:TrackPointExtension>
        </extensions>
      </trkpt>
      <trkpt lat="45.58979" lon="2.76486">
        <ele>892.59997558594</ele>
        <time>2024-05-26T08:49:03.000Z</time>
        <extensions>
          <gpxtpx:TrackPointExtension xmlns:gpxtpx="http://www.garmin.com/xmlschemas/TrackPointExtension/v1">
            <gpxtpx:hr>118</gpxtpx:hr>
          </gpxtpx:TrackPointExtension>
        </extensions>
      </trkpt>
      <trkpt lat="45.58976" lon="2.76502">
        <ele>892.79998779297</ele>
        <time>2024-05-26T08:49:06.000Z</time>
        <extensions>
          <gpxtpx:TrackPointExtension xmlns:gpxtpx="http://www.garmin.com/xmlschemas/TrackPointExtension/v1">
            <gpxtpx:hr>117</gpxtpx:hr>
          </gpxtpx:TrackPointExtension>
        </extensions>
      </trkpt>
      <trkpt lat="45.58968" lon="2.76531">
        <ele>893.20001220703</ele>
        <time>2024-05-26T08:49:12.000Z</time>
        <extensions>
          <gpxtpx:TrackPointExtension xmlns:gpxtpx="http://www.garmin.com/xmlschemas/TrackPointExtension/v1">
            <gpxtpx:hr>114</gpxtpx:hr>
          </gpxtpx:TrackPointExtension>
        </extensions>
      </trkpt>
      <trkpt lat="45.58966" lon="2.7654">
        <ele>893.40002441406</ele>
        <time>2024-05-26T08:49:14.000Z</time>
        <extensions>
          <gpxtpx:TrackPointExtension xmlns:gpxtpx="http://www.garmin.com/xmlschemas/TrackPointExtension/v1">
            <gpxtpx:hr>112</gpxtpx:hr>
          </gpxtpx:TrackPointExtension>
        </extensions>
      </trkpt>
      <trkpt lat="45.58965" lon="2.76545">
        <ele>893.59997558594</ele>
        <time>2024-05-26T08:49:15.000Z</time>
        <extensions>
          <gpxtpx:TrackPointExtension xmlns:gpxtpx="http://www.garmin.com/xmlschemas/TrackPointExtension/v1">
            <gpxtpx:hr>111</gpxtpx:hr>
          </gpxtpx:TrackPointExtension>
        </extensions>
      </trkpt>
      <trkpt lat="45.58963" lon="2.76554">
        <ele>894</ele>
        <time>2024-05-26T08:49:17.000Z</time>
        <extensions>
          <gpxtpx:TrackPointExtension xmlns:gpxtpx="http://www.garmin.com/xmlschemas/TrackPointExtension/v1">
            <gpxtpx:hr>108</gpxtpx:hr>
          </gpxtpx:TrackPointExtension>
        </extensions>
      </trkpt>
      <trkpt lat="45.5896" lon="2.76568">
        <ele>894.40002441406</ele>
        <time>2024-05-26T08:49:20.000Z</time>
        <extensions>
          <gpxtpx:TrackPointExtension xmlns:gpxtpx="http://www.garmin.com/xmlschemas/TrackPointExtension/v1">
            <gpxtpx:hr>105</gpxtpx:hr>
          </gpxtpx:TrackPointExtension>
        </extensions>
      </trkpt>
      <trkpt lat="45.58959" lon="2.76573">
        <ele>894.40002441406</ele>
        <time>2024-05-26T08:49:21.000Z</time>
        <extensions>
          <gpxtpx:TrackPointExtension xmlns:gpxtpx="http://www.garmin.com/xmlschemas/TrackPointExtension/v1">
            <gpxtpx:hr>104</gpxtpx:hr>
          </gpxtpx:TrackPointExtension>
        </extensions>
      </trkpt>
      <trkpt lat="45.58956" lon="2.76582">
        <ele>894.79998779297</ele>
        <time>2024-05-26T08:49:23.000Z</time>
        <extensions>
          <gpxtpx:TrackPointExtension xmlns:gpxtpx="http://www.garmin.com/xmlschemas/TrackPointExtension/v1">
            <gpxtpx:hr>103</gpxtpx:hr>
          </gpxtpx:TrackPointExtension>
        </extensions>
      </trkpt>
      <trkpt lat="45.58946" lon="2.76617">
        <ele>895.59997558594</ele>
        <time>2024-05-26T08:49:31.000Z</time>
        <extensions>
          <gpxtpx:TrackPointExtension xmlns:gpxtpx="http://www.garmin.com/xmlschemas/TrackPointExtension/v1">
            <gpxtpx:hr>101</gpxtpx:hr>
          </gpxtpx:TrackPointExtension>
        </extensions>
      </trkpt>
      <trkpt lat="45.58943" lon="2.76626">
        <ele>896</ele>
        <time>2024-05-26T08:49:33.000Z</time>
        <extensions>
          <gpxtpx:TrackPointExtension xmlns:gpxtpx="http://www.garmin.com/xmlschemas/TrackPointExtension/v1">
            <gpxtpx:hr>101</gpxtpx:hr>
          </gpxtpx:TrackPointExtension>
        </extensions>
      </trkpt>
      <trkpt lat="45.58936" lon="2.76641">
        <ele>896.40002441406</ele>
        <time>2024-05-26T08:49:37.000Z</time>
        <extensions>
          <gpxtpx:TrackPointExtension xmlns:gpxtpx="http://www.garmin.com/xmlschemas/TrackPointExtension/v1">
            <gpxtpx:hr>101</gpxtpx:hr>
          </gpxtpx:TrackPointExtension>
        </extensions>
      </trkpt>
      <trkpt lat="45.58931" lon="2.76654">
        <ele>896.59997558594</ele>
        <time>2024-05-26T08:49:40.000Z</time>
        <extensions>
          <gpxtpx:TrackPointExtension xmlns:gpxtpx="http://www.garmin.com/xmlschemas/TrackPointExtension/v1">
            <gpxtpx:hr>101</gpxtpx:hr>
          </gpxtpx:TrackPointExtension>
        </extensions>
      </trkpt>
      <trkpt lat="45.58931" lon="2.76682">
        <ele>897</ele>
        <time>2024-05-26T08:49:46.000Z</time>
        <extensions>
          <gpxtpx:TrackPointExtension xmlns:gpxtpx="http://www.garmin.com/xmlschemas/TrackPointExtension/v1">
            <gpxtpx:hr>101</gpxtpx:hr>
          </gpxtpx:TrackPointExtension>
        </extensions>
      </trkpt>
      <trkpt lat="45.58926" lon="2.76721">
        <ele>897.59997558594</ele>
        <time>2024-05-26T08:49:54.000Z</time>
        <extensions>
          <gpxtpx:TrackPointExtension xmlns:gpxtpx="http://www.garmin.com/xmlschemas/TrackPointExtension/v1">
            <gpxtpx:hr>99</gpxtpx:hr>
          </gpxtpx:TrackPointExtension>
        </extensions>
      </trkpt>
      <trkpt lat="45.58925" lon="2.76735">
        <ele>898</ele>
        <time>2024-05-26T08:49:57.000Z</time>
        <extensions>
          <gpxtpx:TrackPointExtension xmlns:gpxtpx="http://www.garmin.com/xmlschemas/TrackPointExtension/v1">
            <gpxtpx:hr>99</gpxtpx:hr>
          </gpxtpx:TrackPointExtension>
        </extensions>
      </trkpt>
      <trkpt lat="45.5892" lon="2.76761">
        <ele>898.79998779297</ele>
        <time>2024-05-26T08:50:03.000Z</time>
        <extensions>
          <gpxtpx:TrackPointExtension xmlns:gpxtpx="http://www.garmin.com/xmlschemas/TrackPointExtension/v1">
            <gpxtpx:hr>100</gpxtpx:hr>
          </gpxtpx:TrackPointExtension>
        </extensions>
      </trkpt>
      <trkpt lat="45.58917" lon="2.76775">
        <ele>899</ele>
        <time>2024-05-26T08:50:06.000Z</time>
        <extensions>
          <gpxtpx:TrackPointExtension xmlns:gpxtpx="http://www.garmin.com/xmlschemas/TrackPointExtension/v1">
            <gpxtpx:hr>101</gpxtpx:hr>
          </gpxtpx:TrackPointExtension>
        </extensions>
      </trkpt>
      <trkpt lat="45.58914" lon="2.76796">
        <ele>900</ele>
        <time>2024-05-26T08:50:11.000Z</time>
        <extensions>
          <gpxtpx:TrackPointExtension xmlns:gpxtpx="http://www.garmin.com/xmlschemas/TrackPointExtension/v1">
            <gpxtpx:hr>101</gpxtpx:hr>
          </gpxtpx:TrackPointExtension>
        </extensions>
      </trkpt>
      <trkpt lat="45.58913" lon="2.76804">
        <ele>900.20001220703</ele>
        <time>2024-05-26T08:50:13.000Z</time>
        <extensions>
          <gpxtpx:TrackPointExtension xmlns:gpxtpx="http://www.garmin.com/xmlschemas/TrackPointExtension/v1">
            <gpxtpx:hr>101</gpxtpx:hr>
          </gpxtpx:TrackPointExtension>
        </extensions>
      </trkpt>
      <trkpt lat="45.58907" lon="2.76832">
        <ele>901</ele>
        <time>2024-05-26T08:50:20.000Z</time>
        <extensions>
          <gpxtpx:TrackPointExtension xmlns:gpxtpx="http://www.garmin.com/xmlschemas/TrackPointExtension/v1">
            <gpxtpx:hr>101</gpxtpx:hr>
          </gpxtpx:TrackPointExtension>
        </extensions>
      </trkpt>
      <trkpt lat="45.58905" lon="2.7684">
        <ele>901.20001220703</ele>
        <time>2024-05-26T08:50:22.000Z</time>
        <extensions>
          <gpxtpx:TrackPointExtension xmlns:gpxtpx="http://www.garmin.com/xmlschemas/TrackPointExtension/v1">
            <gpxtpx:hr>102</gpxtpx:hr>
          </gpxtpx:TrackPointExtension>
        </extensions>
      </trkpt>
      <trkpt lat="45.58901" lon="2.76856">
        <ele>901.79998779297</ele>
        <time>2024-05-26T08:50:26.000Z</time>
        <extensions>
          <gpxtpx:TrackPointExtension xmlns:gpxtpx="http://www.garmin.com/xmlschemas/TrackPointExtension/v1">
            <gpxtpx:hr>101</gpxtpx:hr>
          </gpxtpx:TrackPointExtension>
        </extensions>
      </trkpt>
      <trkpt lat="45.58899" lon="2.76864">
        <ele>902.40002441406</ele>
        <time>2024-05-26T08:50:28.000Z</time>
        <extensions>
          <gpxtpx:TrackPointExtension xmlns:gpxtpx="http://www.garmin.com/xmlschemas/TrackPointExtension/v1">
            <gpxtpx:hr>100</gpxtpx:hr>
          </gpxtpx:TrackPointExtension>
        </extensions>
      </trkpt>
      <trkpt lat="45.58897" lon="2.76868">
        <ele>902.40002441406</ele>
        <time>2024-05-26T08:50:29.000Z</time>
        <extensions>
          <gpxtpx:TrackPointExtension xmlns:gpxtpx="http://www.garmin.com/xmlschemas/TrackPointExtension/v1">
            <gpxtpx:hr>100</gpxtpx:hr>
          </gpxtpx:TrackPointExtension>
        </extensions>
      </trkpt>
      <trkpt lat="45.58896" lon="2.76871">
        <ele>902.40002441406</ele>
        <time>2024-05-26T08:50:30.000Z</time>
        <extensions>
          <gpxtpx:TrackPointExtension xmlns:gpxtpx="http://www.garmin.com/xmlschemas/TrackPointExtension/v1">
            <gpxtpx:hr>99</gpxtpx:hr>
          </gpxtpx:TrackPointExtension>
        </extensions>
      </trkpt>
      <trkpt lat="45.58894" lon="2.76898">
        <ele>903</ele>
        <time>2024-05-26T08:50:36.000Z</time>
        <extensions>
          <gpxtpx:TrackPointExtension xmlns:gpxtpx="http://www.garmin.com/xmlschemas/TrackPointExtension/v1">
            <gpxtpx:hr>96</gpxtpx:hr>
          </gpxtpx:TrackPointExtension>
        </extensions>
      </trkpt>
      <trkpt lat="45.58894" lon="2.7691">
        <ele>903.40002441406</ele>
        <time>2024-05-26T08:50:39.000Z</time>
        <extensions>
          <gpxtpx:TrackPointExtension xmlns:gpxtpx="http://www.garmin.com/xmlschemas/TrackPointExtension/v1">
            <gpxtpx:hr>95</gpxtpx:hr>
          </gpxtpx:TrackPointExtension>
        </extensions>
      </trkpt>
      <trkpt lat="45.58895" lon="2.76919">
        <ele>903.59997558594</ele>
        <time>2024-05-26T08:50:41.000Z</time>
        <extensions>
          <gpxtpx:TrackPointExtension xmlns:gpxtpx="http://www.garmin.com/xmlschemas/TrackPointExtension/v1">
            <gpxtpx:hr>95</gpxtpx:hr>
          </gpxtpx:TrackPointExtension>
        </extensions>
      </trkpt>
      <trkpt lat="45.58901" lon="2.76942">
        <ele>904.40002441406</ele>
        <time>2024-05-26T08:50:46.000Z</time>
        <extensions>
          <gpxtpx:TrackPointExtension xmlns:gpxtpx="http://www.garmin.com/xmlschemas/TrackPointExtension/v1">
            <gpxtpx:hr>97</gpxtpx:hr>
          </gpxtpx:TrackPointExtension>
        </extensions>
      </trkpt>
      <trkpt lat="45.589" lon="2.76945">
        <ele>904.40002441406</ele>
        <time>2024-05-26T08:50:47.000Z</time>
        <extensions>
          <gpxtpx:TrackPointExtension xmlns:gpxtpx="http://www.garmin.com/xmlschemas/TrackPointExtension/v1">
            <gpxtpx:hr>97</gpxtpx:hr>
          </gpxtpx:TrackPointExtension>
        </extensions>
      </trkpt>
      <trkpt lat="45.58897" lon="2.76971">
        <ele>905.20001220703</ele>
        <time>2024-05-26T08:50:55.000Z</time>
        <extensions>
          <gpxtpx:TrackPointExtension xmlns:gpxtpx="http://www.garmin.com/xmlschemas/TrackPointExtension/v1">
            <gpxtpx:hr>99</gpxtpx:hr>
          </gpxtpx:TrackPointExtension>
        </extensions>
      </trkpt>
      <trkpt lat="45.58895" lon="2.76978">
        <ele>905.40002441406</ele>
        <time>2024-05-26T08:50:57.000Z</time>
        <extensions>
          <gpxtpx:TrackPointExtension xmlns:gpxtpx="http://www.garmin.com/xmlschemas/TrackPointExtension/v1">
            <gpxtpx:hr>98</gpxtpx:hr>
          </gpxtpx:TrackPointExtension>
        </extensions>
      </trkpt>
      <trkpt lat="45.58894" lon="2.76989">
        <ele>906.20001220703</ele>
        <time>2024-05-26T08:51:01.000Z</time>
        <extensions>
          <gpxtpx:TrackPointExtension xmlns:gpxtpx="http://www.garmin.com/xmlschemas/TrackPointExtension/v1">
            <gpxtpx:hr>99</gpxtpx:hr>
          </gpxtpx:TrackPointExtension>
        </extensions>
      </trkpt>
      <trkpt lat="45.58891" lon="2.76999">
        <ele>906.59997558594</ele>
        <time>2024-05-26T08:51:04.000Z</time>
        <extensions>
          <gpxtpx:TrackPointExtension xmlns:gpxtpx="http://www.garmin.com/xmlschemas/TrackPointExtension/v1">
            <gpxtpx:hr>101</gpxtpx:hr>
          </gpxtpx:TrackPointExtension>
        </extensions>
      </trkpt>
      <trkpt lat="45.58888" lon="2.77013">
        <ele>907.40002441406</ele>
        <time>2024-05-26T08:51:09.000Z</time>
        <extensions>
          <gpxtpx:TrackPointExtension xmlns:gpxtpx="http://www.garmin.com/xmlschemas/TrackPointExtension/v1">
            <gpxtpx:hr>102</gpxtpx:hr>
          </gpxtpx:TrackPointExtension>
        </extensions>
      </trkpt>
      <trkpt lat="45.58888" lon="2.77016">
        <ele>907.59997558594</ele>
        <time>2024-05-26T08:51:11.000Z</time>
        <extensions>
          <gpxtpx:TrackPointExtension xmlns:gpxtpx="http://www.garmin.com/xmlschemas/TrackPointExtension/v1">
            <gpxtpx:hr>101</gpxtpx:hr>
          </gpxtpx:TrackPointExtension>
        </extensions>
      </trkpt>
      <trkpt lat="45.58888" lon="2.77017">
        <ele>907.79998779297</ele>
        <time>2024-05-26T08:51:14.000Z</time>
        <extensions>
          <gpxtpx:TrackPointExtension xmlns:gpxtpx="http://www.garmin.com/xmlschemas/TrackPointExtension/v1">
            <gpxtpx:hr>101</gpxtpx:hr>
          </gpxtpx:TrackPointExtension>
        </extensions>
      </trkpt>
      <trkpt lat="45.58888" lon="2.77017">
        <ele>907.79998779297</ele>
        <time>2024-05-26T08:51:22.000Z</time>
        <extensions>
          <gpxtpx:TrackPointExtension xmlns:gpxtpx="http://www.garmin.com/xmlschemas/TrackPointExtension/v1">
            <gpxtpx:hr>98</gpxtpx:hr>
          </gpxtpx:TrackPointExtension>
        </extensions>
      </trkpt>
      <trkpt lat="45.58888" lon="2.77017">
        <ele>907.79998779297</ele>
        <time>2024-05-26T08:51:25.000Z</time>
        <extensions>
          <gpxtpx:TrackPointExtension xmlns:gpxtpx="http://www.garmin.com/xmlschemas/TrackPointExtension/v1">
            <gpxtpx:hr>95</gpxtpx:hr>
          </gpxtpx:TrackPointExtension>
        </extensions>
      </trkpt>
      <trkpt lat="45.58888" lon="2.77017">
        <ele>907.79998779297</ele>
        <time>2024-05-26T08:51:27.000Z</time>
        <extensions>
          <gpxtpx:TrackPointExtension xmlns:gpxtpx="http://www.garmin.com/xmlschemas/TrackPointExtension/v1">
            <gpxtpx:hr>91</gpxtpx:hr>
          </gpxtpx:TrackPointExtension>
        </extensions>
      </trkpt>
      <trkpt lat="45.58888" lon="2.77017">
        <ele>907.79998779297</ele>
        <time>2024-05-26T08:51:29.000Z</time>
        <extensions>
          <gpxtpx:TrackPointExtension xmlns:gpxtpx="http://www.garmin.com/xmlschemas/TrackPointExtension/v1">
            <gpxtpx:hr>87</gpxtpx:hr>
          </gpxtpx:TrackPointExtension>
        </extensions>
      </trkpt>
      <trkpt lat="45.58888" lon="2.77017">
        <ele>908</ele>
        <time>2024-05-26T08:51:31.000Z</time>
        <extensions>
          <gpxtpx:TrackPointExtension xmlns:gpxtpx="http://www.garmin.com/xmlschemas/TrackPointExtension/v1">
            <gpxtpx:hr>85</gpxtpx:hr>
          </gpxtpx:TrackPointExtension>
        </extensions>
      </trkpt>
      <trkpt lat="45.58888" lon="2.77019">
        <ele>908</ele>
        <time>2024-05-26T08:51:38.000Z</time>
        <extensions>
          <gpxtpx:TrackPointExtension xmlns:gpxtpx="http://www.garmin.com/xmlschemas/TrackPointExtension/v1">
            <gpxtpx:hr>82</gpxtpx:hr>
          </gpxtpx:TrackPointExtension>
        </extensions>
      </trkpt>
      <trkpt lat="45.58888" lon="2.77026">
        <ele>908</ele>
        <time>2024-05-26T08:51:41.000Z</time>
        <extensions>
          <gpxtpx:TrackPointExtension xmlns:gpxtpx="http://www.garmin.com/xmlschemas/TrackPointExtension/v1">
            <gpxtpx:hr>83</gpxtpx:hr>
          </gpxtpx:TrackPointExtension>
        </extensions>
      </trkpt>
      <trkpt lat="45.58885" lon="2.77036">
        <ele>908.59997558594</ele>
        <time>2024-05-26T08:51:44.000Z</time>
        <extensions>
          <gpxtpx:TrackPointExtension xmlns:gpxtpx="http://www.garmin.com/xmlschemas/TrackPointExtension/v1">
            <gpxtpx:hr>84</gpxtpx:hr>
          </gpxtpx:TrackPointExtension>
        </extensions>
      </trkpt>
      <trkpt lat="45.58884" lon="2.7704">
        <ele>908.59997558594</ele>
        <time>2024-05-26T08:51:45.000Z</time>
        <extensions>
          <gpxtpx:TrackPointExtension xmlns:gpxtpx="http://www.garmin.com/xmlschemas/TrackPointExtension/v1">
            <gpxtpx:hr>84</gpxtpx:hr>
          </gpxtpx:TrackPointExtension>
        </extensions>
      </trkpt>
      <trkpt lat="45.58883" lon="2.77049">
        <ele>909</ele>
        <time>2024-05-26T08:51:47.000Z</time>
        <extensions>
          <gpxtpx:TrackPointExtension xmlns:gpxtpx="http://www.garmin.com/xmlschemas/TrackPointExtension/v1">
            <gpxtpx:hr>85</gpxtpx:hr>
          </gpxtpx:TrackPointExtension>
        </extensions>
      </trkpt>
      <trkpt lat="45.5888" lon="2.77068">
        <ele>909.59997558594</ele>
        <time>2024-05-26T08:51:51.000Z</time>
        <extensions>
          <gpxtpx:TrackPointExtension xmlns:gpxtpx="http://www.garmin.com/xmlschemas/TrackPointExtension/v1">
            <gpxtpx:hr>89</gpxtpx:hr>
          </gpxtpx:TrackPointExtension>
        </extensions>
      </trkpt>
      <trkpt lat="45.58879" lon="2.77077">
        <ele>909.79998779297</ele>
        <time>2024-05-26T08:51:53.000Z</time>
        <extensions>
          <gpxtpx:TrackPointExtension xmlns:gpxtpx="http://www.garmin.com/xmlschemas/TrackPointExtension/v1">
            <gpxtpx:hr>90</gpxtpx:hr>
          </gpxtpx:TrackPointExtension>
        </extensions>
      </trkpt>
      <trkpt lat="45.58878" lon="2.77091">
        <ele>910.79998779297</ele>
        <time>2024-05-26T08:51:56.000Z</time>
        <extensions>
          <gpxtpx:TrackPointExtension xmlns:gpxtpx="http://www.garmin.com/xmlschemas/TrackPointExtension/v1">
            <gpxtpx:hr>89</gpxtpx:hr>
          </gpxtpx:TrackPointExtension>
        </extensions>
      </trkpt>
      <trkpt lat="45.58876" lon="2.77098">
        <ele>911.40002441406</ele>
        <time>2024-05-26T08:51:58.000Z</time>
        <extensions>
          <gpxtpx:TrackPointExtension xmlns:gpxtpx="http://www.garmin.com/xmlschemas/TrackPointExtension/v1">
            <gpxtpx:hr>89</gpxtpx:hr>
          </gpxtpx:TrackPointExtension>
        </extensions>
      </trkpt>
      <trkpt lat="45.58874" lon="2.77106">
        <ele>912.20001220703</ele>
        <time>2024-05-26T08:52:00.000Z</time>
        <extensions>
          <gpxtpx:TrackPointExtension xmlns:gpxtpx="http://www.garmin.com/xmlschemas/TrackPointExtension/v1">
            <gpxtpx:hr>89</gpxtpx:hr>
          </gpxtpx:TrackPointExtension>
        </extensions>
      </trkpt>
      <trkpt lat="45.58871" lon="2.77122">
        <ele>912.79998779297</ele>
        <time>2024-05-26T08:52:04.000Z</time>
        <extensions>
          <gpxtpx:TrackPointExtension xmlns:gpxtpx="http://www.garmin.com/xmlschemas/TrackPointExtension/v1">
            <gpxtpx:hr>92</gpxtpx:hr>
          </gpxtpx:TrackPointExtension>
        </extensions>
      </trkpt>
      <trkpt lat="45.5887" lon="2.77125">
        <ele>913.20001220703</ele>
        <time>2024-05-26T08:52:05.000Z</time>
        <extensions>
          <gpxtpx:TrackPointExtension xmlns:gpxtpx="http://www.garmin.com/xmlschemas/TrackPointExtension/v1">
            <gpxtpx:hr>91</gpxtpx:hr>
          </gpxtpx:TrackPointExtension>
        </extensions>
      </trkpt>
      <trkpt lat="45.58866" lon="2.77144">
        <ele>914.20001220703</ele>
        <time>2024-05-26T08:52:10.000Z</time>
        <extensions>
          <gpxtpx:TrackPointExtension xmlns:gpxtpx="http://www.garmin.com/xmlschemas/TrackPointExtension/v1">
            <gpxtpx:hr>94</gpxtpx:hr>
          </gpxtpx:TrackPointExtension>
        </extensions>
      </trkpt>
      <trkpt lat="45.58863" lon="2.77156">
        <ele>914.79998779297</ele>
        <time>2024-05-26T08:52:14.000Z</time>
        <extensions>
          <gpxtpx:TrackPointExtension xmlns:gpxtpx="http://www.garmin.com/xmlschemas/TrackPointExtension/v1">
            <gpxtpx:hr>95</gpxtpx:hr>
          </gpxtpx:TrackPointExtension>
        </extensions>
      </trkpt>
      <trkpt lat="45.58863" lon="2.77158">
        <ele>915.20001220703</ele>
        <time>2024-05-26T08:52:15.000Z</time>
        <extensions>
          <gpxtpx:TrackPointExtension xmlns:gpxtpx="http://www.garmin.com/xmlschemas/TrackPointExtension/v1">
            <gpxtpx:hr>95</gpxtpx:hr>
          </gpxtpx:TrackPointExtension>
        </extensions>
      </trkpt>
      <trkpt lat="45.58863" lon="2.77161">
        <ele>915.20001220703</ele>
        <time>2024-05-26T08:52:16.000Z</time>
        <extensions>
          <gpxtpx:TrackPointExtension xmlns:gpxtpx="http://www.garmin.com/xmlschemas/TrackPointExtension/v1">
            <gpxtpx:hr>95</gpxtpx:hr>
          </gpxtpx:TrackPointExtension>
        </extensions>
      </trkpt>
      <trkpt lat="45.58863" lon="2.77163">
        <ele>915.40002441406</ele>
        <time>2024-05-26T08:52:17.000Z</time>
        <extensions>
          <gpxtpx:TrackPointExtension xmlns:gpxtpx="http://www.garmin.com/xmlschemas/TrackPointExtension/v1">
            <gpxtpx:hr>95</gpxtpx:hr>
          </gpxtpx:TrackPointExtension>
        </extensions>
      </trkpt>
      <trkpt lat="45.58865" lon="2.77171">
        <ele>915.79998779297</ele>
        <time>2024-05-26T08:52:20.000Z</time>
        <extensions>
          <gpxtpx:TrackPointExtension xmlns:gpxtpx="http://www.garmin.com/xmlschemas/TrackPointExtension/v1">
            <gpxtpx:hr>94</gpxtpx:hr>
          </gpxtpx:TrackPointExtension>
        </extensions>
      </trkpt>
      <trkpt lat="45.58864" lon="2.77174">
        <ele>916</ele>
        <time>2024-05-26T08:52:21.000Z</time>
        <extensions>
          <gpxtpx:TrackPointExtension xmlns:gpxtpx="http://www.garmin.com/xmlschemas/TrackPointExtension/v1">
            <gpxtpx:hr>94</gpxtpx:hr>
          </gpxtpx:TrackPointExtension>
        </extensions>
      </trkpt>
      <trkpt lat="45.58863" lon="2.77185">
        <ele>916.79998779297</ele>
        <time>2024-05-26T08:52:24.000Z</time>
        <extensions>
          <gpxtpx:TrackPointExtension xmlns:gpxtpx="http://www.garmin.com/xmlschemas/TrackPointExtension/v1">
            <gpxtpx:hr>94</gpxtpx:hr>
          </gpxtpx:TrackPointExtension>
        </extensions>
      </trkpt>
      <trkpt lat="45.58861" lon="2.7719">
        <ele>917.20001220703</ele>
        <time>2024-05-26T08:52:26.000Z</time>
        <extensions>
          <gpxtpx:TrackPointExtension xmlns:gpxtpx="http://www.garmin.com/xmlschemas/TrackPointExtension/v1">
            <gpxtpx:hr>92</gpxtpx:hr>
          </gpxtpx:TrackPointExtension>
        </extensions>
      </trkpt>
      <trkpt lat="45.58864" lon="2.772">
        <ele>917.20001220703</ele>
        <time>2024-05-26T08:52:28.000Z</time>
        <extensions>
          <gpxtpx:TrackPointExtension xmlns:gpxtpx="http://www.garmin.com/xmlschemas/TrackPointExtension/v1">
            <gpxtpx:hr>93</gpxtpx:hr>
          </gpxtpx:TrackPointExtension>
        </extensions>
      </trkpt>
      <trkpt lat="45.58864" lon="2.77213">
        <ele>917.59997558594</ele>
        <time>2024-05-26T08:52:32.000Z</time>
        <extensions>
          <gpxtpx:TrackPointExtension xmlns:gpxtpx="http://www.garmin.com/xmlschemas/TrackPointExtension/v1">
            <gpxtpx:hr>92</gpxtpx:hr>
          </gpxtpx:TrackPointExtension>
        </extensions>
      </trkpt>
      <trkpt lat="45.58864" lon="2.77216">
        <ele>917.79998779297</ele>
        <time>2024-05-26T08:52:33.000Z</time>
        <extensions>
          <gpxtpx:TrackPointExtension xmlns:gpxtpx="http://www.garmin.com/xmlschemas/TrackPointExtension/v1">
            <gpxtpx:hr>91</gpxtpx:hr>
          </gpxtpx:TrackPointExtension>
        </extensions>
      </trkpt>
      <trkpt lat="45.58864" lon="2.77219">
        <ele>918</ele>
        <time>2024-05-26T08:52:34.000Z</time>
        <extensions>
          <gpxtpx:TrackPointExtension xmlns:gpxtpx="http://www.garmin.com/xmlschemas/TrackPointExtension/v1">
            <gpxtpx:hr>91</gpxtpx:hr>
          </gpxtpx:TrackPointExtension>
        </extensions>
      </trkpt>
      <trkpt lat="45.58862" lon="2.77236">
        <ele>918.79998779297</ele>
        <time>2024-05-26T08:52:39.000Z</time>
        <extensions>
          <gpxtpx:TrackPointExtension xmlns:gpxtpx="http://www.garmin.com/xmlschemas/TrackPointExtension/v1">
            <gpxtpx:hr>92</gpxtpx:hr>
          </gpxtpx:TrackPointExtension>
        </extensions>
      </trkpt>
      <trkpt lat="45.58863" lon="2.7724">
        <ele>919</ele>
        <time>2024-05-26T08:52:40.000Z</time>
        <extensions>
          <gpxtpx:TrackPointExtension xmlns:gpxtpx="http://www.garmin.com/xmlschemas/TrackPointExtension/v1">
            <gpxtpx:hr>91</gpxtpx:hr>
          </gpxtpx:TrackPointExtension>
        </extensions>
      </trkpt>
      <trkpt lat="45.58864" lon="2.77259">
        <ele>920.20001220703</ele>
        <time>2024-05-26T08:52:44.000Z</time>
        <extensions>
          <gpxtpx:TrackPointExtension xmlns:gpxtpx="http://www.garmin.com/xmlschemas/TrackPointExtension/v1">
            <gpxtpx:hr>94</gpxtpx:hr>
          </gpxtpx:TrackPointExtension>
        </extensions>
      </trkpt>
      <trkpt lat="45.58865" lon="2.77275">
        <ele>920.79998779297</ele>
        <time>2024-05-26T08:52:47.000Z</time>
        <extensions>
          <gpxtpx:TrackPointExtension xmlns:gpxtpx="http://www.garmin.com/xmlschemas/TrackPointExtension/v1">
            <gpxtpx:hr>96</gpxtpx:hr>
          </gpxtpx:TrackPointExtension>
        </extensions>
      </trkpt>
      <trkpt lat="45.58864" lon="2.77285">
        <ele>921.40002441406</ele>
        <time>2024-05-26T08:52:49.000Z</time>
        <extensions>
          <gpxtpx:TrackPointExtension xmlns:gpxtpx="http://www.garmin.com/xmlschemas/TrackPointExtension/v1">
            <gpxtpx:hr>96</gpxtpx:hr>
          </gpxtpx:TrackPointExtension>
        </extensions>
      </trkpt>
      <trkpt lat="45.58862" lon="2.773">
        <ele>922.40002441406</ele>
        <time>2024-05-26T08:52:52.000Z</time>
        <extensions>
          <gpxtpx:TrackPointExtension xmlns:gpxtpx="http://www.garmin.com/xmlschemas/TrackPointExtension/v1">
            <gpxtpx:hr>95</gpxtpx:hr>
          </gpxtpx:TrackPointExtension>
        </extensions>
      </trkpt>
      <trkpt lat="45.58861" lon="2.77306">
        <ele>922.59997558594</ele>
        <time>2024-05-26T08:52:53.000Z</time>
        <extensions>
          <gpxtpx:TrackPointExtension xmlns:gpxtpx="http://www.garmin.com/xmlschemas/TrackPointExtension/v1">
            <gpxtpx:hr>95</gpxtpx:hr>
          </gpxtpx:TrackPointExtension>
        </extensions>
      </trkpt>
      <trkpt lat="45.58856" lon="2.77323">
        <ele>923.59997558594</ele>
        <time>2024-05-26T08:52:56.000Z</time>
        <extensions>
          <gpxtpx:TrackPointExtension xmlns:gpxtpx="http://www.garmin.com/xmlschemas/TrackPointExtension/v1">
            <gpxtpx:hr>96</gpxtpx:hr>
          </gpxtpx:TrackPointExtension>
        </extensions>
      </trkpt>
      <trkpt lat="45.58854" lon="2.77329">
        <ele>923.79998779297</ele>
        <time>2024-05-26T08:52:57.000Z</time>
        <extensions>
          <gpxtpx:TrackPointExtension xmlns:gpxtpx="http://www.garmin.com/xmlschemas/TrackPointExtension/v1">
            <gpxtpx:hr>96</gpxtpx:hr>
          </gpxtpx:TrackPointExtension>
        </extensions>
      </trkpt>
      <trkpt lat="45.5885" lon="2.77344">
        <ele>924.79998779297</ele>
        <time>2024-05-26T08:53:00.000Z</time>
        <extensions>
          <gpxtpx:TrackPointExtension xmlns:gpxtpx="http://www.garmin.com/xmlschemas/TrackPointExtension/v1">
            <gpxtpx:hr>100</gpxtpx:hr>
          </gpxtpx:TrackPointExtension>
        </extensions>
      </trkpt>
      <trkpt lat="45.58849" lon="2.77349">
        <ele>925.20001220703</ele>
        <time>2024-05-26T08:53:01.000Z</time>
        <extensions>
          <gpxtpx:TrackPointExtension xmlns:gpxtpx="http://www.garmin.com/xmlschemas/TrackPointExtension/v1">
            <gpxtpx:hr>96</gpxtpx:hr>
          </gpxtpx:TrackPointExtension>
        </extensions>
      </trkpt>
      <trkpt lat="45.58848" lon="2.77355">
        <ele>925.40002441406</ele>
        <time>2024-05-26T08:53:02.000Z</time>
        <extensions>
          <gpxtpx:TrackPointExtension xmlns:gpxtpx="http://www.garmin.com/xmlschemas/TrackPointExtension/v1">
            <gpxtpx:hr>96</gpxtpx:hr>
          </gpxtpx:TrackPointExtension>
        </extensions>
      </trkpt>
      <trkpt lat="45.58842" lon="2.77369">
        <ele>926</ele>
        <time>2024-05-26T08:53:05.000Z</time>
        <extensions>
          <gpxtpx:TrackPointExtension xmlns:gpxtpx="http://www.garmin.com/xmlschemas/TrackPointExtension/v1">
            <gpxtpx:hr>97</gpxtpx:hr>
          </gpxtpx:TrackPointExtension>
        </extensions>
      </trkpt>
      <trkpt lat="45.58836" lon="2.77377">
        <ele>926.59997558594</ele>
        <time>2024-05-26T08:53:07.000Z</time>
        <extensions>
          <gpxtpx:TrackPointExtension xmlns:gpxtpx="http://www.garmin.com/xmlschemas/TrackPointExtension/v1">
            <gpxtpx:hr>96</gpxtpx:hr>
          </gpxtpx:TrackPointExtension>
        </extensions>
      </trkpt>
      <trkpt lat="45.58828" lon="2.77384">
        <ele>927.20001220703</ele>
        <time>2024-05-26T08:53:09.000Z</time>
        <extensions>
          <gpxtpx:TrackPointExtension xmlns:gpxtpx="http://www.garmin.com/xmlschemas/TrackPointExtension/v1">
            <gpxtpx:hr>96</gpxtpx:hr>
          </gpxtpx:TrackPointExtension>
        </extensions>
      </trkpt>
      <trkpt lat="45.58824" lon="2.77387">
        <ele>927.40002441406</ele>
        <time>2024-05-26T08:53:10.000Z</time>
        <extensions>
          <gpxtpx:TrackPointExtension xmlns:gpxtpx="http://www.garmin.com/xmlschemas/TrackPointExtension/v1">
            <gpxtpx:hr>96</gpxtpx:hr>
          </gpxtpx:TrackPointExtension>
        </extensions>
      </trkpt>
      <trkpt lat="45.58817" lon="2.77394">
        <ele>928.20001220703</ele>
        <time>2024-05-26T08:53:12.000Z</time>
        <extensions>
          <gpxtpx:TrackPointExtension xmlns:gpxtpx="http://www.garmin.com/xmlschemas/TrackPointExtension/v1">
            <gpxtpx:hr>97</gpxtpx:hr>
          </gpxtpx:TrackPointExtension>
        </extensions>
      </trkpt>
      <trkpt lat="45.58814" lon="2.77398">
        <ele>928.40002441406</ele>
        <time>2024-05-26T08:53:13.000Z</time>
        <extensions>
          <gpxtpx:TrackPointExtension xmlns:gpxtpx="http://www.garmin.com/xmlschemas/TrackPointExtension/v1">
            <gpxtpx:hr>96</gpxtpx:hr>
          </gpxtpx:TrackPointExtension>
        </extensions>
      </trkpt>
      <trkpt lat="45.58807" lon="2.77409">
        <ele>929</ele>
        <time>2024-05-26T08:53:16.000Z</time>
        <extensions>
          <gpxtpx:TrackPointExtension xmlns:gpxtpx="http://www.garmin.com/xmlschemas/TrackPointExtension/v1">
            <gpxtpx:hr>97</gpxtpx:hr>
          </gpxtpx:TrackPointExtension>
        </extensions>
      </trkpt>
      <trkpt lat="45.58804" lon="2.77415">
        <ele>929.40002441406</ele>
        <time>2024-05-26T08:53:18.000Z</time>
        <extensions>
          <gpxtpx:TrackPointExtension xmlns:gpxtpx="http://www.garmin.com/xmlschemas/TrackPointExtension/v1">
            <gpxtpx:hr>98</gpxtpx:hr>
          </gpxtpx:TrackPointExtension>
        </extensions>
      </trkpt>
      <trkpt lat="45.58802" lon="2.77419">
        <ele>929.59997558594</ele>
        <time>2024-05-26T08:53:19.000Z</time>
        <extensions>
          <gpxtpx:TrackPointExtension xmlns:gpxtpx="http://www.garmin.com/xmlschemas/TrackPointExtension/v1">
            <gpxtpx:hr>101</gpxtpx:hr>
          </gpxtpx:TrackPointExtension>
        </extensions>
      </trkpt>
      <trkpt lat="45.58799" lon="2.77426">
        <ele>930.20001220703</ele>
        <time>2024-05-26T08:53:21.000Z</time>
        <extensions>
          <gpxtpx:TrackPointExtension xmlns:gpxtpx="http://www.garmin.com/xmlschemas/TrackPointExtension/v1">
            <gpxtpx:hr>99</gpxtpx:hr>
          </gpxtpx:TrackPointExtension>
        </extensions>
      </trkpt>
      <trkpt lat="45.58799" lon="2.7743">
        <ele>930.20001220703</ele>
        <time>2024-05-26T08:53:22.000Z</time>
        <extensions>
          <gpxtpx:TrackPointExtension xmlns:gpxtpx="http://www.garmin.com/xmlschemas/TrackPointExtension/v1">
            <gpxtpx:hr>99</gpxtpx:hr>
          </gpxtpx:TrackPointExtension>
        </extensions>
      </trkpt>
      <trkpt lat="45.58798" lon="2.77434">
        <ele>930.40002441406</ele>
        <time>2024-05-26T08:53:23.000Z</time>
        <extensions>
          <gpxtpx:TrackPointExtension xmlns:gpxtpx="http://www.garmin.com/xmlschemas/TrackPointExtension/v1">
            <gpxtpx:hr>99</gpxtpx:hr>
          </gpxtpx:TrackPointExtension>
        </extensions>
      </trkpt>
      <trkpt lat="45.58796" lon="2.77436">
        <ele>930.59997558594</ele>
        <time>2024-05-26T08:53:24.000Z</time>
        <extensions>
          <gpxtpx:TrackPointExtension xmlns:gpxtpx="http://www.garmin.com/xmlschemas/TrackPointExtension/v1">
            <gpxtpx:hr>99</gpxtpx:hr>
          </gpxtpx:TrackPointExtension>
        </extensions>
      </trkpt>
      <trkpt lat="45.58794" lon="2.77448">
        <ele>931.59997558594</ele>
        <time>2024-05-26T08:53:28.000Z</time>
        <extensions>
          <gpxtpx:TrackPointExtension xmlns:gpxtpx="http://www.garmin.com/xmlschemas/TrackPointExtension/v1">
            <gpxtpx:hr>97</gpxtpx:hr>
          </gpxtpx:TrackPointExtension>
        </extensions>
      </trkpt>
      <trkpt lat="45.58791" lon="2.77457">
        <ele>931.79998779297</ele>
        <time>2024-05-26T08:53:31.000Z</time>
        <extensions>
          <gpxtpx:TrackPointExtension xmlns:gpxtpx="http://www.garmin.com/xmlschemas/TrackPointExtension/v1">
            <gpxtpx:hr>96</gpxtpx:hr>
          </gpxtpx:TrackPointExtension>
        </extensions>
      </trkpt>
      <trkpt lat="45.58792" lon="2.77461">
        <ele>932</ele>
        <time>2024-05-26T08:53:32.000Z</time>
        <extensions>
          <gpxtpx:TrackPointExtension xmlns:gpxtpx="http://www.garmin.com/xmlschemas/TrackPointExtension/v1">
            <gpxtpx:hr>95</gpxtpx:hr>
          </gpxtpx:TrackPointExtension>
        </extensions>
      </trkpt>
      <trkpt lat="45.58792" lon="2.77464">
        <ele>932.20001220703</ele>
        <time>2024-05-26T08:53:33.000Z</time>
        <extensions>
          <gpxtpx:TrackPointExtension xmlns:gpxtpx="http://www.garmin.com/xmlschemas/TrackPointExtension/v1">
            <gpxtpx:hr>94</gpxtpx:hr>
          </gpxtpx:TrackPointExtension>
        </extensions>
      </trkpt>
      <trkpt lat="45.58792" lon="2.7747">
        <ele>932.40002441406</ele>
        <time>2024-05-26T08:53:35.000Z</time>
        <extensions>
          <gpxtpx:TrackPointExtension xmlns:gpxtpx="http://www.garmin.com/xmlschemas/TrackPointExtension/v1">
            <gpxtpx:hr>94</gpxtpx:hr>
          </gpxtpx:TrackPointExtension>
        </extensions>
      </trkpt>
      <trkpt lat="45.58792" lon="2.77474">
        <ele>932.79998779297</ele>
        <time>2024-05-26T08:53:36.000Z</time>
        <extensions>
          <gpxtpx:TrackPointExtension xmlns:gpxtpx="http://www.garmin.com/xmlschemas/TrackPointExtension/v1">
            <gpxtpx:hr>93</gpxtpx:hr>
          </gpxtpx:TrackPointExtension>
        </extensions>
      </trkpt>
      <trkpt lat="45.58789" lon="2.77484">
        <ele>933</ele>
        <time>2024-05-26T08:53:39.000Z</time>
        <extensions>
          <gpxtpx:TrackPointExtension xmlns:gpxtpx="http://www.garmin.com/xmlschemas/TrackPointExtension/v1">
            <gpxtpx:hr>94</gpxtpx:hr>
          </gpxtpx:TrackPointExtension>
        </extensions>
      </trkpt>
      <trkpt lat="45.58787" lon="2.77495">
        <ele>933.79998779297</ele>
        <time>2024-05-26T08:53:42.000Z</time>
        <extensions>
          <gpxtpx:TrackPointExtension xmlns:gpxtpx="http://www.garmin.com/xmlschemas/TrackPointExtension/v1">
            <gpxtpx:hr>95</gpxtpx:hr>
          </gpxtpx:TrackPointExtension>
        </extensions>
      </trkpt>
      <trkpt lat="45.58784" lon="2.77506">
        <ele>934.59997558594</ele>
        <time>2024-05-26T08:53:45.000Z</time>
        <extensions>
          <gpxtpx:TrackPointExtension xmlns:gpxtpx="http://www.garmin.com/xmlschemas/TrackPointExtension/v1">
            <gpxtpx:hr>95</gpxtpx:hr>
          </gpxtpx:TrackPointExtension>
        </extensions>
      </trkpt>
      <trkpt lat="45.58783" lon="2.77516">
        <ele>935</ele>
        <time>2024-05-26T08:53:48.000Z</time>
        <extensions>
          <gpxtpx:TrackPointExtension xmlns:gpxtpx="http://www.garmin.com/xmlschemas/TrackPointExtension/v1">
            <gpxtpx:hr>97</gpxtpx:hr>
          </gpxtpx:TrackPointExtension>
        </extensions>
      </trkpt>
      <trkpt lat="45.58783" lon="2.7752">
        <ele>935.40002441406</ele>
        <time>2024-05-26T08:53:49.000Z</time>
        <extensions>
          <gpxtpx:TrackPointExtension xmlns:gpxtpx="http://www.garmin.com/xmlschemas/TrackPointExtension/v1">
            <gpxtpx:hr>97</gpxtpx:hr>
          </gpxtpx:TrackPointExtension>
        </extensions>
      </trkpt>
      <trkpt lat="45.58784" lon="2.77526">
        <ele>935.59997558594</ele>
        <time>2024-05-26T08:53:51.000Z</time>
        <extensions>
          <gpxtpx:TrackPointExtension xmlns:gpxtpx="http://www.garmin.com/xmlschemas/TrackPointExtension/v1">
            <gpxtpx:hr>97</gpxtpx:hr>
          </gpxtpx:TrackPointExtension>
        </extensions>
      </trkpt>
      <trkpt lat="45.58781" lon="2.77528">
        <ele>935.79998779297</ele>
        <time>2024-05-26T08:53:52.000Z</time>
        <extensions>
          <gpxtpx:TrackPointExtension xmlns:gpxtpx="http://www.garmin.com/xmlschemas/TrackPointExtension/v1">
            <gpxtpx:hr>97</gpxtpx:hr>
          </gpxtpx:TrackPointExtension>
        </extensions>
      </trkpt>
      <trkpt lat="45.58778" lon="2.77532">
        <ele>936</ele>
        <time>2024-05-26T08:53:54.000Z</time>
        <extensions>
          <gpxtpx:TrackPointExtension xmlns:gpxtpx="http://www.garmin.com/xmlschemas/TrackPointExtension/v1">
            <gpxtpx:hr>97</gpxtpx:hr>
          </gpxtpx:TrackPointExtension>
        </extensions>
      </trkpt>
      <trkpt lat="45.58773" lon="2.77552">
        <ele>937.20001220703</ele>
        <time>2024-05-26T08:54:00.000Z</time>
        <extensions>
          <gpxtpx:TrackPointExtension xmlns:gpxtpx="http://www.garmin.com/xmlschemas/TrackPointExtension/v1">
            <gpxtpx:hr>97</gpxtpx:hr>
          </gpxtpx:TrackPointExtension>
        </extensions>
      </trkpt>
      <trkpt lat="45.58768" lon="2.77566">
        <ele>938.20001220703</ele>
        <time>2024-05-26T08:54:05.000Z</time>
        <extensions>
          <gpxtpx:TrackPointExtension xmlns:gpxtpx="http://www.garmin.com/xmlschemas/TrackPointExtension/v1">
            <gpxtpx:hr>100</gpxtpx:hr>
          </gpxtpx:TrackPointExtension>
        </extensions>
      </trkpt>
      <trkpt lat="45.58767" lon="2.7757">
        <ele>938.59997558594</ele>
        <time>2024-05-26T08:54:06.000Z</time>
        <extensions>
          <gpxtpx:TrackPointExtension xmlns:gpxtpx="http://www.garmin.com/xmlschemas/TrackPointExtension/v1">
            <gpxtpx:hr>101</gpxtpx:hr>
          </gpxtpx:TrackPointExtension>
        </extensions>
      </trkpt>
      <trkpt lat="45.58762" lon="2.77582">
        <ele>939</ele>
        <time>2024-05-26T08:54:10.000Z</time>
        <extensions>
          <gpxtpx:TrackPointExtension xmlns:gpxtpx="http://www.garmin.com/xmlschemas/TrackPointExtension/v1">
            <gpxtpx:hr>105</gpxtpx:hr>
          </gpxtpx:TrackPointExtension>
        </extensions>
      </trkpt>
      <trkpt lat="45.5876" lon="2.77588">
        <ele>939.40002441406</ele>
        <time>2024-05-26T08:54:12.000Z</time>
        <extensions>
          <gpxtpx:TrackPointExtension xmlns:gpxtpx="http://www.garmin.com/xmlschemas/TrackPointExtension/v1">
            <gpxtpx:hr>108</gpxtpx:hr>
          </gpxtpx:TrackPointExtension>
        </extensions>
      </trkpt>
      <trkpt lat="45.58759" lon="2.77594">
        <ele>939.59997558594</ele>
        <time>2024-05-26T08:54:14.000Z</time>
        <extensions>
          <gpxtpx:TrackPointExtension xmlns:gpxtpx="http://www.garmin.com/xmlschemas/TrackPointExtension/v1">
            <gpxtpx:hr>113</gpxtpx:hr>
          </gpxtpx:TrackPointExtension>
        </extensions>
      </trkpt>
      <trkpt lat="45.58758" lon="2.77597">
        <ele>940</ele>
        <time>2024-05-26T08:54:15.000Z</time>
        <extensions>
          <gpxtpx:TrackPointExtension xmlns:gpxtpx="http://www.garmin.com/xmlschemas/TrackPointExtension/v1">
            <gpxtpx:hr>115</gpxtpx:hr>
          </gpxtpx:TrackPointExtension>
        </extensions>
      </trkpt>
      <trkpt lat="45.58757" lon="2.77604">
        <ele>940.20001220703</ele>
        <time>2024-05-26T08:54:17.000Z</time>
        <extensions>
          <gpxtpx:TrackPointExtension xmlns:gpxtpx="http://www.garmin.com/xmlschemas/TrackPointExtension/v1">
            <gpxtpx:hr>118</gpxtpx:hr>
          </gpxtpx:TrackPointExtension>
        </extensions>
      </trkpt>
      <trkpt lat="45.58754" lon="2.77613">
        <ele>940.59997558594</ele>
        <time>2024-05-26T08:54:20.000Z</time>
        <extensions>
          <gpxtpx:TrackPointExtension xmlns:gpxtpx="http://www.garmin.com/xmlschemas/TrackPointExtension/v1">
            <gpxtpx:hr>120</gpxtpx:hr>
          </gpxtpx:TrackPointExtension>
        </extensions>
      </trkpt>
      <trkpt lat="45.58748" lon="2.77631">
        <ele>941.40002441406</ele>
        <time>2024-05-26T08:54:26.000Z</time>
        <extensions>
          <gpxtpx:TrackPointExtension xmlns:gpxtpx="http://www.garmin.com/xmlschemas/TrackPointExtension/v1">
            <gpxtpx:hr>117</gpxtpx:hr>
          </gpxtpx:TrackPointExtension>
        </extensions>
      </trkpt>
      <trkpt lat="45.58746" lon="2.77637">
        <ele>941.79998779297</ele>
        <time>2024-05-26T08:54:28.000Z</time>
        <extensions>
          <gpxtpx:TrackPointExtension xmlns:gpxtpx="http://www.garmin.com/xmlschemas/TrackPointExtension/v1">
            <gpxtpx:hr>115</gpxtpx:hr>
          </gpxtpx:TrackPointExtension>
        </extensions>
      </trkpt>
      <trkpt lat="45.58745" lon="2.7764">
        <ele>942</ele>
        <time>2024-05-26T08:54:29.000Z</time>
        <extensions>
          <gpxtpx:TrackPointExtension xmlns:gpxtpx="http://www.garmin.com/xmlschemas/TrackPointExtension/v1">
            <gpxtpx:hr>115</gpxtpx:hr>
          </gpxtpx:TrackPointExtension>
        </extensions>
      </trkpt>
      <trkpt lat="45.58737" lon="2.77658">
        <ele>942.79998779297</ele>
        <time>2024-05-26T08:54:35.000Z</time>
        <extensions>
          <gpxtpx:TrackPointExtension xmlns:gpxtpx="http://www.garmin.com/xmlschemas/TrackPointExtension/v1">
            <gpxtpx:hr>114</gpxtpx:hr>
          </gpxtpx:TrackPointExtension>
        </extensions>
      </trkpt>
      <trkpt lat="45.58733" lon="2.7767">
        <ele>943.40002441406</ele>
        <time>2024-05-26T08:54:39.000Z</time>
        <extensions>
          <gpxtpx:TrackPointExtension xmlns:gpxtpx="http://www.garmin.com/xmlschemas/TrackPointExtension/v1">
            <gpxtpx:hr>114</gpxtpx:hr>
          </gpxtpx:TrackPointExtension>
        </extensions>
      </trkpt>
      <trkpt lat="45.58731" lon="2.77683">
        <ele>944</ele>
        <time>2024-05-26T08:54:43.000Z</time>
        <extensions>
          <gpxtpx:TrackPointExtension xmlns:gpxtpx="http://www.garmin.com/xmlschemas/TrackPointExtension/v1">
            <gpxtpx:hr>113</gpxtpx:hr>
          </gpxtpx:TrackPointExtension>
        </extensions>
      </trkpt>
      <trkpt lat="45.5873" lon="2.77689">
        <ele>944.40002441406</ele>
        <time>2024-05-26T08:54:45.000Z</time>
        <extensions>
          <gpxtpx:TrackPointExtension xmlns:gpxtpx="http://www.garmin.com/xmlschemas/TrackPointExtension/v1">
            <gpxtpx:hr>112</gpxtpx:hr>
          </gpxtpx:TrackPointExtension>
        </extensions>
      </trkpt>
      <trkpt lat="45.58725" lon="2.77702">
        <ele>945</ele>
        <time>2024-05-26T08:54:49.000Z</time>
        <extensions>
          <gpxtpx:TrackPointExtension xmlns:gpxtpx="http://www.garmin.com/xmlschemas/TrackPointExtension/v1">
            <gpxtpx:hr>112</gpxtpx:hr>
          </gpxtpx:TrackPointExtension>
        </extensions>
      </trkpt>
      <trkpt lat="45.58723" lon="2.77711">
        <ele>945.40002441406</ele>
        <time>2024-05-26T08:54:52.000Z</time>
        <extensions>
          <gpxtpx:TrackPointExtension xmlns:gpxtpx="http://www.garmin.com/xmlschemas/TrackPointExtension/v1">
            <gpxtpx:hr>111</gpxtpx:hr>
          </gpxtpx:TrackPointExtension>
        </extensions>
      </trkpt>
      <trkpt lat="45.58719" lon="2.77723">
        <ele>946.20001220703</ele>
        <time>2024-05-26T08:54:56.000Z</time>
        <extensions>
          <gpxtpx:TrackPointExtension xmlns:gpxtpx="http://www.garmin.com/xmlschemas/TrackPointExtension/v1">
            <gpxtpx:hr>109</gpxtpx:hr>
          </gpxtpx:TrackPointExtension>
        </extensions>
      </trkpt>
      <trkpt lat="45.58717" lon="2.77733">
        <ele>946.59997558594</ele>
        <time>2024-05-26T08:54:59.000Z</time>
        <extensions>
          <gpxtpx:TrackPointExtension xmlns:gpxtpx="http://www.garmin.com/xmlschemas/TrackPointExtension/v1">
            <gpxtpx:hr>108</gpxtpx:hr>
          </gpxtpx:TrackPointExtension>
        </extensions>
      </trkpt>
      <trkpt lat="45.58715" lon="2.77745">
        <ele>947.40002441406</ele>
        <time>2024-05-26T08:55:03.000Z</time>
        <extensions>
          <gpxtpx:TrackPointExtension xmlns:gpxtpx="http://www.garmin.com/xmlschemas/TrackPointExtension/v1">
            <gpxtpx:hr>107</gpxtpx:hr>
          </gpxtpx:TrackPointExtension>
        </extensions>
      </trkpt>
      <trkpt lat="45.58714" lon="2.77751">
        <ele>947.59997558594</ele>
        <time>2024-05-26T08:55:05.000Z</time>
        <extensions>
          <gpxtpx:TrackPointExtension xmlns:gpxtpx="http://www.garmin.com/xmlschemas/TrackPointExtension/v1">
            <gpxtpx:hr>111</gpxtpx:hr>
          </gpxtpx:TrackPointExtension>
        </extensions>
      </trkpt>
      <trkpt lat="45.58711" lon="2.77757">
        <ele>947.79998779297</ele>
        <time>2024-05-26T08:55:07.000Z</time>
        <extensions>
          <gpxtpx:TrackPointExtension xmlns:gpxtpx="http://www.garmin.com/xmlschemas/TrackPointExtension/v1">
            <gpxtpx:hr>113</gpxtpx:hr>
          </gpxtpx:TrackPointExtension>
        </extensions>
      </trkpt>
      <trkpt lat="45.58706" lon="2.77771">
        <ele>948.59997558594</ele>
        <time>2024-05-26T08:55:12.000Z</time>
        <extensions>
          <gpxtpx:TrackPointExtension xmlns:gpxtpx="http://www.garmin.com/xmlschemas/TrackPointExtension/v1">
            <gpxtpx:hr>115</gpxtpx:hr>
          </gpxtpx:TrackPointExtension>
        </extensions>
      </trkpt>
      <trkpt lat="45.58703" lon="2.7778">
        <ele>949</ele>
        <time>2024-05-26T08:55:15.000Z</time>
        <extensions>
          <gpxtpx:TrackPointExtension xmlns:gpxtpx="http://www.garmin.com/xmlschemas/TrackPointExtension/v1">
            <gpxtpx:hr>116</gpxtpx:hr>
          </gpxtpx:TrackPointExtension>
        </extensions>
      </trkpt>
      <trkpt lat="45.58698" lon="2.77791">
        <ele>949.79998779297</ele>
        <time>2024-05-26T08:55:19.000Z</time>
        <extensions>
          <gpxtpx:TrackPointExtension xmlns:gpxtpx="http://www.garmin.com/xmlschemas/TrackPointExtension/v1">
            <gpxtpx:hr>116</gpxtpx:hr>
          </gpxtpx:TrackPointExtension>
        </extensions>
      </trkpt>
      <trkpt lat="45.58695" lon="2.77807">
        <ele>950.40002441406</ele>
        <time>2024-05-26T08:55:24.000Z</time>
        <extensions>
          <gpxtpx:TrackPointExtension xmlns:gpxtpx="http://www.garmin.com/xmlschemas/TrackPointExtension/v1">
            <gpxtpx:hr>118</gpxtpx:hr>
          </gpxtpx:TrackPointExtension>
        </extensions>
      </trkpt>
      <trkpt lat="45.58695" lon="2.77817">
        <ele>950.79998779297</ele>
        <time>2024-05-26T08:55:27.000Z</time>
        <extensions>
          <gpxtpx:TrackPointExtension xmlns:gpxtpx="http://www.garmin.com/xmlschemas/TrackPointExtension/v1">
            <gpxtpx:hr>116</gpxtpx:hr>
          </gpxtpx:TrackPointExtension>
        </extensions>
      </trkpt>
      <trkpt lat="45.58696" lon="2.77835">
        <ele>951.40002441406</ele>
        <time>2024-05-26T08:55:32.000Z</time>
        <extensions>
          <gpxtpx:TrackPointExtension xmlns:gpxtpx="http://www.garmin.com/xmlschemas/TrackPointExtension/v1">
            <gpxtpx:hr>117</gpxtpx:hr>
          </gpxtpx:TrackPointExtension>
        </extensions>
      </trkpt>
      <trkpt lat="45.58696" lon="2.77844">
        <ele>952</ele>
        <time>2024-05-26T08:55:35.000Z</time>
        <extensions>
          <gpxtpx:TrackPointExtension xmlns:gpxtpx="http://www.garmin.com/xmlschemas/TrackPointExtension/v1">
            <gpxtpx:hr>116</gpxtpx:hr>
          </gpxtpx:TrackPointExtension>
        </extensions>
      </trkpt>
      <trkpt lat="45.58694" lon="2.77853">
        <ele>952.40002441406</ele>
        <time>2024-05-26T08:55:38.000Z</time>
        <extensions>
          <gpxtpx:TrackPointExtension xmlns:gpxtpx="http://www.garmin.com/xmlschemas/TrackPointExtension/v1">
            <gpxtpx:hr>115</gpxtpx:hr>
          </gpxtpx:TrackPointExtension>
        </extensions>
      </trkpt>
      <trkpt lat="45.58694" lon="2.77879">
        <ele>953.20001220703</ele>
        <time>2024-05-26T08:55:46.000Z</time>
        <extensions>
          <gpxtpx:TrackPointExtension xmlns:gpxtpx="http://www.garmin.com/xmlschemas/TrackPointExtension/v1">
            <gpxtpx:hr>116</gpxtpx:hr>
          </gpxtpx:TrackPointExtension>
        </extensions>
      </trkpt>
      <trkpt lat="45.58692" lon="2.77908">
        <ele>954.20001220703</ele>
        <time>2024-05-26T08:55:54.000Z</time>
        <extensions>
          <gpxtpx:TrackPointExtension xmlns:gpxtpx="http://www.garmin.com/xmlschemas/TrackPointExtension/v1">
            <gpxtpx:hr>112</gpxtpx:hr>
          </gpxtpx:TrackPointExtension>
        </extensions>
      </trkpt>
      <trkpt lat="45.58691" lon="2.77917">
        <ele>954.20001220703</ele>
        <time>2024-05-26T08:55:56.000Z</time>
        <extensions>
          <gpxtpx:TrackPointExtension xmlns:gpxtpx="http://www.garmin.com/xmlschemas/TrackPointExtension/v1">
            <gpxtpx:hr>115</gpxtpx:hr>
          </gpxtpx:TrackPointExtension>
        </extensions>
      </trkpt>
      <trkpt lat="45.58687" lon="2.77945">
        <ele>955.20001220703</ele>
        <time>2024-05-26T08:56:04.000Z</time>
        <extensions>
          <gpxtpx:TrackPointExtension xmlns:gpxtpx="http://www.garmin.com/xmlschemas/TrackPointExtension/v1">
            <gpxtpx:hr>113</gpxtpx:hr>
          </gpxtpx:TrackPointExtension>
        </extensions>
      </trkpt>
      <trkpt lat="45.58687" lon="2.77948">
        <ele>955.20001220703</ele>
        <time>2024-05-26T08:56:05.000Z</time>
        <extensions>
          <gpxtpx:TrackPointExtension xmlns:gpxtpx="http://www.garmin.com/xmlschemas/TrackPointExtension/v1">
            <gpxtpx:hr>113</gpxtpx:hr>
          </gpxtpx:TrackPointExtension>
        </extensions>
      </trkpt>
      <trkpt lat="45.58686" lon="2.77968">
        <ele>955.79998779297</ele>
        <time>2024-05-26T08:56:10.000Z</time>
        <extensions>
          <gpxtpx:TrackPointExtension xmlns:gpxtpx="http://www.garmin.com/xmlschemas/TrackPointExtension/v1">
            <gpxtpx:hr>113</gpxtpx:hr>
          </gpxtpx:TrackPointExtension>
        </extensions>
      </trkpt>
      <trkpt lat="45.58684" lon="2.77988">
        <ele>956.20001220703</ele>
        <time>2024-05-26T08:56:15.000Z</time>
        <extensions>
          <gpxtpx:TrackPointExtension xmlns:gpxtpx="http://www.garmin.com/xmlschemas/TrackPointExtension/v1">
            <gpxtpx:hr>114</gpxtpx:hr>
          </gpxtpx:TrackPointExtension>
        </extensions>
      </trkpt>
      <trkpt lat="45.58686" lon="2.78005">
        <ele>956.79998779297</ele>
        <time>2024-05-26T08:56:19.000Z</time>
        <extensions>
          <gpxtpx:TrackPointExtension xmlns:gpxtpx="http://www.garmin.com/xmlschemas/TrackPointExtension/v1">
            <gpxtpx:hr>114</gpxtpx:hr>
          </gpxtpx:TrackPointExtension>
        </extensions>
      </trkpt>
      <trkpt lat="45.58683" lon="2.78025">
        <ele>957.20001220703</ele>
        <time>2024-05-26T08:56:24.000Z</time>
        <extensions>
          <gpxtpx:TrackPointExtension xmlns:gpxtpx="http://www.garmin.com/xmlschemas/TrackPointExtension/v1">
            <gpxtpx:hr>111</gpxtpx:hr>
          </gpxtpx:TrackPointExtension>
        </extensions>
      </trkpt>
      <trkpt lat="45.58684" lon="2.78029">
        <ele>957.20001220703</ele>
        <time>2024-05-26T08:56:25.000Z</time>
        <extensions>
          <gpxtpx:TrackPointExtension xmlns:gpxtpx="http://www.garmin.com/xmlschemas/TrackPointExtension/v1">
            <gpxtpx:hr>110</gpxtpx:hr>
          </gpxtpx:TrackPointExtension>
        </extensions>
      </trkpt>
      <trkpt lat="45.58683" lon="2.78033">
        <ele>957.40002441406</ele>
        <time>2024-05-26T08:56:26.000Z</time>
        <extensions>
          <gpxtpx:TrackPointExtension xmlns:gpxtpx="http://www.garmin.com/xmlschemas/TrackPointExtension/v1">
            <gpxtpx:hr>108</gpxtpx:hr>
          </gpxtpx:TrackPointExtension>
        </extensions>
      </trkpt>
      <trkpt lat="45.5868" lon="2.78046">
        <ele>957.59997558594</ele>
        <time>2024-05-26T08:56:29.000Z</time>
        <extensions>
          <gpxtpx:TrackPointExtension xmlns:gpxtpx="http://www.garmin.com/xmlschemas/TrackPointExtension/v1">
            <gpxtpx:hr>105</gpxtpx:hr>
          </gpxtpx:TrackPointExtension>
        </extensions>
      </trkpt>
      <trkpt lat="45.58675" lon="2.78064">
        <ele>957.79998779297</ele>
        <time>2024-05-26T08:56:33.000Z</time>
        <extensions>
          <gpxtpx:TrackPointExtension xmlns:gpxtpx="http://www.garmin.com/xmlschemas/TrackPointExtension/v1">
            <gpxtpx:hr>103</gpxtpx:hr>
          </gpxtpx:TrackPointExtension>
        </extensions>
      </trkpt>
      <trkpt lat="45.58666" lon="2.78083">
        <ele>957.79998779297</ele>
        <time>2024-05-26T08:56:37.000Z</time>
        <extensions>
          <gpxtpx:TrackPointExtension xmlns:gpxtpx="http://www.garmin.com/xmlschemas/TrackPointExtension/v1">
            <gpxtpx:hr>103</gpxtpx:hr>
          </gpxtpx:TrackPointExtension>
        </extensions>
      </trkpt>
      <trkpt lat="45.58664" lon="2.78088">
        <ele>957.79998779297</ele>
        <time>2024-05-26T08:56:38.000Z</time>
        <extensions>
          <gpxtpx:TrackPointExtension xmlns:gpxtpx="http://www.garmin.com/xmlschemas/TrackPointExtension/v1">
            <gpxtpx:hr>103</gpxtpx:hr>
          </gpxtpx:TrackPointExtension>
        </extensions>
      </trkpt>
      <trkpt lat="45.58661" lon="2.78095">
        <ele>958</ele>
        <time>2024-05-26T08:56:39.000Z</time>
        <extensions>
          <gpxtpx:TrackPointExtension xmlns:gpxtpx="http://www.garmin.com/xmlschemas/TrackPointExtension/v1">
            <gpxtpx:hr>103</gpxtpx:hr>
          </gpxtpx:TrackPointExtension>
        </extensions>
      </trkpt>
      <trkpt lat="45.58657" lon="2.78111">
        <ele>958</ele>
        <time>2024-05-26T08:56:42.000Z</time>
        <extensions>
          <gpxtpx:TrackPointExtension xmlns:gpxtpx="http://www.garmin.com/xmlschemas/TrackPointExtension/v1">
            <gpxtpx:hr>102</gpxtpx:hr>
          </gpxtpx:TrackPointExtension>
        </extensions>
      </trkpt>
      <trkpt lat="45.58656" lon="2.78117">
        <ele>958</ele>
        <time>2024-05-26T08:56:43.000Z</time>
        <extensions>
          <gpxtpx:TrackPointExtension xmlns:gpxtpx="http://www.garmin.com/xmlschemas/TrackPointExtension/v1">
            <gpxtpx:hr>102</gpxtpx:hr>
          </gpxtpx:TrackPointExtension>
        </extensions>
      </trkpt>
      <trkpt lat="45.5865" lon="2.78158">
        <ele>958.20001220703</ele>
        <time>2024-05-26T08:56:49.000Z</time>
        <extensions>
          <gpxtpx:TrackPointExtension xmlns:gpxtpx="http://www.garmin.com/xmlschemas/TrackPointExtension/v1">
            <gpxtpx:hr>103</gpxtpx:hr>
          </gpxtpx:TrackPointExtension>
        </extensions>
      </trkpt>
      <trkpt lat="45.5865" lon="2.78164">
        <ele>958.20001220703</ele>
        <time>2024-05-26T08:56:50.000Z</time>
        <extensions>
          <gpxtpx:TrackPointExtension xmlns:gpxtpx="http://www.garmin.com/xmlschemas/TrackPointExtension/v1">
            <gpxtpx:hr>102</gpxtpx:hr>
          </gpxtpx:TrackPointExtension>
        </extensions>
      </trkpt>
      <trkpt lat="45.58648" lon="2.7817">
        <ele>958.40002441406</ele>
        <time>2024-05-26T08:56:51.000Z</time>
        <extensions>
          <gpxtpx:TrackPointExtension xmlns:gpxtpx="http://www.garmin.com/xmlschemas/TrackPointExtension/v1">
            <gpxtpx:hr>102</gpxtpx:hr>
          </gpxtpx:TrackPointExtension>
        </extensions>
      </trkpt>
      <trkpt lat="45.58648" lon="2.78184">
        <ele>958.20001220703</ele>
        <time>2024-05-26T08:56:53.000Z</time>
        <extensions>
          <gpxtpx:TrackPointExtension xmlns:gpxtpx="http://www.garmin.com/xmlschemas/TrackPointExtension/v1">
            <gpxtpx:hr>102</gpxtpx:hr>
          </gpxtpx:TrackPointExtension>
        </extensions>
      </trkpt>
      <trkpt lat="45.58646" lon="2.78197">
        <ele>958.20001220703</ele>
        <time>2024-05-26T08:56:55.000Z</time>
        <extensions>
          <gpxtpx:TrackPointExtension xmlns:gpxtpx="http://www.garmin.com/xmlschemas/TrackPointExtension/v1">
            <gpxtpx:hr>102</gpxtpx:hr>
          </gpxtpx:TrackPointExtension>
        </extensions>
      </trkpt>
      <trkpt lat="45.58642" lon="2.7821">
        <ele>958</ele>
        <time>2024-05-26T08:56:57.000Z</time>
        <extensions>
          <gpxtpx:TrackPointExtension xmlns:gpxtpx="http://www.garmin.com/xmlschemas/TrackPointExtension/v1">
            <gpxtpx:hr>102</gpxtpx:hr>
          </gpxtpx:TrackPointExtension>
        </extensions>
      </trkpt>
      <trkpt lat="45.58637" lon="2.78222">
        <ele>958</ele>
        <time>2024-05-26T08:56:59.000Z</time>
        <extensions>
          <gpxtpx:TrackPointExtension xmlns:gpxtpx="http://www.garmin.com/xmlschemas/TrackPointExtension/v1">
            <gpxtpx:hr>101</gpxtpx:hr>
          </gpxtpx:TrackPointExtension>
        </extensions>
      </trkpt>
      <trkpt lat="45.58633" lon="2.78232">
        <ele>958</ele>
        <time>2024-05-26T08:57:01.000Z</time>
        <extensions>
          <gpxtpx:TrackPointExtension xmlns:gpxtpx="http://www.garmin.com/xmlschemas/TrackPointExtension/v1">
            <gpxtpx:hr>101</gpxtpx:hr>
          </gpxtpx:TrackPointExtension>
        </extensions>
      </trkpt>
      <trkpt lat="45.5863" lon="2.7824">
        <ele>958</ele>
        <time>2024-05-26T08:57:02.000Z</time>
        <extensions>
          <gpxtpx:TrackPointExtension xmlns:gpxtpx="http://www.garmin.com/xmlschemas/TrackPointExtension/v1">
            <gpxtpx:hr>101</gpxtpx:hr>
          </gpxtpx:TrackPointExtension>
        </extensions>
      </trkpt>
      <trkpt lat="45.58614" lon="2.78262">
        <ele>958.59997558594</ele>
        <time>2024-05-26T08:57:06.000Z</time>
        <extensions>
          <gpxtpx:TrackPointExtension xmlns:gpxtpx="http://www.garmin.com/xmlschemas/TrackPointExtension/v1">
            <gpxtpx:hr>102</gpxtpx:hr>
          </gpxtpx:TrackPointExtension>
        </extensions>
      </trkpt>
      <trkpt lat="45.58612" lon="2.78266">
        <ele>958.59997558594</ele>
        <time>2024-05-26T08:57:07.000Z</time>
        <extensions>
          <gpxtpx:TrackPointExtension xmlns:gpxtpx="http://www.garmin.com/xmlschemas/TrackPointExtension/v1">
            <gpxtpx:hr>102</gpxtpx:hr>
          </gpxtpx:TrackPointExtension>
        </extensions>
      </trkpt>
      <trkpt lat="45.58609" lon="2.7829">
        <ele>958.79998779297</ele>
        <time>2024-05-26T08:57:10.000Z</time>
        <extensions>
          <gpxtpx:TrackPointExtension xmlns:gpxtpx="http://www.garmin.com/xmlschemas/TrackPointExtension/v1">
            <gpxtpx:hr>101</gpxtpx:hr>
          </gpxtpx:TrackPointExtension>
        </extensions>
      </trkpt>
      <trkpt lat="45.58604" lon="2.78314">
        <ele>959.40002441406</ele>
        <time>2024-05-26T08:57:14.000Z</time>
        <extensions>
          <gpxtpx:TrackPointExtension xmlns:gpxtpx="http://www.garmin.com/xmlschemas/TrackPointExtension/v1">
            <gpxtpx:hr>98</gpxtpx:hr>
          </gpxtpx:TrackPointExtension>
        </extensions>
      </trkpt>
      <trkpt lat="45.58602" lon="2.78328">
        <ele>959.40002441406</ele>
        <time>2024-05-26T08:57:16.000Z</time>
        <extensions>
          <gpxtpx:TrackPointExtension xmlns:gpxtpx="http://www.garmin.com/xmlschemas/TrackPointExtension/v1">
            <gpxtpx:hr>97</gpxtpx:hr>
          </gpxtpx:TrackPointExtension>
        </extensions>
      </trkpt>
      <trkpt lat="45.58601" lon="2.78334">
        <ele>959.59997558594</ele>
        <time>2024-05-26T08:57:17.000Z</time>
        <extensions>
          <gpxtpx:TrackPointExtension xmlns:gpxtpx="http://www.garmin.com/xmlschemas/TrackPointExtension/v1">
            <gpxtpx:hr>97</gpxtpx:hr>
          </gpxtpx:TrackPointExtension>
        </extensions>
      </trkpt>
      <trkpt lat="45.58602" lon="2.78356">
        <ele>960.20001220703</ele>
        <time>2024-05-26T08:57:21.000Z</time>
        <extensions>
          <gpxtpx:TrackPointExtension xmlns:gpxtpx="http://www.garmin.com/xmlschemas/TrackPointExtension/v1">
            <gpxtpx:hr>98</gpxtpx:hr>
          </gpxtpx:TrackPointExtension>
        </extensions>
      </trkpt>
      <trkpt lat="45.58603" lon="2.78362">
        <ele>960.40002441406</ele>
        <time>2024-05-26T08:57:22.000Z</time>
        <extensions>
          <gpxtpx:TrackPointExtension xmlns:gpxtpx="http://www.garmin.com/xmlschemas/TrackPointExtension/v1">
            <gpxtpx:hr>98</gpxtpx:hr>
          </gpxtpx:TrackPointExtension>
        </extensions>
      </trkpt>
      <trkpt lat="45.58609" lon="2.784">
        <ele>961</ele>
        <time>2024-05-26T08:57:28.000Z</time>
        <extensions>
          <gpxtpx:TrackPointExtension xmlns:gpxtpx="http://www.garmin.com/xmlschemas/TrackPointExtension/v1">
            <gpxtpx:hr>99</gpxtpx:hr>
          </gpxtpx:TrackPointExtension>
        </extensions>
      </trkpt>
      <trkpt lat="45.58611" lon="2.78418">
        <ele>961.40002441406</ele>
        <time>2024-05-26T08:57:31.000Z</time>
        <extensions>
          <gpxtpx:TrackPointExtension xmlns:gpxtpx="http://www.garmin.com/xmlschemas/TrackPointExtension/v1">
            <gpxtpx:hr>100</gpxtpx:hr>
          </gpxtpx:TrackPointExtension>
        </extensions>
      </trkpt>
      <trkpt lat="45.58612" lon="2.78442">
        <ele>962</ele>
        <time>2024-05-26T08:57:35.000Z</time>
        <extensions>
          <gpxtpx:TrackPointExtension xmlns:gpxtpx="http://www.garmin.com/xmlschemas/TrackPointExtension/v1">
            <gpxtpx:hr>98</gpxtpx:hr>
          </gpxtpx:TrackPointExtension>
        </extensions>
      </trkpt>
      <trkpt lat="45.58611" lon="2.78472">
        <ele>962.40002441406</ele>
        <time>2024-05-26T08:57:40.000Z</time>
        <extensions>
          <gpxtpx:TrackPointExtension xmlns:gpxtpx="http://www.garmin.com/xmlschemas/TrackPointExtension/v1">
            <gpxtpx:hr>101</gpxtpx:hr>
          </gpxtpx:TrackPointExtension>
        </extensions>
      </trkpt>
      <trkpt lat="45.58611" lon="2.78477">
        <ele>962.59997558594</ele>
        <time>2024-05-26T08:57:41.000Z</time>
        <extensions>
          <gpxtpx:TrackPointExtension xmlns:gpxtpx="http://www.garmin.com/xmlschemas/TrackPointExtension/v1">
            <gpxtpx:hr>101</gpxtpx:hr>
          </gpxtpx:TrackPointExtension>
        </extensions>
      </trkpt>
      <trkpt lat="45.58611" lon="2.78483">
        <ele>962.79998779297</ele>
        <time>2024-05-26T08:57:42.000Z</time>
        <extensions>
          <gpxtpx:TrackPointExtension xmlns:gpxtpx="http://www.garmin.com/xmlschemas/TrackPointExtension/v1">
            <gpxtpx:hr>101</gpxtpx:hr>
          </gpxtpx:TrackPointExtension>
        </extensions>
      </trkpt>
      <trkpt lat="45.58609" lon="2.78493">
        <ele>963.20001220703</ele>
        <time>2024-05-26T08:57:44.000Z</time>
        <extensions>
          <gpxtpx:TrackPointExtension xmlns:gpxtpx="http://www.garmin.com/xmlschemas/TrackPointExtension/v1">
            <gpxtpx:hr>102</gpxtpx:hr>
          </gpxtpx:TrackPointExtension>
        </extensions>
      </trkpt>
      <trkpt lat="45.58609" lon="2.78512">
        <ele>963.40002441406</ele>
        <time>2024-05-26T08:57:48.000Z</time>
        <extensions>
          <gpxtpx:TrackPointExtension xmlns:gpxtpx="http://www.garmin.com/xmlschemas/TrackPointExtension/v1">
            <gpxtpx:hr>103</gpxtpx:hr>
          </gpxtpx:TrackPointExtension>
        </extensions>
      </trkpt>
      <trkpt lat="45.58609" lon="2.78516">
        <ele>963.79998779297</ele>
        <time>2024-05-26T08:57:49.000Z</time>
        <extensions>
          <gpxtpx:TrackPointExtension xmlns:gpxtpx="http://www.garmin.com/xmlschemas/TrackPointExtension/v1">
            <gpxtpx:hr>103</gpxtpx:hr>
          </gpxtpx:TrackPointExtension>
        </extensions>
      </trkpt>
      <trkpt lat="45.58607" lon="2.78543">
        <ele>964.40002441406</ele>
        <time>2024-05-26T08:57:55.000Z</time>
        <extensions>
          <gpxtpx:TrackPointExtension xmlns:gpxtpx="http://www.garmin.com/xmlschemas/TrackPointExtension/v1">
            <gpxtpx:hr>101</gpxtpx:hr>
          </gpxtpx:TrackPointExtension>
        </extensions>
      </trkpt>
      <trkpt lat="45.58607" lon="2.78552">
        <ele>964.79998779297</ele>
        <time>2024-05-26T08:57:57.000Z</time>
        <extensions>
          <gpxtpx:TrackPointExtension xmlns:gpxtpx="http://www.garmin.com/xmlschemas/TrackPointExtension/v1">
            <gpxtpx:hr>101</gpxtpx:hr>
          </gpxtpx:TrackPointExtension>
        </extensions>
      </trkpt>
      <trkpt lat="45.5861" lon="2.7858">
        <ele>965.40002441406</ele>
        <time>2024-05-26T08:58:02.000Z</time>
        <extensions>
          <gpxtpx:TrackPointExtension xmlns:gpxtpx="http://www.garmin.com/xmlschemas/TrackPointExtension/v1">
            <gpxtpx:hr>101</gpxtpx:hr>
          </gpxtpx:TrackPointExtension>
        </extensions>
      </trkpt>
      <trkpt lat="45.58611" lon="2.78602">
        <ele>966</ele>
        <time>2024-05-26T08:58:06.000Z</time>
        <extensions>
          <gpxtpx:TrackPointExtension xmlns:gpxtpx="http://www.garmin.com/xmlschemas/TrackPointExtension/v1">
            <gpxtpx:hr>100</gpxtpx:hr>
          </gpxtpx:TrackPointExtension>
        </extensions>
      </trkpt>
      <trkpt lat="45.58612" lon="2.78607">
        <ele>966</ele>
        <time>2024-05-26T08:58:07.000Z</time>
        <extensions>
          <gpxtpx:TrackPointExtension xmlns:gpxtpx="http://www.garmin.com/xmlschemas/TrackPointExtension/v1">
            <gpxtpx:hr>101</gpxtpx:hr>
          </gpxtpx:TrackPointExtension>
        </extensions>
      </trkpt>
      <trkpt lat="45.58615" lon="2.78648">
        <ele>966.59997558594</ele>
        <time>2024-05-26T08:58:14.000Z</time>
        <extensions>
          <gpxtpx:TrackPointExtension xmlns:gpxtpx="http://www.garmin.com/xmlschemas/TrackPointExtension/v1">
            <gpxtpx:hr>102</gpxtpx:hr>
          </gpxtpx:TrackPointExtension>
        </extensions>
      </trkpt>
      <trkpt lat="45.58618" lon="2.78677">
        <ele>967</ele>
        <time>2024-05-26T08:58:19.000Z</time>
        <extensions>
          <gpxtpx:TrackPointExtension xmlns:gpxtpx="http://www.garmin.com/xmlschemas/TrackPointExtension/v1">
            <gpxtpx:hr>102</gpxtpx:hr>
          </gpxtpx:TrackPointExtension>
        </extensions>
      </trkpt>
      <trkpt lat="45.58619" lon="2.78697">
        <ele>967.59997558594</ele>
        <time>2024-05-26T08:58:23.000Z</time>
        <extensions>
          <gpxtpx:TrackPointExtension xmlns:gpxtpx="http://www.garmin.com/xmlschemas/TrackPointExtension/v1">
            <gpxtpx:hr>101</gpxtpx:hr>
          </gpxtpx:TrackPointExtension>
        </extensions>
      </trkpt>
      <trkpt lat="45.58617" lon="2.78717">
        <ele>968</ele>
        <time>2024-05-26T08:58:27.000Z</time>
        <extensions>
          <gpxtpx:TrackPointExtension xmlns:gpxtpx="http://www.garmin.com/xmlschemas/TrackPointExtension/v1">
            <gpxtpx:hr>103</gpxtpx:hr>
          </gpxtpx:TrackPointExtension>
        </extensions>
      </trkpt>
      <trkpt lat="45.58614" lon="2.78727">
        <ele>968.20001220703</ele>
        <time>2024-05-26T08:58:29.000Z</time>
        <extensions>
          <gpxtpx:TrackPointExtension xmlns:gpxtpx="http://www.garmin.com/xmlschemas/TrackPointExtension/v1">
            <gpxtpx:hr>103</gpxtpx:hr>
          </gpxtpx:TrackPointExtension>
        </extensions>
      </trkpt>
      <trkpt lat="45.58608" lon="2.78756">
        <ele>968.79998779297</ele>
        <time>2024-05-26T08:58:34.000Z</time>
        <extensions>
          <gpxtpx:TrackPointExtension xmlns:gpxtpx="http://www.garmin.com/xmlschemas/TrackPointExtension/v1">
            <gpxtpx:hr>106</gpxtpx:hr>
          </gpxtpx:TrackPointExtension>
        </extensions>
      </trkpt>
      <trkpt lat="45.58606" lon="2.78762">
        <ele>968.79998779297</ele>
        <time>2024-05-26T08:58:35.000Z</time>
        <extensions>
          <gpxtpx:TrackPointExtension xmlns:gpxtpx="http://www.garmin.com/xmlschemas/TrackPointExtension/v1">
            <gpxtpx:hr>107</gpxtpx:hr>
          </gpxtpx:TrackPointExtension>
        </extensions>
      </trkpt>
      <trkpt lat="45.58603" lon="2.78778">
        <ele>969.20001220703</ele>
        <time>2024-05-26T08:58:38.000Z</time>
        <extensions>
          <gpxtpx:TrackPointExtension xmlns:gpxtpx="http://www.garmin.com/xmlschemas/TrackPointExtension/v1">
            <gpxtpx:hr>108</gpxtpx:hr>
          </gpxtpx:TrackPointExtension>
        </extensions>
      </trkpt>
      <trkpt lat="45.58602" lon="2.78784">
        <ele>969.20001220703</ele>
        <time>2024-05-26T08:58:39.000Z</time>
        <extensions>
          <gpxtpx:TrackPointExtension xmlns:gpxtpx="http://www.garmin.com/xmlschemas/TrackPointExtension/v1">
            <gpxtpx:hr>108</gpxtpx:hr>
          </gpxtpx:TrackPointExtension>
        </extensions>
      </trkpt>
      <trkpt lat="45.58601" lon="2.78796">
        <ele>969.59997558594</ele>
        <time>2024-05-26T08:58:41.000Z</time>
        <extensions>
          <gpxtpx:TrackPointExtension xmlns:gpxtpx="http://www.garmin.com/xmlschemas/TrackPointExtension/v1">
            <gpxtpx:hr>108</gpxtpx:hr>
          </gpxtpx:TrackPointExtension>
        </extensions>
      </trkpt>
      <trkpt lat="45.58599" lon="2.78802">
        <ele>969.79998779297</ele>
        <time>2024-05-26T08:58:42.000Z</time>
        <extensions>
          <gpxtpx:TrackPointExtension xmlns:gpxtpx="http://www.garmin.com/xmlschemas/TrackPointExtension/v1">
            <gpxtpx:hr>109</gpxtpx:hr>
          </gpxtpx:TrackPointExtension>
        </extensions>
      </trkpt>
      <trkpt lat="45.58594" lon="2.78818">
        <ele>970</ele>
        <time>2024-05-26T08:58:45.000Z</time>
        <extensions>
          <gpxtpx:TrackPointExtension xmlns:gpxtpx="http://www.garmin.com/xmlschemas/TrackPointExtension/v1">
            <gpxtpx:hr>109</gpxtpx:hr>
          </gpxtpx:TrackPointExtension>
        </extensions>
      </trkpt>
      <trkpt lat="45.58593" lon="2.78824">
        <ele>970</ele>
        <time>2024-05-26T08:58:46.000Z</time>
        <extensions>
          <gpxtpx:TrackPointExtension xmlns:gpxtpx="http://www.garmin.com/xmlschemas/TrackPointExtension/v1">
            <gpxtpx:hr>109</gpxtpx:hr>
          </gpxtpx:TrackPointExtension>
        </extensions>
      </trkpt>
      <trkpt lat="45.58591" lon="2.78829">
        <ele>970.40002441406</ele>
        <time>2024-05-26T08:58:47.000Z</time>
        <extensions>
          <gpxtpx:TrackPointExtension xmlns:gpxtpx="http://www.garmin.com/xmlschemas/TrackPointExtension/v1">
            <gpxtpx:hr>109</gpxtpx:hr>
          </gpxtpx:TrackPointExtension>
        </extensions>
      </trkpt>
      <trkpt lat="45.58588" lon="2.78842">
        <ele>970.59997558594</ele>
        <time>2024-05-26T08:58:49.000Z</time>
        <extensions>
          <gpxtpx:TrackPointExtension xmlns:gpxtpx="http://www.garmin.com/xmlschemas/TrackPointExtension/v1">
            <gpxtpx:hr>109</gpxtpx:hr>
          </gpxtpx:TrackPointExtension>
        </extensions>
      </trkpt>
      <trkpt lat="45.58585" lon="2.78868">
        <ele>971</ele>
        <time>2024-05-26T08:58:53.000Z</time>
        <extensions>
          <gpxtpx:TrackPointExtension xmlns:gpxtpx="http://www.garmin.com/xmlschemas/TrackPointExtension/v1">
            <gpxtpx:hr>110</gpxtpx:hr>
          </gpxtpx:TrackPointExtension>
        </extensions>
      </trkpt>
      <trkpt lat="45.58584" lon="2.78899">
        <ele>971.40002441406</ele>
        <time>2024-05-26T08:58:58.000Z</time>
        <extensions>
          <gpxtpx:TrackPointExtension xmlns:gpxtpx="http://www.garmin.com/xmlschemas/TrackPointExtension/v1">
            <gpxtpx:hr>111</gpxtpx:hr>
          </gpxtpx:TrackPointExtension>
        </extensions>
      </trkpt>
      <trkpt lat="45.58585" lon="2.78918">
        <ele>971.79998779297</ele>
        <time>2024-05-26T08:59:01.000Z</time>
        <extensions>
          <gpxtpx:TrackPointExtension xmlns:gpxtpx="http://www.garmin.com/xmlschemas/TrackPointExtension/v1">
            <gpxtpx:hr>111</gpxtpx:hr>
          </gpxtpx:TrackPointExtension>
        </extensions>
      </trkpt>
      <trkpt lat="45.58588" lon="2.78948">
        <ele>972.59997558594</ele>
        <time>2024-05-26T08:59:06.000Z</time>
        <extensions>
          <gpxtpx:TrackPointExtension xmlns:gpxtpx="http://www.garmin.com/xmlschemas/TrackPointExtension/v1">
            <gpxtpx:hr>111</gpxtpx:hr>
          </gpxtpx:TrackPointExtension>
        </extensions>
      </trkpt>
      <trkpt lat="45.58589" lon="2.78961">
        <ele>972.79998779297</ele>
        <time>2024-05-26T08:59:08.000Z</time>
        <extensions>
          <gpxtpx:TrackPointExtension xmlns:gpxtpx="http://www.garmin.com/xmlschemas/TrackPointExtension/v1">
            <gpxtpx:hr>111</gpxtpx:hr>
          </gpxtpx:TrackPointExtension>
        </extensions>
      </trkpt>
      <trkpt lat="45.5859" lon="2.78973">
        <ele>972.79998779297</ele>
        <time>2024-05-26T08:59:10.000Z</time>
        <extensions>
          <gpxtpx:TrackPointExtension xmlns:gpxtpx="http://www.garmin.com/xmlschemas/TrackPointExtension/v1">
            <gpxtpx:hr>111</gpxtpx:hr>
          </gpxtpx:TrackPointExtension>
        </extensions>
      </trkpt>
      <trkpt lat="45.58592" lon="2.78985">
        <ele>973.20001220703</ele>
        <time>2024-05-26T08:59:12.000Z</time>
        <extensions>
          <gpxtpx:TrackPointExtension xmlns:gpxtpx="http://www.garmin.com/xmlschemas/TrackPointExtension/v1">
            <gpxtpx:hr>112</gpxtpx:hr>
          </gpxtpx:TrackPointExtension>
        </extensions>
      </trkpt>
      <trkpt lat="45.58594" lon="2.78991">
        <ele>973.20001220703</ele>
        <time>2024-05-26T08:59:13.000Z</time>
        <extensions>
          <gpxtpx:TrackPointExtension xmlns:gpxtpx="http://www.garmin.com/xmlschemas/TrackPointExtension/v1">
            <gpxtpx:hr>113</gpxtpx:hr>
          </gpxtpx:TrackPointExtension>
        </extensions>
      </trkpt>
      <trkpt lat="45.58598" lon="2.79003">
        <ele>973.59997558594</ele>
        <time>2024-05-26T08:59:15.000Z</time>
        <extensions>
          <gpxtpx:TrackPointExtension xmlns:gpxtpx="http://www.garmin.com/xmlschemas/TrackPointExtension/v1">
            <gpxtpx:hr>112</gpxtpx:hr>
          </gpxtpx:TrackPointExtension>
        </extensions>
      </trkpt>
      <trkpt lat="45.586" lon="2.79009">
        <ele>973.59997558594</ele>
        <time>2024-05-26T08:59:16.000Z</time>
        <extensions>
          <gpxtpx:TrackPointExtension xmlns:gpxtpx="http://www.garmin.com/xmlschemas/TrackPointExtension/v1">
            <gpxtpx:hr>113</gpxtpx:hr>
          </gpxtpx:TrackPointExtension>
        </extensions>
      </trkpt>
      <trkpt lat="45.58605" lon="2.79025">
        <ele>974.20001220703</ele>
        <time>2024-05-26T08:59:19.000Z</time>
        <extensions>
          <gpxtpx:TrackPointExtension xmlns:gpxtpx="http://www.garmin.com/xmlschemas/TrackPointExtension/v1">
            <gpxtpx:hr>114</gpxtpx:hr>
          </gpxtpx:TrackPointExtension>
        </extensions>
      </trkpt>
      <trkpt lat="45.58611" lon="2.7904">
        <ele>975</ele>
        <time>2024-05-26T08:59:22.000Z</time>
        <extensions>
          <gpxtpx:TrackPointExtension xmlns:gpxtpx="http://www.garmin.com/xmlschemas/TrackPointExtension/v1">
            <gpxtpx:hr>113</gpxtpx:hr>
          </gpxtpx:TrackPointExtension>
        </extensions>
      </trkpt>
      <trkpt lat="45.58613" lon="2.79052">
        <ele>975.20001220703</ele>
        <time>2024-05-26T08:59:24.000Z</time>
        <extensions>
          <gpxtpx:TrackPointExtension xmlns:gpxtpx="http://www.garmin.com/xmlschemas/TrackPointExtension/v1">
            <gpxtpx:hr>111</gpxtpx:hr>
          </gpxtpx:TrackPointExtension>
        </extensions>
      </trkpt>
      <trkpt lat="45.58614" lon="2.79058">
        <ele>975.40002441406</ele>
        <time>2024-05-26T08:59:25.000Z</time>
        <extensions>
          <gpxtpx:TrackPointExtension xmlns:gpxtpx="http://www.garmin.com/xmlschemas/TrackPointExtension/v1">
            <gpxtpx:hr>111</gpxtpx:hr>
          </gpxtpx:TrackPointExtension>
        </extensions>
      </trkpt>
      <trkpt lat="45.58617" lon="2.79069">
        <ele>975.59997558594</ele>
        <time>2024-05-26T08:59:27.000Z</time>
        <extensions>
          <gpxtpx:TrackPointExtension xmlns:gpxtpx="http://www.garmin.com/xmlschemas/TrackPointExtension/v1">
            <gpxtpx:hr>110</gpxtpx:hr>
          </gpxtpx:TrackPointExtension>
        </extensions>
      </trkpt>
      <trkpt lat="45.5862" lon="2.79082">
        <ele>975.79998779297</ele>
        <time>2024-05-26T08:59:29.000Z</time>
        <extensions>
          <gpxtpx:TrackPointExtension xmlns:gpxtpx="http://www.garmin.com/xmlschemas/TrackPointExtension/v1">
            <gpxtpx:hr>109</gpxtpx:hr>
          </gpxtpx:TrackPointExtension>
        </extensions>
      </trkpt>
      <trkpt lat="45.5862" lon="2.79089">
        <ele>976.20001220703</ele>
        <time>2024-05-26T08:59:30.000Z</time>
        <extensions>
          <gpxtpx:TrackPointExtension xmlns:gpxtpx="http://www.garmin.com/xmlschemas/TrackPointExtension/v1">
            <gpxtpx:hr>110</gpxtpx:hr>
          </gpxtpx:TrackPointExtension>
        </extensions>
      </trkpt>
      <trkpt lat="45.58622" lon="2.79105">
        <ele>976.40002441406</ele>
        <time>2024-05-26T08:59:32.000Z</time>
        <extensions>
          <gpxtpx:TrackPointExtension xmlns:gpxtpx="http://www.garmin.com/xmlschemas/TrackPointExtension/v1">
            <gpxtpx:hr>109</gpxtpx:hr>
          </gpxtpx:TrackPointExtension>
        </extensions>
      </trkpt>
      <trkpt lat="45.58626" lon="2.79129">
        <ele>976.40002441406</ele>
        <time>2024-05-26T08:59:35.000Z</time>
        <extensions>
          <gpxtpx:TrackPointExtension xmlns:gpxtpx="http://www.garmin.com/xmlschemas/TrackPointExtension/v1">
            <gpxtpx:hr>109</gpxtpx:hr>
          </gpxtpx:TrackPointExtension>
        </extensions>
      </trkpt>
      <trkpt lat="45.58641" lon="2.79173">
        <ele>976.59997558594</ele>
        <time>2024-05-26T08:59:41.000Z</time>
        <extensions>
          <gpxtpx:TrackPointExtension xmlns:gpxtpx="http://www.garmin.com/xmlschemas/TrackPointExtension/v1">
            <gpxtpx:hr>112</gpxtpx:hr>
          </gpxtpx:TrackPointExtension>
        </extensions>
      </trkpt>
      <trkpt lat="45.58646" lon="2.79188">
        <ele>976.79998779297</ele>
        <time>2024-05-26T08:59:43.000Z</time>
        <extensions>
          <gpxtpx:TrackPointExtension xmlns:gpxtpx="http://www.garmin.com/xmlschemas/TrackPointExtension/v1">
            <gpxtpx:hr>113</gpxtpx:hr>
          </gpxtpx:TrackPointExtension>
        </extensions>
      </trkpt>
      <trkpt lat="45.58655" lon="2.79208">
        <ele>977.40002441406</ele>
        <time>2024-05-26T08:59:46.000Z</time>
        <extensions>
          <gpxtpx:TrackPointExtension xmlns:gpxtpx="http://www.garmin.com/xmlschemas/TrackPointExtension/v1">
            <gpxtpx:hr>114</gpxtpx:hr>
          </gpxtpx:TrackPointExtension>
        </extensions>
      </trkpt>
      <trkpt lat="45.58656" lon="2.79215">
        <ele>977.79998779297</ele>
        <time>2024-05-26T08:59:47.000Z</time>
        <extensions>
          <gpxtpx:TrackPointExtension xmlns:gpxtpx="http://www.garmin.com/xmlschemas/TrackPointExtension/v1">
            <gpxtpx:hr>114</gpxtpx:hr>
          </gpxtpx:TrackPointExtension>
        </extensions>
      </trkpt>
      <trkpt lat="45.58661" lon="2.79228">
        <ele>978.40002441406</ele>
        <time>2024-05-26T08:59:49.000Z</time>
        <extensions>
          <gpxtpx:TrackPointExtension xmlns:gpxtpx="http://www.garmin.com/xmlschemas/TrackPointExtension/v1">
            <gpxtpx:hr>115</gpxtpx:hr>
          </gpxtpx:TrackPointExtension>
        </extensions>
      </trkpt>
      <trkpt lat="45.58664" lon="2.79243">
        <ele>978.59997558594</ele>
        <time>2024-05-26T08:59:51.000Z</time>
        <extensions>
          <gpxtpx:TrackPointExtension xmlns:gpxtpx="http://www.garmin.com/xmlschemas/TrackPointExtension/v1">
            <gpxtpx:hr>115</gpxtpx:hr>
          </gpxtpx:TrackPointExtension>
        </extensions>
      </trkpt>
      <trkpt lat="45.58665" lon="2.79258">
        <ele>978.79998779297</ele>
        <time>2024-05-26T08:59:53.000Z</time>
        <extensions>
          <gpxtpx:TrackPointExtension xmlns:gpxtpx="http://www.garmin.com/xmlschemas/TrackPointExtension/v1">
            <gpxtpx:hr>114</gpxtpx:hr>
          </gpxtpx:TrackPointExtension>
        </extensions>
      </trkpt>
      <trkpt lat="45.58662" lon="2.79323">
        <ele>979</ele>
        <time>2024-05-26T09:00:01.000Z</time>
        <extensions>
          <gpxtpx:TrackPointExtension xmlns:gpxtpx="http://www.garmin.com/xmlschemas/TrackPointExtension/v1">
            <gpxtpx:hr>115</gpxtpx:hr>
          </gpxtpx:TrackPointExtension>
        </extensions>
      </trkpt>
      <trkpt lat="45.58661" lon="2.79331">
        <ele>978.79998779297</ele>
        <time>2024-05-26T09:00:02.000Z</time>
        <extensions>
          <gpxtpx:TrackPointExtension xmlns:gpxtpx="http://www.garmin.com/xmlschemas/TrackPointExtension/v1">
            <gpxtpx:hr>116</gpxtpx:hr>
          </gpxtpx:TrackPointExtension>
        </extensions>
      </trkpt>
      <trkpt lat="45.58652" lon="2.79369">
        <ele>978.20001220703</ele>
        <time>2024-05-26T09:00:06.000Z</time>
        <extensions>
          <gpxtpx:TrackPointExtension xmlns:gpxtpx="http://www.garmin.com/xmlschemas/TrackPointExtension/v1">
            <gpxtpx:hr>117</gpxtpx:hr>
          </gpxtpx:TrackPointExtension>
        </extensions>
      </trkpt>
      <trkpt lat="45.5865" lon="2.79379">
        <ele>978.20001220703</ele>
        <time>2024-05-26T09:00:07.000Z</time>
        <extensions>
          <gpxtpx:TrackPointExtension xmlns:gpxtpx="http://www.garmin.com/xmlschemas/TrackPointExtension/v1">
            <gpxtpx:hr>117</gpxtpx:hr>
          </gpxtpx:TrackPointExtension>
        </extensions>
      </trkpt>
      <trkpt lat="45.58645" lon="2.79408">
        <ele>977.40002441406</ele>
        <time>2024-05-26T09:00:10.000Z</time>
        <extensions>
          <gpxtpx:TrackPointExtension xmlns:gpxtpx="http://www.garmin.com/xmlschemas/TrackPointExtension/v1">
            <gpxtpx:hr>115</gpxtpx:hr>
          </gpxtpx:TrackPointExtension>
        </extensions>
      </trkpt>
      <trkpt lat="45.58641" lon="2.79436">
        <ele>977.40002441406</ele>
        <time>2024-05-26T09:00:13.000Z</time>
        <extensions>
          <gpxtpx:TrackPointExtension xmlns:gpxtpx="http://www.garmin.com/xmlschemas/TrackPointExtension/v1">
            <gpxtpx:hr>112</gpxtpx:hr>
          </gpxtpx:TrackPointExtension>
        </extensions>
      </trkpt>
      <trkpt lat="45.58636" lon="2.79462">
        <ele>977.40002441406</ele>
        <time>2024-05-26T09:00:16.000Z</time>
        <extensions>
          <gpxtpx:TrackPointExtension xmlns:gpxtpx="http://www.garmin.com/xmlschemas/TrackPointExtension/v1">
            <gpxtpx:hr>109</gpxtpx:hr>
          </gpxtpx:TrackPointExtension>
        </extensions>
      </trkpt>
      <trkpt lat="45.58632" lon="2.79487">
        <ele>977.40002441406</ele>
        <time>2024-05-26T09:00:19.000Z</time>
        <extensions>
          <gpxtpx:TrackPointExtension xmlns:gpxtpx="http://www.garmin.com/xmlschemas/TrackPointExtension/v1">
            <gpxtpx:hr>106</gpxtpx:hr>
          </gpxtpx:TrackPointExtension>
        </extensions>
      </trkpt>
      <trkpt lat="45.58619" lon="2.7956">
        <ele>978.40002441406</ele>
        <time>2024-05-26T09:00:28.000Z</time>
        <extensions>
          <gpxtpx:TrackPointExtension xmlns:gpxtpx="http://www.garmin.com/xmlschemas/TrackPointExtension/v1">
            <gpxtpx:hr>106</gpxtpx:hr>
          </gpxtpx:TrackPointExtension>
        </extensions>
      </trkpt>
      <trkpt lat="45.58617" lon="2.79574">
        <ele>978.79998779297</ele>
        <time>2024-05-26T09:00:30.000Z</time>
        <extensions>
          <gpxtpx:TrackPointExtension xmlns:gpxtpx="http://www.garmin.com/xmlschemas/TrackPointExtension/v1">
            <gpxtpx:hr>106</gpxtpx:hr>
          </gpxtpx:TrackPointExtension>
        </extensions>
      </trkpt>
      <trkpt lat="45.58613" lon="2.79595">
        <ele>979.20001220703</ele>
        <time>2024-05-26T09:00:33.000Z</time>
        <extensions>
          <gpxtpx:TrackPointExtension xmlns:gpxtpx="http://www.garmin.com/xmlschemas/TrackPointExtension/v1">
            <gpxtpx:hr>105</gpxtpx:hr>
          </gpxtpx:TrackPointExtension>
        </extensions>
      </trkpt>
      <trkpt lat="45.5861" lon="2.79609">
        <ele>979.59997558594</ele>
        <time>2024-05-26T09:00:35.000Z</time>
        <extensions>
          <gpxtpx:TrackPointExtension xmlns:gpxtpx="http://www.garmin.com/xmlschemas/TrackPointExtension/v1">
            <gpxtpx:hr>106</gpxtpx:hr>
          </gpxtpx:TrackPointExtension>
        </extensions>
      </trkpt>
      <trkpt lat="45.58601" lon="2.7965">
        <ele>980.59997558594</ele>
        <time>2024-05-26T09:00:41.000Z</time>
        <extensions>
          <gpxtpx:TrackPointExtension xmlns:gpxtpx="http://www.garmin.com/xmlschemas/TrackPointExtension/v1">
            <gpxtpx:hr>106</gpxtpx:hr>
          </gpxtpx:TrackPointExtension>
        </extensions>
      </trkpt>
      <trkpt lat="45.58591" lon="2.79706">
        <ele>981.40002441406</ele>
        <time>2024-05-26T09:00:49.000Z</time>
        <extensions>
          <gpxtpx:TrackPointExtension xmlns:gpxtpx="http://www.garmin.com/xmlschemas/TrackPointExtension/v1">
            <gpxtpx:hr>108</gpxtpx:hr>
          </gpxtpx:TrackPointExtension>
        </extensions>
      </trkpt>
      <trkpt lat="45.58588" lon="2.7972">
        <ele>981.79998779297</ele>
        <time>2024-05-26T09:00:51.000Z</time>
        <extensions>
          <gpxtpx:TrackPointExtension xmlns:gpxtpx="http://www.garmin.com/xmlschemas/TrackPointExtension/v1">
            <gpxtpx:hr>108</gpxtpx:hr>
          </gpxtpx:TrackPointExtension>
        </extensions>
      </trkpt>
      <trkpt lat="45.5858" lon="2.79761">
        <ele>982.59997558594</ele>
        <time>2024-05-26T09:00:57.000Z</time>
        <extensions>
          <gpxtpx:TrackPointExtension xmlns:gpxtpx="http://www.garmin.com/xmlschemas/TrackPointExtension/v1">
            <gpxtpx:hr>108</gpxtpx:hr>
          </gpxtpx:TrackPointExtension>
        </extensions>
      </trkpt>
      <trkpt lat="45.5858" lon="2.79767">
        <ele>983</ele>
        <time>2024-05-26T09:00:58.000Z</time>
        <extensions>
          <gpxtpx:TrackPointExtension xmlns:gpxtpx="http://www.garmin.com/xmlschemas/TrackPointExtension/v1">
            <gpxtpx:hr>108</gpxtpx:hr>
          </gpxtpx:TrackPointExtension>
        </extensions>
      </trkpt>
      <trkpt lat="45.58574" lon="2.79793">
        <ele>984</ele>
        <time>2024-05-26T09:01:03.000Z</time>
        <extensions>
          <gpxtpx:TrackPointExtension xmlns:gpxtpx="http://www.garmin.com/xmlschemas/TrackPointExtension/v1">
            <gpxtpx:hr>109</gpxtpx:hr>
          </gpxtpx:TrackPointExtension>
        </extensions>
      </trkpt>
      <trkpt lat="45.58573" lon="2.79798">
        <ele>984</ele>
        <time>2024-05-26T09:01:04.000Z</time>
        <extensions>
          <gpxtpx:TrackPointExtension xmlns:gpxtpx="http://www.garmin.com/xmlschemas/TrackPointExtension/v1">
            <gpxtpx:hr>110</gpxtpx:hr>
          </gpxtpx:TrackPointExtension>
        </extensions>
      </trkpt>
      <trkpt lat="45.58569" lon="2.79824">
        <ele>984.40002441406</ele>
        <time>2024-05-26T09:01:09.000Z</time>
        <extensions>
          <gpxtpx:TrackPointExtension xmlns:gpxtpx="http://www.garmin.com/xmlschemas/TrackPointExtension/v1">
            <gpxtpx:hr>111</gpxtpx:hr>
          </gpxtpx:TrackPointExtension>
        </extensions>
      </trkpt>
      <trkpt lat="45.58565" lon="2.79848">
        <ele>984.79998779297</ele>
        <time>2024-05-26T09:01:14.000Z</time>
        <extensions>
          <gpxtpx:TrackPointExtension xmlns:gpxtpx="http://www.garmin.com/xmlschemas/TrackPointExtension/v1">
            <gpxtpx:hr>108</gpxtpx:hr>
          </gpxtpx:TrackPointExtension>
        </extensions>
      </trkpt>
      <trkpt lat="45.58563" lon="2.79858">
        <ele>985</ele>
        <time>2024-05-26T09:01:16.000Z</time>
        <extensions>
          <gpxtpx:TrackPointExtension xmlns:gpxtpx="http://www.garmin.com/xmlschemas/TrackPointExtension/v1">
            <gpxtpx:hr>108</gpxtpx:hr>
          </gpxtpx:TrackPointExtension>
        </extensions>
      </trkpt>
      <trkpt lat="45.58561" lon="2.79863">
        <ele>985</ele>
        <time>2024-05-26T09:01:17.000Z</time>
        <extensions>
          <gpxtpx:TrackPointExtension xmlns:gpxtpx="http://www.garmin.com/xmlschemas/TrackPointExtension/v1">
            <gpxtpx:hr>107</gpxtpx:hr>
          </gpxtpx:TrackPointExtension>
        </extensions>
      </trkpt>
      <trkpt lat="45.58549" lon="2.79898">
        <ele>985.79998779297</ele>
        <time>2024-05-26T09:01:25.000Z</time>
        <extensions>
          <gpxtpx:TrackPointExtension xmlns:gpxtpx="http://www.garmin.com/xmlschemas/TrackPointExtension/v1">
            <gpxtpx:hr>109</gpxtpx:hr>
          </gpxtpx:TrackPointExtension>
        </extensions>
      </trkpt>
      <trkpt lat="45.58548" lon="2.79902">
        <ele>986.20001220703</ele>
        <time>2024-05-26T09:01:26.000Z</time>
        <extensions>
          <gpxtpx:TrackPointExtension xmlns:gpxtpx="http://www.garmin.com/xmlschemas/TrackPointExtension/v1">
            <gpxtpx:hr>109</gpxtpx:hr>
          </gpxtpx:TrackPointExtension>
        </extensions>
      </trkpt>
      <trkpt lat="45.58534" lon="2.79932">
        <ele>987.79998779297</ele>
        <time>2024-05-26T09:01:34.000Z</time>
        <extensions>
          <gpxtpx:TrackPointExtension xmlns:gpxtpx="http://www.garmin.com/xmlschemas/TrackPointExtension/v1">
            <gpxtpx:hr>111</gpxtpx:hr>
          </gpxtpx:TrackPointExtension>
        </extensions>
      </trkpt>
      <trkpt lat="45.5853" lon="2.79939">
        <ele>988</ele>
        <time>2024-05-26T09:01:36.000Z</time>
        <extensions>
          <gpxtpx:TrackPointExtension xmlns:gpxtpx="http://www.garmin.com/xmlschemas/TrackPointExtension/v1">
            <gpxtpx:hr>111</gpxtpx:hr>
          </gpxtpx:TrackPointExtension>
        </extensions>
      </trkpt>
      <trkpt lat="45.5852" lon="2.79954">
        <ele>988.79998779297</ele>
        <time>2024-05-26T09:01:41.000Z</time>
        <extensions>
          <gpxtpx:TrackPointExtension xmlns:gpxtpx="http://www.garmin.com/xmlschemas/TrackPointExtension/v1">
            <gpxtpx:hr>110</gpxtpx:hr>
          </gpxtpx:TrackPointExtension>
        </extensions>
      </trkpt>
      <trkpt lat="45.58513" lon="2.79965">
        <ele>989.59997558594</ele>
        <time>2024-05-26T09:01:45.000Z</time>
        <extensions>
          <gpxtpx:TrackPointExtension xmlns:gpxtpx="http://www.garmin.com/xmlschemas/TrackPointExtension/v1">
            <gpxtpx:hr>112</gpxtpx:hr>
          </gpxtpx:TrackPointExtension>
        </extensions>
      </trkpt>
      <trkpt lat="45.5851" lon="2.79971">
        <ele>990</ele>
        <time>2024-05-26T09:01:47.000Z</time>
        <extensions>
          <gpxtpx:TrackPointExtension xmlns:gpxtpx="http://www.garmin.com/xmlschemas/TrackPointExtension/v1">
            <gpxtpx:hr>113</gpxtpx:hr>
          </gpxtpx:TrackPointExtension>
        </extensions>
      </trkpt>
      <trkpt lat="45.58498" lon="2.79988">
        <ele>991.20001220703</ele>
        <time>2024-05-26T09:01:53.000Z</time>
        <extensions>
          <gpxtpx:TrackPointExtension xmlns:gpxtpx="http://www.garmin.com/xmlschemas/TrackPointExtension/v1">
            <gpxtpx:hr>115</gpxtpx:hr>
          </gpxtpx:TrackPointExtension>
        </extensions>
      </trkpt>
      <trkpt lat="45.58496" lon="2.7999">
        <ele>991.20001220703</ele>
        <time>2024-05-26T09:01:54.000Z</time>
        <extensions>
          <gpxtpx:TrackPointExtension xmlns:gpxtpx="http://www.garmin.com/xmlschemas/TrackPointExtension/v1">
            <gpxtpx:hr>115</gpxtpx:hr>
          </gpxtpx:TrackPointExtension>
        </extensions>
      </trkpt>
      <trkpt lat="45.58484" lon="2.80006">
        <ele>992.20001220703</ele>
        <time>2024-05-26T09:02:00.000Z</time>
        <extensions>
          <gpxtpx:TrackPointExtension xmlns:gpxtpx="http://www.garmin.com/xmlschemas/TrackPointExtension/v1">
            <gpxtpx:hr>115</gpxtpx:hr>
          </gpxtpx:TrackPointExtension>
        </extensions>
      </trkpt>
      <trkpt lat="45.58482" lon="2.80009">
        <ele>992.20001220703</ele>
        <time>2024-05-26T09:02:01.000Z</time>
        <extensions>
          <gpxtpx:TrackPointExtension xmlns:gpxtpx="http://www.garmin.com/xmlschemas/TrackPointExtension/v1">
            <gpxtpx:hr>115</gpxtpx:hr>
          </gpxtpx:TrackPointExtension>
        </extensions>
      </trkpt>
      <trkpt lat="45.58471" lon="2.80019">
        <ele>993.40002441406</ele>
        <time>2024-05-26T09:02:06.000Z</time>
        <extensions>
          <gpxtpx:TrackPointExtension xmlns:gpxtpx="http://www.garmin.com/xmlschemas/TrackPointExtension/v1">
            <gpxtpx:hr>115</gpxtpx:hr>
          </gpxtpx:TrackPointExtension>
        </extensions>
      </trkpt>
      <trkpt lat="45.58467" lon="2.80024">
        <ele>993.59997558594</ele>
        <time>2024-05-26T09:02:08.000Z</time>
        <extensions>
          <gpxtpx:TrackPointExtension xmlns:gpxtpx="http://www.garmin.com/xmlschemas/TrackPointExtension/v1">
            <gpxtpx:hr>116</gpxtpx:hr>
          </gpxtpx:TrackPointExtension>
        </extensions>
      </trkpt>
      <trkpt lat="45.58462" lon="2.80029">
        <ele>994</ele>
        <time>2024-05-26T09:02:10.000Z</time>
        <extensions>
          <gpxtpx:TrackPointExtension xmlns:gpxtpx="http://www.garmin.com/xmlschemas/TrackPointExtension/v1">
            <gpxtpx:hr>113</gpxtpx:hr>
          </gpxtpx:TrackPointExtension>
        </extensions>
      </trkpt>
      <trkpt lat="45.5846" lon="2.80031">
        <ele>994.20001220703</ele>
        <time>2024-05-26T09:02:11.000Z</time>
        <extensions>
          <gpxtpx:TrackPointExtension xmlns:gpxtpx="http://www.garmin.com/xmlschemas/TrackPointExtension/v1">
            <gpxtpx:hr>117</gpxtpx:hr>
          </gpxtpx:TrackPointExtension>
        </extensions>
      </trkpt>
      <trkpt lat="45.5845" lon="2.80038">
        <ele>994.59997558594</ele>
        <time>2024-05-26T09:02:15.000Z</time>
        <extensions>
          <gpxtpx:TrackPointExtension xmlns:gpxtpx="http://www.garmin.com/xmlschemas/TrackPointExtension/v1">
            <gpxtpx:hr>117</gpxtpx:hr>
          </gpxtpx:TrackPointExtension>
        </extensions>
      </trkpt>
      <trkpt lat="45.58432" lon="2.80045">
        <ele>995.59997558594</ele>
        <time>2024-05-26T09:02:22.000Z</time>
        <extensions>
          <gpxtpx:TrackPointExtension xmlns:gpxtpx="http://www.garmin.com/xmlschemas/TrackPointExtension/v1">
            <gpxtpx:hr>115</gpxtpx:hr>
          </gpxtpx:TrackPointExtension>
        </extensions>
      </trkpt>
      <trkpt lat="45.58423" lon="2.80048">
        <ele>996.20001220703</ele>
        <time>2024-05-26T09:02:25.000Z</time>
        <extensions>
          <gpxtpx:TrackPointExtension xmlns:gpxtpx="http://www.garmin.com/xmlschemas/TrackPointExtension/v1">
            <gpxtpx:hr>113</gpxtpx:hr>
          </gpxtpx:TrackPointExtension>
        </extensions>
      </trkpt>
      <trkpt lat="45.5841" lon="2.80052">
        <ele>996.79998779297</ele>
        <time>2024-05-26T09:02:30.000Z</time>
        <extensions>
          <gpxtpx:TrackPointExtension xmlns:gpxtpx="http://www.garmin.com/xmlschemas/TrackPointExtension/v1">
            <gpxtpx:hr>114</gpxtpx:hr>
          </gpxtpx:TrackPointExtension>
        </extensions>
      </trkpt>
      <trkpt lat="45.58407" lon="2.80053">
        <ele>997</ele>
        <time>2024-05-26T09:02:31.000Z</time>
        <extensions>
          <gpxtpx:TrackPointExtension xmlns:gpxtpx="http://www.garmin.com/xmlschemas/TrackPointExtension/v1">
            <gpxtpx:hr>114</gpxtpx:hr>
          </gpxtpx:TrackPointExtension>
        </extensions>
      </trkpt>
      <trkpt lat="45.58394" lon="2.80058">
        <ele>997.79998779297</ele>
        <time>2024-05-26T09:02:36.000Z</time>
        <extensions>
          <gpxtpx:TrackPointExtension xmlns:gpxtpx="http://www.garmin.com/xmlschemas/TrackPointExtension/v1">
            <gpxtpx:hr>114</gpxtpx:hr>
          </gpxtpx:TrackPointExtension>
        </extensions>
      </trkpt>
      <trkpt lat="45.58388" lon="2.80059">
        <ele>998.20001220703</ele>
        <time>2024-05-26T09:02:38.000Z</time>
        <extensions>
          <gpxtpx:TrackPointExtension xmlns:gpxtpx="http://www.garmin.com/xmlschemas/TrackPointExtension/v1">
            <gpxtpx:hr>114</gpxtpx:hr>
          </gpxtpx:TrackPointExtension>
        </extensions>
      </trkpt>
      <trkpt lat="45.58373" lon="2.80063">
        <ele>998.79998779297</ele>
        <time>2024-05-26T09:02:44.000Z</time>
        <extensions>
          <gpxtpx:TrackPointExtension xmlns:gpxtpx="http://www.garmin.com/xmlschemas/TrackPointExtension/v1">
            <gpxtpx:hr>113</gpxtpx:hr>
          </gpxtpx:TrackPointExtension>
        </extensions>
      </trkpt>
      <trkpt lat="45.5837" lon="2.80064">
        <ele>999</ele>
        <time>2024-05-26T09:02:45.000Z</time>
        <extensions>
          <gpxtpx:TrackPointExtension xmlns:gpxtpx="http://www.garmin.com/xmlschemas/TrackPointExtension/v1">
            <gpxtpx:hr>113</gpxtpx:hr>
          </gpxtpx:TrackPointExtension>
        </extensions>
      </trkpt>
      <trkpt lat="45.58354" lon="2.80068">
        <ele>999.79998779297</ele>
        <time>2024-05-26T09:02:51.000Z</time>
        <extensions>
          <gpxtpx:TrackPointExtension xmlns:gpxtpx="http://www.garmin.com/xmlschemas/TrackPointExtension/v1">
            <gpxtpx:hr>113</gpxtpx:hr>
          </gpxtpx:TrackPointExtension>
        </extensions>
      </trkpt>
      <trkpt lat="45.58351" lon="2.80068">
        <ele>1000</ele>
        <time>2024-05-26T09:02:52.000Z</time>
        <extensions>
          <gpxtpx:TrackPointExtension xmlns:gpxtpx="http://www.garmin.com/xmlschemas/TrackPointExtension/v1">
            <gpxtpx:hr>112</gpxtpx:hr>
          </gpxtpx:TrackPointExtension>
        </extensions>
      </trkpt>
      <trkpt lat="45.58335" lon="2.80073">
        <ele>1001.200012207</ele>
        <time>2024-05-26T09:02:58.000Z</time>
        <extensions>
          <gpxtpx:TrackPointExtension xmlns:gpxtpx="http://www.garmin.com/xmlschemas/TrackPointExtension/v1">
            <gpxtpx:hr>112</gpxtpx:hr>
          </gpxtpx:TrackPointExtension>
        </extensions>
      </trkpt>
      <trkpt lat="45.58319" lon="2.8008">
        <ele>1001.799987793</ele>
        <time>2024-05-26T09:03:04.000Z</time>
        <extensions>
          <gpxtpx:TrackPointExtension xmlns:gpxtpx="http://www.garmin.com/xmlschemas/TrackPointExtension/v1">
            <gpxtpx:hr>112</gpxtpx:hr>
          </gpxtpx:TrackPointExtension>
        </extensions>
      </trkpt>
      <trkpt lat="45.58316" lon="2.8008">
        <ele>1002</ele>
        <time>2024-05-26T09:03:05.000Z</time>
        <extensions>
          <gpxtpx:TrackPointExtension xmlns:gpxtpx="http://www.garmin.com/xmlschemas/TrackPointExtension/v1">
            <gpxtpx:hr>114</gpxtpx:hr>
          </gpxtpx:TrackPointExtension>
        </extensions>
      </trkpt>
      <trkpt lat="45.5831" lon="2.80081">
        <ele>1002.200012207</ele>
        <time>2024-05-26T09:03:07.000Z</time>
        <extensions>
          <gpxtpx:TrackPointExtension xmlns:gpxtpx="http://www.garmin.com/xmlschemas/TrackPointExtension/v1">
            <gpxtpx:hr>114</gpxtpx:hr>
          </gpxtpx:TrackPointExtension>
        </extensions>
      </trkpt>
      <trkpt lat="45.58307" lon="2.80082">
        <ele>1002.4000244141</ele>
        <time>2024-05-26T09:03:08.000Z</time>
        <extensions>
          <gpxtpx:TrackPointExtension xmlns:gpxtpx="http://www.garmin.com/xmlschemas/TrackPointExtension/v1">
            <gpxtpx:hr>114</gpxtpx:hr>
          </gpxtpx:TrackPointExtension>
        </extensions>
      </trkpt>
      <trkpt lat="45.58297" lon="2.80085">
        <ele>1002.799987793</ele>
        <time>2024-05-26T09:03:12.000Z</time>
        <extensions>
          <gpxtpx:TrackPointExtension xmlns:gpxtpx="http://www.garmin.com/xmlschemas/TrackPointExtension/v1">
            <gpxtpx:hr>111</gpxtpx:hr>
          </gpxtpx:TrackPointExtension>
        </extensions>
      </trkpt>
      <trkpt lat="45.58289" lon="2.80086">
        <ele>1003.4000244141</ele>
        <time>2024-05-26T09:03:15.000Z</time>
        <extensions>
          <gpxtpx:TrackPointExtension xmlns:gpxtpx="http://www.garmin.com/xmlschemas/TrackPointExtension/v1">
            <gpxtpx:hr>114</gpxtpx:hr>
          </gpxtpx:TrackPointExtension>
        </extensions>
      </trkpt>
      <trkpt lat="45.58286" lon="2.80088">
        <ele>1003.5999755859</ele>
        <time>2024-05-26T09:03:16.000Z</time>
        <extensions>
          <gpxtpx:TrackPointExtension xmlns:gpxtpx="http://www.garmin.com/xmlschemas/TrackPointExtension/v1">
            <gpxtpx:hr>117</gpxtpx:hr>
          </gpxtpx:TrackPointExtension>
        </extensions>
      </trkpt>
      <trkpt lat="45.58279" lon="2.80089">
        <ele>1004</ele>
        <time>2024-05-26T09:03:19.000Z</time>
        <extensions>
          <gpxtpx:TrackPointExtension xmlns:gpxtpx="http://www.garmin.com/xmlschemas/TrackPointExtension/v1">
            <gpxtpx:hr>121</gpxtpx:hr>
          </gpxtpx:TrackPointExtension>
        </extensions>
      </trkpt>
      <trkpt lat="45.58277" lon="2.80091">
        <ele>1004</ele>
        <time>2024-05-26T09:03:20.000Z</time>
        <extensions>
          <gpxtpx:TrackPointExtension xmlns:gpxtpx="http://www.garmin.com/xmlschemas/TrackPointExtension/v1">
            <gpxtpx:hr>121</gpxtpx:hr>
          </gpxtpx:TrackPointExtension>
        </extensions>
      </trkpt>
      <trkpt lat="45.58274" lon="2.80091">
        <ele>1004.200012207</ele>
        <time>2024-05-26T09:03:21.000Z</time>
        <extensions>
          <gpxtpx:TrackPointExtension xmlns:gpxtpx="http://www.garmin.com/xmlschemas/TrackPointExtension/v1">
            <gpxtpx:hr>121</gpxtpx:hr>
          </gpxtpx:TrackPointExtension>
        </extensions>
      </trkpt>
      <trkpt lat="45.58272" lon="2.80091">
        <ele>1004.4000244141</ele>
        <time>2024-05-26T09:03:22.000Z</time>
        <extensions>
          <gpxtpx:TrackPointExtension xmlns:gpxtpx="http://www.garmin.com/xmlschemas/TrackPointExtension/v1">
            <gpxtpx:hr>121</gpxtpx:hr>
          </gpxtpx:TrackPointExtension>
        </extensions>
      </trkpt>
      <trkpt lat="45.58267" lon="2.80093">
        <ele>1004.799987793</ele>
        <time>2024-05-26T09:03:24.000Z</time>
        <extensions>
          <gpxtpx:TrackPointExtension xmlns:gpxtpx="http://www.garmin.com/xmlschemas/TrackPointExtension/v1">
            <gpxtpx:hr>117</gpxtpx:hr>
          </gpxtpx:TrackPointExtension>
        </extensions>
      </trkpt>
      <trkpt lat="45.58259" lon="2.80095">
        <ele>1005.200012207</ele>
        <time>2024-05-26T09:03:27.000Z</time>
        <extensions>
          <gpxtpx:TrackPointExtension xmlns:gpxtpx="http://www.garmin.com/xmlschemas/TrackPointExtension/v1">
            <gpxtpx:hr>119</gpxtpx:hr>
          </gpxtpx:TrackPointExtension>
        </extensions>
      </trkpt>
      <trkpt lat="45.58254" lon="2.80097">
        <ele>1005.5999755859</ele>
        <time>2024-05-26T09:03:29.000Z</time>
        <extensions>
          <gpxtpx:TrackPointExtension xmlns:gpxtpx="http://www.garmin.com/xmlschemas/TrackPointExtension/v1">
            <gpxtpx:hr>117</gpxtpx:hr>
          </gpxtpx:TrackPointExtension>
        </extensions>
      </trkpt>
      <trkpt lat="45.58249" lon="2.80098">
        <ele>1005.5999755859</ele>
        <time>2024-05-26T09:03:31.000Z</time>
        <extensions>
          <gpxtpx:TrackPointExtension xmlns:gpxtpx="http://www.garmin.com/xmlschemas/TrackPointExtension/v1">
            <gpxtpx:hr>117</gpxtpx:hr>
          </gpxtpx:TrackPointExtension>
        </extensions>
      </trkpt>
      <trkpt lat="45.58246" lon="2.80099">
        <ele>1005.799987793</ele>
        <time>2024-05-26T09:03:32.000Z</time>
        <extensions>
          <gpxtpx:TrackPointExtension xmlns:gpxtpx="http://www.garmin.com/xmlschemas/TrackPointExtension/v1">
            <gpxtpx:hr>117</gpxtpx:hr>
          </gpxtpx:TrackPointExtension>
        </extensions>
      </trkpt>
      <trkpt lat="45.5824" lon="2.80103">
        <ele>1006.4000244141</ele>
        <time>2024-05-26T09:03:34.000Z</time>
        <extensions>
          <gpxtpx:TrackPointExtension xmlns:gpxtpx="http://www.garmin.com/xmlschemas/TrackPointExtension/v1">
            <gpxtpx:hr>117</gpxtpx:hr>
          </gpxtpx:TrackPointExtension>
        </extensions>
      </trkpt>
      <trkpt lat="45.58237" lon="2.80102">
        <ele>1006.5999755859</ele>
        <time>2024-05-26T09:03:35.000Z</time>
        <extensions>
          <gpxtpx:TrackPointExtension xmlns:gpxtpx="http://www.garmin.com/xmlschemas/TrackPointExtension/v1">
            <gpxtpx:hr>117</gpxtpx:hr>
          </gpxtpx:TrackPointExtension>
        </extensions>
      </trkpt>
      <trkpt lat="45.58235" lon="2.80102">
        <ele>1006.799987793</ele>
        <time>2024-05-26T09:03:36.000Z</time>
        <extensions>
          <gpxtpx:TrackPointExtension xmlns:gpxtpx="http://www.garmin.com/xmlschemas/TrackPointExtension/v1">
            <gpxtpx:hr>117</gpxtpx:hr>
          </gpxtpx:TrackPointExtension>
        </extensions>
      </trkpt>
      <trkpt lat="45.58224" lon="2.80104">
        <ele>1007.5999755859</ele>
        <time>2024-05-26T09:03:41.000Z</time>
        <extensions>
          <gpxtpx:TrackPointExtension xmlns:gpxtpx="http://www.garmin.com/xmlschemas/TrackPointExtension/v1">
            <gpxtpx:hr>117</gpxtpx:hr>
          </gpxtpx:TrackPointExtension>
        </extensions>
      </trkpt>
      <trkpt lat="45.58221" lon="2.80105">
        <ele>1007.799987793</ele>
        <time>2024-05-26T09:03:42.000Z</time>
        <extensions>
          <gpxtpx:TrackPointExtension xmlns:gpxtpx="http://www.garmin.com/xmlschemas/TrackPointExtension/v1">
            <gpxtpx:hr>117</gpxtpx:hr>
          </gpxtpx:TrackPointExtension>
        </extensions>
      </trkpt>
      <trkpt lat="45.58209" lon="2.80108">
        <ele>1008.5999755859</ele>
        <time>2024-05-26T09:03:47.000Z</time>
        <extensions>
          <gpxtpx:TrackPointExtension xmlns:gpxtpx="http://www.garmin.com/xmlschemas/TrackPointExtension/v1">
            <gpxtpx:hr>115</gpxtpx:hr>
          </gpxtpx:TrackPointExtension>
        </extensions>
      </trkpt>
      <trkpt lat="45.58206" lon="2.80108">
        <ele>1008.799987793</ele>
        <time>2024-05-26T09:03:48.000Z</time>
        <extensions>
          <gpxtpx:TrackPointExtension xmlns:gpxtpx="http://www.garmin.com/xmlschemas/TrackPointExtension/v1">
            <gpxtpx:hr>116</gpxtpx:hr>
          </gpxtpx:TrackPointExtension>
        </extensions>
      </trkpt>
      <trkpt lat="45.58199" lon="2.8011">
        <ele>1009.200012207</ele>
        <time>2024-05-26T09:03:51.000Z</time>
        <extensions>
          <gpxtpx:TrackPointExtension xmlns:gpxtpx="http://www.garmin.com/xmlschemas/TrackPointExtension/v1">
            <gpxtpx:hr>113</gpxtpx:hr>
          </gpxtpx:TrackPointExtension>
        </extensions>
      </trkpt>
      <trkpt lat="45.58194" lon="2.8011">
        <ele>1009.4000244141</ele>
        <time>2024-05-26T09:03:53.000Z</time>
        <extensions>
          <gpxtpx:TrackPointExtension xmlns:gpxtpx="http://www.garmin.com/xmlschemas/TrackPointExtension/v1">
            <gpxtpx:hr>113</gpxtpx:hr>
          </gpxtpx:TrackPointExtension>
        </extensions>
      </trkpt>
      <trkpt lat="45.58189" lon="2.80112">
        <ele>1009.799987793</ele>
        <time>2024-05-26T09:03:55.000Z</time>
        <extensions>
          <gpxtpx:TrackPointExtension xmlns:gpxtpx="http://www.garmin.com/xmlschemas/TrackPointExtension/v1">
            <gpxtpx:hr>113</gpxtpx:hr>
          </gpxtpx:TrackPointExtension>
        </extensions>
      </trkpt>
      <trkpt lat="45.58179" lon="2.80119">
        <ele>1010.4000244141</ele>
        <time>2024-05-26T09:03:59.000Z</time>
        <extensions>
          <gpxtpx:TrackPointExtension xmlns:gpxtpx="http://www.garmin.com/xmlschemas/TrackPointExtension/v1">
            <gpxtpx:hr>115</gpxtpx:hr>
          </gpxtpx:TrackPointExtension>
        </extensions>
      </trkpt>
      <trkpt lat="45.58166" lon="2.80127">
        <ele>1011</ele>
        <time>2024-05-26T09:04:03.000Z</time>
        <extensions>
          <gpxtpx:TrackPointExtension xmlns:gpxtpx="http://www.garmin.com/xmlschemas/TrackPointExtension/v1">
            <gpxtpx:hr>116</gpxtpx:hr>
          </gpxtpx:TrackPointExtension>
        </extensions>
      </trkpt>
      <trkpt lat="45.58158" lon="2.80131">
        <ele>1011.4000244141</ele>
        <time>2024-05-26T09:04:06.000Z</time>
        <extensions>
          <gpxtpx:TrackPointExtension xmlns:gpxtpx="http://www.garmin.com/xmlschemas/TrackPointExtension/v1">
            <gpxtpx:hr>117</gpxtpx:hr>
          </gpxtpx:TrackPointExtension>
        </extensions>
      </trkpt>
      <trkpt lat="45.58152" lon="2.80134">
        <ele>1011.5999755859</ele>
        <time>2024-05-26T09:04:08.000Z</time>
        <extensions>
          <gpxtpx:TrackPointExtension xmlns:gpxtpx="http://www.garmin.com/xmlschemas/TrackPointExtension/v1">
            <gpxtpx:hr>117</gpxtpx:hr>
          </gpxtpx:TrackPointExtension>
        </extensions>
      </trkpt>
      <trkpt lat="45.58143" lon="2.80138">
        <ele>1012</ele>
        <time>2024-05-26T09:04:11.000Z</time>
        <extensions>
          <gpxtpx:TrackPointExtension xmlns:gpxtpx="http://www.garmin.com/xmlschemas/TrackPointExtension/v1">
            <gpxtpx:hr>117</gpxtpx:hr>
          </gpxtpx:TrackPointExtension>
        </extensions>
      </trkpt>
      <trkpt lat="45.5814" lon="2.8014">
        <ele>1012.200012207</ele>
        <time>2024-05-26T09:04:12.000Z</time>
        <extensions>
          <gpxtpx:TrackPointExtension xmlns:gpxtpx="http://www.garmin.com/xmlschemas/TrackPointExtension/v1">
            <gpxtpx:hr>117</gpxtpx:hr>
          </gpxtpx:TrackPointExtension>
        </extensions>
      </trkpt>
      <trkpt lat="45.58117" lon="2.80152">
        <ele>1012.799987793</ele>
        <time>2024-05-26T09:04:20.000Z</time>
        <extensions>
          <gpxtpx:TrackPointExtension xmlns:gpxtpx="http://www.garmin.com/xmlschemas/TrackPointExtension/v1">
            <gpxtpx:hr>117</gpxtpx:hr>
          </gpxtpx:TrackPointExtension>
        </extensions>
      </trkpt>
      <trkpt lat="45.58111" lon="2.80156">
        <ele>1013</ele>
        <time>2024-05-26T09:04:22.000Z</time>
        <extensions>
          <gpxtpx:TrackPointExtension xmlns:gpxtpx="http://www.garmin.com/xmlschemas/TrackPointExtension/v1">
            <gpxtpx:hr>117</gpxtpx:hr>
          </gpxtpx:TrackPointExtension>
        </extensions>
      </trkpt>
      <trkpt lat="45.58092" lon="2.80167">
        <ele>1013.799987793</ele>
        <time>2024-05-26T09:04:28.000Z</time>
        <extensions>
          <gpxtpx:TrackPointExtension xmlns:gpxtpx="http://www.garmin.com/xmlschemas/TrackPointExtension/v1">
            <gpxtpx:hr>116</gpxtpx:hr>
          </gpxtpx:TrackPointExtension>
        </extensions>
      </trkpt>
      <trkpt lat="45.58079" lon="2.80171">
        <ele>1014</ele>
        <time>2024-05-26T09:04:32.000Z</time>
        <extensions>
          <gpxtpx:TrackPointExtension xmlns:gpxtpx="http://www.garmin.com/xmlschemas/TrackPointExtension/v1">
            <gpxtpx:hr>114</gpxtpx:hr>
          </gpxtpx:TrackPointExtension>
        </extensions>
      </trkpt>
      <trkpt lat="45.58071" lon="2.80176">
        <ele>1014.4000244141</ele>
        <time>2024-05-26T09:04:35.000Z</time>
        <extensions>
          <gpxtpx:TrackPointExtension xmlns:gpxtpx="http://www.garmin.com/xmlschemas/TrackPointExtension/v1">
            <gpxtpx:hr>115</gpxtpx:hr>
          </gpxtpx:TrackPointExtension>
        </extensions>
      </trkpt>
      <trkpt lat="45.58051" lon="2.80183">
        <ele>1015.200012207</ele>
        <time>2024-05-26T09:04:41.000Z</time>
        <extensions>
          <gpxtpx:TrackPointExtension xmlns:gpxtpx="http://www.garmin.com/xmlschemas/TrackPointExtension/v1">
            <gpxtpx:hr>112</gpxtpx:hr>
          </gpxtpx:TrackPointExtension>
        </extensions>
      </trkpt>
      <trkpt lat="45.58048" lon="2.80183">
        <ele>1015.4000244141</ele>
        <time>2024-05-26T09:04:42.000Z</time>
        <extensions>
          <gpxtpx:TrackPointExtension xmlns:gpxtpx="http://www.garmin.com/xmlschemas/TrackPointExtension/v1">
            <gpxtpx:hr>114</gpxtpx:hr>
          </gpxtpx:TrackPointExtension>
        </extensions>
      </trkpt>
      <trkpt lat="45.58032" lon="2.80189">
        <ele>1016</ele>
        <time>2024-05-26T09:04:47.000Z</time>
        <extensions>
          <gpxtpx:TrackPointExtension xmlns:gpxtpx="http://www.garmin.com/xmlschemas/TrackPointExtension/v1">
            <gpxtpx:hr>113</gpxtpx:hr>
          </gpxtpx:TrackPointExtension>
        </extensions>
      </trkpt>
      <trkpt lat="45.58029" lon="2.8019">
        <ele>1016.200012207</ele>
        <time>2024-05-26T09:04:48.000Z</time>
        <extensions>
          <gpxtpx:TrackPointExtension xmlns:gpxtpx="http://www.garmin.com/xmlschemas/TrackPointExtension/v1">
            <gpxtpx:hr>113</gpxtpx:hr>
          </gpxtpx:TrackPointExtension>
        </extensions>
      </trkpt>
      <trkpt lat="45.58007" lon="2.80197">
        <ele>1017.4000244141</ele>
        <time>2024-05-26T09:04:55.000Z</time>
        <extensions>
          <gpxtpx:TrackPointExtension xmlns:gpxtpx="http://www.garmin.com/xmlschemas/TrackPointExtension/v1">
            <gpxtpx:hr>114</gpxtpx:hr>
          </gpxtpx:TrackPointExtension>
        </extensions>
      </trkpt>
      <trkpt lat="45.58004" lon="2.80198">
        <ele>1017.4000244141</ele>
        <time>2024-05-26T09:04:56.000Z</time>
        <extensions>
          <gpxtpx:TrackPointExtension xmlns:gpxtpx="http://www.garmin.com/xmlschemas/TrackPointExtension/v1">
            <gpxtpx:hr>112</gpxtpx:hr>
          </gpxtpx:TrackPointExtension>
        </extensions>
      </trkpt>
      <trkpt lat="45.58002" lon="2.80199">
        <ele>1017.5999755859</ele>
        <time>2024-05-26T09:04:57.000Z</time>
        <extensions>
          <gpxtpx:TrackPointExtension xmlns:gpxtpx="http://www.garmin.com/xmlschemas/TrackPointExtension/v1">
            <gpxtpx:hr>117</gpxtpx:hr>
          </gpxtpx:TrackPointExtension>
        </extensions>
      </trkpt>
      <trkpt lat="45.57986" lon="2.80202">
        <ele>1018.200012207</ele>
        <time>2024-05-26T09:05:02.000Z</time>
        <extensions>
          <gpxtpx:TrackPointExtension xmlns:gpxtpx="http://www.garmin.com/xmlschemas/TrackPointExtension/v1">
            <gpxtpx:hr>114</gpxtpx:hr>
          </gpxtpx:TrackPointExtension>
        </extensions>
      </trkpt>
      <trkpt lat="45.57983" lon="2.80205">
        <ele>1018.4000244141</ele>
        <time>2024-05-26T09:05:03.000Z</time>
        <extensions>
          <gpxtpx:TrackPointExtension xmlns:gpxtpx="http://www.garmin.com/xmlschemas/TrackPointExtension/v1">
            <gpxtpx:hr>113</gpxtpx:hr>
          </gpxtpx:TrackPointExtension>
        </extensions>
      </trkpt>
      <trkpt lat="45.57972" lon="2.80206">
        <ele>1019</ele>
        <time>2024-05-26T09:05:07.000Z</time>
        <extensions>
          <gpxtpx:TrackPointExtension xmlns:gpxtpx="http://www.garmin.com/xmlschemas/TrackPointExtension/v1">
            <gpxtpx:hr>112</gpxtpx:hr>
          </gpxtpx:TrackPointExtension>
        </extensions>
      </trkpt>
      <trkpt lat="45.57969" lon="2.80207">
        <ele>1019.4000244141</ele>
        <time>2024-05-26T09:05:08.000Z</time>
        <extensions>
          <gpxtpx:TrackPointExtension xmlns:gpxtpx="http://www.garmin.com/xmlschemas/TrackPointExtension/v1">
            <gpxtpx:hr>111</gpxtpx:hr>
          </gpxtpx:TrackPointExtension>
        </extensions>
      </trkpt>
      <trkpt lat="45.57966" lon="2.80208">
        <ele>1019.4000244141</ele>
        <time>2024-05-26T09:05:09.000Z</time>
        <extensions>
          <gpxtpx:TrackPointExtension xmlns:gpxtpx="http://www.garmin.com/xmlschemas/TrackPointExtension/v1">
            <gpxtpx:hr>110</gpxtpx:hr>
          </gpxtpx:TrackPointExtension>
        </extensions>
      </trkpt>
      <trkpt lat="45.57959" lon="2.8021">
        <ele>1019.799987793</ele>
        <time>2024-05-26T09:05:11.000Z</time>
        <extensions>
          <gpxtpx:TrackPointExtension xmlns:gpxtpx="http://www.garmin.com/xmlschemas/TrackPointExtension/v1">
            <gpxtpx:hr>110</gpxtpx:hr>
          </gpxtpx:TrackPointExtension>
        </extensions>
      </trkpt>
      <trkpt lat="45.57937" lon="2.80222">
        <ele>1020.5999755859</ele>
        <time>2024-05-26T09:05:17.000Z</time>
        <extensions>
          <gpxtpx:TrackPointExtension xmlns:gpxtpx="http://www.garmin.com/xmlschemas/TrackPointExtension/v1">
            <gpxtpx:hr>110</gpxtpx:hr>
          </gpxtpx:TrackPointExtension>
        </extensions>
      </trkpt>
      <trkpt lat="45.57916" lon="2.80232">
        <ele>1021.5999755859</ele>
        <time>2024-05-26T09:05:23.000Z</time>
        <extensions>
          <gpxtpx:TrackPointExtension xmlns:gpxtpx="http://www.garmin.com/xmlschemas/TrackPointExtension/v1">
            <gpxtpx:hr>111</gpxtpx:hr>
          </gpxtpx:TrackPointExtension>
        </extensions>
      </trkpt>
      <trkpt lat="45.57893" lon="2.80248">
        <ele>1022.5999755859</ele>
        <time>2024-05-26T09:05:31.000Z</time>
        <extensions>
          <gpxtpx:TrackPointExtension xmlns:gpxtpx="http://www.garmin.com/xmlschemas/TrackPointExtension/v1">
            <gpxtpx:hr>111</gpxtpx:hr>
          </gpxtpx:TrackPointExtension>
        </extensions>
      </trkpt>
      <trkpt lat="45.57873" lon="2.80262">
        <ele>1023.4000244141</ele>
        <time>2024-05-26T09:05:38.000Z</time>
        <extensions>
          <gpxtpx:TrackPointExtension xmlns:gpxtpx="http://www.garmin.com/xmlschemas/TrackPointExtension/v1">
            <gpxtpx:hr>113</gpxtpx:hr>
          </gpxtpx:TrackPointExtension>
        </extensions>
      </trkpt>
      <trkpt lat="45.57864" lon="2.80267">
        <ele>1023.5999755859</ele>
        <time>2024-05-26T09:05:41.000Z</time>
        <extensions>
          <gpxtpx:TrackPointExtension xmlns:gpxtpx="http://www.garmin.com/xmlschemas/TrackPointExtension/v1">
            <gpxtpx:hr>113</gpxtpx:hr>
          </gpxtpx:TrackPointExtension>
        </extensions>
      </trkpt>
      <trkpt lat="45.57855" lon="2.80273">
        <ele>1024.1999511719</ele>
        <time>2024-05-26T09:05:44.000Z</time>
        <extensions>
          <gpxtpx:TrackPointExtension xmlns:gpxtpx="http://www.garmin.com/xmlschemas/TrackPointExtension/v1">
            <gpxtpx:hr>113</gpxtpx:hr>
          </gpxtpx:TrackPointExtension>
        </extensions>
      </trkpt>
      <trkpt lat="45.57828" lon="2.80289">
        <ele>1024.1999511719</ele>
        <time>2024-05-26T09:05:52.000Z</time>
        <extensions>
          <gpxtpx:TrackPointExtension xmlns:gpxtpx="http://www.garmin.com/xmlschemas/TrackPointExtension/v1">
            <gpxtpx:hr>115</gpxtpx:hr>
          </gpxtpx:TrackPointExtension>
        </extensions>
      </trkpt>
      <trkpt lat="45.5779" lon="2.80311">
        <ele>1024.4000244141</ele>
        <time>2024-05-26T09:06:02.000Z</time>
        <extensions>
          <gpxtpx:TrackPointExtension xmlns:gpxtpx="http://www.garmin.com/xmlschemas/TrackPointExtension/v1">
            <gpxtpx:hr>118</gpxtpx:hr>
          </gpxtpx:TrackPointExtension>
        </extensions>
      </trkpt>
      <trkpt lat="45.57787" lon="2.80314">
        <ele>1024.4000244141</ele>
        <time>2024-05-26T09:06:03.000Z</time>
        <extensions>
          <gpxtpx:TrackPointExtension xmlns:gpxtpx="http://www.garmin.com/xmlschemas/TrackPointExtension/v1">
            <gpxtpx:hr>118</gpxtpx:hr>
          </gpxtpx:TrackPointExtension>
        </extensions>
      </trkpt>
      <trkpt lat="45.57779" lon="2.80318">
        <ele>1024.8000488281</ele>
        <time>2024-05-26T09:06:05.000Z</time>
        <extensions>
          <gpxtpx:TrackPointExtension xmlns:gpxtpx="http://www.garmin.com/xmlschemas/TrackPointExtension/v1">
            <gpxtpx:hr>118</gpxtpx:hr>
          </gpxtpx:TrackPointExtension>
        </extensions>
      </trkpt>
      <trkpt lat="45.57768" lon="2.80326">
        <ele>1024.8000488281</ele>
        <time>2024-05-26T09:06:08.000Z</time>
        <extensions>
          <gpxtpx:TrackPointExtension xmlns:gpxtpx="http://www.garmin.com/xmlschemas/TrackPointExtension/v1">
            <gpxtpx:hr>115</gpxtpx:hr>
          </gpxtpx:TrackPointExtension>
        </extensions>
      </trkpt>
      <trkpt lat="45.57748" lon="2.80337">
        <ele>1025</ele>
        <time>2024-05-26T09:06:13.000Z</time>
        <extensions>
          <gpxtpx:TrackPointExtension xmlns:gpxtpx="http://www.garmin.com/xmlschemas/TrackPointExtension/v1">
            <gpxtpx:hr>112</gpxtpx:hr>
          </gpxtpx:TrackPointExtension>
        </extensions>
      </trkpt>
      <trkpt lat="45.57737" lon="2.80346">
        <ele>1025</ele>
        <time>2024-05-26T09:06:16.000Z</time>
        <extensions>
          <gpxtpx:TrackPointExtension xmlns:gpxtpx="http://www.garmin.com/xmlschemas/TrackPointExtension/v1">
            <gpxtpx:hr>109</gpxtpx:hr>
          </gpxtpx:TrackPointExtension>
        </extensions>
      </trkpt>
      <trkpt lat="45.57703" lon="2.80367">
        <ele>1025.8000488281</ele>
        <time>2024-05-26T09:06:25.000Z</time>
        <extensions>
          <gpxtpx:TrackPointExtension xmlns:gpxtpx="http://www.garmin.com/xmlschemas/TrackPointExtension/v1">
            <gpxtpx:hr>109</gpxtpx:hr>
          </gpxtpx:TrackPointExtension>
        </extensions>
      </trkpt>
      <trkpt lat="45.57699" lon="2.80369">
        <ele>1025.8000488281</ele>
        <time>2024-05-26T09:06:26.000Z</time>
        <extensions>
          <gpxtpx:TrackPointExtension xmlns:gpxtpx="http://www.garmin.com/xmlschemas/TrackPointExtension/v1">
            <gpxtpx:hr>109</gpxtpx:hr>
          </gpxtpx:TrackPointExtension>
        </extensions>
      </trkpt>
      <trkpt lat="45.57669" lon="2.80388">
        <ele>1026.4000244141</ele>
        <time>2024-05-26T09:06:34.000Z</time>
        <extensions>
          <gpxtpx:TrackPointExtension xmlns:gpxtpx="http://www.garmin.com/xmlschemas/TrackPointExtension/v1">
            <gpxtpx:hr>109</gpxtpx:hr>
          </gpxtpx:TrackPointExtension>
        </extensions>
      </trkpt>
      <trkpt lat="45.57661" lon="2.80392">
        <ele>1026.5999755859</ele>
        <time>2024-05-26T09:06:36.000Z</time>
        <extensions>
          <gpxtpx:TrackPointExtension xmlns:gpxtpx="http://www.garmin.com/xmlschemas/TrackPointExtension/v1">
            <gpxtpx:hr>108</gpxtpx:hr>
          </gpxtpx:TrackPointExtension>
        </extensions>
      </trkpt>
      <trkpt lat="45.57651" lon="2.80398">
        <ele>1026.8000488281</ele>
        <time>2024-05-26T09:06:39.000Z</time>
        <extensions>
          <gpxtpx:TrackPointExtension xmlns:gpxtpx="http://www.garmin.com/xmlschemas/TrackPointExtension/v1">
            <gpxtpx:hr>108</gpxtpx:hr>
          </gpxtpx:TrackPointExtension>
        </extensions>
      </trkpt>
      <trkpt lat="45.57646" lon="2.80401">
        <ele>1026.8000488281</ele>
        <time>2024-05-26T09:06:40.000Z</time>
        <extensions>
          <gpxtpx:TrackPointExtension xmlns:gpxtpx="http://www.garmin.com/xmlschemas/TrackPointExtension/v1">
            <gpxtpx:hr>108</gpxtpx:hr>
          </gpxtpx:TrackPointExtension>
        </extensions>
      </trkpt>
      <trkpt lat="45.57638" lon="2.80406">
        <ele>1026.8000488281</ele>
        <time>2024-05-26T09:06:42.000Z</time>
        <extensions>
          <gpxtpx:TrackPointExtension xmlns:gpxtpx="http://www.garmin.com/xmlschemas/TrackPointExtension/v1">
            <gpxtpx:hr>107</gpxtpx:hr>
          </gpxtpx:TrackPointExtension>
        </extensions>
      </trkpt>
      <trkpt lat="45.5763" lon="2.80412">
        <ele>1026.8000488281</ele>
        <time>2024-05-26T09:06:44.000Z</time>
        <extensions>
          <gpxtpx:TrackPointExtension xmlns:gpxtpx="http://www.garmin.com/xmlschemas/TrackPointExtension/v1">
            <gpxtpx:hr>107</gpxtpx:hr>
          </gpxtpx:TrackPointExtension>
        </extensions>
      </trkpt>
      <trkpt lat="45.57616" lon="2.8042">
        <ele>1027</ele>
        <time>2024-05-26T09:06:48.000Z</time>
        <extensions>
          <gpxtpx:TrackPointExtension xmlns:gpxtpx="http://www.garmin.com/xmlschemas/TrackPointExtension/v1">
            <gpxtpx:hr>103</gpxtpx:hr>
          </gpxtpx:TrackPointExtension>
        </extensions>
      </trkpt>
      <trkpt lat="45.57606" lon="2.80428">
        <ele>1027.5999755859</ele>
        <time>2024-05-26T09:06:51.000Z</time>
        <extensions>
          <gpxtpx:TrackPointExtension xmlns:gpxtpx="http://www.garmin.com/xmlschemas/TrackPointExtension/v1">
            <gpxtpx:hr>100</gpxtpx:hr>
          </gpxtpx:TrackPointExtension>
        </extensions>
      </trkpt>
      <trkpt lat="45.57597" lon="2.80435">
        <ele>1027.8000488281</ele>
        <time>2024-05-26T09:06:54.000Z</time>
        <extensions>
          <gpxtpx:TrackPointExtension xmlns:gpxtpx="http://www.garmin.com/xmlschemas/TrackPointExtension/v1">
            <gpxtpx:hr>98</gpxtpx:hr>
          </gpxtpx:TrackPointExtension>
        </extensions>
      </trkpt>
      <trkpt lat="45.57586" lon="2.8045">
        <ele>1028.1999511719</ele>
        <time>2024-05-26T09:06:58.000Z</time>
        <extensions>
          <gpxtpx:TrackPointExtension xmlns:gpxtpx="http://www.garmin.com/xmlschemas/TrackPointExtension/v1">
            <gpxtpx:hr>97</gpxtpx:hr>
          </gpxtpx:TrackPointExtension>
        </extensions>
      </trkpt>
      <trkpt lat="45.57574" lon="2.80461">
        <ele>1028.8000488281</ele>
        <time>2024-05-26T09:07:03.000Z</time>
        <extensions>
          <gpxtpx:TrackPointExtension xmlns:gpxtpx="http://www.garmin.com/xmlschemas/TrackPointExtension/v1">
            <gpxtpx:hr>98</gpxtpx:hr>
          </gpxtpx:TrackPointExtension>
        </extensions>
      </trkpt>
      <trkpt lat="45.57573" lon="2.80462">
        <ele>1029</ele>
        <time>2024-05-26T09:07:04.000Z</time>
        <extensions>
          <gpxtpx:TrackPointExtension xmlns:gpxtpx="http://www.garmin.com/xmlschemas/TrackPointExtension/v1">
            <gpxtpx:hr>98</gpxtpx:hr>
          </gpxtpx:TrackPointExtension>
        </extensions>
      </trkpt>
      <trkpt lat="45.57573" lon="2.80462">
        <ele>1029.1999511719</ele>
        <time>2024-05-26T09:07:08.000Z</time>
        <extensions>
          <gpxtpx:TrackPointExtension xmlns:gpxtpx="http://www.garmin.com/xmlschemas/TrackPointExtension/v1">
            <gpxtpx:hr>98</gpxtpx:hr>
          </gpxtpx:TrackPointExtension>
        </extensions>
      </trkpt>
      <trkpt lat="45.57572" lon="2.80464">
        <ele>1029.1999511719</ele>
        <time>2024-05-26T09:07:14.000Z</time>
        <extensions>
          <gpxtpx:TrackPointExtension xmlns:gpxtpx="http://www.garmin.com/xmlschemas/TrackPointExtension/v1">
            <gpxtpx:hr>96</gpxtpx:hr>
          </gpxtpx:TrackPointExtension>
        </extensions>
      </trkpt>
      <trkpt lat="45.57571" lon="2.80466">
        <ele>1029.1999511719</ele>
        <time>2024-05-26T09:07:15.000Z</time>
        <extensions>
          <gpxtpx:TrackPointExtension xmlns:gpxtpx="http://www.garmin.com/xmlschemas/TrackPointExtension/v1">
            <gpxtpx:hr>95</gpxtpx:hr>
          </gpxtpx:TrackPointExtension>
        </extensions>
      </trkpt>
      <trkpt lat="45.57561" lon="2.80475">
        <ele>1030</ele>
        <time>2024-05-26T09:07:21.000Z</time>
        <extensions>
          <gpxtpx:TrackPointExtension xmlns:gpxtpx="http://www.garmin.com/xmlschemas/TrackPointExtension/v1">
            <gpxtpx:hr>94</gpxtpx:hr>
          </gpxtpx:TrackPointExtension>
        </extensions>
      </trkpt>
      <trkpt lat="45.5756" lon="2.80478">
        <ele>1030</ele>
        <time>2024-05-26T09:07:22.000Z</time>
        <extensions>
          <gpxtpx:TrackPointExtension xmlns:gpxtpx="http://www.garmin.com/xmlschemas/TrackPointExtension/v1">
            <gpxtpx:hr>94</gpxtpx:hr>
          </gpxtpx:TrackPointExtension>
        </extensions>
      </trkpt>
      <trkpt lat="45.57558" lon="2.8048">
        <ele>1030.1999511719</ele>
        <time>2024-05-26T09:07:23.000Z</time>
        <extensions>
          <gpxtpx:TrackPointExtension xmlns:gpxtpx="http://www.garmin.com/xmlschemas/TrackPointExtension/v1">
            <gpxtpx:hr>95</gpxtpx:hr>
          </gpxtpx:TrackPointExtension>
        </extensions>
      </trkpt>
      <trkpt lat="45.57551" lon="2.80484">
        <ele>1031</ele>
        <time>2024-05-26T09:07:26.000Z</time>
        <extensions>
          <gpxtpx:TrackPointExtension xmlns:gpxtpx="http://www.garmin.com/xmlschemas/TrackPointExtension/v1">
            <gpxtpx:hr>95</gpxtpx:hr>
          </gpxtpx:TrackPointExtension>
        </extensions>
      </trkpt>
      <trkpt lat="45.57541" lon="2.80492">
        <ele>1032.1999511719</ele>
        <time>2024-05-26T09:07:31.000Z</time>
        <extensions>
          <gpxtpx:TrackPointExtension xmlns:gpxtpx="http://www.garmin.com/xmlschemas/TrackPointExtension/v1">
            <gpxtpx:hr>97</gpxtpx:hr>
          </gpxtpx:TrackPointExtension>
        </extensions>
      </trkpt>
      <trkpt lat="45.57537" lon="2.80497">
        <ele>1032.8000488281</ele>
        <time>2024-05-26T09:07:33.000Z</time>
        <extensions>
          <gpxtpx:TrackPointExtension xmlns:gpxtpx="http://www.garmin.com/xmlschemas/TrackPointExtension/v1">
            <gpxtpx:hr>99</gpxtpx:hr>
          </gpxtpx:TrackPointExtension>
        </extensions>
      </trkpt>
      <trkpt lat="45.57533" lon="2.80501">
        <ele>1033.1999511719</ele>
        <time>2024-05-26T09:07:35.000Z</time>
        <extensions>
          <gpxtpx:TrackPointExtension xmlns:gpxtpx="http://www.garmin.com/xmlschemas/TrackPointExtension/v1">
            <gpxtpx:hr>101</gpxtpx:hr>
          </gpxtpx:TrackPointExtension>
        </extensions>
      </trkpt>
      <trkpt lat="45.57524" lon="2.80513">
        <ele>1034.4000244141</ele>
        <time>2024-05-26T09:07:40.000Z</time>
        <extensions>
          <gpxtpx:TrackPointExtension xmlns:gpxtpx="http://www.garmin.com/xmlschemas/TrackPointExtension/v1">
            <gpxtpx:hr>103</gpxtpx:hr>
          </gpxtpx:TrackPointExtension>
        </extensions>
      </trkpt>
      <trkpt lat="45.57522" lon="2.80515">
        <ele>1034.8000488281</ele>
        <time>2024-05-26T09:07:41.000Z</time>
        <extensions>
          <gpxtpx:TrackPointExtension xmlns:gpxtpx="http://www.garmin.com/xmlschemas/TrackPointExtension/v1">
            <gpxtpx:hr>104</gpxtpx:hr>
          </gpxtpx:TrackPointExtension>
        </extensions>
      </trkpt>
      <trkpt lat="45.57518" lon="2.80522">
        <ele>1035.4000244141</ele>
        <time>2024-05-26T09:07:44.000Z</time>
        <extensions>
          <gpxtpx:TrackPointExtension xmlns:gpxtpx="http://www.garmin.com/xmlschemas/TrackPointExtension/v1">
            <gpxtpx:hr>103</gpxtpx:hr>
          </gpxtpx:TrackPointExtension>
        </extensions>
      </trkpt>
      <trkpt lat="45.57511" lon="2.80531">
        <ele>1036.4000244141</ele>
        <time>2024-05-26T09:07:48.000Z</time>
        <extensions>
          <gpxtpx:TrackPointExtension xmlns:gpxtpx="http://www.garmin.com/xmlschemas/TrackPointExtension/v1">
            <gpxtpx:hr>103</gpxtpx:hr>
          </gpxtpx:TrackPointExtension>
        </extensions>
      </trkpt>
      <trkpt lat="45.57509" lon="2.80533">
        <ele>1036.4000244141</ele>
        <time>2024-05-26T09:07:49.000Z</time>
        <extensions>
          <gpxtpx:TrackPointExtension xmlns:gpxtpx="http://www.garmin.com/xmlschemas/TrackPointExtension/v1">
            <gpxtpx:hr>103</gpxtpx:hr>
          </gpxtpx:TrackPointExtension>
        </extensions>
      </trkpt>
      <trkpt lat="45.57502" lon="2.8054">
        <ele>1037.5999755859</ele>
        <time>2024-05-26T09:07:53.000Z</time>
        <extensions>
          <gpxtpx:TrackPointExtension xmlns:gpxtpx="http://www.garmin.com/xmlschemas/TrackPointExtension/v1">
            <gpxtpx:hr>104</gpxtpx:hr>
          </gpxtpx:TrackPointExtension>
        </extensions>
      </trkpt>
      <trkpt lat="45.57493" lon="2.8055">
        <ele>1038.4000244141</ele>
        <time>2024-05-26T09:07:58.000Z</time>
        <extensions>
          <gpxtpx:TrackPointExtension xmlns:gpxtpx="http://www.garmin.com/xmlschemas/TrackPointExtension/v1">
            <gpxtpx:hr>105</gpxtpx:hr>
          </gpxtpx:TrackPointExtension>
        </extensions>
      </trkpt>
      <trkpt lat="45.5749" lon="2.80554">
        <ele>1038.5999755859</ele>
        <time>2024-05-26T09:08:00.000Z</time>
        <extensions>
          <gpxtpx:TrackPointExtension xmlns:gpxtpx="http://www.garmin.com/xmlschemas/TrackPointExtension/v1">
            <gpxtpx:hr>107</gpxtpx:hr>
          </gpxtpx:TrackPointExtension>
        </extensions>
      </trkpt>
      <trkpt lat="45.57487" lon="2.80557">
        <ele>1039.1999511719</ele>
        <time>2024-05-26T09:08:02.000Z</time>
        <extensions>
          <gpxtpx:TrackPointExtension xmlns:gpxtpx="http://www.garmin.com/xmlschemas/TrackPointExtension/v1">
            <gpxtpx:hr>110</gpxtpx:hr>
          </gpxtpx:TrackPointExtension>
        </extensions>
      </trkpt>
      <trkpt lat="45.57484" lon="2.80561">
        <ele>1039.5999755859</ele>
        <time>2024-05-26T09:08:04.000Z</time>
        <extensions>
          <gpxtpx:TrackPointExtension xmlns:gpxtpx="http://www.garmin.com/xmlschemas/TrackPointExtension/v1">
            <gpxtpx:hr>111</gpxtpx:hr>
          </gpxtpx:TrackPointExtension>
        </extensions>
      </trkpt>
      <trkpt lat="45.57482" lon="2.80563">
        <ele>1039.8000488281</ele>
        <time>2024-05-26T09:08:05.000Z</time>
        <extensions>
          <gpxtpx:TrackPointExtension xmlns:gpxtpx="http://www.garmin.com/xmlschemas/TrackPointExtension/v1">
            <gpxtpx:hr>111</gpxtpx:hr>
          </gpxtpx:TrackPointExtension>
        </extensions>
      </trkpt>
      <trkpt lat="45.57473" lon="2.80574">
        <ele>1041</ele>
        <time>2024-05-26T09:08:11.000Z</time>
        <extensions>
          <gpxtpx:TrackPointExtension xmlns:gpxtpx="http://www.garmin.com/xmlschemas/TrackPointExtension/v1">
            <gpxtpx:hr>113</gpxtpx:hr>
          </gpxtpx:TrackPointExtension>
        </extensions>
      </trkpt>
      <trkpt lat="45.57466" lon="2.8058">
        <ele>1041.8000488281</ele>
        <time>2024-05-26T09:08:15.000Z</time>
        <extensions>
          <gpxtpx:TrackPointExtension xmlns:gpxtpx="http://www.garmin.com/xmlschemas/TrackPointExtension/v1">
            <gpxtpx:hr>114</gpxtpx:hr>
          </gpxtpx:TrackPointExtension>
        </extensions>
      </trkpt>
      <trkpt lat="45.57462" lon="2.80586">
        <ele>1042.1999511719</ele>
        <time>2024-05-26T09:08:18.000Z</time>
        <extensions>
          <gpxtpx:TrackPointExtension xmlns:gpxtpx="http://www.garmin.com/xmlschemas/TrackPointExtension/v1">
            <gpxtpx:hr>115</gpxtpx:hr>
          </gpxtpx:TrackPointExtension>
        </extensions>
      </trkpt>
      <trkpt lat="45.57452" lon="2.80599">
        <ele>1043.1999511719</ele>
        <time>2024-05-26T09:08:24.000Z</time>
        <extensions>
          <gpxtpx:TrackPointExtension xmlns:gpxtpx="http://www.garmin.com/xmlschemas/TrackPointExtension/v1">
            <gpxtpx:hr>117</gpxtpx:hr>
          </gpxtpx:TrackPointExtension>
        </extensions>
      </trkpt>
      <trkpt lat="45.57439" lon="2.8061">
        <ele>1044.4000244141</ele>
        <time>2024-05-26T09:08:31.000Z</time>
        <extensions>
          <gpxtpx:TrackPointExtension xmlns:gpxtpx="http://www.garmin.com/xmlschemas/TrackPointExtension/v1">
            <gpxtpx:hr>119</gpxtpx:hr>
          </gpxtpx:TrackPointExtension>
        </extensions>
      </trkpt>
      <trkpt lat="45.57422" lon="2.80631">
        <ele>1045.4000244141</ele>
        <time>2024-05-26T09:08:39.000Z</time>
        <extensions>
          <gpxtpx:TrackPointExtension xmlns:gpxtpx="http://www.garmin.com/xmlschemas/TrackPointExtension/v1">
            <gpxtpx:hr>119</gpxtpx:hr>
          </gpxtpx:TrackPointExtension>
        </extensions>
      </trkpt>
      <trkpt lat="45.57419" lon="2.80634">
        <ele>1045.5999755859</ele>
        <time>2024-05-26T09:08:40.000Z</time>
        <extensions>
          <gpxtpx:TrackPointExtension xmlns:gpxtpx="http://www.garmin.com/xmlschemas/TrackPointExtension/v1">
            <gpxtpx:hr>118</gpxtpx:hr>
          </gpxtpx:TrackPointExtension>
        </extensions>
      </trkpt>
      <trkpt lat="45.57408" lon="2.80647">
        <ele>1045.8000488281</ele>
        <time>2024-05-26T09:08:44.000Z</time>
        <extensions>
          <gpxtpx:TrackPointExtension xmlns:gpxtpx="http://www.garmin.com/xmlschemas/TrackPointExtension/v1">
            <gpxtpx:hr>121</gpxtpx:hr>
          </gpxtpx:TrackPointExtension>
        </extensions>
      </trkpt>
      <trkpt lat="45.57405" lon="2.8065">
        <ele>1045.8000488281</ele>
        <time>2024-05-26T09:08:45.000Z</time>
        <extensions>
          <gpxtpx:TrackPointExtension xmlns:gpxtpx="http://www.garmin.com/xmlschemas/TrackPointExtension/v1">
            <gpxtpx:hr>118</gpxtpx:hr>
          </gpxtpx:TrackPointExtension>
        </extensions>
      </trkpt>
      <trkpt lat="45.57387" lon="2.80673">
        <ele>1046.1999511719</ele>
        <time>2024-05-26T09:08:52.000Z</time>
        <extensions>
          <gpxtpx:TrackPointExtension xmlns:gpxtpx="http://www.garmin.com/xmlschemas/TrackPointExtension/v1">
            <gpxtpx:hr>117</gpxtpx:hr>
          </gpxtpx:TrackPointExtension>
        </extensions>
      </trkpt>
      <trkpt lat="45.57368" lon="2.80695">
        <ele>1046.4000244141</ele>
        <time>2024-05-26T09:08:59.000Z</time>
        <extensions>
          <gpxtpx:TrackPointExtension xmlns:gpxtpx="http://www.garmin.com/xmlschemas/TrackPointExtension/v1">
            <gpxtpx:hr>114</gpxtpx:hr>
          </gpxtpx:TrackPointExtension>
        </extensions>
      </trkpt>
      <trkpt lat="45.57362" lon="2.80702">
        <ele>1046.4000244141</ele>
        <time>2024-05-26T09:09:01.000Z</time>
        <extensions>
          <gpxtpx:TrackPointExtension xmlns:gpxtpx="http://www.garmin.com/xmlschemas/TrackPointExtension/v1">
            <gpxtpx:hr>115</gpxtpx:hr>
          </gpxtpx:TrackPointExtension>
        </extensions>
      </trkpt>
      <trkpt lat="45.57359" lon="2.80706">
        <ele>1046.5999755859</ele>
        <time>2024-05-26T09:09:02.000Z</time>
        <extensions>
          <gpxtpx:TrackPointExtension xmlns:gpxtpx="http://www.garmin.com/xmlschemas/TrackPointExtension/v1">
            <gpxtpx:hr>116</gpxtpx:hr>
          </gpxtpx:TrackPointExtension>
        </extensions>
      </trkpt>
      <trkpt lat="45.5733" lon="2.80742">
        <ele>1047.4000244141</ele>
        <time>2024-05-26T09:09:12.000Z</time>
        <extensions>
          <gpxtpx:TrackPointExtension xmlns:gpxtpx="http://www.garmin.com/xmlschemas/TrackPointExtension/v1">
            <gpxtpx:hr>118</gpxtpx:hr>
          </gpxtpx:TrackPointExtension>
        </extensions>
      </trkpt>
      <trkpt lat="45.57328" lon="2.80746">
        <ele>1047.5999755859</ele>
        <time>2024-05-26T09:09:13.000Z</time>
        <extensions>
          <gpxtpx:TrackPointExtension xmlns:gpxtpx="http://www.garmin.com/xmlschemas/TrackPointExtension/v1">
            <gpxtpx:hr>118</gpxtpx:hr>
          </gpxtpx:TrackPointExtension>
        </extensions>
      </trkpt>
      <trkpt lat="45.5731" lon="2.80773">
        <ele>1048.8000488281</ele>
        <time>2024-05-26T09:09:20.000Z</time>
        <extensions>
          <gpxtpx:TrackPointExtension xmlns:gpxtpx="http://www.garmin.com/xmlschemas/TrackPointExtension/v1">
            <gpxtpx:hr>118</gpxtpx:hr>
          </gpxtpx:TrackPointExtension>
        </extensions>
      </trkpt>
      <trkpt lat="45.57307" lon="2.80776">
        <ele>1048.8000488281</ele>
        <time>2024-05-26T09:09:21.000Z</time>
        <extensions>
          <gpxtpx:TrackPointExtension xmlns:gpxtpx="http://www.garmin.com/xmlschemas/TrackPointExtension/v1">
            <gpxtpx:hr>118</gpxtpx:hr>
          </gpxtpx:TrackPointExtension>
        </extensions>
      </trkpt>
      <trkpt lat="45.5729" lon="2.80794">
        <ele>1049.8000488281</ele>
        <time>2024-05-26T09:09:27.000Z</time>
        <extensions>
          <gpxtpx:TrackPointExtension xmlns:gpxtpx="http://www.garmin.com/xmlschemas/TrackPointExtension/v1">
            <gpxtpx:hr>114</gpxtpx:hr>
          </gpxtpx:TrackPointExtension>
        </extensions>
      </trkpt>
      <trkpt lat="45.57285" lon="2.80799">
        <ele>1050.4000244141</ele>
        <time>2024-05-26T09:09:29.000Z</time>
        <extensions>
          <gpxtpx:TrackPointExtension xmlns:gpxtpx="http://www.garmin.com/xmlschemas/TrackPointExtension/v1">
            <gpxtpx:hr>110</gpxtpx:hr>
          </gpxtpx:TrackPointExtension>
        </extensions>
      </trkpt>
      <trkpt lat="45.57281" lon="2.80803">
        <ele>1051</ele>
        <time>2024-05-26T09:09:31.000Z</time>
        <extensions>
          <gpxtpx:TrackPointExtension xmlns:gpxtpx="http://www.garmin.com/xmlschemas/TrackPointExtension/v1">
            <gpxtpx:hr>108</gpxtpx:hr>
          </gpxtpx:TrackPointExtension>
        </extensions>
      </trkpt>
      <trkpt lat="45.57269" lon="2.80814">
        <ele>1052</ele>
        <time>2024-05-26T09:09:36.000Z</time>
        <extensions>
          <gpxtpx:TrackPointExtension xmlns:gpxtpx="http://www.garmin.com/xmlschemas/TrackPointExtension/v1">
            <gpxtpx:hr>108</gpxtpx:hr>
          </gpxtpx:TrackPointExtension>
        </extensions>
      </trkpt>
      <trkpt lat="45.57251" lon="2.80835">
        <ele>1051.8000488281</ele>
        <time>2024-05-26T09:09:42.000Z</time>
        <extensions>
          <gpxtpx:TrackPointExtension xmlns:gpxtpx="http://www.garmin.com/xmlschemas/TrackPointExtension/v1">
            <gpxtpx:hr>108</gpxtpx:hr>
          </gpxtpx:TrackPointExtension>
        </extensions>
      </trkpt>
      <trkpt lat="45.57236" lon="2.80854">
        <ele>1051</ele>
        <time>2024-05-26T09:09:46.000Z</time>
        <extensions>
          <gpxtpx:TrackPointExtension xmlns:gpxtpx="http://www.garmin.com/xmlschemas/TrackPointExtension/v1">
            <gpxtpx:hr>105</gpxtpx:hr>
          </gpxtpx:TrackPointExtension>
        </extensions>
      </trkpt>
      <trkpt lat="45.57233" lon="2.80859">
        <ele>1051</ele>
        <time>2024-05-26T09:09:47.000Z</time>
        <extensions>
          <gpxtpx:TrackPointExtension xmlns:gpxtpx="http://www.garmin.com/xmlschemas/TrackPointExtension/v1">
            <gpxtpx:hr>106</gpxtpx:hr>
          </gpxtpx:TrackPointExtension>
        </extensions>
      </trkpt>
      <trkpt lat="45.57224" lon="2.80869">
        <ele>1050.5999755859</ele>
        <time>2024-05-26T09:09:49.000Z</time>
        <extensions>
          <gpxtpx:TrackPointExtension xmlns:gpxtpx="http://www.garmin.com/xmlschemas/TrackPointExtension/v1">
            <gpxtpx:hr>106</gpxtpx:hr>
          </gpxtpx:TrackPointExtension>
        </extensions>
      </trkpt>
      <trkpt lat="45.57203" lon="2.80903">
        <ele>1050.1999511719</ele>
        <time>2024-05-26T09:09:55.000Z</time>
        <extensions>
          <gpxtpx:TrackPointExtension xmlns:gpxtpx="http://www.garmin.com/xmlschemas/TrackPointExtension/v1">
            <gpxtpx:hr>106</gpxtpx:hr>
          </gpxtpx:TrackPointExtension>
        </extensions>
      </trkpt>
      <trkpt lat="45.572" lon="2.80911">
        <ele>1050.1999511719</ele>
        <time>2024-05-26T09:09:56.000Z</time>
        <extensions>
          <gpxtpx:TrackPointExtension xmlns:gpxtpx="http://www.garmin.com/xmlschemas/TrackPointExtension/v1">
            <gpxtpx:hr>109</gpxtpx:hr>
          </gpxtpx:TrackPointExtension>
        </extensions>
      </trkpt>
      <trkpt lat="45.57196" lon="2.80926">
        <ele>1050</ele>
        <time>2024-05-26T09:09:58.000Z</time>
        <extensions>
          <gpxtpx:TrackPointExtension xmlns:gpxtpx="http://www.garmin.com/xmlschemas/TrackPointExtension/v1">
            <gpxtpx:hr>108</gpxtpx:hr>
          </gpxtpx:TrackPointExtension>
        </extensions>
      </trkpt>
      <trkpt lat="45.57195" lon="2.80941">
        <ele>1050</ele>
        <time>2024-05-26T09:10:00.000Z</time>
        <extensions>
          <gpxtpx:TrackPointExtension xmlns:gpxtpx="http://www.garmin.com/xmlschemas/TrackPointExtension/v1">
            <gpxtpx:hr>109</gpxtpx:hr>
          </gpxtpx:TrackPointExtension>
        </extensions>
      </trkpt>
      <trkpt lat="45.57196" lon="2.80948">
        <ele>1050</ele>
        <time>2024-05-26T09:10:01.000Z</time>
        <extensions>
          <gpxtpx:TrackPointExtension xmlns:gpxtpx="http://www.garmin.com/xmlschemas/TrackPointExtension/v1">
            <gpxtpx:hr>110</gpxtpx:hr>
          </gpxtpx:TrackPointExtension>
        </extensions>
      </trkpt>
      <trkpt lat="45.57196" lon="2.80963">
        <ele>1049.8000488281</ele>
        <time>2024-05-26T09:10:03.000Z</time>
        <extensions>
          <gpxtpx:TrackPointExtension xmlns:gpxtpx="http://www.garmin.com/xmlschemas/TrackPointExtension/v1">
            <gpxtpx:hr>112</gpxtpx:hr>
          </gpxtpx:TrackPointExtension>
        </extensions>
      </trkpt>
      <trkpt lat="45.57193" lon="2.80969">
        <ele>1049.8000488281</ele>
        <time>2024-05-26T09:10:04.000Z</time>
        <extensions>
          <gpxtpx:TrackPointExtension xmlns:gpxtpx="http://www.garmin.com/xmlschemas/TrackPointExtension/v1">
            <gpxtpx:hr>113</gpxtpx:hr>
          </gpxtpx:TrackPointExtension>
        </extensions>
      </trkpt>
      <trkpt lat="45.57187" lon="2.80975">
        <ele>1049.5999755859</ele>
        <time>2024-05-26T09:10:06.000Z</time>
        <extensions>
          <gpxtpx:TrackPointExtension xmlns:gpxtpx="http://www.garmin.com/xmlschemas/TrackPointExtension/v1">
            <gpxtpx:hr>114</gpxtpx:hr>
          </gpxtpx:TrackPointExtension>
        </extensions>
      </trkpt>
      <trkpt lat="45.57181" lon="2.80978">
        <ele>1049.5999755859</ele>
        <time>2024-05-26T09:10:07.000Z</time>
        <extensions>
          <gpxtpx:TrackPointExtension xmlns:gpxtpx="http://www.garmin.com/xmlschemas/TrackPointExtension/v1">
            <gpxtpx:hr>114</gpxtpx:hr>
          </gpxtpx:TrackPointExtension>
        </extensions>
      </trkpt>
      <trkpt lat="45.57147" lon="2.80993">
        <ele>1049.4000244141</ele>
        <time>2024-05-26T09:10:14.000Z</time>
        <extensions>
          <gpxtpx:TrackPointExtension xmlns:gpxtpx="http://www.garmin.com/xmlschemas/TrackPointExtension/v1">
            <gpxtpx:hr>114</gpxtpx:hr>
          </gpxtpx:TrackPointExtension>
        </extensions>
      </trkpt>
      <trkpt lat="45.5712" lon="2.8101">
        <ele>1050.5999755859</ele>
        <time>2024-05-26T09:10:21.000Z</time>
        <extensions>
          <gpxtpx:TrackPointExtension xmlns:gpxtpx="http://www.garmin.com/xmlschemas/TrackPointExtension/v1">
            <gpxtpx:hr>112</gpxtpx:hr>
          </gpxtpx:TrackPointExtension>
        </extensions>
      </trkpt>
      <trkpt lat="45.57114" lon="2.81014">
        <ele>1050.8000488281</ele>
        <time>2024-05-26T09:10:23.000Z</time>
        <extensions>
          <gpxtpx:TrackPointExtension xmlns:gpxtpx="http://www.garmin.com/xmlschemas/TrackPointExtension/v1">
            <gpxtpx:hr>111</gpxtpx:hr>
          </gpxtpx:TrackPointExtension>
        </extensions>
      </trkpt>
      <trkpt lat="45.57077" lon="2.8103">
        <ele>1053.8000488281</ele>
        <time>2024-05-26T09:11:15.000Z</time>
        <extensions>
          <gpxtpx:TrackPointExtension xmlns:gpxtpx="http://www.garmin.com/xmlschemas/TrackPointExtension/v1">
            <gpxtpx:hr>112</gpxtpx:hr>
          </gpxtpx:TrackPointExtension>
        </extensions>
      </trkpt>
      <trkpt lat="45.57071" lon="2.81032">
        <ele>1054.4000244141</ele>
        <time>2024-05-26T09:11:17.000Z</time>
        <extensions>
          <gpxtpx:TrackPointExtension xmlns:gpxtpx="http://www.garmin.com/xmlschemas/TrackPointExtension/v1">
            <gpxtpx:hr>113</gpxtpx:hr>
          </gpxtpx:TrackPointExtension>
        </extensions>
      </trkpt>
      <trkpt lat="45.57054" lon="2.81037">
        <ele>1055.4000244141</ele>
        <time>2024-05-26T09:11:22.000Z</time>
        <extensions>
          <gpxtpx:TrackPointExtension xmlns:gpxtpx="http://www.garmin.com/xmlschemas/TrackPointExtension/v1">
            <gpxtpx:hr>113</gpxtpx:hr>
          </gpxtpx:TrackPointExtension>
        </extensions>
      </trkpt>
      <trkpt lat="45.5705" lon="2.81038">
        <ele>1055.5999755859</ele>
        <time>2024-05-26T09:11:23.000Z</time>
        <extensions>
          <gpxtpx:TrackPointExtension xmlns:gpxtpx="http://www.garmin.com/xmlschemas/TrackPointExtension/v1">
            <gpxtpx:hr>112</gpxtpx:hr>
          </gpxtpx:TrackPointExtension>
        </extensions>
      </trkpt>
      <trkpt lat="45.57041" lon="2.81044">
        <ele>1056.4000244141</ele>
        <time>2024-05-26T09:11:26.000Z</time>
        <extensions>
          <gpxtpx:TrackPointExtension xmlns:gpxtpx="http://www.garmin.com/xmlschemas/TrackPointExtension/v1">
            <gpxtpx:hr>113</gpxtpx:hr>
          </gpxtpx:TrackPointExtension>
        </extensions>
      </trkpt>
      <trkpt lat="45.57026" lon="2.81049">
        <ele>1057.5999755859</ele>
        <time>2024-05-26T09:11:30.000Z</time>
        <extensions>
          <gpxtpx:TrackPointExtension xmlns:gpxtpx="http://www.garmin.com/xmlschemas/TrackPointExtension/v1">
            <gpxtpx:hr>112</gpxtpx:hr>
          </gpxtpx:TrackPointExtension>
        </extensions>
      </trkpt>
      <trkpt lat="45.5701" lon="2.81052">
        <ele>1058.5999755859</ele>
        <time>2024-05-26T09:11:34.000Z</time>
        <extensions>
          <gpxtpx:TrackPointExtension xmlns:gpxtpx="http://www.garmin.com/xmlschemas/TrackPointExtension/v1">
            <gpxtpx:hr>111</gpxtpx:hr>
          </gpxtpx:TrackPointExtension>
        </extensions>
      </trkpt>
      <trkpt lat="45.56999" lon="2.81057">
        <ele>1060.1999511719</ele>
        <time>2024-05-26T09:11:37.000Z</time>
        <extensions>
          <gpxtpx:TrackPointExtension xmlns:gpxtpx="http://www.garmin.com/xmlschemas/TrackPointExtension/v1">
            <gpxtpx:hr>112</gpxtpx:hr>
          </gpxtpx:TrackPointExtension>
        </extensions>
      </trkpt>
      <trkpt lat="45.56973" lon="2.81069">
        <ele>1061.4000244141</ele>
        <time>2024-05-26T09:11:44.000Z</time>
        <extensions>
          <gpxtpx:TrackPointExtension xmlns:gpxtpx="http://www.garmin.com/xmlschemas/TrackPointExtension/v1">
            <gpxtpx:hr>114</gpxtpx:hr>
          </gpxtpx:TrackPointExtension>
        </extensions>
      </trkpt>
      <trkpt lat="45.56962" lon="2.81073">
        <ele>1062.1999511719</ele>
        <time>2024-05-26T09:11:47.000Z</time>
        <extensions>
          <gpxtpx:TrackPointExtension xmlns:gpxtpx="http://www.garmin.com/xmlschemas/TrackPointExtension/v1">
            <gpxtpx:hr>114</gpxtpx:hr>
          </gpxtpx:TrackPointExtension>
        </extensions>
      </trkpt>
      <trkpt lat="45.56959" lon="2.81075">
        <ele>1062.4000244141</ele>
        <time>2024-05-26T09:11:48.000Z</time>
        <extensions>
          <gpxtpx:TrackPointExtension xmlns:gpxtpx="http://www.garmin.com/xmlschemas/TrackPointExtension/v1">
            <gpxtpx:hr>115</gpxtpx:hr>
          </gpxtpx:TrackPointExtension>
        </extensions>
      </trkpt>
      <trkpt lat="45.56954" lon="2.81077">
        <ele>1062.5999755859</ele>
        <time>2024-05-26T09:11:50.000Z</time>
        <extensions>
          <gpxtpx:TrackPointExtension xmlns:gpxtpx="http://www.garmin.com/xmlschemas/TrackPointExtension/v1">
            <gpxtpx:hr>118</gpxtpx:hr>
          </gpxtpx:TrackPointExtension>
        </extensions>
      </trkpt>
      <trkpt lat="45.56947" lon="2.8108">
        <ele>1063.1999511719</ele>
        <time>2024-05-26T09:11:52.000Z</time>
        <extensions>
          <gpxtpx:TrackPointExtension xmlns:gpxtpx="http://www.garmin.com/xmlschemas/TrackPointExtension/v1">
            <gpxtpx:hr>117</gpxtpx:hr>
          </gpxtpx:TrackPointExtension>
        </extensions>
      </trkpt>
      <trkpt lat="45.56937" lon="2.81084">
        <ele>1063.5999755859</ele>
        <time>2024-05-26T09:11:55.000Z</time>
        <extensions>
          <gpxtpx:TrackPointExtension xmlns:gpxtpx="http://www.garmin.com/xmlschemas/TrackPointExtension/v1">
            <gpxtpx:hr>117</gpxtpx:hr>
          </gpxtpx:TrackPointExtension>
        </extensions>
      </trkpt>
      <trkpt lat="45.56925" lon="2.81097">
        <ele>1064.1999511719</ele>
        <time>2024-05-26T09:11:59.000Z</time>
        <extensions>
          <gpxtpx:TrackPointExtension xmlns:gpxtpx="http://www.garmin.com/xmlschemas/TrackPointExtension/v1">
            <gpxtpx:hr>117</gpxtpx:hr>
          </gpxtpx:TrackPointExtension>
        </extensions>
      </trkpt>
      <trkpt lat="45.56922" lon="2.81115">
        <ele>1064.1999511719</ele>
        <time>2024-05-26T09:12:02.000Z</time>
        <extensions>
          <gpxtpx:TrackPointExtension xmlns:gpxtpx="http://www.garmin.com/xmlschemas/TrackPointExtension/v1">
            <gpxtpx:hr>117</gpxtpx:hr>
          </gpxtpx:TrackPointExtension>
        </extensions>
      </trkpt>
      <trkpt lat="45.56922" lon="2.81122">
        <ele>1064</ele>
        <time>2024-05-26T09:12:03.000Z</time>
        <extensions>
          <gpxtpx:TrackPointExtension xmlns:gpxtpx="http://www.garmin.com/xmlschemas/TrackPointExtension/v1">
            <gpxtpx:hr>117</gpxtpx:hr>
          </gpxtpx:TrackPointExtension>
        </extensions>
      </trkpt>
      <trkpt lat="45.56922" lon="2.81136">
        <ele>1063.5999755859</ele>
        <time>2024-05-26T09:12:05.000Z</time>
        <extensions>
          <gpxtpx:TrackPointExtension xmlns:gpxtpx="http://www.garmin.com/xmlschemas/TrackPointExtension/v1">
            <gpxtpx:hr>117</gpxtpx:hr>
          </gpxtpx:TrackPointExtension>
        </extensions>
      </trkpt>
      <trkpt lat="45.56924" lon="2.81159">
        <ele>1063</ele>
        <time>2024-05-26T09:12:08.000Z</time>
        <extensions>
          <gpxtpx:TrackPointExtension xmlns:gpxtpx="http://www.garmin.com/xmlschemas/TrackPointExtension/v1">
            <gpxtpx:hr>118</gpxtpx:hr>
          </gpxtpx:TrackPointExtension>
        </extensions>
      </trkpt>
      <trkpt lat="45.56921" lon="2.81174">
        <ele>1063</ele>
        <time>2024-05-26T09:12:10.000Z</time>
        <extensions>
          <gpxtpx:TrackPointExtension xmlns:gpxtpx="http://www.garmin.com/xmlschemas/TrackPointExtension/v1">
            <gpxtpx:hr>118</gpxtpx:hr>
          </gpxtpx:TrackPointExtension>
        </extensions>
      </trkpt>
      <trkpt lat="45.56918" lon="2.81179">
        <ele>1063</ele>
        <time>2024-05-26T09:12:11.000Z</time>
        <extensions>
          <gpxtpx:TrackPointExtension xmlns:gpxtpx="http://www.garmin.com/xmlschemas/TrackPointExtension/v1">
            <gpxtpx:hr>118</gpxtpx:hr>
          </gpxtpx:TrackPointExtension>
        </extensions>
      </trkpt>
      <trkpt lat="45.56914" lon="2.81182">
        <ele>1063.1999511719</ele>
        <time>2024-05-26T09:12:12.000Z</time>
        <extensions>
          <gpxtpx:TrackPointExtension xmlns:gpxtpx="http://www.garmin.com/xmlschemas/TrackPointExtension/v1">
            <gpxtpx:hr>118</gpxtpx:hr>
          </gpxtpx:TrackPointExtension>
        </extensions>
      </trkpt>
      <trkpt lat="45.56906" lon="2.81185">
        <ele>1063.8000488281</ele>
        <time>2024-05-26T09:12:14.000Z</time>
        <extensions>
          <gpxtpx:TrackPointExtension xmlns:gpxtpx="http://www.garmin.com/xmlschemas/TrackPointExtension/v1">
            <gpxtpx:hr>117</gpxtpx:hr>
          </gpxtpx:TrackPointExtension>
        </extensions>
      </trkpt>
      <trkpt lat="45.56894" lon="2.81187">
        <ele>1064.8000488281</ele>
        <time>2024-05-26T09:12:18.000Z</time>
        <extensions>
          <gpxtpx:TrackPointExtension xmlns:gpxtpx="http://www.garmin.com/xmlschemas/TrackPointExtension/v1">
            <gpxtpx:hr>116</gpxtpx:hr>
          </gpxtpx:TrackPointExtension>
        </extensions>
      </trkpt>
      <trkpt lat="45.56892" lon="2.81187">
        <ele>1065</ele>
        <time>2024-05-26T09:12:19.000Z</time>
        <extensions>
          <gpxtpx:TrackPointExtension xmlns:gpxtpx="http://www.garmin.com/xmlschemas/TrackPointExtension/v1">
            <gpxtpx:hr>117</gpxtpx:hr>
          </gpxtpx:TrackPointExtension>
        </extensions>
      </trkpt>
      <trkpt lat="45.56883" lon="2.81189">
        <ele>1066</ele>
        <time>2024-05-26T09:12:23.000Z</time>
        <extensions>
          <gpxtpx:TrackPointExtension xmlns:gpxtpx="http://www.garmin.com/xmlschemas/TrackPointExtension/v1">
            <gpxtpx:hr>119</gpxtpx:hr>
          </gpxtpx:TrackPointExtension>
        </extensions>
      </trkpt>
      <trkpt lat="45.56879" lon="2.81191">
        <ele>1066.1999511719</ele>
        <time>2024-05-26T09:12:25.000Z</time>
        <extensions>
          <gpxtpx:TrackPointExtension xmlns:gpxtpx="http://www.garmin.com/xmlschemas/TrackPointExtension/v1">
            <gpxtpx:hr>119</gpxtpx:hr>
          </gpxtpx:TrackPointExtension>
        </extensions>
      </trkpt>
      <trkpt lat="45.56877" lon="2.81191">
        <ele>1066.4000244141</ele>
        <time>2024-05-26T09:12:26.000Z</time>
        <extensions>
          <gpxtpx:TrackPointExtension xmlns:gpxtpx="http://www.garmin.com/xmlschemas/TrackPointExtension/v1">
            <gpxtpx:hr>119</gpxtpx:hr>
          </gpxtpx:TrackPointExtension>
        </extensions>
      </trkpt>
      <trkpt lat="45.56868" lon="2.81195">
        <ele>1067.1999511719</ele>
        <time>2024-05-26T09:12:30.000Z</time>
        <extensions>
          <gpxtpx:TrackPointExtension xmlns:gpxtpx="http://www.garmin.com/xmlschemas/TrackPointExtension/v1">
            <gpxtpx:hr>119</gpxtpx:hr>
          </gpxtpx:TrackPointExtension>
        </extensions>
      </trkpt>
      <trkpt lat="45.56857" lon="2.81196">
        <ele>1068.4000244141</ele>
        <time>2024-05-26T09:12:35.000Z</time>
        <extensions>
          <gpxtpx:TrackPointExtension xmlns:gpxtpx="http://www.garmin.com/xmlschemas/TrackPointExtension/v1">
            <gpxtpx:hr>118</gpxtpx:hr>
          </gpxtpx:TrackPointExtension>
        </extensions>
      </trkpt>
      <trkpt lat="45.56851" lon="2.81197">
        <ele>1069.4000244141</ele>
        <time>2024-05-26T09:12:39.000Z</time>
        <extensions>
          <gpxtpx:TrackPointExtension xmlns:gpxtpx="http://www.garmin.com/xmlschemas/TrackPointExtension/v1">
            <gpxtpx:hr>118</gpxtpx:hr>
          </gpxtpx:TrackPointExtension>
        </extensions>
      </trkpt>
      <trkpt lat="45.56844" lon="2.81198">
        <ele>1070.1999511719</ele>
        <time>2024-05-26T09:12:43.000Z</time>
        <extensions>
          <gpxtpx:TrackPointExtension xmlns:gpxtpx="http://www.garmin.com/xmlschemas/TrackPointExtension/v1">
            <gpxtpx:hr>120</gpxtpx:hr>
          </gpxtpx:TrackPointExtension>
        </extensions>
      </trkpt>
      <trkpt lat="45.56841" lon="2.81199">
        <ele>1070.5999755859</ele>
        <time>2024-05-26T09:12:45.000Z</time>
        <extensions>
          <gpxtpx:TrackPointExtension xmlns:gpxtpx="http://www.garmin.com/xmlschemas/TrackPointExtension/v1">
            <gpxtpx:hr>121</gpxtpx:hr>
          </gpxtpx:TrackPointExtension>
        </extensions>
      </trkpt>
      <trkpt lat="45.56833" lon="2.81201">
        <ele>1071.5999755859</ele>
        <time>2024-05-26T09:12:50.000Z</time>
        <extensions>
          <gpxtpx:TrackPointExtension xmlns:gpxtpx="http://www.garmin.com/xmlschemas/TrackPointExtension/v1">
            <gpxtpx:hr>122</gpxtpx:hr>
          </gpxtpx:TrackPointExtension>
        </extensions>
      </trkpt>
      <trkpt lat="45.56827" lon="2.81202">
        <ele>1072.1999511719</ele>
        <time>2024-05-26T09:12:53.000Z</time>
        <extensions>
          <gpxtpx:TrackPointExtension xmlns:gpxtpx="http://www.garmin.com/xmlschemas/TrackPointExtension/v1">
            <gpxtpx:hr>121</gpxtpx:hr>
          </gpxtpx:TrackPointExtension>
        </extensions>
      </trkpt>
      <trkpt lat="45.56821" lon="2.81203">
        <ele>1072.8000488281</ele>
        <time>2024-05-26T09:12:56.000Z</time>
        <extensions>
          <gpxtpx:TrackPointExtension xmlns:gpxtpx="http://www.garmin.com/xmlschemas/TrackPointExtension/v1">
            <gpxtpx:hr>121</gpxtpx:hr>
          </gpxtpx:TrackPointExtension>
        </extensions>
      </trkpt>
      <trkpt lat="45.5681" lon="2.81206">
        <ele>1073.8000488281</ele>
        <time>2024-05-26T09:13:02.000Z</time>
        <extensions>
          <gpxtpx:TrackPointExtension xmlns:gpxtpx="http://www.garmin.com/xmlschemas/TrackPointExtension/v1">
            <gpxtpx:hr>121</gpxtpx:hr>
          </gpxtpx:TrackPointExtension>
        </extensions>
      </trkpt>
      <trkpt lat="45.56807" lon="2.81208">
        <ele>1074</ele>
        <time>2024-05-26T09:13:04.000Z</time>
        <extensions>
          <gpxtpx:TrackPointExtension xmlns:gpxtpx="http://www.garmin.com/xmlschemas/TrackPointExtension/v1">
            <gpxtpx:hr>120</gpxtpx:hr>
          </gpxtpx:TrackPointExtension>
        </extensions>
      </trkpt>
      <trkpt lat="45.56802" lon="2.81208">
        <ele>1074.8000488281</ele>
        <time>2024-05-26T09:13:07.000Z</time>
        <extensions>
          <gpxtpx:TrackPointExtension xmlns:gpxtpx="http://www.garmin.com/xmlschemas/TrackPointExtension/v1">
            <gpxtpx:hr>120</gpxtpx:hr>
          </gpxtpx:TrackPointExtension>
        </extensions>
      </trkpt>
      <trkpt lat="45.56797" lon="2.8121">
        <ele>1075.5999755859</ele>
        <time>2024-05-26T09:13:10.000Z</time>
        <extensions>
          <gpxtpx:TrackPointExtension xmlns:gpxtpx="http://www.garmin.com/xmlschemas/TrackPointExtension/v1">
            <gpxtpx:hr>119</gpxtpx:hr>
          </gpxtpx:TrackPointExtension>
        </extensions>
      </trkpt>
      <trkpt lat="45.56792" lon="2.81212">
        <ele>1075.8000488281</ele>
        <time>2024-05-26T09:13:13.000Z</time>
        <extensions>
          <gpxtpx:TrackPointExtension xmlns:gpxtpx="http://www.garmin.com/xmlschemas/TrackPointExtension/v1">
            <gpxtpx:hr>119</gpxtpx:hr>
          </gpxtpx:TrackPointExtension>
        </extensions>
      </trkpt>
      <trkpt lat="45.56789" lon="2.81213">
        <ele>1076.5999755859</ele>
        <time>2024-05-26T09:13:15.000Z</time>
        <extensions>
          <gpxtpx:TrackPointExtension xmlns:gpxtpx="http://www.garmin.com/xmlschemas/TrackPointExtension/v1">
            <gpxtpx:hr>120</gpxtpx:hr>
          </gpxtpx:TrackPointExtension>
        </extensions>
      </trkpt>
      <trkpt lat="45.56786" lon="2.81216">
        <ele>1077</ele>
        <time>2024-05-26T09:13:17.000Z</time>
        <extensions>
          <gpxtpx:TrackPointExtension xmlns:gpxtpx="http://www.garmin.com/xmlschemas/TrackPointExtension/v1">
            <gpxtpx:hr>120</gpxtpx:hr>
          </gpxtpx:TrackPointExtension>
        </extensions>
      </trkpt>
      <trkpt lat="45.56782" lon="2.81219">
        <ele>1078</ele>
        <time>2024-05-26T09:13:20.000Z</time>
        <extensions>
          <gpxtpx:TrackPointExtension xmlns:gpxtpx="http://www.garmin.com/xmlschemas/TrackPointExtension/v1">
            <gpxtpx:hr>120</gpxtpx:hr>
          </gpxtpx:TrackPointExtension>
        </extensions>
      </trkpt>
      <trkpt lat="45.56781" lon="2.8122">
        <ele>1078.1999511719</ele>
        <time>2024-05-26T09:13:21.000Z</time>
        <extensions>
          <gpxtpx:TrackPointExtension xmlns:gpxtpx="http://www.garmin.com/xmlschemas/TrackPointExtension/v1">
            <gpxtpx:hr>120</gpxtpx:hr>
          </gpxtpx:TrackPointExtension>
        </extensions>
      </trkpt>
      <trkpt lat="45.56779" lon="2.81222">
        <ele>1079</ele>
        <time>2024-05-26T09:13:23.000Z</time>
        <extensions>
          <gpxtpx:TrackPointExtension xmlns:gpxtpx="http://www.garmin.com/xmlschemas/TrackPointExtension/v1">
            <gpxtpx:hr>119</gpxtpx:hr>
          </gpxtpx:TrackPointExtension>
        </extensions>
      </trkpt>
      <trkpt lat="45.56777" lon="2.81223">
        <ele>1079.1999511719</ele>
        <time>2024-05-26T09:13:25.000Z</time>
        <extensions>
          <gpxtpx:TrackPointExtension xmlns:gpxtpx="http://www.garmin.com/xmlschemas/TrackPointExtension/v1">
            <gpxtpx:hr>118</gpxtpx:hr>
          </gpxtpx:TrackPointExtension>
        </extensions>
      </trkpt>
      <trkpt lat="45.56771" lon="2.81228">
        <ele>1080.1999511719</ele>
        <time>2024-05-26T09:13:29.000Z</time>
        <extensions>
          <gpxtpx:TrackPointExtension xmlns:gpxtpx="http://www.garmin.com/xmlschemas/TrackPointExtension/v1">
            <gpxtpx:hr>117</gpxtpx:hr>
          </gpxtpx:TrackPointExtension>
        </extensions>
      </trkpt>
      <trkpt lat="45.56768" lon="2.81231">
        <ele>1081.4000244141</ele>
        <time>2024-05-26T09:13:31.000Z</time>
        <extensions>
          <gpxtpx:TrackPointExtension xmlns:gpxtpx="http://www.garmin.com/xmlschemas/TrackPointExtension/v1">
            <gpxtpx:hr>117</gpxtpx:hr>
          </gpxtpx:TrackPointExtension>
        </extensions>
      </trkpt>
      <trkpt lat="45.56767" lon="2.81232">
        <ele>1081.4000244141</ele>
        <time>2024-05-26T09:13:32.000Z</time>
        <extensions>
          <gpxtpx:TrackPointExtension xmlns:gpxtpx="http://www.garmin.com/xmlschemas/TrackPointExtension/v1">
            <gpxtpx:hr>117</gpxtpx:hr>
          </gpxtpx:TrackPointExtension>
        </extensions>
      </trkpt>
      <trkpt lat="45.5676" lon="2.81243">
        <ele>1082</ele>
        <time>2024-05-26T09:13:38.000Z</time>
        <extensions>
          <gpxtpx:TrackPointExtension xmlns:gpxtpx="http://www.garmin.com/xmlschemas/TrackPointExtension/v1">
            <gpxtpx:hr>117</gpxtpx:hr>
          </gpxtpx:TrackPointExtension>
        </extensions>
      </trkpt>
      <trkpt lat="45.56756" lon="2.81251">
        <ele>1082.4000244141</ele>
        <time>2024-05-26T09:13:42.000Z</time>
        <extensions>
          <gpxtpx:TrackPointExtension xmlns:gpxtpx="http://www.garmin.com/xmlschemas/TrackPointExtension/v1">
            <gpxtpx:hr>117</gpxtpx:hr>
          </gpxtpx:TrackPointExtension>
        </extensions>
      </trkpt>
      <trkpt lat="45.56755" lon="2.81253">
        <ele>1082.5999755859</ele>
        <time>2024-05-26T09:13:43.000Z</time>
        <extensions>
          <gpxtpx:TrackPointExtension xmlns:gpxtpx="http://www.garmin.com/xmlschemas/TrackPointExtension/v1">
            <gpxtpx:hr>118</gpxtpx:hr>
          </gpxtpx:TrackPointExtension>
        </extensions>
      </trkpt>
      <trkpt lat="45.56753" lon="2.81254">
        <ele>1083</ele>
        <time>2024-05-26T09:13:44.000Z</time>
        <extensions>
          <gpxtpx:TrackPointExtension xmlns:gpxtpx="http://www.garmin.com/xmlschemas/TrackPointExtension/v1">
            <gpxtpx:hr>118</gpxtpx:hr>
          </gpxtpx:TrackPointExtension>
        </extensions>
      </trkpt>
      <trkpt lat="45.56752" lon="2.81255">
        <ele>1083.4000244141</ele>
        <time>2024-05-26T09:13:45.000Z</time>
        <extensions>
          <gpxtpx:TrackPointExtension xmlns:gpxtpx="http://www.garmin.com/xmlschemas/TrackPointExtension/v1">
            <gpxtpx:hr>118</gpxtpx:hr>
          </gpxtpx:TrackPointExtension>
        </extensions>
      </trkpt>
      <trkpt lat="45.56751" lon="2.81258">
        <ele>1083.5999755859</ele>
        <time>2024-05-26T09:13:46.000Z</time>
        <extensions>
          <gpxtpx:TrackPointExtension xmlns:gpxtpx="http://www.garmin.com/xmlschemas/TrackPointExtension/v1">
            <gpxtpx:hr>119</gpxtpx:hr>
          </gpxtpx:TrackPointExtension>
        </extensions>
      </trkpt>
      <trkpt lat="45.56749" lon="2.81263">
        <ele>1084.1999511719</ele>
        <time>2024-05-26T09:13:49.000Z</time>
        <extensions>
          <gpxtpx:TrackPointExtension xmlns:gpxtpx="http://www.garmin.com/xmlschemas/TrackPointExtension/v1">
            <gpxtpx:hr>121</gpxtpx:hr>
          </gpxtpx:TrackPointExtension>
        </extensions>
      </trkpt>
      <trkpt lat="45.56747" lon="2.81266">
        <ele>1084.5999755859</ele>
        <time>2024-05-26T09:13:51.000Z</time>
        <extensions>
          <gpxtpx:TrackPointExtension xmlns:gpxtpx="http://www.garmin.com/xmlschemas/TrackPointExtension/v1">
            <gpxtpx:hr>122</gpxtpx:hr>
          </gpxtpx:TrackPointExtension>
        </extensions>
      </trkpt>
      <trkpt lat="45.56747" lon="2.8127">
        <ele>1084.5999755859</ele>
        <time>2024-05-26T09:13:53.000Z</time>
        <extensions>
          <gpxtpx:TrackPointExtension xmlns:gpxtpx="http://www.garmin.com/xmlschemas/TrackPointExtension/v1">
            <gpxtpx:hr>121</gpxtpx:hr>
          </gpxtpx:TrackPointExtension>
        </extensions>
      </trkpt>
      <trkpt lat="45.56747" lon="2.81275">
        <ele>1085</ele>
        <time>2024-05-26T09:13:55.000Z</time>
        <extensions>
          <gpxtpx:TrackPointExtension xmlns:gpxtpx="http://www.garmin.com/xmlschemas/TrackPointExtension/v1">
            <gpxtpx:hr>123</gpxtpx:hr>
          </gpxtpx:TrackPointExtension>
        </extensions>
      </trkpt>
      <trkpt lat="45.56748" lon="2.81281">
        <ele>1085.4000244141</ele>
        <time>2024-05-26T09:13:58.000Z</time>
        <extensions>
          <gpxtpx:TrackPointExtension xmlns:gpxtpx="http://www.garmin.com/xmlschemas/TrackPointExtension/v1">
            <gpxtpx:hr>122</gpxtpx:hr>
          </gpxtpx:TrackPointExtension>
        </extensions>
      </trkpt>
      <trkpt lat="45.56743" lon="2.81281">
        <ele>1085.5999755859</ele>
        <time>2024-05-26T09:14:00.000Z</time>
        <extensions>
          <gpxtpx:TrackPointExtension xmlns:gpxtpx="http://www.garmin.com/xmlschemas/TrackPointExtension/v1">
            <gpxtpx:hr>122</gpxtpx:hr>
          </gpxtpx:TrackPointExtension>
        </extensions>
      </trkpt>
      <trkpt lat="45.56741" lon="2.81281">
        <ele>1085.5999755859</ele>
        <time>2024-05-26T09:14:01.000Z</time>
        <extensions>
          <gpxtpx:TrackPointExtension xmlns:gpxtpx="http://www.garmin.com/xmlschemas/TrackPointExtension/v1">
            <gpxtpx:hr>122</gpxtpx:hr>
          </gpxtpx:TrackPointExtension>
        </extensions>
      </trkpt>
      <trkpt lat="45.56739" lon="2.81282">
        <ele>1086</ele>
        <time>2024-05-26T09:14:03.000Z</time>
        <extensions>
          <gpxtpx:TrackPointExtension xmlns:gpxtpx="http://www.garmin.com/xmlschemas/TrackPointExtension/v1">
            <gpxtpx:hr>119</gpxtpx:hr>
          </gpxtpx:TrackPointExtension>
        </extensions>
      </trkpt>
      <trkpt lat="45.56735" lon="2.81288">
        <ele>1086.8000488281</ele>
        <time>2024-05-26T09:14:06.000Z</time>
        <extensions>
          <gpxtpx:TrackPointExtension xmlns:gpxtpx="http://www.garmin.com/xmlschemas/TrackPointExtension/v1">
            <gpxtpx:hr>117</gpxtpx:hr>
          </gpxtpx:TrackPointExtension>
        </extensions>
      </trkpt>
      <trkpt lat="45.5673" lon="2.81299">
        <ele>1087.8000488281</ele>
        <time>2024-05-26T09:14:11.000Z</time>
        <extensions>
          <gpxtpx:TrackPointExtension xmlns:gpxtpx="http://www.garmin.com/xmlschemas/TrackPointExtension/v1">
            <gpxtpx:hr>115</gpxtpx:hr>
          </gpxtpx:TrackPointExtension>
        </extensions>
      </trkpt>
      <trkpt lat="45.56725" lon="2.81313">
        <ele>1088.8000488281</ele>
        <time>2024-05-26T09:14:17.000Z</time>
        <extensions>
          <gpxtpx:TrackPointExtension xmlns:gpxtpx="http://www.garmin.com/xmlschemas/TrackPointExtension/v1">
            <gpxtpx:hr>115</gpxtpx:hr>
          </gpxtpx:TrackPointExtension>
        </extensions>
      </trkpt>
      <trkpt lat="45.56724" lon="2.81322">
        <ele>1089.8000488281</ele>
        <time>2024-05-26T09:14:21.000Z</time>
        <extensions>
          <gpxtpx:TrackPointExtension xmlns:gpxtpx="http://www.garmin.com/xmlschemas/TrackPointExtension/v1">
            <gpxtpx:hr>116</gpxtpx:hr>
          </gpxtpx:TrackPointExtension>
        </extensions>
      </trkpt>
      <trkpt lat="45.56724" lon="2.81324">
        <ele>1089.8000488281</ele>
        <time>2024-05-26T09:14:22.000Z</time>
        <extensions>
          <gpxtpx:TrackPointExtension xmlns:gpxtpx="http://www.garmin.com/xmlschemas/TrackPointExtension/v1">
            <gpxtpx:hr>116</gpxtpx:hr>
          </gpxtpx:TrackPointExtension>
        </extensions>
      </trkpt>
      <trkpt lat="45.56728" lon="2.81342">
        <ele>1091</ele>
        <time>2024-05-26T09:14:28.000Z</time>
        <extensions>
          <gpxtpx:TrackPointExtension xmlns:gpxtpx="http://www.garmin.com/xmlschemas/TrackPointExtension/v1">
            <gpxtpx:hr>117</gpxtpx:hr>
          </gpxtpx:TrackPointExtension>
        </extensions>
      </trkpt>
      <trkpt lat="45.56733" lon="2.81348">
        <ele>1091.8000488281</ele>
        <time>2024-05-26T09:14:31.000Z</time>
        <extensions>
          <gpxtpx:TrackPointExtension xmlns:gpxtpx="http://www.garmin.com/xmlschemas/TrackPointExtension/v1">
            <gpxtpx:hr>118</gpxtpx:hr>
          </gpxtpx:TrackPointExtension>
        </extensions>
      </trkpt>
      <trkpt lat="45.56735" lon="2.8135">
        <ele>1092.1999511719</ele>
        <time>2024-05-26T09:14:32.000Z</time>
        <extensions>
          <gpxtpx:TrackPointExtension xmlns:gpxtpx="http://www.garmin.com/xmlschemas/TrackPointExtension/v1">
            <gpxtpx:hr>118</gpxtpx:hr>
          </gpxtpx:TrackPointExtension>
        </extensions>
      </trkpt>
      <trkpt lat="45.56744" lon="2.81351">
        <ele>1092.4000244141</ele>
        <time>2024-05-26T09:14:36.000Z</time>
        <extensions>
          <gpxtpx:TrackPointExtension xmlns:gpxtpx="http://www.garmin.com/xmlschemas/TrackPointExtension/v1">
            <gpxtpx:hr>119</gpxtpx:hr>
          </gpxtpx:TrackPointExtension>
        </extensions>
      </trkpt>
      <trkpt lat="45.56763" lon="2.81342">
        <ele>1091.1999511719</ele>
        <time>2024-05-26T09:14:41.000Z</time>
        <extensions>
          <gpxtpx:TrackPointExtension xmlns:gpxtpx="http://www.garmin.com/xmlschemas/TrackPointExtension/v1">
            <gpxtpx:hr>118</gpxtpx:hr>
          </gpxtpx:TrackPointExtension>
        </extensions>
      </trkpt>
      <trkpt lat="45.56766" lon="2.81343">
        <ele>1091</ele>
        <time>2024-05-26T09:14:42.000Z</time>
        <extensions>
          <gpxtpx:TrackPointExtension xmlns:gpxtpx="http://www.garmin.com/xmlschemas/TrackPointExtension/v1">
            <gpxtpx:hr>117</gpxtpx:hr>
          </gpxtpx:TrackPointExtension>
        </extensions>
      </trkpt>
      <trkpt lat="45.5677" lon="2.81347">
        <ele>1090.5999755859</ele>
        <time>2024-05-26T09:14:43.000Z</time>
        <extensions>
          <gpxtpx:TrackPointExtension xmlns:gpxtpx="http://www.garmin.com/xmlschemas/TrackPointExtension/v1">
            <gpxtpx:hr>117</gpxtpx:hr>
          </gpxtpx:TrackPointExtension>
        </extensions>
      </trkpt>
      <trkpt lat="45.56772" lon="2.81351">
        <ele>1090</ele>
        <time>2024-05-26T09:14:44.000Z</time>
        <extensions>
          <gpxtpx:TrackPointExtension xmlns:gpxtpx="http://www.garmin.com/xmlschemas/TrackPointExtension/v1">
            <gpxtpx:hr>117</gpxtpx:hr>
          </gpxtpx:TrackPointExtension>
        </extensions>
      </trkpt>
      <trkpt lat="45.56779" lon="2.81374">
        <ele>1089.8000488281</ele>
        <time>2024-05-26T09:14:48.000Z</time>
        <extensions>
          <gpxtpx:TrackPointExtension xmlns:gpxtpx="http://www.garmin.com/xmlschemas/TrackPointExtension/v1">
            <gpxtpx:hr>118</gpxtpx:hr>
          </gpxtpx:TrackPointExtension>
        </extensions>
      </trkpt>
      <trkpt lat="45.56781" lon="2.81379">
        <ele>1090</ele>
        <time>2024-05-26T09:14:49.000Z</time>
        <extensions>
          <gpxtpx:TrackPointExtension xmlns:gpxtpx="http://www.garmin.com/xmlschemas/TrackPointExtension/v1">
            <gpxtpx:hr>118</gpxtpx:hr>
          </gpxtpx:TrackPointExtension>
        </extensions>
      </trkpt>
      <trkpt lat="45.56786" lon="2.81388">
        <ele>1090.4000244141</ele>
        <time>2024-05-26T09:14:51.000Z</time>
        <extensions>
          <gpxtpx:TrackPointExtension xmlns:gpxtpx="http://www.garmin.com/xmlschemas/TrackPointExtension/v1">
            <gpxtpx:hr>119</gpxtpx:hr>
          </gpxtpx:TrackPointExtension>
        </extensions>
      </trkpt>
      <trkpt lat="45.56793" lon="2.81395">
        <ele>1090.8000488281</ele>
        <time>2024-05-26T09:14:53.000Z</time>
        <extensions>
          <gpxtpx:TrackPointExtension xmlns:gpxtpx="http://www.garmin.com/xmlschemas/TrackPointExtension/v1">
            <gpxtpx:hr>119</gpxtpx:hr>
          </gpxtpx:TrackPointExtension>
        </extensions>
      </trkpt>
      <trkpt lat="45.56797" lon="2.81397">
        <ele>1091.4000244141</ele>
        <time>2024-05-26T09:14:54.000Z</time>
        <extensions>
          <gpxtpx:TrackPointExtension xmlns:gpxtpx="http://www.garmin.com/xmlschemas/TrackPointExtension/v1">
            <gpxtpx:hr>119</gpxtpx:hr>
          </gpxtpx:TrackPointExtension>
        </extensions>
      </trkpt>
      <trkpt lat="45.56804" lon="2.814">
        <ele>1092</ele>
        <time>2024-05-26T09:14:56.000Z</time>
        <extensions>
          <gpxtpx:TrackPointExtension xmlns:gpxtpx="http://www.garmin.com/xmlschemas/TrackPointExtension/v1">
            <gpxtpx:hr>119</gpxtpx:hr>
          </gpxtpx:TrackPointExtension>
        </extensions>
      </trkpt>
      <trkpt lat="45.56807" lon="2.814">
        <ele>1092.5999755859</ele>
        <time>2024-05-26T09:14:57.000Z</time>
        <extensions>
          <gpxtpx:TrackPointExtension xmlns:gpxtpx="http://www.garmin.com/xmlschemas/TrackPointExtension/v1">
            <gpxtpx:hr>119</gpxtpx:hr>
          </gpxtpx:TrackPointExtension>
        </extensions>
      </trkpt>
      <trkpt lat="45.56812" lon="2.81399">
        <ele>1093</ele>
        <time>2024-05-26T09:14:58.000Z</time>
        <extensions>
          <gpxtpx:TrackPointExtension xmlns:gpxtpx="http://www.garmin.com/xmlschemas/TrackPointExtension/v1">
            <gpxtpx:hr>119</gpxtpx:hr>
          </gpxtpx:TrackPointExtension>
        </extensions>
      </trkpt>
      <trkpt lat="45.56833" lon="2.8139">
        <ele>1093.4000244141</ele>
        <time>2024-05-26T09:15:04.000Z</time>
        <extensions>
          <gpxtpx:TrackPointExtension xmlns:gpxtpx="http://www.garmin.com/xmlschemas/TrackPointExtension/v1">
            <gpxtpx:hr>117</gpxtpx:hr>
          </gpxtpx:TrackPointExtension>
        </extensions>
      </trkpt>
      <trkpt lat="45.5684" lon="2.81388">
        <ele>1093.5999755859</ele>
        <time>2024-05-26T09:15:06.000Z</time>
        <extensions>
          <gpxtpx:TrackPointExtension xmlns:gpxtpx="http://www.garmin.com/xmlschemas/TrackPointExtension/v1">
            <gpxtpx:hr>114</gpxtpx:hr>
          </gpxtpx:TrackPointExtension>
        </extensions>
      </trkpt>
      <trkpt lat="45.56844" lon="2.81387">
        <ele>1093.5999755859</ele>
        <time>2024-05-26T09:15:07.000Z</time>
        <extensions>
          <gpxtpx:TrackPointExtension xmlns:gpxtpx="http://www.garmin.com/xmlschemas/TrackPointExtension/v1">
            <gpxtpx:hr>116</gpxtpx:hr>
          </gpxtpx:TrackPointExtension>
        </extensions>
      </trkpt>
      <trkpt lat="45.56854" lon="2.81381">
        <ele>1094.1999511719</ele>
        <time>2024-05-26T09:15:10.000Z</time>
        <extensions>
          <gpxtpx:TrackPointExtension xmlns:gpxtpx="http://www.garmin.com/xmlschemas/TrackPointExtension/v1">
            <gpxtpx:hr>115</gpxtpx:hr>
          </gpxtpx:TrackPointExtension>
        </extensions>
      </trkpt>
      <trkpt lat="45.56869" lon="2.8138">
        <ele>1094.8000488281</ele>
        <time>2024-05-26T09:15:14.000Z</time>
        <extensions>
          <gpxtpx:TrackPointExtension xmlns:gpxtpx="http://www.garmin.com/xmlschemas/TrackPointExtension/v1">
            <gpxtpx:hr>115</gpxtpx:hr>
          </gpxtpx:TrackPointExtension>
        </extensions>
      </trkpt>
      <trkpt lat="45.56875" lon="2.81383">
        <ele>1095</ele>
        <time>2024-05-26T09:15:16.000Z</time>
        <extensions>
          <gpxtpx:TrackPointExtension xmlns:gpxtpx="http://www.garmin.com/xmlschemas/TrackPointExtension/v1">
            <gpxtpx:hr>115</gpxtpx:hr>
          </gpxtpx:TrackPointExtension>
        </extensions>
      </trkpt>
      <trkpt lat="45.56885" lon="2.81396">
        <ele>1096</ele>
        <time>2024-05-26T09:15:20.000Z</time>
        <extensions>
          <gpxtpx:TrackPointExtension xmlns:gpxtpx="http://www.garmin.com/xmlschemas/TrackPointExtension/v1">
            <gpxtpx:hr>116</gpxtpx:hr>
          </gpxtpx:TrackPointExtension>
        </extensions>
      </trkpt>
      <trkpt lat="45.56888" lon="2.81403">
        <ele>1096.1999511719</ele>
        <time>2024-05-26T09:15:22.000Z</time>
        <extensions>
          <gpxtpx:TrackPointExtension xmlns:gpxtpx="http://www.garmin.com/xmlschemas/TrackPointExtension/v1">
            <gpxtpx:hr>117</gpxtpx:hr>
          </gpxtpx:TrackPointExtension>
        </extensions>
      </trkpt>
      <trkpt lat="45.56889" lon="2.81415">
        <ele>1097</ele>
        <time>2024-05-26T09:15:26.000Z</time>
        <extensions>
          <gpxtpx:TrackPointExtension xmlns:gpxtpx="http://www.garmin.com/xmlschemas/TrackPointExtension/v1">
            <gpxtpx:hr>119</gpxtpx:hr>
          </gpxtpx:TrackPointExtension>
        </extensions>
      </trkpt>
      <trkpt lat="45.56889" lon="2.81417">
        <ele>1097.1999511719</ele>
        <time>2024-05-26T09:15:27.000Z</time>
        <extensions>
          <gpxtpx:TrackPointExtension xmlns:gpxtpx="http://www.garmin.com/xmlschemas/TrackPointExtension/v1">
            <gpxtpx:hr>120</gpxtpx:hr>
          </gpxtpx:TrackPointExtension>
        </extensions>
      </trkpt>
      <trkpt lat="45.56888" lon="2.8143">
        <ele>1098.1999511719</ele>
        <time>2024-05-26T09:15:31.000Z</time>
        <extensions>
          <gpxtpx:TrackPointExtension xmlns:gpxtpx="http://www.garmin.com/xmlschemas/TrackPointExtension/v1">
            <gpxtpx:hr>121</gpxtpx:hr>
          </gpxtpx:TrackPointExtension>
        </extensions>
      </trkpt>
      <trkpt lat="45.56886" lon="2.81439">
        <ele>1098.8000488281</ele>
        <time>2024-05-26T09:15:34.000Z</time>
        <extensions>
          <gpxtpx:TrackPointExtension xmlns:gpxtpx="http://www.garmin.com/xmlschemas/TrackPointExtension/v1">
            <gpxtpx:hr>122</gpxtpx:hr>
          </gpxtpx:TrackPointExtension>
        </extensions>
      </trkpt>
      <trkpt lat="45.56884" lon="2.81444">
        <ele>1099.1999511719</ele>
        <time>2024-05-26T09:15:36.000Z</time>
        <extensions>
          <gpxtpx:TrackPointExtension xmlns:gpxtpx="http://www.garmin.com/xmlschemas/TrackPointExtension/v1">
            <gpxtpx:hr>122</gpxtpx:hr>
          </gpxtpx:TrackPointExtension>
        </extensions>
      </trkpt>
      <trkpt lat="45.5688" lon="2.8145">
        <ele>1100</ele>
        <time>2024-05-26T09:15:39.000Z</time>
        <extensions>
          <gpxtpx:TrackPointExtension xmlns:gpxtpx="http://www.garmin.com/xmlschemas/TrackPointExtension/v1">
            <gpxtpx:hr>123</gpxtpx:hr>
          </gpxtpx:TrackPointExtension>
        </extensions>
      </trkpt>
      <trkpt lat="45.56877" lon="2.81452">
        <ele>1100.4000244141</ele>
        <time>2024-05-26T09:15:41.000Z</time>
        <extensions>
          <gpxtpx:TrackPointExtension xmlns:gpxtpx="http://www.garmin.com/xmlschemas/TrackPointExtension/v1">
            <gpxtpx:hr>123</gpxtpx:hr>
          </gpxtpx:TrackPointExtension>
        </extensions>
      </trkpt>
      <trkpt lat="45.56867" lon="2.81456">
        <ele>1101.1999511719</ele>
        <time>2024-05-26T09:15:46.000Z</time>
        <extensions>
          <gpxtpx:TrackPointExtension xmlns:gpxtpx="http://www.garmin.com/xmlschemas/TrackPointExtension/v1">
            <gpxtpx:hr>121</gpxtpx:hr>
          </gpxtpx:TrackPointExtension>
        </extensions>
      </trkpt>
      <trkpt lat="45.56863" lon="2.81456">
        <ele>1101.5999755859</ele>
        <time>2024-05-26T09:15:48.000Z</time>
        <extensions>
          <gpxtpx:TrackPointExtension xmlns:gpxtpx="http://www.garmin.com/xmlschemas/TrackPointExtension/v1">
            <gpxtpx:hr>121</gpxtpx:hr>
          </gpxtpx:TrackPointExtension>
        </extensions>
      </trkpt>
      <trkpt lat="45.56855" lon="2.81458">
        <ele>1102</ele>
        <time>2024-05-26T09:15:51.000Z</time>
        <extensions>
          <gpxtpx:TrackPointExtension xmlns:gpxtpx="http://www.garmin.com/xmlschemas/TrackPointExtension/v1">
            <gpxtpx:hr>123</gpxtpx:hr>
          </gpxtpx:TrackPointExtension>
        </extensions>
      </trkpt>
      <trkpt lat="45.56851" lon="2.81457">
        <ele>1102.4000244141</ele>
        <time>2024-05-26T09:15:53.000Z</time>
        <extensions>
          <gpxtpx:TrackPointExtension xmlns:gpxtpx="http://www.garmin.com/xmlschemas/TrackPointExtension/v1">
            <gpxtpx:hr>123</gpxtpx:hr>
          </gpxtpx:TrackPointExtension>
        </extensions>
      </trkpt>
      <trkpt lat="45.5685" lon="2.81457">
        <ele>1102.5999755859</ele>
        <time>2024-05-26T09:15:55.000Z</time>
        <extensions>
          <gpxtpx:TrackPointExtension xmlns:gpxtpx="http://www.garmin.com/xmlschemas/TrackPointExtension/v1">
            <gpxtpx:hr>123</gpxtpx:hr>
          </gpxtpx:TrackPointExtension>
        </extensions>
      </trkpt>
      <trkpt lat="45.5685" lon="2.81457">
        <ele>1103</ele>
        <time>2024-05-26T09:16:01.000Z</time>
        <extensions>
          <gpxtpx:TrackPointExtension xmlns:gpxtpx="http://www.garmin.com/xmlschemas/TrackPointExtension/v1">
            <gpxtpx:hr>120</gpxtpx:hr>
          </gpxtpx:TrackPointExtension>
        </extensions>
      </trkpt>
      <trkpt lat="45.5685" lon="2.81457">
        <ele>1103</ele>
        <time>2024-05-26T09:16:03.000Z</time>
        <extensions>
          <gpxtpx:TrackPointExtension xmlns:gpxtpx="http://www.garmin.com/xmlschemas/TrackPointExtension/v1">
            <gpxtpx:hr>120</gpxtpx:hr>
          </gpxtpx:TrackPointExtension>
        </extensions>
      </trkpt>
      <trkpt lat="45.5685" lon="2.81457">
        <ele>1103</ele>
        <time>2024-05-26T09:16:06.000Z</time>
        <extensions>
          <gpxtpx:TrackPointExtension xmlns:gpxtpx="http://www.garmin.com/xmlschemas/TrackPointExtension/v1">
            <gpxtpx:hr>117</gpxtpx:hr>
          </gpxtpx:TrackPointExtension>
        </extensions>
      </trkpt>
      <trkpt lat="45.5685" lon="2.81457">
        <ele>1102.8000488281</ele>
        <time>2024-05-26T09:16:10.000Z</time>
        <extensions>
          <gpxtpx:TrackPointExtension xmlns:gpxtpx="http://www.garmin.com/xmlschemas/TrackPointExtension/v1">
            <gpxtpx:hr>114</gpxtpx:hr>
          </gpxtpx:TrackPointExtension>
        </extensions>
      </trkpt>
      <trkpt lat="45.5685" lon="2.81457">
        <ele>1102.8000488281</ele>
        <time>2024-05-26T09:16:13.000Z</time>
        <extensions>
          <gpxtpx:TrackPointExtension xmlns:gpxtpx="http://www.garmin.com/xmlschemas/TrackPointExtension/v1">
            <gpxtpx:hr>111</gpxtpx:hr>
          </gpxtpx:TrackPointExtension>
        </extensions>
      </trkpt>
      <trkpt lat="45.5685" lon="2.81457">
        <ele>1103</ele>
        <time>2024-05-26T09:16:16.000Z</time>
        <extensions>
          <gpxtpx:TrackPointExtension xmlns:gpxtpx="http://www.garmin.com/xmlschemas/TrackPointExtension/v1">
            <gpxtpx:hr>110</gpxtpx:hr>
          </gpxtpx:TrackPointExtension>
        </extensions>
      </trkpt>
      <trkpt lat="45.5685" lon="2.81457">
        <ele>1103.5999755859</ele>
        <time>2024-05-26T09:16:23.000Z</time>
        <extensions>
          <gpxtpx:TrackPointExtension xmlns:gpxtpx="http://www.garmin.com/xmlschemas/TrackPointExtension/v1">
            <gpxtpx:hr>108</gpxtpx:hr>
          </gpxtpx:TrackPointExtension>
        </extensions>
      </trkpt>
      <trkpt lat="45.5685" lon="2.81457">
        <ele>1103.5999755859</ele>
        <time>2024-05-26T09:16:27.000Z</time>
        <extensions>
          <gpxtpx:TrackPointExtension xmlns:gpxtpx="http://www.garmin.com/xmlschemas/TrackPointExtension/v1">
            <gpxtpx:hr>105</gpxtpx:hr>
          </gpxtpx:TrackPointExtension>
        </extensions>
      </trkpt>
      <trkpt lat="45.5685" lon="2.81457">
        <ele>1103.5999755859</ele>
        <time>2024-05-26T09:16:29.000Z</time>
        <extensions>
          <gpxtpx:TrackPointExtension xmlns:gpxtpx="http://www.garmin.com/xmlschemas/TrackPointExtension/v1">
            <gpxtpx:hr>105</gpxtpx:hr>
          </gpxtpx:TrackPointExtension>
        </extensions>
      </trkpt>
      <trkpt lat="45.56843" lon="2.81456">
        <ele>1103.5999755859</ele>
        <time>2024-05-26T09:16:36.000Z</time>
        <extensions>
          <gpxtpx:TrackPointExtension xmlns:gpxtpx="http://www.garmin.com/xmlschemas/TrackPointExtension/v1">
            <gpxtpx:hr>108</gpxtpx:hr>
          </gpxtpx:TrackPointExtension>
        </extensions>
      </trkpt>
      <trkpt lat="45.56841" lon="2.81454">
        <ele>1103.5999755859</ele>
        <time>2024-05-26T09:16:37.000Z</time>
        <extensions>
          <gpxtpx:TrackPointExtension xmlns:gpxtpx="http://www.garmin.com/xmlschemas/TrackPointExtension/v1">
            <gpxtpx:hr>107</gpxtpx:hr>
          </gpxtpx:TrackPointExtension>
        </extensions>
      </trkpt>
      <trkpt lat="45.56833" lon="2.81446">
        <ele>1104.4000244141</ele>
        <time>2024-05-26T09:16:42.000Z</time>
        <extensions>
          <gpxtpx:TrackPointExtension xmlns:gpxtpx="http://www.garmin.com/xmlschemas/TrackPointExtension/v1">
            <gpxtpx:hr>107</gpxtpx:hr>
          </gpxtpx:TrackPointExtension>
        </extensions>
      </trkpt>
      <trkpt lat="45.56832" lon="2.81445">
        <ele>1104.5999755859</ele>
        <time>2024-05-26T09:16:43.000Z</time>
        <extensions>
          <gpxtpx:TrackPointExtension xmlns:gpxtpx="http://www.garmin.com/xmlschemas/TrackPointExtension/v1">
            <gpxtpx:hr>107</gpxtpx:hr>
          </gpxtpx:TrackPointExtension>
        </extensions>
      </trkpt>
      <trkpt lat="45.56817" lon="2.81438">
        <ele>1105.5999755859</ele>
        <time>2024-05-26T09:16:52.000Z</time>
        <extensions>
          <gpxtpx:TrackPointExtension xmlns:gpxtpx="http://www.garmin.com/xmlschemas/TrackPointExtension/v1">
            <gpxtpx:hr>107</gpxtpx:hr>
          </gpxtpx:TrackPointExtension>
        </extensions>
      </trkpt>
      <trkpt lat="45.56816" lon="2.81437">
        <ele>1105.5999755859</ele>
        <time>2024-05-26T09:16:53.000Z</time>
        <extensions>
          <gpxtpx:TrackPointExtension xmlns:gpxtpx="http://www.garmin.com/xmlschemas/TrackPointExtension/v1">
            <gpxtpx:hr>107</gpxtpx:hr>
          </gpxtpx:TrackPointExtension>
        </extensions>
      </trkpt>
      <trkpt lat="45.56808" lon="2.8144">
        <ele>1106.5999755859</ele>
        <time>2024-05-26T09:16:58.000Z</time>
        <extensions>
          <gpxtpx:TrackPointExtension xmlns:gpxtpx="http://www.garmin.com/xmlschemas/TrackPointExtension/v1">
            <gpxtpx:hr>109</gpxtpx:hr>
          </gpxtpx:TrackPointExtension>
        </extensions>
      </trkpt>
      <trkpt lat="45.56804" lon="2.81444">
        <ele>1107.1999511719</ele>
        <time>2024-05-26T09:17:01.000Z</time>
        <extensions>
          <gpxtpx:TrackPointExtension xmlns:gpxtpx="http://www.garmin.com/xmlschemas/TrackPointExtension/v1">
            <gpxtpx:hr>110</gpxtpx:hr>
          </gpxtpx:TrackPointExtension>
        </extensions>
      </trkpt>
      <trkpt lat="45.568" lon="2.81448">
        <ele>1107.8000488281</ele>
        <time>2024-05-26T09:17:04.000Z</time>
        <extensions>
          <gpxtpx:TrackPointExtension xmlns:gpxtpx="http://www.garmin.com/xmlschemas/TrackPointExtension/v1">
            <gpxtpx:hr>110</gpxtpx:hr>
          </gpxtpx:TrackPointExtension>
        </extensions>
      </trkpt>
      <trkpt lat="45.56798" lon="2.81456">
        <ele>1108.1999511719</ele>
        <time>2024-05-26T09:17:07.000Z</time>
        <extensions>
          <gpxtpx:TrackPointExtension xmlns:gpxtpx="http://www.garmin.com/xmlschemas/TrackPointExtension/v1">
            <gpxtpx:hr>114</gpxtpx:hr>
          </gpxtpx:TrackPointExtension>
        </extensions>
      </trkpt>
      <trkpt lat="45.56798" lon="2.81458">
        <ele>1108.1999511719</ele>
        <time>2024-05-26T09:17:08.000Z</time>
        <extensions>
          <gpxtpx:TrackPointExtension xmlns:gpxtpx="http://www.garmin.com/xmlschemas/TrackPointExtension/v1">
            <gpxtpx:hr>113</gpxtpx:hr>
          </gpxtpx:TrackPointExtension>
        </extensions>
      </trkpt>
      <trkpt lat="45.56797" lon="2.81463">
        <ele>1108.8000488281</ele>
        <time>2024-05-26T09:17:10.000Z</time>
        <extensions>
          <gpxtpx:TrackPointExtension xmlns:gpxtpx="http://www.garmin.com/xmlschemas/TrackPointExtension/v1">
            <gpxtpx:hr>110</gpxtpx:hr>
          </gpxtpx:TrackPointExtension>
        </extensions>
      </trkpt>
      <trkpt lat="45.56797" lon="2.81466">
        <ele>1108.8000488281</ele>
        <time>2024-05-26T09:17:11.000Z</time>
        <extensions>
          <gpxtpx:TrackPointExtension xmlns:gpxtpx="http://www.garmin.com/xmlschemas/TrackPointExtension/v1">
            <gpxtpx:hr>109</gpxtpx:hr>
          </gpxtpx:TrackPointExtension>
        </extensions>
      </trkpt>
      <trkpt lat="45.56798" lon="2.81475">
        <ele>1109.4000244141</ele>
        <time>2024-05-26T09:17:15.000Z</time>
        <extensions>
          <gpxtpx:TrackPointExtension xmlns:gpxtpx="http://www.garmin.com/xmlschemas/TrackPointExtension/v1">
            <gpxtpx:hr>110</gpxtpx:hr>
          </gpxtpx:TrackPointExtension>
        </extensions>
      </trkpt>
      <trkpt lat="45.56799" lon="2.81481">
        <ele>1110</ele>
        <time>2024-05-26T09:17:18.000Z</time>
        <extensions>
          <gpxtpx:TrackPointExtension xmlns:gpxtpx="http://www.garmin.com/xmlschemas/TrackPointExtension/v1">
            <gpxtpx:hr>110</gpxtpx:hr>
          </gpxtpx:TrackPointExtension>
        </extensions>
      </trkpt>
      <trkpt lat="45.56802" lon="2.81488">
        <ele>1110.5999755859</ele>
        <time>2024-05-26T09:17:21.000Z</time>
        <extensions>
          <gpxtpx:TrackPointExtension xmlns:gpxtpx="http://www.garmin.com/xmlschemas/TrackPointExtension/v1">
            <gpxtpx:hr>106</gpxtpx:hr>
          </gpxtpx:TrackPointExtension>
        </extensions>
      </trkpt>
      <trkpt lat="45.56804" lon="2.81491">
        <ele>1110.8000488281</ele>
        <time>2024-05-26T09:17:22.000Z</time>
        <extensions>
          <gpxtpx:TrackPointExtension xmlns:gpxtpx="http://www.garmin.com/xmlschemas/TrackPointExtension/v1">
            <gpxtpx:hr>110</gpxtpx:hr>
          </gpxtpx:TrackPointExtension>
        </extensions>
      </trkpt>
      <trkpt lat="45.56805" lon="2.81493">
        <ele>1111</ele>
        <time>2024-05-26T09:17:23.000Z</time>
        <extensions>
          <gpxtpx:TrackPointExtension xmlns:gpxtpx="http://www.garmin.com/xmlschemas/TrackPointExtension/v1">
            <gpxtpx:hr>110</gpxtpx:hr>
          </gpxtpx:TrackPointExtension>
        </extensions>
      </trkpt>
      <trkpt lat="45.56805" lon="2.81495">
        <ele>1111.1999511719</ele>
        <time>2024-05-26T09:17:24.000Z</time>
        <extensions>
          <gpxtpx:TrackPointExtension xmlns:gpxtpx="http://www.garmin.com/xmlschemas/TrackPointExtension/v1">
            <gpxtpx:hr>110</gpxtpx:hr>
          </gpxtpx:TrackPointExtension>
        </extensions>
      </trkpt>
      <trkpt lat="45.56811" lon="2.815">
        <ele>1112.1999511719</ele>
        <time>2024-05-26T09:17:29.000Z</time>
        <extensions>
          <gpxtpx:TrackPointExtension xmlns:gpxtpx="http://www.garmin.com/xmlschemas/TrackPointExtension/v1">
            <gpxtpx:hr>109</gpxtpx:hr>
          </gpxtpx:TrackPointExtension>
        </extensions>
      </trkpt>
      <trkpt lat="45.56813" lon="2.81501">
        <ele>1112.4000244141</ele>
        <time>2024-05-26T09:17:30.000Z</time>
        <extensions>
          <gpxtpx:TrackPointExtension xmlns:gpxtpx="http://www.garmin.com/xmlschemas/TrackPointExtension/v1">
            <gpxtpx:hr>109</gpxtpx:hr>
          </gpxtpx:TrackPointExtension>
        </extensions>
      </trkpt>
      <trkpt lat="45.56825" lon="2.81504">
        <ele>1113.1999511719</ele>
        <time>2024-05-26T09:17:36.000Z</time>
        <extensions>
          <gpxtpx:TrackPointExtension xmlns:gpxtpx="http://www.garmin.com/xmlschemas/TrackPointExtension/v1">
            <gpxtpx:hr>110</gpxtpx:hr>
          </gpxtpx:TrackPointExtension>
        </extensions>
      </trkpt>
      <trkpt lat="45.56827" lon="2.81504">
        <ele>1113.5999755859</ele>
        <time>2024-05-26T09:17:37.000Z</time>
        <extensions>
          <gpxtpx:TrackPointExtension xmlns:gpxtpx="http://www.garmin.com/xmlschemas/TrackPointExtension/v1">
            <gpxtpx:hr>110</gpxtpx:hr>
          </gpxtpx:TrackPointExtension>
        </extensions>
      </trkpt>
      <trkpt lat="45.5683" lon="2.81504">
        <ele>1114</ele>
        <time>2024-05-26T09:17:39.000Z</time>
        <extensions>
          <gpxtpx:TrackPointExtension xmlns:gpxtpx="http://www.garmin.com/xmlschemas/TrackPointExtension/v1">
            <gpxtpx:hr>114</gpxtpx:hr>
          </gpxtpx:TrackPointExtension>
        </extensions>
      </trkpt>
      <trkpt lat="45.56832" lon="2.81504">
        <ele>1114.1999511719</ele>
        <time>2024-05-26T09:17:40.000Z</time>
        <extensions>
          <gpxtpx:TrackPointExtension xmlns:gpxtpx="http://www.garmin.com/xmlschemas/TrackPointExtension/v1">
            <gpxtpx:hr>110</gpxtpx:hr>
          </gpxtpx:TrackPointExtension>
        </extensions>
      </trkpt>
      <trkpt lat="45.56834" lon="2.81504">
        <ele>1114.4000244141</ele>
        <time>2024-05-26T09:17:41.000Z</time>
        <extensions>
          <gpxtpx:TrackPointExtension xmlns:gpxtpx="http://www.garmin.com/xmlschemas/TrackPointExtension/v1">
            <gpxtpx:hr>110</gpxtpx:hr>
          </gpxtpx:TrackPointExtension>
        </extensions>
      </trkpt>
      <trkpt lat="45.56843" lon="2.81506">
        <ele>1115</ele>
        <time>2024-05-26T09:17:45.000Z</time>
        <extensions>
          <gpxtpx:TrackPointExtension xmlns:gpxtpx="http://www.garmin.com/xmlschemas/TrackPointExtension/v1">
            <gpxtpx:hr>110</gpxtpx:hr>
          </gpxtpx:TrackPointExtension>
        </extensions>
      </trkpt>
      <trkpt lat="45.56846" lon="2.81506">
        <ele>1115.4000244141</ele>
        <time>2024-05-26T09:17:47.000Z</time>
        <extensions>
          <gpxtpx:TrackPointExtension xmlns:gpxtpx="http://www.garmin.com/xmlschemas/TrackPointExtension/v1">
            <gpxtpx:hr>111</gpxtpx:hr>
          </gpxtpx:TrackPointExtension>
        </extensions>
      </trkpt>
      <trkpt lat="45.56856" lon="2.81503">
        <ele>1116.4000244141</ele>
        <time>2024-05-26T09:17:53.000Z</time>
        <extensions>
          <gpxtpx:TrackPointExtension xmlns:gpxtpx="http://www.garmin.com/xmlschemas/TrackPointExtension/v1">
            <gpxtpx:hr>111</gpxtpx:hr>
          </gpxtpx:TrackPointExtension>
        </extensions>
      </trkpt>
      <trkpt lat="45.56858" lon="2.81502">
        <ele>1116.5999755859</ele>
        <time>2024-05-26T09:17:54.000Z</time>
        <extensions>
          <gpxtpx:TrackPointExtension xmlns:gpxtpx="http://www.garmin.com/xmlschemas/TrackPointExtension/v1">
            <gpxtpx:hr>111</gpxtpx:hr>
          </gpxtpx:TrackPointExtension>
        </extensions>
      </trkpt>
      <trkpt lat="45.56867" lon="2.8149">
        <ele>1117.1999511719</ele>
        <time>2024-05-26T09:18:00.000Z</time>
        <extensions>
          <gpxtpx:TrackPointExtension xmlns:gpxtpx="http://www.garmin.com/xmlschemas/TrackPointExtension/v1">
            <gpxtpx:hr>112</gpxtpx:hr>
          </gpxtpx:TrackPointExtension>
        </extensions>
      </trkpt>
      <trkpt lat="45.56868" lon="2.8149">
        <ele>1117.4000244141</ele>
        <time>2024-05-26T09:18:01.000Z</time>
        <extensions>
          <gpxtpx:TrackPointExtension xmlns:gpxtpx="http://www.garmin.com/xmlschemas/TrackPointExtension/v1">
            <gpxtpx:hr>111</gpxtpx:hr>
          </gpxtpx:TrackPointExtension>
        </extensions>
      </trkpt>
      <trkpt lat="45.5687" lon="2.81488">
        <ele>1117.5999755859</ele>
        <time>2024-05-26T09:18:02.000Z</time>
        <extensions>
          <gpxtpx:TrackPointExtension xmlns:gpxtpx="http://www.garmin.com/xmlschemas/TrackPointExtension/v1">
            <gpxtpx:hr>112</gpxtpx:hr>
          </gpxtpx:TrackPointExtension>
        </extensions>
      </trkpt>
      <trkpt lat="45.56871" lon="2.81487">
        <ele>1117.5999755859</ele>
        <time>2024-05-26T09:18:03.000Z</time>
        <extensions>
          <gpxtpx:TrackPointExtension xmlns:gpxtpx="http://www.garmin.com/xmlschemas/TrackPointExtension/v1">
            <gpxtpx:hr>113</gpxtpx:hr>
          </gpxtpx:TrackPointExtension>
        </extensions>
      </trkpt>
      <trkpt lat="45.56872" lon="2.81487">
        <ele>1117.8000488281</ele>
        <time>2024-05-26T09:18:04.000Z</time>
        <extensions>
          <gpxtpx:TrackPointExtension xmlns:gpxtpx="http://www.garmin.com/xmlschemas/TrackPointExtension/v1">
            <gpxtpx:hr>113</gpxtpx:hr>
          </gpxtpx:TrackPointExtension>
        </extensions>
      </trkpt>
      <trkpt lat="45.56883" lon="2.81482">
        <ele>1118.5999755859</ele>
        <time>2024-05-26T09:18:10.000Z</time>
        <extensions>
          <gpxtpx:TrackPointExtension xmlns:gpxtpx="http://www.garmin.com/xmlschemas/TrackPointExtension/v1">
            <gpxtpx:hr>116</gpxtpx:hr>
          </gpxtpx:TrackPointExtension>
        </extensions>
      </trkpt>
      <trkpt lat="45.56885" lon="2.81481">
        <ele>1118.8000488281</ele>
        <time>2024-05-26T09:18:11.000Z</time>
        <extensions>
          <gpxtpx:TrackPointExtension xmlns:gpxtpx="http://www.garmin.com/xmlschemas/TrackPointExtension/v1">
            <gpxtpx:hr>116</gpxtpx:hr>
          </gpxtpx:TrackPointExtension>
        </extensions>
      </trkpt>
      <trkpt lat="45.56899" lon="2.81481">
        <ele>1119.8000488281</ele>
        <time>2024-05-26T09:18:18.000Z</time>
        <extensions>
          <gpxtpx:TrackPointExtension xmlns:gpxtpx="http://www.garmin.com/xmlschemas/TrackPointExtension/v1">
            <gpxtpx:hr>116</gpxtpx:hr>
          </gpxtpx:TrackPointExtension>
        </extensions>
      </trkpt>
      <trkpt lat="45.56912" lon="2.81485">
        <ele>1120.8000488281</ele>
        <time>2024-05-26T09:19:49.000Z</time>
        <extensions>
          <gpxtpx:TrackPointExtension xmlns:gpxtpx="http://www.garmin.com/xmlschemas/TrackPointExtension/v1">
            <gpxtpx:hr>79</gpxtpx:hr>
          </gpxtpx:TrackPointExtension>
        </extensions>
      </trkpt>
      <trkpt lat="45.56914" lon="2.81485">
        <ele>1121</ele>
        <time>2024-05-26T09:19:50.000Z</time>
        <extensions>
          <gpxtpx:TrackPointExtension xmlns:gpxtpx="http://www.garmin.com/xmlschemas/TrackPointExtension/v1">
            <gpxtpx:hr>79</gpxtpx:hr>
          </gpxtpx:TrackPointExtension>
        </extensions>
      </trkpt>
      <trkpt lat="45.56926" lon="2.81491">
        <ele>1122</ele>
        <time>2024-05-26T09:19:55.000Z</time>
        <extensions>
          <gpxtpx:TrackPointExtension xmlns:gpxtpx="http://www.garmin.com/xmlschemas/TrackPointExtension/v1">
            <gpxtpx:hr>80</gpxtpx:hr>
          </gpxtpx:TrackPointExtension>
        </extensions>
      </trkpt>
      <trkpt lat="45.56929" lon="2.81492">
        <ele>1122.1999511719</ele>
        <time>2024-05-26T09:19:56.000Z</time>
        <extensions>
          <gpxtpx:TrackPointExtension xmlns:gpxtpx="http://www.garmin.com/xmlschemas/TrackPointExtension/v1">
            <gpxtpx:hr>80</gpxtpx:hr>
          </gpxtpx:TrackPointExtension>
        </extensions>
      </trkpt>
      <trkpt lat="45.56947" lon="2.81498">
        <ele>1123</ele>
        <time>2024-05-26T09:20:01.000Z</time>
        <extensions>
          <gpxtpx:TrackPointExtension xmlns:gpxtpx="http://www.garmin.com/xmlschemas/TrackPointExtension/v1">
            <gpxtpx:hr>80</gpxtpx:hr>
          </gpxtpx:TrackPointExtension>
        </extensions>
      </trkpt>
      <trkpt lat="45.56952" lon="2.81499">
        <ele>1123.1999511719</ele>
        <time>2024-05-26T09:20:02.000Z</time>
        <extensions>
          <gpxtpx:TrackPointExtension xmlns:gpxtpx="http://www.garmin.com/xmlschemas/TrackPointExtension/v1">
            <gpxtpx:hr>81</gpxtpx:hr>
          </gpxtpx:TrackPointExtension>
        </extensions>
      </trkpt>
      <trkpt lat="45.56956" lon="2.81499">
        <ele>1123.5999755859</ele>
        <time>2024-05-26T09:20:03.000Z</time>
        <extensions>
          <gpxtpx:TrackPointExtension xmlns:gpxtpx="http://www.garmin.com/xmlschemas/TrackPointExtension/v1">
            <gpxtpx:hr>81</gpxtpx:hr>
          </gpxtpx:TrackPointExtension>
        </extensions>
      </trkpt>
      <trkpt lat="45.56961" lon="2.81499">
        <ele>1124.1999511719</ele>
        <time>2024-05-26T09:20:04.000Z</time>
        <extensions>
          <gpxtpx:TrackPointExtension xmlns:gpxtpx="http://www.garmin.com/xmlschemas/TrackPointExtension/v1">
            <gpxtpx:hr>83</gpxtpx:hr>
          </gpxtpx:TrackPointExtension>
        </extensions>
      </trkpt>
      <trkpt lat="45.56975" lon="2.81496">
        <ele>1125</ele>
        <time>2024-05-26T09:20:07.000Z</time>
        <extensions>
          <gpxtpx:TrackPointExtension xmlns:gpxtpx="http://www.garmin.com/xmlschemas/TrackPointExtension/v1">
            <gpxtpx:hr>88</gpxtpx:hr>
          </gpxtpx:TrackPointExtension>
        </extensions>
      </trkpt>
      <trkpt lat="45.56979" lon="2.81495">
        <ele>1125.4000244141</ele>
        <time>2024-05-26T09:20:08.000Z</time>
        <extensions>
          <gpxtpx:TrackPointExtension xmlns:gpxtpx="http://www.garmin.com/xmlschemas/TrackPointExtension/v1">
            <gpxtpx:hr>92</gpxtpx:hr>
          </gpxtpx:TrackPointExtension>
        </extensions>
      </trkpt>
      <trkpt lat="45.5699" lon="2.81494">
        <ele>1126</ele>
        <time>2024-05-26T09:20:10.000Z</time>
        <extensions>
          <gpxtpx:TrackPointExtension xmlns:gpxtpx="http://www.garmin.com/xmlschemas/TrackPointExtension/v1">
            <gpxtpx:hr>99</gpxtpx:hr>
          </gpxtpx:TrackPointExtension>
        </extensions>
      </trkpt>
      <trkpt lat="45.56995" lon="2.81494">
        <ele>1126.1999511719</ele>
        <time>2024-05-26T09:20:11.000Z</time>
        <extensions>
          <gpxtpx:TrackPointExtension xmlns:gpxtpx="http://www.garmin.com/xmlschemas/TrackPointExtension/v1">
            <gpxtpx:hr>102</gpxtpx:hr>
          </gpxtpx:TrackPointExtension>
        </extensions>
      </trkpt>
      <trkpt lat="45.57001" lon="2.81495">
        <ele>1127</ele>
        <time>2024-05-26T09:20:12.000Z</time>
        <extensions>
          <gpxtpx:TrackPointExtension xmlns:gpxtpx="http://www.garmin.com/xmlschemas/TrackPointExtension/v1">
            <gpxtpx:hr>104</gpxtpx:hr>
          </gpxtpx:TrackPointExtension>
        </extensions>
      </trkpt>
      <trkpt lat="45.57011" lon="2.81495">
        <ele>1128.4000244141</ele>
        <time>2024-05-26T09:20:14.000Z</time>
        <extensions>
          <gpxtpx:TrackPointExtension xmlns:gpxtpx="http://www.garmin.com/xmlschemas/TrackPointExtension/v1">
            <gpxtpx:hr>106</gpxtpx:hr>
          </gpxtpx:TrackPointExtension>
        </extensions>
      </trkpt>
      <trkpt lat="45.57028" lon="2.81493">
        <ele>1129.5999755859</ele>
        <time>2024-05-26T09:20:17.000Z</time>
        <extensions>
          <gpxtpx:TrackPointExtension xmlns:gpxtpx="http://www.garmin.com/xmlschemas/TrackPointExtension/v1">
            <gpxtpx:hr>107</gpxtpx:hr>
          </gpxtpx:TrackPointExtension>
        </extensions>
      </trkpt>
      <trkpt lat="45.57038" lon="2.81492">
        <ele>1130.8000488281</ele>
        <time>2024-05-26T09:20:19.000Z</time>
        <extensions>
          <gpxtpx:TrackPointExtension xmlns:gpxtpx="http://www.garmin.com/xmlschemas/TrackPointExtension/v1">
            <gpxtpx:hr>108</gpxtpx:hr>
          </gpxtpx:TrackPointExtension>
        </extensions>
      </trkpt>
      <trkpt lat="45.57044" lon="2.81491">
        <ele>1131.1999511719</ele>
        <time>2024-05-26T09:20:20.000Z</time>
        <extensions>
          <gpxtpx:TrackPointExtension xmlns:gpxtpx="http://www.garmin.com/xmlschemas/TrackPointExtension/v1">
            <gpxtpx:hr>108</gpxtpx:hr>
          </gpxtpx:TrackPointExtension>
        </extensions>
      </trkpt>
      <trkpt lat="45.57049" lon="2.81491">
        <ele>1132.1999511719</ele>
        <time>2024-05-26T09:20:21.000Z</time>
        <extensions>
          <gpxtpx:TrackPointExtension xmlns:gpxtpx="http://www.garmin.com/xmlschemas/TrackPointExtension/v1">
            <gpxtpx:hr>108</gpxtpx:hr>
          </gpxtpx:TrackPointExtension>
        </extensions>
      </trkpt>
      <trkpt lat="45.57071" lon="2.81489">
        <ele>1133.4000244141</ele>
        <time>2024-05-26T09:20:25.000Z</time>
        <extensions>
          <gpxtpx:TrackPointExtension xmlns:gpxtpx="http://www.garmin.com/xmlschemas/TrackPointExtension/v1">
            <gpxtpx:hr>108</gpxtpx:hr>
          </gpxtpx:TrackPointExtension>
        </extensions>
      </trkpt>
      <trkpt lat="45.57081" lon="2.81488">
        <ele>1134.4000244141</ele>
        <time>2024-05-26T09:20:27.000Z</time>
        <extensions>
          <gpxtpx:TrackPointExtension xmlns:gpxtpx="http://www.garmin.com/xmlschemas/TrackPointExtension/v1">
            <gpxtpx:hr>108</gpxtpx:hr>
          </gpxtpx:TrackPointExtension>
        </extensions>
      </trkpt>
      <trkpt lat="45.57087" lon="2.81488">
        <ele>1134.8000488281</ele>
        <time>2024-05-26T09:20:28.000Z</time>
        <extensions>
          <gpxtpx:TrackPointExtension xmlns:gpxtpx="http://www.garmin.com/xmlschemas/TrackPointExtension/v1">
            <gpxtpx:hr>107</gpxtpx:hr>
          </gpxtpx:TrackPointExtension>
        </extensions>
      </trkpt>
      <trkpt lat="45.57097" lon="2.81485">
        <ele>1135.5999755859</ele>
        <time>2024-05-26T09:20:30.000Z</time>
        <extensions>
          <gpxtpx:TrackPointExtension xmlns:gpxtpx="http://www.garmin.com/xmlschemas/TrackPointExtension/v1">
            <gpxtpx:hr>106</gpxtpx:hr>
          </gpxtpx:TrackPointExtension>
        </extensions>
      </trkpt>
      <trkpt lat="45.57108" lon="2.81484">
        <ele>1136.8000488281</ele>
        <time>2024-05-26T09:20:32.000Z</time>
        <extensions>
          <gpxtpx:TrackPointExtension xmlns:gpxtpx="http://www.garmin.com/xmlschemas/TrackPointExtension/v1">
            <gpxtpx:hr>105</gpxtpx:hr>
          </gpxtpx:TrackPointExtension>
        </extensions>
      </trkpt>
      <trkpt lat="45.57113" lon="2.81483">
        <ele>1137.4000244141</ele>
        <time>2024-05-26T09:20:33.000Z</time>
        <extensions>
          <gpxtpx:TrackPointExtension xmlns:gpxtpx="http://www.garmin.com/xmlschemas/TrackPointExtension/v1">
            <gpxtpx:hr>105</gpxtpx:hr>
          </gpxtpx:TrackPointExtension>
        </extensions>
      </trkpt>
      <trkpt lat="45.57118" lon="2.81482">
        <ele>1138</ele>
        <time>2024-05-26T09:20:34.000Z</time>
        <extensions>
          <gpxtpx:TrackPointExtension xmlns:gpxtpx="http://www.garmin.com/xmlschemas/TrackPointExtension/v1">
            <gpxtpx:hr>105</gpxtpx:hr>
          </gpxtpx:TrackPointExtension>
        </extensions>
      </trkpt>
      <trkpt lat="45.57128" lon="2.8148">
        <ele>1139.1999511719</ele>
        <time>2024-05-26T09:20:36.000Z</time>
        <extensions>
          <gpxtpx:TrackPointExtension xmlns:gpxtpx="http://www.garmin.com/xmlschemas/TrackPointExtension/v1">
            <gpxtpx:hr>104</gpxtpx:hr>
          </gpxtpx:TrackPointExtension>
        </extensions>
      </trkpt>
      <trkpt lat="45.57134" lon="2.81479">
        <ele>1139.8000488281</ele>
        <time>2024-05-26T09:20:37.000Z</time>
        <extensions>
          <gpxtpx:TrackPointExtension xmlns:gpxtpx="http://www.garmin.com/xmlschemas/TrackPointExtension/v1">
            <gpxtpx:hr>104</gpxtpx:hr>
          </gpxtpx:TrackPointExtension>
        </extensions>
      </trkpt>
      <trkpt lat="45.57144" lon="2.81477">
        <ele>1140.4000244141</ele>
        <time>2024-05-26T09:20:39.000Z</time>
        <extensions>
          <gpxtpx:TrackPointExtension xmlns:gpxtpx="http://www.garmin.com/xmlschemas/TrackPointExtension/v1">
            <gpxtpx:hr>104</gpxtpx:hr>
          </gpxtpx:TrackPointExtension>
        </extensions>
      </trkpt>
      <trkpt lat="45.57164" lon="2.81472">
        <ele>1141.4000244141</ele>
        <time>2024-05-26T09:20:43.000Z</time>
        <extensions>
          <gpxtpx:TrackPointExtension xmlns:gpxtpx="http://www.garmin.com/xmlschemas/TrackPointExtension/v1">
            <gpxtpx:hr>106</gpxtpx:hr>
          </gpxtpx:TrackPointExtension>
        </extensions>
      </trkpt>
      <trkpt lat="45.57169" lon="2.81471">
        <ele>1143.4000244141</ele>
        <time>2024-05-26T09:20:44.000Z</time>
        <extensions>
          <gpxtpx:TrackPointExtension xmlns:gpxtpx="http://www.garmin.com/xmlschemas/TrackPointExtension/v1">
            <gpxtpx:hr>106</gpxtpx:hr>
          </gpxtpx:TrackPointExtension>
        </extensions>
      </trkpt>
      <trkpt lat="45.57178" lon="2.81469">
        <ele>1144</ele>
        <time>2024-05-26T09:20:46.000Z</time>
        <extensions>
          <gpxtpx:TrackPointExtension xmlns:gpxtpx="http://www.garmin.com/xmlschemas/TrackPointExtension/v1">
            <gpxtpx:hr>106</gpxtpx:hr>
          </gpxtpx:TrackPointExtension>
        </extensions>
      </trkpt>
      <trkpt lat="45.57184" lon="2.81468">
        <ele>1144.5999755859</ele>
        <time>2024-05-26T09:20:47.000Z</time>
        <extensions>
          <gpxtpx:TrackPointExtension xmlns:gpxtpx="http://www.garmin.com/xmlschemas/TrackPointExtension/v1">
            <gpxtpx:hr>107</gpxtpx:hr>
          </gpxtpx:TrackPointExtension>
        </extensions>
      </trkpt>
      <trkpt lat="45.57196" lon="2.81465">
        <ele>1145.5999755859</ele>
        <time>2024-05-26T09:20:50.000Z</time>
        <extensions>
          <gpxtpx:TrackPointExtension xmlns:gpxtpx="http://www.garmin.com/xmlschemas/TrackPointExtension/v1">
            <gpxtpx:hr>109</gpxtpx:hr>
          </gpxtpx:TrackPointExtension>
        </extensions>
      </trkpt>
      <trkpt lat="45.57204" lon="2.81465">
        <ele>1146.4000244141</ele>
        <time>2024-05-26T09:20:52.000Z</time>
        <extensions>
          <gpxtpx:TrackPointExtension xmlns:gpxtpx="http://www.garmin.com/xmlschemas/TrackPointExtension/v1">
            <gpxtpx:hr>111</gpxtpx:hr>
          </gpxtpx:TrackPointExtension>
        </extensions>
      </trkpt>
      <trkpt lat="45.57213" lon="2.81463">
        <ele>1147</ele>
        <time>2024-05-26T09:20:54.000Z</time>
        <extensions>
          <gpxtpx:TrackPointExtension xmlns:gpxtpx="http://www.garmin.com/xmlschemas/TrackPointExtension/v1">
            <gpxtpx:hr>111</gpxtpx:hr>
          </gpxtpx:TrackPointExtension>
        </extensions>
      </trkpt>
      <trkpt lat="45.57221" lon="2.81461">
        <ele>1149</ele>
        <time>2024-05-26T09:20:56.000Z</time>
        <extensions>
          <gpxtpx:TrackPointExtension xmlns:gpxtpx="http://www.garmin.com/xmlschemas/TrackPointExtension/v1">
            <gpxtpx:hr>112</gpxtpx:hr>
          </gpxtpx:TrackPointExtension>
        </extensions>
      </trkpt>
      <trkpt lat="45.57224" lon="2.81461">
        <ele>1149.4000244141</ele>
        <time>2024-05-26T09:20:57.000Z</time>
        <extensions>
          <gpxtpx:TrackPointExtension xmlns:gpxtpx="http://www.garmin.com/xmlschemas/TrackPointExtension/v1">
            <gpxtpx:hr>113</gpxtpx:hr>
          </gpxtpx:TrackPointExtension>
        </extensions>
      </trkpt>
      <trkpt lat="45.57228" lon="2.81461">
        <ele>1149.5999755859</ele>
        <time>2024-05-26T09:20:58.000Z</time>
        <extensions>
          <gpxtpx:TrackPointExtension xmlns:gpxtpx="http://www.garmin.com/xmlschemas/TrackPointExtension/v1">
            <gpxtpx:hr>113</gpxtpx:hr>
          </gpxtpx:TrackPointExtension>
        </extensions>
      </trkpt>
      <trkpt lat="45.57234" lon="2.81458">
        <ele>1149.8000488281</ele>
        <time>2024-05-26T09:20:59.000Z</time>
        <extensions>
          <gpxtpx:TrackPointExtension xmlns:gpxtpx="http://www.garmin.com/xmlschemas/TrackPointExtension/v1">
            <gpxtpx:hr>113</gpxtpx:hr>
          </gpxtpx:TrackPointExtension>
        </extensions>
      </trkpt>
      <trkpt lat="45.57238" lon="2.81457">
        <ele>1150.1999511719</ele>
        <time>2024-05-26T09:21:00.000Z</time>
        <extensions>
          <gpxtpx:TrackPointExtension xmlns:gpxtpx="http://www.garmin.com/xmlschemas/TrackPointExtension/v1">
            <gpxtpx:hr>114</gpxtpx:hr>
          </gpxtpx:TrackPointExtension>
        </extensions>
      </trkpt>
      <trkpt lat="45.57245" lon="2.81455">
        <ele>1151.4000244141</ele>
        <time>2024-05-26T09:21:02.000Z</time>
        <extensions>
          <gpxtpx:TrackPointExtension xmlns:gpxtpx="http://www.garmin.com/xmlschemas/TrackPointExtension/v1">
            <gpxtpx:hr>116</gpxtpx:hr>
          </gpxtpx:TrackPointExtension>
        </extensions>
      </trkpt>
      <trkpt lat="45.57253" lon="2.81453">
        <ele>1152</ele>
        <time>2024-05-26T09:21:04.000Z</time>
        <extensions>
          <gpxtpx:TrackPointExtension xmlns:gpxtpx="http://www.garmin.com/xmlschemas/TrackPointExtension/v1">
            <gpxtpx:hr>117</gpxtpx:hr>
          </gpxtpx:TrackPointExtension>
        </extensions>
      </trkpt>
      <trkpt lat="45.57261" lon="2.81451">
        <ele>1152.8000488281</ele>
        <time>2024-05-26T09:21:06.000Z</time>
        <extensions>
          <gpxtpx:TrackPointExtension xmlns:gpxtpx="http://www.garmin.com/xmlschemas/TrackPointExtension/v1">
            <gpxtpx:hr>119</gpxtpx:hr>
          </gpxtpx:TrackPointExtension>
        </extensions>
      </trkpt>
      <trkpt lat="45.57268" lon="2.81447">
        <ele>1153.4000244141</ele>
        <time>2024-05-26T09:21:08.000Z</time>
        <extensions>
          <gpxtpx:TrackPointExtension xmlns:gpxtpx="http://www.garmin.com/xmlschemas/TrackPointExtension/v1">
            <gpxtpx:hr>119</gpxtpx:hr>
          </gpxtpx:TrackPointExtension>
        </extensions>
      </trkpt>
      <trkpt lat="45.57272" lon="2.81445">
        <ele>1153.8000488281</ele>
        <time>2024-05-26T09:21:09.000Z</time>
        <extensions>
          <gpxtpx:TrackPointExtension xmlns:gpxtpx="http://www.garmin.com/xmlschemas/TrackPointExtension/v1">
            <gpxtpx:hr>115</gpxtpx:hr>
          </gpxtpx:TrackPointExtension>
        </extensions>
      </trkpt>
      <trkpt lat="45.57276" lon="2.81445">
        <ele>1154.4000244141</ele>
        <time>2024-05-26T09:21:10.000Z</time>
        <extensions>
          <gpxtpx:TrackPointExtension xmlns:gpxtpx="http://www.garmin.com/xmlschemas/TrackPointExtension/v1">
            <gpxtpx:hr>115</gpxtpx:hr>
          </gpxtpx:TrackPointExtension>
        </extensions>
      </trkpt>
      <trkpt lat="45.57281" lon="2.81444">
        <ele>1154.8000488281</ele>
        <time>2024-05-26T09:21:11.000Z</time>
        <extensions>
          <gpxtpx:TrackPointExtension xmlns:gpxtpx="http://www.garmin.com/xmlschemas/TrackPointExtension/v1">
            <gpxtpx:hr>114</gpxtpx:hr>
          </gpxtpx:TrackPointExtension>
        </extensions>
      </trkpt>
      <trkpt lat="45.57285" lon="2.81441">
        <ele>1155</ele>
        <time>2024-05-26T09:21:12.000Z</time>
        <extensions>
          <gpxtpx:TrackPointExtension xmlns:gpxtpx="http://www.garmin.com/xmlschemas/TrackPointExtension/v1">
            <gpxtpx:hr>113</gpxtpx:hr>
          </gpxtpx:TrackPointExtension>
        </extensions>
      </trkpt>
      <trkpt lat="45.57289" lon="2.81438">
        <ele>1155.4000244141</ele>
        <time>2024-05-26T09:21:13.000Z</time>
        <extensions>
          <gpxtpx:TrackPointExtension xmlns:gpxtpx="http://www.garmin.com/xmlschemas/TrackPointExtension/v1">
            <gpxtpx:hr>119</gpxtpx:hr>
          </gpxtpx:TrackPointExtension>
        </extensions>
      </trkpt>
      <trkpt lat="45.57294" lon="2.81436">
        <ele>1155.8000488281</ele>
        <time>2024-05-26T09:21:14.000Z</time>
        <extensions>
          <gpxtpx:TrackPointExtension xmlns:gpxtpx="http://www.garmin.com/xmlschemas/TrackPointExtension/v1">
            <gpxtpx:hr>119</gpxtpx:hr>
          </gpxtpx:TrackPointExtension>
        </extensions>
      </trkpt>
      <trkpt lat="45.57302" lon="2.81433">
        <ele>1156.4000244141</ele>
        <time>2024-05-26T09:21:16.000Z</time>
        <extensions>
          <gpxtpx:TrackPointExtension xmlns:gpxtpx="http://www.garmin.com/xmlschemas/TrackPointExtension/v1">
            <gpxtpx:hr>120</gpxtpx:hr>
          </gpxtpx:TrackPointExtension>
        </extensions>
      </trkpt>
      <trkpt lat="45.57314" lon="2.81427">
        <ele>1157.5999755859</ele>
        <time>2024-05-26T09:21:19.000Z</time>
        <extensions>
          <gpxtpx:TrackPointExtension xmlns:gpxtpx="http://www.garmin.com/xmlschemas/TrackPointExtension/v1">
            <gpxtpx:hr>121</gpxtpx:hr>
          </gpxtpx:TrackPointExtension>
        </extensions>
      </trkpt>
      <trkpt lat="45.57321" lon="2.81422">
        <ele>1158.1999511719</ele>
        <time>2024-05-26T09:21:21.000Z</time>
        <extensions>
          <gpxtpx:TrackPointExtension xmlns:gpxtpx="http://www.garmin.com/xmlschemas/TrackPointExtension/v1">
            <gpxtpx:hr>121</gpxtpx:hr>
          </gpxtpx:TrackPointExtension>
        </extensions>
      </trkpt>
      <trkpt lat="45.57332" lon="2.81416">
        <ele>1159</ele>
        <time>2024-05-26T09:21:24.000Z</time>
        <extensions>
          <gpxtpx:TrackPointExtension xmlns:gpxtpx="http://www.garmin.com/xmlschemas/TrackPointExtension/v1">
            <gpxtpx:hr>122</gpxtpx:hr>
          </gpxtpx:TrackPointExtension>
        </extensions>
      </trkpt>
      <trkpt lat="45.57342" lon="2.81407">
        <ele>1160</ele>
        <time>2024-05-26T09:21:27.000Z</time>
        <extensions>
          <gpxtpx:TrackPointExtension xmlns:gpxtpx="http://www.garmin.com/xmlschemas/TrackPointExtension/v1">
            <gpxtpx:hr>122</gpxtpx:hr>
          </gpxtpx:TrackPointExtension>
        </extensions>
      </trkpt>
      <trkpt lat="45.57357" lon="2.81401">
        <ele>1161</ele>
        <time>2024-05-26T09:21:31.000Z</time>
        <extensions>
          <gpxtpx:TrackPointExtension xmlns:gpxtpx="http://www.garmin.com/xmlschemas/TrackPointExtension/v1">
            <gpxtpx:hr>122</gpxtpx:hr>
          </gpxtpx:TrackPointExtension>
        </extensions>
      </trkpt>
      <trkpt lat="45.57361" lon="2.81399">
        <ele>1161.4000244141</ele>
        <time>2024-05-26T09:21:32.000Z</time>
        <extensions>
          <gpxtpx:TrackPointExtension xmlns:gpxtpx="http://www.garmin.com/xmlschemas/TrackPointExtension/v1">
            <gpxtpx:hr>123</gpxtpx:hr>
          </gpxtpx:TrackPointExtension>
        </extensions>
      </trkpt>
      <trkpt lat="45.57373" lon="2.81402">
        <ele>1162.1999511719</ele>
        <time>2024-05-26T09:21:35.000Z</time>
        <extensions>
          <gpxtpx:TrackPointExtension xmlns:gpxtpx="http://www.garmin.com/xmlschemas/TrackPointExtension/v1">
            <gpxtpx:hr>123</gpxtpx:hr>
          </gpxtpx:TrackPointExtension>
        </extensions>
      </trkpt>
      <trkpt lat="45.57377" lon="2.81402">
        <ele>1162.4000244141</ele>
        <time>2024-05-26T09:21:36.000Z</time>
        <extensions>
          <gpxtpx:TrackPointExtension xmlns:gpxtpx="http://www.garmin.com/xmlschemas/TrackPointExtension/v1">
            <gpxtpx:hr>126</gpxtpx:hr>
          </gpxtpx:TrackPointExtension>
        </extensions>
      </trkpt>
      <trkpt lat="45.57385" lon="2.81401">
        <ele>1163.4000244141</ele>
        <time>2024-05-26T09:21:38.000Z</time>
        <extensions>
          <gpxtpx:TrackPointExtension xmlns:gpxtpx="http://www.garmin.com/xmlschemas/TrackPointExtension/v1">
            <gpxtpx:hr>127</gpxtpx:hr>
          </gpxtpx:TrackPointExtension>
        </extensions>
      </trkpt>
      <trkpt lat="45.57389" lon="2.814">
        <ele>1163.5999755859</ele>
        <time>2024-05-26T09:21:39.000Z</time>
        <extensions>
          <gpxtpx:TrackPointExtension xmlns:gpxtpx="http://www.garmin.com/xmlschemas/TrackPointExtension/v1">
            <gpxtpx:hr>124</gpxtpx:hr>
          </gpxtpx:TrackPointExtension>
        </extensions>
      </trkpt>
      <trkpt lat="45.57397" lon="2.81397">
        <ele>1164.4000244141</ele>
        <time>2024-05-26T09:21:41.000Z</time>
        <extensions>
          <gpxtpx:TrackPointExtension xmlns:gpxtpx="http://www.garmin.com/xmlschemas/TrackPointExtension/v1">
            <gpxtpx:hr>124</gpxtpx:hr>
          </gpxtpx:TrackPointExtension>
        </extensions>
      </trkpt>
      <trkpt lat="45.57401" lon="2.81396">
        <ele>1164.8000488281</ele>
        <time>2024-05-26T09:21:42.000Z</time>
        <extensions>
          <gpxtpx:TrackPointExtension xmlns:gpxtpx="http://www.garmin.com/xmlschemas/TrackPointExtension/v1">
            <gpxtpx:hr>124</gpxtpx:hr>
          </gpxtpx:TrackPointExtension>
        </extensions>
      </trkpt>
      <trkpt lat="45.57406" lon="2.81391">
        <ele>1165.4000244141</ele>
        <time>2024-05-26T09:21:44.000Z</time>
        <extensions>
          <gpxtpx:TrackPointExtension xmlns:gpxtpx="http://www.garmin.com/xmlschemas/TrackPointExtension/v1">
            <gpxtpx:hr>125</gpxtpx:hr>
          </gpxtpx:TrackPointExtension>
        </extensions>
      </trkpt>
      <trkpt lat="45.5741" lon="2.81389">
        <ele>1165.8000488281</ele>
        <time>2024-05-26T09:21:45.000Z</time>
        <extensions>
          <gpxtpx:TrackPointExtension xmlns:gpxtpx="http://www.garmin.com/xmlschemas/TrackPointExtension/v1">
            <gpxtpx:hr>125</gpxtpx:hr>
          </gpxtpx:TrackPointExtension>
        </extensions>
      </trkpt>
      <trkpt lat="45.57422" lon="2.81387">
        <ele>1166.4000244141</ele>
        <time>2024-05-26T09:21:48.000Z</time>
        <extensions>
          <gpxtpx:TrackPointExtension xmlns:gpxtpx="http://www.garmin.com/xmlschemas/TrackPointExtension/v1">
            <gpxtpx:hr>125</gpxtpx:hr>
          </gpxtpx:TrackPointExtension>
        </extensions>
      </trkpt>
      <trkpt lat="45.57435" lon="2.81385">
        <ele>1167.1999511719</ele>
        <time>2024-05-26T09:21:51.000Z</time>
        <extensions>
          <gpxtpx:TrackPointExtension xmlns:gpxtpx="http://www.garmin.com/xmlschemas/TrackPointExtension/v1">
            <gpxtpx:hr>126</gpxtpx:hr>
          </gpxtpx:TrackPointExtension>
        </extensions>
      </trkpt>
      <trkpt lat="45.57439" lon="2.81386">
        <ele>1167.5999755859</ele>
        <time>2024-05-26T09:21:52.000Z</time>
        <extensions>
          <gpxtpx:TrackPointExtension xmlns:gpxtpx="http://www.garmin.com/xmlschemas/TrackPointExtension/v1">
            <gpxtpx:hr>126</gpxtpx:hr>
          </gpxtpx:TrackPointExtension>
        </extensions>
      </trkpt>
      <trkpt lat="45.57453" lon="2.81385">
        <ele>1168.8000488281</ele>
        <time>2024-05-26T09:21:56.000Z</time>
        <extensions>
          <gpxtpx:TrackPointExtension xmlns:gpxtpx="http://www.garmin.com/xmlschemas/TrackPointExtension/v1">
            <gpxtpx:hr>126</gpxtpx:hr>
          </gpxtpx:TrackPointExtension>
        </extensions>
      </trkpt>
      <trkpt lat="45.57456" lon="2.81385">
        <ele>1169</ele>
        <time>2024-05-26T09:21:57.000Z</time>
        <extensions>
          <gpxtpx:TrackPointExtension xmlns:gpxtpx="http://www.garmin.com/xmlschemas/TrackPointExtension/v1">
            <gpxtpx:hr>126</gpxtpx:hr>
          </gpxtpx:TrackPointExtension>
        </extensions>
      </trkpt>
      <trkpt lat="45.5747" lon="2.81386">
        <ele>1170.1999511719</ele>
        <time>2024-05-26T09:22:01.000Z</time>
        <extensions>
          <gpxtpx:TrackPointExtension xmlns:gpxtpx="http://www.garmin.com/xmlschemas/TrackPointExtension/v1">
            <gpxtpx:hr>125</gpxtpx:hr>
          </gpxtpx:TrackPointExtension>
        </extensions>
      </trkpt>
      <trkpt lat="45.57478" lon="2.81387">
        <ele>1170.8000488281</ele>
        <time>2024-05-26T09:22:03.000Z</time>
        <extensions>
          <gpxtpx:TrackPointExtension xmlns:gpxtpx="http://www.garmin.com/xmlschemas/TrackPointExtension/v1">
            <gpxtpx:hr>124</gpxtpx:hr>
          </gpxtpx:TrackPointExtension>
        </extensions>
      </trkpt>
      <trkpt lat="45.57485" lon="2.81388">
        <ele>1171.4000244141</ele>
        <time>2024-05-26T09:22:05.000Z</time>
        <extensions>
          <gpxtpx:TrackPointExtension xmlns:gpxtpx="http://www.garmin.com/xmlschemas/TrackPointExtension/v1">
            <gpxtpx:hr>123</gpxtpx:hr>
          </gpxtpx:TrackPointExtension>
        </extensions>
      </trkpt>
      <trkpt lat="45.575" lon="2.81389">
        <ele>1172.8000488281</ele>
        <time>2024-05-26T09:22:09.000Z</time>
        <extensions>
          <gpxtpx:TrackPointExtension xmlns:gpxtpx="http://www.garmin.com/xmlschemas/TrackPointExtension/v1">
            <gpxtpx:hr>122</gpxtpx:hr>
          </gpxtpx:TrackPointExtension>
        </extensions>
      </trkpt>
      <trkpt lat="45.57506" lon="2.81388">
        <ele>1173.1999511719</ele>
        <time>2024-05-26T09:22:11.000Z</time>
        <extensions>
          <gpxtpx:TrackPointExtension xmlns:gpxtpx="http://www.garmin.com/xmlschemas/TrackPointExtension/v1">
            <gpxtpx:hr>123</gpxtpx:hr>
          </gpxtpx:TrackPointExtension>
        </extensions>
      </trkpt>
      <trkpt lat="45.5751" lon="2.81388">
        <ele>1173.8000488281</ele>
        <time>2024-05-26T09:22:12.000Z</time>
        <extensions>
          <gpxtpx:TrackPointExtension xmlns:gpxtpx="http://www.garmin.com/xmlschemas/TrackPointExtension/v1">
            <gpxtpx:hr>123</gpxtpx:hr>
          </gpxtpx:TrackPointExtension>
        </extensions>
      </trkpt>
      <trkpt lat="45.5752" lon="2.8139">
        <ele>1174.8000488281</ele>
        <time>2024-05-26T09:22:15.000Z</time>
        <extensions>
          <gpxtpx:TrackPointExtension xmlns:gpxtpx="http://www.garmin.com/xmlschemas/TrackPointExtension/v1">
            <gpxtpx:hr>124</gpxtpx:hr>
          </gpxtpx:TrackPointExtension>
        </extensions>
      </trkpt>
      <trkpt lat="45.57527" lon="2.81391">
        <ele>1175.1999511719</ele>
        <time>2024-05-26T09:22:17.000Z</time>
        <extensions>
          <gpxtpx:TrackPointExtension xmlns:gpxtpx="http://www.garmin.com/xmlschemas/TrackPointExtension/v1">
            <gpxtpx:hr>124</gpxtpx:hr>
          </gpxtpx:TrackPointExtension>
        </extensions>
      </trkpt>
      <trkpt lat="45.57534" lon="2.81392">
        <ele>1176</ele>
        <time>2024-05-26T09:22:19.000Z</time>
        <extensions>
          <gpxtpx:TrackPointExtension xmlns:gpxtpx="http://www.garmin.com/xmlschemas/TrackPointExtension/v1">
            <gpxtpx:hr>125</gpxtpx:hr>
          </gpxtpx:TrackPointExtension>
        </extensions>
      </trkpt>
      <trkpt lat="45.57544" lon="2.81397">
        <ele>1176.8000488281</ele>
        <time>2024-05-26T09:22:22.000Z</time>
        <extensions>
          <gpxtpx:TrackPointExtension xmlns:gpxtpx="http://www.garmin.com/xmlschemas/TrackPointExtension/v1">
            <gpxtpx:hr>125</gpxtpx:hr>
          </gpxtpx:TrackPointExtension>
        </extensions>
      </trkpt>
      <trkpt lat="45.57548" lon="2.81398">
        <ele>1177</ele>
        <time>2024-05-26T09:22:23.000Z</time>
        <extensions>
          <gpxtpx:TrackPointExtension xmlns:gpxtpx="http://www.garmin.com/xmlschemas/TrackPointExtension/v1">
            <gpxtpx:hr>125</gpxtpx:hr>
          </gpxtpx:TrackPointExtension>
        </extensions>
      </trkpt>
      <trkpt lat="45.5756" lon="2.81397">
        <ele>1178</ele>
        <time>2024-05-26T09:22:27.000Z</time>
        <extensions>
          <gpxtpx:TrackPointExtension xmlns:gpxtpx="http://www.garmin.com/xmlschemas/TrackPointExtension/v1">
            <gpxtpx:hr>125</gpxtpx:hr>
          </gpxtpx:TrackPointExtension>
        </extensions>
      </trkpt>
      <trkpt lat="45.57566" lon="2.81398">
        <ele>1178.1999511719</ele>
        <time>2024-05-26T09:22:29.000Z</time>
        <extensions>
          <gpxtpx:TrackPointExtension xmlns:gpxtpx="http://www.garmin.com/xmlschemas/TrackPointExtension/v1">
            <gpxtpx:hr>125</gpxtpx:hr>
          </gpxtpx:TrackPointExtension>
        </extensions>
      </trkpt>
      <trkpt lat="45.57574" lon="2.81393">
        <ele>1179.1999511719</ele>
        <time>2024-05-26T09:22:32.000Z</time>
        <extensions>
          <gpxtpx:TrackPointExtension xmlns:gpxtpx="http://www.garmin.com/xmlschemas/TrackPointExtension/v1">
            <gpxtpx:hr>125</gpxtpx:hr>
          </gpxtpx:TrackPointExtension>
        </extensions>
      </trkpt>
      <trkpt lat="45.57578" lon="2.81391">
        <ele>1179.4000244141</ele>
        <time>2024-05-26T09:22:33.000Z</time>
        <extensions>
          <gpxtpx:TrackPointExtension xmlns:gpxtpx="http://www.garmin.com/xmlschemas/TrackPointExtension/v1">
            <gpxtpx:hr>125</gpxtpx:hr>
          </gpxtpx:TrackPointExtension>
        </extensions>
      </trkpt>
      <trkpt lat="45.57587" lon="2.81384">
        <ele>1181</ele>
        <time>2024-05-26T09:22:36.000Z</time>
        <extensions>
          <gpxtpx:TrackPointExtension xmlns:gpxtpx="http://www.garmin.com/xmlschemas/TrackPointExtension/v1">
            <gpxtpx:hr>125</gpxtpx:hr>
          </gpxtpx:TrackPointExtension>
        </extensions>
      </trkpt>
      <trkpt lat="45.57595" lon="2.8138">
        <ele>1181.8000488281</ele>
        <time>2024-05-26T09:22:38.000Z</time>
        <extensions>
          <gpxtpx:TrackPointExtension xmlns:gpxtpx="http://www.garmin.com/xmlschemas/TrackPointExtension/v1">
            <gpxtpx:hr>124</gpxtpx:hr>
          </gpxtpx:TrackPointExtension>
        </extensions>
      </trkpt>
      <trkpt lat="45.57599" lon="2.81378">
        <ele>1182.5999755859</ele>
        <time>2024-05-26T09:22:39.000Z</time>
        <extensions>
          <gpxtpx:TrackPointExtension xmlns:gpxtpx="http://www.garmin.com/xmlschemas/TrackPointExtension/v1">
            <gpxtpx:hr>124</gpxtpx:hr>
          </gpxtpx:TrackPointExtension>
        </extensions>
      </trkpt>
      <trkpt lat="45.57616" lon="2.81366">
        <ele>1183.5999755859</ele>
        <time>2024-05-26T09:22:44.000Z</time>
        <extensions>
          <gpxtpx:TrackPointExtension xmlns:gpxtpx="http://www.garmin.com/xmlschemas/TrackPointExtension/v1">
            <gpxtpx:hr>123</gpxtpx:hr>
          </gpxtpx:TrackPointExtension>
        </extensions>
      </trkpt>
      <trkpt lat="45.57619" lon="2.81362">
        <ele>1184.4000244141</ele>
        <time>2024-05-26T09:22:45.000Z</time>
        <extensions>
          <gpxtpx:TrackPointExtension xmlns:gpxtpx="http://www.garmin.com/xmlschemas/TrackPointExtension/v1">
            <gpxtpx:hr>123</gpxtpx:hr>
          </gpxtpx:TrackPointExtension>
        </extensions>
      </trkpt>
      <trkpt lat="45.57622" lon="2.81359">
        <ele>1184.5999755859</ele>
        <time>2024-05-26T09:22:46.000Z</time>
        <extensions>
          <gpxtpx:TrackPointExtension xmlns:gpxtpx="http://www.garmin.com/xmlschemas/TrackPointExtension/v1">
            <gpxtpx:hr>125</gpxtpx:hr>
          </gpxtpx:TrackPointExtension>
        </extensions>
      </trkpt>
      <trkpt lat="45.5763" lon="2.81356">
        <ele>1185.4000244141</ele>
        <time>2024-05-26T09:22:48.000Z</time>
        <extensions>
          <gpxtpx:TrackPointExtension xmlns:gpxtpx="http://www.garmin.com/xmlschemas/TrackPointExtension/v1">
            <gpxtpx:hr>128</gpxtpx:hr>
          </gpxtpx:TrackPointExtension>
        </extensions>
      </trkpt>
      <trkpt lat="45.57636" lon="2.81351">
        <ele>1186</ele>
        <time>2024-05-26T09:22:50.000Z</time>
        <extensions>
          <gpxtpx:TrackPointExtension xmlns:gpxtpx="http://www.garmin.com/xmlschemas/TrackPointExtension/v1">
            <gpxtpx:hr>129</gpxtpx:hr>
          </gpxtpx:TrackPointExtension>
        </extensions>
      </trkpt>
      <trkpt lat="45.57639" lon="2.81349">
        <ele>1186.4000244141</ele>
        <time>2024-05-26T09:22:51.000Z</time>
        <extensions>
          <gpxtpx:TrackPointExtension xmlns:gpxtpx="http://www.garmin.com/xmlschemas/TrackPointExtension/v1">
            <gpxtpx:hr>126</gpxtpx:hr>
          </gpxtpx:TrackPointExtension>
        </extensions>
      </trkpt>
      <trkpt lat="45.57645" lon="2.81343">
        <ele>1187</ele>
        <time>2024-05-26T09:22:53.000Z</time>
        <extensions>
          <gpxtpx:TrackPointExtension xmlns:gpxtpx="http://www.garmin.com/xmlschemas/TrackPointExtension/v1">
            <gpxtpx:hr>125</gpxtpx:hr>
          </gpxtpx:TrackPointExtension>
        </extensions>
      </trkpt>
      <trkpt lat="45.57652" lon="2.81334">
        <ele>1187.4000244141</ele>
        <time>2024-05-26T09:22:55.000Z</time>
        <extensions>
          <gpxtpx:TrackPointExtension xmlns:gpxtpx="http://www.garmin.com/xmlschemas/TrackPointExtension/v1">
            <gpxtpx:hr>122</gpxtpx:hr>
          </gpxtpx:TrackPointExtension>
        </extensions>
      </trkpt>
      <trkpt lat="45.57654" lon="2.81331">
        <ele>1187.5999755859</ele>
        <time>2024-05-26T09:22:56.000Z</time>
        <extensions>
          <gpxtpx:TrackPointExtension xmlns:gpxtpx="http://www.garmin.com/xmlschemas/TrackPointExtension/v1">
            <gpxtpx:hr>126</gpxtpx:hr>
          </gpxtpx:TrackPointExtension>
        </extensions>
      </trkpt>
      <trkpt lat="45.57657" lon="2.81328">
        <ele>1188</ele>
        <time>2024-05-26T09:22:57.000Z</time>
        <extensions>
          <gpxtpx:TrackPointExtension xmlns:gpxtpx="http://www.garmin.com/xmlschemas/TrackPointExtension/v1">
            <gpxtpx:hr>127</gpxtpx:hr>
          </gpxtpx:TrackPointExtension>
        </extensions>
      </trkpt>
      <trkpt lat="45.57659" lon="2.81324">
        <ele>1188.1999511719</ele>
        <time>2024-05-26T09:22:58.000Z</time>
        <extensions>
          <gpxtpx:TrackPointExtension xmlns:gpxtpx="http://www.garmin.com/xmlschemas/TrackPointExtension/v1">
            <gpxtpx:hr>127</gpxtpx:hr>
          </gpxtpx:TrackPointExtension>
        </extensions>
      </trkpt>
      <trkpt lat="45.57669" lon="2.81312">
        <ele>1189.4000244141</ele>
        <time>2024-05-26T09:23:02.000Z</time>
        <extensions>
          <gpxtpx:TrackPointExtension xmlns:gpxtpx="http://www.garmin.com/xmlschemas/TrackPointExtension/v1">
            <gpxtpx:hr>128</gpxtpx:hr>
          </gpxtpx:TrackPointExtension>
        </extensions>
      </trkpt>
      <trkpt lat="45.57674" lon="2.81304">
        <ele>1190.4000244141</ele>
        <time>2024-05-26T09:23:04.000Z</time>
        <extensions>
          <gpxtpx:TrackPointExtension xmlns:gpxtpx="http://www.garmin.com/xmlschemas/TrackPointExtension/v1">
            <gpxtpx:hr>132</gpxtpx:hr>
          </gpxtpx:TrackPointExtension>
        </extensions>
      </trkpt>
      <trkpt lat="45.57677" lon="2.813">
        <ele>1190.5999755859</ele>
        <time>2024-05-26T09:23:05.000Z</time>
        <extensions>
          <gpxtpx:TrackPointExtension xmlns:gpxtpx="http://www.garmin.com/xmlschemas/TrackPointExtension/v1">
            <gpxtpx:hr>130</gpxtpx:hr>
          </gpxtpx:TrackPointExtension>
        </extensions>
      </trkpt>
      <trkpt lat="45.5768" lon="2.81296">
        <ele>1191</ele>
        <time>2024-05-26T09:23:06.000Z</time>
        <extensions>
          <gpxtpx:TrackPointExtension xmlns:gpxtpx="http://www.garmin.com/xmlschemas/TrackPointExtension/v1">
            <gpxtpx:hr>130</gpxtpx:hr>
          </gpxtpx:TrackPointExtension>
        </extensions>
      </trkpt>
      <trkpt lat="45.57686" lon="2.81291">
        <ele>1191.8000488281</ele>
        <time>2024-05-26T09:23:08.000Z</time>
        <extensions>
          <gpxtpx:TrackPointExtension xmlns:gpxtpx="http://www.garmin.com/xmlschemas/TrackPointExtension/v1">
            <gpxtpx:hr>128</gpxtpx:hr>
          </gpxtpx:TrackPointExtension>
        </extensions>
      </trkpt>
      <trkpt lat="45.57693" lon="2.81286">
        <ele>1192.1999511719</ele>
        <time>2024-05-26T09:23:10.000Z</time>
        <extensions>
          <gpxtpx:TrackPointExtension xmlns:gpxtpx="http://www.garmin.com/xmlschemas/TrackPointExtension/v1">
            <gpxtpx:hr>124</gpxtpx:hr>
          </gpxtpx:TrackPointExtension>
        </extensions>
      </trkpt>
      <trkpt lat="45.57699" lon="2.81282">
        <ele>1192.1999511719</ele>
        <time>2024-05-26T09:23:12.000Z</time>
        <extensions>
          <gpxtpx:TrackPointExtension xmlns:gpxtpx="http://www.garmin.com/xmlschemas/TrackPointExtension/v1">
            <gpxtpx:hr>126</gpxtpx:hr>
          </gpxtpx:TrackPointExtension>
        </extensions>
      </trkpt>
      <trkpt lat="45.57703" lon="2.81279">
        <ele>1192.4000244141</ele>
        <time>2024-05-26T09:23:13.000Z</time>
        <extensions>
          <gpxtpx:TrackPointExtension xmlns:gpxtpx="http://www.garmin.com/xmlschemas/TrackPointExtension/v1">
            <gpxtpx:hr>129</gpxtpx:hr>
          </gpxtpx:TrackPointExtension>
        </extensions>
      </trkpt>
      <trkpt lat="45.57712" lon="2.81267">
        <ele>1193.4000244141</ele>
        <time>2024-05-26T09:23:16.000Z</time>
        <extensions>
          <gpxtpx:TrackPointExtension xmlns:gpxtpx="http://www.garmin.com/xmlschemas/TrackPointExtension/v1">
            <gpxtpx:hr>130</gpxtpx:hr>
          </gpxtpx:TrackPointExtension>
        </extensions>
      </trkpt>
      <trkpt lat="45.57722" lon="2.81259">
        <ele>1193.8000488281</ele>
        <time>2024-05-26T09:23:19.000Z</time>
        <extensions>
          <gpxtpx:TrackPointExtension xmlns:gpxtpx="http://www.garmin.com/xmlschemas/TrackPointExtension/v1">
            <gpxtpx:hr>128</gpxtpx:hr>
          </gpxtpx:TrackPointExtension>
        </extensions>
      </trkpt>
      <trkpt lat="45.57729" lon="2.81254">
        <ele>1194.8000488281</ele>
        <time>2024-05-26T09:23:21.000Z</time>
        <extensions>
          <gpxtpx:TrackPointExtension xmlns:gpxtpx="http://www.garmin.com/xmlschemas/TrackPointExtension/v1">
            <gpxtpx:hr>130</gpxtpx:hr>
          </gpxtpx:TrackPointExtension>
        </extensions>
      </trkpt>
      <trkpt lat="45.57736" lon="2.81248">
        <ele>1195.8000488281</ele>
        <time>2024-05-26T09:23:23.000Z</time>
        <extensions>
          <gpxtpx:TrackPointExtension xmlns:gpxtpx="http://www.garmin.com/xmlschemas/TrackPointExtension/v1">
            <gpxtpx:hr>126</gpxtpx:hr>
          </gpxtpx:TrackPointExtension>
        </extensions>
      </trkpt>
      <trkpt lat="45.5774" lon="2.81246">
        <ele>1196</ele>
        <time>2024-05-26T09:23:24.000Z</time>
        <extensions>
          <gpxtpx:TrackPointExtension xmlns:gpxtpx="http://www.garmin.com/xmlschemas/TrackPointExtension/v1">
            <gpxtpx:hr>127</gpxtpx:hr>
          </gpxtpx:TrackPointExtension>
        </extensions>
      </trkpt>
      <trkpt lat="45.57743" lon="2.81244">
        <ele>1196.1999511719</ele>
        <time>2024-05-26T09:23:25.000Z</time>
        <extensions>
          <gpxtpx:TrackPointExtension xmlns:gpxtpx="http://www.garmin.com/xmlschemas/TrackPointExtension/v1">
            <gpxtpx:hr>126</gpxtpx:hr>
          </gpxtpx:TrackPointExtension>
        </extensions>
      </trkpt>
      <trkpt lat="45.57754" lon="2.81244">
        <ele>1197.1999511719</ele>
        <time>2024-05-26T09:23:28.000Z</time>
        <extensions>
          <gpxtpx:TrackPointExtension xmlns:gpxtpx="http://www.garmin.com/xmlschemas/TrackPointExtension/v1">
            <gpxtpx:hr>127</gpxtpx:hr>
          </gpxtpx:TrackPointExtension>
        </extensions>
      </trkpt>
      <trkpt lat="45.57765" lon="2.81244">
        <ele>1198</ele>
        <time>2024-05-26T09:23:31.000Z</time>
        <extensions>
          <gpxtpx:TrackPointExtension xmlns:gpxtpx="http://www.garmin.com/xmlschemas/TrackPointExtension/v1">
            <gpxtpx:hr>127</gpxtpx:hr>
          </gpxtpx:TrackPointExtension>
        </extensions>
      </trkpt>
      <trkpt lat="45.57768" lon="2.81242">
        <ele>1198.4000244141</ele>
        <time>2024-05-26T09:23:32.000Z</time>
        <extensions>
          <gpxtpx:TrackPointExtension xmlns:gpxtpx="http://www.garmin.com/xmlschemas/TrackPointExtension/v1">
            <gpxtpx:hr>129</gpxtpx:hr>
          </gpxtpx:TrackPointExtension>
        </extensions>
      </trkpt>
      <trkpt lat="45.57775" lon="2.81238">
        <ele>1199.1999511719</ele>
        <time>2024-05-26T09:23:34.000Z</time>
        <extensions>
          <gpxtpx:TrackPointExtension xmlns:gpxtpx="http://www.garmin.com/xmlschemas/TrackPointExtension/v1">
            <gpxtpx:hr>132</gpxtpx:hr>
          </gpxtpx:TrackPointExtension>
        </extensions>
      </trkpt>
      <trkpt lat="45.57778" lon="2.81237">
        <ele>1199.8000488281</ele>
        <time>2024-05-26T09:23:35.000Z</time>
        <extensions>
          <gpxtpx:TrackPointExtension xmlns:gpxtpx="http://www.garmin.com/xmlschemas/TrackPointExtension/v1">
            <gpxtpx:hr>136</gpxtpx:hr>
          </gpxtpx:TrackPointExtension>
        </extensions>
      </trkpt>
      <trkpt lat="45.57781" lon="2.81235">
        <ele>1200.1999511719</ele>
        <time>2024-05-26T09:23:36.000Z</time>
        <extensions>
          <gpxtpx:TrackPointExtension xmlns:gpxtpx="http://www.garmin.com/xmlschemas/TrackPointExtension/v1">
            <gpxtpx:hr>139</gpxtpx:hr>
          </gpxtpx:TrackPointExtension>
        </extensions>
      </trkpt>
      <trkpt lat="45.57785" lon="2.81233">
        <ele>1200.4000244141</ele>
        <time>2024-05-26T09:23:37.000Z</time>
        <extensions>
          <gpxtpx:TrackPointExtension xmlns:gpxtpx="http://www.garmin.com/xmlschemas/TrackPointExtension/v1">
            <gpxtpx:hr>138</gpxtpx:hr>
          </gpxtpx:TrackPointExtension>
        </extensions>
      </trkpt>
      <trkpt lat="45.57792" lon="2.81228">
        <ele>1200.8000488281</ele>
        <time>2024-05-26T09:23:39.000Z</time>
        <extensions>
          <gpxtpx:TrackPointExtension xmlns:gpxtpx="http://www.garmin.com/xmlschemas/TrackPointExtension/v1">
            <gpxtpx:hr>139</gpxtpx:hr>
          </gpxtpx:TrackPointExtension>
        </extensions>
      </trkpt>
      <trkpt lat="45.57807" lon="2.81224">
        <ele>1202.4000244141</ele>
        <time>2024-05-26T09:23:43.000Z</time>
        <extensions>
          <gpxtpx:TrackPointExtension xmlns:gpxtpx="http://www.garmin.com/xmlschemas/TrackPointExtension/v1">
            <gpxtpx:hr>140</gpxtpx:hr>
          </gpxtpx:TrackPointExtension>
        </extensions>
      </trkpt>
      <trkpt lat="45.57819" lon="2.8122">
        <ele>1203.4000244141</ele>
        <time>2024-05-26T09:23:46.000Z</time>
        <extensions>
          <gpxtpx:TrackPointExtension xmlns:gpxtpx="http://www.garmin.com/xmlschemas/TrackPointExtension/v1">
            <gpxtpx:hr>139</gpxtpx:hr>
          </gpxtpx:TrackPointExtension>
        </extensions>
      </trkpt>
      <trkpt lat="45.57828" lon="2.81221">
        <ele>1204</ele>
        <time>2024-05-26T09:23:48.000Z</time>
        <extensions>
          <gpxtpx:TrackPointExtension xmlns:gpxtpx="http://www.garmin.com/xmlschemas/TrackPointExtension/v1">
            <gpxtpx:hr>142</gpxtpx:hr>
          </gpxtpx:TrackPointExtension>
        </extensions>
      </trkpt>
      <trkpt lat="45.57832" lon="2.81221">
        <ele>1204.1999511719</ele>
        <time>2024-05-26T09:23:49.000Z</time>
        <extensions>
          <gpxtpx:TrackPointExtension xmlns:gpxtpx="http://www.garmin.com/xmlschemas/TrackPointExtension/v1">
            <gpxtpx:hr>145</gpxtpx:hr>
          </gpxtpx:TrackPointExtension>
        </extensions>
      </trkpt>
      <trkpt lat="45.57837" lon="2.81222">
        <ele>1204.5999755859</ele>
        <time>2024-05-26T09:23:50.000Z</time>
        <extensions>
          <gpxtpx:TrackPointExtension xmlns:gpxtpx="http://www.garmin.com/xmlschemas/TrackPointExtension/v1">
            <gpxtpx:hr>145</gpxtpx:hr>
          </gpxtpx:TrackPointExtension>
        </extensions>
      </trkpt>
      <trkpt lat="45.57848" lon="2.81222">
        <ele>1205.5999755859</ele>
        <time>2024-05-26T09:23:53.000Z</time>
        <extensions>
          <gpxtpx:TrackPointExtension xmlns:gpxtpx="http://www.garmin.com/xmlschemas/TrackPointExtension/v1">
            <gpxtpx:hr>143</gpxtpx:hr>
          </gpxtpx:TrackPointExtension>
        </extensions>
      </trkpt>
      <trkpt lat="45.57852" lon="2.81222">
        <ele>1206</ele>
        <time>2024-05-26T09:23:54.000Z</time>
        <extensions>
          <gpxtpx:TrackPointExtension xmlns:gpxtpx="http://www.garmin.com/xmlschemas/TrackPointExtension/v1">
            <gpxtpx:hr>142</gpxtpx:hr>
          </gpxtpx:TrackPointExtension>
        </extensions>
      </trkpt>
      <trkpt lat="45.57856" lon="2.81223">
        <ele>1206.4000244141</ele>
        <time>2024-05-26T09:23:55.000Z</time>
        <extensions>
          <gpxtpx:TrackPointExtension xmlns:gpxtpx="http://www.garmin.com/xmlschemas/TrackPointExtension/v1">
            <gpxtpx:hr>138</gpxtpx:hr>
          </gpxtpx:TrackPointExtension>
        </extensions>
      </trkpt>
      <trkpt lat="45.57861" lon="2.81225">
        <ele>1206.8000488281</ele>
        <time>2024-05-26T09:23:56.000Z</time>
        <extensions>
          <gpxtpx:TrackPointExtension xmlns:gpxtpx="http://www.garmin.com/xmlschemas/TrackPointExtension/v1">
            <gpxtpx:hr>137</gpxtpx:hr>
          </gpxtpx:TrackPointExtension>
        </extensions>
      </trkpt>
      <trkpt lat="45.5787" lon="2.81224">
        <ele>1207.8000488281</ele>
        <time>2024-05-26T09:23:58.000Z</time>
        <extensions>
          <gpxtpx:TrackPointExtension xmlns:gpxtpx="http://www.garmin.com/xmlschemas/TrackPointExtension/v1">
            <gpxtpx:hr>136</gpxtpx:hr>
          </gpxtpx:TrackPointExtension>
        </extensions>
      </trkpt>
      <trkpt lat="45.57878" lon="2.81221">
        <ele>1208.8000488281</ele>
        <time>2024-05-26T09:24:00.000Z</time>
        <extensions>
          <gpxtpx:TrackPointExtension xmlns:gpxtpx="http://www.garmin.com/xmlschemas/TrackPointExtension/v1">
            <gpxtpx:hr>137</gpxtpx:hr>
          </gpxtpx:TrackPointExtension>
        </extensions>
      </trkpt>
      <trkpt lat="45.57882" lon="2.8122">
        <ele>1209</ele>
        <time>2024-05-26T09:24:01.000Z</time>
        <extensions>
          <gpxtpx:TrackPointExtension xmlns:gpxtpx="http://www.garmin.com/xmlschemas/TrackPointExtension/v1">
            <gpxtpx:hr>137</gpxtpx:hr>
          </gpxtpx:TrackPointExtension>
        </extensions>
      </trkpt>
      <trkpt lat="45.5789" lon="2.81217">
        <ele>1209.1999511719</ele>
        <time>2024-05-26T09:24:03.000Z</time>
        <extensions>
          <gpxtpx:TrackPointExtension xmlns:gpxtpx="http://www.garmin.com/xmlschemas/TrackPointExtension/v1">
            <gpxtpx:hr>134</gpxtpx:hr>
          </gpxtpx:TrackPointExtension>
        </extensions>
      </trkpt>
      <trkpt lat="45.57902" lon="2.81214">
        <ele>1210</ele>
        <time>2024-05-26T09:24:06.000Z</time>
        <extensions>
          <gpxtpx:TrackPointExtension xmlns:gpxtpx="http://www.garmin.com/xmlschemas/TrackPointExtension/v1">
            <gpxtpx:hr>135</gpxtpx:hr>
          </gpxtpx:TrackPointExtension>
        </extensions>
      </trkpt>
      <trkpt lat="45.57906" lon="2.81213">
        <ele>1210.4000244141</ele>
        <time>2024-05-26T09:24:07.000Z</time>
        <extensions>
          <gpxtpx:TrackPointExtension xmlns:gpxtpx="http://www.garmin.com/xmlschemas/TrackPointExtension/v1">
            <gpxtpx:hr>134</gpxtpx:hr>
          </gpxtpx:TrackPointExtension>
        </extensions>
      </trkpt>
      <trkpt lat="45.57918" lon="2.81214">
        <ele>1211</ele>
        <time>2024-05-26T09:24:10.000Z</time>
        <extensions>
          <gpxtpx:TrackPointExtension xmlns:gpxtpx="http://www.garmin.com/xmlschemas/TrackPointExtension/v1">
            <gpxtpx:hr>136</gpxtpx:hr>
          </gpxtpx:TrackPointExtension>
        </extensions>
      </trkpt>
      <trkpt lat="45.57921" lon="2.81214">
        <ele>1211.1999511719</ele>
        <time>2024-05-26T09:24:11.000Z</time>
        <extensions>
          <gpxtpx:TrackPointExtension xmlns:gpxtpx="http://www.garmin.com/xmlschemas/TrackPointExtension/v1">
            <gpxtpx:hr>135</gpxtpx:hr>
          </gpxtpx:TrackPointExtension>
        </extensions>
      </trkpt>
      <trkpt lat="45.57929" lon="2.81215">
        <ele>1212</ele>
        <time>2024-05-26T09:24:13.000Z</time>
        <extensions>
          <gpxtpx:TrackPointExtension xmlns:gpxtpx="http://www.garmin.com/xmlschemas/TrackPointExtension/v1">
            <gpxtpx:hr>132</gpxtpx:hr>
          </gpxtpx:TrackPointExtension>
        </extensions>
      </trkpt>
      <trkpt lat="45.57933" lon="2.81215">
        <ele>1212.4000244141</ele>
        <time>2024-05-26T09:24:14.000Z</time>
        <extensions>
          <gpxtpx:TrackPointExtension xmlns:gpxtpx="http://www.garmin.com/xmlschemas/TrackPointExtension/v1">
            <gpxtpx:hr>132</gpxtpx:hr>
          </gpxtpx:TrackPointExtension>
        </extensions>
      </trkpt>
      <trkpt lat="45.57944" lon="2.81216">
        <ele>1213.5999755859</ele>
        <time>2024-05-26T09:24:17.000Z</time>
        <extensions>
          <gpxtpx:TrackPointExtension xmlns:gpxtpx="http://www.garmin.com/xmlschemas/TrackPointExtension/v1">
            <gpxtpx:hr>132</gpxtpx:hr>
          </gpxtpx:TrackPointExtension>
        </extensions>
      </trkpt>
      <trkpt lat="45.57952" lon="2.81218">
        <ele>1214.1999511719</ele>
        <time>2024-05-26T09:24:19.000Z</time>
        <extensions>
          <gpxtpx:TrackPointExtension xmlns:gpxtpx="http://www.garmin.com/xmlschemas/TrackPointExtension/v1">
            <gpxtpx:hr>133</gpxtpx:hr>
          </gpxtpx:TrackPointExtension>
        </extensions>
      </trkpt>
      <trkpt lat="45.5796" lon="2.81219">
        <ele>1214.5999755859</ele>
        <time>2024-05-26T09:24:21.000Z</time>
        <extensions>
          <gpxtpx:TrackPointExtension xmlns:gpxtpx="http://www.garmin.com/xmlschemas/TrackPointExtension/v1">
            <gpxtpx:hr>133</gpxtpx:hr>
          </gpxtpx:TrackPointExtension>
        </extensions>
      </trkpt>
      <trkpt lat="45.5797" lon="2.81219">
        <ele>1215.8000488281</ele>
        <time>2024-05-26T09:24:24.000Z</time>
        <extensions>
          <gpxtpx:TrackPointExtension xmlns:gpxtpx="http://www.garmin.com/xmlschemas/TrackPointExtension/v1">
            <gpxtpx:hr>133</gpxtpx:hr>
          </gpxtpx:TrackPointExtension>
        </extensions>
      </trkpt>
      <trkpt lat="45.57987" lon="2.81215">
        <ele>1216.8000488281</ele>
        <time>2024-05-26T09:24:29.000Z</time>
        <extensions>
          <gpxtpx:TrackPointExtension xmlns:gpxtpx="http://www.garmin.com/xmlschemas/TrackPointExtension/v1">
            <gpxtpx:hr>135</gpxtpx:hr>
          </gpxtpx:TrackPointExtension>
        </extensions>
      </trkpt>
      <trkpt lat="45.57991" lon="2.81214">
        <ele>1217.1999511719</ele>
        <time>2024-05-26T09:24:30.000Z</time>
        <extensions>
          <gpxtpx:TrackPointExtension xmlns:gpxtpx="http://www.garmin.com/xmlschemas/TrackPointExtension/v1">
            <gpxtpx:hr>136</gpxtpx:hr>
          </gpxtpx:TrackPointExtension>
        </extensions>
      </trkpt>
      <trkpt lat="45.58001" lon="2.81212">
        <ele>1218.4000244141</ele>
        <time>2024-05-26T09:24:33.000Z</time>
        <extensions>
          <gpxtpx:TrackPointExtension xmlns:gpxtpx="http://www.garmin.com/xmlschemas/TrackPointExtension/v1">
            <gpxtpx:hr>141</gpxtpx:hr>
          </gpxtpx:TrackPointExtension>
        </extensions>
      </trkpt>
      <trkpt lat="45.58005" lon="2.81212">
        <ele>1218.8000488281</ele>
        <time>2024-05-26T09:24:34.000Z</time>
        <extensions>
          <gpxtpx:TrackPointExtension xmlns:gpxtpx="http://www.garmin.com/xmlschemas/TrackPointExtension/v1">
            <gpxtpx:hr>145</gpxtpx:hr>
          </gpxtpx:TrackPointExtension>
        </extensions>
      </trkpt>
      <trkpt lat="45.58012" lon="2.81214">
        <ele>1219.1999511719</ele>
        <time>2024-05-26T09:24:36.000Z</time>
        <extensions>
          <gpxtpx:TrackPointExtension xmlns:gpxtpx="http://www.garmin.com/xmlschemas/TrackPointExtension/v1">
            <gpxtpx:hr>148</gpxtpx:hr>
          </gpxtpx:TrackPointExtension>
        </extensions>
      </trkpt>
      <trkpt lat="45.58015" lon="2.81215">
        <ele>1219.5999755859</ele>
        <time>2024-05-26T09:24:37.000Z</time>
        <extensions>
          <gpxtpx:TrackPointExtension xmlns:gpxtpx="http://www.garmin.com/xmlschemas/TrackPointExtension/v1">
            <gpxtpx:hr>150</gpxtpx:hr>
          </gpxtpx:TrackPointExtension>
        </extensions>
      </trkpt>
      <trkpt lat="45.58022" lon="2.81218">
        <ele>1220</ele>
        <time>2024-05-26T09:24:39.000Z</time>
        <extensions>
          <gpxtpx:TrackPointExtension xmlns:gpxtpx="http://www.garmin.com/xmlschemas/TrackPointExtension/v1">
            <gpxtpx:hr>156</gpxtpx:hr>
          </gpxtpx:TrackPointExtension>
        </extensions>
      </trkpt>
      <trkpt lat="45.58025" lon="2.81221">
        <ele>1220.1999511719</ele>
        <time>2024-05-26T09:24:40.000Z</time>
        <extensions>
          <gpxtpx:TrackPointExtension xmlns:gpxtpx="http://www.garmin.com/xmlschemas/TrackPointExtension/v1">
            <gpxtpx:hr>159</gpxtpx:hr>
          </gpxtpx:TrackPointExtension>
        </extensions>
      </trkpt>
      <trkpt lat="45.58032" lon="2.81227">
        <ele>1220.5999755859</ele>
        <time>2024-05-26T09:24:42.000Z</time>
        <extensions>
          <gpxtpx:TrackPointExtension xmlns:gpxtpx="http://www.garmin.com/xmlschemas/TrackPointExtension/v1">
            <gpxtpx:hr>161</gpxtpx:hr>
          </gpxtpx:TrackPointExtension>
        </extensions>
      </trkpt>
      <trkpt lat="45.58034" lon="2.81231">
        <ele>1220.8000488281</ele>
        <time>2024-05-26T09:24:43.000Z</time>
        <extensions>
          <gpxtpx:TrackPointExtension xmlns:gpxtpx="http://www.garmin.com/xmlschemas/TrackPointExtension/v1">
            <gpxtpx:hr>162</gpxtpx:hr>
          </gpxtpx:TrackPointExtension>
        </extensions>
      </trkpt>
      <trkpt lat="45.58039" lon="2.81257">
        <ele>1222</ele>
        <time>2024-05-26T09:24:48.000Z</time>
        <extensions>
          <gpxtpx:TrackPointExtension xmlns:gpxtpx="http://www.garmin.com/xmlschemas/TrackPointExtension/v1">
            <gpxtpx:hr>162</gpxtpx:hr>
          </gpxtpx:TrackPointExtension>
        </extensions>
      </trkpt>
      <trkpt lat="45.58028" lon="2.81279">
        <ele>1223.1999511719</ele>
        <time>2024-05-26T09:24:53.000Z</time>
        <extensions>
          <gpxtpx:TrackPointExtension xmlns:gpxtpx="http://www.garmin.com/xmlschemas/TrackPointExtension/v1">
            <gpxtpx:hr>161</gpxtpx:hr>
          </gpxtpx:TrackPointExtension>
        </extensions>
      </trkpt>
      <trkpt lat="45.58017" lon="2.81288">
        <ele>1224.1999511719</ele>
        <time>2024-05-26T09:24:56.000Z</time>
        <extensions>
          <gpxtpx:TrackPointExtension xmlns:gpxtpx="http://www.garmin.com/xmlschemas/TrackPointExtension/v1">
            <gpxtpx:hr>160</gpxtpx:hr>
          </gpxtpx:TrackPointExtension>
        </extensions>
      </trkpt>
      <trkpt lat="45.58006" lon="2.81293">
        <ele>1224.4000244141</ele>
        <time>2024-05-26T09:24:59.000Z</time>
        <extensions>
          <gpxtpx:TrackPointExtension xmlns:gpxtpx="http://www.garmin.com/xmlschemas/TrackPointExtension/v1">
            <gpxtpx:hr>160</gpxtpx:hr>
          </gpxtpx:TrackPointExtension>
        </extensions>
      </trkpt>
      <trkpt lat="45.57992" lon="2.81303">
        <ele>1225.5999755859</ele>
        <time>2024-05-26T09:25:03.000Z</time>
        <extensions>
          <gpxtpx:TrackPointExtension xmlns:gpxtpx="http://www.garmin.com/xmlschemas/TrackPointExtension/v1">
            <gpxtpx:hr>160</gpxtpx:hr>
          </gpxtpx:TrackPointExtension>
        </extensions>
      </trkpt>
      <trkpt lat="45.57985" lon="2.81308">
        <ele>1227</ele>
        <time>2024-05-26T09:25:05.000Z</time>
        <extensions>
          <gpxtpx:TrackPointExtension xmlns:gpxtpx="http://www.garmin.com/xmlschemas/TrackPointExtension/v1">
            <gpxtpx:hr>160</gpxtpx:hr>
          </gpxtpx:TrackPointExtension>
        </extensions>
      </trkpt>
      <trkpt lat="45.57981" lon="2.81311">
        <ele>1227.1999511719</ele>
        <time>2024-05-26T09:25:06.000Z</time>
        <extensions>
          <gpxtpx:TrackPointExtension xmlns:gpxtpx="http://www.garmin.com/xmlschemas/TrackPointExtension/v1">
            <gpxtpx:hr>160</gpxtpx:hr>
          </gpxtpx:TrackPointExtension>
        </extensions>
      </trkpt>
      <trkpt lat="45.5797" lon="2.81318">
        <ele>1228</ele>
        <time>2024-05-26T09:25:09.000Z</time>
        <extensions>
          <gpxtpx:TrackPointExtension xmlns:gpxtpx="http://www.garmin.com/xmlschemas/TrackPointExtension/v1">
            <gpxtpx:hr>160</gpxtpx:hr>
          </gpxtpx:TrackPointExtension>
        </extensions>
      </trkpt>
      <trkpt lat="45.57956" lon="2.81326">
        <ele>1229</ele>
        <time>2024-05-26T09:25:13.000Z</time>
        <extensions>
          <gpxtpx:TrackPointExtension xmlns:gpxtpx="http://www.garmin.com/xmlschemas/TrackPointExtension/v1">
            <gpxtpx:hr>159</gpxtpx:hr>
          </gpxtpx:TrackPointExtension>
        </extensions>
      </trkpt>
      <trkpt lat="45.57942" lon="2.81336">
        <ele>1230.1999511719</ele>
        <time>2024-05-26T09:25:17.000Z</time>
        <extensions>
          <gpxtpx:TrackPointExtension xmlns:gpxtpx="http://www.garmin.com/xmlschemas/TrackPointExtension/v1">
            <gpxtpx:hr>160</gpxtpx:hr>
          </gpxtpx:TrackPointExtension>
        </extensions>
      </trkpt>
      <trkpt lat="45.57928" lon="2.81348">
        <ele>1231.1999511719</ele>
        <time>2024-05-26T09:25:21.000Z</time>
        <extensions>
          <gpxtpx:TrackPointExtension xmlns:gpxtpx="http://www.garmin.com/xmlschemas/TrackPointExtension/v1">
            <gpxtpx:hr>160</gpxtpx:hr>
          </gpxtpx:TrackPointExtension>
        </extensions>
      </trkpt>
      <trkpt lat="45.57925" lon="2.81351">
        <ele>1232</ele>
        <time>2024-05-26T09:25:22.000Z</time>
        <extensions>
          <gpxtpx:TrackPointExtension xmlns:gpxtpx="http://www.garmin.com/xmlschemas/TrackPointExtension/v1">
            <gpxtpx:hr>160</gpxtpx:hr>
          </gpxtpx:TrackPointExtension>
        </extensions>
      </trkpt>
      <trkpt lat="45.57919" lon="2.81359">
        <ele>1232.8000488281</ele>
        <time>2024-05-26T09:25:24.000Z</time>
        <extensions>
          <gpxtpx:TrackPointExtension xmlns:gpxtpx="http://www.garmin.com/xmlschemas/TrackPointExtension/v1">
            <gpxtpx:hr>161</gpxtpx:hr>
          </gpxtpx:TrackPointExtension>
        </extensions>
      </trkpt>
      <trkpt lat="45.57902" lon="2.81379">
        <ele>1233.8000488281</ele>
        <time>2024-05-26T09:25:29.000Z</time>
        <extensions>
          <gpxtpx:TrackPointExtension xmlns:gpxtpx="http://www.garmin.com/xmlschemas/TrackPointExtension/v1">
            <gpxtpx:hr>161</gpxtpx:hr>
          </gpxtpx:TrackPointExtension>
        </extensions>
      </trkpt>
      <trkpt lat="45.57896" lon="2.81387">
        <ele>1234.5999755859</ele>
        <time>2024-05-26T09:25:31.000Z</time>
        <extensions>
          <gpxtpx:TrackPointExtension xmlns:gpxtpx="http://www.garmin.com/xmlschemas/TrackPointExtension/v1">
            <gpxtpx:hr>161</gpxtpx:hr>
          </gpxtpx:TrackPointExtension>
        </extensions>
      </trkpt>
      <trkpt lat="45.57889" lon="2.81395">
        <ele>1235</ele>
        <time>2024-05-26T09:25:33.000Z</time>
        <extensions>
          <gpxtpx:TrackPointExtension xmlns:gpxtpx="http://www.garmin.com/xmlschemas/TrackPointExtension/v1">
            <gpxtpx:hr>161</gpxtpx:hr>
          </gpxtpx:TrackPointExtension>
        </extensions>
      </trkpt>
      <trkpt lat="45.57876" lon="2.81411">
        <ele>1236.1999511719</ele>
        <time>2024-05-26T09:25:37.000Z</time>
        <extensions>
          <gpxtpx:TrackPointExtension xmlns:gpxtpx="http://www.garmin.com/xmlschemas/TrackPointExtension/v1">
            <gpxtpx:hr>162</gpxtpx:hr>
          </gpxtpx:TrackPointExtension>
        </extensions>
      </trkpt>
      <trkpt lat="45.57862" lon="2.81425">
        <ele>1237.1999511719</ele>
        <time>2024-05-26T09:25:41.000Z</time>
        <extensions>
          <gpxtpx:TrackPointExtension xmlns:gpxtpx="http://www.garmin.com/xmlschemas/TrackPointExtension/v1">
            <gpxtpx:hr>162</gpxtpx:hr>
          </gpxtpx:TrackPointExtension>
        </extensions>
      </trkpt>
      <trkpt lat="45.57859" lon="2.81428">
        <ele>1237.4000244141</ele>
        <time>2024-05-26T09:25:42.000Z</time>
        <extensions>
          <gpxtpx:TrackPointExtension xmlns:gpxtpx="http://www.garmin.com/xmlschemas/TrackPointExtension/v1">
            <gpxtpx:hr>161</gpxtpx:hr>
          </gpxtpx:TrackPointExtension>
        </extensions>
      </trkpt>
      <trkpt lat="45.57852" lon="2.81434">
        <ele>1238.1999511719</ele>
        <time>2024-05-26T09:25:44.000Z</time>
        <extensions>
          <gpxtpx:TrackPointExtension xmlns:gpxtpx="http://www.garmin.com/xmlschemas/TrackPointExtension/v1">
            <gpxtpx:hr>162</gpxtpx:hr>
          </gpxtpx:TrackPointExtension>
        </extensions>
      </trkpt>
      <trkpt lat="45.57846" lon="2.81441">
        <ele>1238.4000244141</ele>
        <time>2024-05-26T09:25:46.000Z</time>
        <extensions>
          <gpxtpx:TrackPointExtension xmlns:gpxtpx="http://www.garmin.com/xmlschemas/TrackPointExtension/v1">
            <gpxtpx:hr>162</gpxtpx:hr>
          </gpxtpx:TrackPointExtension>
        </extensions>
      </trkpt>
      <trkpt lat="45.57843" lon="2.81445">
        <ele>1238.8000488281</ele>
        <time>2024-05-26T09:25:47.000Z</time>
        <extensions>
          <gpxtpx:TrackPointExtension xmlns:gpxtpx="http://www.garmin.com/xmlschemas/TrackPointExtension/v1">
            <gpxtpx:hr>162</gpxtpx:hr>
          </gpxtpx:TrackPointExtension>
        </extensions>
      </trkpt>
      <trkpt lat="45.57839" lon="2.81448">
        <ele>1239.5999755859</ele>
        <time>2024-05-26T09:25:48.000Z</time>
        <extensions>
          <gpxtpx:TrackPointExtension xmlns:gpxtpx="http://www.garmin.com/xmlschemas/TrackPointExtension/v1">
            <gpxtpx:hr>162</gpxtpx:hr>
          </gpxtpx:TrackPointExtension>
        </extensions>
      </trkpt>
      <trkpt lat="45.57828" lon="2.81457">
        <ele>1240.5999755859</ele>
        <time>2024-05-26T09:25:51.000Z</time>
        <extensions>
          <gpxtpx:TrackPointExtension xmlns:gpxtpx="http://www.garmin.com/xmlschemas/TrackPointExtension/v1">
            <gpxtpx:hr>163</gpxtpx:hr>
          </gpxtpx:TrackPointExtension>
        </extensions>
      </trkpt>
      <trkpt lat="45.57813" lon="2.8147">
        <ele>1241.8000488281</ele>
        <time>2024-05-26T09:25:55.000Z</time>
        <extensions>
          <gpxtpx:TrackPointExtension xmlns:gpxtpx="http://www.garmin.com/xmlschemas/TrackPointExtension/v1">
            <gpxtpx:hr>161</gpxtpx:hr>
          </gpxtpx:TrackPointExtension>
        </extensions>
      </trkpt>
      <trkpt lat="45.5781" lon="2.81473">
        <ele>1241.8000488281</ele>
        <time>2024-05-26T09:25:56.000Z</time>
        <extensions>
          <gpxtpx:TrackPointExtension xmlns:gpxtpx="http://www.garmin.com/xmlschemas/TrackPointExtension/v1">
            <gpxtpx:hr>160</gpxtpx:hr>
          </gpxtpx:TrackPointExtension>
        </extensions>
      </trkpt>
      <trkpt lat="45.57797" lon="2.81487">
        <ele>1242.8000488281</ele>
        <time>2024-05-26T09:26:00.000Z</time>
        <extensions>
          <gpxtpx:TrackPointExtension xmlns:gpxtpx="http://www.garmin.com/xmlschemas/TrackPointExtension/v1">
            <gpxtpx:hr>158</gpxtpx:hr>
          </gpxtpx:TrackPointExtension>
        </extensions>
      </trkpt>
      <trkpt lat="45.57787" lon="2.81499">
        <ele>1243.8000488281</ele>
        <time>2024-05-26T09:26:03.000Z</time>
        <extensions>
          <gpxtpx:TrackPointExtension xmlns:gpxtpx="http://www.garmin.com/xmlschemas/TrackPointExtension/v1">
            <gpxtpx:hr>158</gpxtpx:hr>
          </gpxtpx:TrackPointExtension>
        </extensions>
      </trkpt>
      <trkpt lat="45.57784" lon="2.81503">
        <ele>1244.1999511719</ele>
        <time>2024-05-26T09:26:04.000Z</time>
        <extensions>
          <gpxtpx:TrackPointExtension xmlns:gpxtpx="http://www.garmin.com/xmlschemas/TrackPointExtension/v1">
            <gpxtpx:hr>159</gpxtpx:hr>
          </gpxtpx:TrackPointExtension>
        </extensions>
      </trkpt>
      <trkpt lat="45.57781" lon="2.81508">
        <ele>1244.4000244141</ele>
        <time>2024-05-26T09:26:05.000Z</time>
        <extensions>
          <gpxtpx:TrackPointExtension xmlns:gpxtpx="http://www.garmin.com/xmlschemas/TrackPointExtension/v1">
            <gpxtpx:hr>160</gpxtpx:hr>
          </gpxtpx:TrackPointExtension>
        </extensions>
      </trkpt>
      <trkpt lat="45.57774" lon="2.8153">
        <ele>1245.4000244141</ele>
        <time>2024-05-26T09:26:09.000Z</time>
        <extensions>
          <gpxtpx:TrackPointExtension xmlns:gpxtpx="http://www.garmin.com/xmlschemas/TrackPointExtension/v1">
            <gpxtpx:hr>162</gpxtpx:hr>
          </gpxtpx:TrackPointExtension>
        </extensions>
      </trkpt>
      <trkpt lat="45.57768" lon="2.81544">
        <ele>1246.1999511719</ele>
        <time>2024-05-26T09:26:12.000Z</time>
        <extensions>
          <gpxtpx:TrackPointExtension xmlns:gpxtpx="http://www.garmin.com/xmlschemas/TrackPointExtension/v1">
            <gpxtpx:hr>162</gpxtpx:hr>
          </gpxtpx:TrackPointExtension>
        </extensions>
      </trkpt>
      <trkpt lat="45.57766" lon="2.81549">
        <ele>1246.4000244141</ele>
        <time>2024-05-26T09:26:13.000Z</time>
        <extensions>
          <gpxtpx:TrackPointExtension xmlns:gpxtpx="http://www.garmin.com/xmlschemas/TrackPointExtension/v1">
            <gpxtpx:hr>162</gpxtpx:hr>
          </gpxtpx:TrackPointExtension>
        </extensions>
      </trkpt>
      <trkpt lat="45.57764" lon="2.81554">
        <ele>1246.5999755859</ele>
        <time>2024-05-26T09:26:14.000Z</time>
        <extensions>
          <gpxtpx:TrackPointExtension xmlns:gpxtpx="http://www.garmin.com/xmlschemas/TrackPointExtension/v1">
            <gpxtpx:hr>163</gpxtpx:hr>
          </gpxtpx:TrackPointExtension>
        </extensions>
      </trkpt>
      <trkpt lat="45.57756" lon="2.8158">
        <ele>1247.8000488281</ele>
        <time>2024-05-26T09:26:19.000Z</time>
        <extensions>
          <gpxtpx:TrackPointExtension xmlns:gpxtpx="http://www.garmin.com/xmlschemas/TrackPointExtension/v1">
            <gpxtpx:hr>164</gpxtpx:hr>
          </gpxtpx:TrackPointExtension>
        </extensions>
      </trkpt>
      <trkpt lat="45.57752" lon="2.8159">
        <ele>1249</ele>
        <time>2024-05-26T09:26:21.000Z</time>
        <extensions>
          <gpxtpx:TrackPointExtension xmlns:gpxtpx="http://www.garmin.com/xmlschemas/TrackPointExtension/v1">
            <gpxtpx:hr>164</gpxtpx:hr>
          </gpxtpx:TrackPointExtension>
        </extensions>
      </trkpt>
      <trkpt lat="45.57745" lon="2.81606">
        <ele>1250.4000244141</ele>
        <time>2024-05-26T09:26:24.000Z</time>
        <extensions>
          <gpxtpx:TrackPointExtension xmlns:gpxtpx="http://www.garmin.com/xmlschemas/TrackPointExtension/v1">
            <gpxtpx:hr>164</gpxtpx:hr>
          </gpxtpx:TrackPointExtension>
        </extensions>
      </trkpt>
      <trkpt lat="45.57738" lon="2.81622">
        <ele>1251.4000244141</ele>
        <time>2024-05-26T09:26:27.000Z</time>
        <extensions>
          <gpxtpx:TrackPointExtension xmlns:gpxtpx="http://www.garmin.com/xmlschemas/TrackPointExtension/v1">
            <gpxtpx:hr>164</gpxtpx:hr>
          </gpxtpx:TrackPointExtension>
        </extensions>
      </trkpt>
      <trkpt lat="45.57735" lon="2.81627">
        <ele>1251.5999755859</ele>
        <time>2024-05-26T09:26:28.000Z</time>
        <extensions>
          <gpxtpx:TrackPointExtension xmlns:gpxtpx="http://www.garmin.com/xmlschemas/TrackPointExtension/v1">
            <gpxtpx:hr>165</gpxtpx:hr>
          </gpxtpx:TrackPointExtension>
        </extensions>
      </trkpt>
      <trkpt lat="45.57727" lon="2.81643">
        <ele>1252.5999755859</ele>
        <time>2024-05-26T09:26:31.000Z</time>
        <extensions>
          <gpxtpx:TrackPointExtension xmlns:gpxtpx="http://www.garmin.com/xmlschemas/TrackPointExtension/v1">
            <gpxtpx:hr>165</gpxtpx:hr>
          </gpxtpx:TrackPointExtension>
        </extensions>
      </trkpt>
      <trkpt lat="45.57718" lon="2.81657">
        <ele>1253.5999755859</ele>
        <time>2024-05-26T09:26:34.000Z</time>
        <extensions>
          <gpxtpx:TrackPointExtension xmlns:gpxtpx="http://www.garmin.com/xmlschemas/TrackPointExtension/v1">
            <gpxtpx:hr>166</gpxtpx:hr>
          </gpxtpx:TrackPointExtension>
        </extensions>
      </trkpt>
      <trkpt lat="45.57715" lon="2.81662">
        <ele>1253.8000488281</ele>
        <time>2024-05-26T09:26:35.000Z</time>
        <extensions>
          <gpxtpx:TrackPointExtension xmlns:gpxtpx="http://www.garmin.com/xmlschemas/TrackPointExtension/v1">
            <gpxtpx:hr>167</gpxtpx:hr>
          </gpxtpx:TrackPointExtension>
        </extensions>
      </trkpt>
      <trkpt lat="45.57691" lon="2.81698">
        <ele>1255.1999511719</ele>
        <time>2024-05-26T09:26:43.000Z</time>
        <extensions>
          <gpxtpx:TrackPointExtension xmlns:gpxtpx="http://www.garmin.com/xmlschemas/TrackPointExtension/v1">
            <gpxtpx:hr>167</gpxtpx:hr>
          </gpxtpx:TrackPointExtension>
        </extensions>
      </trkpt>
      <trkpt lat="45.5768" lon="2.81714">
        <ele>1256.1999511719</ele>
        <time>2024-05-26T09:26:47.000Z</time>
        <extensions>
          <gpxtpx:TrackPointExtension xmlns:gpxtpx="http://www.garmin.com/xmlschemas/TrackPointExtension/v1">
            <gpxtpx:hr>166</gpxtpx:hr>
          </gpxtpx:TrackPointExtension>
        </extensions>
      </trkpt>
      <trkpt lat="45.57673" lon="2.81725">
        <ele>1257</ele>
        <time>2024-05-26T09:26:50.000Z</time>
        <extensions>
          <gpxtpx:TrackPointExtension xmlns:gpxtpx="http://www.garmin.com/xmlschemas/TrackPointExtension/v1">
            <gpxtpx:hr>166</gpxtpx:hr>
          </gpxtpx:TrackPointExtension>
        </extensions>
      </trkpt>
      <trkpt lat="45.57667" lon="2.81732">
        <ele>1257.5999755859</ele>
        <time>2024-05-26T09:26:52.000Z</time>
        <extensions>
          <gpxtpx:TrackPointExtension xmlns:gpxtpx="http://www.garmin.com/xmlschemas/TrackPointExtension/v1">
            <gpxtpx:hr>166</gpxtpx:hr>
          </gpxtpx:TrackPointExtension>
        </extensions>
      </trkpt>
      <trkpt lat="45.57662" lon="2.81739">
        <ele>1259.1999511719</ele>
        <time>2024-05-26T09:26:54.000Z</time>
        <extensions>
          <gpxtpx:TrackPointExtension xmlns:gpxtpx="http://www.garmin.com/xmlschemas/TrackPointExtension/v1">
            <gpxtpx:hr>166</gpxtpx:hr>
          </gpxtpx:TrackPointExtension>
        </extensions>
      </trkpt>
      <trkpt lat="45.57656" lon="2.81746">
        <ele>1260.1999511719</ele>
        <time>2024-05-26T09:26:56.000Z</time>
        <extensions>
          <gpxtpx:TrackPointExtension xmlns:gpxtpx="http://www.garmin.com/xmlschemas/TrackPointExtension/v1">
            <gpxtpx:hr>165</gpxtpx:hr>
          </gpxtpx:TrackPointExtension>
        </extensions>
      </trkpt>
      <trkpt lat="45.57647" lon="2.81755">
        <ele>1260.8000488281</ele>
        <time>2024-05-26T09:26:59.000Z</time>
        <extensions>
          <gpxtpx:TrackPointExtension xmlns:gpxtpx="http://www.garmin.com/xmlschemas/TrackPointExtension/v1">
            <gpxtpx:hr>166</gpxtpx:hr>
          </gpxtpx:TrackPointExtension>
        </extensions>
      </trkpt>
      <trkpt lat="45.5763" lon="2.81762">
        <ele>1261</ele>
        <time>2024-05-26T09:27:03.000Z</time>
        <extensions>
          <gpxtpx:TrackPointExtension xmlns:gpxtpx="http://www.garmin.com/xmlschemas/TrackPointExtension/v1">
            <gpxtpx:hr>164</gpxtpx:hr>
          </gpxtpx:TrackPointExtension>
        </extensions>
      </trkpt>
      <trkpt lat="45.57626" lon="2.81762">
        <ele>1260.8000488281</ele>
        <time>2024-05-26T09:27:04.000Z</time>
        <extensions>
          <gpxtpx:TrackPointExtension xmlns:gpxtpx="http://www.garmin.com/xmlschemas/TrackPointExtension/v1">
            <gpxtpx:hr>163</gpxtpx:hr>
          </gpxtpx:TrackPointExtension>
        </extensions>
      </trkpt>
      <trkpt lat="45.5762" lon="2.81762">
        <ele>1260.8000488281</ele>
        <time>2024-05-26T09:27:05.000Z</time>
        <extensions>
          <gpxtpx:TrackPointExtension xmlns:gpxtpx="http://www.garmin.com/xmlschemas/TrackPointExtension/v1">
            <gpxtpx:hr>164</gpxtpx:hr>
          </gpxtpx:TrackPointExtension>
        </extensions>
      </trkpt>
      <trkpt lat="45.57605" lon="2.81757">
        <ele>1261</ele>
        <time>2024-05-26T09:27:08.000Z</time>
        <extensions>
          <gpxtpx:TrackPointExtension xmlns:gpxtpx="http://www.garmin.com/xmlschemas/TrackPointExtension/v1">
            <gpxtpx:hr>166</gpxtpx:hr>
          </gpxtpx:TrackPointExtension>
        </extensions>
      </trkpt>
      <trkpt lat="45.576" lon="2.81755">
        <ele>1261.5999755859</ele>
        <time>2024-05-26T09:27:09.000Z</time>
        <extensions>
          <gpxtpx:TrackPointExtension xmlns:gpxtpx="http://www.garmin.com/xmlschemas/TrackPointExtension/v1">
            <gpxtpx:hr>166</gpxtpx:hr>
          </gpxtpx:TrackPointExtension>
        </extensions>
      </trkpt>
      <trkpt lat="45.57573" lon="2.81746">
        <ele>1261.5999755859</ele>
        <time>2024-05-26T09:27:14.000Z</time>
        <extensions>
          <gpxtpx:TrackPointExtension xmlns:gpxtpx="http://www.garmin.com/xmlschemas/TrackPointExtension/v1">
            <gpxtpx:hr>165</gpxtpx:hr>
          </gpxtpx:TrackPointExtension>
        </extensions>
      </trkpt>
      <trkpt lat="45.57567" lon="2.81746">
        <ele>1261.5999755859</ele>
        <time>2024-05-26T09:27:15.000Z</time>
        <extensions>
          <gpxtpx:TrackPointExtension xmlns:gpxtpx="http://www.garmin.com/xmlschemas/TrackPointExtension/v1">
            <gpxtpx:hr>165</gpxtpx:hr>
          </gpxtpx:TrackPointExtension>
        </extensions>
      </trkpt>
      <trkpt lat="45.57555" lon="2.81749">
        <ele>1261.5999755859</ele>
        <time>2024-05-26T09:27:17.000Z</time>
        <extensions>
          <gpxtpx:TrackPointExtension xmlns:gpxtpx="http://www.garmin.com/xmlschemas/TrackPointExtension/v1">
            <gpxtpx:hr>165</gpxtpx:hr>
          </gpxtpx:TrackPointExtension>
        </extensions>
      </trkpt>
      <trkpt lat="45.57545" lon="2.81755">
        <ele>1263.4000244141</ele>
        <time>2024-05-26T09:27:19.000Z</time>
        <extensions>
          <gpxtpx:TrackPointExtension xmlns:gpxtpx="http://www.garmin.com/xmlschemas/TrackPointExtension/v1">
            <gpxtpx:hr>165</gpxtpx:hr>
          </gpxtpx:TrackPointExtension>
        </extensions>
      </trkpt>
      <trkpt lat="45.57537" lon="2.81766">
        <ele>1264.8000488281</ele>
        <time>2024-05-26T09:27:21.000Z</time>
        <extensions>
          <gpxtpx:TrackPointExtension xmlns:gpxtpx="http://www.garmin.com/xmlschemas/TrackPointExtension/v1">
            <gpxtpx:hr>165</gpxtpx:hr>
          </gpxtpx:TrackPointExtension>
        </extensions>
      </trkpt>
      <trkpt lat="45.57522" lon="2.81787">
        <ele>1265.8000488281</ele>
        <time>2024-05-26T09:27:25.000Z</time>
        <extensions>
          <gpxtpx:TrackPointExtension xmlns:gpxtpx="http://www.garmin.com/xmlschemas/TrackPointExtension/v1">
            <gpxtpx:hr>166</gpxtpx:hr>
          </gpxtpx:TrackPointExtension>
        </extensions>
      </trkpt>
      <trkpt lat="45.57519" lon="2.81793">
        <ele>1265.8000488281</ele>
        <time>2024-05-26T09:27:26.000Z</time>
        <extensions>
          <gpxtpx:TrackPointExtension xmlns:gpxtpx="http://www.garmin.com/xmlschemas/TrackPointExtension/v1">
            <gpxtpx:hr>166</gpxtpx:hr>
          </gpxtpx:TrackPointExtension>
        </extensions>
      </trkpt>
      <trkpt lat="45.57511" lon="2.81802">
        <ele>1266.1999511719</ele>
        <time>2024-05-26T09:27:28.000Z</time>
        <extensions>
          <gpxtpx:TrackPointExtension xmlns:gpxtpx="http://www.garmin.com/xmlschemas/TrackPointExtension/v1">
            <gpxtpx:hr>167</gpxtpx:hr>
          </gpxtpx:TrackPointExtension>
        </extensions>
      </trkpt>
      <trkpt lat="45.57503" lon="2.8181">
        <ele>1266.5999755859</ele>
        <time>2024-05-26T09:27:30.000Z</time>
        <extensions>
          <gpxtpx:TrackPointExtension xmlns:gpxtpx="http://www.garmin.com/xmlschemas/TrackPointExtension/v1">
            <gpxtpx:hr>166</gpxtpx:hr>
          </gpxtpx:TrackPointExtension>
        </extensions>
      </trkpt>
      <trkpt lat="45.57498" lon="2.81813">
        <ele>1266.5999755859</ele>
        <time>2024-05-26T09:27:31.000Z</time>
        <extensions>
          <gpxtpx:TrackPointExtension xmlns:gpxtpx="http://www.garmin.com/xmlschemas/TrackPointExtension/v1">
            <gpxtpx:hr>166</gpxtpx:hr>
          </gpxtpx:TrackPointExtension>
        </extensions>
      </trkpt>
      <trkpt lat="45.57494" lon="2.81815">
        <ele>1266.8000488281</ele>
        <time>2024-05-26T09:27:32.000Z</time>
        <extensions>
          <gpxtpx:TrackPointExtension xmlns:gpxtpx="http://www.garmin.com/xmlschemas/TrackPointExtension/v1">
            <gpxtpx:hr>166</gpxtpx:hr>
          </gpxtpx:TrackPointExtension>
        </extensions>
      </trkpt>
      <trkpt lat="45.57484" lon="2.81818">
        <ele>1267.1999511719</ele>
        <time>2024-05-26T09:27:34.000Z</time>
        <extensions>
          <gpxtpx:TrackPointExtension xmlns:gpxtpx="http://www.garmin.com/xmlschemas/TrackPointExtension/v1">
            <gpxtpx:hr>164</gpxtpx:hr>
          </gpxtpx:TrackPointExtension>
        </extensions>
      </trkpt>
      <trkpt lat="45.57475" lon="2.81818">
        <ele>1267.8000488281</ele>
        <time>2024-05-26T09:27:36.000Z</time>
        <extensions>
          <gpxtpx:TrackPointExtension xmlns:gpxtpx="http://www.garmin.com/xmlschemas/TrackPointExtension/v1">
            <gpxtpx:hr>163</gpxtpx:hr>
          </gpxtpx:TrackPointExtension>
        </extensions>
      </trkpt>
      <trkpt lat="45.57471" lon="2.81817">
        <ele>1268</ele>
        <time>2024-05-26T09:27:37.000Z</time>
        <extensions>
          <gpxtpx:TrackPointExtension xmlns:gpxtpx="http://www.garmin.com/xmlschemas/TrackPointExtension/v1">
            <gpxtpx:hr>163</gpxtpx:hr>
          </gpxtpx:TrackPointExtension>
        </extensions>
      </trkpt>
      <trkpt lat="45.57461" lon="2.81813">
        <ele>1268.1999511719</ele>
        <time>2024-05-26T09:27:39.000Z</time>
        <extensions>
          <gpxtpx:TrackPointExtension xmlns:gpxtpx="http://www.garmin.com/xmlschemas/TrackPointExtension/v1">
            <gpxtpx:hr>163</gpxtpx:hr>
          </gpxtpx:TrackPointExtension>
        </extensions>
      </trkpt>
      <trkpt lat="45.57454" lon="2.81806">
        <ele>1268.8000488281</ele>
        <time>2024-05-26T09:27:41.000Z</time>
        <extensions>
          <gpxtpx:TrackPointExtension xmlns:gpxtpx="http://www.garmin.com/xmlschemas/TrackPointExtension/v1">
            <gpxtpx:hr>162</gpxtpx:hr>
          </gpxtpx:TrackPointExtension>
        </extensions>
      </trkpt>
      <trkpt lat="45.5745" lon="2.81802">
        <ele>1269.1999511719</ele>
        <time>2024-05-26T09:27:42.000Z</time>
        <extensions>
          <gpxtpx:TrackPointExtension xmlns:gpxtpx="http://www.garmin.com/xmlschemas/TrackPointExtension/v1">
            <gpxtpx:hr>162</gpxtpx:hr>
          </gpxtpx:TrackPointExtension>
        </extensions>
      </trkpt>
      <trkpt lat="45.57438" lon="2.8179">
        <ele>1270.5999755859</ele>
        <time>2024-05-26T09:27:45.000Z</time>
        <extensions>
          <gpxtpx:TrackPointExtension xmlns:gpxtpx="http://www.garmin.com/xmlschemas/TrackPointExtension/v1">
            <gpxtpx:hr>160</gpxtpx:hr>
          </gpxtpx:TrackPointExtension>
        </extensions>
      </trkpt>
      <trkpt lat="45.57429" lon="2.81782">
        <ele>1271</ele>
        <time>2024-05-26T09:27:47.000Z</time>
        <extensions>
          <gpxtpx:TrackPointExtension xmlns:gpxtpx="http://www.garmin.com/xmlschemas/TrackPointExtension/v1">
            <gpxtpx:hr>159</gpxtpx:hr>
          </gpxtpx:TrackPointExtension>
        </extensions>
      </trkpt>
      <trkpt lat="45.5742" lon="2.81774">
        <ele>1271.1999511719</ele>
        <time>2024-05-26T09:27:49.000Z</time>
        <extensions>
          <gpxtpx:TrackPointExtension xmlns:gpxtpx="http://www.garmin.com/xmlschemas/TrackPointExtension/v1">
            <gpxtpx:hr>160</gpxtpx:hr>
          </gpxtpx:TrackPointExtension>
        </extensions>
      </trkpt>
      <trkpt lat="45.57409" lon="2.81768">
        <ele>1272.4000244141</ele>
        <time>2024-05-26T09:27:51.000Z</time>
        <extensions>
          <gpxtpx:TrackPointExtension xmlns:gpxtpx="http://www.garmin.com/xmlschemas/TrackPointExtension/v1">
            <gpxtpx:hr>159</gpxtpx:hr>
          </gpxtpx:TrackPointExtension>
        </extensions>
      </trkpt>
      <trkpt lat="45.57403" lon="2.81766">
        <ele>1272.5999755859</ele>
        <time>2024-05-26T09:27:52.000Z</time>
        <extensions>
          <gpxtpx:TrackPointExtension xmlns:gpxtpx="http://www.garmin.com/xmlschemas/TrackPointExtension/v1">
            <gpxtpx:hr>159</gpxtpx:hr>
          </gpxtpx:TrackPointExtension>
        </extensions>
      </trkpt>
      <trkpt lat="45.57391" lon="2.81768">
        <ele>1273.5999755859</ele>
        <time>2024-05-26T09:27:54.000Z</time>
        <extensions>
          <gpxtpx:TrackPointExtension xmlns:gpxtpx="http://www.garmin.com/xmlschemas/TrackPointExtension/v1">
            <gpxtpx:hr>159</gpxtpx:hr>
          </gpxtpx:TrackPointExtension>
        </extensions>
      </trkpt>
      <trkpt lat="45.57386" lon="2.81769">
        <ele>1273.8000488281</ele>
        <time>2024-05-26T09:27:55.000Z</time>
        <extensions>
          <gpxtpx:TrackPointExtension xmlns:gpxtpx="http://www.garmin.com/xmlschemas/TrackPointExtension/v1">
            <gpxtpx:hr>159</gpxtpx:hr>
          </gpxtpx:TrackPointExtension>
        </extensions>
      </trkpt>
      <trkpt lat="45.57376" lon="2.81776">
        <ele>1274.4000244141</ele>
        <time>2024-05-26T09:27:57.000Z</time>
        <extensions>
          <gpxtpx:TrackPointExtension xmlns:gpxtpx="http://www.garmin.com/xmlschemas/TrackPointExtension/v1">
            <gpxtpx:hr>159</gpxtpx:hr>
          </gpxtpx:TrackPointExtension>
        </extensions>
      </trkpt>
      <trkpt lat="45.57372" lon="2.81779">
        <ele>1274.5999755859</ele>
        <time>2024-05-26T09:27:58.000Z</time>
        <extensions>
          <gpxtpx:TrackPointExtension xmlns:gpxtpx="http://www.garmin.com/xmlschemas/TrackPointExtension/v1">
            <gpxtpx:hr>158</gpxtpx:hr>
          </gpxtpx:TrackPointExtension>
        </extensions>
      </trkpt>
      <trkpt lat="45.57351" lon="2.81796">
        <ele>1275.1999511719</ele>
        <time>2024-05-26T09:28:03.000Z</time>
        <extensions>
          <gpxtpx:TrackPointExtension xmlns:gpxtpx="http://www.garmin.com/xmlschemas/TrackPointExtension/v1">
            <gpxtpx:hr>155</gpxtpx:hr>
          </gpxtpx:TrackPointExtension>
        </extensions>
      </trkpt>
      <trkpt lat="45.57339" lon="2.81805">
        <ele>1275.8000488281</ele>
        <time>2024-05-26T09:28:06.000Z</time>
        <extensions>
          <gpxtpx:TrackPointExtension xmlns:gpxtpx="http://www.garmin.com/xmlschemas/TrackPointExtension/v1">
            <gpxtpx:hr>156</gpxtpx:hr>
          </gpxtpx:TrackPointExtension>
        </extensions>
      </trkpt>
      <trkpt lat="45.57331" lon="2.8181">
        <ele>1275.8000488281</ele>
        <time>2024-05-26T09:28:08.000Z</time>
        <extensions>
          <gpxtpx:TrackPointExtension xmlns:gpxtpx="http://www.garmin.com/xmlschemas/TrackPointExtension/v1">
            <gpxtpx:hr>156</gpxtpx:hr>
          </gpxtpx:TrackPointExtension>
        </extensions>
      </trkpt>
      <trkpt lat="45.57323" lon="2.81814">
        <ele>1276.4000244141</ele>
        <time>2024-05-26T09:28:10.000Z</time>
        <extensions>
          <gpxtpx:TrackPointExtension xmlns:gpxtpx="http://www.garmin.com/xmlschemas/TrackPointExtension/v1">
            <gpxtpx:hr>157</gpxtpx:hr>
          </gpxtpx:TrackPointExtension>
        </extensions>
      </trkpt>
      <trkpt lat="45.57319" lon="2.81815">
        <ele>1277</ele>
        <time>2024-05-26T09:28:11.000Z</time>
        <extensions>
          <gpxtpx:TrackPointExtension xmlns:gpxtpx="http://www.garmin.com/xmlschemas/TrackPointExtension/v1">
            <gpxtpx:hr>158</gpxtpx:hr>
          </gpxtpx:TrackPointExtension>
        </extensions>
      </trkpt>
      <trkpt lat="45.57307" lon="2.81819">
        <ele>1277.5999755859</ele>
        <time>2024-05-26T09:28:14.000Z</time>
        <extensions>
          <gpxtpx:TrackPointExtension xmlns:gpxtpx="http://www.garmin.com/xmlschemas/TrackPointExtension/v1">
            <gpxtpx:hr>161</gpxtpx:hr>
          </gpxtpx:TrackPointExtension>
        </extensions>
      </trkpt>
      <trkpt lat="45.57299" lon="2.81821">
        <ele>1278</ele>
        <time>2024-05-26T09:28:16.000Z</time>
        <extensions>
          <gpxtpx:TrackPointExtension xmlns:gpxtpx="http://www.garmin.com/xmlschemas/TrackPointExtension/v1">
            <gpxtpx:hr>164</gpxtpx:hr>
          </gpxtpx:TrackPointExtension>
        </extensions>
      </trkpt>
      <trkpt lat="45.57291" lon="2.81822">
        <ele>1278.5999755859</ele>
        <time>2024-05-26T09:28:18.000Z</time>
        <extensions>
          <gpxtpx:TrackPointExtension xmlns:gpxtpx="http://www.garmin.com/xmlschemas/TrackPointExtension/v1">
            <gpxtpx:hr>164</gpxtpx:hr>
          </gpxtpx:TrackPointExtension>
        </extensions>
      </trkpt>
      <trkpt lat="45.5728" lon="2.81825">
        <ele>1279.4000244141</ele>
        <time>2024-05-26T09:28:21.000Z</time>
        <extensions>
          <gpxtpx:TrackPointExtension xmlns:gpxtpx="http://www.garmin.com/xmlschemas/TrackPointExtension/v1">
            <gpxtpx:hr>166</gpxtpx:hr>
          </gpxtpx:TrackPointExtension>
        </extensions>
      </trkpt>
      <trkpt lat="45.57254" lon="2.81827">
        <ele>1280.5999755859</ele>
        <time>2024-05-26T09:28:27.000Z</time>
        <extensions>
          <gpxtpx:TrackPointExtension xmlns:gpxtpx="http://www.garmin.com/xmlschemas/TrackPointExtension/v1">
            <gpxtpx:hr>165</gpxtpx:hr>
          </gpxtpx:TrackPointExtension>
        </extensions>
      </trkpt>
      <trkpt lat="45.5725" lon="2.81827">
        <ele>1280.5999755859</ele>
        <time>2024-05-26T09:28:28.000Z</time>
        <extensions>
          <gpxtpx:TrackPointExtension xmlns:gpxtpx="http://www.garmin.com/xmlschemas/TrackPointExtension/v1">
            <gpxtpx:hr>166</gpxtpx:hr>
          </gpxtpx:TrackPointExtension>
        </extensions>
      </trkpt>
      <trkpt lat="45.57236" lon="2.81824">
        <ele>1280.5999755859</ele>
        <time>2024-05-26T09:28:31.000Z</time>
        <extensions>
          <gpxtpx:TrackPointExtension xmlns:gpxtpx="http://www.garmin.com/xmlschemas/TrackPointExtension/v1">
            <gpxtpx:hr>163</gpxtpx:hr>
          </gpxtpx:TrackPointExtension>
        </extensions>
      </trkpt>
      <trkpt lat="45.57214" lon="2.81821">
        <ele>1281.1999511719</ele>
        <time>2024-05-26T09:28:36.000Z</time>
        <extensions>
          <gpxtpx:TrackPointExtension xmlns:gpxtpx="http://www.garmin.com/xmlschemas/TrackPointExtension/v1">
            <gpxtpx:hr>160</gpxtpx:hr>
          </gpxtpx:TrackPointExtension>
        </extensions>
      </trkpt>
      <trkpt lat="45.572" lon="2.81819">
        <ele>1281.5999755859</ele>
        <time>2024-05-26T09:28:39.000Z</time>
        <extensions>
          <gpxtpx:TrackPointExtension xmlns:gpxtpx="http://www.garmin.com/xmlschemas/TrackPointExtension/v1">
            <gpxtpx:hr>160</gpxtpx:hr>
          </gpxtpx:TrackPointExtension>
        </extensions>
      </trkpt>
      <trkpt lat="45.57167" lon="2.81816">
        <ele>1282.5999755859</ele>
        <time>2024-05-26T09:28:46.000Z</time>
        <extensions>
          <gpxtpx:TrackPointExtension xmlns:gpxtpx="http://www.garmin.com/xmlschemas/TrackPointExtension/v1">
            <gpxtpx:hr>159</gpxtpx:hr>
          </gpxtpx:TrackPointExtension>
        </extensions>
      </trkpt>
      <trkpt lat="45.57162" lon="2.81816">
        <ele>1282.5999755859</ele>
        <time>2024-05-26T09:28:47.000Z</time>
        <extensions>
          <gpxtpx:TrackPointExtension xmlns:gpxtpx="http://www.garmin.com/xmlschemas/TrackPointExtension/v1">
            <gpxtpx:hr>158</gpxtpx:hr>
          </gpxtpx:TrackPointExtension>
        </extensions>
      </trkpt>
      <trkpt lat="45.57152" lon="2.81817">
        <ele>1283</ele>
        <time>2024-05-26T09:28:49.000Z</time>
        <extensions>
          <gpxtpx:TrackPointExtension xmlns:gpxtpx="http://www.garmin.com/xmlschemas/TrackPointExtension/v1">
            <gpxtpx:hr>158</gpxtpx:hr>
          </gpxtpx:TrackPointExtension>
        </extensions>
      </trkpt>
      <trkpt lat="45.57142" lon="2.81819">
        <ele>1283.4000244141</ele>
        <time>2024-05-26T09:28:51.000Z</time>
        <extensions>
          <gpxtpx:TrackPointExtension xmlns:gpxtpx="http://www.garmin.com/xmlschemas/TrackPointExtension/v1">
            <gpxtpx:hr>159</gpxtpx:hr>
          </gpxtpx:TrackPointExtension>
        </extensions>
      </trkpt>
      <trkpt lat="45.57137" lon="2.81822">
        <ele>1283.8000488281</ele>
        <time>2024-05-26T09:28:52.000Z</time>
        <extensions>
          <gpxtpx:TrackPointExtension xmlns:gpxtpx="http://www.garmin.com/xmlschemas/TrackPointExtension/v1">
            <gpxtpx:hr>159</gpxtpx:hr>
          </gpxtpx:TrackPointExtension>
        </extensions>
      </trkpt>
      <trkpt lat="45.5713" lon="2.81829">
        <ele>1283.8000488281</ele>
        <time>2024-05-26T09:28:54.000Z</time>
        <extensions>
          <gpxtpx:TrackPointExtension xmlns:gpxtpx="http://www.garmin.com/xmlschemas/TrackPointExtension/v1">
            <gpxtpx:hr>159</gpxtpx:hr>
          </gpxtpx:TrackPointExtension>
        </extensions>
      </trkpt>
      <trkpt lat="45.57127" lon="2.81834">
        <ele>1284</ele>
        <time>2024-05-26T09:28:55.000Z</time>
        <extensions>
          <gpxtpx:TrackPointExtension xmlns:gpxtpx="http://www.garmin.com/xmlschemas/TrackPointExtension/v1">
            <gpxtpx:hr>158</gpxtpx:hr>
          </gpxtpx:TrackPointExtension>
        </extensions>
      </trkpt>
      <trkpt lat="45.57126" lon="2.8184">
        <ele>1284.4000244141</ele>
        <time>2024-05-26T09:28:56.000Z</time>
        <extensions>
          <gpxtpx:TrackPointExtension xmlns:gpxtpx="http://www.garmin.com/xmlschemas/TrackPointExtension/v1">
            <gpxtpx:hr>158</gpxtpx:hr>
          </gpxtpx:TrackPointExtension>
        </extensions>
      </trkpt>
      <trkpt lat="45.57124" lon="2.81852">
        <ele>1284.5999755859</ele>
        <time>2024-05-26T09:28:58.000Z</time>
        <extensions>
          <gpxtpx:TrackPointExtension xmlns:gpxtpx="http://www.garmin.com/xmlschemas/TrackPointExtension/v1">
            <gpxtpx:hr>157</gpxtpx:hr>
          </gpxtpx:TrackPointExtension>
        </extensions>
      </trkpt>
      <trkpt lat="45.57125" lon="2.81858">
        <ele>1284.5999755859</ele>
        <time>2024-05-26T09:28:59.000Z</time>
        <extensions>
          <gpxtpx:TrackPointExtension xmlns:gpxtpx="http://www.garmin.com/xmlschemas/TrackPointExtension/v1">
            <gpxtpx:hr>157</gpxtpx:hr>
          </gpxtpx:TrackPointExtension>
        </extensions>
      </trkpt>
      <trkpt lat="45.57126" lon="2.81864">
        <ele>1285</ele>
        <time>2024-05-26T09:29:00.000Z</time>
        <extensions>
          <gpxtpx:TrackPointExtension xmlns:gpxtpx="http://www.garmin.com/xmlschemas/TrackPointExtension/v1">
            <gpxtpx:hr>156</gpxtpx:hr>
          </gpxtpx:TrackPointExtension>
        </extensions>
      </trkpt>
      <trkpt lat="45.57129" lon="2.81875">
        <ele>1285.1999511719</ele>
        <time>2024-05-26T09:29:02.000Z</time>
        <extensions>
          <gpxtpx:TrackPointExtension xmlns:gpxtpx="http://www.garmin.com/xmlschemas/TrackPointExtension/v1">
            <gpxtpx:hr>157</gpxtpx:hr>
          </gpxtpx:TrackPointExtension>
        </extensions>
      </trkpt>
      <trkpt lat="45.57131" lon="2.81881">
        <ele>1285.8000488281</ele>
        <time>2024-05-26T09:29:03.000Z</time>
        <extensions>
          <gpxtpx:TrackPointExtension xmlns:gpxtpx="http://www.garmin.com/xmlschemas/TrackPointExtension/v1">
            <gpxtpx:hr>157</gpxtpx:hr>
          </gpxtpx:TrackPointExtension>
        </extensions>
      </trkpt>
      <trkpt lat="45.57134" lon="2.81885">
        <ele>1286.4000244141</ele>
        <time>2024-05-26T09:29:04.000Z</time>
        <extensions>
          <gpxtpx:TrackPointExtension xmlns:gpxtpx="http://www.garmin.com/xmlschemas/TrackPointExtension/v1">
            <gpxtpx:hr>157</gpxtpx:hr>
          </gpxtpx:TrackPointExtension>
        </extensions>
      </trkpt>
      <trkpt lat="45.5714" lon="2.81893">
        <ele>1287.1999511719</ele>
        <time>2024-05-26T09:29:06.000Z</time>
        <extensions>
          <gpxtpx:TrackPointExtension xmlns:gpxtpx="http://www.garmin.com/xmlschemas/TrackPointExtension/v1">
            <gpxtpx:hr>158</gpxtpx:hr>
          </gpxtpx:TrackPointExtension>
        </extensions>
      </trkpt>
      <trkpt lat="45.57142" lon="2.81896">
        <ele>1287.8000488281</ele>
        <time>2024-05-26T09:29:07.000Z</time>
        <extensions>
          <gpxtpx:TrackPointExtension xmlns:gpxtpx="http://www.garmin.com/xmlschemas/TrackPointExtension/v1">
            <gpxtpx:hr>157</gpxtpx:hr>
          </gpxtpx:TrackPointExtension>
        </extensions>
      </trkpt>
      <trkpt lat="45.57146" lon="2.81899">
        <ele>1287.8000488281</ele>
        <time>2024-05-26T09:29:08.000Z</time>
        <extensions>
          <gpxtpx:TrackPointExtension xmlns:gpxtpx="http://www.garmin.com/xmlschemas/TrackPointExtension/v1">
            <gpxtpx:hr>158</gpxtpx:hr>
          </gpxtpx:TrackPointExtension>
        </extensions>
      </trkpt>
      <trkpt lat="45.57171" lon="2.81921">
        <ele>1288.8000488281</ele>
        <time>2024-05-26T09:29:15.000Z</time>
        <extensions>
          <gpxtpx:TrackPointExtension xmlns:gpxtpx="http://www.garmin.com/xmlschemas/TrackPointExtension/v1">
            <gpxtpx:hr>158</gpxtpx:hr>
          </gpxtpx:TrackPointExtension>
        </extensions>
      </trkpt>
      <trkpt lat="45.57174" lon="2.81924">
        <ele>1289.5999755859</ele>
        <time>2024-05-26T09:29:16.000Z</time>
        <extensions>
          <gpxtpx:TrackPointExtension xmlns:gpxtpx="http://www.garmin.com/xmlschemas/TrackPointExtension/v1">
            <gpxtpx:hr>158</gpxtpx:hr>
          </gpxtpx:TrackPointExtension>
        </extensions>
      </trkpt>
      <trkpt lat="45.57177" lon="2.81927">
        <ele>1289.8000488281</ele>
        <time>2024-05-26T09:29:17.000Z</time>
        <extensions>
          <gpxtpx:TrackPointExtension xmlns:gpxtpx="http://www.garmin.com/xmlschemas/TrackPointExtension/v1">
            <gpxtpx:hr>157</gpxtpx:hr>
          </gpxtpx:TrackPointExtension>
        </extensions>
      </trkpt>
      <trkpt lat="45.57187" lon="2.81936">
        <ele>1290.8000488281</ele>
        <time>2024-05-26T09:29:20.000Z</time>
        <extensions>
          <gpxtpx:TrackPointExtension xmlns:gpxtpx="http://www.garmin.com/xmlschemas/TrackPointExtension/v1">
            <gpxtpx:hr>154</gpxtpx:hr>
          </gpxtpx:TrackPointExtension>
        </extensions>
      </trkpt>
      <trkpt lat="45.57194" lon="2.81943">
        <ele>1291</ele>
        <time>2024-05-26T09:29:22.000Z</time>
        <extensions>
          <gpxtpx:TrackPointExtension xmlns:gpxtpx="http://www.garmin.com/xmlschemas/TrackPointExtension/v1">
            <gpxtpx:hr>153</gpxtpx:hr>
          </gpxtpx:TrackPointExtension>
        </extensions>
      </trkpt>
      <trkpt lat="45.57202" lon="2.81952">
        <ele>1291.8000488281</ele>
        <time>2024-05-26T09:29:25.000Z</time>
        <extensions>
          <gpxtpx:TrackPointExtension xmlns:gpxtpx="http://www.garmin.com/xmlschemas/TrackPointExtension/v1">
            <gpxtpx:hr>152</gpxtpx:hr>
          </gpxtpx:TrackPointExtension>
        </extensions>
      </trkpt>
      <trkpt lat="45.57206" lon="2.81957">
        <ele>1292</ele>
        <time>2024-05-26T09:29:26.000Z</time>
        <extensions>
          <gpxtpx:TrackPointExtension xmlns:gpxtpx="http://www.garmin.com/xmlschemas/TrackPointExtension/v1">
            <gpxtpx:hr>152</gpxtpx:hr>
          </gpxtpx:TrackPointExtension>
        </extensions>
      </trkpt>
      <trkpt lat="45.5722" lon="2.81976">
        <ele>1293.1999511719</ele>
        <time>2024-05-26T09:29:31.000Z</time>
        <extensions>
          <gpxtpx:TrackPointExtension xmlns:gpxtpx="http://www.garmin.com/xmlschemas/TrackPointExtension/v1">
            <gpxtpx:hr>154</gpxtpx:hr>
          </gpxtpx:TrackPointExtension>
        </extensions>
      </trkpt>
      <trkpt lat="45.57223" lon="2.81979">
        <ele>1294.4000244141</ele>
        <time>2024-05-26T09:29:32.000Z</time>
        <extensions>
          <gpxtpx:TrackPointExtension xmlns:gpxtpx="http://www.garmin.com/xmlschemas/TrackPointExtension/v1">
            <gpxtpx:hr>154</gpxtpx:hr>
          </gpxtpx:TrackPointExtension>
        </extensions>
      </trkpt>
      <trkpt lat="45.57225" lon="2.81983">
        <ele>1295.4000244141</ele>
        <time>2024-05-26T09:29:33.000Z</time>
        <extensions>
          <gpxtpx:TrackPointExtension xmlns:gpxtpx="http://www.garmin.com/xmlschemas/TrackPointExtension/v1">
            <gpxtpx:hr>155</gpxtpx:hr>
          </gpxtpx:TrackPointExtension>
        </extensions>
      </trkpt>
      <trkpt lat="45.57234" lon="2.82002">
        <ele>1296</ele>
        <time>2024-05-26T09:29:37.000Z</time>
        <extensions>
          <gpxtpx:TrackPointExtension xmlns:gpxtpx="http://www.garmin.com/xmlschemas/TrackPointExtension/v1">
            <gpxtpx:hr>153</gpxtpx:hr>
          </gpxtpx:TrackPointExtension>
        </extensions>
      </trkpt>
      <trkpt lat="45.5724" lon="2.82017">
        <ele>1296.5999755859</ele>
        <time>2024-05-26T09:29:40.000Z</time>
        <extensions>
          <gpxtpx:TrackPointExtension xmlns:gpxtpx="http://www.garmin.com/xmlschemas/TrackPointExtension/v1">
            <gpxtpx:hr>155</gpxtpx:hr>
          </gpxtpx:TrackPointExtension>
        </extensions>
      </trkpt>
      <trkpt lat="45.57246" lon="2.82031">
        <ele>1297.1999511719</ele>
        <time>2024-05-26T09:29:43.000Z</time>
        <extensions>
          <gpxtpx:TrackPointExtension xmlns:gpxtpx="http://www.garmin.com/xmlschemas/TrackPointExtension/v1">
            <gpxtpx:hr>156</gpxtpx:hr>
          </gpxtpx:TrackPointExtension>
        </extensions>
      </trkpt>
      <trkpt lat="45.5725" lon="2.82041">
        <ele>1297.5999755859</ele>
        <time>2024-05-26T09:29:45.000Z</time>
        <extensions>
          <gpxtpx:TrackPointExtension xmlns:gpxtpx="http://www.garmin.com/xmlschemas/TrackPointExtension/v1">
            <gpxtpx:hr>157</gpxtpx:hr>
          </gpxtpx:TrackPointExtension>
        </extensions>
      </trkpt>
      <trkpt lat="45.57255" lon="2.82055">
        <ele>1298.8000488281</ele>
        <time>2024-05-26T09:29:48.000Z</time>
        <extensions>
          <gpxtpx:TrackPointExtension xmlns:gpxtpx="http://www.garmin.com/xmlschemas/TrackPointExtension/v1">
            <gpxtpx:hr>157</gpxtpx:hr>
          </gpxtpx:TrackPointExtension>
        </extensions>
      </trkpt>
      <trkpt lat="45.57259" lon="2.82069">
        <ele>1299.4000244141</ele>
        <time>2024-05-26T09:29:51.000Z</time>
        <extensions>
          <gpxtpx:TrackPointExtension xmlns:gpxtpx="http://www.garmin.com/xmlschemas/TrackPointExtension/v1">
            <gpxtpx:hr>159</gpxtpx:hr>
          </gpxtpx:TrackPointExtension>
        </extensions>
      </trkpt>
      <trkpt lat="45.57266" lon="2.82087">
        <ele>1299.8000488281</ele>
        <time>2024-05-26T09:29:55.000Z</time>
        <extensions>
          <gpxtpx:TrackPointExtension xmlns:gpxtpx="http://www.garmin.com/xmlschemas/TrackPointExtension/v1">
            <gpxtpx:hr>160</gpxtpx:hr>
          </gpxtpx:TrackPointExtension>
        </extensions>
      </trkpt>
      <trkpt lat="45.57269" lon="2.82101">
        <ele>1300.1999511719</ele>
        <time>2024-05-26T09:29:58.000Z</time>
        <extensions>
          <gpxtpx:TrackPointExtension xmlns:gpxtpx="http://www.garmin.com/xmlschemas/TrackPointExtension/v1">
            <gpxtpx:hr>160</gpxtpx:hr>
          </gpxtpx:TrackPointExtension>
        </extensions>
      </trkpt>
      <trkpt lat="45.57271" lon="2.82105">
        <ele>1300.5999755859</ele>
        <time>2024-05-26T09:29:59.000Z</time>
        <extensions>
          <gpxtpx:TrackPointExtension xmlns:gpxtpx="http://www.garmin.com/xmlschemas/TrackPointExtension/v1">
            <gpxtpx:hr>159</gpxtpx:hr>
          </gpxtpx:TrackPointExtension>
        </extensions>
      </trkpt>
      <trkpt lat="45.57272" lon="2.8211">
        <ele>1301.1999511719</ele>
        <time>2024-05-26T09:30:00.000Z</time>
        <extensions>
          <gpxtpx:TrackPointExtension xmlns:gpxtpx="http://www.garmin.com/xmlschemas/TrackPointExtension/v1">
            <gpxtpx:hr>159</gpxtpx:hr>
          </gpxtpx:TrackPointExtension>
        </extensions>
      </trkpt>
      <trkpt lat="45.57279" lon="2.82131">
        <ele>1301.8000488281</ele>
        <time>2024-05-26T09:30:05.000Z</time>
        <extensions>
          <gpxtpx:TrackPointExtension xmlns:gpxtpx="http://www.garmin.com/xmlschemas/TrackPointExtension/v1">
            <gpxtpx:hr>156</gpxtpx:hr>
          </gpxtpx:TrackPointExtension>
        </extensions>
      </trkpt>
      <trkpt lat="45.57279" lon="2.82136">
        <ele>1302.5999755859</ele>
        <time>2024-05-26T09:30:06.000Z</time>
        <extensions>
          <gpxtpx:TrackPointExtension xmlns:gpxtpx="http://www.garmin.com/xmlschemas/TrackPointExtension/v1">
            <gpxtpx:hr>154</gpxtpx:hr>
          </gpxtpx:TrackPointExtension>
        </extensions>
      </trkpt>
      <trkpt lat="45.57281" lon="2.82145">
        <ele>1303</ele>
        <time>2024-05-26T09:30:08.000Z</time>
        <extensions>
          <gpxtpx:TrackPointExtension xmlns:gpxtpx="http://www.garmin.com/xmlschemas/TrackPointExtension/v1">
            <gpxtpx:hr>154</gpxtpx:hr>
          </gpxtpx:TrackPointExtension>
        </extensions>
      </trkpt>
      <trkpt lat="45.57285" lon="2.82158">
        <ele>1303.8000488281</ele>
        <time>2024-05-26T09:30:11.000Z</time>
        <extensions>
          <gpxtpx:TrackPointExtension xmlns:gpxtpx="http://www.garmin.com/xmlschemas/TrackPointExtension/v1">
            <gpxtpx:hr>154</gpxtpx:hr>
          </gpxtpx:TrackPointExtension>
        </extensions>
      </trkpt>
      <trkpt lat="45.57292" lon="2.82174">
        <ele>1304.8000488281</ele>
        <time>2024-05-26T09:30:15.000Z</time>
        <extensions>
          <gpxtpx:TrackPointExtension xmlns:gpxtpx="http://www.garmin.com/xmlschemas/TrackPointExtension/v1">
            <gpxtpx:hr>153</gpxtpx:hr>
          </gpxtpx:TrackPointExtension>
        </extensions>
      </trkpt>
      <trkpt lat="45.57293" lon="2.82178">
        <ele>1305.4000244141</ele>
        <time>2024-05-26T09:30:16.000Z</time>
        <extensions>
          <gpxtpx:TrackPointExtension xmlns:gpxtpx="http://www.garmin.com/xmlschemas/TrackPointExtension/v1">
            <gpxtpx:hr>153</gpxtpx:hr>
          </gpxtpx:TrackPointExtension>
        </extensions>
      </trkpt>
      <trkpt lat="45.573" lon="2.82194">
        <ele>1306.5999755859</ele>
        <time>2024-05-26T09:30:20.000Z</time>
        <extensions>
          <gpxtpx:TrackPointExtension xmlns:gpxtpx="http://www.garmin.com/xmlschemas/TrackPointExtension/v1">
            <gpxtpx:hr>151</gpxtpx:hr>
          </gpxtpx:TrackPointExtension>
        </extensions>
      </trkpt>
      <trkpt lat="45.57305" lon="2.82207">
        <ele>1307.1999511719</ele>
        <time>2024-05-26T09:30:23.000Z</time>
        <extensions>
          <gpxtpx:TrackPointExtension xmlns:gpxtpx="http://www.garmin.com/xmlschemas/TrackPointExtension/v1">
            <gpxtpx:hr>151</gpxtpx:hr>
          </gpxtpx:TrackPointExtension>
        </extensions>
      </trkpt>
      <trkpt lat="45.5731" lon="2.8222">
        <ele>1307.8000488281</ele>
        <time>2024-05-26T09:30:26.000Z</time>
        <extensions>
          <gpxtpx:TrackPointExtension xmlns:gpxtpx="http://www.garmin.com/xmlschemas/TrackPointExtension/v1">
            <gpxtpx:hr>151</gpxtpx:hr>
          </gpxtpx:TrackPointExtension>
        </extensions>
      </trkpt>
      <trkpt lat="45.57316" lon="2.82242">
        <ele>1308.5999755859</ele>
        <time>2024-05-26T09:30:31.000Z</time>
        <extensions>
          <gpxtpx:TrackPointExtension xmlns:gpxtpx="http://www.garmin.com/xmlschemas/TrackPointExtension/v1">
            <gpxtpx:hr>152</gpxtpx:hr>
          </gpxtpx:TrackPointExtension>
        </extensions>
      </trkpt>
      <trkpt lat="45.57316" lon="2.82247">
        <ele>1308.8000488281</ele>
        <time>2024-05-26T09:30:32.000Z</time>
        <extensions>
          <gpxtpx:TrackPointExtension xmlns:gpxtpx="http://www.garmin.com/xmlschemas/TrackPointExtension/v1">
            <gpxtpx:hr>151</gpxtpx:hr>
          </gpxtpx:TrackPointExtension>
        </extensions>
      </trkpt>
      <trkpt lat="45.57313" lon="2.82263">
        <ele>1310.4000244141</ele>
        <time>2024-05-26T09:30:36.000Z</time>
        <extensions>
          <gpxtpx:TrackPointExtension xmlns:gpxtpx="http://www.garmin.com/xmlschemas/TrackPointExtension/v1">
            <gpxtpx:hr>153</gpxtpx:hr>
          </gpxtpx:TrackPointExtension>
        </extensions>
      </trkpt>
      <trkpt lat="45.5731" lon="2.82271">
        <ele>1311.4000244141</ele>
        <time>2024-05-26T09:30:38.000Z</time>
        <extensions>
          <gpxtpx:TrackPointExtension xmlns:gpxtpx="http://www.garmin.com/xmlschemas/TrackPointExtension/v1">
            <gpxtpx:hr>153</gpxtpx:hr>
          </gpxtpx:TrackPointExtension>
        </extensions>
      </trkpt>
      <trkpt lat="45.57302" lon="2.82281">
        <ele>1312</ele>
        <time>2024-05-26T09:30:41.000Z</time>
        <extensions>
          <gpxtpx:TrackPointExtension xmlns:gpxtpx="http://www.garmin.com/xmlschemas/TrackPointExtension/v1">
            <gpxtpx:hr>153</gpxtpx:hr>
          </gpxtpx:TrackPointExtension>
        </extensions>
      </trkpt>
      <trkpt lat="45.57296" lon="2.82285">
        <ele>1312.5999755859</ele>
        <time>2024-05-26T09:30:43.000Z</time>
        <extensions>
          <gpxtpx:TrackPointExtension xmlns:gpxtpx="http://www.garmin.com/xmlschemas/TrackPointExtension/v1">
            <gpxtpx:hr>153</gpxtpx:hr>
          </gpxtpx:TrackPointExtension>
        </extensions>
      </trkpt>
      <trkpt lat="45.5729" lon="2.82287">
        <ele>1313</ele>
        <time>2024-05-26T09:30:45.000Z</time>
        <extensions>
          <gpxtpx:TrackPointExtension xmlns:gpxtpx="http://www.garmin.com/xmlschemas/TrackPointExtension/v1">
            <gpxtpx:hr>150</gpxtpx:hr>
          </gpxtpx:TrackPointExtension>
        </extensions>
      </trkpt>
      <trkpt lat="45.57284" lon="2.82287">
        <ele>1313.8000488281</ele>
        <time>2024-05-26T09:30:47.000Z</time>
        <extensions>
          <gpxtpx:TrackPointExtension xmlns:gpxtpx="http://www.garmin.com/xmlschemas/TrackPointExtension/v1">
            <gpxtpx:hr>151</gpxtpx:hr>
          </gpxtpx:TrackPointExtension>
        </extensions>
      </trkpt>
      <trkpt lat="45.5727" lon="2.82282">
        <ele>1315.1999511719</ele>
        <time>2024-05-26T09:30:51.000Z</time>
        <extensions>
          <gpxtpx:TrackPointExtension xmlns:gpxtpx="http://www.garmin.com/xmlschemas/TrackPointExtension/v1">
            <gpxtpx:hr>147</gpxtpx:hr>
          </gpxtpx:TrackPointExtension>
        </extensions>
      </trkpt>
      <trkpt lat="45.57264" lon="2.82279">
        <ele>1315.4000244141</ele>
        <time>2024-05-26T09:30:53.000Z</time>
        <extensions>
          <gpxtpx:TrackPointExtension xmlns:gpxtpx="http://www.garmin.com/xmlschemas/TrackPointExtension/v1">
            <gpxtpx:hr>147</gpxtpx:hr>
          </gpxtpx:TrackPointExtension>
        </extensions>
      </trkpt>
      <trkpt lat="45.57252" lon="2.82262">
        <ele>1316.1999511719</ele>
        <time>2024-05-26T09:30:58.000Z</time>
        <extensions>
          <gpxtpx:TrackPointExtension xmlns:gpxtpx="http://www.garmin.com/xmlschemas/TrackPointExtension/v1">
            <gpxtpx:hr>150</gpxtpx:hr>
          </gpxtpx:TrackPointExtension>
        </extensions>
      </trkpt>
      <trkpt lat="45.57248" lon="2.82252">
        <ele>1316.8000488281</ele>
        <time>2024-05-26T09:31:00.000Z</time>
        <extensions>
          <gpxtpx:TrackPointExtension xmlns:gpxtpx="http://www.garmin.com/xmlschemas/TrackPointExtension/v1">
            <gpxtpx:hr>150</gpxtpx:hr>
          </gpxtpx:TrackPointExtension>
        </extensions>
      </trkpt>
      <trkpt lat="45.57246" lon="2.82244">
        <ele>1317.1999511719</ele>
        <time>2024-05-26T09:31:02.000Z</time>
        <extensions>
          <gpxtpx:TrackPointExtension xmlns:gpxtpx="http://www.garmin.com/xmlschemas/TrackPointExtension/v1">
            <gpxtpx:hr>151</gpxtpx:hr>
          </gpxtpx:TrackPointExtension>
        </extensions>
      </trkpt>
      <trkpt lat="45.57244" lon="2.82229">
        <ele>1318</ele>
        <time>2024-05-26T09:31:05.000Z</time>
        <extensions>
          <gpxtpx:TrackPointExtension xmlns:gpxtpx="http://www.garmin.com/xmlschemas/TrackPointExtension/v1">
            <gpxtpx:hr>149</gpxtpx:hr>
          </gpxtpx:TrackPointExtension>
        </extensions>
      </trkpt>
      <trkpt lat="45.57243" lon="2.82217">
        <ele>1318.1999511719</ele>
        <time>2024-05-26T09:31:07.000Z</time>
        <extensions>
          <gpxtpx:TrackPointExtension xmlns:gpxtpx="http://www.garmin.com/xmlschemas/TrackPointExtension/v1">
            <gpxtpx:hr>148</gpxtpx:hr>
          </gpxtpx:TrackPointExtension>
        </extensions>
      </trkpt>
      <trkpt lat="45.57243" lon="2.82212">
        <ele>1318.1999511719</ele>
        <time>2024-05-26T09:31:08.000Z</time>
        <extensions>
          <gpxtpx:TrackPointExtension xmlns:gpxtpx="http://www.garmin.com/xmlschemas/TrackPointExtension/v1">
            <gpxtpx:hr>148</gpxtpx:hr>
          </gpxtpx:TrackPointExtension>
        </extensions>
      </trkpt>
      <trkpt lat="45.57237" lon="2.82189">
        <ele>1319.4000244141</ele>
        <time>2024-05-26T09:31:13.000Z</time>
        <extensions>
          <gpxtpx:TrackPointExtension xmlns:gpxtpx="http://www.garmin.com/xmlschemas/TrackPointExtension/v1">
            <gpxtpx:hr>149</gpxtpx:hr>
          </gpxtpx:TrackPointExtension>
        </extensions>
      </trkpt>
      <trkpt lat="45.57236" lon="2.82184">
        <ele>1319.4000244141</ele>
        <time>2024-05-26T09:31:14.000Z</time>
        <extensions>
          <gpxtpx:TrackPointExtension xmlns:gpxtpx="http://www.garmin.com/xmlschemas/TrackPointExtension/v1">
            <gpxtpx:hr>149</gpxtpx:hr>
          </gpxtpx:TrackPointExtension>
        </extensions>
      </trkpt>
      <trkpt lat="45.57227" lon="2.82168">
        <ele>1320.4000244141</ele>
        <time>2024-05-26T09:31:18.000Z</time>
        <extensions>
          <gpxtpx:TrackPointExtension xmlns:gpxtpx="http://www.garmin.com/xmlschemas/TrackPointExtension/v1">
            <gpxtpx:hr>149</gpxtpx:hr>
          </gpxtpx:TrackPointExtension>
        </extensions>
      </trkpt>
      <trkpt lat="45.57222" lon="2.82162">
        <ele>1320.8000488281</ele>
        <time>2024-05-26T09:31:20.000Z</time>
        <extensions>
          <gpxtpx:TrackPointExtension xmlns:gpxtpx="http://www.garmin.com/xmlschemas/TrackPointExtension/v1">
            <gpxtpx:hr>147</gpxtpx:hr>
          </gpxtpx:TrackPointExtension>
        </extensions>
      </trkpt>
      <trkpt lat="45.57216" lon="2.82156">
        <ele>1321.5999755859</ele>
        <time>2024-05-26T09:31:22.000Z</time>
        <extensions>
          <gpxtpx:TrackPointExtension xmlns:gpxtpx="http://www.garmin.com/xmlschemas/TrackPointExtension/v1">
            <gpxtpx:hr>147</gpxtpx:hr>
          </gpxtpx:TrackPointExtension>
        </extensions>
      </trkpt>
      <trkpt lat="45.57208" lon="2.82151">
        <ele>1323</ele>
        <time>2024-05-26T09:31:25.000Z</time>
        <extensions>
          <gpxtpx:TrackPointExtension xmlns:gpxtpx="http://www.garmin.com/xmlschemas/TrackPointExtension/v1">
            <gpxtpx:hr>146</gpxtpx:hr>
          </gpxtpx:TrackPointExtension>
        </extensions>
      </trkpt>
      <trkpt lat="45.57205" lon="2.82148">
        <ele>1323.1999511719</ele>
        <time>2024-05-26T09:31:26.000Z</time>
        <extensions>
          <gpxtpx:TrackPointExtension xmlns:gpxtpx="http://www.garmin.com/xmlschemas/TrackPointExtension/v1">
            <gpxtpx:hr>145</gpxtpx:hr>
          </gpxtpx:TrackPointExtension>
        </extensions>
      </trkpt>
      <trkpt lat="45.57202" lon="2.82144">
        <ele>1323.4000244141</ele>
        <time>2024-05-26T09:31:27.000Z</time>
        <extensions>
          <gpxtpx:TrackPointExtension xmlns:gpxtpx="http://www.garmin.com/xmlschemas/TrackPointExtension/v1">
            <gpxtpx:hr>148</gpxtpx:hr>
          </gpxtpx:TrackPointExtension>
        </extensions>
      </trkpt>
      <trkpt lat="45.57196" lon="2.82139">
        <ele>1324</ele>
        <time>2024-05-26T09:31:29.000Z</time>
        <extensions>
          <gpxtpx:TrackPointExtension xmlns:gpxtpx="http://www.garmin.com/xmlschemas/TrackPointExtension/v1">
            <gpxtpx:hr>147</gpxtpx:hr>
          </gpxtpx:TrackPointExtension>
        </extensions>
      </trkpt>
      <trkpt lat="45.57187" lon="2.82134">
        <ele>1324.8000488281</ele>
        <time>2024-05-26T09:31:32.000Z</time>
        <extensions>
          <gpxtpx:TrackPointExtension xmlns:gpxtpx="http://www.garmin.com/xmlschemas/TrackPointExtension/v1">
            <gpxtpx:hr>147</gpxtpx:hr>
          </gpxtpx:TrackPointExtension>
        </extensions>
      </trkpt>
      <trkpt lat="45.57182" lon="2.82129">
        <ele>1325.1999511719</ele>
        <time>2024-05-26T09:31:34.000Z</time>
        <extensions>
          <gpxtpx:TrackPointExtension xmlns:gpxtpx="http://www.garmin.com/xmlschemas/TrackPointExtension/v1">
            <gpxtpx:hr>147</gpxtpx:hr>
          </gpxtpx:TrackPointExtension>
        </extensions>
      </trkpt>
      <trkpt lat="45.57174" lon="2.82122">
        <ele>1325.8000488281</ele>
        <time>2024-05-26T09:31:37.000Z</time>
        <extensions>
          <gpxtpx:TrackPointExtension xmlns:gpxtpx="http://www.garmin.com/xmlschemas/TrackPointExtension/v1">
            <gpxtpx:hr>144</gpxtpx:hr>
          </gpxtpx:TrackPointExtension>
        </extensions>
      </trkpt>
      <trkpt lat="45.57172" lon="2.82119">
        <ele>1326</ele>
        <time>2024-05-26T09:31:38.000Z</time>
        <extensions>
          <gpxtpx:TrackPointExtension xmlns:gpxtpx="http://www.garmin.com/xmlschemas/TrackPointExtension/v1">
            <gpxtpx:hr>144</gpxtpx:hr>
          </gpxtpx:TrackPointExtension>
        </extensions>
      </trkpt>
      <trkpt lat="45.5717" lon="2.82115">
        <ele>1326.1999511719</ele>
        <time>2024-05-26T09:31:39.000Z</time>
        <extensions>
          <gpxtpx:TrackPointExtension xmlns:gpxtpx="http://www.garmin.com/xmlschemas/TrackPointExtension/v1">
            <gpxtpx:hr>143</gpxtpx:hr>
          </gpxtpx:TrackPointExtension>
        </extensions>
      </trkpt>
      <trkpt lat="45.57158" lon="2.82097">
        <ele>1327.1999511719</ele>
        <time>2024-05-26T09:31:44.000Z</time>
        <extensions>
          <gpxtpx:TrackPointExtension xmlns:gpxtpx="http://www.garmin.com/xmlschemas/TrackPointExtension/v1">
            <gpxtpx:hr>141</gpxtpx:hr>
          </gpxtpx:TrackPointExtension>
        </extensions>
      </trkpt>
      <trkpt lat="45.57141" lon="2.8208">
        <ele>1328.1999511719</ele>
        <time>2024-05-26T09:31:50.000Z</time>
        <extensions>
          <gpxtpx:TrackPointExtension xmlns:gpxtpx="http://www.garmin.com/xmlschemas/TrackPointExtension/v1">
            <gpxtpx:hr>141</gpxtpx:hr>
          </gpxtpx:TrackPointExtension>
        </extensions>
      </trkpt>
      <trkpt lat="45.57139" lon="2.82078">
        <ele>1328.4000244141</ele>
        <time>2024-05-26T09:31:51.000Z</time>
        <extensions>
          <gpxtpx:TrackPointExtension xmlns:gpxtpx="http://www.garmin.com/xmlschemas/TrackPointExtension/v1">
            <gpxtpx:hr>139</gpxtpx:hr>
          </gpxtpx:TrackPointExtension>
        </extensions>
      </trkpt>
      <trkpt lat="45.57131" lon="2.82071">
        <ele>1329.8000488281</ele>
        <time>2024-05-26T09:31:54.000Z</time>
        <extensions>
          <gpxtpx:TrackPointExtension xmlns:gpxtpx="http://www.garmin.com/xmlschemas/TrackPointExtension/v1">
            <gpxtpx:hr>138</gpxtpx:hr>
          </gpxtpx:TrackPointExtension>
        </extensions>
      </trkpt>
      <trkpt lat="45.57123" lon="2.82061">
        <ele>1330.1999511719</ele>
        <time>2024-05-26T09:31:57.000Z</time>
        <extensions>
          <gpxtpx:TrackPointExtension xmlns:gpxtpx="http://www.garmin.com/xmlschemas/TrackPointExtension/v1">
            <gpxtpx:hr>140</gpxtpx:hr>
          </gpxtpx:TrackPointExtension>
        </extensions>
      </trkpt>
      <trkpt lat="45.57115" lon="2.82052">
        <ele>1330.8000488281</ele>
        <time>2024-05-26T09:32:00.000Z</time>
        <extensions>
          <gpxtpx:TrackPointExtension xmlns:gpxtpx="http://www.garmin.com/xmlschemas/TrackPointExtension/v1">
            <gpxtpx:hr>138</gpxtpx:hr>
          </gpxtpx:TrackPointExtension>
        </extensions>
      </trkpt>
      <trkpt lat="45.57106" lon="2.82045">
        <ele>1331.4000244141</ele>
        <time>2024-05-26T09:32:03.000Z</time>
        <extensions>
          <gpxtpx:TrackPointExtension xmlns:gpxtpx="http://www.garmin.com/xmlschemas/TrackPointExtension/v1">
            <gpxtpx:hr>139</gpxtpx:hr>
          </gpxtpx:TrackPointExtension>
        </extensions>
      </trkpt>
      <trkpt lat="45.57101" lon="2.82039">
        <ele>1332</ele>
        <time>2024-05-26T09:32:05.000Z</time>
        <extensions>
          <gpxtpx:TrackPointExtension xmlns:gpxtpx="http://www.garmin.com/xmlschemas/TrackPointExtension/v1">
            <gpxtpx:hr>140</gpxtpx:hr>
          </gpxtpx:TrackPointExtension>
        </extensions>
      </trkpt>
      <trkpt lat="45.57083" lon="2.82021">
        <ele>1333</ele>
        <time>2024-05-26T09:32:11.000Z</time>
        <extensions>
          <gpxtpx:TrackPointExtension xmlns:gpxtpx="http://www.garmin.com/xmlschemas/TrackPointExtension/v1">
            <gpxtpx:hr>142</gpxtpx:hr>
          </gpxtpx:TrackPointExtension>
        </extensions>
      </trkpt>
      <trkpt lat="45.57077" lon="2.82017">
        <ele>1333.4000244141</ele>
        <time>2024-05-26T09:32:13.000Z</time>
        <extensions>
          <gpxtpx:TrackPointExtension xmlns:gpxtpx="http://www.garmin.com/xmlschemas/TrackPointExtension/v1">
            <gpxtpx:hr>145</gpxtpx:hr>
          </gpxtpx:TrackPointExtension>
        </extensions>
      </trkpt>
      <trkpt lat="45.5707" lon="2.82017">
        <ele>1333.8000488281</ele>
        <time>2024-05-26T09:32:15.000Z</time>
        <extensions>
          <gpxtpx:TrackPointExtension xmlns:gpxtpx="http://www.garmin.com/xmlschemas/TrackPointExtension/v1">
            <gpxtpx:hr>144</gpxtpx:hr>
          </gpxtpx:TrackPointExtension>
        </extensions>
      </trkpt>
      <trkpt lat="45.57067" lon="2.82018">
        <ele>1334</ele>
        <time>2024-05-26T09:32:16.000Z</time>
        <extensions>
          <gpxtpx:TrackPointExtension xmlns:gpxtpx="http://www.garmin.com/xmlschemas/TrackPointExtension/v1">
            <gpxtpx:hr>143</gpxtpx:hr>
          </gpxtpx:TrackPointExtension>
        </extensions>
      </trkpt>
      <trkpt lat="45.5706" lon="2.82024">
        <ele>1335.1999511719</ele>
        <time>2024-05-26T09:32:19.000Z</time>
        <extensions>
          <gpxtpx:TrackPointExtension xmlns:gpxtpx="http://www.garmin.com/xmlschemas/TrackPointExtension/v1">
            <gpxtpx:hr>144</gpxtpx:hr>
          </gpxtpx:TrackPointExtension>
        </extensions>
      </trkpt>
      <trkpt lat="45.57058" lon="2.82027">
        <ele>1335.8000488281</ele>
        <time>2024-05-26T09:32:20.000Z</time>
        <extensions>
          <gpxtpx:TrackPointExtension xmlns:gpxtpx="http://www.garmin.com/xmlschemas/TrackPointExtension/v1">
            <gpxtpx:hr>143</gpxtpx:hr>
          </gpxtpx:TrackPointExtension>
        </extensions>
      </trkpt>
      <trkpt lat="45.57056" lon="2.82033">
        <ele>1336.8000488281</ele>
        <time>2024-05-26T09:32:22.000Z</time>
        <extensions>
          <gpxtpx:TrackPointExtension xmlns:gpxtpx="http://www.garmin.com/xmlschemas/TrackPointExtension/v1">
            <gpxtpx:hr>143</gpxtpx:hr>
          </gpxtpx:TrackPointExtension>
        </extensions>
      </trkpt>
      <trkpt lat="45.57054" lon="2.82045">
        <ele>1338.5999755859</ele>
        <time>2024-05-26T09:32:25.000Z</time>
        <extensions>
          <gpxtpx:TrackPointExtension xmlns:gpxtpx="http://www.garmin.com/xmlschemas/TrackPointExtension/v1">
            <gpxtpx:hr>143</gpxtpx:hr>
          </gpxtpx:TrackPointExtension>
        </extensions>
      </trkpt>
      <trkpt lat="45.57055" lon="2.82053">
        <ele>1339</ele>
        <time>2024-05-26T09:32:27.000Z</time>
        <extensions>
          <gpxtpx:TrackPointExtension xmlns:gpxtpx="http://www.garmin.com/xmlschemas/TrackPointExtension/v1">
            <gpxtpx:hr>146</gpxtpx:hr>
          </gpxtpx:TrackPointExtension>
        </extensions>
      </trkpt>
      <trkpt lat="45.57057" lon="2.82062">
        <ele>1339.1999511719</ele>
        <time>2024-05-26T09:32:29.000Z</time>
        <extensions>
          <gpxtpx:TrackPointExtension xmlns:gpxtpx="http://www.garmin.com/xmlschemas/TrackPointExtension/v1">
            <gpxtpx:hr>141</gpxtpx:hr>
          </gpxtpx:TrackPointExtension>
        </extensions>
      </trkpt>
      <trkpt lat="45.57058" lon="2.82066">
        <ele>1339.1999511719</ele>
        <time>2024-05-26T09:32:30.000Z</time>
        <extensions>
          <gpxtpx:TrackPointExtension xmlns:gpxtpx="http://www.garmin.com/xmlschemas/TrackPointExtension/v1">
            <gpxtpx:hr>146</gpxtpx:hr>
          </gpxtpx:TrackPointExtension>
        </extensions>
      </trkpt>
      <trkpt lat="45.5706" lon="2.82075">
        <ele>1339.4000244141</ele>
        <time>2024-05-26T09:32:32.000Z</time>
        <extensions>
          <gpxtpx:TrackPointExtension xmlns:gpxtpx="http://www.garmin.com/xmlschemas/TrackPointExtension/v1">
            <gpxtpx:hr>145</gpxtpx:hr>
          </gpxtpx:TrackPointExtension>
        </extensions>
      </trkpt>
      <trkpt lat="45.57065" lon="2.82088">
        <ele>1339.8000488281</ele>
        <time>2024-05-26T09:32:35.000Z</time>
        <extensions>
          <gpxtpx:TrackPointExtension xmlns:gpxtpx="http://www.garmin.com/xmlschemas/TrackPointExtension/v1">
            <gpxtpx:hr>141</gpxtpx:hr>
          </gpxtpx:TrackPointExtension>
        </extensions>
      </trkpt>
      <trkpt lat="45.57073" lon="2.82109">
        <ele>1340.5999755859</ele>
        <time>2024-05-26T09:32:39.000Z</time>
        <extensions>
          <gpxtpx:TrackPointExtension xmlns:gpxtpx="http://www.garmin.com/xmlschemas/TrackPointExtension/v1">
            <gpxtpx:hr>140</gpxtpx:hr>
          </gpxtpx:TrackPointExtension>
        </extensions>
      </trkpt>
      <trkpt lat="45.57077" lon="2.82118">
        <ele>1340.8000488281</ele>
        <time>2024-05-26T09:32:41.000Z</time>
        <extensions>
          <gpxtpx:TrackPointExtension xmlns:gpxtpx="http://www.garmin.com/xmlschemas/TrackPointExtension/v1">
            <gpxtpx:hr>140</gpxtpx:hr>
          </gpxtpx:TrackPointExtension>
        </extensions>
      </trkpt>
      <trkpt lat="45.57092" lon="2.82147">
        <ele>1341.4000244141</ele>
        <time>2024-05-26T09:32:47.000Z</time>
        <extensions>
          <gpxtpx:TrackPointExtension xmlns:gpxtpx="http://www.garmin.com/xmlschemas/TrackPointExtension/v1">
            <gpxtpx:hr>139</gpxtpx:hr>
          </gpxtpx:TrackPointExtension>
        </extensions>
      </trkpt>
      <trkpt lat="45.57098" lon="2.82158">
        <ele>1342</ele>
        <time>2024-05-26T09:32:49.000Z</time>
        <extensions>
          <gpxtpx:TrackPointExtension xmlns:gpxtpx="http://www.garmin.com/xmlschemas/TrackPointExtension/v1">
            <gpxtpx:hr>139</gpxtpx:hr>
          </gpxtpx:TrackPointExtension>
        </extensions>
      </trkpt>
      <trkpt lat="45.57105" lon="2.82174">
        <ele>1342.8000488281</ele>
        <time>2024-05-26T09:32:52.000Z</time>
        <extensions>
          <gpxtpx:TrackPointExtension xmlns:gpxtpx="http://www.garmin.com/xmlschemas/TrackPointExtension/v1">
            <gpxtpx:hr>138</gpxtpx:hr>
          </gpxtpx:TrackPointExtension>
        </extensions>
      </trkpt>
      <trkpt lat="45.57106" lon="2.82179">
        <ele>1343</ele>
        <time>2024-05-26T09:32:53.000Z</time>
        <extensions>
          <gpxtpx:TrackPointExtension xmlns:gpxtpx="http://www.garmin.com/xmlschemas/TrackPointExtension/v1">
            <gpxtpx:hr>137</gpxtpx:hr>
          </gpxtpx:TrackPointExtension>
        </extensions>
      </trkpt>
      <trkpt lat="45.57106" lon="2.82192">
        <ele>1343.4000244141</ele>
        <time>2024-05-26T09:32:55.000Z</time>
        <extensions>
          <gpxtpx:TrackPointExtension xmlns:gpxtpx="http://www.garmin.com/xmlschemas/TrackPointExtension/v1">
            <gpxtpx:hr>136</gpxtpx:hr>
          </gpxtpx:TrackPointExtension>
        </extensions>
      </trkpt>
      <trkpt lat="45.57107" lon="2.82209">
        <ele>1343.8000488281</ele>
        <time>2024-05-26T09:32:58.000Z</time>
        <extensions>
          <gpxtpx:TrackPointExtension xmlns:gpxtpx="http://www.garmin.com/xmlschemas/TrackPointExtension/v1">
            <gpxtpx:hr>132</gpxtpx:hr>
          </gpxtpx:TrackPointExtension>
        </extensions>
      </trkpt>
      <trkpt lat="45.57108" lon="2.82215">
        <ele>1344</ele>
        <time>2024-05-26T09:32:59.000Z</time>
        <extensions>
          <gpxtpx:TrackPointExtension xmlns:gpxtpx="http://www.garmin.com/xmlschemas/TrackPointExtension/v1">
            <gpxtpx:hr>131</gpxtpx:hr>
          </gpxtpx:TrackPointExtension>
        </extensions>
      </trkpt>
      <trkpt lat="45.57107" lon="2.8223">
        <ele>1345.1999511719</ele>
        <time>2024-05-26T09:33:02.000Z</time>
        <extensions>
          <gpxtpx:TrackPointExtension xmlns:gpxtpx="http://www.garmin.com/xmlschemas/TrackPointExtension/v1">
            <gpxtpx:hr>129</gpxtpx:hr>
          </gpxtpx:TrackPointExtension>
        </extensions>
      </trkpt>
      <trkpt lat="45.57104" lon="2.82238">
        <ele>1346.1999511719</ele>
        <time>2024-05-26T09:33:04.000Z</time>
        <extensions>
          <gpxtpx:TrackPointExtension xmlns:gpxtpx="http://www.garmin.com/xmlschemas/TrackPointExtension/v1">
            <gpxtpx:hr>130</gpxtpx:hr>
          </gpxtpx:TrackPointExtension>
        </extensions>
      </trkpt>
      <trkpt lat="45.57101" lon="2.82242">
        <ele>1346.4000244141</ele>
        <time>2024-05-26T09:33:05.000Z</time>
        <extensions>
          <gpxtpx:TrackPointExtension xmlns:gpxtpx="http://www.garmin.com/xmlschemas/TrackPointExtension/v1">
            <gpxtpx:hr>130</gpxtpx:hr>
          </gpxtpx:TrackPointExtension>
        </extensions>
      </trkpt>
      <trkpt lat="45.57097" lon="2.82245">
        <ele>1346.8000488281</ele>
        <time>2024-05-26T09:33:06.000Z</time>
        <extensions>
          <gpxtpx:TrackPointExtension xmlns:gpxtpx="http://www.garmin.com/xmlschemas/TrackPointExtension/v1">
            <gpxtpx:hr>130</gpxtpx:hr>
          </gpxtpx:TrackPointExtension>
        </extensions>
      </trkpt>
      <trkpt lat="45.5708" lon="2.82255">
        <ele>1347.5999755859</ele>
        <time>2024-05-26T09:33:11.000Z</time>
        <extensions>
          <gpxtpx:TrackPointExtension xmlns:gpxtpx="http://www.garmin.com/xmlschemas/TrackPointExtension/v1">
            <gpxtpx:hr>132</gpxtpx:hr>
          </gpxtpx:TrackPointExtension>
        </extensions>
      </trkpt>
      <trkpt lat="45.57076" lon="2.82255">
        <ele>1347.8000488281</ele>
        <time>2024-05-26T09:33:12.000Z</time>
        <extensions>
          <gpxtpx:TrackPointExtension xmlns:gpxtpx="http://www.garmin.com/xmlschemas/TrackPointExtension/v1">
            <gpxtpx:hr>133</gpxtpx:hr>
          </gpxtpx:TrackPointExtension>
        </extensions>
      </trkpt>
      <trkpt lat="45.57068" lon="2.82254">
        <ele>1348.8000488281</ele>
        <time>2024-05-26T09:33:14.000Z</time>
        <extensions>
          <gpxtpx:TrackPointExtension xmlns:gpxtpx="http://www.garmin.com/xmlschemas/TrackPointExtension/v1">
            <gpxtpx:hr>134</gpxtpx:hr>
          </gpxtpx:TrackPointExtension>
        </extensions>
      </trkpt>
      <trkpt lat="45.57061" lon="2.82252">
        <ele>1350</ele>
        <time>2024-05-26T09:33:16.000Z</time>
        <extensions>
          <gpxtpx:TrackPointExtension xmlns:gpxtpx="http://www.garmin.com/xmlschemas/TrackPointExtension/v1">
            <gpxtpx:hr>135</gpxtpx:hr>
          </gpxtpx:TrackPointExtension>
        </extensions>
      </trkpt>
      <trkpt lat="45.57055" lon="2.82249">
        <ele>1350.1999511719</ele>
        <time>2024-05-26T09:33:18.000Z</time>
        <extensions>
          <gpxtpx:TrackPointExtension xmlns:gpxtpx="http://www.garmin.com/xmlschemas/TrackPointExtension/v1">
            <gpxtpx:hr>135</gpxtpx:hr>
          </gpxtpx:TrackPointExtension>
        </extensions>
      </trkpt>
      <trkpt lat="45.57046" lon="2.82243">
        <ele>1351.1999511719</ele>
        <time>2024-05-26T09:33:21.000Z</time>
        <extensions>
          <gpxtpx:TrackPointExtension xmlns:gpxtpx="http://www.garmin.com/xmlschemas/TrackPointExtension/v1">
            <gpxtpx:hr>136</gpxtpx:hr>
          </gpxtpx:TrackPointExtension>
        </extensions>
      </trkpt>
      <trkpt lat="45.57025" lon="2.82235">
        <ele>1349.5999755859</ele>
        <time>2024-01-31T12:26:28.000Z</time>
      </trkpt>
      <trkpt lat="45.57013" lon="2.82229">
        <ele>1351.1999511719</ele>
        <time>2024-01-31T12:26:29.000Z</time>
      </trkpt>
      <trkpt lat="45.57001" lon="2.82224">
        <ele>1352.5999755859</ele>
        <time>2024-01-31T12:26:30.000Z</time>
      </trkpt>
      <trkpt lat="45.56976" lon="2.82217">
        <ele>1354.1999511719</ele>
        <time>2024-01-31T12:26:32.000Z</time>
      </trkpt>
      <trkpt lat="45.56964" lon="2.82214">
        <ele>1355.4000244141</ele>
        <time>2024-01-31T12:26:33.000Z</time>
      </trkpt>
      <trkpt lat="45.5694" lon="2.82203">
        <ele>1357.4000244141</ele>
        <time>2024-01-31T12:26:35.000Z</time>
      </trkpt>
      <trkpt lat="45.56929" lon="2.82195">
        <ele>1358.4000244141</ele>
        <time>2024-01-31T12:26:36.000Z</time>
      </trkpt>
      <trkpt lat="45.5692" lon="2.82186">
        <ele>1358.5999755859</ele>
        <time>2024-01-31T12:26:37.000Z</time>
      </trkpt>
      <trkpt lat="45.56902" lon="2.82162">
        <ele>1359.5999755859</ele>
        <time>2024-01-31T12:26:39.000Z</time>
      </trkpt>
      <trkpt lat="45.56894" lon="2.82151">
        <ele>1360</ele>
        <time>2024-01-31T12:26:40.000Z</time>
      </trkpt>
      <trkpt lat="45.56885" lon="2.82141">
        <ele>1362.5999755859</ele>
        <time>2024-01-31T12:26:41.000Z</time>
      </trkpt>
      <trkpt lat="45.56874" lon="2.82133">
        <ele>1363.5999755859</ele>
        <time>2024-01-31T12:26:42.000Z</time>
      </trkpt>
      <trkpt lat="45.56863" lon="2.82127">
        <ele>1363.8000488281</ele>
        <time>2024-01-31T12:26:43.000Z</time>
      </trkpt>
      <trkpt lat="45.56851" lon="2.82122">
        <ele>1365</ele>
        <time>2024-01-31T12:26:44.000Z</time>
      </trkpt>
      <trkpt lat="45.5684" lon="2.82118">
        <ele>1365.8000488281</ele>
        <time>2024-01-31T12:26:45.000Z</time>
      </trkpt>
      <trkpt lat="45.56828" lon="2.82115">
        <ele>1366.4000244141</ele>
        <time>2024-01-31T12:26:46.000Z</time>
      </trkpt>
      <trkpt lat="45.56809" lon="2.82112">
        <ele>1367.4000244141</ele>
        <time>2024-01-31T12:26:48.000Z</time>
      </trkpt>
      <trkpt lat="45.56801" lon="2.82114">
        <ele>1367.8000488281</ele>
        <time>2024-01-31T12:26:49.000Z</time>
      </trkpt>
      <trkpt lat="45.56793" lon="2.82116">
        <ele>1368</ele>
        <time>2024-01-31T12:26:50.000Z</time>
      </trkpt>
      <trkpt lat="45.56776" lon="2.82125">
        <ele>1370.4000244141</ele>
        <time>2024-01-31T12:26:52.000Z</time>
      </trkpt>
      <trkpt lat="45.56769" lon="2.82129">
        <ele>1371</ele>
        <time>2024-01-31T12:26:53.000Z</time>
      </trkpt>
      <trkpt lat="45.56757" lon="2.82138">
        <ele>1372.1999511719</ele>
        <time>2024-01-31T12:26:54.000Z</time>
      </trkpt>
      <trkpt lat="45.56737" lon="2.82155">
        <ele>1374</ele>
        <time>2024-01-31T12:26:56.000Z</time>
      </trkpt>
      <trkpt lat="45.56717" lon="2.82176">
        <ele>1375.5999755859</ele>
        <time>2024-01-31T12:26:58.000Z</time>
      </trkpt>
      <trkpt lat="45.56708" lon="2.82189">
        <ele>1376.8000488281</ele>
        <time>2024-01-31T12:26:59.000Z</time>
      </trkpt>
      <trkpt lat="45.56698" lon="2.82203">
        <ele>1378.1999511719</ele>
        <time>2024-01-31T12:27:00.000Z</time>
      </trkpt>
      <trkpt lat="45.56688" lon="2.82217">
        <ele>1379.5999755859</ele>
        <time>2024-01-31T12:27:01.000Z</time>
      </trkpt>
      <trkpt lat="45.56678" lon="2.82232">
        <ele>1381.4000244141</ele>
        <time>2024-01-31T12:27:02.000Z</time>
      </trkpt>
      <trkpt lat="45.56658" lon="2.82263">
        <ele>1383.5999755859</ele>
        <time>2024-01-31T12:27:04.000Z</time>
      </trkpt>
      <trkpt lat="45.56647" lon="2.82279">
        <ele>1385.4000244141</ele>
        <time>2024-01-31T12:27:05.000Z</time>
      </trkpt>
      <trkpt lat="45.56636" lon="2.82296">
        <ele>1387</ele>
        <time>2024-01-31T12:27:06.000Z</time>
      </trkpt>
      <trkpt lat="45.56626" lon="2.82313">
        <ele>1388.4000244141</ele>
        <time>2024-01-31T12:27:07.000Z</time>
      </trkpt>
      <trkpt lat="45.56616" lon="2.8233">
        <ele>1390</ele>
        <time>2024-01-31T12:27:08.000Z</time>
      </trkpt>
      <trkpt lat="45.56595" lon="2.82362">
        <ele>1391.1999511719</ele>
        <time>2024-01-31T12:27:10.000Z</time>
      </trkpt>
      <trkpt lat="45.56584" lon="2.82377">
        <ele>1392.5999755859</ele>
        <time>2024-01-31T12:27:11.000Z</time>
      </trkpt>
      <trkpt lat="45.56574" lon="2.82391">
        <ele>1393.1999511719</ele>
        <time>2024-01-31T12:27:12.000Z</time>
      </trkpt>
      <trkpt lat="45.56552" lon="2.82418">
        <ele>1394.5999755859</ele>
        <time>2024-01-31T12:27:14.000Z</time>
      </trkpt>
      <trkpt lat="45.5654" lon="2.82434">
        <ele>1395.5999755859</ele>
        <time>2024-01-31T12:27:15.000Z</time>
      </trkpt>
      <trkpt lat="45.56521" lon="2.82468">
        <ele>1398.1999511719</ele>
        <time>2024-01-31T12:27:17.000Z</time>
      </trkpt>
      <trkpt lat="45.56506" lon="2.82504">
        <ele>1400.8000488281</ele>
        <time>2024-01-31T12:27:19.000Z</time>
      </trkpt>
      <trkpt lat="45.56495" lon="2.82543">
        <ele>1401.8000488281</ele>
        <time>2024-01-31T12:27:21.000Z</time>
      </trkpt>
      <trkpt lat="45.5649" lon="2.82563">
        <ele>1403</ele>
        <time>2024-01-31T12:27:22.000Z</time>
      </trkpt>
      <trkpt lat="45.56485" lon="2.82582">
        <ele>1404.4000244141</ele>
        <time>2024-01-31T12:27:23.000Z</time>
      </trkpt>
      <trkpt lat="45.5648" lon="2.82602">
        <ele>1405.4000244141</ele>
        <time>2024-01-31T12:27:24.000Z</time>
      </trkpt>
      <trkpt lat="45.56476" lon="2.82622">
        <ele>1407</ele>
        <time>2024-01-31T12:27:25.000Z</time>
      </trkpt>
      <trkpt lat="45.56467" lon="2.82662">
        <ele>1409</ele>
        <time>2024-01-31T12:27:27.000Z</time>
      </trkpt>
      <trkpt lat="45.56463" lon="2.82683">
        <ele>1410</ele>
        <time>2024-01-31T12:27:28.000Z</time>
      </trkpt>
      <trkpt lat="45.56459" lon="2.82704">
        <ele>1411.1999511719</ele>
        <time>2024-01-31T12:27:29.000Z</time>
      </trkpt>
      <trkpt lat="45.56454" lon="2.82742">
        <ele>1413.1999511719</ele>
        <time>2024-01-31T12:27:31.000Z</time>
      </trkpt>
      <trkpt lat="45.56453" lon="2.82763">
        <ele>1415</ele>
        <time>2024-01-31T12:27:32.000Z</time>
      </trkpt>
      <trkpt lat="45.56452" lon="2.82784">
        <ele>1416.4000244141</ele>
        <time>2024-01-31T12:27:33.000Z</time>
      </trkpt>
      <trkpt lat="45.56452" lon="2.82804">
        <ele>1417.5999755859</ele>
        <time>2024-01-31T12:27:34.000Z</time>
      </trkpt>
      <trkpt lat="45.56453" lon="2.82849">
        <ele>1420</ele>
        <time>2024-01-31T12:27:36.000Z</time>
      </trkpt>
      <trkpt lat="45.56448" lon="2.82909">
        <ele>1421.8000488281</ele>
        <time>2024-01-31T12:27:39.000Z</time>
      </trkpt>
      <trkpt lat="45.56439" lon="2.82946">
        <ele>1423.4000244141</ele>
        <time>2024-01-31T12:27:41.000Z</time>
      </trkpt>
      <trkpt lat="45.56432" lon="2.82979">
        <ele>1424.8000488281</ele>
        <time>2024-01-31T12:27:43.000Z</time>
      </trkpt>
      <trkpt lat="45.56427" lon="2.82993">
        <ele>1425</ele>
        <time>2024-01-31T12:27:44.000Z</time>
      </trkpt>
      <trkpt lat="45.56422" lon="2.83006">
        <ele>1425.1999511719</ele>
        <time>2024-01-31T12:27:45.000Z</time>
      </trkpt>
      <trkpt lat="45.56411" lon="2.83029">
        <ele>1426</ele>
        <time>2024-01-31T12:27:47.000Z</time>
      </trkpt>
      <trkpt lat="45.564" lon="2.83048">
        <ele>1427.8000488281</ele>
        <time>2024-01-31T12:27:49.000Z</time>
      </trkpt>
      <trkpt lat="45.56391" lon="2.83065">
        <ele>1428.5999755859</ele>
        <time>2024-01-31T12:27:51.000Z</time>
      </trkpt>
      <trkpt lat="45.56388" lon="2.83071">
        <ele>1429</ele>
        <time>2024-01-31T12:27:52.000Z</time>
      </trkpt>
      <trkpt lat="45.56381" lon="2.83083">
        <ele>1429.5999755859</ele>
        <time>2024-01-31T12:27:55.000Z</time>
      </trkpt>
      <trkpt lat="45.56379" lon="2.83085">
        <ele>1430</ele>
        <time>2024-01-31T12:27:56.000Z</time>
      </trkpt>
      <trkpt lat="45.56379" lon="2.83087">
        <ele>1430.1999511719</ele>
        <time>2024-01-31T12:27:58.000Z</time>
      </trkpt>
      <trkpt lat="45.56379" lon="2.83087">
        <ele>1430.5999755859</ele>
        <time>2024-01-31T12:28:10.000Z</time>
      </trkpt>
      <trkpt lat="45.56375" lon="2.83091">
        <ele>1431.1999511719</ele>
        <time>2024-01-31T12:28:19.000Z</time>
      </trkpt>
      <trkpt lat="45.56375" lon="2.83091">
        <ele>1431.4000244141</ele>
        <time>2024-01-31T12:28:24.000Z</time>
      </trkpt>
      <trkpt lat="45.56375" lon="2.83091">
        <ele>1432.1999511719</ele>
        <time>2024-01-31T12:29:01.000Z</time>
      </trkpt>
      <trkpt lat="45.56375" lon="2.83091">
        <ele>1432.4000244141</ele>
        <time>2024-01-31T12:29:18.000Z</time>
      </trkpt>
      <trkpt lat="45.56375" lon="2.83091">
        <ele>1432.5999755859</ele>
        <time>2024-01-31T12:29:41.000Z</time>
      </trkpt>
      <trkpt lat="45.56375" lon="2.83091">
        <ele>1432.8000488281</ele>
        <time>2024-01-31T12:29:56.000Z</time>
      </trkpt>
      <trkpt lat="45.56375" lon="2.83091">
        <ele>1433.1999511719</ele>
        <time>2024-01-31T12:30:12.000Z</time>
      </trkpt>
      <trkpt lat="45.56375" lon="2.83091">
        <ele>1433.1999511719</ele>
        <time>2024-01-31T12:30:15.000Z</time>
      </trkpt>
      <trkpt lat="45.56376" lon="2.8309">
        <ele>1433.4000244141</ele>
        <time>2024-01-31T12:30:26.000Z</time>
      </trkpt>
      <trkpt lat="45.56377" lon="2.83093">
        <ele>1433.4000244141</ele>
        <time>2024-01-31T12:30:33.000Z</time>
      </trkpt>
      <trkpt lat="45.56377" lon="2.83097">
        <ele>1433.4000244141</ele>
        <time>2024-01-31T12:30:34.000Z</time>
      </trkpt>
      <trkpt lat="45.56376" lon="2.83107">
        <ele>1433.5999755859</ele>
        <time>2024-01-31T12:30:36.000Z</time>
      </trkpt>
      <trkpt lat="45.56375" lon="2.83121">
        <ele>1434.1999511719</ele>
        <time>2024-01-31T12:30:38.000Z</time>
      </trkpt>
      <trkpt lat="45.56376" lon="2.83137">
        <ele>1434.8000488281</ele>
        <time>2024-01-31T12:30:40.000Z</time>
      </trkpt>
      <trkpt lat="45.56378" lon="2.83147">
        <ele>1435.8000488281</ele>
        <time>2024-01-31T12:30:41.000Z</time>
      </trkpt>
      <trkpt lat="45.5638" lon="2.83159">
        <ele>1436.1999511719</ele>
        <time>2024-01-31T12:30:42.000Z</time>
      </trkpt>
      <trkpt lat="45.56382" lon="2.83172">
        <ele>1437.4000244141</ele>
        <time>2024-01-31T12:30:43.000Z</time>
      </trkpt>
      <trkpt lat="45.56385" lon="2.83185">
        <ele>1438.4000244141</ele>
        <time>2024-01-31T12:30:44.000Z</time>
      </trkpt>
      <trkpt lat="45.56391" lon="2.83217">
        <ele>1440.1999511719</ele>
        <time>2024-01-31T12:30:46.000Z</time>
      </trkpt>
      <trkpt lat="45.56396" lon="2.83251">
        <ele>1441.8000488281</ele>
        <time>2024-01-31T12:30:48.000Z</time>
      </trkpt>
      <trkpt lat="45.56399" lon="2.83286">
        <ele>1442.8000488281</ele>
        <time>2024-01-31T12:30:50.000Z</time>
      </trkpt>
      <trkpt lat="45.56401" lon="2.83304">
        <ele>1444</ele>
        <time>2024-01-31T12:30:51.000Z</time>
      </trkpt>
      <trkpt lat="45.56402" lon="2.83342">
        <ele>1445.1999511719</ele>
        <time>2024-01-31T12:30:53.000Z</time>
      </trkpt>
      <trkpt lat="45.56404" lon="2.8338">
        <ele>1446.4000244141</ele>
        <time>2024-01-31T12:30:55.000Z</time>
      </trkpt>
      <trkpt lat="45.56406" lon="2.8344">
        <ele>1446.8000488281</ele>
        <time>2024-01-31T12:30:58.000Z</time>
      </trkpt>
      <trkpt lat="45.56407" lon="2.8348">
        <ele>1447.8000488281</ele>
        <time>2024-01-31T12:31:00.000Z</time>
      </trkpt>
      <trkpt lat="45.56408" lon="2.83541">
        <ele>1449</ele>
        <time>2024-01-31T12:31:03.000Z</time>
      </trkpt>
      <trkpt lat="45.56409" lon="2.83562">
        <ele>1450.8000488281</ele>
        <time>2024-01-31T12:31:04.000Z</time>
      </trkpt>
      <trkpt lat="45.56409" lon="2.836">
        <ele>1450.8000488281</ele>
        <time>2024-01-31T12:31:06.000Z</time>
      </trkpt>
      <trkpt lat="45.56409" lon="2.83667">
        <ele>1450.1999511719</ele>
        <time>2024-01-31T12:31:10.000Z</time>
      </trkpt>
      <trkpt lat="45.56401" lon="2.83697">
        <ele>1450.4000244141</ele>
        <time>2024-01-31T12:31:12.000Z</time>
      </trkpt>
      <trkpt lat="45.56395" lon="2.83711">
        <ele>1450.5999755859</ele>
        <time>2024-01-31T12:31:13.000Z</time>
      </trkpt>
      <trkpt lat="45.56387" lon="2.83725">
        <ele>1452.1999511719</ele>
        <time>2024-01-31T12:31:14.000Z</time>
      </trkpt>
      <trkpt lat="45.56368" lon="2.83753">
        <ele>1452.5999755859</ele>
        <time>2024-01-31T12:31:16.000Z</time>
      </trkpt>
      <trkpt lat="45.56322" lon="2.83797">
        <ele>1452.1999511719</ele>
        <time>2024-01-31T12:31:20.000Z</time>
      </trkpt>
      <trkpt lat="45.56287" lon="2.83822">
        <ele>1451</ele>
        <time>2024-01-31T12:31:23.000Z</time>
      </trkpt>
      <trkpt lat="45.56275" lon="2.83828">
        <ele>1450.8000488281</ele>
        <time>2024-01-31T12:31:24.000Z</time>
      </trkpt>
      <trkpt lat="45.56231" lon="2.83845">
        <ele>1449.1999511719</ele>
        <time>2024-01-31T12:31:28.000Z</time>
      </trkpt>
      <trkpt lat="45.56222" lon="2.83848">
        <ele>1448.8000488281</ele>
        <time>2024-01-31T12:31:29.000Z</time>
      </trkpt>
      <trkpt lat="45.56207" lon="2.83853">
        <ele>1446.8000488281</ele>
        <time>2024-01-31T12:31:31.000Z</time>
      </trkpt>
      <trkpt lat="45.56201" lon="2.83855">
        <ele>1445.5999755859</ele>
        <time>2024-01-31T12:31:32.000Z</time>
      </trkpt>
      <trkpt lat="45.56192" lon="2.83857">
        <ele>1443.5999755859</ele>
        <time>2024-01-31T12:31:34.000Z</time>
      </trkpt>
      <trkpt lat="45.56189" lon="2.83858">
        <ele>1443</ele>
        <time>2024-01-31T12:31:35.000Z</time>
      </trkpt>
      <trkpt lat="45.56186" lon="2.83858">
        <ele>1442.4000244141</ele>
        <time>2024-01-31T12:31:36.000Z</time>
      </trkpt>
      <trkpt lat="45.56177" lon="2.83859">
        <ele>1441.1999511719</ele>
        <time>2024-01-31T12:31:40.000Z</time>
      </trkpt>
      <trkpt lat="45.56175" lon="2.8386">
        <ele>1440.5999755859</ele>
        <time>2024-01-31T12:31:45.000Z</time>
      </trkpt>
      <trkpt lat="45.56175" lon="2.8386">
        <ele>1440.8000488281</ele>
        <time>2024-01-31T12:31:56.000Z</time>
      </trkpt>
      <trkpt lat="45.56175" lon="2.8386">
        <ele>1441</ele>
        <time>2024-01-31T12:32:07.000Z</time>
      </trkpt>
      <trkpt lat="45.56175" lon="2.8386">
        <ele>1441.1999511719</ele>
        <time>2024-01-31T12:32:23.000Z</time>
      </trkpt>
      <trkpt lat="45.56167" lon="2.83866">
        <ele>1441.5999755859</ele>
        <time>2024-01-31T12:32:30.000Z</time>
      </trkpt>
      <trkpt lat="45.56163" lon="2.83873">
        <ele>1446.1999511719</ele>
        <time>2024-05-26T10:02:11.000Z</time>
        <extensions>
          <gpxtpx:TrackPointExtension xmlns:gpxtpx="http://www.garmin.com/xmlschemas/TrackPointExtension/v1">
            <gpxtpx:hr>103</gpxtpx:hr>
          </gpxtpx:TrackPointExtension>
        </extensions>
      </trkpt>
      <trkpt lat="45.56153" lon="2.83879">
        <ele>1446</ele>
        <time>2024-05-26T10:02:14.000Z</time>
        <extensions>
          <gpxtpx:TrackPointExtension xmlns:gpxtpx="http://www.garmin.com/xmlschemas/TrackPointExtension/v1">
            <gpxtpx:hr>100</gpxtpx:hr>
          </gpxtpx:TrackPointExtension>
        </extensions>
      </trkpt>
      <trkpt lat="45.56147" lon="2.83886">
        <ele>1445.4000244141</ele>
        <time>2024-05-26T10:02:16.000Z</time>
        <extensions>
          <gpxtpx:TrackPointExtension xmlns:gpxtpx="http://www.garmin.com/xmlschemas/TrackPointExtension/v1">
            <gpxtpx:hr>102</gpxtpx:hr>
          </gpxtpx:TrackPointExtension>
        </extensions>
      </trkpt>
      <trkpt lat="45.56143" lon="2.83891">
        <ele>1444.8000488281</ele>
        <time>2024-05-26T10:02:17.000Z</time>
        <extensions>
          <gpxtpx:TrackPointExtension xmlns:gpxtpx="http://www.garmin.com/xmlschemas/TrackPointExtension/v1">
            <gpxtpx:hr>103</gpxtpx:hr>
          </gpxtpx:TrackPointExtension>
        </extensions>
      </trkpt>
      <trkpt lat="45.56132" lon="2.83909">
        <ele>1444.1999511719</ele>
        <time>2024-05-26T10:02:20.000Z</time>
        <extensions>
          <gpxtpx:TrackPointExtension xmlns:gpxtpx="http://www.garmin.com/xmlschemas/TrackPointExtension/v1">
            <gpxtpx:hr>103</gpxtpx:hr>
          </gpxtpx:TrackPointExtension>
        </extensions>
      </trkpt>
      <trkpt lat="45.56124" lon="2.83923">
        <ele>1443.4000244141</ele>
        <time>2024-05-26T10:02:22.000Z</time>
        <extensions>
          <gpxtpx:TrackPointExtension xmlns:gpxtpx="http://www.garmin.com/xmlschemas/TrackPointExtension/v1">
            <gpxtpx:hr>104</gpxtpx:hr>
          </gpxtpx:TrackPointExtension>
        </extensions>
      </trkpt>
      <trkpt lat="45.5612" lon="2.83931">
        <ele>1443</ele>
        <time>2024-05-26T10:02:23.000Z</time>
        <extensions>
          <gpxtpx:TrackPointExtension xmlns:gpxtpx="http://www.garmin.com/xmlschemas/TrackPointExtension/v1">
            <gpxtpx:hr>104</gpxtpx:hr>
          </gpxtpx:TrackPointExtension>
        </extensions>
      </trkpt>
      <trkpt lat="45.561" lon="2.83972">
        <ele>1441.8000488281</ele>
        <time>2024-05-26T10:02:28.000Z</time>
        <extensions>
          <gpxtpx:TrackPointExtension xmlns:gpxtpx="http://www.garmin.com/xmlschemas/TrackPointExtension/v1">
            <gpxtpx:hr>104</gpxtpx:hr>
          </gpxtpx:TrackPointExtension>
        </extensions>
      </trkpt>
      <trkpt lat="45.5609" lon="2.84001">
        <ele>1440.5999755859</ele>
        <time>2024-05-26T10:02:31.000Z</time>
        <extensions>
          <gpxtpx:TrackPointExtension xmlns:gpxtpx="http://www.garmin.com/xmlschemas/TrackPointExtension/v1">
            <gpxtpx:hr>106</gpxtpx:hr>
          </gpxtpx:TrackPointExtension>
        </extensions>
      </trkpt>
      <trkpt lat="45.56083" lon="2.84017">
        <ele>1439.4000244141</ele>
        <time>2024-05-26T10:02:33.000Z</time>
        <extensions>
          <gpxtpx:TrackPointExtension xmlns:gpxtpx="http://www.garmin.com/xmlschemas/TrackPointExtension/v1">
            <gpxtpx:hr>106</gpxtpx:hr>
          </gpxtpx:TrackPointExtension>
        </extensions>
      </trkpt>
      <trkpt lat="45.56081" lon="2.84027">
        <ele>1438.8000488281</ele>
        <time>2024-05-26T10:02:34.000Z</time>
        <extensions>
          <gpxtpx:TrackPointExtension xmlns:gpxtpx="http://www.garmin.com/xmlschemas/TrackPointExtension/v1">
            <gpxtpx:hr>107</gpxtpx:hr>
          </gpxtpx:TrackPointExtension>
        </extensions>
      </trkpt>
      <trkpt lat="45.56078" lon="2.84038">
        <ele>1438.4000244141</ele>
        <time>2024-05-26T10:02:35.000Z</time>
        <extensions>
          <gpxtpx:TrackPointExtension xmlns:gpxtpx="http://www.garmin.com/xmlschemas/TrackPointExtension/v1">
            <gpxtpx:hr>106</gpxtpx:hr>
          </gpxtpx:TrackPointExtension>
        </extensions>
      </trkpt>
      <trkpt lat="45.56074" lon="2.84048">
        <ele>1438.1999511719</ele>
        <time>2024-05-26T10:02:36.000Z</time>
        <extensions>
          <gpxtpx:TrackPointExtension xmlns:gpxtpx="http://www.garmin.com/xmlschemas/TrackPointExtension/v1">
            <gpxtpx:hr>106</gpxtpx:hr>
          </gpxtpx:TrackPointExtension>
        </extensions>
      </trkpt>
      <trkpt lat="45.56069" lon="2.84058">
        <ele>1438</ele>
        <time>2024-05-26T10:02:37.000Z</time>
        <extensions>
          <gpxtpx:TrackPointExtension xmlns:gpxtpx="http://www.garmin.com/xmlschemas/TrackPointExtension/v1">
            <gpxtpx:hr>106</gpxtpx:hr>
          </gpxtpx:TrackPointExtension>
        </extensions>
      </trkpt>
      <trkpt lat="45.56052" lon="2.84083">
        <ele>1437.1999511719</ele>
        <time>2024-05-26T10:02:40.000Z</time>
        <extensions>
          <gpxtpx:TrackPointExtension xmlns:gpxtpx="http://www.garmin.com/xmlschemas/TrackPointExtension/v1">
            <gpxtpx:hr>106</gpxtpx:hr>
          </gpxtpx:TrackPointExtension>
        </extensions>
      </trkpt>
      <trkpt lat="45.56039" lon="2.84097">
        <ele>1436.4000244141</ele>
        <time>2024-05-26T10:02:42.000Z</time>
        <extensions>
          <gpxtpx:TrackPointExtension xmlns:gpxtpx="http://www.garmin.com/xmlschemas/TrackPointExtension/v1">
            <gpxtpx:hr>103</gpxtpx:hr>
          </gpxtpx:TrackPointExtension>
        </extensions>
      </trkpt>
      <trkpt lat="45.56032" lon="2.84104">
        <ele>1436</ele>
        <time>2024-05-26T10:02:43.000Z</time>
        <extensions>
          <gpxtpx:TrackPointExtension xmlns:gpxtpx="http://www.garmin.com/xmlschemas/TrackPointExtension/v1">
            <gpxtpx:hr>105</gpxtpx:hr>
          </gpxtpx:TrackPointExtension>
        </extensions>
      </trkpt>
      <trkpt lat="45.56005" lon="2.84135">
        <ele>1434.8000488281</ele>
        <time>2024-05-26T10:02:47.000Z</time>
        <extensions>
          <gpxtpx:TrackPointExtension xmlns:gpxtpx="http://www.garmin.com/xmlschemas/TrackPointExtension/v1">
            <gpxtpx:hr>104</gpxtpx:hr>
          </gpxtpx:TrackPointExtension>
        </extensions>
      </trkpt>
      <trkpt lat="45.55991" lon="2.84151">
        <ele>1433.4000244141</ele>
        <time>2024-05-26T10:02:49.000Z</time>
        <extensions>
          <gpxtpx:TrackPointExtension xmlns:gpxtpx="http://www.garmin.com/xmlschemas/TrackPointExtension/v1">
            <gpxtpx:hr>104</gpxtpx:hr>
          </gpxtpx:TrackPointExtension>
        </extensions>
      </trkpt>
      <trkpt lat="45.55984" lon="2.84159">
        <ele>1432.8000488281</ele>
        <time>2024-05-26T10:02:50.000Z</time>
        <extensions>
          <gpxtpx:TrackPointExtension xmlns:gpxtpx="http://www.garmin.com/xmlschemas/TrackPointExtension/v1">
            <gpxtpx:hr>103</gpxtpx:hr>
          </gpxtpx:TrackPointExtension>
        </extensions>
      </trkpt>
      <trkpt lat="45.5597" lon="2.84174">
        <ele>1431.8000488281</ele>
        <time>2024-05-26T10:02:52.000Z</time>
        <extensions>
          <gpxtpx:TrackPointExtension xmlns:gpxtpx="http://www.garmin.com/xmlschemas/TrackPointExtension/v1">
            <gpxtpx:hr>102</gpxtpx:hr>
          </gpxtpx:TrackPointExtension>
        </extensions>
      </trkpt>
      <trkpt lat="45.55955" lon="2.84186">
        <ele>1430.5999755859</ele>
        <time>2024-05-26T10:02:54.000Z</time>
        <extensions>
          <gpxtpx:TrackPointExtension xmlns:gpxtpx="http://www.garmin.com/xmlschemas/TrackPointExtension/v1">
            <gpxtpx:hr>101</gpxtpx:hr>
          </gpxtpx:TrackPointExtension>
        </extensions>
      </trkpt>
      <trkpt lat="45.55947" lon="2.84191">
        <ele>1430</ele>
        <time>2024-05-26T10:02:55.000Z</time>
        <extensions>
          <gpxtpx:TrackPointExtension xmlns:gpxtpx="http://www.garmin.com/xmlschemas/TrackPointExtension/v1">
            <gpxtpx:hr>101</gpxtpx:hr>
          </gpxtpx:TrackPointExtension>
        </extensions>
      </trkpt>
      <trkpt lat="45.55939" lon="2.84193">
        <ele>1430</ele>
        <time>2024-05-26T10:02:56.000Z</time>
        <extensions>
          <gpxtpx:TrackPointExtension xmlns:gpxtpx="http://www.garmin.com/xmlschemas/TrackPointExtension/v1">
            <gpxtpx:hr>101</gpxtpx:hr>
          </gpxtpx:TrackPointExtension>
        </extensions>
      </trkpt>
      <trkpt lat="45.55916" lon="2.84195">
        <ele>1429.4000244141</ele>
        <time>2024-05-26T10:02:59.000Z</time>
        <extensions>
          <gpxtpx:TrackPointExtension xmlns:gpxtpx="http://www.garmin.com/xmlschemas/TrackPointExtension/v1">
            <gpxtpx:hr>101</gpxtpx:hr>
          </gpxtpx:TrackPointExtension>
        </extensions>
      </trkpt>
      <trkpt lat="45.55901" lon="2.84194">
        <ele>1428.4000244141</ele>
        <time>2024-05-26T10:03:01.000Z</time>
        <extensions>
          <gpxtpx:TrackPointExtension xmlns:gpxtpx="http://www.garmin.com/xmlschemas/TrackPointExtension/v1">
            <gpxtpx:hr>100</gpxtpx:hr>
          </gpxtpx:TrackPointExtension>
        </extensions>
      </trkpt>
      <trkpt lat="45.55895" lon="2.84195">
        <ele>1428.1999511719</ele>
        <time>2024-05-26T10:03:02.000Z</time>
        <extensions>
          <gpxtpx:TrackPointExtension xmlns:gpxtpx="http://www.garmin.com/xmlschemas/TrackPointExtension/v1">
            <gpxtpx:hr>100</gpxtpx:hr>
          </gpxtpx:TrackPointExtension>
        </extensions>
      </trkpt>
      <trkpt lat="45.55888" lon="2.84197">
        <ele>1425.8000488281</ele>
        <time>2024-05-26T10:03:03.000Z</time>
        <extensions>
          <gpxtpx:TrackPointExtension xmlns:gpxtpx="http://www.garmin.com/xmlschemas/TrackPointExtension/v1">
            <gpxtpx:hr>100</gpxtpx:hr>
          </gpxtpx:TrackPointExtension>
        </extensions>
      </trkpt>
      <trkpt lat="45.55882" lon="2.84201">
        <ele>1424</ele>
        <time>2024-05-26T10:03:04.000Z</time>
        <extensions>
          <gpxtpx:TrackPointExtension xmlns:gpxtpx="http://www.garmin.com/xmlschemas/TrackPointExtension/v1">
            <gpxtpx:hr>100</gpxtpx:hr>
          </gpxtpx:TrackPointExtension>
        </extensions>
      </trkpt>
      <trkpt lat="45.55873" lon="2.84216">
        <ele>1423</ele>
        <time>2024-05-26T10:03:06.000Z</time>
        <extensions>
          <gpxtpx:TrackPointExtension xmlns:gpxtpx="http://www.garmin.com/xmlschemas/TrackPointExtension/v1">
            <gpxtpx:hr>100</gpxtpx:hr>
          </gpxtpx:TrackPointExtension>
        </extensions>
      </trkpt>
      <trkpt lat="45.55869" lon="2.84234">
        <ele>1421.5999755859</ele>
        <time>2024-05-26T10:03:08.000Z</time>
        <extensions>
          <gpxtpx:TrackPointExtension xmlns:gpxtpx="http://www.garmin.com/xmlschemas/TrackPointExtension/v1">
            <gpxtpx:hr>100</gpxtpx:hr>
          </gpxtpx:TrackPointExtension>
        </extensions>
      </trkpt>
      <trkpt lat="45.55868" lon="2.84245">
        <ele>1421</ele>
        <time>2024-05-26T10:03:09.000Z</time>
        <extensions>
          <gpxtpx:TrackPointExtension xmlns:gpxtpx="http://www.garmin.com/xmlschemas/TrackPointExtension/v1">
            <gpxtpx:hr>100</gpxtpx:hr>
          </gpxtpx:TrackPointExtension>
        </extensions>
      </trkpt>
      <trkpt lat="45.55868" lon="2.84257">
        <ele>1420</ele>
        <time>2024-05-26T10:03:10.000Z</time>
        <extensions>
          <gpxtpx:TrackPointExtension xmlns:gpxtpx="http://www.garmin.com/xmlschemas/TrackPointExtension/v1">
            <gpxtpx:hr>101</gpxtpx:hr>
          </gpxtpx:TrackPointExtension>
        </extensions>
      </trkpt>
      <trkpt lat="45.55866" lon="2.84294">
        <ele>1418.5999755859</ele>
        <time>2024-05-26T10:03:13.000Z</time>
        <extensions>
          <gpxtpx:TrackPointExtension xmlns:gpxtpx="http://www.garmin.com/xmlschemas/TrackPointExtension/v1">
            <gpxtpx:hr>101</gpxtpx:hr>
          </gpxtpx:TrackPointExtension>
        </extensions>
      </trkpt>
      <trkpt lat="45.55863" lon="2.8432">
        <ele>1418</ele>
        <time>2024-05-26T10:03:15.000Z</time>
        <extensions>
          <gpxtpx:TrackPointExtension xmlns:gpxtpx="http://www.garmin.com/xmlschemas/TrackPointExtension/v1">
            <gpxtpx:hr>100</gpxtpx:hr>
          </gpxtpx:TrackPointExtension>
        </extensions>
      </trkpt>
      <trkpt lat="45.55861" lon="2.84332">
        <ele>1417.5999755859</ele>
        <time>2024-05-26T10:03:16.000Z</time>
        <extensions>
          <gpxtpx:TrackPointExtension xmlns:gpxtpx="http://www.garmin.com/xmlschemas/TrackPointExtension/v1">
            <gpxtpx:hr>100</gpxtpx:hr>
          </gpxtpx:TrackPointExtension>
        </extensions>
      </trkpt>
      <trkpt lat="45.55856" lon="2.84357">
        <ele>1416.1999511719</ele>
        <time>2024-05-26T10:03:18.000Z</time>
        <extensions>
          <gpxtpx:TrackPointExtension xmlns:gpxtpx="http://www.garmin.com/xmlschemas/TrackPointExtension/v1">
            <gpxtpx:hr>99</gpxtpx:hr>
          </gpxtpx:TrackPointExtension>
        </extensions>
      </trkpt>
      <trkpt lat="45.55853" lon="2.84383">
        <ele>1414.8000488281</ele>
        <time>2024-05-26T10:03:20.000Z</time>
        <extensions>
          <gpxtpx:TrackPointExtension xmlns:gpxtpx="http://www.garmin.com/xmlschemas/TrackPointExtension/v1">
            <gpxtpx:hr>98</gpxtpx:hr>
          </gpxtpx:TrackPointExtension>
        </extensions>
      </trkpt>
      <trkpt lat="45.55853" lon="2.84396">
        <ele>1413.4000244141</ele>
        <time>2024-05-26T10:03:21.000Z</time>
        <extensions>
          <gpxtpx:TrackPointExtension xmlns:gpxtpx="http://www.garmin.com/xmlschemas/TrackPointExtension/v1">
            <gpxtpx:hr>98</gpxtpx:hr>
          </gpxtpx:TrackPointExtension>
        </extensions>
      </trkpt>
      <trkpt lat="45.55855" lon="2.84436">
        <ele>1412.1999511719</ele>
        <time>2024-05-26T10:03:24.000Z</time>
        <extensions>
          <gpxtpx:TrackPointExtension xmlns:gpxtpx="http://www.garmin.com/xmlschemas/TrackPointExtension/v1">
            <gpxtpx:hr>97</gpxtpx:hr>
          </gpxtpx:TrackPointExtension>
        </extensions>
      </trkpt>
      <trkpt lat="45.55856" lon="2.84449">
        <ele>1412</ele>
        <time>2024-05-26T10:03:25.000Z</time>
        <extensions>
          <gpxtpx:TrackPointExtension xmlns:gpxtpx="http://www.garmin.com/xmlschemas/TrackPointExtension/v1">
            <gpxtpx:hr>97</gpxtpx:hr>
          </gpxtpx:TrackPointExtension>
        </extensions>
      </trkpt>
      <trkpt lat="45.55856" lon="2.84463">
        <ele>1410.8000488281</ele>
        <time>2024-05-26T10:03:26.000Z</time>
        <extensions>
          <gpxtpx:TrackPointExtension xmlns:gpxtpx="http://www.garmin.com/xmlschemas/TrackPointExtension/v1">
            <gpxtpx:hr>96</gpxtpx:hr>
          </gpxtpx:TrackPointExtension>
        </extensions>
      </trkpt>
      <trkpt lat="45.55856" lon="2.84474">
        <ele>1409</ele>
        <time>2024-05-26T10:03:27.000Z</time>
        <extensions>
          <gpxtpx:TrackPointExtension xmlns:gpxtpx="http://www.garmin.com/xmlschemas/TrackPointExtension/v1">
            <gpxtpx:hr>96</gpxtpx:hr>
          </gpxtpx:TrackPointExtension>
        </extensions>
      </trkpt>
      <trkpt lat="45.55855" lon="2.84487">
        <ele>1408.8000488281</ele>
        <time>2024-05-26T10:03:28.000Z</time>
        <extensions>
          <gpxtpx:TrackPointExtension xmlns:gpxtpx="http://www.garmin.com/xmlschemas/TrackPointExtension/v1">
            <gpxtpx:hr>95</gpxtpx:hr>
          </gpxtpx:TrackPointExtension>
        </extensions>
      </trkpt>
      <trkpt lat="45.55853" lon="2.84503">
        <ele>1408.4000244141</ele>
        <time>2024-05-26T10:03:29.000Z</time>
        <extensions>
          <gpxtpx:TrackPointExtension xmlns:gpxtpx="http://www.garmin.com/xmlschemas/TrackPointExtension/v1">
            <gpxtpx:hr>95</gpxtpx:hr>
          </gpxtpx:TrackPointExtension>
        </extensions>
      </trkpt>
      <trkpt lat="45.55848" lon="2.84529">
        <ele>1408</ele>
        <time>2024-05-26T10:03:31.000Z</time>
        <extensions>
          <gpxtpx:TrackPointExtension xmlns:gpxtpx="http://www.garmin.com/xmlschemas/TrackPointExtension/v1">
            <gpxtpx:hr>96</gpxtpx:hr>
          </gpxtpx:TrackPointExtension>
        </extensions>
      </trkpt>
      <trkpt lat="45.55839" lon="2.84567">
        <ele>1407.5999755859</ele>
        <time>2024-05-26T10:03:34.000Z</time>
        <extensions>
          <gpxtpx:TrackPointExtension xmlns:gpxtpx="http://www.garmin.com/xmlschemas/TrackPointExtension/v1">
            <gpxtpx:hr>95</gpxtpx:hr>
          </gpxtpx:TrackPointExtension>
        </extensions>
      </trkpt>
      <trkpt lat="45.55835" lon="2.84579">
        <ele>1407.1999511719</ele>
        <time>2024-05-26T10:03:35.000Z</time>
        <extensions>
          <gpxtpx:TrackPointExtension xmlns:gpxtpx="http://www.garmin.com/xmlschemas/TrackPointExtension/v1">
            <gpxtpx:hr>95</gpxtpx:hr>
          </gpxtpx:TrackPointExtension>
        </extensions>
      </trkpt>
      <trkpt lat="45.55829" lon="2.8459">
        <ele>1406.4000244141</ele>
        <time>2024-05-26T10:03:36.000Z</time>
        <extensions>
          <gpxtpx:TrackPointExtension xmlns:gpxtpx="http://www.garmin.com/xmlschemas/TrackPointExtension/v1">
            <gpxtpx:hr>94</gpxtpx:hr>
          </gpxtpx:TrackPointExtension>
        </extensions>
      </trkpt>
      <trkpt lat="45.55818" lon="2.84609">
        <ele>1405</ele>
        <time>2024-05-26T10:03:38.000Z</time>
        <extensions>
          <gpxtpx:TrackPointExtension xmlns:gpxtpx="http://www.garmin.com/xmlschemas/TrackPointExtension/v1">
            <gpxtpx:hr>94</gpxtpx:hr>
          </gpxtpx:TrackPointExtension>
        </extensions>
      </trkpt>
      <trkpt lat="45.55811" lon="2.8462">
        <ele>1404.4000244141</ele>
        <time>2024-05-26T10:03:39.000Z</time>
        <extensions>
          <gpxtpx:TrackPointExtension xmlns:gpxtpx="http://www.garmin.com/xmlschemas/TrackPointExtension/v1">
            <gpxtpx:hr>95</gpxtpx:hr>
          </gpxtpx:TrackPointExtension>
        </extensions>
      </trkpt>
      <trkpt lat="45.55805" lon="2.84631">
        <ele>1403.8000488281</ele>
        <time>2024-05-26T10:03:40.000Z</time>
        <extensions>
          <gpxtpx:TrackPointExtension xmlns:gpxtpx="http://www.garmin.com/xmlschemas/TrackPointExtension/v1">
            <gpxtpx:hr>97</gpxtpx:hr>
          </gpxtpx:TrackPointExtension>
        </extensions>
      </trkpt>
      <trkpt lat="45.55788" lon="2.84663">
        <ele>1402.8000488281</ele>
        <time>2024-05-26T10:03:43.000Z</time>
        <extensions>
          <gpxtpx:TrackPointExtension xmlns:gpxtpx="http://www.garmin.com/xmlschemas/TrackPointExtension/v1">
            <gpxtpx:hr>96</gpxtpx:hr>
          </gpxtpx:TrackPointExtension>
        </extensions>
      </trkpt>
      <trkpt lat="45.55784" lon="2.84675">
        <ele>1402.1999511719</ele>
        <time>2024-05-26T10:03:44.000Z</time>
        <extensions>
          <gpxtpx:TrackPointExtension xmlns:gpxtpx="http://www.garmin.com/xmlschemas/TrackPointExtension/v1">
            <gpxtpx:hr>96</gpxtpx:hr>
          </gpxtpx:TrackPointExtension>
        </extensions>
      </trkpt>
      <trkpt lat="45.55779" lon="2.84687">
        <ele>1400.8000488281</ele>
        <time>2024-05-26T10:03:45.000Z</time>
        <extensions>
          <gpxtpx:TrackPointExtension xmlns:gpxtpx="http://www.garmin.com/xmlschemas/TrackPointExtension/v1">
            <gpxtpx:hr>96</gpxtpx:hr>
          </gpxtpx:TrackPointExtension>
        </extensions>
      </trkpt>
      <trkpt lat="45.55774" lon="2.84699">
        <ele>1399.1999511719</ele>
        <time>2024-05-26T10:03:46.000Z</time>
        <extensions>
          <gpxtpx:TrackPointExtension xmlns:gpxtpx="http://www.garmin.com/xmlschemas/TrackPointExtension/v1">
            <gpxtpx:hr>96</gpxtpx:hr>
          </gpxtpx:TrackPointExtension>
        </extensions>
      </trkpt>
      <trkpt lat="45.55765" lon="2.84724">
        <ele>1396.8000488281</ele>
        <time>2024-05-26T10:03:48.000Z</time>
        <extensions>
          <gpxtpx:TrackPointExtension xmlns:gpxtpx="http://www.garmin.com/xmlschemas/TrackPointExtension/v1">
            <gpxtpx:hr>97</gpxtpx:hr>
          </gpxtpx:TrackPointExtension>
        </extensions>
      </trkpt>
      <trkpt lat="45.5576" lon="2.84735">
        <ele>1395.1999511719</ele>
        <time>2024-05-26T10:03:49.000Z</time>
        <extensions>
          <gpxtpx:TrackPointExtension xmlns:gpxtpx="http://www.garmin.com/xmlschemas/TrackPointExtension/v1">
            <gpxtpx:hr>98</gpxtpx:hr>
          </gpxtpx:TrackPointExtension>
        </extensions>
      </trkpt>
      <trkpt lat="45.55754" lon="2.84746">
        <ele>1394.4000244141</ele>
        <time>2024-05-26T10:03:50.000Z</time>
        <extensions>
          <gpxtpx:TrackPointExtension xmlns:gpxtpx="http://www.garmin.com/xmlschemas/TrackPointExtension/v1">
            <gpxtpx:hr>99</gpxtpx:hr>
          </gpxtpx:TrackPointExtension>
        </extensions>
      </trkpt>
      <trkpt lat="45.55748" lon="2.84756">
        <ele>1394</ele>
        <time>2024-05-26T10:03:51.000Z</time>
        <extensions>
          <gpxtpx:TrackPointExtension xmlns:gpxtpx="http://www.garmin.com/xmlschemas/TrackPointExtension/v1">
            <gpxtpx:hr>99</gpxtpx:hr>
          </gpxtpx:TrackPointExtension>
        </extensions>
      </trkpt>
      <trkpt lat="45.55736" lon="2.84771">
        <ele>1392.5999755859</ele>
        <time>2024-05-26T10:03:53.000Z</time>
        <extensions>
          <gpxtpx:TrackPointExtension xmlns:gpxtpx="http://www.garmin.com/xmlschemas/TrackPointExtension/v1">
            <gpxtpx:hr>98</gpxtpx:hr>
          </gpxtpx:TrackPointExtension>
        </extensions>
      </trkpt>
      <trkpt lat="45.5573" lon="2.84781">
        <ele>1391.8000488281</ele>
        <time>2024-05-26T10:03:54.000Z</time>
        <extensions>
          <gpxtpx:TrackPointExtension xmlns:gpxtpx="http://www.garmin.com/xmlschemas/TrackPointExtension/v1">
            <gpxtpx:hr>100</gpxtpx:hr>
          </gpxtpx:TrackPointExtension>
        </extensions>
      </trkpt>
      <trkpt lat="45.55725" lon="2.84793">
        <ele>1390.1999511719</ele>
        <time>2024-05-26T10:03:55.000Z</time>
        <extensions>
          <gpxtpx:TrackPointExtension xmlns:gpxtpx="http://www.garmin.com/xmlschemas/TrackPointExtension/v1">
            <gpxtpx:hr>103</gpxtpx:hr>
          </gpxtpx:TrackPointExtension>
        </extensions>
      </trkpt>
      <trkpt lat="45.55724" lon="2.84805">
        <ele>1389</ele>
        <time>2024-05-26T10:03:56.000Z</time>
        <extensions>
          <gpxtpx:TrackPointExtension xmlns:gpxtpx="http://www.garmin.com/xmlschemas/TrackPointExtension/v1">
            <gpxtpx:hr>104</gpxtpx:hr>
          </gpxtpx:TrackPointExtension>
        </extensions>
      </trkpt>
      <trkpt lat="45.55725" lon="2.84817">
        <ele>1388.4000244141</ele>
        <time>2024-05-26T10:03:57.000Z</time>
        <extensions>
          <gpxtpx:TrackPointExtension xmlns:gpxtpx="http://www.garmin.com/xmlschemas/TrackPointExtension/v1">
            <gpxtpx:hr>104</gpxtpx:hr>
          </gpxtpx:TrackPointExtension>
        </extensions>
      </trkpt>
      <trkpt lat="45.55727" lon="2.84829">
        <ele>1388</ele>
        <time>2024-05-26T10:03:58.000Z</time>
        <extensions>
          <gpxtpx:TrackPointExtension xmlns:gpxtpx="http://www.garmin.com/xmlschemas/TrackPointExtension/v1">
            <gpxtpx:hr>105</gpxtpx:hr>
          </gpxtpx:TrackPointExtension>
        </extensions>
      </trkpt>
      <trkpt lat="45.55733" lon="2.84865">
        <ele>1386.4000244141</ele>
        <time>2024-05-26T10:04:01.000Z</time>
        <extensions>
          <gpxtpx:TrackPointExtension xmlns:gpxtpx="http://www.garmin.com/xmlschemas/TrackPointExtension/v1">
            <gpxtpx:hr>105</gpxtpx:hr>
          </gpxtpx:TrackPointExtension>
        </extensions>
      </trkpt>
      <trkpt lat="45.55735" lon="2.84878">
        <ele>1385.8000488281</ele>
        <time>2024-05-26T10:04:02.000Z</time>
        <extensions>
          <gpxtpx:TrackPointExtension xmlns:gpxtpx="http://www.garmin.com/xmlschemas/TrackPointExtension/v1">
            <gpxtpx:hr>105</gpxtpx:hr>
          </gpxtpx:TrackPointExtension>
        </extensions>
      </trkpt>
      <trkpt lat="45.55735" lon="2.84891">
        <ele>1385.4000244141</ele>
        <time>2024-05-26T10:04:03.000Z</time>
        <extensions>
          <gpxtpx:TrackPointExtension xmlns:gpxtpx="http://www.garmin.com/xmlschemas/TrackPointExtension/v1">
            <gpxtpx:hr>105</gpxtpx:hr>
          </gpxtpx:TrackPointExtension>
        </extensions>
      </trkpt>
      <trkpt lat="45.55734" lon="2.84905">
        <ele>1385.4000244141</ele>
        <time>2024-05-26T10:04:04.000Z</time>
        <extensions>
          <gpxtpx:TrackPointExtension xmlns:gpxtpx="http://www.garmin.com/xmlschemas/TrackPointExtension/v1">
            <gpxtpx:hr>105</gpxtpx:hr>
          </gpxtpx:TrackPointExtension>
        </extensions>
      </trkpt>
      <trkpt lat="45.55731" lon="2.84919">
        <ele>1384.4000244141</ele>
        <time>2024-05-26T10:04:05.000Z</time>
        <extensions>
          <gpxtpx:TrackPointExtension xmlns:gpxtpx="http://www.garmin.com/xmlschemas/TrackPointExtension/v1">
            <gpxtpx:hr>105</gpxtpx:hr>
          </gpxtpx:TrackPointExtension>
        </extensions>
      </trkpt>
      <trkpt lat="45.55726" lon="2.84931">
        <ele>1384.1999511719</ele>
        <time>2024-05-26T10:04:06.000Z</time>
        <extensions>
          <gpxtpx:TrackPointExtension xmlns:gpxtpx="http://www.garmin.com/xmlschemas/TrackPointExtension/v1">
            <gpxtpx:hr>104</gpxtpx:hr>
          </gpxtpx:TrackPointExtension>
        </extensions>
      </trkpt>
      <trkpt lat="45.5572" lon="2.84942">
        <ele>1384.1999511719</ele>
        <time>2024-05-26T10:04:07.000Z</time>
        <extensions>
          <gpxtpx:TrackPointExtension xmlns:gpxtpx="http://www.garmin.com/xmlschemas/TrackPointExtension/v1">
            <gpxtpx:hr>104</gpxtpx:hr>
          </gpxtpx:TrackPointExtension>
        </extensions>
      </trkpt>
      <trkpt lat="45.55712" lon="2.8495">
        <ele>1384.1999511719</ele>
        <time>2024-05-26T10:04:08.000Z</time>
        <extensions>
          <gpxtpx:TrackPointExtension xmlns:gpxtpx="http://www.garmin.com/xmlschemas/TrackPointExtension/v1">
            <gpxtpx:hr>104</gpxtpx:hr>
          </gpxtpx:TrackPointExtension>
        </extensions>
      </trkpt>
      <trkpt lat="45.55704" lon="2.84957">
        <ele>1384.1999511719</ele>
        <time>2024-05-26T10:04:09.000Z</time>
        <extensions>
          <gpxtpx:TrackPointExtension xmlns:gpxtpx="http://www.garmin.com/xmlschemas/TrackPointExtension/v1">
            <gpxtpx:hr>104</gpxtpx:hr>
          </gpxtpx:TrackPointExtension>
        </extensions>
      </trkpt>
      <trkpt lat="45.55688" lon="2.84963">
        <ele>1384</ele>
        <time>2024-05-26T10:04:11.000Z</time>
        <extensions>
          <gpxtpx:TrackPointExtension xmlns:gpxtpx="http://www.garmin.com/xmlschemas/TrackPointExtension/v1">
            <gpxtpx:hr>104</gpxtpx:hr>
          </gpxtpx:TrackPointExtension>
        </extensions>
      </trkpt>
      <trkpt lat="45.55662" lon="2.84964">
        <ele>1383.8000488281</ele>
        <time>2024-05-26T10:04:14.000Z</time>
        <extensions>
          <gpxtpx:TrackPointExtension xmlns:gpxtpx="http://www.garmin.com/xmlschemas/TrackPointExtension/v1">
            <gpxtpx:hr>105</gpxtpx:hr>
          </gpxtpx:TrackPointExtension>
        </extensions>
      </trkpt>
      <trkpt lat="45.55646" lon="2.84962">
        <ele>1383</ele>
        <time>2024-05-26T10:04:16.000Z</time>
        <extensions>
          <gpxtpx:TrackPointExtension xmlns:gpxtpx="http://www.garmin.com/xmlschemas/TrackPointExtension/v1">
            <gpxtpx:hr>105</gpxtpx:hr>
          </gpxtpx:TrackPointExtension>
        </extensions>
      </trkpt>
      <trkpt lat="45.55638" lon="2.84963">
        <ele>1382.4000244141</ele>
        <time>2024-05-26T10:04:17.000Z</time>
        <extensions>
          <gpxtpx:TrackPointExtension xmlns:gpxtpx="http://www.garmin.com/xmlschemas/TrackPointExtension/v1">
            <gpxtpx:hr>104</gpxtpx:hr>
          </gpxtpx:TrackPointExtension>
        </extensions>
      </trkpt>
      <trkpt lat="45.5563" lon="2.84965">
        <ele>1381</ele>
        <time>2024-05-26T10:04:18.000Z</time>
        <extensions>
          <gpxtpx:TrackPointExtension xmlns:gpxtpx="http://www.garmin.com/xmlschemas/TrackPointExtension/v1">
            <gpxtpx:hr>104</gpxtpx:hr>
          </gpxtpx:TrackPointExtension>
        </extensions>
      </trkpt>
      <trkpt lat="45.55623" lon="2.8497">
        <ele>1378.8000488281</ele>
        <time>2024-05-26T10:04:19.000Z</time>
        <extensions>
          <gpxtpx:TrackPointExtension xmlns:gpxtpx="http://www.garmin.com/xmlschemas/TrackPointExtension/v1">
            <gpxtpx:hr>104</gpxtpx:hr>
          </gpxtpx:TrackPointExtension>
        </extensions>
      </trkpt>
      <trkpt lat="45.55613" lon="2.84987">
        <ele>1377.1999511719</ele>
        <time>2024-05-26T10:04:21.000Z</time>
        <extensions>
          <gpxtpx:TrackPointExtension xmlns:gpxtpx="http://www.garmin.com/xmlschemas/TrackPointExtension/v1">
            <gpxtpx:hr>104</gpxtpx:hr>
          </gpxtpx:TrackPointExtension>
        </extensions>
      </trkpt>
      <trkpt lat="45.55615" lon="2.84998">
        <ele>1376</ele>
        <time>2024-05-26T10:04:22.000Z</time>
        <extensions>
          <gpxtpx:TrackPointExtension xmlns:gpxtpx="http://www.garmin.com/xmlschemas/TrackPointExtension/v1">
            <gpxtpx:hr>104</gpxtpx:hr>
          </gpxtpx:TrackPointExtension>
        </extensions>
      </trkpt>
      <trkpt lat="45.55619" lon="2.85008">
        <ele>1375</ele>
        <time>2024-05-26T10:04:23.000Z</time>
        <extensions>
          <gpxtpx:TrackPointExtension xmlns:gpxtpx="http://www.garmin.com/xmlschemas/TrackPointExtension/v1">
            <gpxtpx:hr>103</gpxtpx:hr>
          </gpxtpx:TrackPointExtension>
        </extensions>
      </trkpt>
      <trkpt lat="45.55624" lon="2.85017">
        <ele>1374</ele>
        <time>2024-05-26T10:04:24.000Z</time>
        <extensions>
          <gpxtpx:TrackPointExtension xmlns:gpxtpx="http://www.garmin.com/xmlschemas/TrackPointExtension/v1">
            <gpxtpx:hr>103</gpxtpx:hr>
          </gpxtpx:TrackPointExtension>
        </extensions>
      </trkpt>
      <trkpt lat="45.55638" lon="2.8503">
        <ele>1371.4000244141</ele>
        <time>2024-05-26T10:04:26.000Z</time>
        <extensions>
          <gpxtpx:TrackPointExtension xmlns:gpxtpx="http://www.garmin.com/xmlschemas/TrackPointExtension/v1">
            <gpxtpx:hr>101</gpxtpx:hr>
          </gpxtpx:TrackPointExtension>
        </extensions>
      </trkpt>
      <trkpt lat="45.55646" lon="2.85036">
        <ele>1370</ele>
        <time>2024-05-26T10:04:27.000Z</time>
        <extensions>
          <gpxtpx:TrackPointExtension xmlns:gpxtpx="http://www.garmin.com/xmlschemas/TrackPointExtension/v1">
            <gpxtpx:hr>100</gpxtpx:hr>
          </gpxtpx:TrackPointExtension>
        </extensions>
      </trkpt>
      <trkpt lat="45.55664" lon="2.85047">
        <ele>1368.4000244141</ele>
        <time>2024-05-26T10:04:29.000Z</time>
        <extensions>
          <gpxtpx:TrackPointExtension xmlns:gpxtpx="http://www.garmin.com/xmlschemas/TrackPointExtension/v1">
            <gpxtpx:hr>99</gpxtpx:hr>
          </gpxtpx:TrackPointExtension>
        </extensions>
      </trkpt>
      <trkpt lat="45.55682" lon="2.85058">
        <ele>1365.5999755859</ele>
        <time>2024-05-26T10:04:31.000Z</time>
        <extensions>
          <gpxtpx:TrackPointExtension xmlns:gpxtpx="http://www.garmin.com/xmlschemas/TrackPointExtension/v1">
            <gpxtpx:hr>100</gpxtpx:hr>
          </gpxtpx:TrackPointExtension>
        </extensions>
      </trkpt>
      <trkpt lat="45.55701" lon="2.85066">
        <ele>1363.5999755859</ele>
        <time>2024-05-26T10:04:33.000Z</time>
        <extensions>
          <gpxtpx:TrackPointExtension xmlns:gpxtpx="http://www.garmin.com/xmlschemas/TrackPointExtension/v1">
            <gpxtpx:hr>99</gpxtpx:hr>
          </gpxtpx:TrackPointExtension>
        </extensions>
      </trkpt>
      <trkpt lat="45.5573" lon="2.85075">
        <ele>1362.4000244141</ele>
        <time>2024-05-26T10:04:36.000Z</time>
        <extensions>
          <gpxtpx:TrackPointExtension xmlns:gpxtpx="http://www.garmin.com/xmlschemas/TrackPointExtension/v1">
            <gpxtpx:hr>98</gpxtpx:hr>
          </gpxtpx:TrackPointExtension>
        </extensions>
      </trkpt>
      <trkpt lat="45.5575" lon="2.8508">
        <ele>1361</ele>
        <time>2024-05-26T10:04:38.000Z</time>
        <extensions>
          <gpxtpx:TrackPointExtension xmlns:gpxtpx="http://www.garmin.com/xmlschemas/TrackPointExtension/v1">
            <gpxtpx:hr>99</gpxtpx:hr>
          </gpxtpx:TrackPointExtension>
        </extensions>
      </trkpt>
      <trkpt lat="45.5576" lon="2.85082">
        <ele>1359.5999755859</ele>
        <time>2024-05-26T10:04:39.000Z</time>
        <extensions>
          <gpxtpx:TrackPointExtension xmlns:gpxtpx="http://www.garmin.com/xmlschemas/TrackPointExtension/v1">
            <gpxtpx:hr>98</gpxtpx:hr>
          </gpxtpx:TrackPointExtension>
        </extensions>
      </trkpt>
      <trkpt lat="45.55781" lon="2.85086">
        <ele>1358.5999755859</ele>
        <time>2024-05-26T10:04:41.000Z</time>
        <extensions>
          <gpxtpx:TrackPointExtension xmlns:gpxtpx="http://www.garmin.com/xmlschemas/TrackPointExtension/v1">
            <gpxtpx:hr>97</gpxtpx:hr>
          </gpxtpx:TrackPointExtension>
        </extensions>
      </trkpt>
      <trkpt lat="45.55791" lon="2.85084">
        <ele>1358.4000244141</ele>
        <time>2024-05-26T10:04:42.000Z</time>
        <extensions>
          <gpxtpx:TrackPointExtension xmlns:gpxtpx="http://www.garmin.com/xmlschemas/TrackPointExtension/v1">
            <gpxtpx:hr>97</gpxtpx:hr>
          </gpxtpx:TrackPointExtension>
        </extensions>
      </trkpt>
      <trkpt lat="45.55799" lon="2.8508">
        <ele>1357.8000488281</ele>
        <time>2024-05-26T10:04:43.000Z</time>
        <extensions>
          <gpxtpx:TrackPointExtension xmlns:gpxtpx="http://www.garmin.com/xmlschemas/TrackPointExtension/v1">
            <gpxtpx:hr>97</gpxtpx:hr>
          </gpxtpx:TrackPointExtension>
        </extensions>
      </trkpt>
      <trkpt lat="45.55806" lon="2.85073">
        <ele>1357.4000244141</ele>
        <time>2024-05-26T10:04:44.000Z</time>
        <extensions>
          <gpxtpx:TrackPointExtension xmlns:gpxtpx="http://www.garmin.com/xmlschemas/TrackPointExtension/v1">
            <gpxtpx:hr>96</gpxtpx:hr>
          </gpxtpx:TrackPointExtension>
        </extensions>
      </trkpt>
      <trkpt lat="45.55817" lon="2.85056">
        <ele>1356.8000488281</ele>
        <time>2024-05-26T10:04:46.000Z</time>
        <extensions>
          <gpxtpx:TrackPointExtension xmlns:gpxtpx="http://www.garmin.com/xmlschemas/TrackPointExtension/v1">
            <gpxtpx:hr>96</gpxtpx:hr>
          </gpxtpx:TrackPointExtension>
        </extensions>
      </trkpt>
      <trkpt lat="45.55823" lon="2.85048">
        <ele>1356</ele>
        <time>2024-05-26T10:04:47.000Z</time>
        <extensions>
          <gpxtpx:TrackPointExtension xmlns:gpxtpx="http://www.garmin.com/xmlschemas/TrackPointExtension/v1">
            <gpxtpx:hr>96</gpxtpx:hr>
          </gpxtpx:TrackPointExtension>
        </extensions>
      </trkpt>
      <trkpt lat="45.55846" lon="2.85025">
        <ele>1355.4000244141</ele>
        <time>2024-05-26T10:04:50.000Z</time>
        <extensions>
          <gpxtpx:TrackPointExtension xmlns:gpxtpx="http://www.garmin.com/xmlschemas/TrackPointExtension/v1">
            <gpxtpx:hr>96</gpxtpx:hr>
          </gpxtpx:TrackPointExtension>
        </extensions>
      </trkpt>
      <trkpt lat="45.55861" lon="2.85014">
        <ele>1355</ele>
        <time>2024-05-26T10:04:52.000Z</time>
        <extensions>
          <gpxtpx:TrackPointExtension xmlns:gpxtpx="http://www.garmin.com/xmlschemas/TrackPointExtension/v1">
            <gpxtpx:hr>96</gpxtpx:hr>
          </gpxtpx:TrackPointExtension>
        </extensions>
      </trkpt>
      <trkpt lat="45.55878" lon="2.85011">
        <ele>1355</ele>
        <time>2024-05-26T10:04:54.000Z</time>
        <extensions>
          <gpxtpx:TrackPointExtension xmlns:gpxtpx="http://www.garmin.com/xmlschemas/TrackPointExtension/v1">
            <gpxtpx:hr>95</gpxtpx:hr>
          </gpxtpx:TrackPointExtension>
        </extensions>
      </trkpt>
      <trkpt lat="45.55887" lon="2.85014">
        <ele>1355</ele>
        <time>2024-05-26T10:04:55.000Z</time>
        <extensions>
          <gpxtpx:TrackPointExtension xmlns:gpxtpx="http://www.garmin.com/xmlschemas/TrackPointExtension/v1">
            <gpxtpx:hr>95</gpxtpx:hr>
          </gpxtpx:TrackPointExtension>
        </extensions>
      </trkpt>
      <trkpt lat="45.55896" lon="2.85017">
        <ele>1354.1999511719</ele>
        <time>2024-05-26T10:04:56.000Z</time>
        <extensions>
          <gpxtpx:TrackPointExtension xmlns:gpxtpx="http://www.garmin.com/xmlschemas/TrackPointExtension/v1">
            <gpxtpx:hr>94</gpxtpx:hr>
          </gpxtpx:TrackPointExtension>
        </extensions>
      </trkpt>
      <trkpt lat="45.55905" lon="2.85018">
        <ele>1352.8000488281</ele>
        <time>2024-05-26T10:04:57.000Z</time>
        <extensions>
          <gpxtpx:TrackPointExtension xmlns:gpxtpx="http://www.garmin.com/xmlschemas/TrackPointExtension/v1">
            <gpxtpx:hr>95</gpxtpx:hr>
          </gpxtpx:TrackPointExtension>
        </extensions>
      </trkpt>
      <trkpt lat="45.55922" lon="2.85013">
        <ele>1351.4000244141</ele>
        <time>2024-05-26T10:04:59.000Z</time>
        <extensions>
          <gpxtpx:TrackPointExtension xmlns:gpxtpx="http://www.garmin.com/xmlschemas/TrackPointExtension/v1">
            <gpxtpx:hr>93</gpxtpx:hr>
          </gpxtpx:TrackPointExtension>
        </extensions>
      </trkpt>
      <trkpt lat="45.55939" lon="2.85002">
        <ele>1349.4000244141</ele>
        <time>2024-05-26T10:05:01.000Z</time>
        <extensions>
          <gpxtpx:TrackPointExtension xmlns:gpxtpx="http://www.garmin.com/xmlschemas/TrackPointExtension/v1">
            <gpxtpx:hr>94</gpxtpx:hr>
          </gpxtpx:TrackPointExtension>
        </extensions>
      </trkpt>
      <trkpt lat="45.55947" lon="2.84997">
        <ele>1348</ele>
        <time>2024-05-26T10:05:02.000Z</time>
        <extensions>
          <gpxtpx:TrackPointExtension xmlns:gpxtpx="http://www.garmin.com/xmlschemas/TrackPointExtension/v1">
            <gpxtpx:hr>93</gpxtpx:hr>
          </gpxtpx:TrackPointExtension>
        </extensions>
      </trkpt>
      <trkpt lat="45.55956" lon="2.84992">
        <ele>1347.8000488281</ele>
        <time>2024-05-26T10:05:03.000Z</time>
        <extensions>
          <gpxtpx:TrackPointExtension xmlns:gpxtpx="http://www.garmin.com/xmlschemas/TrackPointExtension/v1">
            <gpxtpx:hr>94</gpxtpx:hr>
          </gpxtpx:TrackPointExtension>
        </extensions>
      </trkpt>
      <trkpt lat="45.55965" lon="2.84991">
        <ele>1347.5999755859</ele>
        <time>2024-05-26T10:05:04.000Z</time>
        <extensions>
          <gpxtpx:TrackPointExtension xmlns:gpxtpx="http://www.garmin.com/xmlschemas/TrackPointExtension/v1">
            <gpxtpx:hr>95</gpxtpx:hr>
          </gpxtpx:TrackPointExtension>
        </extensions>
      </trkpt>
      <trkpt lat="45.55975" lon="2.84993">
        <ele>1347.4000244141</ele>
        <time>2024-05-26T10:05:05.000Z</time>
        <extensions>
          <gpxtpx:TrackPointExtension xmlns:gpxtpx="http://www.garmin.com/xmlschemas/TrackPointExtension/v1">
            <gpxtpx:hr>95</gpxtpx:hr>
          </gpxtpx:TrackPointExtension>
        </extensions>
      </trkpt>
      <trkpt lat="45.55984" lon="2.84999">
        <ele>1347.4000244141</ele>
        <time>2024-05-26T10:05:06.000Z</time>
        <extensions>
          <gpxtpx:TrackPointExtension xmlns:gpxtpx="http://www.garmin.com/xmlschemas/TrackPointExtension/v1">
            <gpxtpx:hr>95</gpxtpx:hr>
          </gpxtpx:TrackPointExtension>
        </extensions>
      </trkpt>
      <trkpt lat="45.55992" lon="2.85007">
        <ele>1347.5999755859</ele>
        <time>2024-05-26T10:05:07.000Z</time>
        <extensions>
          <gpxtpx:TrackPointExtension xmlns:gpxtpx="http://www.garmin.com/xmlschemas/TrackPointExtension/v1">
            <gpxtpx:hr>96</gpxtpx:hr>
          </gpxtpx:TrackPointExtension>
        </extensions>
      </trkpt>
      <trkpt lat="45.56005" lon="2.85031">
        <ele>1347.5999755859</ele>
        <time>2024-05-26T10:05:09.000Z</time>
        <extensions>
          <gpxtpx:TrackPointExtension xmlns:gpxtpx="http://www.garmin.com/xmlschemas/TrackPointExtension/v1">
            <gpxtpx:hr>96</gpxtpx:hr>
          </gpxtpx:TrackPointExtension>
        </extensions>
      </trkpt>
      <trkpt lat="45.56016" lon="2.85056">
        <ele>1346.8000488281</ele>
        <time>2024-05-26T10:05:11.000Z</time>
        <extensions>
          <gpxtpx:TrackPointExtension xmlns:gpxtpx="http://www.garmin.com/xmlschemas/TrackPointExtension/v1">
            <gpxtpx:hr>95</gpxtpx:hr>
          </gpxtpx:TrackPointExtension>
        </extensions>
      </trkpt>
      <trkpt lat="45.56026" lon="2.85081">
        <ele>1345.4000244141</ele>
        <time>2024-05-26T10:05:13.000Z</time>
        <extensions>
          <gpxtpx:TrackPointExtension xmlns:gpxtpx="http://www.garmin.com/xmlschemas/TrackPointExtension/v1">
            <gpxtpx:hr>97</gpxtpx:hr>
          </gpxtpx:TrackPointExtension>
        </extensions>
      </trkpt>
      <trkpt lat="45.56031" lon="2.85094">
        <ele>1344.8000488281</ele>
        <time>2024-05-26T10:05:14.000Z</time>
        <extensions>
          <gpxtpx:TrackPointExtension xmlns:gpxtpx="http://www.garmin.com/xmlschemas/TrackPointExtension/v1">
            <gpxtpx:hr>98</gpxtpx:hr>
          </gpxtpx:TrackPointExtension>
        </extensions>
      </trkpt>
      <trkpt lat="45.56037" lon="2.85121">
        <ele>1344</ele>
        <time>2024-05-26T10:05:16.000Z</time>
        <extensions>
          <gpxtpx:TrackPointExtension xmlns:gpxtpx="http://www.garmin.com/xmlschemas/TrackPointExtension/v1">
            <gpxtpx:hr>99</gpxtpx:hr>
          </gpxtpx:TrackPointExtension>
        </extensions>
      </trkpt>
      <trkpt lat="45.56039" lon="2.85148">
        <ele>1343</ele>
        <time>2024-05-26T10:05:18.000Z</time>
        <extensions>
          <gpxtpx:TrackPointExtension xmlns:gpxtpx="http://www.garmin.com/xmlschemas/TrackPointExtension/v1">
            <gpxtpx:hr>100</gpxtpx:hr>
          </gpxtpx:TrackPointExtension>
        </extensions>
      </trkpt>
      <trkpt lat="45.56038" lon="2.8516">
        <ele>1342.1999511719</ele>
        <time>2024-05-26T10:05:19.000Z</time>
        <extensions>
          <gpxtpx:TrackPointExtension xmlns:gpxtpx="http://www.garmin.com/xmlschemas/TrackPointExtension/v1">
            <gpxtpx:hr>100</gpxtpx:hr>
          </gpxtpx:TrackPointExtension>
        </extensions>
      </trkpt>
      <trkpt lat="45.56037" lon="2.85174">
        <ele>1341.1999511719</ele>
        <time>2024-05-26T10:05:20.000Z</time>
        <extensions>
          <gpxtpx:TrackPointExtension xmlns:gpxtpx="http://www.garmin.com/xmlschemas/TrackPointExtension/v1">
            <gpxtpx:hr>100</gpxtpx:hr>
          </gpxtpx:TrackPointExtension>
        </extensions>
      </trkpt>
      <trkpt lat="45.56034" lon="2.8519">
        <ele>1340.4000244141</ele>
        <time>2024-05-26T10:05:21.000Z</time>
        <extensions>
          <gpxtpx:TrackPointExtension xmlns:gpxtpx="http://www.garmin.com/xmlschemas/TrackPointExtension/v1">
            <gpxtpx:hr>100</gpxtpx:hr>
          </gpxtpx:TrackPointExtension>
        </extensions>
      </trkpt>
      <trkpt lat="45.56025" lon="2.85216">
        <ele>1340</ele>
        <time>2024-05-26T10:05:23.000Z</time>
        <extensions>
          <gpxtpx:TrackPointExtension xmlns:gpxtpx="http://www.garmin.com/xmlschemas/TrackPointExtension/v1">
            <gpxtpx:hr>99</gpxtpx:hr>
          </gpxtpx:TrackPointExtension>
        </extensions>
      </trkpt>
      <trkpt lat="45.55997" lon="2.85283">
        <ele>1338.5999755859</ele>
        <time>2024-05-26T10:05:28.000Z</time>
        <extensions>
          <gpxtpx:TrackPointExtension xmlns:gpxtpx="http://www.garmin.com/xmlschemas/TrackPointExtension/v1">
            <gpxtpx:hr>99</gpxtpx:hr>
          </gpxtpx:TrackPointExtension>
        </extensions>
      </trkpt>
      <trkpt lat="45.55991" lon="2.85297">
        <ele>1336.8000488281</ele>
        <time>2024-05-26T10:05:29.000Z</time>
        <extensions>
          <gpxtpx:TrackPointExtension xmlns:gpxtpx="http://www.garmin.com/xmlschemas/TrackPointExtension/v1">
            <gpxtpx:hr>99</gpxtpx:hr>
          </gpxtpx:TrackPointExtension>
        </extensions>
      </trkpt>
      <trkpt lat="45.5598" lon="2.85324">
        <ele>1335.1999511719</ele>
        <time>2024-05-26T10:05:31.000Z</time>
        <extensions>
          <gpxtpx:TrackPointExtension xmlns:gpxtpx="http://www.garmin.com/xmlschemas/TrackPointExtension/v1">
            <gpxtpx:hr>100</gpxtpx:hr>
          </gpxtpx:TrackPointExtension>
        </extensions>
      </trkpt>
      <trkpt lat="45.55976" lon="2.85337">
        <ele>1333.8000488281</ele>
        <time>2024-05-26T10:05:32.000Z</time>
        <extensions>
          <gpxtpx:TrackPointExtension xmlns:gpxtpx="http://www.garmin.com/xmlschemas/TrackPointExtension/v1">
            <gpxtpx:hr>100</gpxtpx:hr>
          </gpxtpx:TrackPointExtension>
        </extensions>
      </trkpt>
      <trkpt lat="45.55974" lon="2.85352">
        <ele>1331.1999511719</ele>
        <time>2024-05-26T10:05:33.000Z</time>
        <extensions>
          <gpxtpx:TrackPointExtension xmlns:gpxtpx="http://www.garmin.com/xmlschemas/TrackPointExtension/v1">
            <gpxtpx:hr>100</gpxtpx:hr>
          </gpxtpx:TrackPointExtension>
        </extensions>
      </trkpt>
      <trkpt lat="45.55975" lon="2.85366">
        <ele>1330.4000244141</ele>
        <time>2024-05-26T10:05:34.000Z</time>
        <extensions>
          <gpxtpx:TrackPointExtension xmlns:gpxtpx="http://www.garmin.com/xmlschemas/TrackPointExtension/v1">
            <gpxtpx:hr>100</gpxtpx:hr>
          </gpxtpx:TrackPointExtension>
        </extensions>
      </trkpt>
      <trkpt lat="45.55978" lon="2.85376">
        <ele>1329.4000244141</ele>
        <time>2024-05-26T10:05:35.000Z</time>
        <extensions>
          <gpxtpx:TrackPointExtension xmlns:gpxtpx="http://www.garmin.com/xmlschemas/TrackPointExtension/v1">
            <gpxtpx:hr>100</gpxtpx:hr>
          </gpxtpx:TrackPointExtension>
        </extensions>
      </trkpt>
      <trkpt lat="45.55986" lon="2.8539">
        <ele>1327.8000488281</ele>
        <time>2024-05-26T10:05:36.000Z</time>
        <extensions>
          <gpxtpx:TrackPointExtension xmlns:gpxtpx="http://www.garmin.com/xmlschemas/TrackPointExtension/v1">
            <gpxtpx:hr>99</gpxtpx:hr>
          </gpxtpx:TrackPointExtension>
        </extensions>
      </trkpt>
      <trkpt lat="45.55994" lon="2.85398">
        <ele>1325.5999755859</ele>
        <time>2024-05-26T10:05:37.000Z</time>
        <extensions>
          <gpxtpx:TrackPointExtension xmlns:gpxtpx="http://www.garmin.com/xmlschemas/TrackPointExtension/v1">
            <gpxtpx:hr>99</gpxtpx:hr>
          </gpxtpx:TrackPointExtension>
        </extensions>
      </trkpt>
      <trkpt lat="45.56003" lon="2.85404">
        <ele>1324.1999511719</ele>
        <time>2024-05-26T10:05:38.000Z</time>
        <extensions>
          <gpxtpx:TrackPointExtension xmlns:gpxtpx="http://www.garmin.com/xmlschemas/TrackPointExtension/v1">
            <gpxtpx:hr>99</gpxtpx:hr>
          </gpxtpx:TrackPointExtension>
        </extensions>
      </trkpt>
      <trkpt lat="45.56012" lon="2.8541">
        <ele>1323.1999511719</ele>
        <time>2024-05-26T10:05:39.000Z</time>
        <extensions>
          <gpxtpx:TrackPointExtension xmlns:gpxtpx="http://www.garmin.com/xmlschemas/TrackPointExtension/v1">
            <gpxtpx:hr>99</gpxtpx:hr>
          </gpxtpx:TrackPointExtension>
        </extensions>
      </trkpt>
      <trkpt lat="45.56021" lon="2.85414">
        <ele>1322.5999755859</ele>
        <time>2024-05-26T10:05:40.000Z</time>
        <extensions>
          <gpxtpx:TrackPointExtension xmlns:gpxtpx="http://www.garmin.com/xmlschemas/TrackPointExtension/v1">
            <gpxtpx:hr>99</gpxtpx:hr>
          </gpxtpx:TrackPointExtension>
        </extensions>
      </trkpt>
      <trkpt lat="45.5603" lon="2.85418">
        <ele>1320.8000488281</ele>
        <time>2024-05-26T10:05:41.000Z</time>
        <extensions>
          <gpxtpx:TrackPointExtension xmlns:gpxtpx="http://www.garmin.com/xmlschemas/TrackPointExtension/v1">
            <gpxtpx:hr>99</gpxtpx:hr>
          </gpxtpx:TrackPointExtension>
        </extensions>
      </trkpt>
      <trkpt lat="45.56048" lon="2.85428">
        <ele>1319.4000244141</ele>
        <time>2024-05-26T10:05:43.000Z</time>
        <extensions>
          <gpxtpx:TrackPointExtension xmlns:gpxtpx="http://www.garmin.com/xmlschemas/TrackPointExtension/v1">
            <gpxtpx:hr>100</gpxtpx:hr>
          </gpxtpx:TrackPointExtension>
        </extensions>
      </trkpt>
      <trkpt lat="45.56057" lon="2.85435">
        <ele>1318.8000488281</ele>
        <time>2024-05-26T10:05:44.000Z</time>
        <extensions>
          <gpxtpx:TrackPointExtension xmlns:gpxtpx="http://www.garmin.com/xmlschemas/TrackPointExtension/v1">
            <gpxtpx:hr>100</gpxtpx:hr>
          </gpxtpx:TrackPointExtension>
        </extensions>
      </trkpt>
      <trkpt lat="45.56064" lon="2.85445">
        <ele>1318.4000244141</ele>
        <time>2024-05-26T10:05:45.000Z</time>
        <extensions>
          <gpxtpx:TrackPointExtension xmlns:gpxtpx="http://www.garmin.com/xmlschemas/TrackPointExtension/v1">
            <gpxtpx:hr>99</gpxtpx:hr>
          </gpxtpx:TrackPointExtension>
        </extensions>
      </trkpt>
      <trkpt lat="45.56072" lon="2.85456">
        <ele>1318.1999511719</ele>
        <time>2024-05-26T10:05:46.000Z</time>
        <extensions>
          <gpxtpx:TrackPointExtension xmlns:gpxtpx="http://www.garmin.com/xmlschemas/TrackPointExtension/v1">
            <gpxtpx:hr>98</gpxtpx:hr>
          </gpxtpx:TrackPointExtension>
        </extensions>
      </trkpt>
      <trkpt lat="45.56078" lon="2.85467">
        <ele>1318</ele>
        <time>2024-05-26T10:05:47.000Z</time>
        <extensions>
          <gpxtpx:TrackPointExtension xmlns:gpxtpx="http://www.garmin.com/xmlschemas/TrackPointExtension/v1">
            <gpxtpx:hr>98</gpxtpx:hr>
          </gpxtpx:TrackPointExtension>
        </extensions>
      </trkpt>
      <trkpt lat="45.56092" lon="2.8549">
        <ele>1316.4000244141</ele>
        <time>2024-05-26T10:05:49.000Z</time>
        <extensions>
          <gpxtpx:TrackPointExtension xmlns:gpxtpx="http://www.garmin.com/xmlschemas/TrackPointExtension/v1">
            <gpxtpx:hr>97</gpxtpx:hr>
          </gpxtpx:TrackPointExtension>
        </extensions>
      </trkpt>
      <trkpt lat="45.56105" lon="2.85513">
        <ele>1315</ele>
        <time>2024-05-26T10:05:51.000Z</time>
        <extensions>
          <gpxtpx:TrackPointExtension xmlns:gpxtpx="http://www.garmin.com/xmlschemas/TrackPointExtension/v1">
            <gpxtpx:hr>97</gpxtpx:hr>
          </gpxtpx:TrackPointExtension>
        </extensions>
      </trkpt>
      <trkpt lat="45.56119" lon="2.85535">
        <ele>1313.4000244141</ele>
        <time>2024-05-26T10:05:53.000Z</time>
        <extensions>
          <gpxtpx:TrackPointExtension xmlns:gpxtpx="http://www.garmin.com/xmlschemas/TrackPointExtension/v1">
            <gpxtpx:hr>98</gpxtpx:hr>
          </gpxtpx:TrackPointExtension>
        </extensions>
      </trkpt>
      <trkpt lat="45.56126" lon="2.85544">
        <ele>1312.1999511719</ele>
        <time>2024-05-26T10:05:54.000Z</time>
        <extensions>
          <gpxtpx:TrackPointExtension xmlns:gpxtpx="http://www.garmin.com/xmlschemas/TrackPointExtension/v1">
            <gpxtpx:hr>98</gpxtpx:hr>
          </gpxtpx:TrackPointExtension>
        </extensions>
      </trkpt>
      <trkpt lat="45.56143" lon="2.85553">
        <ele>1309.5999755859</ele>
        <time>2024-05-26T10:05:56.000Z</time>
        <extensions>
          <gpxtpx:TrackPointExtension xmlns:gpxtpx="http://www.garmin.com/xmlschemas/TrackPointExtension/v1">
            <gpxtpx:hr>99</gpxtpx:hr>
          </gpxtpx:TrackPointExtension>
        </extensions>
      </trkpt>
      <trkpt lat="45.56152" lon="2.85554">
        <ele>1308.1999511719</ele>
        <time>2024-05-26T10:05:57.000Z</time>
        <extensions>
          <gpxtpx:TrackPointExtension xmlns:gpxtpx="http://www.garmin.com/xmlschemas/TrackPointExtension/v1">
            <gpxtpx:hr>99</gpxtpx:hr>
          </gpxtpx:TrackPointExtension>
        </extensions>
      </trkpt>
      <trkpt lat="45.56162" lon="2.85552">
        <ele>1306.8000488281</ele>
        <time>2024-05-26T10:05:58.000Z</time>
        <extensions>
          <gpxtpx:TrackPointExtension xmlns:gpxtpx="http://www.garmin.com/xmlschemas/TrackPointExtension/v1">
            <gpxtpx:hr>99</gpxtpx:hr>
          </gpxtpx:TrackPointExtension>
        </extensions>
      </trkpt>
      <trkpt lat="45.56171" lon="2.85551">
        <ele>1305</ele>
        <time>2024-05-26T10:05:59.000Z</time>
        <extensions>
          <gpxtpx:TrackPointExtension xmlns:gpxtpx="http://www.garmin.com/xmlschemas/TrackPointExtension/v1">
            <gpxtpx:hr>99</gpxtpx:hr>
          </gpxtpx:TrackPointExtension>
        </extensions>
      </trkpt>
      <trkpt lat="45.56189" lon="2.8555">
        <ele>1304.4000244141</ele>
        <time>2024-05-26T10:06:01.000Z</time>
        <extensions>
          <gpxtpx:TrackPointExtension xmlns:gpxtpx="http://www.garmin.com/xmlschemas/TrackPointExtension/v1">
            <gpxtpx:hr>99</gpxtpx:hr>
          </gpxtpx:TrackPointExtension>
        </extensions>
      </trkpt>
      <trkpt lat="45.56197" lon="2.85552">
        <ele>1304</ele>
        <time>2024-05-26T10:06:02.000Z</time>
        <extensions>
          <gpxtpx:TrackPointExtension xmlns:gpxtpx="http://www.garmin.com/xmlschemas/TrackPointExtension/v1">
            <gpxtpx:hr>100</gpxtpx:hr>
          </gpxtpx:TrackPointExtension>
        </extensions>
      </trkpt>
      <trkpt lat="45.56205" lon="2.85558">
        <ele>1303.8000488281</ele>
        <time>2024-05-26T10:06:03.000Z</time>
        <extensions>
          <gpxtpx:TrackPointExtension xmlns:gpxtpx="http://www.garmin.com/xmlschemas/TrackPointExtension/v1">
            <gpxtpx:hr>100</gpxtpx:hr>
          </gpxtpx:TrackPointExtension>
        </extensions>
      </trkpt>
      <trkpt lat="45.56212" lon="2.85566">
        <ele>1303.8000488281</ele>
        <time>2024-05-26T10:06:04.000Z</time>
        <extensions>
          <gpxtpx:TrackPointExtension xmlns:gpxtpx="http://www.garmin.com/xmlschemas/TrackPointExtension/v1">
            <gpxtpx:hr>100</gpxtpx:hr>
          </gpxtpx:TrackPointExtension>
        </extensions>
      </trkpt>
      <trkpt lat="45.56218" lon="2.85577">
        <ele>1303.8000488281</ele>
        <time>2024-05-26T10:06:05.000Z</time>
        <extensions>
          <gpxtpx:TrackPointExtension xmlns:gpxtpx="http://www.garmin.com/xmlschemas/TrackPointExtension/v1">
            <gpxtpx:hr>100</gpxtpx:hr>
          </gpxtpx:TrackPointExtension>
        </extensions>
      </trkpt>
      <trkpt lat="45.56226" lon="2.85601">
        <ele>1303.5999755859</ele>
        <time>2024-05-26T10:06:07.000Z</time>
        <extensions>
          <gpxtpx:TrackPointExtension xmlns:gpxtpx="http://www.garmin.com/xmlschemas/TrackPointExtension/v1">
            <gpxtpx:hr>100</gpxtpx:hr>
          </gpxtpx:TrackPointExtension>
        </extensions>
      </trkpt>
      <trkpt lat="45.5624" lon="2.8565">
        <ele>1302.1999511719</ele>
        <time>2024-05-26T10:06:11.000Z</time>
        <extensions>
          <gpxtpx:TrackPointExtension xmlns:gpxtpx="http://www.garmin.com/xmlschemas/TrackPointExtension/v1">
            <gpxtpx:hr>101</gpxtpx:hr>
          </gpxtpx:TrackPointExtension>
        </extensions>
      </trkpt>
      <trkpt lat="45.56247" lon="2.85675">
        <ele>1301</ele>
        <time>2024-05-26T10:06:13.000Z</time>
        <extensions>
          <gpxtpx:TrackPointExtension xmlns:gpxtpx="http://www.garmin.com/xmlschemas/TrackPointExtension/v1">
            <gpxtpx:hr>102</gpxtpx:hr>
          </gpxtpx:TrackPointExtension>
        </extensions>
      </trkpt>
      <trkpt lat="45.56254" lon="2.85701">
        <ele>1300</ele>
        <time>2024-05-26T10:06:15.000Z</time>
        <extensions>
          <gpxtpx:TrackPointExtension xmlns:gpxtpx="http://www.garmin.com/xmlschemas/TrackPointExtension/v1">
            <gpxtpx:hr>100</gpxtpx:hr>
          </gpxtpx:TrackPointExtension>
        </extensions>
      </trkpt>
      <trkpt lat="45.56258" lon="2.85714">
        <ele>1299.8000488281</ele>
        <time>2024-05-26T10:06:16.000Z</time>
        <extensions>
          <gpxtpx:TrackPointExtension xmlns:gpxtpx="http://www.garmin.com/xmlschemas/TrackPointExtension/v1">
            <gpxtpx:hr>102</gpxtpx:hr>
          </gpxtpx:TrackPointExtension>
        </extensions>
      </trkpt>
      <trkpt lat="45.5626" lon="2.85743">
        <ele>1299.4000244141</ele>
        <time>2024-05-26T10:06:18.000Z</time>
        <extensions>
          <gpxtpx:TrackPointExtension xmlns:gpxtpx="http://www.garmin.com/xmlschemas/TrackPointExtension/v1">
            <gpxtpx:hr>102</gpxtpx:hr>
          </gpxtpx:TrackPointExtension>
        </extensions>
      </trkpt>
      <trkpt lat="45.56258" lon="2.85757">
        <ele>1299.4000244141</ele>
        <time>2024-05-26T10:06:19.000Z</time>
        <extensions>
          <gpxtpx:TrackPointExtension xmlns:gpxtpx="http://www.garmin.com/xmlschemas/TrackPointExtension/v1">
            <gpxtpx:hr>103</gpxtpx:hr>
          </gpxtpx:TrackPointExtension>
        </extensions>
      </trkpt>
      <trkpt lat="45.56255" lon="2.8577">
        <ele>1299</ele>
        <time>2024-05-26T10:06:20.000Z</time>
        <extensions>
          <gpxtpx:TrackPointExtension xmlns:gpxtpx="http://www.garmin.com/xmlschemas/TrackPointExtension/v1">
            <gpxtpx:hr>103</gpxtpx:hr>
          </gpxtpx:TrackPointExtension>
        </extensions>
      </trkpt>
      <trkpt lat="45.56249" lon="2.85782">
        <ele>1298.8000488281</ele>
        <time>2024-05-26T10:06:21.000Z</time>
        <extensions>
          <gpxtpx:TrackPointExtension xmlns:gpxtpx="http://www.garmin.com/xmlschemas/TrackPointExtension/v1">
            <gpxtpx:hr>103</gpxtpx:hr>
          </gpxtpx:TrackPointExtension>
        </extensions>
      </trkpt>
      <trkpt lat="45.56243" lon="2.85794">
        <ele>1298.5999755859</ele>
        <time>2024-05-26T10:06:22.000Z</time>
        <extensions>
          <gpxtpx:TrackPointExtension xmlns:gpxtpx="http://www.garmin.com/xmlschemas/TrackPointExtension/v1">
            <gpxtpx:hr>103</gpxtpx:hr>
          </gpxtpx:TrackPointExtension>
        </extensions>
      </trkpt>
      <trkpt lat="45.56229" lon="2.85815">
        <ele>1297</ele>
        <time>2024-05-26T10:06:24.000Z</time>
        <extensions>
          <gpxtpx:TrackPointExtension xmlns:gpxtpx="http://www.garmin.com/xmlschemas/TrackPointExtension/v1">
            <gpxtpx:hr>103</gpxtpx:hr>
          </gpxtpx:TrackPointExtension>
        </extensions>
      </trkpt>
      <trkpt lat="45.56218" lon="2.85839">
        <ele>1296</ele>
        <time>2024-05-26T10:06:26.000Z</time>
        <extensions>
          <gpxtpx:TrackPointExtension xmlns:gpxtpx="http://www.garmin.com/xmlschemas/TrackPointExtension/v1">
            <gpxtpx:hr>103</gpxtpx:hr>
          </gpxtpx:TrackPointExtension>
        </extensions>
      </trkpt>
      <trkpt lat="45.56213" lon="2.85851">
        <ele>1295.5999755859</ele>
        <time>2024-05-26T10:06:27.000Z</time>
        <extensions>
          <gpxtpx:TrackPointExtension xmlns:gpxtpx="http://www.garmin.com/xmlschemas/TrackPointExtension/v1">
            <gpxtpx:hr>103</gpxtpx:hr>
          </gpxtpx:TrackPointExtension>
        </extensions>
      </trkpt>
      <trkpt lat="45.56198" lon="2.8589">
        <ele>1294.1999511719</ele>
        <time>2024-05-26T10:06:30.000Z</time>
        <extensions>
          <gpxtpx:TrackPointExtension xmlns:gpxtpx="http://www.garmin.com/xmlschemas/TrackPointExtension/v1">
            <gpxtpx:hr>103</gpxtpx:hr>
          </gpxtpx:TrackPointExtension>
        </extensions>
      </trkpt>
      <trkpt lat="45.56194" lon="2.85903">
        <ele>1292.8000488281</ele>
        <time>2024-05-26T10:06:31.000Z</time>
        <extensions>
          <gpxtpx:TrackPointExtension xmlns:gpxtpx="http://www.garmin.com/xmlschemas/TrackPointExtension/v1">
            <gpxtpx:hr>103</gpxtpx:hr>
          </gpxtpx:TrackPointExtension>
        </extensions>
      </trkpt>
      <trkpt lat="45.56189" lon="2.85916">
        <ele>1291.4000244141</ele>
        <time>2024-05-26T10:06:32.000Z</time>
        <extensions>
          <gpxtpx:TrackPointExtension xmlns:gpxtpx="http://www.garmin.com/xmlschemas/TrackPointExtension/v1">
            <gpxtpx:hr>102</gpxtpx:hr>
          </gpxtpx:TrackPointExtension>
        </extensions>
      </trkpt>
      <trkpt lat="45.56185" lon="2.85928">
        <ele>1287.1999511719</ele>
        <time>2024-05-26T10:06:33.000Z</time>
        <extensions>
          <gpxtpx:TrackPointExtension xmlns:gpxtpx="http://www.garmin.com/xmlschemas/TrackPointExtension/v1">
            <gpxtpx:hr>102</gpxtpx:hr>
          </gpxtpx:TrackPointExtension>
        </extensions>
      </trkpt>
      <trkpt lat="45.56181" lon="2.85941">
        <ele>1284.1999511719</ele>
        <time>2024-05-26T10:06:34.000Z</time>
        <extensions>
          <gpxtpx:TrackPointExtension xmlns:gpxtpx="http://www.garmin.com/xmlschemas/TrackPointExtension/v1">
            <gpxtpx:hr>102</gpxtpx:hr>
          </gpxtpx:TrackPointExtension>
        </extensions>
      </trkpt>
      <trkpt lat="45.56181" lon="2.85968">
        <ele>1282.5999755859</ele>
        <time>2024-05-26T10:06:36.000Z</time>
        <extensions>
          <gpxtpx:TrackPointExtension xmlns:gpxtpx="http://www.garmin.com/xmlschemas/TrackPointExtension/v1">
            <gpxtpx:hr>102</gpxtpx:hr>
          </gpxtpx:TrackPointExtension>
        </extensions>
      </trkpt>
      <trkpt lat="45.56188" lon="2.85991">
        <ele>1282</ele>
        <time>2024-05-26T10:06:38.000Z</time>
        <extensions>
          <gpxtpx:TrackPointExtension xmlns:gpxtpx="http://www.garmin.com/xmlschemas/TrackPointExtension/v1">
            <gpxtpx:hr>102</gpxtpx:hr>
          </gpxtpx:TrackPointExtension>
        </extensions>
      </trkpt>
      <trkpt lat="45.56192" lon="2.86002">
        <ele>1281.4000244141</ele>
        <time>2024-05-26T10:06:39.000Z</time>
        <extensions>
          <gpxtpx:TrackPointExtension xmlns:gpxtpx="http://www.garmin.com/xmlschemas/TrackPointExtension/v1">
            <gpxtpx:hr>103</gpxtpx:hr>
          </gpxtpx:TrackPointExtension>
        </extensions>
      </trkpt>
      <trkpt lat="45.56207" lon="2.86035">
        <ele>1281</ele>
        <time>2024-05-26T10:06:42.000Z</time>
        <extensions>
          <gpxtpx:TrackPointExtension xmlns:gpxtpx="http://www.garmin.com/xmlschemas/TrackPointExtension/v1">
            <gpxtpx:hr>102</gpxtpx:hr>
          </gpxtpx:TrackPointExtension>
        </extensions>
      </trkpt>
      <trkpt lat="45.56212" lon="2.86059">
        <ele>1281</ele>
        <time>2024-05-26T10:06:44.000Z</time>
        <extensions>
          <gpxtpx:TrackPointExtension xmlns:gpxtpx="http://www.garmin.com/xmlschemas/TrackPointExtension/v1">
            <gpxtpx:hr>103</gpxtpx:hr>
          </gpxtpx:TrackPointExtension>
        </extensions>
      </trkpt>
      <trkpt lat="45.56208" lon="2.86083">
        <ele>1280.4000244141</ele>
        <time>2024-05-26T10:06:46.000Z</time>
        <extensions>
          <gpxtpx:TrackPointExtension xmlns:gpxtpx="http://www.garmin.com/xmlschemas/TrackPointExtension/v1">
            <gpxtpx:hr>102</gpxtpx:hr>
          </gpxtpx:TrackPointExtension>
        </extensions>
      </trkpt>
      <trkpt lat="45.56202" lon="2.86092">
        <ele>1279.8000488281</ele>
        <time>2024-05-26T10:06:47.000Z</time>
        <extensions>
          <gpxtpx:TrackPointExtension xmlns:gpxtpx="http://www.garmin.com/xmlschemas/TrackPointExtension/v1">
            <gpxtpx:hr>103</gpxtpx:hr>
          </gpxtpx:TrackPointExtension>
        </extensions>
      </trkpt>
      <trkpt lat="45.56195" lon="2.86099">
        <ele>1279.4000244141</ele>
        <time>2024-05-26T10:06:48.000Z</time>
        <extensions>
          <gpxtpx:TrackPointExtension xmlns:gpxtpx="http://www.garmin.com/xmlschemas/TrackPointExtension/v1">
            <gpxtpx:hr>102</gpxtpx:hr>
          </gpxtpx:TrackPointExtension>
        </extensions>
      </trkpt>
      <trkpt lat="45.56187" lon="2.86102">
        <ele>1278.4000244141</ele>
        <time>2024-05-26T10:06:49.000Z</time>
        <extensions>
          <gpxtpx:TrackPointExtension xmlns:gpxtpx="http://www.garmin.com/xmlschemas/TrackPointExtension/v1">
            <gpxtpx:hr>102</gpxtpx:hr>
          </gpxtpx:TrackPointExtension>
        </extensions>
      </trkpt>
      <trkpt lat="45.56178" lon="2.86102">
        <ele>1277.1999511719</ele>
        <time>2024-05-26T10:06:50.000Z</time>
        <extensions>
          <gpxtpx:TrackPointExtension xmlns:gpxtpx="http://www.garmin.com/xmlschemas/TrackPointExtension/v1">
            <gpxtpx:hr>103</gpxtpx:hr>
          </gpxtpx:TrackPointExtension>
        </extensions>
      </trkpt>
      <trkpt lat="45.56169" lon="2.86101">
        <ele>1274.4000244141</ele>
        <time>2024-05-26T10:06:51.000Z</time>
        <extensions>
          <gpxtpx:TrackPointExtension xmlns:gpxtpx="http://www.garmin.com/xmlschemas/TrackPointExtension/v1">
            <gpxtpx:hr>102</gpxtpx:hr>
          </gpxtpx:TrackPointExtension>
        </extensions>
      </trkpt>
      <trkpt lat="45.5616" lon="2.86098">
        <ele>1273.4000244141</ele>
        <time>2024-05-26T10:06:52.000Z</time>
        <extensions>
          <gpxtpx:TrackPointExtension xmlns:gpxtpx="http://www.garmin.com/xmlschemas/TrackPointExtension/v1">
            <gpxtpx:hr>101</gpxtpx:hr>
          </gpxtpx:TrackPointExtension>
        </extensions>
      </trkpt>
      <trkpt lat="45.56144" lon="2.8609">
        <ele>1273</ele>
        <time>2024-05-26T10:06:54.000Z</time>
        <extensions>
          <gpxtpx:TrackPointExtension xmlns:gpxtpx="http://www.garmin.com/xmlschemas/TrackPointExtension/v1">
            <gpxtpx:hr>98</gpxtpx:hr>
          </gpxtpx:TrackPointExtension>
        </extensions>
      </trkpt>
      <trkpt lat="45.56126" lon="2.86083">
        <ele>1272.8000488281</ele>
        <time>2024-05-26T10:06:56.000Z</time>
        <extensions>
          <gpxtpx:TrackPointExtension xmlns:gpxtpx="http://www.garmin.com/xmlschemas/TrackPointExtension/v1">
            <gpxtpx:hr>98</gpxtpx:hr>
          </gpxtpx:TrackPointExtension>
        </extensions>
      </trkpt>
      <trkpt lat="45.56109" lon="2.86082">
        <ele>1271.5999755859</ele>
        <time>2024-05-26T10:06:58.000Z</time>
        <extensions>
          <gpxtpx:TrackPointExtension xmlns:gpxtpx="http://www.garmin.com/xmlschemas/TrackPointExtension/v1">
            <gpxtpx:hr>98</gpxtpx:hr>
          </gpxtpx:TrackPointExtension>
        </extensions>
      </trkpt>
      <trkpt lat="45.561" lon="2.86085">
        <ele>1271.1999511719</ele>
        <time>2024-05-26T10:06:59.000Z</time>
        <extensions>
          <gpxtpx:TrackPointExtension xmlns:gpxtpx="http://www.garmin.com/xmlschemas/TrackPointExtension/v1">
            <gpxtpx:hr>98</gpxtpx:hr>
          </gpxtpx:TrackPointExtension>
        </extensions>
      </trkpt>
      <trkpt lat="45.56093" lon="2.86092">
        <ele>1270.1999511719</ele>
        <time>2024-05-26T10:07:00.000Z</time>
        <extensions>
          <gpxtpx:TrackPointExtension xmlns:gpxtpx="http://www.garmin.com/xmlschemas/TrackPointExtension/v1">
            <gpxtpx:hr>97</gpxtpx:hr>
          </gpxtpx:TrackPointExtension>
        </extensions>
      </trkpt>
      <trkpt lat="45.56087" lon="2.86101">
        <ele>1269.1999511719</ele>
        <time>2024-05-26T10:07:01.000Z</time>
        <extensions>
          <gpxtpx:TrackPointExtension xmlns:gpxtpx="http://www.garmin.com/xmlschemas/TrackPointExtension/v1">
            <gpxtpx:hr>99</gpxtpx:hr>
          </gpxtpx:TrackPointExtension>
        </extensions>
      </trkpt>
      <trkpt lat="45.56083" lon="2.86112">
        <ele>1267</ele>
        <time>2024-05-26T10:07:02.000Z</time>
        <extensions>
          <gpxtpx:TrackPointExtension xmlns:gpxtpx="http://www.garmin.com/xmlschemas/TrackPointExtension/v1">
            <gpxtpx:hr>98</gpxtpx:hr>
          </gpxtpx:TrackPointExtension>
        </extensions>
      </trkpt>
      <trkpt lat="45.56081" lon="2.86124">
        <ele>1264.8000488281</ele>
        <time>2024-05-26T10:07:03.000Z</time>
        <extensions>
          <gpxtpx:TrackPointExtension xmlns:gpxtpx="http://www.garmin.com/xmlschemas/TrackPointExtension/v1">
            <gpxtpx:hr>98</gpxtpx:hr>
          </gpxtpx:TrackPointExtension>
        </extensions>
      </trkpt>
      <trkpt lat="45.56083" lon="2.86136">
        <ele>1263.8000488281</ele>
        <time>2024-05-26T10:07:04.000Z</time>
        <extensions>
          <gpxtpx:TrackPointExtension xmlns:gpxtpx="http://www.garmin.com/xmlschemas/TrackPointExtension/v1">
            <gpxtpx:hr>97</gpxtpx:hr>
          </gpxtpx:TrackPointExtension>
        </extensions>
      </trkpt>
      <trkpt lat="45.56087" lon="2.86147">
        <ele>1262.8000488281</ele>
        <time>2024-05-26T10:07:05.000Z</time>
        <extensions>
          <gpxtpx:TrackPointExtension xmlns:gpxtpx="http://www.garmin.com/xmlschemas/TrackPointExtension/v1">
            <gpxtpx:hr>98</gpxtpx:hr>
          </gpxtpx:TrackPointExtension>
        </extensions>
      </trkpt>
      <trkpt lat="45.56092" lon="2.86157">
        <ele>1261.8000488281</ele>
        <time>2024-05-26T10:07:06.000Z</time>
        <extensions>
          <gpxtpx:TrackPointExtension xmlns:gpxtpx="http://www.garmin.com/xmlschemas/TrackPointExtension/v1">
            <gpxtpx:hr>100</gpxtpx:hr>
          </gpxtpx:TrackPointExtension>
        </extensions>
      </trkpt>
      <trkpt lat="45.56099" lon="2.86165">
        <ele>1261</ele>
        <time>2024-05-26T10:07:07.000Z</time>
        <extensions>
          <gpxtpx:TrackPointExtension xmlns:gpxtpx="http://www.garmin.com/xmlschemas/TrackPointExtension/v1">
            <gpxtpx:hr>99</gpxtpx:hr>
          </gpxtpx:TrackPointExtension>
        </extensions>
      </trkpt>
      <trkpt lat="45.56106" lon="2.86173">
        <ele>1260.8000488281</ele>
        <time>2024-05-26T10:07:08.000Z</time>
        <extensions>
          <gpxtpx:TrackPointExtension xmlns:gpxtpx="http://www.garmin.com/xmlschemas/TrackPointExtension/v1">
            <gpxtpx:hr>98</gpxtpx:hr>
          </gpxtpx:TrackPointExtension>
        </extensions>
      </trkpt>
      <trkpt lat="45.56112" lon="2.86182">
        <ele>1260.5999755859</ele>
        <time>2024-05-26T10:07:09.000Z</time>
        <extensions>
          <gpxtpx:TrackPointExtension xmlns:gpxtpx="http://www.garmin.com/xmlschemas/TrackPointExtension/v1">
            <gpxtpx:hr>98</gpxtpx:hr>
          </gpxtpx:TrackPointExtension>
        </extensions>
      </trkpt>
      <trkpt lat="45.56116" lon="2.86193">
        <ele>1260.4000244141</ele>
        <time>2024-05-26T10:07:10.000Z</time>
        <extensions>
          <gpxtpx:TrackPointExtension xmlns:gpxtpx="http://www.garmin.com/xmlschemas/TrackPointExtension/v1">
            <gpxtpx:hr>100</gpxtpx:hr>
          </gpxtpx:TrackPointExtension>
        </extensions>
      </trkpt>
      <trkpt lat="45.56117" lon="2.86217">
        <ele>1260</ele>
        <time>2024-05-26T10:07:12.000Z</time>
        <extensions>
          <gpxtpx:TrackPointExtension xmlns:gpxtpx="http://www.garmin.com/xmlschemas/TrackPointExtension/v1">
            <gpxtpx:hr>98</gpxtpx:hr>
          </gpxtpx:TrackPointExtension>
        </extensions>
      </trkpt>
      <trkpt lat="45.56106" lon="2.86236">
        <ele>1259.5999755859</ele>
        <time>2024-05-26T10:07:14.000Z</time>
        <extensions>
          <gpxtpx:TrackPointExtension xmlns:gpxtpx="http://www.garmin.com/xmlschemas/TrackPointExtension/v1">
            <gpxtpx:hr>96</gpxtpx:hr>
          </gpxtpx:TrackPointExtension>
        </extensions>
      </trkpt>
      <trkpt lat="45.56098" lon="2.8624">
        <ele>1258.5999755859</ele>
        <time>2024-05-26T10:07:15.000Z</time>
        <extensions>
          <gpxtpx:TrackPointExtension xmlns:gpxtpx="http://www.garmin.com/xmlschemas/TrackPointExtension/v1">
            <gpxtpx:hr>97</gpxtpx:hr>
          </gpxtpx:TrackPointExtension>
        </extensions>
      </trkpt>
      <trkpt lat="45.56089" lon="2.86242">
        <ele>1257</ele>
        <time>2024-05-26T10:07:16.000Z</time>
        <extensions>
          <gpxtpx:TrackPointExtension xmlns:gpxtpx="http://www.garmin.com/xmlschemas/TrackPointExtension/v1">
            <gpxtpx:hr>97</gpxtpx:hr>
          </gpxtpx:TrackPointExtension>
        </extensions>
      </trkpt>
      <trkpt lat="45.56081" lon="2.86244">
        <ele>1256</ele>
        <time>2024-05-26T10:07:17.000Z</time>
        <extensions>
          <gpxtpx:TrackPointExtension xmlns:gpxtpx="http://www.garmin.com/xmlschemas/TrackPointExtension/v1">
            <gpxtpx:hr>95</gpxtpx:hr>
          </gpxtpx:TrackPointExtension>
        </extensions>
      </trkpt>
      <trkpt lat="45.56074" lon="2.86246">
        <ele>1255.4000244141</ele>
        <time>2024-05-26T10:07:18.000Z</time>
        <extensions>
          <gpxtpx:TrackPointExtension xmlns:gpxtpx="http://www.garmin.com/xmlschemas/TrackPointExtension/v1">
            <gpxtpx:hr>96</gpxtpx:hr>
          </gpxtpx:TrackPointExtension>
        </extensions>
      </trkpt>
      <trkpt lat="45.56067" lon="2.8625">
        <ele>1255</ele>
        <time>2024-05-26T10:07:19.000Z</time>
        <extensions>
          <gpxtpx:TrackPointExtension xmlns:gpxtpx="http://www.garmin.com/xmlschemas/TrackPointExtension/v1">
            <gpxtpx:hr>96</gpxtpx:hr>
          </gpxtpx:TrackPointExtension>
        </extensions>
      </trkpt>
      <trkpt lat="45.56061" lon="2.86257">
        <ele>1254.1999511719</ele>
        <time>2024-05-26T10:07:20.000Z</time>
        <extensions>
          <gpxtpx:TrackPointExtension xmlns:gpxtpx="http://www.garmin.com/xmlschemas/TrackPointExtension/v1">
            <gpxtpx:hr>96</gpxtpx:hr>
          </gpxtpx:TrackPointExtension>
        </extensions>
      </trkpt>
      <trkpt lat="45.56055" lon="2.86277">
        <ele>1252.5999755859</ele>
        <time>2024-05-26T10:07:22.000Z</time>
        <extensions>
          <gpxtpx:TrackPointExtension xmlns:gpxtpx="http://www.garmin.com/xmlschemas/TrackPointExtension/v1">
            <gpxtpx:hr>95</gpxtpx:hr>
          </gpxtpx:TrackPointExtension>
        </extensions>
      </trkpt>
      <trkpt lat="45.56056" lon="2.8629">
        <ele>1251.5999755859</ele>
        <time>2024-05-26T10:07:23.000Z</time>
        <extensions>
          <gpxtpx:TrackPointExtension xmlns:gpxtpx="http://www.garmin.com/xmlschemas/TrackPointExtension/v1">
            <gpxtpx:hr>94</gpxtpx:hr>
          </gpxtpx:TrackPointExtension>
        </extensions>
      </trkpt>
      <trkpt lat="45.56058" lon="2.86303">
        <ele>1250.5999755859</ele>
        <time>2024-05-26T10:07:24.000Z</time>
        <extensions>
          <gpxtpx:TrackPointExtension xmlns:gpxtpx="http://www.garmin.com/xmlschemas/TrackPointExtension/v1">
            <gpxtpx:hr>95</gpxtpx:hr>
          </gpxtpx:TrackPointExtension>
        </extensions>
      </trkpt>
      <trkpt lat="45.56061" lon="2.86316">
        <ele>1249.5999755859</ele>
        <time>2024-05-26T10:07:25.000Z</time>
        <extensions>
          <gpxtpx:TrackPointExtension xmlns:gpxtpx="http://www.garmin.com/xmlschemas/TrackPointExtension/v1">
            <gpxtpx:hr>95</gpxtpx:hr>
          </gpxtpx:TrackPointExtension>
        </extensions>
      </trkpt>
      <trkpt lat="45.56067" lon="2.86344">
        <ele>1248.8000488281</ele>
        <time>2024-05-26T10:07:27.000Z</time>
        <extensions>
          <gpxtpx:TrackPointExtension xmlns:gpxtpx="http://www.garmin.com/xmlschemas/TrackPointExtension/v1">
            <gpxtpx:hr>96</gpxtpx:hr>
          </gpxtpx:TrackPointExtension>
        </extensions>
      </trkpt>
      <trkpt lat="45.56071" lon="2.86358">
        <ele>1247.8000488281</ele>
        <time>2024-05-26T10:07:28.000Z</time>
        <extensions>
          <gpxtpx:TrackPointExtension xmlns:gpxtpx="http://www.garmin.com/xmlschemas/TrackPointExtension/v1">
            <gpxtpx:hr>95</gpxtpx:hr>
          </gpxtpx:TrackPointExtension>
        </extensions>
      </trkpt>
      <trkpt lat="45.56074" lon="2.86373">
        <ele>1247.1999511719</ele>
        <time>2024-05-26T10:07:29.000Z</time>
        <extensions>
          <gpxtpx:TrackPointExtension xmlns:gpxtpx="http://www.garmin.com/xmlschemas/TrackPointExtension/v1">
            <gpxtpx:hr>96</gpxtpx:hr>
          </gpxtpx:TrackPointExtension>
        </extensions>
      </trkpt>
      <trkpt lat="45.56086" lon="2.86399">
        <ele>1247</ele>
        <time>2024-05-26T10:07:31.000Z</time>
        <extensions>
          <gpxtpx:TrackPointExtension xmlns:gpxtpx="http://www.garmin.com/xmlschemas/TrackPointExtension/v1">
            <gpxtpx:hr>98</gpxtpx:hr>
          </gpxtpx:TrackPointExtension>
        </extensions>
      </trkpt>
      <trkpt lat="45.56093" lon="2.86412">
        <ele>1245</ele>
        <time>2024-05-26T10:07:32.000Z</time>
        <extensions>
          <gpxtpx:TrackPointExtension xmlns:gpxtpx="http://www.garmin.com/xmlschemas/TrackPointExtension/v1">
            <gpxtpx:hr>100</gpxtpx:hr>
          </gpxtpx:TrackPointExtension>
        </extensions>
      </trkpt>
      <trkpt lat="45.56101" lon="2.86424">
        <ele>1243.8000488281</ele>
        <time>2024-05-26T10:07:33.000Z</time>
        <extensions>
          <gpxtpx:TrackPointExtension xmlns:gpxtpx="http://www.garmin.com/xmlschemas/TrackPointExtension/v1">
            <gpxtpx:hr>102</gpxtpx:hr>
          </gpxtpx:TrackPointExtension>
        </extensions>
      </trkpt>
      <trkpt lat="45.56109" lon="2.86435">
        <ele>1240.4000244141</ele>
        <time>2024-05-26T10:07:34.000Z</time>
        <extensions>
          <gpxtpx:TrackPointExtension xmlns:gpxtpx="http://www.garmin.com/xmlschemas/TrackPointExtension/v1">
            <gpxtpx:hr>103</gpxtpx:hr>
          </gpxtpx:TrackPointExtension>
        </extensions>
      </trkpt>
      <trkpt lat="45.56116" lon="2.86447">
        <ele>1239</ele>
        <time>2024-05-26T10:07:35.000Z</time>
        <extensions>
          <gpxtpx:TrackPointExtension xmlns:gpxtpx="http://www.garmin.com/xmlschemas/TrackPointExtension/v1">
            <gpxtpx:hr>103</gpxtpx:hr>
          </gpxtpx:TrackPointExtension>
        </extensions>
      </trkpt>
      <trkpt lat="45.56122" lon="2.86459">
        <ele>1238.5999755859</ele>
        <time>2024-05-26T10:07:36.000Z</time>
        <extensions>
          <gpxtpx:TrackPointExtension xmlns:gpxtpx="http://www.garmin.com/xmlschemas/TrackPointExtension/v1">
            <gpxtpx:hr>103</gpxtpx:hr>
          </gpxtpx:TrackPointExtension>
        </extensions>
      </trkpt>
      <trkpt lat="45.56128" lon="2.86486">
        <ele>1237.4000244141</ele>
        <time>2024-05-26T10:07:38.000Z</time>
        <extensions>
          <gpxtpx:TrackPointExtension xmlns:gpxtpx="http://www.garmin.com/xmlschemas/TrackPointExtension/v1">
            <gpxtpx:hr>103</gpxtpx:hr>
          </gpxtpx:TrackPointExtension>
        </extensions>
      </trkpt>
      <trkpt lat="45.56127" lon="2.86529">
        <ele>1236</ele>
        <time>2024-05-26T10:07:41.000Z</time>
        <extensions>
          <gpxtpx:TrackPointExtension xmlns:gpxtpx="http://www.garmin.com/xmlschemas/TrackPointExtension/v1">
            <gpxtpx:hr>101</gpxtpx:hr>
          </gpxtpx:TrackPointExtension>
        </extensions>
      </trkpt>
      <trkpt lat="45.56126" lon="2.86543">
        <ele>1234.4000244141</ele>
        <time>2024-05-26T10:07:42.000Z</time>
        <extensions>
          <gpxtpx:TrackPointExtension xmlns:gpxtpx="http://www.garmin.com/xmlschemas/TrackPointExtension/v1">
            <gpxtpx:hr>100</gpxtpx:hr>
          </gpxtpx:TrackPointExtension>
        </extensions>
      </trkpt>
      <trkpt lat="45.56126" lon="2.86556">
        <ele>1234</ele>
        <time>2024-05-26T10:07:43.000Z</time>
        <extensions>
          <gpxtpx:TrackPointExtension xmlns:gpxtpx="http://www.garmin.com/xmlschemas/TrackPointExtension/v1">
            <gpxtpx:hr>100</gpxtpx:hr>
          </gpxtpx:TrackPointExtension>
        </extensions>
      </trkpt>
      <trkpt lat="45.56128" lon="2.86568">
        <ele>1233.1999511719</ele>
        <time>2024-05-26T10:07:44.000Z</time>
        <extensions>
          <gpxtpx:TrackPointExtension xmlns:gpxtpx="http://www.garmin.com/xmlschemas/TrackPointExtension/v1">
            <gpxtpx:hr>100</gpxtpx:hr>
          </gpxtpx:TrackPointExtension>
        </extensions>
      </trkpt>
      <trkpt lat="45.56132" lon="2.86578">
        <ele>1232.8000488281</ele>
        <time>2024-05-26T10:07:45.000Z</time>
        <extensions>
          <gpxtpx:TrackPointExtension xmlns:gpxtpx="http://www.garmin.com/xmlschemas/TrackPointExtension/v1">
            <gpxtpx:hr>100</gpxtpx:hr>
          </gpxtpx:TrackPointExtension>
        </extensions>
      </trkpt>
      <trkpt lat="45.56138" lon="2.86585">
        <ele>1232</ele>
        <time>2024-05-26T10:07:46.000Z</time>
        <extensions>
          <gpxtpx:TrackPointExtension xmlns:gpxtpx="http://www.garmin.com/xmlschemas/TrackPointExtension/v1">
            <gpxtpx:hr>100</gpxtpx:hr>
          </gpxtpx:TrackPointExtension>
        </extensions>
      </trkpt>
      <trkpt lat="45.56145" lon="2.86589">
        <ele>1229.5999755859</ele>
        <time>2024-05-26T10:07:47.000Z</time>
        <extensions>
          <gpxtpx:TrackPointExtension xmlns:gpxtpx="http://www.garmin.com/xmlschemas/TrackPointExtension/v1">
            <gpxtpx:hr>102</gpxtpx:hr>
          </gpxtpx:TrackPointExtension>
        </extensions>
      </trkpt>
      <trkpt lat="45.56152" lon="2.8659">
        <ele>1228.5999755859</ele>
        <time>2024-05-26T10:07:48.000Z</time>
        <extensions>
          <gpxtpx:TrackPointExtension xmlns:gpxtpx="http://www.garmin.com/xmlschemas/TrackPointExtension/v1">
            <gpxtpx:hr>100</gpxtpx:hr>
          </gpxtpx:TrackPointExtension>
        </extensions>
      </trkpt>
      <trkpt lat="45.56158" lon="2.86584">
        <ele>1228.5999755859</ele>
        <time>2024-05-26T10:07:49.000Z</time>
        <extensions>
          <gpxtpx:TrackPointExtension xmlns:gpxtpx="http://www.garmin.com/xmlschemas/TrackPointExtension/v1">
            <gpxtpx:hr>100</gpxtpx:hr>
          </gpxtpx:TrackPointExtension>
        </extensions>
      </trkpt>
      <trkpt lat="45.56162" lon="2.86575">
        <ele>1227.8000488281</ele>
        <time>2024-05-26T10:07:50.000Z</time>
        <extensions>
          <gpxtpx:TrackPointExtension xmlns:gpxtpx="http://www.garmin.com/xmlschemas/TrackPointExtension/v1">
            <gpxtpx:hr>100</gpxtpx:hr>
          </gpxtpx:TrackPointExtension>
        </extensions>
      </trkpt>
      <trkpt lat="45.56166" lon="2.86566">
        <ele>1227.4000244141</ele>
        <time>2024-05-26T10:07:51.000Z</time>
        <extensions>
          <gpxtpx:TrackPointExtension xmlns:gpxtpx="http://www.garmin.com/xmlschemas/TrackPointExtension/v1">
            <gpxtpx:hr>100</gpxtpx:hr>
          </gpxtpx:TrackPointExtension>
        </extensions>
      </trkpt>
      <trkpt lat="45.56169" lon="2.86556">
        <ele>1225.5999755859</ele>
        <time>2024-05-26T10:07:52.000Z</time>
        <extensions>
          <gpxtpx:TrackPointExtension xmlns:gpxtpx="http://www.garmin.com/xmlschemas/TrackPointExtension/v1">
            <gpxtpx:hr>101</gpxtpx:hr>
          </gpxtpx:TrackPointExtension>
        </extensions>
      </trkpt>
      <trkpt lat="45.56177" lon="2.86538">
        <ele>1224.5999755859</ele>
        <time>2024-05-26T10:07:54.000Z</time>
        <extensions>
          <gpxtpx:TrackPointExtension xmlns:gpxtpx="http://www.garmin.com/xmlschemas/TrackPointExtension/v1">
            <gpxtpx:hr>100</gpxtpx:hr>
          </gpxtpx:TrackPointExtension>
        </extensions>
      </trkpt>
      <trkpt lat="45.5618" lon="2.86531">
        <ele>1224.1999511719</ele>
        <time>2024-05-26T10:07:55.000Z</time>
        <extensions>
          <gpxtpx:TrackPointExtension xmlns:gpxtpx="http://www.garmin.com/xmlschemas/TrackPointExtension/v1">
            <gpxtpx:hr>100</gpxtpx:hr>
          </gpxtpx:TrackPointExtension>
        </extensions>
      </trkpt>
      <trkpt lat="45.56186" lon="2.86521">
        <ele>1224</ele>
        <time>2024-05-26T10:07:56.000Z</time>
        <extensions>
          <gpxtpx:TrackPointExtension xmlns:gpxtpx="http://www.garmin.com/xmlschemas/TrackPointExtension/v1">
            <gpxtpx:hr>99</gpxtpx:hr>
          </gpxtpx:TrackPointExtension>
        </extensions>
      </trkpt>
      <trkpt lat="45.56198" lon="2.86507">
        <ele>1221</ele>
        <time>2024-05-26T10:07:58.000Z</time>
        <extensions>
          <gpxtpx:TrackPointExtension xmlns:gpxtpx="http://www.garmin.com/xmlschemas/TrackPointExtension/v1">
            <gpxtpx:hr>100</gpxtpx:hr>
          </gpxtpx:TrackPointExtension>
        </extensions>
      </trkpt>
      <trkpt lat="45.56217" lon="2.86493">
        <ele>1220.5999755859</ele>
        <time>2024-05-26T10:08:00.000Z</time>
        <extensions>
          <gpxtpx:TrackPointExtension xmlns:gpxtpx="http://www.garmin.com/xmlschemas/TrackPointExtension/v1">
            <gpxtpx:hr>99</gpxtpx:hr>
          </gpxtpx:TrackPointExtension>
        </extensions>
      </trkpt>
      <trkpt lat="45.56243" lon="2.86476">
        <ele>1220</ele>
        <time>2024-05-26T10:08:03.000Z</time>
        <extensions>
          <gpxtpx:TrackPointExtension xmlns:gpxtpx="http://www.garmin.com/xmlschemas/TrackPointExtension/v1">
            <gpxtpx:hr>97</gpxtpx:hr>
          </gpxtpx:TrackPointExtension>
        </extensions>
      </trkpt>
      <trkpt lat="45.56255" lon="2.86469">
        <ele>1218.8000488281</ele>
        <time>2024-05-26T10:08:04.000Z</time>
        <extensions>
          <gpxtpx:TrackPointExtension xmlns:gpxtpx="http://www.garmin.com/xmlschemas/TrackPointExtension/v1">
            <gpxtpx:hr>96</gpxtpx:hr>
          </gpxtpx:TrackPointExtension>
        </extensions>
      </trkpt>
      <trkpt lat="45.56265" lon="2.86463">
        <ele>1217.5999755859</ele>
        <time>2024-05-26T10:08:05.000Z</time>
        <extensions>
          <gpxtpx:TrackPointExtension xmlns:gpxtpx="http://www.garmin.com/xmlschemas/TrackPointExtension/v1">
            <gpxtpx:hr>95</gpxtpx:hr>
          </gpxtpx:TrackPointExtension>
        </extensions>
      </trkpt>
      <trkpt lat="45.56285" lon="2.86452">
        <ele>1216.5999755859</ele>
        <time>2024-05-26T10:08:07.000Z</time>
        <extensions>
          <gpxtpx:TrackPointExtension xmlns:gpxtpx="http://www.garmin.com/xmlschemas/TrackPointExtension/v1">
            <gpxtpx:hr>97</gpxtpx:hr>
          </gpxtpx:TrackPointExtension>
        </extensions>
      </trkpt>
      <trkpt lat="45.56307" lon="2.86444">
        <ele>1214</ele>
        <time>2024-05-26T10:08:09.000Z</time>
        <extensions>
          <gpxtpx:TrackPointExtension xmlns:gpxtpx="http://www.garmin.com/xmlschemas/TrackPointExtension/v1">
            <gpxtpx:hr>97</gpxtpx:hr>
          </gpxtpx:TrackPointExtension>
        </extensions>
      </trkpt>
      <trkpt lat="45.56318" lon="2.86443">
        <ele>1212.8000488281</ele>
        <time>2024-05-26T10:08:10.000Z</time>
        <extensions>
          <gpxtpx:TrackPointExtension xmlns:gpxtpx="http://www.garmin.com/xmlschemas/TrackPointExtension/v1">
            <gpxtpx:hr>95</gpxtpx:hr>
          </gpxtpx:TrackPointExtension>
        </extensions>
      </trkpt>
      <trkpt lat="45.56337" lon="2.86449">
        <ele>1211</ele>
        <time>2024-05-26T10:08:12.000Z</time>
        <extensions>
          <gpxtpx:TrackPointExtension xmlns:gpxtpx="http://www.garmin.com/xmlschemas/TrackPointExtension/v1">
            <gpxtpx:hr>96</gpxtpx:hr>
          </gpxtpx:TrackPointExtension>
        </extensions>
      </trkpt>
      <trkpt lat="45.56352" lon="2.86468">
        <ele>1210.1999511719</ele>
        <time>2024-05-26T10:08:14.000Z</time>
        <extensions>
          <gpxtpx:TrackPointExtension xmlns:gpxtpx="http://www.garmin.com/xmlschemas/TrackPointExtension/v1">
            <gpxtpx:hr>95</gpxtpx:hr>
          </gpxtpx:TrackPointExtension>
        </extensions>
      </trkpt>
      <trkpt lat="45.56357" lon="2.86482">
        <ele>1210</ele>
        <time>2024-05-26T10:08:15.000Z</time>
        <extensions>
          <gpxtpx:TrackPointExtension xmlns:gpxtpx="http://www.garmin.com/xmlschemas/TrackPointExtension/v1">
            <gpxtpx:hr>95</gpxtpx:hr>
          </gpxtpx:TrackPointExtension>
        </extensions>
      </trkpt>
      <trkpt lat="45.56359" lon="2.86497">
        <ele>1209.8000488281</ele>
        <time>2024-05-26T10:08:16.000Z</time>
        <extensions>
          <gpxtpx:TrackPointExtension xmlns:gpxtpx="http://www.garmin.com/xmlschemas/TrackPointExtension/v1">
            <gpxtpx:hr>95</gpxtpx:hr>
          </gpxtpx:TrackPointExtension>
        </extensions>
      </trkpt>
      <trkpt lat="45.56359" lon="2.86528">
        <ele>1208.8000488281</ele>
        <time>2024-05-26T10:08:18.000Z</time>
        <extensions>
          <gpxtpx:TrackPointExtension xmlns:gpxtpx="http://www.garmin.com/xmlschemas/TrackPointExtension/v1">
            <gpxtpx:hr>94</gpxtpx:hr>
          </gpxtpx:TrackPointExtension>
        </extensions>
      </trkpt>
      <trkpt lat="45.56358" lon="2.8656">
        <ele>1207.8000488281</ele>
        <time>2024-05-26T10:08:20.000Z</time>
        <extensions>
          <gpxtpx:TrackPointExtension xmlns:gpxtpx="http://www.garmin.com/xmlschemas/TrackPointExtension/v1">
            <gpxtpx:hr>93</gpxtpx:hr>
          </gpxtpx:TrackPointExtension>
        </extensions>
      </trkpt>
      <trkpt lat="45.56357" lon="2.86592">
        <ele>1206.8000488281</ele>
        <time>2024-05-26T10:08:22.000Z</time>
        <extensions>
          <gpxtpx:TrackPointExtension xmlns:gpxtpx="http://www.garmin.com/xmlschemas/TrackPointExtension/v1">
            <gpxtpx:hr>93</gpxtpx:hr>
          </gpxtpx:TrackPointExtension>
        </extensions>
      </trkpt>
      <trkpt lat="45.56357" lon="2.86608">
        <ele>1205.4000244141</ele>
        <time>2024-05-26T10:08:23.000Z</time>
        <extensions>
          <gpxtpx:TrackPointExtension xmlns:gpxtpx="http://www.garmin.com/xmlschemas/TrackPointExtension/v1">
            <gpxtpx:hr>94</gpxtpx:hr>
          </gpxtpx:TrackPointExtension>
        </extensions>
      </trkpt>
      <trkpt lat="45.56354" lon="2.86652">
        <ele>1205</ele>
        <time>2024-05-26T10:08:26.000Z</time>
        <extensions>
          <gpxtpx:TrackPointExtension xmlns:gpxtpx="http://www.garmin.com/xmlschemas/TrackPointExtension/v1">
            <gpxtpx:hr>93</gpxtpx:hr>
          </gpxtpx:TrackPointExtension>
        </extensions>
      </trkpt>
      <trkpt lat="45.56351" lon="2.86665">
        <ele>1204.1999511719</ele>
        <time>2024-05-26T10:08:27.000Z</time>
        <extensions>
          <gpxtpx:TrackPointExtension xmlns:gpxtpx="http://www.garmin.com/xmlschemas/TrackPointExtension/v1">
            <gpxtpx:hr>91</gpxtpx:hr>
          </gpxtpx:TrackPointExtension>
        </extensions>
      </trkpt>
      <trkpt lat="45.56345" lon="2.86677">
        <ele>1202.5999755859</ele>
        <time>2024-05-26T10:08:28.000Z</time>
        <extensions>
          <gpxtpx:TrackPointExtension xmlns:gpxtpx="http://www.garmin.com/xmlschemas/TrackPointExtension/v1">
            <gpxtpx:hr>92</gpxtpx:hr>
          </gpxtpx:TrackPointExtension>
        </extensions>
      </trkpt>
      <trkpt lat="45.56338" lon="2.86685">
        <ele>1200.5999755859</ele>
        <time>2024-05-26T10:08:29.000Z</time>
        <extensions>
          <gpxtpx:TrackPointExtension xmlns:gpxtpx="http://www.garmin.com/xmlschemas/TrackPointExtension/v1">
            <gpxtpx:hr>91</gpxtpx:hr>
          </gpxtpx:TrackPointExtension>
        </extensions>
      </trkpt>
      <trkpt lat="45.56329" lon="2.86689">
        <ele>1199.5999755859</ele>
        <time>2024-05-26T10:08:30.000Z</time>
        <extensions>
          <gpxtpx:TrackPointExtension xmlns:gpxtpx="http://www.garmin.com/xmlschemas/TrackPointExtension/v1">
            <gpxtpx:hr>91</gpxtpx:hr>
          </gpxtpx:TrackPointExtension>
        </extensions>
      </trkpt>
      <trkpt lat="45.5632" lon="2.86691">
        <ele>1197.1999511719</ele>
        <time>2024-05-26T10:08:31.000Z</time>
        <extensions>
          <gpxtpx:TrackPointExtension xmlns:gpxtpx="http://www.garmin.com/xmlschemas/TrackPointExtension/v1">
            <gpxtpx:hr>91</gpxtpx:hr>
          </gpxtpx:TrackPointExtension>
        </extensions>
      </trkpt>
      <trkpt lat="45.56311" lon="2.8669">
        <ele>1196.5999755859</ele>
        <time>2024-05-26T10:08:32.000Z</time>
        <extensions>
          <gpxtpx:TrackPointExtension xmlns:gpxtpx="http://www.garmin.com/xmlschemas/TrackPointExtension/v1">
            <gpxtpx:hr>92</gpxtpx:hr>
          </gpxtpx:TrackPointExtension>
        </extensions>
      </trkpt>
      <trkpt lat="45.56293" lon="2.86688">
        <ele>1196.1999511719</ele>
        <time>2024-05-26T10:08:34.000Z</time>
        <extensions>
          <gpxtpx:TrackPointExtension xmlns:gpxtpx="http://www.garmin.com/xmlschemas/TrackPointExtension/v1">
            <gpxtpx:hr>94</gpxtpx:hr>
          </gpxtpx:TrackPointExtension>
        </extensions>
      </trkpt>
      <trkpt lat="45.56272" lon="2.86694">
        <ele>1195.4000244141</ele>
        <time>2024-05-26T10:08:36.000Z</time>
        <extensions>
          <gpxtpx:TrackPointExtension xmlns:gpxtpx="http://www.garmin.com/xmlschemas/TrackPointExtension/v1">
            <gpxtpx:hr>93</gpxtpx:hr>
          </gpxtpx:TrackPointExtension>
        </extensions>
      </trkpt>
      <trkpt lat="45.56265" lon="2.86698">
        <ele>1195.1999511719</ele>
        <time>2024-05-26T10:08:37.000Z</time>
        <extensions>
          <gpxtpx:TrackPointExtension xmlns:gpxtpx="http://www.garmin.com/xmlschemas/TrackPointExtension/v1">
            <gpxtpx:hr>93</gpxtpx:hr>
          </gpxtpx:TrackPointExtension>
        </extensions>
      </trkpt>
      <trkpt lat="45.56255" lon="2.86706">
        <ele>1194.4000244141</ele>
        <time>2024-05-26T10:08:38.000Z</time>
        <extensions>
          <gpxtpx:TrackPointExtension xmlns:gpxtpx="http://www.garmin.com/xmlschemas/TrackPointExtension/v1">
            <gpxtpx:hr>93</gpxtpx:hr>
          </gpxtpx:TrackPointExtension>
        </extensions>
      </trkpt>
      <trkpt lat="45.5624" lon="2.8672">
        <ele>1192.4000244141</ele>
        <time>2024-05-26T10:08:40.000Z</time>
        <extensions>
          <gpxtpx:TrackPointExtension xmlns:gpxtpx="http://www.garmin.com/xmlschemas/TrackPointExtension/v1">
            <gpxtpx:hr>95</gpxtpx:hr>
          </gpxtpx:TrackPointExtension>
        </extensions>
      </trkpt>
      <trkpt lat="45.56232" lon="2.86729">
        <ele>1192</ele>
        <time>2024-05-26T10:08:41.000Z</time>
        <extensions>
          <gpxtpx:TrackPointExtension xmlns:gpxtpx="http://www.garmin.com/xmlschemas/TrackPointExtension/v1">
            <gpxtpx:hr>95</gpxtpx:hr>
          </gpxtpx:TrackPointExtension>
        </extensions>
      </trkpt>
      <trkpt lat="45.56226" lon="2.8674">
        <ele>1190.5999755859</ele>
        <time>2024-05-26T10:08:42.000Z</time>
        <extensions>
          <gpxtpx:TrackPointExtension xmlns:gpxtpx="http://www.garmin.com/xmlschemas/TrackPointExtension/v1">
            <gpxtpx:hr>96</gpxtpx:hr>
          </gpxtpx:TrackPointExtension>
        </extensions>
      </trkpt>
      <trkpt lat="45.5622" lon="2.86753">
        <ele>1189.1999511719</ele>
        <time>2024-05-26T10:08:43.000Z</time>
        <extensions>
          <gpxtpx:TrackPointExtension xmlns:gpxtpx="http://www.garmin.com/xmlschemas/TrackPointExtension/v1">
            <gpxtpx:hr>98</gpxtpx:hr>
          </gpxtpx:TrackPointExtension>
        </extensions>
      </trkpt>
      <trkpt lat="45.56215" lon="2.86767">
        <ele>1188.1999511719</ele>
        <time>2024-05-26T10:08:44.000Z</time>
        <extensions>
          <gpxtpx:TrackPointExtension xmlns:gpxtpx="http://www.garmin.com/xmlschemas/TrackPointExtension/v1">
            <gpxtpx:hr>96</gpxtpx:hr>
          </gpxtpx:TrackPointExtension>
        </extensions>
      </trkpt>
      <trkpt lat="45.56212" lon="2.86781">
        <ele>1187.8000488281</ele>
        <time>2024-05-26T10:08:45.000Z</time>
        <extensions>
          <gpxtpx:TrackPointExtension xmlns:gpxtpx="http://www.garmin.com/xmlschemas/TrackPointExtension/v1">
            <gpxtpx:hr>97</gpxtpx:hr>
          </gpxtpx:TrackPointExtension>
        </extensions>
      </trkpt>
      <trkpt lat="45.56204" lon="2.86815">
        <ele>1186.1999511719</ele>
        <time>2024-05-26T10:08:47.000Z</time>
        <extensions>
          <gpxtpx:TrackPointExtension xmlns:gpxtpx="http://www.garmin.com/xmlschemas/TrackPointExtension/v1">
            <gpxtpx:hr>97</gpxtpx:hr>
          </gpxtpx:TrackPointExtension>
        </extensions>
      </trkpt>
      <trkpt lat="45.56199" lon="2.86846">
        <ele>1184.5999755859</ele>
        <time>2024-05-26T10:08:49.000Z</time>
        <extensions>
          <gpxtpx:TrackPointExtension xmlns:gpxtpx="http://www.garmin.com/xmlschemas/TrackPointExtension/v1">
            <gpxtpx:hr>97</gpxtpx:hr>
          </gpxtpx:TrackPointExtension>
        </extensions>
      </trkpt>
      <trkpt lat="45.56195" lon="2.86874">
        <ele>1182.4000244141</ele>
        <time>2024-05-26T10:08:51.000Z</time>
        <extensions>
          <gpxtpx:TrackPointExtension xmlns:gpxtpx="http://www.garmin.com/xmlschemas/TrackPointExtension/v1">
            <gpxtpx:hr>98</gpxtpx:hr>
          </gpxtpx:TrackPointExtension>
        </extensions>
      </trkpt>
      <trkpt lat="45.56188" lon="2.86918">
        <ele>1181.1999511719</ele>
        <time>2024-05-26T10:08:54.000Z</time>
        <extensions>
          <gpxtpx:TrackPointExtension xmlns:gpxtpx="http://www.garmin.com/xmlschemas/TrackPointExtension/v1">
            <gpxtpx:hr>99</gpxtpx:hr>
          </gpxtpx:TrackPointExtension>
        </extensions>
      </trkpt>
      <trkpt lat="45.56185" lon="2.86932">
        <ele>1180</ele>
        <time>2024-05-26T10:08:55.000Z</time>
        <extensions>
          <gpxtpx:TrackPointExtension xmlns:gpxtpx="http://www.garmin.com/xmlschemas/TrackPointExtension/v1">
            <gpxtpx:hr>100</gpxtpx:hr>
          </gpxtpx:TrackPointExtension>
        </extensions>
      </trkpt>
      <trkpt lat="45.56171" lon="2.86957">
        <ele>1179.1999511719</ele>
        <time>2024-05-26T10:08:57.000Z</time>
        <extensions>
          <gpxtpx:TrackPointExtension xmlns:gpxtpx="http://www.garmin.com/xmlschemas/TrackPointExtension/v1">
            <gpxtpx:hr>100</gpxtpx:hr>
          </gpxtpx:TrackPointExtension>
        </extensions>
      </trkpt>
      <trkpt lat="45.56164" lon="2.86967">
        <ele>1177.8000488281</ele>
        <time>2024-05-26T10:08:58.000Z</time>
        <extensions>
          <gpxtpx:TrackPointExtension xmlns:gpxtpx="http://www.garmin.com/xmlschemas/TrackPointExtension/v1">
            <gpxtpx:hr>100</gpxtpx:hr>
          </gpxtpx:TrackPointExtension>
        </extensions>
      </trkpt>
      <trkpt lat="45.56152" lon="2.86986">
        <ele>1177</ele>
        <time>2024-05-26T10:09:00.000Z</time>
        <extensions>
          <gpxtpx:TrackPointExtension xmlns:gpxtpx="http://www.garmin.com/xmlschemas/TrackPointExtension/v1">
            <gpxtpx:hr>100</gpxtpx:hr>
          </gpxtpx:TrackPointExtension>
        </extensions>
      </trkpt>
      <trkpt lat="45.56146" lon="2.86999">
        <ele>1176.4000244141</ele>
        <time>2024-05-26T10:09:01.000Z</time>
        <extensions>
          <gpxtpx:TrackPointExtension xmlns:gpxtpx="http://www.garmin.com/xmlschemas/TrackPointExtension/v1">
            <gpxtpx:hr>101</gpxtpx:hr>
          </gpxtpx:TrackPointExtension>
        </extensions>
      </trkpt>
      <trkpt lat="45.56139" lon="2.87015">
        <ele>1175.1999511719</ele>
        <time>2024-05-26T10:09:02.000Z</time>
        <extensions>
          <gpxtpx:TrackPointExtension xmlns:gpxtpx="http://www.garmin.com/xmlschemas/TrackPointExtension/v1">
            <gpxtpx:hr>101</gpxtpx:hr>
          </gpxtpx:TrackPointExtension>
        </extensions>
      </trkpt>
      <trkpt lat="45.56127" lon="2.87042">
        <ele>1174</ele>
        <time>2024-05-26T10:09:04.000Z</time>
        <extensions>
          <gpxtpx:TrackPointExtension xmlns:gpxtpx="http://www.garmin.com/xmlschemas/TrackPointExtension/v1">
            <gpxtpx:hr>101</gpxtpx:hr>
          </gpxtpx:TrackPointExtension>
        </extensions>
      </trkpt>
      <trkpt lat="45.56121" lon="2.87056">
        <ele>1172.5999755859</ele>
        <time>2024-05-26T10:09:05.000Z</time>
        <extensions>
          <gpxtpx:TrackPointExtension xmlns:gpxtpx="http://www.garmin.com/xmlschemas/TrackPointExtension/v1">
            <gpxtpx:hr>101</gpxtpx:hr>
          </gpxtpx:TrackPointExtension>
        </extensions>
      </trkpt>
      <trkpt lat="45.56116" lon="2.87071">
        <ele>1172</ele>
        <time>2024-05-26T10:09:06.000Z</time>
        <extensions>
          <gpxtpx:TrackPointExtension xmlns:gpxtpx="http://www.garmin.com/xmlschemas/TrackPointExtension/v1">
            <gpxtpx:hr>101</gpxtpx:hr>
          </gpxtpx:TrackPointExtension>
        </extensions>
      </trkpt>
      <trkpt lat="45.56112" lon="2.87083">
        <ele>1171.5999755859</ele>
        <time>2024-05-26T10:09:07.000Z</time>
        <extensions>
          <gpxtpx:TrackPointExtension xmlns:gpxtpx="http://www.garmin.com/xmlschemas/TrackPointExtension/v1">
            <gpxtpx:hr>100</gpxtpx:hr>
          </gpxtpx:TrackPointExtension>
        </extensions>
      </trkpt>
      <trkpt lat="45.56103" lon="2.87119">
        <ele>1170.4000244141</ele>
        <time>2024-05-26T10:09:09.000Z</time>
        <extensions>
          <gpxtpx:TrackPointExtension xmlns:gpxtpx="http://www.garmin.com/xmlschemas/TrackPointExtension/v1">
            <gpxtpx:hr>101</gpxtpx:hr>
          </gpxtpx:TrackPointExtension>
        </extensions>
      </trkpt>
      <trkpt lat="45.56098" lon="2.87135">
        <ele>1169.4000244141</ele>
        <time>2024-05-26T10:09:10.000Z</time>
        <extensions>
          <gpxtpx:TrackPointExtension xmlns:gpxtpx="http://www.garmin.com/xmlschemas/TrackPointExtension/v1">
            <gpxtpx:hr>101</gpxtpx:hr>
          </gpxtpx:TrackPointExtension>
        </extensions>
      </trkpt>
      <trkpt lat="45.56086" lon="2.87164">
        <ele>1168.4000244141</ele>
        <time>2024-05-26T10:09:12.000Z</time>
        <extensions>
          <gpxtpx:TrackPointExtension xmlns:gpxtpx="http://www.garmin.com/xmlschemas/TrackPointExtension/v1">
            <gpxtpx:hr>101</gpxtpx:hr>
          </gpxtpx:TrackPointExtension>
        </extensions>
      </trkpt>
      <trkpt lat="45.56079" lon="2.87176">
        <ele>1166.4000244141</ele>
        <time>2024-05-26T10:09:13.000Z</time>
        <extensions>
          <gpxtpx:TrackPointExtension xmlns:gpxtpx="http://www.garmin.com/xmlschemas/TrackPointExtension/v1">
            <gpxtpx:hr>101</gpxtpx:hr>
          </gpxtpx:TrackPointExtension>
        </extensions>
      </trkpt>
      <trkpt lat="45.56071" lon="2.87185">
        <ele>1165.1999511719</ele>
        <time>2024-05-26T10:09:14.000Z</time>
        <extensions>
          <gpxtpx:TrackPointExtension xmlns:gpxtpx="http://www.garmin.com/xmlschemas/TrackPointExtension/v1">
            <gpxtpx:hr>101</gpxtpx:hr>
          </gpxtpx:TrackPointExtension>
        </extensions>
      </trkpt>
      <trkpt lat="45.56062" lon="2.87194">
        <ele>1163.8000488281</ele>
        <time>2024-05-26T10:09:15.000Z</time>
        <extensions>
          <gpxtpx:TrackPointExtension xmlns:gpxtpx="http://www.garmin.com/xmlschemas/TrackPointExtension/v1">
            <gpxtpx:hr>98</gpxtpx:hr>
          </gpxtpx:TrackPointExtension>
        </extensions>
      </trkpt>
      <trkpt lat="45.56052" lon="2.87204">
        <ele>1163</ele>
        <time>2024-05-26T10:09:16.000Z</time>
        <extensions>
          <gpxtpx:TrackPointExtension xmlns:gpxtpx="http://www.garmin.com/xmlschemas/TrackPointExtension/v1">
            <gpxtpx:hr>99</gpxtpx:hr>
          </gpxtpx:TrackPointExtension>
        </extensions>
      </trkpt>
      <trkpt lat="45.5604" lon="2.87217">
        <ele>1162.1999511719</ele>
        <time>2024-05-26T10:09:17.000Z</time>
        <extensions>
          <gpxtpx:TrackPointExtension xmlns:gpxtpx="http://www.garmin.com/xmlschemas/TrackPointExtension/v1">
            <gpxtpx:hr>98</gpxtpx:hr>
          </gpxtpx:TrackPointExtension>
        </extensions>
      </trkpt>
      <trkpt lat="45.56025" lon="2.87245">
        <ele>1160.8000488281</ele>
        <time>2024-05-26T10:09:19.000Z</time>
        <extensions>
          <gpxtpx:TrackPointExtension xmlns:gpxtpx="http://www.garmin.com/xmlschemas/TrackPointExtension/v1">
            <gpxtpx:hr>97</gpxtpx:hr>
          </gpxtpx:TrackPointExtension>
        </extensions>
      </trkpt>
      <trkpt lat="45.56012" lon="2.87275">
        <ele>1159</ele>
        <time>2024-05-26T10:09:21.000Z</time>
        <extensions>
          <gpxtpx:TrackPointExtension xmlns:gpxtpx="http://www.garmin.com/xmlschemas/TrackPointExtension/v1">
            <gpxtpx:hr>97</gpxtpx:hr>
          </gpxtpx:TrackPointExtension>
        </extensions>
      </trkpt>
      <trkpt lat="45.55995" lon="2.87301">
        <ele>1157.5999755859</ele>
        <time>2024-05-26T10:09:23.000Z</time>
        <extensions>
          <gpxtpx:TrackPointExtension xmlns:gpxtpx="http://www.garmin.com/xmlschemas/TrackPointExtension/v1">
            <gpxtpx:hr>96</gpxtpx:hr>
          </gpxtpx:TrackPointExtension>
        </extensions>
      </trkpt>
      <trkpt lat="45.55987" lon="2.8731">
        <ele>1156.1999511719</ele>
        <time>2024-05-26T10:09:24.000Z</time>
        <extensions>
          <gpxtpx:TrackPointExtension xmlns:gpxtpx="http://www.garmin.com/xmlschemas/TrackPointExtension/v1">
            <gpxtpx:hr>97</gpxtpx:hr>
          </gpxtpx:TrackPointExtension>
        </extensions>
      </trkpt>
      <trkpt lat="45.55976" lon="2.87324">
        <ele>1154.8000488281</ele>
        <time>2024-05-26T10:09:25.000Z</time>
        <extensions>
          <gpxtpx:TrackPointExtension xmlns:gpxtpx="http://www.garmin.com/xmlschemas/TrackPointExtension/v1">
            <gpxtpx:hr>97</gpxtpx:hr>
          </gpxtpx:TrackPointExtension>
        </extensions>
      </trkpt>
      <trkpt lat="45.55968" lon="2.87334">
        <ele>1152.4000244141</ele>
        <time>2024-05-26T10:09:26.000Z</time>
        <extensions>
          <gpxtpx:TrackPointExtension xmlns:gpxtpx="http://www.garmin.com/xmlschemas/TrackPointExtension/v1">
            <gpxtpx:hr>97</gpxtpx:hr>
          </gpxtpx:TrackPointExtension>
        </extensions>
      </trkpt>
      <trkpt lat="45.5596" lon="2.87348">
        <ele>1152</ele>
        <time>2024-05-26T10:09:27.000Z</time>
        <extensions>
          <gpxtpx:TrackPointExtension xmlns:gpxtpx="http://www.garmin.com/xmlschemas/TrackPointExtension/v1">
            <gpxtpx:hr>98</gpxtpx:hr>
          </gpxtpx:TrackPointExtension>
        </extensions>
      </trkpt>
      <trkpt lat="45.55949" lon="2.8738">
        <ele>1151.1999511719</ele>
        <time>2024-05-26T10:09:29.000Z</time>
        <extensions>
          <gpxtpx:TrackPointExtension xmlns:gpxtpx="http://www.garmin.com/xmlschemas/TrackPointExtension/v1">
            <gpxtpx:hr>98</gpxtpx:hr>
          </gpxtpx:TrackPointExtension>
        </extensions>
      </trkpt>
      <trkpt lat="45.55945" lon="2.87394">
        <ele>1149.5999755859</ele>
        <time>2024-05-26T10:09:30.000Z</time>
        <extensions>
          <gpxtpx:TrackPointExtension xmlns:gpxtpx="http://www.garmin.com/xmlschemas/TrackPointExtension/v1">
            <gpxtpx:hr>97</gpxtpx:hr>
          </gpxtpx:TrackPointExtension>
        </extensions>
      </trkpt>
      <trkpt lat="45.55944" lon="2.87407">
        <ele>1148.4000244141</ele>
        <time>2024-05-26T10:09:31.000Z</time>
        <extensions>
          <gpxtpx:TrackPointExtension xmlns:gpxtpx="http://www.garmin.com/xmlschemas/TrackPointExtension/v1">
            <gpxtpx:hr>97</gpxtpx:hr>
          </gpxtpx:TrackPointExtension>
        </extensions>
      </trkpt>
      <trkpt lat="45.55944" lon="2.87416">
        <ele>1146.5999755859</ele>
        <time>2024-05-26T10:09:32.000Z</time>
        <extensions>
          <gpxtpx:TrackPointExtension xmlns:gpxtpx="http://www.garmin.com/xmlschemas/TrackPointExtension/v1">
            <gpxtpx:hr>96</gpxtpx:hr>
          </gpxtpx:TrackPointExtension>
        </extensions>
      </trkpt>
      <trkpt lat="45.55946" lon="2.87427">
        <ele>1145.1999511719</ele>
        <time>2024-05-26T10:09:33.000Z</time>
        <extensions>
          <gpxtpx:TrackPointExtension xmlns:gpxtpx="http://www.garmin.com/xmlschemas/TrackPointExtension/v1">
            <gpxtpx:hr>96</gpxtpx:hr>
          </gpxtpx:TrackPointExtension>
        </extensions>
      </trkpt>
      <trkpt lat="45.5595" lon="2.87436">
        <ele>1144.4000244141</ele>
        <time>2024-05-26T10:09:34.000Z</time>
        <extensions>
          <gpxtpx:TrackPointExtension xmlns:gpxtpx="http://www.garmin.com/xmlschemas/TrackPointExtension/v1">
            <gpxtpx:hr>95</gpxtpx:hr>
          </gpxtpx:TrackPointExtension>
        </extensions>
      </trkpt>
      <trkpt lat="45.55956" lon="2.87443">
        <ele>1144.1999511719</ele>
        <time>2024-05-26T10:09:35.000Z</time>
        <extensions>
          <gpxtpx:TrackPointExtension xmlns:gpxtpx="http://www.garmin.com/xmlschemas/TrackPointExtension/v1">
            <gpxtpx:hr>94</gpxtpx:hr>
          </gpxtpx:TrackPointExtension>
        </extensions>
      </trkpt>
      <trkpt lat="45.55961" lon="2.87449">
        <ele>1144</ele>
        <time>2024-05-26T10:09:36.000Z</time>
        <extensions>
          <gpxtpx:TrackPointExtension xmlns:gpxtpx="http://www.garmin.com/xmlschemas/TrackPointExtension/v1">
            <gpxtpx:hr>94</gpxtpx:hr>
          </gpxtpx:TrackPointExtension>
        </extensions>
      </trkpt>
      <trkpt lat="45.55968" lon="2.87455">
        <ele>1144.1999511719</ele>
        <time>2024-05-26T10:09:37.000Z</time>
        <extensions>
          <gpxtpx:TrackPointExtension xmlns:gpxtpx="http://www.garmin.com/xmlschemas/TrackPointExtension/v1">
            <gpxtpx:hr>92</gpxtpx:hr>
          </gpxtpx:TrackPointExtension>
        </extensions>
      </trkpt>
      <trkpt lat="45.55987" lon="2.87467">
        <ele>1145.8000488281</ele>
        <time>2024-05-26T10:09:40.000Z</time>
        <extensions>
          <gpxtpx:TrackPointExtension xmlns:gpxtpx="http://www.garmin.com/xmlschemas/TrackPointExtension/v1">
            <gpxtpx:hr>92</gpxtpx:hr>
          </gpxtpx:TrackPointExtension>
        </extensions>
      </trkpt>
      <trkpt lat="45.55999" lon="2.87474">
        <ele>1146.8000488281</ele>
        <time>2024-05-26T10:09:42.000Z</time>
        <extensions>
          <gpxtpx:TrackPointExtension xmlns:gpxtpx="http://www.garmin.com/xmlschemas/TrackPointExtension/v1">
            <gpxtpx:hr>93</gpxtpx:hr>
          </gpxtpx:TrackPointExtension>
        </extensions>
      </trkpt>
      <trkpt lat="45.56005" lon="2.87477">
        <ele>1146.8000488281</ele>
        <time>2024-05-26T10:09:43.000Z</time>
        <extensions>
          <gpxtpx:TrackPointExtension xmlns:gpxtpx="http://www.garmin.com/xmlschemas/TrackPointExtension/v1">
            <gpxtpx:hr>92</gpxtpx:hr>
          </gpxtpx:TrackPointExtension>
        </extensions>
      </trkpt>
      <trkpt lat="45.56028" lon="2.87483">
        <ele>1147.1999511719</ele>
        <time>2024-05-26T10:09:47.000Z</time>
        <extensions>
          <gpxtpx:TrackPointExtension xmlns:gpxtpx="http://www.garmin.com/xmlschemas/TrackPointExtension/v1">
            <gpxtpx:hr>91</gpxtpx:hr>
          </gpxtpx:TrackPointExtension>
        </extensions>
      </trkpt>
      <trkpt lat="45.56066" lon="2.87487">
        <ele>1147.1999511719</ele>
        <time>2024-05-26T10:09:53.000Z</time>
        <extensions>
          <gpxtpx:TrackPointExtension xmlns:gpxtpx="http://www.garmin.com/xmlschemas/TrackPointExtension/v1">
            <gpxtpx:hr>94</gpxtpx:hr>
          </gpxtpx:TrackPointExtension>
        </extensions>
      </trkpt>
      <trkpt lat="45.56102" lon="2.87485">
        <ele>1145.8000488281</ele>
        <time>2024-05-26T10:09:58.000Z</time>
        <extensions>
          <gpxtpx:TrackPointExtension xmlns:gpxtpx="http://www.garmin.com/xmlschemas/TrackPointExtension/v1">
            <gpxtpx:hr>95</gpxtpx:hr>
          </gpxtpx:TrackPointExtension>
        </extensions>
      </trkpt>
      <trkpt lat="45.5611" lon="2.87483">
        <ele>1145.1999511719</ele>
        <time>2024-05-26T10:09:59.000Z</time>
        <extensions>
          <gpxtpx:TrackPointExtension xmlns:gpxtpx="http://www.garmin.com/xmlschemas/TrackPointExtension/v1">
            <gpxtpx:hr>95</gpxtpx:hr>
          </gpxtpx:TrackPointExtension>
        </extensions>
      </trkpt>
      <trkpt lat="45.56118" lon="2.87481">
        <ele>1144.5999755859</ele>
        <time>2024-05-26T10:10:00.000Z</time>
        <extensions>
          <gpxtpx:TrackPointExtension xmlns:gpxtpx="http://www.garmin.com/xmlschemas/TrackPointExtension/v1">
            <gpxtpx:hr>95</gpxtpx:hr>
          </gpxtpx:TrackPointExtension>
        </extensions>
      </trkpt>
      <trkpt lat="45.56135" lon="2.87474">
        <ele>1142.8000488281</ele>
        <time>2024-05-26T10:10:02.000Z</time>
        <extensions>
          <gpxtpx:TrackPointExtension xmlns:gpxtpx="http://www.garmin.com/xmlschemas/TrackPointExtension/v1">
            <gpxtpx:hr>97</gpxtpx:hr>
          </gpxtpx:TrackPointExtension>
        </extensions>
      </trkpt>
      <trkpt lat="45.56144" lon="2.87469">
        <ele>1141.8000488281</ele>
        <time>2024-05-26T10:10:03.000Z</time>
        <extensions>
          <gpxtpx:TrackPointExtension xmlns:gpxtpx="http://www.garmin.com/xmlschemas/TrackPointExtension/v1">
            <gpxtpx:hr>98</gpxtpx:hr>
          </gpxtpx:TrackPointExtension>
        </extensions>
      </trkpt>
      <trkpt lat="45.56162" lon="2.87457">
        <ele>1139.5999755859</ele>
        <time>2024-05-26T10:10:05.000Z</time>
        <extensions>
          <gpxtpx:TrackPointExtension xmlns:gpxtpx="http://www.garmin.com/xmlschemas/TrackPointExtension/v1">
            <gpxtpx:hr>99</gpxtpx:hr>
          </gpxtpx:TrackPointExtension>
        </extensions>
      </trkpt>
      <trkpt lat="45.56181" lon="2.87449">
        <ele>1138.4000244141</ele>
        <time>2024-05-26T10:10:07.000Z</time>
        <extensions>
          <gpxtpx:TrackPointExtension xmlns:gpxtpx="http://www.garmin.com/xmlschemas/TrackPointExtension/v1">
            <gpxtpx:hr>100</gpxtpx:hr>
          </gpxtpx:TrackPointExtension>
        </extensions>
      </trkpt>
      <trkpt lat="45.562" lon="2.87449">
        <ele>1137.1999511719</ele>
        <time>2024-05-26T10:10:09.000Z</time>
        <extensions>
          <gpxtpx:TrackPointExtension xmlns:gpxtpx="http://www.garmin.com/xmlschemas/TrackPointExtension/v1">
            <gpxtpx:hr>100</gpxtpx:hr>
          </gpxtpx:TrackPointExtension>
        </extensions>
      </trkpt>
      <trkpt lat="45.5621" lon="2.87453">
        <ele>1136.8000488281</ele>
        <time>2024-05-26T10:10:10.000Z</time>
        <extensions>
          <gpxtpx:TrackPointExtension xmlns:gpxtpx="http://www.garmin.com/xmlschemas/TrackPointExtension/v1">
            <gpxtpx:hr>100</gpxtpx:hr>
          </gpxtpx:TrackPointExtension>
        </extensions>
      </trkpt>
      <trkpt lat="45.56251" lon="2.87474">
        <ele>1137.1999511719</ele>
        <time>2024-05-26T10:10:15.000Z</time>
        <extensions>
          <gpxtpx:TrackPointExtension xmlns:gpxtpx="http://www.garmin.com/xmlschemas/TrackPointExtension/v1">
            <gpxtpx:hr>98</gpxtpx:hr>
          </gpxtpx:TrackPointExtension>
        </extensions>
      </trkpt>
      <trkpt lat="45.56263" lon="2.87487">
        <ele>1138.1999511719</ele>
        <time>2024-05-26T10:10:17.000Z</time>
        <extensions>
          <gpxtpx:TrackPointExtension xmlns:gpxtpx="http://www.garmin.com/xmlschemas/TrackPointExtension/v1">
            <gpxtpx:hr>97</gpxtpx:hr>
          </gpxtpx:TrackPointExtension>
        </extensions>
      </trkpt>
      <trkpt lat="45.56268" lon="2.87494">
        <ele>1138.4000244141</ele>
        <time>2024-05-26T10:10:18.000Z</time>
        <extensions>
          <gpxtpx:TrackPointExtension xmlns:gpxtpx="http://www.garmin.com/xmlschemas/TrackPointExtension/v1">
            <gpxtpx:hr>96</gpxtpx:hr>
          </gpxtpx:TrackPointExtension>
        </extensions>
      </trkpt>
      <trkpt lat="45.56272" lon="2.87502">
        <ele>1138.5999755859</ele>
        <time>2024-05-26T10:10:19.000Z</time>
        <extensions>
          <gpxtpx:TrackPointExtension xmlns:gpxtpx="http://www.garmin.com/xmlschemas/TrackPointExtension/v1">
            <gpxtpx:hr>95</gpxtpx:hr>
          </gpxtpx:TrackPointExtension>
        </extensions>
      </trkpt>
      <trkpt lat="45.56281" lon="2.87524">
        <ele>1139.1999511719</ele>
        <time>2024-05-26T10:10:22.000Z</time>
        <extensions>
          <gpxtpx:TrackPointExtension xmlns:gpxtpx="http://www.garmin.com/xmlschemas/TrackPointExtension/v1">
            <gpxtpx:hr>94</gpxtpx:hr>
          </gpxtpx:TrackPointExtension>
        </extensions>
      </trkpt>
      <trkpt lat="45.56284" lon="2.87531">
        <ele>1139.5999755859</ele>
        <time>2024-05-26T10:10:23.000Z</time>
        <extensions>
          <gpxtpx:TrackPointExtension xmlns:gpxtpx="http://www.garmin.com/xmlschemas/TrackPointExtension/v1">
            <gpxtpx:hr>94</gpxtpx:hr>
          </gpxtpx:TrackPointExtension>
        </extensions>
      </trkpt>
      <trkpt lat="45.56296" lon="2.87551">
        <ele>1140.4000244141</ele>
        <time>2024-05-26T10:10:26.000Z</time>
        <extensions>
          <gpxtpx:TrackPointExtension xmlns:gpxtpx="http://www.garmin.com/xmlschemas/TrackPointExtension/v1">
            <gpxtpx:hr>96</gpxtpx:hr>
          </gpxtpx:TrackPointExtension>
        </extensions>
      </trkpt>
      <trkpt lat="45.56325" lon="2.87583">
        <ele>1139.5999755859</ele>
        <time>2024-05-26T10:10:32.000Z</time>
        <extensions>
          <gpxtpx:TrackPointExtension xmlns:gpxtpx="http://www.garmin.com/xmlschemas/TrackPointExtension/v1">
            <gpxtpx:hr>98</gpxtpx:hr>
          </gpxtpx:TrackPointExtension>
        </extensions>
      </trkpt>
      <trkpt lat="45.56366" lon="2.87615">
        <ele>1138.5999755859</ele>
        <time>2024-05-26T10:10:39.000Z</time>
        <extensions>
          <gpxtpx:TrackPointExtension xmlns:gpxtpx="http://www.garmin.com/xmlschemas/TrackPointExtension/v1">
            <gpxtpx:hr>97</gpxtpx:hr>
          </gpxtpx:TrackPointExtension>
        </extensions>
      </trkpt>
      <trkpt lat="45.56373" lon="2.87617">
        <ele>1138</ele>
        <time>2024-05-26T10:10:40.000Z</time>
        <extensions>
          <gpxtpx:TrackPointExtension xmlns:gpxtpx="http://www.garmin.com/xmlschemas/TrackPointExtension/v1">
            <gpxtpx:hr>97</gpxtpx:hr>
          </gpxtpx:TrackPointExtension>
        </extensions>
      </trkpt>
      <trkpt lat="45.56381" lon="2.87619">
        <ele>1137.1999511719</ele>
        <time>2024-05-26T10:10:41.000Z</time>
        <extensions>
          <gpxtpx:TrackPointExtension xmlns:gpxtpx="http://www.garmin.com/xmlschemas/TrackPointExtension/v1">
            <gpxtpx:hr>96</gpxtpx:hr>
          </gpxtpx:TrackPointExtension>
        </extensions>
      </trkpt>
      <trkpt lat="45.56398" lon="2.87621">
        <ele>1136</ele>
        <time>2024-05-26T10:10:43.000Z</time>
        <extensions>
          <gpxtpx:TrackPointExtension xmlns:gpxtpx="http://www.garmin.com/xmlschemas/TrackPointExtension/v1">
            <gpxtpx:hr>94</gpxtpx:hr>
          </gpxtpx:TrackPointExtension>
        </extensions>
      </trkpt>
      <trkpt lat="45.56408" lon="2.87622">
        <ele>1135.5999755859</ele>
        <time>2024-05-26T10:10:44.000Z</time>
        <extensions>
          <gpxtpx:TrackPointExtension xmlns:gpxtpx="http://www.garmin.com/xmlschemas/TrackPointExtension/v1">
            <gpxtpx:hr>97</gpxtpx:hr>
          </gpxtpx:TrackPointExtension>
        </extensions>
      </trkpt>
      <trkpt lat="45.5643" lon="2.87622">
        <ele>1134.5999755859</ele>
        <time>2024-05-26T10:10:46.000Z</time>
        <extensions>
          <gpxtpx:TrackPointExtension xmlns:gpxtpx="http://www.garmin.com/xmlschemas/TrackPointExtension/v1">
            <gpxtpx:hr>99</gpxtpx:hr>
          </gpxtpx:TrackPointExtension>
        </extensions>
      </trkpt>
      <trkpt lat="45.56439" lon="2.87623">
        <ele>1133.1999511719</ele>
        <time>2024-05-26T10:10:47.000Z</time>
        <extensions>
          <gpxtpx:TrackPointExtension xmlns:gpxtpx="http://www.garmin.com/xmlschemas/TrackPointExtension/v1">
            <gpxtpx:hr>100</gpxtpx:hr>
          </gpxtpx:TrackPointExtension>
        </extensions>
      </trkpt>
      <trkpt lat="45.56449" lon="2.87626">
        <ele>1132</ele>
        <time>2024-05-26T10:10:48.000Z</time>
        <extensions>
          <gpxtpx:TrackPointExtension xmlns:gpxtpx="http://www.garmin.com/xmlschemas/TrackPointExtension/v1">
            <gpxtpx:hr>100</gpxtpx:hr>
          </gpxtpx:TrackPointExtension>
        </extensions>
      </trkpt>
      <trkpt lat="45.5646" lon="2.8763">
        <ele>1130.4000244141</ele>
        <time>2024-05-26T10:10:49.000Z</time>
        <extensions>
          <gpxtpx:TrackPointExtension xmlns:gpxtpx="http://www.garmin.com/xmlschemas/TrackPointExtension/v1">
            <gpxtpx:hr>101</gpxtpx:hr>
          </gpxtpx:TrackPointExtension>
        </extensions>
      </trkpt>
      <trkpt lat="45.56482" lon="2.87643">
        <ele>1129</ele>
        <time>2024-05-26T10:10:51.000Z</time>
        <extensions>
          <gpxtpx:TrackPointExtension xmlns:gpxtpx="http://www.garmin.com/xmlschemas/TrackPointExtension/v1">
            <gpxtpx:hr>101</gpxtpx:hr>
          </gpxtpx:TrackPointExtension>
        </extensions>
      </trkpt>
      <trkpt lat="45.56493" lon="2.87651">
        <ele>1127.8000488281</ele>
        <time>2024-05-26T10:10:52.000Z</time>
        <extensions>
          <gpxtpx:TrackPointExtension xmlns:gpxtpx="http://www.garmin.com/xmlschemas/TrackPointExtension/v1">
            <gpxtpx:hr>102</gpxtpx:hr>
          </gpxtpx:TrackPointExtension>
        </extensions>
      </trkpt>
      <trkpt lat="45.56514" lon="2.87664">
        <ele>1125.5999755859</ele>
        <time>2024-05-26T10:10:54.000Z</time>
        <extensions>
          <gpxtpx:TrackPointExtension xmlns:gpxtpx="http://www.garmin.com/xmlschemas/TrackPointExtension/v1">
            <gpxtpx:hr>102</gpxtpx:hr>
          </gpxtpx:TrackPointExtension>
        </extensions>
      </trkpt>
      <trkpt lat="45.56538" lon="2.87675">
        <ele>1124</ele>
        <time>2024-05-26T10:10:56.000Z</time>
        <extensions>
          <gpxtpx:TrackPointExtension xmlns:gpxtpx="http://www.garmin.com/xmlschemas/TrackPointExtension/v1">
            <gpxtpx:hr>102</gpxtpx:hr>
          </gpxtpx:TrackPointExtension>
        </extensions>
      </trkpt>
      <trkpt lat="45.5655" lon="2.87679">
        <ele>1122.8000488281</ele>
        <time>2024-05-26T10:10:57.000Z</time>
        <extensions>
          <gpxtpx:TrackPointExtension xmlns:gpxtpx="http://www.garmin.com/xmlschemas/TrackPointExtension/v1">
            <gpxtpx:hr>103</gpxtpx:hr>
          </gpxtpx:TrackPointExtension>
        </extensions>
      </trkpt>
      <trkpt lat="45.56561" lon="2.87683">
        <ele>1121.8000488281</ele>
        <time>2024-05-26T10:10:58.000Z</time>
        <extensions>
          <gpxtpx:TrackPointExtension xmlns:gpxtpx="http://www.garmin.com/xmlschemas/TrackPointExtension/v1">
            <gpxtpx:hr>104</gpxtpx:hr>
          </gpxtpx:TrackPointExtension>
        </extensions>
      </trkpt>
      <trkpt lat="45.56584" lon="2.87689">
        <ele>1119.8000488281</ele>
        <time>2024-05-26T10:11:00.000Z</time>
        <extensions>
          <gpxtpx:TrackPointExtension xmlns:gpxtpx="http://www.garmin.com/xmlschemas/TrackPointExtension/v1">
            <gpxtpx:hr>105</gpxtpx:hr>
          </gpxtpx:TrackPointExtension>
        </extensions>
      </trkpt>
      <trkpt lat="45.56595" lon="2.87692">
        <ele>1118.4000244141</ele>
        <time>2024-05-26T10:11:01.000Z</time>
        <extensions>
          <gpxtpx:TrackPointExtension xmlns:gpxtpx="http://www.garmin.com/xmlschemas/TrackPointExtension/v1">
            <gpxtpx:hr>106</gpxtpx:hr>
          </gpxtpx:TrackPointExtension>
        </extensions>
      </trkpt>
      <trkpt lat="45.56616" lon="2.87699">
        <ele>1116.5999755859</ele>
        <time>2024-05-26T10:11:03.000Z</time>
        <extensions>
          <gpxtpx:TrackPointExtension xmlns:gpxtpx="http://www.garmin.com/xmlschemas/TrackPointExtension/v1">
            <gpxtpx:hr>106</gpxtpx:hr>
          </gpxtpx:TrackPointExtension>
        </extensions>
      </trkpt>
      <trkpt lat="45.56632" lon="2.87716">
        <ele>1115</ele>
        <time>2024-05-26T10:11:05.000Z</time>
        <extensions>
          <gpxtpx:TrackPointExtension xmlns:gpxtpx="http://www.garmin.com/xmlschemas/TrackPointExtension/v1">
            <gpxtpx:hr>106</gpxtpx:hr>
          </gpxtpx:TrackPointExtension>
        </extensions>
      </trkpt>
      <trkpt lat="45.5664" lon="2.87742">
        <ele>1113.1999511719</ele>
        <time>2024-05-26T10:11:07.000Z</time>
        <extensions>
          <gpxtpx:TrackPointExtension xmlns:gpxtpx="http://www.garmin.com/xmlschemas/TrackPointExtension/v1">
            <gpxtpx:hr>106</gpxtpx:hr>
          </gpxtpx:TrackPointExtension>
        </extensions>
      </trkpt>
      <trkpt lat="45.56642" lon="2.87756">
        <ele>1112.5999755859</ele>
        <time>2024-05-26T10:11:08.000Z</time>
        <extensions>
          <gpxtpx:TrackPointExtension xmlns:gpxtpx="http://www.garmin.com/xmlschemas/TrackPointExtension/v1">
            <gpxtpx:hr>106</gpxtpx:hr>
          </gpxtpx:TrackPointExtension>
        </extensions>
      </trkpt>
      <trkpt lat="45.56651" lon="2.8781">
        <ele>1112</ele>
        <time>2024-05-26T10:11:12.000Z</time>
        <extensions>
          <gpxtpx:TrackPointExtension xmlns:gpxtpx="http://www.garmin.com/xmlschemas/TrackPointExtension/v1">
            <gpxtpx:hr>107</gpxtpx:hr>
          </gpxtpx:TrackPointExtension>
        </extensions>
      </trkpt>
      <trkpt lat="45.56657" lon="2.87851">
        <ele>1110.5999755859</ele>
        <time>2024-05-26T10:11:15.000Z</time>
        <extensions>
          <gpxtpx:TrackPointExtension xmlns:gpxtpx="http://www.garmin.com/xmlschemas/TrackPointExtension/v1">
            <gpxtpx:hr>108</gpxtpx:hr>
          </gpxtpx:TrackPointExtension>
        </extensions>
      </trkpt>
      <trkpt lat="45.56662" lon="2.8788">
        <ele>1109.5999755859</ele>
        <time>2024-05-26T10:11:17.000Z</time>
        <extensions>
          <gpxtpx:TrackPointExtension xmlns:gpxtpx="http://www.garmin.com/xmlschemas/TrackPointExtension/v1">
            <gpxtpx:hr>107</gpxtpx:hr>
          </gpxtpx:TrackPointExtension>
        </extensions>
      </trkpt>
      <trkpt lat="45.56667" lon="2.87908">
        <ele>1108.5999755859</ele>
        <time>2024-05-26T10:11:19.000Z</time>
        <extensions>
          <gpxtpx:TrackPointExtension xmlns:gpxtpx="http://www.garmin.com/xmlschemas/TrackPointExtension/v1">
            <gpxtpx:hr>106</gpxtpx:hr>
          </gpxtpx:TrackPointExtension>
        </extensions>
      </trkpt>
      <trkpt lat="45.56669" lon="2.87922">
        <ele>1106.8000488281</ele>
        <time>2024-05-26T10:11:20.000Z</time>
        <extensions>
          <gpxtpx:TrackPointExtension xmlns:gpxtpx="http://www.garmin.com/xmlschemas/TrackPointExtension/v1">
            <gpxtpx:hr>106</gpxtpx:hr>
          </gpxtpx:TrackPointExtension>
        </extensions>
      </trkpt>
      <trkpt lat="45.56675" lon="2.87966">
        <ele>1105</ele>
        <time>2024-05-26T10:11:23.000Z</time>
        <extensions>
          <gpxtpx:TrackPointExtension xmlns:gpxtpx="http://www.garmin.com/xmlschemas/TrackPointExtension/v1">
            <gpxtpx:hr>105</gpxtpx:hr>
          </gpxtpx:TrackPointExtension>
        </extensions>
      </trkpt>
      <trkpt lat="45.56678" lon="2.8798">
        <ele>1104.4000244141</ele>
        <time>2024-05-26T10:11:24.000Z</time>
        <extensions>
          <gpxtpx:TrackPointExtension xmlns:gpxtpx="http://www.garmin.com/xmlschemas/TrackPointExtension/v1">
            <gpxtpx:hr>105</gpxtpx:hr>
          </gpxtpx:TrackPointExtension>
        </extensions>
      </trkpt>
      <trkpt lat="45.56681" lon="2.87994">
        <ele>1103.1999511719</ele>
        <time>2024-05-26T10:11:25.000Z</time>
        <extensions>
          <gpxtpx:TrackPointExtension xmlns:gpxtpx="http://www.garmin.com/xmlschemas/TrackPointExtension/v1">
            <gpxtpx:hr>104</gpxtpx:hr>
          </gpxtpx:TrackPointExtension>
        </extensions>
      </trkpt>
      <trkpt lat="45.56686" lon="2.88008">
        <ele>1102.8000488281</ele>
        <time>2024-05-26T10:11:26.000Z</time>
        <extensions>
          <gpxtpx:TrackPointExtension xmlns:gpxtpx="http://www.garmin.com/xmlschemas/TrackPointExtension/v1">
            <gpxtpx:hr>104</gpxtpx:hr>
          </gpxtpx:TrackPointExtension>
        </extensions>
      </trkpt>
      <trkpt lat="45.56691" lon="2.8802">
        <ele>1102</ele>
        <time>2024-05-26T10:11:27.000Z</time>
        <extensions>
          <gpxtpx:TrackPointExtension xmlns:gpxtpx="http://www.garmin.com/xmlschemas/TrackPointExtension/v1">
            <gpxtpx:hr>103</gpxtpx:hr>
          </gpxtpx:TrackPointExtension>
        </extensions>
      </trkpt>
      <trkpt lat="45.56698" lon="2.88031">
        <ele>1101.8000488281</ele>
        <time>2024-05-26T10:11:28.000Z</time>
        <extensions>
          <gpxtpx:TrackPointExtension xmlns:gpxtpx="http://www.garmin.com/xmlschemas/TrackPointExtension/v1">
            <gpxtpx:hr>103</gpxtpx:hr>
          </gpxtpx:TrackPointExtension>
        </extensions>
      </trkpt>
      <trkpt lat="45.56715" lon="2.8805">
        <ele>1100.5999755859</ele>
        <time>2024-05-26T10:11:30.000Z</time>
        <extensions>
          <gpxtpx:TrackPointExtension xmlns:gpxtpx="http://www.garmin.com/xmlschemas/TrackPointExtension/v1">
            <gpxtpx:hr>103</gpxtpx:hr>
          </gpxtpx:TrackPointExtension>
        </extensions>
      </trkpt>
      <trkpt lat="45.56734" lon="2.88062">
        <ele>1099.8000488281</ele>
        <time>2024-05-26T10:11:32.000Z</time>
        <extensions>
          <gpxtpx:TrackPointExtension xmlns:gpxtpx="http://www.garmin.com/xmlschemas/TrackPointExtension/v1">
            <gpxtpx:hr>103</gpxtpx:hr>
          </gpxtpx:TrackPointExtension>
        </extensions>
      </trkpt>
      <trkpt lat="45.56744" lon="2.88065">
        <ele>1099.4000244141</ele>
        <time>2024-05-26T10:11:33.000Z</time>
        <extensions>
          <gpxtpx:TrackPointExtension xmlns:gpxtpx="http://www.garmin.com/xmlschemas/TrackPointExtension/v1">
            <gpxtpx:hr>104</gpxtpx:hr>
          </gpxtpx:TrackPointExtension>
        </extensions>
      </trkpt>
      <trkpt lat="45.56775" lon="2.88074">
        <ele>1098</ele>
        <time>2024-05-26T10:11:36.000Z</time>
        <extensions>
          <gpxtpx:TrackPointExtension xmlns:gpxtpx="http://www.garmin.com/xmlschemas/TrackPointExtension/v1">
            <gpxtpx:hr>105</gpxtpx:hr>
          </gpxtpx:TrackPointExtension>
        </extensions>
      </trkpt>
      <trkpt lat="45.56784" lon="2.8808">
        <ele>1097.1999511719</ele>
        <time>2024-05-26T10:11:37.000Z</time>
        <extensions>
          <gpxtpx:TrackPointExtension xmlns:gpxtpx="http://www.garmin.com/xmlschemas/TrackPointExtension/v1">
            <gpxtpx:hr>104</gpxtpx:hr>
          </gpxtpx:TrackPointExtension>
        </extensions>
      </trkpt>
      <trkpt lat="45.56793" lon="2.8809">
        <ele>1096.5999755859</ele>
        <time>2024-05-26T10:11:38.000Z</time>
        <extensions>
          <gpxtpx:TrackPointExtension xmlns:gpxtpx="http://www.garmin.com/xmlschemas/TrackPointExtension/v1">
            <gpxtpx:hr>105</gpxtpx:hr>
          </gpxtpx:TrackPointExtension>
        </extensions>
      </trkpt>
      <trkpt lat="45.56801" lon="2.88102">
        <ele>1095.1999511719</ele>
        <time>2024-05-26T10:11:39.000Z</time>
        <extensions>
          <gpxtpx:TrackPointExtension xmlns:gpxtpx="http://www.garmin.com/xmlschemas/TrackPointExtension/v1">
            <gpxtpx:hr>105</gpxtpx:hr>
          </gpxtpx:TrackPointExtension>
        </extensions>
      </trkpt>
      <trkpt lat="45.56807" lon="2.88116">
        <ele>1094.4000244141</ele>
        <time>2024-05-26T10:11:40.000Z</time>
        <extensions>
          <gpxtpx:TrackPointExtension xmlns:gpxtpx="http://www.garmin.com/xmlschemas/TrackPointExtension/v1">
            <gpxtpx:hr>105</gpxtpx:hr>
          </gpxtpx:TrackPointExtension>
        </extensions>
      </trkpt>
      <trkpt lat="45.56813" lon="2.8813">
        <ele>1093.8000488281</ele>
        <time>2024-05-26T10:11:41.000Z</time>
        <extensions>
          <gpxtpx:TrackPointExtension xmlns:gpxtpx="http://www.garmin.com/xmlschemas/TrackPointExtension/v1">
            <gpxtpx:hr>105</gpxtpx:hr>
          </gpxtpx:TrackPointExtension>
        </extensions>
      </trkpt>
      <trkpt lat="45.56818" lon="2.88144">
        <ele>1092.5999755859</ele>
        <time>2024-05-26T10:11:42.000Z</time>
        <extensions>
          <gpxtpx:TrackPointExtension xmlns:gpxtpx="http://www.garmin.com/xmlschemas/TrackPointExtension/v1">
            <gpxtpx:hr>104</gpxtpx:hr>
          </gpxtpx:TrackPointExtension>
        </extensions>
      </trkpt>
      <trkpt lat="45.56822" lon="2.8816">
        <ele>1091.5999755859</ele>
        <time>2024-05-26T10:11:43.000Z</time>
        <extensions>
          <gpxtpx:TrackPointExtension xmlns:gpxtpx="http://www.garmin.com/xmlschemas/TrackPointExtension/v1">
            <gpxtpx:hr>104</gpxtpx:hr>
          </gpxtpx:TrackPointExtension>
        </extensions>
      </trkpt>
      <trkpt lat="45.56825" lon="2.88176">
        <ele>1090.8000488281</ele>
        <time>2024-05-26T10:11:44.000Z</time>
        <extensions>
          <gpxtpx:TrackPointExtension xmlns:gpxtpx="http://www.garmin.com/xmlschemas/TrackPointExtension/v1">
            <gpxtpx:hr>103</gpxtpx:hr>
          </gpxtpx:TrackPointExtension>
        </extensions>
      </trkpt>
      <trkpt lat="45.5683" lon="2.88226">
        <ele>1089.5999755859</ele>
        <time>2024-05-26T10:11:47.000Z</time>
        <extensions>
          <gpxtpx:TrackPointExtension xmlns:gpxtpx="http://www.garmin.com/xmlschemas/TrackPointExtension/v1">
            <gpxtpx:hr>103</gpxtpx:hr>
          </gpxtpx:TrackPointExtension>
        </extensions>
      </trkpt>
      <trkpt lat="45.56833" lon="2.8826">
        <ele>1087.5999755859</ele>
        <time>2024-05-26T10:11:49.000Z</time>
        <extensions>
          <gpxtpx:TrackPointExtension xmlns:gpxtpx="http://www.garmin.com/xmlschemas/TrackPointExtension/v1">
            <gpxtpx:hr>103</gpxtpx:hr>
          </gpxtpx:TrackPointExtension>
        </extensions>
      </trkpt>
      <trkpt lat="45.56834" lon="2.88277">
        <ele>1086</ele>
        <time>2024-05-26T10:11:50.000Z</time>
        <extensions>
          <gpxtpx:TrackPointExtension xmlns:gpxtpx="http://www.garmin.com/xmlschemas/TrackPointExtension/v1">
            <gpxtpx:hr>103</gpxtpx:hr>
          </gpxtpx:TrackPointExtension>
        </extensions>
      </trkpt>
      <trkpt lat="45.56835" lon="2.88294">
        <ele>1084.1999511719</ele>
        <time>2024-05-26T10:11:51.000Z</time>
        <extensions>
          <gpxtpx:TrackPointExtension xmlns:gpxtpx="http://www.garmin.com/xmlschemas/TrackPointExtension/v1">
            <gpxtpx:hr>104</gpxtpx:hr>
          </gpxtpx:TrackPointExtension>
        </extensions>
      </trkpt>
      <trkpt lat="45.56837" lon="2.88328">
        <ele>1083</ele>
        <time>2024-05-26T10:11:53.000Z</time>
        <extensions>
          <gpxtpx:TrackPointExtension xmlns:gpxtpx="http://www.garmin.com/xmlschemas/TrackPointExtension/v1">
            <gpxtpx:hr>105</gpxtpx:hr>
          </gpxtpx:TrackPointExtension>
        </extensions>
      </trkpt>
      <trkpt lat="45.56837" lon="2.88362">
        <ele>1082.5999755859</ele>
        <time>2024-05-26T10:11:55.000Z</time>
        <extensions>
          <gpxtpx:TrackPointExtension xmlns:gpxtpx="http://www.garmin.com/xmlschemas/TrackPointExtension/v1">
            <gpxtpx:hr>107</gpxtpx:hr>
          </gpxtpx:TrackPointExtension>
        </extensions>
      </trkpt>
      <trkpt lat="45.56836" lon="2.88396">
        <ele>1081.8000488281</ele>
        <time>2024-05-26T10:11:57.000Z</time>
        <extensions>
          <gpxtpx:TrackPointExtension xmlns:gpxtpx="http://www.garmin.com/xmlschemas/TrackPointExtension/v1">
            <gpxtpx:hr>109</gpxtpx:hr>
          </gpxtpx:TrackPointExtension>
        </extensions>
      </trkpt>
      <trkpt lat="45.56834" lon="2.88429">
        <ele>1079.5999755859</ele>
        <time>2024-05-26T10:11:59.000Z</time>
        <extensions>
          <gpxtpx:TrackPointExtension xmlns:gpxtpx="http://www.garmin.com/xmlschemas/TrackPointExtension/v1">
            <gpxtpx:hr>110</gpxtpx:hr>
          </gpxtpx:TrackPointExtension>
        </extensions>
      </trkpt>
      <trkpt lat="45.56833" lon="2.88446">
        <ele>1078</ele>
        <time>2024-05-26T10:12:00.000Z</time>
        <extensions>
          <gpxtpx:TrackPointExtension xmlns:gpxtpx="http://www.garmin.com/xmlschemas/TrackPointExtension/v1">
            <gpxtpx:hr>111</gpxtpx:hr>
          </gpxtpx:TrackPointExtension>
        </extensions>
      </trkpt>
      <trkpt lat="45.56832" lon="2.88463">
        <ele>1076.5999755859</ele>
        <time>2024-05-26T10:12:01.000Z</time>
        <extensions>
          <gpxtpx:TrackPointExtension xmlns:gpxtpx="http://www.garmin.com/xmlschemas/TrackPointExtension/v1">
            <gpxtpx:hr>110</gpxtpx:hr>
          </gpxtpx:TrackPointExtension>
        </extensions>
      </trkpt>
      <trkpt lat="45.56831" lon="2.8848">
        <ele>1076.1999511719</ele>
        <time>2024-05-26T10:12:02.000Z</time>
        <extensions>
          <gpxtpx:TrackPointExtension xmlns:gpxtpx="http://www.garmin.com/xmlschemas/TrackPointExtension/v1">
            <gpxtpx:hr>111</gpxtpx:hr>
          </gpxtpx:TrackPointExtension>
        </extensions>
      </trkpt>
      <trkpt lat="45.56829" lon="2.88514">
        <ele>1075.5999755859</ele>
        <time>2024-05-26T10:12:04.000Z</time>
        <extensions>
          <gpxtpx:TrackPointExtension xmlns:gpxtpx="http://www.garmin.com/xmlschemas/TrackPointExtension/v1">
            <gpxtpx:hr>112</gpxtpx:hr>
          </gpxtpx:TrackPointExtension>
        </extensions>
      </trkpt>
      <trkpt lat="45.56828" lon="2.88548">
        <ele>1074.4000244141</ele>
        <time>2024-05-26T10:12:06.000Z</time>
        <extensions>
          <gpxtpx:TrackPointExtension xmlns:gpxtpx="http://www.garmin.com/xmlschemas/TrackPointExtension/v1">
            <gpxtpx:hr>113</gpxtpx:hr>
          </gpxtpx:TrackPointExtension>
        </extensions>
      </trkpt>
      <trkpt lat="45.56828" lon="2.88565">
        <ele>1073.4000244141</ele>
        <time>2024-05-26T10:12:07.000Z</time>
        <extensions>
          <gpxtpx:TrackPointExtension xmlns:gpxtpx="http://www.garmin.com/xmlschemas/TrackPointExtension/v1">
            <gpxtpx:hr>113</gpxtpx:hr>
          </gpxtpx:TrackPointExtension>
        </extensions>
      </trkpt>
      <trkpt lat="45.56828" lon="2.88582">
        <ele>1072.1999511719</ele>
        <time>2024-05-26T10:12:08.000Z</time>
        <extensions>
          <gpxtpx:TrackPointExtension xmlns:gpxtpx="http://www.garmin.com/xmlschemas/TrackPointExtension/v1">
            <gpxtpx:hr>112</gpxtpx:hr>
          </gpxtpx:TrackPointExtension>
        </extensions>
      </trkpt>
      <trkpt lat="45.56828" lon="2.886">
        <ele>1071</ele>
        <time>2024-05-26T10:12:09.000Z</time>
        <extensions>
          <gpxtpx:TrackPointExtension xmlns:gpxtpx="http://www.garmin.com/xmlschemas/TrackPointExtension/v1">
            <gpxtpx:hr>113</gpxtpx:hr>
          </gpxtpx:TrackPointExtension>
        </extensions>
      </trkpt>
      <trkpt lat="45.56828" lon="2.88619">
        <ele>1069.5999755859</ele>
        <time>2024-05-26T10:12:10.000Z</time>
        <extensions>
          <gpxtpx:TrackPointExtension xmlns:gpxtpx="http://www.garmin.com/xmlschemas/TrackPointExtension/v1">
            <gpxtpx:hr>113</gpxtpx:hr>
          </gpxtpx:TrackPointExtension>
        </extensions>
      </trkpt>
      <trkpt lat="45.56828" lon="2.88656">
        <ele>1067.8000488281</ele>
        <time>2024-05-26T10:12:12.000Z</time>
        <extensions>
          <gpxtpx:TrackPointExtension xmlns:gpxtpx="http://www.garmin.com/xmlschemas/TrackPointExtension/v1">
            <gpxtpx:hr>113</gpxtpx:hr>
          </gpxtpx:TrackPointExtension>
        </extensions>
      </trkpt>
      <trkpt lat="45.56828" lon="2.88714">
        <ele>1067</ele>
        <time>2024-05-26T10:12:15.000Z</time>
        <extensions>
          <gpxtpx:TrackPointExtension xmlns:gpxtpx="http://www.garmin.com/xmlschemas/TrackPointExtension/v1">
            <gpxtpx:hr>115</gpxtpx:hr>
          </gpxtpx:TrackPointExtension>
        </extensions>
      </trkpt>
      <trkpt lat="45.56828" lon="2.88733">
        <ele>1066.1999511719</ele>
        <time>2024-05-26T10:12:16.000Z</time>
        <extensions>
          <gpxtpx:TrackPointExtension xmlns:gpxtpx="http://www.garmin.com/xmlschemas/TrackPointExtension/v1">
            <gpxtpx:hr>116</gpxtpx:hr>
          </gpxtpx:TrackPointExtension>
        </extensions>
      </trkpt>
      <trkpt lat="45.56828" lon="2.88772">
        <ele>1064.1999511719</ele>
        <time>2024-05-26T10:12:18.000Z</time>
        <extensions>
          <gpxtpx:TrackPointExtension xmlns:gpxtpx="http://www.garmin.com/xmlschemas/TrackPointExtension/v1">
            <gpxtpx:hr>118</gpxtpx:hr>
          </gpxtpx:TrackPointExtension>
        </extensions>
      </trkpt>
      <trkpt lat="45.56828" lon="2.88791">
        <ele>1062.8000488281</ele>
        <time>2024-05-26T10:12:19.000Z</time>
        <extensions>
          <gpxtpx:TrackPointExtension xmlns:gpxtpx="http://www.garmin.com/xmlschemas/TrackPointExtension/v1">
            <gpxtpx:hr>119</gpxtpx:hr>
          </gpxtpx:TrackPointExtension>
        </extensions>
      </trkpt>
      <trkpt lat="45.56829" lon="2.88811">
        <ele>1062.4000244141</ele>
        <time>2024-05-26T10:12:20.000Z</time>
        <extensions>
          <gpxtpx:TrackPointExtension xmlns:gpxtpx="http://www.garmin.com/xmlschemas/TrackPointExtension/v1">
            <gpxtpx:hr>121</gpxtpx:hr>
          </gpxtpx:TrackPointExtension>
        </extensions>
      </trkpt>
      <trkpt lat="45.5683" lon="2.8883">
        <ele>1061.4000244141</ele>
        <time>2024-05-26T10:12:21.000Z</time>
        <extensions>
          <gpxtpx:TrackPointExtension xmlns:gpxtpx="http://www.garmin.com/xmlschemas/TrackPointExtension/v1">
            <gpxtpx:hr>119</gpxtpx:hr>
          </gpxtpx:TrackPointExtension>
        </extensions>
      </trkpt>
      <trkpt lat="45.56831" lon="2.88849">
        <ele>1060.4000244141</ele>
        <time>2024-05-26T10:12:22.000Z</time>
        <extensions>
          <gpxtpx:TrackPointExtension xmlns:gpxtpx="http://www.garmin.com/xmlschemas/TrackPointExtension/v1">
            <gpxtpx:hr>120</gpxtpx:hr>
          </gpxtpx:TrackPointExtension>
        </extensions>
      </trkpt>
      <trkpt lat="45.56834" lon="2.88887">
        <ele>1059.1999511719</ele>
        <time>2024-05-26T10:12:24.000Z</time>
        <extensions>
          <gpxtpx:TrackPointExtension xmlns:gpxtpx="http://www.garmin.com/xmlschemas/TrackPointExtension/v1">
            <gpxtpx:hr>121</gpxtpx:hr>
          </gpxtpx:TrackPointExtension>
        </extensions>
      </trkpt>
      <trkpt lat="45.56837" lon="2.88923">
        <ele>1057.8000488281</ele>
        <time>2024-05-26T10:12:26.000Z</time>
        <extensions>
          <gpxtpx:TrackPointExtension xmlns:gpxtpx="http://www.garmin.com/xmlschemas/TrackPointExtension/v1">
            <gpxtpx:hr>122</gpxtpx:hr>
          </gpxtpx:TrackPointExtension>
        </extensions>
      </trkpt>
      <trkpt lat="45.5684" lon="2.8894">
        <ele>1056.8000488281</ele>
        <time>2024-05-26T10:12:27.000Z</time>
        <extensions>
          <gpxtpx:TrackPointExtension xmlns:gpxtpx="http://www.garmin.com/xmlschemas/TrackPointExtension/v1">
            <gpxtpx:hr>122</gpxtpx:hr>
          </gpxtpx:TrackPointExtension>
        </extensions>
      </trkpt>
      <trkpt lat="45.56843" lon="2.88957">
        <ele>1056.1999511719</ele>
        <time>2024-05-26T10:12:28.000Z</time>
        <extensions>
          <gpxtpx:TrackPointExtension xmlns:gpxtpx="http://www.garmin.com/xmlschemas/TrackPointExtension/v1">
            <gpxtpx:hr>121</gpxtpx:hr>
          </gpxtpx:TrackPointExtension>
        </extensions>
      </trkpt>
      <trkpt lat="45.56846" lon="2.88974">
        <ele>1055.5999755859</ele>
        <time>2024-05-26T10:12:29.000Z</time>
        <extensions>
          <gpxtpx:TrackPointExtension xmlns:gpxtpx="http://www.garmin.com/xmlschemas/TrackPointExtension/v1">
            <gpxtpx:hr>122</gpxtpx:hr>
          </gpxtpx:TrackPointExtension>
        </extensions>
      </trkpt>
      <trkpt lat="45.5685" lon="2.88989">
        <ele>1054.4000244141</ele>
        <time>2024-05-26T10:12:30.000Z</time>
        <extensions>
          <gpxtpx:TrackPointExtension xmlns:gpxtpx="http://www.garmin.com/xmlschemas/TrackPointExtension/v1">
            <gpxtpx:hr>122</gpxtpx:hr>
          </gpxtpx:TrackPointExtension>
        </extensions>
      </trkpt>
      <trkpt lat="45.56859" lon="2.89017">
        <ele>1052.5999755859</ele>
        <time>2024-05-26T10:12:32.000Z</time>
        <extensions>
          <gpxtpx:TrackPointExtension xmlns:gpxtpx="http://www.garmin.com/xmlschemas/TrackPointExtension/v1">
            <gpxtpx:hr>121</gpxtpx:hr>
          </gpxtpx:TrackPointExtension>
        </extensions>
      </trkpt>
      <trkpt lat="45.56873" lon="2.8904">
        <ele>1051.1999511719</ele>
        <time>2024-05-26T10:12:34.000Z</time>
        <extensions>
          <gpxtpx:TrackPointExtension xmlns:gpxtpx="http://www.garmin.com/xmlschemas/TrackPointExtension/v1">
            <gpxtpx:hr>120</gpxtpx:hr>
          </gpxtpx:TrackPointExtension>
        </extensions>
      </trkpt>
      <trkpt lat="45.5688" lon="2.89049">
        <ele>1051</ele>
        <time>2024-05-26T10:12:35.000Z</time>
        <extensions>
          <gpxtpx:TrackPointExtension xmlns:gpxtpx="http://www.garmin.com/xmlschemas/TrackPointExtension/v1">
            <gpxtpx:hr>120</gpxtpx:hr>
          </gpxtpx:TrackPointExtension>
        </extensions>
      </trkpt>
      <trkpt lat="45.56888" lon="2.89057">
        <ele>1050.1999511719</ele>
        <time>2024-05-26T10:12:36.000Z</time>
        <extensions>
          <gpxtpx:TrackPointExtension xmlns:gpxtpx="http://www.garmin.com/xmlschemas/TrackPointExtension/v1">
            <gpxtpx:hr>119</gpxtpx:hr>
          </gpxtpx:TrackPointExtension>
        </extensions>
      </trkpt>
      <trkpt lat="45.56905" lon="2.89069">
        <ele>1048.8000488281</ele>
        <time>2024-05-26T10:12:38.000Z</time>
        <extensions>
          <gpxtpx:TrackPointExtension xmlns:gpxtpx="http://www.garmin.com/xmlschemas/TrackPointExtension/v1">
            <gpxtpx:hr>118</gpxtpx:hr>
          </gpxtpx:TrackPointExtension>
        </extensions>
      </trkpt>
      <trkpt lat="45.56913" lon="2.89074">
        <ele>1048.1999511719</ele>
        <time>2024-05-26T10:12:39.000Z</time>
        <extensions>
          <gpxtpx:TrackPointExtension xmlns:gpxtpx="http://www.garmin.com/xmlschemas/TrackPointExtension/v1">
            <gpxtpx:hr>117</gpxtpx:hr>
          </gpxtpx:TrackPointExtension>
        </extensions>
      </trkpt>
      <trkpt lat="45.56922" lon="2.89077">
        <ele>1046.5999755859</ele>
        <time>2024-05-26T10:12:40.000Z</time>
        <extensions>
          <gpxtpx:TrackPointExtension xmlns:gpxtpx="http://www.garmin.com/xmlschemas/TrackPointExtension/v1">
            <gpxtpx:hr>116</gpxtpx:hr>
          </gpxtpx:TrackPointExtension>
        </extensions>
      </trkpt>
      <trkpt lat="45.56946" lon="2.8908">
        <ele>1045.5999755859</ele>
        <time>2024-05-26T10:12:43.000Z</time>
        <extensions>
          <gpxtpx:TrackPointExtension xmlns:gpxtpx="http://www.garmin.com/xmlschemas/TrackPointExtension/v1">
            <gpxtpx:hr>115</gpxtpx:hr>
          </gpxtpx:TrackPointExtension>
        </extensions>
      </trkpt>
      <trkpt lat="45.56954" lon="2.89079">
        <ele>1045.4000244141</ele>
        <time>2024-05-26T10:12:44.000Z</time>
        <extensions>
          <gpxtpx:TrackPointExtension xmlns:gpxtpx="http://www.garmin.com/xmlschemas/TrackPointExtension/v1">
            <gpxtpx:hr>115</gpxtpx:hr>
          </gpxtpx:TrackPointExtension>
        </extensions>
      </trkpt>
      <trkpt lat="45.56973" lon="2.89079">
        <ele>1043.8000488281</ele>
        <time>2024-05-26T10:12:47.000Z</time>
        <extensions>
          <gpxtpx:TrackPointExtension xmlns:gpxtpx="http://www.garmin.com/xmlschemas/TrackPointExtension/v1">
            <gpxtpx:hr>114</gpxtpx:hr>
          </gpxtpx:TrackPointExtension>
        </extensions>
      </trkpt>
      <trkpt lat="45.5698" lon="2.89079">
        <ele>1042.5999755859</ele>
        <time>2024-05-26T10:12:49.000Z</time>
        <extensions>
          <gpxtpx:TrackPointExtension xmlns:gpxtpx="http://www.garmin.com/xmlschemas/TrackPointExtension/v1">
            <gpxtpx:hr>113</gpxtpx:hr>
          </gpxtpx:TrackPointExtension>
        </extensions>
      </trkpt>
      <trkpt lat="45.56983" lon="2.89079">
        <ele>1042</ele>
        <time>2024-05-26T10:12:50.000Z</time>
        <extensions>
          <gpxtpx:TrackPointExtension xmlns:gpxtpx="http://www.garmin.com/xmlschemas/TrackPointExtension/v1">
            <gpxtpx:hr>113</gpxtpx:hr>
          </gpxtpx:TrackPointExtension>
        </extensions>
      </trkpt>
      <trkpt lat="45.56992" lon="2.89079">
        <ele>1041.4000244141</ele>
        <time>2024-05-26T10:12:52.000Z</time>
        <extensions>
          <gpxtpx:TrackPointExtension xmlns:gpxtpx="http://www.garmin.com/xmlschemas/TrackPointExtension/v1">
            <gpxtpx:hr>112</gpxtpx:hr>
          </gpxtpx:TrackPointExtension>
        </extensions>
      </trkpt>
      <trkpt lat="45.57009" lon="2.89081">
        <ele>1040.5999755859</ele>
        <time>2024-05-26T10:12:55.000Z</time>
        <extensions>
          <gpxtpx:TrackPointExtension xmlns:gpxtpx="http://www.garmin.com/xmlschemas/TrackPointExtension/v1">
            <gpxtpx:hr>112</gpxtpx:hr>
          </gpxtpx:TrackPointExtension>
        </extensions>
      </trkpt>
      <trkpt lat="45.57016" lon="2.89083">
        <ele>1040</ele>
        <time>2024-05-26T10:12:56.000Z</time>
        <extensions>
          <gpxtpx:TrackPointExtension xmlns:gpxtpx="http://www.garmin.com/xmlschemas/TrackPointExtension/v1">
            <gpxtpx:hr>112</gpxtpx:hr>
          </gpxtpx:TrackPointExtension>
        </extensions>
      </trkpt>
      <trkpt lat="45.57039" lon="2.89088">
        <ele>1039</ele>
        <time>2024-05-26T10:12:59.000Z</time>
        <extensions>
          <gpxtpx:TrackPointExtension xmlns:gpxtpx="http://www.garmin.com/xmlschemas/TrackPointExtension/v1">
            <gpxtpx:hr>112</gpxtpx:hr>
          </gpxtpx:TrackPointExtension>
        </extensions>
      </trkpt>
      <trkpt lat="45.57047" lon="2.8909">
        <ele>1037.4000244141</ele>
        <time>2024-05-26T10:13:00.000Z</time>
        <extensions>
          <gpxtpx:TrackPointExtension xmlns:gpxtpx="http://www.garmin.com/xmlschemas/TrackPointExtension/v1">
            <gpxtpx:hr>112</gpxtpx:hr>
          </gpxtpx:TrackPointExtension>
        </extensions>
      </trkpt>
      <trkpt lat="45.57064" lon="2.89098">
        <ele>1036.1999511719</ele>
        <time>2024-05-26T10:13:02.000Z</time>
        <extensions>
          <gpxtpx:TrackPointExtension xmlns:gpxtpx="http://www.garmin.com/xmlschemas/TrackPointExtension/v1">
            <gpxtpx:hr>112</gpxtpx:hr>
          </gpxtpx:TrackPointExtension>
        </extensions>
      </trkpt>
      <trkpt lat="45.57075" lon="2.89105">
        <ele>1035.5999755859</ele>
        <time>2024-05-26T10:13:03.000Z</time>
        <extensions>
          <gpxtpx:TrackPointExtension xmlns:gpxtpx="http://www.garmin.com/xmlschemas/TrackPointExtension/v1">
            <gpxtpx:hr>113</gpxtpx:hr>
          </gpxtpx:TrackPointExtension>
        </extensions>
      </trkpt>
      <trkpt lat="45.57083" lon="2.89111">
        <ele>1035.1999511719</ele>
        <time>2024-05-26T10:13:04.000Z</time>
        <extensions>
          <gpxtpx:TrackPointExtension xmlns:gpxtpx="http://www.garmin.com/xmlschemas/TrackPointExtension/v1">
            <gpxtpx:hr>112</gpxtpx:hr>
          </gpxtpx:TrackPointExtension>
        </extensions>
      </trkpt>
      <trkpt lat="45.57103" lon="2.89125">
        <ele>1033.5999755859</ele>
        <time>2024-05-26T10:13:06.000Z</time>
        <extensions>
          <gpxtpx:TrackPointExtension xmlns:gpxtpx="http://www.garmin.com/xmlschemas/TrackPointExtension/v1">
            <gpxtpx:hr>111</gpxtpx:hr>
          </gpxtpx:TrackPointExtension>
        </extensions>
      </trkpt>
      <trkpt lat="45.57119" lon="2.89137">
        <ele>1032.8000488281</ele>
        <time>2024-05-26T10:13:08.000Z</time>
        <extensions>
          <gpxtpx:TrackPointExtension xmlns:gpxtpx="http://www.garmin.com/xmlschemas/TrackPointExtension/v1">
            <gpxtpx:hr>113</gpxtpx:hr>
          </gpxtpx:TrackPointExtension>
        </extensions>
      </trkpt>
      <trkpt lat="45.57128" lon="2.8914">
        <ele>1032.8000488281</ele>
        <time>2024-05-26T10:13:09.000Z</time>
        <extensions>
          <gpxtpx:TrackPointExtension xmlns:gpxtpx="http://www.garmin.com/xmlschemas/TrackPointExtension/v1">
            <gpxtpx:hr>112</gpxtpx:hr>
          </gpxtpx:TrackPointExtension>
        </extensions>
      </trkpt>
      <trkpt lat="45.57138" lon="2.89142">
        <ele>1032.8000488281</ele>
        <time>2024-05-26T10:13:10.000Z</time>
        <extensions>
          <gpxtpx:TrackPointExtension xmlns:gpxtpx="http://www.garmin.com/xmlschemas/TrackPointExtension/v1">
            <gpxtpx:hr>112</gpxtpx:hr>
          </gpxtpx:TrackPointExtension>
        </extensions>
      </trkpt>
      <trkpt lat="45.57155" lon="2.89141">
        <ele>1033</ele>
        <time>2024-05-26T10:13:12.000Z</time>
        <extensions>
          <gpxtpx:TrackPointExtension xmlns:gpxtpx="http://www.garmin.com/xmlschemas/TrackPointExtension/v1">
            <gpxtpx:hr>112</gpxtpx:hr>
          </gpxtpx:TrackPointExtension>
        </extensions>
      </trkpt>
      <trkpt lat="45.57163" lon="2.89138">
        <ele>1033.1999511719</ele>
        <time>2024-05-26T10:13:13.000Z</time>
        <extensions>
          <gpxtpx:TrackPointExtension xmlns:gpxtpx="http://www.garmin.com/xmlschemas/TrackPointExtension/v1">
            <gpxtpx:hr>111</gpxtpx:hr>
          </gpxtpx:TrackPointExtension>
        </extensions>
      </trkpt>
      <trkpt lat="45.57177" lon="2.89132">
        <ele>1035.1999511719</ele>
        <time>2024-05-26T10:13:15.000Z</time>
        <extensions>
          <gpxtpx:TrackPointExtension xmlns:gpxtpx="http://www.garmin.com/xmlschemas/TrackPointExtension/v1">
            <gpxtpx:hr>111</gpxtpx:hr>
          </gpxtpx:TrackPointExtension>
        </extensions>
      </trkpt>
      <trkpt lat="45.57183" lon="2.89128">
        <ele>1036</ele>
        <time>2024-05-26T10:13:16.000Z</time>
        <extensions>
          <gpxtpx:TrackPointExtension xmlns:gpxtpx="http://www.garmin.com/xmlschemas/TrackPointExtension/v1">
            <gpxtpx:hr>111</gpxtpx:hr>
          </gpxtpx:TrackPointExtension>
        </extensions>
      </trkpt>
      <trkpt lat="45.57188" lon="2.89122">
        <ele>1037</ele>
        <time>2024-05-26T10:13:17.000Z</time>
        <extensions>
          <gpxtpx:TrackPointExtension xmlns:gpxtpx="http://www.garmin.com/xmlschemas/TrackPointExtension/v1">
            <gpxtpx:hr>110</gpxtpx:hr>
          </gpxtpx:TrackPointExtension>
        </extensions>
      </trkpt>
      <trkpt lat="45.57193" lon="2.89116">
        <ele>1037.4000244141</ele>
        <time>2024-05-26T10:13:18.000Z</time>
        <extensions>
          <gpxtpx:TrackPointExtension xmlns:gpxtpx="http://www.garmin.com/xmlschemas/TrackPointExtension/v1">
            <gpxtpx:hr>110</gpxtpx:hr>
          </gpxtpx:TrackPointExtension>
        </extensions>
      </trkpt>
      <trkpt lat="45.57197" lon="2.89109">
        <ele>1037.8000488281</ele>
        <time>2024-05-26T10:13:19.000Z</time>
        <extensions>
          <gpxtpx:TrackPointExtension xmlns:gpxtpx="http://www.garmin.com/xmlschemas/TrackPointExtension/v1">
            <gpxtpx:hr>110</gpxtpx:hr>
          </gpxtpx:TrackPointExtension>
        </extensions>
      </trkpt>
      <trkpt lat="45.57215" lon="2.89068">
        <ele>1037.8000488281</ele>
        <time>2024-05-26T10:13:24.000Z</time>
        <extensions>
          <gpxtpx:TrackPointExtension xmlns:gpxtpx="http://www.garmin.com/xmlschemas/TrackPointExtension/v1">
            <gpxtpx:hr>108</gpxtpx:hr>
          </gpxtpx:TrackPointExtension>
        </extensions>
      </trkpt>
      <trkpt lat="45.57216" lon="2.89046">
        <ele>1037.8000488281</ele>
        <time>2024-05-26T10:13:26.000Z</time>
        <extensions>
          <gpxtpx:TrackPointExtension xmlns:gpxtpx="http://www.garmin.com/xmlschemas/TrackPointExtension/v1">
            <gpxtpx:hr>108</gpxtpx:hr>
          </gpxtpx:TrackPointExtension>
        </extensions>
      </trkpt>
      <trkpt lat="45.57215" lon="2.89035">
        <ele>1037.8000488281</ele>
        <time>2024-05-26T10:13:27.000Z</time>
        <extensions>
          <gpxtpx:TrackPointExtension xmlns:gpxtpx="http://www.garmin.com/xmlschemas/TrackPointExtension/v1">
            <gpxtpx:hr>108</gpxtpx:hr>
          </gpxtpx:TrackPointExtension>
        </extensions>
      </trkpt>
      <trkpt lat="45.57214" lon="2.89014">
        <ele>1037.4000244141</ele>
        <time>2024-05-26T10:13:29.000Z</time>
        <extensions>
          <gpxtpx:TrackPointExtension xmlns:gpxtpx="http://www.garmin.com/xmlschemas/TrackPointExtension/v1">
            <gpxtpx:hr>107</gpxtpx:hr>
          </gpxtpx:TrackPointExtension>
        </extensions>
      </trkpt>
      <trkpt lat="45.57213" lon="2.88982">
        <ele>1036.8000488281</ele>
        <time>2024-05-26T10:13:32.000Z</time>
        <extensions>
          <gpxtpx:TrackPointExtension xmlns:gpxtpx="http://www.garmin.com/xmlschemas/TrackPointExtension/v1">
            <gpxtpx:hr>108</gpxtpx:hr>
          </gpxtpx:TrackPointExtension>
        </extensions>
      </trkpt>
      <trkpt lat="45.57213" lon="2.88971">
        <ele>1036.8000488281</ele>
        <time>2024-05-26T10:13:33.000Z</time>
        <extensions>
          <gpxtpx:TrackPointExtension xmlns:gpxtpx="http://www.garmin.com/xmlschemas/TrackPointExtension/v1">
            <gpxtpx:hr>108</gpxtpx:hr>
          </gpxtpx:TrackPointExtension>
        </extensions>
      </trkpt>
      <trkpt lat="45.57216" lon="2.88939">
        <ele>1036</ele>
        <time>2024-05-26T10:13:36.000Z</time>
        <extensions>
          <gpxtpx:TrackPointExtension xmlns:gpxtpx="http://www.garmin.com/xmlschemas/TrackPointExtension/v1">
            <gpxtpx:hr>107</gpxtpx:hr>
          </gpxtpx:TrackPointExtension>
        </extensions>
      </trkpt>
      <trkpt lat="45.57221" lon="2.88903">
        <ele>1035.4000244141</ele>
        <time>2024-05-26T10:13:39.000Z</time>
        <extensions>
          <gpxtpx:TrackPointExtension xmlns:gpxtpx="http://www.garmin.com/xmlschemas/TrackPointExtension/v1">
            <gpxtpx:hr>107</gpxtpx:hr>
          </gpxtpx:TrackPointExtension>
        </extensions>
      </trkpt>
      <trkpt lat="45.57223" lon="2.88895">
        <ele>1034.4000244141</ele>
        <time>2024-05-26T10:13:40.000Z</time>
        <extensions>
          <gpxtpx:TrackPointExtension xmlns:gpxtpx="http://www.garmin.com/xmlschemas/TrackPointExtension/v1">
            <gpxtpx:hr>107</gpxtpx:hr>
          </gpxtpx:TrackPointExtension>
        </extensions>
      </trkpt>
      <trkpt lat="45.57227" lon="2.88886">
        <ele>1034</ele>
        <time>2024-05-26T10:13:41.000Z</time>
        <extensions>
          <gpxtpx:TrackPointExtension xmlns:gpxtpx="http://www.garmin.com/xmlschemas/TrackPointExtension/v1">
            <gpxtpx:hr>107</gpxtpx:hr>
          </gpxtpx:TrackPointExtension>
        </extensions>
      </trkpt>
      <trkpt lat="45.57237" lon="2.88871">
        <ele>1033.8000488281</ele>
        <time>2024-05-26T10:13:43.000Z</time>
        <extensions>
          <gpxtpx:TrackPointExtension xmlns:gpxtpx="http://www.garmin.com/xmlschemas/TrackPointExtension/v1">
            <gpxtpx:hr>106</gpxtpx:hr>
          </gpxtpx:TrackPointExtension>
        </extensions>
      </trkpt>
      <trkpt lat="45.57242" lon="2.88865">
        <ele>1033.5999755859</ele>
        <time>2024-05-26T10:13:44.000Z</time>
        <extensions>
          <gpxtpx:TrackPointExtension xmlns:gpxtpx="http://www.garmin.com/xmlschemas/TrackPointExtension/v1">
            <gpxtpx:hr>106</gpxtpx:hr>
          </gpxtpx:TrackPointExtension>
        </extensions>
      </trkpt>
      <trkpt lat="45.57253" lon="2.88852">
        <ele>1032.5999755859</ele>
        <time>2024-05-26T10:13:46.000Z</time>
        <extensions>
          <gpxtpx:TrackPointExtension xmlns:gpxtpx="http://www.garmin.com/xmlschemas/TrackPointExtension/v1">
            <gpxtpx:hr>106</gpxtpx:hr>
          </gpxtpx:TrackPointExtension>
        </extensions>
      </trkpt>
      <trkpt lat="45.57259" lon="2.88843">
        <ele>1032</ele>
        <time>2024-05-26T10:13:47.000Z</time>
        <extensions>
          <gpxtpx:TrackPointExtension xmlns:gpxtpx="http://www.garmin.com/xmlschemas/TrackPointExtension/v1">
            <gpxtpx:hr>106</gpxtpx:hr>
          </gpxtpx:TrackPointExtension>
        </extensions>
      </trkpt>
      <trkpt lat="45.57263" lon="2.88832">
        <ele>1031.4000244141</ele>
        <time>2024-05-26T10:13:48.000Z</time>
        <extensions>
          <gpxtpx:TrackPointExtension xmlns:gpxtpx="http://www.garmin.com/xmlschemas/TrackPointExtension/v1">
            <gpxtpx:hr>106</gpxtpx:hr>
          </gpxtpx:TrackPointExtension>
        </extensions>
      </trkpt>
      <trkpt lat="45.57265" lon="2.88822">
        <ele>1030.5999755859</ele>
        <time>2024-05-26T10:13:49.000Z</time>
        <extensions>
          <gpxtpx:TrackPointExtension xmlns:gpxtpx="http://www.garmin.com/xmlschemas/TrackPointExtension/v1">
            <gpxtpx:hr>106</gpxtpx:hr>
          </gpxtpx:TrackPointExtension>
        </extensions>
      </trkpt>
      <trkpt lat="45.57265" lon="2.88814">
        <ele>1030.1999511719</ele>
        <time>2024-05-26T10:13:50.000Z</time>
        <extensions>
          <gpxtpx:TrackPointExtension xmlns:gpxtpx="http://www.garmin.com/xmlschemas/TrackPointExtension/v1">
            <gpxtpx:hr>107</gpxtpx:hr>
          </gpxtpx:TrackPointExtension>
        </extensions>
      </trkpt>
      <trkpt lat="45.57266" lon="2.88794">
        <ele>1029.8000488281</ele>
        <time>2024-05-26T10:13:52.000Z</time>
        <extensions>
          <gpxtpx:TrackPointExtension xmlns:gpxtpx="http://www.garmin.com/xmlschemas/TrackPointExtension/v1">
            <gpxtpx:hr>108</gpxtpx:hr>
          </gpxtpx:TrackPointExtension>
        </extensions>
      </trkpt>
      <trkpt lat="45.57262" lon="2.88772">
        <ele>1029.5999755859</ele>
        <time>2024-05-26T10:13:54.000Z</time>
        <extensions>
          <gpxtpx:TrackPointExtension xmlns:gpxtpx="http://www.garmin.com/xmlschemas/TrackPointExtension/v1">
            <gpxtpx:hr>109</gpxtpx:hr>
          </gpxtpx:TrackPointExtension>
        </extensions>
      </trkpt>
      <trkpt lat="45.57261" lon="2.88761">
        <ele>1029.1999511719</ele>
        <time>2024-05-26T10:13:55.000Z</time>
        <extensions>
          <gpxtpx:TrackPointExtension xmlns:gpxtpx="http://www.garmin.com/xmlschemas/TrackPointExtension/v1">
            <gpxtpx:hr>109</gpxtpx:hr>
          </gpxtpx:TrackPointExtension>
        </extensions>
      </trkpt>
      <trkpt lat="45.5726" lon="2.88726">
        <ele>1027.8000488281</ele>
        <time>2024-05-26T10:13:58.000Z</time>
        <extensions>
          <gpxtpx:TrackPointExtension xmlns:gpxtpx="http://www.garmin.com/xmlschemas/TrackPointExtension/v1">
            <gpxtpx:hr>109</gpxtpx:hr>
          </gpxtpx:TrackPointExtension>
        </extensions>
      </trkpt>
      <trkpt lat="45.57259" lon="2.88716">
        <ele>1027.5999755859</ele>
        <time>2024-05-26T10:13:59.000Z</time>
        <extensions>
          <gpxtpx:TrackPointExtension xmlns:gpxtpx="http://www.garmin.com/xmlschemas/TrackPointExtension/v1">
            <gpxtpx:hr>109</gpxtpx:hr>
          </gpxtpx:TrackPointExtension>
        </extensions>
      </trkpt>
      <trkpt lat="45.57259" lon="2.88691">
        <ele>1026.8000488281</ele>
        <time>2024-05-26T10:14:01.000Z</time>
        <extensions>
          <gpxtpx:TrackPointExtension xmlns:gpxtpx="http://www.garmin.com/xmlschemas/TrackPointExtension/v1">
            <gpxtpx:hr>108</gpxtpx:hr>
          </gpxtpx:TrackPointExtension>
        </extensions>
      </trkpt>
      <trkpt lat="45.57257" lon="2.88678">
        <ele>1025.5999755859</ele>
        <time>2024-05-26T10:14:02.000Z</time>
        <extensions>
          <gpxtpx:TrackPointExtension xmlns:gpxtpx="http://www.garmin.com/xmlschemas/TrackPointExtension/v1">
            <gpxtpx:hr>108</gpxtpx:hr>
          </gpxtpx:TrackPointExtension>
        </extensions>
      </trkpt>
      <trkpt lat="45.57256" lon="2.88651">
        <ele>1024</ele>
        <time>2024-05-26T10:14:04.000Z</time>
        <extensions>
          <gpxtpx:TrackPointExtension xmlns:gpxtpx="http://www.garmin.com/xmlschemas/TrackPointExtension/v1">
            <gpxtpx:hr>107</gpxtpx:hr>
          </gpxtpx:TrackPointExtension>
        </extensions>
      </trkpt>
      <trkpt lat="45.57256" lon="2.8862">
        <ele>1022.5999755859</ele>
        <time>2024-05-26T10:14:06.000Z</time>
        <extensions>
          <gpxtpx:TrackPointExtension xmlns:gpxtpx="http://www.garmin.com/xmlschemas/TrackPointExtension/v1">
            <gpxtpx:hr>106</gpxtpx:hr>
          </gpxtpx:TrackPointExtension>
        </extensions>
      </trkpt>
      <trkpt lat="45.57257" lon="2.88579">
        <ele>1022</ele>
        <time>2024-05-26T10:14:09.000Z</time>
        <extensions>
          <gpxtpx:TrackPointExtension xmlns:gpxtpx="http://www.garmin.com/xmlschemas/TrackPointExtension/v1">
            <gpxtpx:hr>107</gpxtpx:hr>
          </gpxtpx:TrackPointExtension>
        </extensions>
      </trkpt>
      <trkpt lat="45.57255" lon="2.88552">
        <ele>1021.4000244141</ele>
        <time>2024-05-26T10:14:11.000Z</time>
        <extensions>
          <gpxtpx:TrackPointExtension xmlns:gpxtpx="http://www.garmin.com/xmlschemas/TrackPointExtension/v1">
            <gpxtpx:hr>109</gpxtpx:hr>
          </gpxtpx:TrackPointExtension>
        </extensions>
      </trkpt>
      <trkpt lat="45.57253" lon="2.88538">
        <ele>1020.200012207</ele>
        <time>2024-05-26T10:14:12.000Z</time>
        <extensions>
          <gpxtpx:TrackPointExtension xmlns:gpxtpx="http://www.garmin.com/xmlschemas/TrackPointExtension/v1">
            <gpxtpx:hr>108</gpxtpx:hr>
          </gpxtpx:TrackPointExtension>
        </extensions>
      </trkpt>
      <trkpt lat="45.57252" lon="2.88509">
        <ele>1019.5999755859</ele>
        <time>2024-05-26T10:14:14.000Z</time>
        <extensions>
          <gpxtpx:TrackPointExtension xmlns:gpxtpx="http://www.garmin.com/xmlschemas/TrackPointExtension/v1">
            <gpxtpx:hr>107</gpxtpx:hr>
          </gpxtpx:TrackPointExtension>
        </extensions>
      </trkpt>
      <trkpt lat="45.57249" lon="2.8848">
        <ele>1018.799987793</ele>
        <time>2024-05-26T10:14:16.000Z</time>
        <extensions>
          <gpxtpx:TrackPointExtension xmlns:gpxtpx="http://www.garmin.com/xmlschemas/TrackPointExtension/v1">
            <gpxtpx:hr>108</gpxtpx:hr>
          </gpxtpx:TrackPointExtension>
        </extensions>
      </trkpt>
      <trkpt lat="45.57249" lon="2.8845">
        <ele>1017.5999755859</ele>
        <time>2024-05-26T10:14:18.000Z</time>
        <extensions>
          <gpxtpx:TrackPointExtension xmlns:gpxtpx="http://www.garmin.com/xmlschemas/TrackPointExtension/v1">
            <gpxtpx:hr>107</gpxtpx:hr>
          </gpxtpx:TrackPointExtension>
        </extensions>
      </trkpt>
      <trkpt lat="45.57249" lon="2.88435">
        <ele>1017</ele>
        <time>2024-05-26T10:14:19.000Z</time>
        <extensions>
          <gpxtpx:TrackPointExtension xmlns:gpxtpx="http://www.garmin.com/xmlschemas/TrackPointExtension/v1">
            <gpxtpx:hr>108</gpxtpx:hr>
          </gpxtpx:TrackPointExtension>
        </extensions>
      </trkpt>
      <trkpt lat="45.57247" lon="2.8842">
        <ele>1016</ele>
        <time>2024-05-26T10:14:20.000Z</time>
        <extensions>
          <gpxtpx:TrackPointExtension xmlns:gpxtpx="http://www.garmin.com/xmlschemas/TrackPointExtension/v1">
            <gpxtpx:hr>111</gpxtpx:hr>
          </gpxtpx:TrackPointExtension>
        </extensions>
      </trkpt>
      <trkpt lat="45.57248" lon="2.88348">
        <ele>1014.200012207</ele>
        <time>2024-05-26T10:14:25.000Z</time>
        <extensions>
          <gpxtpx:TrackPointExtension xmlns:gpxtpx="http://www.garmin.com/xmlschemas/TrackPointExtension/v1">
            <gpxtpx:hr>111</gpxtpx:hr>
          </gpxtpx:TrackPointExtension>
        </extensions>
      </trkpt>
      <trkpt lat="45.57246" lon="2.88333">
        <ele>1013.5999755859</ele>
        <time>2024-05-26T10:14:26.000Z</time>
        <extensions>
          <gpxtpx:TrackPointExtension xmlns:gpxtpx="http://www.garmin.com/xmlschemas/TrackPointExtension/v1">
            <gpxtpx:hr>111</gpxtpx:hr>
          </gpxtpx:TrackPointExtension>
        </extensions>
      </trkpt>
      <trkpt lat="45.57241" lon="2.88305">
        <ele>1013.200012207</ele>
        <time>2024-05-26T10:14:28.000Z</time>
        <extensions>
          <gpxtpx:TrackPointExtension xmlns:gpxtpx="http://www.garmin.com/xmlschemas/TrackPointExtension/v1">
            <gpxtpx:hr>112</gpxtpx:hr>
          </gpxtpx:TrackPointExtension>
        </extensions>
      </trkpt>
      <trkpt lat="45.57239" lon="2.88294">
        <ele>1013.200012207</ele>
        <time>2024-05-26T10:14:29.000Z</time>
        <extensions>
          <gpxtpx:TrackPointExtension xmlns:gpxtpx="http://www.garmin.com/xmlschemas/TrackPointExtension/v1">
            <gpxtpx:hr>114</gpxtpx:hr>
          </gpxtpx:TrackPointExtension>
        </extensions>
      </trkpt>
      <trkpt lat="45.57237" lon="2.8828">
        <ele>1012</ele>
        <time>2024-05-26T10:14:30.000Z</time>
        <extensions>
          <gpxtpx:TrackPointExtension xmlns:gpxtpx="http://www.garmin.com/xmlschemas/TrackPointExtension/v1">
            <gpxtpx:hr>113</gpxtpx:hr>
          </gpxtpx:TrackPointExtension>
        </extensions>
      </trkpt>
      <trkpt lat="45.57235" lon="2.88253">
        <ele>1010.799987793</ele>
        <time>2024-05-26T10:14:32.000Z</time>
        <extensions>
          <gpxtpx:TrackPointExtension xmlns:gpxtpx="http://www.garmin.com/xmlschemas/TrackPointExtension/v1">
            <gpxtpx:hr>112</gpxtpx:hr>
          </gpxtpx:TrackPointExtension>
        </extensions>
      </trkpt>
      <trkpt lat="45.57234" lon="2.88238">
        <ele>1010.799987793</ele>
        <time>2024-05-26T10:14:33.000Z</time>
        <extensions>
          <gpxtpx:TrackPointExtension xmlns:gpxtpx="http://www.garmin.com/xmlschemas/TrackPointExtension/v1">
            <gpxtpx:hr>111</gpxtpx:hr>
          </gpxtpx:TrackPointExtension>
        </extensions>
      </trkpt>
      <trkpt lat="45.57228" lon="2.88208">
        <ele>1009.799987793</ele>
        <time>2024-05-26T10:14:35.000Z</time>
        <extensions>
          <gpxtpx:TrackPointExtension xmlns:gpxtpx="http://www.garmin.com/xmlschemas/TrackPointExtension/v1">
            <gpxtpx:hr>110</gpxtpx:hr>
          </gpxtpx:TrackPointExtension>
        </extensions>
      </trkpt>
      <trkpt lat="45.57221" lon="2.88178">
        <ele>1008.4000244141</ele>
        <time>2024-05-26T10:14:37.000Z</time>
        <extensions>
          <gpxtpx:TrackPointExtension xmlns:gpxtpx="http://www.garmin.com/xmlschemas/TrackPointExtension/v1">
            <gpxtpx:hr>109</gpxtpx:hr>
          </gpxtpx:TrackPointExtension>
        </extensions>
      </trkpt>
      <trkpt lat="45.57206" lon="2.88142">
        <ele>1007</ele>
        <time>2024-05-26T10:14:40.000Z</time>
        <extensions>
          <gpxtpx:TrackPointExtension xmlns:gpxtpx="http://www.garmin.com/xmlschemas/TrackPointExtension/v1">
            <gpxtpx:hr>108</gpxtpx:hr>
          </gpxtpx:TrackPointExtension>
        </extensions>
      </trkpt>
      <trkpt lat="45.57203" lon="2.88128">
        <ele>1005.799987793</ele>
        <time>2024-05-26T10:14:41.000Z</time>
        <extensions>
          <gpxtpx:TrackPointExtension xmlns:gpxtpx="http://www.garmin.com/xmlschemas/TrackPointExtension/v1">
            <gpxtpx:hr>107</gpxtpx:hr>
          </gpxtpx:TrackPointExtension>
        </extensions>
      </trkpt>
      <trkpt lat="45.57201" lon="2.8812">
        <ele>1005.200012207</ele>
        <time>2024-05-26T10:14:42.000Z</time>
        <extensions>
          <gpxtpx:TrackPointExtension xmlns:gpxtpx="http://www.garmin.com/xmlschemas/TrackPointExtension/v1">
            <gpxtpx:hr>108</gpxtpx:hr>
          </gpxtpx:TrackPointExtension>
        </extensions>
      </trkpt>
      <trkpt lat="45.57199" lon="2.88108">
        <ele>1004.4000244141</ele>
        <time>2024-05-26T10:14:43.000Z</time>
        <extensions>
          <gpxtpx:TrackPointExtension xmlns:gpxtpx="http://www.garmin.com/xmlschemas/TrackPointExtension/v1">
            <gpxtpx:hr>109</gpxtpx:hr>
          </gpxtpx:TrackPointExtension>
        </extensions>
      </trkpt>
      <trkpt lat="45.572" lon="2.88088">
        <ele>1003.4000244141</ele>
        <time>2024-05-26T10:14:45.000Z</time>
        <extensions>
          <gpxtpx:TrackPointExtension xmlns:gpxtpx="http://www.garmin.com/xmlschemas/TrackPointExtension/v1">
            <gpxtpx:hr>107</gpxtpx:hr>
          </gpxtpx:TrackPointExtension>
        </extensions>
      </trkpt>
      <trkpt lat="45.57204" lon="2.8808">
        <ele>1003.4000244141</ele>
        <time>2024-05-26T10:14:46.000Z</time>
        <extensions>
          <gpxtpx:TrackPointExtension xmlns:gpxtpx="http://www.garmin.com/xmlschemas/TrackPointExtension/v1">
            <gpxtpx:hr>111</gpxtpx:hr>
          </gpxtpx:TrackPointExtension>
        </extensions>
      </trkpt>
      <trkpt lat="45.57209" lon="2.88074">
        <ele>1003.4000244141</ele>
        <time>2024-05-26T10:14:47.000Z</time>
        <extensions>
          <gpxtpx:TrackPointExtension xmlns:gpxtpx="http://www.garmin.com/xmlschemas/TrackPointExtension/v1">
            <gpxtpx:hr>110</gpxtpx:hr>
          </gpxtpx:TrackPointExtension>
        </extensions>
      </trkpt>
      <trkpt lat="45.57219" lon="2.88074">
        <ele>1003.200012207</ele>
        <time>2024-05-26T10:14:49.000Z</time>
        <extensions>
          <gpxtpx:TrackPointExtension xmlns:gpxtpx="http://www.garmin.com/xmlschemas/TrackPointExtension/v1">
            <gpxtpx:hr>108</gpxtpx:hr>
          </gpxtpx:TrackPointExtension>
        </extensions>
      </trkpt>
      <trkpt lat="45.57228" lon="2.88085">
        <ele>1002</ele>
        <time>2024-05-26T10:14:51.000Z</time>
        <extensions>
          <gpxtpx:TrackPointExtension xmlns:gpxtpx="http://www.garmin.com/xmlschemas/TrackPointExtension/v1">
            <gpxtpx:hr>109</gpxtpx:hr>
          </gpxtpx:TrackPointExtension>
        </extensions>
      </trkpt>
      <trkpt lat="45.57232" lon="2.88092">
        <ele>1001.200012207</ele>
        <time>2024-05-26T10:14:52.000Z</time>
        <extensions>
          <gpxtpx:TrackPointExtension xmlns:gpxtpx="http://www.garmin.com/xmlschemas/TrackPointExtension/v1">
            <gpxtpx:hr>109</gpxtpx:hr>
          </gpxtpx:TrackPointExtension>
        </extensions>
      </trkpt>
      <trkpt lat="45.57235" lon="2.88101">
        <ele>1000.5999755859</ele>
        <time>2024-05-26T10:14:53.000Z</time>
        <extensions>
          <gpxtpx:TrackPointExtension xmlns:gpxtpx="http://www.garmin.com/xmlschemas/TrackPointExtension/v1">
            <gpxtpx:hr>109</gpxtpx:hr>
          </gpxtpx:TrackPointExtension>
        </extensions>
      </trkpt>
      <trkpt lat="45.5724" lon="2.88112">
        <ele>999.59997558594</ele>
        <time>2024-05-26T10:14:54.000Z</time>
        <extensions>
          <gpxtpx:TrackPointExtension xmlns:gpxtpx="http://www.garmin.com/xmlschemas/TrackPointExtension/v1">
            <gpxtpx:hr>109</gpxtpx:hr>
          </gpxtpx:TrackPointExtension>
        </extensions>
      </trkpt>
      <trkpt lat="45.57249" lon="2.8813">
        <ele>998.59997558594</ele>
        <time>2024-05-26T10:14:56.000Z</time>
        <extensions>
          <gpxtpx:TrackPointExtension xmlns:gpxtpx="http://www.garmin.com/xmlschemas/TrackPointExtension/v1">
            <gpxtpx:hr>109</gpxtpx:hr>
          </gpxtpx:TrackPointExtension>
        </extensions>
      </trkpt>
      <trkpt lat="45.57281" lon="2.88184">
        <ele>997.79998779297</ele>
        <time>2024-05-26T10:15:01.000Z</time>
        <extensions>
          <gpxtpx:TrackPointExtension xmlns:gpxtpx="http://www.garmin.com/xmlschemas/TrackPointExtension/v1">
            <gpxtpx:hr>111</gpxtpx:hr>
          </gpxtpx:TrackPointExtension>
        </extensions>
      </trkpt>
      <trkpt lat="45.57291" lon="2.88209">
        <ele>996.79998779297</ele>
        <time>2024-05-26T10:15:03.000Z</time>
        <extensions>
          <gpxtpx:TrackPointExtension xmlns:gpxtpx="http://www.garmin.com/xmlschemas/TrackPointExtension/v1">
            <gpxtpx:hr>110</gpxtpx:hr>
          </gpxtpx:TrackPointExtension>
        </extensions>
      </trkpt>
      <trkpt lat="45.57302" lon="2.88233">
        <ele>994.79998779297</ele>
        <time>2024-05-26T10:15:05.000Z</time>
        <extensions>
          <gpxtpx:TrackPointExtension xmlns:gpxtpx="http://www.garmin.com/xmlschemas/TrackPointExtension/v1">
            <gpxtpx:hr>112</gpxtpx:hr>
          </gpxtpx:TrackPointExtension>
        </extensions>
      </trkpt>
      <trkpt lat="45.57309" lon="2.88248">
        <ele>993.79998779297</ele>
        <time>2024-05-26T10:15:06.000Z</time>
        <extensions>
          <gpxtpx:TrackPointExtension xmlns:gpxtpx="http://www.garmin.com/xmlschemas/TrackPointExtension/v1">
            <gpxtpx:hr>112</gpxtpx:hr>
          </gpxtpx:TrackPointExtension>
        </extensions>
      </trkpt>
      <trkpt lat="45.57314" lon="2.88258">
        <ele>992.40002441406</ele>
        <time>2024-05-26T10:15:07.000Z</time>
        <extensions>
          <gpxtpx:TrackPointExtension xmlns:gpxtpx="http://www.garmin.com/xmlschemas/TrackPointExtension/v1">
            <gpxtpx:hr>113</gpxtpx:hr>
          </gpxtpx:TrackPointExtension>
        </extensions>
      </trkpt>
      <trkpt lat="45.57319" lon="2.88272">
        <ele>992</ele>
        <time>2024-05-26T10:15:08.000Z</time>
        <extensions>
          <gpxtpx:TrackPointExtension xmlns:gpxtpx="http://www.garmin.com/xmlschemas/TrackPointExtension/v1">
            <gpxtpx:hr>113</gpxtpx:hr>
          </gpxtpx:TrackPointExtension>
        </extensions>
      </trkpt>
      <trkpt lat="45.57324" lon="2.88305">
        <ele>990.59997558594</ele>
        <time>2024-05-26T10:15:10.000Z</time>
        <extensions>
          <gpxtpx:TrackPointExtension xmlns:gpxtpx="http://www.garmin.com/xmlschemas/TrackPointExtension/v1">
            <gpxtpx:hr>113</gpxtpx:hr>
          </gpxtpx:TrackPointExtension>
        </extensions>
      </trkpt>
      <trkpt lat="45.57322" lon="2.88334">
        <ele>989.20001220703</ele>
        <time>2024-05-26T10:15:12.000Z</time>
        <extensions>
          <gpxtpx:TrackPointExtension xmlns:gpxtpx="http://www.garmin.com/xmlschemas/TrackPointExtension/v1">
            <gpxtpx:hr>115</gpxtpx:hr>
          </gpxtpx:TrackPointExtension>
        </extensions>
      </trkpt>
      <trkpt lat="45.5732" lon="2.8835">
        <ele>988.79998779297</ele>
        <time>2024-05-26T10:15:13.000Z</time>
        <extensions>
          <gpxtpx:TrackPointExtension xmlns:gpxtpx="http://www.garmin.com/xmlschemas/TrackPointExtension/v1">
            <gpxtpx:hr>116</gpxtpx:hr>
          </gpxtpx:TrackPointExtension>
        </extensions>
      </trkpt>
      <trkpt lat="45.5732" lon="2.88365">
        <ele>988.79998779297</ele>
        <time>2024-05-26T10:15:14.000Z</time>
        <extensions>
          <gpxtpx:TrackPointExtension xmlns:gpxtpx="http://www.garmin.com/xmlschemas/TrackPointExtension/v1">
            <gpxtpx:hr>114</gpxtpx:hr>
          </gpxtpx:TrackPointExtension>
        </extensions>
      </trkpt>
      <trkpt lat="45.57325" lon="2.88395">
        <ele>988</ele>
        <time>2024-05-26T10:15:16.000Z</time>
        <extensions>
          <gpxtpx:TrackPointExtension xmlns:gpxtpx="http://www.garmin.com/xmlschemas/TrackPointExtension/v1">
            <gpxtpx:hr>115</gpxtpx:hr>
          </gpxtpx:TrackPointExtension>
        </extensions>
      </trkpt>
      <trkpt lat="45.57332" lon="2.88424">
        <ele>986.20001220703</ele>
        <time>2024-05-26T10:15:18.000Z</time>
        <extensions>
          <gpxtpx:TrackPointExtension xmlns:gpxtpx="http://www.garmin.com/xmlschemas/TrackPointExtension/v1">
            <gpxtpx:hr>114</gpxtpx:hr>
          </gpxtpx:TrackPointExtension>
        </extensions>
      </trkpt>
      <trkpt lat="45.57336" lon="2.88438">
        <ele>985.20001220703</ele>
        <time>2024-05-26T10:15:19.000Z</time>
        <extensions>
          <gpxtpx:TrackPointExtension xmlns:gpxtpx="http://www.garmin.com/xmlschemas/TrackPointExtension/v1">
            <gpxtpx:hr>114</gpxtpx:hr>
          </gpxtpx:TrackPointExtension>
        </extensions>
      </trkpt>
      <trkpt lat="45.57344" lon="2.88469">
        <ele>983.40002441406</ele>
        <time>2024-05-26T10:15:21.000Z</time>
        <extensions>
          <gpxtpx:TrackPointExtension xmlns:gpxtpx="http://www.garmin.com/xmlschemas/TrackPointExtension/v1">
            <gpxtpx:hr>114</gpxtpx:hr>
          </gpxtpx:TrackPointExtension>
        </extensions>
      </trkpt>
      <trkpt lat="45.57349" lon="2.88487">
        <ele>981.79998779297</ele>
        <time>2024-05-26T10:15:22.000Z</time>
        <extensions>
          <gpxtpx:TrackPointExtension xmlns:gpxtpx="http://www.garmin.com/xmlschemas/TrackPointExtension/v1">
            <gpxtpx:hr>114</gpxtpx:hr>
          </gpxtpx:TrackPointExtension>
        </extensions>
      </trkpt>
      <trkpt lat="45.57358" lon="2.88513">
        <ele>981</ele>
        <time>2024-05-26T10:15:24.000Z</time>
        <extensions>
          <gpxtpx:TrackPointExtension xmlns:gpxtpx="http://www.garmin.com/xmlschemas/TrackPointExtension/v1">
            <gpxtpx:hr>114</gpxtpx:hr>
          </gpxtpx:TrackPointExtension>
        </extensions>
      </trkpt>
      <trkpt lat="45.57364" lon="2.88526">
        <ele>980.59997558594</ele>
        <time>2024-05-26T10:15:25.000Z</time>
        <extensions>
          <gpxtpx:TrackPointExtension xmlns:gpxtpx="http://www.garmin.com/xmlschemas/TrackPointExtension/v1">
            <gpxtpx:hr>114</gpxtpx:hr>
          </gpxtpx:TrackPointExtension>
        </extensions>
      </trkpt>
      <trkpt lat="45.57372" lon="2.8854">
        <ele>980.40002441406</ele>
        <time>2024-05-26T10:15:26.000Z</time>
        <extensions>
          <gpxtpx:TrackPointExtension xmlns:gpxtpx="http://www.garmin.com/xmlschemas/TrackPointExtension/v1">
            <gpxtpx:hr>114</gpxtpx:hr>
          </gpxtpx:TrackPointExtension>
        </extensions>
      </trkpt>
      <trkpt lat="45.57379" lon="2.88549">
        <ele>980</ele>
        <time>2024-05-26T10:15:27.000Z</time>
        <extensions>
          <gpxtpx:TrackPointExtension xmlns:gpxtpx="http://www.garmin.com/xmlschemas/TrackPointExtension/v1">
            <gpxtpx:hr>117</gpxtpx:hr>
          </gpxtpx:TrackPointExtension>
        </extensions>
      </trkpt>
      <trkpt lat="45.57387" lon="2.8856">
        <ele>979.40002441406</ele>
        <time>2024-05-26T10:15:28.000Z</time>
        <extensions>
          <gpxtpx:TrackPointExtension xmlns:gpxtpx="http://www.garmin.com/xmlschemas/TrackPointExtension/v1">
            <gpxtpx:hr>114</gpxtpx:hr>
          </gpxtpx:TrackPointExtension>
        </extensions>
      </trkpt>
      <trkpt lat="45.57394" lon="2.88572">
        <ele>977.20001220703</ele>
        <time>2024-05-26T10:15:29.000Z</time>
        <extensions>
          <gpxtpx:TrackPointExtension xmlns:gpxtpx="http://www.garmin.com/xmlschemas/TrackPointExtension/v1">
            <gpxtpx:hr>114</gpxtpx:hr>
          </gpxtpx:TrackPointExtension>
        </extensions>
      </trkpt>
      <trkpt lat="45.57406" lon="2.886">
        <ele>975.79998779297</ele>
        <time>2024-05-26T10:15:31.000Z</time>
        <extensions>
          <gpxtpx:TrackPointExtension xmlns:gpxtpx="http://www.garmin.com/xmlschemas/TrackPointExtension/v1">
            <gpxtpx:hr>113</gpxtpx:hr>
          </gpxtpx:TrackPointExtension>
        </extensions>
      </trkpt>
      <trkpt lat="45.57409" lon="2.88615">
        <ele>974.79998779297</ele>
        <time>2024-05-26T10:15:32.000Z</time>
        <extensions>
          <gpxtpx:TrackPointExtension xmlns:gpxtpx="http://www.garmin.com/xmlschemas/TrackPointExtension/v1">
            <gpxtpx:hr>114</gpxtpx:hr>
          </gpxtpx:TrackPointExtension>
        </extensions>
      </trkpt>
      <trkpt lat="45.5741" lon="2.88631">
        <ele>973.20001220703</ele>
        <time>2024-05-26T10:15:33.000Z</time>
        <extensions>
          <gpxtpx:TrackPointExtension xmlns:gpxtpx="http://www.garmin.com/xmlschemas/TrackPointExtension/v1">
            <gpxtpx:hr>114</gpxtpx:hr>
          </gpxtpx:TrackPointExtension>
        </extensions>
      </trkpt>
      <trkpt lat="45.57408" lon="2.88648">
        <ele>971.79998779297</ele>
        <time>2024-05-26T10:15:34.000Z</time>
        <extensions>
          <gpxtpx:TrackPointExtension xmlns:gpxtpx="http://www.garmin.com/xmlschemas/TrackPointExtension/v1">
            <gpxtpx:hr>113</gpxtpx:hr>
          </gpxtpx:TrackPointExtension>
        </extensions>
      </trkpt>
      <trkpt lat="45.57403" lon="2.88663">
        <ele>971.40002441406</ele>
        <time>2024-05-26T10:15:35.000Z</time>
        <extensions>
          <gpxtpx:TrackPointExtension xmlns:gpxtpx="http://www.garmin.com/xmlschemas/TrackPointExtension/v1">
            <gpxtpx:hr>114</gpxtpx:hr>
          </gpxtpx:TrackPointExtension>
        </extensions>
      </trkpt>
      <trkpt lat="45.57399" lon="2.88679">
        <ele>970.59997558594</ele>
        <time>2024-05-26T10:15:36.000Z</time>
        <extensions>
          <gpxtpx:TrackPointExtension xmlns:gpxtpx="http://www.garmin.com/xmlschemas/TrackPointExtension/v1">
            <gpxtpx:hr>113</gpxtpx:hr>
          </gpxtpx:TrackPointExtension>
        </extensions>
      </trkpt>
      <trkpt lat="45.57392" lon="2.88728">
        <ele>969.20001220703</ele>
        <time>2024-05-26T10:15:39.000Z</time>
        <extensions>
          <gpxtpx:TrackPointExtension xmlns:gpxtpx="http://www.garmin.com/xmlschemas/TrackPointExtension/v1">
            <gpxtpx:hr>114</gpxtpx:hr>
          </gpxtpx:TrackPointExtension>
        </extensions>
      </trkpt>
      <trkpt lat="45.57391" lon="2.88745">
        <ele>968</ele>
        <time>2024-05-26T10:15:40.000Z</time>
        <extensions>
          <gpxtpx:TrackPointExtension xmlns:gpxtpx="http://www.garmin.com/xmlschemas/TrackPointExtension/v1">
            <gpxtpx:hr>113</gpxtpx:hr>
          </gpxtpx:TrackPointExtension>
        </extensions>
      </trkpt>
      <trkpt lat="45.57391" lon="2.88762">
        <ele>967</ele>
        <time>2024-05-26T10:15:41.000Z</time>
        <extensions>
          <gpxtpx:TrackPointExtension xmlns:gpxtpx="http://www.garmin.com/xmlschemas/TrackPointExtension/v1">
            <gpxtpx:hr>115</gpxtpx:hr>
          </gpxtpx:TrackPointExtension>
        </extensions>
      </trkpt>
      <trkpt lat="45.57392" lon="2.88779">
        <ele>966.59997558594</ele>
        <time>2024-05-26T10:15:42.000Z</time>
        <extensions>
          <gpxtpx:TrackPointExtension xmlns:gpxtpx="http://www.garmin.com/xmlschemas/TrackPointExtension/v1">
            <gpxtpx:hr>115</gpxtpx:hr>
          </gpxtpx:TrackPointExtension>
        </extensions>
      </trkpt>
      <trkpt lat="45.57394" lon="2.88797">
        <ele>965.20001220703</ele>
        <time>2024-05-26T10:15:43.000Z</time>
        <extensions>
          <gpxtpx:TrackPointExtension xmlns:gpxtpx="http://www.garmin.com/xmlschemas/TrackPointExtension/v1">
            <gpxtpx:hr>116</gpxtpx:hr>
          </gpxtpx:TrackPointExtension>
        </extensions>
      </trkpt>
      <trkpt lat="45.57397" lon="2.88832">
        <ele>964.20001220703</ele>
        <time>2024-05-26T10:15:45.000Z</time>
        <extensions>
          <gpxtpx:TrackPointExtension xmlns:gpxtpx="http://www.garmin.com/xmlschemas/TrackPointExtension/v1">
            <gpxtpx:hr>117</gpxtpx:hr>
          </gpxtpx:TrackPointExtension>
        </extensions>
      </trkpt>
      <trkpt lat="45.57397" lon="2.88853">
        <ele>961.59997558594</ele>
        <time>2024-05-26T10:15:46.000Z</time>
        <extensions>
          <gpxtpx:TrackPointExtension xmlns:gpxtpx="http://www.garmin.com/xmlschemas/TrackPointExtension/v1">
            <gpxtpx:hr>117</gpxtpx:hr>
          </gpxtpx:TrackPointExtension>
        </extensions>
      </trkpt>
      <trkpt lat="45.57395" lon="2.88887">
        <ele>960.20001220703</ele>
        <time>2024-05-26T10:15:48.000Z</time>
        <extensions>
          <gpxtpx:TrackPointExtension xmlns:gpxtpx="http://www.garmin.com/xmlschemas/TrackPointExtension/v1">
            <gpxtpx:hr>116</gpxtpx:hr>
          </gpxtpx:TrackPointExtension>
        </extensions>
      </trkpt>
      <trkpt lat="45.57392" lon="2.88922">
        <ele>957.59997558594</ele>
        <time>2024-05-26T10:15:50.000Z</time>
        <extensions>
          <gpxtpx:TrackPointExtension xmlns:gpxtpx="http://www.garmin.com/xmlschemas/TrackPointExtension/v1">
            <gpxtpx:hr>116</gpxtpx:hr>
          </gpxtpx:TrackPointExtension>
        </extensions>
      </trkpt>
      <trkpt lat="45.57391" lon="2.88936">
        <ele>957.20001220703</ele>
        <time>2024-05-26T10:15:51.000Z</time>
        <extensions>
          <gpxtpx:TrackPointExtension xmlns:gpxtpx="http://www.garmin.com/xmlschemas/TrackPointExtension/v1">
            <gpxtpx:hr>116</gpxtpx:hr>
          </gpxtpx:TrackPointExtension>
        </extensions>
      </trkpt>
      <trkpt lat="45.5739" lon="2.88974">
        <ele>955.59997558594</ele>
        <time>2024-05-26T10:15:53.000Z</time>
        <extensions>
          <gpxtpx:TrackPointExtension xmlns:gpxtpx="http://www.garmin.com/xmlschemas/TrackPointExtension/v1">
            <gpxtpx:hr>115</gpxtpx:hr>
          </gpxtpx:TrackPointExtension>
        </extensions>
      </trkpt>
      <trkpt lat="45.5739" lon="2.89009">
        <ele>954.40002441406</ele>
        <time>2024-05-26T10:15:55.000Z</time>
        <extensions>
          <gpxtpx:TrackPointExtension xmlns:gpxtpx="http://www.garmin.com/xmlschemas/TrackPointExtension/v1">
            <gpxtpx:hr>114</gpxtpx:hr>
          </gpxtpx:TrackPointExtension>
        </extensions>
      </trkpt>
      <trkpt lat="45.5739" lon="2.89042">
        <ele>953.20001220703</ele>
        <time>2024-05-26T10:15:57.000Z</time>
        <extensions>
          <gpxtpx:TrackPointExtension xmlns:gpxtpx="http://www.garmin.com/xmlschemas/TrackPointExtension/v1">
            <gpxtpx:hr>115</gpxtpx:hr>
          </gpxtpx:TrackPointExtension>
        </extensions>
      </trkpt>
      <trkpt lat="45.5739" lon="2.89077">
        <ele>951.59997558594</ele>
        <time>2024-05-26T10:15:59.000Z</time>
        <extensions>
          <gpxtpx:TrackPointExtension xmlns:gpxtpx="http://www.garmin.com/xmlschemas/TrackPointExtension/v1">
            <gpxtpx:hr>114</gpxtpx:hr>
          </gpxtpx:TrackPointExtension>
        </extensions>
      </trkpt>
      <trkpt lat="45.5739" lon="2.89095">
        <ele>950.40002441406</ele>
        <time>2024-05-26T10:16:00.000Z</time>
        <extensions>
          <gpxtpx:TrackPointExtension xmlns:gpxtpx="http://www.garmin.com/xmlschemas/TrackPointExtension/v1">
            <gpxtpx:hr>113</gpxtpx:hr>
          </gpxtpx:TrackPointExtension>
        </extensions>
      </trkpt>
      <trkpt lat="45.5739" lon="2.89133">
        <ele>949.20001220703</ele>
        <time>2024-05-26T10:16:02.000Z</time>
        <extensions>
          <gpxtpx:TrackPointExtension xmlns:gpxtpx="http://www.garmin.com/xmlschemas/TrackPointExtension/v1">
            <gpxtpx:hr>114</gpxtpx:hr>
          </gpxtpx:TrackPointExtension>
        </extensions>
      </trkpt>
      <trkpt lat="45.57389" lon="2.89165">
        <ele>947.59997558594</ele>
        <time>2024-05-26T10:16:04.000Z</time>
        <extensions>
          <gpxtpx:TrackPointExtension xmlns:gpxtpx="http://www.garmin.com/xmlschemas/TrackPointExtension/v1">
            <gpxtpx:hr>113</gpxtpx:hr>
          </gpxtpx:TrackPointExtension>
        </extensions>
      </trkpt>
      <trkpt lat="45.57387" lon="2.892">
        <ele>946</ele>
        <time>2024-05-26T10:16:06.000Z</time>
        <extensions>
          <gpxtpx:TrackPointExtension xmlns:gpxtpx="http://www.garmin.com/xmlschemas/TrackPointExtension/v1">
            <gpxtpx:hr>113</gpxtpx:hr>
          </gpxtpx:TrackPointExtension>
        </extensions>
      </trkpt>
      <trkpt lat="45.57387" lon="2.89217">
        <ele>945.20001220703</ele>
        <time>2024-05-26T10:16:07.000Z</time>
        <extensions>
          <gpxtpx:TrackPointExtension xmlns:gpxtpx="http://www.garmin.com/xmlschemas/TrackPointExtension/v1">
            <gpxtpx:hr>113</gpxtpx:hr>
          </gpxtpx:TrackPointExtension>
        </extensions>
      </trkpt>
      <trkpt lat="45.57388" lon="2.89235">
        <ele>944.59997558594</ele>
        <time>2024-05-26T10:16:08.000Z</time>
        <extensions>
          <gpxtpx:TrackPointExtension xmlns:gpxtpx="http://www.garmin.com/xmlschemas/TrackPointExtension/v1">
            <gpxtpx:hr>111</gpxtpx:hr>
          </gpxtpx:TrackPointExtension>
        </extensions>
      </trkpt>
      <trkpt lat="45.5739" lon="2.89269">
        <ele>943.20001220703</ele>
        <time>2024-05-26T10:16:10.000Z</time>
        <extensions>
          <gpxtpx:TrackPointExtension xmlns:gpxtpx="http://www.garmin.com/xmlschemas/TrackPointExtension/v1">
            <gpxtpx:hr>110</gpxtpx:hr>
          </gpxtpx:TrackPointExtension>
        </extensions>
      </trkpt>
      <trkpt lat="45.57393" lon="2.89309">
        <ele>942.59997558594</ele>
        <time>2024-05-26T10:16:12.000Z</time>
        <extensions>
          <gpxtpx:TrackPointExtension xmlns:gpxtpx="http://www.garmin.com/xmlschemas/TrackPointExtension/v1">
            <gpxtpx:hr>107</gpxtpx:hr>
          </gpxtpx:TrackPointExtension>
        </extensions>
      </trkpt>
      <trkpt lat="45.57393" lon="2.89323">
        <ele>941.59997558594</ele>
        <time>2024-05-26T10:16:13.000Z</time>
        <extensions>
          <gpxtpx:TrackPointExtension xmlns:gpxtpx="http://www.garmin.com/xmlschemas/TrackPointExtension/v1">
            <gpxtpx:hr>108</gpxtpx:hr>
          </gpxtpx:TrackPointExtension>
        </extensions>
      </trkpt>
      <trkpt lat="45.57393" lon="2.89345">
        <ele>940.40002441406</ele>
        <time>2024-05-26T10:16:14.000Z</time>
        <extensions>
          <gpxtpx:TrackPointExtension xmlns:gpxtpx="http://www.garmin.com/xmlschemas/TrackPointExtension/v1">
            <gpxtpx:hr>109</gpxtpx:hr>
          </gpxtpx:TrackPointExtension>
        </extensions>
      </trkpt>
      <trkpt lat="45.57394" lon="2.89378">
        <ele>938.79998779297</ele>
        <time>2024-05-26T10:16:16.000Z</time>
        <extensions>
          <gpxtpx:TrackPointExtension xmlns:gpxtpx="http://www.garmin.com/xmlschemas/TrackPointExtension/v1">
            <gpxtpx:hr>109</gpxtpx:hr>
          </gpxtpx:TrackPointExtension>
        </extensions>
      </trkpt>
      <trkpt lat="45.57395" lon="2.89401">
        <ele>937.59997558594</ele>
        <time>2024-05-26T10:16:17.000Z</time>
        <extensions>
          <gpxtpx:TrackPointExtension xmlns:gpxtpx="http://www.garmin.com/xmlschemas/TrackPointExtension/v1">
            <gpxtpx:hr>109</gpxtpx:hr>
          </gpxtpx:TrackPointExtension>
        </extensions>
      </trkpt>
      <trkpt lat="45.57396" lon="2.89415">
        <ele>936.40002441406</ele>
        <time>2024-05-26T10:16:18.000Z</time>
        <extensions>
          <gpxtpx:TrackPointExtension xmlns:gpxtpx="http://www.garmin.com/xmlschemas/TrackPointExtension/v1">
            <gpxtpx:hr>109</gpxtpx:hr>
          </gpxtpx:TrackPointExtension>
        </extensions>
      </trkpt>
      <trkpt lat="45.574" lon="2.89452">
        <ele>935.20001220703</ele>
        <time>2024-05-26T10:16:20.000Z</time>
        <extensions>
          <gpxtpx:TrackPointExtension xmlns:gpxtpx="http://www.garmin.com/xmlschemas/TrackPointExtension/v1">
            <gpxtpx:hr>110</gpxtpx:hr>
          </gpxtpx:TrackPointExtension>
        </extensions>
      </trkpt>
      <trkpt lat="45.57404" lon="2.89489">
        <ele>934</ele>
        <time>2024-05-26T10:16:22.000Z</time>
        <extensions>
          <gpxtpx:TrackPointExtension xmlns:gpxtpx="http://www.garmin.com/xmlschemas/TrackPointExtension/v1">
            <gpxtpx:hr>110</gpxtpx:hr>
          </gpxtpx:TrackPointExtension>
        </extensions>
      </trkpt>
      <trkpt lat="45.57404" lon="2.89508">
        <ele>933</ele>
        <time>2024-05-26T10:16:23.000Z</time>
        <extensions>
          <gpxtpx:TrackPointExtension xmlns:gpxtpx="http://www.garmin.com/xmlschemas/TrackPointExtension/v1">
            <gpxtpx:hr>110</gpxtpx:hr>
          </gpxtpx:TrackPointExtension>
        </extensions>
      </trkpt>
      <trkpt lat="45.57404" lon="2.89527">
        <ele>931.40002441406</ele>
        <time>2024-05-26T10:16:24.000Z</time>
        <extensions>
          <gpxtpx:TrackPointExtension xmlns:gpxtpx="http://www.garmin.com/xmlschemas/TrackPointExtension/v1">
            <gpxtpx:hr>109</gpxtpx:hr>
          </gpxtpx:TrackPointExtension>
        </extensions>
      </trkpt>
      <trkpt lat="45.57401" lon="2.89563">
        <ele>930.20001220703</ele>
        <time>2024-05-26T10:16:26.000Z</time>
        <extensions>
          <gpxtpx:TrackPointExtension xmlns:gpxtpx="http://www.garmin.com/xmlschemas/TrackPointExtension/v1">
            <gpxtpx:hr>108</gpxtpx:hr>
          </gpxtpx:TrackPointExtension>
        </extensions>
      </trkpt>
      <trkpt lat="45.57395" lon="2.89599">
        <ele>927.59997558594</ele>
        <time>2024-05-26T10:16:28.000Z</time>
        <extensions>
          <gpxtpx:TrackPointExtension xmlns:gpxtpx="http://www.garmin.com/xmlschemas/TrackPointExtension/v1">
            <gpxtpx:hr>106</gpxtpx:hr>
          </gpxtpx:TrackPointExtension>
        </extensions>
      </trkpt>
      <trkpt lat="45.57392" lon="2.89617">
        <ele>926.40002441406</ele>
        <time>2024-05-26T10:16:29.000Z</time>
        <extensions>
          <gpxtpx:TrackPointExtension xmlns:gpxtpx="http://www.garmin.com/xmlschemas/TrackPointExtension/v1">
            <gpxtpx:hr>107</gpxtpx:hr>
          </gpxtpx:TrackPointExtension>
        </extensions>
      </trkpt>
      <trkpt lat="45.57382" lon="2.8965">
        <ele>925.40002441406</ele>
        <time>2024-05-26T10:16:31.000Z</time>
        <extensions>
          <gpxtpx:TrackPointExtension xmlns:gpxtpx="http://www.garmin.com/xmlschemas/TrackPointExtension/v1">
            <gpxtpx:hr>106</gpxtpx:hr>
          </gpxtpx:TrackPointExtension>
        </extensions>
      </trkpt>
      <trkpt lat="45.57376" lon="2.89666">
        <ele>924.59997558594</ele>
        <time>2024-05-26T10:16:32.000Z</time>
        <extensions>
          <gpxtpx:TrackPointExtension xmlns:gpxtpx="http://www.garmin.com/xmlschemas/TrackPointExtension/v1">
            <gpxtpx:hr>105</gpxtpx:hr>
          </gpxtpx:TrackPointExtension>
        </extensions>
      </trkpt>
      <trkpt lat="45.57369" lon="2.89682">
        <ele>924.40002441406</ele>
        <time>2024-05-26T10:16:33.000Z</time>
        <extensions>
          <gpxtpx:TrackPointExtension xmlns:gpxtpx="http://www.garmin.com/xmlschemas/TrackPointExtension/v1">
            <gpxtpx:hr>103</gpxtpx:hr>
          </gpxtpx:TrackPointExtension>
        </extensions>
      </trkpt>
      <trkpt lat="45.57355" lon="2.89713">
        <ele>922.79998779297</ele>
        <time>2024-05-26T10:16:35.000Z</time>
        <extensions>
          <gpxtpx:TrackPointExtension xmlns:gpxtpx="http://www.garmin.com/xmlschemas/TrackPointExtension/v1">
            <gpxtpx:hr>102</gpxtpx:hr>
          </gpxtpx:TrackPointExtension>
        </extensions>
      </trkpt>
      <trkpt lat="45.57339" lon="2.89742">
        <ele>921</ele>
        <time>2024-05-26T10:16:37.000Z</time>
        <extensions>
          <gpxtpx:TrackPointExtension xmlns:gpxtpx="http://www.garmin.com/xmlschemas/TrackPointExtension/v1">
            <gpxtpx:hr>102</gpxtpx:hr>
          </gpxtpx:TrackPointExtension>
        </extensions>
      </trkpt>
      <trkpt lat="45.57321" lon="2.89768">
        <ele>920</ele>
        <time>2024-05-26T10:16:39.000Z</time>
        <extensions>
          <gpxtpx:TrackPointExtension xmlns:gpxtpx="http://www.garmin.com/xmlschemas/TrackPointExtension/v1">
            <gpxtpx:hr>103</gpxtpx:hr>
          </gpxtpx:TrackPointExtension>
        </extensions>
      </trkpt>
      <trkpt lat="45.5731" lon="2.8978">
        <ele>918.40002441406</ele>
        <time>2024-05-26T10:16:40.000Z</time>
        <extensions>
          <gpxtpx:TrackPointExtension xmlns:gpxtpx="http://www.garmin.com/xmlschemas/TrackPointExtension/v1">
            <gpxtpx:hr>103</gpxtpx:hr>
          </gpxtpx:TrackPointExtension>
        </extensions>
      </trkpt>
      <trkpt lat="45.573" lon="2.89792">
        <ele>917.20001220703</ele>
        <time>2024-05-26T10:16:41.000Z</time>
        <extensions>
          <gpxtpx:TrackPointExtension xmlns:gpxtpx="http://www.garmin.com/xmlschemas/TrackPointExtension/v1">
            <gpxtpx:hr>104</gpxtpx:hr>
          </gpxtpx:TrackPointExtension>
        </extensions>
      </trkpt>
      <trkpt lat="45.57287" lon="2.89805">
        <ele>916</ele>
        <time>2024-05-26T10:16:42.000Z</time>
        <extensions>
          <gpxtpx:TrackPointExtension xmlns:gpxtpx="http://www.garmin.com/xmlschemas/TrackPointExtension/v1">
            <gpxtpx:hr>104</gpxtpx:hr>
          </gpxtpx:TrackPointExtension>
        </extensions>
      </trkpt>
      <trkpt lat="45.57266" lon="2.89821">
        <ele>914.79998779297</ele>
        <time>2024-05-26T10:16:44.000Z</time>
        <extensions>
          <gpxtpx:TrackPointExtension xmlns:gpxtpx="http://www.garmin.com/xmlschemas/TrackPointExtension/v1">
            <gpxtpx:hr>105</gpxtpx:hr>
          </gpxtpx:TrackPointExtension>
        </extensions>
      </trkpt>
      <trkpt lat="45.57255" lon="2.8983">
        <ele>914</ele>
        <time>2024-05-26T10:16:45.000Z</time>
        <extensions>
          <gpxtpx:TrackPointExtension xmlns:gpxtpx="http://www.garmin.com/xmlschemas/TrackPointExtension/v1">
            <gpxtpx:hr>104</gpxtpx:hr>
          </gpxtpx:TrackPointExtension>
        </extensions>
      </trkpt>
      <trkpt lat="45.57243" lon="2.89839">
        <ele>913.59997558594</ele>
        <time>2024-05-26T10:16:46.000Z</time>
        <extensions>
          <gpxtpx:TrackPointExtension xmlns:gpxtpx="http://www.garmin.com/xmlschemas/TrackPointExtension/v1">
            <gpxtpx:hr>104</gpxtpx:hr>
          </gpxtpx:TrackPointExtension>
        </extensions>
      </trkpt>
      <trkpt lat="45.57215" lon="2.89856">
        <ele>911.20001220703</ele>
        <time>2024-05-26T10:16:48.000Z</time>
        <extensions>
          <gpxtpx:TrackPointExtension xmlns:gpxtpx="http://www.garmin.com/xmlschemas/TrackPointExtension/v1">
            <gpxtpx:hr>105</gpxtpx:hr>
          </gpxtpx:TrackPointExtension>
        </extensions>
      </trkpt>
      <trkpt lat="45.57205" lon="2.89862">
        <ele>910</ele>
        <time>2024-05-26T10:16:49.000Z</time>
        <extensions>
          <gpxtpx:TrackPointExtension xmlns:gpxtpx="http://www.garmin.com/xmlschemas/TrackPointExtension/v1">
            <gpxtpx:hr>106</gpxtpx:hr>
          </gpxtpx:TrackPointExtension>
        </extensions>
      </trkpt>
      <trkpt lat="45.57193" lon="2.8987">
        <ele>909.79998779297</ele>
        <time>2024-05-26T10:16:50.000Z</time>
        <extensions>
          <gpxtpx:TrackPointExtension xmlns:gpxtpx="http://www.garmin.com/xmlschemas/TrackPointExtension/v1">
            <gpxtpx:hr>106</gpxtpx:hr>
          </gpxtpx:TrackPointExtension>
        </extensions>
      </trkpt>
      <trkpt lat="45.57169" lon="2.89887">
        <ele>908.40002441406</ele>
        <time>2024-05-26T10:16:52.000Z</time>
        <extensions>
          <gpxtpx:TrackPointExtension xmlns:gpxtpx="http://www.garmin.com/xmlschemas/TrackPointExtension/v1">
            <gpxtpx:hr>108</gpxtpx:hr>
          </gpxtpx:TrackPointExtension>
        </extensions>
      </trkpt>
      <trkpt lat="45.57157" lon="2.89896">
        <ele>907.20001220703</ele>
        <time>2024-05-26T10:16:53.000Z</time>
        <extensions>
          <gpxtpx:TrackPointExtension xmlns:gpxtpx="http://www.garmin.com/xmlschemas/TrackPointExtension/v1">
            <gpxtpx:hr>108</gpxtpx:hr>
          </gpxtpx:TrackPointExtension>
        </extensions>
      </trkpt>
      <trkpt lat="45.57146" lon="2.89905">
        <ele>905.79998779297</ele>
        <time>2024-05-26T10:16:54.000Z</time>
        <extensions>
          <gpxtpx:TrackPointExtension xmlns:gpxtpx="http://www.garmin.com/xmlschemas/TrackPointExtension/v1">
            <gpxtpx:hr>108</gpxtpx:hr>
          </gpxtpx:TrackPointExtension>
        </extensions>
      </trkpt>
      <trkpt lat="45.57124" lon="2.89924">
        <ele>904</ele>
        <time>2024-05-26T10:16:56.000Z</time>
        <extensions>
          <gpxtpx:TrackPointExtension xmlns:gpxtpx="http://www.garmin.com/xmlschemas/TrackPointExtension/v1">
            <gpxtpx:hr>108</gpxtpx:hr>
          </gpxtpx:TrackPointExtension>
        </extensions>
      </trkpt>
      <trkpt lat="45.57104" lon="2.89946">
        <ele>903.20001220703</ele>
        <time>2024-05-26T10:16:58.000Z</time>
        <extensions>
          <gpxtpx:TrackPointExtension xmlns:gpxtpx="http://www.garmin.com/xmlschemas/TrackPointExtension/v1">
            <gpxtpx:hr>109</gpxtpx:hr>
          </gpxtpx:TrackPointExtension>
        </extensions>
      </trkpt>
      <trkpt lat="45.57096" lon="2.89958">
        <ele>902.79998779297</ele>
        <time>2024-05-26T10:16:59.000Z</time>
        <extensions>
          <gpxtpx:TrackPointExtension xmlns:gpxtpx="http://www.garmin.com/xmlschemas/TrackPointExtension/v1">
            <gpxtpx:hr>109</gpxtpx:hr>
          </gpxtpx:TrackPointExtension>
        </extensions>
      </trkpt>
      <trkpt lat="45.57082" lon="2.89984">
        <ele>901.59997558594</ele>
        <time>2024-05-26T10:17:01.000Z</time>
        <extensions>
          <gpxtpx:TrackPointExtension xmlns:gpxtpx="http://www.garmin.com/xmlschemas/TrackPointExtension/v1">
            <gpxtpx:hr>112</gpxtpx:hr>
          </gpxtpx:TrackPointExtension>
        </extensions>
      </trkpt>
      <trkpt lat="45.5707" lon="2.90011">
        <ele>901</ele>
        <time>2024-05-26T10:17:03.000Z</time>
        <extensions>
          <gpxtpx:TrackPointExtension xmlns:gpxtpx="http://www.garmin.com/xmlschemas/TrackPointExtension/v1">
            <gpxtpx:hr>109</gpxtpx:hr>
          </gpxtpx:TrackPointExtension>
        </extensions>
      </trkpt>
      <trkpt lat="45.57065" lon="2.90025">
        <ele>900.59997558594</ele>
        <time>2024-05-26T10:17:04.000Z</time>
        <extensions>
          <gpxtpx:TrackPointExtension xmlns:gpxtpx="http://www.garmin.com/xmlschemas/TrackPointExtension/v1">
            <gpxtpx:hr>109</gpxtpx:hr>
          </gpxtpx:TrackPointExtension>
        </extensions>
      </trkpt>
      <trkpt lat="45.57062" lon="2.9004">
        <ele>900.20001220703</ele>
        <time>2024-05-26T10:17:05.000Z</time>
        <extensions>
          <gpxtpx:TrackPointExtension xmlns:gpxtpx="http://www.garmin.com/xmlschemas/TrackPointExtension/v1">
            <gpxtpx:hr>109</gpxtpx:hr>
          </gpxtpx:TrackPointExtension>
        </extensions>
      </trkpt>
      <trkpt lat="45.57057" lon="2.90071">
        <ele>899.59997558594</ele>
        <time>2024-05-26T10:17:07.000Z</time>
        <extensions>
          <gpxtpx:TrackPointExtension xmlns:gpxtpx="http://www.garmin.com/xmlschemas/TrackPointExtension/v1">
            <gpxtpx:hr>109</gpxtpx:hr>
          </gpxtpx:TrackPointExtension>
        </extensions>
      </trkpt>
      <trkpt lat="45.57053" lon="2.90101">
        <ele>898.79998779297</ele>
        <time>2024-05-26T10:17:09.000Z</time>
        <extensions>
          <gpxtpx:TrackPointExtension xmlns:gpxtpx="http://www.garmin.com/xmlschemas/TrackPointExtension/v1">
            <gpxtpx:hr>110</gpxtpx:hr>
          </gpxtpx:TrackPointExtension>
        </extensions>
      </trkpt>
      <trkpt lat="45.57052" lon="2.90147">
        <ele>898.59997558594</ele>
        <time>2024-05-26T10:17:12.000Z</time>
        <extensions>
          <gpxtpx:TrackPointExtension xmlns:gpxtpx="http://www.garmin.com/xmlschemas/TrackPointExtension/v1">
            <gpxtpx:hr>112</gpxtpx:hr>
          </gpxtpx:TrackPointExtension>
        </extensions>
      </trkpt>
      <trkpt lat="45.57056" lon="2.90192">
        <ele>897.79998779297</ele>
        <time>2024-05-26T10:17:15.000Z</time>
        <extensions>
          <gpxtpx:TrackPointExtension xmlns:gpxtpx="http://www.garmin.com/xmlschemas/TrackPointExtension/v1">
            <gpxtpx:hr>115</gpxtpx:hr>
          </gpxtpx:TrackPointExtension>
        </extensions>
      </trkpt>
      <trkpt lat="45.57059" lon="2.90206">
        <ele>897.59997558594</ele>
        <time>2024-05-26T10:17:16.000Z</time>
        <extensions>
          <gpxtpx:TrackPointExtension xmlns:gpxtpx="http://www.garmin.com/xmlschemas/TrackPointExtension/v1">
            <gpxtpx:hr>114</gpxtpx:hr>
          </gpxtpx:TrackPointExtension>
        </extensions>
      </trkpt>
      <trkpt lat="45.57061" lon="2.9022">
        <ele>897.20001220703</ele>
        <time>2024-05-26T10:17:17.000Z</time>
        <extensions>
          <gpxtpx:TrackPointExtension xmlns:gpxtpx="http://www.garmin.com/xmlschemas/TrackPointExtension/v1">
            <gpxtpx:hr>117</gpxtpx:hr>
          </gpxtpx:TrackPointExtension>
        </extensions>
      </trkpt>
      <trkpt lat="45.57072" lon="2.90274">
        <ele>896.59997558594</ele>
        <time>2024-05-26T10:17:21.000Z</time>
        <extensions>
          <gpxtpx:TrackPointExtension xmlns:gpxtpx="http://www.garmin.com/xmlschemas/TrackPointExtension/v1">
            <gpxtpx:hr>120</gpxtpx:hr>
          </gpxtpx:TrackPointExtension>
        </extensions>
      </trkpt>
      <trkpt lat="45.57074" lon="2.90288">
        <ele>896.40002441406</ele>
        <time>2024-05-26T10:17:22.000Z</time>
        <extensions>
          <gpxtpx:TrackPointExtension xmlns:gpxtpx="http://www.garmin.com/xmlschemas/TrackPointExtension/v1">
            <gpxtpx:hr>120</gpxtpx:hr>
          </gpxtpx:TrackPointExtension>
        </extensions>
      </trkpt>
      <trkpt lat="45.57086" lon="2.90339">
        <ele>895.20001220703</ele>
        <time>2024-05-26T10:17:26.000Z</time>
        <extensions>
          <gpxtpx:TrackPointExtension xmlns:gpxtpx="http://www.garmin.com/xmlschemas/TrackPointExtension/v1">
            <gpxtpx:hr>120</gpxtpx:hr>
          </gpxtpx:TrackPointExtension>
        </extensions>
      </trkpt>
      <trkpt lat="45.5709" lon="2.90351">
        <ele>894.40002441406</ele>
        <time>2024-05-26T10:17:27.000Z</time>
        <extensions>
          <gpxtpx:TrackPointExtension xmlns:gpxtpx="http://www.garmin.com/xmlschemas/TrackPointExtension/v1">
            <gpxtpx:hr>120</gpxtpx:hr>
          </gpxtpx:TrackPointExtension>
        </extensions>
      </trkpt>
      <trkpt lat="45.57094" lon="2.90363">
        <ele>894.40002441406</ele>
        <time>2024-05-26T10:17:28.000Z</time>
        <extensions>
          <gpxtpx:TrackPointExtension xmlns:gpxtpx="http://www.garmin.com/xmlschemas/TrackPointExtension/v1">
            <gpxtpx:hr>120</gpxtpx:hr>
          </gpxtpx:TrackPointExtension>
        </extensions>
      </trkpt>
      <trkpt lat="45.5711" lon="2.90393">
        <ele>894.79998779297</ele>
        <time>2024-05-26T10:17:31.000Z</time>
        <extensions>
          <gpxtpx:TrackPointExtension xmlns:gpxtpx="http://www.garmin.com/xmlschemas/TrackPointExtension/v1">
            <gpxtpx:hr>120</gpxtpx:hr>
          </gpxtpx:TrackPointExtension>
        </extensions>
      </trkpt>
      <trkpt lat="45.57136" lon="2.90431">
        <ele>891.79998779297</ele>
        <time>2024-05-26T10:17:35.000Z</time>
        <extensions>
          <gpxtpx:TrackPointExtension xmlns:gpxtpx="http://www.garmin.com/xmlschemas/TrackPointExtension/v1">
            <gpxtpx:hr>118</gpxtpx:hr>
          </gpxtpx:TrackPointExtension>
        </extensions>
      </trkpt>
      <trkpt lat="45.57149" lon="2.9045">
        <ele>890.59997558594</ele>
        <time>2024-05-26T10:17:37.000Z</time>
        <extensions>
          <gpxtpx:TrackPointExtension xmlns:gpxtpx="http://www.garmin.com/xmlschemas/TrackPointExtension/v1">
            <gpxtpx:hr>116</gpxtpx:hr>
          </gpxtpx:TrackPointExtension>
        </extensions>
      </trkpt>
      <trkpt lat="45.57161" lon="2.90469">
        <ele>890</ele>
        <time>2024-05-26T10:17:39.000Z</time>
        <extensions>
          <gpxtpx:TrackPointExtension xmlns:gpxtpx="http://www.garmin.com/xmlschemas/TrackPointExtension/v1">
            <gpxtpx:hr>116</gpxtpx:hr>
          </gpxtpx:TrackPointExtension>
        </extensions>
      </trkpt>
      <trkpt lat="45.57173" lon="2.90488">
        <ele>890.20001220703</ele>
        <time>2024-05-26T10:17:41.000Z</time>
        <extensions>
          <gpxtpx:TrackPointExtension xmlns:gpxtpx="http://www.garmin.com/xmlschemas/TrackPointExtension/v1">
            <gpxtpx:hr>112</gpxtpx:hr>
          </gpxtpx:TrackPointExtension>
        </extensions>
      </trkpt>
      <trkpt lat="45.57185" lon="2.90506">
        <ele>890.79998779297</ele>
        <time>2024-05-26T10:17:43.000Z</time>
        <extensions>
          <gpxtpx:TrackPointExtension xmlns:gpxtpx="http://www.garmin.com/xmlschemas/TrackPointExtension/v1">
            <gpxtpx:hr>109</gpxtpx:hr>
          </gpxtpx:TrackPointExtension>
        </extensions>
      </trkpt>
      <trkpt lat="45.57196" lon="2.90525">
        <ele>891.40002441406</ele>
        <time>2024-05-26T10:17:45.000Z</time>
        <extensions>
          <gpxtpx:TrackPointExtension xmlns:gpxtpx="http://www.garmin.com/xmlschemas/TrackPointExtension/v1">
            <gpxtpx:hr>112</gpxtpx:hr>
          </gpxtpx:TrackPointExtension>
        </extensions>
      </trkpt>
      <trkpt lat="45.57208" lon="2.90543">
        <ele>891.40002441406</ele>
        <time>2024-05-26T10:17:47.000Z</time>
        <extensions>
          <gpxtpx:TrackPointExtension xmlns:gpxtpx="http://www.garmin.com/xmlschemas/TrackPointExtension/v1">
            <gpxtpx:hr>112</gpxtpx:hr>
          </gpxtpx:TrackPointExtension>
        </extensions>
      </trkpt>
      <trkpt lat="45.57249" lon="2.90607">
        <ele>890</ele>
        <time>2024-05-26T10:17:54.000Z</time>
        <extensions>
          <gpxtpx:TrackPointExtension xmlns:gpxtpx="http://www.garmin.com/xmlschemas/TrackPointExtension/v1">
            <gpxtpx:hr>114</gpxtpx:hr>
          </gpxtpx:TrackPointExtension>
        </extensions>
      </trkpt>
      <trkpt lat="45.57256" lon="2.90615">
        <ele>889.59997558594</ele>
        <time>2024-05-26T10:17:55.000Z</time>
        <extensions>
          <gpxtpx:TrackPointExtension xmlns:gpxtpx="http://www.garmin.com/xmlschemas/TrackPointExtension/v1">
            <gpxtpx:hr>114</gpxtpx:hr>
          </gpxtpx:TrackPointExtension>
        </extensions>
      </trkpt>
      <trkpt lat="45.57263" lon="2.90623">
        <ele>889.40002441406</ele>
        <time>2024-05-26T10:17:56.000Z</time>
        <extensions>
          <gpxtpx:TrackPointExtension xmlns:gpxtpx="http://www.garmin.com/xmlschemas/TrackPointExtension/v1">
            <gpxtpx:hr>114</gpxtpx:hr>
          </gpxtpx:TrackPointExtension>
        </extensions>
      </trkpt>
      <trkpt lat="45.57308" lon="2.90674">
        <ele>888.79998779297</ele>
        <time>2024-05-26T10:18:03.000Z</time>
        <extensions>
          <gpxtpx:TrackPointExtension xmlns:gpxtpx="http://www.garmin.com/xmlschemas/TrackPointExtension/v1">
            <gpxtpx:hr>114</gpxtpx:hr>
          </gpxtpx:TrackPointExtension>
        </extensions>
      </trkpt>
      <trkpt lat="45.57315" lon="2.90682">
        <ele>888.79998779297</ele>
        <time>2024-05-26T10:18:04.000Z</time>
        <extensions>
          <gpxtpx:TrackPointExtension xmlns:gpxtpx="http://www.garmin.com/xmlschemas/TrackPointExtension/v1">
            <gpxtpx:hr>114</gpxtpx:hr>
          </gpxtpx:TrackPointExtension>
        </extensions>
      </trkpt>
      <trkpt lat="45.57334" lon="2.90707">
        <ele>888.20001220703</ele>
        <time>2024-05-26T10:18:07.000Z</time>
        <extensions>
          <gpxtpx:TrackPointExtension xmlns:gpxtpx="http://www.garmin.com/xmlschemas/TrackPointExtension/v1">
            <gpxtpx:hr>115</gpxtpx:hr>
          </gpxtpx:TrackPointExtension>
        </extensions>
      </trkpt>
      <trkpt lat="45.57349" lon="2.90732">
        <ele>888</ele>
        <time>2024-05-26T10:18:10.000Z</time>
        <extensions>
          <gpxtpx:TrackPointExtension xmlns:gpxtpx="http://www.garmin.com/xmlschemas/TrackPointExtension/v1">
            <gpxtpx:hr>117</gpxtpx:hr>
          </gpxtpx:TrackPointExtension>
        </extensions>
      </trkpt>
      <trkpt lat="45.5738" lon="2.90797">
        <ele>889</ele>
        <time>2024-05-26T10:18:17.000Z</time>
        <extensions>
          <gpxtpx:TrackPointExtension xmlns:gpxtpx="http://www.garmin.com/xmlschemas/TrackPointExtension/v1">
            <gpxtpx:hr>118</gpxtpx:hr>
          </gpxtpx:TrackPointExtension>
        </extensions>
      </trkpt>
      <trkpt lat="45.57383" lon="2.90807">
        <ele>890.79998779297</ele>
        <time>2024-05-26T10:18:18.000Z</time>
        <extensions>
          <gpxtpx:TrackPointExtension xmlns:gpxtpx="http://www.garmin.com/xmlschemas/TrackPointExtension/v1">
            <gpxtpx:hr>117</gpxtpx:hr>
          </gpxtpx:TrackPointExtension>
        </extensions>
      </trkpt>
      <trkpt lat="45.57407" lon="2.90874">
        <ele>890.40002441406</ele>
        <time>2024-05-26T10:18:25.000Z</time>
        <extensions>
          <gpxtpx:TrackPointExtension xmlns:gpxtpx="http://www.garmin.com/xmlschemas/TrackPointExtension/v1">
            <gpxtpx:hr>117</gpxtpx:hr>
          </gpxtpx:TrackPointExtension>
        </extensions>
      </trkpt>
      <trkpt lat="45.57425" lon="2.90919">
        <ele>890</ele>
        <time>2024-05-26T10:18:30.000Z</time>
        <extensions>
          <gpxtpx:TrackPointExtension xmlns:gpxtpx="http://www.garmin.com/xmlschemas/TrackPointExtension/v1">
            <gpxtpx:hr>114</gpxtpx:hr>
          </gpxtpx:TrackPointExtension>
        </extensions>
      </trkpt>
      <trkpt lat="45.57435" lon="2.90945">
        <ele>890.20001220703</ele>
        <time>2024-05-26T10:18:33.000Z</time>
        <extensions>
          <gpxtpx:TrackPointExtension xmlns:gpxtpx="http://www.garmin.com/xmlschemas/TrackPointExtension/v1">
            <gpxtpx:hr>112</gpxtpx:hr>
          </gpxtpx:TrackPointExtension>
        </extensions>
      </trkpt>
      <trkpt lat="45.57463" lon="2.91019">
        <ele>891</ele>
        <time>2024-05-26T10:18:42.000Z</time>
        <extensions>
          <gpxtpx:TrackPointExtension xmlns:gpxtpx="http://www.garmin.com/xmlschemas/TrackPointExtension/v1">
            <gpxtpx:hr>113</gpxtpx:hr>
          </gpxtpx:TrackPointExtension>
        </extensions>
      </trkpt>
      <trkpt lat="45.57479" lon="2.91056">
        <ele>891.59997558594</ele>
        <time>2024-05-26T10:18:47.000Z</time>
        <extensions>
          <gpxtpx:TrackPointExtension xmlns:gpxtpx="http://www.garmin.com/xmlschemas/TrackPointExtension/v1">
            <gpxtpx:hr>116</gpxtpx:hr>
          </gpxtpx:TrackPointExtension>
        </extensions>
      </trkpt>
      <trkpt lat="45.57482" lon="2.91063">
        <ele>891.79998779297</ele>
        <time>2024-05-26T10:18:48.000Z</time>
        <extensions>
          <gpxtpx:TrackPointExtension xmlns:gpxtpx="http://www.garmin.com/xmlschemas/TrackPointExtension/v1">
            <gpxtpx:hr>116</gpxtpx:hr>
          </gpxtpx:TrackPointExtension>
        </extensions>
      </trkpt>
      <trkpt lat="45.57487" lon="2.91077">
        <ele>891.79998779297</ele>
        <time>2024-05-26T10:18:50.000Z</time>
        <extensions>
          <gpxtpx:TrackPointExtension xmlns:gpxtpx="http://www.garmin.com/xmlschemas/TrackPointExtension/v1">
            <gpxtpx:hr>118</gpxtpx:hr>
          </gpxtpx:TrackPointExtension>
        </extensions>
      </trkpt>
      <trkpt lat="45.57499" lon="2.9111">
        <ele>893</ele>
        <time>2024-05-26T10:18:55.000Z</time>
        <extensions>
          <gpxtpx:TrackPointExtension xmlns:gpxtpx="http://www.garmin.com/xmlschemas/TrackPointExtension/v1">
            <gpxtpx:hr>119</gpxtpx:hr>
          </gpxtpx:TrackPointExtension>
        </extensions>
      </trkpt>
      <trkpt lat="45.57504" lon="2.91123">
        <ele>893.20001220703</ele>
        <time>2024-05-26T10:18:57.000Z</time>
        <extensions>
          <gpxtpx:TrackPointExtension xmlns:gpxtpx="http://www.garmin.com/xmlschemas/TrackPointExtension/v1">
            <gpxtpx:hr>116</gpxtpx:hr>
          </gpxtpx:TrackPointExtension>
        </extensions>
      </trkpt>
      <trkpt lat="45.57506" lon="2.91129">
        <ele>893.20001220703</ele>
        <time>2024-05-26T10:18:58.000Z</time>
        <extensions>
          <gpxtpx:TrackPointExtension xmlns:gpxtpx="http://www.garmin.com/xmlschemas/TrackPointExtension/v1">
            <gpxtpx:hr>119</gpxtpx:hr>
          </gpxtpx:TrackPointExtension>
        </extensions>
      </trkpt>
      <trkpt lat="45.57509" lon="2.91142">
        <ele>893.59997558594</ele>
        <time>2024-05-26T10:19:00.000Z</time>
        <extensions>
          <gpxtpx:TrackPointExtension xmlns:gpxtpx="http://www.garmin.com/xmlschemas/TrackPointExtension/v1">
            <gpxtpx:hr>119</gpxtpx:hr>
          </gpxtpx:TrackPointExtension>
        </extensions>
      </trkpt>
      <trkpt lat="45.57511" lon="2.91149">
        <ele>894</ele>
        <time>2024-05-26T10:19:01.000Z</time>
        <extensions>
          <gpxtpx:TrackPointExtension xmlns:gpxtpx="http://www.garmin.com/xmlschemas/TrackPointExtension/v1">
            <gpxtpx:hr>121</gpxtpx:hr>
          </gpxtpx:TrackPointExtension>
        </extensions>
      </trkpt>
      <trkpt lat="45.57517" lon="2.91174">
        <ele>894.59997558594</ele>
        <time>2024-05-26T10:19:05.000Z</time>
        <extensions>
          <gpxtpx:TrackPointExtension xmlns:gpxtpx="http://www.garmin.com/xmlschemas/TrackPointExtension/v1">
            <gpxtpx:hr>122</gpxtpx:hr>
          </gpxtpx:TrackPointExtension>
        </extensions>
      </trkpt>
      <trkpt lat="45.5752" lon="2.91187">
        <ele>895</ele>
        <time>2024-05-26T10:19:07.000Z</time>
        <extensions>
          <gpxtpx:TrackPointExtension xmlns:gpxtpx="http://www.garmin.com/xmlschemas/TrackPointExtension/v1">
            <gpxtpx:hr>122</gpxtpx:hr>
          </gpxtpx:TrackPointExtension>
        </extensions>
      </trkpt>
      <trkpt lat="45.5753" lon="2.91229">
        <ele>895.59997558594</ele>
        <time>2024-05-26T10:19:14.000Z</time>
        <extensions>
          <gpxtpx:TrackPointExtension xmlns:gpxtpx="http://www.garmin.com/xmlschemas/TrackPointExtension/v1">
            <gpxtpx:hr>125</gpxtpx:hr>
          </gpxtpx:TrackPointExtension>
        </extensions>
      </trkpt>
      <trkpt lat="45.57531" lon="2.91235">
        <ele>895.79998779297</ele>
        <time>2024-05-26T10:19:15.000Z</time>
        <extensions>
          <gpxtpx:TrackPointExtension xmlns:gpxtpx="http://www.garmin.com/xmlschemas/TrackPointExtension/v1">
            <gpxtpx:hr>126</gpxtpx:hr>
          </gpxtpx:TrackPointExtension>
        </extensions>
      </trkpt>
      <trkpt lat="45.57535" lon="2.91247">
        <ele>896.20001220703</ele>
        <time>2024-05-26T10:19:17.000Z</time>
        <extensions>
          <gpxtpx:TrackPointExtension xmlns:gpxtpx="http://www.garmin.com/xmlschemas/TrackPointExtension/v1">
            <gpxtpx:hr>127</gpxtpx:hr>
          </gpxtpx:TrackPointExtension>
        </extensions>
      </trkpt>
      <trkpt lat="45.57542" lon="2.91264">
        <ele>896.79998779297</ele>
        <time>2024-05-26T10:19:20.000Z</time>
        <extensions>
          <gpxtpx:TrackPointExtension xmlns:gpxtpx="http://www.garmin.com/xmlschemas/TrackPointExtension/v1">
            <gpxtpx:hr>130</gpxtpx:hr>
          </gpxtpx:TrackPointExtension>
        </extensions>
      </trkpt>
      <trkpt lat="45.57548" lon="2.91281">
        <ele>897.20001220703</ele>
        <time>2024-05-26T10:19:23.000Z</time>
        <extensions>
          <gpxtpx:TrackPointExtension xmlns:gpxtpx="http://www.garmin.com/xmlschemas/TrackPointExtension/v1">
            <gpxtpx:hr>129</gpxtpx:hr>
          </gpxtpx:TrackPointExtension>
        </extensions>
      </trkpt>
      <trkpt lat="45.57553" lon="2.91293">
        <ele>897.40002441406</ele>
        <time>2024-05-26T10:19:25.000Z</time>
        <extensions>
          <gpxtpx:TrackPointExtension xmlns:gpxtpx="http://www.garmin.com/xmlschemas/TrackPointExtension/v1">
            <gpxtpx:hr>133</gpxtpx:hr>
          </gpxtpx:TrackPointExtension>
        </extensions>
      </trkpt>
      <trkpt lat="45.57554" lon="2.913">
        <ele>897.40002441406</ele>
        <time>2024-05-26T10:19:26.000Z</time>
        <extensions>
          <gpxtpx:TrackPointExtension xmlns:gpxtpx="http://www.garmin.com/xmlschemas/TrackPointExtension/v1">
            <gpxtpx:hr>130</gpxtpx:hr>
          </gpxtpx:TrackPointExtension>
        </extensions>
      </trkpt>
      <trkpt lat="45.57559" lon="2.9132">
        <ele>897.20001220703</ele>
        <time>2024-05-26T10:19:29.000Z</time>
        <extensions>
          <gpxtpx:TrackPointExtension xmlns:gpxtpx="http://www.garmin.com/xmlschemas/TrackPointExtension/v1">
            <gpxtpx:hr>130</gpxtpx:hr>
          </gpxtpx:TrackPointExtension>
        </extensions>
      </trkpt>
      <trkpt lat="45.57565" lon="2.91368">
        <ele>896.40002441406</ele>
        <time>2024-05-26T10:19:35.000Z</time>
        <extensions>
          <gpxtpx:TrackPointExtension xmlns:gpxtpx="http://www.garmin.com/xmlschemas/TrackPointExtension/v1">
            <gpxtpx:hr>129</gpxtpx:hr>
          </gpxtpx:TrackPointExtension>
        </extensions>
      </trkpt>
      <trkpt lat="45.57565" lon="2.91385">
        <ele>896.20001220703</ele>
        <time>2024-05-26T10:19:37.000Z</time>
        <extensions>
          <gpxtpx:TrackPointExtension xmlns:gpxtpx="http://www.garmin.com/xmlschemas/TrackPointExtension/v1">
            <gpxtpx:hr>127</gpxtpx:hr>
          </gpxtpx:TrackPointExtension>
        </extensions>
      </trkpt>
      <trkpt lat="45.57567" lon="2.91413">
        <ele>895.40002441406</ele>
        <time>2024-05-26T10:19:40.000Z</time>
        <extensions>
          <gpxtpx:TrackPointExtension xmlns:gpxtpx="http://www.garmin.com/xmlschemas/TrackPointExtension/v1">
            <gpxtpx:hr>124</gpxtpx:hr>
          </gpxtpx:TrackPointExtension>
        </extensions>
      </trkpt>
      <trkpt lat="45.57568" lon="2.91423">
        <ele>895.20001220703</ele>
        <time>2024-05-26T10:19:41.000Z</time>
        <extensions>
          <gpxtpx:TrackPointExtension xmlns:gpxtpx="http://www.garmin.com/xmlschemas/TrackPointExtension/v1">
            <gpxtpx:hr>124</gpxtpx:hr>
          </gpxtpx:TrackPointExtension>
        </extensions>
      </trkpt>
      <trkpt lat="45.57569" lon="2.91434">
        <ele>894.79998779297</ele>
        <time>2024-05-26T10:19:42.000Z</time>
        <extensions>
          <gpxtpx:TrackPointExtension xmlns:gpxtpx="http://www.garmin.com/xmlschemas/TrackPointExtension/v1">
            <gpxtpx:hr>125</gpxtpx:hr>
          </gpxtpx:TrackPointExtension>
        </extensions>
      </trkpt>
      <trkpt lat="45.57569" lon="2.91465">
        <ele>893.79998779297</ele>
        <time>2024-05-26T10:19:45.000Z</time>
        <extensions>
          <gpxtpx:TrackPointExtension xmlns:gpxtpx="http://www.garmin.com/xmlschemas/TrackPointExtension/v1">
            <gpxtpx:hr>125</gpxtpx:hr>
          </gpxtpx:TrackPointExtension>
        </extensions>
      </trkpt>
      <trkpt lat="45.5757" lon="2.91486">
        <ele>893.20001220703</ele>
        <time>2024-05-26T10:19:47.000Z</time>
        <extensions>
          <gpxtpx:TrackPointExtension xmlns:gpxtpx="http://www.garmin.com/xmlschemas/TrackPointExtension/v1">
            <gpxtpx:hr>124</gpxtpx:hr>
          </gpxtpx:TrackPointExtension>
        </extensions>
      </trkpt>
      <trkpt lat="45.57571" lon="2.91508">
        <ele>892.79998779297</ele>
        <time>2024-05-26T10:19:49.000Z</time>
        <extensions>
          <gpxtpx:TrackPointExtension xmlns:gpxtpx="http://www.garmin.com/xmlschemas/TrackPointExtension/v1">
            <gpxtpx:hr>123</gpxtpx:hr>
          </gpxtpx:TrackPointExtension>
        </extensions>
      </trkpt>
      <trkpt lat="45.57573" lon="2.91541">
        <ele>891.79998779297</ele>
        <time>2024-05-26T10:19:52.000Z</time>
        <extensions>
          <gpxtpx:TrackPointExtension xmlns:gpxtpx="http://www.garmin.com/xmlschemas/TrackPointExtension/v1">
            <gpxtpx:hr>121</gpxtpx:hr>
          </gpxtpx:TrackPointExtension>
        </extensions>
      </trkpt>
      <trkpt lat="45.57573" lon="2.91552">
        <ele>891.59997558594</ele>
        <time>2024-05-26T10:19:53.000Z</time>
        <extensions>
          <gpxtpx:TrackPointExtension xmlns:gpxtpx="http://www.garmin.com/xmlschemas/TrackPointExtension/v1">
            <gpxtpx:hr>120</gpxtpx:hr>
          </gpxtpx:TrackPointExtension>
        </extensions>
      </trkpt>
      <trkpt lat="45.57567" lon="2.91596">
        <ele>890</ele>
        <time>2024-05-26T10:19:57.000Z</time>
        <extensions>
          <gpxtpx:TrackPointExtension xmlns:gpxtpx="http://www.garmin.com/xmlschemas/TrackPointExtension/v1">
            <gpxtpx:hr>118</gpxtpx:hr>
          </gpxtpx:TrackPointExtension>
        </extensions>
      </trkpt>
      <trkpt lat="45.57564" lon="2.91606">
        <ele>889.59997558594</ele>
        <time>2024-05-26T10:19:58.000Z</time>
        <extensions>
          <gpxtpx:TrackPointExtension xmlns:gpxtpx="http://www.garmin.com/xmlschemas/TrackPointExtension/v1">
            <gpxtpx:hr>119</gpxtpx:hr>
          </gpxtpx:TrackPointExtension>
        </extensions>
      </trkpt>
      <trkpt lat="45.57546" lon="2.91659">
        <ele>889.20001220703</ele>
        <time>2024-05-26T10:20:03.000Z</time>
        <extensions>
          <gpxtpx:TrackPointExtension xmlns:gpxtpx="http://www.garmin.com/xmlschemas/TrackPointExtension/v1">
            <gpxtpx:hr>116</gpxtpx:hr>
          </gpxtpx:TrackPointExtension>
        </extensions>
      </trkpt>
      <trkpt lat="45.57538" lon="2.91677">
        <ele>889.20001220703</ele>
        <time>2024-05-26T10:20:05.000Z</time>
        <extensions>
          <gpxtpx:TrackPointExtension xmlns:gpxtpx="http://www.garmin.com/xmlschemas/TrackPointExtension/v1">
            <gpxtpx:hr>116</gpxtpx:hr>
          </gpxtpx:TrackPointExtension>
        </extensions>
      </trkpt>
      <trkpt lat="45.57528" lon="2.91695">
        <ele>888.59997558594</ele>
        <time>2024-05-26T10:20:07.000Z</time>
        <extensions>
          <gpxtpx:TrackPointExtension xmlns:gpxtpx="http://www.garmin.com/xmlschemas/TrackPointExtension/v1">
            <gpxtpx:hr>115</gpxtpx:hr>
          </gpxtpx:TrackPointExtension>
        </extensions>
      </trkpt>
      <trkpt lat="45.57513" lon="2.91721">
        <ele>887.40002441406</ele>
        <time>2024-05-26T10:20:10.000Z</time>
        <extensions>
          <gpxtpx:TrackPointExtension xmlns:gpxtpx="http://www.garmin.com/xmlschemas/TrackPointExtension/v1">
            <gpxtpx:hr>115</gpxtpx:hr>
          </gpxtpx:TrackPointExtension>
        </extensions>
      </trkpt>
      <trkpt lat="45.57502" lon="2.91736">
        <ele>887.20001220703</ele>
        <time>2024-05-26T10:20:12.000Z</time>
        <extensions>
          <gpxtpx:TrackPointExtension xmlns:gpxtpx="http://www.garmin.com/xmlschemas/TrackPointExtension/v1">
            <gpxtpx:hr>114</gpxtpx:hr>
          </gpxtpx:TrackPointExtension>
        </extensions>
      </trkpt>
      <trkpt lat="45.57485" lon="2.91759">
        <ele>886.40002441406</ele>
        <time>2024-05-26T10:20:15.000Z</time>
        <extensions>
          <gpxtpx:TrackPointExtension xmlns:gpxtpx="http://www.garmin.com/xmlschemas/TrackPointExtension/v1">
            <gpxtpx:hr>113</gpxtpx:hr>
          </gpxtpx:TrackPointExtension>
        </extensions>
      </trkpt>
      <trkpt lat="45.57445" lon="2.91814">
        <ele>886</ele>
        <time>2024-05-26T10:20:22.000Z</time>
        <extensions>
          <gpxtpx:TrackPointExtension xmlns:gpxtpx="http://www.garmin.com/xmlschemas/TrackPointExtension/v1">
            <gpxtpx:hr>112</gpxtpx:hr>
          </gpxtpx:TrackPointExtension>
        </extensions>
      </trkpt>
      <trkpt lat="45.57416" lon="2.91849">
        <ele>886</ele>
        <time>2024-05-26T10:20:27.000Z</time>
        <extensions>
          <gpxtpx:TrackPointExtension xmlns:gpxtpx="http://www.garmin.com/xmlschemas/TrackPointExtension/v1">
            <gpxtpx:hr>109</gpxtpx:hr>
          </gpxtpx:TrackPointExtension>
        </extensions>
      </trkpt>
      <trkpt lat="45.57411" lon="2.91857">
        <ele>886</ele>
        <time>2024-05-26T10:20:28.000Z</time>
        <extensions>
          <gpxtpx:TrackPointExtension xmlns:gpxtpx="http://www.garmin.com/xmlschemas/TrackPointExtension/v1">
            <gpxtpx:hr>112</gpxtpx:hr>
          </gpxtpx:TrackPointExtension>
        </extensions>
      </trkpt>
      <trkpt lat="45.574" lon="2.91871">
        <ele>886.20001220703</ele>
        <time>2024-05-26T10:20:30.000Z</time>
        <extensions>
          <gpxtpx:TrackPointExtension xmlns:gpxtpx="http://www.garmin.com/xmlschemas/TrackPointExtension/v1">
            <gpxtpx:hr>113</gpxtpx:hr>
          </gpxtpx:TrackPointExtension>
        </extensions>
      </trkpt>
      <trkpt lat="45.57372" lon="2.91921">
        <ele>886</ele>
        <time>2024-05-26T10:20:36.000Z</time>
        <extensions>
          <gpxtpx:TrackPointExtension xmlns:gpxtpx="http://www.garmin.com/xmlschemas/TrackPointExtension/v1">
            <gpxtpx:hr>113</gpxtpx:hr>
          </gpxtpx:TrackPointExtension>
        </extensions>
      </trkpt>
      <trkpt lat="45.57359" lon="2.91947">
        <ele>885.59997558594</ele>
        <time>2024-05-26T10:20:39.000Z</time>
        <extensions>
          <gpxtpx:TrackPointExtension xmlns:gpxtpx="http://www.garmin.com/xmlschemas/TrackPointExtension/v1">
            <gpxtpx:hr>110</gpxtpx:hr>
          </gpxtpx:TrackPointExtension>
        </extensions>
      </trkpt>
      <trkpt lat="45.57347" lon="2.91974">
        <ele>885.40002441406</ele>
        <time>2024-05-26T10:20:42.000Z</time>
        <extensions>
          <gpxtpx:TrackPointExtension xmlns:gpxtpx="http://www.garmin.com/xmlschemas/TrackPointExtension/v1">
            <gpxtpx:hr>112</gpxtpx:hr>
          </gpxtpx:TrackPointExtension>
        </extensions>
      </trkpt>
      <trkpt lat="45.57332" lon="2.9201">
        <ele>884.79998779297</ele>
        <time>2024-05-26T10:20:46.000Z</time>
        <extensions>
          <gpxtpx:TrackPointExtension xmlns:gpxtpx="http://www.garmin.com/xmlschemas/TrackPointExtension/v1">
            <gpxtpx:hr>112</gpxtpx:hr>
          </gpxtpx:TrackPointExtension>
        </extensions>
      </trkpt>
      <trkpt lat="45.57327" lon="2.9205">
        <ele>884.79998779297</ele>
        <time>2024-05-26T10:20:50.000Z</time>
        <extensions>
          <gpxtpx:TrackPointExtension xmlns:gpxtpx="http://www.garmin.com/xmlschemas/TrackPointExtension/v1">
            <gpxtpx:hr>114</gpxtpx:hr>
          </gpxtpx:TrackPointExtension>
        </extensions>
      </trkpt>
      <trkpt lat="45.57328" lon="2.92122">
        <ele>885.20001220703</ele>
        <time>2024-05-26T10:20:57.000Z</time>
        <extensions>
          <gpxtpx:TrackPointExtension xmlns:gpxtpx="http://www.garmin.com/xmlschemas/TrackPointExtension/v1">
            <gpxtpx:hr>117</gpxtpx:hr>
          </gpxtpx:TrackPointExtension>
        </extensions>
      </trkpt>
      <trkpt lat="45.57337" lon="2.92193">
        <ele>885.20001220703</ele>
        <time>2024-05-26T10:21:04.000Z</time>
        <extensions>
          <gpxtpx:TrackPointExtension xmlns:gpxtpx="http://www.garmin.com/xmlschemas/TrackPointExtension/v1">
            <gpxtpx:hr>117</gpxtpx:hr>
          </gpxtpx:TrackPointExtension>
        </extensions>
      </trkpt>
      <trkpt lat="45.57355" lon="2.92268">
        <ele>885.20001220703</ele>
        <time>2024-05-26T10:21:12.000Z</time>
        <extensions>
          <gpxtpx:TrackPointExtension xmlns:gpxtpx="http://www.garmin.com/xmlschemas/TrackPointExtension/v1">
            <gpxtpx:hr>116</gpxtpx:hr>
          </gpxtpx:TrackPointExtension>
        </extensions>
      </trkpt>
      <trkpt lat="45.57367" lon="2.92332">
        <ele>885.40002441406</ele>
        <time>2024-05-26T10:21:19.000Z</time>
        <extensions>
          <gpxtpx:TrackPointExtension xmlns:gpxtpx="http://www.garmin.com/xmlschemas/TrackPointExtension/v1">
            <gpxtpx:hr>117</gpxtpx:hr>
          </gpxtpx:TrackPointExtension>
        </extensions>
      </trkpt>
      <trkpt lat="45.57368" lon="2.9235">
        <ele>885.59997558594</ele>
        <time>2024-05-26T10:21:21.000Z</time>
        <extensions>
          <gpxtpx:TrackPointExtension xmlns:gpxtpx="http://www.garmin.com/xmlschemas/TrackPointExtension/v1">
            <gpxtpx:hr>116</gpxtpx:hr>
          </gpxtpx:TrackPointExtension>
        </extensions>
      </trkpt>
      <trkpt lat="45.57367" lon="2.92384">
        <ele>886.20001220703</ele>
        <time>2024-05-26T10:21:25.000Z</time>
        <extensions>
          <gpxtpx:TrackPointExtension xmlns:gpxtpx="http://www.garmin.com/xmlschemas/TrackPointExtension/v1">
            <gpxtpx:hr>115</gpxtpx:hr>
          </gpxtpx:TrackPointExtension>
        </extensions>
      </trkpt>
      <trkpt lat="45.57367" lon="2.92401">
        <ele>886.40002441406</ele>
        <time>2024-05-26T10:21:27.000Z</time>
        <extensions>
          <gpxtpx:TrackPointExtension xmlns:gpxtpx="http://www.garmin.com/xmlschemas/TrackPointExtension/v1">
            <gpxtpx:hr>115</gpxtpx:hr>
          </gpxtpx:TrackPointExtension>
        </extensions>
      </trkpt>
      <trkpt lat="45.57367" lon="2.92451">
        <ele>886.79998779297</ele>
        <time>2024-05-26T10:21:33.000Z</time>
        <extensions>
          <gpxtpx:TrackPointExtension xmlns:gpxtpx="http://www.garmin.com/xmlschemas/TrackPointExtension/v1">
            <gpxtpx:hr>115</gpxtpx:hr>
          </gpxtpx:TrackPointExtension>
        </extensions>
      </trkpt>
      <trkpt lat="45.57364" lon="2.92508">
        <ele>887.40002441406</ele>
        <time>2024-05-26T10:21:40.000Z</time>
        <extensions>
          <gpxtpx:TrackPointExtension xmlns:gpxtpx="http://www.garmin.com/xmlschemas/TrackPointExtension/v1">
            <gpxtpx:hr>118</gpxtpx:hr>
          </gpxtpx:TrackPointExtension>
        </extensions>
      </trkpt>
      <trkpt lat="45.57364" lon="2.92517">
        <ele>887.40002441406</ele>
        <time>2024-05-26T10:21:41.000Z</time>
        <extensions>
          <gpxtpx:TrackPointExtension xmlns:gpxtpx="http://www.garmin.com/xmlschemas/TrackPointExtension/v1">
            <gpxtpx:hr>116</gpxtpx:hr>
          </gpxtpx:TrackPointExtension>
        </extensions>
      </trkpt>
      <trkpt lat="45.57362" lon="2.92541">
        <ele>887.59997558594</ele>
        <time>2024-05-26T10:21:44.000Z</time>
        <extensions>
          <gpxtpx:TrackPointExtension xmlns:gpxtpx="http://www.garmin.com/xmlschemas/TrackPointExtension/v1">
            <gpxtpx:hr>119</gpxtpx:hr>
          </gpxtpx:TrackPointExtension>
        </extensions>
      </trkpt>
      <trkpt lat="45.57359" lon="2.92572">
        <ele>887.79998779297</ele>
        <time>2024-05-26T10:21:48.000Z</time>
        <extensions>
          <gpxtpx:TrackPointExtension xmlns:gpxtpx="http://www.garmin.com/xmlschemas/TrackPointExtension/v1">
            <gpxtpx:hr>116</gpxtpx:hr>
          </gpxtpx:TrackPointExtension>
        </extensions>
      </trkpt>
      <trkpt lat="45.57358" lon="2.92579">
        <ele>887.79998779297</ele>
        <time>2024-05-26T10:21:49.000Z</time>
        <extensions>
          <gpxtpx:TrackPointExtension xmlns:gpxtpx="http://www.garmin.com/xmlschemas/TrackPointExtension/v1">
            <gpxtpx:hr>120</gpxtpx:hr>
          </gpxtpx:TrackPointExtension>
        </extensions>
      </trkpt>
      <trkpt lat="45.57358" lon="2.92595">
        <ele>888</ele>
        <time>2024-05-26T10:21:51.000Z</time>
        <extensions>
          <gpxtpx:TrackPointExtension xmlns:gpxtpx="http://www.garmin.com/xmlschemas/TrackPointExtension/v1">
            <gpxtpx:hr>122</gpxtpx:hr>
          </gpxtpx:TrackPointExtension>
        </extensions>
      </trkpt>
      <trkpt lat="45.57361" lon="2.92652">
        <ele>888.20001220703</ele>
        <time>2024-05-26T10:21:58.000Z</time>
        <extensions>
          <gpxtpx:TrackPointExtension xmlns:gpxtpx="http://www.garmin.com/xmlschemas/TrackPointExtension/v1">
            <gpxtpx:hr>121</gpxtpx:hr>
          </gpxtpx:TrackPointExtension>
        </extensions>
      </trkpt>
      <trkpt lat="45.57371" lon="2.92692">
        <ele>888</ele>
        <time>2024-05-26T10:22:03.000Z</time>
        <extensions>
          <gpxtpx:TrackPointExtension xmlns:gpxtpx="http://www.garmin.com/xmlschemas/TrackPointExtension/v1">
            <gpxtpx:hr>122</gpxtpx:hr>
          </gpxtpx:TrackPointExtension>
        </extensions>
      </trkpt>
      <trkpt lat="45.57374" lon="2.927">
        <ele>888</ele>
        <time>2024-05-26T10:22:04.000Z</time>
        <extensions>
          <gpxtpx:TrackPointExtension xmlns:gpxtpx="http://www.garmin.com/xmlschemas/TrackPointExtension/v1">
            <gpxtpx:hr>122</gpxtpx:hr>
          </gpxtpx:TrackPointExtension>
        </extensions>
      </trkpt>
      <trkpt lat="45.57382" lon="2.92713">
        <ele>888</ele>
        <time>2024-05-26T10:22:06.000Z</time>
        <extensions>
          <gpxtpx:TrackPointExtension xmlns:gpxtpx="http://www.garmin.com/xmlschemas/TrackPointExtension/v1">
            <gpxtpx:hr>121</gpxtpx:hr>
          </gpxtpx:TrackPointExtension>
        </extensions>
      </trkpt>
      <trkpt lat="45.57392" lon="2.92724">
        <ele>888</ele>
        <time>2024-05-26T10:22:08.000Z</time>
        <extensions>
          <gpxtpx:TrackPointExtension xmlns:gpxtpx="http://www.garmin.com/xmlschemas/TrackPointExtension/v1">
            <gpxtpx:hr>122</gpxtpx:hr>
          </gpxtpx:TrackPointExtension>
        </extensions>
      </trkpt>
      <trkpt lat="45.57412" lon="2.92744">
        <ele>888.59997558594</ele>
        <time>2024-05-26T10:22:12.000Z</time>
        <extensions>
          <gpxtpx:TrackPointExtension xmlns:gpxtpx="http://www.garmin.com/xmlschemas/TrackPointExtension/v1">
            <gpxtpx:hr>122</gpxtpx:hr>
          </gpxtpx:TrackPointExtension>
        </extensions>
      </trkpt>
      <trkpt lat="45.57425" lon="2.92758">
        <ele>888.59997558594</ele>
        <time>2024-05-26T10:22:15.000Z</time>
        <extensions>
          <gpxtpx:TrackPointExtension xmlns:gpxtpx="http://www.garmin.com/xmlschemas/TrackPointExtension/v1">
            <gpxtpx:hr>122</gpxtpx:hr>
          </gpxtpx:TrackPointExtension>
        </extensions>
      </trkpt>
      <trkpt lat="45.57429" lon="2.92764">
        <ele>888.59997558594</ele>
        <time>2024-05-26T10:22:16.000Z</time>
        <extensions>
          <gpxtpx:TrackPointExtension xmlns:gpxtpx="http://www.garmin.com/xmlschemas/TrackPointExtension/v1">
            <gpxtpx:hr>122</gpxtpx:hr>
          </gpxtpx:TrackPointExtension>
        </extensions>
      </trkpt>
      <trkpt lat="45.57436" lon="2.92778">
        <ele>888.59997558594</ele>
        <time>2024-05-26T10:22:18.000Z</time>
        <extensions>
          <gpxtpx:TrackPointExtension xmlns:gpxtpx="http://www.garmin.com/xmlschemas/TrackPointExtension/v1">
            <gpxtpx:hr>122</gpxtpx:hr>
          </gpxtpx:TrackPointExtension>
        </extensions>
      </trkpt>
      <trkpt lat="45.57442" lon="2.92793">
        <ele>888.59997558594</ele>
        <time>2024-05-26T10:22:20.000Z</time>
        <extensions>
          <gpxtpx:TrackPointExtension xmlns:gpxtpx="http://www.garmin.com/xmlschemas/TrackPointExtension/v1">
            <gpxtpx:hr>122</gpxtpx:hr>
          </gpxtpx:TrackPointExtension>
        </extensions>
      </trkpt>
      <trkpt lat="45.57445" lon="2.92801">
        <ele>888.59997558594</ele>
        <time>2024-05-26T10:22:21.000Z</time>
        <extensions>
          <gpxtpx:TrackPointExtension xmlns:gpxtpx="http://www.garmin.com/xmlschemas/TrackPointExtension/v1">
            <gpxtpx:hr>122</gpxtpx:hr>
          </gpxtpx:TrackPointExtension>
        </extensions>
      </trkpt>
      <trkpt lat="45.57454" lon="2.92811">
        <ele>888.59997558594</ele>
        <time>2024-05-26T10:22:23.000Z</time>
        <extensions>
          <gpxtpx:TrackPointExtension xmlns:gpxtpx="http://www.garmin.com/xmlschemas/TrackPointExtension/v1">
            <gpxtpx:hr>122</gpxtpx:hr>
          </gpxtpx:TrackPointExtension>
        </extensions>
      </trkpt>
      <trkpt lat="45.57476" lon="2.92814">
        <ele>888</ele>
        <time>2024-05-26T10:22:27.000Z</time>
        <extensions>
          <gpxtpx:TrackPointExtension xmlns:gpxtpx="http://www.garmin.com/xmlschemas/TrackPointExtension/v1">
            <gpxtpx:hr>124</gpxtpx:hr>
          </gpxtpx:TrackPointExtension>
        </extensions>
      </trkpt>
      <trkpt lat="45.57489" lon="2.92818">
        <ele>887.40002441406</ele>
        <time>2024-05-26T10:22:29.000Z</time>
        <extensions>
          <gpxtpx:TrackPointExtension xmlns:gpxtpx="http://www.garmin.com/xmlschemas/TrackPointExtension/v1">
            <gpxtpx:hr>123</gpxtpx:hr>
          </gpxtpx:TrackPointExtension>
        </extensions>
      </trkpt>
      <trkpt lat="45.57509" lon="2.92824">
        <ele>886.79998779297</ele>
        <time>2024-05-26T10:22:32.000Z</time>
        <extensions>
          <gpxtpx:TrackPointExtension xmlns:gpxtpx="http://www.garmin.com/xmlschemas/TrackPointExtension/v1">
            <gpxtpx:hr>120</gpxtpx:hr>
          </gpxtpx:TrackPointExtension>
        </extensions>
      </trkpt>
      <trkpt lat="45.57522" lon="2.92833">
        <ele>886.40002441406</ele>
        <time>2024-05-26T10:22:34.000Z</time>
        <extensions>
          <gpxtpx:TrackPointExtension xmlns:gpxtpx="http://www.garmin.com/xmlschemas/TrackPointExtension/v1">
            <gpxtpx:hr>119</gpxtpx:hr>
          </gpxtpx:TrackPointExtension>
        </extensions>
      </trkpt>
      <trkpt lat="45.57528" lon="2.92839">
        <ele>886.20001220703</ele>
        <time>2024-05-26T10:22:35.000Z</time>
        <extensions>
          <gpxtpx:TrackPointExtension xmlns:gpxtpx="http://www.garmin.com/xmlschemas/TrackPointExtension/v1">
            <gpxtpx:hr>119</gpxtpx:hr>
          </gpxtpx:TrackPointExtension>
        </extensions>
      </trkpt>
      <trkpt lat="45.57533" lon="2.92848">
        <ele>885.59997558594</ele>
        <time>2024-05-26T10:22:36.000Z</time>
        <extensions>
          <gpxtpx:TrackPointExtension xmlns:gpxtpx="http://www.garmin.com/xmlschemas/TrackPointExtension/v1">
            <gpxtpx:hr>118</gpxtpx:hr>
          </gpxtpx:TrackPointExtension>
        </extensions>
      </trkpt>
      <trkpt lat="45.57547" lon="2.92874">
        <ele>884.79998779297</ele>
        <time>2024-05-26T10:22:39.000Z</time>
        <extensions>
          <gpxtpx:TrackPointExtension xmlns:gpxtpx="http://www.garmin.com/xmlschemas/TrackPointExtension/v1">
            <gpxtpx:hr>118</gpxtpx:hr>
          </gpxtpx:TrackPointExtension>
        </extensions>
      </trkpt>
      <trkpt lat="45.57559" lon="2.92904">
        <ele>884</ele>
        <time>2024-05-26T10:22:42.000Z</time>
        <extensions>
          <gpxtpx:TrackPointExtension xmlns:gpxtpx="http://www.garmin.com/xmlschemas/TrackPointExtension/v1">
            <gpxtpx:hr>118</gpxtpx:hr>
          </gpxtpx:TrackPointExtension>
        </extensions>
      </trkpt>
      <trkpt lat="45.57562" lon="2.92916">
        <ele>884</ele>
        <time>2024-05-26T10:22:43.000Z</time>
        <extensions>
          <gpxtpx:TrackPointExtension xmlns:gpxtpx="http://www.garmin.com/xmlschemas/TrackPointExtension/v1">
            <gpxtpx:hr>118</gpxtpx:hr>
          </gpxtpx:TrackPointExtension>
        </extensions>
      </trkpt>
      <trkpt lat="45.57565" lon="2.92928">
        <ele>883.59997558594</ele>
        <time>2024-05-26T10:22:44.000Z</time>
        <extensions>
          <gpxtpx:TrackPointExtension xmlns:gpxtpx="http://www.garmin.com/xmlschemas/TrackPointExtension/v1">
            <gpxtpx:hr>118</gpxtpx:hr>
          </gpxtpx:TrackPointExtension>
        </extensions>
      </trkpt>
      <trkpt lat="45.57571" lon="2.9295">
        <ele>882.20001220703</ele>
        <time>2024-05-26T10:22:46.000Z</time>
        <extensions>
          <gpxtpx:TrackPointExtension xmlns:gpxtpx="http://www.garmin.com/xmlschemas/TrackPointExtension/v1">
            <gpxtpx:hr>118</gpxtpx:hr>
          </gpxtpx:TrackPointExtension>
        </extensions>
      </trkpt>
      <trkpt lat="45.57574" lon="2.92962">
        <ele>881.79998779297</ele>
        <time>2024-05-26T10:22:47.000Z</time>
        <extensions>
          <gpxtpx:TrackPointExtension xmlns:gpxtpx="http://www.garmin.com/xmlschemas/TrackPointExtension/v1">
            <gpxtpx:hr>118</gpxtpx:hr>
          </gpxtpx:TrackPointExtension>
        </extensions>
      </trkpt>
      <trkpt lat="45.57577" lon="2.92973">
        <ele>881.40002441406</ele>
        <time>2024-05-26T10:22:48.000Z</time>
        <extensions>
          <gpxtpx:TrackPointExtension xmlns:gpxtpx="http://www.garmin.com/xmlschemas/TrackPointExtension/v1">
            <gpxtpx:hr>117</gpxtpx:hr>
          </gpxtpx:TrackPointExtension>
        </extensions>
      </trkpt>
      <trkpt lat="45.57586" lon="2.92995">
        <ele>880.59997558594</ele>
        <time>2024-05-26T10:22:50.000Z</time>
        <extensions>
          <gpxtpx:TrackPointExtension xmlns:gpxtpx="http://www.garmin.com/xmlschemas/TrackPointExtension/v1">
            <gpxtpx:hr>115</gpxtpx:hr>
          </gpxtpx:TrackPointExtension>
        </extensions>
      </trkpt>
      <trkpt lat="45.57591" lon="2.93005">
        <ele>880</ele>
        <time>2024-05-26T10:22:51.000Z</time>
        <extensions>
          <gpxtpx:TrackPointExtension xmlns:gpxtpx="http://www.garmin.com/xmlschemas/TrackPointExtension/v1">
            <gpxtpx:hr>114</gpxtpx:hr>
          </gpxtpx:TrackPointExtension>
        </extensions>
      </trkpt>
      <trkpt lat="45.57596" lon="2.93015">
        <ele>879.40002441406</ele>
        <time>2024-05-26T10:22:52.000Z</time>
        <extensions>
          <gpxtpx:TrackPointExtension xmlns:gpxtpx="http://www.garmin.com/xmlschemas/TrackPointExtension/v1">
            <gpxtpx:hr>114</gpxtpx:hr>
          </gpxtpx:TrackPointExtension>
        </extensions>
      </trkpt>
      <trkpt lat="45.57607" lon="2.93033">
        <ele>877.79998779297</ele>
        <time>2024-05-26T10:22:54.000Z</time>
        <extensions>
          <gpxtpx:TrackPointExtension xmlns:gpxtpx="http://www.garmin.com/xmlschemas/TrackPointExtension/v1">
            <gpxtpx:hr>112</gpxtpx:hr>
          </gpxtpx:TrackPointExtension>
        </extensions>
      </trkpt>
      <trkpt lat="45.57611" lon="2.93042">
        <ele>877.20001220703</ele>
        <time>2024-05-26T10:22:55.000Z</time>
        <extensions>
          <gpxtpx:TrackPointExtension xmlns:gpxtpx="http://www.garmin.com/xmlschemas/TrackPointExtension/v1">
            <gpxtpx:hr>111</gpxtpx:hr>
          </gpxtpx:TrackPointExtension>
        </extensions>
      </trkpt>
      <trkpt lat="45.57613" lon="2.93051">
        <ele>877</ele>
        <time>2024-05-26T10:22:56.000Z</time>
        <extensions>
          <gpxtpx:TrackPointExtension xmlns:gpxtpx="http://www.garmin.com/xmlschemas/TrackPointExtension/v1">
            <gpxtpx:hr>110</gpxtpx:hr>
          </gpxtpx:TrackPointExtension>
        </extensions>
      </trkpt>
      <trkpt lat="45.57614" lon="2.9306">
        <ele>876.40002441406</ele>
        <time>2024-05-26T10:22:57.000Z</time>
        <extensions>
          <gpxtpx:TrackPointExtension xmlns:gpxtpx="http://www.garmin.com/xmlschemas/TrackPointExtension/v1">
            <gpxtpx:hr>109</gpxtpx:hr>
          </gpxtpx:TrackPointExtension>
        </extensions>
      </trkpt>
      <trkpt lat="45.57612" lon="2.93079">
        <ele>876.20001220703</ele>
        <time>2024-05-26T10:22:59.000Z</time>
        <extensions>
          <gpxtpx:TrackPointExtension xmlns:gpxtpx="http://www.garmin.com/xmlschemas/TrackPointExtension/v1">
            <gpxtpx:hr>108</gpxtpx:hr>
          </gpxtpx:TrackPointExtension>
        </extensions>
      </trkpt>
      <trkpt lat="45.57605" lon="2.93097">
        <ele>874.79998779297</ele>
        <time>2024-05-26T10:23:01.000Z</time>
        <extensions>
          <gpxtpx:TrackPointExtension xmlns:gpxtpx="http://www.garmin.com/xmlschemas/TrackPointExtension/v1">
            <gpxtpx:hr>107</gpxtpx:hr>
          </gpxtpx:TrackPointExtension>
        </extensions>
      </trkpt>
      <trkpt lat="45.57602" lon="2.93106">
        <ele>874</ele>
        <time>2024-05-26T10:23:02.000Z</time>
        <extensions>
          <gpxtpx:TrackPointExtension xmlns:gpxtpx="http://www.garmin.com/xmlschemas/TrackPointExtension/v1">
            <gpxtpx:hr>105</gpxtpx:hr>
          </gpxtpx:TrackPointExtension>
        </extensions>
      </trkpt>
      <trkpt lat="45.576" lon="2.93115">
        <ele>872.79998779297</ele>
        <time>2024-05-26T10:23:03.000Z</time>
        <extensions>
          <gpxtpx:TrackPointExtension xmlns:gpxtpx="http://www.garmin.com/xmlschemas/TrackPointExtension/v1">
            <gpxtpx:hr>107</gpxtpx:hr>
          </gpxtpx:TrackPointExtension>
        </extensions>
      </trkpt>
      <trkpt lat="45.57599" lon="2.93126">
        <ele>872.59997558594</ele>
        <time>2024-05-26T10:23:04.000Z</time>
        <extensions>
          <gpxtpx:TrackPointExtension xmlns:gpxtpx="http://www.garmin.com/xmlschemas/TrackPointExtension/v1">
            <gpxtpx:hr>107</gpxtpx:hr>
          </gpxtpx:TrackPointExtension>
        </extensions>
      </trkpt>
      <trkpt lat="45.57598" lon="2.9316">
        <ele>872</ele>
        <time>2024-05-26T10:23:07.000Z</time>
        <extensions>
          <gpxtpx:TrackPointExtension xmlns:gpxtpx="http://www.garmin.com/xmlschemas/TrackPointExtension/v1">
            <gpxtpx:hr>106</gpxtpx:hr>
          </gpxtpx:TrackPointExtension>
        </extensions>
      </trkpt>
      <trkpt lat="45.57598" lon="2.93195">
        <ele>871.79998779297</ele>
        <time>2024-05-26T10:23:10.000Z</time>
        <extensions>
          <gpxtpx:TrackPointExtension xmlns:gpxtpx="http://www.garmin.com/xmlschemas/TrackPointExtension/v1">
            <gpxtpx:hr>107</gpxtpx:hr>
          </gpxtpx:TrackPointExtension>
        </extensions>
      </trkpt>
      <trkpt lat="45.57598" lon="2.93231">
        <ele>870.20001220703</ele>
        <time>2024-05-26T10:23:13.000Z</time>
        <extensions>
          <gpxtpx:TrackPointExtension xmlns:gpxtpx="http://www.garmin.com/xmlschemas/TrackPointExtension/v1">
            <gpxtpx:hr>107</gpxtpx:hr>
          </gpxtpx:TrackPointExtension>
        </extensions>
      </trkpt>
      <trkpt lat="45.57598" lon="2.93243">
        <ele>870</ele>
        <time>2024-05-26T10:23:14.000Z</time>
        <extensions>
          <gpxtpx:TrackPointExtension xmlns:gpxtpx="http://www.garmin.com/xmlschemas/TrackPointExtension/v1">
            <gpxtpx:hr>107</gpxtpx:hr>
          </gpxtpx:TrackPointExtension>
        </extensions>
      </trkpt>
      <trkpt lat="45.57599" lon="2.93289">
        <ele>869.40002441406</ele>
        <time>2024-05-26T10:23:18.000Z</time>
        <extensions>
          <gpxtpx:TrackPointExtension xmlns:gpxtpx="http://www.garmin.com/xmlschemas/TrackPointExtension/v1">
            <gpxtpx:hr>111</gpxtpx:hr>
          </gpxtpx:TrackPointExtension>
        </extensions>
      </trkpt>
      <trkpt lat="45.57599" lon="2.93301">
        <ele>869.20001220703</ele>
        <time>2024-05-26T10:23:19.000Z</time>
        <extensions>
          <gpxtpx:TrackPointExtension xmlns:gpxtpx="http://www.garmin.com/xmlschemas/TrackPointExtension/v1">
            <gpxtpx:hr>111</gpxtpx:hr>
          </gpxtpx:TrackPointExtension>
        </extensions>
      </trkpt>
      <trkpt lat="45.57597" lon="2.93325">
        <ele>868.59997558594</ele>
        <time>2024-05-26T10:23:21.000Z</time>
        <extensions>
          <gpxtpx:TrackPointExtension xmlns:gpxtpx="http://www.garmin.com/xmlschemas/TrackPointExtension/v1">
            <gpxtpx:hr>112</gpxtpx:hr>
          </gpxtpx:TrackPointExtension>
        </extensions>
      </trkpt>
      <trkpt lat="45.57595" lon="2.93338">
        <ele>868</ele>
        <time>2024-05-26T10:23:22.000Z</time>
        <extensions>
          <gpxtpx:TrackPointExtension xmlns:gpxtpx="http://www.garmin.com/xmlschemas/TrackPointExtension/v1">
            <gpxtpx:hr>113</gpxtpx:hr>
          </gpxtpx:TrackPointExtension>
        </extensions>
      </trkpt>
      <trkpt lat="45.57592" lon="2.93349">
        <ele>867.40002441406</ele>
        <time>2024-05-26T10:23:23.000Z</time>
        <extensions>
          <gpxtpx:TrackPointExtension xmlns:gpxtpx="http://www.garmin.com/xmlschemas/TrackPointExtension/v1">
            <gpxtpx:hr>114</gpxtpx:hr>
          </gpxtpx:TrackPointExtension>
        </extensions>
      </trkpt>
      <trkpt lat="45.57588" lon="2.9336">
        <ele>867</ele>
        <time>2024-05-26T10:23:24.000Z</time>
        <extensions>
          <gpxtpx:TrackPointExtension xmlns:gpxtpx="http://www.garmin.com/xmlschemas/TrackPointExtension/v1">
            <gpxtpx:hr>113</gpxtpx:hr>
          </gpxtpx:TrackPointExtension>
        </extensions>
      </trkpt>
      <trkpt lat="45.57579" lon="2.93381">
        <ele>866</ele>
        <time>2024-05-26T10:23:26.000Z</time>
        <extensions>
          <gpxtpx:TrackPointExtension xmlns:gpxtpx="http://www.garmin.com/xmlschemas/TrackPointExtension/v1">
            <gpxtpx:hr>113</gpxtpx:hr>
          </gpxtpx:TrackPointExtension>
        </extensions>
      </trkpt>
      <trkpt lat="45.57574" lon="2.93392">
        <ele>865.59997558594</ele>
        <time>2024-05-26T10:23:27.000Z</time>
        <extensions>
          <gpxtpx:TrackPointExtension xmlns:gpxtpx="http://www.garmin.com/xmlschemas/TrackPointExtension/v1">
            <gpxtpx:hr>116</gpxtpx:hr>
          </gpxtpx:TrackPointExtension>
        </extensions>
      </trkpt>
      <trkpt lat="45.57557" lon="2.93423">
        <ele>864.79998779297</ele>
        <time>2024-05-26T10:23:30.000Z</time>
        <extensions>
          <gpxtpx:TrackPointExtension xmlns:gpxtpx="http://www.garmin.com/xmlschemas/TrackPointExtension/v1">
            <gpxtpx:hr>116</gpxtpx:hr>
          </gpxtpx:TrackPointExtension>
        </extensions>
      </trkpt>
      <trkpt lat="45.57542" lon="2.93457">
        <ele>863.40002441406</ele>
        <time>2024-05-26T10:23:33.000Z</time>
        <extensions>
          <gpxtpx:TrackPointExtension xmlns:gpxtpx="http://www.garmin.com/xmlschemas/TrackPointExtension/v1">
            <gpxtpx:hr>117</gpxtpx:hr>
          </gpxtpx:TrackPointExtension>
        </extensions>
      </trkpt>
      <trkpt lat="45.57539" lon="2.93469">
        <ele>863.20001220703</ele>
        <time>2024-05-26T10:23:34.000Z</time>
        <extensions>
          <gpxtpx:TrackPointExtension xmlns:gpxtpx="http://www.garmin.com/xmlschemas/TrackPointExtension/v1">
            <gpxtpx:hr>119</gpxtpx:hr>
          </gpxtpx:TrackPointExtension>
        </extensions>
      </trkpt>
      <trkpt lat="45.57535" lon="2.93495">
        <ele>862.20001220703</ele>
        <time>2024-05-26T10:23:36.000Z</time>
        <extensions>
          <gpxtpx:TrackPointExtension xmlns:gpxtpx="http://www.garmin.com/xmlschemas/TrackPointExtension/v1">
            <gpxtpx:hr>119</gpxtpx:hr>
          </gpxtpx:TrackPointExtension>
        </extensions>
      </trkpt>
      <trkpt lat="45.57536" lon="2.93509">
        <ele>861.20001220703</ele>
        <time>2024-05-26T10:23:37.000Z</time>
        <extensions>
          <gpxtpx:TrackPointExtension xmlns:gpxtpx="http://www.garmin.com/xmlschemas/TrackPointExtension/v1">
            <gpxtpx:hr>120</gpxtpx:hr>
          </gpxtpx:TrackPointExtension>
        </extensions>
      </trkpt>
      <trkpt lat="45.57539" lon="2.93537">
        <ele>860.40002441406</ele>
        <time>2024-05-26T10:23:39.000Z</time>
        <extensions>
          <gpxtpx:TrackPointExtension xmlns:gpxtpx="http://www.garmin.com/xmlschemas/TrackPointExtension/v1">
            <gpxtpx:hr>119</gpxtpx:hr>
          </gpxtpx:TrackPointExtension>
        </extensions>
      </trkpt>
      <trkpt lat="45.57542" lon="2.93551">
        <ele>859.79998779297</ele>
        <time>2024-05-26T10:23:40.000Z</time>
        <extensions>
          <gpxtpx:TrackPointExtension xmlns:gpxtpx="http://www.garmin.com/xmlschemas/TrackPointExtension/v1">
            <gpxtpx:hr>119</gpxtpx:hr>
          </gpxtpx:TrackPointExtension>
        </extensions>
      </trkpt>
      <trkpt lat="45.57549" lon="2.93579">
        <ele>858.40002441406</ele>
        <time>2024-05-26T10:23:42.000Z</time>
        <extensions>
          <gpxtpx:TrackPointExtension xmlns:gpxtpx="http://www.garmin.com/xmlschemas/TrackPointExtension/v1">
            <gpxtpx:hr>118</gpxtpx:hr>
          </gpxtpx:TrackPointExtension>
        </extensions>
      </trkpt>
      <trkpt lat="45.57553" lon="2.93593">
        <ele>857.79998779297</ele>
        <time>2024-05-26T10:23:43.000Z</time>
        <extensions>
          <gpxtpx:TrackPointExtension xmlns:gpxtpx="http://www.garmin.com/xmlschemas/TrackPointExtension/v1">
            <gpxtpx:hr>118</gpxtpx:hr>
          </gpxtpx:TrackPointExtension>
        </extensions>
      </trkpt>
      <trkpt lat="45.57556" lon="2.93607">
        <ele>857</ele>
        <time>2024-05-26T10:23:44.000Z</time>
        <extensions>
          <gpxtpx:TrackPointExtension xmlns:gpxtpx="http://www.garmin.com/xmlschemas/TrackPointExtension/v1">
            <gpxtpx:hr>118</gpxtpx:hr>
          </gpxtpx:TrackPointExtension>
        </extensions>
      </trkpt>
      <trkpt lat="45.57559" lon="2.93637">
        <ele>856.40002441406</ele>
        <time>2024-05-26T10:23:46.000Z</time>
        <extensions>
          <gpxtpx:TrackPointExtension xmlns:gpxtpx="http://www.garmin.com/xmlschemas/TrackPointExtension/v1">
            <gpxtpx:hr>117</gpxtpx:hr>
          </gpxtpx:TrackPointExtension>
        </extensions>
      </trkpt>
      <trkpt lat="45.57559" lon="2.93652">
        <ele>855.59997558594</ele>
        <time>2024-05-26T10:23:47.000Z</time>
        <extensions>
          <gpxtpx:TrackPointExtension xmlns:gpxtpx="http://www.garmin.com/xmlschemas/TrackPointExtension/v1">
            <gpxtpx:hr>117</gpxtpx:hr>
          </gpxtpx:TrackPointExtension>
        </extensions>
      </trkpt>
      <trkpt lat="45.57556" lon="2.93682">
        <ele>854.59997558594</ele>
        <time>2024-05-26T10:23:49.000Z</time>
        <extensions>
          <gpxtpx:TrackPointExtension xmlns:gpxtpx="http://www.garmin.com/xmlschemas/TrackPointExtension/v1">
            <gpxtpx:hr>116</gpxtpx:hr>
          </gpxtpx:TrackPointExtension>
        </extensions>
      </trkpt>
      <trkpt lat="45.57554" lon="2.93696">
        <ele>854.40002441406</ele>
        <time>2024-05-26T10:23:50.000Z</time>
        <extensions>
          <gpxtpx:TrackPointExtension xmlns:gpxtpx="http://www.garmin.com/xmlschemas/TrackPointExtension/v1">
            <gpxtpx:hr>115</gpxtpx:hr>
          </gpxtpx:TrackPointExtension>
        </extensions>
      </trkpt>
      <trkpt lat="45.57546" lon="2.93752">
        <ele>853.40002441406</ele>
        <time>2024-05-26T10:23:54.000Z</time>
        <extensions>
          <gpxtpx:TrackPointExtension xmlns:gpxtpx="http://www.garmin.com/xmlschemas/TrackPointExtension/v1">
            <gpxtpx:hr>113</gpxtpx:hr>
          </gpxtpx:TrackPointExtension>
        </extensions>
      </trkpt>
      <trkpt lat="45.57542" lon="2.93765">
        <ele>853</ele>
        <time>2024-05-26T10:23:55.000Z</time>
        <extensions>
          <gpxtpx:TrackPointExtension xmlns:gpxtpx="http://www.garmin.com/xmlschemas/TrackPointExtension/v1">
            <gpxtpx:hr>113</gpxtpx:hr>
          </gpxtpx:TrackPointExtension>
        </extensions>
      </trkpt>
      <trkpt lat="45.57533" lon="2.93788">
        <ele>852.20001220703</ele>
        <time>2024-05-26T10:23:57.000Z</time>
        <extensions>
          <gpxtpx:TrackPointExtension xmlns:gpxtpx="http://www.garmin.com/xmlschemas/TrackPointExtension/v1">
            <gpxtpx:hr>113</gpxtpx:hr>
          </gpxtpx:TrackPointExtension>
        </extensions>
      </trkpt>
      <trkpt lat="45.57525" lon="2.93797">
        <ele>852</ele>
        <time>2024-05-26T10:23:58.000Z</time>
        <extensions>
          <gpxtpx:TrackPointExtension xmlns:gpxtpx="http://www.garmin.com/xmlschemas/TrackPointExtension/v1">
            <gpxtpx:hr>111</gpxtpx:hr>
          </gpxtpx:TrackPointExtension>
        </extensions>
      </trkpt>
      <trkpt lat="45.57515" lon="2.93806">
        <ele>851.20001220703</ele>
        <time>2024-05-26T10:23:59.000Z</time>
        <extensions>
          <gpxtpx:TrackPointExtension xmlns:gpxtpx="http://www.garmin.com/xmlschemas/TrackPointExtension/v1">
            <gpxtpx:hr>113</gpxtpx:hr>
          </gpxtpx:TrackPointExtension>
        </extensions>
      </trkpt>
      <trkpt lat="45.57509" lon="2.93812">
        <ele>850.40002441406</ele>
        <time>2024-05-26T10:24:00.000Z</time>
        <extensions>
          <gpxtpx:TrackPointExtension xmlns:gpxtpx="http://www.garmin.com/xmlschemas/TrackPointExtension/v1">
            <gpxtpx:hr>113</gpxtpx:hr>
          </gpxtpx:TrackPointExtension>
        </extensions>
      </trkpt>
      <trkpt lat="45.57493" lon="2.93826">
        <ele>850.20001220703</ele>
        <time>2024-05-26T10:24:02.000Z</time>
        <extensions>
          <gpxtpx:TrackPointExtension xmlns:gpxtpx="http://www.garmin.com/xmlschemas/TrackPointExtension/v1">
            <gpxtpx:hr>113</gpxtpx:hr>
          </gpxtpx:TrackPointExtension>
        </extensions>
      </trkpt>
      <trkpt lat="45.57482" lon="2.93846">
        <ele>849.79998779297</ele>
        <time>2024-05-26T10:24:04.000Z</time>
        <extensions>
          <gpxtpx:TrackPointExtension xmlns:gpxtpx="http://www.garmin.com/xmlschemas/TrackPointExtension/v1">
            <gpxtpx:hr>114</gpxtpx:hr>
          </gpxtpx:TrackPointExtension>
        </extensions>
      </trkpt>
      <trkpt lat="45.57479" lon="2.93858">
        <ele>849.59997558594</ele>
        <time>2024-05-26T10:24:05.000Z</time>
        <extensions>
          <gpxtpx:TrackPointExtension xmlns:gpxtpx="http://www.garmin.com/xmlschemas/TrackPointExtension/v1">
            <gpxtpx:hr>114</gpxtpx:hr>
          </gpxtpx:TrackPointExtension>
        </extensions>
      </trkpt>
      <trkpt lat="45.57476" lon="2.9387">
        <ele>849.40002441406</ele>
        <time>2024-05-26T10:24:06.000Z</time>
        <extensions>
          <gpxtpx:TrackPointExtension xmlns:gpxtpx="http://www.garmin.com/xmlschemas/TrackPointExtension/v1">
            <gpxtpx:hr>115</gpxtpx:hr>
          </gpxtpx:TrackPointExtension>
        </extensions>
      </trkpt>
      <trkpt lat="45.57475" lon="2.93883">
        <ele>848.79998779297</ele>
        <time>2024-05-26T10:24:07.000Z</time>
        <extensions>
          <gpxtpx:TrackPointExtension xmlns:gpxtpx="http://www.garmin.com/xmlschemas/TrackPointExtension/v1">
            <gpxtpx:hr>115</gpxtpx:hr>
          </gpxtpx:TrackPointExtension>
        </extensions>
      </trkpt>
      <trkpt lat="45.57472" lon="2.93905">
        <ele>848.20001220703</ele>
        <time>2024-05-26T10:24:09.000Z</time>
        <extensions>
          <gpxtpx:TrackPointExtension xmlns:gpxtpx="http://www.garmin.com/xmlschemas/TrackPointExtension/v1">
            <gpxtpx:hr>115</gpxtpx:hr>
          </gpxtpx:TrackPointExtension>
        </extensions>
      </trkpt>
      <trkpt lat="45.57471" lon="2.93924">
        <ele>847.79998779297</ele>
        <time>2024-05-26T10:24:11.000Z</time>
        <extensions>
          <gpxtpx:TrackPointExtension xmlns:gpxtpx="http://www.garmin.com/xmlschemas/TrackPointExtension/v1">
            <gpxtpx:hr>115</gpxtpx:hr>
          </gpxtpx:TrackPointExtension>
        </extensions>
      </trkpt>
      <trkpt lat="45.57471" lon="2.93932">
        <ele>847.79998779297</ele>
        <time>2024-05-26T10:24:12.000Z</time>
        <extensions>
          <gpxtpx:TrackPointExtension xmlns:gpxtpx="http://www.garmin.com/xmlschemas/TrackPointExtension/v1">
            <gpxtpx:hr>115</gpxtpx:hr>
          </gpxtpx:TrackPointExtension>
        </extensions>
      </trkpt>
      <trkpt lat="45.57473" lon="2.93938">
        <ele>847.79998779297</ele>
        <time>2024-05-26T10:24:13.000Z</time>
        <extensions>
          <gpxtpx:TrackPointExtension xmlns:gpxtpx="http://www.garmin.com/xmlschemas/TrackPointExtension/v1">
            <gpxtpx:hr>115</gpxtpx:hr>
          </gpxtpx:TrackPointExtension>
        </extensions>
      </trkpt>
      <trkpt lat="45.5748" lon="2.93952">
        <ele>847.59997558594</ele>
        <time>2024-05-26T10:24:15.000Z</time>
        <extensions>
          <gpxtpx:TrackPointExtension xmlns:gpxtpx="http://www.garmin.com/xmlschemas/TrackPointExtension/v1">
            <gpxtpx:hr>114</gpxtpx:hr>
          </gpxtpx:TrackPointExtension>
        </extensions>
      </trkpt>
      <trkpt lat="45.57484" lon="2.9397">
        <ele>846.40002441406</ele>
        <time>2024-05-26T10:24:17.000Z</time>
        <extensions>
          <gpxtpx:TrackPointExtension xmlns:gpxtpx="http://www.garmin.com/xmlschemas/TrackPointExtension/v1">
            <gpxtpx:hr>114</gpxtpx:hr>
          </gpxtpx:TrackPointExtension>
        </extensions>
      </trkpt>
      <trkpt lat="45.57485" lon="2.9398">
        <ele>845.79998779297</ele>
        <time>2024-05-26T10:24:18.000Z</time>
        <extensions>
          <gpxtpx:TrackPointExtension xmlns:gpxtpx="http://www.garmin.com/xmlschemas/TrackPointExtension/v1">
            <gpxtpx:hr>113</gpxtpx:hr>
          </gpxtpx:TrackPointExtension>
        </extensions>
      </trkpt>
      <trkpt lat="45.57485" lon="2.94002">
        <ele>845.20001220703</ele>
        <time>2024-05-26T10:24:20.000Z</time>
        <extensions>
          <gpxtpx:TrackPointExtension xmlns:gpxtpx="http://www.garmin.com/xmlschemas/TrackPointExtension/v1">
            <gpxtpx:hr>112</gpxtpx:hr>
          </gpxtpx:TrackPointExtension>
        </extensions>
      </trkpt>
      <trkpt lat="45.57484" lon="2.94013">
        <ele>844.79998779297</ele>
        <time>2024-05-26T10:24:21.000Z</time>
        <extensions>
          <gpxtpx:TrackPointExtension xmlns:gpxtpx="http://www.garmin.com/xmlschemas/TrackPointExtension/v1">
            <gpxtpx:hr>112</gpxtpx:hr>
          </gpxtpx:TrackPointExtension>
        </extensions>
      </trkpt>
      <trkpt lat="45.57482" lon="2.94035">
        <ele>844.20001220703</ele>
        <time>2024-05-26T10:24:23.000Z</time>
        <extensions>
          <gpxtpx:TrackPointExtension xmlns:gpxtpx="http://www.garmin.com/xmlschemas/TrackPointExtension/v1">
            <gpxtpx:hr>113</gpxtpx:hr>
          </gpxtpx:TrackPointExtension>
        </extensions>
      </trkpt>
      <trkpt lat="45.57477" lon="2.94069">
        <ele>842.79998779297</ele>
        <time>2024-05-26T10:24:26.000Z</time>
        <extensions>
          <gpxtpx:TrackPointExtension xmlns:gpxtpx="http://www.garmin.com/xmlschemas/TrackPointExtension/v1">
            <gpxtpx:hr>113</gpxtpx:hr>
          </gpxtpx:TrackPointExtension>
        </extensions>
      </trkpt>
      <trkpt lat="45.57476" lon="2.9408">
        <ele>842.59997558594</ele>
        <time>2024-05-26T10:24:27.000Z</time>
        <extensions>
          <gpxtpx:TrackPointExtension xmlns:gpxtpx="http://www.garmin.com/xmlschemas/TrackPointExtension/v1">
            <gpxtpx:hr>113</gpxtpx:hr>
          </gpxtpx:TrackPointExtension>
        </extensions>
      </trkpt>
      <trkpt lat="45.57469" lon="2.94113">
        <ele>842</ele>
        <time>2024-05-26T10:24:30.000Z</time>
        <extensions>
          <gpxtpx:TrackPointExtension xmlns:gpxtpx="http://www.garmin.com/xmlschemas/TrackPointExtension/v1">
            <gpxtpx:hr>113</gpxtpx:hr>
          </gpxtpx:TrackPointExtension>
        </extensions>
      </trkpt>
      <trkpt lat="45.57466" lon="2.94124">
        <ele>841.59997558594</ele>
        <time>2024-05-26T10:24:31.000Z</time>
        <extensions>
          <gpxtpx:TrackPointExtension xmlns:gpxtpx="http://www.garmin.com/xmlschemas/TrackPointExtension/v1">
            <gpxtpx:hr>113</gpxtpx:hr>
          </gpxtpx:TrackPointExtension>
        </extensions>
      </trkpt>
      <trkpt lat="45.57462" lon="2.94133">
        <ele>841.59997558594</ele>
        <time>2024-05-26T10:24:32.000Z</time>
        <extensions>
          <gpxtpx:TrackPointExtension xmlns:gpxtpx="http://www.garmin.com/xmlschemas/TrackPointExtension/v1">
            <gpxtpx:hr>113</gpxtpx:hr>
          </gpxtpx:TrackPointExtension>
        </extensions>
      </trkpt>
      <trkpt lat="45.57438" lon="2.94177">
        <ele>840.59997558594</ele>
        <time>2024-05-26T10:24:37.000Z</time>
        <extensions>
          <gpxtpx:TrackPointExtension xmlns:gpxtpx="http://www.garmin.com/xmlschemas/TrackPointExtension/v1">
            <gpxtpx:hr>113</gpxtpx:hr>
          </gpxtpx:TrackPointExtension>
        </extensions>
      </trkpt>
      <trkpt lat="45.57424" lon="2.94202">
        <ele>840.20001220703</ele>
        <time>2024-05-26T10:24:40.000Z</time>
        <extensions>
          <gpxtpx:TrackPointExtension xmlns:gpxtpx="http://www.garmin.com/xmlschemas/TrackPointExtension/v1">
            <gpxtpx:hr>113</gpxtpx:hr>
          </gpxtpx:TrackPointExtension>
        </extensions>
      </trkpt>
      <trkpt lat="45.57417" lon="2.9422">
        <ele>839.59997558594</ele>
        <time>2024-05-26T10:24:42.000Z</time>
        <extensions>
          <gpxtpx:TrackPointExtension xmlns:gpxtpx="http://www.garmin.com/xmlschemas/TrackPointExtension/v1">
            <gpxtpx:hr>113</gpxtpx:hr>
          </gpxtpx:TrackPointExtension>
        </extensions>
      </trkpt>
      <trkpt lat="45.57416" lon="2.9423">
        <ele>839.59997558594</ele>
        <time>2024-05-26T10:24:43.000Z</time>
        <extensions>
          <gpxtpx:TrackPointExtension xmlns:gpxtpx="http://www.garmin.com/xmlschemas/TrackPointExtension/v1">
            <gpxtpx:hr>112</gpxtpx:hr>
          </gpxtpx:TrackPointExtension>
        </extensions>
      </trkpt>
      <trkpt lat="45.57416" lon="2.94241">
        <ele>839.40002441406</ele>
        <time>2024-05-26T10:24:44.000Z</time>
        <extensions>
          <gpxtpx:TrackPointExtension xmlns:gpxtpx="http://www.garmin.com/xmlschemas/TrackPointExtension/v1">
            <gpxtpx:hr>112</gpxtpx:hr>
          </gpxtpx:TrackPointExtension>
        </extensions>
      </trkpt>
      <trkpt lat="45.57417" lon="2.94251">
        <ele>839.40002441406</ele>
        <time>2024-05-26T10:24:45.000Z</time>
        <extensions>
          <gpxtpx:TrackPointExtension xmlns:gpxtpx="http://www.garmin.com/xmlschemas/TrackPointExtension/v1">
            <gpxtpx:hr>112</gpxtpx:hr>
          </gpxtpx:TrackPointExtension>
        </extensions>
      </trkpt>
      <trkpt lat="45.5742" lon="2.94261">
        <ele>839.20001220703</ele>
        <time>2024-05-26T10:24:46.000Z</time>
        <extensions>
          <gpxtpx:TrackPointExtension xmlns:gpxtpx="http://www.garmin.com/xmlschemas/TrackPointExtension/v1">
            <gpxtpx:hr>112</gpxtpx:hr>
          </gpxtpx:TrackPointExtension>
        </extensions>
      </trkpt>
      <trkpt lat="45.57427" lon="2.94277">
        <ele>839.20001220703</ele>
        <time>2024-05-26T10:24:48.000Z</time>
        <extensions>
          <gpxtpx:TrackPointExtension xmlns:gpxtpx="http://www.garmin.com/xmlschemas/TrackPointExtension/v1">
            <gpxtpx:hr>111</gpxtpx:hr>
          </gpxtpx:TrackPointExtension>
        </extensions>
      </trkpt>
      <trkpt lat="45.57432" lon="2.94284">
        <ele>839.20001220703</ele>
        <time>2024-05-26T10:24:49.000Z</time>
        <extensions>
          <gpxtpx:TrackPointExtension xmlns:gpxtpx="http://www.garmin.com/xmlschemas/TrackPointExtension/v1">
            <gpxtpx:hr>111</gpxtpx:hr>
          </gpxtpx:TrackPointExtension>
        </extensions>
      </trkpt>
      <trkpt lat="45.57436" lon="2.9429">
        <ele>839.20001220703</ele>
        <time>2024-05-26T10:24:50.000Z</time>
        <extensions>
          <gpxtpx:TrackPointExtension xmlns:gpxtpx="http://www.garmin.com/xmlschemas/TrackPointExtension/v1">
            <gpxtpx:hr>111</gpxtpx:hr>
          </gpxtpx:TrackPointExtension>
        </extensions>
      </trkpt>
      <trkpt lat="45.57453" lon="2.94304">
        <ele>839.20001220703</ele>
        <time>2024-05-26T10:24:53.000Z</time>
        <extensions>
          <gpxtpx:TrackPointExtension xmlns:gpxtpx="http://www.garmin.com/xmlschemas/TrackPointExtension/v1">
            <gpxtpx:hr>112</gpxtpx:hr>
          </gpxtpx:TrackPointExtension>
        </extensions>
      </trkpt>
      <trkpt lat="45.57486" lon="2.94337">
        <ele>839</ele>
        <time>2024-05-26T10:24:59.000Z</time>
        <extensions>
          <gpxtpx:TrackPointExtension xmlns:gpxtpx="http://www.garmin.com/xmlschemas/TrackPointExtension/v1">
            <gpxtpx:hr>114</gpxtpx:hr>
          </gpxtpx:TrackPointExtension>
        </extensions>
      </trkpt>
      <trkpt lat="45.57522" lon="2.94375">
        <ele>839</ele>
        <time>2024-05-26T10:25:05.000Z</time>
        <extensions>
          <gpxtpx:TrackPointExtension xmlns:gpxtpx="http://www.garmin.com/xmlschemas/TrackPointExtension/v1">
            <gpxtpx:hr>116</gpxtpx:hr>
          </gpxtpx:TrackPointExtension>
        </extensions>
      </trkpt>
      <trkpt lat="45.57531" lon="2.94391">
        <ele>839</ele>
        <time>2024-05-26T10:25:07.000Z</time>
        <extensions>
          <gpxtpx:TrackPointExtension xmlns:gpxtpx="http://www.garmin.com/xmlschemas/TrackPointExtension/v1">
            <gpxtpx:hr>117</gpxtpx:hr>
          </gpxtpx:TrackPointExtension>
        </extensions>
      </trkpt>
      <trkpt lat="45.57538" lon="2.94408">
        <ele>839</ele>
        <time>2024-05-26T10:25:09.000Z</time>
        <extensions>
          <gpxtpx:TrackPointExtension xmlns:gpxtpx="http://www.garmin.com/xmlschemas/TrackPointExtension/v1">
            <gpxtpx:hr>119</gpxtpx:hr>
          </gpxtpx:TrackPointExtension>
        </extensions>
      </trkpt>
      <trkpt lat="45.57557" lon="2.94465">
        <ele>839.59997558594</ele>
        <time>2024-05-26T10:25:16.000Z</time>
        <extensions>
          <gpxtpx:TrackPointExtension xmlns:gpxtpx="http://www.garmin.com/xmlschemas/TrackPointExtension/v1">
            <gpxtpx:hr>121</gpxtpx:hr>
          </gpxtpx:TrackPointExtension>
        </extensions>
      </trkpt>
      <trkpt lat="45.57559" lon="2.94472">
        <ele>839.59997558594</ele>
        <time>2024-05-26T10:25:17.000Z</time>
        <extensions>
          <gpxtpx:TrackPointExtension xmlns:gpxtpx="http://www.garmin.com/xmlschemas/TrackPointExtension/v1">
            <gpxtpx:hr>121</gpxtpx:hr>
          </gpxtpx:TrackPointExtension>
        </extensions>
      </trkpt>
      <trkpt lat="45.57563" lon="2.94488">
        <ele>839.59997558594</ele>
        <time>2024-05-26T10:25:19.000Z</time>
        <extensions>
          <gpxtpx:TrackPointExtension xmlns:gpxtpx="http://www.garmin.com/xmlschemas/TrackPointExtension/v1">
            <gpxtpx:hr>121</gpxtpx:hr>
          </gpxtpx:TrackPointExtension>
        </extensions>
      </trkpt>
      <trkpt lat="45.57564" lon="2.94505">
        <ele>839.79998779297</ele>
        <time>2024-05-26T10:25:21.000Z</time>
        <extensions>
          <gpxtpx:TrackPointExtension xmlns:gpxtpx="http://www.garmin.com/xmlschemas/TrackPointExtension/v1">
            <gpxtpx:hr>120</gpxtpx:hr>
          </gpxtpx:TrackPointExtension>
        </extensions>
      </trkpt>
      <trkpt lat="45.57557" lon="2.94561">
        <ele>839.20001220703</ele>
        <time>2024-05-26T10:25:27.000Z</time>
        <extensions>
          <gpxtpx:TrackPointExtension xmlns:gpxtpx="http://www.garmin.com/xmlschemas/TrackPointExtension/v1">
            <gpxtpx:hr>120</gpxtpx:hr>
          </gpxtpx:TrackPointExtension>
        </extensions>
      </trkpt>
      <trkpt lat="45.57548" lon="2.94601">
        <ele>838.59997558594</ele>
        <time>2024-05-26T10:25:31.000Z</time>
        <extensions>
          <gpxtpx:TrackPointExtension xmlns:gpxtpx="http://www.garmin.com/xmlschemas/TrackPointExtension/v1">
            <gpxtpx:hr>120</gpxtpx:hr>
          </gpxtpx:TrackPointExtension>
        </extensions>
      </trkpt>
      <trkpt lat="45.57545" lon="2.9462">
        <ele>837.79998779297</ele>
        <time>2024-05-26T10:25:33.000Z</time>
        <extensions>
          <gpxtpx:TrackPointExtension xmlns:gpxtpx="http://www.garmin.com/xmlschemas/TrackPointExtension/v1">
            <gpxtpx:hr>120</gpxtpx:hr>
          </gpxtpx:TrackPointExtension>
        </extensions>
      </trkpt>
      <trkpt lat="45.57545" lon="2.9463">
        <ele>837.59997558594</ele>
        <time>2024-05-26T10:25:34.000Z</time>
        <extensions>
          <gpxtpx:TrackPointExtension xmlns:gpxtpx="http://www.garmin.com/xmlschemas/TrackPointExtension/v1">
            <gpxtpx:hr>120</gpxtpx:hr>
          </gpxtpx:TrackPointExtension>
        </extensions>
      </trkpt>
      <trkpt lat="45.57548" lon="2.9466">
        <ele>836.40002441406</ele>
        <time>2024-05-26T10:25:37.000Z</time>
        <extensions>
          <gpxtpx:TrackPointExtension xmlns:gpxtpx="http://www.garmin.com/xmlschemas/TrackPointExtension/v1">
            <gpxtpx:hr>119</gpxtpx:hr>
          </gpxtpx:TrackPointExtension>
        </extensions>
      </trkpt>
      <trkpt lat="45.57558" lon="2.94715">
        <ele>835.40002441406</ele>
        <time>2024-05-26T10:25:42.000Z</time>
        <extensions>
          <gpxtpx:TrackPointExtension xmlns:gpxtpx="http://www.garmin.com/xmlschemas/TrackPointExtension/v1">
            <gpxtpx:hr>119</gpxtpx:hr>
          </gpxtpx:TrackPointExtension>
        </extensions>
      </trkpt>
      <trkpt lat="45.57561" lon="2.94726">
        <ele>835.20001220703</ele>
        <time>2024-05-26T10:25:43.000Z</time>
        <extensions>
          <gpxtpx:TrackPointExtension xmlns:gpxtpx="http://www.garmin.com/xmlschemas/TrackPointExtension/v1">
            <gpxtpx:hr>118</gpxtpx:hr>
          </gpxtpx:TrackPointExtension>
        </extensions>
      </trkpt>
      <trkpt lat="45.57571" lon="2.94746">
        <ele>834.40002441406</ele>
        <time>2024-05-26T10:25:45.000Z</time>
        <extensions>
          <gpxtpx:TrackPointExtension xmlns:gpxtpx="http://www.garmin.com/xmlschemas/TrackPointExtension/v1">
            <gpxtpx:hr>118</gpxtpx:hr>
          </gpxtpx:TrackPointExtension>
        </extensions>
      </trkpt>
      <trkpt lat="45.57597" lon="2.94776">
        <ele>833.20001220703</ele>
        <time>2024-05-26T10:25:49.000Z</time>
        <extensions>
          <gpxtpx:TrackPointExtension xmlns:gpxtpx="http://www.garmin.com/xmlschemas/TrackPointExtension/v1">
            <gpxtpx:hr>117</gpxtpx:hr>
          </gpxtpx:TrackPointExtension>
        </extensions>
      </trkpt>
      <trkpt lat="45.57602" lon="2.94785">
        <ele>833</ele>
        <time>2024-05-26T10:25:50.000Z</time>
        <extensions>
          <gpxtpx:TrackPointExtension xmlns:gpxtpx="http://www.garmin.com/xmlschemas/TrackPointExtension/v1">
            <gpxtpx:hr>117</gpxtpx:hr>
          </gpxtpx:TrackPointExtension>
        </extensions>
      </trkpt>
      <trkpt lat="45.57607" lon="2.94795">
        <ele>832.79998779297</ele>
        <time>2024-05-26T10:25:51.000Z</time>
        <extensions>
          <gpxtpx:TrackPointExtension xmlns:gpxtpx="http://www.garmin.com/xmlschemas/TrackPointExtension/v1">
            <gpxtpx:hr>117</gpxtpx:hr>
          </gpxtpx:TrackPointExtension>
        </extensions>
      </trkpt>
      <trkpt lat="45.57614" lon="2.94817">
        <ele>832.79998779297</ele>
        <time>2024-05-26T10:25:53.000Z</time>
        <extensions>
          <gpxtpx:TrackPointExtension xmlns:gpxtpx="http://www.garmin.com/xmlschemas/TrackPointExtension/v1">
            <gpxtpx:hr>117</gpxtpx:hr>
          </gpxtpx:TrackPointExtension>
        </extensions>
      </trkpt>
      <trkpt lat="45.57618" lon="2.94852">
        <ele>832</ele>
        <time>2024-05-26T10:25:56.000Z</time>
        <extensions>
          <gpxtpx:TrackPointExtension xmlns:gpxtpx="http://www.garmin.com/xmlschemas/TrackPointExtension/v1">
            <gpxtpx:hr>117</gpxtpx:hr>
          </gpxtpx:TrackPointExtension>
        </extensions>
      </trkpt>
      <trkpt lat="45.5762" lon="2.94862">
        <ele>831.79998779297</ele>
        <time>2024-05-26T10:25:57.000Z</time>
        <extensions>
          <gpxtpx:TrackPointExtension xmlns:gpxtpx="http://www.garmin.com/xmlschemas/TrackPointExtension/v1">
            <gpxtpx:hr>116</gpxtpx:hr>
          </gpxtpx:TrackPointExtension>
        </extensions>
      </trkpt>
      <trkpt lat="45.57627" lon="2.94882">
        <ele>831.20001220703</ele>
        <time>2024-05-26T10:25:59.000Z</time>
        <extensions>
          <gpxtpx:TrackPointExtension xmlns:gpxtpx="http://www.garmin.com/xmlschemas/TrackPointExtension/v1">
            <gpxtpx:hr>116</gpxtpx:hr>
          </gpxtpx:TrackPointExtension>
        </extensions>
      </trkpt>
      <trkpt lat="45.57631" lon="2.94891">
        <ele>830.59997558594</ele>
        <time>2024-05-26T10:26:00.000Z</time>
        <extensions>
          <gpxtpx:TrackPointExtension xmlns:gpxtpx="http://www.garmin.com/xmlschemas/TrackPointExtension/v1">
            <gpxtpx:hr>115</gpxtpx:hr>
          </gpxtpx:TrackPointExtension>
        </extensions>
      </trkpt>
      <trkpt lat="45.57636" lon="2.949">
        <ele>830.20001220703</ele>
        <time>2024-05-26T10:26:01.000Z</time>
        <extensions>
          <gpxtpx:TrackPointExtension xmlns:gpxtpx="http://www.garmin.com/xmlschemas/TrackPointExtension/v1">
            <gpxtpx:hr>115</gpxtpx:hr>
          </gpxtpx:TrackPointExtension>
        </extensions>
      </trkpt>
      <trkpt lat="45.57659" lon="2.94933">
        <ele>829.59997558594</ele>
        <time>2024-05-26T10:26:05.000Z</time>
        <extensions>
          <gpxtpx:TrackPointExtension xmlns:gpxtpx="http://www.garmin.com/xmlschemas/TrackPointExtension/v1">
            <gpxtpx:hr>114</gpxtpx:hr>
          </gpxtpx:TrackPointExtension>
        </extensions>
      </trkpt>
      <trkpt lat="45.5767" lon="2.94952">
        <ele>828.79998779297</ele>
        <time>2024-05-26T10:26:07.000Z</time>
        <extensions>
          <gpxtpx:TrackPointExtension xmlns:gpxtpx="http://www.garmin.com/xmlschemas/TrackPointExtension/v1">
            <gpxtpx:hr>114</gpxtpx:hr>
          </gpxtpx:TrackPointExtension>
        </extensions>
      </trkpt>
      <trkpt lat="45.57675" lon="2.94962">
        <ele>828.40002441406</ele>
        <time>2024-05-26T10:26:08.000Z</time>
        <extensions>
          <gpxtpx:TrackPointExtension xmlns:gpxtpx="http://www.garmin.com/xmlschemas/TrackPointExtension/v1">
            <gpxtpx:hr>114</gpxtpx:hr>
          </gpxtpx:TrackPointExtension>
        </extensions>
      </trkpt>
      <trkpt lat="45.57687" lon="2.94995">
        <ele>827.20001220703</ele>
        <time>2024-05-26T10:26:11.000Z</time>
        <extensions>
          <gpxtpx:TrackPointExtension xmlns:gpxtpx="http://www.garmin.com/xmlschemas/TrackPointExtension/v1">
            <gpxtpx:hr>114</gpxtpx:hr>
          </gpxtpx:TrackPointExtension>
        </extensions>
      </trkpt>
      <trkpt lat="45.57691" lon="2.95006">
        <ele>827</ele>
        <time>2024-05-26T10:26:12.000Z</time>
        <extensions>
          <gpxtpx:TrackPointExtension xmlns:gpxtpx="http://www.garmin.com/xmlschemas/TrackPointExtension/v1">
            <gpxtpx:hr>113</gpxtpx:hr>
          </gpxtpx:TrackPointExtension>
        </extensions>
      </trkpt>
      <trkpt lat="45.57697" lon="2.95029">
        <ele>826.20001220703</ele>
        <time>2024-05-26T10:26:14.000Z</time>
        <extensions>
          <gpxtpx:TrackPointExtension xmlns:gpxtpx="http://www.garmin.com/xmlschemas/TrackPointExtension/v1">
            <gpxtpx:hr>113</gpxtpx:hr>
          </gpxtpx:TrackPointExtension>
        </extensions>
      </trkpt>
      <trkpt lat="45.57712" lon="2.95074">
        <ele>825</ele>
        <time>2024-05-26T10:26:18.000Z</time>
        <extensions>
          <gpxtpx:TrackPointExtension xmlns:gpxtpx="http://www.garmin.com/xmlschemas/TrackPointExtension/v1">
            <gpxtpx:hr>113</gpxtpx:hr>
          </gpxtpx:TrackPointExtension>
        </extensions>
      </trkpt>
      <trkpt lat="45.57718" lon="2.95097">
        <ele>824.40002441406</ele>
        <time>2024-05-26T10:26:20.000Z</time>
        <extensions>
          <gpxtpx:TrackPointExtension xmlns:gpxtpx="http://www.garmin.com/xmlschemas/TrackPointExtension/v1">
            <gpxtpx:hr>113</gpxtpx:hr>
          </gpxtpx:TrackPointExtension>
        </extensions>
      </trkpt>
      <trkpt lat="45.57728" lon="2.95132">
        <ele>823.79998779297</ele>
        <time>2024-05-26T10:26:23.000Z</time>
        <extensions>
          <gpxtpx:TrackPointExtension xmlns:gpxtpx="http://www.garmin.com/xmlschemas/TrackPointExtension/v1">
            <gpxtpx:hr>113</gpxtpx:hr>
          </gpxtpx:TrackPointExtension>
        </extensions>
      </trkpt>
      <trkpt lat="45.57738" lon="2.95167">
        <ele>822.59997558594</ele>
        <time>2024-05-26T10:26:26.000Z</time>
        <extensions>
          <gpxtpx:TrackPointExtension xmlns:gpxtpx="http://www.garmin.com/xmlschemas/TrackPointExtension/v1">
            <gpxtpx:hr>113</gpxtpx:hr>
          </gpxtpx:TrackPointExtension>
        </extensions>
      </trkpt>
      <trkpt lat="45.57744" lon="2.95191">
        <ele>820.79998779297</ele>
        <time>2024-05-26T10:26:28.000Z</time>
        <extensions>
          <gpxtpx:TrackPointExtension xmlns:gpxtpx="http://www.garmin.com/xmlschemas/TrackPointExtension/v1">
            <gpxtpx:hr>114</gpxtpx:hr>
          </gpxtpx:TrackPointExtension>
        </extensions>
      </trkpt>
      <trkpt lat="45.57751" lon="2.95214">
        <ele>820.20001220703</ele>
        <time>2024-05-26T10:26:30.000Z</time>
        <extensions>
          <gpxtpx:TrackPointExtension xmlns:gpxtpx="http://www.garmin.com/xmlschemas/TrackPointExtension/v1">
            <gpxtpx:hr>114</gpxtpx:hr>
          </gpxtpx:TrackPointExtension>
        </extensions>
      </trkpt>
      <trkpt lat="45.57768" lon="2.95257">
        <ele>819.40002441406</ele>
        <time>2024-05-26T10:26:34.000Z</time>
        <extensions>
          <gpxtpx:TrackPointExtension xmlns:gpxtpx="http://www.garmin.com/xmlschemas/TrackPointExtension/v1">
            <gpxtpx:hr>115</gpxtpx:hr>
          </gpxtpx:TrackPointExtension>
        </extensions>
      </trkpt>
      <trkpt lat="45.57774" lon="2.95267">
        <ele>819</ele>
        <time>2024-05-26T10:26:35.000Z</time>
        <extensions>
          <gpxtpx:TrackPointExtension xmlns:gpxtpx="http://www.garmin.com/xmlschemas/TrackPointExtension/v1">
            <gpxtpx:hr>115</gpxtpx:hr>
          </gpxtpx:TrackPointExtension>
        </extensions>
      </trkpt>
      <trkpt lat="45.57779" lon="2.95276">
        <ele>818.79998779297</ele>
        <time>2024-05-26T10:26:36.000Z</time>
        <extensions>
          <gpxtpx:TrackPointExtension xmlns:gpxtpx="http://www.garmin.com/xmlschemas/TrackPointExtension/v1">
            <gpxtpx:hr>115</gpxtpx:hr>
          </gpxtpx:TrackPointExtension>
        </extensions>
      </trkpt>
      <trkpt lat="45.57798" lon="2.95302">
        <ele>818.40002441406</ele>
        <time>2024-05-26T10:26:39.000Z</time>
        <extensions>
          <gpxtpx:TrackPointExtension xmlns:gpxtpx="http://www.garmin.com/xmlschemas/TrackPointExtension/v1">
            <gpxtpx:hr>115</gpxtpx:hr>
          </gpxtpx:TrackPointExtension>
        </extensions>
      </trkpt>
      <trkpt lat="45.57818" lon="2.95327">
        <ele>818.20001220703</ele>
        <time>2024-05-26T10:26:42.000Z</time>
        <extensions>
          <gpxtpx:TrackPointExtension xmlns:gpxtpx="http://www.garmin.com/xmlschemas/TrackPointExtension/v1">
            <gpxtpx:hr>114</gpxtpx:hr>
          </gpxtpx:TrackPointExtension>
        </extensions>
      </trkpt>
      <trkpt lat="45.57851" lon="2.95371">
        <ele>817.20001220703</ele>
        <time>2024-05-26T10:26:47.000Z</time>
        <extensions>
          <gpxtpx:TrackPointExtension xmlns:gpxtpx="http://www.garmin.com/xmlschemas/TrackPointExtension/v1">
            <gpxtpx:hr>114</gpxtpx:hr>
          </gpxtpx:TrackPointExtension>
        </extensions>
      </trkpt>
      <trkpt lat="45.57862" lon="2.9539">
        <ele>816.20001220703</ele>
        <time>2024-05-26T10:26:49.000Z</time>
        <extensions>
          <gpxtpx:TrackPointExtension xmlns:gpxtpx="http://www.garmin.com/xmlschemas/TrackPointExtension/v1">
            <gpxtpx:hr>114</gpxtpx:hr>
          </gpxtpx:TrackPointExtension>
        </extensions>
      </trkpt>
      <trkpt lat="45.57868" lon="2.954">
        <ele>815.79998779297</ele>
        <time>2024-05-26T10:26:50.000Z</time>
        <extensions>
          <gpxtpx:TrackPointExtension xmlns:gpxtpx="http://www.garmin.com/xmlschemas/TrackPointExtension/v1">
            <gpxtpx:hr>115</gpxtpx:hr>
          </gpxtpx:TrackPointExtension>
        </extensions>
      </trkpt>
      <trkpt lat="45.57893" lon="2.95452">
        <ele>814.59997558594</ele>
        <time>2024-05-26T10:26:55.000Z</time>
        <extensions>
          <gpxtpx:TrackPointExtension xmlns:gpxtpx="http://www.garmin.com/xmlschemas/TrackPointExtension/v1">
            <gpxtpx:hr>113</gpxtpx:hr>
          </gpxtpx:TrackPointExtension>
        </extensions>
      </trkpt>
      <trkpt lat="45.57905" lon="2.95486">
        <ele>813.59997558594</ele>
        <time>2024-05-26T10:26:58.000Z</time>
        <extensions>
          <gpxtpx:TrackPointExtension xmlns:gpxtpx="http://www.garmin.com/xmlschemas/TrackPointExtension/v1">
            <gpxtpx:hr>113</gpxtpx:hr>
          </gpxtpx:TrackPointExtension>
        </extensions>
      </trkpt>
      <trkpt lat="45.57919" lon="2.9552">
        <ele>812.59997558594</ele>
        <time>2024-05-26T10:27:01.000Z</time>
        <extensions>
          <gpxtpx:TrackPointExtension xmlns:gpxtpx="http://www.garmin.com/xmlschemas/TrackPointExtension/v1">
            <gpxtpx:hr>114</gpxtpx:hr>
          </gpxtpx:TrackPointExtension>
        </extensions>
      </trkpt>
      <trkpt lat="45.57924" lon="2.9553">
        <ele>812.20001220703</ele>
        <time>2024-05-26T10:27:02.000Z</time>
        <extensions>
          <gpxtpx:TrackPointExtension xmlns:gpxtpx="http://www.garmin.com/xmlschemas/TrackPointExtension/v1">
            <gpxtpx:hr>112</gpxtpx:hr>
          </gpxtpx:TrackPointExtension>
        </extensions>
      </trkpt>
      <trkpt lat="45.57936" lon="2.9555">
        <ele>811</ele>
        <time>2024-05-26T10:27:04.000Z</time>
        <extensions>
          <gpxtpx:TrackPointExtension xmlns:gpxtpx="http://www.garmin.com/xmlschemas/TrackPointExtension/v1">
            <gpxtpx:hr>113</gpxtpx:hr>
          </gpxtpx:TrackPointExtension>
        </extensions>
      </trkpt>
      <trkpt lat="45.57942" lon="2.95558">
        <ele>810.59997558594</ele>
        <time>2024-05-26T10:27:05.000Z</time>
        <extensions>
          <gpxtpx:TrackPointExtension xmlns:gpxtpx="http://www.garmin.com/xmlschemas/TrackPointExtension/v1">
            <gpxtpx:hr>113</gpxtpx:hr>
          </gpxtpx:TrackPointExtension>
        </extensions>
      </trkpt>
      <trkpt lat="45.57956" lon="2.95574">
        <ele>810</ele>
        <time>2024-05-26T10:27:07.000Z</time>
        <extensions>
          <gpxtpx:TrackPointExtension xmlns:gpxtpx="http://www.garmin.com/xmlschemas/TrackPointExtension/v1">
            <gpxtpx:hr>114</gpxtpx:hr>
          </gpxtpx:TrackPointExtension>
        </extensions>
      </trkpt>
      <trkpt lat="45.57972" lon="2.95587">
        <ele>809.59997558594</ele>
        <time>2024-05-26T10:27:09.000Z</time>
        <extensions>
          <gpxtpx:TrackPointExtension xmlns:gpxtpx="http://www.garmin.com/xmlschemas/TrackPointExtension/v1">
            <gpxtpx:hr>114</gpxtpx:hr>
          </gpxtpx:TrackPointExtension>
        </extensions>
      </trkpt>
      <trkpt lat="45.57998" lon="2.95604">
        <ele>808.79998779297</ele>
        <time>2024-05-26T10:27:12.000Z</time>
        <extensions>
          <gpxtpx:TrackPointExtension xmlns:gpxtpx="http://www.garmin.com/xmlschemas/TrackPointExtension/v1">
            <gpxtpx:hr>116</gpxtpx:hr>
          </gpxtpx:TrackPointExtension>
        </extensions>
      </trkpt>
      <trkpt lat="45.58006" lon="2.95609">
        <ele>808.79998779297</ele>
        <time>2024-05-26T10:27:13.000Z</time>
        <extensions>
          <gpxtpx:TrackPointExtension xmlns:gpxtpx="http://www.garmin.com/xmlschemas/TrackPointExtension/v1">
            <gpxtpx:hr>113</gpxtpx:hr>
          </gpxtpx:TrackPointExtension>
        </extensions>
      </trkpt>
      <trkpt lat="45.58049" lon="2.95634">
        <ele>807.79998779297</ele>
        <time>2024-05-26T10:27:18.000Z</time>
        <extensions>
          <gpxtpx:TrackPointExtension xmlns:gpxtpx="http://www.garmin.com/xmlschemas/TrackPointExtension/v1">
            <gpxtpx:hr>113</gpxtpx:hr>
          </gpxtpx:TrackPointExtension>
        </extensions>
      </trkpt>
      <trkpt lat="45.58066" lon="2.95644">
        <ele>806.79998779297</ele>
        <time>2024-05-26T10:27:20.000Z</time>
        <extensions>
          <gpxtpx:TrackPointExtension xmlns:gpxtpx="http://www.garmin.com/xmlschemas/TrackPointExtension/v1">
            <gpxtpx:hr>112</gpxtpx:hr>
          </gpxtpx:TrackPointExtension>
        </extensions>
      </trkpt>
      <trkpt lat="45.58107" lon="2.95668">
        <ele>805.59997558594</ele>
        <time>2024-05-26T10:27:25.000Z</time>
        <extensions>
          <gpxtpx:TrackPointExtension xmlns:gpxtpx="http://www.garmin.com/xmlschemas/TrackPointExtension/v1">
            <gpxtpx:hr>115</gpxtpx:hr>
          </gpxtpx:TrackPointExtension>
        </extensions>
      </trkpt>
      <trkpt lat="45.58123" lon="2.95679">
        <ele>805.40002441406</ele>
        <time>2024-05-26T10:27:27.000Z</time>
        <extensions>
          <gpxtpx:TrackPointExtension xmlns:gpxtpx="http://www.garmin.com/xmlschemas/TrackPointExtension/v1">
            <gpxtpx:hr>118</gpxtpx:hr>
          </gpxtpx:TrackPointExtension>
        </extensions>
      </trkpt>
      <trkpt lat="45.5814" lon="2.95688">
        <ele>805.20001220703</ele>
        <time>2024-05-26T10:27:29.000Z</time>
        <extensions>
          <gpxtpx:TrackPointExtension xmlns:gpxtpx="http://www.garmin.com/xmlschemas/TrackPointExtension/v1">
            <gpxtpx:hr>118</gpxtpx:hr>
          </gpxtpx:TrackPointExtension>
        </extensions>
      </trkpt>
      <trkpt lat="45.58181" lon="2.95713">
        <ele>804.59997558594</ele>
        <time>2024-05-26T10:27:34.000Z</time>
        <extensions>
          <gpxtpx:TrackPointExtension xmlns:gpxtpx="http://www.garmin.com/xmlschemas/TrackPointExtension/v1">
            <gpxtpx:hr>121</gpxtpx:hr>
          </gpxtpx:TrackPointExtension>
        </extensions>
      </trkpt>
      <trkpt lat="45.58189" lon="2.95718">
        <ele>804.40002441406</ele>
        <time>2024-05-26T10:27:35.000Z</time>
        <extensions>
          <gpxtpx:TrackPointExtension xmlns:gpxtpx="http://www.garmin.com/xmlschemas/TrackPointExtension/v1">
            <gpxtpx:hr>122</gpxtpx:hr>
          </gpxtpx:TrackPointExtension>
        </extensions>
      </trkpt>
      <trkpt lat="45.58213" lon="2.95733">
        <ele>804.20001220703</ele>
        <time>2024-05-26T10:27:38.000Z</time>
        <extensions>
          <gpxtpx:TrackPointExtension xmlns:gpxtpx="http://www.garmin.com/xmlschemas/TrackPointExtension/v1">
            <gpxtpx:hr>122</gpxtpx:hr>
          </gpxtpx:TrackPointExtension>
        </extensions>
      </trkpt>
      <trkpt lat="45.58266" lon="2.95766">
        <ele>804</ele>
        <time>2024-05-26T10:27:45.000Z</time>
        <extensions>
          <gpxtpx:TrackPointExtension xmlns:gpxtpx="http://www.garmin.com/xmlschemas/TrackPointExtension/v1">
            <gpxtpx:hr>124</gpxtpx:hr>
          </gpxtpx:TrackPointExtension>
        </extensions>
      </trkpt>
      <trkpt lat="45.58273" lon="2.9577">
        <ele>804.20001220703</ele>
        <time>2024-05-26T10:27:46.000Z</time>
        <extensions>
          <gpxtpx:TrackPointExtension xmlns:gpxtpx="http://www.garmin.com/xmlschemas/TrackPointExtension/v1">
            <gpxtpx:hr>120</gpxtpx:hr>
          </gpxtpx:TrackPointExtension>
        </extensions>
      </trkpt>
      <trkpt lat="45.58303" lon="2.95789">
        <ele>803.79998779297</ele>
        <time>2024-05-26T10:27:50.000Z</time>
        <extensions>
          <gpxtpx:TrackPointExtension xmlns:gpxtpx="http://www.garmin.com/xmlschemas/TrackPointExtension/v1">
            <gpxtpx:hr>123</gpxtpx:hr>
          </gpxtpx:TrackPointExtension>
        </extensions>
      </trkpt>
      <trkpt lat="45.58353" lon="2.9582">
        <ele>804.20001220703</ele>
        <time>2024-05-26T10:27:57.000Z</time>
        <extensions>
          <gpxtpx:TrackPointExtension xmlns:gpxtpx="http://www.garmin.com/xmlschemas/TrackPointExtension/v1">
            <gpxtpx:hr>125</gpxtpx:hr>
          </gpxtpx:TrackPointExtension>
        </extensions>
      </trkpt>
      <trkpt lat="45.5836" lon="2.95824">
        <ele>804.40002441406</ele>
        <time>2024-05-26T10:27:58.000Z</time>
        <extensions>
          <gpxtpx:TrackPointExtension xmlns:gpxtpx="http://www.garmin.com/xmlschemas/TrackPointExtension/v1">
            <gpxtpx:hr>125</gpxtpx:hr>
          </gpxtpx:TrackPointExtension>
        </extensions>
      </trkpt>
      <trkpt lat="45.58392" lon="2.95843">
        <ele>804.79998779297</ele>
        <time>2024-05-26T10:28:03.000Z</time>
        <extensions>
          <gpxtpx:TrackPointExtension xmlns:gpxtpx="http://www.garmin.com/xmlschemas/TrackPointExtension/v1">
            <gpxtpx:hr>126</gpxtpx:hr>
          </gpxtpx:TrackPointExtension>
        </extensions>
      </trkpt>
      <trkpt lat="45.58414" lon="2.9586">
        <ele>805</ele>
        <time>2024-05-26T10:28:07.000Z</time>
        <extensions>
          <gpxtpx:TrackPointExtension xmlns:gpxtpx="http://www.garmin.com/xmlschemas/TrackPointExtension/v1">
            <gpxtpx:hr>124</gpxtpx:hr>
          </gpxtpx:TrackPointExtension>
        </extensions>
      </trkpt>
      <trkpt lat="45.58424" lon="2.9587">
        <ele>805.20001220703</ele>
        <time>2024-05-26T10:28:09.000Z</time>
        <extensions>
          <gpxtpx:TrackPointExtension xmlns:gpxtpx="http://www.garmin.com/xmlschemas/TrackPointExtension/v1">
            <gpxtpx:hr>125</gpxtpx:hr>
          </gpxtpx:TrackPointExtension>
        </extensions>
      </trkpt>
      <trkpt lat="45.58434" lon="2.9588">
        <ele>805.40002441406</ele>
        <time>2024-05-26T10:28:11.000Z</time>
        <extensions>
          <gpxtpx:TrackPointExtension xmlns:gpxtpx="http://www.garmin.com/xmlschemas/TrackPointExtension/v1">
            <gpxtpx:hr>125</gpxtpx:hr>
          </gpxtpx:TrackPointExtension>
        </extensions>
      </trkpt>
      <trkpt lat="45.58457" lon="2.95905">
        <ele>805.79998779297</ele>
        <time>2024-05-26T10:28:16.000Z</time>
        <extensions>
          <gpxtpx:TrackPointExtension xmlns:gpxtpx="http://www.garmin.com/xmlschemas/TrackPointExtension/v1">
            <gpxtpx:hr>123</gpxtpx:hr>
          </gpxtpx:TrackPointExtension>
        </extensions>
      </trkpt>
      <trkpt lat="45.58488" lon="2.95945">
        <ele>806.59997558594</ele>
        <time>2024-05-26T10:28:24.000Z</time>
        <extensions>
          <gpxtpx:TrackPointExtension xmlns:gpxtpx="http://www.garmin.com/xmlschemas/TrackPointExtension/v1">
            <gpxtpx:hr>124</gpxtpx:hr>
          </gpxtpx:TrackPointExtension>
        </extensions>
      </trkpt>
      <trkpt lat="45.58491" lon="2.95951">
        <ele>806.79998779297</ele>
        <time>2024-05-26T10:28:25.000Z</time>
        <extensions>
          <gpxtpx:TrackPointExtension xmlns:gpxtpx="http://www.garmin.com/xmlschemas/TrackPointExtension/v1">
            <gpxtpx:hr>124</gpxtpx:hr>
          </gpxtpx:TrackPointExtension>
        </extensions>
      </trkpt>
      <trkpt lat="45.58506" lon="2.9597">
        <ele>807.59997558594</ele>
        <time>2024-05-26T10:28:29.000Z</time>
        <extensions>
          <gpxtpx:TrackPointExtension xmlns:gpxtpx="http://www.garmin.com/xmlschemas/TrackPointExtension/v1">
            <gpxtpx:hr>123</gpxtpx:hr>
          </gpxtpx:TrackPointExtension>
        </extensions>
      </trkpt>
      <trkpt lat="45.58516" lon="2.95984">
        <ele>808</ele>
        <time>2024-05-26T10:28:32.000Z</time>
        <extensions>
          <gpxtpx:TrackPointExtension xmlns:gpxtpx="http://www.garmin.com/xmlschemas/TrackPointExtension/v1">
            <gpxtpx:hr>125</gpxtpx:hr>
          </gpxtpx:TrackPointExtension>
        </extensions>
      </trkpt>
      <trkpt lat="45.58541" lon="2.96017">
        <ele>808.79998779297</ele>
        <time>2024-05-26T10:28:39.000Z</time>
        <extensions>
          <gpxtpx:TrackPointExtension xmlns:gpxtpx="http://www.garmin.com/xmlschemas/TrackPointExtension/v1">
            <gpxtpx:hr>126</gpxtpx:hr>
          </gpxtpx:TrackPointExtension>
        </extensions>
      </trkpt>
      <trkpt lat="45.58551" lon="2.9603">
        <ele>809</ele>
        <time>2024-05-26T10:28:42.000Z</time>
        <extensions>
          <gpxtpx:TrackPointExtension xmlns:gpxtpx="http://www.garmin.com/xmlschemas/TrackPointExtension/v1">
            <gpxtpx:hr>126</gpxtpx:hr>
          </gpxtpx:TrackPointExtension>
        </extensions>
      </trkpt>
      <trkpt lat="45.58577" lon="2.96065">
        <ele>809.40002441406</ele>
        <time>2024-05-26T10:28:50.000Z</time>
        <extensions>
          <gpxtpx:TrackPointExtension xmlns:gpxtpx="http://www.garmin.com/xmlschemas/TrackPointExtension/v1">
            <gpxtpx:hr>126</gpxtpx:hr>
          </gpxtpx:TrackPointExtension>
        </extensions>
      </trkpt>
      <trkpt lat="45.58598" lon="2.96093">
        <ele>809.79998779297</ele>
        <time>2024-05-26T10:28:57.000Z</time>
        <extensions>
          <gpxtpx:TrackPointExtension xmlns:gpxtpx="http://www.garmin.com/xmlschemas/TrackPointExtension/v1">
            <gpxtpx:hr>125</gpxtpx:hr>
          </gpxtpx:TrackPointExtension>
        </extensions>
      </trkpt>
      <trkpt lat="45.58607" lon="2.96104">
        <ele>810.20001220703</ele>
        <time>2024-05-26T10:29:00.000Z</time>
        <extensions>
          <gpxtpx:TrackPointExtension xmlns:gpxtpx="http://www.garmin.com/xmlschemas/TrackPointExtension/v1">
            <gpxtpx:hr>126</gpxtpx:hr>
          </gpxtpx:TrackPointExtension>
        </extensions>
      </trkpt>
      <trkpt lat="45.58613" lon="2.96112">
        <ele>810.79998779297</ele>
        <time>2024-05-26T10:29:02.000Z</time>
        <extensions>
          <gpxtpx:TrackPointExtension xmlns:gpxtpx="http://www.garmin.com/xmlschemas/TrackPointExtension/v1">
            <gpxtpx:hr>126</gpxtpx:hr>
          </gpxtpx:TrackPointExtension>
        </extensions>
      </trkpt>
      <trkpt lat="45.58618" lon="2.96119">
        <ele>811.59997558594</ele>
        <time>2024-05-26T10:29:04.000Z</time>
        <extensions>
          <gpxtpx:TrackPointExtension xmlns:gpxtpx="http://www.garmin.com/xmlschemas/TrackPointExtension/v1">
            <gpxtpx:hr>130</gpxtpx:hr>
          </gpxtpx:TrackPointExtension>
        </extensions>
      </trkpt>
      <trkpt lat="45.58624" lon="2.96126">
        <ele>812</ele>
        <time>2024-05-26T10:29:06.000Z</time>
        <extensions>
          <gpxtpx:TrackPointExtension xmlns:gpxtpx="http://www.garmin.com/xmlschemas/TrackPointExtension/v1">
            <gpxtpx:hr>127</gpxtpx:hr>
          </gpxtpx:TrackPointExtension>
        </extensions>
      </trkpt>
      <trkpt lat="45.58636" lon="2.96139">
        <ele>812.40002441406</ele>
        <time>2024-05-26T10:29:10.000Z</time>
        <extensions>
          <gpxtpx:TrackPointExtension xmlns:gpxtpx="http://www.garmin.com/xmlschemas/TrackPointExtension/v1">
            <gpxtpx:hr>127</gpxtpx:hr>
          </gpxtpx:TrackPointExtension>
        </extensions>
      </trkpt>
      <trkpt lat="45.58661" lon="2.96161">
        <ele>813.20001220703</ele>
        <time>2024-05-26T10:29:19.000Z</time>
        <extensions>
          <gpxtpx:TrackPointExtension xmlns:gpxtpx="http://www.garmin.com/xmlschemas/TrackPointExtension/v1">
            <gpxtpx:hr>125</gpxtpx:hr>
          </gpxtpx:TrackPointExtension>
        </extensions>
      </trkpt>
      <trkpt lat="45.58678" lon="2.96172">
        <ele>814</ele>
        <time>2024-05-26T10:29:25.000Z</time>
        <extensions>
          <gpxtpx:TrackPointExtension xmlns:gpxtpx="http://www.garmin.com/xmlschemas/TrackPointExtension/v1">
            <gpxtpx:hr>122</gpxtpx:hr>
          </gpxtpx:TrackPointExtension>
        </extensions>
      </trkpt>
      <trkpt lat="45.58681" lon="2.96173">
        <ele>814.20001220703</ele>
        <time>2024-05-26T10:29:26.000Z</time>
        <extensions>
          <gpxtpx:TrackPointExtension xmlns:gpxtpx="http://www.garmin.com/xmlschemas/TrackPointExtension/v1">
            <gpxtpx:hr>122</gpxtpx:hr>
          </gpxtpx:TrackPointExtension>
        </extensions>
      </trkpt>
      <trkpt lat="45.58683" lon="2.96173">
        <ele>814.40002441406</ele>
        <time>2024-05-26T10:29:27.000Z</time>
        <extensions>
          <gpxtpx:TrackPointExtension xmlns:gpxtpx="http://www.garmin.com/xmlschemas/TrackPointExtension/v1">
            <gpxtpx:hr>122</gpxtpx:hr>
          </gpxtpx:TrackPointExtension>
        </extensions>
      </trkpt>
      <trkpt lat="45.58686" lon="2.96175">
        <ele>814.59997558594</ele>
        <time>2024-05-26T10:29:31.000Z</time>
        <extensions>
          <gpxtpx:TrackPointExtension xmlns:gpxtpx="http://www.garmin.com/xmlschemas/TrackPointExtension/v1">
            <gpxtpx:hr>120</gpxtpx:hr>
          </gpxtpx:TrackPointExtension>
        </extensions>
      </trkpt>
      <trkpt lat="45.58686" lon="2.96175">
        <ele>814.40002441406</ele>
        <time>2024-05-26T10:29:37.000Z</time>
        <extensions>
          <gpxtpx:TrackPointExtension xmlns:gpxtpx="http://www.garmin.com/xmlschemas/TrackPointExtension/v1">
            <gpxtpx:hr>117</gpxtpx:hr>
          </gpxtpx:TrackPointExtension>
        </extensions>
      </trkpt>
      <trkpt lat="45.58686" lon="2.96175">
        <ele>814.20001220703</ele>
        <time>2024-05-26T10:29:41.000Z</time>
        <extensions>
          <gpxtpx:TrackPointExtension xmlns:gpxtpx="http://www.garmin.com/xmlschemas/TrackPointExtension/v1">
            <gpxtpx:hr>116</gpxtpx:hr>
          </gpxtpx:TrackPointExtension>
        </extensions>
      </trkpt>
      <trkpt lat="45.58686" lon="2.96175">
        <ele>814.20001220703</ele>
        <time>2024-05-26T10:29:46.000Z</time>
        <extensions>
          <gpxtpx:TrackPointExtension xmlns:gpxtpx="http://www.garmin.com/xmlschemas/TrackPointExtension/v1">
            <gpxtpx:hr>113</gpxtpx:hr>
          </gpxtpx:TrackPointExtension>
        </extensions>
      </trkpt>
      <trkpt lat="45.58685" lon="2.96175">
        <ele>814.20001220703</ele>
        <time>2024-05-26T10:29:52.000Z</time>
        <extensions>
          <gpxtpx:TrackPointExtension xmlns:gpxtpx="http://www.garmin.com/xmlschemas/TrackPointExtension/v1">
            <gpxtpx:hr>110</gpxtpx:hr>
          </gpxtpx:TrackPointExtension>
        </extensions>
      </trkpt>
      <trkpt lat="45.58685" lon="2.96174">
        <ele>813.79998779297</ele>
        <time>2024-05-26T10:30:02.000Z</time>
        <extensions>
          <gpxtpx:TrackPointExtension xmlns:gpxtpx="http://www.garmin.com/xmlschemas/TrackPointExtension/v1">
            <gpxtpx:hr>112</gpxtpx:hr>
          </gpxtpx:TrackPointExtension>
        </extensions>
      </trkpt>
      <trkpt lat="45.58685" lon="2.96174">
        <ele>813.59997558594</ele>
        <time>2024-05-26T10:30:11.000Z</time>
        <extensions>
          <gpxtpx:TrackPointExtension xmlns:gpxtpx="http://www.garmin.com/xmlschemas/TrackPointExtension/v1">
            <gpxtpx:hr>115</gpxtpx:hr>
          </gpxtpx:TrackPointExtension>
        </extensions>
      </trkpt>
      <trkpt lat="45.58685" lon="2.96174">
        <ele>813.59997558594</ele>
        <time>2024-05-26T10:30:16.000Z</time>
        <extensions>
          <gpxtpx:TrackPointExtension xmlns:gpxtpx="http://www.garmin.com/xmlschemas/TrackPointExtension/v1">
            <gpxtpx:hr>111</gpxtpx:hr>
          </gpxtpx:TrackPointExtension>
        </extensions>
      </trkpt>
      <trkpt lat="45.58685" lon="2.96174">
        <ele>813.59997558594</ele>
        <time>2024-05-26T10:30:18.000Z</time>
        <extensions>
          <gpxtpx:TrackPointExtension xmlns:gpxtpx="http://www.garmin.com/xmlschemas/TrackPointExtension/v1">
            <gpxtpx:hr>108</gpxtpx:hr>
          </gpxtpx:TrackPointExtension>
        </extensions>
      </trkpt>
      <trkpt lat="45.58685" lon="2.96174">
        <ele>813.59997558594</ele>
        <time>2024-05-26T10:30:20.000Z</time>
        <extensions>
          <gpxtpx:TrackPointExtension xmlns:gpxtpx="http://www.garmin.com/xmlschemas/TrackPointExtension/v1">
            <gpxtpx:hr>105</gpxtpx:hr>
          </gpxtpx:TrackPointExtension>
        </extensions>
      </trkpt>
      <trkpt lat="45.58685" lon="2.96174">
        <ele>813.40002441406</ele>
        <time>2024-05-26T10:30:24.000Z</time>
        <extensions>
          <gpxtpx:TrackPointExtension xmlns:gpxtpx="http://www.garmin.com/xmlschemas/TrackPointExtension/v1">
            <gpxtpx:hr>101</gpxtpx:hr>
          </gpxtpx:TrackPointExtension>
        </extensions>
      </trkpt>
      <trkpt lat="45.58685" lon="2.96174">
        <ele>813.40002441406</ele>
        <time>2024-05-26T10:30:31.000Z</time>
        <extensions>
          <gpxtpx:TrackPointExtension xmlns:gpxtpx="http://www.garmin.com/xmlschemas/TrackPointExtension/v1">
            <gpxtpx:hr>101</gpxtpx:hr>
          </gpxtpx:TrackPointExtension>
        </extensions>
      </trkpt>
      <trkpt lat="45.58685" lon="2.96174">
        <ele>813.40002441406</ele>
        <time>2024-05-26T10:30:32.000Z</time>
        <extensions>
          <gpxtpx:TrackPointExtension xmlns:gpxtpx="http://www.garmin.com/xmlschemas/TrackPointExtension/v1">
            <gpxtpx:hr>100</gpxtpx:hr>
          </gpxtpx:TrackPointExtension>
        </extensions>
      </trkpt>
      <trkpt lat="45.58685" lon="2.96174">
        <ele>813.20001220703</ele>
        <time>2024-05-26T10:30:37.000Z</time>
        <extensions>
          <gpxtpx:TrackPointExtension xmlns:gpxtpx="http://www.garmin.com/xmlschemas/TrackPointExtension/v1">
            <gpxtpx:hr>96</gpxtpx:hr>
          </gpxtpx:TrackPointExtension>
        </extensions>
      </trkpt>
      <trkpt lat="45.58685" lon="2.96174">
        <ele>813</ele>
        <time>2024-05-26T10:30:41.000Z</time>
        <extensions>
          <gpxtpx:TrackPointExtension xmlns:gpxtpx="http://www.garmin.com/xmlschemas/TrackPointExtension/v1">
            <gpxtpx:hr>96</gpxtpx:hr>
          </gpxtpx:TrackPointExtension>
        </extensions>
      </trkpt>
      <trkpt lat="45.58685" lon="2.96174">
        <ele>812.79998779297</ele>
        <time>2024-05-26T10:30:49.000Z</time>
        <extensions>
          <gpxtpx:TrackPointExtension xmlns:gpxtpx="http://www.garmin.com/xmlschemas/TrackPointExtension/v1">
            <gpxtpx:hr>99</gpxtpx:hr>
          </gpxtpx:TrackPointExtension>
        </extensions>
      </trkpt>
      <trkpt lat="45.58687" lon="2.96174">
        <ele>812.79998779297</ele>
        <time>2024-05-26T10:30:52.000Z</time>
        <extensions>
          <gpxtpx:TrackPointExtension xmlns:gpxtpx="http://www.garmin.com/xmlschemas/TrackPointExtension/v1">
            <gpxtpx:hr>99</gpxtpx:hr>
          </gpxtpx:TrackPointExtension>
        </extensions>
      </trkpt>
      <trkpt lat="45.58689" lon="2.96175">
        <ele>813.20001220703</ele>
        <time>2024-05-26T10:30:54.000Z</time>
        <extensions>
          <gpxtpx:TrackPointExtension xmlns:gpxtpx="http://www.garmin.com/xmlschemas/TrackPointExtension/v1">
            <gpxtpx:hr>99</gpxtpx:hr>
          </gpxtpx:TrackPointExtension>
        </extensions>
      </trkpt>
      <trkpt lat="45.58701" lon="2.96182">
        <ele>813.79998779297</ele>
        <time>2024-05-26T10:31:00.000Z</time>
        <extensions>
          <gpxtpx:TrackPointExtension xmlns:gpxtpx="http://www.garmin.com/xmlschemas/TrackPointExtension/v1">
            <gpxtpx:hr>98</gpxtpx:hr>
          </gpxtpx:TrackPointExtension>
        </extensions>
      </trkpt>
      <trkpt lat="45.5871" lon="2.96187">
        <ele>814.40002441406</ele>
        <time>2024-05-26T10:31:03.000Z</time>
        <extensions>
          <gpxtpx:TrackPointExtension xmlns:gpxtpx="http://www.garmin.com/xmlschemas/TrackPointExtension/v1">
            <gpxtpx:hr>98</gpxtpx:hr>
          </gpxtpx:TrackPointExtension>
        </extensions>
      </trkpt>
      <trkpt lat="45.5872" lon="2.96192">
        <ele>814.79998779297</ele>
        <time>2024-05-26T10:31:06.000Z</time>
        <extensions>
          <gpxtpx:TrackPointExtension xmlns:gpxtpx="http://www.garmin.com/xmlschemas/TrackPointExtension/v1">
            <gpxtpx:hr>98</gpxtpx:hr>
          </gpxtpx:TrackPointExtension>
        </extensions>
      </trkpt>
      <trkpt lat="45.58745" lon="2.96205">
        <ele>815.20001220703</ele>
        <time>2024-05-26T10:31:13.000Z</time>
        <extensions>
          <gpxtpx:TrackPointExtension xmlns:gpxtpx="http://www.garmin.com/xmlschemas/TrackPointExtension/v1">
            <gpxtpx:hr>100</gpxtpx:hr>
          </gpxtpx:TrackPointExtension>
        </extensions>
      </trkpt>
      <trkpt lat="45.58757" lon="2.9621">
        <ele>815.40002441406</ele>
        <time>2024-05-26T10:31:16.000Z</time>
        <extensions>
          <gpxtpx:TrackPointExtension xmlns:gpxtpx="http://www.garmin.com/xmlschemas/TrackPointExtension/v1">
            <gpxtpx:hr>100</gpxtpx:hr>
          </gpxtpx:TrackPointExtension>
        </extensions>
      </trkpt>
      <trkpt lat="45.58776" lon="2.96219">
        <ele>815.40002441406</ele>
        <time>2024-05-26T10:31:21.000Z</time>
        <extensions>
          <gpxtpx:TrackPointExtension xmlns:gpxtpx="http://www.garmin.com/xmlschemas/TrackPointExtension/v1">
            <gpxtpx:hr>103</gpxtpx:hr>
          </gpxtpx:TrackPointExtension>
        </extensions>
      </trkpt>
      <trkpt lat="45.58808" lon="2.96233">
        <ele>815.20001220703</ele>
        <time>2024-05-26T10:31:28.000Z</time>
        <extensions>
          <gpxtpx:TrackPointExtension xmlns:gpxtpx="http://www.garmin.com/xmlschemas/TrackPointExtension/v1">
            <gpxtpx:hr>103</gpxtpx:hr>
          </gpxtpx:TrackPointExtension>
        </extensions>
      </trkpt>
      <trkpt lat="45.58839" lon="2.96247">
        <ele>814.59997558594</ele>
        <time>2024-05-26T10:31:34.000Z</time>
        <extensions>
          <gpxtpx:TrackPointExtension xmlns:gpxtpx="http://www.garmin.com/xmlschemas/TrackPointExtension/v1">
            <gpxtpx:hr>104</gpxtpx:hr>
          </gpxtpx:TrackPointExtension>
        </extensions>
      </trkpt>
      <trkpt lat="45.58845" lon="2.9625">
        <ele>814.40002441406</ele>
        <time>2024-05-26T10:31:35.000Z</time>
        <extensions>
          <gpxtpx:TrackPointExtension xmlns:gpxtpx="http://www.garmin.com/xmlschemas/TrackPointExtension/v1">
            <gpxtpx:hr>104</gpxtpx:hr>
          </gpxtpx:TrackPointExtension>
        </extensions>
      </trkpt>
      <trkpt lat="45.58863" lon="2.96256">
        <ele>812.79998779297</ele>
        <time>2024-05-26T10:31:38.000Z</time>
        <extensions>
          <gpxtpx:TrackPointExtension xmlns:gpxtpx="http://www.garmin.com/xmlschemas/TrackPointExtension/v1">
            <gpxtpx:hr>103</gpxtpx:hr>
          </gpxtpx:TrackPointExtension>
        </extensions>
      </trkpt>
      <trkpt lat="45.58869" lon="2.9626">
        <ele>811.59997558594</ele>
        <time>2024-05-26T10:31:39.000Z</time>
        <extensions>
          <gpxtpx:TrackPointExtension xmlns:gpxtpx="http://www.garmin.com/xmlschemas/TrackPointExtension/v1">
            <gpxtpx:hr>103</gpxtpx:hr>
          </gpxtpx:TrackPointExtension>
        </extensions>
      </trkpt>
      <trkpt lat="45.58883" lon="2.96267">
        <ele>810.59997558594</ele>
        <time>2024-05-26T10:31:41.000Z</time>
        <extensions>
          <gpxtpx:TrackPointExtension xmlns:gpxtpx="http://www.garmin.com/xmlschemas/TrackPointExtension/v1">
            <gpxtpx:hr>103</gpxtpx:hr>
          </gpxtpx:TrackPointExtension>
        </extensions>
      </trkpt>
      <trkpt lat="45.58891" lon="2.96271">
        <ele>810</ele>
        <time>2024-05-26T10:31:42.000Z</time>
        <extensions>
          <gpxtpx:TrackPointExtension xmlns:gpxtpx="http://www.garmin.com/xmlschemas/TrackPointExtension/v1">
            <gpxtpx:hr>102</gpxtpx:hr>
          </gpxtpx:TrackPointExtension>
        </extensions>
      </trkpt>
      <trkpt lat="45.58906" lon="2.9628">
        <ele>809.59997558594</ele>
        <time>2024-05-26T10:31:44.000Z</time>
        <extensions>
          <gpxtpx:TrackPointExtension xmlns:gpxtpx="http://www.garmin.com/xmlschemas/TrackPointExtension/v1">
            <gpxtpx:hr>102</gpxtpx:hr>
          </gpxtpx:TrackPointExtension>
        </extensions>
      </trkpt>
      <trkpt lat="45.58921" lon="2.96292">
        <ele>808.59997558594</ele>
        <time>2024-05-26T10:31:46.000Z</time>
        <extensions>
          <gpxtpx:TrackPointExtension xmlns:gpxtpx="http://www.garmin.com/xmlschemas/TrackPointExtension/v1">
            <gpxtpx:hr>102</gpxtpx:hr>
          </gpxtpx:TrackPointExtension>
        </extensions>
      </trkpt>
      <trkpt lat="45.58934" lon="2.96309">
        <ele>808.40002441406</ele>
        <time>2024-05-26T10:31:48.000Z</time>
        <extensions>
          <gpxtpx:TrackPointExtension xmlns:gpxtpx="http://www.garmin.com/xmlschemas/TrackPointExtension/v1">
            <gpxtpx:hr>102</gpxtpx:hr>
          </gpxtpx:TrackPointExtension>
        </extensions>
      </trkpt>
      <trkpt lat="45.58945" lon="2.9633">
        <ele>807.59997558594</ele>
        <time>2024-05-26T10:31:50.000Z</time>
        <extensions>
          <gpxtpx:TrackPointExtension xmlns:gpxtpx="http://www.garmin.com/xmlschemas/TrackPointExtension/v1">
            <gpxtpx:hr>102</gpxtpx:hr>
          </gpxtpx:TrackPointExtension>
        </extensions>
      </trkpt>
      <trkpt lat="45.58954" lon="2.96355">
        <ele>806.20001220703</ele>
        <time>2024-05-26T10:31:52.000Z</time>
        <extensions>
          <gpxtpx:TrackPointExtension xmlns:gpxtpx="http://www.garmin.com/xmlschemas/TrackPointExtension/v1">
            <gpxtpx:hr>101</gpxtpx:hr>
          </gpxtpx:TrackPointExtension>
        </extensions>
      </trkpt>
      <trkpt lat="45.58957" lon="2.96368">
        <ele>805.59997558594</ele>
        <time>2024-05-26T10:31:53.000Z</time>
        <extensions>
          <gpxtpx:TrackPointExtension xmlns:gpxtpx="http://www.garmin.com/xmlschemas/TrackPointExtension/v1">
            <gpxtpx:hr>102</gpxtpx:hr>
          </gpxtpx:TrackPointExtension>
        </extensions>
      </trkpt>
      <trkpt lat="45.58959" lon="2.96382">
        <ele>805.59997558594</ele>
        <time>2024-05-26T10:31:54.000Z</time>
        <extensions>
          <gpxtpx:TrackPointExtension xmlns:gpxtpx="http://www.garmin.com/xmlschemas/TrackPointExtension/v1">
            <gpxtpx:hr>102</gpxtpx:hr>
          </gpxtpx:TrackPointExtension>
        </extensions>
      </trkpt>
      <trkpt lat="45.58959" lon="2.96396">
        <ele>805.20001220703</ele>
        <time>2024-05-26T10:31:55.000Z</time>
        <extensions>
          <gpxtpx:TrackPointExtension xmlns:gpxtpx="http://www.garmin.com/xmlschemas/TrackPointExtension/v1">
            <gpxtpx:hr>101</gpxtpx:hr>
          </gpxtpx:TrackPointExtension>
        </extensions>
      </trkpt>
      <trkpt lat="45.58958" lon="2.9641">
        <ele>804.59997558594</ele>
        <time>2024-05-26T10:31:56.000Z</time>
        <extensions>
          <gpxtpx:TrackPointExtension xmlns:gpxtpx="http://www.garmin.com/xmlschemas/TrackPointExtension/v1">
            <gpxtpx:hr>102</gpxtpx:hr>
          </gpxtpx:TrackPointExtension>
        </extensions>
      </trkpt>
      <trkpt lat="45.58956" lon="2.96423">
        <ele>804.20001220703</ele>
        <time>2024-05-26T10:31:57.000Z</time>
        <extensions>
          <gpxtpx:TrackPointExtension xmlns:gpxtpx="http://www.garmin.com/xmlschemas/TrackPointExtension/v1">
            <gpxtpx:hr>101</gpxtpx:hr>
          </gpxtpx:TrackPointExtension>
        </extensions>
      </trkpt>
      <trkpt lat="45.58953" lon="2.96437">
        <ele>803.79998779297</ele>
        <time>2024-05-26T10:31:58.000Z</time>
        <extensions>
          <gpxtpx:TrackPointExtension xmlns:gpxtpx="http://www.garmin.com/xmlschemas/TrackPointExtension/v1">
            <gpxtpx:hr>101</gpxtpx:hr>
          </gpxtpx:TrackPointExtension>
        </extensions>
      </trkpt>
      <trkpt lat="45.58949" lon="2.96451">
        <ele>802.40002441406</ele>
        <time>2024-05-26T10:31:59.000Z</time>
        <extensions>
          <gpxtpx:TrackPointExtension xmlns:gpxtpx="http://www.garmin.com/xmlschemas/TrackPointExtension/v1">
            <gpxtpx:hr>102</gpxtpx:hr>
          </gpxtpx:TrackPointExtension>
        </extensions>
      </trkpt>
      <trkpt lat="45.58946" lon="2.96464">
        <ele>801.20001220703</ele>
        <time>2024-05-26T10:32:00.000Z</time>
        <extensions>
          <gpxtpx:TrackPointExtension xmlns:gpxtpx="http://www.garmin.com/xmlschemas/TrackPointExtension/v1">
            <gpxtpx:hr>102</gpxtpx:hr>
          </gpxtpx:TrackPointExtension>
        </extensions>
      </trkpt>
      <trkpt lat="45.58939" lon="2.96492">
        <ele>800.20001220703</ele>
        <time>2024-05-26T10:32:02.000Z</time>
        <extensions>
          <gpxtpx:TrackPointExtension xmlns:gpxtpx="http://www.garmin.com/xmlschemas/TrackPointExtension/v1">
            <gpxtpx:hr>103</gpxtpx:hr>
          </gpxtpx:TrackPointExtension>
        </extensions>
      </trkpt>
      <trkpt lat="45.58933" lon="2.96522">
        <ele>798.79998779297</ele>
        <time>2024-05-26T10:32:04.000Z</time>
        <extensions>
          <gpxtpx:TrackPointExtension xmlns:gpxtpx="http://www.garmin.com/xmlschemas/TrackPointExtension/v1">
            <gpxtpx:hr>103</gpxtpx:hr>
          </gpxtpx:TrackPointExtension>
        </extensions>
      </trkpt>
      <trkpt lat="45.58931" lon="2.96552">
        <ele>797.79998779297</ele>
        <time>2024-05-26T10:32:06.000Z</time>
        <extensions>
          <gpxtpx:TrackPointExtension xmlns:gpxtpx="http://www.garmin.com/xmlschemas/TrackPointExtension/v1">
            <gpxtpx:hr>104</gpxtpx:hr>
          </gpxtpx:TrackPointExtension>
        </extensions>
      </trkpt>
      <trkpt lat="45.58931" lon="2.96567">
        <ele>797.59997558594</ele>
        <time>2024-05-26T10:32:07.000Z</time>
        <extensions>
          <gpxtpx:TrackPointExtension xmlns:gpxtpx="http://www.garmin.com/xmlschemas/TrackPointExtension/v1">
            <gpxtpx:hr>104</gpxtpx:hr>
          </gpxtpx:TrackPointExtension>
        </extensions>
      </trkpt>
      <trkpt lat="45.58933" lon="2.96582">
        <ele>797.20001220703</ele>
        <time>2024-05-26T10:32:08.000Z</time>
        <extensions>
          <gpxtpx:TrackPointExtension xmlns:gpxtpx="http://www.garmin.com/xmlschemas/TrackPointExtension/v1">
            <gpxtpx:hr>105</gpxtpx:hr>
          </gpxtpx:TrackPointExtension>
        </extensions>
      </trkpt>
      <trkpt lat="45.58936" lon="2.96596">
        <ele>796.59997558594</ele>
        <time>2024-05-26T10:32:09.000Z</time>
        <extensions>
          <gpxtpx:TrackPointExtension xmlns:gpxtpx="http://www.garmin.com/xmlschemas/TrackPointExtension/v1">
            <gpxtpx:hr>106</gpxtpx:hr>
          </gpxtpx:TrackPointExtension>
        </extensions>
      </trkpt>
      <trkpt lat="45.58939" lon="2.96608">
        <ele>796</ele>
        <time>2024-05-26T10:32:10.000Z</time>
        <extensions>
          <gpxtpx:TrackPointExtension xmlns:gpxtpx="http://www.garmin.com/xmlschemas/TrackPointExtension/v1">
            <gpxtpx:hr>106</gpxtpx:hr>
          </gpxtpx:TrackPointExtension>
        </extensions>
      </trkpt>
      <trkpt lat="45.58945" lon="2.96624">
        <ele>795.59997558594</ele>
        <time>2024-05-26T10:32:11.000Z</time>
        <extensions>
          <gpxtpx:TrackPointExtension xmlns:gpxtpx="http://www.garmin.com/xmlschemas/TrackPointExtension/v1">
            <gpxtpx:hr>106</gpxtpx:hr>
          </gpxtpx:TrackPointExtension>
        </extensions>
      </trkpt>
      <trkpt lat="45.58954" lon="2.96651">
        <ele>794.20001220703</ele>
        <time>2024-05-26T10:32:13.000Z</time>
        <extensions>
          <gpxtpx:TrackPointExtension xmlns:gpxtpx="http://www.garmin.com/xmlschemas/TrackPointExtension/v1">
            <gpxtpx:hr>106</gpxtpx:hr>
          </gpxtpx:TrackPointExtension>
        </extensions>
      </trkpt>
      <trkpt lat="45.58964" lon="2.96677">
        <ele>793.20001220703</ele>
        <time>2024-05-26T10:32:15.000Z</time>
        <extensions>
          <gpxtpx:TrackPointExtension xmlns:gpxtpx="http://www.garmin.com/xmlschemas/TrackPointExtension/v1">
            <gpxtpx:hr>106</gpxtpx:hr>
          </gpxtpx:TrackPointExtension>
        </extensions>
      </trkpt>
      <trkpt lat="45.58974" lon="2.96703">
        <ele>792.40002441406</ele>
        <time>2024-05-26T10:32:17.000Z</time>
        <extensions>
          <gpxtpx:TrackPointExtension xmlns:gpxtpx="http://www.garmin.com/xmlschemas/TrackPointExtension/v1">
            <gpxtpx:hr>106</gpxtpx:hr>
          </gpxtpx:TrackPointExtension>
        </extensions>
      </trkpt>
      <trkpt lat="45.58979" lon="2.96716">
        <ele>791.40002441406</ele>
        <time>2024-05-26T10:32:18.000Z</time>
        <extensions>
          <gpxtpx:TrackPointExtension xmlns:gpxtpx="http://www.garmin.com/xmlschemas/TrackPointExtension/v1">
            <gpxtpx:hr>106</gpxtpx:hr>
          </gpxtpx:TrackPointExtension>
        </extensions>
      </trkpt>
      <trkpt lat="45.58995" lon="2.96767">
        <ele>790.79998779297</ele>
        <time>2024-05-26T10:32:22.000Z</time>
        <extensions>
          <gpxtpx:TrackPointExtension xmlns:gpxtpx="http://www.garmin.com/xmlschemas/TrackPointExtension/v1">
            <gpxtpx:hr>107</gpxtpx:hr>
          </gpxtpx:TrackPointExtension>
        </extensions>
      </trkpt>
      <trkpt lat="45.58997" lon="2.96781">
        <ele>790.40002441406</ele>
        <time>2024-05-26T10:32:23.000Z</time>
        <extensions>
          <gpxtpx:TrackPointExtension xmlns:gpxtpx="http://www.garmin.com/xmlschemas/TrackPointExtension/v1">
            <gpxtpx:hr>108</gpxtpx:hr>
          </gpxtpx:TrackPointExtension>
        </extensions>
      </trkpt>
      <trkpt lat="45.58999" lon="2.96796">
        <ele>789.79998779297</ele>
        <time>2024-05-26T10:32:24.000Z</time>
        <extensions>
          <gpxtpx:TrackPointExtension xmlns:gpxtpx="http://www.garmin.com/xmlschemas/TrackPointExtension/v1">
            <gpxtpx:hr>107</gpxtpx:hr>
          </gpxtpx:TrackPointExtension>
        </extensions>
      </trkpt>
      <trkpt lat="45.58998" lon="2.9681">
        <ele>789</ele>
        <time>2024-05-26T10:32:25.000Z</time>
        <extensions>
          <gpxtpx:TrackPointExtension xmlns:gpxtpx="http://www.garmin.com/xmlschemas/TrackPointExtension/v1">
            <gpxtpx:hr>107</gpxtpx:hr>
          </gpxtpx:TrackPointExtension>
        </extensions>
      </trkpt>
      <trkpt lat="45.58997" lon="2.96824">
        <ele>788.20001220703</ele>
        <time>2024-05-26T10:32:26.000Z</time>
        <extensions>
          <gpxtpx:TrackPointExtension xmlns:gpxtpx="http://www.garmin.com/xmlschemas/TrackPointExtension/v1">
            <gpxtpx:hr>107</gpxtpx:hr>
          </gpxtpx:TrackPointExtension>
        </extensions>
      </trkpt>
      <trkpt lat="45.58995" lon="2.96838">
        <ele>787.79998779297</ele>
        <time>2024-05-26T10:32:27.000Z</time>
        <extensions>
          <gpxtpx:TrackPointExtension xmlns:gpxtpx="http://www.garmin.com/xmlschemas/TrackPointExtension/v1">
            <gpxtpx:hr>107</gpxtpx:hr>
          </gpxtpx:TrackPointExtension>
        </extensions>
      </trkpt>
      <trkpt lat="45.58991" lon="2.96851">
        <ele>787.40002441406</ele>
        <time>2024-05-26T10:32:28.000Z</time>
        <extensions>
          <gpxtpx:TrackPointExtension xmlns:gpxtpx="http://www.garmin.com/xmlschemas/TrackPointExtension/v1">
            <gpxtpx:hr>108</gpxtpx:hr>
          </gpxtpx:TrackPointExtension>
        </extensions>
      </trkpt>
      <trkpt lat="45.58986" lon="2.96864">
        <ele>787</ele>
        <time>2024-05-26T10:32:29.000Z</time>
        <extensions>
          <gpxtpx:TrackPointExtension xmlns:gpxtpx="http://www.garmin.com/xmlschemas/TrackPointExtension/v1">
            <gpxtpx:hr>108</gpxtpx:hr>
          </gpxtpx:TrackPointExtension>
        </extensions>
      </trkpt>
      <trkpt lat="45.58981" lon="2.96876">
        <ele>786.40002441406</ele>
        <time>2024-05-26T10:32:30.000Z</time>
        <extensions>
          <gpxtpx:TrackPointExtension xmlns:gpxtpx="http://www.garmin.com/xmlschemas/TrackPointExtension/v1">
            <gpxtpx:hr>109</gpxtpx:hr>
          </gpxtpx:TrackPointExtension>
        </extensions>
      </trkpt>
      <trkpt lat="45.58968" lon="2.96898">
        <ele>785.79998779297</ele>
        <time>2024-05-26T10:32:32.000Z</time>
        <extensions>
          <gpxtpx:TrackPointExtension xmlns:gpxtpx="http://www.garmin.com/xmlschemas/TrackPointExtension/v1">
            <gpxtpx:hr>109</gpxtpx:hr>
          </gpxtpx:TrackPointExtension>
        </extensions>
      </trkpt>
      <trkpt lat="45.58961" lon="2.96908">
        <ele>785.20001220703</ele>
        <time>2024-05-26T10:32:33.000Z</time>
        <extensions>
          <gpxtpx:TrackPointExtension xmlns:gpxtpx="http://www.garmin.com/xmlschemas/TrackPointExtension/v1">
            <gpxtpx:hr>109</gpxtpx:hr>
          </gpxtpx:TrackPointExtension>
        </extensions>
      </trkpt>
      <trkpt lat="45.58955" lon="2.96919">
        <ele>784</ele>
        <time>2024-05-26T10:32:34.000Z</time>
        <extensions>
          <gpxtpx:TrackPointExtension xmlns:gpxtpx="http://www.garmin.com/xmlschemas/TrackPointExtension/v1">
            <gpxtpx:hr>110</gpxtpx:hr>
          </gpxtpx:TrackPointExtension>
        </extensions>
      </trkpt>
      <trkpt lat="45.58942" lon="2.96941">
        <ele>782.79998779297</ele>
        <time>2024-05-26T10:32:36.000Z</time>
        <extensions>
          <gpxtpx:TrackPointExtension xmlns:gpxtpx="http://www.garmin.com/xmlschemas/TrackPointExtension/v1">
            <gpxtpx:hr>112</gpxtpx:hr>
          </gpxtpx:TrackPointExtension>
        </extensions>
      </trkpt>
      <trkpt lat="45.58931" lon="2.96963">
        <ele>782.20001220703</ele>
        <time>2024-05-26T10:32:38.000Z</time>
        <extensions>
          <gpxtpx:TrackPointExtension xmlns:gpxtpx="http://www.garmin.com/xmlschemas/TrackPointExtension/v1">
            <gpxtpx:hr>110</gpxtpx:hr>
          </gpxtpx:TrackPointExtension>
        </extensions>
      </trkpt>
      <trkpt lat="45.58926" lon="2.96978">
        <ele>781.79998779297</ele>
        <time>2024-05-26T10:32:39.000Z</time>
        <extensions>
          <gpxtpx:TrackPointExtension xmlns:gpxtpx="http://www.garmin.com/xmlschemas/TrackPointExtension/v1">
            <gpxtpx:hr>110</gpxtpx:hr>
          </gpxtpx:TrackPointExtension>
        </extensions>
      </trkpt>
      <trkpt lat="45.58918" lon="2.97005">
        <ele>780.20001220703</ele>
        <time>2024-05-26T10:32:41.000Z</time>
        <extensions>
          <gpxtpx:TrackPointExtension xmlns:gpxtpx="http://www.garmin.com/xmlschemas/TrackPointExtension/v1">
            <gpxtpx:hr>110</gpxtpx:hr>
          </gpxtpx:TrackPointExtension>
        </extensions>
      </trkpt>
      <trkpt lat="45.58915" lon="2.97019">
        <ele>779.79998779297</ele>
        <time>2024-05-26T10:32:42.000Z</time>
        <extensions>
          <gpxtpx:TrackPointExtension xmlns:gpxtpx="http://www.garmin.com/xmlschemas/TrackPointExtension/v1">
            <gpxtpx:hr>109</gpxtpx:hr>
          </gpxtpx:TrackPointExtension>
        </extensions>
      </trkpt>
      <trkpt lat="45.58909" lon="2.97047">
        <ele>778.59997558594</ele>
        <time>2024-05-26T10:32:44.000Z</time>
        <extensions>
          <gpxtpx:TrackPointExtension xmlns:gpxtpx="http://www.garmin.com/xmlschemas/TrackPointExtension/v1">
            <gpxtpx:hr>110</gpxtpx:hr>
          </gpxtpx:TrackPointExtension>
        </extensions>
      </trkpt>
      <trkpt lat="45.58902" lon="2.97075">
        <ele>777.40002441406</ele>
        <time>2024-05-26T10:32:46.000Z</time>
        <extensions>
          <gpxtpx:TrackPointExtension xmlns:gpxtpx="http://www.garmin.com/xmlschemas/TrackPointExtension/v1">
            <gpxtpx:hr>109</gpxtpx:hr>
          </gpxtpx:TrackPointExtension>
        </extensions>
      </trkpt>
      <trkpt lat="45.58888" lon="2.97144">
        <ele>776.40002441406</ele>
        <time>2024-05-26T10:32:51.000Z</time>
        <extensions>
          <gpxtpx:TrackPointExtension xmlns:gpxtpx="http://www.garmin.com/xmlschemas/TrackPointExtension/v1">
            <gpxtpx:hr>111</gpxtpx:hr>
          </gpxtpx:TrackPointExtension>
        </extensions>
      </trkpt>
      <trkpt lat="45.58887" lon="2.97158">
        <ele>776</ele>
        <time>2024-05-26T10:32:52.000Z</time>
        <extensions>
          <gpxtpx:TrackPointExtension xmlns:gpxtpx="http://www.garmin.com/xmlschemas/TrackPointExtension/v1">
            <gpxtpx:hr>112</gpxtpx:hr>
          </gpxtpx:TrackPointExtension>
        </extensions>
      </trkpt>
      <trkpt lat="45.58888" lon="2.97187">
        <ele>775.20001220703</ele>
        <time>2024-05-26T10:32:54.000Z</time>
        <extensions>
          <gpxtpx:TrackPointExtension xmlns:gpxtpx="http://www.garmin.com/xmlschemas/TrackPointExtension/v1">
            <gpxtpx:hr>113</gpxtpx:hr>
          </gpxtpx:TrackPointExtension>
        </extensions>
      </trkpt>
      <trkpt lat="45.58895" lon="2.97216">
        <ele>774.20001220703</ele>
        <time>2024-05-26T10:32:56.000Z</time>
        <extensions>
          <gpxtpx:TrackPointExtension xmlns:gpxtpx="http://www.garmin.com/xmlschemas/TrackPointExtension/v1">
            <gpxtpx:hr>114</gpxtpx:hr>
          </gpxtpx:TrackPointExtension>
        </extensions>
      </trkpt>
      <trkpt lat="45.58903" lon="2.97243">
        <ele>772.79998779297</ele>
        <time>2024-05-26T10:32:58.000Z</time>
        <extensions>
          <gpxtpx:TrackPointExtension xmlns:gpxtpx="http://www.garmin.com/xmlschemas/TrackPointExtension/v1">
            <gpxtpx:hr>115</gpxtpx:hr>
          </gpxtpx:TrackPointExtension>
        </extensions>
      </trkpt>
      <trkpt lat="45.58916" lon="2.97282">
        <ele>771.40002441406</ele>
        <time>2024-05-26T10:33:01.000Z</time>
        <extensions>
          <gpxtpx:TrackPointExtension xmlns:gpxtpx="http://www.garmin.com/xmlschemas/TrackPointExtension/v1">
            <gpxtpx:hr>115</gpxtpx:hr>
          </gpxtpx:TrackPointExtension>
        </extensions>
      </trkpt>
      <trkpt lat="45.58929" lon="2.97321">
        <ele>770.20001220703</ele>
        <time>2024-05-26T10:33:04.000Z</time>
        <extensions>
          <gpxtpx:TrackPointExtension xmlns:gpxtpx="http://www.garmin.com/xmlschemas/TrackPointExtension/v1">
            <gpxtpx:hr>117</gpxtpx:hr>
          </gpxtpx:TrackPointExtension>
        </extensions>
      </trkpt>
      <trkpt lat="45.58934" lon="2.97334">
        <ele>770</ele>
        <time>2024-05-26T10:33:05.000Z</time>
        <extensions>
          <gpxtpx:TrackPointExtension xmlns:gpxtpx="http://www.garmin.com/xmlschemas/TrackPointExtension/v1">
            <gpxtpx:hr>117</gpxtpx:hr>
          </gpxtpx:TrackPointExtension>
        </extensions>
      </trkpt>
      <trkpt lat="45.58942" lon="2.9736">
        <ele>769</ele>
        <time>2024-05-26T10:33:07.000Z</time>
        <extensions>
          <gpxtpx:TrackPointExtension xmlns:gpxtpx="http://www.garmin.com/xmlschemas/TrackPointExtension/v1">
            <gpxtpx:hr>117</gpxtpx:hr>
          </gpxtpx:TrackPointExtension>
        </extensions>
      </trkpt>
      <trkpt lat="45.5895" lon="2.97387">
        <ele>768.59997558594</ele>
        <time>2024-05-26T10:33:09.000Z</time>
        <extensions>
          <gpxtpx:TrackPointExtension xmlns:gpxtpx="http://www.garmin.com/xmlschemas/TrackPointExtension/v1">
            <gpxtpx:hr>114</gpxtpx:hr>
          </gpxtpx:TrackPointExtension>
        </extensions>
      </trkpt>
      <trkpt lat="45.58958" lon="2.97414">
        <ele>767.79998779297</ele>
        <time>2024-05-26T10:33:11.000Z</time>
        <extensions>
          <gpxtpx:TrackPointExtension xmlns:gpxtpx="http://www.garmin.com/xmlschemas/TrackPointExtension/v1">
            <gpxtpx:hr>115</gpxtpx:hr>
          </gpxtpx:TrackPointExtension>
        </extensions>
      </trkpt>
      <trkpt lat="45.5897" lon="2.97468">
        <ele>766.79998779297</ele>
        <time>2024-05-26T10:33:15.000Z</time>
        <extensions>
          <gpxtpx:TrackPointExtension xmlns:gpxtpx="http://www.garmin.com/xmlschemas/TrackPointExtension/v1">
            <gpxtpx:hr>118</gpxtpx:hr>
          </gpxtpx:TrackPointExtension>
        </extensions>
      </trkpt>
      <trkpt lat="45.58972" lon="2.97481">
        <ele>766.59997558594</ele>
        <time>2024-05-26T10:33:16.000Z</time>
        <extensions>
          <gpxtpx:TrackPointExtension xmlns:gpxtpx="http://www.garmin.com/xmlschemas/TrackPointExtension/v1">
            <gpxtpx:hr>119</gpxtpx:hr>
          </gpxtpx:TrackPointExtension>
        </extensions>
      </trkpt>
      <trkpt lat="45.58971" lon="2.97553">
        <ele>765.79998779297</ele>
        <time>2024-05-26T10:33:21.000Z</time>
        <extensions>
          <gpxtpx:TrackPointExtension xmlns:gpxtpx="http://www.garmin.com/xmlschemas/TrackPointExtension/v1">
            <gpxtpx:hr>117</gpxtpx:hr>
          </gpxtpx:TrackPointExtension>
        </extensions>
      </trkpt>
      <trkpt lat="45.58967" lon="2.9758">
        <ele>764.59997558594</ele>
        <time>2024-05-26T10:33:23.000Z</time>
        <extensions>
          <gpxtpx:TrackPointExtension xmlns:gpxtpx="http://www.garmin.com/xmlschemas/TrackPointExtension/v1">
            <gpxtpx:hr>116</gpxtpx:hr>
          </gpxtpx:TrackPointExtension>
        </extensions>
      </trkpt>
      <trkpt lat="45.58962" lon="2.97607">
        <ele>764.20001220703</ele>
        <time>2024-05-26T10:33:25.000Z</time>
        <extensions>
          <gpxtpx:TrackPointExtension xmlns:gpxtpx="http://www.garmin.com/xmlschemas/TrackPointExtension/v1">
            <gpxtpx:hr>113</gpxtpx:hr>
          </gpxtpx:TrackPointExtension>
        </extensions>
      </trkpt>
      <trkpt lat="45.58954" lon="2.97662">
        <ele>762.79998779297</ele>
        <time>2024-05-26T10:33:29.000Z</time>
        <extensions>
          <gpxtpx:TrackPointExtension xmlns:gpxtpx="http://www.garmin.com/xmlschemas/TrackPointExtension/v1">
            <gpxtpx:hr>115</gpxtpx:hr>
          </gpxtpx:TrackPointExtension>
        </extensions>
      </trkpt>
      <trkpt lat="45.58952" lon="2.97676">
        <ele>762.20001220703</ele>
        <time>2024-05-26T10:33:30.000Z</time>
        <extensions>
          <gpxtpx:TrackPointExtension xmlns:gpxtpx="http://www.garmin.com/xmlschemas/TrackPointExtension/v1">
            <gpxtpx:hr>113</gpxtpx:hr>
          </gpxtpx:TrackPointExtension>
        </extensions>
      </trkpt>
      <trkpt lat="45.58949" lon="2.9769">
        <ele>761.79998779297</ele>
        <time>2024-05-26T10:33:31.000Z</time>
        <extensions>
          <gpxtpx:TrackPointExtension xmlns:gpxtpx="http://www.garmin.com/xmlschemas/TrackPointExtension/v1">
            <gpxtpx:hr>115</gpxtpx:hr>
          </gpxtpx:TrackPointExtension>
        </extensions>
      </trkpt>
      <trkpt lat="45.58943" lon="2.97731">
        <ele>760.59997558594</ele>
        <time>2024-05-26T10:33:34.000Z</time>
        <extensions>
          <gpxtpx:TrackPointExtension xmlns:gpxtpx="http://www.garmin.com/xmlschemas/TrackPointExtension/v1">
            <gpxtpx:hr>114</gpxtpx:hr>
          </gpxtpx:TrackPointExtension>
        </extensions>
      </trkpt>
      <trkpt lat="45.58937" lon="2.97758">
        <ele>759.40002441406</ele>
        <time>2024-05-26T10:33:36.000Z</time>
        <extensions>
          <gpxtpx:TrackPointExtension xmlns:gpxtpx="http://www.garmin.com/xmlschemas/TrackPointExtension/v1">
            <gpxtpx:hr>114</gpxtpx:hr>
          </gpxtpx:TrackPointExtension>
        </extensions>
      </trkpt>
      <trkpt lat="45.58931" lon="2.97785">
        <ele>759</ele>
        <time>2024-05-26T10:33:38.000Z</time>
        <extensions>
          <gpxtpx:TrackPointExtension xmlns:gpxtpx="http://www.garmin.com/xmlschemas/TrackPointExtension/v1">
            <gpxtpx:hr>116</gpxtpx:hr>
          </gpxtpx:TrackPointExtension>
        </extensions>
      </trkpt>
      <trkpt lat="45.58928" lon="2.97798">
        <ele>758</ele>
        <time>2024-05-26T10:33:39.000Z</time>
        <extensions>
          <gpxtpx:TrackPointExtension xmlns:gpxtpx="http://www.garmin.com/xmlschemas/TrackPointExtension/v1">
            <gpxtpx:hr>116</gpxtpx:hr>
          </gpxtpx:TrackPointExtension>
        </extensions>
      </trkpt>
      <trkpt lat="45.58913" lon="2.9785">
        <ele>757</ele>
        <time>2024-05-26T10:33:43.000Z</time>
        <extensions>
          <gpxtpx:TrackPointExtension xmlns:gpxtpx="http://www.garmin.com/xmlschemas/TrackPointExtension/v1">
            <gpxtpx:hr>117</gpxtpx:hr>
          </gpxtpx:TrackPointExtension>
        </extensions>
      </trkpt>
      <trkpt lat="45.58906" lon="2.97877">
        <ele>756.59997558594</ele>
        <time>2024-05-26T10:33:45.000Z</time>
        <extensions>
          <gpxtpx:TrackPointExtension xmlns:gpxtpx="http://www.garmin.com/xmlschemas/TrackPointExtension/v1">
            <gpxtpx:hr>117</gpxtpx:hr>
          </gpxtpx:TrackPointExtension>
        </extensions>
      </trkpt>
      <trkpt lat="45.58898" lon="2.97903">
        <ele>755.40002441406</ele>
        <time>2024-05-26T10:33:47.000Z</time>
        <extensions>
          <gpxtpx:TrackPointExtension xmlns:gpxtpx="http://www.garmin.com/xmlschemas/TrackPointExtension/v1">
            <gpxtpx:hr>119</gpxtpx:hr>
          </gpxtpx:TrackPointExtension>
        </extensions>
      </trkpt>
      <trkpt lat="45.5888" lon="2.97967">
        <ele>754.20001220703</ele>
        <time>2024-05-26T10:33:52.000Z</time>
        <extensions>
          <gpxtpx:TrackPointExtension xmlns:gpxtpx="http://www.garmin.com/xmlschemas/TrackPointExtension/v1">
            <gpxtpx:hr>120</gpxtpx:hr>
          </gpxtpx:TrackPointExtension>
        </extensions>
      </trkpt>
      <trkpt lat="45.58876" lon="2.9798">
        <ele>754</ele>
        <time>2024-05-26T10:33:53.000Z</time>
        <extensions>
          <gpxtpx:TrackPointExtension xmlns:gpxtpx="http://www.garmin.com/xmlschemas/TrackPointExtension/v1">
            <gpxtpx:hr>119</gpxtpx:hr>
          </gpxtpx:TrackPointExtension>
        </extensions>
      </trkpt>
      <trkpt lat="45.58861" lon="2.98029">
        <ele>752.40002441406</ele>
        <time>2024-05-26T10:33:57.000Z</time>
        <extensions>
          <gpxtpx:TrackPointExtension xmlns:gpxtpx="http://www.garmin.com/xmlschemas/TrackPointExtension/v1">
            <gpxtpx:hr>118</gpxtpx:hr>
          </gpxtpx:TrackPointExtension>
        </extensions>
      </trkpt>
      <trkpt lat="45.58855" lon="2.98054">
        <ele>751.79998779297</ele>
        <time>2024-05-26T10:33:59.000Z</time>
        <extensions>
          <gpxtpx:TrackPointExtension xmlns:gpxtpx="http://www.garmin.com/xmlschemas/TrackPointExtension/v1">
            <gpxtpx:hr>115</gpxtpx:hr>
          </gpxtpx:TrackPointExtension>
        </extensions>
      </trkpt>
      <trkpt lat="45.58855" lon="2.98068">
        <ele>751.40002441406</ele>
        <time>2024-05-26T10:34:00.000Z</time>
        <extensions>
          <gpxtpx:TrackPointExtension xmlns:gpxtpx="http://www.garmin.com/xmlschemas/TrackPointExtension/v1">
            <gpxtpx:hr>114</gpxtpx:hr>
          </gpxtpx:TrackPointExtension>
        </extensions>
      </trkpt>
      <trkpt lat="45.58855" lon="2.98081">
        <ele>751.20001220703</ele>
        <time>2024-05-26T10:34:01.000Z</time>
        <extensions>
          <gpxtpx:TrackPointExtension xmlns:gpxtpx="http://www.garmin.com/xmlschemas/TrackPointExtension/v1">
            <gpxtpx:hr>114</gpxtpx:hr>
          </gpxtpx:TrackPointExtension>
        </extensions>
      </trkpt>
      <trkpt lat="45.5886" lon="2.98107">
        <ele>749.40002441406</ele>
        <time>2024-05-26T10:34:03.000Z</time>
        <extensions>
          <gpxtpx:TrackPointExtension xmlns:gpxtpx="http://www.garmin.com/xmlschemas/TrackPointExtension/v1">
            <gpxtpx:hr>114</gpxtpx:hr>
          </gpxtpx:TrackPointExtension>
        </extensions>
      </trkpt>
      <trkpt lat="45.58869" lon="2.98131">
        <ele>748.40002441406</ele>
        <time>2024-05-26T10:34:05.000Z</time>
        <extensions>
          <gpxtpx:TrackPointExtension xmlns:gpxtpx="http://www.garmin.com/xmlschemas/TrackPointExtension/v1">
            <gpxtpx:hr>114</gpxtpx:hr>
          </gpxtpx:TrackPointExtension>
        </extensions>
      </trkpt>
      <trkpt lat="45.5888" lon="2.98153">
        <ele>747.40002441406</ele>
        <time>2024-05-26T10:34:07.000Z</time>
        <extensions>
          <gpxtpx:TrackPointExtension xmlns:gpxtpx="http://www.garmin.com/xmlschemas/TrackPointExtension/v1">
            <gpxtpx:hr>115</gpxtpx:hr>
          </gpxtpx:TrackPointExtension>
        </extensions>
      </trkpt>
      <trkpt lat="45.58886" lon="2.98168">
        <ele>746.59997558594</ele>
        <time>2024-05-26T10:34:08.000Z</time>
        <extensions>
          <gpxtpx:TrackPointExtension xmlns:gpxtpx="http://www.garmin.com/xmlschemas/TrackPointExtension/v1">
            <gpxtpx:hr>115</gpxtpx:hr>
          </gpxtpx:TrackPointExtension>
        </extensions>
      </trkpt>
      <trkpt lat="45.58895" lon="2.9819">
        <ele>745.20001220703</ele>
        <time>2024-05-26T10:34:10.000Z</time>
        <extensions>
          <gpxtpx:TrackPointExtension xmlns:gpxtpx="http://www.garmin.com/xmlschemas/TrackPointExtension/v1">
            <gpxtpx:hr>115</gpxtpx:hr>
          </gpxtpx:TrackPointExtension>
        </extensions>
      </trkpt>
      <trkpt lat="45.5891" lon="2.98227">
        <ele>744.59997558594</ele>
        <time>2024-05-26T10:34:13.000Z</time>
        <extensions>
          <gpxtpx:TrackPointExtension xmlns:gpxtpx="http://www.garmin.com/xmlschemas/TrackPointExtension/v1">
            <gpxtpx:hr>115</gpxtpx:hr>
          </gpxtpx:TrackPointExtension>
        </extensions>
      </trkpt>
      <trkpt lat="45.58921" lon="2.98251">
        <ele>744</ele>
        <time>2024-05-26T10:34:15.000Z</time>
        <extensions>
          <gpxtpx:TrackPointExtension xmlns:gpxtpx="http://www.garmin.com/xmlschemas/TrackPointExtension/v1">
            <gpxtpx:hr>115</gpxtpx:hr>
          </gpxtpx:TrackPointExtension>
        </extensions>
      </trkpt>
      <trkpt lat="45.58936" lon="2.98289">
        <ele>742.59997558594</ele>
        <time>2024-05-26T10:34:18.000Z</time>
        <extensions>
          <gpxtpx:TrackPointExtension xmlns:gpxtpx="http://www.garmin.com/xmlschemas/TrackPointExtension/v1">
            <gpxtpx:hr>116</gpxtpx:hr>
          </gpxtpx:TrackPointExtension>
        </extensions>
      </trkpt>
      <trkpt lat="45.58944" lon="2.98316">
        <ele>742</ele>
        <time>2024-05-26T10:34:20.000Z</time>
        <extensions>
          <gpxtpx:TrackPointExtension xmlns:gpxtpx="http://www.garmin.com/xmlschemas/TrackPointExtension/v1">
            <gpxtpx:hr>116</gpxtpx:hr>
          </gpxtpx:TrackPointExtension>
        </extensions>
      </trkpt>
      <trkpt lat="45.58951" lon="2.98343">
        <ele>741.20001220703</ele>
        <time>2024-05-26T10:34:22.000Z</time>
        <extensions>
          <gpxtpx:TrackPointExtension xmlns:gpxtpx="http://www.garmin.com/xmlschemas/TrackPointExtension/v1">
            <gpxtpx:hr>116</gpxtpx:hr>
          </gpxtpx:TrackPointExtension>
        </extensions>
      </trkpt>
      <trkpt lat="45.58963" lon="2.98399">
        <ele>739.79998779297</ele>
        <time>2024-05-26T10:34:26.000Z</time>
        <extensions>
          <gpxtpx:TrackPointExtension xmlns:gpxtpx="http://www.garmin.com/xmlschemas/TrackPointExtension/v1">
            <gpxtpx:hr>117</gpxtpx:hr>
          </gpxtpx:TrackPointExtension>
        </extensions>
      </trkpt>
      <trkpt lat="45.58969" lon="2.98426">
        <ele>738.79998779297</ele>
        <time>2024-05-26T10:34:28.000Z</time>
        <extensions>
          <gpxtpx:TrackPointExtension xmlns:gpxtpx="http://www.garmin.com/xmlschemas/TrackPointExtension/v1">
            <gpxtpx:hr>115</gpxtpx:hr>
          </gpxtpx:TrackPointExtension>
        </extensions>
      </trkpt>
      <trkpt lat="45.58973" lon="2.98453">
        <ele>738.20001220703</ele>
        <time>2024-05-26T10:34:30.000Z</time>
        <extensions>
          <gpxtpx:TrackPointExtension xmlns:gpxtpx="http://www.garmin.com/xmlschemas/TrackPointExtension/v1">
            <gpxtpx:hr>114</gpxtpx:hr>
          </gpxtpx:TrackPointExtension>
        </extensions>
      </trkpt>
      <trkpt lat="45.58974" lon="2.98467">
        <ele>738</ele>
        <time>2024-05-26T10:34:31.000Z</time>
        <extensions>
          <gpxtpx:TrackPointExtension xmlns:gpxtpx="http://www.garmin.com/xmlschemas/TrackPointExtension/v1">
            <gpxtpx:hr>115</gpxtpx:hr>
          </gpxtpx:TrackPointExtension>
        </extensions>
      </trkpt>
      <trkpt lat="45.58973" lon="2.98481">
        <ele>737.79998779297</ele>
        <time>2024-05-26T10:34:32.000Z</time>
        <extensions>
          <gpxtpx:TrackPointExtension xmlns:gpxtpx="http://www.garmin.com/xmlschemas/TrackPointExtension/v1">
            <gpxtpx:hr>113</gpxtpx:hr>
          </gpxtpx:TrackPointExtension>
        </extensions>
      </trkpt>
      <trkpt lat="45.5897" lon="2.98494">
        <ele>737.40002441406</ele>
        <time>2024-05-26T10:34:33.000Z</time>
        <extensions>
          <gpxtpx:TrackPointExtension xmlns:gpxtpx="http://www.garmin.com/xmlschemas/TrackPointExtension/v1">
            <gpxtpx:hr>114</gpxtpx:hr>
          </gpxtpx:TrackPointExtension>
        </extensions>
      </trkpt>
      <trkpt lat="45.58965" lon="2.98506">
        <ele>737</ele>
        <time>2024-05-26T10:34:34.000Z</time>
        <extensions>
          <gpxtpx:TrackPointExtension xmlns:gpxtpx="http://www.garmin.com/xmlschemas/TrackPointExtension/v1">
            <gpxtpx:hr>114</gpxtpx:hr>
          </gpxtpx:TrackPointExtension>
        </extensions>
      </trkpt>
      <trkpt lat="45.58952" lon="2.98526">
        <ele>736</ele>
        <time>2024-05-26T10:34:36.000Z</time>
        <extensions>
          <gpxtpx:TrackPointExtension xmlns:gpxtpx="http://www.garmin.com/xmlschemas/TrackPointExtension/v1">
            <gpxtpx:hr>113</gpxtpx:hr>
          </gpxtpx:TrackPointExtension>
        </extensions>
      </trkpt>
      <trkpt lat="45.58939" lon="2.98546">
        <ele>735</ele>
        <time>2024-05-26T10:34:38.000Z</time>
        <extensions>
          <gpxtpx:TrackPointExtension xmlns:gpxtpx="http://www.garmin.com/xmlschemas/TrackPointExtension/v1">
            <gpxtpx:hr>112</gpxtpx:hr>
          </gpxtpx:TrackPointExtension>
        </extensions>
      </trkpt>
      <trkpt lat="45.58933" lon="2.98556">
        <ele>734.79998779297</ele>
        <time>2024-05-26T10:34:39.000Z</time>
        <extensions>
          <gpxtpx:TrackPointExtension xmlns:gpxtpx="http://www.garmin.com/xmlschemas/TrackPointExtension/v1">
            <gpxtpx:hr>112</gpxtpx:hr>
          </gpxtpx:TrackPointExtension>
        </extensions>
      </trkpt>
      <trkpt lat="45.58917" lon="2.98591">
        <ele>733.79998779297</ele>
        <time>2024-05-26T10:34:42.000Z</time>
        <extensions>
          <gpxtpx:TrackPointExtension xmlns:gpxtpx="http://www.garmin.com/xmlschemas/TrackPointExtension/v1">
            <gpxtpx:hr>112</gpxtpx:hr>
          </gpxtpx:TrackPointExtension>
        </extensions>
      </trkpt>
      <trkpt lat="45.58912" lon="2.98603">
        <ele>733.59997558594</ele>
        <time>2024-05-26T10:34:43.000Z</time>
        <extensions>
          <gpxtpx:TrackPointExtension xmlns:gpxtpx="http://www.garmin.com/xmlschemas/TrackPointExtension/v1">
            <gpxtpx:hr>113</gpxtpx:hr>
          </gpxtpx:TrackPointExtension>
        </extensions>
      </trkpt>
      <trkpt lat="45.58907" lon="2.98615">
        <ele>733.20001220703</ele>
        <time>2024-05-26T10:34:44.000Z</time>
        <extensions>
          <gpxtpx:TrackPointExtension xmlns:gpxtpx="http://www.garmin.com/xmlschemas/TrackPointExtension/v1">
            <gpxtpx:hr>110</gpxtpx:hr>
          </gpxtpx:TrackPointExtension>
        </extensions>
      </trkpt>
      <trkpt lat="45.58889" lon="2.9865">
        <ele>732.20001220703</ele>
        <time>2024-05-26T10:34:47.000Z</time>
        <extensions>
          <gpxtpx:TrackPointExtension xmlns:gpxtpx="http://www.garmin.com/xmlschemas/TrackPointExtension/v1">
            <gpxtpx:hr>110</gpxtpx:hr>
          </gpxtpx:TrackPointExtension>
        </extensions>
      </trkpt>
      <trkpt lat="45.58874" lon="2.98671">
        <ele>730.79998779297</ele>
        <time>2024-05-26T10:34:49.000Z</time>
        <extensions>
          <gpxtpx:TrackPointExtension xmlns:gpxtpx="http://www.garmin.com/xmlschemas/TrackPointExtension/v1">
            <gpxtpx:hr>111</gpxtpx:hr>
          </gpxtpx:TrackPointExtension>
        </extensions>
      </trkpt>
      <trkpt lat="45.5886" lon="2.98693">
        <ele>729.79998779297</ele>
        <time>2024-05-26T10:34:51.000Z</time>
        <extensions>
          <gpxtpx:TrackPointExtension xmlns:gpxtpx="http://www.garmin.com/xmlschemas/TrackPointExtension/v1">
            <gpxtpx:hr>110</gpxtpx:hr>
          </gpxtpx:TrackPointExtension>
        </extensions>
      </trkpt>
      <trkpt lat="45.58847" lon="2.98716">
        <ele>729.20001220703</ele>
        <time>2024-05-26T10:34:53.000Z</time>
        <extensions>
          <gpxtpx:TrackPointExtension xmlns:gpxtpx="http://www.garmin.com/xmlschemas/TrackPointExtension/v1">
            <gpxtpx:hr>111</gpxtpx:hr>
          </gpxtpx:TrackPointExtension>
        </extensions>
      </trkpt>
      <trkpt lat="45.58837" lon="2.98742">
        <ele>728.79998779297</ele>
        <time>2024-05-26T10:34:55.000Z</time>
        <extensions>
          <gpxtpx:TrackPointExtension xmlns:gpxtpx="http://www.garmin.com/xmlschemas/TrackPointExtension/v1">
            <gpxtpx:hr>111</gpxtpx:hr>
          </gpxtpx:TrackPointExtension>
        </extensions>
      </trkpt>
      <trkpt lat="45.58832" lon="2.98768">
        <ele>728.59997558594</ele>
        <time>2024-05-26T10:34:57.000Z</time>
        <extensions>
          <gpxtpx:TrackPointExtension xmlns:gpxtpx="http://www.garmin.com/xmlschemas/TrackPointExtension/v1">
            <gpxtpx:hr>109</gpxtpx:hr>
          </gpxtpx:TrackPointExtension>
        </extensions>
      </trkpt>
      <trkpt lat="45.58832" lon="2.98796">
        <ele>727.59997558594</ele>
        <time>2024-05-26T10:34:59.000Z</time>
        <extensions>
          <gpxtpx:TrackPointExtension xmlns:gpxtpx="http://www.garmin.com/xmlschemas/TrackPointExtension/v1">
            <gpxtpx:hr>110</gpxtpx:hr>
          </gpxtpx:TrackPointExtension>
        </extensions>
      </trkpt>
      <trkpt lat="45.58833" lon="2.98809">
        <ele>727.40002441406</ele>
        <time>2024-05-26T10:35:00.000Z</time>
        <extensions>
          <gpxtpx:TrackPointExtension xmlns:gpxtpx="http://www.garmin.com/xmlschemas/TrackPointExtension/v1">
            <gpxtpx:hr>108</gpxtpx:hr>
          </gpxtpx:TrackPointExtension>
        </extensions>
      </trkpt>
      <trkpt lat="45.58839" lon="2.9886">
        <ele>726.20001220703</ele>
        <time>2024-05-26T10:35:04.000Z</time>
        <extensions>
          <gpxtpx:TrackPointExtension xmlns:gpxtpx="http://www.garmin.com/xmlschemas/TrackPointExtension/v1">
            <gpxtpx:hr>105</gpxtpx:hr>
          </gpxtpx:TrackPointExtension>
        </extensions>
      </trkpt>
      <trkpt lat="45.5884" lon="2.98872">
        <ele>726</ele>
        <time>2024-05-26T10:35:05.000Z</time>
        <extensions>
          <gpxtpx:TrackPointExtension xmlns:gpxtpx="http://www.garmin.com/xmlschemas/TrackPointExtension/v1">
            <gpxtpx:hr>105</gpxtpx:hr>
          </gpxtpx:TrackPointExtension>
        </extensions>
      </trkpt>
      <trkpt lat="45.58839" lon="2.98885">
        <ele>725.59997558594</ele>
        <time>2024-05-26T10:35:06.000Z</time>
        <extensions>
          <gpxtpx:TrackPointExtension xmlns:gpxtpx="http://www.garmin.com/xmlschemas/TrackPointExtension/v1">
            <gpxtpx:hr>106</gpxtpx:hr>
          </gpxtpx:TrackPointExtension>
        </extensions>
      </trkpt>
      <trkpt lat="45.58838" lon="2.98897">
        <ele>725.59997558594</ele>
        <time>2024-05-26T10:35:07.000Z</time>
        <extensions>
          <gpxtpx:TrackPointExtension xmlns:gpxtpx="http://www.garmin.com/xmlschemas/TrackPointExtension/v1">
            <gpxtpx:hr>106</gpxtpx:hr>
          </gpxtpx:TrackPointExtension>
        </extensions>
      </trkpt>
      <trkpt lat="45.58836" lon="2.98909">
        <ele>724.79998779297</ele>
        <time>2024-05-26T10:35:08.000Z</time>
        <extensions>
          <gpxtpx:TrackPointExtension xmlns:gpxtpx="http://www.garmin.com/xmlschemas/TrackPointExtension/v1">
            <gpxtpx:hr>105</gpxtpx:hr>
          </gpxtpx:TrackPointExtension>
        </extensions>
      </trkpt>
      <trkpt lat="45.58833" lon="2.98922">
        <ele>724.40002441406</ele>
        <time>2024-05-26T10:35:09.000Z</time>
        <extensions>
          <gpxtpx:TrackPointExtension xmlns:gpxtpx="http://www.garmin.com/xmlschemas/TrackPointExtension/v1">
            <gpxtpx:hr>105</gpxtpx:hr>
          </gpxtpx:TrackPointExtension>
        </extensions>
      </trkpt>
      <trkpt lat="45.58829" lon="2.98933">
        <ele>724</ele>
        <time>2024-05-26T10:35:10.000Z</time>
        <extensions>
          <gpxtpx:TrackPointExtension xmlns:gpxtpx="http://www.garmin.com/xmlschemas/TrackPointExtension/v1">
            <gpxtpx:hr>104</gpxtpx:hr>
          </gpxtpx:TrackPointExtension>
        </extensions>
      </trkpt>
      <trkpt lat="45.58824" lon="2.98944">
        <ele>724</ele>
        <time>2024-05-26T10:35:11.000Z</time>
        <extensions>
          <gpxtpx:TrackPointExtension xmlns:gpxtpx="http://www.garmin.com/xmlschemas/TrackPointExtension/v1">
            <gpxtpx:hr>104</gpxtpx:hr>
          </gpxtpx:TrackPointExtension>
        </extensions>
      </trkpt>
      <trkpt lat="45.58819" lon="2.98955">
        <ele>723.40002441406</ele>
        <time>2024-05-26T10:35:12.000Z</time>
        <extensions>
          <gpxtpx:TrackPointExtension xmlns:gpxtpx="http://www.garmin.com/xmlschemas/TrackPointExtension/v1">
            <gpxtpx:hr>104</gpxtpx:hr>
          </gpxtpx:TrackPointExtension>
        </extensions>
      </trkpt>
      <trkpt lat="45.58808" lon="2.98975">
        <ele>722</ele>
        <time>2024-05-26T10:35:14.000Z</time>
        <extensions>
          <gpxtpx:TrackPointExtension xmlns:gpxtpx="http://www.garmin.com/xmlschemas/TrackPointExtension/v1">
            <gpxtpx:hr>103</gpxtpx:hr>
          </gpxtpx:TrackPointExtension>
        </extensions>
      </trkpt>
      <trkpt lat="45.58803" lon="2.98986">
        <ele>721.79998779297</ele>
        <time>2024-05-26T10:35:15.000Z</time>
        <extensions>
          <gpxtpx:TrackPointExtension xmlns:gpxtpx="http://www.garmin.com/xmlschemas/TrackPointExtension/v1">
            <gpxtpx:hr>102</gpxtpx:hr>
          </gpxtpx:TrackPointExtension>
        </extensions>
      </trkpt>
      <trkpt lat="45.58784" lon="2.99029">
        <ele>720</ele>
        <time>2024-05-26T10:35:19.000Z</time>
        <extensions>
          <gpxtpx:TrackPointExtension xmlns:gpxtpx="http://www.garmin.com/xmlschemas/TrackPointExtension/v1">
            <gpxtpx:hr>99</gpxtpx:hr>
          </gpxtpx:TrackPointExtension>
        </extensions>
      </trkpt>
      <trkpt lat="45.58781" lon="2.99041">
        <ele>719.40002441406</ele>
        <time>2024-05-26T10:35:20.000Z</time>
        <extensions>
          <gpxtpx:TrackPointExtension xmlns:gpxtpx="http://www.garmin.com/xmlschemas/TrackPointExtension/v1">
            <gpxtpx:hr>100</gpxtpx:hr>
          </gpxtpx:TrackPointExtension>
        </extensions>
      </trkpt>
      <trkpt lat="45.5878" lon="2.99054">
        <ele>719</ele>
        <time>2024-05-26T10:35:21.000Z</time>
        <extensions>
          <gpxtpx:TrackPointExtension xmlns:gpxtpx="http://www.garmin.com/xmlschemas/TrackPointExtension/v1">
            <gpxtpx:hr>100</gpxtpx:hr>
          </gpxtpx:TrackPointExtension>
        </extensions>
      </trkpt>
      <trkpt lat="45.58781" lon="2.99066">
        <ele>718.79998779297</ele>
        <time>2024-05-26T10:35:22.000Z</time>
        <extensions>
          <gpxtpx:TrackPointExtension xmlns:gpxtpx="http://www.garmin.com/xmlschemas/TrackPointExtension/v1">
            <gpxtpx:hr>100</gpxtpx:hr>
          </gpxtpx:TrackPointExtension>
        </extensions>
      </trkpt>
      <trkpt lat="45.58781" lon="2.99078">
        <ele>718.20001220703</ele>
        <time>2024-05-26T10:35:23.000Z</time>
        <extensions>
          <gpxtpx:TrackPointExtension xmlns:gpxtpx="http://www.garmin.com/xmlschemas/TrackPointExtension/v1">
            <gpxtpx:hr>100</gpxtpx:hr>
          </gpxtpx:TrackPointExtension>
        </extensions>
      </trkpt>
      <trkpt lat="45.58786" lon="2.99108">
        <ele>717.40002441406</ele>
        <time>2024-05-26T10:35:26.000Z</time>
        <extensions>
          <gpxtpx:TrackPointExtension xmlns:gpxtpx="http://www.garmin.com/xmlschemas/TrackPointExtension/v1">
            <gpxtpx:hr>100</gpxtpx:hr>
          </gpxtpx:TrackPointExtension>
        </extensions>
      </trkpt>
      <trkpt lat="45.58789" lon="2.99115">
        <ele>717.20001220703</ele>
        <time>2024-05-26T10:35:27.000Z</time>
        <extensions>
          <gpxtpx:TrackPointExtension xmlns:gpxtpx="http://www.garmin.com/xmlschemas/TrackPointExtension/v1">
            <gpxtpx:hr>98</gpxtpx:hr>
          </gpxtpx:TrackPointExtension>
        </extensions>
      </trkpt>
      <trkpt lat="45.58793" lon="2.99122">
        <ele>717</ele>
        <time>2024-05-26T10:35:28.000Z</time>
        <extensions>
          <gpxtpx:TrackPointExtension xmlns:gpxtpx="http://www.garmin.com/xmlschemas/TrackPointExtension/v1">
            <gpxtpx:hr>99</gpxtpx:hr>
          </gpxtpx:TrackPointExtension>
        </extensions>
      </trkpt>
      <trkpt lat="45.58803" lon="2.9913">
        <ele>717</ele>
        <time>2024-05-26T10:35:30.000Z</time>
        <extensions>
          <gpxtpx:TrackPointExtension xmlns:gpxtpx="http://www.garmin.com/xmlschemas/TrackPointExtension/v1">
            <gpxtpx:hr>99</gpxtpx:hr>
          </gpxtpx:TrackPointExtension>
        </extensions>
      </trkpt>
      <trkpt lat="45.58818" lon="2.99135">
        <ele>717.20001220703</ele>
        <time>2024-05-26T10:35:33.000Z</time>
        <extensions>
          <gpxtpx:TrackPointExtension xmlns:gpxtpx="http://www.garmin.com/xmlschemas/TrackPointExtension/v1">
            <gpxtpx:hr>100</gpxtpx:hr>
          </gpxtpx:TrackPointExtension>
        </extensions>
      </trkpt>
      <trkpt lat="45.58822" lon="2.99135">
        <ele>717.79998779297</ele>
        <time>2024-05-26T10:35:34.000Z</time>
        <extensions>
          <gpxtpx:TrackPointExtension xmlns:gpxtpx="http://www.garmin.com/xmlschemas/TrackPointExtension/v1">
            <gpxtpx:hr>98</gpxtpx:hr>
          </gpxtpx:TrackPointExtension>
        </extensions>
      </trkpt>
      <trkpt lat="45.58827" lon="2.99136">
        <ele>718.59997558594</ele>
        <time>2024-05-26T10:35:36.000Z</time>
        <extensions>
          <gpxtpx:TrackPointExtension xmlns:gpxtpx="http://www.garmin.com/xmlschemas/TrackPointExtension/v1">
            <gpxtpx:hr>101</gpxtpx:hr>
          </gpxtpx:TrackPointExtension>
        </extensions>
      </trkpt>
      <trkpt lat="45.58832" lon="2.99139">
        <ele>719.20001220703</ele>
        <time>2024-05-26T10:35:38.000Z</time>
        <extensions>
          <gpxtpx:TrackPointExtension xmlns:gpxtpx="http://www.garmin.com/xmlschemas/TrackPointExtension/v1">
            <gpxtpx:hr>98</gpxtpx:hr>
          </gpxtpx:TrackPointExtension>
        </extensions>
      </trkpt>
      <trkpt lat="45.58838" lon="2.99146">
        <ele>719.79998779297</ele>
        <time>2024-05-26T10:35:42.000Z</time>
        <extensions>
          <gpxtpx:TrackPointExtension xmlns:gpxtpx="http://www.garmin.com/xmlschemas/TrackPointExtension/v1">
            <gpxtpx:hr>99</gpxtpx:hr>
          </gpxtpx:TrackPointExtension>
        </extensions>
      </trkpt>
      <trkpt lat="45.58839" lon="2.9915">
        <ele>720</ele>
        <time>2024-05-26T10:35:43.000Z</time>
        <extensions>
          <gpxtpx:TrackPointExtension xmlns:gpxtpx="http://www.garmin.com/xmlschemas/TrackPointExtension/v1">
            <gpxtpx:hr>100</gpxtpx:hr>
          </gpxtpx:TrackPointExtension>
        </extensions>
      </trkpt>
      <trkpt lat="45.5884" lon="2.99153">
        <ele>720.20001220703</ele>
        <time>2024-05-26T10:35:44.000Z</time>
        <extensions>
          <gpxtpx:TrackPointExtension xmlns:gpxtpx="http://www.garmin.com/xmlschemas/TrackPointExtension/v1">
            <gpxtpx:hr>101</gpxtpx:hr>
          </gpxtpx:TrackPointExtension>
        </extensions>
      </trkpt>
      <trkpt lat="45.5884" lon="2.99157">
        <ele>720.40002441406</ele>
        <time>2024-05-26T10:35:45.000Z</time>
        <extensions>
          <gpxtpx:TrackPointExtension xmlns:gpxtpx="http://www.garmin.com/xmlschemas/TrackPointExtension/v1">
            <gpxtpx:hr>104</gpxtpx:hr>
          </gpxtpx:TrackPointExtension>
        </extensions>
      </trkpt>
      <trkpt lat="45.58839" lon="2.99159">
        <ele>720.59997558594</ele>
        <time>2024-05-26T10:35:46.000Z</time>
        <extensions>
          <gpxtpx:TrackPointExtension xmlns:gpxtpx="http://www.garmin.com/xmlschemas/TrackPointExtension/v1">
            <gpxtpx:hr>107</gpxtpx:hr>
          </gpxtpx:TrackPointExtension>
        </extensions>
      </trkpt>
      <trkpt lat="45.58839" lon="2.99163">
        <ele>721</ele>
        <time>2024-05-26T10:35:47.000Z</time>
        <extensions>
          <gpxtpx:TrackPointExtension xmlns:gpxtpx="http://www.garmin.com/xmlschemas/TrackPointExtension/v1">
            <gpxtpx:hr>109</gpxtpx:hr>
          </gpxtpx:TrackPointExtension>
        </extensions>
      </trkpt>
      <trkpt lat="45.58837" lon="2.99165">
        <ele>721.20001220703</ele>
        <time>2024-05-26T10:35:48.000Z</time>
        <extensions>
          <gpxtpx:TrackPointExtension xmlns:gpxtpx="http://www.garmin.com/xmlschemas/TrackPointExtension/v1">
            <gpxtpx:hr>107</gpxtpx:hr>
          </gpxtpx:TrackPointExtension>
        </extensions>
      </trkpt>
      <trkpt lat="45.58835" lon="2.99166">
        <ele>721.40002441406</ele>
        <time>2024-05-26T10:35:49.000Z</time>
        <extensions>
          <gpxtpx:TrackPointExtension xmlns:gpxtpx="http://www.garmin.com/xmlschemas/TrackPointExtension/v1">
            <gpxtpx:hr>107</gpxtpx:hr>
          </gpxtpx:TrackPointExtension>
        </extensions>
      </trkpt>
      <trkpt lat="45.58828" lon="2.99164">
        <ele>722.20001220703</ele>
        <time>2024-05-26T10:35:53.000Z</time>
        <extensions>
          <gpxtpx:TrackPointExtension xmlns:gpxtpx="http://www.garmin.com/xmlschemas/TrackPointExtension/v1">
            <gpxtpx:hr>108</gpxtpx:hr>
          </gpxtpx:TrackPointExtension>
        </extensions>
      </trkpt>
      <trkpt lat="45.58826" lon="2.99163">
        <ele>722.20001220703</ele>
        <time>2024-05-26T10:35:54.000Z</time>
        <extensions>
          <gpxtpx:TrackPointExtension xmlns:gpxtpx="http://www.garmin.com/xmlschemas/TrackPointExtension/v1">
            <gpxtpx:hr>109</gpxtpx:hr>
          </gpxtpx:TrackPointExtension>
        </extensions>
      </trkpt>
      <trkpt lat="45.58814" lon="2.99158">
        <ele>723.20001220703</ele>
        <time>2024-05-26T10:36:00.000Z</time>
        <extensions>
          <gpxtpx:TrackPointExtension xmlns:gpxtpx="http://www.garmin.com/xmlschemas/TrackPointExtension/v1">
            <gpxtpx:hr>111</gpxtpx:hr>
          </gpxtpx:TrackPointExtension>
        </extensions>
      </trkpt>
      <trkpt lat="45.58812" lon="2.99158">
        <ele>723.20001220703</ele>
        <time>2024-05-26T10:36:01.000Z</time>
        <extensions>
          <gpxtpx:TrackPointExtension xmlns:gpxtpx="http://www.garmin.com/xmlschemas/TrackPointExtension/v1">
            <gpxtpx:hr>111</gpxtpx:hr>
          </gpxtpx:TrackPointExtension>
        </extensions>
      </trkpt>
      <trkpt lat="45.58801" lon="2.99166">
        <ele>723.79998779297</ele>
        <time>2024-05-26T10:36:06.000Z</time>
        <extensions>
          <gpxtpx:TrackPointExtension xmlns:gpxtpx="http://www.garmin.com/xmlschemas/TrackPointExtension/v1">
            <gpxtpx:hr>111</gpxtpx:hr>
          </gpxtpx:TrackPointExtension>
        </extensions>
      </trkpt>
      <trkpt lat="45.58796" lon="2.99172">
        <ele>724.40002441406</ele>
        <time>2024-05-26T10:36:09.000Z</time>
        <extensions>
          <gpxtpx:TrackPointExtension xmlns:gpxtpx="http://www.garmin.com/xmlschemas/TrackPointExtension/v1">
            <gpxtpx:hr>111</gpxtpx:hr>
          </gpxtpx:TrackPointExtension>
        </extensions>
      </trkpt>
      <trkpt lat="45.58785" lon="2.99181">
        <ele>725</ele>
        <time>2024-05-26T10:36:14.000Z</time>
        <extensions>
          <gpxtpx:TrackPointExtension xmlns:gpxtpx="http://www.garmin.com/xmlschemas/TrackPointExtension/v1">
            <gpxtpx:hr>110</gpxtpx:hr>
          </gpxtpx:TrackPointExtension>
        </extensions>
      </trkpt>
      <trkpt lat="45.58782" lon="2.99182">
        <ele>725</ele>
        <time>2024-05-26T10:36:15.000Z</time>
        <extensions>
          <gpxtpx:TrackPointExtension xmlns:gpxtpx="http://www.garmin.com/xmlschemas/TrackPointExtension/v1">
            <gpxtpx:hr>111</gpxtpx:hr>
          </gpxtpx:TrackPointExtension>
        </extensions>
      </trkpt>
      <trkpt lat="45.58774" lon="2.99189">
        <ele>725.79998779297</ele>
        <time>2024-05-26T10:36:19.000Z</time>
        <extensions>
          <gpxtpx:TrackPointExtension xmlns:gpxtpx="http://www.garmin.com/xmlschemas/TrackPointExtension/v1">
            <gpxtpx:hr>111</gpxtpx:hr>
          </gpxtpx:TrackPointExtension>
        </extensions>
      </trkpt>
      <trkpt lat="45.58769" lon="2.99197">
        <ele>726.40002441406</ele>
        <time>2024-05-26T10:36:23.000Z</time>
        <extensions>
          <gpxtpx:TrackPointExtension xmlns:gpxtpx="http://www.garmin.com/xmlschemas/TrackPointExtension/v1">
            <gpxtpx:hr>112</gpxtpx:hr>
          </gpxtpx:TrackPointExtension>
        </extensions>
      </trkpt>
      <trkpt lat="45.58767" lon="2.99205">
        <ele>726.59997558594</ele>
        <time>2024-05-26T10:36:25.000Z</time>
        <extensions>
          <gpxtpx:TrackPointExtension xmlns:gpxtpx="http://www.garmin.com/xmlschemas/TrackPointExtension/v1">
            <gpxtpx:hr>110</gpxtpx:hr>
          </gpxtpx:TrackPointExtension>
        </extensions>
      </trkpt>
      <trkpt lat="45.58764" lon="2.99213">
        <ele>727.20001220703</ele>
        <time>2024-05-26T10:36:27.000Z</time>
        <extensions>
          <gpxtpx:TrackPointExtension xmlns:gpxtpx="http://www.garmin.com/xmlschemas/TrackPointExtension/v1">
            <gpxtpx:hr>110</gpxtpx:hr>
          </gpxtpx:TrackPointExtension>
        </extensions>
      </trkpt>
      <trkpt lat="45.5876" lon="2.99229">
        <ele>728.20001220703</ele>
        <time>2024-05-26T10:36:30.000Z</time>
        <extensions>
          <gpxtpx:TrackPointExtension xmlns:gpxtpx="http://www.garmin.com/xmlschemas/TrackPointExtension/v1">
            <gpxtpx:hr>109</gpxtpx:hr>
          </gpxtpx:TrackPointExtension>
        </extensions>
      </trkpt>
      <trkpt lat="45.5876" lon="2.99236">
        <ele>728.40002441406</ele>
        <time>2024-05-26T10:36:31.000Z</time>
        <extensions>
          <gpxtpx:TrackPointExtension xmlns:gpxtpx="http://www.garmin.com/xmlschemas/TrackPointExtension/v1">
            <gpxtpx:hr>109</gpxtpx:hr>
          </gpxtpx:TrackPointExtension>
        </extensions>
      </trkpt>
      <trkpt lat="45.58761" lon="2.99244">
        <ele>728.79998779297</ele>
        <time>2024-05-26T10:36:32.000Z</time>
        <extensions>
          <gpxtpx:TrackPointExtension xmlns:gpxtpx="http://www.garmin.com/xmlschemas/TrackPointExtension/v1">
            <gpxtpx:hr>109</gpxtpx:hr>
          </gpxtpx:TrackPointExtension>
        </extensions>
      </trkpt>
      <trkpt lat="45.58764" lon="2.99265">
        <ele>729.40002441406</ele>
        <time>2024-05-26T10:36:35.000Z</time>
        <extensions>
          <gpxtpx:TrackPointExtension xmlns:gpxtpx="http://www.garmin.com/xmlschemas/TrackPointExtension/v1">
            <gpxtpx:hr>108</gpxtpx:hr>
          </gpxtpx:TrackPointExtension>
        </extensions>
      </trkpt>
      <trkpt lat="45.58766" lon="2.99279">
        <ele>730</ele>
        <time>2024-05-26T10:36:37.000Z</time>
        <extensions>
          <gpxtpx:TrackPointExtension xmlns:gpxtpx="http://www.garmin.com/xmlschemas/TrackPointExtension/v1">
            <gpxtpx:hr>107</gpxtpx:hr>
          </gpxtpx:TrackPointExtension>
        </extensions>
      </trkpt>
      <trkpt lat="45.58766" lon="2.99285">
        <ele>730.59997558594</ele>
        <time>2024-05-26T10:36:38.000Z</time>
        <extensions>
          <gpxtpx:TrackPointExtension xmlns:gpxtpx="http://www.garmin.com/xmlschemas/TrackPointExtension/v1">
            <gpxtpx:hr>106</gpxtpx:hr>
          </gpxtpx:TrackPointExtension>
        </extensions>
      </trkpt>
      <trkpt lat="45.58768" lon="2.99312">
        <ele>731.79998779297</ele>
        <time>2024-05-26T10:36:42.000Z</time>
        <extensions>
          <gpxtpx:TrackPointExtension xmlns:gpxtpx="http://www.garmin.com/xmlschemas/TrackPointExtension/v1">
            <gpxtpx:hr>105</gpxtpx:hr>
          </gpxtpx:TrackPointExtension>
        </extensions>
      </trkpt>
      <trkpt lat="45.58769" lon="2.99318">
        <ele>732</ele>
        <time>2024-05-26T10:36:43.000Z</time>
        <extensions>
          <gpxtpx:TrackPointExtension xmlns:gpxtpx="http://www.garmin.com/xmlschemas/TrackPointExtension/v1">
            <gpxtpx:hr>104</gpxtpx:hr>
          </gpxtpx:TrackPointExtension>
        </extensions>
      </trkpt>
      <trkpt lat="45.58772" lon="2.99323">
        <ele>732.79998779297</ele>
        <time>2024-05-26T10:36:44.000Z</time>
        <extensions>
          <gpxtpx:TrackPointExtension xmlns:gpxtpx="http://www.garmin.com/xmlschemas/TrackPointExtension/v1">
            <gpxtpx:hr>106</gpxtpx:hr>
          </gpxtpx:TrackPointExtension>
        </extensions>
      </trkpt>
      <trkpt lat="45.58775" lon="2.99327">
        <ele>733</ele>
        <time>2024-05-26T10:36:45.000Z</time>
        <extensions>
          <gpxtpx:TrackPointExtension xmlns:gpxtpx="http://www.garmin.com/xmlschemas/TrackPointExtension/v1">
            <gpxtpx:hr>105</gpxtpx:hr>
          </gpxtpx:TrackPointExtension>
        </extensions>
      </trkpt>
      <trkpt lat="45.58783" lon="2.99334">
        <ele>733.79998779297</ele>
        <time>2024-05-26T10:36:47.000Z</time>
        <extensions>
          <gpxtpx:TrackPointExtension xmlns:gpxtpx="http://www.garmin.com/xmlschemas/TrackPointExtension/v1">
            <gpxtpx:hr>107</gpxtpx:hr>
          </gpxtpx:TrackPointExtension>
        </extensions>
      </trkpt>
      <trkpt lat="45.58787" lon="2.99336">
        <ele>734.20001220703</ele>
        <time>2024-05-26T10:36:48.000Z</time>
        <extensions>
          <gpxtpx:TrackPointExtension xmlns:gpxtpx="http://www.garmin.com/xmlschemas/TrackPointExtension/v1">
            <gpxtpx:hr>106</gpxtpx:hr>
          </gpxtpx:TrackPointExtension>
        </extensions>
      </trkpt>
      <trkpt lat="45.58792" lon="2.99337">
        <ele>734.59997558594</ele>
        <time>2024-05-26T10:36:49.000Z</time>
        <extensions>
          <gpxtpx:TrackPointExtension xmlns:gpxtpx="http://www.garmin.com/xmlschemas/TrackPointExtension/v1">
            <gpxtpx:hr>106</gpxtpx:hr>
          </gpxtpx:TrackPointExtension>
        </extensions>
      </trkpt>
      <trkpt lat="45.58806" lon="2.99334">
        <ele>735.20001220703</ele>
        <time>2024-05-26T10:36:52.000Z</time>
        <extensions>
          <gpxtpx:TrackPointExtension xmlns:gpxtpx="http://www.garmin.com/xmlschemas/TrackPointExtension/v1">
            <gpxtpx:hr>106</gpxtpx:hr>
          </gpxtpx:TrackPointExtension>
        </extensions>
      </trkpt>
      <trkpt lat="45.5881" lon="2.99333">
        <ele>735.20001220703</ele>
        <time>2024-05-26T10:36:53.000Z</time>
        <extensions>
          <gpxtpx:TrackPointExtension xmlns:gpxtpx="http://www.garmin.com/xmlschemas/TrackPointExtension/v1">
            <gpxtpx:hr>105</gpxtpx:hr>
          </gpxtpx:TrackPointExtension>
        </extensions>
      </trkpt>
      <trkpt lat="45.58826" lon="2.99329">
        <ele>736.59997558594</ele>
        <time>2024-05-26T10:36:57.000Z</time>
        <extensions>
          <gpxtpx:TrackPointExtension xmlns:gpxtpx="http://www.garmin.com/xmlschemas/TrackPointExtension/v1">
            <gpxtpx:hr>105</gpxtpx:hr>
          </gpxtpx:TrackPointExtension>
        </extensions>
      </trkpt>
      <trkpt lat="45.5884" lon="2.99327">
        <ele>737.59997558594</ele>
        <time>2024-05-26T10:37:01.000Z</time>
        <extensions>
          <gpxtpx:TrackPointExtension xmlns:gpxtpx="http://www.garmin.com/xmlschemas/TrackPointExtension/v1">
            <gpxtpx:hr>107</gpxtpx:hr>
          </gpxtpx:TrackPointExtension>
        </extensions>
      </trkpt>
      <trkpt lat="45.58851" lon="2.99336">
        <ele>738</ele>
        <time>2024-05-26T10:37:05.000Z</time>
        <extensions>
          <gpxtpx:TrackPointExtension xmlns:gpxtpx="http://www.garmin.com/xmlschemas/TrackPointExtension/v1">
            <gpxtpx:hr>108</gpxtpx:hr>
          </gpxtpx:TrackPointExtension>
        </extensions>
      </trkpt>
      <trkpt lat="45.58855" lon="2.99342">
        <ele>738.59997558594</ele>
        <time>2024-05-26T10:37:07.000Z</time>
        <extensions>
          <gpxtpx:TrackPointExtension xmlns:gpxtpx="http://www.garmin.com/xmlschemas/TrackPointExtension/v1">
            <gpxtpx:hr>111</gpxtpx:hr>
          </gpxtpx:TrackPointExtension>
        </extensions>
      </trkpt>
      <trkpt lat="45.58856" lon="2.99344">
        <ele>738.79998779297</ele>
        <time>2024-05-26T10:37:08.000Z</time>
        <extensions>
          <gpxtpx:TrackPointExtension xmlns:gpxtpx="http://www.garmin.com/xmlschemas/TrackPointExtension/v1">
            <gpxtpx:hr>110</gpxtpx:hr>
          </gpxtpx:TrackPointExtension>
        </extensions>
      </trkpt>
      <trkpt lat="45.58861" lon="2.99354">
        <ele>739.59997558594</ele>
        <time>2024-05-26T10:37:12.000Z</time>
        <extensions>
          <gpxtpx:TrackPointExtension xmlns:gpxtpx="http://www.garmin.com/xmlschemas/TrackPointExtension/v1">
            <gpxtpx:hr>112</gpxtpx:hr>
          </gpxtpx:TrackPointExtension>
        </extensions>
      </trkpt>
      <trkpt lat="45.58863" lon="2.99358">
        <ele>740.20001220703</ele>
        <time>2024-05-26T10:37:14.000Z</time>
        <extensions>
          <gpxtpx:TrackPointExtension xmlns:gpxtpx="http://www.garmin.com/xmlschemas/TrackPointExtension/v1">
            <gpxtpx:hr>113</gpxtpx:hr>
          </gpxtpx:TrackPointExtension>
        </extensions>
      </trkpt>
      <trkpt lat="45.58872" lon="2.99367">
        <ele>741.40002441406</ele>
        <time>2024-05-26T10:37:19.000Z</time>
        <extensions>
          <gpxtpx:TrackPointExtension xmlns:gpxtpx="http://www.garmin.com/xmlschemas/TrackPointExtension/v1">
            <gpxtpx:hr>113</gpxtpx:hr>
          </gpxtpx:TrackPointExtension>
        </extensions>
      </trkpt>
      <trkpt lat="45.58874" lon="2.99369">
        <ele>741.59997558594</ele>
        <time>2024-05-26T10:37:20.000Z</time>
        <extensions>
          <gpxtpx:TrackPointExtension xmlns:gpxtpx="http://www.garmin.com/xmlschemas/TrackPointExtension/v1">
            <gpxtpx:hr>113</gpxtpx:hr>
          </gpxtpx:TrackPointExtension>
        </extensions>
      </trkpt>
      <trkpt lat="45.58884" lon="2.99371">
        <ele>742.40002441406</ele>
        <time>2024-05-26T10:37:25.000Z</time>
        <extensions>
          <gpxtpx:TrackPointExtension xmlns:gpxtpx="http://www.garmin.com/xmlschemas/TrackPointExtension/v1">
            <gpxtpx:hr>113</gpxtpx:hr>
          </gpxtpx:TrackPointExtension>
        </extensions>
      </trkpt>
      <trkpt lat="45.58886" lon="2.9937">
        <ele>742.59997558594</ele>
        <time>2024-05-26T10:37:26.000Z</time>
        <extensions>
          <gpxtpx:TrackPointExtension xmlns:gpxtpx="http://www.garmin.com/xmlschemas/TrackPointExtension/v1">
            <gpxtpx:hr>114</gpxtpx:hr>
          </gpxtpx:TrackPointExtension>
        </extensions>
      </trkpt>
      <trkpt lat="45.58894" lon="2.9936">
        <ele>743.40002441406</ele>
        <time>2024-05-26T10:37:31.000Z</time>
        <extensions>
          <gpxtpx:TrackPointExtension xmlns:gpxtpx="http://www.garmin.com/xmlschemas/TrackPointExtension/v1">
            <gpxtpx:hr>114</gpxtpx:hr>
          </gpxtpx:TrackPointExtension>
        </extensions>
      </trkpt>
      <trkpt lat="45.58896" lon="2.99357">
        <ele>743.40002441406</ele>
        <time>2024-05-26T10:37:32.000Z</time>
        <extensions>
          <gpxtpx:TrackPointExtension xmlns:gpxtpx="http://www.garmin.com/xmlschemas/TrackPointExtension/v1">
            <gpxtpx:hr>114</gpxtpx:hr>
          </gpxtpx:TrackPointExtension>
        </extensions>
      </trkpt>
      <trkpt lat="45.58899" lon="2.99342">
        <ele>744.40002441406</ele>
        <time>2024-05-26T10:37:37.000Z</time>
        <extensions>
          <gpxtpx:TrackPointExtension xmlns:gpxtpx="http://www.garmin.com/xmlschemas/TrackPointExtension/v1">
            <gpxtpx:hr>115</gpxtpx:hr>
          </gpxtpx:TrackPointExtension>
        </extensions>
      </trkpt>
      <trkpt lat="45.58899" lon="2.99339">
        <ele>744.59997558594</ele>
        <time>2024-05-26T10:37:38.000Z</time>
        <extensions>
          <gpxtpx:TrackPointExtension xmlns:gpxtpx="http://www.garmin.com/xmlschemas/TrackPointExtension/v1">
            <gpxtpx:hr>116</gpxtpx:hr>
          </gpxtpx:TrackPointExtension>
        </extensions>
      </trkpt>
      <trkpt lat="45.58894" lon="2.99326">
        <ele>745.59997558594</ele>
        <time>2024-05-26T10:37:43.000Z</time>
        <extensions>
          <gpxtpx:TrackPointExtension xmlns:gpxtpx="http://www.garmin.com/xmlschemas/TrackPointExtension/v1">
            <gpxtpx:hr>117</gpxtpx:hr>
          </gpxtpx:TrackPointExtension>
        </extensions>
      </trkpt>
      <trkpt lat="45.58892" lon="2.99324">
        <ele>745.59997558594</ele>
        <time>2024-05-26T10:37:44.000Z</time>
        <extensions>
          <gpxtpx:TrackPointExtension xmlns:gpxtpx="http://www.garmin.com/xmlschemas/TrackPointExtension/v1">
            <gpxtpx:hr>116</gpxtpx:hr>
          </gpxtpx:TrackPointExtension>
        </extensions>
      </trkpt>
      <trkpt lat="45.58886" lon="2.99315">
        <ele>746.20001220703</ele>
        <time>2024-05-26T10:37:48.000Z</time>
        <extensions>
          <gpxtpx:TrackPointExtension xmlns:gpxtpx="http://www.garmin.com/xmlschemas/TrackPointExtension/v1">
            <gpxtpx:hr>113</gpxtpx:hr>
          </gpxtpx:TrackPointExtension>
        </extensions>
      </trkpt>
      <trkpt lat="45.5888" lon="2.9931">
        <ele>746.59997558594</ele>
        <time>2024-05-26T10:37:51.000Z</time>
        <extensions>
          <gpxtpx:TrackPointExtension xmlns:gpxtpx="http://www.garmin.com/xmlschemas/TrackPointExtension/v1">
            <gpxtpx:hr>113</gpxtpx:hr>
          </gpxtpx:TrackPointExtension>
        </extensions>
      </trkpt>
      <trkpt lat="45.58878" lon="2.99308">
        <ele>746.59997558594</ele>
        <time>2024-05-26T10:37:52.000Z</time>
        <extensions>
          <gpxtpx:TrackPointExtension xmlns:gpxtpx="http://www.garmin.com/xmlschemas/TrackPointExtension/v1">
            <gpxtpx:hr>112</gpxtpx:hr>
          </gpxtpx:TrackPointExtension>
        </extensions>
      </trkpt>
      <trkpt lat="45.58872" lon="2.99301">
        <ele>747.20001220703</ele>
        <time>2024-05-26T10:37:55.000Z</time>
        <extensions>
          <gpxtpx:TrackPointExtension xmlns:gpxtpx="http://www.garmin.com/xmlschemas/TrackPointExtension/v1">
            <gpxtpx:hr>112</gpxtpx:hr>
          </gpxtpx:TrackPointExtension>
        </extensions>
      </trkpt>
      <trkpt lat="45.58869" lon="2.99296">
        <ele>747.40002441406</ele>
        <time>2024-05-26T10:37:57.000Z</time>
        <extensions>
          <gpxtpx:TrackPointExtension xmlns:gpxtpx="http://www.garmin.com/xmlschemas/TrackPointExtension/v1">
            <gpxtpx:hr>114</gpxtpx:hr>
          </gpxtpx:TrackPointExtension>
        </extensions>
      </trkpt>
      <trkpt lat="45.58864" lon="2.99289">
        <ele>747.79998779297</ele>
        <time>2024-05-26T10:38:00.000Z</time>
        <extensions>
          <gpxtpx:TrackPointExtension xmlns:gpxtpx="http://www.garmin.com/xmlschemas/TrackPointExtension/v1">
            <gpxtpx:hr>116</gpxtpx:hr>
          </gpxtpx:TrackPointExtension>
        </extensions>
      </trkpt>
      <trkpt lat="45.58862" lon="2.99278">
        <ele>748.59997558594</ele>
        <time>2024-05-26T10:38:04.000Z</time>
        <extensions>
          <gpxtpx:TrackPointExtension xmlns:gpxtpx="http://www.garmin.com/xmlschemas/TrackPointExtension/v1">
            <gpxtpx:hr>117</gpxtpx:hr>
          </gpxtpx:TrackPointExtension>
        </extensions>
      </trkpt>
      <trkpt lat="45.58862" lon="2.99275">
        <ele>749</ele>
        <time>2024-05-26T10:38:05.000Z</time>
        <extensions>
          <gpxtpx:TrackPointExtension xmlns:gpxtpx="http://www.garmin.com/xmlschemas/TrackPointExtension/v1">
            <gpxtpx:hr>117</gpxtpx:hr>
          </gpxtpx:TrackPointExtension>
        </extensions>
      </trkpt>
      <trkpt lat="45.58868" lon="2.99261">
        <ele>749.59997558594</ele>
        <time>2024-05-26T10:38:10.000Z</time>
        <extensions>
          <gpxtpx:TrackPointExtension xmlns:gpxtpx="http://www.garmin.com/xmlschemas/TrackPointExtension/v1">
            <gpxtpx:hr>116</gpxtpx:hr>
          </gpxtpx:TrackPointExtension>
        </extensions>
      </trkpt>
      <trkpt lat="45.58875" lon="2.99257">
        <ele>750</ele>
        <time>2024-05-26T10:38:13.000Z</time>
        <extensions>
          <gpxtpx:TrackPointExtension xmlns:gpxtpx="http://www.garmin.com/xmlschemas/TrackPointExtension/v1">
            <gpxtpx:hr>118</gpxtpx:hr>
          </gpxtpx:TrackPointExtension>
        </extensions>
      </trkpt>
      <trkpt lat="45.58877" lon="2.99258">
        <ele>750.20001220703</ele>
        <time>2024-05-26T10:38:14.000Z</time>
        <extensions>
          <gpxtpx:TrackPointExtension xmlns:gpxtpx="http://www.garmin.com/xmlschemas/TrackPointExtension/v1">
            <gpxtpx:hr>118</gpxtpx:hr>
          </gpxtpx:TrackPointExtension>
        </extensions>
      </trkpt>
      <trkpt lat="45.5888" lon="2.99258">
        <ele>750.20001220703</ele>
        <time>2024-05-26T10:38:16.000Z</time>
        <extensions>
          <gpxtpx:TrackPointExtension xmlns:gpxtpx="http://www.garmin.com/xmlschemas/TrackPointExtension/v1">
            <gpxtpx:hr>115</gpxtpx:hr>
          </gpxtpx:TrackPointExtension>
        </extensions>
      </trkpt>
      <trkpt lat="45.58886" lon="2.9926">
        <ele>750.20001220703</ele>
        <time>2024-05-26T10:38:18.000Z</time>
        <extensions>
          <gpxtpx:TrackPointExtension xmlns:gpxtpx="http://www.garmin.com/xmlschemas/TrackPointExtension/v1">
            <gpxtpx:hr>116</gpxtpx:hr>
          </gpxtpx:TrackPointExtension>
        </extensions>
      </trkpt>
      <trkpt lat="45.58904" lon="2.9927">
        <ele>751</ele>
        <time>2024-05-26T10:38:26.000Z</time>
        <extensions>
          <gpxtpx:TrackPointExtension xmlns:gpxtpx="http://www.garmin.com/xmlschemas/TrackPointExtension/v1">
            <gpxtpx:hr>118</gpxtpx:hr>
          </gpxtpx:TrackPointExtension>
        </extensions>
      </trkpt>
      <trkpt lat="45.58909" lon="2.99273">
        <ele>751.20001220703</ele>
        <time>2024-05-26T10:38:28.000Z</time>
        <extensions>
          <gpxtpx:TrackPointExtension xmlns:gpxtpx="http://www.garmin.com/xmlschemas/TrackPointExtension/v1">
            <gpxtpx:hr>118</gpxtpx:hr>
          </gpxtpx:TrackPointExtension>
        </extensions>
      </trkpt>
      <trkpt lat="45.58919" lon="2.99278">
        <ele>752.20001220703</ele>
        <time>2024-05-26T10:38:33.000Z</time>
        <extensions>
          <gpxtpx:TrackPointExtension xmlns:gpxtpx="http://www.garmin.com/xmlschemas/TrackPointExtension/v1">
            <gpxtpx:hr>118</gpxtpx:hr>
          </gpxtpx:TrackPointExtension>
        </extensions>
      </trkpt>
      <trkpt lat="45.58926" lon="2.99283">
        <ele>753</ele>
        <time>2024-05-26T10:38:37.000Z</time>
        <extensions>
          <gpxtpx:TrackPointExtension xmlns:gpxtpx="http://www.garmin.com/xmlschemas/TrackPointExtension/v1">
            <gpxtpx:hr>114</gpxtpx:hr>
          </gpxtpx:TrackPointExtension>
        </extensions>
      </trkpt>
      <trkpt lat="45.58927" lon="2.99284">
        <ele>753.20001220703</ele>
        <time>2024-05-26T10:38:38.000Z</time>
        <extensions>
          <gpxtpx:TrackPointExtension xmlns:gpxtpx="http://www.garmin.com/xmlschemas/TrackPointExtension/v1">
            <gpxtpx:hr>118</gpxtpx:hr>
          </gpxtpx:TrackPointExtension>
        </extensions>
      </trkpt>
      <trkpt lat="45.58934" lon="2.99288">
        <ele>754</ele>
        <time>2024-05-26T10:38:42.000Z</time>
        <extensions>
          <gpxtpx:TrackPointExtension xmlns:gpxtpx="http://www.garmin.com/xmlschemas/TrackPointExtension/v1">
            <gpxtpx:hr>113</gpxtpx:hr>
          </gpxtpx:TrackPointExtension>
        </extensions>
      </trkpt>
      <trkpt lat="45.58937" lon="2.9929">
        <ele>754.40002441406</ele>
        <time>2024-05-26T10:38:44.000Z</time>
        <extensions>
          <gpxtpx:TrackPointExtension xmlns:gpxtpx="http://www.garmin.com/xmlschemas/TrackPointExtension/v1">
            <gpxtpx:hr>112</gpxtpx:hr>
          </gpxtpx:TrackPointExtension>
        </extensions>
      </trkpt>
      <trkpt lat="45.58942" lon="2.9929">
        <ele>755</ele>
        <time>2024-05-26T10:38:47.000Z</time>
        <extensions>
          <gpxtpx:TrackPointExtension xmlns:gpxtpx="http://www.garmin.com/xmlschemas/TrackPointExtension/v1">
            <gpxtpx:hr>116</gpxtpx:hr>
          </gpxtpx:TrackPointExtension>
        </extensions>
      </trkpt>
      <trkpt lat="45.58946" lon="2.99293">
        <ele>755.40002441406</ele>
        <time>2024-05-26T10:38:50.000Z</time>
        <extensions>
          <gpxtpx:TrackPointExtension xmlns:gpxtpx="http://www.garmin.com/xmlschemas/TrackPointExtension/v1">
            <gpxtpx:hr>116</gpxtpx:hr>
          </gpxtpx:TrackPointExtension>
        </extensions>
      </trkpt>
      <trkpt lat="45.58948" lon="2.99295">
        <ele>755.59997558594</ele>
        <time>2024-05-26T10:38:51.000Z</time>
        <extensions>
          <gpxtpx:TrackPointExtension xmlns:gpxtpx="http://www.garmin.com/xmlschemas/TrackPointExtension/v1">
            <gpxtpx:hr>117</gpxtpx:hr>
          </gpxtpx:TrackPointExtension>
        </extensions>
      </trkpt>
      <trkpt lat="45.5896" lon="2.993">
        <ele>756.59997558594</ele>
        <time>2024-05-26T10:38:57.000Z</time>
        <extensions>
          <gpxtpx:TrackPointExtension xmlns:gpxtpx="http://www.garmin.com/xmlschemas/TrackPointExtension/v1">
            <gpxtpx:hr>115</gpxtpx:hr>
          </gpxtpx:TrackPointExtension>
        </extensions>
      </trkpt>
      <trkpt lat="45.58961" lon="2.99301">
        <ele>756.59997558594</ele>
        <time>2024-05-26T10:38:58.000Z</time>
        <extensions>
          <gpxtpx:TrackPointExtension xmlns:gpxtpx="http://www.garmin.com/xmlschemas/TrackPointExtension/v1">
            <gpxtpx:hr>115</gpxtpx:hr>
          </gpxtpx:TrackPointExtension>
        </extensions>
      </trkpt>
      <trkpt lat="45.58967" lon="2.99308">
        <ele>757.40002441406</ele>
        <time>2024-05-26T10:39:03.000Z</time>
        <extensions>
          <gpxtpx:TrackPointExtension xmlns:gpxtpx="http://www.garmin.com/xmlschemas/TrackPointExtension/v1">
            <gpxtpx:hr>114</gpxtpx:hr>
          </gpxtpx:TrackPointExtension>
        </extensions>
      </trkpt>
      <trkpt lat="45.58969" lon="2.9931">
        <ele>757.59997558594</ele>
        <time>2024-05-26T10:39:04.000Z</time>
        <extensions>
          <gpxtpx:TrackPointExtension xmlns:gpxtpx="http://www.garmin.com/xmlschemas/TrackPointExtension/v1">
            <gpxtpx:hr>115</gpxtpx:hr>
          </gpxtpx:TrackPointExtension>
        </extensions>
      </trkpt>
      <trkpt lat="45.58976" lon="2.99318">
        <ele>758.79998779297</ele>
        <time>2024-05-26T10:39:09.000Z</time>
        <extensions>
          <gpxtpx:TrackPointExtension xmlns:gpxtpx="http://www.garmin.com/xmlschemas/TrackPointExtension/v1">
            <gpxtpx:hr>115</gpxtpx:hr>
          </gpxtpx:TrackPointExtension>
        </extensions>
      </trkpt>
      <trkpt lat="45.58977" lon="2.99319">
        <ele>758.79998779297</ele>
        <time>2024-05-26T10:39:10.000Z</time>
        <extensions>
          <gpxtpx:TrackPointExtension xmlns:gpxtpx="http://www.garmin.com/xmlschemas/TrackPointExtension/v1">
            <gpxtpx:hr>115</gpxtpx:hr>
          </gpxtpx:TrackPointExtension>
        </extensions>
      </trkpt>
      <trkpt lat="45.58984" lon="2.99327">
        <ele>759.40002441406</ele>
        <time>2024-05-26T10:39:14.000Z</time>
        <extensions>
          <gpxtpx:TrackPointExtension xmlns:gpxtpx="http://www.garmin.com/xmlschemas/TrackPointExtension/v1">
            <gpxtpx:hr>116</gpxtpx:hr>
          </gpxtpx:TrackPointExtension>
        </extensions>
      </trkpt>
      <trkpt lat="45.58987" lon="2.99332">
        <ele>759.40002441406</ele>
        <time>2024-05-26T10:39:17.000Z</time>
        <extensions>
          <gpxtpx:TrackPointExtension xmlns:gpxtpx="http://www.garmin.com/xmlschemas/TrackPointExtension/v1">
            <gpxtpx:hr>116</gpxtpx:hr>
          </gpxtpx:TrackPointExtension>
        </extensions>
      </trkpt>
      <trkpt lat="45.58988" lon="2.99334">
        <ele>759.40002441406</ele>
        <time>2024-05-26T10:39:21.000Z</time>
        <extensions>
          <gpxtpx:TrackPointExtension xmlns:gpxtpx="http://www.garmin.com/xmlschemas/TrackPointExtension/v1">
            <gpxtpx:hr>113</gpxtpx:hr>
          </gpxtpx:TrackPointExtension>
        </extensions>
      </trkpt>
      <trkpt lat="45.58988" lon="2.99334">
        <ele>759.59997558594</ele>
        <time>2024-05-26T10:39:23.000Z</time>
        <extensions>
          <gpxtpx:TrackPointExtension xmlns:gpxtpx="http://www.garmin.com/xmlschemas/TrackPointExtension/v1">
            <gpxtpx:hr>113</gpxtpx:hr>
          </gpxtpx:TrackPointExtension>
        </extensions>
      </trkpt>
      <trkpt lat="45.58989" lon="2.99332">
        <ele>759.59997558594</ele>
        <time>2024-05-26T10:39:29.000Z</time>
        <extensions>
          <gpxtpx:TrackPointExtension xmlns:gpxtpx="http://www.garmin.com/xmlschemas/TrackPointExtension/v1">
            <gpxtpx:hr>113</gpxtpx:hr>
          </gpxtpx:TrackPointExtension>
        </extensions>
      </trkpt>
      <trkpt lat="45.58989" lon="2.99332">
        <ele>759.40002441406</ele>
        <time>2024-05-26T10:39:36.000Z</time>
        <extensions>
          <gpxtpx:TrackPointExtension xmlns:gpxtpx="http://www.garmin.com/xmlschemas/TrackPointExtension/v1">
            <gpxtpx:hr>111</gpxtpx:hr>
          </gpxtpx:TrackPointExtension>
        </extensions>
      </trkpt>
      <trkpt lat="45.58988" lon="2.99331">
        <ele>759.40002441406</ele>
        <time>2024-05-26T10:39:42.000Z</time>
        <extensions>
          <gpxtpx:TrackPointExtension xmlns:gpxtpx="http://www.garmin.com/xmlschemas/TrackPointExtension/v1">
            <gpxtpx:hr>109</gpxtpx:hr>
          </gpxtpx:TrackPointExtension>
        </extensions>
      </trkpt>
      <trkpt lat="45.58988" lon="2.9933">
        <ele>759.20001220703</ele>
        <time>2024-05-26T10:39:53.000Z</time>
        <extensions>
          <gpxtpx:TrackPointExtension xmlns:gpxtpx="http://www.garmin.com/xmlschemas/TrackPointExtension/v1">
            <gpxtpx:hr>108</gpxtpx:hr>
          </gpxtpx:TrackPointExtension>
        </extensions>
      </trkpt>
      <trkpt lat="45.5899" lon="2.99329">
        <ele>759.20001220703</ele>
        <time>2024-05-26T10:40:00.000Z</time>
        <extensions>
          <gpxtpx:TrackPointExtension xmlns:gpxtpx="http://www.garmin.com/xmlschemas/TrackPointExtension/v1">
            <gpxtpx:hr>110</gpxtpx:hr>
          </gpxtpx:TrackPointExtension>
        </extensions>
      </trkpt>
      <trkpt lat="45.58992" lon="2.99328">
        <ele>759</ele>
        <time>2024-05-26T10:40:05.000Z</time>
        <extensions>
          <gpxtpx:TrackPointExtension xmlns:gpxtpx="http://www.garmin.com/xmlschemas/TrackPointExtension/v1">
            <gpxtpx:hr>110</gpxtpx:hr>
          </gpxtpx:TrackPointExtension>
        </extensions>
      </trkpt>
      <trkpt lat="45.59002" lon="2.99339">
        <ele>759</ele>
        <time>2024-05-26T10:40:10.000Z</time>
        <extensions>
          <gpxtpx:TrackPointExtension xmlns:gpxtpx="http://www.garmin.com/xmlschemas/TrackPointExtension/v1">
            <gpxtpx:hr>109</gpxtpx:hr>
          </gpxtpx:TrackPointExtension>
        </extensions>
      </trkpt>
      <trkpt lat="45.59017" lon="2.99362">
        <ele>759.40002441406</ele>
        <time>2024-05-26T10:40:17.000Z</time>
        <extensions>
          <gpxtpx:TrackPointExtension xmlns:gpxtpx="http://www.garmin.com/xmlschemas/TrackPointExtension/v1">
            <gpxtpx:hr>108</gpxtpx:hr>
          </gpxtpx:TrackPointExtension>
        </extensions>
      </trkpt>
      <trkpt lat="45.59027" lon="2.99373">
        <ele>760</ele>
        <time>2024-05-26T10:40:21.000Z</time>
        <extensions>
          <gpxtpx:TrackPointExtension xmlns:gpxtpx="http://www.garmin.com/xmlschemas/TrackPointExtension/v1">
            <gpxtpx:hr>111</gpxtpx:hr>
          </gpxtpx:TrackPointExtension>
        </extensions>
      </trkpt>
      <trkpt lat="45.59037" lon="2.99384">
        <ele>760.59997558594</ele>
        <time>2024-05-26T10:40:25.000Z</time>
        <extensions>
          <gpxtpx:TrackPointExtension xmlns:gpxtpx="http://www.garmin.com/xmlschemas/TrackPointExtension/v1">
            <gpxtpx:hr>108</gpxtpx:hr>
          </gpxtpx:TrackPointExtension>
        </extensions>
      </trkpt>
      <trkpt lat="45.59042" lon="2.99389">
        <ele>761.20001220703</ele>
        <time>2024-05-26T10:40:28.000Z</time>
        <extensions>
          <gpxtpx:TrackPointExtension xmlns:gpxtpx="http://www.garmin.com/xmlschemas/TrackPointExtension/v1">
            <gpxtpx:hr>105</gpxtpx:hr>
          </gpxtpx:TrackPointExtension>
        </extensions>
      </trkpt>
      <trkpt lat="45.59049" lon="2.99393">
        <ele>761.79998779297</ele>
        <time>2024-05-26T10:40:31.000Z</time>
        <extensions>
          <gpxtpx:TrackPointExtension xmlns:gpxtpx="http://www.garmin.com/xmlschemas/TrackPointExtension/v1">
            <gpxtpx:hr>103</gpxtpx:hr>
          </gpxtpx:TrackPointExtension>
        </extensions>
      </trkpt>
      <trkpt lat="45.59053" lon="2.99396">
        <ele>762.20001220703</ele>
        <time>2024-05-26T10:40:33.000Z</time>
        <extensions>
          <gpxtpx:TrackPointExtension xmlns:gpxtpx="http://www.garmin.com/xmlschemas/TrackPointExtension/v1">
            <gpxtpx:hr>102</gpxtpx:hr>
          </gpxtpx:TrackPointExtension>
        </extensions>
      </trkpt>
      <trkpt lat="45.59064" lon="2.99402">
        <ele>763.20001220703</ele>
        <time>2024-05-26T10:40:38.000Z</time>
        <extensions>
          <gpxtpx:TrackPointExtension xmlns:gpxtpx="http://www.garmin.com/xmlschemas/TrackPointExtension/v1">
            <gpxtpx:hr>103</gpxtpx:hr>
          </gpxtpx:TrackPointExtension>
        </extensions>
      </trkpt>
      <trkpt lat="45.59066" lon="2.99404">
        <ele>763.20001220703</ele>
        <time>2024-05-26T10:40:39.000Z</time>
        <extensions>
          <gpxtpx:TrackPointExtension xmlns:gpxtpx="http://www.garmin.com/xmlschemas/TrackPointExtension/v1">
            <gpxtpx:hr>104</gpxtpx:hr>
          </gpxtpx:TrackPointExtension>
        </extensions>
      </trkpt>
      <trkpt lat="45.59075" lon="2.99409">
        <ele>763.79998779297</ele>
        <time>2024-05-26T10:40:43.000Z</time>
        <extensions>
          <gpxtpx:TrackPointExtension xmlns:gpxtpx="http://www.garmin.com/xmlschemas/TrackPointExtension/v1">
            <gpxtpx:hr>107</gpxtpx:hr>
          </gpxtpx:TrackPointExtension>
        </extensions>
      </trkpt>
      <trkpt lat="45.59082" lon="2.9941">
        <ele>764.20001220703</ele>
        <time>2024-05-26T10:40:46.000Z</time>
        <extensions>
          <gpxtpx:TrackPointExtension xmlns:gpxtpx="http://www.garmin.com/xmlschemas/TrackPointExtension/v1">
            <gpxtpx:hr>108</gpxtpx:hr>
          </gpxtpx:TrackPointExtension>
        </extensions>
      </trkpt>
      <trkpt lat="45.59084" lon="2.9941">
        <ele>764.40002441406</ele>
        <time>2024-05-26T10:40:47.000Z</time>
        <extensions>
          <gpxtpx:TrackPointExtension xmlns:gpxtpx="http://www.garmin.com/xmlschemas/TrackPointExtension/v1">
            <gpxtpx:hr>109</gpxtpx:hr>
          </gpxtpx:TrackPointExtension>
        </extensions>
      </trkpt>
      <trkpt lat="45.59098" lon="2.99404">
        <ele>765.40002441406</ele>
        <time>2024-05-26T10:40:54.000Z</time>
        <extensions>
          <gpxtpx:TrackPointExtension xmlns:gpxtpx="http://www.garmin.com/xmlschemas/TrackPointExtension/v1">
            <gpxtpx:hr>110</gpxtpx:hr>
          </gpxtpx:TrackPointExtension>
        </extensions>
      </trkpt>
      <trkpt lat="45.591" lon="2.99403">
        <ele>765.40002441406</ele>
        <time>2024-05-26T10:40:55.000Z</time>
        <extensions>
          <gpxtpx:TrackPointExtension xmlns:gpxtpx="http://www.garmin.com/xmlschemas/TrackPointExtension/v1">
            <gpxtpx:hr>110</gpxtpx:hr>
          </gpxtpx:TrackPointExtension>
        </extensions>
      </trkpt>
      <trkpt lat="45.59105" lon="2.99399">
        <ele>765.79998779297</ele>
        <time>2024-05-26T10:40:58.000Z</time>
        <extensions>
          <gpxtpx:TrackPointExtension xmlns:gpxtpx="http://www.garmin.com/xmlschemas/TrackPointExtension/v1">
            <gpxtpx:hr>111</gpxtpx:hr>
          </gpxtpx:TrackPointExtension>
        </extensions>
      </trkpt>
      <trkpt lat="45.59111" lon="2.99393">
        <ele>766.59997558594</ele>
        <time>2024-05-26T10:41:02.000Z</time>
        <extensions>
          <gpxtpx:TrackPointExtension xmlns:gpxtpx="http://www.garmin.com/xmlschemas/TrackPointExtension/v1">
            <gpxtpx:hr>114</gpxtpx:hr>
          </gpxtpx:TrackPointExtension>
        </extensions>
      </trkpt>
      <trkpt lat="45.59115" lon="2.9939">
        <ele>767</ele>
        <time>2024-05-26T10:41:05.000Z</time>
        <extensions>
          <gpxtpx:TrackPointExtension xmlns:gpxtpx="http://www.garmin.com/xmlschemas/TrackPointExtension/v1">
            <gpxtpx:hr>118</gpxtpx:hr>
          </gpxtpx:TrackPointExtension>
        </extensions>
      </trkpt>
      <trkpt lat="45.59115" lon="2.9939">
        <ele>767.20001220703</ele>
        <time>2024-05-26T10:41:07.000Z</time>
        <extensions>
          <gpxtpx:TrackPointExtension xmlns:gpxtpx="http://www.garmin.com/xmlschemas/TrackPointExtension/v1">
            <gpxtpx:hr>120</gpxtpx:hr>
          </gpxtpx:TrackPointExtension>
        </extensions>
      </trkpt>
      <trkpt lat="45.59115" lon="2.9939">
        <ele>767.20001220703</ele>
        <time>2024-05-26T10:41:10.000Z</time>
        <extensions>
          <gpxtpx:TrackPointExtension xmlns:gpxtpx="http://www.garmin.com/xmlschemas/TrackPointExtension/v1">
            <gpxtpx:hr>123</gpxtpx:hr>
          </gpxtpx:TrackPointExtension>
        </extensions>
      </trkpt>
      <trkpt lat="45.59115" lon="2.9939">
        <ele>767.20001220703</ele>
        <time>2024-05-26T10:41:17.000Z</time>
        <extensions>
          <gpxtpx:TrackPointExtension xmlns:gpxtpx="http://www.garmin.com/xmlschemas/TrackPointExtension/v1">
            <gpxtpx:hr>119</gpxtpx:hr>
          </gpxtpx:TrackPointExtension>
        </extensions>
      </trkpt>
      <trkpt lat="45.59115" lon="2.9939">
        <ele>767.20001220703</ele>
        <time>2024-05-26T10:41:22.000Z</time>
        <extensions>
          <gpxtpx:TrackPointExtension xmlns:gpxtpx="http://www.garmin.com/xmlschemas/TrackPointExtension/v1">
            <gpxtpx:hr>116</gpxtpx:hr>
          </gpxtpx:TrackPointExtension>
        </extensions>
      </trkpt>
      <trkpt lat="45.59118" lon="2.99388">
        <ele>767.20001220703</ele>
        <time>2024-05-26T10:41:27.000Z</time>
        <extensions>
          <gpxtpx:TrackPointExtension xmlns:gpxtpx="http://www.garmin.com/xmlschemas/TrackPointExtension/v1">
            <gpxtpx:hr>115</gpxtpx:hr>
          </gpxtpx:TrackPointExtension>
        </extensions>
      </trkpt>
      <trkpt lat="45.59123" lon="2.99384">
        <ele>767.79998779297</ele>
        <time>2024-05-26T10:41:31.000Z</time>
        <extensions>
          <gpxtpx:TrackPointExtension xmlns:gpxtpx="http://www.garmin.com/xmlschemas/TrackPointExtension/v1">
            <gpxtpx:hr>113</gpxtpx:hr>
          </gpxtpx:TrackPointExtension>
        </extensions>
      </trkpt>
      <trkpt lat="45.59127" lon="2.99382">
        <ele>768</ele>
        <time>2024-05-26T10:41:33.000Z</time>
        <extensions>
          <gpxtpx:TrackPointExtension xmlns:gpxtpx="http://www.garmin.com/xmlschemas/TrackPointExtension/v1">
            <gpxtpx:hr>113</gpxtpx:hr>
          </gpxtpx:TrackPointExtension>
        </extensions>
      </trkpt>
      <trkpt lat="45.59136" lon="2.99371">
        <ele>768.79998779297</ele>
        <time>2024-05-26T10:41:39.000Z</time>
        <extensions>
          <gpxtpx:TrackPointExtension xmlns:gpxtpx="http://www.garmin.com/xmlschemas/TrackPointExtension/v1">
            <gpxtpx:hr>112</gpxtpx:hr>
          </gpxtpx:TrackPointExtension>
        </extensions>
      </trkpt>
      <trkpt lat="45.59146" lon="2.99362">
        <ele>770</ele>
        <time>2024-05-26T10:41:45.000Z</time>
        <extensions>
          <gpxtpx:TrackPointExtension xmlns:gpxtpx="http://www.garmin.com/xmlschemas/TrackPointExtension/v1">
            <gpxtpx:hr>113</gpxtpx:hr>
          </gpxtpx:TrackPointExtension>
        </extensions>
      </trkpt>
      <trkpt lat="45.5915" lon="2.99357">
        <ele>770.40002441406</ele>
        <time>2024-05-26T10:41:48.000Z</time>
        <extensions>
          <gpxtpx:TrackPointExtension xmlns:gpxtpx="http://www.garmin.com/xmlschemas/TrackPointExtension/v1">
            <gpxtpx:hr>113</gpxtpx:hr>
          </gpxtpx:TrackPointExtension>
        </extensions>
      </trkpt>
      <trkpt lat="45.59157" lon="2.99351">
        <ele>771.20001220703</ele>
        <time>2024-05-26T10:41:52.000Z</time>
        <extensions>
          <gpxtpx:TrackPointExtension xmlns:gpxtpx="http://www.garmin.com/xmlschemas/TrackPointExtension/v1">
            <gpxtpx:hr>113</gpxtpx:hr>
          </gpxtpx:TrackPointExtension>
        </extensions>
      </trkpt>
      <trkpt lat="45.59167" lon="2.99339">
        <ele>772.20001220703</ele>
        <time>2024-05-26T10:41:59.000Z</time>
        <extensions>
          <gpxtpx:TrackPointExtension xmlns:gpxtpx="http://www.garmin.com/xmlschemas/TrackPointExtension/v1">
            <gpxtpx:hr>114</gpxtpx:hr>
          </gpxtpx:TrackPointExtension>
        </extensions>
      </trkpt>
      <trkpt lat="45.59175" lon="2.99331">
        <ele>773</ele>
        <time>2024-05-26T10:42:04.000Z</time>
        <extensions>
          <gpxtpx:TrackPointExtension xmlns:gpxtpx="http://www.garmin.com/xmlschemas/TrackPointExtension/v1">
            <gpxtpx:hr>117</gpxtpx:hr>
          </gpxtpx:TrackPointExtension>
        </extensions>
      </trkpt>
      <trkpt lat="45.59178" lon="2.99328">
        <ele>773.20001220703</ele>
        <time>2024-05-26T10:42:06.000Z</time>
        <extensions>
          <gpxtpx:TrackPointExtension xmlns:gpxtpx="http://www.garmin.com/xmlschemas/TrackPointExtension/v1">
            <gpxtpx:hr>118</gpxtpx:hr>
          </gpxtpx:TrackPointExtension>
        </extensions>
      </trkpt>
      <trkpt lat="45.59186" lon="2.99318">
        <ele>773.79998779297</ele>
        <time>2024-05-26T10:42:11.000Z</time>
        <extensions>
          <gpxtpx:TrackPointExtension xmlns:gpxtpx="http://www.garmin.com/xmlschemas/TrackPointExtension/v1">
            <gpxtpx:hr>114</gpxtpx:hr>
          </gpxtpx:TrackPointExtension>
        </extensions>
      </trkpt>
      <trkpt lat="45.59192" lon="2.99314">
        <ele>774.40002441406</ele>
        <time>2024-05-26T10:42:14.000Z</time>
        <extensions>
          <gpxtpx:TrackPointExtension xmlns:gpxtpx="http://www.garmin.com/xmlschemas/TrackPointExtension/v1">
            <gpxtpx:hr>113</gpxtpx:hr>
          </gpxtpx:TrackPointExtension>
        </extensions>
      </trkpt>
      <trkpt lat="45.59202" lon="2.993">
        <ele>775.40002441406</ele>
        <time>2024-05-26T10:42:21.000Z</time>
        <extensions>
          <gpxtpx:TrackPointExtension xmlns:gpxtpx="http://www.garmin.com/xmlschemas/TrackPointExtension/v1">
            <gpxtpx:hr>116</gpxtpx:hr>
          </gpxtpx:TrackPointExtension>
        </extensions>
      </trkpt>
      <trkpt lat="45.59203" lon="2.99298">
        <ele>775.40002441406</ele>
        <time>2024-05-26T10:42:22.000Z</time>
        <extensions>
          <gpxtpx:TrackPointExtension xmlns:gpxtpx="http://www.garmin.com/xmlschemas/TrackPointExtension/v1">
            <gpxtpx:hr>116</gpxtpx:hr>
          </gpxtpx:TrackPointExtension>
        </extensions>
      </trkpt>
      <trkpt lat="45.59215" lon="2.99286">
        <ele>776.59997558594</ele>
        <time>2024-05-26T10:42:29.000Z</time>
        <extensions>
          <gpxtpx:TrackPointExtension xmlns:gpxtpx="http://www.garmin.com/xmlschemas/TrackPointExtension/v1">
            <gpxtpx:hr>118</gpxtpx:hr>
          </gpxtpx:TrackPointExtension>
        </extensions>
      </trkpt>
      <trkpt lat="45.59218" lon="2.99283">
        <ele>776.79998779297</ele>
        <time>2024-05-26T10:42:31.000Z</time>
        <extensions>
          <gpxtpx:TrackPointExtension xmlns:gpxtpx="http://www.garmin.com/xmlschemas/TrackPointExtension/v1">
            <gpxtpx:hr>118</gpxtpx:hr>
          </gpxtpx:TrackPointExtension>
        </extensions>
      </trkpt>
      <trkpt lat="45.59229" lon="2.99275">
        <ele>777.59997558594</ele>
        <time>2024-05-26T10:42:37.000Z</time>
        <extensions>
          <gpxtpx:TrackPointExtension xmlns:gpxtpx="http://www.garmin.com/xmlschemas/TrackPointExtension/v1">
            <gpxtpx:hr>117</gpxtpx:hr>
          </gpxtpx:TrackPointExtension>
        </extensions>
      </trkpt>
      <trkpt lat="45.59238" lon="2.99271">
        <ele>778.20001220703</ele>
        <time>2024-05-26T10:42:42.000Z</time>
        <extensions>
          <gpxtpx:TrackPointExtension xmlns:gpxtpx="http://www.garmin.com/xmlschemas/TrackPointExtension/v1">
            <gpxtpx:hr>116</gpxtpx:hr>
          </gpxtpx:TrackPointExtension>
        </extensions>
      </trkpt>
      <trkpt lat="45.59242" lon="2.9927">
        <ele>778.79998779297</ele>
        <time>2024-05-26T10:42:44.000Z</time>
        <extensions>
          <gpxtpx:TrackPointExtension xmlns:gpxtpx="http://www.garmin.com/xmlschemas/TrackPointExtension/v1">
            <gpxtpx:hr>116</gpxtpx:hr>
          </gpxtpx:TrackPointExtension>
        </extensions>
      </trkpt>
      <trkpt lat="45.59254" lon="2.99268">
        <ele>779.79998779297</ele>
        <time>2024-05-26T10:42:50.000Z</time>
        <extensions>
          <gpxtpx:TrackPointExtension xmlns:gpxtpx="http://www.garmin.com/xmlschemas/TrackPointExtension/v1">
            <gpxtpx:hr>116</gpxtpx:hr>
          </gpxtpx:TrackPointExtension>
        </extensions>
      </trkpt>
      <trkpt lat="45.59256" lon="2.99267">
        <ele>780</ele>
        <time>2024-05-26T10:42:51.000Z</time>
        <extensions>
          <gpxtpx:TrackPointExtension xmlns:gpxtpx="http://www.garmin.com/xmlschemas/TrackPointExtension/v1">
            <gpxtpx:hr>118</gpxtpx:hr>
          </gpxtpx:TrackPointExtension>
        </extensions>
      </trkpt>
      <trkpt lat="45.59272" lon="2.9927">
        <ele>781</ele>
        <time>2024-05-26T10:42:59.000Z</time>
        <extensions>
          <gpxtpx:TrackPointExtension xmlns:gpxtpx="http://www.garmin.com/xmlschemas/TrackPointExtension/v1">
            <gpxtpx:hr>117</gpxtpx:hr>
          </gpxtpx:TrackPointExtension>
        </extensions>
      </trkpt>
      <trkpt lat="45.59288" lon="2.99274">
        <ele>782</ele>
        <time>2024-05-26T10:43:07.000Z</time>
        <extensions>
          <gpxtpx:TrackPointExtension xmlns:gpxtpx="http://www.garmin.com/xmlschemas/TrackPointExtension/v1">
            <gpxtpx:hr>118</gpxtpx:hr>
          </gpxtpx:TrackPointExtension>
        </extensions>
      </trkpt>
      <trkpt lat="45.59301" lon="2.99269">
        <ele>783.20001220703</ele>
        <time>2024-05-26T10:43:14.000Z</time>
        <extensions>
          <gpxtpx:TrackPointExtension xmlns:gpxtpx="http://www.garmin.com/xmlschemas/TrackPointExtension/v1">
            <gpxtpx:hr>117</gpxtpx:hr>
          </gpxtpx:TrackPointExtension>
        </extensions>
      </trkpt>
      <trkpt lat="45.59303" lon="2.99268">
        <ele>783.20001220703</ele>
        <time>2024-05-26T10:43:15.000Z</time>
        <extensions>
          <gpxtpx:TrackPointExtension xmlns:gpxtpx="http://www.garmin.com/xmlschemas/TrackPointExtension/v1">
            <gpxtpx:hr>118</gpxtpx:hr>
          </gpxtpx:TrackPointExtension>
        </extensions>
      </trkpt>
      <trkpt lat="45.59316" lon="2.99259">
        <ele>784</ele>
        <time>2024-05-26T10:43:22.000Z</time>
        <extensions>
          <gpxtpx:TrackPointExtension xmlns:gpxtpx="http://www.garmin.com/xmlschemas/TrackPointExtension/v1">
            <gpxtpx:hr>120</gpxtpx:hr>
          </gpxtpx:TrackPointExtension>
        </extensions>
      </trkpt>
      <trkpt lat="45.59318" lon="2.99258">
        <ele>784.40002441406</ele>
        <time>2024-05-26T10:43:23.000Z</time>
        <extensions>
          <gpxtpx:TrackPointExtension xmlns:gpxtpx="http://www.garmin.com/xmlschemas/TrackPointExtension/v1">
            <gpxtpx:hr>120</gpxtpx:hr>
          </gpxtpx:TrackPointExtension>
        </extensions>
      </trkpt>
      <trkpt lat="45.59328" lon="2.99245">
        <ele>785.20001220703</ele>
        <time>2024-05-26T10:43:30.000Z</time>
        <extensions>
          <gpxtpx:TrackPointExtension xmlns:gpxtpx="http://www.garmin.com/xmlschemas/TrackPointExtension/v1">
            <gpxtpx:hr>121</gpxtpx:hr>
          </gpxtpx:TrackPointExtension>
        </extensions>
      </trkpt>
      <trkpt lat="45.59331" lon="2.99242">
        <ele>785.40002441406</ele>
        <time>2024-05-26T10:43:32.000Z</time>
        <extensions>
          <gpxtpx:TrackPointExtension xmlns:gpxtpx="http://www.garmin.com/xmlschemas/TrackPointExtension/v1">
            <gpxtpx:hr>121</gpxtpx:hr>
          </gpxtpx:TrackPointExtension>
        </extensions>
      </trkpt>
      <trkpt lat="45.5934" lon="2.99231">
        <ele>786.40002441406</ele>
        <time>2024-05-26T10:43:38.000Z</time>
        <extensions>
          <gpxtpx:TrackPointExtension xmlns:gpxtpx="http://www.garmin.com/xmlschemas/TrackPointExtension/v1">
            <gpxtpx:hr>121</gpxtpx:hr>
          </gpxtpx:TrackPointExtension>
        </extensions>
      </trkpt>
      <trkpt lat="45.59342" lon="2.99229">
        <ele>786.59997558594</ele>
        <time>2024-05-26T10:43:39.000Z</time>
        <extensions>
          <gpxtpx:TrackPointExtension xmlns:gpxtpx="http://www.garmin.com/xmlschemas/TrackPointExtension/v1">
            <gpxtpx:hr>121</gpxtpx:hr>
          </gpxtpx:TrackPointExtension>
        </extensions>
      </trkpt>
      <trkpt lat="45.59344" lon="2.99225">
        <ele>787</ele>
        <time>2024-05-26T10:43:41.000Z</time>
        <extensions>
          <gpxtpx:TrackPointExtension xmlns:gpxtpx="http://www.garmin.com/xmlschemas/TrackPointExtension/v1">
            <gpxtpx:hr>121</gpxtpx:hr>
          </gpxtpx:TrackPointExtension>
        </extensions>
      </trkpt>
      <trkpt lat="45.59347" lon="2.99222">
        <ele>787.59997558594</ele>
        <time>2024-05-26T10:43:43.000Z</time>
        <extensions>
          <gpxtpx:TrackPointExtension xmlns:gpxtpx="http://www.garmin.com/xmlschemas/TrackPointExtension/v1">
            <gpxtpx:hr>120</gpxtpx:hr>
          </gpxtpx:TrackPointExtension>
        </extensions>
      </trkpt>
      <trkpt lat="45.59349" lon="2.9922">
        <ele>787.79998779297</ele>
        <time>2024-05-26T10:43:44.000Z</time>
        <extensions>
          <gpxtpx:TrackPointExtension xmlns:gpxtpx="http://www.garmin.com/xmlschemas/TrackPointExtension/v1">
            <gpxtpx:hr>121</gpxtpx:hr>
          </gpxtpx:TrackPointExtension>
        </extensions>
      </trkpt>
      <trkpt lat="45.5936" lon="2.99208">
        <ele>788.40002441406</ele>
        <time>2024-05-26T10:43:51.000Z</time>
        <extensions>
          <gpxtpx:TrackPointExtension xmlns:gpxtpx="http://www.garmin.com/xmlschemas/TrackPointExtension/v1">
            <gpxtpx:hr>120</gpxtpx:hr>
          </gpxtpx:TrackPointExtension>
        </extensions>
      </trkpt>
      <trkpt lat="45.59363" lon="2.99204">
        <ele>788.79998779297</ele>
        <time>2024-05-26T10:43:53.000Z</time>
        <extensions>
          <gpxtpx:TrackPointExtension xmlns:gpxtpx="http://www.garmin.com/xmlschemas/TrackPointExtension/v1">
            <gpxtpx:hr>119</gpxtpx:hr>
          </gpxtpx:TrackPointExtension>
        </extensions>
      </trkpt>
      <trkpt lat="45.59364" lon="2.99202">
        <ele>789</ele>
        <time>2024-05-26T10:43:54.000Z</time>
        <extensions>
          <gpxtpx:TrackPointExtension xmlns:gpxtpx="http://www.garmin.com/xmlschemas/TrackPointExtension/v1">
            <gpxtpx:hr>119</gpxtpx:hr>
          </gpxtpx:TrackPointExtension>
        </extensions>
      </trkpt>
      <trkpt lat="45.59367" lon="2.99198">
        <ele>789.20001220703</ele>
        <time>2024-05-26T10:43:56.000Z</time>
        <extensions>
          <gpxtpx:TrackPointExtension xmlns:gpxtpx="http://www.garmin.com/xmlschemas/TrackPointExtension/v1">
            <gpxtpx:hr>118</gpxtpx:hr>
          </gpxtpx:TrackPointExtension>
        </extensions>
      </trkpt>
      <trkpt lat="45.59374" lon="2.99189">
        <ele>789.79998779297</ele>
        <time>2024-05-26T10:44:01.000Z</time>
        <extensions>
          <gpxtpx:TrackPointExtension xmlns:gpxtpx="http://www.garmin.com/xmlschemas/TrackPointExtension/v1">
            <gpxtpx:hr>116</gpxtpx:hr>
          </gpxtpx:TrackPointExtension>
        </extensions>
      </trkpt>
      <trkpt lat="45.59377" lon="2.99185">
        <ele>790</ele>
        <time>2024-05-26T10:44:03.000Z</time>
        <extensions>
          <gpxtpx:TrackPointExtension xmlns:gpxtpx="http://www.garmin.com/xmlschemas/TrackPointExtension/v1">
            <gpxtpx:hr>115</gpxtpx:hr>
          </gpxtpx:TrackPointExtension>
        </extensions>
      </trkpt>
      <trkpt lat="45.59386" lon="2.99177">
        <ele>791</ele>
        <time>2024-05-26T10:44:08.000Z</time>
        <extensions>
          <gpxtpx:TrackPointExtension xmlns:gpxtpx="http://www.garmin.com/xmlschemas/TrackPointExtension/v1">
            <gpxtpx:hr>115</gpxtpx:hr>
          </gpxtpx:TrackPointExtension>
        </extensions>
      </trkpt>
      <trkpt lat="45.59389" lon="2.99176">
        <ele>791.20001220703</ele>
        <time>2024-05-26T10:44:10.000Z</time>
        <extensions>
          <gpxtpx:TrackPointExtension xmlns:gpxtpx="http://www.garmin.com/xmlschemas/TrackPointExtension/v1">
            <gpxtpx:hr>116</gpxtpx:hr>
          </gpxtpx:TrackPointExtension>
        </extensions>
      </trkpt>
      <trkpt lat="45.59399" lon="2.99176">
        <ele>792.20001220703</ele>
        <time>2024-05-26T10:44:15.000Z</time>
        <extensions>
          <gpxtpx:TrackPointExtension xmlns:gpxtpx="http://www.garmin.com/xmlschemas/TrackPointExtension/v1">
            <gpxtpx:hr>116</gpxtpx:hr>
          </gpxtpx:TrackPointExtension>
        </extensions>
      </trkpt>
      <trkpt lat="45.59403" lon="2.99178">
        <ele>792.59997558594</ele>
        <time>2024-05-26T10:44:17.000Z</time>
        <extensions>
          <gpxtpx:TrackPointExtension xmlns:gpxtpx="http://www.garmin.com/xmlschemas/TrackPointExtension/v1">
            <gpxtpx:hr>116</gpxtpx:hr>
          </gpxtpx:TrackPointExtension>
        </extensions>
      </trkpt>
      <trkpt lat="45.59409" lon="2.99188">
        <ele>793</ele>
        <time>2024-05-26T10:44:21.000Z</time>
        <extensions>
          <gpxtpx:TrackPointExtension xmlns:gpxtpx="http://www.garmin.com/xmlschemas/TrackPointExtension/v1">
            <gpxtpx:hr>119</gpxtpx:hr>
          </gpxtpx:TrackPointExtension>
        </extensions>
      </trkpt>
      <trkpt lat="45.5941" lon="2.99191">
        <ele>793.20001220703</ele>
        <time>2024-05-26T10:44:22.000Z</time>
        <extensions>
          <gpxtpx:TrackPointExtension xmlns:gpxtpx="http://www.garmin.com/xmlschemas/TrackPointExtension/v1">
            <gpxtpx:hr>120</gpxtpx:hr>
          </gpxtpx:TrackPointExtension>
        </extensions>
      </trkpt>
      <trkpt lat="45.59414" lon="2.99213">
        <ele>794.20001220703</ele>
        <time>2024-05-26T10:44:29.000Z</time>
        <extensions>
          <gpxtpx:TrackPointExtension xmlns:gpxtpx="http://www.garmin.com/xmlschemas/TrackPointExtension/v1">
            <gpxtpx:hr>116</gpxtpx:hr>
          </gpxtpx:TrackPointExtension>
        </extensions>
      </trkpt>
      <trkpt lat="45.59414" lon="2.99216">
        <ele>794.40002441406</ele>
        <time>2024-05-26T10:44:30.000Z</time>
        <extensions>
          <gpxtpx:TrackPointExtension xmlns:gpxtpx="http://www.garmin.com/xmlschemas/TrackPointExtension/v1">
            <gpxtpx:hr>114</gpxtpx:hr>
          </gpxtpx:TrackPointExtension>
        </extensions>
      </trkpt>
      <trkpt lat="45.59414" lon="2.99218">
        <ele>794.79998779297</ele>
        <time>2024-05-26T10:44:31.000Z</time>
        <extensions>
          <gpxtpx:TrackPointExtension xmlns:gpxtpx="http://www.garmin.com/xmlschemas/TrackPointExtension/v1">
            <gpxtpx:hr>112</gpxtpx:hr>
          </gpxtpx:TrackPointExtension>
        </extensions>
      </trkpt>
      <trkpt lat="45.59413" lon="2.99226">
        <ele>795.40002441406</ele>
        <time>2024-05-26T10:44:34.000Z</time>
        <extensions>
          <gpxtpx:TrackPointExtension xmlns:gpxtpx="http://www.garmin.com/xmlschemas/TrackPointExtension/v1">
            <gpxtpx:hr>110</gpxtpx:hr>
          </gpxtpx:TrackPointExtension>
        </extensions>
      </trkpt>
      <trkpt lat="45.5941" lon="2.9923">
        <ele>795.59997558594</ele>
        <time>2024-05-26T10:44:36.000Z</time>
        <extensions>
          <gpxtpx:TrackPointExtension xmlns:gpxtpx="http://www.garmin.com/xmlschemas/TrackPointExtension/v1">
            <gpxtpx:hr>109</gpxtpx:hr>
          </gpxtpx:TrackPointExtension>
        </extensions>
      </trkpt>
      <trkpt lat="45.59409" lon="2.99232">
        <ele>795.59997558594</ele>
        <time>2024-05-26T10:44:37.000Z</time>
        <extensions>
          <gpxtpx:TrackPointExtension xmlns:gpxtpx="http://www.garmin.com/xmlschemas/TrackPointExtension/v1">
            <gpxtpx:hr>109</gpxtpx:hr>
          </gpxtpx:TrackPointExtension>
        </extensions>
      </trkpt>
      <trkpt lat="45.59399" lon="2.99241">
        <ele>796.79998779297</ele>
        <time>2024-05-26T10:44:43.000Z</time>
        <extensions>
          <gpxtpx:TrackPointExtension xmlns:gpxtpx="http://www.garmin.com/xmlschemas/TrackPointExtension/v1">
            <gpxtpx:hr>109</gpxtpx:hr>
          </gpxtpx:TrackPointExtension>
        </extensions>
      </trkpt>
      <trkpt lat="45.59395" lon="2.99244">
        <ele>797</ele>
        <time>2024-05-26T10:44:45.000Z</time>
        <extensions>
          <gpxtpx:TrackPointExtension xmlns:gpxtpx="http://www.garmin.com/xmlschemas/TrackPointExtension/v1">
            <gpxtpx:hr>110</gpxtpx:hr>
          </gpxtpx:TrackPointExtension>
        </extensions>
      </trkpt>
      <trkpt lat="45.59383" lon="2.99269">
        <ele>797.59997558594</ele>
        <time>2024-05-26T10:44:54.000Z</time>
        <extensions>
          <gpxtpx:TrackPointExtension xmlns:gpxtpx="http://www.garmin.com/xmlschemas/TrackPointExtension/v1">
            <gpxtpx:hr>110</gpxtpx:hr>
          </gpxtpx:TrackPointExtension>
        </extensions>
      </trkpt>
      <trkpt lat="45.5938" lon="2.9928">
        <ele>797.79998779297</ele>
        <time>2024-05-26T10:44:57.000Z</time>
        <extensions>
          <gpxtpx:TrackPointExtension xmlns:gpxtpx="http://www.garmin.com/xmlschemas/TrackPointExtension/v1">
            <gpxtpx:hr>109</gpxtpx:hr>
          </gpxtpx:TrackPointExtension>
        </extensions>
      </trkpt>
      <trkpt lat="45.59377" lon="2.99298">
        <ele>798.79998779297</ele>
        <time>2024-05-26T10:45:02.000Z</time>
        <extensions>
          <gpxtpx:TrackPointExtension xmlns:gpxtpx="http://www.garmin.com/xmlschemas/TrackPointExtension/v1">
            <gpxtpx:hr>108</gpxtpx:hr>
          </gpxtpx:TrackPointExtension>
        </extensions>
      </trkpt>
      <trkpt lat="45.59377" lon="2.99302">
        <ele>799</ele>
        <time>2024-05-26T10:45:03.000Z</time>
        <extensions>
          <gpxtpx:TrackPointExtension xmlns:gpxtpx="http://www.garmin.com/xmlschemas/TrackPointExtension/v1">
            <gpxtpx:hr>108</gpxtpx:hr>
          </gpxtpx:TrackPointExtension>
        </extensions>
      </trkpt>
      <trkpt lat="45.59378" lon="2.99321">
        <ele>799.59997558594</ele>
        <time>2024-05-26T10:45:09.000Z</time>
        <extensions>
          <gpxtpx:TrackPointExtension xmlns:gpxtpx="http://www.garmin.com/xmlschemas/TrackPointExtension/v1">
            <gpxtpx:hr>109</gpxtpx:hr>
          </gpxtpx:TrackPointExtension>
        </extensions>
      </trkpt>
      <trkpt lat="45.59377" lon="2.9933">
        <ele>800</ele>
        <time>2024-05-26T10:45:12.000Z</time>
        <extensions>
          <gpxtpx:TrackPointExtension xmlns:gpxtpx="http://www.garmin.com/xmlschemas/TrackPointExtension/v1">
            <gpxtpx:hr>110</gpxtpx:hr>
          </gpxtpx:TrackPointExtension>
        </extensions>
      </trkpt>
      <trkpt lat="45.59376" lon="2.99342">
        <ele>800.59997558594</ele>
        <time>2024-05-26T10:45:16.000Z</time>
        <extensions>
          <gpxtpx:TrackPointExtension xmlns:gpxtpx="http://www.garmin.com/xmlschemas/TrackPointExtension/v1">
            <gpxtpx:hr>110</gpxtpx:hr>
          </gpxtpx:TrackPointExtension>
        </extensions>
      </trkpt>
      <trkpt lat="45.59375" lon="2.99354">
        <ele>801.20001220703</ele>
        <time>2024-05-26T10:45:20.000Z</time>
        <extensions>
          <gpxtpx:TrackPointExtension xmlns:gpxtpx="http://www.garmin.com/xmlschemas/TrackPointExtension/v1">
            <gpxtpx:hr>110</gpxtpx:hr>
          </gpxtpx:TrackPointExtension>
        </extensions>
      </trkpt>
      <trkpt lat="45.59376" lon="2.99362">
        <ele>801.59997558594</ele>
        <time>2024-05-26T10:45:23.000Z</time>
        <extensions>
          <gpxtpx:TrackPointExtension xmlns:gpxtpx="http://www.garmin.com/xmlschemas/TrackPointExtension/v1">
            <gpxtpx:hr>111</gpxtpx:hr>
          </gpxtpx:TrackPointExtension>
        </extensions>
      </trkpt>
      <trkpt lat="45.59376" lon="2.99375">
        <ele>802.20001220703</ele>
        <time>2024-05-26T10:45:27.000Z</time>
        <extensions>
          <gpxtpx:TrackPointExtension xmlns:gpxtpx="http://www.garmin.com/xmlschemas/TrackPointExtension/v1">
            <gpxtpx:hr>112</gpxtpx:hr>
          </gpxtpx:TrackPointExtension>
        </extensions>
      </trkpt>
      <trkpt lat="45.59375" lon="2.99389">
        <ele>803</ele>
        <time>2024-05-26T10:45:32.000Z</time>
        <extensions>
          <gpxtpx:TrackPointExtension xmlns:gpxtpx="http://www.garmin.com/xmlschemas/TrackPointExtension/v1">
            <gpxtpx:hr>113</gpxtpx:hr>
          </gpxtpx:TrackPointExtension>
        </extensions>
      </trkpt>
      <trkpt lat="45.59374" lon="2.994">
        <ele>803.40002441406</ele>
        <time>2024-05-26T10:45:36.000Z</time>
        <extensions>
          <gpxtpx:TrackPointExtension xmlns:gpxtpx="http://www.garmin.com/xmlschemas/TrackPointExtension/v1">
            <gpxtpx:hr>113</gpxtpx:hr>
          </gpxtpx:TrackPointExtension>
        </extensions>
      </trkpt>
      <trkpt lat="45.59372" lon="2.99408">
        <ele>803.79998779297</ele>
        <time>2024-05-26T10:45:39.000Z</time>
        <extensions>
          <gpxtpx:TrackPointExtension xmlns:gpxtpx="http://www.garmin.com/xmlschemas/TrackPointExtension/v1">
            <gpxtpx:hr>115</gpxtpx:hr>
          </gpxtpx:TrackPointExtension>
        </extensions>
      </trkpt>
      <trkpt lat="45.59371" lon="2.99417">
        <ele>804.40002441406</ele>
        <time>2024-05-26T10:45:42.000Z</time>
        <extensions>
          <gpxtpx:TrackPointExtension xmlns:gpxtpx="http://www.garmin.com/xmlschemas/TrackPointExtension/v1">
            <gpxtpx:hr>116</gpxtpx:hr>
          </gpxtpx:TrackPointExtension>
        </extensions>
      </trkpt>
      <trkpt lat="45.59369" lon="2.99441">
        <ele>805.59997558594</ele>
        <time>2024-05-26T10:45:50.000Z</time>
        <extensions>
          <gpxtpx:TrackPointExtension xmlns:gpxtpx="http://www.garmin.com/xmlschemas/TrackPointExtension/v1">
            <gpxtpx:hr>114</gpxtpx:hr>
          </gpxtpx:TrackPointExtension>
        </extensions>
      </trkpt>
      <trkpt lat="45.59369" lon="2.99443">
        <ele>805.59997558594</ele>
        <time>2024-05-26T10:45:51.000Z</time>
        <extensions>
          <gpxtpx:TrackPointExtension xmlns:gpxtpx="http://www.garmin.com/xmlschemas/TrackPointExtension/v1">
            <gpxtpx:hr>114</gpxtpx:hr>
          </gpxtpx:TrackPointExtension>
        </extensions>
      </trkpt>
      <trkpt lat="45.59368" lon="2.99463">
        <ele>806.59997558594</ele>
        <time>2024-05-26T10:45:58.000Z</time>
        <extensions>
          <gpxtpx:TrackPointExtension xmlns:gpxtpx="http://www.garmin.com/xmlschemas/TrackPointExtension/v1">
            <gpxtpx:hr>114</gpxtpx:hr>
          </gpxtpx:TrackPointExtension>
        </extensions>
      </trkpt>
      <trkpt lat="45.59367" lon="2.99465">
        <ele>806.79998779297</ele>
        <time>2024-05-26T10:45:59.000Z</time>
        <extensions>
          <gpxtpx:TrackPointExtension xmlns:gpxtpx="http://www.garmin.com/xmlschemas/TrackPointExtension/v1">
            <gpxtpx:hr>113</gpxtpx:hr>
          </gpxtpx:TrackPointExtension>
        </extensions>
      </trkpt>
      <trkpt lat="45.59365" lon="2.99486">
        <ele>807.20001220703</ele>
        <time>2024-05-26T10:46:07.000Z</time>
        <extensions>
          <gpxtpx:TrackPointExtension xmlns:gpxtpx="http://www.garmin.com/xmlschemas/TrackPointExtension/v1">
            <gpxtpx:hr>114</gpxtpx:hr>
          </gpxtpx:TrackPointExtension>
        </extensions>
      </trkpt>
      <trkpt lat="45.59365" lon="2.99498">
        <ele>807.79998779297</ele>
        <time>2024-05-26T10:46:11.000Z</time>
        <extensions>
          <gpxtpx:TrackPointExtension xmlns:gpxtpx="http://www.garmin.com/xmlschemas/TrackPointExtension/v1">
            <gpxtpx:hr>113</gpxtpx:hr>
          </gpxtpx:TrackPointExtension>
        </extensions>
      </trkpt>
      <trkpt lat="45.59363" lon="2.99509">
        <ele>808.20001220703</ele>
        <time>2024-05-26T10:46:15.000Z</time>
        <extensions>
          <gpxtpx:TrackPointExtension xmlns:gpxtpx="http://www.garmin.com/xmlschemas/TrackPointExtension/v1">
            <gpxtpx:hr>112</gpxtpx:hr>
          </gpxtpx:TrackPointExtension>
        </extensions>
      </trkpt>
      <trkpt lat="45.59363" lon="2.99517">
        <ele>808.79998779297</ele>
        <time>2024-05-26T10:46:18.000Z</time>
        <extensions>
          <gpxtpx:TrackPointExtension xmlns:gpxtpx="http://www.garmin.com/xmlschemas/TrackPointExtension/v1">
            <gpxtpx:hr>110</gpxtpx:hr>
          </gpxtpx:TrackPointExtension>
        </extensions>
      </trkpt>
      <trkpt lat="45.5936" lon="2.99533">
        <ele>809.79998779297</ele>
        <time>2024-05-26T10:46:24.000Z</time>
        <extensions>
          <gpxtpx:TrackPointExtension xmlns:gpxtpx="http://www.garmin.com/xmlschemas/TrackPointExtension/v1">
            <gpxtpx:hr>109</gpxtpx:hr>
          </gpxtpx:TrackPointExtension>
        </extensions>
      </trkpt>
      <trkpt lat="45.59357" lon="2.99551">
        <ele>810.79998779297</ele>
        <time>2024-05-26T10:46:30.000Z</time>
        <extensions>
          <gpxtpx:TrackPointExtension xmlns:gpxtpx="http://www.garmin.com/xmlschemas/TrackPointExtension/v1">
            <gpxtpx:hr>112</gpxtpx:hr>
          </gpxtpx:TrackPointExtension>
        </extensions>
      </trkpt>
      <trkpt lat="45.59357" lon="2.99554">
        <ele>811</ele>
        <time>2024-05-26T10:46:31.000Z</time>
        <extensions>
          <gpxtpx:TrackPointExtension xmlns:gpxtpx="http://www.garmin.com/xmlschemas/TrackPointExtension/v1">
            <gpxtpx:hr>112</gpxtpx:hr>
          </gpxtpx:TrackPointExtension>
        </extensions>
      </trkpt>
      <trkpt lat="45.59356" lon="2.99563">
        <ele>811.59997558594</ele>
        <time>2024-05-26T10:46:34.000Z</time>
        <extensions>
          <gpxtpx:TrackPointExtension xmlns:gpxtpx="http://www.garmin.com/xmlschemas/TrackPointExtension/v1">
            <gpxtpx:hr>114</gpxtpx:hr>
          </gpxtpx:TrackPointExtension>
        </extensions>
      </trkpt>
      <trkpt lat="45.59354" lon="2.99572">
        <ele>812.20001220703</ele>
        <time>2024-05-26T10:46:38.000Z</time>
        <extensions>
          <gpxtpx:TrackPointExtension xmlns:gpxtpx="http://www.garmin.com/xmlschemas/TrackPointExtension/v1">
            <gpxtpx:hr>114</gpxtpx:hr>
          </gpxtpx:TrackPointExtension>
        </extensions>
      </trkpt>
      <trkpt lat="45.59353" lon="2.99577">
        <ele>812.59997558594</ele>
        <time>2024-05-26T10:46:40.000Z</time>
        <extensions>
          <gpxtpx:TrackPointExtension xmlns:gpxtpx="http://www.garmin.com/xmlschemas/TrackPointExtension/v1">
            <gpxtpx:hr>111</gpxtpx:hr>
          </gpxtpx:TrackPointExtension>
        </extensions>
      </trkpt>
      <trkpt lat="45.5935" lon="2.99585">
        <ele>813</ele>
        <time>2024-05-26T10:46:43.000Z</time>
        <extensions>
          <gpxtpx:TrackPointExtension xmlns:gpxtpx="http://www.garmin.com/xmlschemas/TrackPointExtension/v1">
            <gpxtpx:hr>110</gpxtpx:hr>
          </gpxtpx:TrackPointExtension>
        </extensions>
      </trkpt>
      <trkpt lat="45.59349" lon="2.99587">
        <ele>813.20001220703</ele>
        <time>2024-05-26T10:46:44.000Z</time>
        <extensions>
          <gpxtpx:TrackPointExtension xmlns:gpxtpx="http://www.garmin.com/xmlschemas/TrackPointExtension/v1">
            <gpxtpx:hr>109</gpxtpx:hr>
          </gpxtpx:TrackPointExtension>
        </extensions>
      </trkpt>
      <trkpt lat="45.59345" lon="2.996">
        <ele>814</ele>
        <time>2024-05-26T10:46:49.000Z</time>
        <extensions>
          <gpxtpx:TrackPointExtension xmlns:gpxtpx="http://www.garmin.com/xmlschemas/TrackPointExtension/v1">
            <gpxtpx:hr>112</gpxtpx:hr>
          </gpxtpx:TrackPointExtension>
        </extensions>
      </trkpt>
      <trkpt lat="45.59345" lon="2.99603">
        <ele>814.20001220703</ele>
        <time>2024-05-26T10:46:50.000Z</time>
        <extensions>
          <gpxtpx:TrackPointExtension xmlns:gpxtpx="http://www.garmin.com/xmlschemas/TrackPointExtension/v1">
            <gpxtpx:hr>112</gpxtpx:hr>
          </gpxtpx:TrackPointExtension>
        </extensions>
      </trkpt>
      <trkpt lat="45.59344" lon="2.99606">
        <ele>814.40002441406</ele>
        <time>2024-05-26T10:46:51.000Z</time>
        <extensions>
          <gpxtpx:TrackPointExtension xmlns:gpxtpx="http://www.garmin.com/xmlschemas/TrackPointExtension/v1">
            <gpxtpx:hr>113</gpxtpx:hr>
          </gpxtpx:TrackPointExtension>
        </extensions>
      </trkpt>
      <trkpt lat="45.59338" lon="2.99618">
        <ele>815.20001220703</ele>
        <time>2024-05-26T10:46:56.000Z</time>
        <extensions>
          <gpxtpx:TrackPointExtension xmlns:gpxtpx="http://www.garmin.com/xmlschemas/TrackPointExtension/v1">
            <gpxtpx:hr>116</gpxtpx:hr>
          </gpxtpx:TrackPointExtension>
        </extensions>
      </trkpt>
      <trkpt lat="45.59337" lon="2.99621">
        <ele>815.40002441406</ele>
        <time>2024-05-26T10:46:57.000Z</time>
        <extensions>
          <gpxtpx:TrackPointExtension xmlns:gpxtpx="http://www.garmin.com/xmlschemas/TrackPointExtension/v1">
            <gpxtpx:hr>116</gpxtpx:hr>
          </gpxtpx:TrackPointExtension>
        </extensions>
      </trkpt>
      <trkpt lat="45.59331" lon="2.99634">
        <ele>817</ele>
        <time>2024-05-26T10:47:02.000Z</time>
        <extensions>
          <gpxtpx:TrackPointExtension xmlns:gpxtpx="http://www.garmin.com/xmlschemas/TrackPointExtension/v1">
            <gpxtpx:hr>118</gpxtpx:hr>
          </gpxtpx:TrackPointExtension>
        </extensions>
      </trkpt>
      <trkpt lat="45.59328" lon="2.99646">
        <ele>817.40002441406</ele>
        <time>2024-05-26T10:47:06.000Z</time>
        <extensions>
          <gpxtpx:TrackPointExtension xmlns:gpxtpx="http://www.garmin.com/xmlschemas/TrackPointExtension/v1">
            <gpxtpx:hr>118</gpxtpx:hr>
          </gpxtpx:TrackPointExtension>
        </extensions>
      </trkpt>
      <trkpt lat="45.59325" lon="2.99654">
        <ele>818</ele>
        <time>2024-05-26T10:47:09.000Z</time>
        <extensions>
          <gpxtpx:TrackPointExtension xmlns:gpxtpx="http://www.garmin.com/xmlschemas/TrackPointExtension/v1">
            <gpxtpx:hr>119</gpxtpx:hr>
          </gpxtpx:TrackPointExtension>
        </extensions>
      </trkpt>
      <trkpt lat="45.59324" lon="2.9966">
        <ele>818.40002441406</ele>
        <time>2024-05-26T10:47:11.000Z</time>
        <extensions>
          <gpxtpx:TrackPointExtension xmlns:gpxtpx="http://www.garmin.com/xmlschemas/TrackPointExtension/v1">
            <gpxtpx:hr>117</gpxtpx:hr>
          </gpxtpx:TrackPointExtension>
        </extensions>
      </trkpt>
      <trkpt lat="45.59324" lon="2.99662">
        <ele>818.59997558594</ele>
        <time>2024-05-26T10:47:12.000Z</time>
        <extensions>
          <gpxtpx:TrackPointExtension xmlns:gpxtpx="http://www.garmin.com/xmlschemas/TrackPointExtension/v1">
            <gpxtpx:hr>120</gpxtpx:hr>
          </gpxtpx:TrackPointExtension>
        </extensions>
      </trkpt>
      <trkpt lat="45.59324" lon="2.9967">
        <ele>819</ele>
        <time>2024-05-26T10:47:15.000Z</time>
        <extensions>
          <gpxtpx:TrackPointExtension xmlns:gpxtpx="http://www.garmin.com/xmlschemas/TrackPointExtension/v1">
            <gpxtpx:hr>119</gpxtpx:hr>
          </gpxtpx:TrackPointExtension>
        </extensions>
      </trkpt>
      <trkpt lat="45.59323" lon="2.99676">
        <ele>819.20001220703</ele>
        <time>2024-05-26T10:47:17.000Z</time>
        <extensions>
          <gpxtpx:TrackPointExtension xmlns:gpxtpx="http://www.garmin.com/xmlschemas/TrackPointExtension/v1">
            <gpxtpx:hr>119</gpxtpx:hr>
          </gpxtpx:TrackPointExtension>
        </extensions>
      </trkpt>
      <trkpt lat="45.59323" lon="2.99693">
        <ele>819.79998779297</ele>
        <time>2024-05-26T10:47:23.000Z</time>
        <extensions>
          <gpxtpx:TrackPointExtension xmlns:gpxtpx="http://www.garmin.com/xmlschemas/TrackPointExtension/v1">
            <gpxtpx:hr>117</gpxtpx:hr>
          </gpxtpx:TrackPointExtension>
        </extensions>
      </trkpt>
      <trkpt lat="45.59322" lon="2.99702">
        <ele>820.40002441406</ele>
        <time>2024-05-26T10:47:26.000Z</time>
        <extensions>
          <gpxtpx:TrackPointExtension xmlns:gpxtpx="http://www.garmin.com/xmlschemas/TrackPointExtension/v1">
            <gpxtpx:hr>117</gpxtpx:hr>
          </gpxtpx:TrackPointExtension>
        </extensions>
      </trkpt>
      <trkpt lat="45.59321" lon="2.99709">
        <ele>820.79998779297</ele>
        <time>2024-05-26T10:47:29.000Z</time>
        <extensions>
          <gpxtpx:TrackPointExtension xmlns:gpxtpx="http://www.garmin.com/xmlschemas/TrackPointExtension/v1">
            <gpxtpx:hr>117</gpxtpx:hr>
          </gpxtpx:TrackPointExtension>
        </extensions>
      </trkpt>
      <trkpt lat="45.59321" lon="2.99715">
        <ele>821</ele>
        <time>2024-05-26T10:47:31.000Z</time>
        <extensions>
          <gpxtpx:TrackPointExtension xmlns:gpxtpx="http://www.garmin.com/xmlschemas/TrackPointExtension/v1">
            <gpxtpx:hr>117</gpxtpx:hr>
          </gpxtpx:TrackPointExtension>
        </extensions>
      </trkpt>
      <trkpt lat="45.59321" lon="2.99721">
        <ele>821.40002441406</ele>
        <time>2024-05-26T10:47:33.000Z</time>
        <extensions>
          <gpxtpx:TrackPointExtension xmlns:gpxtpx="http://www.garmin.com/xmlschemas/TrackPointExtension/v1">
            <gpxtpx:hr>117</gpxtpx:hr>
          </gpxtpx:TrackPointExtension>
        </extensions>
      </trkpt>
      <trkpt lat="45.59321" lon="2.99723">
        <ele>821.59997558594</ele>
        <time>2024-05-26T10:47:34.000Z</time>
        <extensions>
          <gpxtpx:TrackPointExtension xmlns:gpxtpx="http://www.garmin.com/xmlschemas/TrackPointExtension/v1">
            <gpxtpx:hr>118</gpxtpx:hr>
          </gpxtpx:TrackPointExtension>
        </extensions>
      </trkpt>
      <trkpt lat="45.59319" lon="2.99737">
        <ele>822.20001220703</ele>
        <time>2024-05-26T10:47:40.000Z</time>
        <extensions>
          <gpxtpx:TrackPointExtension xmlns:gpxtpx="http://www.garmin.com/xmlschemas/TrackPointExtension/v1">
            <gpxtpx:hr>118</gpxtpx:hr>
          </gpxtpx:TrackPointExtension>
        </extensions>
      </trkpt>
      <trkpt lat="45.59318" lon="2.99742">
        <ele>822.59997558594</ele>
        <time>2024-05-26T10:47:42.000Z</time>
        <extensions>
          <gpxtpx:TrackPointExtension xmlns:gpxtpx="http://www.garmin.com/xmlschemas/TrackPointExtension/v1">
            <gpxtpx:hr>119</gpxtpx:hr>
          </gpxtpx:TrackPointExtension>
        </extensions>
      </trkpt>
      <trkpt lat="45.59317" lon="2.99757">
        <ele>823.20001220703</ele>
        <time>2024-05-26T10:47:47.000Z</time>
        <extensions>
          <gpxtpx:TrackPointExtension xmlns:gpxtpx="http://www.garmin.com/xmlschemas/TrackPointExtension/v1">
            <gpxtpx:hr>119</gpxtpx:hr>
          </gpxtpx:TrackPointExtension>
        </extensions>
      </trkpt>
      <trkpt lat="45.59318" lon="2.99766">
        <ele>823.59997558594</ele>
        <time>2024-05-26T10:47:50.000Z</time>
        <extensions>
          <gpxtpx:TrackPointExtension xmlns:gpxtpx="http://www.garmin.com/xmlschemas/TrackPointExtension/v1">
            <gpxtpx:hr>119</gpxtpx:hr>
          </gpxtpx:TrackPointExtension>
        </extensions>
      </trkpt>
      <trkpt lat="45.59318" lon="2.99772">
        <ele>823.79998779297</ele>
        <time>2024-05-26T10:47:52.000Z</time>
        <extensions>
          <gpxtpx:TrackPointExtension xmlns:gpxtpx="http://www.garmin.com/xmlschemas/TrackPointExtension/v1">
            <gpxtpx:hr>118</gpxtpx:hr>
          </gpxtpx:TrackPointExtension>
        </extensions>
      </trkpt>
      <trkpt lat="45.59319" lon="2.99787">
        <ele>824.79998779297</ele>
        <time>2024-05-26T10:47:57.000Z</time>
        <extensions>
          <gpxtpx:TrackPointExtension xmlns:gpxtpx="http://www.garmin.com/xmlschemas/TrackPointExtension/v1">
            <gpxtpx:hr>117</gpxtpx:hr>
          </gpxtpx:TrackPointExtension>
        </extensions>
      </trkpt>
      <trkpt lat="45.59321" lon="2.99795">
        <ele>825.20001220703</ele>
        <time>2024-05-26T10:48:00.000Z</time>
        <extensions>
          <gpxtpx:TrackPointExtension xmlns:gpxtpx="http://www.garmin.com/xmlschemas/TrackPointExtension/v1">
            <gpxtpx:hr>116</gpxtpx:hr>
          </gpxtpx:TrackPointExtension>
        </extensions>
      </trkpt>
      <trkpt lat="45.59322" lon="2.99804">
        <ele>825.79998779297</ele>
        <time>2024-05-26T10:48:03.000Z</time>
        <extensions>
          <gpxtpx:TrackPointExtension xmlns:gpxtpx="http://www.garmin.com/xmlschemas/TrackPointExtension/v1">
            <gpxtpx:hr>115</gpxtpx:hr>
          </gpxtpx:TrackPointExtension>
        </extensions>
      </trkpt>
      <trkpt lat="45.59323" lon="2.99811">
        <ele>826.40002441406</ele>
        <time>2024-05-26T10:48:06.000Z</time>
        <extensions>
          <gpxtpx:TrackPointExtension xmlns:gpxtpx="http://www.garmin.com/xmlschemas/TrackPointExtension/v1">
            <gpxtpx:hr>114</gpxtpx:hr>
          </gpxtpx:TrackPointExtension>
        </extensions>
      </trkpt>
      <trkpt lat="45.59325" lon="2.99822">
        <ele>826.79998779297</ele>
        <time>2024-05-26T10:48:10.000Z</time>
        <extensions>
          <gpxtpx:TrackPointExtension xmlns:gpxtpx="http://www.garmin.com/xmlschemas/TrackPointExtension/v1">
            <gpxtpx:hr>116</gpxtpx:hr>
          </gpxtpx:TrackPointExtension>
        </extensions>
      </trkpt>
      <trkpt lat="45.59325" lon="2.99825">
        <ele>826.79998779297</ele>
        <time>2024-05-26T10:48:11.000Z</time>
        <extensions>
          <gpxtpx:TrackPointExtension xmlns:gpxtpx="http://www.garmin.com/xmlschemas/TrackPointExtension/v1">
            <gpxtpx:hr>116</gpxtpx:hr>
          </gpxtpx:TrackPointExtension>
        </extensions>
      </trkpt>
      <trkpt lat="45.59325" lon="2.99827">
        <ele>827</ele>
        <time>2024-05-26T10:48:12.000Z</time>
        <extensions>
          <gpxtpx:TrackPointExtension xmlns:gpxtpx="http://www.garmin.com/xmlschemas/TrackPointExtension/v1">
            <gpxtpx:hr>116</gpxtpx:hr>
          </gpxtpx:TrackPointExtension>
        </extensions>
      </trkpt>
      <trkpt lat="45.59328" lon="2.99844">
        <ele>828</ele>
        <time>2024-05-26T10:48:18.000Z</time>
        <extensions>
          <gpxtpx:TrackPointExtension xmlns:gpxtpx="http://www.garmin.com/xmlschemas/TrackPointExtension/v1">
            <gpxtpx:hr>117</gpxtpx:hr>
          </gpxtpx:TrackPointExtension>
        </extensions>
      </trkpt>
      <trkpt lat="45.59328" lon="2.99862">
        <ele>828.79998779297</ele>
        <time>2024-05-26T10:48:24.000Z</time>
        <extensions>
          <gpxtpx:TrackPointExtension xmlns:gpxtpx="http://www.garmin.com/xmlschemas/TrackPointExtension/v1">
            <gpxtpx:hr>117</gpxtpx:hr>
          </gpxtpx:TrackPointExtension>
        </extensions>
      </trkpt>
      <trkpt lat="45.59327" lon="2.99868">
        <ele>829.20001220703</ele>
        <time>2024-05-26T10:48:26.000Z</time>
        <extensions>
          <gpxtpx:TrackPointExtension xmlns:gpxtpx="http://www.garmin.com/xmlschemas/TrackPointExtension/v1">
            <gpxtpx:hr>116</gpxtpx:hr>
          </gpxtpx:TrackPointExtension>
        </extensions>
      </trkpt>
      <trkpt lat="45.59325" lon="2.99881">
        <ele>829.79998779297</ele>
        <time>2024-05-26T10:48:30.000Z</time>
        <extensions>
          <gpxtpx:TrackPointExtension xmlns:gpxtpx="http://www.garmin.com/xmlschemas/TrackPointExtension/v1">
            <gpxtpx:hr>116</gpxtpx:hr>
          </gpxtpx:TrackPointExtension>
        </extensions>
      </trkpt>
      <trkpt lat="45.59316" lon="2.99892">
        <ele>830.40002441406</ele>
        <time>2024-05-26T10:48:35.000Z</time>
        <extensions>
          <gpxtpx:TrackPointExtension xmlns:gpxtpx="http://www.garmin.com/xmlschemas/TrackPointExtension/v1">
            <gpxtpx:hr>116</gpxtpx:hr>
          </gpxtpx:TrackPointExtension>
        </extensions>
      </trkpt>
      <trkpt lat="45.59305" lon="2.99898">
        <ele>831.40002441406</ele>
        <time>2024-05-26T10:48:40.000Z</time>
        <extensions>
          <gpxtpx:TrackPointExtension xmlns:gpxtpx="http://www.garmin.com/xmlschemas/TrackPointExtension/v1">
            <gpxtpx:hr>116</gpxtpx:hr>
          </gpxtpx:TrackPointExtension>
        </extensions>
      </trkpt>
      <trkpt lat="45.59303" lon="2.99898">
        <ele>831.59997558594</ele>
        <time>2024-05-26T10:48:41.000Z</time>
        <extensions>
          <gpxtpx:TrackPointExtension xmlns:gpxtpx="http://www.garmin.com/xmlschemas/TrackPointExtension/v1">
            <gpxtpx:hr>115</gpxtpx:hr>
          </gpxtpx:TrackPointExtension>
        </extensions>
      </trkpt>
      <trkpt lat="45.593" lon="2.99898">
        <ele>831.79998779297</ele>
        <time>2024-05-26T10:48:42.000Z</time>
        <extensions>
          <gpxtpx:TrackPointExtension xmlns:gpxtpx="http://www.garmin.com/xmlschemas/TrackPointExtension/v1">
            <gpxtpx:hr>115</gpxtpx:hr>
          </gpxtpx:TrackPointExtension>
        </extensions>
      </trkpt>
      <trkpt lat="45.59286" lon="2.99901">
        <ele>832.79998779297</ele>
        <time>2024-05-26T10:48:48.000Z</time>
        <extensions>
          <gpxtpx:TrackPointExtension xmlns:gpxtpx="http://www.garmin.com/xmlschemas/TrackPointExtension/v1">
            <gpxtpx:hr>113</gpxtpx:hr>
          </gpxtpx:TrackPointExtension>
        </extensions>
      </trkpt>
      <trkpt lat="45.59281" lon="2.99904">
        <ele>833.20001220703</ele>
        <time>2024-05-26T10:48:51.000Z</time>
        <extensions>
          <gpxtpx:TrackPointExtension xmlns:gpxtpx="http://www.garmin.com/xmlschemas/TrackPointExtension/v1">
            <gpxtpx:hr>112</gpxtpx:hr>
          </gpxtpx:TrackPointExtension>
        </extensions>
      </trkpt>
      <trkpt lat="45.59274" lon="2.99911">
        <ele>833.79998779297</ele>
        <time>2024-05-26T10:48:55.000Z</time>
        <extensions>
          <gpxtpx:TrackPointExtension xmlns:gpxtpx="http://www.garmin.com/xmlschemas/TrackPointExtension/v1">
            <gpxtpx:hr>112</gpxtpx:hr>
          </gpxtpx:TrackPointExtension>
        </extensions>
      </trkpt>
      <trkpt lat="45.59271" lon="2.99914">
        <ele>834</ele>
        <time>2024-05-26T10:48:57.000Z</time>
        <extensions>
          <gpxtpx:TrackPointExtension xmlns:gpxtpx="http://www.garmin.com/xmlschemas/TrackPointExtension/v1">
            <gpxtpx:hr>112</gpxtpx:hr>
          </gpxtpx:TrackPointExtension>
        </extensions>
      </trkpt>
      <trkpt lat="45.59264" lon="2.99927">
        <ele>834.79998779297</ele>
        <time>2024-05-26T10:49:03.000Z</time>
        <extensions>
          <gpxtpx:TrackPointExtension xmlns:gpxtpx="http://www.garmin.com/xmlschemas/TrackPointExtension/v1">
            <gpxtpx:hr>109</gpxtpx:hr>
          </gpxtpx:TrackPointExtension>
        </extensions>
      </trkpt>
      <trkpt lat="45.59262" lon="2.99929">
        <ele>835</ele>
        <time>2024-05-26T10:49:04.000Z</time>
        <extensions>
          <gpxtpx:TrackPointExtension xmlns:gpxtpx="http://www.garmin.com/xmlschemas/TrackPointExtension/v1">
            <gpxtpx:hr>108</gpxtpx:hr>
          </gpxtpx:TrackPointExtension>
        </extensions>
      </trkpt>
      <trkpt lat="45.59254" lon="2.99943">
        <ele>835.79998779297</ele>
        <time>2024-05-26T10:49:10.000Z</time>
        <extensions>
          <gpxtpx:TrackPointExtension xmlns:gpxtpx="http://www.garmin.com/xmlschemas/TrackPointExtension/v1">
            <gpxtpx:hr>107</gpxtpx:hr>
          </gpxtpx:TrackPointExtension>
        </extensions>
      </trkpt>
      <trkpt lat="45.59251" lon="2.9995">
        <ele>836.40002441406</ele>
        <time>2024-05-26T10:49:13.000Z</time>
        <extensions>
          <gpxtpx:TrackPointExtension xmlns:gpxtpx="http://www.garmin.com/xmlschemas/TrackPointExtension/v1">
            <gpxtpx:hr>107</gpxtpx:hr>
          </gpxtpx:TrackPointExtension>
        </extensions>
      </trkpt>
      <trkpt lat="45.59246" lon="2.99959">
        <ele>837</ele>
        <time>2024-05-26T10:49:17.000Z</time>
        <extensions>
          <gpxtpx:TrackPointExtension xmlns:gpxtpx="http://www.garmin.com/xmlschemas/TrackPointExtension/v1">
            <gpxtpx:hr>108</gpxtpx:hr>
          </gpxtpx:TrackPointExtension>
        </extensions>
      </trkpt>
      <trkpt lat="45.59242" lon="2.99975">
        <ele>838</ele>
        <time>2024-05-26T10:49:23.000Z</time>
        <extensions>
          <gpxtpx:TrackPointExtension xmlns:gpxtpx="http://www.garmin.com/xmlschemas/TrackPointExtension/v1">
            <gpxtpx:hr>108</gpxtpx:hr>
          </gpxtpx:TrackPointExtension>
        </extensions>
      </trkpt>
      <trkpt lat="45.59241" lon="2.99978">
        <ele>838</ele>
        <time>2024-05-26T10:49:24.000Z</time>
        <extensions>
          <gpxtpx:TrackPointExtension xmlns:gpxtpx="http://www.garmin.com/xmlschemas/TrackPointExtension/v1">
            <gpxtpx:hr>108</gpxtpx:hr>
          </gpxtpx:TrackPointExtension>
        </extensions>
      </trkpt>
      <trkpt lat="45.59242" lon="2.99987">
        <ele>838.79998779297</ele>
        <time>2024-05-26T10:49:27.000Z</time>
        <extensions>
          <gpxtpx:TrackPointExtension xmlns:gpxtpx="http://www.garmin.com/xmlschemas/TrackPointExtension/v1">
            <gpxtpx:hr>108</gpxtpx:hr>
          </gpxtpx:TrackPointExtension>
        </extensions>
      </trkpt>
      <trkpt lat="45.59244" lon="2.99988">
        <ele>838.79998779297</ele>
        <time>2024-05-26T10:49:28.000Z</time>
        <extensions>
          <gpxtpx:TrackPointExtension xmlns:gpxtpx="http://www.garmin.com/xmlschemas/TrackPointExtension/v1">
            <gpxtpx:hr>107</gpxtpx:hr>
          </gpxtpx:TrackPointExtension>
        </extensions>
      </trkpt>
      <trkpt lat="45.59255" lon="2.99982">
        <ele>839</ele>
        <time>2024-05-26T10:49:33.000Z</time>
        <extensions>
          <gpxtpx:TrackPointExtension xmlns:gpxtpx="http://www.garmin.com/xmlschemas/TrackPointExtension/v1">
            <gpxtpx:hr>108</gpxtpx:hr>
          </gpxtpx:TrackPointExtension>
        </extensions>
      </trkpt>
      <trkpt lat="45.59262" lon="2.99969">
        <ele>840</ele>
        <time>2024-05-26T10:49:38.000Z</time>
        <extensions>
          <gpxtpx:TrackPointExtension xmlns:gpxtpx="http://www.garmin.com/xmlschemas/TrackPointExtension/v1">
            <gpxtpx:hr>111</gpxtpx:hr>
          </gpxtpx:TrackPointExtension>
        </extensions>
      </trkpt>
      <trkpt lat="45.59263" lon="2.99966">
        <ele>840.20001220703</ele>
        <time>2024-05-26T10:49:39.000Z</time>
        <extensions>
          <gpxtpx:TrackPointExtension xmlns:gpxtpx="http://www.garmin.com/xmlschemas/TrackPointExtension/v1">
            <gpxtpx:hr>112</gpxtpx:hr>
          </gpxtpx:TrackPointExtension>
        </extensions>
      </trkpt>
      <trkpt lat="45.59264" lon="2.99963">
        <ele>840.40002441406</ele>
        <time>2024-05-26T10:49:40.000Z</time>
        <extensions>
          <gpxtpx:TrackPointExtension xmlns:gpxtpx="http://www.garmin.com/xmlschemas/TrackPointExtension/v1">
            <gpxtpx:hr>113</gpxtpx:hr>
          </gpxtpx:TrackPointExtension>
        </extensions>
      </trkpt>
      <trkpt lat="45.59268" lon="2.99953">
        <ele>840.59997558594</ele>
        <time>2024-05-26T10:49:43.000Z</time>
        <extensions>
          <gpxtpx:TrackPointExtension xmlns:gpxtpx="http://www.garmin.com/xmlschemas/TrackPointExtension/v1">
            <gpxtpx:hr>116</gpxtpx:hr>
          </gpxtpx:TrackPointExtension>
        </extensions>
      </trkpt>
      <trkpt lat="45.59277" lon="2.99941">
        <ele>841.40002441406</ele>
        <time>2024-05-26T10:49:48.000Z</time>
        <extensions>
          <gpxtpx:TrackPointExtension xmlns:gpxtpx="http://www.garmin.com/xmlschemas/TrackPointExtension/v1">
            <gpxtpx:hr>117</gpxtpx:hr>
          </gpxtpx:TrackPointExtension>
        </extensions>
      </trkpt>
      <trkpt lat="45.59286" lon="2.99937">
        <ele>842</ele>
        <time>2024-05-26T10:49:52.000Z</time>
        <extensions>
          <gpxtpx:TrackPointExtension xmlns:gpxtpx="http://www.garmin.com/xmlschemas/TrackPointExtension/v1">
            <gpxtpx:hr>120</gpxtpx:hr>
          </gpxtpx:TrackPointExtension>
        </extensions>
      </trkpt>
      <trkpt lat="45.5929" lon="2.99937">
        <ele>842.20001220703</ele>
        <time>2024-05-26T10:49:54.000Z</time>
        <extensions>
          <gpxtpx:TrackPointExtension xmlns:gpxtpx="http://www.garmin.com/xmlschemas/TrackPointExtension/v1">
            <gpxtpx:hr>117</gpxtpx:hr>
          </gpxtpx:TrackPointExtension>
        </extensions>
      </trkpt>
      <trkpt lat="45.59293" lon="2.99937">
        <ele>842.40002441406</ele>
        <time>2024-05-26T10:49:55.000Z</time>
        <extensions>
          <gpxtpx:TrackPointExtension xmlns:gpxtpx="http://www.garmin.com/xmlschemas/TrackPointExtension/v1">
            <gpxtpx:hr>120</gpxtpx:hr>
          </gpxtpx:TrackPointExtension>
        </extensions>
      </trkpt>
      <trkpt lat="45.59295" lon="2.99937">
        <ele>842.59997558594</ele>
        <time>2024-05-26T10:49:56.000Z</time>
        <extensions>
          <gpxtpx:TrackPointExtension xmlns:gpxtpx="http://www.garmin.com/xmlschemas/TrackPointExtension/v1">
            <gpxtpx:hr>121</gpxtpx:hr>
          </gpxtpx:TrackPointExtension>
        </extensions>
      </trkpt>
      <trkpt lat="45.59309" lon="2.99941">
        <ele>843.40002441406</ele>
        <time>2024-05-26T10:50:02.000Z</time>
        <extensions>
          <gpxtpx:TrackPointExtension xmlns:gpxtpx="http://www.garmin.com/xmlschemas/TrackPointExtension/v1">
            <gpxtpx:hr>118</gpxtpx:hr>
          </gpxtpx:TrackPointExtension>
        </extensions>
      </trkpt>
      <trkpt lat="45.59311" lon="2.99942">
        <ele>843.59997558594</ele>
        <time>2024-05-26T10:50:03.000Z</time>
        <extensions>
          <gpxtpx:TrackPointExtension xmlns:gpxtpx="http://www.garmin.com/xmlschemas/TrackPointExtension/v1">
            <gpxtpx:hr>118</gpxtpx:hr>
          </gpxtpx:TrackPointExtension>
        </extensions>
      </trkpt>
      <trkpt lat="45.59315" lon="2.99944">
        <ele>843.79998779297</ele>
        <time>2024-05-26T10:50:05.000Z</time>
        <extensions>
          <gpxtpx:TrackPointExtension xmlns:gpxtpx="http://www.garmin.com/xmlschemas/TrackPointExtension/v1">
            <gpxtpx:hr>115</gpxtpx:hr>
          </gpxtpx:TrackPointExtension>
        </extensions>
      </trkpt>
      <trkpt lat="45.59326" lon="2.99945">
        <ele>844.20001220703</ele>
        <time>2024-05-26T10:50:10.000Z</time>
        <extensions>
          <gpxtpx:TrackPointExtension xmlns:gpxtpx="http://www.garmin.com/xmlschemas/TrackPointExtension/v1">
            <gpxtpx:hr>116</gpxtpx:hr>
          </gpxtpx:TrackPointExtension>
        </extensions>
      </trkpt>
      <trkpt lat="45.59332" lon="2.99946">
        <ele>844.40002441406</ele>
        <time>2024-05-26T10:50:13.000Z</time>
        <extensions>
          <gpxtpx:TrackPointExtension xmlns:gpxtpx="http://www.garmin.com/xmlschemas/TrackPointExtension/v1">
            <gpxtpx:hr>112</gpxtpx:hr>
          </gpxtpx:TrackPointExtension>
        </extensions>
      </trkpt>
      <trkpt lat="45.59334" lon="2.99946">
        <ele>845</ele>
        <time>2024-05-26T10:50:14.000Z</time>
        <extensions>
          <gpxtpx:TrackPointExtension xmlns:gpxtpx="http://www.garmin.com/xmlschemas/TrackPointExtension/v1">
            <gpxtpx:hr>113</gpxtpx:hr>
          </gpxtpx:TrackPointExtension>
        </extensions>
      </trkpt>
      <trkpt lat="45.59342" lon="2.99948">
        <ele>845.59997558594</ele>
        <time>2024-05-26T10:50:18.000Z</time>
        <extensions>
          <gpxtpx:TrackPointExtension xmlns:gpxtpx="http://www.garmin.com/xmlschemas/TrackPointExtension/v1">
            <gpxtpx:hr>114</gpxtpx:hr>
          </gpxtpx:TrackPointExtension>
        </extensions>
      </trkpt>
      <trkpt lat="45.5935" lon="2.9995">
        <ele>846.20001220703</ele>
        <time>2024-05-26T10:50:22.000Z</time>
        <extensions>
          <gpxtpx:TrackPointExtension xmlns:gpxtpx="http://www.garmin.com/xmlschemas/TrackPointExtension/v1">
            <gpxtpx:hr>113</gpxtpx:hr>
          </gpxtpx:TrackPointExtension>
        </extensions>
      </trkpt>
      <trkpt lat="45.59358" lon="2.99952">
        <ele>846.59997558594</ele>
        <time>2024-05-26T10:50:26.000Z</time>
        <extensions>
          <gpxtpx:TrackPointExtension xmlns:gpxtpx="http://www.garmin.com/xmlschemas/TrackPointExtension/v1">
            <gpxtpx:hr>113</gpxtpx:hr>
          </gpxtpx:TrackPointExtension>
        </extensions>
      </trkpt>
      <trkpt lat="45.59366" lon="2.99954">
        <ele>847.20001220703</ele>
        <time>2024-05-26T10:50:30.000Z</time>
        <extensions>
          <gpxtpx:TrackPointExtension xmlns:gpxtpx="http://www.garmin.com/xmlschemas/TrackPointExtension/v1">
            <gpxtpx:hr>114</gpxtpx:hr>
          </gpxtpx:TrackPointExtension>
        </extensions>
      </trkpt>
      <trkpt lat="45.59379" lon="2.99955">
        <ele>848.20001220703</ele>
        <time>2024-05-26T10:50:36.000Z</time>
        <extensions>
          <gpxtpx:TrackPointExtension xmlns:gpxtpx="http://www.garmin.com/xmlschemas/TrackPointExtension/v1">
            <gpxtpx:hr>116</gpxtpx:hr>
          </gpxtpx:TrackPointExtension>
        </extensions>
      </trkpt>
      <trkpt lat="45.59381" lon="2.99955">
        <ele>848.20001220703</ele>
        <time>2024-05-26T10:50:37.000Z</time>
        <extensions>
          <gpxtpx:TrackPointExtension xmlns:gpxtpx="http://www.garmin.com/xmlschemas/TrackPointExtension/v1">
            <gpxtpx:hr>116</gpxtpx:hr>
          </gpxtpx:TrackPointExtension>
        </extensions>
      </trkpt>
      <trkpt lat="45.59395" lon="2.99948">
        <ele>849.40002441406</ele>
        <time>2024-05-26T10:50:44.000Z</time>
        <extensions>
          <gpxtpx:TrackPointExtension xmlns:gpxtpx="http://www.garmin.com/xmlschemas/TrackPointExtension/v1">
            <gpxtpx:hr>118</gpxtpx:hr>
          </gpxtpx:TrackPointExtension>
        </extensions>
      </trkpt>
      <trkpt lat="45.59403" lon="2.99938">
        <ele>850.40002441406</ele>
        <time>2024-05-26T10:50:50.000Z</time>
        <extensions>
          <gpxtpx:TrackPointExtension xmlns:gpxtpx="http://www.garmin.com/xmlschemas/TrackPointExtension/v1">
            <gpxtpx:hr>118</gpxtpx:hr>
          </gpxtpx:TrackPointExtension>
        </extensions>
      </trkpt>
      <trkpt lat="45.59404" lon="2.99936">
        <ele>850.40002441406</ele>
        <time>2024-05-26T10:50:51.000Z</time>
        <extensions>
          <gpxtpx:TrackPointExtension xmlns:gpxtpx="http://www.garmin.com/xmlschemas/TrackPointExtension/v1">
            <gpxtpx:hr>118</gpxtpx:hr>
          </gpxtpx:TrackPointExtension>
        </extensions>
      </trkpt>
      <trkpt lat="45.59409" lon="2.99921">
        <ele>851.20001220703</ele>
        <time>2024-05-26T10:50:57.000Z</time>
        <extensions>
          <gpxtpx:TrackPointExtension xmlns:gpxtpx="http://www.garmin.com/xmlschemas/TrackPointExtension/v1">
            <gpxtpx:hr>122</gpxtpx:hr>
          </gpxtpx:TrackPointExtension>
        </extensions>
      </trkpt>
      <trkpt lat="45.59411" lon="2.99916">
        <ele>851.40002441406</ele>
        <time>2024-05-26T10:50:59.000Z</time>
        <extensions>
          <gpxtpx:TrackPointExtension xmlns:gpxtpx="http://www.garmin.com/xmlschemas/TrackPointExtension/v1">
            <gpxtpx:hr>120</gpxtpx:hr>
          </gpxtpx:TrackPointExtension>
        </extensions>
      </trkpt>
      <trkpt lat="45.5941" lon="2.99896">
        <ele>852.59997558594</ele>
        <time>2024-05-26T10:51:06.000Z</time>
        <extensions>
          <gpxtpx:TrackPointExtension xmlns:gpxtpx="http://www.garmin.com/xmlschemas/TrackPointExtension/v1">
            <gpxtpx:hr>120</gpxtpx:hr>
          </gpxtpx:TrackPointExtension>
        </extensions>
      </trkpt>
      <trkpt lat="45.59409" lon="2.99894">
        <ele>852.59997558594</ele>
        <time>2024-05-26T10:51:07.000Z</time>
        <extensions>
          <gpxtpx:TrackPointExtension xmlns:gpxtpx="http://www.garmin.com/xmlschemas/TrackPointExtension/v1">
            <gpxtpx:hr>117</gpxtpx:hr>
          </gpxtpx:TrackPointExtension>
        </extensions>
      </trkpt>
      <trkpt lat="45.59408" lon="2.99888">
        <ele>853</ele>
        <time>2024-05-26T10:51:09.000Z</time>
        <extensions>
          <gpxtpx:TrackPointExtension xmlns:gpxtpx="http://www.garmin.com/xmlschemas/TrackPointExtension/v1">
            <gpxtpx:hr>120</gpxtpx:hr>
          </gpxtpx:TrackPointExtension>
        </extensions>
      </trkpt>
      <trkpt lat="45.59404" lon="2.99876">
        <ele>853.59997558594</ele>
        <time>2024-05-26T10:51:13.000Z</time>
        <extensions>
          <gpxtpx:TrackPointExtension xmlns:gpxtpx="http://www.garmin.com/xmlschemas/TrackPointExtension/v1">
            <gpxtpx:hr>123</gpxtpx:hr>
          </gpxtpx:TrackPointExtension>
        </extensions>
      </trkpt>
      <trkpt lat="45.59401" lon="2.99863">
        <ele>854</ele>
        <time>2024-05-26T10:51:17.000Z</time>
        <extensions>
          <gpxtpx:TrackPointExtension xmlns:gpxtpx="http://www.garmin.com/xmlschemas/TrackPointExtension/v1">
            <gpxtpx:hr>121</gpxtpx:hr>
          </gpxtpx:TrackPointExtension>
        </extensions>
      </trkpt>
      <trkpt lat="45.594" lon="2.9986">
        <ele>854.20001220703</ele>
        <time>2024-05-26T10:51:18.000Z</time>
        <extensions>
          <gpxtpx:TrackPointExtension xmlns:gpxtpx="http://www.garmin.com/xmlschemas/TrackPointExtension/v1">
            <gpxtpx:hr>119</gpxtpx:hr>
          </gpxtpx:TrackPointExtension>
        </extensions>
      </trkpt>
      <trkpt lat="45.59397" lon="2.99853">
        <ele>854.40002441406</ele>
        <time>2024-05-26T10:51:20.000Z</time>
        <extensions>
          <gpxtpx:TrackPointExtension xmlns:gpxtpx="http://www.garmin.com/xmlschemas/TrackPointExtension/v1">
            <gpxtpx:hr>115</gpxtpx:hr>
          </gpxtpx:TrackPointExtension>
        </extensions>
      </trkpt>
      <trkpt lat="45.59394" lon="2.99843">
        <ele>854.59997558594</ele>
        <time>2024-05-26T10:51:23.000Z</time>
        <extensions>
          <gpxtpx:TrackPointExtension xmlns:gpxtpx="http://www.garmin.com/xmlschemas/TrackPointExtension/v1">
            <gpxtpx:hr>114</gpxtpx:hr>
          </gpxtpx:TrackPointExtension>
        </extensions>
      </trkpt>
      <trkpt lat="45.59392" lon="2.99833">
        <ele>855</ele>
        <time>2024-05-26T10:51:26.000Z</time>
        <extensions>
          <gpxtpx:TrackPointExtension xmlns:gpxtpx="http://www.garmin.com/xmlschemas/TrackPointExtension/v1">
            <gpxtpx:hr>113</gpxtpx:hr>
          </gpxtpx:TrackPointExtension>
        </extensions>
      </trkpt>
      <trkpt lat="45.59391" lon="2.99816">
        <ele>855.79998779297</ele>
        <time>2024-05-26T10:51:31.000Z</time>
        <extensions>
          <gpxtpx:TrackPointExtension xmlns:gpxtpx="http://www.garmin.com/xmlschemas/TrackPointExtension/v1">
            <gpxtpx:hr>112</gpxtpx:hr>
          </gpxtpx:TrackPointExtension>
        </extensions>
      </trkpt>
      <trkpt lat="45.59391" lon="2.99814">
        <ele>855.79998779297</ele>
        <time>2024-05-26T10:51:32.000Z</time>
        <extensions>
          <gpxtpx:TrackPointExtension xmlns:gpxtpx="http://www.garmin.com/xmlschemas/TrackPointExtension/v1">
            <gpxtpx:hr>112</gpxtpx:hr>
          </gpxtpx:TrackPointExtension>
        </extensions>
      </trkpt>
      <trkpt lat="45.5939" lon="2.99791">
        <ele>856.79998779297</ele>
        <time>2024-05-26T10:51:38.000Z</time>
        <extensions>
          <gpxtpx:TrackPointExtension xmlns:gpxtpx="http://www.garmin.com/xmlschemas/TrackPointExtension/v1">
            <gpxtpx:hr>110</gpxtpx:hr>
          </gpxtpx:TrackPointExtension>
        </extensions>
      </trkpt>
      <trkpt lat="45.5939" lon="2.99788">
        <ele>856.79998779297</ele>
        <time>2024-05-26T10:51:39.000Z</time>
        <extensions>
          <gpxtpx:TrackPointExtension xmlns:gpxtpx="http://www.garmin.com/xmlschemas/TrackPointExtension/v1">
            <gpxtpx:hr>111</gpxtpx:hr>
          </gpxtpx:TrackPointExtension>
        </extensions>
      </trkpt>
      <trkpt lat="45.59398" lon="2.99768">
        <ele>857</ele>
        <time>2024-05-26T10:51:44.000Z</time>
        <extensions>
          <gpxtpx:TrackPointExtension xmlns:gpxtpx="http://www.garmin.com/xmlschemas/TrackPointExtension/v1">
            <gpxtpx:hr>111</gpxtpx:hr>
          </gpxtpx:TrackPointExtension>
        </extensions>
      </trkpt>
      <trkpt lat="45.5941" lon="2.99744">
        <ele>857</ele>
        <time>2024-05-26T10:51:51.000Z</time>
        <extensions>
          <gpxtpx:TrackPointExtension xmlns:gpxtpx="http://www.garmin.com/xmlschemas/TrackPointExtension/v1">
            <gpxtpx:hr>110</gpxtpx:hr>
          </gpxtpx:TrackPointExtension>
        </extensions>
      </trkpt>
      <trkpt lat="45.59424" lon="2.99725">
        <ele>857</ele>
        <time>2024-05-26T10:51:57.000Z</time>
        <extensions>
          <gpxtpx:TrackPointExtension xmlns:gpxtpx="http://www.garmin.com/xmlschemas/TrackPointExtension/v1">
            <gpxtpx:hr>108</gpxtpx:hr>
          </gpxtpx:TrackPointExtension>
        </extensions>
      </trkpt>
      <trkpt lat="45.59437" lon="2.9971">
        <ele>857</ele>
        <time>2024-05-26T10:52:02.000Z</time>
        <extensions>
          <gpxtpx:TrackPointExtension xmlns:gpxtpx="http://www.garmin.com/xmlschemas/TrackPointExtension/v1">
            <gpxtpx:hr>105</gpxtpx:hr>
          </gpxtpx:TrackPointExtension>
        </extensions>
      </trkpt>
      <trkpt lat="45.59446" lon="2.99701">
        <ele>857</ele>
        <time>2024-05-26T10:52:05.000Z</time>
        <extensions>
          <gpxtpx:TrackPointExtension xmlns:gpxtpx="http://www.garmin.com/xmlschemas/TrackPointExtension/v1">
            <gpxtpx:hr>105</gpxtpx:hr>
          </gpxtpx:TrackPointExtension>
        </extensions>
      </trkpt>
      <trkpt lat="45.59466" lon="2.99684">
        <ele>857.40002441406</ele>
        <time>2024-05-26T10:52:12.000Z</time>
        <extensions>
          <gpxtpx:TrackPointExtension xmlns:gpxtpx="http://www.garmin.com/xmlschemas/TrackPointExtension/v1">
            <gpxtpx:hr>105</gpxtpx:hr>
          </gpxtpx:TrackPointExtension>
        </extensions>
      </trkpt>
      <trkpt lat="45.59471" lon="2.9968">
        <ele>858</ele>
        <time>2024-05-26T10:52:14.000Z</time>
        <extensions>
          <gpxtpx:TrackPointExtension xmlns:gpxtpx="http://www.garmin.com/xmlschemas/TrackPointExtension/v1">
            <gpxtpx:hr>105</gpxtpx:hr>
          </gpxtpx:TrackPointExtension>
        </extensions>
      </trkpt>
      <trkpt lat="45.5948" lon="2.99671">
        <ele>858.79998779297</ele>
        <time>2024-05-26T10:52:18.000Z</time>
        <extensions>
          <gpxtpx:TrackPointExtension xmlns:gpxtpx="http://www.garmin.com/xmlschemas/TrackPointExtension/v1">
            <gpxtpx:hr>102</gpxtpx:hr>
          </gpxtpx:TrackPointExtension>
        </extensions>
      </trkpt>
      <trkpt lat="45.59483" lon="2.99669">
        <ele>859</ele>
        <time>2024-05-26T10:52:19.000Z</time>
        <extensions>
          <gpxtpx:TrackPointExtension xmlns:gpxtpx="http://www.garmin.com/xmlschemas/TrackPointExtension/v1">
            <gpxtpx:hr>102</gpxtpx:hr>
          </gpxtpx:TrackPointExtension>
        </extensions>
      </trkpt>
      <trkpt lat="45.59491" lon="2.9966">
        <ele>859.79998779297</ele>
        <time>2024-05-26T10:52:23.000Z</time>
        <extensions>
          <gpxtpx:TrackPointExtension xmlns:gpxtpx="http://www.garmin.com/xmlschemas/TrackPointExtension/v1">
            <gpxtpx:hr>99</gpxtpx:hr>
          </gpxtpx:TrackPointExtension>
        </extensions>
      </trkpt>
      <trkpt lat="45.59495" lon="2.99655">
        <ele>860</ele>
        <time>2024-05-26T10:52:25.000Z</time>
        <extensions>
          <gpxtpx:TrackPointExtension xmlns:gpxtpx="http://www.garmin.com/xmlschemas/TrackPointExtension/v1">
            <gpxtpx:hr>100</gpxtpx:hr>
          </gpxtpx:TrackPointExtension>
        </extensions>
      </trkpt>
      <trkpt lat="45.59496" lon="2.99653">
        <ele>860.20001220703</ele>
        <time>2024-05-26T10:52:26.000Z</time>
        <extensions>
          <gpxtpx:TrackPointExtension xmlns:gpxtpx="http://www.garmin.com/xmlschemas/TrackPointExtension/v1">
            <gpxtpx:hr>101</gpxtpx:hr>
          </gpxtpx:TrackPointExtension>
        </extensions>
      </trkpt>
      <trkpt lat="45.59501" lon="2.99645">
        <ele>861</ele>
        <time>2024-05-26T10:52:29.000Z</time>
        <extensions>
          <gpxtpx:TrackPointExtension xmlns:gpxtpx="http://www.garmin.com/xmlschemas/TrackPointExtension/v1">
            <gpxtpx:hr>104</gpxtpx:hr>
          </gpxtpx:TrackPointExtension>
        </extensions>
      </trkpt>
      <trkpt lat="45.59503" lon="2.99643">
        <ele>861.20001220703</ele>
        <time>2024-05-26T10:52:30.000Z</time>
        <extensions>
          <gpxtpx:TrackPointExtension xmlns:gpxtpx="http://www.garmin.com/xmlschemas/TrackPointExtension/v1">
            <gpxtpx:hr>105</gpxtpx:hr>
          </gpxtpx:TrackPointExtension>
        </extensions>
      </trkpt>
      <trkpt lat="45.59504" lon="2.9964">
        <ele>861.20001220703</ele>
        <time>2024-05-26T10:52:31.000Z</time>
        <extensions>
          <gpxtpx:TrackPointExtension xmlns:gpxtpx="http://www.garmin.com/xmlschemas/TrackPointExtension/v1">
            <gpxtpx:hr>106</gpxtpx:hr>
          </gpxtpx:TrackPointExtension>
        </extensions>
      </trkpt>
      <trkpt lat="45.59512" lon="2.99627">
        <ele>862.20001220703</ele>
        <time>2024-05-26T10:52:36.000Z</time>
        <extensions>
          <gpxtpx:TrackPointExtension xmlns:gpxtpx="http://www.garmin.com/xmlschemas/TrackPointExtension/v1">
            <gpxtpx:hr>109</gpxtpx:hr>
          </gpxtpx:TrackPointExtension>
        </extensions>
      </trkpt>
      <trkpt lat="45.59514" lon="2.99625">
        <ele>862.40002441406</ele>
        <time>2024-05-26T10:52:37.000Z</time>
        <extensions>
          <gpxtpx:TrackPointExtension xmlns:gpxtpx="http://www.garmin.com/xmlschemas/TrackPointExtension/v1">
            <gpxtpx:hr>109</gpxtpx:hr>
          </gpxtpx:TrackPointExtension>
        </extensions>
      </trkpt>
      <trkpt lat="45.59518" lon="2.99617">
        <ele>862.79998779297</ele>
        <time>2024-05-26T10:52:40.000Z</time>
        <extensions>
          <gpxtpx:TrackPointExtension xmlns:gpxtpx="http://www.garmin.com/xmlschemas/TrackPointExtension/v1">
            <gpxtpx:hr>110</gpxtpx:hr>
          </gpxtpx:TrackPointExtension>
        </extensions>
      </trkpt>
      <trkpt lat="45.59524" lon="2.99606">
        <ele>863.40002441406</ele>
        <time>2024-05-26T10:52:44.000Z</time>
        <extensions>
          <gpxtpx:TrackPointExtension xmlns:gpxtpx="http://www.garmin.com/xmlschemas/TrackPointExtension/v1">
            <gpxtpx:hr>111</gpxtpx:hr>
          </gpxtpx:TrackPointExtension>
        </extensions>
      </trkpt>
      <trkpt lat="45.59531" lon="2.99594">
        <ele>864.40002441406</ele>
        <time>2024-05-26T10:52:49.000Z</time>
        <extensions>
          <gpxtpx:TrackPointExtension xmlns:gpxtpx="http://www.garmin.com/xmlschemas/TrackPointExtension/v1">
            <gpxtpx:hr>113</gpxtpx:hr>
          </gpxtpx:TrackPointExtension>
        </extensions>
      </trkpt>
      <trkpt lat="45.59532" lon="2.99591">
        <ele>864.79998779297</ele>
        <time>2024-05-26T10:52:50.000Z</time>
        <extensions>
          <gpxtpx:TrackPointExtension xmlns:gpxtpx="http://www.garmin.com/xmlschemas/TrackPointExtension/v1">
            <gpxtpx:hr>113</gpxtpx:hr>
          </gpxtpx:TrackPointExtension>
        </extensions>
      </trkpt>
      <trkpt lat="45.59533" lon="2.99588">
        <ele>865</ele>
        <time>2024-05-26T10:52:51.000Z</time>
        <extensions>
          <gpxtpx:TrackPointExtension xmlns:gpxtpx="http://www.garmin.com/xmlschemas/TrackPointExtension/v1">
            <gpxtpx:hr>116</gpxtpx:hr>
          </gpxtpx:TrackPointExtension>
        </extensions>
      </trkpt>
      <trkpt lat="45.59534" lon="2.99585">
        <ele>865.20001220703</ele>
        <time>2024-05-26T10:52:52.000Z</time>
        <extensions>
          <gpxtpx:TrackPointExtension xmlns:gpxtpx="http://www.garmin.com/xmlschemas/TrackPointExtension/v1">
            <gpxtpx:hr>113</gpxtpx:hr>
          </gpxtpx:TrackPointExtension>
        </extensions>
      </trkpt>
      <trkpt lat="45.5954" lon="2.99575">
        <ele>865.79998779297</ele>
        <time>2024-05-26T10:52:56.000Z</time>
        <extensions>
          <gpxtpx:TrackPointExtension xmlns:gpxtpx="http://www.garmin.com/xmlschemas/TrackPointExtension/v1">
            <gpxtpx:hr>116</gpxtpx:hr>
          </gpxtpx:TrackPointExtension>
        </extensions>
      </trkpt>
      <trkpt lat="45.59541" lon="2.99572">
        <ele>866</ele>
        <time>2024-05-26T10:52:57.000Z</time>
        <extensions>
          <gpxtpx:TrackPointExtension xmlns:gpxtpx="http://www.garmin.com/xmlschemas/TrackPointExtension/v1">
            <gpxtpx:hr>117</gpxtpx:hr>
          </gpxtpx:TrackPointExtension>
        </extensions>
      </trkpt>
      <trkpt lat="45.59543" lon="2.9957">
        <ele>866.20001220703</ele>
        <time>2024-05-26T10:52:58.000Z</time>
        <extensions>
          <gpxtpx:TrackPointExtension xmlns:gpxtpx="http://www.garmin.com/xmlschemas/TrackPointExtension/v1">
            <gpxtpx:hr>117</gpxtpx:hr>
          </gpxtpx:TrackPointExtension>
        </extensions>
      </trkpt>
      <trkpt lat="45.59551" lon="2.99554">
        <ele>867.20001220703</ele>
        <time>2024-05-26T10:53:04.000Z</time>
        <extensions>
          <gpxtpx:TrackPointExtension xmlns:gpxtpx="http://www.garmin.com/xmlschemas/TrackPointExtension/v1">
            <gpxtpx:hr>119</gpxtpx:hr>
          </gpxtpx:TrackPointExtension>
        </extensions>
      </trkpt>
      <trkpt lat="45.59553" lon="2.99552">
        <ele>867.40002441406</ele>
        <time>2024-05-26T10:53:05.000Z</time>
        <extensions>
          <gpxtpx:TrackPointExtension xmlns:gpxtpx="http://www.garmin.com/xmlschemas/TrackPointExtension/v1">
            <gpxtpx:hr>119</gpxtpx:hr>
          </gpxtpx:TrackPointExtension>
        </extensions>
      </trkpt>
      <trkpt lat="45.59563" lon="2.99535">
        <ele>868.20001220703</ele>
        <time>2024-05-26T10:53:12.000Z</time>
        <extensions>
          <gpxtpx:TrackPointExtension xmlns:gpxtpx="http://www.garmin.com/xmlschemas/TrackPointExtension/v1">
            <gpxtpx:hr>119</gpxtpx:hr>
          </gpxtpx:TrackPointExtension>
        </extensions>
      </trkpt>
      <trkpt lat="45.59568" lon="2.99527">
        <ele>869</ele>
        <time>2024-05-26T10:53:15.000Z</time>
        <extensions>
          <gpxtpx:TrackPointExtension xmlns:gpxtpx="http://www.garmin.com/xmlschemas/TrackPointExtension/v1">
            <gpxtpx:hr>116</gpxtpx:hr>
          </gpxtpx:TrackPointExtension>
        </extensions>
      </trkpt>
      <trkpt lat="45.59569" lon="2.99525">
        <ele>869</ele>
        <time>2024-05-26T10:53:16.000Z</time>
        <extensions>
          <gpxtpx:TrackPointExtension xmlns:gpxtpx="http://www.garmin.com/xmlschemas/TrackPointExtension/v1">
            <gpxtpx:hr>116</gpxtpx:hr>
          </gpxtpx:TrackPointExtension>
        </extensions>
      </trkpt>
      <trkpt lat="45.59572" lon="2.9952">
        <ele>869.40002441406</ele>
        <time>2024-05-26T10:53:18.000Z</time>
        <extensions>
          <gpxtpx:TrackPointExtension xmlns:gpxtpx="http://www.garmin.com/xmlschemas/TrackPointExtension/v1">
            <gpxtpx:hr>115</gpxtpx:hr>
          </gpxtpx:TrackPointExtension>
        </extensions>
      </trkpt>
      <trkpt lat="45.59583" lon="2.995">
        <ele>870.59997558594</ele>
        <time>2024-05-26T10:53:26.000Z</time>
        <extensions>
          <gpxtpx:TrackPointExtension xmlns:gpxtpx="http://www.garmin.com/xmlschemas/TrackPointExtension/v1">
            <gpxtpx:hr>113</gpxtpx:hr>
          </gpxtpx:TrackPointExtension>
        </extensions>
      </trkpt>
      <trkpt lat="45.59591" lon="2.99488">
        <ele>871.59997558594</ele>
        <time>2024-05-26T10:53:31.000Z</time>
        <extensions>
          <gpxtpx:TrackPointExtension xmlns:gpxtpx="http://www.garmin.com/xmlschemas/TrackPointExtension/v1">
            <gpxtpx:hr>112</gpxtpx:hr>
          </gpxtpx:TrackPointExtension>
        </extensions>
      </trkpt>
      <trkpt lat="45.59597" lon="2.99478">
        <ele>872.59997558594</ele>
        <time>2024-05-26T10:53:35.000Z</time>
        <extensions>
          <gpxtpx:TrackPointExtension xmlns:gpxtpx="http://www.garmin.com/xmlschemas/TrackPointExtension/v1">
            <gpxtpx:hr>115</gpxtpx:hr>
          </gpxtpx:TrackPointExtension>
        </extensions>
      </trkpt>
      <trkpt lat="45.596" lon="2.99474">
        <ele>872.79998779297</ele>
        <time>2024-05-26T10:53:37.000Z</time>
        <extensions>
          <gpxtpx:TrackPointExtension xmlns:gpxtpx="http://www.garmin.com/xmlschemas/TrackPointExtension/v1">
            <gpxtpx:hr>116</gpxtpx:hr>
          </gpxtpx:TrackPointExtension>
        </extensions>
      </trkpt>
      <trkpt lat="45.59604" lon="2.9947">
        <ele>873.40002441406</ele>
        <time>2024-05-26T10:53:39.000Z</time>
        <extensions>
          <gpxtpx:TrackPointExtension xmlns:gpxtpx="http://www.garmin.com/xmlschemas/TrackPointExtension/v1">
            <gpxtpx:hr>116</gpxtpx:hr>
          </gpxtpx:TrackPointExtension>
        </extensions>
      </trkpt>
      <trkpt lat="45.59611" lon="2.99463">
        <ele>874</ele>
        <time>2024-05-26T10:53:43.000Z</time>
        <extensions>
          <gpxtpx:TrackPointExtension xmlns:gpxtpx="http://www.garmin.com/xmlschemas/TrackPointExtension/v1">
            <gpxtpx:hr>115</gpxtpx:hr>
          </gpxtpx:TrackPointExtension>
        </extensions>
      </trkpt>
      <trkpt lat="45.59622" lon="2.99453">
        <ele>875</ele>
        <time>2024-05-26T10:53:49.000Z</time>
        <extensions>
          <gpxtpx:TrackPointExtension xmlns:gpxtpx="http://www.garmin.com/xmlschemas/TrackPointExtension/v1">
            <gpxtpx:hr>115</gpxtpx:hr>
          </gpxtpx:TrackPointExtension>
        </extensions>
      </trkpt>
      <trkpt lat="45.59624" lon="2.99451">
        <ele>875</ele>
        <time>2024-05-26T10:53:50.000Z</time>
        <extensions>
          <gpxtpx:TrackPointExtension xmlns:gpxtpx="http://www.garmin.com/xmlschemas/TrackPointExtension/v1">
            <gpxtpx:hr>115</gpxtpx:hr>
          </gpxtpx:TrackPointExtension>
        </extensions>
      </trkpt>
      <trkpt lat="45.59632" lon="2.99444">
        <ele>876.20001220703</ele>
        <time>2024-05-26T10:53:54.000Z</time>
        <extensions>
          <gpxtpx:TrackPointExtension xmlns:gpxtpx="http://www.garmin.com/xmlschemas/TrackPointExtension/v1">
            <gpxtpx:hr>113</gpxtpx:hr>
          </gpxtpx:TrackPointExtension>
        </extensions>
      </trkpt>
      <trkpt lat="45.5964" lon="2.99432">
        <ele>877</ele>
        <time>2024-05-26T10:53:59.000Z</time>
        <extensions>
          <gpxtpx:TrackPointExtension xmlns:gpxtpx="http://www.garmin.com/xmlschemas/TrackPointExtension/v1">
            <gpxtpx:hr>110</gpxtpx:hr>
          </gpxtpx:TrackPointExtension>
        </extensions>
      </trkpt>
      <trkpt lat="45.59641" lon="2.99429">
        <ele>877.20001220703</ele>
        <time>2024-05-26T10:54:00.000Z</time>
        <extensions>
          <gpxtpx:TrackPointExtension xmlns:gpxtpx="http://www.garmin.com/xmlschemas/TrackPointExtension/v1">
            <gpxtpx:hr>111</gpxtpx:hr>
          </gpxtpx:TrackPointExtension>
        </extensions>
      </trkpt>
      <trkpt lat="45.59642" lon="2.99427">
        <ele>877.40002441406</ele>
        <time>2024-05-26T10:54:01.000Z</time>
        <extensions>
          <gpxtpx:TrackPointExtension xmlns:gpxtpx="http://www.garmin.com/xmlschemas/TrackPointExtension/v1">
            <gpxtpx:hr>111</gpxtpx:hr>
          </gpxtpx:TrackPointExtension>
        </extensions>
      </trkpt>
      <trkpt lat="45.59645" lon="2.99422">
        <ele>877.79998779297</ele>
        <time>2024-05-26T10:54:03.000Z</time>
        <extensions>
          <gpxtpx:TrackPointExtension xmlns:gpxtpx="http://www.garmin.com/xmlschemas/TrackPointExtension/v1">
            <gpxtpx:hr>112</gpxtpx:hr>
          </gpxtpx:TrackPointExtension>
        </extensions>
      </trkpt>
      <trkpt lat="45.59646" lon="2.99416">
        <ele>878</ele>
        <time>2024-05-26T10:54:06.000Z</time>
        <extensions>
          <gpxtpx:TrackPointExtension xmlns:gpxtpx="http://www.garmin.com/xmlschemas/TrackPointExtension/v1">
            <gpxtpx:hr>112</gpxtpx:hr>
          </gpxtpx:TrackPointExtension>
        </extensions>
      </trkpt>
      <trkpt lat="45.59646" lon="2.99414">
        <ele>878.20001220703</ele>
        <time>2024-05-26T10:54:07.000Z</time>
        <extensions>
          <gpxtpx:TrackPointExtension xmlns:gpxtpx="http://www.garmin.com/xmlschemas/TrackPointExtension/v1">
            <gpxtpx:hr>113</gpxtpx:hr>
          </gpxtpx:TrackPointExtension>
        </extensions>
      </trkpt>
      <trkpt lat="45.59649" lon="2.99405">
        <ele>878.79998779297</ele>
        <time>2024-05-26T10:54:13.000Z</time>
        <extensions>
          <gpxtpx:TrackPointExtension xmlns:gpxtpx="http://www.garmin.com/xmlschemas/TrackPointExtension/v1">
            <gpxtpx:hr>113</gpxtpx:hr>
          </gpxtpx:TrackPointExtension>
        </extensions>
      </trkpt>
      <trkpt lat="45.59651" lon="2.99391">
        <ele>879.40002441406</ele>
        <time>2024-05-26T10:54:19.000Z</time>
        <extensions>
          <gpxtpx:TrackPointExtension xmlns:gpxtpx="http://www.garmin.com/xmlschemas/TrackPointExtension/v1">
            <gpxtpx:hr>111</gpxtpx:hr>
          </gpxtpx:TrackPointExtension>
        </extensions>
      </trkpt>
      <trkpt lat="45.59653" lon="2.99385">
        <ele>879.59997558594</ele>
        <time>2024-05-26T10:54:21.000Z</time>
        <extensions>
          <gpxtpx:TrackPointExtension xmlns:gpxtpx="http://www.garmin.com/xmlschemas/TrackPointExtension/v1">
            <gpxtpx:hr>110</gpxtpx:hr>
          </gpxtpx:TrackPointExtension>
        </extensions>
      </trkpt>
      <trkpt lat="45.59655" lon="2.99371">
        <ele>880.40002441406</ele>
        <time>2024-05-26T10:54:25.000Z</time>
        <extensions>
          <gpxtpx:TrackPointExtension xmlns:gpxtpx="http://www.garmin.com/xmlschemas/TrackPointExtension/v1">
            <gpxtpx:hr>111</gpxtpx:hr>
          </gpxtpx:TrackPointExtension>
        </extensions>
      </trkpt>
      <trkpt lat="45.59656" lon="2.99365">
        <ele>880.79998779297</ele>
        <time>2024-05-26T10:54:27.000Z</time>
        <extensions>
          <gpxtpx:TrackPointExtension xmlns:gpxtpx="http://www.garmin.com/xmlschemas/TrackPointExtension/v1">
            <gpxtpx:hr>114</gpxtpx:hr>
          </gpxtpx:TrackPointExtension>
        </extensions>
      </trkpt>
      <trkpt lat="45.59657" lon="2.99359">
        <ele>881</ele>
        <time>2024-05-26T10:54:29.000Z</time>
        <extensions>
          <gpxtpx:TrackPointExtension xmlns:gpxtpx="http://www.garmin.com/xmlschemas/TrackPointExtension/v1">
            <gpxtpx:hr>111</gpxtpx:hr>
          </gpxtpx:TrackPointExtension>
        </extensions>
      </trkpt>
      <trkpt lat="45.59659" lon="2.99351">
        <ele>881.40002441406</ele>
        <time>2024-05-26T10:54:31.000Z</time>
        <extensions>
          <gpxtpx:TrackPointExtension xmlns:gpxtpx="http://www.garmin.com/xmlschemas/TrackPointExtension/v1">
            <gpxtpx:hr>110</gpxtpx:hr>
          </gpxtpx:TrackPointExtension>
        </extensions>
      </trkpt>
      <trkpt lat="45.5966" lon="2.99342">
        <ele>881.79998779297</ele>
        <time>2024-05-26T10:54:33.000Z</time>
        <extensions>
          <gpxtpx:TrackPointExtension xmlns:gpxtpx="http://www.garmin.com/xmlschemas/TrackPointExtension/v1">
            <gpxtpx:hr>109</gpxtpx:hr>
          </gpxtpx:TrackPointExtension>
        </extensions>
      </trkpt>
      <trkpt lat="45.59664" lon="2.99317">
        <ele>883</ele>
        <time>2024-05-26T10:54:38.000Z</time>
        <extensions>
          <gpxtpx:TrackPointExtension xmlns:gpxtpx="http://www.garmin.com/xmlschemas/TrackPointExtension/v1">
            <gpxtpx:hr>107</gpxtpx:hr>
          </gpxtpx:TrackPointExtension>
        </extensions>
      </trkpt>
      <trkpt lat="45.59666" lon="2.99305">
        <ele>884.20001220703</ele>
        <time>2024-05-26T10:54:42.000Z</time>
        <extensions>
          <gpxtpx:TrackPointExtension xmlns:gpxtpx="http://www.garmin.com/xmlschemas/TrackPointExtension/v1">
            <gpxtpx:hr>107</gpxtpx:hr>
          </gpxtpx:TrackPointExtension>
        </extensions>
      </trkpt>
      <trkpt lat="45.59668" lon="2.99294">
        <ele>884.59997558594</ele>
        <time>2024-05-26T10:54:47.000Z</time>
        <extensions>
          <gpxtpx:TrackPointExtension xmlns:gpxtpx="http://www.garmin.com/xmlschemas/TrackPointExtension/v1">
            <gpxtpx:hr>110</gpxtpx:hr>
          </gpxtpx:TrackPointExtension>
        </extensions>
      </trkpt>
      <trkpt lat="45.59668" lon="2.99292">
        <ele>884.59997558594</ele>
        <time>2024-05-26T10:54:48.000Z</time>
        <extensions>
          <gpxtpx:TrackPointExtension xmlns:gpxtpx="http://www.garmin.com/xmlschemas/TrackPointExtension/v1">
            <gpxtpx:hr>110</gpxtpx:hr>
          </gpxtpx:TrackPointExtension>
        </extensions>
      </trkpt>
      <trkpt lat="45.59672" lon="2.9928">
        <ele>885.40002441406</ele>
        <time>2024-05-26T10:54:53.000Z</time>
        <extensions>
          <gpxtpx:TrackPointExtension xmlns:gpxtpx="http://www.garmin.com/xmlschemas/TrackPointExtension/v1">
            <gpxtpx:hr>112</gpxtpx:hr>
          </gpxtpx:TrackPointExtension>
        </extensions>
      </trkpt>
      <trkpt lat="45.59676" lon="2.99266">
        <ele>886.20001220703</ele>
        <time>2024-05-26T10:54:58.000Z</time>
        <extensions>
          <gpxtpx:TrackPointExtension xmlns:gpxtpx="http://www.garmin.com/xmlschemas/TrackPointExtension/v1">
            <gpxtpx:hr>112</gpxtpx:hr>
          </gpxtpx:TrackPointExtension>
        </extensions>
      </trkpt>
      <trkpt lat="45.59677" lon="2.9926">
        <ele>886.59997558594</ele>
        <time>2024-05-26T10:55:00.000Z</time>
        <extensions>
          <gpxtpx:TrackPointExtension xmlns:gpxtpx="http://www.garmin.com/xmlschemas/TrackPointExtension/v1">
            <gpxtpx:hr>112</gpxtpx:hr>
          </gpxtpx:TrackPointExtension>
        </extensions>
      </trkpt>
      <trkpt lat="45.59682" lon="2.99243">
        <ele>887.40002441406</ele>
        <time>2024-05-26T10:55:06.000Z</time>
        <extensions>
          <gpxtpx:TrackPointExtension xmlns:gpxtpx="http://www.garmin.com/xmlschemas/TrackPointExtension/v1">
            <gpxtpx:hr>114</gpxtpx:hr>
          </gpxtpx:TrackPointExtension>
        </extensions>
      </trkpt>
      <trkpt lat="45.59684" lon="2.99237">
        <ele>887.79998779297</ele>
        <time>2024-05-26T10:55:08.000Z</time>
        <extensions>
          <gpxtpx:TrackPointExtension xmlns:gpxtpx="http://www.garmin.com/xmlschemas/TrackPointExtension/v1">
            <gpxtpx:hr>115</gpxtpx:hr>
          </gpxtpx:TrackPointExtension>
        </extensions>
      </trkpt>
      <trkpt lat="45.59688" lon="2.99223">
        <ele>888.59997558594</ele>
        <time>2024-05-26T10:55:13.000Z</time>
        <extensions>
          <gpxtpx:TrackPointExtension xmlns:gpxtpx="http://www.garmin.com/xmlschemas/TrackPointExtension/v1">
            <gpxtpx:hr>112</gpxtpx:hr>
          </gpxtpx:TrackPointExtension>
        </extensions>
      </trkpt>
      <trkpt lat="45.59689" lon="2.99216">
        <ele>888.79998779297</ele>
        <time>2024-05-26T10:55:15.000Z</time>
        <extensions>
          <gpxtpx:TrackPointExtension xmlns:gpxtpx="http://www.garmin.com/xmlschemas/TrackPointExtension/v1">
            <gpxtpx:hr>112</gpxtpx:hr>
          </gpxtpx:TrackPointExtension>
        </extensions>
      </trkpt>
      <trkpt lat="45.59693" lon="2.99199">
        <ele>890</ele>
        <time>2024-05-26T10:55:21.000Z</time>
        <extensions>
          <gpxtpx:TrackPointExtension xmlns:gpxtpx="http://www.garmin.com/xmlschemas/TrackPointExtension/v1">
            <gpxtpx:hr>111</gpxtpx:hr>
          </gpxtpx:TrackPointExtension>
        </extensions>
      </trkpt>
      <trkpt lat="45.59696" lon="2.99187">
        <ele>890.40002441406</ele>
        <time>2024-05-26T10:55:25.000Z</time>
        <extensions>
          <gpxtpx:TrackPointExtension xmlns:gpxtpx="http://www.garmin.com/xmlschemas/TrackPointExtension/v1">
            <gpxtpx:hr>111</gpxtpx:hr>
          </gpxtpx:TrackPointExtension>
        </extensions>
      </trkpt>
      <trkpt lat="45.59697" lon="2.99178">
        <ele>891</ele>
        <time>2024-05-26T10:55:28.000Z</time>
        <extensions>
          <gpxtpx:TrackPointExtension xmlns:gpxtpx="http://www.garmin.com/xmlschemas/TrackPointExtension/v1">
            <gpxtpx:hr>112</gpxtpx:hr>
          </gpxtpx:TrackPointExtension>
        </extensions>
      </trkpt>
      <trkpt lat="45.59701" lon="2.99159">
        <ele>891.79998779297</ele>
        <time>2024-05-26T10:55:35.000Z</time>
        <extensions>
          <gpxtpx:TrackPointExtension xmlns:gpxtpx="http://www.garmin.com/xmlschemas/TrackPointExtension/v1">
            <gpxtpx:hr>110</gpxtpx:hr>
          </gpxtpx:TrackPointExtension>
        </extensions>
      </trkpt>
      <trkpt lat="45.59701" lon="2.99156">
        <ele>892.20001220703</ele>
        <time>2024-05-26T10:55:36.000Z</time>
        <extensions>
          <gpxtpx:TrackPointExtension xmlns:gpxtpx="http://www.garmin.com/xmlschemas/TrackPointExtension/v1">
            <gpxtpx:hr>110</gpxtpx:hr>
          </gpxtpx:TrackPointExtension>
        </extensions>
      </trkpt>
      <trkpt lat="45.59703" lon="2.99147">
        <ele>892.40002441406</ele>
        <time>2024-05-26T10:55:39.000Z</time>
        <extensions>
          <gpxtpx:TrackPointExtension xmlns:gpxtpx="http://www.garmin.com/xmlschemas/TrackPointExtension/v1">
            <gpxtpx:hr>113</gpxtpx:hr>
          </gpxtpx:TrackPointExtension>
        </extensions>
      </trkpt>
      <trkpt lat="45.59705" lon="2.99139">
        <ele>892.79998779297</ele>
        <time>2024-05-26T10:55:42.000Z</time>
        <extensions>
          <gpxtpx:TrackPointExtension xmlns:gpxtpx="http://www.garmin.com/xmlschemas/TrackPointExtension/v1">
            <gpxtpx:hr>109</gpxtpx:hr>
          </gpxtpx:TrackPointExtension>
        </extensions>
      </trkpt>
      <trkpt lat="45.59706" lon="2.9913">
        <ele>893.40002441406</ele>
        <time>2024-05-26T10:55:45.000Z</time>
        <extensions>
          <gpxtpx:TrackPointExtension xmlns:gpxtpx="http://www.garmin.com/xmlschemas/TrackPointExtension/v1">
            <gpxtpx:hr>112</gpxtpx:hr>
          </gpxtpx:TrackPointExtension>
        </extensions>
      </trkpt>
      <trkpt lat="45.59708" lon="2.99115">
        <ele>894</ele>
        <time>2024-05-26T10:55:50.000Z</time>
        <extensions>
          <gpxtpx:TrackPointExtension xmlns:gpxtpx="http://www.garmin.com/xmlschemas/TrackPointExtension/v1">
            <gpxtpx:hr>111</gpxtpx:hr>
          </gpxtpx:TrackPointExtension>
        </extensions>
      </trkpt>
      <trkpt lat="45.59709" lon="2.99108">
        <ele>894.59997558594</ele>
        <time>2024-05-26T10:55:52.000Z</time>
        <extensions>
          <gpxtpx:TrackPointExtension xmlns:gpxtpx="http://www.garmin.com/xmlschemas/TrackPointExtension/v1">
            <gpxtpx:hr>113</gpxtpx:hr>
          </gpxtpx:TrackPointExtension>
        </extensions>
      </trkpt>
      <trkpt lat="45.5971" lon="2.99099">
        <ele>894.79998779297</ele>
        <time>2024-05-26T10:55:55.000Z</time>
        <extensions>
          <gpxtpx:TrackPointExtension xmlns:gpxtpx="http://www.garmin.com/xmlschemas/TrackPointExtension/v1">
            <gpxtpx:hr>117</gpxtpx:hr>
          </gpxtpx:TrackPointExtension>
        </extensions>
      </trkpt>
      <trkpt lat="45.59711" lon="2.99096">
        <ele>895</ele>
        <time>2024-05-26T10:55:56.000Z</time>
        <extensions>
          <gpxtpx:TrackPointExtension xmlns:gpxtpx="http://www.garmin.com/xmlschemas/TrackPointExtension/v1">
            <gpxtpx:hr>114</gpxtpx:hr>
          </gpxtpx:TrackPointExtension>
        </extensions>
      </trkpt>
      <trkpt lat="45.59715" lon="2.99085">
        <ele>895.79998779297</ele>
        <time>2024-05-26T10:56:00.000Z</time>
        <extensions>
          <gpxtpx:TrackPointExtension xmlns:gpxtpx="http://www.garmin.com/xmlschemas/TrackPointExtension/v1">
            <gpxtpx:hr>114</gpxtpx:hr>
          </gpxtpx:TrackPointExtension>
        </extensions>
      </trkpt>
      <trkpt lat="45.59724" lon="2.99064">
        <ele>896.79998779297</ele>
        <time>2024-05-26T10:56:08.000Z</time>
        <extensions>
          <gpxtpx:TrackPointExtension xmlns:gpxtpx="http://www.garmin.com/xmlschemas/TrackPointExtension/v1">
            <gpxtpx:hr>115</gpxtpx:hr>
          </gpxtpx:TrackPointExtension>
        </extensions>
      </trkpt>
      <trkpt lat="45.59728" lon="2.99057">
        <ele>897.40002441406</ele>
        <time>2024-05-26T10:56:11.000Z</time>
        <extensions>
          <gpxtpx:TrackPointExtension xmlns:gpxtpx="http://www.garmin.com/xmlschemas/TrackPointExtension/v1">
            <gpxtpx:hr>115</gpxtpx:hr>
          </gpxtpx:TrackPointExtension>
        </extensions>
      </trkpt>
      <trkpt lat="45.59735" lon="2.99045">
        <ele>898</ele>
        <time>2024-05-26T10:56:16.000Z</time>
        <extensions>
          <gpxtpx:TrackPointExtension xmlns:gpxtpx="http://www.garmin.com/xmlschemas/TrackPointExtension/v1">
            <gpxtpx:hr>116</gpxtpx:hr>
          </gpxtpx:TrackPointExtension>
        </extensions>
      </trkpt>
      <trkpt lat="45.59742" lon="2.99034">
        <ele>898.59997558594</ele>
        <time>2024-05-26T10:56:21.000Z</time>
        <extensions>
          <gpxtpx:TrackPointExtension xmlns:gpxtpx="http://www.garmin.com/xmlschemas/TrackPointExtension/v1">
            <gpxtpx:hr>117</gpxtpx:hr>
          </gpxtpx:TrackPointExtension>
        </extensions>
      </trkpt>
      <trkpt lat="45.59748" lon="2.99027">
        <ele>899.20001220703</ele>
        <time>2024-05-26T10:56:25.000Z</time>
        <extensions>
          <gpxtpx:TrackPointExtension xmlns:gpxtpx="http://www.garmin.com/xmlschemas/TrackPointExtension/v1">
            <gpxtpx:hr>118</gpxtpx:hr>
          </gpxtpx:TrackPointExtension>
        </extensions>
      </trkpt>
      <trkpt lat="45.59755" lon="2.99016">
        <ele>899.79998779297</ele>
        <time>2024-05-26T10:56:30.000Z</time>
        <extensions>
          <gpxtpx:TrackPointExtension xmlns:gpxtpx="http://www.garmin.com/xmlschemas/TrackPointExtension/v1">
            <gpxtpx:hr>116</gpxtpx:hr>
          </gpxtpx:TrackPointExtension>
        </extensions>
      </trkpt>
      <trkpt lat="45.59757" lon="2.99012">
        <ele>900.20001220703</ele>
        <time>2024-05-26T10:56:32.000Z</time>
        <extensions>
          <gpxtpx:TrackPointExtension xmlns:gpxtpx="http://www.garmin.com/xmlschemas/TrackPointExtension/v1">
            <gpxtpx:hr>116</gpxtpx:hr>
          </gpxtpx:TrackPointExtension>
        </extensions>
      </trkpt>
      <trkpt lat="45.59762" lon="2.99004">
        <ele>900.79998779297</ele>
        <time>2024-05-26T10:56:36.000Z</time>
        <extensions>
          <gpxtpx:TrackPointExtension xmlns:gpxtpx="http://www.garmin.com/xmlschemas/TrackPointExtension/v1">
            <gpxtpx:hr>113</gpxtpx:hr>
          </gpxtpx:TrackPointExtension>
        </extensions>
      </trkpt>
      <trkpt lat="45.59791" lon="2.98956">
        <ele>907</ele>
        <time>2024-05-26T11:09:36.000Z</time>
        <extensions>
          <gpxtpx:TrackPointExtension xmlns:gpxtpx="http://www.garmin.com/xmlschemas/TrackPointExtension/v1">
            <gpxtpx:hr>94</gpxtpx:hr>
          </gpxtpx:TrackPointExtension>
        </extensions>
      </trkpt>
      <trkpt lat="45.59798" lon="2.98945">
        <ele>907.79998779297</ele>
        <time>2024-05-26T11:09:41.000Z</time>
        <extensions>
          <gpxtpx:TrackPointExtension xmlns:gpxtpx="http://www.garmin.com/xmlschemas/TrackPointExtension/v1">
            <gpxtpx:hr>95</gpxtpx:hr>
          </gpxtpx:TrackPointExtension>
        </extensions>
      </trkpt>
      <trkpt lat="45.59807" lon="2.98929">
        <ele>908.59997558594</ele>
        <time>2024-05-26T11:09:47.000Z</time>
        <extensions>
          <gpxtpx:TrackPointExtension xmlns:gpxtpx="http://www.garmin.com/xmlschemas/TrackPointExtension/v1">
            <gpxtpx:hr>94</gpxtpx:hr>
          </gpxtpx:TrackPointExtension>
        </extensions>
      </trkpt>
      <trkpt lat="45.59809" lon="2.98927">
        <ele>908.79998779297</ele>
        <time>2024-05-26T11:09:48.000Z</time>
        <extensions>
          <gpxtpx:TrackPointExtension xmlns:gpxtpx="http://www.garmin.com/xmlschemas/TrackPointExtension/v1">
            <gpxtpx:hr>95</gpxtpx:hr>
          </gpxtpx:TrackPointExtension>
        </extensions>
      </trkpt>
      <trkpt lat="45.59818" lon="2.98914">
        <ele>909.79998779297</ele>
        <time>2024-05-26T11:09:53.000Z</time>
        <extensions>
          <gpxtpx:TrackPointExtension xmlns:gpxtpx="http://www.garmin.com/xmlschemas/TrackPointExtension/v1">
            <gpxtpx:hr>93</gpxtpx:hr>
          </gpxtpx:TrackPointExtension>
        </extensions>
      </trkpt>
      <trkpt lat="45.59829" lon="2.98905">
        <ele>910.79998779297</ele>
        <time>2024-05-26T11:09:58.000Z</time>
        <extensions>
          <gpxtpx:TrackPointExtension xmlns:gpxtpx="http://www.garmin.com/xmlschemas/TrackPointExtension/v1">
            <gpxtpx:hr>96</gpxtpx:hr>
          </gpxtpx:TrackPointExtension>
        </extensions>
      </trkpt>
      <trkpt lat="45.59832" lon="2.98904">
        <ele>911</ele>
        <time>2024-05-26T11:09:59.000Z</time>
        <extensions>
          <gpxtpx:TrackPointExtension xmlns:gpxtpx="http://www.garmin.com/xmlschemas/TrackPointExtension/v1">
            <gpxtpx:hr>97</gpxtpx:hr>
          </gpxtpx:TrackPointExtension>
        </extensions>
      </trkpt>
      <trkpt lat="45.5984" lon="2.98897">
        <ele>911.40002441406</ele>
        <time>2024-05-26T11:10:03.000Z</time>
        <extensions>
          <gpxtpx:TrackPointExtension xmlns:gpxtpx="http://www.garmin.com/xmlschemas/TrackPointExtension/v1">
            <gpxtpx:hr>100</gpxtpx:hr>
          </gpxtpx:TrackPointExtension>
        </extensions>
      </trkpt>
      <trkpt lat="45.59846" lon="2.98893">
        <ele>912</ele>
        <time>2024-05-26T11:10:06.000Z</time>
        <extensions>
          <gpxtpx:TrackPointExtension xmlns:gpxtpx="http://www.garmin.com/xmlschemas/TrackPointExtension/v1">
            <gpxtpx:hr>102</gpxtpx:hr>
          </gpxtpx:TrackPointExtension>
        </extensions>
      </trkpt>
      <trkpt lat="45.59848" lon="2.98892">
        <ele>912.20001220703</ele>
        <time>2024-05-26T11:10:07.000Z</time>
        <extensions>
          <gpxtpx:TrackPointExtension xmlns:gpxtpx="http://www.garmin.com/xmlschemas/TrackPointExtension/v1">
            <gpxtpx:hr>102</gpxtpx:hr>
          </gpxtpx:TrackPointExtension>
        </extensions>
      </trkpt>
      <trkpt lat="45.59858" lon="2.98885">
        <ele>913</ele>
        <time>2024-05-26T11:10:12.000Z</time>
        <extensions>
          <gpxtpx:TrackPointExtension xmlns:gpxtpx="http://www.garmin.com/xmlschemas/TrackPointExtension/v1">
            <gpxtpx:hr>103</gpxtpx:hr>
          </gpxtpx:TrackPointExtension>
        </extensions>
      </trkpt>
      <trkpt lat="45.5986" lon="2.98884">
        <ele>913.20001220703</ele>
        <time>2024-05-26T11:10:13.000Z</time>
        <extensions>
          <gpxtpx:TrackPointExtension xmlns:gpxtpx="http://www.garmin.com/xmlschemas/TrackPointExtension/v1">
            <gpxtpx:hr>104</gpxtpx:hr>
          </gpxtpx:TrackPointExtension>
        </extensions>
      </trkpt>
      <trkpt lat="45.59873" lon="2.98877">
        <ele>914.20001220703</ele>
        <time>2024-05-26T11:10:19.000Z</time>
        <extensions>
          <gpxtpx:TrackPointExtension xmlns:gpxtpx="http://www.garmin.com/xmlschemas/TrackPointExtension/v1">
            <gpxtpx:hr>105</gpxtpx:hr>
          </gpxtpx:TrackPointExtension>
        </extensions>
      </trkpt>
      <trkpt lat="45.59878" lon="2.98875">
        <ele>914.79998779297</ele>
        <time>2024-05-26T11:10:21.000Z</time>
        <extensions>
          <gpxtpx:TrackPointExtension xmlns:gpxtpx="http://www.garmin.com/xmlschemas/TrackPointExtension/v1">
            <gpxtpx:hr>106</gpxtpx:hr>
          </gpxtpx:TrackPointExtension>
        </extensions>
      </trkpt>
      <trkpt lat="45.59884" lon="2.98872">
        <ele>915.20001220703</ele>
        <time>2024-05-26T11:10:24.000Z</time>
        <extensions>
          <gpxtpx:TrackPointExtension xmlns:gpxtpx="http://www.garmin.com/xmlschemas/TrackPointExtension/v1">
            <gpxtpx:hr>109</gpxtpx:hr>
          </gpxtpx:TrackPointExtension>
        </extensions>
      </trkpt>
      <trkpt lat="45.59886" lon="2.98871">
        <ele>915.40002441406</ele>
        <time>2024-05-26T11:10:25.000Z</time>
        <extensions>
          <gpxtpx:TrackPointExtension xmlns:gpxtpx="http://www.garmin.com/xmlschemas/TrackPointExtension/v1">
            <gpxtpx:hr>107</gpxtpx:hr>
          </gpxtpx:TrackPointExtension>
        </extensions>
      </trkpt>
      <trkpt lat="45.5989" lon="2.98869">
        <ele>915.79998779297</ele>
        <time>2024-05-26T11:10:27.000Z</time>
        <extensions>
          <gpxtpx:TrackPointExtension xmlns:gpxtpx="http://www.garmin.com/xmlschemas/TrackPointExtension/v1">
            <gpxtpx:hr>107</gpxtpx:hr>
          </gpxtpx:TrackPointExtension>
        </extensions>
      </trkpt>
      <trkpt lat="45.59899" lon="2.98866">
        <ele>916.40002441406</ele>
        <time>2024-05-26T11:10:31.000Z</time>
        <extensions>
          <gpxtpx:TrackPointExtension xmlns:gpxtpx="http://www.garmin.com/xmlschemas/TrackPointExtension/v1">
            <gpxtpx:hr>109</gpxtpx:hr>
          </gpxtpx:TrackPointExtension>
        </extensions>
      </trkpt>
      <trkpt lat="45.59903" lon="2.98863">
        <ele>916.79998779297</ele>
        <time>2024-05-26T11:10:33.000Z</time>
        <extensions>
          <gpxtpx:TrackPointExtension xmlns:gpxtpx="http://www.garmin.com/xmlschemas/TrackPointExtension/v1">
            <gpxtpx:hr>108</gpxtpx:hr>
          </gpxtpx:TrackPointExtension>
        </extensions>
      </trkpt>
      <trkpt lat="45.59913" lon="2.98851">
        <ele>917.59997558594</ele>
        <time>2024-05-26T11:10:39.000Z</time>
        <extensions>
          <gpxtpx:TrackPointExtension xmlns:gpxtpx="http://www.garmin.com/xmlschemas/TrackPointExtension/v1">
            <gpxtpx:hr>109</gpxtpx:hr>
          </gpxtpx:TrackPointExtension>
        </extensions>
      </trkpt>
      <trkpt lat="45.59918" lon="2.98842">
        <ele>918.20001220703</ele>
        <time>2024-05-26T11:10:43.000Z</time>
        <extensions>
          <gpxtpx:TrackPointExtension xmlns:gpxtpx="http://www.garmin.com/xmlschemas/TrackPointExtension/v1">
            <gpxtpx:hr>109</gpxtpx:hr>
          </gpxtpx:TrackPointExtension>
        </extensions>
      </trkpt>
      <trkpt lat="45.59921" lon="2.98837">
        <ele>918.59997558594</ele>
        <time>2024-05-26T11:10:45.000Z</time>
        <extensions>
          <gpxtpx:TrackPointExtension xmlns:gpxtpx="http://www.garmin.com/xmlschemas/TrackPointExtension/v1">
            <gpxtpx:hr>111</gpxtpx:hr>
          </gpxtpx:TrackPointExtension>
        </extensions>
      </trkpt>
      <trkpt lat="45.59927" lon="2.98831">
        <ele>919.20001220703</ele>
        <time>2024-05-26T11:10:48.000Z</time>
        <extensions>
          <gpxtpx:TrackPointExtension xmlns:gpxtpx="http://www.garmin.com/xmlschemas/TrackPointExtension/v1">
            <gpxtpx:hr>114</gpxtpx:hr>
          </gpxtpx:TrackPointExtension>
        </extensions>
      </trkpt>
      <trkpt lat="45.59929" lon="2.98827">
        <ele>919.59997558594</ele>
        <time>2024-05-26T11:10:50.000Z</time>
        <extensions>
          <gpxtpx:TrackPointExtension xmlns:gpxtpx="http://www.garmin.com/xmlschemas/TrackPointExtension/v1">
            <gpxtpx:hr>113</gpxtpx:hr>
          </gpxtpx:TrackPointExtension>
        </extensions>
      </trkpt>
      <trkpt lat="45.59941" lon="2.9881">
        <ele>920.79998779297</ele>
        <time>2024-05-26T11:10:58.000Z</time>
        <extensions>
          <gpxtpx:TrackPointExtension xmlns:gpxtpx="http://www.garmin.com/xmlschemas/TrackPointExtension/v1">
            <gpxtpx:hr>113</gpxtpx:hr>
          </gpxtpx:TrackPointExtension>
        </extensions>
      </trkpt>
      <trkpt lat="45.59945" lon="2.98804">
        <ele>921.20001220703</ele>
        <time>2024-05-26T11:11:01.000Z</time>
        <extensions>
          <gpxtpx:TrackPointExtension xmlns:gpxtpx="http://www.garmin.com/xmlschemas/TrackPointExtension/v1">
            <gpxtpx:hr>110</gpxtpx:hr>
          </gpxtpx:TrackPointExtension>
        </extensions>
      </trkpt>
      <trkpt lat="45.59946" lon="2.98802">
        <ele>921.20001220703</ele>
        <time>2024-05-26T11:11:02.000Z</time>
        <extensions>
          <gpxtpx:TrackPointExtension xmlns:gpxtpx="http://www.garmin.com/xmlschemas/TrackPointExtension/v1">
            <gpxtpx:hr>113</gpxtpx:hr>
          </gpxtpx:TrackPointExtension>
        </extensions>
      </trkpt>
      <trkpt lat="45.59948" lon="2.98798">
        <ele>921.59997558594</ele>
        <time>2024-05-26T11:11:04.000Z</time>
        <extensions>
          <gpxtpx:TrackPointExtension xmlns:gpxtpx="http://www.garmin.com/xmlschemas/TrackPointExtension/v1">
            <gpxtpx:hr>112</gpxtpx:hr>
          </gpxtpx:TrackPointExtension>
        </extensions>
      </trkpt>
      <trkpt lat="45.5995" lon="2.98797">
        <ele>921.79998779297</ele>
        <time>2024-05-26T11:11:05.000Z</time>
        <extensions>
          <gpxtpx:TrackPointExtension xmlns:gpxtpx="http://www.garmin.com/xmlschemas/TrackPointExtension/v1">
            <gpxtpx:hr>112</gpxtpx:hr>
          </gpxtpx:TrackPointExtension>
        </extensions>
      </trkpt>
      <trkpt lat="45.59958" lon="2.98786">
        <ele>922.59997558594</ele>
        <time>2024-05-26T11:11:11.000Z</time>
        <extensions>
          <gpxtpx:TrackPointExtension xmlns:gpxtpx="http://www.garmin.com/xmlschemas/TrackPointExtension/v1">
            <gpxtpx:hr>110</gpxtpx:hr>
          </gpxtpx:TrackPointExtension>
        </extensions>
      </trkpt>
      <trkpt lat="45.59961" lon="2.98782">
        <ele>922.79998779297</ele>
        <time>2024-05-26T11:11:13.000Z</time>
        <extensions>
          <gpxtpx:TrackPointExtension xmlns:gpxtpx="http://www.garmin.com/xmlschemas/TrackPointExtension/v1">
            <gpxtpx:hr>110</gpxtpx:hr>
          </gpxtpx:TrackPointExtension>
        </extensions>
      </trkpt>
      <trkpt lat="45.59972" lon="2.98769">
        <ele>923.79998779297</ele>
        <time>2024-05-26T11:11:19.000Z</time>
        <extensions>
          <gpxtpx:TrackPointExtension xmlns:gpxtpx="http://www.garmin.com/xmlschemas/TrackPointExtension/v1">
            <gpxtpx:hr>111</gpxtpx:hr>
          </gpxtpx:TrackPointExtension>
        </extensions>
      </trkpt>
      <trkpt lat="45.59973" lon="2.98767">
        <ele>924</ele>
        <time>2024-05-26T11:11:20.000Z</time>
        <extensions>
          <gpxtpx:TrackPointExtension xmlns:gpxtpx="http://www.garmin.com/xmlschemas/TrackPointExtension/v1">
            <gpxtpx:hr>111</gpxtpx:hr>
          </gpxtpx:TrackPointExtension>
        </extensions>
      </trkpt>
      <trkpt lat="45.59982" lon="2.98756">
        <ele>924.79998779297</ele>
        <time>2024-05-26T11:11:25.000Z</time>
        <extensions>
          <gpxtpx:TrackPointExtension xmlns:gpxtpx="http://www.garmin.com/xmlschemas/TrackPointExtension/v1">
            <gpxtpx:hr>113</gpxtpx:hr>
          </gpxtpx:TrackPointExtension>
        </extensions>
      </trkpt>
      <trkpt lat="45.59986" lon="2.98749">
        <ele>925</ele>
        <time>2024-05-26T11:11:28.000Z</time>
        <extensions>
          <gpxtpx:TrackPointExtension xmlns:gpxtpx="http://www.garmin.com/xmlschemas/TrackPointExtension/v1">
            <gpxtpx:hr>113</gpxtpx:hr>
          </gpxtpx:TrackPointExtension>
        </extensions>
      </trkpt>
      <trkpt lat="45.59989" lon="2.98745">
        <ele>925.40002441406</ele>
        <time>2024-05-26T11:11:30.000Z</time>
        <extensions>
          <gpxtpx:TrackPointExtension xmlns:gpxtpx="http://www.garmin.com/xmlschemas/TrackPointExtension/v1">
            <gpxtpx:hr>113</gpxtpx:hr>
          </gpxtpx:TrackPointExtension>
        </extensions>
      </trkpt>
      <trkpt lat="45.59993" lon="2.98738">
        <ele>926</ele>
        <time>2024-05-26T11:11:33.000Z</time>
        <extensions>
          <gpxtpx:TrackPointExtension xmlns:gpxtpx="http://www.garmin.com/xmlschemas/TrackPointExtension/v1">
            <gpxtpx:hr>114</gpxtpx:hr>
          </gpxtpx:TrackPointExtension>
        </extensions>
      </trkpt>
      <trkpt lat="45.59996" lon="2.98734">
        <ele>926.40002441406</ele>
        <time>2024-05-26T11:11:35.000Z</time>
        <extensions>
          <gpxtpx:TrackPointExtension xmlns:gpxtpx="http://www.garmin.com/xmlschemas/TrackPointExtension/v1">
            <gpxtpx:hr>114</gpxtpx:hr>
          </gpxtpx:TrackPointExtension>
        </extensions>
      </trkpt>
      <trkpt lat="45.60006" lon="2.98723">
        <ele>927</ele>
        <time>2024-05-26T11:11:41.000Z</time>
        <extensions>
          <gpxtpx:TrackPointExtension xmlns:gpxtpx="http://www.garmin.com/xmlschemas/TrackPointExtension/v1">
            <gpxtpx:hr>116</gpxtpx:hr>
          </gpxtpx:TrackPointExtension>
        </extensions>
      </trkpt>
      <trkpt lat="45.60009" lon="2.98718">
        <ele>927.40002441406</ele>
        <time>2024-05-26T11:11:43.000Z</time>
        <extensions>
          <gpxtpx:TrackPointExtension xmlns:gpxtpx="http://www.garmin.com/xmlschemas/TrackPointExtension/v1">
            <gpxtpx:hr>117</gpxtpx:hr>
          </gpxtpx:TrackPointExtension>
        </extensions>
      </trkpt>
      <trkpt lat="45.60017" lon="2.98706">
        <ele>928.20001220703</ele>
        <time>2024-05-26T11:11:48.000Z</time>
        <extensions>
          <gpxtpx:TrackPointExtension xmlns:gpxtpx="http://www.garmin.com/xmlschemas/TrackPointExtension/v1">
            <gpxtpx:hr>118</gpxtpx:hr>
          </gpxtpx:TrackPointExtension>
        </extensions>
      </trkpt>
      <trkpt lat="45.60021" lon="2.98698">
        <ele>928.79998779297</ele>
        <time>2024-05-26T11:11:51.000Z</time>
        <extensions>
          <gpxtpx:TrackPointExtension xmlns:gpxtpx="http://www.garmin.com/xmlschemas/TrackPointExtension/v1">
            <gpxtpx:hr>119</gpxtpx:hr>
          </gpxtpx:TrackPointExtension>
        </extensions>
      </trkpt>
      <trkpt lat="45.60026" lon="2.98685">
        <ele>929.40002441406</ele>
        <time>2024-05-26T11:11:56.000Z</time>
        <extensions>
          <gpxtpx:TrackPointExtension xmlns:gpxtpx="http://www.garmin.com/xmlschemas/TrackPointExtension/v1">
            <gpxtpx:hr>119</gpxtpx:hr>
          </gpxtpx:TrackPointExtension>
        </extensions>
      </trkpt>
      <trkpt lat="45.60028" lon="2.98679">
        <ele>929.79998779297</ele>
        <time>2024-05-26T11:11:58.000Z</time>
        <extensions>
          <gpxtpx:TrackPointExtension xmlns:gpxtpx="http://www.garmin.com/xmlschemas/TrackPointExtension/v1">
            <gpxtpx:hr>119</gpxtpx:hr>
          </gpxtpx:TrackPointExtension>
        </extensions>
      </trkpt>
      <trkpt lat="45.60034" lon="2.98666">
        <ele>930.40002441406</ele>
        <time>2024-05-26T11:12:03.000Z</time>
        <extensions>
          <gpxtpx:TrackPointExtension xmlns:gpxtpx="http://www.garmin.com/xmlschemas/TrackPointExtension/v1">
            <gpxtpx:hr>120</gpxtpx:hr>
          </gpxtpx:TrackPointExtension>
        </extensions>
      </trkpt>
      <trkpt lat="45.60035" lon="2.98663">
        <ele>930.59997558594</ele>
        <time>2024-05-26T11:12:04.000Z</time>
        <extensions>
          <gpxtpx:TrackPointExtension xmlns:gpxtpx="http://www.garmin.com/xmlschemas/TrackPointExtension/v1">
            <gpxtpx:hr>117</gpxtpx:hr>
          </gpxtpx:TrackPointExtension>
        </extensions>
      </trkpt>
      <trkpt lat="45.6004" lon="2.98648">
        <ele>931.40002441406</ele>
        <time>2024-05-26T11:12:09.000Z</time>
        <extensions>
          <gpxtpx:TrackPointExtension xmlns:gpxtpx="http://www.garmin.com/xmlschemas/TrackPointExtension/v1">
            <gpxtpx:hr>116</gpxtpx:hr>
          </gpxtpx:TrackPointExtension>
        </extensions>
      </trkpt>
      <trkpt lat="45.60041" lon="2.98646">
        <ele>931.40002441406</ele>
        <time>2024-05-26T11:12:10.000Z</time>
        <extensions>
          <gpxtpx:TrackPointExtension xmlns:gpxtpx="http://www.garmin.com/xmlschemas/TrackPointExtension/v1">
            <gpxtpx:hr>116</gpxtpx:hr>
          </gpxtpx:TrackPointExtension>
        </extensions>
      </trkpt>
      <trkpt lat="45.60045" lon="2.98631">
        <ele>932.59997558594</ele>
        <time>2024-05-26T11:12:15.000Z</time>
        <extensions>
          <gpxtpx:TrackPointExtension xmlns:gpxtpx="http://www.garmin.com/xmlschemas/TrackPointExtension/v1">
            <gpxtpx:hr>114</gpxtpx:hr>
          </gpxtpx:TrackPointExtension>
        </extensions>
      </trkpt>
      <trkpt lat="45.60049" lon="2.98616">
        <ele>933.20001220703</ele>
        <time>2024-05-26T11:12:20.000Z</time>
        <extensions>
          <gpxtpx:TrackPointExtension xmlns:gpxtpx="http://www.garmin.com/xmlschemas/TrackPointExtension/v1">
            <gpxtpx:hr>111</gpxtpx:hr>
          </gpxtpx:TrackPointExtension>
        </extensions>
      </trkpt>
      <trkpt lat="45.6005" lon="2.9861">
        <ele>933.59997558594</ele>
        <time>2024-05-26T11:12:22.000Z</time>
        <extensions>
          <gpxtpx:TrackPointExtension xmlns:gpxtpx="http://www.garmin.com/xmlschemas/TrackPointExtension/v1">
            <gpxtpx:hr>112</gpxtpx:hr>
          </gpxtpx:TrackPointExtension>
        </extensions>
      </trkpt>
      <trkpt lat="45.60056" lon="2.9859">
        <ele>934.59997558594</ele>
        <time>2024-05-26T11:12:28.000Z</time>
        <extensions>
          <gpxtpx:TrackPointExtension xmlns:gpxtpx="http://www.garmin.com/xmlschemas/TrackPointExtension/v1">
            <gpxtpx:hr>113</gpxtpx:hr>
          </gpxtpx:TrackPointExtension>
        </extensions>
      </trkpt>
      <trkpt lat="45.60056" lon="2.98588">
        <ele>934.79998779297</ele>
        <time>2024-05-26T11:12:29.000Z</time>
        <extensions>
          <gpxtpx:TrackPointExtension xmlns:gpxtpx="http://www.garmin.com/xmlschemas/TrackPointExtension/v1">
            <gpxtpx:hr>112</gpxtpx:hr>
          </gpxtpx:TrackPointExtension>
        </extensions>
      </trkpt>
      <trkpt lat="45.60062" lon="2.98569">
        <ele>935.79998779297</ele>
        <time>2024-05-26T11:12:35.000Z</time>
        <extensions>
          <gpxtpx:TrackPointExtension xmlns:gpxtpx="http://www.garmin.com/xmlschemas/TrackPointExtension/v1">
            <gpxtpx:hr>114</gpxtpx:hr>
          </gpxtpx:TrackPointExtension>
        </extensions>
      </trkpt>
      <trkpt lat="45.60068" lon="2.98551">
        <ele>936.79998779297</ele>
        <time>2024-05-26T11:12:41.000Z</time>
        <extensions>
          <gpxtpx:TrackPointExtension xmlns:gpxtpx="http://www.garmin.com/xmlschemas/TrackPointExtension/v1">
            <gpxtpx:hr>114</gpxtpx:hr>
          </gpxtpx:TrackPointExtension>
        </extensions>
      </trkpt>
      <trkpt lat="45.6007" lon="2.98548">
        <ele>937</ele>
        <time>2024-05-26T11:12:42.000Z</time>
        <extensions>
          <gpxtpx:TrackPointExtension xmlns:gpxtpx="http://www.garmin.com/xmlschemas/TrackPointExtension/v1">
            <gpxtpx:hr>114</gpxtpx:hr>
          </gpxtpx:TrackPointExtension>
        </extensions>
      </trkpt>
      <trkpt lat="45.60071" lon="2.98546">
        <ele>937.20001220703</ele>
        <time>2024-05-26T11:12:43.000Z</time>
        <extensions>
          <gpxtpx:TrackPointExtension xmlns:gpxtpx="http://www.garmin.com/xmlschemas/TrackPointExtension/v1">
            <gpxtpx:hr>111</gpxtpx:hr>
          </gpxtpx:TrackPointExtension>
        </extensions>
      </trkpt>
      <trkpt lat="45.60079" lon="2.98535">
        <ele>938.20001220703</ele>
        <time>2024-05-26T11:12:48.000Z</time>
        <extensions>
          <gpxtpx:TrackPointExtension xmlns:gpxtpx="http://www.garmin.com/xmlschemas/TrackPointExtension/v1">
            <gpxtpx:hr>113</gpxtpx:hr>
          </gpxtpx:TrackPointExtension>
        </extensions>
      </trkpt>
      <trkpt lat="45.60091" lon="2.98528">
        <ele>939.40002441406</ele>
        <time>2024-05-26T11:12:54.000Z</time>
        <extensions>
          <gpxtpx:TrackPointExtension xmlns:gpxtpx="http://www.garmin.com/xmlschemas/TrackPointExtension/v1">
            <gpxtpx:hr>113</gpxtpx:hr>
          </gpxtpx:TrackPointExtension>
        </extensions>
      </trkpt>
      <trkpt lat="45.60093" lon="2.98527">
        <ele>939.59997558594</ele>
        <time>2024-05-26T11:12:55.000Z</time>
        <extensions>
          <gpxtpx:TrackPointExtension xmlns:gpxtpx="http://www.garmin.com/xmlschemas/TrackPointExtension/v1">
            <gpxtpx:hr>113</gpxtpx:hr>
          </gpxtpx:TrackPointExtension>
        </extensions>
      </trkpt>
      <trkpt lat="45.60101" lon="2.98526">
        <ele>940.40002441406</ele>
        <time>2024-05-26T11:12:59.000Z</time>
        <extensions>
          <gpxtpx:TrackPointExtension xmlns:gpxtpx="http://www.garmin.com/xmlschemas/TrackPointExtension/v1">
            <gpxtpx:hr>114</gpxtpx:hr>
          </gpxtpx:TrackPointExtension>
        </extensions>
      </trkpt>
      <trkpt lat="45.60103" lon="2.98526">
        <ele>940.40002441406</ele>
        <time>2024-05-26T11:13:01.000Z</time>
        <extensions>
          <gpxtpx:TrackPointExtension xmlns:gpxtpx="http://www.garmin.com/xmlschemas/TrackPointExtension/v1">
            <gpxtpx:hr>113</gpxtpx:hr>
          </gpxtpx:TrackPointExtension>
        </extensions>
      </trkpt>
      <trkpt lat="45.60104" lon="2.98526">
        <ele>940.40002441406</ele>
        <time>2024-05-26T11:13:06.000Z</time>
        <extensions>
          <gpxtpx:TrackPointExtension xmlns:gpxtpx="http://www.garmin.com/xmlschemas/TrackPointExtension/v1">
            <gpxtpx:hr>111</gpxtpx:hr>
          </gpxtpx:TrackPointExtension>
        </extensions>
      </trkpt>
      <trkpt lat="45.60104" lon="2.98526">
        <ele>940.40002441406</ele>
        <time>2024-05-26T11:13:08.000Z</time>
        <extensions>
          <gpxtpx:TrackPointExtension xmlns:gpxtpx="http://www.garmin.com/xmlschemas/TrackPointExtension/v1">
            <gpxtpx:hr>108</gpxtpx:hr>
          </gpxtpx:TrackPointExtension>
        </extensions>
      </trkpt>
      <trkpt lat="45.6011" lon="2.98528">
        <ele>940.20001220703</ele>
        <time>2024-05-26T11:13:12.000Z</time>
        <extensions>
          <gpxtpx:TrackPointExtension xmlns:gpxtpx="http://www.garmin.com/xmlschemas/TrackPointExtension/v1">
            <gpxtpx:hr>109</gpxtpx:hr>
          </gpxtpx:TrackPointExtension>
        </extensions>
      </trkpt>
      <trkpt lat="45.60124" lon="2.98534">
        <ele>939.40002441406</ele>
        <time>2024-05-26T11:13:16.000Z</time>
        <extensions>
          <gpxtpx:TrackPointExtension xmlns:gpxtpx="http://www.garmin.com/xmlschemas/TrackPointExtension/v1">
            <gpxtpx:hr>108</gpxtpx:hr>
          </gpxtpx:TrackPointExtension>
        </extensions>
      </trkpt>
      <trkpt lat="45.60129" lon="2.98538">
        <ele>939.20001220703</ele>
        <time>2024-05-26T11:13:17.000Z</time>
        <extensions>
          <gpxtpx:TrackPointExtension xmlns:gpxtpx="http://www.garmin.com/xmlschemas/TrackPointExtension/v1">
            <gpxtpx:hr>108</gpxtpx:hr>
          </gpxtpx:TrackPointExtension>
        </extensions>
      </trkpt>
      <trkpt lat="45.60134" lon="2.98545">
        <ele>939</ele>
        <time>2024-05-26T11:13:18.000Z</time>
        <extensions>
          <gpxtpx:TrackPointExtension xmlns:gpxtpx="http://www.garmin.com/xmlschemas/TrackPointExtension/v1">
            <gpxtpx:hr>107</gpxtpx:hr>
          </gpxtpx:TrackPointExtension>
        </extensions>
      </trkpt>
      <trkpt lat="45.60137" lon="2.98553">
        <ele>938</ele>
        <time>2024-05-26T11:13:19.000Z</time>
        <extensions>
          <gpxtpx:TrackPointExtension xmlns:gpxtpx="http://www.garmin.com/xmlschemas/TrackPointExtension/v1">
            <gpxtpx:hr>107</gpxtpx:hr>
          </gpxtpx:TrackPointExtension>
        </extensions>
      </trkpt>
      <trkpt lat="45.60143" lon="2.98572">
        <ele>937</ele>
        <time>2024-05-26T11:13:21.000Z</time>
        <extensions>
          <gpxtpx:TrackPointExtension xmlns:gpxtpx="http://www.garmin.com/xmlschemas/TrackPointExtension/v1">
            <gpxtpx:hr>106</gpxtpx:hr>
          </gpxtpx:TrackPointExtension>
        </extensions>
      </trkpt>
      <trkpt lat="45.60146" lon="2.98583">
        <ele>936.59997558594</ele>
        <time>2024-05-26T11:13:22.000Z</time>
        <extensions>
          <gpxtpx:TrackPointExtension xmlns:gpxtpx="http://www.garmin.com/xmlschemas/TrackPointExtension/v1">
            <gpxtpx:hr>105</gpxtpx:hr>
          </gpxtpx:TrackPointExtension>
        </extensions>
      </trkpt>
      <trkpt lat="45.6015" lon="2.98608">
        <ele>935.79998779297</ele>
        <time>2024-05-26T11:13:24.000Z</time>
        <extensions>
          <gpxtpx:TrackPointExtension xmlns:gpxtpx="http://www.garmin.com/xmlschemas/TrackPointExtension/v1">
            <gpxtpx:hr>105</gpxtpx:hr>
          </gpxtpx:TrackPointExtension>
        </extensions>
      </trkpt>
      <trkpt lat="45.60153" lon="2.98635">
        <ele>934.59997558594</ele>
        <time>2024-05-26T11:13:26.000Z</time>
        <extensions>
          <gpxtpx:TrackPointExtension xmlns:gpxtpx="http://www.garmin.com/xmlschemas/TrackPointExtension/v1">
            <gpxtpx:hr>104</gpxtpx:hr>
          </gpxtpx:TrackPointExtension>
        </extensions>
      </trkpt>
      <trkpt lat="45.60155" lon="2.98652">
        <ele>934</ele>
        <time>2024-05-26T11:13:27.000Z</time>
        <extensions>
          <gpxtpx:TrackPointExtension xmlns:gpxtpx="http://www.garmin.com/xmlschemas/TrackPointExtension/v1">
            <gpxtpx:hr>104</gpxtpx:hr>
          </gpxtpx:TrackPointExtension>
        </extensions>
      </trkpt>
      <trkpt lat="45.60157" lon="2.98663">
        <ele>931.40002441406</ele>
        <time>2024-05-26T11:13:28.000Z</time>
        <extensions>
          <gpxtpx:TrackPointExtension xmlns:gpxtpx="http://www.garmin.com/xmlschemas/TrackPointExtension/v1">
            <gpxtpx:hr>104</gpxtpx:hr>
          </gpxtpx:TrackPointExtension>
        </extensions>
      </trkpt>
      <trkpt lat="45.60166" lon="2.98706">
        <ele>930.20001220703</ele>
        <time>2024-05-26T11:13:31.000Z</time>
        <extensions>
          <gpxtpx:TrackPointExtension xmlns:gpxtpx="http://www.garmin.com/xmlschemas/TrackPointExtension/v1">
            <gpxtpx:hr>104</gpxtpx:hr>
          </gpxtpx:TrackPointExtension>
        </extensions>
      </trkpt>
      <trkpt lat="45.60178" lon="2.98752">
        <ele>928.59997558594</ele>
        <time>2024-05-26T11:13:34.000Z</time>
        <extensions>
          <gpxtpx:TrackPointExtension xmlns:gpxtpx="http://www.garmin.com/xmlschemas/TrackPointExtension/v1">
            <gpxtpx:hr>104</gpxtpx:hr>
          </gpxtpx:TrackPointExtension>
        </extensions>
      </trkpt>
      <trkpt lat="45.60183" lon="2.98767">
        <ele>927.59997558594</ele>
        <time>2024-05-26T11:13:35.000Z</time>
        <extensions>
          <gpxtpx:TrackPointExtension xmlns:gpxtpx="http://www.garmin.com/xmlschemas/TrackPointExtension/v1">
            <gpxtpx:hr>104</gpxtpx:hr>
          </gpxtpx:TrackPointExtension>
        </extensions>
      </trkpt>
      <trkpt lat="45.60185" lon="2.98782">
        <ele>927.20001220703</ele>
        <time>2024-05-26T11:13:36.000Z</time>
        <extensions>
          <gpxtpx:TrackPointExtension xmlns:gpxtpx="http://www.garmin.com/xmlschemas/TrackPointExtension/v1">
            <gpxtpx:hr>104</gpxtpx:hr>
          </gpxtpx:TrackPointExtension>
        </extensions>
      </trkpt>
      <trkpt lat="45.60186" lon="2.98796">
        <ele>926</ele>
        <time>2024-05-26T11:13:37.000Z</time>
        <extensions>
          <gpxtpx:TrackPointExtension xmlns:gpxtpx="http://www.garmin.com/xmlschemas/TrackPointExtension/v1">
            <gpxtpx:hr>104</gpxtpx:hr>
          </gpxtpx:TrackPointExtension>
        </extensions>
      </trkpt>
      <trkpt lat="45.60182" lon="2.98824">
        <ele>925.20001220703</ele>
        <time>2024-05-26T11:13:39.000Z</time>
        <extensions>
          <gpxtpx:TrackPointExtension xmlns:gpxtpx="http://www.garmin.com/xmlschemas/TrackPointExtension/v1">
            <gpxtpx:hr>104</gpxtpx:hr>
          </gpxtpx:TrackPointExtension>
        </extensions>
      </trkpt>
      <trkpt lat="45.60178" lon="2.98839">
        <ele>924</ele>
        <time>2024-05-26T11:13:40.000Z</time>
        <extensions>
          <gpxtpx:TrackPointExtension xmlns:gpxtpx="http://www.garmin.com/xmlschemas/TrackPointExtension/v1">
            <gpxtpx:hr>104</gpxtpx:hr>
          </gpxtpx:TrackPointExtension>
        </extensions>
      </trkpt>
      <trkpt lat="45.60173" lon="2.98868">
        <ele>922.20001220703</ele>
        <time>2024-05-26T11:13:42.000Z</time>
        <extensions>
          <gpxtpx:TrackPointExtension xmlns:gpxtpx="http://www.garmin.com/xmlschemas/TrackPointExtension/v1">
            <gpxtpx:hr>105</gpxtpx:hr>
          </gpxtpx:TrackPointExtension>
        </extensions>
      </trkpt>
      <trkpt lat="45.60166" lon="2.98896">
        <ele>921.40002441406</ele>
        <time>2024-05-26T11:13:44.000Z</time>
        <extensions>
          <gpxtpx:TrackPointExtension xmlns:gpxtpx="http://www.garmin.com/xmlschemas/TrackPointExtension/v1">
            <gpxtpx:hr>105</gpxtpx:hr>
          </gpxtpx:TrackPointExtension>
        </extensions>
      </trkpt>
      <trkpt lat="45.60157" lon="2.98924">
        <ele>920.59997558594</ele>
        <time>2024-05-26T11:13:46.000Z</time>
        <extensions>
          <gpxtpx:TrackPointExtension xmlns:gpxtpx="http://www.garmin.com/xmlschemas/TrackPointExtension/v1">
            <gpxtpx:hr>104</gpxtpx:hr>
          </gpxtpx:TrackPointExtension>
        </extensions>
      </trkpt>
      <trkpt lat="45.60146" lon="2.98967">
        <ele>919.40002441406</ele>
        <time>2024-05-26T11:13:49.000Z</time>
        <extensions>
          <gpxtpx:TrackPointExtension xmlns:gpxtpx="http://www.garmin.com/xmlschemas/TrackPointExtension/v1">
            <gpxtpx:hr>106</gpxtpx:hr>
          </gpxtpx:TrackPointExtension>
        </extensions>
      </trkpt>
      <trkpt lat="45.60144" lon="2.98982">
        <ele>918.40002441406</ele>
        <time>2024-05-26T11:13:50.000Z</time>
        <extensions>
          <gpxtpx:TrackPointExtension xmlns:gpxtpx="http://www.garmin.com/xmlschemas/TrackPointExtension/v1">
            <gpxtpx:hr>107</gpxtpx:hr>
          </gpxtpx:TrackPointExtension>
        </extensions>
      </trkpt>
      <trkpt lat="45.60147" lon="2.99019">
        <ele>916.79998779297</ele>
        <time>2024-05-26T11:13:53.000Z</time>
        <extensions>
          <gpxtpx:TrackPointExtension xmlns:gpxtpx="http://www.garmin.com/xmlschemas/TrackPointExtension/v1">
            <gpxtpx:hr>107</gpxtpx:hr>
          </gpxtpx:TrackPointExtension>
        </extensions>
      </trkpt>
      <trkpt lat="45.60151" lon="2.99028">
        <ele>916.20001220703</ele>
        <time>2024-05-26T11:13:54.000Z</time>
        <extensions>
          <gpxtpx:TrackPointExtension xmlns:gpxtpx="http://www.garmin.com/xmlschemas/TrackPointExtension/v1">
            <gpxtpx:hr>106</gpxtpx:hr>
          </gpxtpx:TrackPointExtension>
        </extensions>
      </trkpt>
      <trkpt lat="45.60156" lon="2.99031">
        <ele>915.79998779297</ele>
        <time>2024-05-26T11:13:55.000Z</time>
        <extensions>
          <gpxtpx:TrackPointExtension xmlns:gpxtpx="http://www.garmin.com/xmlschemas/TrackPointExtension/v1">
            <gpxtpx:hr>106</gpxtpx:hr>
          </gpxtpx:TrackPointExtension>
        </extensions>
      </trkpt>
      <trkpt lat="45.60164" lon="2.99032">
        <ele>915.20001220703</ele>
        <time>2024-05-26T11:13:56.000Z</time>
        <extensions>
          <gpxtpx:TrackPointExtension xmlns:gpxtpx="http://www.garmin.com/xmlschemas/TrackPointExtension/v1">
            <gpxtpx:hr>106</gpxtpx:hr>
          </gpxtpx:TrackPointExtension>
        </extensions>
      </trkpt>
      <trkpt lat="45.6017" lon="2.99028">
        <ele>914</ele>
        <time>2024-05-26T11:13:57.000Z</time>
        <extensions>
          <gpxtpx:TrackPointExtension xmlns:gpxtpx="http://www.garmin.com/xmlschemas/TrackPointExtension/v1">
            <gpxtpx:hr>106</gpxtpx:hr>
          </gpxtpx:TrackPointExtension>
        </extensions>
      </trkpt>
      <trkpt lat="45.60175" lon="2.99019">
        <ele>913.59997558594</ele>
        <time>2024-05-26T11:13:58.000Z</time>
        <extensions>
          <gpxtpx:TrackPointExtension xmlns:gpxtpx="http://www.garmin.com/xmlschemas/TrackPointExtension/v1">
            <gpxtpx:hr>105</gpxtpx:hr>
          </gpxtpx:TrackPointExtension>
        </extensions>
      </trkpt>
      <trkpt lat="45.60179" lon="2.99006">
        <ele>913</ele>
        <time>2024-05-26T11:13:59.000Z</time>
        <extensions>
          <gpxtpx:TrackPointExtension xmlns:gpxtpx="http://www.garmin.com/xmlschemas/TrackPointExtension/v1">
            <gpxtpx:hr>105</gpxtpx:hr>
          </gpxtpx:TrackPointExtension>
        </extensions>
      </trkpt>
      <trkpt lat="45.60183" lon="2.98977">
        <ele>911.79998779297</ele>
        <time>2024-05-26T11:14:01.000Z</time>
        <extensions>
          <gpxtpx:TrackPointExtension xmlns:gpxtpx="http://www.garmin.com/xmlschemas/TrackPointExtension/v1">
            <gpxtpx:hr>102</gpxtpx:hr>
          </gpxtpx:TrackPointExtension>
        </extensions>
      </trkpt>
      <trkpt lat="45.60186" lon="2.98947">
        <ele>910.79998779297</ele>
        <time>2024-05-26T11:14:03.000Z</time>
        <extensions>
          <gpxtpx:TrackPointExtension xmlns:gpxtpx="http://www.garmin.com/xmlschemas/TrackPointExtension/v1">
            <gpxtpx:hr>101</gpxtpx:hr>
          </gpxtpx:TrackPointExtension>
        </extensions>
      </trkpt>
      <trkpt lat="45.60189" lon="2.98931">
        <ele>910</ele>
        <time>2024-05-26T11:14:04.000Z</time>
        <extensions>
          <gpxtpx:TrackPointExtension xmlns:gpxtpx="http://www.garmin.com/xmlschemas/TrackPointExtension/v1">
            <gpxtpx:hr>101</gpxtpx:hr>
          </gpxtpx:TrackPointExtension>
        </extensions>
      </trkpt>
      <trkpt lat="45.60193" lon="2.98917">
        <ele>908.59997558594</ele>
        <time>2024-05-26T11:14:05.000Z</time>
        <extensions>
          <gpxtpx:TrackPointExtension xmlns:gpxtpx="http://www.garmin.com/xmlschemas/TrackPointExtension/v1">
            <gpxtpx:hr>101</gpxtpx:hr>
          </gpxtpx:TrackPointExtension>
        </extensions>
      </trkpt>
      <trkpt lat="45.60201" lon="2.9889">
        <ele>907.20001220703</ele>
        <time>2024-05-26T11:14:07.000Z</time>
        <extensions>
          <gpxtpx:TrackPointExtension xmlns:gpxtpx="http://www.garmin.com/xmlschemas/TrackPointExtension/v1">
            <gpxtpx:hr>101</gpxtpx:hr>
          </gpxtpx:TrackPointExtension>
        </extensions>
      </trkpt>
      <trkpt lat="45.60212" lon="2.98861">
        <ele>906.20001220703</ele>
        <time>2024-05-26T11:14:09.000Z</time>
        <extensions>
          <gpxtpx:TrackPointExtension xmlns:gpxtpx="http://www.garmin.com/xmlschemas/TrackPointExtension/v1">
            <gpxtpx:hr>102</gpxtpx:hr>
          </gpxtpx:TrackPointExtension>
        </extensions>
      </trkpt>
      <trkpt lat="45.60217" lon="2.98848">
        <ele>905.79998779297</ele>
        <time>2024-05-26T11:14:10.000Z</time>
        <extensions>
          <gpxtpx:TrackPointExtension xmlns:gpxtpx="http://www.garmin.com/xmlschemas/TrackPointExtension/v1">
            <gpxtpx:hr>102</gpxtpx:hr>
          </gpxtpx:TrackPointExtension>
        </extensions>
      </trkpt>
      <trkpt lat="45.60228" lon="2.98821">
        <ele>904.40002441406</ele>
        <time>2024-05-26T11:14:12.000Z</time>
        <extensions>
          <gpxtpx:TrackPointExtension xmlns:gpxtpx="http://www.garmin.com/xmlschemas/TrackPointExtension/v1">
            <gpxtpx:hr>102</gpxtpx:hr>
          </gpxtpx:TrackPointExtension>
        </extensions>
      </trkpt>
      <trkpt lat="45.60236" lon="2.98805">
        <ele>903</ele>
        <time>2024-05-26T11:14:13.000Z</time>
        <extensions>
          <gpxtpx:TrackPointExtension xmlns:gpxtpx="http://www.garmin.com/xmlschemas/TrackPointExtension/v1">
            <gpxtpx:hr>103</gpxtpx:hr>
          </gpxtpx:TrackPointExtension>
        </extensions>
      </trkpt>
      <trkpt lat="45.60243" lon="2.98792">
        <ele>902.59997558594</ele>
        <time>2024-05-26T11:14:14.000Z</time>
        <extensions>
          <gpxtpx:TrackPointExtension xmlns:gpxtpx="http://www.garmin.com/xmlschemas/TrackPointExtension/v1">
            <gpxtpx:hr>104</gpxtpx:hr>
          </gpxtpx:TrackPointExtension>
        </extensions>
      </trkpt>
      <trkpt lat="45.6025" lon="2.9878">
        <ele>901.20001220703</ele>
        <time>2024-05-26T11:14:15.000Z</time>
        <extensions>
          <gpxtpx:TrackPointExtension xmlns:gpxtpx="http://www.garmin.com/xmlschemas/TrackPointExtension/v1">
            <gpxtpx:hr>104</gpxtpx:hr>
          </gpxtpx:TrackPointExtension>
        </extensions>
      </trkpt>
      <trkpt lat="45.60261" lon="2.98754">
        <ele>900</ele>
        <time>2024-05-26T11:14:17.000Z</time>
        <extensions>
          <gpxtpx:TrackPointExtension xmlns:gpxtpx="http://www.garmin.com/xmlschemas/TrackPointExtension/v1">
            <gpxtpx:hr>105</gpxtpx:hr>
          </gpxtpx:TrackPointExtension>
        </extensions>
      </trkpt>
      <trkpt lat="45.6027" lon="2.98729">
        <ele>898.20001220703</ele>
        <time>2024-05-26T11:14:19.000Z</time>
        <extensions>
          <gpxtpx:TrackPointExtension xmlns:gpxtpx="http://www.garmin.com/xmlschemas/TrackPointExtension/v1">
            <gpxtpx:hr>104</gpxtpx:hr>
          </gpxtpx:TrackPointExtension>
        </extensions>
      </trkpt>
      <trkpt lat="45.60279" lon="2.98696">
        <ele>896.59997558594</ele>
        <time>2024-05-26T11:14:21.000Z</time>
        <extensions>
          <gpxtpx:TrackPointExtension xmlns:gpxtpx="http://www.garmin.com/xmlschemas/TrackPointExtension/v1">
            <gpxtpx:hr>104</gpxtpx:hr>
          </gpxtpx:TrackPointExtension>
        </extensions>
      </trkpt>
      <trkpt lat="45.60292" lon="2.98651">
        <ele>895.20001220703</ele>
        <time>2024-05-26T11:14:24.000Z</time>
        <extensions>
          <gpxtpx:TrackPointExtension xmlns:gpxtpx="http://www.garmin.com/xmlschemas/TrackPointExtension/v1">
            <gpxtpx:hr>103</gpxtpx:hr>
          </gpxtpx:TrackPointExtension>
        </extensions>
      </trkpt>
      <trkpt lat="45.60299" lon="2.98621">
        <ele>894</ele>
        <time>2024-05-26T11:14:26.000Z</time>
        <extensions>
          <gpxtpx:TrackPointExtension xmlns:gpxtpx="http://www.garmin.com/xmlschemas/TrackPointExtension/v1">
            <gpxtpx:hr>102</gpxtpx:hr>
          </gpxtpx:TrackPointExtension>
        </extensions>
      </trkpt>
      <trkpt lat="45.60302" lon="2.98606">
        <ele>893</ele>
        <time>2024-05-26T11:14:27.000Z</time>
        <extensions>
          <gpxtpx:TrackPointExtension xmlns:gpxtpx="http://www.garmin.com/xmlschemas/TrackPointExtension/v1">
            <gpxtpx:hr>102</gpxtpx:hr>
          </gpxtpx:TrackPointExtension>
        </extensions>
      </trkpt>
      <trkpt lat="45.60308" lon="2.98577">
        <ele>891.79998779297</ele>
        <time>2024-05-26T11:14:29.000Z</time>
        <extensions>
          <gpxtpx:TrackPointExtension xmlns:gpxtpx="http://www.garmin.com/xmlschemas/TrackPointExtension/v1">
            <gpxtpx:hr>102</gpxtpx:hr>
          </gpxtpx:TrackPointExtension>
        </extensions>
      </trkpt>
      <trkpt lat="45.60314" lon="2.98548">
        <ele>890.59997558594</ele>
        <time>2024-05-26T11:14:31.000Z</time>
        <extensions>
          <gpxtpx:TrackPointExtension xmlns:gpxtpx="http://www.garmin.com/xmlschemas/TrackPointExtension/v1">
            <gpxtpx:hr>101</gpxtpx:hr>
          </gpxtpx:TrackPointExtension>
        </extensions>
      </trkpt>
      <trkpt lat="45.60319" lon="2.98522">
        <ele>889.59997558594</ele>
        <time>2024-05-26T11:14:33.000Z</time>
        <extensions>
          <gpxtpx:TrackPointExtension xmlns:gpxtpx="http://www.garmin.com/xmlschemas/TrackPointExtension/v1">
            <gpxtpx:hr>101</gpxtpx:hr>
          </gpxtpx:TrackPointExtension>
        </extensions>
      </trkpt>
      <trkpt lat="45.60325" lon="2.98492">
        <ele>888.20001220703</ele>
        <time>2024-05-26T11:14:35.000Z</time>
        <extensions>
          <gpxtpx:TrackPointExtension xmlns:gpxtpx="http://www.garmin.com/xmlschemas/TrackPointExtension/v1">
            <gpxtpx:hr>100</gpxtpx:hr>
          </gpxtpx:TrackPointExtension>
        </extensions>
      </trkpt>
      <trkpt lat="45.60328" lon="2.98478">
        <ele>887.59997558594</ele>
        <time>2024-05-26T11:14:36.000Z</time>
        <extensions>
          <gpxtpx:TrackPointExtension xmlns:gpxtpx="http://www.garmin.com/xmlschemas/TrackPointExtension/v1">
            <gpxtpx:hr>100</gpxtpx:hr>
          </gpxtpx:TrackPointExtension>
        </extensions>
      </trkpt>
      <trkpt lat="45.60332" lon="2.98464">
        <ele>887</ele>
        <time>2024-05-26T11:14:37.000Z</time>
        <extensions>
          <gpxtpx:TrackPointExtension xmlns:gpxtpx="http://www.garmin.com/xmlschemas/TrackPointExtension/v1">
            <gpxtpx:hr>100</gpxtpx:hr>
          </gpxtpx:TrackPointExtension>
        </extensions>
      </trkpt>
      <trkpt lat="45.60335" lon="2.98451">
        <ele>886.20001220703</ele>
        <time>2024-05-26T11:14:38.000Z</time>
        <extensions>
          <gpxtpx:TrackPointExtension xmlns:gpxtpx="http://www.garmin.com/xmlschemas/TrackPointExtension/v1">
            <gpxtpx:hr>100</gpxtpx:hr>
          </gpxtpx:TrackPointExtension>
        </extensions>
      </trkpt>
      <trkpt lat="45.6034" lon="2.98439">
        <ele>885.20001220703</ele>
        <time>2024-05-26T11:14:39.000Z</time>
        <extensions>
          <gpxtpx:TrackPointExtension xmlns:gpxtpx="http://www.garmin.com/xmlschemas/TrackPointExtension/v1">
            <gpxtpx:hr>99</gpxtpx:hr>
          </gpxtpx:TrackPointExtension>
        </extensions>
      </trkpt>
      <trkpt lat="45.60345" lon="2.9843">
        <ele>884.59997558594</ele>
        <time>2024-05-26T11:14:40.000Z</time>
        <extensions>
          <gpxtpx:TrackPointExtension xmlns:gpxtpx="http://www.garmin.com/xmlschemas/TrackPointExtension/v1">
            <gpxtpx:hr>99</gpxtpx:hr>
          </gpxtpx:TrackPointExtension>
        </extensions>
      </trkpt>
      <trkpt lat="45.60351" lon="2.98419">
        <ele>883.40002441406</ele>
        <time>2024-05-26T11:14:41.000Z</time>
        <extensions>
          <gpxtpx:TrackPointExtension xmlns:gpxtpx="http://www.garmin.com/xmlschemas/TrackPointExtension/v1">
            <gpxtpx:hr>99</gpxtpx:hr>
          </gpxtpx:TrackPointExtension>
        </extensions>
      </trkpt>
      <trkpt lat="45.6036" lon="2.98407">
        <ele>882.20001220703</ele>
        <time>2024-05-26T11:14:42.000Z</time>
        <extensions>
          <gpxtpx:TrackPointExtension xmlns:gpxtpx="http://www.garmin.com/xmlschemas/TrackPointExtension/v1">
            <gpxtpx:hr>99</gpxtpx:hr>
          </gpxtpx:TrackPointExtension>
        </extensions>
      </trkpt>
      <trkpt lat="45.60368" lon="2.98399">
        <ele>882</ele>
        <time>2024-05-26T11:14:43.000Z</time>
        <extensions>
          <gpxtpx:TrackPointExtension xmlns:gpxtpx="http://www.garmin.com/xmlschemas/TrackPointExtension/v1">
            <gpxtpx:hr>99</gpxtpx:hr>
          </gpxtpx:TrackPointExtension>
        </extensions>
      </trkpt>
      <trkpt lat="45.60384" lon="2.98383">
        <ele>880.59997558594</ele>
        <time>2024-05-26T11:14:45.000Z</time>
        <extensions>
          <gpxtpx:TrackPointExtension xmlns:gpxtpx="http://www.garmin.com/xmlschemas/TrackPointExtension/v1">
            <gpxtpx:hr>99</gpxtpx:hr>
          </gpxtpx:TrackPointExtension>
        </extensions>
      </trkpt>
      <trkpt lat="45.60401" lon="2.98372">
        <ele>879.59997558594</ele>
        <time>2024-05-26T11:14:47.000Z</time>
        <extensions>
          <gpxtpx:TrackPointExtension xmlns:gpxtpx="http://www.garmin.com/xmlschemas/TrackPointExtension/v1">
            <gpxtpx:hr>99</gpxtpx:hr>
          </gpxtpx:TrackPointExtension>
        </extensions>
      </trkpt>
      <trkpt lat="45.60409" lon="2.98368">
        <ele>878.79998779297</ele>
        <time>2024-05-26T11:14:48.000Z</time>
        <extensions>
          <gpxtpx:TrackPointExtension xmlns:gpxtpx="http://www.garmin.com/xmlschemas/TrackPointExtension/v1">
            <gpxtpx:hr>100</gpxtpx:hr>
          </gpxtpx:TrackPointExtension>
        </extensions>
      </trkpt>
      <trkpt lat="45.60418" lon="2.98365">
        <ele>877.59997558594</ele>
        <time>2024-05-26T11:14:49.000Z</time>
        <extensions>
          <gpxtpx:TrackPointExtension xmlns:gpxtpx="http://www.garmin.com/xmlschemas/TrackPointExtension/v1">
            <gpxtpx:hr>101</gpxtpx:hr>
          </gpxtpx:TrackPointExtension>
        </extensions>
      </trkpt>
      <trkpt lat="45.60436" lon="2.98362">
        <ele>876.79998779297</ele>
        <time>2024-05-26T11:14:51.000Z</time>
        <extensions>
          <gpxtpx:TrackPointExtension xmlns:gpxtpx="http://www.garmin.com/xmlschemas/TrackPointExtension/v1">
            <gpxtpx:hr>100</gpxtpx:hr>
          </gpxtpx:TrackPointExtension>
        </extensions>
      </trkpt>
      <trkpt lat="45.60445" lon="2.9836">
        <ele>876.40002441406</ele>
        <time>2024-05-26T11:14:52.000Z</time>
        <extensions>
          <gpxtpx:TrackPointExtension xmlns:gpxtpx="http://www.garmin.com/xmlschemas/TrackPointExtension/v1">
            <gpxtpx:hr>101</gpxtpx:hr>
          </gpxtpx:TrackPointExtension>
        </extensions>
      </trkpt>
      <trkpt lat="45.60453" lon="2.98356">
        <ele>875.79998779297</ele>
        <time>2024-05-26T11:14:53.000Z</time>
        <extensions>
          <gpxtpx:TrackPointExtension xmlns:gpxtpx="http://www.garmin.com/xmlschemas/TrackPointExtension/v1">
            <gpxtpx:hr>101</gpxtpx:hr>
          </gpxtpx:TrackPointExtension>
        </extensions>
      </trkpt>
      <trkpt lat="45.60461" lon="2.9835">
        <ele>874.79998779297</ele>
        <time>2024-05-26T11:14:54.000Z</time>
        <extensions>
          <gpxtpx:TrackPointExtension xmlns:gpxtpx="http://www.garmin.com/xmlschemas/TrackPointExtension/v1">
            <gpxtpx:hr>101</gpxtpx:hr>
          </gpxtpx:TrackPointExtension>
        </extensions>
      </trkpt>
      <trkpt lat="45.60472" lon="2.98336">
        <ele>874.40002441406</ele>
        <time>2024-05-26T11:14:56.000Z</time>
        <extensions>
          <gpxtpx:TrackPointExtension xmlns:gpxtpx="http://www.garmin.com/xmlschemas/TrackPointExtension/v1">
            <gpxtpx:hr>103</gpxtpx:hr>
          </gpxtpx:TrackPointExtension>
        </extensions>
      </trkpt>
      <trkpt lat="45.60487" lon="2.98322">
        <ele>873.79998779297</ele>
        <time>2024-05-26T11:14:58.000Z</time>
        <extensions>
          <gpxtpx:TrackPointExtension xmlns:gpxtpx="http://www.garmin.com/xmlschemas/TrackPointExtension/v1">
            <gpxtpx:hr>104</gpxtpx:hr>
          </gpxtpx:TrackPointExtension>
        </extensions>
      </trkpt>
      <trkpt lat="45.60502" lon="2.98316">
        <ele>873.40002441406</ele>
        <time>2024-05-26T11:15:00.000Z</time>
        <extensions>
          <gpxtpx:TrackPointExtension xmlns:gpxtpx="http://www.garmin.com/xmlschemas/TrackPointExtension/v1">
            <gpxtpx:hr>104</gpxtpx:hr>
          </gpxtpx:TrackPointExtension>
        </extensions>
      </trkpt>
      <trkpt lat="45.60509" lon="2.98318">
        <ele>873.20001220703</ele>
        <time>2024-05-26T11:15:01.000Z</time>
        <extensions>
          <gpxtpx:TrackPointExtension xmlns:gpxtpx="http://www.garmin.com/xmlschemas/TrackPointExtension/v1">
            <gpxtpx:hr>105</gpxtpx:hr>
          </gpxtpx:TrackPointExtension>
        </extensions>
      </trkpt>
      <trkpt lat="45.60517" lon="2.98321">
        <ele>873</ele>
        <time>2024-05-26T11:15:02.000Z</time>
        <extensions>
          <gpxtpx:TrackPointExtension xmlns:gpxtpx="http://www.garmin.com/xmlschemas/TrackPointExtension/v1">
            <gpxtpx:hr>104</gpxtpx:hr>
          </gpxtpx:TrackPointExtension>
        </extensions>
      </trkpt>
      <trkpt lat="45.60537" lon="2.98337">
        <ele>873</ele>
        <time>2024-05-26T11:15:05.000Z</time>
        <extensions>
          <gpxtpx:TrackPointExtension xmlns:gpxtpx="http://www.garmin.com/xmlschemas/TrackPointExtension/v1">
            <gpxtpx:hr>104</gpxtpx:hr>
          </gpxtpx:TrackPointExtension>
        </extensions>
      </trkpt>
      <trkpt lat="45.60543" lon="2.98342">
        <ele>873.20001220703</ele>
        <time>2024-05-26T11:15:06.000Z</time>
        <extensions>
          <gpxtpx:TrackPointExtension xmlns:gpxtpx="http://www.garmin.com/xmlschemas/TrackPointExtension/v1">
            <gpxtpx:hr>104</gpxtpx:hr>
          </gpxtpx:TrackPointExtension>
        </extensions>
      </trkpt>
      <trkpt lat="45.60557" lon="2.9836">
        <ele>873.59997558594</ele>
        <time>2024-05-26T11:15:09.000Z</time>
        <extensions>
          <gpxtpx:TrackPointExtension xmlns:gpxtpx="http://www.garmin.com/xmlschemas/TrackPointExtension/v1">
            <gpxtpx:hr>104</gpxtpx:hr>
          </gpxtpx:TrackPointExtension>
        </extensions>
      </trkpt>
      <trkpt lat="45.60561" lon="2.98367">
        <ele>874.20001220703</ele>
        <time>2024-05-26T11:15:10.000Z</time>
        <extensions>
          <gpxtpx:TrackPointExtension xmlns:gpxtpx="http://www.garmin.com/xmlschemas/TrackPointExtension/v1">
            <gpxtpx:hr>104</gpxtpx:hr>
          </gpxtpx:TrackPointExtension>
        </extensions>
      </trkpt>
      <trkpt lat="45.60563" lon="2.98373">
        <ele>875</ele>
        <time>2024-05-26T11:15:11.000Z</time>
        <extensions>
          <gpxtpx:TrackPointExtension xmlns:gpxtpx="http://www.garmin.com/xmlschemas/TrackPointExtension/v1">
            <gpxtpx:hr>104</gpxtpx:hr>
          </gpxtpx:TrackPointExtension>
        </extensions>
      </trkpt>
      <trkpt lat="45.60565" lon="2.98379">
        <ele>875.40002441406</ele>
        <time>2024-05-26T11:15:12.000Z</time>
        <extensions>
          <gpxtpx:TrackPointExtension xmlns:gpxtpx="http://www.garmin.com/xmlschemas/TrackPointExtension/v1">
            <gpxtpx:hr>103</gpxtpx:hr>
          </gpxtpx:TrackPointExtension>
        </extensions>
      </trkpt>
      <trkpt lat="45.60568" lon="2.98391">
        <ele>876</ele>
        <time>2024-05-26T11:15:14.000Z</time>
        <extensions>
          <gpxtpx:TrackPointExtension xmlns:gpxtpx="http://www.garmin.com/xmlschemas/TrackPointExtension/v1">
            <gpxtpx:hr>103</gpxtpx:hr>
          </gpxtpx:TrackPointExtension>
        </extensions>
      </trkpt>
      <trkpt lat="45.60568" lon="2.984">
        <ele>876.40002441406</ele>
        <time>2024-05-26T11:15:16.000Z</time>
        <extensions>
          <gpxtpx:TrackPointExtension xmlns:gpxtpx="http://www.garmin.com/xmlschemas/TrackPointExtension/v1">
            <gpxtpx:hr>104</gpxtpx:hr>
          </gpxtpx:TrackPointExtension>
        </extensions>
      </trkpt>
      <trkpt lat="45.60569" lon="2.98421">
        <ele>877.20001220703</ele>
        <time>2024-05-26T11:15:20.000Z</time>
        <extensions>
          <gpxtpx:TrackPointExtension xmlns:gpxtpx="http://www.garmin.com/xmlschemas/TrackPointExtension/v1">
            <gpxtpx:hr>104</gpxtpx:hr>
          </gpxtpx:TrackPointExtension>
        </extensions>
      </trkpt>
      <trkpt lat="45.60569" lon="2.98425">
        <ele>877.40002441406</ele>
        <time>2024-05-26T11:15:21.000Z</time>
        <extensions>
          <gpxtpx:TrackPointExtension xmlns:gpxtpx="http://www.garmin.com/xmlschemas/TrackPointExtension/v1">
            <gpxtpx:hr>99</gpxtpx:hr>
          </gpxtpx:TrackPointExtension>
        </extensions>
      </trkpt>
      <trkpt lat="45.60569" lon="2.9843">
        <ele>877.40002441406</ele>
        <time>2024-05-26T11:15:22.000Z</time>
        <extensions>
          <gpxtpx:TrackPointExtension xmlns:gpxtpx="http://www.garmin.com/xmlschemas/TrackPointExtension/v1">
            <gpxtpx:hr>105</gpxtpx:hr>
          </gpxtpx:TrackPointExtension>
        </extensions>
      </trkpt>
      <trkpt lat="45.60569" lon="2.98434">
        <ele>877.59997558594</ele>
        <time>2024-05-26T11:15:23.000Z</time>
        <extensions>
          <gpxtpx:TrackPointExtension xmlns:gpxtpx="http://www.garmin.com/xmlschemas/TrackPointExtension/v1">
            <gpxtpx:hr>105</gpxtpx:hr>
          </gpxtpx:TrackPointExtension>
        </extensions>
      </trkpt>
      <trkpt lat="45.60568" lon="2.98447">
        <ele>878.20001220703</ele>
        <time>2024-05-26T11:15:26.000Z</time>
        <extensions>
          <gpxtpx:TrackPointExtension xmlns:gpxtpx="http://www.garmin.com/xmlschemas/TrackPointExtension/v1">
            <gpxtpx:hr>104</gpxtpx:hr>
          </gpxtpx:TrackPointExtension>
        </extensions>
      </trkpt>
      <trkpt lat="45.60567" lon="2.98451">
        <ele>878.40002441406</ele>
        <time>2024-05-26T11:15:27.000Z</time>
        <extensions>
          <gpxtpx:TrackPointExtension xmlns:gpxtpx="http://www.garmin.com/xmlschemas/TrackPointExtension/v1">
            <gpxtpx:hr>107</gpxtpx:hr>
          </gpxtpx:TrackPointExtension>
        </extensions>
      </trkpt>
      <trkpt lat="45.60566" lon="2.98459">
        <ele>878.79998779297</ele>
        <time>2024-05-26T11:15:29.000Z</time>
        <extensions>
          <gpxtpx:TrackPointExtension xmlns:gpxtpx="http://www.garmin.com/xmlschemas/TrackPointExtension/v1">
            <gpxtpx:hr>106</gpxtpx:hr>
          </gpxtpx:TrackPointExtension>
        </extensions>
      </trkpt>
      <trkpt lat="45.60566" lon="2.98463">
        <ele>879</ele>
        <time>2024-05-26T11:15:30.000Z</time>
        <extensions>
          <gpxtpx:TrackPointExtension xmlns:gpxtpx="http://www.garmin.com/xmlschemas/TrackPointExtension/v1">
            <gpxtpx:hr>103</gpxtpx:hr>
          </gpxtpx:TrackPointExtension>
        </extensions>
      </trkpt>
      <trkpt lat="45.60566" lon="2.98472">
        <ele>879.40002441406</ele>
        <time>2024-05-26T11:15:32.000Z</time>
        <extensions>
          <gpxtpx:TrackPointExtension xmlns:gpxtpx="http://www.garmin.com/xmlschemas/TrackPointExtension/v1">
            <gpxtpx:hr>106</gpxtpx:hr>
          </gpxtpx:TrackPointExtension>
        </extensions>
      </trkpt>
      <trkpt lat="45.60566" lon="2.98483">
        <ele>879.79998779297</ele>
        <time>2024-05-26T11:15:35.000Z</time>
        <extensions>
          <gpxtpx:TrackPointExtension xmlns:gpxtpx="http://www.garmin.com/xmlschemas/TrackPointExtension/v1">
            <gpxtpx:hr>107</gpxtpx:hr>
          </gpxtpx:TrackPointExtension>
        </extensions>
      </trkpt>
      <trkpt lat="45.60566" lon="2.98494">
        <ele>880.59997558594</ele>
        <time>2024-05-26T11:15:38.000Z</time>
        <extensions>
          <gpxtpx:TrackPointExtension xmlns:gpxtpx="http://www.garmin.com/xmlschemas/TrackPointExtension/v1">
            <gpxtpx:hr>104</gpxtpx:hr>
          </gpxtpx:TrackPointExtension>
        </extensions>
      </trkpt>
      <trkpt lat="45.60566" lon="2.98499">
        <ele>880.59997558594</ele>
        <time>2024-05-26T11:15:39.000Z</time>
        <extensions>
          <gpxtpx:TrackPointExtension xmlns:gpxtpx="http://www.garmin.com/xmlschemas/TrackPointExtension/v1">
            <gpxtpx:hr>107</gpxtpx:hr>
          </gpxtpx:TrackPointExtension>
        </extensions>
      </trkpt>
      <trkpt lat="45.60566" lon="2.98506">
        <ele>880.79998779297</ele>
        <time>2024-05-26T11:15:41.000Z</time>
        <extensions>
          <gpxtpx:TrackPointExtension xmlns:gpxtpx="http://www.garmin.com/xmlschemas/TrackPointExtension/v1">
            <gpxtpx:hr>108</gpxtpx:hr>
          </gpxtpx:TrackPointExtension>
        </extensions>
      </trkpt>
      <trkpt lat="45.60564" lon="2.98531">
        <ele>881.59997558594</ele>
        <time>2024-05-26T11:15:48.000Z</time>
        <extensions>
          <gpxtpx:TrackPointExtension xmlns:gpxtpx="http://www.garmin.com/xmlschemas/TrackPointExtension/v1">
            <gpxtpx:hr>109</gpxtpx:hr>
          </gpxtpx:TrackPointExtension>
        </extensions>
      </trkpt>
      <trkpt lat="45.60566" lon="2.98558">
        <ele>882.59997558594</ele>
        <time>2024-05-26T11:15:56.000Z</time>
        <extensions>
          <gpxtpx:TrackPointExtension xmlns:gpxtpx="http://www.garmin.com/xmlschemas/TrackPointExtension/v1">
            <gpxtpx:hr>109</gpxtpx:hr>
          </gpxtpx:TrackPointExtension>
        </extensions>
      </trkpt>
      <trkpt lat="45.60568" lon="2.98568">
        <ele>883.40002441406</ele>
        <time>2024-05-26T11:15:59.000Z</time>
        <extensions>
          <gpxtpx:TrackPointExtension xmlns:gpxtpx="http://www.garmin.com/xmlschemas/TrackPointExtension/v1">
            <gpxtpx:hr>107</gpxtpx:hr>
          </gpxtpx:TrackPointExtension>
        </extensions>
      </trkpt>
      <trkpt lat="45.60568" lon="2.98575">
        <ele>883.79998779297</ele>
        <time>2024-05-26T11:16:01.000Z</time>
        <extensions>
          <gpxtpx:TrackPointExtension xmlns:gpxtpx="http://www.garmin.com/xmlschemas/TrackPointExtension/v1">
            <gpxtpx:hr>104</gpxtpx:hr>
          </gpxtpx:TrackPointExtension>
        </extensions>
      </trkpt>
      <trkpt lat="45.60569" lon="2.98582">
        <ele>884</ele>
        <time>2024-05-26T11:16:03.000Z</time>
        <extensions>
          <gpxtpx:TrackPointExtension xmlns:gpxtpx="http://www.garmin.com/xmlschemas/TrackPointExtension/v1">
            <gpxtpx:hr>110</gpxtpx:hr>
          </gpxtpx:TrackPointExtension>
        </extensions>
      </trkpt>
      <trkpt lat="45.60569" lon="2.98585">
        <ele>884.59997558594</ele>
        <time>2024-05-26T11:16:04.000Z</time>
        <extensions>
          <gpxtpx:TrackPointExtension xmlns:gpxtpx="http://www.garmin.com/xmlschemas/TrackPointExtension/v1">
            <gpxtpx:hr>109</gpxtpx:hr>
          </gpxtpx:TrackPointExtension>
        </extensions>
      </trkpt>
      <trkpt lat="45.6057" lon="2.98589">
        <ele>884.59997558594</ele>
        <time>2024-05-26T11:16:05.000Z</time>
        <extensions>
          <gpxtpx:TrackPointExtension xmlns:gpxtpx="http://www.garmin.com/xmlschemas/TrackPointExtension/v1">
            <gpxtpx:hr>112</gpxtpx:hr>
          </gpxtpx:TrackPointExtension>
        </extensions>
      </trkpt>
      <trkpt lat="45.6057" lon="2.98592">
        <ele>885</ele>
        <time>2024-05-26T11:16:06.000Z</time>
        <extensions>
          <gpxtpx:TrackPointExtension xmlns:gpxtpx="http://www.garmin.com/xmlschemas/TrackPointExtension/v1">
            <gpxtpx:hr>113</gpxtpx:hr>
          </gpxtpx:TrackPointExtension>
        </extensions>
      </trkpt>
      <trkpt lat="45.6057" lon="2.98618">
        <ele>886</ele>
        <time>2024-05-26T11:16:13.000Z</time>
        <extensions>
          <gpxtpx:TrackPointExtension xmlns:gpxtpx="http://www.garmin.com/xmlschemas/TrackPointExtension/v1">
            <gpxtpx:hr>115</gpxtpx:hr>
          </gpxtpx:TrackPointExtension>
        </extensions>
      </trkpt>
      <trkpt lat="45.6057" lon="2.98621">
        <ele>886</ele>
        <time>2024-05-26T11:16:14.000Z</time>
        <extensions>
          <gpxtpx:TrackPointExtension xmlns:gpxtpx="http://www.garmin.com/xmlschemas/TrackPointExtension/v1">
            <gpxtpx:hr>115</gpxtpx:hr>
          </gpxtpx:TrackPointExtension>
        </extensions>
      </trkpt>
      <trkpt lat="45.60569" lon="2.98625">
        <ele>886.20001220703</ele>
        <time>2024-05-26T11:16:15.000Z</time>
        <extensions>
          <gpxtpx:TrackPointExtension xmlns:gpxtpx="http://www.garmin.com/xmlschemas/TrackPointExtension/v1">
            <gpxtpx:hr>114</gpxtpx:hr>
          </gpxtpx:TrackPointExtension>
        </extensions>
      </trkpt>
      <trkpt lat="45.60565" lon="2.98644">
        <ele>887.20001220703</ele>
        <time>2024-05-26T11:16:20.000Z</time>
        <extensions>
          <gpxtpx:TrackPointExtension xmlns:gpxtpx="http://www.garmin.com/xmlschemas/TrackPointExtension/v1">
            <gpxtpx:hr>113</gpxtpx:hr>
          </gpxtpx:TrackPointExtension>
        </extensions>
      </trkpt>
      <trkpt lat="45.60559" lon="2.98665">
        <ele>888.40002441406</ele>
        <time>2024-05-26T11:16:26.000Z</time>
        <extensions>
          <gpxtpx:TrackPointExtension xmlns:gpxtpx="http://www.garmin.com/xmlschemas/TrackPointExtension/v1">
            <gpxtpx:hr>116</gpxtpx:hr>
          </gpxtpx:TrackPointExtension>
        </extensions>
      </trkpt>
      <trkpt lat="45.60558" lon="2.98672">
        <ele>888.59997558594</ele>
        <time>2024-05-26T11:16:28.000Z</time>
        <extensions>
          <gpxtpx:TrackPointExtension xmlns:gpxtpx="http://www.garmin.com/xmlschemas/TrackPointExtension/v1">
            <gpxtpx:hr>117</gpxtpx:hr>
          </gpxtpx:TrackPointExtension>
        </extensions>
      </trkpt>
      <trkpt lat="45.60559" lon="2.98686">
        <ele>889.59997558594</ele>
        <time>2024-05-26T11:16:32.000Z</time>
        <extensions>
          <gpxtpx:TrackPointExtension xmlns:gpxtpx="http://www.garmin.com/xmlschemas/TrackPointExtension/v1">
            <gpxtpx:hr>116</gpxtpx:hr>
          </gpxtpx:TrackPointExtension>
        </extensions>
      </trkpt>
      <trkpt lat="45.6056" lon="2.98691">
        <ele>889.59997558594</ele>
        <time>2024-05-26T11:16:34.000Z</time>
        <extensions>
          <gpxtpx:TrackPointExtension xmlns:gpxtpx="http://www.garmin.com/xmlschemas/TrackPointExtension/v1">
            <gpxtpx:hr>116</gpxtpx:hr>
          </gpxtpx:TrackPointExtension>
        </extensions>
      </trkpt>
      <trkpt lat="45.60566" lon="2.98706">
        <ele>891</ele>
        <time>2024-05-26T11:16:39.000Z</time>
        <extensions>
          <gpxtpx:TrackPointExtension xmlns:gpxtpx="http://www.garmin.com/xmlschemas/TrackPointExtension/v1">
            <gpxtpx:hr>114</gpxtpx:hr>
          </gpxtpx:TrackPointExtension>
        </extensions>
      </trkpt>
      <trkpt lat="45.60569" lon="2.98712">
        <ele>891.20001220703</ele>
        <time>2024-05-26T11:16:41.000Z</time>
        <extensions>
          <gpxtpx:TrackPointExtension xmlns:gpxtpx="http://www.garmin.com/xmlschemas/TrackPointExtension/v1">
            <gpxtpx:hr>112</gpxtpx:hr>
          </gpxtpx:TrackPointExtension>
        </extensions>
      </trkpt>
      <trkpt lat="45.60575" lon="2.98728">
        <ele>892</ele>
        <time>2024-05-26T11:16:46.000Z</time>
        <extensions>
          <gpxtpx:TrackPointExtension xmlns:gpxtpx="http://www.garmin.com/xmlschemas/TrackPointExtension/v1">
            <gpxtpx:hr>111</gpxtpx:hr>
          </gpxtpx:TrackPointExtension>
        </extensions>
      </trkpt>
      <trkpt lat="45.6058" lon="2.9874">
        <ele>892.79998779297</ele>
        <time>2024-05-26T11:16:50.000Z</time>
        <extensions>
          <gpxtpx:TrackPointExtension xmlns:gpxtpx="http://www.garmin.com/xmlschemas/TrackPointExtension/v1">
            <gpxtpx:hr>111</gpxtpx:hr>
          </gpxtpx:TrackPointExtension>
        </extensions>
      </trkpt>
      <trkpt lat="45.60582" lon="2.98745">
        <ele>893.20001220703</ele>
        <time>2024-05-26T11:16:52.000Z</time>
        <extensions>
          <gpxtpx:TrackPointExtension xmlns:gpxtpx="http://www.garmin.com/xmlschemas/TrackPointExtension/v1">
            <gpxtpx:hr>112</gpxtpx:hr>
          </gpxtpx:TrackPointExtension>
        </extensions>
      </trkpt>
      <trkpt lat="45.60591" lon="2.98763">
        <ele>893.79998779297</ele>
        <time>2024-05-26T11:16:58.000Z</time>
        <extensions>
          <gpxtpx:TrackPointExtension xmlns:gpxtpx="http://www.garmin.com/xmlschemas/TrackPointExtension/v1">
            <gpxtpx:hr>113</gpxtpx:hr>
          </gpxtpx:TrackPointExtension>
        </extensions>
      </trkpt>
      <trkpt lat="45.60595" lon="2.9877">
        <ele>894.59997558594</ele>
        <time>2024-05-26T11:17:01.000Z</time>
        <extensions>
          <gpxtpx:TrackPointExtension xmlns:gpxtpx="http://www.garmin.com/xmlschemas/TrackPointExtension/v1">
            <gpxtpx:hr>111</gpxtpx:hr>
          </gpxtpx:TrackPointExtension>
        </extensions>
      </trkpt>
      <trkpt lat="45.60601" lon="2.98779">
        <ele>895.40002441406</ele>
        <time>2024-05-26T11:17:05.000Z</time>
        <extensions>
          <gpxtpx:TrackPointExtension xmlns:gpxtpx="http://www.garmin.com/xmlschemas/TrackPointExtension/v1">
            <gpxtpx:hr>114</gpxtpx:hr>
          </gpxtpx:TrackPointExtension>
        </extensions>
      </trkpt>
      <trkpt lat="45.60602" lon="2.98781">
        <ele>895.40002441406</ele>
        <time>2024-05-26T11:17:06.000Z</time>
        <extensions>
          <gpxtpx:TrackPointExtension xmlns:gpxtpx="http://www.garmin.com/xmlschemas/TrackPointExtension/v1">
            <gpxtpx:hr>114</gpxtpx:hr>
          </gpxtpx:TrackPointExtension>
        </extensions>
      </trkpt>
      <trkpt lat="45.60604" lon="2.98783">
        <ele>895.59997558594</ele>
        <time>2024-05-26T11:17:07.000Z</time>
        <extensions>
          <gpxtpx:TrackPointExtension xmlns:gpxtpx="http://www.garmin.com/xmlschemas/TrackPointExtension/v1">
            <gpxtpx:hr>115</gpxtpx:hr>
          </gpxtpx:TrackPointExtension>
        </extensions>
      </trkpt>
      <trkpt lat="45.60615" lon="2.98795">
        <ele>896.79998779297</ele>
        <time>2024-05-26T11:17:13.000Z</time>
        <extensions>
          <gpxtpx:TrackPointExtension xmlns:gpxtpx="http://www.garmin.com/xmlschemas/TrackPointExtension/v1">
            <gpxtpx:hr>116</gpxtpx:hr>
          </gpxtpx:TrackPointExtension>
        </extensions>
      </trkpt>
      <trkpt lat="45.6062" lon="2.98802">
        <ele>897.20001220703</ele>
        <time>2024-05-26T11:17:16.000Z</time>
        <extensions>
          <gpxtpx:TrackPointExtension xmlns:gpxtpx="http://www.garmin.com/xmlschemas/TrackPointExtension/v1">
            <gpxtpx:hr>119</gpxtpx:hr>
          </gpxtpx:TrackPointExtension>
        </extensions>
      </trkpt>
      <trkpt lat="45.6063" lon="2.98813">
        <ele>898</ele>
        <time>2024-05-26T11:17:21.000Z</time>
        <extensions>
          <gpxtpx:TrackPointExtension xmlns:gpxtpx="http://www.garmin.com/xmlschemas/TrackPointExtension/v1">
            <gpxtpx:hr>120</gpxtpx:hr>
          </gpxtpx:TrackPointExtension>
        </extensions>
      </trkpt>
      <trkpt lat="45.6064" lon="2.98822">
        <ele>898.59997558594</ele>
        <time>2024-05-26T11:17:26.000Z</time>
        <extensions>
          <gpxtpx:TrackPointExtension xmlns:gpxtpx="http://www.garmin.com/xmlschemas/TrackPointExtension/v1">
            <gpxtpx:hr>121</gpxtpx:hr>
          </gpxtpx:TrackPointExtension>
        </extensions>
      </trkpt>
      <trkpt lat="45.60644" lon="2.98826">
        <ele>899.20001220703</ele>
        <time>2024-05-26T11:17:28.000Z</time>
        <extensions>
          <gpxtpx:TrackPointExtension xmlns:gpxtpx="http://www.garmin.com/xmlschemas/TrackPointExtension/v1">
            <gpxtpx:hr>120</gpxtpx:hr>
          </gpxtpx:TrackPointExtension>
        </extensions>
      </trkpt>
      <trkpt lat="45.60659" lon="2.98842">
        <ele>900</ele>
        <time>2024-05-26T11:17:36.000Z</time>
        <extensions>
          <gpxtpx:TrackPointExtension xmlns:gpxtpx="http://www.garmin.com/xmlschemas/TrackPointExtension/v1">
            <gpxtpx:hr>119</gpxtpx:hr>
          </gpxtpx:TrackPointExtension>
        </extensions>
      </trkpt>
      <trkpt lat="45.60663" lon="2.98846">
        <ele>900.20001220703</ele>
        <time>2024-05-26T11:17:38.000Z</time>
        <extensions>
          <gpxtpx:TrackPointExtension xmlns:gpxtpx="http://www.garmin.com/xmlschemas/TrackPointExtension/v1">
            <gpxtpx:hr>118</gpxtpx:hr>
          </gpxtpx:TrackPointExtension>
        </extensions>
      </trkpt>
      <trkpt lat="45.60676" lon="2.98859">
        <ele>901.40002441406</ele>
        <time>2024-05-26T11:17:45.000Z</time>
        <extensions>
          <gpxtpx:TrackPointExtension xmlns:gpxtpx="http://www.garmin.com/xmlschemas/TrackPointExtension/v1">
            <gpxtpx:hr>118</gpxtpx:hr>
          </gpxtpx:TrackPointExtension>
        </extensions>
      </trkpt>
      <trkpt lat="45.6068" lon="2.98863">
        <ele>901.59997558594</ele>
        <time>2024-05-26T11:17:47.000Z</time>
        <extensions>
          <gpxtpx:TrackPointExtension xmlns:gpxtpx="http://www.garmin.com/xmlschemas/TrackPointExtension/v1">
            <gpxtpx:hr>117</gpxtpx:hr>
          </gpxtpx:TrackPointExtension>
        </extensions>
      </trkpt>
      <trkpt lat="45.60689" lon="2.98872">
        <ele>902.40002441406</ele>
        <time>2024-05-26T11:17:52.000Z</time>
        <extensions>
          <gpxtpx:TrackPointExtension xmlns:gpxtpx="http://www.garmin.com/xmlschemas/TrackPointExtension/v1">
            <gpxtpx:hr>118</gpxtpx:hr>
          </gpxtpx:TrackPointExtension>
        </extensions>
      </trkpt>
      <trkpt lat="45.60696" lon="2.9888">
        <ele>903</ele>
        <time>2024-05-26T11:17:56.000Z</time>
        <extensions>
          <gpxtpx:TrackPointExtension xmlns:gpxtpx="http://www.garmin.com/xmlschemas/TrackPointExtension/v1">
            <gpxtpx:hr>119</gpxtpx:hr>
          </gpxtpx:TrackPointExtension>
        </extensions>
      </trkpt>
      <trkpt lat="45.60703" lon="2.98887">
        <ele>903.59997558594</ele>
        <time>2024-05-26T11:18:00.000Z</time>
        <extensions>
          <gpxtpx:TrackPointExtension xmlns:gpxtpx="http://www.garmin.com/xmlschemas/TrackPointExtension/v1">
            <gpxtpx:hr>119</gpxtpx:hr>
          </gpxtpx:TrackPointExtension>
        </extensions>
      </trkpt>
      <trkpt lat="45.60716" lon="2.989">
        <ele>904.59997558594</ele>
        <time>2024-05-26T11:18:07.000Z</time>
        <extensions>
          <gpxtpx:TrackPointExtension xmlns:gpxtpx="http://www.garmin.com/xmlschemas/TrackPointExtension/v1">
            <gpxtpx:hr>119</gpxtpx:hr>
          </gpxtpx:TrackPointExtension>
        </extensions>
      </trkpt>
      <trkpt lat="45.60729" lon="2.98915">
        <ele>905.59997558594</ele>
        <time>2024-05-26T11:18:14.000Z</time>
        <extensions>
          <gpxtpx:TrackPointExtension xmlns:gpxtpx="http://www.garmin.com/xmlschemas/TrackPointExtension/v1">
            <gpxtpx:hr>119</gpxtpx:hr>
          </gpxtpx:TrackPointExtension>
        </extensions>
      </trkpt>
      <trkpt lat="45.60731" lon="2.98917">
        <ele>905.59997558594</ele>
        <time>2024-05-26T11:18:15.000Z</time>
        <extensions>
          <gpxtpx:TrackPointExtension xmlns:gpxtpx="http://www.garmin.com/xmlschemas/TrackPointExtension/v1">
            <gpxtpx:hr>119</gpxtpx:hr>
          </gpxtpx:TrackPointExtension>
        </extensions>
      </trkpt>
      <trkpt lat="45.60745" lon="2.98932">
        <ele>906.79998779297</ele>
        <time>2024-05-26T11:18:23.000Z</time>
        <extensions>
          <gpxtpx:TrackPointExtension xmlns:gpxtpx="http://www.garmin.com/xmlschemas/TrackPointExtension/v1">
            <gpxtpx:hr>117</gpxtpx:hr>
          </gpxtpx:TrackPointExtension>
        </extensions>
      </trkpt>
      <trkpt lat="45.6075" lon="2.98939">
        <ele>907.40002441406</ele>
        <time>2024-05-26T11:18:26.000Z</time>
        <extensions>
          <gpxtpx:TrackPointExtension xmlns:gpxtpx="http://www.garmin.com/xmlschemas/TrackPointExtension/v1">
            <gpxtpx:hr>117</gpxtpx:hr>
          </gpxtpx:TrackPointExtension>
        </extensions>
      </trkpt>
      <trkpt lat="45.60756" lon="2.98945">
        <ele>907.79998779297</ele>
        <time>2024-05-26T11:18:29.000Z</time>
        <extensions>
          <gpxtpx:TrackPointExtension xmlns:gpxtpx="http://www.garmin.com/xmlschemas/TrackPointExtension/v1">
            <gpxtpx:hr>117</gpxtpx:hr>
          </gpxtpx:TrackPointExtension>
        </extensions>
      </trkpt>
      <trkpt lat="45.60764" lon="2.98959">
        <ele>908.59997558594</ele>
        <time>2024-05-26T11:18:34.000Z</time>
        <extensions>
          <gpxtpx:TrackPointExtension xmlns:gpxtpx="http://www.garmin.com/xmlschemas/TrackPointExtension/v1">
            <gpxtpx:hr>117</gpxtpx:hr>
          </gpxtpx:TrackPointExtension>
        </extensions>
      </trkpt>
      <trkpt lat="45.60767" lon="2.98965">
        <ele>908.79998779297</ele>
        <time>2024-05-26T11:18:36.000Z</time>
        <extensions>
          <gpxtpx:TrackPointExtension xmlns:gpxtpx="http://www.garmin.com/xmlschemas/TrackPointExtension/v1">
            <gpxtpx:hr>118</gpxtpx:hr>
          </gpxtpx:TrackPointExtension>
        </extensions>
      </trkpt>
      <trkpt lat="45.60772" lon="2.98975">
        <ele>909.40002441406</ele>
        <time>2024-05-26T11:18:40.000Z</time>
        <extensions>
          <gpxtpx:TrackPointExtension xmlns:gpxtpx="http://www.garmin.com/xmlschemas/TrackPointExtension/v1">
            <gpxtpx:hr>119</gpxtpx:hr>
          </gpxtpx:TrackPointExtension>
        </extensions>
      </trkpt>
      <trkpt lat="45.60775" lon="2.98981">
        <ele>910</ele>
        <time>2024-05-26T11:18:42.000Z</time>
        <extensions>
          <gpxtpx:TrackPointExtension xmlns:gpxtpx="http://www.garmin.com/xmlschemas/TrackPointExtension/v1">
            <gpxtpx:hr>120</gpxtpx:hr>
          </gpxtpx:TrackPointExtension>
        </extensions>
      </trkpt>
      <trkpt lat="45.60781" lon="2.98991">
        <ele>910.59997558594</ele>
        <time>2024-05-26T11:18:46.000Z</time>
        <extensions>
          <gpxtpx:TrackPointExtension xmlns:gpxtpx="http://www.garmin.com/xmlschemas/TrackPointExtension/v1">
            <gpxtpx:hr>121</gpxtpx:hr>
          </gpxtpx:TrackPointExtension>
        </extensions>
      </trkpt>
      <trkpt lat="45.60783" lon="2.98994">
        <ele>911.20001220703</ele>
        <time>2024-05-26T11:18:47.000Z</time>
        <extensions>
          <gpxtpx:TrackPointExtension xmlns:gpxtpx="http://www.garmin.com/xmlschemas/TrackPointExtension/v1">
            <gpxtpx:hr>121</gpxtpx:hr>
          </gpxtpx:TrackPointExtension>
        </extensions>
      </trkpt>
      <trkpt lat="45.6079" lon="2.99005">
        <ele>911.59997558594</ele>
        <time>2024-05-26T11:18:52.000Z</time>
        <extensions>
          <gpxtpx:TrackPointExtension xmlns:gpxtpx="http://www.garmin.com/xmlschemas/TrackPointExtension/v1">
            <gpxtpx:hr>121</gpxtpx:hr>
          </gpxtpx:TrackPointExtension>
        </extensions>
      </trkpt>
      <trkpt lat="45.60794" lon="2.99012">
        <ele>912.20001220703</ele>
        <time>2024-05-26T11:18:55.000Z</time>
        <extensions>
          <gpxtpx:TrackPointExtension xmlns:gpxtpx="http://www.garmin.com/xmlschemas/TrackPointExtension/v1">
            <gpxtpx:hr>119</gpxtpx:hr>
          </gpxtpx:TrackPointExtension>
        </extensions>
      </trkpt>
      <trkpt lat="45.60801" lon="2.99025">
        <ele>912.79998779297</ele>
        <time>2024-05-26T11:19:01.000Z</time>
        <extensions>
          <gpxtpx:TrackPointExtension xmlns:gpxtpx="http://www.garmin.com/xmlschemas/TrackPointExtension/v1">
            <gpxtpx:hr>122</gpxtpx:hr>
          </gpxtpx:TrackPointExtension>
        </extensions>
      </trkpt>
      <trkpt lat="45.60806" lon="2.99033">
        <ele>913</ele>
        <time>2024-05-26T11:19:04.000Z</time>
        <extensions>
          <gpxtpx:TrackPointExtension xmlns:gpxtpx="http://www.garmin.com/xmlschemas/TrackPointExtension/v1">
            <gpxtpx:hr>125</gpxtpx:hr>
          </gpxtpx:TrackPointExtension>
        </extensions>
      </trkpt>
      <trkpt lat="45.60807" lon="2.99036">
        <ele>913.40002441406</ele>
        <time>2024-05-26T11:19:05.000Z</time>
        <extensions>
          <gpxtpx:TrackPointExtension xmlns:gpxtpx="http://www.garmin.com/xmlschemas/TrackPointExtension/v1">
            <gpxtpx:hr>126</gpxtpx:hr>
          </gpxtpx:TrackPointExtension>
        </extensions>
      </trkpt>
      <trkpt lat="45.60811" lon="2.99044">
        <ele>913.79998779297</ele>
        <time>2024-05-26T11:19:08.000Z</time>
        <extensions>
          <gpxtpx:TrackPointExtension xmlns:gpxtpx="http://www.garmin.com/xmlschemas/TrackPointExtension/v1">
            <gpxtpx:hr>129</gpxtpx:hr>
          </gpxtpx:TrackPointExtension>
        </extensions>
      </trkpt>
      <trkpt lat="45.60813" lon="2.99047">
        <ele>913.79998779297</ele>
        <time>2024-05-26T11:19:09.000Z</time>
        <extensions>
          <gpxtpx:TrackPointExtension xmlns:gpxtpx="http://www.garmin.com/xmlschemas/TrackPointExtension/v1">
            <gpxtpx:hr>129</gpxtpx:hr>
          </gpxtpx:TrackPointExtension>
        </extensions>
      </trkpt>
      <trkpt lat="45.60819" lon="2.99059">
        <ele>914.40002441406</ele>
        <time>2024-05-26T11:19:13.000Z</time>
        <extensions>
          <gpxtpx:TrackPointExtension xmlns:gpxtpx="http://www.garmin.com/xmlschemas/TrackPointExtension/v1">
            <gpxtpx:hr>130</gpxtpx:hr>
          </gpxtpx:TrackPointExtension>
        </extensions>
      </trkpt>
      <trkpt lat="45.6083" lon="2.99079">
        <ele>915.59997558594</ele>
        <time>2024-05-26T11:19:19.000Z</time>
        <extensions>
          <gpxtpx:TrackPointExtension xmlns:gpxtpx="http://www.garmin.com/xmlschemas/TrackPointExtension/v1">
            <gpxtpx:hr>129</gpxtpx:hr>
          </gpxtpx:TrackPointExtension>
        </extensions>
      </trkpt>
      <trkpt lat="45.60837" lon="2.99091">
        <ele>916.59997558594</ele>
        <time>2024-05-26T11:19:23.000Z</time>
        <extensions>
          <gpxtpx:TrackPointExtension xmlns:gpxtpx="http://www.garmin.com/xmlschemas/TrackPointExtension/v1">
            <gpxtpx:hr>127</gpxtpx:hr>
          </gpxtpx:TrackPointExtension>
        </extensions>
      </trkpt>
      <trkpt lat="45.60845" lon="2.99106">
        <ele>917.20001220703</ele>
        <time>2024-05-26T11:19:28.000Z</time>
        <extensions>
          <gpxtpx:TrackPointExtension xmlns:gpxtpx="http://www.garmin.com/xmlschemas/TrackPointExtension/v1">
            <gpxtpx:hr>127</gpxtpx:hr>
          </gpxtpx:TrackPointExtension>
        </extensions>
      </trkpt>
      <trkpt lat="45.60849" lon="2.99115">
        <ele>917.79998779297</ele>
        <time>2024-05-26T11:19:31.000Z</time>
        <extensions>
          <gpxtpx:TrackPointExtension xmlns:gpxtpx="http://www.garmin.com/xmlschemas/TrackPointExtension/v1">
            <gpxtpx:hr>126</gpxtpx:hr>
          </gpxtpx:TrackPointExtension>
        </extensions>
      </trkpt>
      <trkpt lat="45.60854" lon="2.99126">
        <ele>918.40002441406</ele>
        <time>2024-05-26T11:19:35.000Z</time>
        <extensions>
          <gpxtpx:TrackPointExtension xmlns:gpxtpx="http://www.garmin.com/xmlschemas/TrackPointExtension/v1">
            <gpxtpx:hr>127</gpxtpx:hr>
          </gpxtpx:TrackPointExtension>
        </extensions>
      </trkpt>
      <trkpt lat="45.60856" lon="2.99132">
        <ele>918.79998779297</ele>
        <time>2024-05-26T11:19:37.000Z</time>
        <extensions>
          <gpxtpx:TrackPointExtension xmlns:gpxtpx="http://www.garmin.com/xmlschemas/TrackPointExtension/v1">
            <gpxtpx:hr>127</gpxtpx:hr>
          </gpxtpx:TrackPointExtension>
        </extensions>
      </trkpt>
      <trkpt lat="45.60864" lon="2.99151">
        <ele>919.40002441406</ele>
        <time>2024-05-26T11:19:43.000Z</time>
        <extensions>
          <gpxtpx:TrackPointExtension xmlns:gpxtpx="http://www.garmin.com/xmlschemas/TrackPointExtension/v1">
            <gpxtpx:hr>124</gpxtpx:hr>
          </gpxtpx:TrackPointExtension>
        </extensions>
      </trkpt>
      <trkpt lat="45.60865" lon="2.99157">
        <ele>919.79998779297</ele>
        <time>2024-05-26T11:19:45.000Z</time>
        <extensions>
          <gpxtpx:TrackPointExtension xmlns:gpxtpx="http://www.garmin.com/xmlschemas/TrackPointExtension/v1">
            <gpxtpx:hr>123</gpxtpx:hr>
          </gpxtpx:TrackPointExtension>
        </extensions>
      </trkpt>
      <trkpt lat="45.60871" lon="2.99175">
        <ele>920.40002441406</ele>
        <time>2024-05-26T11:19:51.000Z</time>
        <extensions>
          <gpxtpx:TrackPointExtension xmlns:gpxtpx="http://www.garmin.com/xmlschemas/TrackPointExtension/v1">
            <gpxtpx:hr>120</gpxtpx:hr>
          </gpxtpx:TrackPointExtension>
        </extensions>
      </trkpt>
      <trkpt lat="45.60873" lon="2.99181">
        <ele>920.79998779297</ele>
        <time>2024-05-26T11:19:53.000Z</time>
        <extensions>
          <gpxtpx:TrackPointExtension xmlns:gpxtpx="http://www.garmin.com/xmlschemas/TrackPointExtension/v1">
            <gpxtpx:hr>118</gpxtpx:hr>
          </gpxtpx:TrackPointExtension>
        </extensions>
      </trkpt>
      <trkpt lat="45.60876" lon="2.99191">
        <ele>921</ele>
        <time>2024-05-26T11:19:56.000Z</time>
        <extensions>
          <gpxtpx:TrackPointExtension xmlns:gpxtpx="http://www.garmin.com/xmlschemas/TrackPointExtension/v1">
            <gpxtpx:hr>116</gpxtpx:hr>
          </gpxtpx:TrackPointExtension>
        </extensions>
      </trkpt>
      <trkpt lat="45.60879" lon="2.99198">
        <ele>922.20001220703</ele>
        <time>2024-05-26T11:19:58.000Z</time>
        <extensions>
          <gpxtpx:TrackPointExtension xmlns:gpxtpx="http://www.garmin.com/xmlschemas/TrackPointExtension/v1">
            <gpxtpx:hr>115</gpxtpx:hr>
          </gpxtpx:TrackPointExtension>
        </extensions>
      </trkpt>
      <trkpt lat="45.60883" lon="2.99212">
        <ele>922.79998779297</ele>
        <time>2024-05-26T11:20:02.000Z</time>
        <extensions>
          <gpxtpx:TrackPointExtension xmlns:gpxtpx="http://www.garmin.com/xmlschemas/TrackPointExtension/v1">
            <gpxtpx:hr>114</gpxtpx:hr>
          </gpxtpx:TrackPointExtension>
        </extensions>
      </trkpt>
      <trkpt lat="45.60885" lon="2.99219">
        <ele>923</ele>
        <time>2024-05-26T11:20:04.000Z</time>
        <extensions>
          <gpxtpx:TrackPointExtension xmlns:gpxtpx="http://www.garmin.com/xmlschemas/TrackPointExtension/v1">
            <gpxtpx:hr>117</gpxtpx:hr>
          </gpxtpx:TrackPointExtension>
        </extensions>
      </trkpt>
      <trkpt lat="45.60887" lon="2.99225">
        <ele>923.20001220703</ele>
        <time>2024-05-26T11:20:06.000Z</time>
        <extensions>
          <gpxtpx:TrackPointExtension xmlns:gpxtpx="http://www.garmin.com/xmlschemas/TrackPointExtension/v1">
            <gpxtpx:hr>115</gpxtpx:hr>
          </gpxtpx:TrackPointExtension>
        </extensions>
      </trkpt>
      <trkpt lat="45.6089" lon="2.9924">
        <ele>923.59997558594</ele>
        <time>2024-05-26T11:20:10.000Z</time>
        <extensions>
          <gpxtpx:TrackPointExtension xmlns:gpxtpx="http://www.garmin.com/xmlschemas/TrackPointExtension/v1">
            <gpxtpx:hr>117</gpxtpx:hr>
          </gpxtpx:TrackPointExtension>
        </extensions>
      </trkpt>
      <trkpt lat="45.60894" lon="2.99257">
        <ele>923.79998779297</ele>
        <time>2024-05-26T11:20:14.000Z</time>
        <extensions>
          <gpxtpx:TrackPointExtension xmlns:gpxtpx="http://www.garmin.com/xmlschemas/TrackPointExtension/v1">
            <gpxtpx:hr>120</gpxtpx:hr>
          </gpxtpx:TrackPointExtension>
        </extensions>
      </trkpt>
      <trkpt lat="45.60898" lon="2.99274">
        <ele>924</ele>
        <time>2024-05-26T11:20:18.000Z</time>
        <extensions>
          <gpxtpx:TrackPointExtension xmlns:gpxtpx="http://www.garmin.com/xmlschemas/TrackPointExtension/v1">
            <gpxtpx:hr>119</gpxtpx:hr>
          </gpxtpx:TrackPointExtension>
        </extensions>
      </trkpt>
      <trkpt lat="45.60905" lon="2.99318">
        <ele>923.40002441406</ele>
        <time>2024-05-26T11:20:27.000Z</time>
        <extensions>
          <gpxtpx:TrackPointExtension xmlns:gpxtpx="http://www.garmin.com/xmlschemas/TrackPointExtension/v1">
            <gpxtpx:hr>121</gpxtpx:hr>
          </gpxtpx:TrackPointExtension>
        </extensions>
      </trkpt>
      <trkpt lat="45.60914" lon="2.99354">
        <ele>922.40002441406</ele>
        <time>2024-05-26T11:20:33.000Z</time>
        <extensions>
          <gpxtpx:TrackPointExtension xmlns:gpxtpx="http://www.garmin.com/xmlschemas/TrackPointExtension/v1">
            <gpxtpx:hr>119</gpxtpx:hr>
          </gpxtpx:TrackPointExtension>
        </extensions>
      </trkpt>
      <trkpt lat="45.60919" lon="2.99369">
        <ele>921.79998779297</ele>
        <time>2024-05-26T11:20:35.000Z</time>
        <extensions>
          <gpxtpx:TrackPointExtension xmlns:gpxtpx="http://www.garmin.com/xmlschemas/TrackPointExtension/v1">
            <gpxtpx:hr>119</gpxtpx:hr>
          </gpxtpx:TrackPointExtension>
        </extensions>
      </trkpt>
      <trkpt lat="45.60926" lon="2.99396">
        <ele>921.20001220703</ele>
        <time>2024-05-26T11:20:38.000Z</time>
        <extensions>
          <gpxtpx:TrackPointExtension xmlns:gpxtpx="http://www.garmin.com/xmlschemas/TrackPointExtension/v1">
            <gpxtpx:hr>118</gpxtpx:hr>
          </gpxtpx:TrackPointExtension>
        </extensions>
      </trkpt>
      <trkpt lat="45.60936" lon="2.99425">
        <ele>920.20001220703</ele>
        <time>2024-05-26T11:20:41.000Z</time>
        <extensions>
          <gpxtpx:TrackPointExtension xmlns:gpxtpx="http://www.garmin.com/xmlschemas/TrackPointExtension/v1">
            <gpxtpx:hr>117</gpxtpx:hr>
          </gpxtpx:TrackPointExtension>
        </extensions>
      </trkpt>
      <trkpt lat="45.60948" lon="2.99455">
        <ele>919.20001220703</ele>
        <time>2024-05-26T11:20:44.000Z</time>
        <extensions>
          <gpxtpx:TrackPointExtension xmlns:gpxtpx="http://www.garmin.com/xmlschemas/TrackPointExtension/v1">
            <gpxtpx:hr>116</gpxtpx:hr>
          </gpxtpx:TrackPointExtension>
        </extensions>
      </trkpt>
      <trkpt lat="45.60952" lon="2.99466">
        <ele>918.20001220703</ele>
        <time>2024-05-26T11:20:45.000Z</time>
        <extensions>
          <gpxtpx:TrackPointExtension xmlns:gpxtpx="http://www.garmin.com/xmlschemas/TrackPointExtension/v1">
            <gpxtpx:hr>114</gpxtpx:hr>
          </gpxtpx:TrackPointExtension>
        </extensions>
      </trkpt>
      <trkpt lat="45.60959" lon="2.99488">
        <ele>917</ele>
        <time>2024-05-26T11:20:47.000Z</time>
        <extensions>
          <gpxtpx:TrackPointExtension xmlns:gpxtpx="http://www.garmin.com/xmlschemas/TrackPointExtension/v1">
            <gpxtpx:hr>113</gpxtpx:hr>
          </gpxtpx:TrackPointExtension>
        </extensions>
      </trkpt>
      <trkpt lat="45.60964" lon="2.99499">
        <ele>915.59997558594</ele>
        <time>2024-05-26T11:20:48.000Z</time>
        <extensions>
          <gpxtpx:TrackPointExtension xmlns:gpxtpx="http://www.garmin.com/xmlschemas/TrackPointExtension/v1">
            <gpxtpx:hr>112</gpxtpx:hr>
          </gpxtpx:TrackPointExtension>
        </extensions>
      </trkpt>
      <trkpt lat="45.60972" lon="2.99521">
        <ele>913.40002441406</ele>
        <time>2024-05-26T11:20:50.000Z</time>
        <extensions>
          <gpxtpx:TrackPointExtension xmlns:gpxtpx="http://www.garmin.com/xmlschemas/TrackPointExtension/v1">
            <gpxtpx:hr>111</gpxtpx:hr>
          </gpxtpx:TrackPointExtension>
        </extensions>
      </trkpt>
      <trkpt lat="45.60977" lon="2.99531">
        <ele>913</ele>
        <time>2024-05-26T11:20:51.000Z</time>
        <extensions>
          <gpxtpx:TrackPointExtension xmlns:gpxtpx="http://www.garmin.com/xmlschemas/TrackPointExtension/v1">
            <gpxtpx:hr>111</gpxtpx:hr>
          </gpxtpx:TrackPointExtension>
        </extensions>
      </trkpt>
      <trkpt lat="45.60983" lon="2.99541">
        <ele>912.79998779297</ele>
        <time>2024-05-26T11:20:52.000Z</time>
        <extensions>
          <gpxtpx:TrackPointExtension xmlns:gpxtpx="http://www.garmin.com/xmlschemas/TrackPointExtension/v1">
            <gpxtpx:hr>111</gpxtpx:hr>
          </gpxtpx:TrackPointExtension>
        </extensions>
      </trkpt>
      <trkpt lat="45.60989" lon="2.9955">
        <ele>911.79998779297</ele>
        <time>2024-05-26T11:20:53.000Z</time>
        <extensions>
          <gpxtpx:TrackPointExtension xmlns:gpxtpx="http://www.garmin.com/xmlschemas/TrackPointExtension/v1">
            <gpxtpx:hr>110</gpxtpx:hr>
          </gpxtpx:TrackPointExtension>
        </extensions>
      </trkpt>
      <trkpt lat="45.61003" lon="2.99567">
        <ele>911</ele>
        <time>2024-05-26T11:20:55.000Z</time>
        <extensions>
          <gpxtpx:TrackPointExtension xmlns:gpxtpx="http://www.garmin.com/xmlschemas/TrackPointExtension/v1">
            <gpxtpx:hr>112</gpxtpx:hr>
          </gpxtpx:TrackPointExtension>
        </extensions>
      </trkpt>
      <trkpt lat="45.61011" lon="2.99574">
        <ele>910.59997558594</ele>
        <time>2024-05-26T11:20:56.000Z</time>
        <extensions>
          <gpxtpx:TrackPointExtension xmlns:gpxtpx="http://www.garmin.com/xmlschemas/TrackPointExtension/v1">
            <gpxtpx:hr>112</gpxtpx:hr>
          </gpxtpx:TrackPointExtension>
        </extensions>
      </trkpt>
      <trkpt lat="45.61028" lon="2.99585">
        <ele>910.40002441406</ele>
        <time>2024-05-26T11:20:58.000Z</time>
        <extensions>
          <gpxtpx:TrackPointExtension xmlns:gpxtpx="http://www.garmin.com/xmlschemas/TrackPointExtension/v1">
            <gpxtpx:hr>113</gpxtpx:hr>
          </gpxtpx:TrackPointExtension>
        </extensions>
      </trkpt>
      <trkpt lat="45.61048" lon="2.9959">
        <ele>909.59997558594</ele>
        <time>2024-05-26T11:21:00.000Z</time>
        <extensions>
          <gpxtpx:TrackPointExtension xmlns:gpxtpx="http://www.garmin.com/xmlschemas/TrackPointExtension/v1">
            <gpxtpx:hr>114</gpxtpx:hr>
          </gpxtpx:TrackPointExtension>
        </extensions>
      </trkpt>
      <trkpt lat="45.61059" lon="2.9959">
        <ele>908.20001220703</ele>
        <time>2024-05-26T11:21:01.000Z</time>
        <extensions>
          <gpxtpx:TrackPointExtension xmlns:gpxtpx="http://www.garmin.com/xmlschemas/TrackPointExtension/v1">
            <gpxtpx:hr>114</gpxtpx:hr>
          </gpxtpx:TrackPointExtension>
        </extensions>
      </trkpt>
      <trkpt lat="45.61069" lon="2.99587">
        <ele>907</ele>
        <time>2024-05-26T11:21:02.000Z</time>
        <extensions>
          <gpxtpx:TrackPointExtension xmlns:gpxtpx="http://www.garmin.com/xmlschemas/TrackPointExtension/v1">
            <gpxtpx:hr>113</gpxtpx:hr>
          </gpxtpx:TrackPointExtension>
        </extensions>
      </trkpt>
      <trkpt lat="45.61089" lon="2.99575">
        <ele>906</ele>
        <time>2024-05-26T11:21:04.000Z</time>
        <extensions>
          <gpxtpx:TrackPointExtension xmlns:gpxtpx="http://www.garmin.com/xmlschemas/TrackPointExtension/v1">
            <gpxtpx:hr>115</gpxtpx:hr>
          </gpxtpx:TrackPointExtension>
        </extensions>
      </trkpt>
      <trkpt lat="45.61099" lon="2.99568">
        <ele>905.20001220703</ele>
        <time>2024-05-26T11:21:05.000Z</time>
        <extensions>
          <gpxtpx:TrackPointExtension xmlns:gpxtpx="http://www.garmin.com/xmlschemas/TrackPointExtension/v1">
            <gpxtpx:hr>115</gpxtpx:hr>
          </gpxtpx:TrackPointExtension>
        </extensions>
      </trkpt>
      <trkpt lat="45.61118" lon="2.99552">
        <ele>903.20001220703</ele>
        <time>2024-05-26T11:21:07.000Z</time>
        <extensions>
          <gpxtpx:TrackPointExtension xmlns:gpxtpx="http://www.garmin.com/xmlschemas/TrackPointExtension/v1">
            <gpxtpx:hr>115</gpxtpx:hr>
          </gpxtpx:TrackPointExtension>
        </extensions>
      </trkpt>
      <trkpt lat="45.61137" lon="2.99537">
        <ele>902</ele>
        <time>2024-05-26T11:21:09.000Z</time>
        <extensions>
          <gpxtpx:TrackPointExtension xmlns:gpxtpx="http://www.garmin.com/xmlschemas/TrackPointExtension/v1">
            <gpxtpx:hr>116</gpxtpx:hr>
          </gpxtpx:TrackPointExtension>
        </extensions>
      </trkpt>
      <trkpt lat="45.61147" lon="2.99532">
        <ele>901.79998779297</ele>
        <time>2024-05-26T11:21:10.000Z</time>
        <extensions>
          <gpxtpx:TrackPointExtension xmlns:gpxtpx="http://www.garmin.com/xmlschemas/TrackPointExtension/v1">
            <gpxtpx:hr>116</gpxtpx:hr>
          </gpxtpx:TrackPointExtension>
        </extensions>
      </trkpt>
      <trkpt lat="45.61157" lon="2.9953">
        <ele>900.79998779297</ele>
        <time>2024-05-26T11:21:11.000Z</time>
        <extensions>
          <gpxtpx:TrackPointExtension xmlns:gpxtpx="http://www.garmin.com/xmlschemas/TrackPointExtension/v1">
            <gpxtpx:hr>115</gpxtpx:hr>
          </gpxtpx:TrackPointExtension>
        </extensions>
      </trkpt>
      <trkpt lat="45.61167" lon="2.99531">
        <ele>900.20001220703</ele>
        <time>2024-05-26T11:21:12.000Z</time>
        <extensions>
          <gpxtpx:TrackPointExtension xmlns:gpxtpx="http://www.garmin.com/xmlschemas/TrackPointExtension/v1">
            <gpxtpx:hr>115</gpxtpx:hr>
          </gpxtpx:TrackPointExtension>
        </extensions>
      </trkpt>
      <trkpt lat="45.61176" lon="2.99536">
        <ele>899</ele>
        <time>2024-05-26T11:21:13.000Z</time>
        <extensions>
          <gpxtpx:TrackPointExtension xmlns:gpxtpx="http://www.garmin.com/xmlschemas/TrackPointExtension/v1">
            <gpxtpx:hr>115</gpxtpx:hr>
          </gpxtpx:TrackPointExtension>
        </extensions>
      </trkpt>
      <trkpt lat="45.61184" lon="2.99545">
        <ele>897.79998779297</ele>
        <time>2024-05-26T11:21:14.000Z</time>
        <extensions>
          <gpxtpx:TrackPointExtension xmlns:gpxtpx="http://www.garmin.com/xmlschemas/TrackPointExtension/v1">
            <gpxtpx:hr>114</gpxtpx:hr>
          </gpxtpx:TrackPointExtension>
        </extensions>
      </trkpt>
      <trkpt lat="45.61198" lon="2.99566">
        <ele>896</ele>
        <time>2024-05-26T11:21:16.000Z</time>
        <extensions>
          <gpxtpx:TrackPointExtension xmlns:gpxtpx="http://www.garmin.com/xmlschemas/TrackPointExtension/v1">
            <gpxtpx:hr>114</gpxtpx:hr>
          </gpxtpx:TrackPointExtension>
        </extensions>
      </trkpt>
      <trkpt lat="45.61221" lon="2.99597">
        <ele>894.79998779297</ele>
        <time>2024-05-26T11:21:19.000Z</time>
        <extensions>
          <gpxtpx:TrackPointExtension xmlns:gpxtpx="http://www.garmin.com/xmlschemas/TrackPointExtension/v1">
            <gpxtpx:hr>112</gpxtpx:hr>
          </gpxtpx:TrackPointExtension>
        </extensions>
      </trkpt>
      <trkpt lat="45.6123" lon="2.99607">
        <ele>893.79998779297</ele>
        <time>2024-05-26T11:21:20.000Z</time>
        <extensions>
          <gpxtpx:TrackPointExtension xmlns:gpxtpx="http://www.garmin.com/xmlschemas/TrackPointExtension/v1">
            <gpxtpx:hr>113</gpxtpx:hr>
          </gpxtpx:TrackPointExtension>
        </extensions>
      </trkpt>
      <trkpt lat="45.6124" lon="2.99614">
        <ele>893</ele>
        <time>2024-05-26T11:21:21.000Z</time>
        <extensions>
          <gpxtpx:TrackPointExtension xmlns:gpxtpx="http://www.garmin.com/xmlschemas/TrackPointExtension/v1">
            <gpxtpx:hr>113</gpxtpx:hr>
          </gpxtpx:TrackPointExtension>
        </extensions>
      </trkpt>
      <trkpt lat="45.6125" lon="2.9962">
        <ele>891.40002441406</ele>
        <time>2024-05-26T11:21:22.000Z</time>
        <extensions>
          <gpxtpx:TrackPointExtension xmlns:gpxtpx="http://www.garmin.com/xmlschemas/TrackPointExtension/v1">
            <gpxtpx:hr>113</gpxtpx:hr>
          </gpxtpx:TrackPointExtension>
        </extensions>
      </trkpt>
      <trkpt lat="45.61261" lon="2.99626">
        <ele>889.79998779297</ele>
        <time>2024-05-26T11:21:23.000Z</time>
        <extensions>
          <gpxtpx:TrackPointExtension xmlns:gpxtpx="http://www.garmin.com/xmlschemas/TrackPointExtension/v1">
            <gpxtpx:hr>114</gpxtpx:hr>
          </gpxtpx:TrackPointExtension>
        </extensions>
      </trkpt>
      <trkpt lat="45.61272" lon="2.9963">
        <ele>888.40002441406</ele>
        <time>2024-05-26T11:21:24.000Z</time>
        <extensions>
          <gpxtpx:TrackPointExtension xmlns:gpxtpx="http://www.garmin.com/xmlschemas/TrackPointExtension/v1">
            <gpxtpx:hr>114</gpxtpx:hr>
          </gpxtpx:TrackPointExtension>
        </extensions>
      </trkpt>
      <trkpt lat="45.61294" lon="2.99639">
        <ele>886.59997558594</ele>
        <time>2024-05-26T11:21:26.000Z</time>
        <extensions>
          <gpxtpx:TrackPointExtension xmlns:gpxtpx="http://www.garmin.com/xmlschemas/TrackPointExtension/v1">
            <gpxtpx:hr>115</gpxtpx:hr>
          </gpxtpx:TrackPointExtension>
        </extensions>
      </trkpt>
      <trkpt lat="45.61348" lon="2.99663">
        <ele>885.59997558594</ele>
        <time>2024-05-26T11:21:31.000Z</time>
        <extensions>
          <gpxtpx:TrackPointExtension xmlns:gpxtpx="http://www.garmin.com/xmlschemas/TrackPointExtension/v1">
            <gpxtpx:hr>113</gpxtpx:hr>
          </gpxtpx:TrackPointExtension>
        </extensions>
      </trkpt>
      <trkpt lat="45.61376" lon="2.99679">
        <ele>884.59997558594</ele>
        <time>2024-05-26T11:21:34.000Z</time>
        <extensions>
          <gpxtpx:TrackPointExtension xmlns:gpxtpx="http://www.garmin.com/xmlschemas/TrackPointExtension/v1">
            <gpxtpx:hr>111</gpxtpx:hr>
          </gpxtpx:TrackPointExtension>
        </extensions>
      </trkpt>
      <trkpt lat="45.61394" lon="2.99691">
        <ele>883.79998779297</ele>
        <time>2024-05-26T11:21:36.000Z</time>
        <extensions>
          <gpxtpx:TrackPointExtension xmlns:gpxtpx="http://www.garmin.com/xmlschemas/TrackPointExtension/v1">
            <gpxtpx:hr>110</gpxtpx:hr>
          </gpxtpx:TrackPointExtension>
        </extensions>
      </trkpt>
      <trkpt lat="45.61403" lon="2.99696">
        <ele>883.59997558594</ele>
        <time>2024-05-26T11:21:37.000Z</time>
        <extensions>
          <gpxtpx:TrackPointExtension xmlns:gpxtpx="http://www.garmin.com/xmlschemas/TrackPointExtension/v1">
            <gpxtpx:hr>110</gpxtpx:hr>
          </gpxtpx:TrackPointExtension>
        </extensions>
      </trkpt>
      <trkpt lat="45.6143" lon="2.9971">
        <ele>882.40002441406</ele>
        <time>2024-05-26T11:21:40.000Z</time>
        <extensions>
          <gpxtpx:TrackPointExtension xmlns:gpxtpx="http://www.garmin.com/xmlschemas/TrackPointExtension/v1">
            <gpxtpx:hr>108</gpxtpx:hr>
          </gpxtpx:TrackPointExtension>
        </extensions>
      </trkpt>
      <trkpt lat="45.61439" lon="2.99713">
        <ele>882</ele>
        <time>2024-05-26T11:21:41.000Z</time>
        <extensions>
          <gpxtpx:TrackPointExtension xmlns:gpxtpx="http://www.garmin.com/xmlschemas/TrackPointExtension/v1">
            <gpxtpx:hr>108</gpxtpx:hr>
          </gpxtpx:TrackPointExtension>
        </extensions>
      </trkpt>
      <trkpt lat="45.61481" lon="2.99726">
        <ele>881.40002441406</ele>
        <time>2024-05-26T11:21:46.000Z</time>
        <extensions>
          <gpxtpx:TrackPointExtension xmlns:gpxtpx="http://www.garmin.com/xmlschemas/TrackPointExtension/v1">
            <gpxtpx:hr>107</gpxtpx:hr>
          </gpxtpx:TrackPointExtension>
        </extensions>
      </trkpt>
      <trkpt lat="45.61489" lon="2.99728">
        <ele>881.20001220703</ele>
        <time>2024-05-26T11:21:47.000Z</time>
        <extensions>
          <gpxtpx:TrackPointExtension xmlns:gpxtpx="http://www.garmin.com/xmlschemas/TrackPointExtension/v1">
            <gpxtpx:hr>107</gpxtpx:hr>
          </gpxtpx:TrackPointExtension>
        </extensions>
      </trkpt>
      <trkpt lat="45.61535" lon="2.99733">
        <ele>880.79998779297</ele>
        <time>2024-05-26T11:21:53.000Z</time>
        <extensions>
          <gpxtpx:TrackPointExtension xmlns:gpxtpx="http://www.garmin.com/xmlschemas/TrackPointExtension/v1">
            <gpxtpx:hr>108</gpxtpx:hr>
          </gpxtpx:TrackPointExtension>
        </extensions>
      </trkpt>
      <trkpt lat="45.61572" lon="2.99737">
        <ele>881</ele>
        <time>2024-05-26T11:21:58.000Z</time>
        <extensions>
          <gpxtpx:TrackPointExtension xmlns:gpxtpx="http://www.garmin.com/xmlschemas/TrackPointExtension/v1">
            <gpxtpx:hr>108</gpxtpx:hr>
          </gpxtpx:TrackPointExtension>
        </extensions>
      </trkpt>
      <trkpt lat="45.6158" lon="2.9974">
        <ele>881.20001220703</ele>
        <time>2024-05-26T11:21:59.000Z</time>
        <extensions>
          <gpxtpx:TrackPointExtension xmlns:gpxtpx="http://www.garmin.com/xmlschemas/TrackPointExtension/v1">
            <gpxtpx:hr>108</gpxtpx:hr>
          </gpxtpx:TrackPointExtension>
        </extensions>
      </trkpt>
      <trkpt lat="45.61593" lon="2.9975">
        <ele>881.40002441406</ele>
        <time>2024-05-26T11:22:01.000Z</time>
        <extensions>
          <gpxtpx:TrackPointExtension xmlns:gpxtpx="http://www.garmin.com/xmlschemas/TrackPointExtension/v1">
            <gpxtpx:hr>107</gpxtpx:hr>
          </gpxtpx:TrackPointExtension>
        </extensions>
      </trkpt>
      <trkpt lat="45.61605" lon="2.99762">
        <ele>881.40002441406</ele>
        <time>2024-05-26T11:22:03.000Z</time>
        <extensions>
          <gpxtpx:TrackPointExtension xmlns:gpxtpx="http://www.garmin.com/xmlschemas/TrackPointExtension/v1">
            <gpxtpx:hr>107</gpxtpx:hr>
          </gpxtpx:TrackPointExtension>
        </extensions>
      </trkpt>
      <trkpt lat="45.61628" lon="2.99799">
        <ele>881.20001220703</ele>
        <time>2024-05-26T11:22:08.000Z</time>
        <extensions>
          <gpxtpx:TrackPointExtension xmlns:gpxtpx="http://www.garmin.com/xmlschemas/TrackPointExtension/v1">
            <gpxtpx:hr>107</gpxtpx:hr>
          </gpxtpx:TrackPointExtension>
        </extensions>
      </trkpt>
      <trkpt lat="45.61634" lon="2.99816">
        <ele>881.40002441406</ele>
        <time>2024-05-26T11:22:10.000Z</time>
        <extensions>
          <gpxtpx:TrackPointExtension xmlns:gpxtpx="http://www.garmin.com/xmlschemas/TrackPointExtension/v1">
            <gpxtpx:hr>106</gpxtpx:hr>
          </gpxtpx:TrackPointExtension>
        </extensions>
      </trkpt>
      <trkpt lat="45.61636" lon="2.99832">
        <ele>881.59997558594</ele>
        <time>2024-05-26T11:22:12.000Z</time>
        <extensions>
          <gpxtpx:TrackPointExtension xmlns:gpxtpx="http://www.garmin.com/xmlschemas/TrackPointExtension/v1">
            <gpxtpx:hr>106</gpxtpx:hr>
          </gpxtpx:TrackPointExtension>
        </extensions>
      </trkpt>
      <trkpt lat="45.61637" lon="2.99865">
        <ele>882.59997558594</ele>
        <time>2024-05-26T11:22:17.000Z</time>
        <extensions>
          <gpxtpx:TrackPointExtension xmlns:gpxtpx="http://www.garmin.com/xmlschemas/TrackPointExtension/v1">
            <gpxtpx:hr>106</gpxtpx:hr>
          </gpxtpx:TrackPointExtension>
        </extensions>
      </trkpt>
      <trkpt lat="45.61634" lon="2.99877">
        <ele>882.79998779297</ele>
        <time>2024-05-26T11:22:19.000Z</time>
        <extensions>
          <gpxtpx:TrackPointExtension xmlns:gpxtpx="http://www.garmin.com/xmlschemas/TrackPointExtension/v1">
            <gpxtpx:hr>106</gpxtpx:hr>
          </gpxtpx:TrackPointExtension>
        </extensions>
      </trkpt>
      <trkpt lat="45.6163" lon="2.99889">
        <ele>883</ele>
        <time>2024-05-26T11:22:21.000Z</time>
        <extensions>
          <gpxtpx:TrackPointExtension xmlns:gpxtpx="http://www.garmin.com/xmlschemas/TrackPointExtension/v1">
            <gpxtpx:hr>107</gpxtpx:hr>
          </gpxtpx:TrackPointExtension>
        </extensions>
      </trkpt>
      <trkpt lat="45.61612" lon="2.99922">
        <ele>882.20001220703</ele>
        <time>2024-05-26T11:22:26.000Z</time>
        <extensions>
          <gpxtpx:TrackPointExtension xmlns:gpxtpx="http://www.garmin.com/xmlschemas/TrackPointExtension/v1">
            <gpxtpx:hr>108</gpxtpx:hr>
          </gpxtpx:TrackPointExtension>
        </extensions>
      </trkpt>
      <trkpt lat="45.61596" lon="2.99954">
        <ele>881.59997558594</ele>
        <time>2024-05-26T11:22:30.000Z</time>
        <extensions>
          <gpxtpx:TrackPointExtension xmlns:gpxtpx="http://www.garmin.com/xmlschemas/TrackPointExtension/v1">
            <gpxtpx:hr>108</gpxtpx:hr>
          </gpxtpx:TrackPointExtension>
        </extensions>
      </trkpt>
      <trkpt lat="45.61592" lon="2.99974">
        <ele>881.79998779297</ele>
        <time>2024-05-26T11:22:32.000Z</time>
        <extensions>
          <gpxtpx:TrackPointExtension xmlns:gpxtpx="http://www.garmin.com/xmlschemas/TrackPointExtension/v1">
            <gpxtpx:hr>108</gpxtpx:hr>
          </gpxtpx:TrackPointExtension>
        </extensions>
      </trkpt>
      <trkpt lat="45.61593" lon="2.99992">
        <ele>881.79998779297</ele>
        <time>2024-05-26T11:22:34.000Z</time>
        <extensions>
          <gpxtpx:TrackPointExtension xmlns:gpxtpx="http://www.garmin.com/xmlschemas/TrackPointExtension/v1">
            <gpxtpx:hr>109</gpxtpx:hr>
          </gpxtpx:TrackPointExtension>
        </extensions>
      </trkpt>
      <trkpt lat="45.61596" lon="3.00007">
        <ele>882.59997558594</ele>
        <time>2024-05-26T11:22:36.000Z</time>
        <extensions>
          <gpxtpx:TrackPointExtension xmlns:gpxtpx="http://www.garmin.com/xmlschemas/TrackPointExtension/v1">
            <gpxtpx:hr>109</gpxtpx:hr>
          </gpxtpx:TrackPointExtension>
        </extensions>
      </trkpt>
      <trkpt lat="45.61601" lon="3.00031">
        <ele>883.59997558594</ele>
        <time>2024-05-26T11:22:40.000Z</time>
        <extensions>
          <gpxtpx:TrackPointExtension xmlns:gpxtpx="http://www.garmin.com/xmlschemas/TrackPointExtension/v1">
            <gpxtpx:hr>109</gpxtpx:hr>
          </gpxtpx:TrackPointExtension>
        </extensions>
      </trkpt>
      <trkpt lat="45.61604" lon="3.00043">
        <ele>884.20001220703</ele>
        <time>2024-05-26T11:22:42.000Z</time>
        <extensions>
          <gpxtpx:TrackPointExtension xmlns:gpxtpx="http://www.garmin.com/xmlschemas/TrackPointExtension/v1">
            <gpxtpx:hr>109</gpxtpx:hr>
          </gpxtpx:TrackPointExtension>
        </extensions>
      </trkpt>
      <trkpt lat="45.61608" lon="3.00052">
        <ele>884.59997558594</ele>
        <time>2024-05-26T11:22:44.000Z</time>
        <extensions>
          <gpxtpx:TrackPointExtension xmlns:gpxtpx="http://www.garmin.com/xmlschemas/TrackPointExtension/v1">
            <gpxtpx:hr>109</gpxtpx:hr>
          </gpxtpx:TrackPointExtension>
        </extensions>
      </trkpt>
      <trkpt lat="45.61617" lon="3.00067">
        <ele>885.40002441406</ele>
        <time>2024-05-26T11:22:48.000Z</time>
        <extensions>
          <gpxtpx:TrackPointExtension xmlns:gpxtpx="http://www.garmin.com/xmlschemas/TrackPointExtension/v1">
            <gpxtpx:hr>107</gpxtpx:hr>
          </gpxtpx:TrackPointExtension>
        </extensions>
      </trkpt>
      <trkpt lat="45.61621" lon="3.00072">
        <ele>885.79998779297</ele>
        <time>2024-05-26T11:22:50.000Z</time>
        <extensions>
          <gpxtpx:TrackPointExtension xmlns:gpxtpx="http://www.garmin.com/xmlschemas/TrackPointExtension/v1">
            <gpxtpx:hr>107</gpxtpx:hr>
          </gpxtpx:TrackPointExtension>
        </extensions>
      </trkpt>
      <trkpt lat="45.6163" lon="3.00079">
        <ele>886.79998779297</ele>
        <time>2024-05-26T11:22:54.000Z</time>
        <extensions>
          <gpxtpx:TrackPointExtension xmlns:gpxtpx="http://www.garmin.com/xmlschemas/TrackPointExtension/v1">
            <gpxtpx:hr>107</gpxtpx:hr>
          </gpxtpx:TrackPointExtension>
        </extensions>
      </trkpt>
      <trkpt lat="45.61632" lon="3.00081">
        <ele>887.20001220703</ele>
        <time>2024-05-26T11:22:55.000Z</time>
        <extensions>
          <gpxtpx:TrackPointExtension xmlns:gpxtpx="http://www.garmin.com/xmlschemas/TrackPointExtension/v1">
            <gpxtpx:hr>108</gpxtpx:hr>
          </gpxtpx:TrackPointExtension>
        </extensions>
      </trkpt>
      <trkpt lat="45.61641" lon="3.00081">
        <ele>888.20001220703</ele>
        <time>2024-05-26T11:22:59.000Z</time>
        <extensions>
          <gpxtpx:TrackPointExtension xmlns:gpxtpx="http://www.garmin.com/xmlschemas/TrackPointExtension/v1">
            <gpxtpx:hr>106</gpxtpx:hr>
          </gpxtpx:TrackPointExtension>
        </extensions>
      </trkpt>
      <trkpt lat="45.61643" lon="3.0008">
        <ele>888.40002441406</ele>
        <time>2024-05-26T11:23:00.000Z</time>
        <extensions>
          <gpxtpx:TrackPointExtension xmlns:gpxtpx="http://www.garmin.com/xmlschemas/TrackPointExtension/v1">
            <gpxtpx:hr>109</gpxtpx:hr>
          </gpxtpx:TrackPointExtension>
        </extensions>
      </trkpt>
      <trkpt lat="45.6165" lon="3.00072">
        <ele>889.40002441406</ele>
        <time>2024-05-26T11:23:04.000Z</time>
        <extensions>
          <gpxtpx:TrackPointExtension xmlns:gpxtpx="http://www.garmin.com/xmlschemas/TrackPointExtension/v1">
            <gpxtpx:hr>112</gpxtpx:hr>
          </gpxtpx:TrackPointExtension>
        </extensions>
      </trkpt>
      <trkpt lat="45.61657" lon="3.00059">
        <ele>890.40002441406</ele>
        <time>2024-05-26T11:23:09.000Z</time>
        <extensions>
          <gpxtpx:TrackPointExtension xmlns:gpxtpx="http://www.garmin.com/xmlschemas/TrackPointExtension/v1">
            <gpxtpx:hr>114</gpxtpx:hr>
          </gpxtpx:TrackPointExtension>
        </extensions>
      </trkpt>
      <trkpt lat="45.61663" lon="3.00053">
        <ele>891</ele>
        <time>2024-05-26T11:23:12.000Z</time>
        <extensions>
          <gpxtpx:TrackPointExtension xmlns:gpxtpx="http://www.garmin.com/xmlschemas/TrackPointExtension/v1">
            <gpxtpx:hr>117</gpxtpx:hr>
          </gpxtpx:TrackPointExtension>
        </extensions>
      </trkpt>
      <trkpt lat="45.61668" lon="3.00045">
        <ele>891.40002441406</ele>
        <time>2024-05-26T11:23:15.000Z</time>
        <extensions>
          <gpxtpx:TrackPointExtension xmlns:gpxtpx="http://www.garmin.com/xmlschemas/TrackPointExtension/v1">
            <gpxtpx:hr>120</gpxtpx:hr>
          </gpxtpx:TrackPointExtension>
        </extensions>
      </trkpt>
      <trkpt lat="45.61678" lon="3.00034">
        <ele>893</ele>
        <time>2024-05-26T11:23:20.000Z</time>
        <extensions>
          <gpxtpx:TrackPointExtension xmlns:gpxtpx="http://www.garmin.com/xmlschemas/TrackPointExtension/v1">
            <gpxtpx:hr>121</gpxtpx:hr>
          </gpxtpx:TrackPointExtension>
        </extensions>
      </trkpt>
      <trkpt lat="45.61683" lon="3.00028">
        <ele>893.40002441406</ele>
        <time>2024-05-26T11:23:23.000Z</time>
        <extensions>
          <gpxtpx:TrackPointExtension xmlns:gpxtpx="http://www.garmin.com/xmlschemas/TrackPointExtension/v1">
            <gpxtpx:hr>122</gpxtpx:hr>
          </gpxtpx:TrackPointExtension>
        </extensions>
      </trkpt>
      <trkpt lat="45.61688" lon="3.00022">
        <ele>894</ele>
        <time>2024-05-26T11:23:26.000Z</time>
        <extensions>
          <gpxtpx:TrackPointExtension xmlns:gpxtpx="http://www.garmin.com/xmlschemas/TrackPointExtension/v1">
            <gpxtpx:hr>123</gpxtpx:hr>
          </gpxtpx:TrackPointExtension>
        </extensions>
      </trkpt>
      <trkpt lat="45.61694" lon="3.00008">
        <ele>894.79998779297</ele>
        <time>2024-05-26T11:23:31.000Z</time>
        <extensions>
          <gpxtpx:TrackPointExtension xmlns:gpxtpx="http://www.garmin.com/xmlschemas/TrackPointExtension/v1">
            <gpxtpx:hr>123</gpxtpx:hr>
          </gpxtpx:TrackPointExtension>
        </extensions>
      </trkpt>
      <trkpt lat="45.61696" lon="3.00006">
        <ele>895</ele>
        <time>2024-05-26T11:23:32.000Z</time>
        <extensions>
          <gpxtpx:TrackPointExtension xmlns:gpxtpx="http://www.garmin.com/xmlschemas/TrackPointExtension/v1">
            <gpxtpx:hr>123</gpxtpx:hr>
          </gpxtpx:TrackPointExtension>
        </extensions>
      </trkpt>
      <trkpt lat="45.61698" lon="2.99998">
        <ele>895.59997558594</ele>
        <time>2024-05-26T11:23:35.000Z</time>
        <extensions>
          <gpxtpx:TrackPointExtension xmlns:gpxtpx="http://www.garmin.com/xmlschemas/TrackPointExtension/v1">
            <gpxtpx:hr>120</gpxtpx:hr>
          </gpxtpx:TrackPointExtension>
        </extensions>
      </trkpt>
      <trkpt lat="45.61699" lon="2.99995">
        <ele>895.79998779297</ele>
        <time>2024-05-26T11:23:36.000Z</time>
        <extensions>
          <gpxtpx:TrackPointExtension xmlns:gpxtpx="http://www.garmin.com/xmlschemas/TrackPointExtension/v1">
            <gpxtpx:hr>123</gpxtpx:hr>
          </gpxtpx:TrackPointExtension>
        </extensions>
      </trkpt>
      <trkpt lat="45.61702" lon="2.99986">
        <ele>896.20001220703</ele>
        <time>2024-05-26T11:23:39.000Z</time>
        <extensions>
          <gpxtpx:TrackPointExtension xmlns:gpxtpx="http://www.garmin.com/xmlschemas/TrackPointExtension/v1">
            <gpxtpx:hr>123</gpxtpx:hr>
          </gpxtpx:TrackPointExtension>
        </extensions>
      </trkpt>
      <trkpt lat="45.61703" lon="2.99983">
        <ele>896.40002441406</ele>
        <time>2024-05-26T11:23:40.000Z</time>
        <extensions>
          <gpxtpx:TrackPointExtension xmlns:gpxtpx="http://www.garmin.com/xmlschemas/TrackPointExtension/v1">
            <gpxtpx:hr>123</gpxtpx:hr>
          </gpxtpx:TrackPointExtension>
        </extensions>
      </trkpt>
      <trkpt lat="45.61706" lon="2.99973">
        <ele>897</ele>
        <time>2024-05-26T11:23:44.000Z</time>
        <extensions>
          <gpxtpx:TrackPointExtension xmlns:gpxtpx="http://www.garmin.com/xmlschemas/TrackPointExtension/v1">
            <gpxtpx:hr>119</gpxtpx:hr>
          </gpxtpx:TrackPointExtension>
        </extensions>
      </trkpt>
      <trkpt lat="45.61708" lon="2.99968">
        <ele>897.40002441406</ele>
        <time>2024-05-26T11:23:46.000Z</time>
        <extensions>
          <gpxtpx:TrackPointExtension xmlns:gpxtpx="http://www.garmin.com/xmlschemas/TrackPointExtension/v1">
            <gpxtpx:hr>123</gpxtpx:hr>
          </gpxtpx:TrackPointExtension>
        </extensions>
      </trkpt>
      <trkpt lat="45.61712" lon="2.99958">
        <ele>898.20001220703</ele>
        <time>2024-05-26T11:23:50.000Z</time>
        <extensions>
          <gpxtpx:TrackPointExtension xmlns:gpxtpx="http://www.garmin.com/xmlschemas/TrackPointExtension/v1">
            <gpxtpx:hr>123</gpxtpx:hr>
          </gpxtpx:TrackPointExtension>
        </extensions>
      </trkpt>
      <trkpt lat="45.61717" lon="2.99947">
        <ele>898.59997558594</ele>
        <time>2024-05-26T11:23:54.000Z</time>
        <extensions>
          <gpxtpx:TrackPointExtension xmlns:gpxtpx="http://www.garmin.com/xmlschemas/TrackPointExtension/v1">
            <gpxtpx:hr>123</gpxtpx:hr>
          </gpxtpx:TrackPointExtension>
        </extensions>
      </trkpt>
      <trkpt lat="45.61722" lon="2.99937">
        <ele>899.20001220703</ele>
        <time>2024-05-26T11:23:58.000Z</time>
        <extensions>
          <gpxtpx:TrackPointExtension xmlns:gpxtpx="http://www.garmin.com/xmlschemas/TrackPointExtension/v1">
            <gpxtpx:hr>122</gpxtpx:hr>
          </gpxtpx:TrackPointExtension>
        </extensions>
      </trkpt>
      <trkpt lat="45.61724" lon="2.99933">
        <ele>899.59997558594</ele>
        <time>2024-05-26T11:24:00.000Z</time>
        <extensions>
          <gpxtpx:TrackPointExtension xmlns:gpxtpx="http://www.garmin.com/xmlschemas/TrackPointExtension/v1">
            <gpxtpx:hr>122</gpxtpx:hr>
          </gpxtpx:TrackPointExtension>
        </extensions>
      </trkpt>
      <trkpt lat="45.61732" lon="2.99916">
        <ele>900.79998779297</ele>
        <time>2024-05-26T11:24:07.000Z</time>
        <extensions>
          <gpxtpx:TrackPointExtension xmlns:gpxtpx="http://www.garmin.com/xmlschemas/TrackPointExtension/v1">
            <gpxtpx:hr>122</gpxtpx:hr>
          </gpxtpx:TrackPointExtension>
        </extensions>
      </trkpt>
      <trkpt lat="45.61733" lon="2.99913">
        <ele>901</ele>
        <time>2024-05-26T11:24:08.000Z</time>
        <extensions>
          <gpxtpx:TrackPointExtension xmlns:gpxtpx="http://www.garmin.com/xmlschemas/TrackPointExtension/v1">
            <gpxtpx:hr>122</gpxtpx:hr>
          </gpxtpx:TrackPointExtension>
        </extensions>
      </trkpt>
      <trkpt lat="45.6174" lon="2.99901">
        <ele>902</ele>
        <time>2024-05-26T11:24:14.000Z</time>
        <extensions>
          <gpxtpx:TrackPointExtension xmlns:gpxtpx="http://www.garmin.com/xmlschemas/TrackPointExtension/v1">
            <gpxtpx:hr>122</gpxtpx:hr>
          </gpxtpx:TrackPointExtension>
        </extensions>
      </trkpt>
      <trkpt lat="45.61742" lon="2.99898">
        <ele>902.20001220703</ele>
        <time>2024-05-26T11:24:16.000Z</time>
        <extensions>
          <gpxtpx:TrackPointExtension xmlns:gpxtpx="http://www.garmin.com/xmlschemas/TrackPointExtension/v1">
            <gpxtpx:hr>121</gpxtpx:hr>
          </gpxtpx:TrackPointExtension>
        </extensions>
      </trkpt>
      <trkpt lat="45.61749" lon="2.99886">
        <ele>902.79998779297</ele>
        <time>2024-05-26T11:24:23.000Z</time>
        <extensions>
          <gpxtpx:TrackPointExtension xmlns:gpxtpx="http://www.garmin.com/xmlschemas/TrackPointExtension/v1">
            <gpxtpx:hr>120</gpxtpx:hr>
          </gpxtpx:TrackPointExtension>
        </extensions>
      </trkpt>
      <trkpt lat="45.6175" lon="2.99883">
        <ele>903</ele>
        <time>2024-05-26T11:24:25.000Z</time>
        <extensions>
          <gpxtpx:TrackPointExtension xmlns:gpxtpx="http://www.garmin.com/xmlschemas/TrackPointExtension/v1">
            <gpxtpx:hr>120</gpxtpx:hr>
          </gpxtpx:TrackPointExtension>
        </extensions>
      </trkpt>
      <trkpt lat="45.61755" lon="2.99875">
        <ele>903.59997558594</ele>
        <time>2024-05-26T11:24:30.000Z</time>
        <extensions>
          <gpxtpx:TrackPointExtension xmlns:gpxtpx="http://www.garmin.com/xmlschemas/TrackPointExtension/v1">
            <gpxtpx:hr>119</gpxtpx:hr>
          </gpxtpx:TrackPointExtension>
        </extensions>
      </trkpt>
      <trkpt lat="45.61755" lon="2.99872">
        <ele>903.59997558594</ele>
        <time>2024-05-26T11:24:31.000Z</time>
        <extensions>
          <gpxtpx:TrackPointExtension xmlns:gpxtpx="http://www.garmin.com/xmlschemas/TrackPointExtension/v1">
            <gpxtpx:hr>119</gpxtpx:hr>
          </gpxtpx:TrackPointExtension>
        </extensions>
      </trkpt>
      <trkpt lat="45.61761" lon="2.9986">
        <ele>904.20001220703</ele>
        <time>2024-05-26T11:24:37.000Z</time>
        <extensions>
          <gpxtpx:TrackPointExtension xmlns:gpxtpx="http://www.garmin.com/xmlschemas/TrackPointExtension/v1">
            <gpxtpx:hr>118</gpxtpx:hr>
          </gpxtpx:TrackPointExtension>
        </extensions>
      </trkpt>
      <trkpt lat="45.61763" lon="2.99856">
        <ele>904.40002441406</ele>
        <time>2024-05-26T11:24:39.000Z</time>
        <extensions>
          <gpxtpx:TrackPointExtension xmlns:gpxtpx="http://www.garmin.com/xmlschemas/TrackPointExtension/v1">
            <gpxtpx:hr>118</gpxtpx:hr>
          </gpxtpx:TrackPointExtension>
        </extensions>
      </trkpt>
      <trkpt lat="45.61768" lon="2.99845">
        <ele>905</ele>
        <time>2024-05-26T11:24:44.000Z</time>
        <extensions>
          <gpxtpx:TrackPointExtension xmlns:gpxtpx="http://www.garmin.com/xmlschemas/TrackPointExtension/v1">
            <gpxtpx:hr>115</gpxtpx:hr>
          </gpxtpx:TrackPointExtension>
        </extensions>
      </trkpt>
      <trkpt lat="45.61769" lon="2.99842">
        <ele>905.20001220703</ele>
        <time>2024-05-26T11:24:45.000Z</time>
        <extensions>
          <gpxtpx:TrackPointExtension xmlns:gpxtpx="http://www.garmin.com/xmlschemas/TrackPointExtension/v1">
            <gpxtpx:hr>113</gpxtpx:hr>
          </gpxtpx:TrackPointExtension>
        </extensions>
      </trkpt>
      <trkpt lat="45.61772" lon="2.99836">
        <ele>905.59997558594</ele>
        <time>2024-05-26T11:24:48.000Z</time>
        <extensions>
          <gpxtpx:TrackPointExtension xmlns:gpxtpx="http://www.garmin.com/xmlschemas/TrackPointExtension/v1">
            <gpxtpx:hr>110</gpxtpx:hr>
          </gpxtpx:TrackPointExtension>
        </extensions>
      </trkpt>
      <trkpt lat="45.61773" lon="2.99833">
        <ele>905.59997558594</ele>
        <time>2024-05-26T11:24:49.000Z</time>
        <extensions>
          <gpxtpx:TrackPointExtension xmlns:gpxtpx="http://www.garmin.com/xmlschemas/TrackPointExtension/v1">
            <gpxtpx:hr>109</gpxtpx:hr>
          </gpxtpx:TrackPointExtension>
        </extensions>
      </trkpt>
      <trkpt lat="45.61779" lon="2.99824">
        <ele>906.20001220703</ele>
        <time>2024-05-26T11:24:54.000Z</time>
        <extensions>
          <gpxtpx:TrackPointExtension xmlns:gpxtpx="http://www.garmin.com/xmlschemas/TrackPointExtension/v1">
            <gpxtpx:hr>109</gpxtpx:hr>
          </gpxtpx:TrackPointExtension>
        </extensions>
      </trkpt>
      <trkpt lat="45.61784" lon="2.99814">
        <ele>906.59997558594</ele>
        <time>2024-05-26T11:24:58.000Z</time>
        <extensions>
          <gpxtpx:TrackPointExtension xmlns:gpxtpx="http://www.garmin.com/xmlschemas/TrackPointExtension/v1">
            <gpxtpx:hr>109</gpxtpx:hr>
          </gpxtpx:TrackPointExtension>
        </extensions>
      </trkpt>
      <trkpt lat="45.61786" lon="2.9981">
        <ele>906.79998779297</ele>
        <time>2024-05-26T11:25:00.000Z</time>
        <extensions>
          <gpxtpx:TrackPointExtension xmlns:gpxtpx="http://www.garmin.com/xmlschemas/TrackPointExtension/v1">
            <gpxtpx:hr>109</gpxtpx:hr>
          </gpxtpx:TrackPointExtension>
        </extensions>
      </trkpt>
      <trkpt lat="45.6179" lon="2.99804">
        <ele>907.40002441406</ele>
        <time>2024-05-26T11:25:03.000Z</time>
        <extensions>
          <gpxtpx:TrackPointExtension xmlns:gpxtpx="http://www.garmin.com/xmlschemas/TrackPointExtension/v1">
            <gpxtpx:hr>109</gpxtpx:hr>
          </gpxtpx:TrackPointExtension>
        </extensions>
      </trkpt>
      <trkpt lat="45.61796" lon="2.9979">
        <ele>908</ele>
        <time>2024-05-26T11:25:09.000Z</time>
        <extensions>
          <gpxtpx:TrackPointExtension xmlns:gpxtpx="http://www.garmin.com/xmlschemas/TrackPointExtension/v1">
            <gpxtpx:hr>110</gpxtpx:hr>
          </gpxtpx:TrackPointExtension>
        </extensions>
      </trkpt>
      <trkpt lat="45.618" lon="2.9978">
        <ele>908.40002441406</ele>
        <time>2024-05-26T11:25:13.000Z</time>
        <extensions>
          <gpxtpx:TrackPointExtension xmlns:gpxtpx="http://www.garmin.com/xmlschemas/TrackPointExtension/v1">
            <gpxtpx:hr>111</gpxtpx:hr>
          </gpxtpx:TrackPointExtension>
        </extensions>
      </trkpt>
      <trkpt lat="45.61805" lon="2.99771">
        <ele>909.20001220703</ele>
        <time>2024-05-26T11:25:17.000Z</time>
        <extensions>
          <gpxtpx:TrackPointExtension xmlns:gpxtpx="http://www.garmin.com/xmlschemas/TrackPointExtension/v1">
            <gpxtpx:hr>113</gpxtpx:hr>
          </gpxtpx:TrackPointExtension>
        </extensions>
      </trkpt>
      <trkpt lat="45.61809" lon="2.99765">
        <ele>909.59997558594</ele>
        <time>2024-05-26T11:25:20.000Z</time>
        <extensions>
          <gpxtpx:TrackPointExtension xmlns:gpxtpx="http://www.garmin.com/xmlschemas/TrackPointExtension/v1">
            <gpxtpx:hr>113</gpxtpx:hr>
          </gpxtpx:TrackPointExtension>
        </extensions>
      </trkpt>
      <trkpt lat="45.61819" lon="2.9975">
        <ele>910.59997558594</ele>
        <time>2024-05-26T11:25:27.000Z</time>
        <extensions>
          <gpxtpx:TrackPointExtension xmlns:gpxtpx="http://www.garmin.com/xmlschemas/TrackPointExtension/v1">
            <gpxtpx:hr>114</gpxtpx:hr>
          </gpxtpx:TrackPointExtension>
        </extensions>
      </trkpt>
      <trkpt lat="45.6182" lon="2.99748">
        <ele>910.59997558594</ele>
        <time>2024-05-26T11:25:28.000Z</time>
        <extensions>
          <gpxtpx:TrackPointExtension xmlns:gpxtpx="http://www.garmin.com/xmlschemas/TrackPointExtension/v1">
            <gpxtpx:hr>113</gpxtpx:hr>
          </gpxtpx:TrackPointExtension>
        </extensions>
      </trkpt>
      <trkpt lat="45.6183" lon="2.99735">
        <ele>911.40002441406</ele>
        <time>2024-05-26T11:25:34.000Z</time>
        <extensions>
          <gpxtpx:TrackPointExtension xmlns:gpxtpx="http://www.garmin.com/xmlschemas/TrackPointExtension/v1">
            <gpxtpx:hr>113</gpxtpx:hr>
          </gpxtpx:TrackPointExtension>
        </extensions>
      </trkpt>
      <trkpt lat="45.61832" lon="2.9973">
        <ele>911.79998779297</ele>
        <time>2024-05-26T11:25:36.000Z</time>
        <extensions>
          <gpxtpx:TrackPointExtension xmlns:gpxtpx="http://www.garmin.com/xmlschemas/TrackPointExtension/v1">
            <gpxtpx:hr>113</gpxtpx:hr>
          </gpxtpx:TrackPointExtension>
        </extensions>
      </trkpt>
      <trkpt lat="45.61841" lon="2.99719">
        <ele>912.40002441406</ele>
        <time>2024-05-26T11:25:42.000Z</time>
        <extensions>
          <gpxtpx:TrackPointExtension xmlns:gpxtpx="http://www.garmin.com/xmlschemas/TrackPointExtension/v1">
            <gpxtpx:hr>112</gpxtpx:hr>
          </gpxtpx:TrackPointExtension>
        </extensions>
      </trkpt>
      <trkpt lat="45.61845" lon="2.99715">
        <ele>912.79998779297</ele>
        <time>2024-05-26T11:25:44.000Z</time>
        <extensions>
          <gpxtpx:TrackPointExtension xmlns:gpxtpx="http://www.garmin.com/xmlschemas/TrackPointExtension/v1">
            <gpxtpx:hr>113</gpxtpx:hr>
          </gpxtpx:TrackPointExtension>
        </extensions>
      </trkpt>
      <trkpt lat="45.61853" lon="2.99704">
        <ele>913.59997558594</ele>
        <time>2024-05-26T11:25:49.000Z</time>
        <extensions>
          <gpxtpx:TrackPointExtension xmlns:gpxtpx="http://www.garmin.com/xmlschemas/TrackPointExtension/v1">
            <gpxtpx:hr>111</gpxtpx:hr>
          </gpxtpx:TrackPointExtension>
        </extensions>
      </trkpt>
      <trkpt lat="45.61854" lon="2.99702">
        <ele>913.59997558594</ele>
        <time>2024-05-26T11:25:50.000Z</time>
        <extensions>
          <gpxtpx:TrackPointExtension xmlns:gpxtpx="http://www.garmin.com/xmlschemas/TrackPointExtension/v1">
            <gpxtpx:hr>111</gpxtpx:hr>
          </gpxtpx:TrackPointExtension>
        </extensions>
      </trkpt>
      <trkpt lat="45.61858" lon="2.99698">
        <ele>914</ele>
        <time>2024-05-26T11:25:52.000Z</time>
        <extensions>
          <gpxtpx:TrackPointExtension xmlns:gpxtpx="http://www.garmin.com/xmlschemas/TrackPointExtension/v1">
            <gpxtpx:hr>110</gpxtpx:hr>
          </gpxtpx:TrackPointExtension>
        </extensions>
      </trkpt>
      <trkpt lat="45.61866" lon="2.99685">
        <ele>915.20001220703</ele>
        <time>2024-05-26T11:25:58.000Z</time>
        <extensions>
          <gpxtpx:TrackPointExtension xmlns:gpxtpx="http://www.garmin.com/xmlschemas/TrackPointExtension/v1">
            <gpxtpx:hr>111</gpxtpx:hr>
          </gpxtpx:TrackPointExtension>
        </extensions>
      </trkpt>
      <trkpt lat="45.6187" lon="2.99681">
        <ele>915.40002441406</ele>
        <time>2024-05-26T11:26:00.000Z</time>
        <extensions>
          <gpxtpx:TrackPointExtension xmlns:gpxtpx="http://www.garmin.com/xmlschemas/TrackPointExtension/v1">
            <gpxtpx:hr>111</gpxtpx:hr>
          </gpxtpx:TrackPointExtension>
        </extensions>
      </trkpt>
      <trkpt lat="45.61879" lon="2.9967">
        <ele>916.40002441406</ele>
        <time>2024-05-26T11:26:06.000Z</time>
        <extensions>
          <gpxtpx:TrackPointExtension xmlns:gpxtpx="http://www.garmin.com/xmlschemas/TrackPointExtension/v1">
            <gpxtpx:hr>114</gpxtpx:hr>
          </gpxtpx:TrackPointExtension>
        </extensions>
      </trkpt>
      <trkpt lat="45.61881" lon="2.99668">
        <ele>916.40002441406</ele>
        <time>2024-05-26T11:26:07.000Z</time>
        <extensions>
          <gpxtpx:TrackPointExtension xmlns:gpxtpx="http://www.garmin.com/xmlschemas/TrackPointExtension/v1">
            <gpxtpx:hr>115</gpxtpx:hr>
          </gpxtpx:TrackPointExtension>
        </extensions>
      </trkpt>
      <trkpt lat="45.6189" lon="2.99654">
        <ele>917.40002441406</ele>
        <time>2024-05-26T11:26:14.000Z</time>
        <extensions>
          <gpxtpx:TrackPointExtension xmlns:gpxtpx="http://www.garmin.com/xmlschemas/TrackPointExtension/v1">
            <gpxtpx:hr>115</gpxtpx:hr>
          </gpxtpx:TrackPointExtension>
        </extensions>
      </trkpt>
      <trkpt lat="45.619" lon="2.99636">
        <ele>918.40002441406</ele>
        <time>2024-05-26T11:26:22.000Z</time>
        <extensions>
          <gpxtpx:TrackPointExtension xmlns:gpxtpx="http://www.garmin.com/xmlschemas/TrackPointExtension/v1">
            <gpxtpx:hr>114</gpxtpx:hr>
          </gpxtpx:TrackPointExtension>
        </extensions>
      </trkpt>
      <trkpt lat="45.61903" lon="2.99632">
        <ele>918.79998779297</ele>
        <time>2024-05-26T11:26:24.000Z</time>
        <extensions>
          <gpxtpx:TrackPointExtension xmlns:gpxtpx="http://www.garmin.com/xmlschemas/TrackPointExtension/v1">
            <gpxtpx:hr>111</gpxtpx:hr>
          </gpxtpx:TrackPointExtension>
        </extensions>
      </trkpt>
      <trkpt lat="45.61907" lon="2.99624">
        <ele>919.59997558594</ele>
        <time>2024-05-26T11:26:28.000Z</time>
        <extensions>
          <gpxtpx:TrackPointExtension xmlns:gpxtpx="http://www.garmin.com/xmlschemas/TrackPointExtension/v1">
            <gpxtpx:hr>113</gpxtpx:hr>
          </gpxtpx:TrackPointExtension>
        </extensions>
      </trkpt>
      <trkpt lat="45.61912" lon="2.99617">
        <ele>920</ele>
        <time>2024-05-26T11:26:32.000Z</time>
        <extensions>
          <gpxtpx:TrackPointExtension xmlns:gpxtpx="http://www.garmin.com/xmlschemas/TrackPointExtension/v1">
            <gpxtpx:hr>114</gpxtpx:hr>
          </gpxtpx:TrackPointExtension>
        </extensions>
      </trkpt>
      <trkpt lat="45.61919" lon="2.99605">
        <ele>920.79998779297</ele>
        <time>2024-05-26T11:26:36.000Z</time>
        <extensions>
          <gpxtpx:TrackPointExtension xmlns:gpxtpx="http://www.garmin.com/xmlschemas/TrackPointExtension/v1">
            <gpxtpx:hr>116</gpxtpx:hr>
          </gpxtpx:TrackPointExtension>
        </extensions>
      </trkpt>
      <trkpt lat="45.61928" lon="2.99593">
        <ele>921.79998779297</ele>
        <time>2024-05-26T11:26:40.000Z</time>
        <extensions>
          <gpxtpx:TrackPointExtension xmlns:gpxtpx="http://www.garmin.com/xmlschemas/TrackPointExtension/v1">
            <gpxtpx:hr>120</gpxtpx:hr>
          </gpxtpx:TrackPointExtension>
        </extensions>
      </trkpt>
      <trkpt lat="45.61931" lon="2.9959">
        <ele>922</ele>
        <time>2024-05-26T11:26:41.000Z</time>
        <extensions>
          <gpxtpx:TrackPointExtension xmlns:gpxtpx="http://www.garmin.com/xmlschemas/TrackPointExtension/v1">
            <gpxtpx:hr>121</gpxtpx:hr>
          </gpxtpx:TrackPointExtension>
        </extensions>
      </trkpt>
      <trkpt lat="45.61934" lon="2.99588">
        <ele>922.40002441406</ele>
        <time>2024-05-26T11:26:42.000Z</time>
        <extensions>
          <gpxtpx:TrackPointExtension xmlns:gpxtpx="http://www.garmin.com/xmlschemas/TrackPointExtension/v1">
            <gpxtpx:hr>124</gpxtpx:hr>
          </gpxtpx:TrackPointExtension>
        </extensions>
      </trkpt>
      <trkpt lat="45.6194" lon="2.99586">
        <ele>923</ele>
        <time>2024-05-26T11:26:44.000Z</time>
        <extensions>
          <gpxtpx:TrackPointExtension xmlns:gpxtpx="http://www.garmin.com/xmlschemas/TrackPointExtension/v1">
            <gpxtpx:hr>128</gpxtpx:hr>
          </gpxtpx:TrackPointExtension>
        </extensions>
      </trkpt>
      <trkpt lat="45.61944" lon="2.99586">
        <ele>923.20001220703</ele>
        <time>2024-05-26T11:26:45.000Z</time>
        <extensions>
          <gpxtpx:TrackPointExtension xmlns:gpxtpx="http://www.garmin.com/xmlschemas/TrackPointExtension/v1">
            <gpxtpx:hr>129</gpxtpx:hr>
          </gpxtpx:TrackPointExtension>
        </extensions>
      </trkpt>
      <trkpt lat="45.61956" lon="2.99593">
        <ele>924.40002441406</ele>
        <time>2024-05-26T11:26:49.000Z</time>
        <extensions>
          <gpxtpx:TrackPointExtension xmlns:gpxtpx="http://www.garmin.com/xmlschemas/TrackPointExtension/v1">
            <gpxtpx:hr>130</gpxtpx:hr>
          </gpxtpx:TrackPointExtension>
        </extensions>
      </trkpt>
      <trkpt lat="45.61958" lon="2.99596">
        <ele>924.59997558594</ele>
        <time>2024-05-26T11:26:50.000Z</time>
        <extensions>
          <gpxtpx:TrackPointExtension xmlns:gpxtpx="http://www.garmin.com/xmlschemas/TrackPointExtension/v1">
            <gpxtpx:hr>129</gpxtpx:hr>
          </gpxtpx:TrackPointExtension>
        </extensions>
      </trkpt>
      <trkpt lat="45.61962" lon="2.99608">
        <ele>925.59997558594</ele>
        <time>2024-05-26T11:26:53.000Z</time>
        <extensions>
          <gpxtpx:TrackPointExtension xmlns:gpxtpx="http://www.garmin.com/xmlschemas/TrackPointExtension/v1">
            <gpxtpx:hr>129</gpxtpx:hr>
          </gpxtpx:TrackPointExtension>
        </extensions>
      </trkpt>
      <trkpt lat="45.61964" lon="2.99615">
        <ele>926.40002441406</ele>
        <time>2024-05-26T11:26:55.000Z</time>
        <extensions>
          <gpxtpx:TrackPointExtension xmlns:gpxtpx="http://www.garmin.com/xmlschemas/TrackPointExtension/v1">
            <gpxtpx:hr>130</gpxtpx:hr>
          </gpxtpx:TrackPointExtension>
        </extensions>
      </trkpt>
      <trkpt lat="45.61964" lon="2.99621">
        <ele>926.79998779297</ele>
        <time>2024-05-26T11:26:57.000Z</time>
        <extensions>
          <gpxtpx:TrackPointExtension xmlns:gpxtpx="http://www.garmin.com/xmlschemas/TrackPointExtension/v1">
            <gpxtpx:hr>130</gpxtpx:hr>
          </gpxtpx:TrackPointExtension>
        </extensions>
      </trkpt>
      <trkpt lat="45.61962" lon="2.99631">
        <ele>927.40002441406</ele>
        <time>2024-05-26T11:27:00.000Z</time>
        <extensions>
          <gpxtpx:TrackPointExtension xmlns:gpxtpx="http://www.garmin.com/xmlschemas/TrackPointExtension/v1">
            <gpxtpx:hr>131</gpxtpx:hr>
          </gpxtpx:TrackPointExtension>
        </extensions>
      </trkpt>
      <trkpt lat="45.61962" lon="2.99635">
        <ele>927.79998779297</ele>
        <time>2024-05-26T11:27:01.000Z</time>
        <extensions>
          <gpxtpx:TrackPointExtension xmlns:gpxtpx="http://www.garmin.com/xmlschemas/TrackPointExtension/v1">
            <gpxtpx:hr>131</gpxtpx:hr>
          </gpxtpx:TrackPointExtension>
        </extensions>
      </trkpt>
      <trkpt lat="45.61966" lon="2.99658">
        <ele>928.59997558594</ele>
        <time>2024-05-26T11:27:07.000Z</time>
        <extensions>
          <gpxtpx:TrackPointExtension xmlns:gpxtpx="http://www.garmin.com/xmlschemas/TrackPointExtension/v1">
            <gpxtpx:hr>129</gpxtpx:hr>
          </gpxtpx:TrackPointExtension>
        </extensions>
      </trkpt>
      <trkpt lat="45.61971" lon="2.99666">
        <ele>928.79998779297</ele>
        <time>2024-05-26T11:27:10.000Z</time>
        <extensions>
          <gpxtpx:TrackPointExtension xmlns:gpxtpx="http://www.garmin.com/xmlschemas/TrackPointExtension/v1">
            <gpxtpx:hr>128</gpxtpx:hr>
          </gpxtpx:TrackPointExtension>
        </extensions>
      </trkpt>
      <trkpt lat="45.61977" lon="2.99673">
        <ele>929.20001220703</ele>
        <time>2024-05-26T11:27:13.000Z</time>
        <extensions>
          <gpxtpx:TrackPointExtension xmlns:gpxtpx="http://www.garmin.com/xmlschemas/TrackPointExtension/v1">
            <gpxtpx:hr>128</gpxtpx:hr>
          </gpxtpx:TrackPointExtension>
        </extensions>
      </trkpt>
      <trkpt lat="45.61985" lon="2.99679">
        <ele>930</ele>
        <time>2024-05-26T11:27:17.000Z</time>
        <extensions>
          <gpxtpx:TrackPointExtension xmlns:gpxtpx="http://www.garmin.com/xmlschemas/TrackPointExtension/v1">
            <gpxtpx:hr>129</gpxtpx:hr>
          </gpxtpx:TrackPointExtension>
        </extensions>
      </trkpt>
      <trkpt lat="45.61992" lon="2.99682">
        <ele>930.40002441406</ele>
        <time>2024-05-26T11:27:21.000Z</time>
        <extensions>
          <gpxtpx:TrackPointExtension xmlns:gpxtpx="http://www.garmin.com/xmlschemas/TrackPointExtension/v1">
            <gpxtpx:hr>130</gpxtpx:hr>
          </gpxtpx:TrackPointExtension>
        </extensions>
      </trkpt>
      <trkpt lat="45.62014" lon="2.99685">
        <ele>930</ele>
        <time>2024-05-26T11:27:29.000Z</time>
        <extensions>
          <gpxtpx:TrackPointExtension xmlns:gpxtpx="http://www.garmin.com/xmlschemas/TrackPointExtension/v1">
            <gpxtpx:hr>128</gpxtpx:hr>
          </gpxtpx:TrackPointExtension>
        </extensions>
      </trkpt>
      <trkpt lat="45.62028" lon="2.99683">
        <ele>929.20001220703</ele>
        <time>2024-05-26T11:27:32.000Z</time>
        <extensions>
          <gpxtpx:TrackPointExtension xmlns:gpxtpx="http://www.garmin.com/xmlschemas/TrackPointExtension/v1">
            <gpxtpx:hr>128</gpxtpx:hr>
          </gpxtpx:TrackPointExtension>
        </extensions>
      </trkpt>
      <trkpt lat="45.62033" lon="2.9968">
        <ele>928.79998779297</ele>
        <time>2024-05-26T11:27:33.000Z</time>
        <extensions>
          <gpxtpx:TrackPointExtension xmlns:gpxtpx="http://www.garmin.com/xmlschemas/TrackPointExtension/v1">
            <gpxtpx:hr>127</gpxtpx:hr>
          </gpxtpx:TrackPointExtension>
        </extensions>
      </trkpt>
      <trkpt lat="45.62039" lon="2.99677">
        <ele>928.79998779297</ele>
        <time>2024-05-26T11:27:34.000Z</time>
        <extensions>
          <gpxtpx:TrackPointExtension xmlns:gpxtpx="http://www.garmin.com/xmlschemas/TrackPointExtension/v1">
            <gpxtpx:hr>126</gpxtpx:hr>
          </gpxtpx:TrackPointExtension>
        </extensions>
      </trkpt>
      <trkpt lat="45.62057" lon="2.99666">
        <ele>927.59997558594</ele>
        <time>2024-05-26T11:27:37.000Z</time>
        <extensions>
          <gpxtpx:TrackPointExtension xmlns:gpxtpx="http://www.garmin.com/xmlschemas/TrackPointExtension/v1">
            <gpxtpx:hr>124</gpxtpx:hr>
          </gpxtpx:TrackPointExtension>
        </extensions>
      </trkpt>
      <trkpt lat="45.62071" lon="2.99657">
        <ele>927</ele>
        <time>2024-05-26T11:27:39.000Z</time>
        <extensions>
          <gpxtpx:TrackPointExtension xmlns:gpxtpx="http://www.garmin.com/xmlschemas/TrackPointExtension/v1">
            <gpxtpx:hr>123</gpxtpx:hr>
          </gpxtpx:TrackPointExtension>
        </extensions>
      </trkpt>
      <trkpt lat="45.62086" lon="2.99646">
        <ele>925</ele>
        <time>2024-05-26T11:27:41.000Z</time>
        <extensions>
          <gpxtpx:TrackPointExtension xmlns:gpxtpx="http://www.garmin.com/xmlschemas/TrackPointExtension/v1">
            <gpxtpx:hr>123</gpxtpx:hr>
          </gpxtpx:TrackPointExtension>
        </extensions>
      </trkpt>
      <trkpt lat="45.62093" lon="2.9964">
        <ele>924.20001220703</ele>
        <time>2024-05-26T11:27:42.000Z</time>
        <extensions>
          <gpxtpx:TrackPointExtension xmlns:gpxtpx="http://www.garmin.com/xmlschemas/TrackPointExtension/v1">
            <gpxtpx:hr>122</gpxtpx:hr>
          </gpxtpx:TrackPointExtension>
        </extensions>
      </trkpt>
      <trkpt lat="45.62101" lon="2.99632">
        <ele>923.79998779297</ele>
        <time>2024-05-26T11:27:43.000Z</time>
        <extensions>
          <gpxtpx:TrackPointExtension xmlns:gpxtpx="http://www.garmin.com/xmlschemas/TrackPointExtension/v1">
            <gpxtpx:hr>122</gpxtpx:hr>
          </gpxtpx:TrackPointExtension>
        </extensions>
      </trkpt>
      <trkpt lat="45.62107" lon="2.99622">
        <ele>923.20001220703</ele>
        <time>2024-05-26T11:27:44.000Z</time>
        <extensions>
          <gpxtpx:TrackPointExtension xmlns:gpxtpx="http://www.garmin.com/xmlschemas/TrackPointExtension/v1">
            <gpxtpx:hr>122</gpxtpx:hr>
          </gpxtpx:TrackPointExtension>
        </extensions>
      </trkpt>
      <trkpt lat="45.62119" lon="2.99599">
        <ele>922.59997558594</ele>
        <time>2024-05-26T11:27:46.000Z</time>
        <extensions>
          <gpxtpx:TrackPointExtension xmlns:gpxtpx="http://www.garmin.com/xmlschemas/TrackPointExtension/v1">
            <gpxtpx:hr>122</gpxtpx:hr>
          </gpxtpx:TrackPointExtension>
        </extensions>
      </trkpt>
      <trkpt lat="45.62123" lon="2.99586">
        <ele>918.79998779297</ele>
        <time>2024-05-26T11:27:47.000Z</time>
        <extensions>
          <gpxtpx:TrackPointExtension xmlns:gpxtpx="http://www.garmin.com/xmlschemas/TrackPointExtension/v1">
            <gpxtpx:hr>123</gpxtpx:hr>
          </gpxtpx:TrackPointExtension>
        </extensions>
      </trkpt>
      <trkpt lat="45.62128" lon="2.99572">
        <ele>918.79998779297</ele>
        <time>2024-05-26T11:27:48.000Z</time>
        <extensions>
          <gpxtpx:TrackPointExtension xmlns:gpxtpx="http://www.garmin.com/xmlschemas/TrackPointExtension/v1">
            <gpxtpx:hr>120</gpxtpx:hr>
          </gpxtpx:TrackPointExtension>
        </extensions>
      </trkpt>
      <trkpt lat="45.62135" lon="2.99542">
        <ele>917.79998779297</ele>
        <time>2024-05-26T11:27:50.000Z</time>
        <extensions>
          <gpxtpx:TrackPointExtension xmlns:gpxtpx="http://www.garmin.com/xmlschemas/TrackPointExtension/v1">
            <gpxtpx:hr>119</gpxtpx:hr>
          </gpxtpx:TrackPointExtension>
        </extensions>
      </trkpt>
      <trkpt lat="45.6214" lon="2.9951">
        <ele>916.59997558594</ele>
        <time>2024-05-26T11:27:52.000Z</time>
        <extensions>
          <gpxtpx:TrackPointExtension xmlns:gpxtpx="http://www.garmin.com/xmlschemas/TrackPointExtension/v1">
            <gpxtpx:hr>121</gpxtpx:hr>
          </gpxtpx:TrackPointExtension>
        </extensions>
      </trkpt>
      <trkpt lat="45.62143" lon="2.99494">
        <ele>916.59997558594</ele>
        <time>2024-05-26T11:27:53.000Z</time>
        <extensions>
          <gpxtpx:TrackPointExtension xmlns:gpxtpx="http://www.garmin.com/xmlschemas/TrackPointExtension/v1">
            <gpxtpx:hr>118</gpxtpx:hr>
          </gpxtpx:TrackPointExtension>
        </extensions>
      </trkpt>
      <trkpt lat="45.62147" lon="2.99461">
        <ele>915.59997558594</ele>
        <time>2024-05-26T11:27:55.000Z</time>
        <extensions>
          <gpxtpx:TrackPointExtension xmlns:gpxtpx="http://www.garmin.com/xmlschemas/TrackPointExtension/v1">
            <gpxtpx:hr>118</gpxtpx:hr>
          </gpxtpx:TrackPointExtension>
        </extensions>
      </trkpt>
      <trkpt lat="45.62148" lon="2.99444">
        <ele>915.20001220703</ele>
        <time>2024-05-26T11:27:56.000Z</time>
        <extensions>
          <gpxtpx:TrackPointExtension xmlns:gpxtpx="http://www.garmin.com/xmlschemas/TrackPointExtension/v1">
            <gpxtpx:hr>116</gpxtpx:hr>
          </gpxtpx:TrackPointExtension>
        </extensions>
      </trkpt>
      <trkpt lat="45.62149" lon="2.99427">
        <ele>913.79998779297</ele>
        <time>2024-05-26T11:27:57.000Z</time>
        <extensions>
          <gpxtpx:TrackPointExtension xmlns:gpxtpx="http://www.garmin.com/xmlschemas/TrackPointExtension/v1">
            <gpxtpx:hr>116</gpxtpx:hr>
          </gpxtpx:TrackPointExtension>
        </extensions>
      </trkpt>
      <trkpt lat="45.62151" lon="2.99391">
        <ele>912</ele>
        <time>2024-05-26T11:27:59.000Z</time>
        <extensions>
          <gpxtpx:TrackPointExtension xmlns:gpxtpx="http://www.garmin.com/xmlschemas/TrackPointExtension/v1">
            <gpxtpx:hr>116</gpxtpx:hr>
          </gpxtpx:TrackPointExtension>
        </extensions>
      </trkpt>
      <trkpt lat="45.62153" lon="2.99357">
        <ele>910.59997558594</ele>
        <time>2024-05-26T11:28:01.000Z</time>
        <extensions>
          <gpxtpx:TrackPointExtension xmlns:gpxtpx="http://www.garmin.com/xmlschemas/TrackPointExtension/v1">
            <gpxtpx:hr>115</gpxtpx:hr>
          </gpxtpx:TrackPointExtension>
        </extensions>
      </trkpt>
      <trkpt lat="45.62152" lon="2.99341">
        <ele>909.40002441406</ele>
        <time>2024-05-26T11:28:02.000Z</time>
        <extensions>
          <gpxtpx:TrackPointExtension xmlns:gpxtpx="http://www.garmin.com/xmlschemas/TrackPointExtension/v1">
            <gpxtpx:hr>116</gpxtpx:hr>
          </gpxtpx:TrackPointExtension>
        </extensions>
      </trkpt>
      <trkpt lat="45.62149" lon="2.99325">
        <ele>908.59997558594</ele>
        <time>2024-05-26T11:28:03.000Z</time>
        <extensions>
          <gpxtpx:TrackPointExtension xmlns:gpxtpx="http://www.garmin.com/xmlschemas/TrackPointExtension/v1">
            <gpxtpx:hr>115</gpxtpx:hr>
          </gpxtpx:TrackPointExtension>
        </extensions>
      </trkpt>
      <trkpt lat="45.62145" lon="2.99309">
        <ele>907.20001220703</ele>
        <time>2024-05-26T11:28:04.000Z</time>
        <extensions>
          <gpxtpx:TrackPointExtension xmlns:gpxtpx="http://www.garmin.com/xmlschemas/TrackPointExtension/v1">
            <gpxtpx:hr>115</gpxtpx:hr>
          </gpxtpx:TrackPointExtension>
        </extensions>
      </trkpt>
      <trkpt lat="45.6214" lon="2.99294">
        <ele>906.20001220703</ele>
        <time>2024-05-26T11:28:05.000Z</time>
        <extensions>
          <gpxtpx:TrackPointExtension xmlns:gpxtpx="http://www.garmin.com/xmlschemas/TrackPointExtension/v1">
            <gpxtpx:hr>115</gpxtpx:hr>
          </gpxtpx:TrackPointExtension>
        </extensions>
      </trkpt>
      <trkpt lat="45.62135" lon="2.99277">
        <ele>905.79998779297</ele>
        <time>2024-05-26T11:28:06.000Z</time>
        <extensions>
          <gpxtpx:TrackPointExtension xmlns:gpxtpx="http://www.garmin.com/xmlschemas/TrackPointExtension/v1">
            <gpxtpx:hr>115</gpxtpx:hr>
          </gpxtpx:TrackPointExtension>
        </extensions>
      </trkpt>
      <trkpt lat="45.62133" lon="2.9926">
        <ele>905.40002441406</ele>
        <time>2024-05-26T11:28:07.000Z</time>
        <extensions>
          <gpxtpx:TrackPointExtension xmlns:gpxtpx="http://www.garmin.com/xmlschemas/TrackPointExtension/v1">
            <gpxtpx:hr>114</gpxtpx:hr>
          </gpxtpx:TrackPointExtension>
        </extensions>
      </trkpt>
      <trkpt lat="45.62131" lon="2.99242">
        <ele>903.79998779297</ele>
        <time>2024-05-26T11:28:08.000Z</time>
        <extensions>
          <gpxtpx:TrackPointExtension xmlns:gpxtpx="http://www.garmin.com/xmlschemas/TrackPointExtension/v1">
            <gpxtpx:hr>114</gpxtpx:hr>
          </gpxtpx:TrackPointExtension>
        </extensions>
      </trkpt>
      <trkpt lat="45.62129" lon="2.99227">
        <ele>902.79998779297</ele>
        <time>2024-05-26T11:28:09.000Z</time>
        <extensions>
          <gpxtpx:TrackPointExtension xmlns:gpxtpx="http://www.garmin.com/xmlschemas/TrackPointExtension/v1">
            <gpxtpx:hr>113</gpxtpx:hr>
          </gpxtpx:TrackPointExtension>
        </extensions>
      </trkpt>
      <trkpt lat="45.62128" lon="2.99209">
        <ele>901</ele>
        <time>2024-05-26T11:28:10.000Z</time>
        <extensions>
          <gpxtpx:TrackPointExtension xmlns:gpxtpx="http://www.garmin.com/xmlschemas/TrackPointExtension/v1">
            <gpxtpx:hr>113</gpxtpx:hr>
          </gpxtpx:TrackPointExtension>
        </extensions>
      </trkpt>
      <trkpt lat="45.62125" lon="2.99171">
        <ele>899.79998779297</ele>
        <time>2024-05-26T11:28:12.000Z</time>
        <extensions>
          <gpxtpx:TrackPointExtension xmlns:gpxtpx="http://www.garmin.com/xmlschemas/TrackPointExtension/v1">
            <gpxtpx:hr>109</gpxtpx:hr>
          </gpxtpx:TrackPointExtension>
        </extensions>
      </trkpt>
      <trkpt lat="45.62123" lon="2.99134">
        <ele>898.40002441406</ele>
        <time>2024-05-26T11:28:14.000Z</time>
        <extensions>
          <gpxtpx:TrackPointExtension xmlns:gpxtpx="http://www.garmin.com/xmlschemas/TrackPointExtension/v1">
            <gpxtpx:hr>108</gpxtpx:hr>
          </gpxtpx:TrackPointExtension>
        </extensions>
      </trkpt>
      <trkpt lat="45.62125" lon="2.99098">
        <ele>896.59997558594</ele>
        <time>2024-05-26T11:28:16.000Z</time>
        <extensions>
          <gpxtpx:TrackPointExtension xmlns:gpxtpx="http://www.garmin.com/xmlschemas/TrackPointExtension/v1">
            <gpxtpx:hr>106</gpxtpx:hr>
          </gpxtpx:TrackPointExtension>
        </extensions>
      </trkpt>
      <trkpt lat="45.62128" lon="2.99076">
        <ele>895</ele>
        <time>2024-05-26T11:28:17.000Z</time>
        <extensions>
          <gpxtpx:TrackPointExtension xmlns:gpxtpx="http://www.garmin.com/xmlschemas/TrackPointExtension/v1">
            <gpxtpx:hr>106</gpxtpx:hr>
          </gpxtpx:TrackPointExtension>
        </extensions>
      </trkpt>
      <trkpt lat="45.62134" lon="2.9906">
        <ele>894</ele>
        <time>2024-05-26T11:28:18.000Z</time>
        <extensions>
          <gpxtpx:TrackPointExtension xmlns:gpxtpx="http://www.garmin.com/xmlschemas/TrackPointExtension/v1">
            <gpxtpx:hr>106</gpxtpx:hr>
          </gpxtpx:TrackPointExtension>
        </extensions>
      </trkpt>
      <trkpt lat="45.62149" lon="2.99029">
        <ele>892.40002441406</ele>
        <time>2024-05-26T11:28:20.000Z</time>
        <extensions>
          <gpxtpx:TrackPointExtension xmlns:gpxtpx="http://www.garmin.com/xmlschemas/TrackPointExtension/v1">
            <gpxtpx:hr>105</gpxtpx:hr>
          </gpxtpx:TrackPointExtension>
        </extensions>
      </trkpt>
      <trkpt lat="45.62164" lon="2.98997">
        <ele>890.79998779297</ele>
        <time>2024-05-26T11:28:22.000Z</time>
        <extensions>
          <gpxtpx:TrackPointExtension xmlns:gpxtpx="http://www.garmin.com/xmlschemas/TrackPointExtension/v1">
            <gpxtpx:hr>105</gpxtpx:hr>
          </gpxtpx:TrackPointExtension>
        </extensions>
      </trkpt>
      <trkpt lat="45.62179" lon="2.98967">
        <ele>889.40002441406</ele>
        <time>2024-05-26T11:28:24.000Z</time>
        <extensions>
          <gpxtpx:TrackPointExtension xmlns:gpxtpx="http://www.garmin.com/xmlschemas/TrackPointExtension/v1">
            <gpxtpx:hr>106</gpxtpx:hr>
          </gpxtpx:TrackPointExtension>
        </extensions>
      </trkpt>
      <trkpt lat="45.62187" lon="2.98953">
        <ele>889</ele>
        <time>2024-05-26T11:28:25.000Z</time>
        <extensions>
          <gpxtpx:TrackPointExtension xmlns:gpxtpx="http://www.garmin.com/xmlschemas/TrackPointExtension/v1">
            <gpxtpx:hr>106</gpxtpx:hr>
          </gpxtpx:TrackPointExtension>
        </extensions>
      </trkpt>
      <trkpt lat="45.62196" lon="2.98943">
        <ele>888</ele>
        <time>2024-05-26T11:28:26.000Z</time>
        <extensions>
          <gpxtpx:TrackPointExtension xmlns:gpxtpx="http://www.garmin.com/xmlschemas/TrackPointExtension/v1">
            <gpxtpx:hr>107</gpxtpx:hr>
          </gpxtpx:TrackPointExtension>
        </extensions>
      </trkpt>
      <trkpt lat="45.62205" lon="2.98935">
        <ele>886.20001220703</ele>
        <time>2024-05-26T11:28:27.000Z</time>
        <extensions>
          <gpxtpx:TrackPointExtension xmlns:gpxtpx="http://www.garmin.com/xmlschemas/TrackPointExtension/v1">
            <gpxtpx:hr>107</gpxtpx:hr>
          </gpxtpx:TrackPointExtension>
        </extensions>
      </trkpt>
      <trkpt lat="45.62216" lon="2.98932">
        <ele>885</ele>
        <time>2024-05-26T11:28:28.000Z</time>
        <extensions>
          <gpxtpx:TrackPointExtension xmlns:gpxtpx="http://www.garmin.com/xmlschemas/TrackPointExtension/v1">
            <gpxtpx:hr>107</gpxtpx:hr>
          </gpxtpx:TrackPointExtension>
        </extensions>
      </trkpt>
      <trkpt lat="45.62228" lon="2.98931">
        <ele>883.59997558594</ele>
        <time>2024-05-26T11:28:29.000Z</time>
        <extensions>
          <gpxtpx:TrackPointExtension xmlns:gpxtpx="http://www.garmin.com/xmlschemas/TrackPointExtension/v1">
            <gpxtpx:hr>107</gpxtpx:hr>
          </gpxtpx:TrackPointExtension>
        </extensions>
      </trkpt>
      <trkpt lat="45.62251" lon="2.98933">
        <ele>883</ele>
        <time>2024-05-26T11:28:31.000Z</time>
        <extensions>
          <gpxtpx:TrackPointExtension xmlns:gpxtpx="http://www.garmin.com/xmlschemas/TrackPointExtension/v1">
            <gpxtpx:hr>109</gpxtpx:hr>
          </gpxtpx:TrackPointExtension>
        </extensions>
      </trkpt>
      <trkpt lat="45.62263" lon="2.98935">
        <ele>882</ele>
        <time>2024-05-26T11:28:32.000Z</time>
        <extensions>
          <gpxtpx:TrackPointExtension xmlns:gpxtpx="http://www.garmin.com/xmlschemas/TrackPointExtension/v1">
            <gpxtpx:hr>109</gpxtpx:hr>
          </gpxtpx:TrackPointExtension>
        </extensions>
      </trkpt>
      <trkpt lat="45.62273" lon="2.98935">
        <ele>880.79998779297</ele>
        <time>2024-05-26T11:28:33.000Z</time>
        <extensions>
          <gpxtpx:TrackPointExtension xmlns:gpxtpx="http://www.garmin.com/xmlschemas/TrackPointExtension/v1">
            <gpxtpx:hr>110</gpxtpx:hr>
          </gpxtpx:TrackPointExtension>
        </extensions>
      </trkpt>
      <trkpt lat="45.62293" lon="2.98927">
        <ele>879.59997558594</ele>
        <time>2024-05-26T11:28:35.000Z</time>
        <extensions>
          <gpxtpx:TrackPointExtension xmlns:gpxtpx="http://www.garmin.com/xmlschemas/TrackPointExtension/v1">
            <gpxtpx:hr>113</gpxtpx:hr>
          </gpxtpx:TrackPointExtension>
        </extensions>
      </trkpt>
      <trkpt lat="45.62307" lon="2.9891">
        <ele>877.40002441406</ele>
        <time>2024-05-26T11:28:37.000Z</time>
        <extensions>
          <gpxtpx:TrackPointExtension xmlns:gpxtpx="http://www.garmin.com/xmlschemas/TrackPointExtension/v1">
            <gpxtpx:hr>114</gpxtpx:hr>
          </gpxtpx:TrackPointExtension>
        </extensions>
      </trkpt>
      <trkpt lat="45.62313" lon="2.98898">
        <ele>876.40002441406</ele>
        <time>2024-05-26T11:28:38.000Z</time>
        <extensions>
          <gpxtpx:TrackPointExtension xmlns:gpxtpx="http://www.garmin.com/xmlschemas/TrackPointExtension/v1">
            <gpxtpx:hr>114</gpxtpx:hr>
          </gpxtpx:TrackPointExtension>
        </extensions>
      </trkpt>
      <trkpt lat="45.62316" lon="2.98885">
        <ele>876</ele>
        <time>2024-05-26T11:28:39.000Z</time>
        <extensions>
          <gpxtpx:TrackPointExtension xmlns:gpxtpx="http://www.garmin.com/xmlschemas/TrackPointExtension/v1">
            <gpxtpx:hr>115</gpxtpx:hr>
          </gpxtpx:TrackPointExtension>
        </extensions>
      </trkpt>
      <trkpt lat="45.62317" lon="2.98869">
        <ele>875.40002441406</ele>
        <time>2024-05-26T11:28:40.000Z</time>
        <extensions>
          <gpxtpx:TrackPointExtension xmlns:gpxtpx="http://www.garmin.com/xmlschemas/TrackPointExtension/v1">
            <gpxtpx:hr>116</gpxtpx:hr>
          </gpxtpx:TrackPointExtension>
        </extensions>
      </trkpt>
      <trkpt lat="45.62316" lon="2.98853">
        <ele>874.79998779297</ele>
        <time>2024-05-26T11:28:41.000Z</time>
        <extensions>
          <gpxtpx:TrackPointExtension xmlns:gpxtpx="http://www.garmin.com/xmlschemas/TrackPointExtension/v1">
            <gpxtpx:hr>116</gpxtpx:hr>
          </gpxtpx:TrackPointExtension>
        </extensions>
      </trkpt>
      <trkpt lat="45.62315" lon="2.98833">
        <ele>874.20001220703</ele>
        <time>2024-05-26T11:28:42.000Z</time>
        <extensions>
          <gpxtpx:TrackPointExtension xmlns:gpxtpx="http://www.garmin.com/xmlschemas/TrackPointExtension/v1">
            <gpxtpx:hr>117</gpxtpx:hr>
          </gpxtpx:TrackPointExtension>
        </extensions>
      </trkpt>
      <trkpt lat="45.62314" lon="2.98817">
        <ele>872.79998779297</ele>
        <time>2024-05-26T11:28:43.000Z</time>
        <extensions>
          <gpxtpx:TrackPointExtension xmlns:gpxtpx="http://www.garmin.com/xmlschemas/TrackPointExtension/v1">
            <gpxtpx:hr>116</gpxtpx:hr>
          </gpxtpx:TrackPointExtension>
        </extensions>
      </trkpt>
      <trkpt lat="45.62315" lon="2.9878">
        <ele>871.79998779297</ele>
        <time>2024-05-26T11:28:45.000Z</time>
        <extensions>
          <gpxtpx:TrackPointExtension xmlns:gpxtpx="http://www.garmin.com/xmlschemas/TrackPointExtension/v1">
            <gpxtpx:hr>117</gpxtpx:hr>
          </gpxtpx:TrackPointExtension>
        </extensions>
      </trkpt>
      <trkpt lat="45.62318" lon="2.98763">
        <ele>871.40002441406</ele>
        <time>2024-05-26T11:28:46.000Z</time>
        <extensions>
          <gpxtpx:TrackPointExtension xmlns:gpxtpx="http://www.garmin.com/xmlschemas/TrackPointExtension/v1">
            <gpxtpx:hr>117</gpxtpx:hr>
          </gpxtpx:TrackPointExtension>
        </extensions>
      </trkpt>
      <trkpt lat="45.62323" lon="2.98747">
        <ele>870.20001220703</ele>
        <time>2024-05-26T11:28:47.000Z</time>
        <extensions>
          <gpxtpx:TrackPointExtension xmlns:gpxtpx="http://www.garmin.com/xmlschemas/TrackPointExtension/v1">
            <gpxtpx:hr>117</gpxtpx:hr>
          </gpxtpx:TrackPointExtension>
        </extensions>
      </trkpt>
      <trkpt lat="45.62328" lon="2.98732">
        <ele>869.59997558594</ele>
        <time>2024-05-26T11:28:48.000Z</time>
        <extensions>
          <gpxtpx:TrackPointExtension xmlns:gpxtpx="http://www.garmin.com/xmlschemas/TrackPointExtension/v1">
            <gpxtpx:hr>117</gpxtpx:hr>
          </gpxtpx:TrackPointExtension>
        </extensions>
      </trkpt>
      <trkpt lat="45.62342" lon="2.98712">
        <ele>868</ele>
        <time>2024-05-26T11:28:50.000Z</time>
        <extensions>
          <gpxtpx:TrackPointExtension xmlns:gpxtpx="http://www.garmin.com/xmlschemas/TrackPointExtension/v1">
            <gpxtpx:hr>117</gpxtpx:hr>
          </gpxtpx:TrackPointExtension>
        </extensions>
      </trkpt>
      <trkpt lat="45.6236" lon="2.98708">
        <ele>867.20001220703</ele>
        <time>2024-05-26T11:28:52.000Z</time>
        <extensions>
          <gpxtpx:TrackPointExtension xmlns:gpxtpx="http://www.garmin.com/xmlschemas/TrackPointExtension/v1">
            <gpxtpx:hr>117</gpxtpx:hr>
          </gpxtpx:TrackPointExtension>
        </extensions>
      </trkpt>
      <trkpt lat="45.62367" lon="2.98714">
        <ele>867</ele>
        <time>2024-05-26T11:28:53.000Z</time>
        <extensions>
          <gpxtpx:TrackPointExtension xmlns:gpxtpx="http://www.garmin.com/xmlschemas/TrackPointExtension/v1">
            <gpxtpx:hr>117</gpxtpx:hr>
          </gpxtpx:TrackPointExtension>
        </extensions>
      </trkpt>
      <trkpt lat="45.6237" lon="2.98728">
        <ele>866.79998779297</ele>
        <time>2024-05-26T11:28:54.000Z</time>
        <extensions>
          <gpxtpx:TrackPointExtension xmlns:gpxtpx="http://www.garmin.com/xmlschemas/TrackPointExtension/v1">
            <gpxtpx:hr>117</gpxtpx:hr>
          </gpxtpx:TrackPointExtension>
        </extensions>
      </trkpt>
      <trkpt lat="45.62369" lon="2.98757">
        <ele>866.59997558594</ele>
        <time>2024-05-26T11:28:56.000Z</time>
        <extensions>
          <gpxtpx:TrackPointExtension xmlns:gpxtpx="http://www.garmin.com/xmlschemas/TrackPointExtension/v1">
            <gpxtpx:hr>117</gpxtpx:hr>
          </gpxtpx:TrackPointExtension>
        </extensions>
      </trkpt>
      <trkpt lat="45.62367" lon="2.98771">
        <ele>866.40002441406</ele>
        <time>2024-05-26T11:28:57.000Z</time>
        <extensions>
          <gpxtpx:TrackPointExtension xmlns:gpxtpx="http://www.garmin.com/xmlschemas/TrackPointExtension/v1">
            <gpxtpx:hr>116</gpxtpx:hr>
          </gpxtpx:TrackPointExtension>
        </extensions>
      </trkpt>
      <trkpt lat="45.62366" lon="2.98785">
        <ele>866.20001220703</ele>
        <time>2024-05-26T11:28:58.000Z</time>
        <extensions>
          <gpxtpx:TrackPointExtension xmlns:gpxtpx="http://www.garmin.com/xmlschemas/TrackPointExtension/v1">
            <gpxtpx:hr>116</gpxtpx:hr>
          </gpxtpx:TrackPointExtension>
        </extensions>
      </trkpt>
      <trkpt lat="45.62367" lon="2.98799">
        <ele>865.40002441406</ele>
        <time>2024-05-26T11:28:59.000Z</time>
        <extensions>
          <gpxtpx:TrackPointExtension xmlns:gpxtpx="http://www.garmin.com/xmlschemas/TrackPointExtension/v1">
            <gpxtpx:hr>115</gpxtpx:hr>
          </gpxtpx:TrackPointExtension>
        </extensions>
      </trkpt>
      <trkpt lat="45.62371" lon="2.98812">
        <ele>863.59997558594</ele>
        <time>2024-05-26T11:29:00.000Z</time>
        <extensions>
          <gpxtpx:TrackPointExtension xmlns:gpxtpx="http://www.garmin.com/xmlschemas/TrackPointExtension/v1">
            <gpxtpx:hr>116</gpxtpx:hr>
          </gpxtpx:TrackPointExtension>
        </extensions>
      </trkpt>
      <trkpt lat="45.62378" lon="2.98824">
        <ele>862.59997558594</ele>
        <time>2024-05-26T11:29:01.000Z</time>
        <extensions>
          <gpxtpx:TrackPointExtension xmlns:gpxtpx="http://www.garmin.com/xmlschemas/TrackPointExtension/v1">
            <gpxtpx:hr>116</gpxtpx:hr>
          </gpxtpx:TrackPointExtension>
        </extensions>
      </trkpt>
      <trkpt lat="45.62386" lon="2.98833">
        <ele>861.79998779297</ele>
        <time>2024-05-26T11:29:02.000Z</time>
        <extensions>
          <gpxtpx:TrackPointExtension xmlns:gpxtpx="http://www.garmin.com/xmlschemas/TrackPointExtension/v1">
            <gpxtpx:hr>115</gpxtpx:hr>
          </gpxtpx:TrackPointExtension>
        </extensions>
      </trkpt>
      <trkpt lat="45.62395" lon="2.98838">
        <ele>861</ele>
        <time>2024-05-26T11:29:03.000Z</time>
        <extensions>
          <gpxtpx:TrackPointExtension xmlns:gpxtpx="http://www.garmin.com/xmlschemas/TrackPointExtension/v1">
            <gpxtpx:hr>115</gpxtpx:hr>
          </gpxtpx:TrackPointExtension>
        </extensions>
      </trkpt>
      <trkpt lat="45.62404" lon="2.98839">
        <ele>860.40002441406</ele>
        <time>2024-05-26T11:29:04.000Z</time>
        <extensions>
          <gpxtpx:TrackPointExtension xmlns:gpxtpx="http://www.garmin.com/xmlschemas/TrackPointExtension/v1">
            <gpxtpx:hr>114</gpxtpx:hr>
          </gpxtpx:TrackPointExtension>
        </extensions>
      </trkpt>
      <trkpt lat="45.62411" lon="2.98835">
        <ele>860</ele>
        <time>2024-05-26T11:29:05.000Z</time>
        <extensions>
          <gpxtpx:TrackPointExtension xmlns:gpxtpx="http://www.garmin.com/xmlschemas/TrackPointExtension/v1">
            <gpxtpx:hr>114</gpxtpx:hr>
          </gpxtpx:TrackPointExtension>
        </extensions>
      </trkpt>
      <trkpt lat="45.62425" lon="2.9883">
        <ele>859.20001220703</ele>
        <time>2024-05-26T11:29:06.000Z</time>
        <extensions>
          <gpxtpx:TrackPointExtension xmlns:gpxtpx="http://www.garmin.com/xmlschemas/TrackPointExtension/v1">
            <gpxtpx:hr>114</gpxtpx:hr>
          </gpxtpx:TrackPointExtension>
        </extensions>
      </trkpt>
      <trkpt lat="45.62438" lon="2.98825">
        <ele>857.79998779297</ele>
        <time>2024-05-26T11:29:07.000Z</time>
        <extensions>
          <gpxtpx:TrackPointExtension xmlns:gpxtpx="http://www.garmin.com/xmlschemas/TrackPointExtension/v1">
            <gpxtpx:hr>113</gpxtpx:hr>
          </gpxtpx:TrackPointExtension>
        </extensions>
      </trkpt>
      <trkpt lat="45.6245" lon="2.98822">
        <ele>857.20001220703</ele>
        <time>2024-05-26T11:29:08.000Z</time>
        <extensions>
          <gpxtpx:TrackPointExtension xmlns:gpxtpx="http://www.garmin.com/xmlschemas/TrackPointExtension/v1">
            <gpxtpx:hr>113</gpxtpx:hr>
          </gpxtpx:TrackPointExtension>
        </extensions>
      </trkpt>
      <trkpt lat="45.62462" lon="2.98821">
        <ele>856.40002441406</ele>
        <time>2024-05-26T11:29:09.000Z</time>
        <extensions>
          <gpxtpx:TrackPointExtension xmlns:gpxtpx="http://www.garmin.com/xmlschemas/TrackPointExtension/v1">
            <gpxtpx:hr>113</gpxtpx:hr>
          </gpxtpx:TrackPointExtension>
        </extensions>
      </trkpt>
      <trkpt lat="45.62488" lon="2.98819">
        <ele>853.40002441406</ele>
        <time>2024-05-26T11:29:11.000Z</time>
        <extensions>
          <gpxtpx:TrackPointExtension xmlns:gpxtpx="http://www.garmin.com/xmlschemas/TrackPointExtension/v1">
            <gpxtpx:hr>115</gpxtpx:hr>
          </gpxtpx:TrackPointExtension>
        </extensions>
      </trkpt>
      <trkpt lat="45.62501" lon="2.98816">
        <ele>852.40002441406</ele>
        <time>2024-05-26T11:29:12.000Z</time>
        <extensions>
          <gpxtpx:TrackPointExtension xmlns:gpxtpx="http://www.garmin.com/xmlschemas/TrackPointExtension/v1">
            <gpxtpx:hr>116</gpxtpx:hr>
          </gpxtpx:TrackPointExtension>
        </extensions>
      </trkpt>
      <trkpt lat="45.62513" lon="2.98811">
        <ele>852</ele>
        <time>2024-05-26T11:29:13.000Z</time>
        <extensions>
          <gpxtpx:TrackPointExtension xmlns:gpxtpx="http://www.garmin.com/xmlschemas/TrackPointExtension/v1">
            <gpxtpx:hr>114</gpxtpx:hr>
          </gpxtpx:TrackPointExtension>
        </extensions>
      </trkpt>
      <trkpt lat="45.62524" lon="2.98804">
        <ele>851.20001220703</ele>
        <time>2024-05-26T11:29:14.000Z</time>
        <extensions>
          <gpxtpx:TrackPointExtension xmlns:gpxtpx="http://www.garmin.com/xmlschemas/TrackPointExtension/v1">
            <gpxtpx:hr>114</gpxtpx:hr>
          </gpxtpx:TrackPointExtension>
        </extensions>
      </trkpt>
      <trkpt lat="45.62535" lon="2.988">
        <ele>850.20001220703</ele>
        <time>2024-05-26T11:29:15.000Z</time>
        <extensions>
          <gpxtpx:TrackPointExtension xmlns:gpxtpx="http://www.garmin.com/xmlschemas/TrackPointExtension/v1">
            <gpxtpx:hr>115</gpxtpx:hr>
          </gpxtpx:TrackPointExtension>
        </extensions>
      </trkpt>
      <trkpt lat="45.62546" lon="2.988">
        <ele>850</ele>
        <time>2024-05-26T11:29:16.000Z</time>
        <extensions>
          <gpxtpx:TrackPointExtension xmlns:gpxtpx="http://www.garmin.com/xmlschemas/TrackPointExtension/v1">
            <gpxtpx:hr>114</gpxtpx:hr>
          </gpxtpx:TrackPointExtension>
        </extensions>
      </trkpt>
      <trkpt lat="45.62556" lon="2.98803">
        <ele>849.59997558594</ele>
        <time>2024-05-26T11:29:17.000Z</time>
        <extensions>
          <gpxtpx:TrackPointExtension xmlns:gpxtpx="http://www.garmin.com/xmlschemas/TrackPointExtension/v1">
            <gpxtpx:hr>115</gpxtpx:hr>
          </gpxtpx:TrackPointExtension>
        </extensions>
      </trkpt>
      <trkpt lat="45.62574" lon="2.98815">
        <ele>848.59997558594</ele>
        <time>2024-05-26T11:29:19.000Z</time>
        <extensions>
          <gpxtpx:TrackPointExtension xmlns:gpxtpx="http://www.garmin.com/xmlschemas/TrackPointExtension/v1">
            <gpxtpx:hr>115</gpxtpx:hr>
          </gpxtpx:TrackPointExtension>
        </extensions>
      </trkpt>
      <trkpt lat="45.62583" lon="2.98822">
        <ele>847</ele>
        <time>2024-05-26T11:29:20.000Z</time>
        <extensions>
          <gpxtpx:TrackPointExtension xmlns:gpxtpx="http://www.garmin.com/xmlschemas/TrackPointExtension/v1">
            <gpxtpx:hr>116</gpxtpx:hr>
          </gpxtpx:TrackPointExtension>
        </extensions>
      </trkpt>
      <trkpt lat="45.626" lon="2.98836">
        <ele>843.40002441406</ele>
        <time>2024-05-26T11:29:22.000Z</time>
        <extensions>
          <gpxtpx:TrackPointExtension xmlns:gpxtpx="http://www.garmin.com/xmlschemas/TrackPointExtension/v1">
            <gpxtpx:hr>117</gpxtpx:hr>
          </gpxtpx:TrackPointExtension>
        </extensions>
      </trkpt>
      <trkpt lat="45.62625" lon="2.98856">
        <ele>842.20001220703</ele>
        <time>2024-05-26T11:29:25.000Z</time>
        <extensions>
          <gpxtpx:TrackPointExtension xmlns:gpxtpx="http://www.garmin.com/xmlschemas/TrackPointExtension/v1">
            <gpxtpx:hr>119</gpxtpx:hr>
          </gpxtpx:TrackPointExtension>
        </extensions>
      </trkpt>
      <trkpt lat="45.62659" lon="2.98886">
        <ele>844</ele>
        <time>2024-05-26T11:29:30.000Z</time>
        <extensions>
          <gpxtpx:TrackPointExtension xmlns:gpxtpx="http://www.garmin.com/xmlschemas/TrackPointExtension/v1">
            <gpxtpx:hr>121</gpxtpx:hr>
          </gpxtpx:TrackPointExtension>
        </extensions>
      </trkpt>
      <trkpt lat="45.62665" lon="2.9889">
        <ele>847.79998779297</ele>
        <time>2024-05-26T11:29:31.000Z</time>
        <extensions>
          <gpxtpx:TrackPointExtension xmlns:gpxtpx="http://www.garmin.com/xmlschemas/TrackPointExtension/v1">
            <gpxtpx:hr>122</gpxtpx:hr>
          </gpxtpx:TrackPointExtension>
        </extensions>
      </trkpt>
      <trkpt lat="45.62671" lon="2.98895">
        <ele>849.40002441406</ele>
        <time>2024-05-26T11:29:32.000Z</time>
        <extensions>
          <gpxtpx:TrackPointExtension xmlns:gpxtpx="http://www.garmin.com/xmlschemas/TrackPointExtension/v1">
            <gpxtpx:hr>123</gpxtpx:hr>
          </gpxtpx:TrackPointExtension>
        </extensions>
      </trkpt>
      <trkpt lat="45.62681" lon="2.98904">
        <ele>850.59997558594</ele>
        <time>2024-05-26T11:29:34.000Z</time>
        <extensions>
          <gpxtpx:TrackPointExtension xmlns:gpxtpx="http://www.garmin.com/xmlschemas/TrackPointExtension/v1">
            <gpxtpx:hr>124</gpxtpx:hr>
          </gpxtpx:TrackPointExtension>
        </extensions>
      </trkpt>
      <trkpt lat="45.6269" lon="2.98914">
        <ele>851</ele>
        <time>2024-05-26T11:29:36.000Z</time>
        <extensions>
          <gpxtpx:TrackPointExtension xmlns:gpxtpx="http://www.garmin.com/xmlschemas/TrackPointExtension/v1">
            <gpxtpx:hr>125</gpxtpx:hr>
          </gpxtpx:TrackPointExtension>
        </extensions>
      </trkpt>
      <trkpt lat="45.627" lon="2.98924">
        <ele>851</ele>
        <time>2024-05-26T11:29:38.000Z</time>
        <extensions>
          <gpxtpx:TrackPointExtension xmlns:gpxtpx="http://www.garmin.com/xmlschemas/TrackPointExtension/v1">
            <gpxtpx:hr>128</gpxtpx:hr>
          </gpxtpx:TrackPointExtension>
        </extensions>
      </trkpt>
      <trkpt lat="45.62715" lon="2.98937">
        <ele>851</ele>
        <time>2024-05-26T11:29:41.000Z</time>
        <extensions>
          <gpxtpx:TrackPointExtension xmlns:gpxtpx="http://www.garmin.com/xmlschemas/TrackPointExtension/v1">
            <gpxtpx:hr>125</gpxtpx:hr>
          </gpxtpx:TrackPointExtension>
        </extensions>
      </trkpt>
      <trkpt lat="45.6272" lon="2.98941">
        <ele>851</ele>
        <time>2024-05-26T11:29:42.000Z</time>
        <extensions>
          <gpxtpx:TrackPointExtension xmlns:gpxtpx="http://www.garmin.com/xmlschemas/TrackPointExtension/v1">
            <gpxtpx:hr>127</gpxtpx:hr>
          </gpxtpx:TrackPointExtension>
        </extensions>
      </trkpt>
      <trkpt lat="45.62729" lon="2.98948">
        <ele>851.79998779297</ele>
        <time>2024-05-26T11:29:44.000Z</time>
        <extensions>
          <gpxtpx:TrackPointExtension xmlns:gpxtpx="http://www.garmin.com/xmlschemas/TrackPointExtension/v1">
            <gpxtpx:hr>127</gpxtpx:hr>
          </gpxtpx:TrackPointExtension>
        </extensions>
      </trkpt>
      <trkpt lat="45.62733" lon="2.98951">
        <ele>852</ele>
        <time>2024-05-26T11:29:45.000Z</time>
        <extensions>
          <gpxtpx:TrackPointExtension xmlns:gpxtpx="http://www.garmin.com/xmlschemas/TrackPointExtension/v1">
            <gpxtpx:hr>127</gpxtpx:hr>
          </gpxtpx:TrackPointExtension>
        </extensions>
      </trkpt>
      <trkpt lat="45.62741" lon="2.98958">
        <ele>852.59997558594</ele>
        <time>2024-05-26T11:29:47.000Z</time>
        <extensions>
          <gpxtpx:TrackPointExtension xmlns:gpxtpx="http://www.garmin.com/xmlschemas/TrackPointExtension/v1">
            <gpxtpx:hr>126</gpxtpx:hr>
          </gpxtpx:TrackPointExtension>
        </extensions>
      </trkpt>
      <trkpt lat="45.62745" lon="2.98961">
        <ele>853</ele>
        <time>2024-05-26T11:29:48.000Z</time>
        <extensions>
          <gpxtpx:TrackPointExtension xmlns:gpxtpx="http://www.garmin.com/xmlschemas/TrackPointExtension/v1">
            <gpxtpx:hr>128</gpxtpx:hr>
          </gpxtpx:TrackPointExtension>
        </extensions>
      </trkpt>
      <trkpt lat="45.62759" lon="2.98976">
        <ele>853.79998779297</ele>
        <time>2024-05-26T11:29:52.000Z</time>
        <extensions>
          <gpxtpx:TrackPointExtension xmlns:gpxtpx="http://www.garmin.com/xmlschemas/TrackPointExtension/v1">
            <gpxtpx:hr>127</gpxtpx:hr>
          </gpxtpx:TrackPointExtension>
        </extensions>
      </trkpt>
      <trkpt lat="45.62762" lon="2.9898">
        <ele>853.59997558594</ele>
        <time>2024-05-26T11:29:53.000Z</time>
        <extensions>
          <gpxtpx:TrackPointExtension xmlns:gpxtpx="http://www.garmin.com/xmlschemas/TrackPointExtension/v1">
            <gpxtpx:hr>127</gpxtpx:hr>
          </gpxtpx:TrackPointExtension>
        </extensions>
      </trkpt>
      <trkpt lat="45.62769" lon="2.98987">
        <ele>853.40002441406</ele>
        <time>2024-05-26T11:29:55.000Z</time>
        <extensions>
          <gpxtpx:TrackPointExtension xmlns:gpxtpx="http://www.garmin.com/xmlschemas/TrackPointExtension/v1">
            <gpxtpx:hr>127</gpxtpx:hr>
          </gpxtpx:TrackPointExtension>
        </extensions>
      </trkpt>
      <trkpt lat="45.62778" lon="2.99003">
        <ele>853.20001220703</ele>
        <time>2024-05-26T11:29:58.000Z</time>
        <extensions>
          <gpxtpx:TrackPointExtension xmlns:gpxtpx="http://www.garmin.com/xmlschemas/TrackPointExtension/v1">
            <gpxtpx:hr>127</gpxtpx:hr>
          </gpxtpx:TrackPointExtension>
        </extensions>
      </trkpt>
      <trkpt lat="45.62789" lon="2.99022">
        <ele>854.40002441406</ele>
        <time>2024-05-26T11:30:02.000Z</time>
        <extensions>
          <gpxtpx:TrackPointExtension xmlns:gpxtpx="http://www.garmin.com/xmlschemas/TrackPointExtension/v1">
            <gpxtpx:hr>126</gpxtpx:hr>
          </gpxtpx:TrackPointExtension>
        </extensions>
      </trkpt>
      <trkpt lat="45.62795" lon="2.99029">
        <ele>856.40002441406</ele>
        <time>2024-05-26T11:30:04.000Z</time>
        <extensions>
          <gpxtpx:TrackPointExtension xmlns:gpxtpx="http://www.garmin.com/xmlschemas/TrackPointExtension/v1">
            <gpxtpx:hr>126</gpxtpx:hr>
          </gpxtpx:TrackPointExtension>
        </extensions>
      </trkpt>
      <trkpt lat="45.62798" lon="2.99032">
        <ele>856.59997558594</ele>
        <time>2024-05-26T11:30:05.000Z</time>
        <extensions>
          <gpxtpx:TrackPointExtension xmlns:gpxtpx="http://www.garmin.com/xmlschemas/TrackPointExtension/v1">
            <gpxtpx:hr>127</gpxtpx:hr>
          </gpxtpx:TrackPointExtension>
        </extensions>
      </trkpt>
      <trkpt lat="45.62809" lon="2.99039">
        <ele>857</ele>
        <time>2024-05-26T11:30:08.000Z</time>
        <extensions>
          <gpxtpx:TrackPointExtension xmlns:gpxtpx="http://www.garmin.com/xmlschemas/TrackPointExtension/v1">
            <gpxtpx:hr>127</gpxtpx:hr>
          </gpxtpx:TrackPointExtension>
        </extensions>
      </trkpt>
      <trkpt lat="45.62821" lon="2.99043">
        <ele>857.59997558594</ele>
        <time>2024-05-26T11:30:11.000Z</time>
        <extensions>
          <gpxtpx:TrackPointExtension xmlns:gpxtpx="http://www.garmin.com/xmlschemas/TrackPointExtension/v1">
            <gpxtpx:hr>127</gpxtpx:hr>
          </gpxtpx:TrackPointExtension>
        </extensions>
      </trkpt>
      <trkpt lat="45.62846" lon="2.99051">
        <ele>858.79998779297</ele>
        <time>2024-05-26T11:30:18.000Z</time>
        <extensions>
          <gpxtpx:TrackPointExtension xmlns:gpxtpx="http://www.garmin.com/xmlschemas/TrackPointExtension/v1">
            <gpxtpx:hr>128</gpxtpx:hr>
          </gpxtpx:TrackPointExtension>
        </extensions>
      </trkpt>
      <trkpt lat="45.62856" lon="2.99055">
        <ele>859.20001220703</ele>
        <time>2024-05-26T11:30:21.000Z</time>
        <extensions>
          <gpxtpx:TrackPointExtension xmlns:gpxtpx="http://www.garmin.com/xmlschemas/TrackPointExtension/v1">
            <gpxtpx:hr>128</gpxtpx:hr>
          </gpxtpx:TrackPointExtension>
        </extensions>
      </trkpt>
      <trkpt lat="45.62865" lon="2.99061">
        <ele>860</ele>
        <time>2024-05-26T11:30:24.000Z</time>
        <extensions>
          <gpxtpx:TrackPointExtension xmlns:gpxtpx="http://www.garmin.com/xmlschemas/TrackPointExtension/v1">
            <gpxtpx:hr>127</gpxtpx:hr>
          </gpxtpx:TrackPointExtension>
        </extensions>
      </trkpt>
      <trkpt lat="45.62874" lon="2.99067">
        <ele>860</ele>
        <time>2024-05-26T11:30:27.000Z</time>
        <extensions>
          <gpxtpx:TrackPointExtension xmlns:gpxtpx="http://www.garmin.com/xmlschemas/TrackPointExtension/v1">
            <gpxtpx:hr>126</gpxtpx:hr>
          </gpxtpx:TrackPointExtension>
        </extensions>
      </trkpt>
      <trkpt lat="45.62902" lon="2.99084">
        <ele>861</ele>
        <time>2024-05-26T11:30:35.000Z</time>
        <extensions>
          <gpxtpx:TrackPointExtension xmlns:gpxtpx="http://www.garmin.com/xmlschemas/TrackPointExtension/v1">
            <gpxtpx:hr>124</gpxtpx:hr>
          </gpxtpx:TrackPointExtension>
        </extensions>
      </trkpt>
      <trkpt lat="45.62906" lon="2.99086">
        <ele>861.20001220703</ele>
        <time>2024-05-26T11:30:36.000Z</time>
        <extensions>
          <gpxtpx:TrackPointExtension xmlns:gpxtpx="http://www.garmin.com/xmlschemas/TrackPointExtension/v1">
            <gpxtpx:hr>123</gpxtpx:hr>
          </gpxtpx:TrackPointExtension>
        </extensions>
      </trkpt>
      <trkpt lat="45.62931" lon="2.99093">
        <ele>861.79998779297</ele>
        <time>2024-05-26T11:30:43.000Z</time>
        <extensions>
          <gpxtpx:TrackPointExtension xmlns:gpxtpx="http://www.garmin.com/xmlschemas/TrackPointExtension/v1">
            <gpxtpx:hr>125</gpxtpx:hr>
          </gpxtpx:TrackPointExtension>
        </extensions>
      </trkpt>
      <trkpt lat="45.6295" lon="2.991">
        <ele>862</ele>
        <time>2024-05-26T11:30:48.000Z</time>
        <extensions>
          <gpxtpx:TrackPointExtension xmlns:gpxtpx="http://www.garmin.com/xmlschemas/TrackPointExtension/v1">
            <gpxtpx:hr>126</gpxtpx:hr>
          </gpxtpx:TrackPointExtension>
        </extensions>
      </trkpt>
      <trkpt lat="45.62961" lon="2.99105">
        <ele>862.40002441406</ele>
        <time>2024-05-26T11:30:51.000Z</time>
        <extensions>
          <gpxtpx:TrackPointExtension xmlns:gpxtpx="http://www.garmin.com/xmlschemas/TrackPointExtension/v1">
            <gpxtpx:hr>129</gpxtpx:hr>
          </gpxtpx:TrackPointExtension>
        </extensions>
      </trkpt>
      <trkpt lat="45.62979" lon="2.99112">
        <ele>862.79998779297</ele>
        <time>2024-05-26T11:30:55.000Z</time>
        <extensions>
          <gpxtpx:TrackPointExtension xmlns:gpxtpx="http://www.garmin.com/xmlschemas/TrackPointExtension/v1">
            <gpxtpx:hr>132</gpxtpx:hr>
          </gpxtpx:TrackPointExtension>
        </extensions>
      </trkpt>
      <trkpt lat="45.62988" lon="2.99112">
        <ele>862.79998779297</ele>
        <time>2024-05-26T11:30:57.000Z</time>
        <extensions>
          <gpxtpx:TrackPointExtension xmlns:gpxtpx="http://www.garmin.com/xmlschemas/TrackPointExtension/v1">
            <gpxtpx:hr>132</gpxtpx:hr>
          </gpxtpx:TrackPointExtension>
        </extensions>
      </trkpt>
      <trkpt lat="45.62993" lon="2.99111">
        <ele>862.79998779297</ele>
        <time>2024-05-26T11:30:58.000Z</time>
        <extensions>
          <gpxtpx:TrackPointExtension xmlns:gpxtpx="http://www.garmin.com/xmlschemas/TrackPointExtension/v1">
            <gpxtpx:hr>132</gpxtpx:hr>
          </gpxtpx:TrackPointExtension>
        </extensions>
      </trkpt>
      <trkpt lat="45.62996" lon="2.9911">
        <ele>863</ele>
        <time>2024-05-26T11:30:59.000Z</time>
        <extensions>
          <gpxtpx:TrackPointExtension xmlns:gpxtpx="http://www.garmin.com/xmlschemas/TrackPointExtension/v1">
            <gpxtpx:hr>133</gpxtpx:hr>
          </gpxtpx:TrackPointExtension>
        </extensions>
      </trkpt>
      <trkpt lat="45.63" lon="2.99108">
        <ele>863.20001220703</ele>
        <time>2024-05-26T11:31:00.000Z</time>
        <extensions>
          <gpxtpx:TrackPointExtension xmlns:gpxtpx="http://www.garmin.com/xmlschemas/TrackPointExtension/v1">
            <gpxtpx:hr>133</gpxtpx:hr>
          </gpxtpx:TrackPointExtension>
        </extensions>
      </trkpt>
      <trkpt lat="45.63006" lon="2.99106">
        <ele>863.59997558594</ele>
        <time>2024-05-26T11:31:02.000Z</time>
        <extensions>
          <gpxtpx:TrackPointExtension xmlns:gpxtpx="http://www.garmin.com/xmlschemas/TrackPointExtension/v1">
            <gpxtpx:hr>133</gpxtpx:hr>
          </gpxtpx:TrackPointExtension>
        </extensions>
      </trkpt>
      <trkpt lat="45.63013" lon="2.99104">
        <ele>864</ele>
        <time>2024-05-26T11:31:04.000Z</time>
        <extensions>
          <gpxtpx:TrackPointExtension xmlns:gpxtpx="http://www.garmin.com/xmlschemas/TrackPointExtension/v1">
            <gpxtpx:hr>132</gpxtpx:hr>
          </gpxtpx:TrackPointExtension>
        </extensions>
      </trkpt>
      <trkpt lat="45.63028" lon="2.99099">
        <ele>864.40002441406</ele>
        <time>2024-05-26T11:31:08.000Z</time>
        <extensions>
          <gpxtpx:TrackPointExtension xmlns:gpxtpx="http://www.garmin.com/xmlschemas/TrackPointExtension/v1">
            <gpxtpx:hr>131</gpxtpx:hr>
          </gpxtpx:TrackPointExtension>
        </extensions>
      </trkpt>
      <trkpt lat="45.63051" lon="2.99099">
        <ele>865.20001220703</ele>
        <time>2024-05-26T11:31:14.000Z</time>
        <extensions>
          <gpxtpx:TrackPointExtension xmlns:gpxtpx="http://www.garmin.com/xmlschemas/TrackPointExtension/v1">
            <gpxtpx:hr>133</gpxtpx:hr>
          </gpxtpx:TrackPointExtension>
        </extensions>
      </trkpt>
      <trkpt lat="45.63059" lon="2.99099">
        <ele>865.40002441406</ele>
        <time>2024-05-26T11:31:16.000Z</time>
        <extensions>
          <gpxtpx:TrackPointExtension xmlns:gpxtpx="http://www.garmin.com/xmlschemas/TrackPointExtension/v1">
            <gpxtpx:hr>133</gpxtpx:hr>
          </gpxtpx:TrackPointExtension>
        </extensions>
      </trkpt>
      <trkpt lat="45.6308" lon="2.991">
        <ele>866.20001220703</ele>
        <time>2024-05-26T11:31:22.000Z</time>
        <extensions>
          <gpxtpx:TrackPointExtension xmlns:gpxtpx="http://www.garmin.com/xmlschemas/TrackPointExtension/v1">
            <gpxtpx:hr>134</gpxtpx:hr>
          </gpxtpx:TrackPointExtension>
        </extensions>
      </trkpt>
      <trkpt lat="45.63084" lon="2.991">
        <ele>866.40002441406</ele>
        <time>2024-05-26T11:31:23.000Z</time>
        <extensions>
          <gpxtpx:TrackPointExtension xmlns:gpxtpx="http://www.garmin.com/xmlschemas/TrackPointExtension/v1">
            <gpxtpx:hr>133</gpxtpx:hr>
          </gpxtpx:TrackPointExtension>
        </extensions>
      </trkpt>
      <trkpt lat="45.63109" lon="2.99098">
        <ele>867.59997558594</ele>
        <time>2024-05-26T11:31:30.000Z</time>
        <extensions>
          <gpxtpx:TrackPointExtension xmlns:gpxtpx="http://www.garmin.com/xmlschemas/TrackPointExtension/v1">
            <gpxtpx:hr>132</gpxtpx:hr>
          </gpxtpx:TrackPointExtension>
        </extensions>
      </trkpt>
      <trkpt lat="45.63138" lon="2.99098">
        <ele>868.59997558594</ele>
        <time>2024-05-26T11:31:39.000Z</time>
        <extensions>
          <gpxtpx:TrackPointExtension xmlns:gpxtpx="http://www.garmin.com/xmlschemas/TrackPointExtension/v1">
            <gpxtpx:hr>131</gpxtpx:hr>
          </gpxtpx:TrackPointExtension>
        </extensions>
      </trkpt>
      <trkpt lat="45.63142" lon="2.99098">
        <ele>868.59997558594</ele>
        <time>2024-05-26T11:31:40.000Z</time>
        <extensions>
          <gpxtpx:TrackPointExtension xmlns:gpxtpx="http://www.garmin.com/xmlschemas/TrackPointExtension/v1">
            <gpxtpx:hr>131</gpxtpx:hr>
          </gpxtpx:TrackPointExtension>
        </extensions>
      </trkpt>
      <trkpt lat="45.63159" lon="2.99108">
        <ele>869</ele>
        <time>2024-05-26T11:31:45.000Z</time>
        <extensions>
          <gpxtpx:TrackPointExtension xmlns:gpxtpx="http://www.garmin.com/xmlschemas/TrackPointExtension/v1">
            <gpxtpx:hr>130</gpxtpx:hr>
          </gpxtpx:TrackPointExtension>
        </extensions>
      </trkpt>
      <trkpt lat="45.63172" lon="2.99118">
        <ele>869.59997558594</ele>
        <time>2024-05-26T11:31:49.000Z</time>
        <extensions>
          <gpxtpx:TrackPointExtension xmlns:gpxtpx="http://www.garmin.com/xmlschemas/TrackPointExtension/v1">
            <gpxtpx:hr>131</gpxtpx:hr>
          </gpxtpx:TrackPointExtension>
        </extensions>
      </trkpt>
      <trkpt lat="45.63184" lon="2.99129">
        <ele>870</ele>
        <time>2024-05-26T11:31:53.000Z</time>
        <extensions>
          <gpxtpx:TrackPointExtension xmlns:gpxtpx="http://www.garmin.com/xmlschemas/TrackPointExtension/v1">
            <gpxtpx:hr>131</gpxtpx:hr>
          </gpxtpx:TrackPointExtension>
        </extensions>
      </trkpt>
      <trkpt lat="45.63193" lon="2.99137">
        <ele>870.40002441406</ele>
        <time>2024-05-26T11:31:56.000Z</time>
        <extensions>
          <gpxtpx:TrackPointExtension xmlns:gpxtpx="http://www.garmin.com/xmlschemas/TrackPointExtension/v1">
            <gpxtpx:hr>132</gpxtpx:hr>
          </gpxtpx:TrackPointExtension>
        </extensions>
      </trkpt>
      <trkpt lat="45.63219" lon="2.99158">
        <ele>869.59997558594</ele>
        <time>2024-05-26T11:32:03.000Z</time>
        <extensions>
          <gpxtpx:TrackPointExtension xmlns:gpxtpx="http://www.garmin.com/xmlschemas/TrackPointExtension/v1">
            <gpxtpx:hr>129</gpxtpx:hr>
          </gpxtpx:TrackPointExtension>
        </extensions>
      </trkpt>
      <trkpt lat="45.63223" lon="2.99161">
        <ele>869.59997558594</ele>
        <time>2024-05-26T11:32:04.000Z</time>
        <extensions>
          <gpxtpx:TrackPointExtension xmlns:gpxtpx="http://www.garmin.com/xmlschemas/TrackPointExtension/v1">
            <gpxtpx:hr>129</gpxtpx:hr>
          </gpxtpx:TrackPointExtension>
        </extensions>
      </trkpt>
      <trkpt lat="45.63234" lon="2.99172">
        <ele>870.59997558594</ele>
        <time>2024-05-26T11:32:07.000Z</time>
        <extensions>
          <gpxtpx:TrackPointExtension xmlns:gpxtpx="http://www.garmin.com/xmlschemas/TrackPointExtension/v1">
            <gpxtpx:hr>129</gpxtpx:hr>
          </gpxtpx:TrackPointExtension>
        </extensions>
      </trkpt>
      <trkpt lat="45.63247" lon="2.99184">
        <ele>871.20001220703</ele>
        <time>2024-05-26T11:32:10.000Z</time>
        <extensions>
          <gpxtpx:TrackPointExtension xmlns:gpxtpx="http://www.garmin.com/xmlschemas/TrackPointExtension/v1">
            <gpxtpx:hr>127</gpxtpx:hr>
          </gpxtpx:TrackPointExtension>
        </extensions>
      </trkpt>
      <trkpt lat="45.63277" lon="2.99213">
        <ele>871</ele>
        <time>2024-05-26T11:32:16.000Z</time>
        <extensions>
          <gpxtpx:TrackPointExtension xmlns:gpxtpx="http://www.garmin.com/xmlschemas/TrackPointExtension/v1">
            <gpxtpx:hr>125</gpxtpx:hr>
          </gpxtpx:TrackPointExtension>
        </extensions>
      </trkpt>
      <trkpt lat="45.6331" lon="2.99228">
        <ele>870.40002441406</ele>
        <time>2024-05-26T11:32:21.000Z</time>
        <extensions>
          <gpxtpx:TrackPointExtension xmlns:gpxtpx="http://www.garmin.com/xmlschemas/TrackPointExtension/v1">
            <gpxtpx:hr>124</gpxtpx:hr>
          </gpxtpx:TrackPointExtension>
        </extensions>
      </trkpt>
      <trkpt lat="45.63324" lon="2.99234">
        <ele>869.40002441406</ele>
        <time>2024-05-26T11:32:23.000Z</time>
        <extensions>
          <gpxtpx:TrackPointExtension xmlns:gpxtpx="http://www.garmin.com/xmlschemas/TrackPointExtension/v1">
            <gpxtpx:hr>124</gpxtpx:hr>
          </gpxtpx:TrackPointExtension>
        </extensions>
      </trkpt>
      <trkpt lat="45.63345" lon="2.99249">
        <ele>868.79998779297</ele>
        <time>2024-05-26T11:32:26.000Z</time>
        <extensions>
          <gpxtpx:TrackPointExtension xmlns:gpxtpx="http://www.garmin.com/xmlschemas/TrackPointExtension/v1">
            <gpxtpx:hr>123</gpxtpx:hr>
          </gpxtpx:TrackPointExtension>
        </extensions>
      </trkpt>
      <trkpt lat="45.63359" lon="2.99261">
        <ele>868.40002441406</ele>
        <time>2024-05-26T11:32:28.000Z</time>
        <extensions>
          <gpxtpx:TrackPointExtension xmlns:gpxtpx="http://www.garmin.com/xmlschemas/TrackPointExtension/v1">
            <gpxtpx:hr>122</gpxtpx:hr>
          </gpxtpx:TrackPointExtension>
        </extensions>
      </trkpt>
      <trkpt lat="45.63378" lon="2.99281">
        <ele>866.79998779297</ele>
        <time>2024-05-26T11:32:31.000Z</time>
        <extensions>
          <gpxtpx:TrackPointExtension xmlns:gpxtpx="http://www.garmin.com/xmlschemas/TrackPointExtension/v1">
            <gpxtpx:hr>123</gpxtpx:hr>
          </gpxtpx:TrackPointExtension>
        </extensions>
      </trkpt>
      <trkpt lat="45.63387" lon="2.99299">
        <ele>866.20001220703</ele>
        <time>2024-05-26T11:32:33.000Z</time>
        <extensions>
          <gpxtpx:TrackPointExtension xmlns:gpxtpx="http://www.garmin.com/xmlschemas/TrackPointExtension/v1">
            <gpxtpx:hr>123</gpxtpx:hr>
          </gpxtpx:TrackPointExtension>
        </extensions>
      </trkpt>
      <trkpt lat="45.6339" lon="2.99309">
        <ele>866.20001220703</ele>
        <time>2024-05-26T11:32:34.000Z</time>
        <extensions>
          <gpxtpx:TrackPointExtension xmlns:gpxtpx="http://www.garmin.com/xmlschemas/TrackPointExtension/v1">
            <gpxtpx:hr>123</gpxtpx:hr>
          </gpxtpx:TrackPointExtension>
        </extensions>
      </trkpt>
      <trkpt lat="45.63391" lon="2.9932">
        <ele>866</ele>
        <time>2024-05-26T11:32:35.000Z</time>
        <extensions>
          <gpxtpx:TrackPointExtension xmlns:gpxtpx="http://www.garmin.com/xmlschemas/TrackPointExtension/v1">
            <gpxtpx:hr>123</gpxtpx:hr>
          </gpxtpx:TrackPointExtension>
        </extensions>
      </trkpt>
      <trkpt lat="45.63392" lon="2.99352">
        <ele>866</ele>
        <time>2024-05-26T11:32:38.000Z</time>
        <extensions>
          <gpxtpx:TrackPointExtension xmlns:gpxtpx="http://www.garmin.com/xmlschemas/TrackPointExtension/v1">
            <gpxtpx:hr>121</gpxtpx:hr>
          </gpxtpx:TrackPointExtension>
        </extensions>
      </trkpt>
      <trkpt lat="45.63393" lon="2.99363">
        <ele>865.79998779297</ele>
        <time>2024-05-26T11:32:39.000Z</time>
        <extensions>
          <gpxtpx:TrackPointExtension xmlns:gpxtpx="http://www.garmin.com/xmlschemas/TrackPointExtension/v1">
            <gpxtpx:hr>121</gpxtpx:hr>
          </gpxtpx:TrackPointExtension>
        </extensions>
      </trkpt>
      <trkpt lat="45.63398" lon="2.99382">
        <ele>865.79998779297</ele>
        <time>2024-05-26T11:32:41.000Z</time>
        <extensions>
          <gpxtpx:TrackPointExtension xmlns:gpxtpx="http://www.garmin.com/xmlschemas/TrackPointExtension/v1">
            <gpxtpx:hr>119</gpxtpx:hr>
          </gpxtpx:TrackPointExtension>
        </extensions>
      </trkpt>
      <trkpt lat="45.63401" lon="2.99391">
        <ele>866</ele>
        <time>2024-05-26T11:32:42.000Z</time>
        <extensions>
          <gpxtpx:TrackPointExtension xmlns:gpxtpx="http://www.garmin.com/xmlschemas/TrackPointExtension/v1">
            <gpxtpx:hr>118</gpxtpx:hr>
          </gpxtpx:TrackPointExtension>
        </extensions>
      </trkpt>
      <trkpt lat="45.63406" lon="2.99398">
        <ele>866</ele>
        <time>2024-05-26T11:32:43.000Z</time>
        <extensions>
          <gpxtpx:TrackPointExtension xmlns:gpxtpx="http://www.garmin.com/xmlschemas/TrackPointExtension/v1">
            <gpxtpx:hr>118</gpxtpx:hr>
          </gpxtpx:TrackPointExtension>
        </extensions>
      </trkpt>
      <trkpt lat="45.63415" lon="2.9941">
        <ele>866.40002441406</ele>
        <time>2024-05-26T11:32:45.000Z</time>
        <extensions>
          <gpxtpx:TrackPointExtension xmlns:gpxtpx="http://www.garmin.com/xmlschemas/TrackPointExtension/v1">
            <gpxtpx:hr>117</gpxtpx:hr>
          </gpxtpx:TrackPointExtension>
        </extensions>
      </trkpt>
      <trkpt lat="45.63418" lon="2.99414">
        <ele>867</ele>
        <time>2024-05-26T11:32:46.000Z</time>
        <extensions>
          <gpxtpx:TrackPointExtension xmlns:gpxtpx="http://www.garmin.com/xmlschemas/TrackPointExtension/v1">
            <gpxtpx:hr>117</gpxtpx:hr>
          </gpxtpx:TrackPointExtension>
        </extensions>
      </trkpt>
      <trkpt lat="45.63427" lon="2.9942">
        <ele>867.40002441406</ele>
        <time>2024-05-26T11:32:49.000Z</time>
        <extensions>
          <gpxtpx:TrackPointExtension xmlns:gpxtpx="http://www.garmin.com/xmlschemas/TrackPointExtension/v1">
            <gpxtpx:hr>118</gpxtpx:hr>
          </gpxtpx:TrackPointExtension>
        </extensions>
      </trkpt>
      <trkpt lat="45.63432" lon="2.99427">
        <ele>868</ele>
        <time>2024-05-26T11:32:51.000Z</time>
        <extensions>
          <gpxtpx:TrackPointExtension xmlns:gpxtpx="http://www.garmin.com/xmlschemas/TrackPointExtension/v1">
            <gpxtpx:hr>119</gpxtpx:hr>
          </gpxtpx:TrackPointExtension>
        </extensions>
      </trkpt>
      <trkpt lat="45.63444" lon="2.9944">
        <ele>869.20001220703</ele>
        <time>2024-05-26T11:32:55.000Z</time>
        <extensions>
          <gpxtpx:TrackPointExtension xmlns:gpxtpx="http://www.garmin.com/xmlschemas/TrackPointExtension/v1">
            <gpxtpx:hr>120</gpxtpx:hr>
          </gpxtpx:TrackPointExtension>
        </extensions>
      </trkpt>
      <trkpt lat="45.6346" lon="2.99454">
        <ele>870.40002441406</ele>
        <time>2024-05-26T11:33:01.000Z</time>
        <extensions>
          <gpxtpx:TrackPointExtension xmlns:gpxtpx="http://www.garmin.com/xmlschemas/TrackPointExtension/v1">
            <gpxtpx:hr>121</gpxtpx:hr>
          </gpxtpx:TrackPointExtension>
        </extensions>
      </trkpt>
      <trkpt lat="45.63472" lon="2.9946">
        <ele>871</ele>
        <time>2024-05-26T11:33:04.000Z</time>
        <extensions>
          <gpxtpx:TrackPointExtension xmlns:gpxtpx="http://www.garmin.com/xmlschemas/TrackPointExtension/v1">
            <gpxtpx:hr>123</gpxtpx:hr>
          </gpxtpx:TrackPointExtension>
        </extensions>
      </trkpt>
      <trkpt lat="45.63503" lon="2.99465">
        <ele>871.20001220703</ele>
        <time>2024-05-26T11:33:12.000Z</time>
        <extensions>
          <gpxtpx:TrackPointExtension xmlns:gpxtpx="http://www.garmin.com/xmlschemas/TrackPointExtension/v1">
            <gpxtpx:hr>125</gpxtpx:hr>
          </gpxtpx:TrackPointExtension>
        </extensions>
      </trkpt>
      <trkpt lat="45.63507" lon="2.99465">
        <ele>871.40002441406</ele>
        <time>2024-05-26T11:33:13.000Z</time>
        <extensions>
          <gpxtpx:TrackPointExtension xmlns:gpxtpx="http://www.garmin.com/xmlschemas/TrackPointExtension/v1">
            <gpxtpx:hr>125</gpxtpx:hr>
          </gpxtpx:TrackPointExtension>
        </extensions>
      </trkpt>
      <trkpt lat="45.63532" lon="2.99465">
        <ele>871.79998779297</ele>
        <time>2024-05-26T11:33:20.000Z</time>
        <extensions>
          <gpxtpx:TrackPointExtension xmlns:gpxtpx="http://www.garmin.com/xmlschemas/TrackPointExtension/v1">
            <gpxtpx:hr>125</gpxtpx:hr>
          </gpxtpx:TrackPointExtension>
        </extensions>
      </trkpt>
      <trkpt lat="45.63555" lon="2.9946">
        <ele>872.40002441406</ele>
        <time>2024-05-26T11:33:27.000Z</time>
        <extensions>
          <gpxtpx:TrackPointExtension xmlns:gpxtpx="http://www.garmin.com/xmlschemas/TrackPointExtension/v1">
            <gpxtpx:hr>123</gpxtpx:hr>
          </gpxtpx:TrackPointExtension>
        </extensions>
      </trkpt>
      <trkpt lat="45.63558" lon="2.99459">
        <ele>872.59997558594</ele>
        <time>2024-05-26T11:33:28.000Z</time>
        <extensions>
          <gpxtpx:TrackPointExtension xmlns:gpxtpx="http://www.garmin.com/xmlschemas/TrackPointExtension/v1">
            <gpxtpx:hr>122</gpxtpx:hr>
          </gpxtpx:TrackPointExtension>
        </extensions>
      </trkpt>
      <trkpt lat="45.6357" lon="2.99455">
        <ele>873.40002441406</ele>
        <time>2024-05-26T11:33:32.000Z</time>
        <extensions>
          <gpxtpx:TrackPointExtension xmlns:gpxtpx="http://www.garmin.com/xmlschemas/TrackPointExtension/v1">
            <gpxtpx:hr>122</gpxtpx:hr>
          </gpxtpx:TrackPointExtension>
        </extensions>
      </trkpt>
      <trkpt lat="45.63581" lon="2.99454">
        <ele>874.20001220703</ele>
        <time>2024-05-26T11:33:36.000Z</time>
        <extensions>
          <gpxtpx:TrackPointExtension xmlns:gpxtpx="http://www.garmin.com/xmlschemas/TrackPointExtension/v1">
            <gpxtpx:hr>120</gpxtpx:hr>
          </gpxtpx:TrackPointExtension>
        </extensions>
      </trkpt>
      <trkpt lat="45.63586" lon="2.99455">
        <ele>874.40002441406</ele>
        <time>2024-05-26T11:33:38.000Z</time>
        <extensions>
          <gpxtpx:TrackPointExtension xmlns:gpxtpx="http://www.garmin.com/xmlschemas/TrackPointExtension/v1">
            <gpxtpx:hr>120</gpxtpx:hr>
          </gpxtpx:TrackPointExtension>
        </extensions>
      </trkpt>
      <trkpt lat="45.63592" lon="2.99456">
        <ele>874.79998779297</ele>
        <time>2024-05-26T11:33:41.000Z</time>
        <extensions>
          <gpxtpx:TrackPointExtension xmlns:gpxtpx="http://www.garmin.com/xmlschemas/TrackPointExtension/v1">
            <gpxtpx:hr>120</gpxtpx:hr>
          </gpxtpx:TrackPointExtension>
        </extensions>
      </trkpt>
      <trkpt lat="45.63597" lon="2.9946">
        <ele>875</ele>
        <time>2024-05-26T11:33:43.000Z</time>
        <extensions>
          <gpxtpx:TrackPointExtension xmlns:gpxtpx="http://www.garmin.com/xmlschemas/TrackPointExtension/v1">
            <gpxtpx:hr>121</gpxtpx:hr>
          </gpxtpx:TrackPointExtension>
        </extensions>
      </trkpt>
      <trkpt lat="45.63608" lon="2.99464">
        <ele>875.59997558594</ele>
        <time>2024-05-26T11:33:47.000Z</time>
        <extensions>
          <gpxtpx:TrackPointExtension xmlns:gpxtpx="http://www.garmin.com/xmlschemas/TrackPointExtension/v1">
            <gpxtpx:hr>121</gpxtpx:hr>
          </gpxtpx:TrackPointExtension>
        </extensions>
      </trkpt>
      <trkpt lat="45.63622" lon="2.99469">
        <ele>876</ele>
        <time>2024-05-26T11:33:52.000Z</time>
        <extensions>
          <gpxtpx:TrackPointExtension xmlns:gpxtpx="http://www.garmin.com/xmlschemas/TrackPointExtension/v1">
            <gpxtpx:hr>121</gpxtpx:hr>
          </gpxtpx:TrackPointExtension>
        </extensions>
      </trkpt>
      <trkpt lat="45.6363" lon="2.99472">
        <ele>876.40002441406</ele>
        <time>2024-05-26T11:33:55.000Z</time>
        <extensions>
          <gpxtpx:TrackPointExtension xmlns:gpxtpx="http://www.garmin.com/xmlschemas/TrackPointExtension/v1">
            <gpxtpx:hr>124</gpxtpx:hr>
          </gpxtpx:TrackPointExtension>
        </extensions>
      </trkpt>
      <trkpt lat="45.63633" lon="2.99472">
        <ele>876.59997558594</ele>
        <time>2024-05-26T11:33:56.000Z</time>
        <extensions>
          <gpxtpx:TrackPointExtension xmlns:gpxtpx="http://www.garmin.com/xmlschemas/TrackPointExtension/v1">
            <gpxtpx:hr>126</gpxtpx:hr>
          </gpxtpx:TrackPointExtension>
        </extensions>
      </trkpt>
      <trkpt lat="45.63642" lon="2.99476">
        <ele>877.40002441406</ele>
        <time>2024-05-26T11:33:59.000Z</time>
        <extensions>
          <gpxtpx:TrackPointExtension xmlns:gpxtpx="http://www.garmin.com/xmlschemas/TrackPointExtension/v1">
            <gpxtpx:hr>126</gpxtpx:hr>
          </gpxtpx:TrackPointExtension>
        </extensions>
      </trkpt>
      <trkpt lat="45.63648" lon="2.99479">
        <ele>877.59997558594</ele>
        <time>2024-05-26T11:34:01.000Z</time>
        <extensions>
          <gpxtpx:TrackPointExtension xmlns:gpxtpx="http://www.garmin.com/xmlschemas/TrackPointExtension/v1">
            <gpxtpx:hr>126</gpxtpx:hr>
          </gpxtpx:TrackPointExtension>
        </extensions>
      </trkpt>
      <trkpt lat="45.63659" lon="2.99487">
        <ele>878.40002441406</ele>
        <time>2024-05-26T11:34:05.000Z</time>
        <extensions>
          <gpxtpx:TrackPointExtension xmlns:gpxtpx="http://www.garmin.com/xmlschemas/TrackPointExtension/v1">
            <gpxtpx:hr>124</gpxtpx:hr>
          </gpxtpx:TrackPointExtension>
        </extensions>
      </trkpt>
      <trkpt lat="45.63664" lon="2.99491">
        <ele>878.59997558594</ele>
        <time>2024-05-26T11:34:07.000Z</time>
        <extensions>
          <gpxtpx:TrackPointExtension xmlns:gpxtpx="http://www.garmin.com/xmlschemas/TrackPointExtension/v1">
            <gpxtpx:hr>124</gpxtpx:hr>
          </gpxtpx:TrackPointExtension>
        </extensions>
      </trkpt>
      <trkpt lat="45.63667" lon="2.99494">
        <ele>878.79998779297</ele>
        <time>2024-05-26T11:34:08.000Z</time>
        <extensions>
          <gpxtpx:TrackPointExtension xmlns:gpxtpx="http://www.garmin.com/xmlschemas/TrackPointExtension/v1">
            <gpxtpx:hr>123</gpxtpx:hr>
          </gpxtpx:TrackPointExtension>
        </extensions>
      </trkpt>
      <trkpt lat="45.63681" lon="2.99507">
        <ele>879.79998779297</ele>
        <time>2024-05-26T11:34:13.000Z</time>
        <extensions>
          <gpxtpx:TrackPointExtension xmlns:gpxtpx="http://www.garmin.com/xmlschemas/TrackPointExtension/v1">
            <gpxtpx:hr>123</gpxtpx:hr>
          </gpxtpx:TrackPointExtension>
        </extensions>
      </trkpt>
      <trkpt lat="45.63691" lon="2.99517">
        <ele>880.79998779297</ele>
        <time>2024-05-26T11:34:17.000Z</time>
        <extensions>
          <gpxtpx:TrackPointExtension xmlns:gpxtpx="http://www.garmin.com/xmlschemas/TrackPointExtension/v1">
            <gpxtpx:hr>124</gpxtpx:hr>
          </gpxtpx:TrackPointExtension>
        </extensions>
      </trkpt>
      <trkpt lat="45.63708" lon="2.99535">
        <ele>882.20001220703</ele>
        <time>2024-05-26T11:34:24.000Z</time>
        <extensions>
          <gpxtpx:TrackPointExtension xmlns:gpxtpx="http://www.garmin.com/xmlschemas/TrackPointExtension/v1">
            <gpxtpx:hr>125</gpxtpx:hr>
          </gpxtpx:TrackPointExtension>
        </extensions>
      </trkpt>
      <trkpt lat="45.63714" lon="2.9954">
        <ele>882.59997558594</ele>
        <time>2024-05-26T11:34:26.000Z</time>
        <extensions>
          <gpxtpx:TrackPointExtension xmlns:gpxtpx="http://www.garmin.com/xmlschemas/TrackPointExtension/v1">
            <gpxtpx:hr>125</gpxtpx:hr>
          </gpxtpx:TrackPointExtension>
        </extensions>
      </trkpt>
      <trkpt lat="45.63732" lon="2.99557">
        <ele>883.40002441406</ele>
        <time>2024-05-26T11:34:33.000Z</time>
        <extensions>
          <gpxtpx:TrackPointExtension xmlns:gpxtpx="http://www.garmin.com/xmlschemas/TrackPointExtension/v1">
            <gpxtpx:hr>126</gpxtpx:hr>
          </gpxtpx:TrackPointExtension>
        </extensions>
      </trkpt>
      <trkpt lat="45.6374" lon="2.99562">
        <ele>884.40002441406</ele>
        <time>2024-05-26T11:34:36.000Z</time>
        <extensions>
          <gpxtpx:TrackPointExtension xmlns:gpxtpx="http://www.garmin.com/xmlschemas/TrackPointExtension/v1">
            <gpxtpx:hr>126</gpxtpx:hr>
          </gpxtpx:TrackPointExtension>
        </extensions>
      </trkpt>
      <trkpt lat="45.63753" lon="2.99569">
        <ele>885.20001220703</ele>
        <time>2024-05-26T11:34:41.000Z</time>
        <extensions>
          <gpxtpx:TrackPointExtension xmlns:gpxtpx="http://www.garmin.com/xmlschemas/TrackPointExtension/v1">
            <gpxtpx:hr>128</gpxtpx:hr>
          </gpxtpx:TrackPointExtension>
        </extensions>
      </trkpt>
      <trkpt lat="45.63757" lon="2.99571">
        <ele>885.59997558594</ele>
        <time>2024-05-26T11:34:42.000Z</time>
        <extensions>
          <gpxtpx:TrackPointExtension xmlns:gpxtpx="http://www.garmin.com/xmlschemas/TrackPointExtension/v1">
            <gpxtpx:hr>127</gpxtpx:hr>
          </gpxtpx:TrackPointExtension>
        </extensions>
      </trkpt>
      <trkpt lat="45.63766" lon="2.99576">
        <ele>886</ele>
        <time>2024-05-26T11:34:45.000Z</time>
        <extensions>
          <gpxtpx:TrackPointExtension xmlns:gpxtpx="http://www.garmin.com/xmlschemas/TrackPointExtension/v1">
            <gpxtpx:hr>130</gpxtpx:hr>
          </gpxtpx:TrackPointExtension>
        </extensions>
      </trkpt>
      <trkpt lat="45.63777" lon="2.99583">
        <ele>886.79998779297</ele>
        <time>2024-05-26T11:34:49.000Z</time>
        <extensions>
          <gpxtpx:TrackPointExtension xmlns:gpxtpx="http://www.garmin.com/xmlschemas/TrackPointExtension/v1">
            <gpxtpx:hr>131</gpxtpx:hr>
          </gpxtpx:TrackPointExtension>
        </extensions>
      </trkpt>
      <trkpt lat="45.63782" lon="2.99586">
        <ele>887.20001220703</ele>
        <time>2024-05-26T11:34:51.000Z</time>
        <extensions>
          <gpxtpx:TrackPointExtension xmlns:gpxtpx="http://www.garmin.com/xmlschemas/TrackPointExtension/v1">
            <gpxtpx:hr>133</gpxtpx:hr>
          </gpxtpx:TrackPointExtension>
        </extensions>
      </trkpt>
      <trkpt lat="45.63786" lon="2.9959">
        <ele>887.59997558594</ele>
        <time>2024-05-26T11:34:53.000Z</time>
        <extensions>
          <gpxtpx:TrackPointExtension xmlns:gpxtpx="http://www.garmin.com/xmlschemas/TrackPointExtension/v1">
            <gpxtpx:hr>130</gpxtpx:hr>
          </gpxtpx:TrackPointExtension>
        </extensions>
      </trkpt>
      <trkpt lat="45.63791" lon="2.99593">
        <ele>888.20001220703</ele>
        <time>2024-05-26T11:34:55.000Z</time>
        <extensions>
          <gpxtpx:TrackPointExtension xmlns:gpxtpx="http://www.garmin.com/xmlschemas/TrackPointExtension/v1">
            <gpxtpx:hr>132</gpxtpx:hr>
          </gpxtpx:TrackPointExtension>
        </extensions>
      </trkpt>
      <trkpt lat="45.63803" lon="2.99601">
        <ele>889</ele>
        <time>2024-05-26T11:35:00.000Z</time>
        <extensions>
          <gpxtpx:TrackPointExtension xmlns:gpxtpx="http://www.garmin.com/xmlschemas/TrackPointExtension/v1">
            <gpxtpx:hr>134</gpxtpx:hr>
          </gpxtpx:TrackPointExtension>
        </extensions>
      </trkpt>
      <trkpt lat="45.63808" lon="2.99604">
        <ele>889.40002441406</ele>
        <time>2024-05-26T11:35:02.000Z</time>
        <extensions>
          <gpxtpx:TrackPointExtension xmlns:gpxtpx="http://www.garmin.com/xmlschemas/TrackPointExtension/v1">
            <gpxtpx:hr>135</gpxtpx:hr>
          </gpxtpx:TrackPointExtension>
        </extensions>
      </trkpt>
      <trkpt lat="45.63816" lon="2.99609">
        <ele>890</ele>
        <time>2024-05-26T11:35:06.000Z</time>
        <extensions>
          <gpxtpx:TrackPointExtension xmlns:gpxtpx="http://www.garmin.com/xmlschemas/TrackPointExtension/v1">
            <gpxtpx:hr>138</gpxtpx:hr>
          </gpxtpx:TrackPointExtension>
        </extensions>
      </trkpt>
      <trkpt lat="45.63817" lon="2.99611">
        <ele>890</ele>
        <time>2024-05-26T11:35:07.000Z</time>
        <extensions>
          <gpxtpx:TrackPointExtension xmlns:gpxtpx="http://www.garmin.com/xmlschemas/TrackPointExtension/v1">
            <gpxtpx:hr>139</gpxtpx:hr>
          </gpxtpx:TrackPointExtension>
        </extensions>
      </trkpt>
      <trkpt lat="45.63828" lon="2.99618">
        <ele>890.40002441406</ele>
        <time>2024-05-26T11:35:12.000Z</time>
        <extensions>
          <gpxtpx:TrackPointExtension xmlns:gpxtpx="http://www.garmin.com/xmlschemas/TrackPointExtension/v1">
            <gpxtpx:hr>140</gpxtpx:hr>
          </gpxtpx:TrackPointExtension>
        </extensions>
      </trkpt>
      <trkpt lat="45.63841" lon="2.99625">
        <ele>891.40002441406</ele>
        <time>2024-05-26T11:35:17.000Z</time>
        <extensions>
          <gpxtpx:TrackPointExtension xmlns:gpxtpx="http://www.garmin.com/xmlschemas/TrackPointExtension/v1">
            <gpxtpx:hr>139</gpxtpx:hr>
          </gpxtpx:TrackPointExtension>
        </extensions>
      </trkpt>
      <trkpt lat="45.63844" lon="2.99626">
        <ele>891.59997558594</ele>
        <time>2024-05-26T11:35:18.000Z</time>
        <extensions>
          <gpxtpx:TrackPointExtension xmlns:gpxtpx="http://www.garmin.com/xmlschemas/TrackPointExtension/v1">
            <gpxtpx:hr>141</gpxtpx:hr>
          </gpxtpx:TrackPointExtension>
        </extensions>
      </trkpt>
      <trkpt lat="45.63861" lon="2.99634">
        <ele>892.79998779297</ele>
        <time>2024-05-26T11:35:24.000Z</time>
        <extensions>
          <gpxtpx:TrackPointExtension xmlns:gpxtpx="http://www.garmin.com/xmlschemas/TrackPointExtension/v1">
            <gpxtpx:hr>140</gpxtpx:hr>
          </gpxtpx:TrackPointExtension>
        </extensions>
      </trkpt>
      <trkpt lat="45.63864" lon="2.99635">
        <ele>893</ele>
        <time>2024-05-26T11:35:25.000Z</time>
        <extensions>
          <gpxtpx:TrackPointExtension xmlns:gpxtpx="http://www.garmin.com/xmlschemas/TrackPointExtension/v1">
            <gpxtpx:hr>140</gpxtpx:hr>
          </gpxtpx:TrackPointExtension>
        </extensions>
      </trkpt>
      <trkpt lat="45.63875" lon="2.9964">
        <ele>893.79998779297</ele>
        <time>2024-05-26T11:35:29.000Z</time>
        <extensions>
          <gpxtpx:TrackPointExtension xmlns:gpxtpx="http://www.garmin.com/xmlschemas/TrackPointExtension/v1">
            <gpxtpx:hr>139</gpxtpx:hr>
          </gpxtpx:TrackPointExtension>
        </extensions>
      </trkpt>
      <trkpt lat="45.63887" lon="2.99648">
        <ele>894.59997558594</ele>
        <time>2024-05-26T11:35:34.000Z</time>
        <extensions>
          <gpxtpx:TrackPointExtension xmlns:gpxtpx="http://www.garmin.com/xmlschemas/TrackPointExtension/v1">
            <gpxtpx:hr>136</gpxtpx:hr>
          </gpxtpx:TrackPointExtension>
        </extensions>
      </trkpt>
      <trkpt lat="45.63892" lon="2.99652">
        <ele>895</ele>
        <time>2024-05-26T11:35:36.000Z</time>
        <extensions>
          <gpxtpx:TrackPointExtension xmlns:gpxtpx="http://www.garmin.com/xmlschemas/TrackPointExtension/v1">
            <gpxtpx:hr>136</gpxtpx:hr>
          </gpxtpx:TrackPointExtension>
        </extensions>
      </trkpt>
      <trkpt lat="45.63904" lon="2.99662">
        <ele>895.40002441406</ele>
        <time>2024-05-26T11:35:41.000Z</time>
        <extensions>
          <gpxtpx:TrackPointExtension xmlns:gpxtpx="http://www.garmin.com/xmlschemas/TrackPointExtension/v1">
            <gpxtpx:hr>135</gpxtpx:hr>
          </gpxtpx:TrackPointExtension>
        </extensions>
      </trkpt>
      <trkpt lat="45.63915" lon="2.9967">
        <ele>896.20001220703</ele>
        <time>2024-05-26T11:35:45.000Z</time>
        <extensions>
          <gpxtpx:TrackPointExtension xmlns:gpxtpx="http://www.garmin.com/xmlschemas/TrackPointExtension/v1">
            <gpxtpx:hr>136</gpxtpx:hr>
          </gpxtpx:TrackPointExtension>
        </extensions>
      </trkpt>
      <trkpt lat="45.63926" lon="2.99681">
        <ele>897.20001220703</ele>
        <time>2024-05-26T11:35:50.000Z</time>
        <extensions>
          <gpxtpx:TrackPointExtension xmlns:gpxtpx="http://www.garmin.com/xmlschemas/TrackPointExtension/v1">
            <gpxtpx:hr>134</gpxtpx:hr>
          </gpxtpx:TrackPointExtension>
        </extensions>
      </trkpt>
      <trkpt lat="45.63938" lon="2.997">
        <ele>898.20001220703</ele>
        <time>2024-05-26T11:35:57.000Z</time>
        <extensions>
          <gpxtpx:TrackPointExtension xmlns:gpxtpx="http://www.garmin.com/xmlschemas/TrackPointExtension/v1">
            <gpxtpx:hr>134</gpxtpx:hr>
          </gpxtpx:TrackPointExtension>
        </extensions>
      </trkpt>
      <trkpt lat="45.6394" lon="2.99704">
        <ele>898.20001220703</ele>
        <time>2024-05-26T11:35:58.000Z</time>
        <extensions>
          <gpxtpx:TrackPointExtension xmlns:gpxtpx="http://www.garmin.com/xmlschemas/TrackPointExtension/v1">
            <gpxtpx:hr>136</gpxtpx:hr>
          </gpxtpx:TrackPointExtension>
        </extensions>
      </trkpt>
      <trkpt lat="45.63948" lon="2.99717">
        <ele>898.59997558594</ele>
        <time>2024-05-26T11:36:02.000Z</time>
        <extensions>
          <gpxtpx:TrackPointExtension xmlns:gpxtpx="http://www.garmin.com/xmlschemas/TrackPointExtension/v1">
            <gpxtpx:hr>133</gpxtpx:hr>
          </gpxtpx:TrackPointExtension>
        </extensions>
      </trkpt>
      <trkpt lat="45.63957" lon="2.99733">
        <ele>899</ele>
        <time>2024-05-26T11:36:06.000Z</time>
        <extensions>
          <gpxtpx:TrackPointExtension xmlns:gpxtpx="http://www.garmin.com/xmlschemas/TrackPointExtension/v1">
            <gpxtpx:hr>133</gpxtpx:hr>
          </gpxtpx:TrackPointExtension>
        </extensions>
      </trkpt>
      <trkpt lat="45.63963" lon="2.99741">
        <ele>899.40002441406</ele>
        <time>2024-05-26T11:36:08.000Z</time>
        <extensions>
          <gpxtpx:TrackPointExtension xmlns:gpxtpx="http://www.garmin.com/xmlschemas/TrackPointExtension/v1">
            <gpxtpx:hr>133</gpxtpx:hr>
          </gpxtpx:TrackPointExtension>
        </extensions>
      </trkpt>
      <trkpt lat="45.63973" lon="2.99751">
        <ele>900.20001220703</ele>
        <time>2024-05-26T11:36:11.000Z</time>
        <extensions>
          <gpxtpx:TrackPointExtension xmlns:gpxtpx="http://www.garmin.com/xmlschemas/TrackPointExtension/v1">
            <gpxtpx:hr>134</gpxtpx:hr>
          </gpxtpx:TrackPointExtension>
        </extensions>
      </trkpt>
      <trkpt lat="45.63976" lon="2.99755">
        <ele>900.40002441406</ele>
        <time>2024-05-26T11:36:12.000Z</time>
        <extensions>
          <gpxtpx:TrackPointExtension xmlns:gpxtpx="http://www.garmin.com/xmlschemas/TrackPointExtension/v1">
            <gpxtpx:hr>134</gpxtpx:hr>
          </gpxtpx:TrackPointExtension>
        </extensions>
      </trkpt>
      <trkpt lat="45.63991" lon="2.99769">
        <ele>901.40002441406</ele>
        <time>2024-05-26T11:36:16.000Z</time>
        <extensions>
          <gpxtpx:TrackPointExtension xmlns:gpxtpx="http://www.garmin.com/xmlschemas/TrackPointExtension/v1">
            <gpxtpx:hr>137</gpxtpx:hr>
          </gpxtpx:TrackPointExtension>
        </extensions>
      </trkpt>
      <trkpt lat="45.63995" lon="2.99772">
        <ele>901.59997558594</ele>
        <time>2024-05-26T11:36:17.000Z</time>
        <extensions>
          <gpxtpx:TrackPointExtension xmlns:gpxtpx="http://www.garmin.com/xmlschemas/TrackPointExtension/v1">
            <gpxtpx:hr>137</gpxtpx:hr>
          </gpxtpx:TrackPointExtension>
        </extensions>
      </trkpt>
      <trkpt lat="45.63998" lon="2.99777">
        <ele>902.20001220703</ele>
        <time>2024-05-26T11:36:18.000Z</time>
        <extensions>
          <gpxtpx:TrackPointExtension xmlns:gpxtpx="http://www.garmin.com/xmlschemas/TrackPointExtension/v1">
            <gpxtpx:hr>137</gpxtpx:hr>
          </gpxtpx:TrackPointExtension>
        </extensions>
      </trkpt>
      <trkpt lat="45.64" lon="2.9978">
        <ele>903</ele>
        <time>2024-05-26T11:36:19.000Z</time>
        <extensions>
          <gpxtpx:TrackPointExtension xmlns:gpxtpx="http://www.garmin.com/xmlschemas/TrackPointExtension/v1">
            <gpxtpx:hr>138</gpxtpx:hr>
          </gpxtpx:TrackPointExtension>
        </extensions>
      </trkpt>
      <trkpt lat="45.64011" lon="2.99795">
        <ele>903.59997558594</ele>
        <time>2024-05-26T11:36:23.000Z</time>
        <extensions>
          <gpxtpx:TrackPointExtension xmlns:gpxtpx="http://www.garmin.com/xmlschemas/TrackPointExtension/v1">
            <gpxtpx:hr>140</gpxtpx:hr>
          </gpxtpx:TrackPointExtension>
        </extensions>
      </trkpt>
      <trkpt lat="45.64017" lon="2.99803">
        <ele>904</ele>
        <time>2024-05-26T11:36:25.000Z</time>
        <extensions>
          <gpxtpx:TrackPointExtension xmlns:gpxtpx="http://www.garmin.com/xmlschemas/TrackPointExtension/v1">
            <gpxtpx:hr>140</gpxtpx:hr>
          </gpxtpx:TrackPointExtension>
        </extensions>
      </trkpt>
      <trkpt lat="45.64021" lon="2.99807">
        <ele>904.20001220703</ele>
        <time>2024-05-26T11:36:26.000Z</time>
        <extensions>
          <gpxtpx:TrackPointExtension xmlns:gpxtpx="http://www.garmin.com/xmlschemas/TrackPointExtension/v1">
            <gpxtpx:hr>140</gpxtpx:hr>
          </gpxtpx:TrackPointExtension>
        </extensions>
      </trkpt>
      <trkpt lat="45.64032" lon="2.99826">
        <ele>905.20001220703</ele>
        <time>2024-05-26T11:36:30.000Z</time>
        <extensions>
          <gpxtpx:TrackPointExtension xmlns:gpxtpx="http://www.garmin.com/xmlschemas/TrackPointExtension/v1">
            <gpxtpx:hr>141</gpxtpx:hr>
          </gpxtpx:TrackPointExtension>
        </extensions>
      </trkpt>
      <trkpt lat="45.64052" lon="2.99861">
        <ele>906.20001220703</ele>
        <time>2024-05-26T11:36:37.000Z</time>
        <extensions>
          <gpxtpx:TrackPointExtension xmlns:gpxtpx="http://www.garmin.com/xmlschemas/TrackPointExtension/v1">
            <gpxtpx:hr>141</gpxtpx:hr>
          </gpxtpx:TrackPointExtension>
        </extensions>
      </trkpt>
      <trkpt lat="45.64055" lon="2.99866">
        <ele>906.40002441406</ele>
        <time>2024-05-26T11:36:38.000Z</time>
        <extensions>
          <gpxtpx:TrackPointExtension xmlns:gpxtpx="http://www.garmin.com/xmlschemas/TrackPointExtension/v1">
            <gpxtpx:hr>141</gpxtpx:hr>
          </gpxtpx:TrackPointExtension>
        </extensions>
      </trkpt>
      <trkpt lat="45.64079" lon="2.99903">
        <ele>906.20001220703</ele>
        <time>2024-05-26T11:36:45.000Z</time>
        <extensions>
          <gpxtpx:TrackPointExtension xmlns:gpxtpx="http://www.garmin.com/xmlschemas/TrackPointExtension/v1">
            <gpxtpx:hr>141</gpxtpx:hr>
          </gpxtpx:TrackPointExtension>
        </extensions>
      </trkpt>
      <trkpt lat="45.64101" lon="2.9994">
        <ele>905.59997558594</ele>
        <time>2024-05-26T11:36:51.000Z</time>
        <extensions>
          <gpxtpx:TrackPointExtension xmlns:gpxtpx="http://www.garmin.com/xmlschemas/TrackPointExtension/v1">
            <gpxtpx:hr>143</gpxtpx:hr>
          </gpxtpx:TrackPointExtension>
        </extensions>
      </trkpt>
      <trkpt lat="45.64111" lon="2.99951">
        <ele>905.20001220703</ele>
        <time>2024-05-26T11:36:53.000Z</time>
        <extensions>
          <gpxtpx:TrackPointExtension xmlns:gpxtpx="http://www.garmin.com/xmlschemas/TrackPointExtension/v1">
            <gpxtpx:hr>144</gpxtpx:hr>
          </gpxtpx:TrackPointExtension>
        </extensions>
      </trkpt>
      <trkpt lat="45.64122" lon="2.99958">
        <ele>905</ele>
        <time>2024-05-26T11:36:55.000Z</time>
        <extensions>
          <gpxtpx:TrackPointExtension xmlns:gpxtpx="http://www.garmin.com/xmlschemas/TrackPointExtension/v1">
            <gpxtpx:hr>144</gpxtpx:hr>
          </gpxtpx:TrackPointExtension>
        </extensions>
      </trkpt>
      <trkpt lat="45.64129" lon="2.9996">
        <ele>904.79998779297</ele>
        <time>2024-05-26T11:36:56.000Z</time>
        <extensions>
          <gpxtpx:TrackPointExtension xmlns:gpxtpx="http://www.garmin.com/xmlschemas/TrackPointExtension/v1">
            <gpxtpx:hr>144</gpxtpx:hr>
          </gpxtpx:TrackPointExtension>
        </extensions>
      </trkpt>
      <trkpt lat="45.64135" lon="2.99961">
        <ele>904.79998779297</ele>
        <time>2024-05-26T11:36:57.000Z</time>
        <extensions>
          <gpxtpx:TrackPointExtension xmlns:gpxtpx="http://www.garmin.com/xmlschemas/TrackPointExtension/v1">
            <gpxtpx:hr>144</gpxtpx:hr>
          </gpxtpx:TrackPointExtension>
        </extensions>
      </trkpt>
      <trkpt lat="45.64148" lon="2.9996">
        <ele>904.40002441406</ele>
        <time>2024-05-26T11:36:59.000Z</time>
        <extensions>
          <gpxtpx:TrackPointExtension xmlns:gpxtpx="http://www.garmin.com/xmlschemas/TrackPointExtension/v1">
            <gpxtpx:hr>143</gpxtpx:hr>
          </gpxtpx:TrackPointExtension>
        </extensions>
      </trkpt>
      <trkpt lat="45.64155" lon="2.99957">
        <ele>904</ele>
        <time>2024-05-26T11:37:00.000Z</time>
        <extensions>
          <gpxtpx:TrackPointExtension xmlns:gpxtpx="http://www.garmin.com/xmlschemas/TrackPointExtension/v1">
            <gpxtpx:hr>143</gpxtpx:hr>
          </gpxtpx:TrackPointExtension>
        </extensions>
      </trkpt>
      <trkpt lat="45.6416" lon="2.99953">
        <ele>903.79998779297</ele>
        <time>2024-05-26T11:37:01.000Z</time>
        <extensions>
          <gpxtpx:TrackPointExtension xmlns:gpxtpx="http://www.garmin.com/xmlschemas/TrackPointExtension/v1">
            <gpxtpx:hr>143</gpxtpx:hr>
          </gpxtpx:TrackPointExtension>
        </extensions>
      </trkpt>
      <trkpt lat="45.64167" lon="2.99938">
        <ele>903.59997558594</ele>
        <time>2024-05-26T11:37:03.000Z</time>
        <extensions>
          <gpxtpx:TrackPointExtension xmlns:gpxtpx="http://www.garmin.com/xmlschemas/TrackPointExtension/v1">
            <gpxtpx:hr>142</gpxtpx:hr>
          </gpxtpx:TrackPointExtension>
        </extensions>
      </trkpt>
      <trkpt lat="45.6417" lon="2.99922">
        <ele>903.59997558594</ele>
        <time>2024-05-26T11:37:05.000Z</time>
        <extensions>
          <gpxtpx:TrackPointExtension xmlns:gpxtpx="http://www.garmin.com/xmlschemas/TrackPointExtension/v1">
            <gpxtpx:hr>141</gpxtpx:hr>
          </gpxtpx:TrackPointExtension>
        </extensions>
      </trkpt>
      <trkpt lat="45.6417" lon="2.99914">
        <ele>903.79998779297</ele>
        <time>2024-05-26T11:37:06.000Z</time>
        <extensions>
          <gpxtpx:TrackPointExtension xmlns:gpxtpx="http://www.garmin.com/xmlschemas/TrackPointExtension/v1">
            <gpxtpx:hr>140</gpxtpx:hr>
          </gpxtpx:TrackPointExtension>
        </extensions>
      </trkpt>
      <trkpt lat="45.64171" lon="2.99894">
        <ele>904.59997558594</ele>
        <time>2024-05-26T11:37:09.000Z</time>
        <extensions>
          <gpxtpx:TrackPointExtension xmlns:gpxtpx="http://www.garmin.com/xmlschemas/TrackPointExtension/v1">
            <gpxtpx:hr>139</gpxtpx:hr>
          </gpxtpx:TrackPointExtension>
        </extensions>
      </trkpt>
      <trkpt lat="45.64171" lon="2.99881">
        <ele>904.79998779297</ele>
        <time>2024-05-26T11:37:11.000Z</time>
        <extensions>
          <gpxtpx:TrackPointExtension xmlns:gpxtpx="http://www.garmin.com/xmlschemas/TrackPointExtension/v1">
            <gpxtpx:hr>139</gpxtpx:hr>
          </gpxtpx:TrackPointExtension>
        </extensions>
      </trkpt>
      <trkpt lat="45.64172" lon="2.99864">
        <ele>905.20001220703</ele>
        <time>2024-05-26T11:37:14.000Z</time>
        <extensions>
          <gpxtpx:TrackPointExtension xmlns:gpxtpx="http://www.garmin.com/xmlschemas/TrackPointExtension/v1">
            <gpxtpx:hr>136</gpxtpx:hr>
          </gpxtpx:TrackPointExtension>
        </extensions>
      </trkpt>
      <trkpt lat="45.64173" lon="2.99847">
        <ele>906</ele>
        <time>2024-05-26T11:37:17.000Z</time>
        <extensions>
          <gpxtpx:TrackPointExtension xmlns:gpxtpx="http://www.garmin.com/xmlschemas/TrackPointExtension/v1">
            <gpxtpx:hr>133</gpxtpx:hr>
          </gpxtpx:TrackPointExtension>
        </extensions>
      </trkpt>
      <trkpt lat="45.64173" lon="2.99841">
        <ele>906</ele>
        <time>2024-05-26T11:37:18.000Z</time>
        <extensions>
          <gpxtpx:TrackPointExtension xmlns:gpxtpx="http://www.garmin.com/xmlschemas/TrackPointExtension/v1">
            <gpxtpx:hr>133</gpxtpx:hr>
          </gpxtpx:TrackPointExtension>
        </extensions>
      </trkpt>
      <trkpt lat="45.64174" lon="2.99828">
        <ele>906.20001220703</ele>
        <time>2024-05-26T11:37:20.000Z</time>
        <extensions>
          <gpxtpx:TrackPointExtension xmlns:gpxtpx="http://www.garmin.com/xmlschemas/TrackPointExtension/v1">
            <gpxtpx:hr>131</gpxtpx:hr>
          </gpxtpx:TrackPointExtension>
        </extensions>
      </trkpt>
      <trkpt lat="45.64176" lon="2.99796">
        <ele>907</ele>
        <time>2024-05-26T11:37:25.000Z</time>
        <extensions>
          <gpxtpx:TrackPointExtension xmlns:gpxtpx="http://www.garmin.com/xmlschemas/TrackPointExtension/v1">
            <gpxtpx:hr>131</gpxtpx:hr>
          </gpxtpx:TrackPointExtension>
        </extensions>
      </trkpt>
      <trkpt lat="45.64177" lon="2.99788">
        <ele>906.79998779297</ele>
        <time>2024-05-26T11:37:26.000Z</time>
        <extensions>
          <gpxtpx:TrackPointExtension xmlns:gpxtpx="http://www.garmin.com/xmlschemas/TrackPointExtension/v1">
            <gpxtpx:hr>131</gpxtpx:hr>
          </gpxtpx:TrackPointExtension>
        </extensions>
      </trkpt>
      <trkpt lat="45.64178" lon="2.99757">
        <ele>907</ele>
        <time>2024-05-26T11:37:30.000Z</time>
        <extensions>
          <gpxtpx:TrackPointExtension xmlns:gpxtpx="http://www.garmin.com/xmlschemas/TrackPointExtension/v1">
            <gpxtpx:hr>132</gpxtpx:hr>
          </gpxtpx:TrackPointExtension>
        </extensions>
      </trkpt>
      <trkpt lat="45.64178" lon="2.99748">
        <ele>907.20001220703</ele>
        <time>2024-05-26T11:37:31.000Z</time>
        <extensions>
          <gpxtpx:TrackPointExtension xmlns:gpxtpx="http://www.garmin.com/xmlschemas/TrackPointExtension/v1">
            <gpxtpx:hr>131</gpxtpx:hr>
          </gpxtpx:TrackPointExtension>
        </extensions>
      </trkpt>
      <trkpt lat="45.64179" lon="2.99731">
        <ele>907.59997558594</ele>
        <time>2024-05-26T11:37:33.000Z</time>
        <extensions>
          <gpxtpx:TrackPointExtension xmlns:gpxtpx="http://www.garmin.com/xmlschemas/TrackPointExtension/v1">
            <gpxtpx:hr>134</gpxtpx:hr>
          </gpxtpx:TrackPointExtension>
        </extensions>
      </trkpt>
      <trkpt lat="45.64181" lon="2.99706">
        <ele>908.20001220703</ele>
        <time>2024-05-26T11:37:36.000Z</time>
        <extensions>
          <gpxtpx:TrackPointExtension xmlns:gpxtpx="http://www.garmin.com/xmlschemas/TrackPointExtension/v1">
            <gpxtpx:hr>136</gpxtpx:hr>
          </gpxtpx:TrackPointExtension>
        </extensions>
      </trkpt>
      <trkpt lat="45.64181" lon="2.99697">
        <ele>908.40002441406</ele>
        <time>2024-05-26T11:37:37.000Z</time>
        <extensions>
          <gpxtpx:TrackPointExtension xmlns:gpxtpx="http://www.garmin.com/xmlschemas/TrackPointExtension/v1">
            <gpxtpx:hr>137</gpxtpx:hr>
          </gpxtpx:TrackPointExtension>
        </extensions>
      </trkpt>
      <trkpt lat="45.64186" lon="2.99673">
        <ele>909</ele>
        <time>2024-05-26T11:37:40.000Z</time>
        <extensions>
          <gpxtpx:TrackPointExtension xmlns:gpxtpx="http://www.garmin.com/xmlschemas/TrackPointExtension/v1">
            <gpxtpx:hr>140</gpxtpx:hr>
          </gpxtpx:TrackPointExtension>
        </extensions>
      </trkpt>
      <trkpt lat="45.64189" lon="2.99657">
        <ele>910</ele>
        <time>2024-05-26T11:37:42.000Z</time>
        <extensions>
          <gpxtpx:TrackPointExtension xmlns:gpxtpx="http://www.garmin.com/xmlschemas/TrackPointExtension/v1">
            <gpxtpx:hr>141</gpxtpx:hr>
          </gpxtpx:TrackPointExtension>
        </extensions>
      </trkpt>
      <trkpt lat="45.64192" lon="2.9965">
        <ele>910.20001220703</ele>
        <time>2024-05-26T11:37:43.000Z</time>
        <extensions>
          <gpxtpx:TrackPointExtension xmlns:gpxtpx="http://www.garmin.com/xmlschemas/TrackPointExtension/v1">
            <gpxtpx:hr>142</gpxtpx:hr>
          </gpxtpx:TrackPointExtension>
        </extensions>
      </trkpt>
      <trkpt lat="45.64201" lon="2.9963">
        <ele>911</ele>
        <time>2024-05-26T11:37:46.000Z</time>
        <extensions>
          <gpxtpx:TrackPointExtension xmlns:gpxtpx="http://www.garmin.com/xmlschemas/TrackPointExtension/v1">
            <gpxtpx:hr>142</gpxtpx:hr>
          </gpxtpx:TrackPointExtension>
        </extensions>
      </trkpt>
      <trkpt lat="45.64204" lon="2.99625">
        <ele>911.40002441406</ele>
        <time>2024-05-26T11:37:47.000Z</time>
        <extensions>
          <gpxtpx:TrackPointExtension xmlns:gpxtpx="http://www.garmin.com/xmlschemas/TrackPointExtension/v1">
            <gpxtpx:hr>143</gpxtpx:hr>
          </gpxtpx:TrackPointExtension>
        </extensions>
      </trkpt>
      <trkpt lat="45.64211" lon="2.99616">
        <ele>912.20001220703</ele>
        <time>2024-05-26T11:37:49.000Z</time>
        <extensions>
          <gpxtpx:TrackPointExtension xmlns:gpxtpx="http://www.garmin.com/xmlschemas/TrackPointExtension/v1">
            <gpxtpx:hr>142</gpxtpx:hr>
          </gpxtpx:TrackPointExtension>
        </extensions>
      </trkpt>
      <trkpt lat="45.64225" lon="2.99603">
        <ele>913.40002441406</ele>
        <time>2024-05-26T11:37:53.000Z</time>
        <extensions>
          <gpxtpx:TrackPointExtension xmlns:gpxtpx="http://www.garmin.com/xmlschemas/TrackPointExtension/v1">
            <gpxtpx:hr>143</gpxtpx:hr>
          </gpxtpx:TrackPointExtension>
        </extensions>
      </trkpt>
      <trkpt lat="45.64237" lon="2.99592">
        <ele>914.40002441406</ele>
        <time>2024-05-26T11:37:57.000Z</time>
        <extensions>
          <gpxtpx:TrackPointExtension xmlns:gpxtpx="http://www.garmin.com/xmlschemas/TrackPointExtension/v1">
            <gpxtpx:hr>144</gpxtpx:hr>
          </gpxtpx:TrackPointExtension>
        </extensions>
      </trkpt>
      <trkpt lat="45.64244" lon="2.99584">
        <ele>915.20001220703</ele>
        <time>2024-05-26T11:38:00.000Z</time>
        <extensions>
          <gpxtpx:TrackPointExtension xmlns:gpxtpx="http://www.garmin.com/xmlschemas/TrackPointExtension/v1">
            <gpxtpx:hr>145</gpxtpx:hr>
          </gpxtpx:TrackPointExtension>
        </extensions>
      </trkpt>
      <trkpt lat="45.64246" lon="2.99581">
        <ele>915.59997558594</ele>
        <time>2024-05-26T11:38:01.000Z</time>
        <extensions>
          <gpxtpx:TrackPointExtension xmlns:gpxtpx="http://www.garmin.com/xmlschemas/TrackPointExtension/v1">
            <gpxtpx:hr>145</gpxtpx:hr>
          </gpxtpx:TrackPointExtension>
        </extensions>
      </trkpt>
      <trkpt lat="45.64259" lon="2.99568">
        <ele>916.79998779297</ele>
        <time>2024-05-26T11:38:06.000Z</time>
        <extensions>
          <gpxtpx:TrackPointExtension xmlns:gpxtpx="http://www.garmin.com/xmlschemas/TrackPointExtension/v1">
            <gpxtpx:hr>147</gpxtpx:hr>
          </gpxtpx:TrackPointExtension>
        </extensions>
      </trkpt>
      <trkpt lat="45.64264" lon="2.99563">
        <ele>917.20001220703</ele>
        <time>2024-05-26T11:38:08.000Z</time>
        <extensions>
          <gpxtpx:TrackPointExtension xmlns:gpxtpx="http://www.garmin.com/xmlschemas/TrackPointExtension/v1">
            <gpxtpx:hr>147</gpxtpx:hr>
          </gpxtpx:TrackPointExtension>
        </extensions>
      </trkpt>
      <trkpt lat="45.64274" lon="2.99551">
        <ele>918</ele>
        <time>2024-05-26T11:38:12.000Z</time>
        <extensions>
          <gpxtpx:TrackPointExtension xmlns:gpxtpx="http://www.garmin.com/xmlschemas/TrackPointExtension/v1">
            <gpxtpx:hr>147</gpxtpx:hr>
          </gpxtpx:TrackPointExtension>
        </extensions>
      </trkpt>
      <trkpt lat="45.64282" lon="2.99542">
        <ele>918.59997558594</ele>
        <time>2024-05-26T11:38:15.000Z</time>
        <extensions>
          <gpxtpx:TrackPointExtension xmlns:gpxtpx="http://www.garmin.com/xmlschemas/TrackPointExtension/v1">
            <gpxtpx:hr>146</gpxtpx:hr>
          </gpxtpx:TrackPointExtension>
        </extensions>
      </trkpt>
      <trkpt lat="45.64286" lon="2.99536">
        <ele>919.40002441406</ele>
        <time>2024-05-26T11:38:17.000Z</time>
        <extensions>
          <gpxtpx:TrackPointExtension xmlns:gpxtpx="http://www.garmin.com/xmlschemas/TrackPointExtension/v1">
            <gpxtpx:hr>145</gpxtpx:hr>
          </gpxtpx:TrackPointExtension>
        </extensions>
      </trkpt>
      <trkpt lat="45.64298" lon="2.9952">
        <ele>920.40002441406</ele>
        <time>2024-05-26T11:38:22.000Z</time>
        <extensions>
          <gpxtpx:TrackPointExtension xmlns:gpxtpx="http://www.garmin.com/xmlschemas/TrackPointExtension/v1">
            <gpxtpx:hr>143</gpxtpx:hr>
          </gpxtpx:TrackPointExtension>
        </extensions>
      </trkpt>
      <trkpt lat="45.64319" lon="2.99498">
        <ele>921.59997558594</ele>
        <time>2024-05-26T11:38:30.000Z</time>
        <extensions>
          <gpxtpx:TrackPointExtension xmlns:gpxtpx="http://www.garmin.com/xmlschemas/TrackPointExtension/v1">
            <gpxtpx:hr>143</gpxtpx:hr>
          </gpxtpx:TrackPointExtension>
        </extensions>
      </trkpt>
      <trkpt lat="45.64337" lon="2.99472">
        <ele>922.79998779297</ele>
        <time>2024-05-26T11:38:38.000Z</time>
        <extensions>
          <gpxtpx:TrackPointExtension xmlns:gpxtpx="http://www.garmin.com/xmlschemas/TrackPointExtension/v1">
            <gpxtpx:hr>146</gpxtpx:hr>
          </gpxtpx:TrackPointExtension>
        </extensions>
      </trkpt>
      <trkpt lat="45.64352" lon="2.99439">
        <ele>923.79998779297</ele>
        <time>2024-05-26T11:38:46.000Z</time>
        <extensions>
          <gpxtpx:TrackPointExtension xmlns:gpxtpx="http://www.garmin.com/xmlschemas/TrackPointExtension/v1">
            <gpxtpx:hr>149</gpxtpx:hr>
          </gpxtpx:TrackPointExtension>
        </extensions>
      </trkpt>
      <trkpt lat="45.64354" lon="2.99435">
        <ele>924</ele>
        <time>2024-05-26T11:38:47.000Z</time>
        <extensions>
          <gpxtpx:TrackPointExtension xmlns:gpxtpx="http://www.garmin.com/xmlschemas/TrackPointExtension/v1">
            <gpxtpx:hr>150</gpxtpx:hr>
          </gpxtpx:TrackPointExtension>
        </extensions>
      </trkpt>
      <trkpt lat="45.64356" lon="2.99431">
        <ele>924.20001220703</ele>
        <time>2024-05-26T11:38:48.000Z</time>
        <extensions>
          <gpxtpx:TrackPointExtension xmlns:gpxtpx="http://www.garmin.com/xmlschemas/TrackPointExtension/v1">
            <gpxtpx:hr>150</gpxtpx:hr>
          </gpxtpx:TrackPointExtension>
        </extensions>
      </trkpt>
      <trkpt lat="45.64367" lon="2.99413">
        <ele>925</ele>
        <time>2024-05-26T11:38:53.000Z</time>
        <extensions>
          <gpxtpx:TrackPointExtension xmlns:gpxtpx="http://www.garmin.com/xmlschemas/TrackPointExtension/v1">
            <gpxtpx:hr>151</gpxtpx:hr>
          </gpxtpx:TrackPointExtension>
        </extensions>
      </trkpt>
      <trkpt lat="45.64379" lon="2.99393">
        <ele>926.20001220703</ele>
        <time>2024-05-26T11:38:59.000Z</time>
        <extensions>
          <gpxtpx:TrackPointExtension xmlns:gpxtpx="http://www.garmin.com/xmlschemas/TrackPointExtension/v1">
            <gpxtpx:hr>151</gpxtpx:hr>
          </gpxtpx:TrackPointExtension>
        </extensions>
      </trkpt>
      <trkpt lat="45.64386" lon="2.99383">
        <ele>927</ele>
        <time>2024-05-26T11:39:02.000Z</time>
        <extensions>
          <gpxtpx:TrackPointExtension xmlns:gpxtpx="http://www.garmin.com/xmlschemas/TrackPointExtension/v1">
            <gpxtpx:hr>148</gpxtpx:hr>
          </gpxtpx:TrackPointExtension>
        </extensions>
      </trkpt>
      <trkpt lat="45.64392" lon="2.99373">
        <ele>927.40002441406</ele>
        <time>2024-05-26T11:39:05.000Z</time>
        <extensions>
          <gpxtpx:TrackPointExtension xmlns:gpxtpx="http://www.garmin.com/xmlschemas/TrackPointExtension/v1">
            <gpxtpx:hr>146</gpxtpx:hr>
          </gpxtpx:TrackPointExtension>
        </extensions>
      </trkpt>
      <trkpt lat="45.64395" lon="2.99367">
        <ele>928</ele>
        <time>2024-05-26T11:39:07.000Z</time>
        <extensions>
          <gpxtpx:TrackPointExtension xmlns:gpxtpx="http://www.garmin.com/xmlschemas/TrackPointExtension/v1">
            <gpxtpx:hr>146</gpxtpx:hr>
          </gpxtpx:TrackPointExtension>
        </extensions>
      </trkpt>
      <trkpt lat="45.64399" lon="2.99356">
        <ele>928.40002441406</ele>
        <time>2024-05-26T11:39:12.000Z</time>
        <extensions>
          <gpxtpx:TrackPointExtension xmlns:gpxtpx="http://www.garmin.com/xmlschemas/TrackPointExtension/v1">
            <gpxtpx:hr>143</gpxtpx:hr>
          </gpxtpx:TrackPointExtension>
        </extensions>
      </trkpt>
      <trkpt lat="45.64402" lon="2.99352">
        <ele>928.59997558594</ele>
        <time>2024-05-26T11:39:14.000Z</time>
        <extensions>
          <gpxtpx:TrackPointExtension xmlns:gpxtpx="http://www.garmin.com/xmlschemas/TrackPointExtension/v1">
            <gpxtpx:hr>141</gpxtpx:hr>
          </gpxtpx:TrackPointExtension>
        </extensions>
      </trkpt>
      <trkpt lat="45.64409" lon="2.99343">
        <ele>929</ele>
        <time>2024-05-26T11:39:19.000Z</time>
        <extensions>
          <gpxtpx:TrackPointExtension xmlns:gpxtpx="http://www.garmin.com/xmlschemas/TrackPointExtension/v1">
            <gpxtpx:hr>136</gpxtpx:hr>
          </gpxtpx:TrackPointExtension>
        </extensions>
      </trkpt>
      <trkpt lat="45.64416" lon="2.99335">
        <ele>929.59997558594</ele>
        <time>2024-05-26T11:39:23.000Z</time>
        <extensions>
          <gpxtpx:TrackPointExtension xmlns:gpxtpx="http://www.garmin.com/xmlschemas/TrackPointExtension/v1">
            <gpxtpx:hr>134</gpxtpx:hr>
          </gpxtpx:TrackPointExtension>
        </extensions>
      </trkpt>
      <trkpt lat="45.64422" lon="2.99327">
        <ele>930.20001220703</ele>
        <time>2024-05-26T11:39:26.000Z</time>
        <extensions>
          <gpxtpx:TrackPointExtension xmlns:gpxtpx="http://www.garmin.com/xmlschemas/TrackPointExtension/v1">
            <gpxtpx:hr>133</gpxtpx:hr>
          </gpxtpx:TrackPointExtension>
        </extensions>
      </trkpt>
      <trkpt lat="45.64424" lon="2.99324">
        <ele>930.59997558594</ele>
        <time>2024-05-26T11:39:27.000Z</time>
        <extensions>
          <gpxtpx:TrackPointExtension xmlns:gpxtpx="http://www.garmin.com/xmlschemas/TrackPointExtension/v1">
            <gpxtpx:hr>133</gpxtpx:hr>
          </gpxtpx:TrackPointExtension>
        </extensions>
      </trkpt>
      <trkpt lat="45.64428" lon="2.99318">
        <ele>931</ele>
        <time>2024-05-26T11:39:29.000Z</time>
        <extensions>
          <gpxtpx:TrackPointExtension xmlns:gpxtpx="http://www.garmin.com/xmlschemas/TrackPointExtension/v1">
            <gpxtpx:hr>130</gpxtpx:hr>
          </gpxtpx:TrackPointExtension>
        </extensions>
      </trkpt>
      <trkpt lat="45.64435" lon="2.99305">
        <ele>931.79998779297</ele>
        <time>2024-05-26T11:39:33.000Z</time>
        <extensions>
          <gpxtpx:TrackPointExtension xmlns:gpxtpx="http://www.garmin.com/xmlschemas/TrackPointExtension/v1">
            <gpxtpx:hr>130</gpxtpx:hr>
          </gpxtpx:TrackPointExtension>
        </extensions>
      </trkpt>
      <trkpt lat="45.64437" lon="2.99302">
        <ele>931.79998779297</ele>
        <time>2024-05-26T11:39:34.000Z</time>
        <extensions>
          <gpxtpx:TrackPointExtension xmlns:gpxtpx="http://www.garmin.com/xmlschemas/TrackPointExtension/v1">
            <gpxtpx:hr>132</gpxtpx:hr>
          </gpxtpx:TrackPointExtension>
        </extensions>
      </trkpt>
      <trkpt lat="45.64445" lon="2.99291">
        <ele>932.79998779297</ele>
        <time>2024-05-26T11:39:38.000Z</time>
        <extensions>
          <gpxtpx:TrackPointExtension xmlns:gpxtpx="http://www.garmin.com/xmlschemas/TrackPointExtension/v1">
            <gpxtpx:hr>135</gpxtpx:hr>
          </gpxtpx:TrackPointExtension>
        </extensions>
      </trkpt>
      <trkpt lat="45.64451" lon="2.99283">
        <ele>933.40002441406</ele>
        <time>2024-05-26T11:39:41.000Z</time>
        <extensions>
          <gpxtpx:TrackPointExtension xmlns:gpxtpx="http://www.garmin.com/xmlschemas/TrackPointExtension/v1">
            <gpxtpx:hr>139</gpxtpx:hr>
          </gpxtpx:TrackPointExtension>
        </extensions>
      </trkpt>
      <trkpt lat="45.64455" lon="2.99278">
        <ele>933.79998779297</ele>
        <time>2024-05-26T11:39:43.000Z</time>
        <extensions>
          <gpxtpx:TrackPointExtension xmlns:gpxtpx="http://www.garmin.com/xmlschemas/TrackPointExtension/v1">
            <gpxtpx:hr>141</gpxtpx:hr>
          </gpxtpx:TrackPointExtension>
        </extensions>
      </trkpt>
      <trkpt lat="45.64463" lon="2.99269">
        <ele>934.40002441406</ele>
        <time>2024-05-26T11:39:47.000Z</time>
        <extensions>
          <gpxtpx:TrackPointExtension xmlns:gpxtpx="http://www.garmin.com/xmlschemas/TrackPointExtension/v1">
            <gpxtpx:hr>139</gpxtpx:hr>
          </gpxtpx:TrackPointExtension>
        </extensions>
      </trkpt>
      <trkpt lat="45.6447" lon="2.99264">
        <ele>934.79998779297</ele>
        <time>2024-05-26T11:39:50.000Z</time>
        <extensions>
          <gpxtpx:TrackPointExtension xmlns:gpxtpx="http://www.garmin.com/xmlschemas/TrackPointExtension/v1">
            <gpxtpx:hr>137</gpxtpx:hr>
          </gpxtpx:TrackPointExtension>
        </extensions>
      </trkpt>
      <trkpt lat="45.64475" lon="2.9926">
        <ele>935.20001220703</ele>
        <time>2024-05-26T11:39:52.000Z</time>
        <extensions>
          <gpxtpx:TrackPointExtension xmlns:gpxtpx="http://www.garmin.com/xmlschemas/TrackPointExtension/v1">
            <gpxtpx:hr>134</gpxtpx:hr>
          </gpxtpx:TrackPointExtension>
        </extensions>
      </trkpt>
      <trkpt lat="45.64483" lon="2.99254">
        <ele>935.59997558594</ele>
        <time>2024-05-26T11:39:55.000Z</time>
        <extensions>
          <gpxtpx:TrackPointExtension xmlns:gpxtpx="http://www.garmin.com/xmlschemas/TrackPointExtension/v1">
            <gpxtpx:hr>131</gpxtpx:hr>
          </gpxtpx:TrackPointExtension>
        </extensions>
      </trkpt>
      <trkpt lat="45.64488" lon="2.99251">
        <ele>936.20001220703</ele>
        <time>2024-05-26T11:39:57.000Z</time>
        <extensions>
          <gpxtpx:TrackPointExtension xmlns:gpxtpx="http://www.garmin.com/xmlschemas/TrackPointExtension/v1">
            <gpxtpx:hr>130</gpxtpx:hr>
          </gpxtpx:TrackPointExtension>
        </extensions>
      </trkpt>
      <trkpt lat="45.64493" lon="2.99247">
        <ele>936.40002441406</ele>
        <time>2024-05-26T11:39:59.000Z</time>
        <extensions>
          <gpxtpx:TrackPointExtension xmlns:gpxtpx="http://www.garmin.com/xmlschemas/TrackPointExtension/v1">
            <gpxtpx:hr>129</gpxtpx:hr>
          </gpxtpx:TrackPointExtension>
        </extensions>
      </trkpt>
      <trkpt lat="45.64501" lon="2.99241">
        <ele>937</ele>
        <time>2024-05-26T11:40:02.000Z</time>
        <extensions>
          <gpxtpx:TrackPointExtension xmlns:gpxtpx="http://www.garmin.com/xmlschemas/TrackPointExtension/v1">
            <gpxtpx:hr>126</gpxtpx:hr>
          </gpxtpx:TrackPointExtension>
        </extensions>
      </trkpt>
      <trkpt lat="45.64506" lon="2.99237">
        <ele>937.20001220703</ele>
        <time>2024-05-26T11:40:04.000Z</time>
        <extensions>
          <gpxtpx:TrackPointExtension xmlns:gpxtpx="http://www.garmin.com/xmlschemas/TrackPointExtension/v1">
            <gpxtpx:hr>123</gpxtpx:hr>
          </gpxtpx:TrackPointExtension>
        </extensions>
      </trkpt>
      <trkpt lat="45.64508" lon="2.99235">
        <ele>937.20001220703</ele>
        <time>2024-05-26T11:40:05.000Z</time>
        <extensions>
          <gpxtpx:TrackPointExtension xmlns:gpxtpx="http://www.garmin.com/xmlschemas/TrackPointExtension/v1">
            <gpxtpx:hr>120</gpxtpx:hr>
          </gpxtpx:TrackPointExtension>
        </extensions>
      </trkpt>
      <trkpt lat="45.64511" lon="2.99234">
        <ele>937.59997558594</ele>
        <time>2024-05-26T11:40:06.000Z</time>
        <extensions>
          <gpxtpx:TrackPointExtension xmlns:gpxtpx="http://www.garmin.com/xmlschemas/TrackPointExtension/v1">
            <gpxtpx:hr>116</gpxtpx:hr>
          </gpxtpx:TrackPointExtension>
        </extensions>
      </trkpt>
      <trkpt lat="45.64513" lon="2.99232">
        <ele>937.59997558594</ele>
        <time>2024-05-26T11:40:07.000Z</time>
        <extensions>
          <gpxtpx:TrackPointExtension xmlns:gpxtpx="http://www.garmin.com/xmlschemas/TrackPointExtension/v1">
            <gpxtpx:hr>112</gpxtpx:hr>
          </gpxtpx:TrackPointExtension>
        </extensions>
      </trkpt>
      <trkpt lat="45.64526" lon="2.9922">
        <ele>938.40002441406</ele>
        <time>2024-05-26T11:40:12.000Z</time>
        <extensions>
          <gpxtpx:TrackPointExtension xmlns:gpxtpx="http://www.garmin.com/xmlschemas/TrackPointExtension/v1">
            <gpxtpx:hr>110</gpxtpx:hr>
          </gpxtpx:TrackPointExtension>
        </extensions>
      </trkpt>
      <trkpt lat="45.64546" lon="2.99199">
        <ele>939.40002441406</ele>
        <time>2024-05-26T11:40:18.000Z</time>
        <extensions>
          <gpxtpx:TrackPointExtension xmlns:gpxtpx="http://www.garmin.com/xmlschemas/TrackPointExtension/v1">
            <gpxtpx:hr>110</gpxtpx:hr>
          </gpxtpx:TrackPointExtension>
        </extensions>
      </trkpt>
      <trkpt lat="45.64559" lon="2.99183">
        <ele>940.59997558594</ele>
        <time>2024-05-26T11:40:23.000Z</time>
        <extensions>
          <gpxtpx:TrackPointExtension xmlns:gpxtpx="http://www.garmin.com/xmlschemas/TrackPointExtension/v1">
            <gpxtpx:hr>110</gpxtpx:hr>
          </gpxtpx:TrackPointExtension>
        </extensions>
      </trkpt>
      <trkpt lat="45.64561" lon="2.9918">
        <ele>941</ele>
        <time>2024-05-26T11:40:24.000Z</time>
        <extensions>
          <gpxtpx:TrackPointExtension xmlns:gpxtpx="http://www.garmin.com/xmlschemas/TrackPointExtension/v1">
            <gpxtpx:hr>110</gpxtpx:hr>
          </gpxtpx:TrackPointExtension>
        </extensions>
      </trkpt>
      <trkpt lat="45.64573" lon="2.99169">
        <ele>941.79998779297</ele>
        <time>2024-05-26T11:40:28.000Z</time>
        <extensions>
          <gpxtpx:TrackPointExtension xmlns:gpxtpx="http://www.garmin.com/xmlschemas/TrackPointExtension/v1">
            <gpxtpx:hr>110</gpxtpx:hr>
          </gpxtpx:TrackPointExtension>
        </extensions>
      </trkpt>
      <trkpt lat="45.64578" lon="2.99163">
        <ele>942</ele>
        <time>2024-05-26T11:40:30.000Z</time>
        <extensions>
          <gpxtpx:TrackPointExtension xmlns:gpxtpx="http://www.garmin.com/xmlschemas/TrackPointExtension/v1">
            <gpxtpx:hr>110</gpxtpx:hr>
          </gpxtpx:TrackPointExtension>
        </extensions>
      </trkpt>
      <trkpt lat="45.64594" lon="2.99144">
        <ele>942.79998779297</ele>
        <time>2024-05-26T11:40:36.000Z</time>
        <extensions>
          <gpxtpx:TrackPointExtension xmlns:gpxtpx="http://www.garmin.com/xmlschemas/TrackPointExtension/v1">
            <gpxtpx:hr>113</gpxtpx:hr>
          </gpxtpx:TrackPointExtension>
        </extensions>
      </trkpt>
      <trkpt lat="45.64596" lon="2.99141">
        <ele>942.79998779297</ele>
        <time>2024-05-26T11:40:37.000Z</time>
        <extensions>
          <gpxtpx:TrackPointExtension xmlns:gpxtpx="http://www.garmin.com/xmlschemas/TrackPointExtension/v1">
            <gpxtpx:hr>114</gpxtpx:hr>
          </gpxtpx:TrackPointExtension>
        </extensions>
      </trkpt>
      <trkpt lat="45.64604" lon="2.99133">
        <ele>943.59997558594</ele>
        <time>2024-05-26T11:40:40.000Z</time>
        <extensions>
          <gpxtpx:TrackPointExtension xmlns:gpxtpx="http://www.garmin.com/xmlschemas/TrackPointExtension/v1">
            <gpxtpx:hr>114</gpxtpx:hr>
          </gpxtpx:TrackPointExtension>
        </extensions>
      </trkpt>
      <trkpt lat="45.64606" lon="2.9913">
        <ele>943.79998779297</ele>
        <time>2024-05-26T11:40:41.000Z</time>
        <extensions>
          <gpxtpx:TrackPointExtension xmlns:gpxtpx="http://www.garmin.com/xmlschemas/TrackPointExtension/v1">
            <gpxtpx:hr>117</gpxtpx:hr>
          </gpxtpx:TrackPointExtension>
        </extensions>
      </trkpt>
      <trkpt lat="45.64611" lon="2.99125">
        <ele>944.20001220703</ele>
        <time>2024-05-26T11:40:43.000Z</time>
        <extensions>
          <gpxtpx:TrackPointExtension xmlns:gpxtpx="http://www.garmin.com/xmlschemas/TrackPointExtension/v1">
            <gpxtpx:hr>118</gpxtpx:hr>
          </gpxtpx:TrackPointExtension>
        </extensions>
      </trkpt>
      <trkpt lat="45.64619" lon="2.99117">
        <ele>944.59997558594</ele>
        <time>2024-05-26T11:40:46.000Z</time>
        <extensions>
          <gpxtpx:TrackPointExtension xmlns:gpxtpx="http://www.garmin.com/xmlschemas/TrackPointExtension/v1">
            <gpxtpx:hr>122</gpxtpx:hr>
          </gpxtpx:TrackPointExtension>
        </extensions>
      </trkpt>
      <trkpt lat="45.64625" lon="2.99107">
        <ele>945.20001220703</ele>
        <time>2024-05-26T11:40:49.000Z</time>
        <extensions>
          <gpxtpx:TrackPointExtension xmlns:gpxtpx="http://www.garmin.com/xmlschemas/TrackPointExtension/v1">
            <gpxtpx:hr>124</gpxtpx:hr>
          </gpxtpx:TrackPointExtension>
        </extensions>
      </trkpt>
      <trkpt lat="45.64632" lon="2.99098">
        <ele>945.40002441406</ele>
        <time>2024-05-26T11:40:52.000Z</time>
        <extensions>
          <gpxtpx:TrackPointExtension xmlns:gpxtpx="http://www.garmin.com/xmlschemas/TrackPointExtension/v1">
            <gpxtpx:hr>127</gpxtpx:hr>
          </gpxtpx:TrackPointExtension>
        </extensions>
      </trkpt>
      <trkpt lat="45.64637" lon="2.99089">
        <ele>946</ele>
        <time>2024-05-26T11:40:55.000Z</time>
        <extensions>
          <gpxtpx:TrackPointExtension xmlns:gpxtpx="http://www.garmin.com/xmlschemas/TrackPointExtension/v1">
            <gpxtpx:hr>128</gpxtpx:hr>
          </gpxtpx:TrackPointExtension>
        </extensions>
      </trkpt>
      <trkpt lat="45.6464" lon="2.99083">
        <ele>946.40002441406</ele>
        <time>2024-05-26T11:40:57.000Z</time>
        <extensions>
          <gpxtpx:TrackPointExtension xmlns:gpxtpx="http://www.garmin.com/xmlschemas/TrackPointExtension/v1">
            <gpxtpx:hr>129</gpxtpx:hr>
          </gpxtpx:TrackPointExtension>
        </extensions>
      </trkpt>
      <trkpt lat="45.64647" lon="2.99075">
        <ele>947</ele>
        <time>2024-05-26T11:41:00.000Z</time>
        <extensions>
          <gpxtpx:TrackPointExtension xmlns:gpxtpx="http://www.garmin.com/xmlschemas/TrackPointExtension/v1">
            <gpxtpx:hr>131</gpxtpx:hr>
          </gpxtpx:TrackPointExtension>
        </extensions>
      </trkpt>
      <trkpt lat="45.64655" lon="2.99061">
        <ele>947.40002441406</ele>
        <time>2024-05-26T11:41:04.000Z</time>
        <extensions>
          <gpxtpx:TrackPointExtension xmlns:gpxtpx="http://www.garmin.com/xmlschemas/TrackPointExtension/v1">
            <gpxtpx:hr>134</gpxtpx:hr>
          </gpxtpx:TrackPointExtension>
        </extensions>
      </trkpt>
      <trkpt lat="45.6466" lon="2.9905">
        <ele>947.40002441406</ele>
        <time>2024-05-26T11:41:07.000Z</time>
        <extensions>
          <gpxtpx:TrackPointExtension xmlns:gpxtpx="http://www.garmin.com/xmlschemas/TrackPointExtension/v1">
            <gpxtpx:hr>135</gpxtpx:hr>
          </gpxtpx:TrackPointExtension>
        </extensions>
      </trkpt>
      <trkpt lat="45.64662" lon="2.99047">
        <ele>947.59997558594</ele>
        <time>2024-05-26T11:41:08.000Z</time>
        <extensions>
          <gpxtpx:TrackPointExtension xmlns:gpxtpx="http://www.garmin.com/xmlschemas/TrackPointExtension/v1">
            <gpxtpx:hr>135</gpxtpx:hr>
          </gpxtpx:TrackPointExtension>
        </extensions>
      </trkpt>
      <trkpt lat="45.64671" lon="2.99024">
        <ele>948.20001220703</ele>
        <time>2024-05-26T11:41:14.000Z</time>
        <extensions>
          <gpxtpx:TrackPointExtension xmlns:gpxtpx="http://www.garmin.com/xmlschemas/TrackPointExtension/v1">
            <gpxtpx:hr>135</gpxtpx:hr>
          </gpxtpx:TrackPointExtension>
        </extensions>
      </trkpt>
      <trkpt lat="45.64679" lon="2.99017">
        <ele>948.59997558594</ele>
        <time>2024-05-26T11:41:17.000Z</time>
        <extensions>
          <gpxtpx:TrackPointExtension xmlns:gpxtpx="http://www.garmin.com/xmlschemas/TrackPointExtension/v1">
            <gpxtpx:hr>136</gpxtpx:hr>
          </gpxtpx:TrackPointExtension>
        </extensions>
      </trkpt>
      <trkpt lat="45.64682" lon="2.9901">
        <ele>948.79998779297</ele>
        <time>2024-05-26T11:41:19.000Z</time>
        <extensions>
          <gpxtpx:TrackPointExtension xmlns:gpxtpx="http://www.garmin.com/xmlschemas/TrackPointExtension/v1">
            <gpxtpx:hr>135</gpxtpx:hr>
          </gpxtpx:TrackPointExtension>
        </extensions>
      </trkpt>
      <trkpt lat="45.64688" lon="2.98994">
        <ele>949.59997558594</ele>
        <time>2024-05-26T11:41:24.000Z</time>
        <extensions>
          <gpxtpx:TrackPointExtension xmlns:gpxtpx="http://www.garmin.com/xmlschemas/TrackPointExtension/v1">
            <gpxtpx:hr>133</gpxtpx:hr>
          </gpxtpx:TrackPointExtension>
        </extensions>
      </trkpt>
      <trkpt lat="45.6469" lon="2.98991">
        <ele>949.79998779297</ele>
        <time>2024-05-26T11:41:25.000Z</time>
        <extensions>
          <gpxtpx:TrackPointExtension xmlns:gpxtpx="http://www.garmin.com/xmlschemas/TrackPointExtension/v1">
            <gpxtpx:hr>133</gpxtpx:hr>
          </gpxtpx:TrackPointExtension>
        </extensions>
      </trkpt>
      <trkpt lat="45.64703" lon="2.98968">
        <ele>950.79998779297</ele>
        <time>2024-05-26T11:41:32.000Z</time>
        <extensions>
          <gpxtpx:TrackPointExtension xmlns:gpxtpx="http://www.garmin.com/xmlschemas/TrackPointExtension/v1">
            <gpxtpx:hr>134</gpxtpx:hr>
          </gpxtpx:TrackPointExtension>
        </extensions>
      </trkpt>
      <trkpt lat="45.64717" lon="2.98949">
        <ele>952</ele>
        <time>2024-05-26T11:41:39.000Z</time>
        <extensions>
          <gpxtpx:TrackPointExtension xmlns:gpxtpx="http://www.garmin.com/xmlschemas/TrackPointExtension/v1">
            <gpxtpx:hr>135</gpxtpx:hr>
          </gpxtpx:TrackPointExtension>
        </extensions>
      </trkpt>
      <trkpt lat="45.64719" lon="2.98946">
        <ele>952</ele>
        <time>2024-05-26T11:41:40.000Z</time>
        <extensions>
          <gpxtpx:TrackPointExtension xmlns:gpxtpx="http://www.garmin.com/xmlschemas/TrackPointExtension/v1">
            <gpxtpx:hr>135</gpxtpx:hr>
          </gpxtpx:TrackPointExtension>
        </extensions>
      </trkpt>
      <trkpt lat="45.64731" lon="2.98936">
        <ele>953.20001220703</ele>
        <time>2024-05-26T11:41:45.000Z</time>
        <extensions>
          <gpxtpx:TrackPointExtension xmlns:gpxtpx="http://www.garmin.com/xmlschemas/TrackPointExtension/v1">
            <gpxtpx:hr>133</gpxtpx:hr>
          </gpxtpx:TrackPointExtension>
        </extensions>
      </trkpt>
      <trkpt lat="45.6474" lon="2.98929">
        <ele>953.40002441406</ele>
        <time>2024-05-26T11:41:48.000Z</time>
        <extensions>
          <gpxtpx:TrackPointExtension xmlns:gpxtpx="http://www.garmin.com/xmlschemas/TrackPointExtension/v1">
            <gpxtpx:hr>130</gpxtpx:hr>
          </gpxtpx:TrackPointExtension>
        </extensions>
      </trkpt>
      <trkpt lat="45.6475" lon="2.98921">
        <ele>953.40002441406</ele>
        <time>2024-05-26T11:41:52.000Z</time>
        <extensions>
          <gpxtpx:TrackPointExtension xmlns:gpxtpx="http://www.garmin.com/xmlschemas/TrackPointExtension/v1">
            <gpxtpx:hr>130</gpxtpx:hr>
          </gpxtpx:TrackPointExtension>
        </extensions>
      </trkpt>
      <trkpt lat="45.64758" lon="2.98914">
        <ele>953.40002441406</ele>
        <time>2024-05-26T11:41:55.000Z</time>
        <extensions>
          <gpxtpx:TrackPointExtension xmlns:gpxtpx="http://www.garmin.com/xmlschemas/TrackPointExtension/v1">
            <gpxtpx:hr>127</gpxtpx:hr>
          </gpxtpx:TrackPointExtension>
        </extensions>
      </trkpt>
      <trkpt lat="45.64768" lon="2.98906">
        <ele>953.40002441406</ele>
        <time>2024-05-26T11:41:58.000Z</time>
        <extensions>
          <gpxtpx:TrackPointExtension xmlns:gpxtpx="http://www.garmin.com/xmlschemas/TrackPointExtension/v1">
            <gpxtpx:hr>124</gpxtpx:hr>
          </gpxtpx:TrackPointExtension>
        </extensions>
      </trkpt>
      <trkpt lat="45.64772" lon="2.98902">
        <ele>953.40002441406</ele>
        <time>2024-05-26T11:41:59.000Z</time>
        <extensions>
          <gpxtpx:TrackPointExtension xmlns:gpxtpx="http://www.garmin.com/xmlschemas/TrackPointExtension/v1">
            <gpxtpx:hr>123</gpxtpx:hr>
          </gpxtpx:TrackPointExtension>
        </extensions>
      </trkpt>
      <trkpt lat="45.64791" lon="2.98885">
        <ele>953.40002441406</ele>
        <time>2024-05-26T11:42:04.000Z</time>
        <extensions>
          <gpxtpx:TrackPointExtension xmlns:gpxtpx="http://www.garmin.com/xmlschemas/TrackPointExtension/v1">
            <gpxtpx:hr>120</gpxtpx:hr>
          </gpxtpx:TrackPointExtension>
        </extensions>
      </trkpt>
      <trkpt lat="45.64799" lon="2.98878">
        <ele>953.40002441406</ele>
        <time>2024-05-26T11:42:06.000Z</time>
        <extensions>
          <gpxtpx:TrackPointExtension xmlns:gpxtpx="http://www.garmin.com/xmlschemas/TrackPointExtension/v1">
            <gpxtpx:hr>119</gpxtpx:hr>
          </gpxtpx:TrackPointExtension>
        </extensions>
      </trkpt>
      <trkpt lat="45.64819" lon="2.98857">
        <ele>952.79998779297</ele>
        <time>2024-05-26T11:42:11.000Z</time>
        <extensions>
          <gpxtpx:TrackPointExtension xmlns:gpxtpx="http://www.garmin.com/xmlschemas/TrackPointExtension/v1">
            <gpxtpx:hr>119</gpxtpx:hr>
          </gpxtpx:TrackPointExtension>
        </extensions>
      </trkpt>
      <trkpt lat="45.64827" lon="2.98848">
        <ele>952</ele>
        <time>2024-05-26T11:42:13.000Z</time>
        <extensions>
          <gpxtpx:TrackPointExtension xmlns:gpxtpx="http://www.garmin.com/xmlschemas/TrackPointExtension/v1">
            <gpxtpx:hr>119</gpxtpx:hr>
          </gpxtpx:TrackPointExtension>
        </extensions>
      </trkpt>
      <trkpt lat="45.64831" lon="2.98842">
        <ele>951.79998779297</ele>
        <time>2024-05-26T11:42:14.000Z</time>
        <extensions>
          <gpxtpx:TrackPointExtension xmlns:gpxtpx="http://www.garmin.com/xmlschemas/TrackPointExtension/v1">
            <gpxtpx:hr>119</gpxtpx:hr>
          </gpxtpx:TrackPointExtension>
        </extensions>
      </trkpt>
      <trkpt lat="45.64842" lon="2.9882">
        <ele>951</ele>
        <time>2024-05-26T11:42:17.000Z</time>
        <extensions>
          <gpxtpx:TrackPointExtension xmlns:gpxtpx="http://www.garmin.com/xmlschemas/TrackPointExtension/v1">
            <gpxtpx:hr>119</gpxtpx:hr>
          </gpxtpx:TrackPointExtension>
        </extensions>
      </trkpt>
      <trkpt lat="45.64845" lon="2.98813">
        <ele>950.20001220703</ele>
        <time>2024-05-26T11:42:18.000Z</time>
        <extensions>
          <gpxtpx:TrackPointExtension xmlns:gpxtpx="http://www.garmin.com/xmlschemas/TrackPointExtension/v1">
            <gpxtpx:hr>119</gpxtpx:hr>
          </gpxtpx:TrackPointExtension>
        </extensions>
      </trkpt>
      <trkpt lat="45.64849" lon="2.98805">
        <ele>949.79998779297</ele>
        <time>2024-05-26T11:42:19.000Z</time>
        <extensions>
          <gpxtpx:TrackPointExtension xmlns:gpxtpx="http://www.garmin.com/xmlschemas/TrackPointExtension/v1">
            <gpxtpx:hr>119</gpxtpx:hr>
          </gpxtpx:TrackPointExtension>
        </extensions>
      </trkpt>
      <trkpt lat="45.6486" lon="2.98779">
        <ele>948.59997558594</ele>
        <time>2024-05-26T11:42:22.000Z</time>
        <extensions>
          <gpxtpx:TrackPointExtension xmlns:gpxtpx="http://www.garmin.com/xmlschemas/TrackPointExtension/v1">
            <gpxtpx:hr>120</gpxtpx:hr>
          </gpxtpx:TrackPointExtension>
        </extensions>
      </trkpt>
      <trkpt lat="45.6487" lon="2.98762">
        <ele>948.20001220703</ele>
        <time>2024-05-26T11:42:24.000Z</time>
        <extensions>
          <gpxtpx:TrackPointExtension xmlns:gpxtpx="http://www.garmin.com/xmlschemas/TrackPointExtension/v1">
            <gpxtpx:hr>119</gpxtpx:hr>
          </gpxtpx:TrackPointExtension>
        </extensions>
      </trkpt>
      <trkpt lat="45.649" lon="2.98706">
        <ele>946.59997558594</ele>
        <time>2024-05-26T11:42:30.000Z</time>
        <extensions>
          <gpxtpx:TrackPointExtension xmlns:gpxtpx="http://www.garmin.com/xmlschemas/TrackPointExtension/v1">
            <gpxtpx:hr>118</gpxtpx:hr>
          </gpxtpx:TrackPointExtension>
        </extensions>
      </trkpt>
      <trkpt lat="45.64906" lon="2.98696">
        <ele>945.20001220703</ele>
        <time>2024-05-26T11:42:31.000Z</time>
        <extensions>
          <gpxtpx:TrackPointExtension xmlns:gpxtpx="http://www.garmin.com/xmlschemas/TrackPointExtension/v1">
            <gpxtpx:hr>118</gpxtpx:hr>
          </gpxtpx:TrackPointExtension>
        </extensions>
      </trkpt>
      <trkpt lat="45.64925" lon="2.9867">
        <ele>943.79998779297</ele>
        <time>2024-05-26T11:42:34.000Z</time>
        <extensions>
          <gpxtpx:TrackPointExtension xmlns:gpxtpx="http://www.garmin.com/xmlschemas/TrackPointExtension/v1">
            <gpxtpx:hr>116</gpxtpx:hr>
          </gpxtpx:TrackPointExtension>
        </extensions>
      </trkpt>
      <trkpt lat="45.64932" lon="2.98662">
        <ele>943.40002441406</ele>
        <time>2024-05-26T11:42:35.000Z</time>
        <extensions>
          <gpxtpx:TrackPointExtension xmlns:gpxtpx="http://www.garmin.com/xmlschemas/TrackPointExtension/v1">
            <gpxtpx:hr>110</gpxtpx:hr>
          </gpxtpx:TrackPointExtension>
        </extensions>
      </trkpt>
      <trkpt lat="45.64938" lon="2.98653">
        <ele>942.59997558594</ele>
        <time>2024-05-26T11:42:36.000Z</time>
        <extensions>
          <gpxtpx:TrackPointExtension xmlns:gpxtpx="http://www.garmin.com/xmlschemas/TrackPointExtension/v1">
            <gpxtpx:hr>109</gpxtpx:hr>
          </gpxtpx:TrackPointExtension>
        </extensions>
      </trkpt>
      <trkpt lat="45.64945" lon="2.98645">
        <ele>942.40002441406</ele>
        <time>2024-05-26T11:42:37.000Z</time>
        <extensions>
          <gpxtpx:TrackPointExtension xmlns:gpxtpx="http://www.garmin.com/xmlschemas/TrackPointExtension/v1">
            <gpxtpx:hr>109</gpxtpx:hr>
          </gpxtpx:TrackPointExtension>
        </extensions>
      </trkpt>
      <trkpt lat="45.64952" lon="2.98637">
        <ele>942</ele>
        <time>2024-05-26T11:42:38.000Z</time>
        <extensions>
          <gpxtpx:TrackPointExtension xmlns:gpxtpx="http://www.garmin.com/xmlschemas/TrackPointExtension/v1">
            <gpxtpx:hr>108</gpxtpx:hr>
          </gpxtpx:TrackPointExtension>
        </extensions>
      </trkpt>
      <trkpt lat="45.64965" lon="2.98619">
        <ele>941.20001220703</ele>
        <time>2024-05-26T11:42:40.000Z</time>
        <extensions>
          <gpxtpx:TrackPointExtension xmlns:gpxtpx="http://www.garmin.com/xmlschemas/TrackPointExtension/v1">
            <gpxtpx:hr>107</gpxtpx:hr>
          </gpxtpx:TrackPointExtension>
        </extensions>
      </trkpt>
      <trkpt lat="45.64978" lon="2.98598">
        <ele>940.40002441406</ele>
        <time>2024-05-26T11:42:42.000Z</time>
        <extensions>
          <gpxtpx:TrackPointExtension xmlns:gpxtpx="http://www.garmin.com/xmlschemas/TrackPointExtension/v1">
            <gpxtpx:hr>104</gpxtpx:hr>
          </gpxtpx:TrackPointExtension>
        </extensions>
      </trkpt>
      <trkpt lat="45.64984" lon="2.98587">
        <ele>939.79998779297</ele>
        <time>2024-05-26T11:42:43.000Z</time>
        <extensions>
          <gpxtpx:TrackPointExtension xmlns:gpxtpx="http://www.garmin.com/xmlschemas/TrackPointExtension/v1">
            <gpxtpx:hr>102</gpxtpx:hr>
          </gpxtpx:TrackPointExtension>
        </extensions>
      </trkpt>
      <trkpt lat="45.64996" lon="2.98564">
        <ele>938.59997558594</ele>
        <time>2024-05-26T11:42:45.000Z</time>
        <extensions>
          <gpxtpx:TrackPointExtension xmlns:gpxtpx="http://www.garmin.com/xmlschemas/TrackPointExtension/v1">
            <gpxtpx:hr>99</gpxtpx:hr>
          </gpxtpx:TrackPointExtension>
        </extensions>
      </trkpt>
      <trkpt lat="45.65002" lon="2.98551">
        <ele>937.40002441406</ele>
        <time>2024-05-26T11:42:46.000Z</time>
        <extensions>
          <gpxtpx:TrackPointExtension xmlns:gpxtpx="http://www.garmin.com/xmlschemas/TrackPointExtension/v1">
            <gpxtpx:hr>98</gpxtpx:hr>
          </gpxtpx:TrackPointExtension>
        </extensions>
      </trkpt>
      <trkpt lat="45.6502" lon="2.98513">
        <ele>936.59997558594</ele>
        <time>2024-05-26T11:42:49.000Z</time>
        <extensions>
          <gpxtpx:TrackPointExtension xmlns:gpxtpx="http://www.garmin.com/xmlschemas/TrackPointExtension/v1">
            <gpxtpx:hr>95</gpxtpx:hr>
          </gpxtpx:TrackPointExtension>
        </extensions>
      </trkpt>
      <trkpt lat="45.65045" lon="2.9846">
        <ele>938</ele>
        <time>2024-05-26T11:42:53.000Z</time>
        <extensions>
          <gpxtpx:TrackPointExtension xmlns:gpxtpx="http://www.garmin.com/xmlschemas/TrackPointExtension/v1">
            <gpxtpx:hr>92</gpxtpx:hr>
          </gpxtpx:TrackPointExtension>
        </extensions>
      </trkpt>
      <trkpt lat="45.65052" lon="2.98448">
        <ele>938</ele>
        <time>2024-05-26T11:42:54.000Z</time>
        <extensions>
          <gpxtpx:TrackPointExtension xmlns:gpxtpx="http://www.garmin.com/xmlschemas/TrackPointExtension/v1">
            <gpxtpx:hr>92</gpxtpx:hr>
          </gpxtpx:TrackPointExtension>
        </extensions>
      </trkpt>
      <trkpt lat="45.6506" lon="2.98436">
        <ele>937.79998779297</ele>
        <time>2024-05-26T11:42:55.000Z</time>
        <extensions>
          <gpxtpx:TrackPointExtension xmlns:gpxtpx="http://www.garmin.com/xmlschemas/TrackPointExtension/v1">
            <gpxtpx:hr>92</gpxtpx:hr>
          </gpxtpx:TrackPointExtension>
        </extensions>
      </trkpt>
      <trkpt lat="45.65069" lon="2.98427">
        <ele>937.20001220703</ele>
        <time>2024-05-26T11:42:56.000Z</time>
        <extensions>
          <gpxtpx:TrackPointExtension xmlns:gpxtpx="http://www.garmin.com/xmlschemas/TrackPointExtension/v1">
            <gpxtpx:hr>92</gpxtpx:hr>
          </gpxtpx:TrackPointExtension>
        </extensions>
      </trkpt>
      <trkpt lat="45.65078" lon="2.98418">
        <ele>936.59997558594</ele>
        <time>2024-05-26T11:42:57.000Z</time>
        <extensions>
          <gpxtpx:TrackPointExtension xmlns:gpxtpx="http://www.garmin.com/xmlschemas/TrackPointExtension/v1">
            <gpxtpx:hr>92</gpxtpx:hr>
          </gpxtpx:TrackPointExtension>
        </extensions>
      </trkpt>
      <trkpt lat="45.65088" lon="2.98412">
        <ele>936</ele>
        <time>2024-05-26T11:42:58.000Z</time>
        <extensions>
          <gpxtpx:TrackPointExtension xmlns:gpxtpx="http://www.garmin.com/xmlschemas/TrackPointExtension/v1">
            <gpxtpx:hr>92</gpxtpx:hr>
          </gpxtpx:TrackPointExtension>
        </extensions>
      </trkpt>
      <trkpt lat="45.65108" lon="2.98405">
        <ele>935.20001220703</ele>
        <time>2024-05-26T11:43:00.000Z</time>
        <extensions>
          <gpxtpx:TrackPointExtension xmlns:gpxtpx="http://www.garmin.com/xmlschemas/TrackPointExtension/v1">
            <gpxtpx:hr>91</gpxtpx:hr>
          </gpxtpx:TrackPointExtension>
        </extensions>
      </trkpt>
      <trkpt lat="45.65127" lon="2.98403">
        <ele>935.20001220703</ele>
        <time>2024-05-26T11:43:02.000Z</time>
        <extensions>
          <gpxtpx:TrackPointExtension xmlns:gpxtpx="http://www.garmin.com/xmlschemas/TrackPointExtension/v1">
            <gpxtpx:hr>88</gpxtpx:hr>
          </gpxtpx:TrackPointExtension>
        </extensions>
      </trkpt>
      <trkpt lat="45.65153" lon="2.984">
        <ele>935.79998779297</ele>
        <time>2024-05-26T11:43:05.000Z</time>
        <extensions>
          <gpxtpx:TrackPointExtension xmlns:gpxtpx="http://www.garmin.com/xmlschemas/TrackPointExtension/v1">
            <gpxtpx:hr>87</gpxtpx:hr>
          </gpxtpx:TrackPointExtension>
        </extensions>
      </trkpt>
      <trkpt lat="45.65188" lon="2.984">
        <ele>936.59997558594</ele>
        <time>2024-05-26T11:43:10.000Z</time>
        <extensions>
          <gpxtpx:TrackPointExtension xmlns:gpxtpx="http://www.garmin.com/xmlschemas/TrackPointExtension/v1">
            <gpxtpx:hr>88</gpxtpx:hr>
          </gpxtpx:TrackPointExtension>
        </extensions>
      </trkpt>
      <trkpt lat="45.65201" lon="2.984">
        <ele>937.20001220703</ele>
        <time>2024-05-26T11:43:12.000Z</time>
        <extensions>
          <gpxtpx:TrackPointExtension xmlns:gpxtpx="http://www.garmin.com/xmlschemas/TrackPointExtension/v1">
            <gpxtpx:hr>88</gpxtpx:hr>
          </gpxtpx:TrackPointExtension>
        </extensions>
      </trkpt>
      <trkpt lat="45.65224" lon="2.98397">
        <ele>937.79998779297</ele>
        <time>2024-05-26T11:43:16.000Z</time>
        <extensions>
          <gpxtpx:TrackPointExtension xmlns:gpxtpx="http://www.garmin.com/xmlschemas/TrackPointExtension/v1">
            <gpxtpx:hr>88</gpxtpx:hr>
          </gpxtpx:TrackPointExtension>
        </extensions>
      </trkpt>
      <trkpt lat="45.65234" lon="2.98394">
        <ele>938.40002441406</ele>
        <time>2024-05-26T11:43:18.000Z</time>
        <extensions>
          <gpxtpx:TrackPointExtension xmlns:gpxtpx="http://www.garmin.com/xmlschemas/TrackPointExtension/v1">
            <gpxtpx:hr>88</gpxtpx:hr>
          </gpxtpx:TrackPointExtension>
        </extensions>
      </trkpt>
      <trkpt lat="45.65274" lon="2.98394">
        <ele>939.20001220703</ele>
        <time>2024-05-26T11:45:25.000Z</time>
        <extensions>
          <gpxtpx:TrackPointExtension xmlns:gpxtpx="http://www.garmin.com/xmlschemas/TrackPointExtension/v1">
            <gpxtpx:hr>90</gpxtpx:hr>
          </gpxtpx:TrackPointExtension>
        </extensions>
      </trkpt>
      <trkpt lat="45.65284" lon="2.98388">
        <ele>938.40002441406</ele>
        <time>2024-05-26T11:45:27.000Z</time>
        <extensions>
          <gpxtpx:TrackPointExtension xmlns:gpxtpx="http://www.garmin.com/xmlschemas/TrackPointExtension/v1">
            <gpxtpx:hr>89</gpxtpx:hr>
          </gpxtpx:TrackPointExtension>
        </extensions>
      </trkpt>
      <trkpt lat="45.65288" lon="2.98384">
        <ele>938.20001220703</ele>
        <time>2024-05-26T11:45:28.000Z</time>
        <extensions>
          <gpxtpx:TrackPointExtension xmlns:gpxtpx="http://www.garmin.com/xmlschemas/TrackPointExtension/v1">
            <gpxtpx:hr>89</gpxtpx:hr>
          </gpxtpx:TrackPointExtension>
        </extensions>
      </trkpt>
      <trkpt lat="45.65303" lon="2.9837">
        <ele>937.20001220703</ele>
        <time>2024-05-26T11:45:31.000Z</time>
        <extensions>
          <gpxtpx:TrackPointExtension xmlns:gpxtpx="http://www.garmin.com/xmlschemas/TrackPointExtension/v1">
            <gpxtpx:hr>88</gpxtpx:hr>
          </gpxtpx:TrackPointExtension>
        </extensions>
      </trkpt>
      <trkpt lat="45.65315" lon="2.9836">
        <ele>936.79998779297</ele>
        <time>2024-05-26T11:45:33.000Z</time>
        <extensions>
          <gpxtpx:TrackPointExtension xmlns:gpxtpx="http://www.garmin.com/xmlschemas/TrackPointExtension/v1">
            <gpxtpx:hr>88</gpxtpx:hr>
          </gpxtpx:TrackPointExtension>
        </extensions>
      </trkpt>
      <trkpt lat="45.65334" lon="2.98343">
        <ele>936</ele>
        <time>2024-05-26T11:45:36.000Z</time>
        <extensions>
          <gpxtpx:TrackPointExtension xmlns:gpxtpx="http://www.garmin.com/xmlschemas/TrackPointExtension/v1">
            <gpxtpx:hr>88</gpxtpx:hr>
          </gpxtpx:TrackPointExtension>
        </extensions>
      </trkpt>
      <trkpt lat="45.65347" lon="2.98329">
        <ele>935.40002441406</ele>
        <time>2024-05-26T11:45:38.000Z</time>
        <extensions>
          <gpxtpx:TrackPointExtension xmlns:gpxtpx="http://www.garmin.com/xmlschemas/TrackPointExtension/v1">
            <gpxtpx:hr>88</gpxtpx:hr>
          </gpxtpx:TrackPointExtension>
        </extensions>
      </trkpt>
      <trkpt lat="45.65369" lon="2.98304">
        <ele>934.40002441406</ele>
        <time>2024-05-26T11:45:41.000Z</time>
        <extensions>
          <gpxtpx:TrackPointExtension xmlns:gpxtpx="http://www.garmin.com/xmlschemas/TrackPointExtension/v1">
            <gpxtpx:hr>89</gpxtpx:hr>
          </gpxtpx:TrackPointExtension>
        </extensions>
      </trkpt>
      <trkpt lat="45.65377" lon="2.98296">
        <ele>932.79998779297</ele>
        <time>2024-05-26T11:45:42.000Z</time>
        <extensions>
          <gpxtpx:TrackPointExtension xmlns:gpxtpx="http://www.garmin.com/xmlschemas/TrackPointExtension/v1">
            <gpxtpx:hr>90</gpxtpx:hr>
          </gpxtpx:TrackPointExtension>
        </extensions>
      </trkpt>
      <trkpt lat="45.65385" lon="2.98288">
        <ele>932.40002441406</ele>
        <time>2024-05-26T11:45:43.000Z</time>
        <extensions>
          <gpxtpx:TrackPointExtension xmlns:gpxtpx="http://www.garmin.com/xmlschemas/TrackPointExtension/v1">
            <gpxtpx:hr>90</gpxtpx:hr>
          </gpxtpx:TrackPointExtension>
        </extensions>
      </trkpt>
      <trkpt lat="45.65394" lon="2.98282">
        <ele>932.20001220703</ele>
        <time>2024-05-26T11:45:44.000Z</time>
        <extensions>
          <gpxtpx:TrackPointExtension xmlns:gpxtpx="http://www.garmin.com/xmlschemas/TrackPointExtension/v1">
            <gpxtpx:hr>90</gpxtpx:hr>
          </gpxtpx:TrackPointExtension>
        </extensions>
      </trkpt>
      <trkpt lat="45.65412" lon="2.98272">
        <ele>931.59997558594</ele>
        <time>2024-05-26T11:45:46.000Z</time>
        <extensions>
          <gpxtpx:TrackPointExtension xmlns:gpxtpx="http://www.garmin.com/xmlschemas/TrackPointExtension/v1">
            <gpxtpx:hr>90</gpxtpx:hr>
          </gpxtpx:TrackPointExtension>
        </extensions>
      </trkpt>
      <trkpt lat="45.65421" lon="2.98269">
        <ele>931</ele>
        <time>2024-05-26T11:45:47.000Z</time>
        <extensions>
          <gpxtpx:TrackPointExtension xmlns:gpxtpx="http://www.garmin.com/xmlschemas/TrackPointExtension/v1">
            <gpxtpx:hr>91</gpxtpx:hr>
          </gpxtpx:TrackPointExtension>
        </extensions>
      </trkpt>
      <trkpt lat="45.65441" lon="2.98265">
        <ele>930.20001220703</ele>
        <time>2024-05-26T11:45:49.000Z</time>
        <extensions>
          <gpxtpx:TrackPointExtension xmlns:gpxtpx="http://www.garmin.com/xmlschemas/TrackPointExtension/v1">
            <gpxtpx:hr>90</gpxtpx:hr>
          </gpxtpx:TrackPointExtension>
        </extensions>
      </trkpt>
      <trkpt lat="45.65451" lon="2.98262">
        <ele>929.20001220703</ele>
        <time>2024-05-26T11:45:50.000Z</time>
        <extensions>
          <gpxtpx:TrackPointExtension xmlns:gpxtpx="http://www.garmin.com/xmlschemas/TrackPointExtension/v1">
            <gpxtpx:hr>91</gpxtpx:hr>
          </gpxtpx:TrackPointExtension>
        </extensions>
      </trkpt>
      <trkpt lat="45.65461" lon="2.98259">
        <ele>928.40002441406</ele>
        <time>2024-05-26T11:45:51.000Z</time>
        <extensions>
          <gpxtpx:TrackPointExtension xmlns:gpxtpx="http://www.garmin.com/xmlschemas/TrackPointExtension/v1">
            <gpxtpx:hr>91</gpxtpx:hr>
          </gpxtpx:TrackPointExtension>
        </extensions>
      </trkpt>
      <trkpt lat="45.6547" lon="2.98254">
        <ele>928.40002441406</ele>
        <time>2024-05-26T11:45:52.000Z</time>
        <extensions>
          <gpxtpx:TrackPointExtension xmlns:gpxtpx="http://www.garmin.com/xmlschemas/TrackPointExtension/v1">
            <gpxtpx:hr>92</gpxtpx:hr>
          </gpxtpx:TrackPointExtension>
        </extensions>
      </trkpt>
      <trkpt lat="45.65486" lon="2.98241">
        <ele>927.79998779297</ele>
        <time>2024-05-26T11:45:54.000Z</time>
        <extensions>
          <gpxtpx:TrackPointExtension xmlns:gpxtpx="http://www.garmin.com/xmlschemas/TrackPointExtension/v1">
            <gpxtpx:hr>92</gpxtpx:hr>
          </gpxtpx:TrackPointExtension>
        </extensions>
      </trkpt>
      <trkpt lat="45.655" lon="2.98228">
        <ele>928.40002441406</ele>
        <time>2024-05-26T11:45:56.000Z</time>
        <extensions>
          <gpxtpx:TrackPointExtension xmlns:gpxtpx="http://www.garmin.com/xmlschemas/TrackPointExtension/v1">
            <gpxtpx:hr>93</gpxtpx:hr>
          </gpxtpx:TrackPointExtension>
        </extensions>
      </trkpt>
      <trkpt lat="45.65513" lon="2.98218">
        <ele>929</ele>
        <time>2024-05-26T11:45:58.000Z</time>
        <extensions>
          <gpxtpx:TrackPointExtension xmlns:gpxtpx="http://www.garmin.com/xmlschemas/TrackPointExtension/v1">
            <gpxtpx:hr>92</gpxtpx:hr>
          </gpxtpx:TrackPointExtension>
        </extensions>
      </trkpt>
      <trkpt lat="45.6552" lon="2.98214">
        <ele>929.20001220703</ele>
        <time>2024-05-26T11:45:59.000Z</time>
        <extensions>
          <gpxtpx:TrackPointExtension xmlns:gpxtpx="http://www.garmin.com/xmlschemas/TrackPointExtension/v1">
            <gpxtpx:hr>92</gpxtpx:hr>
          </gpxtpx:TrackPointExtension>
        </extensions>
      </trkpt>
      <trkpt lat="45.65526" lon="2.9821">
        <ele>929.20001220703</ele>
        <time>2024-05-26T11:46:00.000Z</time>
        <extensions>
          <gpxtpx:TrackPointExtension xmlns:gpxtpx="http://www.garmin.com/xmlschemas/TrackPointExtension/v1">
            <gpxtpx:hr>92</gpxtpx:hr>
          </gpxtpx:TrackPointExtension>
        </extensions>
      </trkpt>
      <trkpt lat="45.65537" lon="2.98204">
        <ele>929.59997558594</ele>
        <time>2024-05-26T11:46:02.000Z</time>
        <extensions>
          <gpxtpx:TrackPointExtension xmlns:gpxtpx="http://www.garmin.com/xmlschemas/TrackPointExtension/v1">
            <gpxtpx:hr>92</gpxtpx:hr>
          </gpxtpx:TrackPointExtension>
        </extensions>
      </trkpt>
      <trkpt lat="45.65547" lon="2.98197">
        <ele>930</ele>
        <time>2024-05-26T11:46:04.000Z</time>
        <extensions>
          <gpxtpx:TrackPointExtension xmlns:gpxtpx="http://www.garmin.com/xmlschemas/TrackPointExtension/v1">
            <gpxtpx:hr>91</gpxtpx:hr>
          </gpxtpx:TrackPointExtension>
        </extensions>
      </trkpt>
      <trkpt lat="45.65552" lon="2.98194">
        <ele>930</ele>
        <time>2024-05-26T11:46:05.000Z</time>
        <extensions>
          <gpxtpx:TrackPointExtension xmlns:gpxtpx="http://www.garmin.com/xmlschemas/TrackPointExtension/v1">
            <gpxtpx:hr>92</gpxtpx:hr>
          </gpxtpx:TrackPointExtension>
        </extensions>
      </trkpt>
      <trkpt lat="45.65577" lon="2.98177">
        <ele>931.40002441406</ele>
        <time>2024-05-26T11:46:10.000Z</time>
        <extensions>
          <gpxtpx:TrackPointExtension xmlns:gpxtpx="http://www.garmin.com/xmlschemas/TrackPointExtension/v1">
            <gpxtpx:hr>92</gpxtpx:hr>
          </gpxtpx:TrackPointExtension>
        </extensions>
      </trkpt>
      <trkpt lat="45.65585" lon="2.98169">
        <ele>931.59997558594</ele>
        <time>2024-05-26T11:46:12.000Z</time>
        <extensions>
          <gpxtpx:TrackPointExtension xmlns:gpxtpx="http://www.garmin.com/xmlschemas/TrackPointExtension/v1">
            <gpxtpx:hr>93</gpxtpx:hr>
          </gpxtpx:TrackPointExtension>
        </extensions>
      </trkpt>
      <trkpt lat="45.65599" lon="2.98158">
        <ele>932.40002441406</ele>
        <time>2024-05-26T11:46:15.000Z</time>
        <extensions>
          <gpxtpx:TrackPointExtension xmlns:gpxtpx="http://www.garmin.com/xmlschemas/TrackPointExtension/v1">
            <gpxtpx:hr>94</gpxtpx:hr>
          </gpxtpx:TrackPointExtension>
        </extensions>
      </trkpt>
      <trkpt lat="45.65615" lon="2.98147">
        <ele>933</ele>
        <time>2024-05-26T11:46:19.000Z</time>
        <extensions>
          <gpxtpx:TrackPointExtension xmlns:gpxtpx="http://www.garmin.com/xmlschemas/TrackPointExtension/v1">
            <gpxtpx:hr>95</gpxtpx:hr>
          </gpxtpx:TrackPointExtension>
        </extensions>
      </trkpt>
      <trkpt lat="45.65639" lon="2.98132">
        <ele>932.59997558594</ele>
        <time>2024-05-26T11:46:25.000Z</time>
        <extensions>
          <gpxtpx:TrackPointExtension xmlns:gpxtpx="http://www.garmin.com/xmlschemas/TrackPointExtension/v1">
            <gpxtpx:hr>98</gpxtpx:hr>
          </gpxtpx:TrackPointExtension>
        </extensions>
      </trkpt>
      <trkpt lat="45.65648" lon="2.98129">
        <ele>932.59997558594</ele>
        <time>2024-05-26T11:46:27.000Z</time>
        <extensions>
          <gpxtpx:TrackPointExtension xmlns:gpxtpx="http://www.garmin.com/xmlschemas/TrackPointExtension/v1">
            <gpxtpx:hr>97</gpxtpx:hr>
          </gpxtpx:TrackPointExtension>
        </extensions>
      </trkpt>
      <trkpt lat="45.65662" lon="2.98124">
        <ele>932.20001220703</ele>
        <time>2024-05-26T11:46:30.000Z</time>
        <extensions>
          <gpxtpx:TrackPointExtension xmlns:gpxtpx="http://www.garmin.com/xmlschemas/TrackPointExtension/v1">
            <gpxtpx:hr>97</gpxtpx:hr>
          </gpxtpx:TrackPointExtension>
        </extensions>
      </trkpt>
      <trkpt lat="45.65671" lon="2.98117">
        <ele>931.79998779297</ele>
        <time>2024-05-26T11:46:32.000Z</time>
        <extensions>
          <gpxtpx:TrackPointExtension xmlns:gpxtpx="http://www.garmin.com/xmlschemas/TrackPointExtension/v1">
            <gpxtpx:hr>96</gpxtpx:hr>
          </gpxtpx:TrackPointExtension>
        </extensions>
      </trkpt>
      <trkpt lat="45.65675" lon="2.98112">
        <ele>931.20001220703</ele>
        <time>2024-05-26T11:46:33.000Z</time>
        <extensions>
          <gpxtpx:TrackPointExtension xmlns:gpxtpx="http://www.garmin.com/xmlschemas/TrackPointExtension/v1">
            <gpxtpx:hr>96</gpxtpx:hr>
          </gpxtpx:TrackPointExtension>
        </extensions>
      </trkpt>
      <trkpt lat="45.65678" lon="2.98106">
        <ele>929.79998779297</ele>
        <time>2024-05-26T11:46:34.000Z</time>
        <extensions>
          <gpxtpx:TrackPointExtension xmlns:gpxtpx="http://www.garmin.com/xmlschemas/TrackPointExtension/v1">
            <gpxtpx:hr>96</gpxtpx:hr>
          </gpxtpx:TrackPointExtension>
        </extensions>
      </trkpt>
      <trkpt lat="45.65685" lon="2.98095">
        <ele>928.79998779297</ele>
        <time>2024-05-26T11:46:36.000Z</time>
        <extensions>
          <gpxtpx:TrackPointExtension xmlns:gpxtpx="http://www.garmin.com/xmlschemas/TrackPointExtension/v1">
            <gpxtpx:hr>95</gpxtpx:hr>
          </gpxtpx:TrackPointExtension>
        </extensions>
      </trkpt>
      <trkpt lat="45.65694" lon="2.98092">
        <ele>927</ele>
        <time>2024-05-26T11:46:38.000Z</time>
        <extensions>
          <gpxtpx:TrackPointExtension xmlns:gpxtpx="http://www.garmin.com/xmlschemas/TrackPointExtension/v1">
            <gpxtpx:hr>93</gpxtpx:hr>
          </gpxtpx:TrackPointExtension>
        </extensions>
      </trkpt>
      <trkpt lat="45.657" lon="2.98095">
        <ele>926</ele>
        <time>2024-05-26T11:46:39.000Z</time>
        <extensions>
          <gpxtpx:TrackPointExtension xmlns:gpxtpx="http://www.garmin.com/xmlschemas/TrackPointExtension/v1">
            <gpxtpx:hr>92</gpxtpx:hr>
          </gpxtpx:TrackPointExtension>
        </extensions>
      </trkpt>
      <trkpt lat="45.65705" lon="2.98099">
        <ele>925</ele>
        <time>2024-05-26T11:46:40.000Z</time>
        <extensions>
          <gpxtpx:TrackPointExtension xmlns:gpxtpx="http://www.garmin.com/xmlschemas/TrackPointExtension/v1">
            <gpxtpx:hr>92</gpxtpx:hr>
          </gpxtpx:TrackPointExtension>
        </extensions>
      </trkpt>
      <trkpt lat="45.6571" lon="2.98104">
        <ele>923.40002441406</ele>
        <time>2024-05-26T11:46:41.000Z</time>
        <extensions>
          <gpxtpx:TrackPointExtension xmlns:gpxtpx="http://www.garmin.com/xmlschemas/TrackPointExtension/v1">
            <gpxtpx:hr>91</gpxtpx:hr>
          </gpxtpx:TrackPointExtension>
        </extensions>
      </trkpt>
      <trkpt lat="45.65721" lon="2.98117">
        <ele>922.79998779297</ele>
        <time>2024-05-26T11:46:43.000Z</time>
        <extensions>
          <gpxtpx:TrackPointExtension xmlns:gpxtpx="http://www.garmin.com/xmlschemas/TrackPointExtension/v1">
            <gpxtpx:hr>92</gpxtpx:hr>
          </gpxtpx:TrackPointExtension>
        </extensions>
      </trkpt>
      <trkpt lat="45.65739" lon="2.98141">
        <ele>922</ele>
        <time>2024-05-26T11:46:46.000Z</time>
        <extensions>
          <gpxtpx:TrackPointExtension xmlns:gpxtpx="http://www.garmin.com/xmlschemas/TrackPointExtension/v1">
            <gpxtpx:hr>92</gpxtpx:hr>
          </gpxtpx:TrackPointExtension>
        </extensions>
      </trkpt>
      <trkpt lat="45.65751" lon="2.98158">
        <ele>921.59997558594</ele>
        <time>2024-05-26T11:46:48.000Z</time>
        <extensions>
          <gpxtpx:TrackPointExtension xmlns:gpxtpx="http://www.garmin.com/xmlschemas/TrackPointExtension/v1">
            <gpxtpx:hr>92</gpxtpx:hr>
          </gpxtpx:TrackPointExtension>
        </extensions>
      </trkpt>
      <trkpt lat="45.65757" lon="2.98167">
        <ele>920.20001220703</ele>
        <time>2024-05-26T11:46:49.000Z</time>
        <extensions>
          <gpxtpx:TrackPointExtension xmlns:gpxtpx="http://www.garmin.com/xmlschemas/TrackPointExtension/v1">
            <gpxtpx:hr>92</gpxtpx:hr>
          </gpxtpx:TrackPointExtension>
        </extensions>
      </trkpt>
      <trkpt lat="45.65773" lon="2.98192">
        <ele>917.59997558594</ele>
        <time>2024-05-26T11:46:52.000Z</time>
        <extensions>
          <gpxtpx:TrackPointExtension xmlns:gpxtpx="http://www.garmin.com/xmlschemas/TrackPointExtension/v1">
            <gpxtpx:hr>93</gpxtpx:hr>
          </gpxtpx:TrackPointExtension>
        </extensions>
      </trkpt>
      <trkpt lat="45.65778" lon="2.98199">
        <ele>917</ele>
        <time>2024-05-26T11:46:53.000Z</time>
        <extensions>
          <gpxtpx:TrackPointExtension xmlns:gpxtpx="http://www.garmin.com/xmlschemas/TrackPointExtension/v1">
            <gpxtpx:hr>93</gpxtpx:hr>
          </gpxtpx:TrackPointExtension>
        </extensions>
      </trkpt>
      <trkpt lat="45.65783" lon="2.98206">
        <ele>916</ele>
        <time>2024-05-26T11:46:54.000Z</time>
        <extensions>
          <gpxtpx:TrackPointExtension xmlns:gpxtpx="http://www.garmin.com/xmlschemas/TrackPointExtension/v1">
            <gpxtpx:hr>92</gpxtpx:hr>
          </gpxtpx:TrackPointExtension>
        </extensions>
      </trkpt>
      <trkpt lat="45.65788" lon="2.98213">
        <ele>914.79998779297</ele>
        <time>2024-05-26T11:46:55.000Z</time>
        <extensions>
          <gpxtpx:TrackPointExtension xmlns:gpxtpx="http://www.garmin.com/xmlschemas/TrackPointExtension/v1">
            <gpxtpx:hr>92</gpxtpx:hr>
          </gpxtpx:TrackPointExtension>
        </extensions>
      </trkpt>
      <trkpt lat="45.65793" lon="2.98219">
        <ele>913.79998779297</ele>
        <time>2024-05-26T11:46:56.000Z</time>
        <extensions>
          <gpxtpx:TrackPointExtension xmlns:gpxtpx="http://www.garmin.com/xmlschemas/TrackPointExtension/v1">
            <gpxtpx:hr>92</gpxtpx:hr>
          </gpxtpx:TrackPointExtension>
        </extensions>
      </trkpt>
      <trkpt lat="45.65798" lon="2.98225">
        <ele>912.40002441406</ele>
        <time>2024-05-26T11:46:57.000Z</time>
        <extensions>
          <gpxtpx:TrackPointExtension xmlns:gpxtpx="http://www.garmin.com/xmlschemas/TrackPointExtension/v1">
            <gpxtpx:hr>92</gpxtpx:hr>
          </gpxtpx:TrackPointExtension>
        </extensions>
      </trkpt>
      <trkpt lat="45.65803" lon="2.98231">
        <ele>910.59997558594</ele>
        <time>2024-05-26T11:46:58.000Z</time>
        <extensions>
          <gpxtpx:TrackPointExtension xmlns:gpxtpx="http://www.garmin.com/xmlschemas/TrackPointExtension/v1">
            <gpxtpx:hr>92</gpxtpx:hr>
          </gpxtpx:TrackPointExtension>
        </extensions>
      </trkpt>
      <trkpt lat="45.65812" lon="2.98247">
        <ele>908.59997558594</ele>
        <time>2024-05-26T11:47:00.000Z</time>
        <extensions>
          <gpxtpx:TrackPointExtension xmlns:gpxtpx="http://www.garmin.com/xmlschemas/TrackPointExtension/v1">
            <gpxtpx:hr>92</gpxtpx:hr>
          </gpxtpx:TrackPointExtension>
        </extensions>
      </trkpt>
      <trkpt lat="45.65817" lon="2.98255">
        <ele>907.20001220703</ele>
        <time>2024-05-26T11:47:01.000Z</time>
        <extensions>
          <gpxtpx:TrackPointExtension xmlns:gpxtpx="http://www.garmin.com/xmlschemas/TrackPointExtension/v1">
            <gpxtpx:hr>92</gpxtpx:hr>
          </gpxtpx:TrackPointExtension>
        </extensions>
      </trkpt>
      <trkpt lat="45.65821" lon="2.98265">
        <ele>906.40002441406</ele>
        <time>2024-05-26T11:47:02.000Z</time>
        <extensions>
          <gpxtpx:TrackPointExtension xmlns:gpxtpx="http://www.garmin.com/xmlschemas/TrackPointExtension/v1">
            <gpxtpx:hr>93</gpxtpx:hr>
          </gpxtpx:TrackPointExtension>
        </extensions>
      </trkpt>
      <trkpt lat="45.65825" lon="2.98275">
        <ele>905.20001220703</ele>
        <time>2024-05-26T11:47:03.000Z</time>
        <extensions>
          <gpxtpx:TrackPointExtension xmlns:gpxtpx="http://www.garmin.com/xmlschemas/TrackPointExtension/v1">
            <gpxtpx:hr>93</gpxtpx:hr>
          </gpxtpx:TrackPointExtension>
        </extensions>
      </trkpt>
      <trkpt lat="45.65829" lon="2.98285">
        <ele>903.79998779297</ele>
        <time>2024-05-26T11:47:04.000Z</time>
        <extensions>
          <gpxtpx:TrackPointExtension xmlns:gpxtpx="http://www.garmin.com/xmlschemas/TrackPointExtension/v1">
            <gpxtpx:hr>94</gpxtpx:hr>
          </gpxtpx:TrackPointExtension>
        </extensions>
      </trkpt>
      <trkpt lat="45.65837" lon="2.98302">
        <ele>902.79998779297</ele>
        <time>2024-05-26T11:47:06.000Z</time>
        <extensions>
          <gpxtpx:TrackPointExtension xmlns:gpxtpx="http://www.garmin.com/xmlschemas/TrackPointExtension/v1">
            <gpxtpx:hr>95</gpxtpx:hr>
          </gpxtpx:TrackPointExtension>
        </extensions>
      </trkpt>
      <trkpt lat="45.65841" lon="2.98309">
        <ele>900.59997558594</ele>
        <time>2024-05-26T11:47:07.000Z</time>
        <extensions>
          <gpxtpx:TrackPointExtension xmlns:gpxtpx="http://www.garmin.com/xmlschemas/TrackPointExtension/v1">
            <gpxtpx:hr>96</gpxtpx:hr>
          </gpxtpx:TrackPointExtension>
        </extensions>
      </trkpt>
      <trkpt lat="45.65846" lon="2.98315">
        <ele>899.79998779297</ele>
        <time>2024-05-26T11:47:08.000Z</time>
        <extensions>
          <gpxtpx:TrackPointExtension xmlns:gpxtpx="http://www.garmin.com/xmlschemas/TrackPointExtension/v1">
            <gpxtpx:hr>96</gpxtpx:hr>
          </gpxtpx:TrackPointExtension>
        </extensions>
      </trkpt>
      <trkpt lat="45.6585" lon="2.9832">
        <ele>898.20001220703</ele>
        <time>2024-05-26T11:47:09.000Z</time>
        <extensions>
          <gpxtpx:TrackPointExtension xmlns:gpxtpx="http://www.garmin.com/xmlschemas/TrackPointExtension/v1">
            <gpxtpx:hr>96</gpxtpx:hr>
          </gpxtpx:TrackPointExtension>
        </extensions>
      </trkpt>
      <trkpt lat="45.65855" lon="2.98324">
        <ele>896.79998779297</ele>
        <time>2024-05-26T11:47:10.000Z</time>
        <extensions>
          <gpxtpx:TrackPointExtension xmlns:gpxtpx="http://www.garmin.com/xmlschemas/TrackPointExtension/v1">
            <gpxtpx:hr>96</gpxtpx:hr>
          </gpxtpx:TrackPointExtension>
        </extensions>
      </trkpt>
      <trkpt lat="45.65859" lon="2.98326">
        <ele>895.79998779297</ele>
        <time>2024-05-26T11:47:11.000Z</time>
        <extensions>
          <gpxtpx:TrackPointExtension xmlns:gpxtpx="http://www.garmin.com/xmlschemas/TrackPointExtension/v1">
            <gpxtpx:hr>97</gpxtpx:hr>
          </gpxtpx:TrackPointExtension>
        </extensions>
      </trkpt>
      <trkpt lat="45.65865" lon="2.98324">
        <ele>895</ele>
        <time>2024-05-26T11:47:12.000Z</time>
        <extensions>
          <gpxtpx:TrackPointExtension xmlns:gpxtpx="http://www.garmin.com/xmlschemas/TrackPointExtension/v1">
            <gpxtpx:hr>97</gpxtpx:hr>
          </gpxtpx:TrackPointExtension>
        </extensions>
      </trkpt>
      <trkpt lat="45.65873" lon="2.9832">
        <ele>893.40002441406</ele>
        <time>2024-05-26T11:47:13.000Z</time>
        <extensions>
          <gpxtpx:TrackPointExtension xmlns:gpxtpx="http://www.garmin.com/xmlschemas/TrackPointExtension/v1">
            <gpxtpx:hr>97</gpxtpx:hr>
          </gpxtpx:TrackPointExtension>
        </extensions>
      </trkpt>
      <trkpt lat="45.65888" lon="2.98309">
        <ele>891</ele>
        <time>2024-05-26T11:47:15.000Z</time>
        <extensions>
          <gpxtpx:TrackPointExtension xmlns:gpxtpx="http://www.garmin.com/xmlschemas/TrackPointExtension/v1">
            <gpxtpx:hr>97</gpxtpx:hr>
          </gpxtpx:TrackPointExtension>
        </extensions>
      </trkpt>
      <trkpt lat="45.65897" lon="2.98304">
        <ele>889.59997558594</ele>
        <time>2024-05-26T11:47:16.000Z</time>
        <extensions>
          <gpxtpx:TrackPointExtension xmlns:gpxtpx="http://www.garmin.com/xmlschemas/TrackPointExtension/v1">
            <gpxtpx:hr>97</gpxtpx:hr>
          </gpxtpx:TrackPointExtension>
        </extensions>
      </trkpt>
      <trkpt lat="45.65907" lon="2.98298">
        <ele>888.20001220703</ele>
        <time>2024-05-26T11:47:17.000Z</time>
        <extensions>
          <gpxtpx:TrackPointExtension xmlns:gpxtpx="http://www.garmin.com/xmlschemas/TrackPointExtension/v1">
            <gpxtpx:hr>97</gpxtpx:hr>
          </gpxtpx:TrackPointExtension>
        </extensions>
      </trkpt>
      <trkpt lat="45.65916" lon="2.98293">
        <ele>887</ele>
        <time>2024-05-26T11:47:18.000Z</time>
        <extensions>
          <gpxtpx:TrackPointExtension xmlns:gpxtpx="http://www.garmin.com/xmlschemas/TrackPointExtension/v1">
            <gpxtpx:hr>97</gpxtpx:hr>
          </gpxtpx:TrackPointExtension>
        </extensions>
      </trkpt>
      <trkpt lat="45.65925" lon="2.98289">
        <ele>885.40002441406</ele>
        <time>2024-05-26T11:47:19.000Z</time>
        <extensions>
          <gpxtpx:TrackPointExtension xmlns:gpxtpx="http://www.garmin.com/xmlschemas/TrackPointExtension/v1">
            <gpxtpx:hr>98</gpxtpx:hr>
          </gpxtpx:TrackPointExtension>
        </extensions>
      </trkpt>
      <trkpt lat="45.65935" lon="2.98285">
        <ele>885.20001220703</ele>
        <time>2024-05-26T11:47:20.000Z</time>
        <extensions>
          <gpxtpx:TrackPointExtension xmlns:gpxtpx="http://www.garmin.com/xmlschemas/TrackPointExtension/v1">
            <gpxtpx:hr>98</gpxtpx:hr>
          </gpxtpx:TrackPointExtension>
        </extensions>
      </trkpt>
      <trkpt lat="45.65953" lon="2.98278">
        <ele>883.59997558594</ele>
        <time>2024-05-26T11:47:22.000Z</time>
        <extensions>
          <gpxtpx:TrackPointExtension xmlns:gpxtpx="http://www.garmin.com/xmlschemas/TrackPointExtension/v1">
            <gpxtpx:hr>99</gpxtpx:hr>
          </gpxtpx:TrackPointExtension>
        </extensions>
      </trkpt>
      <trkpt lat="45.65962" lon="2.98276">
        <ele>883</ele>
        <time>2024-05-26T11:47:23.000Z</time>
        <extensions>
          <gpxtpx:TrackPointExtension xmlns:gpxtpx="http://www.garmin.com/xmlschemas/TrackPointExtension/v1">
            <gpxtpx:hr>99</gpxtpx:hr>
          </gpxtpx:TrackPointExtension>
        </extensions>
      </trkpt>
      <trkpt lat="45.6597" lon="2.98275">
        <ele>882.20001220703</ele>
        <time>2024-05-26T11:47:24.000Z</time>
        <extensions>
          <gpxtpx:TrackPointExtension xmlns:gpxtpx="http://www.garmin.com/xmlschemas/TrackPointExtension/v1">
            <gpxtpx:hr>99</gpxtpx:hr>
          </gpxtpx:TrackPointExtension>
        </extensions>
      </trkpt>
      <trkpt lat="45.65978" lon="2.98273">
        <ele>881.79998779297</ele>
        <time>2024-05-26T11:47:25.000Z</time>
        <extensions>
          <gpxtpx:TrackPointExtension xmlns:gpxtpx="http://www.garmin.com/xmlschemas/TrackPointExtension/v1">
            <gpxtpx:hr>99</gpxtpx:hr>
          </gpxtpx:TrackPointExtension>
        </extensions>
      </trkpt>
      <trkpt lat="45.65983" lon="2.98271">
        <ele>881.40002441406</ele>
        <time>2024-05-26T11:47:26.000Z</time>
        <extensions>
          <gpxtpx:TrackPointExtension xmlns:gpxtpx="http://www.garmin.com/xmlschemas/TrackPointExtension/v1">
            <gpxtpx:hr>98</gpxtpx:hr>
          </gpxtpx:TrackPointExtension>
        </extensions>
      </trkpt>
      <trkpt lat="45.65988" lon="2.98269">
        <ele>880.59997558594</ele>
        <time>2024-05-26T11:47:27.000Z</time>
        <extensions>
          <gpxtpx:TrackPointExtension xmlns:gpxtpx="http://www.garmin.com/xmlschemas/TrackPointExtension/v1">
            <gpxtpx:hr>98</gpxtpx:hr>
          </gpxtpx:TrackPointExtension>
        </extensions>
      </trkpt>
      <trkpt lat="45.65993" lon="2.98262">
        <ele>880.40002441406</ele>
        <time>2024-05-26T11:47:28.000Z</time>
        <extensions>
          <gpxtpx:TrackPointExtension xmlns:gpxtpx="http://www.garmin.com/xmlschemas/TrackPointExtension/v1">
            <gpxtpx:hr>98</gpxtpx:hr>
          </gpxtpx:TrackPointExtension>
        </extensions>
      </trkpt>
      <trkpt lat="45.65994" lon="2.98256">
        <ele>880.20001220703</ele>
        <time>2024-05-26T11:47:29.000Z</time>
        <extensions>
          <gpxtpx:TrackPointExtension xmlns:gpxtpx="http://www.garmin.com/xmlschemas/TrackPointExtension/v1">
            <gpxtpx:hr>98</gpxtpx:hr>
          </gpxtpx:TrackPointExtension>
        </extensions>
      </trkpt>
      <trkpt lat="45.65996" lon="2.98237">
        <ele>880</ele>
        <time>2024-05-26T11:47:31.000Z</time>
        <extensions>
          <gpxtpx:TrackPointExtension xmlns:gpxtpx="http://www.garmin.com/xmlschemas/TrackPointExtension/v1">
            <gpxtpx:hr>97</gpxtpx:hr>
          </gpxtpx:TrackPointExtension>
        </extensions>
      </trkpt>
      <trkpt lat="45.66001" lon="2.98203">
        <ele>879.40002441406</ele>
        <time>2024-05-26T11:47:35.000Z</time>
        <extensions>
          <gpxtpx:TrackPointExtension xmlns:gpxtpx="http://www.garmin.com/xmlschemas/TrackPointExtension/v1">
            <gpxtpx:hr>97</gpxtpx:hr>
          </gpxtpx:TrackPointExtension>
        </extensions>
      </trkpt>
      <trkpt lat="45.66003" lon="2.98183">
        <ele>878.40002441406</ele>
        <time>2024-05-26T11:47:37.000Z</time>
        <extensions>
          <gpxtpx:TrackPointExtension xmlns:gpxtpx="http://www.garmin.com/xmlschemas/TrackPointExtension/v1">
            <gpxtpx:hr>97</gpxtpx:hr>
          </gpxtpx:TrackPointExtension>
        </extensions>
      </trkpt>
      <trkpt lat="45.66007" lon="2.98162">
        <ele>877.20001220703</ele>
        <time>2024-05-26T11:47:39.000Z</time>
        <extensions>
          <gpxtpx:TrackPointExtension xmlns:gpxtpx="http://www.garmin.com/xmlschemas/TrackPointExtension/v1">
            <gpxtpx:hr>97</gpxtpx:hr>
          </gpxtpx:TrackPointExtension>
        </extensions>
      </trkpt>
      <trkpt lat="45.6601" lon="2.98142">
        <ele>876.20001220703</ele>
        <time>2024-05-26T11:47:41.000Z</time>
        <extensions>
          <gpxtpx:TrackPointExtension xmlns:gpxtpx="http://www.garmin.com/xmlschemas/TrackPointExtension/v1">
            <gpxtpx:hr>98</gpxtpx:hr>
          </gpxtpx:TrackPointExtension>
        </extensions>
      </trkpt>
      <trkpt lat="45.66013" lon="2.98121">
        <ele>875.20001220703</ele>
        <time>2024-05-26T11:47:43.000Z</time>
        <extensions>
          <gpxtpx:TrackPointExtension xmlns:gpxtpx="http://www.garmin.com/xmlschemas/TrackPointExtension/v1">
            <gpxtpx:hr>96</gpxtpx:hr>
          </gpxtpx:TrackPointExtension>
        </extensions>
      </trkpt>
      <trkpt lat="45.66015" lon="2.98111">
        <ele>874.79998779297</ele>
        <time>2024-05-26T11:47:44.000Z</time>
        <extensions>
          <gpxtpx:TrackPointExtension xmlns:gpxtpx="http://www.garmin.com/xmlschemas/TrackPointExtension/v1">
            <gpxtpx:hr>97</gpxtpx:hr>
          </gpxtpx:TrackPointExtension>
        </extensions>
      </trkpt>
      <trkpt lat="45.66018" lon="2.98088">
        <ele>874</ele>
        <time>2024-05-26T11:47:46.000Z</time>
        <extensions>
          <gpxtpx:TrackPointExtension xmlns:gpxtpx="http://www.garmin.com/xmlschemas/TrackPointExtension/v1">
            <gpxtpx:hr>98</gpxtpx:hr>
          </gpxtpx:TrackPointExtension>
        </extensions>
      </trkpt>
      <trkpt lat="45.66019" lon="2.98076">
        <ele>873.79998779297</ele>
        <time>2024-05-26T11:47:47.000Z</time>
        <extensions>
          <gpxtpx:TrackPointExtension xmlns:gpxtpx="http://www.garmin.com/xmlschemas/TrackPointExtension/v1">
            <gpxtpx:hr>99</gpxtpx:hr>
          </gpxtpx:TrackPointExtension>
        </extensions>
      </trkpt>
      <trkpt lat="45.66022" lon="2.98051">
        <ele>872.40002441406</ele>
        <time>2024-05-26T11:47:49.000Z</time>
        <extensions>
          <gpxtpx:TrackPointExtension xmlns:gpxtpx="http://www.garmin.com/xmlschemas/TrackPointExtension/v1">
            <gpxtpx:hr>98</gpxtpx:hr>
          </gpxtpx:TrackPointExtension>
        </extensions>
      </trkpt>
      <trkpt lat="45.66022" lon="2.98037">
        <ele>871.79998779297</ele>
        <time>2024-05-26T11:47:50.000Z</time>
        <extensions>
          <gpxtpx:TrackPointExtension xmlns:gpxtpx="http://www.garmin.com/xmlschemas/TrackPointExtension/v1">
            <gpxtpx:hr>99</gpxtpx:hr>
          </gpxtpx:TrackPointExtension>
        </extensions>
      </trkpt>
      <trkpt lat="45.66022" lon="2.98024">
        <ele>870.59997558594</ele>
        <time>2024-05-26T11:47:51.000Z</time>
        <extensions>
          <gpxtpx:TrackPointExtension xmlns:gpxtpx="http://www.garmin.com/xmlschemas/TrackPointExtension/v1">
            <gpxtpx:hr>98</gpxtpx:hr>
          </gpxtpx:TrackPointExtension>
        </extensions>
      </trkpt>
      <trkpt lat="45.66019" lon="2.98011">
        <ele>870</ele>
        <time>2024-05-26T11:47:52.000Z</time>
        <extensions>
          <gpxtpx:TrackPointExtension xmlns:gpxtpx="http://www.garmin.com/xmlschemas/TrackPointExtension/v1">
            <gpxtpx:hr>97</gpxtpx:hr>
          </gpxtpx:TrackPointExtension>
        </extensions>
      </trkpt>
      <trkpt lat="45.66012" lon="2.97985">
        <ele>869.20001220703</ele>
        <time>2024-05-26T11:47:54.000Z</time>
        <extensions>
          <gpxtpx:TrackPointExtension xmlns:gpxtpx="http://www.garmin.com/xmlschemas/TrackPointExtension/v1">
            <gpxtpx:hr>97</gpxtpx:hr>
          </gpxtpx:TrackPointExtension>
        </extensions>
      </trkpt>
      <trkpt lat="45.65995" lon="2.97935">
        <ele>867.79998779297</ele>
        <time>2024-05-26T11:47:58.000Z</time>
        <extensions>
          <gpxtpx:TrackPointExtension xmlns:gpxtpx="http://www.garmin.com/xmlschemas/TrackPointExtension/v1">
            <gpxtpx:hr>96</gpxtpx:hr>
          </gpxtpx:TrackPointExtension>
        </extensions>
      </trkpt>
      <trkpt lat="45.65987" lon="2.97908">
        <ele>867.20001220703</ele>
        <time>2024-05-26T11:48:00.000Z</time>
        <extensions>
          <gpxtpx:TrackPointExtension xmlns:gpxtpx="http://www.garmin.com/xmlschemas/TrackPointExtension/v1">
            <gpxtpx:hr>94</gpxtpx:hr>
          </gpxtpx:TrackPointExtension>
        </extensions>
      </trkpt>
      <trkpt lat="45.65985" lon="2.97895">
        <ele>867</ele>
        <time>2024-05-26T11:48:01.000Z</time>
        <extensions>
          <gpxtpx:TrackPointExtension xmlns:gpxtpx="http://www.garmin.com/xmlschemas/TrackPointExtension/v1">
            <gpxtpx:hr>93</gpxtpx:hr>
          </gpxtpx:TrackPointExtension>
        </extensions>
      </trkpt>
      <trkpt lat="45.65983" lon="2.97881">
        <ele>866.59997558594</ele>
        <time>2024-05-26T11:48:02.000Z</time>
        <extensions>
          <gpxtpx:TrackPointExtension xmlns:gpxtpx="http://www.garmin.com/xmlschemas/TrackPointExtension/v1">
            <gpxtpx:hr>93</gpxtpx:hr>
          </gpxtpx:TrackPointExtension>
        </extensions>
      </trkpt>
      <trkpt lat="45.65982" lon="2.97853">
        <ele>865.40002441406</ele>
        <time>2024-05-26T11:48:04.000Z</time>
        <extensions>
          <gpxtpx:TrackPointExtension xmlns:gpxtpx="http://www.garmin.com/xmlschemas/TrackPointExtension/v1">
            <gpxtpx:hr>92</gpxtpx:hr>
          </gpxtpx:TrackPointExtension>
        </extensions>
      </trkpt>
      <trkpt lat="45.65979" lon="2.97826">
        <ele>864.40002441406</ele>
        <time>2024-05-26T11:48:06.000Z</time>
        <extensions>
          <gpxtpx:TrackPointExtension xmlns:gpxtpx="http://www.garmin.com/xmlschemas/TrackPointExtension/v1">
            <gpxtpx:hr>92</gpxtpx:hr>
          </gpxtpx:TrackPointExtension>
        </extensions>
      </trkpt>
      <trkpt lat="45.65978" lon="2.97812">
        <ele>864.20001220703</ele>
        <time>2024-05-26T11:48:07.000Z</time>
        <extensions>
          <gpxtpx:TrackPointExtension xmlns:gpxtpx="http://www.garmin.com/xmlschemas/TrackPointExtension/v1">
            <gpxtpx:hr>92</gpxtpx:hr>
          </gpxtpx:TrackPointExtension>
        </extensions>
      </trkpt>
      <trkpt lat="45.6597" lon="2.97774">
        <ele>863.20001220703</ele>
        <time>2024-05-26T11:48:10.000Z</time>
        <extensions>
          <gpxtpx:TrackPointExtension xmlns:gpxtpx="http://www.garmin.com/xmlschemas/TrackPointExtension/v1">
            <gpxtpx:hr>91</gpxtpx:hr>
          </gpxtpx:TrackPointExtension>
        </extensions>
      </trkpt>
      <trkpt lat="45.65967" lon="2.97761">
        <ele>863</ele>
        <time>2024-05-26T11:48:11.000Z</time>
        <extensions>
          <gpxtpx:TrackPointExtension xmlns:gpxtpx="http://www.garmin.com/xmlschemas/TrackPointExtension/v1">
            <gpxtpx:hr>90</gpxtpx:hr>
          </gpxtpx:TrackPointExtension>
        </extensions>
      </trkpt>
      <trkpt lat="45.65957" lon="2.97703">
        <ele>862.79998779297</ele>
        <time>2024-05-26T11:48:16.000Z</time>
        <extensions>
          <gpxtpx:TrackPointExtension xmlns:gpxtpx="http://www.garmin.com/xmlschemas/TrackPointExtension/v1">
            <gpxtpx:hr>89</gpxtpx:hr>
          </gpxtpx:TrackPointExtension>
        </extensions>
      </trkpt>
      <trkpt lat="45.65955" lon="2.97649">
        <ele>862.40002441406</ele>
        <time>2024-05-26T11:48:21.000Z</time>
        <extensions>
          <gpxtpx:TrackPointExtension xmlns:gpxtpx="http://www.garmin.com/xmlschemas/TrackPointExtension/v1">
            <gpxtpx:hr>86</gpxtpx:hr>
          </gpxtpx:TrackPointExtension>
        </extensions>
      </trkpt>
      <trkpt lat="45.65954" lon="2.97626">
        <ele>862.20001220703</ele>
        <time>2024-05-26T11:48:23.000Z</time>
        <extensions>
          <gpxtpx:TrackPointExtension xmlns:gpxtpx="http://www.garmin.com/xmlschemas/TrackPointExtension/v1">
            <gpxtpx:hr>86</gpxtpx:hr>
          </gpxtpx:TrackPointExtension>
        </extensions>
      </trkpt>
      <trkpt lat="45.65953" lon="2.97602">
        <ele>861.20001220703</ele>
        <time>2024-05-26T11:48:25.000Z</time>
        <extensions>
          <gpxtpx:TrackPointExtension xmlns:gpxtpx="http://www.garmin.com/xmlschemas/TrackPointExtension/v1">
            <gpxtpx:hr>86</gpxtpx:hr>
          </gpxtpx:TrackPointExtension>
        </extensions>
      </trkpt>
      <trkpt lat="45.65952" lon="2.97577">
        <ele>860</ele>
        <time>2024-05-26T11:48:27.000Z</time>
        <extensions>
          <gpxtpx:TrackPointExtension xmlns:gpxtpx="http://www.garmin.com/xmlschemas/TrackPointExtension/v1">
            <gpxtpx:hr>86</gpxtpx:hr>
          </gpxtpx:TrackPointExtension>
        </extensions>
      </trkpt>
      <trkpt lat="45.65952" lon="2.97553">
        <ele>858.59997558594</ele>
        <time>2024-05-26T11:48:29.000Z</time>
        <extensions>
          <gpxtpx:TrackPointExtension xmlns:gpxtpx="http://www.garmin.com/xmlschemas/TrackPointExtension/v1">
            <gpxtpx:hr>87</gpxtpx:hr>
          </gpxtpx:TrackPointExtension>
        </extensions>
      </trkpt>
      <trkpt lat="45.65955" lon="2.9753">
        <ele>857.59997558594</ele>
        <time>2024-05-26T11:48:31.000Z</time>
        <extensions>
          <gpxtpx:TrackPointExtension xmlns:gpxtpx="http://www.garmin.com/xmlschemas/TrackPointExtension/v1">
            <gpxtpx:hr>87</gpxtpx:hr>
          </gpxtpx:TrackPointExtension>
        </extensions>
      </trkpt>
      <trkpt lat="45.65962" lon="2.97509">
        <ele>855.40002441406</ele>
        <time>2024-05-26T11:48:33.000Z</time>
        <extensions>
          <gpxtpx:TrackPointExtension xmlns:gpxtpx="http://www.garmin.com/xmlschemas/TrackPointExtension/v1">
            <gpxtpx:hr>88</gpxtpx:hr>
          </gpxtpx:TrackPointExtension>
        </extensions>
      </trkpt>
      <trkpt lat="45.65966" lon="2.97498">
        <ele>854.40002441406</ele>
        <time>2024-05-26T11:48:34.000Z</time>
        <extensions>
          <gpxtpx:TrackPointExtension xmlns:gpxtpx="http://www.garmin.com/xmlschemas/TrackPointExtension/v1">
            <gpxtpx:hr>88</gpxtpx:hr>
          </gpxtpx:TrackPointExtension>
        </extensions>
      </trkpt>
      <trkpt lat="45.6597" lon="2.97488">
        <ele>853.79998779297</ele>
        <time>2024-05-26T11:48:35.000Z</time>
        <extensions>
          <gpxtpx:TrackPointExtension xmlns:gpxtpx="http://www.garmin.com/xmlschemas/TrackPointExtension/v1">
            <gpxtpx:hr>87</gpxtpx:hr>
          </gpxtpx:TrackPointExtension>
        </extensions>
      </trkpt>
      <trkpt lat="45.65973" lon="2.97478">
        <ele>853.59997558594</ele>
        <time>2024-05-26T11:48:36.000Z</time>
        <extensions>
          <gpxtpx:TrackPointExtension xmlns:gpxtpx="http://www.garmin.com/xmlschemas/TrackPointExtension/v1">
            <gpxtpx:hr>88</gpxtpx:hr>
          </gpxtpx:TrackPointExtension>
        </extensions>
      </trkpt>
      <trkpt lat="45.65975" lon="2.97469">
        <ele>853.40002441406</ele>
        <time>2024-05-26T11:48:37.000Z</time>
        <extensions>
          <gpxtpx:TrackPointExtension xmlns:gpxtpx="http://www.garmin.com/xmlschemas/TrackPointExtension/v1">
            <gpxtpx:hr>88</gpxtpx:hr>
          </gpxtpx:TrackPointExtension>
        </extensions>
      </trkpt>
      <trkpt lat="45.65976" lon="2.97461">
        <ele>853.20001220703</ele>
        <time>2024-05-26T11:48:38.000Z</time>
        <extensions>
          <gpxtpx:TrackPointExtension xmlns:gpxtpx="http://www.garmin.com/xmlschemas/TrackPointExtension/v1">
            <gpxtpx:hr>88</gpxtpx:hr>
          </gpxtpx:TrackPointExtension>
        </extensions>
      </trkpt>
      <trkpt lat="45.65978" lon="2.97448">
        <ele>852.20001220703</ele>
        <time>2024-05-26T11:48:40.000Z</time>
        <extensions>
          <gpxtpx:TrackPointExtension xmlns:gpxtpx="http://www.garmin.com/xmlschemas/TrackPointExtension/v1">
            <gpxtpx:hr>89</gpxtpx:hr>
          </gpxtpx:TrackPointExtension>
        </extensions>
      </trkpt>
      <trkpt lat="45.65981" lon="2.97445">
        <ele>852</ele>
        <time>2024-05-26T11:48:41.000Z</time>
        <extensions>
          <gpxtpx:TrackPointExtension xmlns:gpxtpx="http://www.garmin.com/xmlschemas/TrackPointExtension/v1">
            <gpxtpx:hr>89</gpxtpx:hr>
          </gpxtpx:TrackPointExtension>
        </extensions>
      </trkpt>
      <trkpt lat="45.65992" lon="2.97449">
        <ele>851.20001220703</ele>
        <time>2024-05-26T11:48:43.000Z</time>
        <extensions>
          <gpxtpx:TrackPointExtension xmlns:gpxtpx="http://www.garmin.com/xmlschemas/TrackPointExtension/v1">
            <gpxtpx:hr>89</gpxtpx:hr>
          </gpxtpx:TrackPointExtension>
        </extensions>
      </trkpt>
      <trkpt lat="45.65998" lon="2.97452">
        <ele>851.20001220703</ele>
        <time>2024-05-26T11:48:44.000Z</time>
        <extensions>
          <gpxtpx:TrackPointExtension xmlns:gpxtpx="http://www.garmin.com/xmlschemas/TrackPointExtension/v1">
            <gpxtpx:hr>90</gpxtpx:hr>
          </gpxtpx:TrackPointExtension>
        </extensions>
      </trkpt>
      <trkpt lat="45.66004" lon="2.97455">
        <ele>851</ele>
        <time>2024-05-26T11:48:45.000Z</time>
        <extensions>
          <gpxtpx:TrackPointExtension xmlns:gpxtpx="http://www.garmin.com/xmlschemas/TrackPointExtension/v1">
            <gpxtpx:hr>90</gpxtpx:hr>
          </gpxtpx:TrackPointExtension>
        </extensions>
      </trkpt>
      <trkpt lat="45.66018" lon="2.97459">
        <ele>850</ele>
        <time>2024-05-26T11:48:47.000Z</time>
        <extensions>
          <gpxtpx:TrackPointExtension xmlns:gpxtpx="http://www.garmin.com/xmlschemas/TrackPointExtension/v1">
            <gpxtpx:hr>90</gpxtpx:hr>
          </gpxtpx:TrackPointExtension>
        </extensions>
      </trkpt>
      <trkpt lat="45.66026" lon="2.97459">
        <ele>850</ele>
        <time>2024-05-26T11:48:48.000Z</time>
        <extensions>
          <gpxtpx:TrackPointExtension xmlns:gpxtpx="http://www.garmin.com/xmlschemas/TrackPointExtension/v1">
            <gpxtpx:hr>90</gpxtpx:hr>
          </gpxtpx:TrackPointExtension>
        </extensions>
      </trkpt>
      <trkpt lat="45.66039" lon="2.97453">
        <ele>848.40002441406</ele>
        <time>2024-05-26T11:48:50.000Z</time>
        <extensions>
          <gpxtpx:TrackPointExtension xmlns:gpxtpx="http://www.garmin.com/xmlschemas/TrackPointExtension/v1">
            <gpxtpx:hr>90</gpxtpx:hr>
          </gpxtpx:TrackPointExtension>
        </extensions>
      </trkpt>
      <trkpt lat="45.66053" lon="2.97445">
        <ele>848.20001220703</ele>
        <time>2024-05-26T11:48:52.000Z</time>
        <extensions>
          <gpxtpx:TrackPointExtension xmlns:gpxtpx="http://www.garmin.com/xmlschemas/TrackPointExtension/v1">
            <gpxtpx:hr>92</gpxtpx:hr>
          </gpxtpx:TrackPointExtension>
        </extensions>
      </trkpt>
      <trkpt lat="45.66069" lon="2.97444">
        <ele>848</ele>
        <time>2024-05-26T11:48:54.000Z</time>
        <extensions>
          <gpxtpx:TrackPointExtension xmlns:gpxtpx="http://www.garmin.com/xmlschemas/TrackPointExtension/v1">
            <gpxtpx:hr>90</gpxtpx:hr>
          </gpxtpx:TrackPointExtension>
        </extensions>
      </trkpt>
      <trkpt lat="45.66091" lon="2.97452">
        <ele>847.40002441406</ele>
        <time>2024-05-26T11:48:57.000Z</time>
        <extensions>
          <gpxtpx:TrackPointExtension xmlns:gpxtpx="http://www.garmin.com/xmlschemas/TrackPointExtension/v1">
            <gpxtpx:hr>90</gpxtpx:hr>
          </gpxtpx:TrackPointExtension>
        </extensions>
      </trkpt>
      <trkpt lat="45.66097" lon="2.97457">
        <ele>847.40002441406</ele>
        <time>2024-05-26T11:48:58.000Z</time>
        <extensions>
          <gpxtpx:TrackPointExtension xmlns:gpxtpx="http://www.garmin.com/xmlschemas/TrackPointExtension/v1">
            <gpxtpx:hr>90</gpxtpx:hr>
          </gpxtpx:TrackPointExtension>
        </extensions>
      </trkpt>
      <trkpt lat="45.66102" lon="2.97465">
        <ele>847.20001220703</ele>
        <time>2024-05-26T11:48:59.000Z</time>
        <extensions>
          <gpxtpx:TrackPointExtension xmlns:gpxtpx="http://www.garmin.com/xmlschemas/TrackPointExtension/v1">
            <gpxtpx:hr>90</gpxtpx:hr>
          </gpxtpx:TrackPointExtension>
        </extensions>
      </trkpt>
      <trkpt lat="45.66105" lon="2.97474">
        <ele>847.20001220703</ele>
        <time>2024-05-26T11:49:00.000Z</time>
        <extensions>
          <gpxtpx:TrackPointExtension xmlns:gpxtpx="http://www.garmin.com/xmlschemas/TrackPointExtension/v1">
            <gpxtpx:hr>89</gpxtpx:hr>
          </gpxtpx:TrackPointExtension>
        </extensions>
      </trkpt>
      <trkpt lat="45.66107" lon="2.97484">
        <ele>847.20001220703</ele>
        <time>2024-05-26T11:49:01.000Z</time>
        <extensions>
          <gpxtpx:TrackPointExtension xmlns:gpxtpx="http://www.garmin.com/xmlschemas/TrackPointExtension/v1">
            <gpxtpx:hr>89</gpxtpx:hr>
          </gpxtpx:TrackPointExtension>
        </extensions>
      </trkpt>
      <trkpt lat="45.66111" lon="2.97503">
        <ele>846.79998779297</ele>
        <time>2024-05-26T11:49:03.000Z</time>
        <extensions>
          <gpxtpx:TrackPointExtension xmlns:gpxtpx="http://www.garmin.com/xmlschemas/TrackPointExtension/v1">
            <gpxtpx:hr>89</gpxtpx:hr>
          </gpxtpx:TrackPointExtension>
        </extensions>
      </trkpt>
      <trkpt lat="45.66113" lon="2.97512">
        <ele>846.59997558594</ele>
        <time>2024-05-26T11:49:04.000Z</time>
        <extensions>
          <gpxtpx:TrackPointExtension xmlns:gpxtpx="http://www.garmin.com/xmlschemas/TrackPointExtension/v1">
            <gpxtpx:hr>89</gpxtpx:hr>
          </gpxtpx:TrackPointExtension>
        </extensions>
      </trkpt>
      <trkpt lat="45.66118" lon="2.97529">
        <ele>846.20001220703</ele>
        <time>2024-05-26T11:49:06.000Z</time>
        <extensions>
          <gpxtpx:TrackPointExtension xmlns:gpxtpx="http://www.garmin.com/xmlschemas/TrackPointExtension/v1">
            <gpxtpx:hr>90</gpxtpx:hr>
          </gpxtpx:TrackPointExtension>
        </extensions>
      </trkpt>
      <trkpt lat="45.6613" lon="2.97563">
        <ele>846.59997558594</ele>
        <time>2024-05-26T11:49:10.000Z</time>
        <extensions>
          <gpxtpx:TrackPointExtension xmlns:gpxtpx="http://www.garmin.com/xmlschemas/TrackPointExtension/v1">
            <gpxtpx:hr>91</gpxtpx:hr>
          </gpxtpx:TrackPointExtension>
        </extensions>
      </trkpt>
      <trkpt lat="45.66134" lon="2.97582">
        <ele>846.59997558594</ele>
        <time>2024-05-26T11:49:12.000Z</time>
        <extensions>
          <gpxtpx:TrackPointExtension xmlns:gpxtpx="http://www.garmin.com/xmlschemas/TrackPointExtension/v1">
            <gpxtpx:hr>92</gpxtpx:hr>
          </gpxtpx:TrackPointExtension>
        </extensions>
      </trkpt>
      <trkpt lat="45.66137" lon="2.97602">
        <ele>846.59997558594</ele>
        <time>2024-05-26T11:49:14.000Z</time>
        <extensions>
          <gpxtpx:TrackPointExtension xmlns:gpxtpx="http://www.garmin.com/xmlschemas/TrackPointExtension/v1">
            <gpxtpx:hr>94</gpxtpx:hr>
          </gpxtpx:TrackPointExtension>
        </extensions>
      </trkpt>
      <trkpt lat="45.66146" lon="2.97661">
        <ele>845.59997558594</ele>
        <time>2024-05-26T11:49:20.000Z</time>
        <extensions>
          <gpxtpx:TrackPointExtension xmlns:gpxtpx="http://www.garmin.com/xmlschemas/TrackPointExtension/v1">
            <gpxtpx:hr>97</gpxtpx:hr>
          </gpxtpx:TrackPointExtension>
        </extensions>
      </trkpt>
      <trkpt lat="45.6615" lon="2.97681">
        <ele>845.20001220703</ele>
        <time>2024-05-26T11:49:22.000Z</time>
        <extensions>
          <gpxtpx:TrackPointExtension xmlns:gpxtpx="http://www.garmin.com/xmlschemas/TrackPointExtension/v1">
            <gpxtpx:hr>95</gpxtpx:hr>
          </gpxtpx:TrackPointExtension>
        </extensions>
      </trkpt>
      <trkpt lat="45.66156" lon="2.9771">
        <ele>844.59997558594</ele>
        <time>2024-05-26T11:49:25.000Z</time>
        <extensions>
          <gpxtpx:TrackPointExtension xmlns:gpxtpx="http://www.garmin.com/xmlschemas/TrackPointExtension/v1">
            <gpxtpx:hr>96</gpxtpx:hr>
          </gpxtpx:TrackPointExtension>
        </extensions>
      </trkpt>
      <trkpt lat="45.66162" lon="2.97729">
        <ele>844.20001220703</ele>
        <time>2024-05-26T11:49:27.000Z</time>
        <extensions>
          <gpxtpx:TrackPointExtension xmlns:gpxtpx="http://www.garmin.com/xmlschemas/TrackPointExtension/v1">
            <gpxtpx:hr>99</gpxtpx:hr>
          </gpxtpx:TrackPointExtension>
        </extensions>
      </trkpt>
      <trkpt lat="45.66166" lon="2.97738">
        <ele>844.20001220703</ele>
        <time>2024-05-26T11:49:28.000Z</time>
        <extensions>
          <gpxtpx:TrackPointExtension xmlns:gpxtpx="http://www.garmin.com/xmlschemas/TrackPointExtension/v1">
            <gpxtpx:hr>98</gpxtpx:hr>
          </gpxtpx:TrackPointExtension>
        </extensions>
      </trkpt>
      <trkpt lat="45.6617" lon="2.97746">
        <ele>844.20001220703</ele>
        <time>2024-05-26T11:49:29.000Z</time>
        <extensions>
          <gpxtpx:TrackPointExtension xmlns:gpxtpx="http://www.garmin.com/xmlschemas/TrackPointExtension/v1">
            <gpxtpx:hr>99</gpxtpx:hr>
          </gpxtpx:TrackPointExtension>
        </extensions>
      </trkpt>
      <trkpt lat="45.66175" lon="2.97754">
        <ele>844</ele>
        <time>2024-05-26T11:49:30.000Z</time>
        <extensions>
          <gpxtpx:TrackPointExtension xmlns:gpxtpx="http://www.garmin.com/xmlschemas/TrackPointExtension/v1">
            <gpxtpx:hr>99</gpxtpx:hr>
          </gpxtpx:TrackPointExtension>
        </extensions>
      </trkpt>
      <trkpt lat="45.66189" lon="2.97778">
        <ele>843.40002441406</ele>
        <time>2024-05-26T11:49:33.000Z</time>
        <extensions>
          <gpxtpx:TrackPointExtension xmlns:gpxtpx="http://www.garmin.com/xmlschemas/TrackPointExtension/v1">
            <gpxtpx:hr>101</gpxtpx:hr>
          </gpxtpx:TrackPointExtension>
        </extensions>
      </trkpt>
      <trkpt lat="45.66199" lon="2.97793">
        <ele>843</ele>
        <time>2024-05-26T11:49:35.000Z</time>
        <extensions>
          <gpxtpx:TrackPointExtension xmlns:gpxtpx="http://www.garmin.com/xmlschemas/TrackPointExtension/v1">
            <gpxtpx:hr>100</gpxtpx:hr>
          </gpxtpx:TrackPointExtension>
        </extensions>
      </trkpt>
      <trkpt lat="45.6623" lon="2.97835">
        <ele>842.79998779297</ele>
        <time>2024-05-26T11:49:41.000Z</time>
        <extensions>
          <gpxtpx:TrackPointExtension xmlns:gpxtpx="http://www.garmin.com/xmlschemas/TrackPointExtension/v1">
            <gpxtpx:hr>100</gpxtpx:hr>
          </gpxtpx:TrackPointExtension>
        </extensions>
      </trkpt>
      <trkpt lat="45.66262" lon="2.97875">
        <ele>842.59997558594</ele>
        <time>2024-05-26T11:49:47.000Z</time>
        <extensions>
          <gpxtpx:TrackPointExtension xmlns:gpxtpx="http://www.garmin.com/xmlschemas/TrackPointExtension/v1">
            <gpxtpx:hr>101</gpxtpx:hr>
          </gpxtpx:TrackPointExtension>
        </extensions>
      </trkpt>
      <trkpt lat="45.66291" lon="2.97927">
        <ele>842.59997558594</ele>
        <time>2024-05-26T11:49:54.000Z</time>
        <extensions>
          <gpxtpx:TrackPointExtension xmlns:gpxtpx="http://www.garmin.com/xmlschemas/TrackPointExtension/v1">
            <gpxtpx:hr>102</gpxtpx:hr>
          </gpxtpx:TrackPointExtension>
        </extensions>
      </trkpt>
      <trkpt lat="45.66324" lon="2.97979">
        <ele>843</ele>
        <time>2024-05-26T11:50:02.000Z</time>
        <extensions>
          <gpxtpx:TrackPointExtension xmlns:gpxtpx="http://www.garmin.com/xmlschemas/TrackPointExtension/v1">
            <gpxtpx:hr>102</gpxtpx:hr>
          </gpxtpx:TrackPointExtension>
        </extensions>
      </trkpt>
      <trkpt lat="45.66329" lon="2.97984">
        <ele>843.20001220703</ele>
        <time>2024-05-26T11:50:03.000Z</time>
        <extensions>
          <gpxtpx:TrackPointExtension xmlns:gpxtpx="http://www.garmin.com/xmlschemas/TrackPointExtension/v1">
            <gpxtpx:hr>102</gpxtpx:hr>
          </gpxtpx:TrackPointExtension>
        </extensions>
      </trkpt>
      <trkpt lat="45.66339" lon="2.97992">
        <ele>843.20001220703</ele>
        <time>2024-05-26T11:50:05.000Z</time>
        <extensions>
          <gpxtpx:TrackPointExtension xmlns:gpxtpx="http://www.garmin.com/xmlschemas/TrackPointExtension/v1">
            <gpxtpx:hr>103</gpxtpx:hr>
          </gpxtpx:TrackPointExtension>
        </extensions>
      </trkpt>
      <trkpt lat="45.66345" lon="2.97995">
        <ele>843.59997558594</ele>
        <time>2024-05-26T11:50:06.000Z</time>
        <extensions>
          <gpxtpx:TrackPointExtension xmlns:gpxtpx="http://www.garmin.com/xmlschemas/TrackPointExtension/v1">
            <gpxtpx:hr>103</gpxtpx:hr>
          </gpxtpx:TrackPointExtension>
        </extensions>
      </trkpt>
      <trkpt lat="45.66361" lon="2.98002">
        <ele>844</ele>
        <time>2024-05-26T11:50:09.000Z</time>
        <extensions>
          <gpxtpx:TrackPointExtension xmlns:gpxtpx="http://www.garmin.com/xmlschemas/TrackPointExtension/v1">
            <gpxtpx:hr>104</gpxtpx:hr>
          </gpxtpx:TrackPointExtension>
        </extensions>
      </trkpt>
      <trkpt lat="45.66367" lon="2.98004">
        <ele>844</ele>
        <time>2024-05-26T11:50:10.000Z</time>
        <extensions>
          <gpxtpx:TrackPointExtension xmlns:gpxtpx="http://www.garmin.com/xmlschemas/TrackPointExtension/v1">
            <gpxtpx:hr>101</gpxtpx:hr>
          </gpxtpx:TrackPointExtension>
        </extensions>
      </trkpt>
      <trkpt lat="45.66372" lon="2.98005">
        <ele>844</ele>
        <time>2024-05-26T11:50:11.000Z</time>
        <extensions>
          <gpxtpx:TrackPointExtension xmlns:gpxtpx="http://www.garmin.com/xmlschemas/TrackPointExtension/v1">
            <gpxtpx:hr>104</gpxtpx:hr>
          </gpxtpx:TrackPointExtension>
        </extensions>
      </trkpt>
      <trkpt lat="45.66396" lon="2.98013">
        <ele>843.79998779297</ele>
        <time>2024-05-26T11:50:15.000Z</time>
        <extensions>
          <gpxtpx:TrackPointExtension xmlns:gpxtpx="http://www.garmin.com/xmlschemas/TrackPointExtension/v1">
            <gpxtpx:hr>107</gpxtpx:hr>
          </gpxtpx:TrackPointExtension>
        </extensions>
      </trkpt>
      <trkpt lat="45.66402" lon="2.98015">
        <ele>843.79998779297</ele>
        <time>2024-05-26T11:50:16.000Z</time>
        <extensions>
          <gpxtpx:TrackPointExtension xmlns:gpxtpx="http://www.garmin.com/xmlschemas/TrackPointExtension/v1">
            <gpxtpx:hr>107</gpxtpx:hr>
          </gpxtpx:TrackPointExtension>
        </extensions>
      </trkpt>
      <trkpt lat="45.66407" lon="2.98018">
        <ele>843.79998779297</ele>
        <time>2024-05-26T11:50:17.000Z</time>
        <extensions>
          <gpxtpx:TrackPointExtension xmlns:gpxtpx="http://www.garmin.com/xmlschemas/TrackPointExtension/v1">
            <gpxtpx:hr>104</gpxtpx:hr>
          </gpxtpx:TrackPointExtension>
        </extensions>
      </trkpt>
      <trkpt lat="45.66423" lon="2.9803">
        <ele>843.79998779297</ele>
        <time>2024-05-26T11:50:20.000Z</time>
        <extensions>
          <gpxtpx:TrackPointExtension xmlns:gpxtpx="http://www.garmin.com/xmlschemas/TrackPointExtension/v1">
            <gpxtpx:hr>103</gpxtpx:hr>
          </gpxtpx:TrackPointExtension>
        </extensions>
      </trkpt>
      <trkpt lat="45.66428" lon="2.98035">
        <ele>843.79998779297</ele>
        <time>2024-05-26T11:50:21.000Z</time>
        <extensions>
          <gpxtpx:TrackPointExtension xmlns:gpxtpx="http://www.garmin.com/xmlschemas/TrackPointExtension/v1">
            <gpxtpx:hr>103</gpxtpx:hr>
          </gpxtpx:TrackPointExtension>
        </extensions>
      </trkpt>
      <trkpt lat="45.66447" lon="2.98055">
        <ele>844.20001220703</ele>
        <time>2024-05-26T11:50:25.000Z</time>
        <extensions>
          <gpxtpx:TrackPointExtension xmlns:gpxtpx="http://www.garmin.com/xmlschemas/TrackPointExtension/v1">
            <gpxtpx:hr>102</gpxtpx:hr>
          </gpxtpx:TrackPointExtension>
        </extensions>
      </trkpt>
      <trkpt lat="45.66466" lon="2.98076">
        <ele>844.59997558594</ele>
        <time>2024-05-26T11:50:29.000Z</time>
        <extensions>
          <gpxtpx:TrackPointExtension xmlns:gpxtpx="http://www.garmin.com/xmlschemas/TrackPointExtension/v1">
            <gpxtpx:hr>103</gpxtpx:hr>
          </gpxtpx:TrackPointExtension>
        </extensions>
      </trkpt>
      <trkpt lat="45.66471" lon="2.98081">
        <ele>844.59997558594</ele>
        <time>2024-05-26T11:50:30.000Z</time>
        <extensions>
          <gpxtpx:TrackPointExtension xmlns:gpxtpx="http://www.garmin.com/xmlschemas/TrackPointExtension/v1">
            <gpxtpx:hr>102</gpxtpx:hr>
          </gpxtpx:TrackPointExtension>
        </extensions>
      </trkpt>
      <trkpt lat="45.66497" lon="2.98111">
        <ele>845.40002441406</ele>
        <time>2024-05-26T11:50:37.000Z</time>
        <extensions>
          <gpxtpx:TrackPointExtension xmlns:gpxtpx="http://www.garmin.com/xmlschemas/TrackPointExtension/v1">
            <gpxtpx:hr>104</gpxtpx:hr>
          </gpxtpx:TrackPointExtension>
        </extensions>
      </trkpt>
      <trkpt lat="45.66511" lon="2.98126">
        <ele>846</ele>
        <time>2024-05-26T11:50:41.000Z</time>
        <extensions>
          <gpxtpx:TrackPointExtension xmlns:gpxtpx="http://www.garmin.com/xmlschemas/TrackPointExtension/v1">
            <gpxtpx:hr>105</gpxtpx:hr>
          </gpxtpx:TrackPointExtension>
        </extensions>
      </trkpt>
      <trkpt lat="45.66518" lon="2.98133">
        <ele>846.20001220703</ele>
        <time>2024-05-26T11:50:43.000Z</time>
        <extensions>
          <gpxtpx:TrackPointExtension xmlns:gpxtpx="http://www.garmin.com/xmlschemas/TrackPointExtension/v1">
            <gpxtpx:hr>106</gpxtpx:hr>
          </gpxtpx:TrackPointExtension>
        </extensions>
      </trkpt>
      <trkpt lat="45.66522" lon="2.98137">
        <ele>846.20001220703</ele>
        <time>2024-05-26T11:50:44.000Z</time>
        <extensions>
          <gpxtpx:TrackPointExtension xmlns:gpxtpx="http://www.garmin.com/xmlschemas/TrackPointExtension/v1">
            <gpxtpx:hr>105</gpxtpx:hr>
          </gpxtpx:TrackPointExtension>
        </extensions>
      </trkpt>
      <trkpt lat="45.66524" lon="2.98142">
        <ele>846.40002441406</ele>
        <time>2024-05-26T11:50:45.000Z</time>
        <extensions>
          <gpxtpx:TrackPointExtension xmlns:gpxtpx="http://www.garmin.com/xmlschemas/TrackPointExtension/v1">
            <gpxtpx:hr>105</gpxtpx:hr>
          </gpxtpx:TrackPointExtension>
        </extensions>
      </trkpt>
      <trkpt lat="45.66529" lon="2.98153">
        <ele>846.59997558594</ele>
        <time>2024-05-26T11:50:47.000Z</time>
        <extensions>
          <gpxtpx:TrackPointExtension xmlns:gpxtpx="http://www.garmin.com/xmlschemas/TrackPointExtension/v1">
            <gpxtpx:hr>105</gpxtpx:hr>
          </gpxtpx:TrackPointExtension>
        </extensions>
      </trkpt>
      <trkpt lat="45.66544" lon="2.9818">
        <ele>847.40002441406</ele>
        <time>2024-05-26T11:50:53.000Z</time>
        <extensions>
          <gpxtpx:TrackPointExtension xmlns:gpxtpx="http://www.garmin.com/xmlschemas/TrackPointExtension/v1">
            <gpxtpx:hr>105</gpxtpx:hr>
          </gpxtpx:TrackPointExtension>
        </extensions>
      </trkpt>
      <trkpt lat="45.66549" lon="2.98188">
        <ele>848.20001220703</ele>
        <time>2024-05-26T11:50:55.000Z</time>
        <extensions>
          <gpxtpx:TrackPointExtension xmlns:gpxtpx="http://www.garmin.com/xmlschemas/TrackPointExtension/v1">
            <gpxtpx:hr>106</gpxtpx:hr>
          </gpxtpx:TrackPointExtension>
        </extensions>
      </trkpt>
      <trkpt lat="45.66553" lon="2.98196">
        <ele>848.79998779297</ele>
        <time>2024-05-26T11:50:57.000Z</time>
        <extensions>
          <gpxtpx:TrackPointExtension xmlns:gpxtpx="http://www.garmin.com/xmlschemas/TrackPointExtension/v1">
            <gpxtpx:hr>106</gpxtpx:hr>
          </gpxtpx:TrackPointExtension>
        </extensions>
      </trkpt>
      <trkpt lat="45.66563" lon="2.9821">
        <ele>849.59997558594</ele>
        <time>2024-05-26T11:51:01.000Z</time>
        <extensions>
          <gpxtpx:TrackPointExtension xmlns:gpxtpx="http://www.garmin.com/xmlschemas/TrackPointExtension/v1">
            <gpxtpx:hr>108</gpxtpx:hr>
          </gpxtpx:TrackPointExtension>
        </extensions>
      </trkpt>
      <trkpt lat="45.66565" lon="2.98214">
        <ele>849.79998779297</ele>
        <time>2024-05-26T11:51:02.000Z</time>
        <extensions>
          <gpxtpx:TrackPointExtension xmlns:gpxtpx="http://www.garmin.com/xmlschemas/TrackPointExtension/v1">
            <gpxtpx:hr>108</gpxtpx:hr>
          </gpxtpx:TrackPointExtension>
        </extensions>
      </trkpt>
      <trkpt lat="45.66573" lon="2.98222">
        <ele>850.79998779297</ele>
        <time>2024-05-26T11:51:05.000Z</time>
        <extensions>
          <gpxtpx:TrackPointExtension xmlns:gpxtpx="http://www.garmin.com/xmlschemas/TrackPointExtension/v1">
            <gpxtpx:hr>113</gpxtpx:hr>
          </gpxtpx:TrackPointExtension>
        </extensions>
      </trkpt>
      <trkpt lat="45.66581" lon="2.98228">
        <ele>851.40002441406</ele>
        <time>2024-05-26T11:51:08.000Z</time>
        <extensions>
          <gpxtpx:TrackPointExtension xmlns:gpxtpx="http://www.garmin.com/xmlschemas/TrackPointExtension/v1">
            <gpxtpx:hr>113</gpxtpx:hr>
          </gpxtpx:TrackPointExtension>
        </extensions>
      </trkpt>
      <trkpt lat="45.66584" lon="2.98229">
        <ele>852</ele>
        <time>2024-05-26T11:51:09.000Z</time>
        <extensions>
          <gpxtpx:TrackPointExtension xmlns:gpxtpx="http://www.garmin.com/xmlschemas/TrackPointExtension/v1">
            <gpxtpx:hr>111</gpxtpx:hr>
          </gpxtpx:TrackPointExtension>
        </extensions>
      </trkpt>
      <trkpt lat="45.66589" lon="2.9823">
        <ele>852.40002441406</ele>
        <time>2024-05-26T11:51:11.000Z</time>
        <extensions>
          <gpxtpx:TrackPointExtension xmlns:gpxtpx="http://www.garmin.com/xmlschemas/TrackPointExtension/v1">
            <gpxtpx:hr>115</gpxtpx:hr>
          </gpxtpx:TrackPointExtension>
        </extensions>
      </trkpt>
      <trkpt lat="45.66591" lon="2.9823">
        <ele>852.79998779297</ele>
        <time>2024-05-26T11:51:12.000Z</time>
        <extensions>
          <gpxtpx:TrackPointExtension xmlns:gpxtpx="http://www.garmin.com/xmlschemas/TrackPointExtension/v1">
            <gpxtpx:hr>116</gpxtpx:hr>
          </gpxtpx:TrackPointExtension>
        </extensions>
      </trkpt>
      <trkpt lat="45.66593" lon="2.9823">
        <ele>853</ele>
        <time>2024-05-26T11:51:13.000Z</time>
        <extensions>
          <gpxtpx:TrackPointExtension xmlns:gpxtpx="http://www.garmin.com/xmlschemas/TrackPointExtension/v1">
            <gpxtpx:hr>119</gpxtpx:hr>
          </gpxtpx:TrackPointExtension>
        </extensions>
      </trkpt>
      <trkpt lat="45.66601" lon="2.98225">
        <ele>853.59997558594</ele>
        <time>2024-05-26T11:51:18.000Z</time>
        <extensions>
          <gpxtpx:TrackPointExtension xmlns:gpxtpx="http://www.garmin.com/xmlschemas/TrackPointExtension/v1">
            <gpxtpx:hr>116</gpxtpx:hr>
          </gpxtpx:TrackPointExtension>
        </extensions>
      </trkpt>
      <trkpt lat="45.66603" lon="2.98224">
        <ele>853.79998779297</ele>
        <time>2024-05-26T11:51:19.000Z</time>
        <extensions>
          <gpxtpx:TrackPointExtension xmlns:gpxtpx="http://www.garmin.com/xmlschemas/TrackPointExtension/v1">
            <gpxtpx:hr>117</gpxtpx:hr>
          </gpxtpx:TrackPointExtension>
        </extensions>
      </trkpt>
      <trkpt lat="45.66606" lon="2.98223">
        <ele>853.79998779297</ele>
        <time>2024-05-26T11:51:21.000Z</time>
        <extensions>
          <gpxtpx:TrackPointExtension xmlns:gpxtpx="http://www.garmin.com/xmlschemas/TrackPointExtension/v1">
            <gpxtpx:hr>112</gpxtpx:hr>
          </gpxtpx:TrackPointExtension>
        </extensions>
      </trkpt>
      <trkpt lat="45.66608" lon="2.98222">
        <ele>854</ele>
        <time>2024-05-26T11:51:22.000Z</time>
        <extensions>
          <gpxtpx:TrackPointExtension xmlns:gpxtpx="http://www.garmin.com/xmlschemas/TrackPointExtension/v1">
            <gpxtpx:hr>115</gpxtpx:hr>
          </gpxtpx:TrackPointExtension>
        </extensions>
      </trkpt>
      <trkpt lat="45.6661" lon="2.98221">
        <ele>854</ele>
        <time>2024-05-26T11:51:23.000Z</time>
        <extensions>
          <gpxtpx:TrackPointExtension xmlns:gpxtpx="http://www.garmin.com/xmlschemas/TrackPointExtension/v1">
            <gpxtpx:hr>116</gpxtpx:hr>
          </gpxtpx:TrackPointExtension>
        </extensions>
      </trkpt>
      <trkpt lat="45.66617" lon="2.98216">
        <ele>854.59997558594</ele>
        <time>2024-05-26T11:51:27.000Z</time>
        <extensions>
          <gpxtpx:TrackPointExtension xmlns:gpxtpx="http://www.garmin.com/xmlschemas/TrackPointExtension/v1">
            <gpxtpx:hr>113</gpxtpx:hr>
          </gpxtpx:TrackPointExtension>
        </extensions>
      </trkpt>
      <trkpt lat="45.66622" lon="2.98214">
        <ele>855.20001220703</ele>
        <time>2024-05-26T11:51:29.000Z</time>
        <extensions>
          <gpxtpx:TrackPointExtension xmlns:gpxtpx="http://www.garmin.com/xmlschemas/TrackPointExtension/v1">
            <gpxtpx:hr>113</gpxtpx:hr>
          </gpxtpx:TrackPointExtension>
        </extensions>
      </trkpt>
      <trkpt lat="45.66628" lon="2.98213">
        <ele>855.59997558594</ele>
        <time>2024-05-26T11:51:31.000Z</time>
        <extensions>
          <gpxtpx:TrackPointExtension xmlns:gpxtpx="http://www.garmin.com/xmlschemas/TrackPointExtension/v1">
            <gpxtpx:hr>113</gpxtpx:hr>
          </gpxtpx:TrackPointExtension>
        </extensions>
      </trkpt>
      <trkpt lat="45.66651" lon="2.98218">
        <ele>856.20001220703</ele>
        <time>2024-05-26T11:51:39.000Z</time>
        <extensions>
          <gpxtpx:TrackPointExtension xmlns:gpxtpx="http://www.garmin.com/xmlschemas/TrackPointExtension/v1">
            <gpxtpx:hr>116</gpxtpx:hr>
          </gpxtpx:TrackPointExtension>
        </extensions>
      </trkpt>
      <trkpt lat="45.66679" lon="2.98217">
        <ele>857.40002441406</ele>
        <time>2024-05-26T11:51:47.000Z</time>
        <extensions>
          <gpxtpx:TrackPointExtension xmlns:gpxtpx="http://www.garmin.com/xmlschemas/TrackPointExtension/v1">
            <gpxtpx:hr>117</gpxtpx:hr>
          </gpxtpx:TrackPointExtension>
        </extensions>
      </trkpt>
      <trkpt lat="45.66711" lon="2.98206">
        <ele>857.40002441406</ele>
        <time>2024-05-26T11:51:55.000Z</time>
        <extensions>
          <gpxtpx:TrackPointExtension xmlns:gpxtpx="http://www.garmin.com/xmlschemas/TrackPointExtension/v1">
            <gpxtpx:hr>117</gpxtpx:hr>
          </gpxtpx:TrackPointExtension>
        </extensions>
      </trkpt>
      <trkpt lat="45.6672" lon="2.98206">
        <ele>857.59997558594</ele>
        <time>2024-05-26T11:51:57.000Z</time>
        <extensions>
          <gpxtpx:TrackPointExtension xmlns:gpxtpx="http://www.garmin.com/xmlschemas/TrackPointExtension/v1">
            <gpxtpx:hr>117</gpxtpx:hr>
          </gpxtpx:TrackPointExtension>
        </extensions>
      </trkpt>
      <trkpt lat="45.66729" lon="2.98211">
        <ele>857.79998779297</ele>
        <time>2024-05-26T11:51:59.000Z</time>
        <extensions>
          <gpxtpx:TrackPointExtension xmlns:gpxtpx="http://www.garmin.com/xmlschemas/TrackPointExtension/v1">
            <gpxtpx:hr>116</gpxtpx:hr>
          </gpxtpx:TrackPointExtension>
        </extensions>
      </trkpt>
      <trkpt lat="45.66736" lon="2.98219">
        <ele>857.79998779297</ele>
        <time>2024-05-26T11:52:01.000Z</time>
        <extensions>
          <gpxtpx:TrackPointExtension xmlns:gpxtpx="http://www.garmin.com/xmlschemas/TrackPointExtension/v1">
            <gpxtpx:hr>115</gpxtpx:hr>
          </gpxtpx:TrackPointExtension>
        </extensions>
      </trkpt>
      <trkpt lat="45.66741" lon="2.98229">
        <ele>857.79998779297</ele>
        <time>2024-05-26T11:52:03.000Z</time>
        <extensions>
          <gpxtpx:TrackPointExtension xmlns:gpxtpx="http://www.garmin.com/xmlschemas/TrackPointExtension/v1">
            <gpxtpx:hr>115</gpxtpx:hr>
          </gpxtpx:TrackPointExtension>
        </extensions>
      </trkpt>
      <trkpt lat="45.66745" lon="2.98249">
        <ele>857.79998779297</ele>
        <time>2024-05-26T11:52:06.000Z</time>
        <extensions>
          <gpxtpx:TrackPointExtension xmlns:gpxtpx="http://www.garmin.com/xmlschemas/TrackPointExtension/v1">
            <gpxtpx:hr>115</gpxtpx:hr>
          </gpxtpx:TrackPointExtension>
        </extensions>
      </trkpt>
      <trkpt lat="45.66746" lon="2.98271">
        <ele>857.40002441406</ele>
        <time>2024-05-26T11:52:09.000Z</time>
        <extensions>
          <gpxtpx:TrackPointExtension xmlns:gpxtpx="http://www.garmin.com/xmlschemas/TrackPointExtension/v1">
            <gpxtpx:hr>114</gpxtpx:hr>
          </gpxtpx:TrackPointExtension>
        </extensions>
      </trkpt>
      <trkpt lat="45.6675" lon="2.98327">
        <ele>857</ele>
        <time>2024-05-26T11:52:16.000Z</time>
        <extensions>
          <gpxtpx:TrackPointExtension xmlns:gpxtpx="http://www.garmin.com/xmlschemas/TrackPointExtension/v1">
            <gpxtpx:hr>114</gpxtpx:hr>
          </gpxtpx:TrackPointExtension>
        </extensions>
      </trkpt>
      <trkpt lat="45.66752" lon="2.98335">
        <ele>856.59997558594</ele>
        <time>2024-05-26T11:52:17.000Z</time>
        <extensions>
          <gpxtpx:TrackPointExtension xmlns:gpxtpx="http://www.garmin.com/xmlschemas/TrackPointExtension/v1">
            <gpxtpx:hr>114</gpxtpx:hr>
          </gpxtpx:TrackPointExtension>
        </extensions>
      </trkpt>
      <trkpt lat="45.66757" lon="2.98352">
        <ele>856.20001220703</ele>
        <time>2024-05-26T11:52:19.000Z</time>
        <extensions>
          <gpxtpx:TrackPointExtension xmlns:gpxtpx="http://www.garmin.com/xmlschemas/TrackPointExtension/v1">
            <gpxtpx:hr>114</gpxtpx:hr>
          </gpxtpx:TrackPointExtension>
        </extensions>
      </trkpt>
      <trkpt lat="45.66768" lon="2.98389">
        <ele>855.59997558594</ele>
        <time>2024-05-26T11:52:23.000Z</time>
        <extensions>
          <gpxtpx:TrackPointExtension xmlns:gpxtpx="http://www.garmin.com/xmlschemas/TrackPointExtension/v1">
            <gpxtpx:hr>113</gpxtpx:hr>
          </gpxtpx:TrackPointExtension>
        </extensions>
      </trkpt>
      <trkpt lat="45.66774" lon="2.98408">
        <ele>855.20001220703</ele>
        <time>2024-05-26T11:52:25.000Z</time>
        <extensions>
          <gpxtpx:TrackPointExtension xmlns:gpxtpx="http://www.garmin.com/xmlschemas/TrackPointExtension/v1">
            <gpxtpx:hr>112</gpxtpx:hr>
          </gpxtpx:TrackPointExtension>
        </extensions>
      </trkpt>
      <trkpt lat="45.66786" lon="2.98435">
        <ele>853.79998779297</ele>
        <time>2024-05-26T11:52:28.000Z</time>
        <extensions>
          <gpxtpx:TrackPointExtension xmlns:gpxtpx="http://www.garmin.com/xmlschemas/TrackPointExtension/v1">
            <gpxtpx:hr>111</gpxtpx:hr>
          </gpxtpx:TrackPointExtension>
        </extensions>
      </trkpt>
      <trkpt lat="45.6679" lon="2.98444">
        <ele>853.79998779297</ele>
        <time>2024-05-26T11:52:29.000Z</time>
        <extensions>
          <gpxtpx:TrackPointExtension xmlns:gpxtpx="http://www.garmin.com/xmlschemas/TrackPointExtension/v1">
            <gpxtpx:hr>110</gpxtpx:hr>
          </gpxtpx:TrackPointExtension>
        </extensions>
      </trkpt>
      <trkpt lat="45.66807" lon="2.98471">
        <ele>852.40002441406</ele>
        <time>2024-05-26T11:52:32.000Z</time>
        <extensions>
          <gpxtpx:TrackPointExtension xmlns:gpxtpx="http://www.garmin.com/xmlschemas/TrackPointExtension/v1">
            <gpxtpx:hr>109</gpxtpx:hr>
          </gpxtpx:TrackPointExtension>
        </extensions>
      </trkpt>
      <trkpt lat="45.66819" lon="2.98488">
        <ele>852</ele>
        <time>2024-05-26T11:52:34.000Z</time>
        <extensions>
          <gpxtpx:TrackPointExtension xmlns:gpxtpx="http://www.garmin.com/xmlschemas/TrackPointExtension/v1">
            <gpxtpx:hr>107</gpxtpx:hr>
          </gpxtpx:TrackPointExtension>
        </extensions>
      </trkpt>
      <trkpt lat="45.66832" lon="2.98506">
        <ele>850.20001220703</ele>
        <time>2024-05-26T11:52:36.000Z</time>
        <extensions>
          <gpxtpx:TrackPointExtension xmlns:gpxtpx="http://www.garmin.com/xmlschemas/TrackPointExtension/v1">
            <gpxtpx:hr>107</gpxtpx:hr>
          </gpxtpx:TrackPointExtension>
        </extensions>
      </trkpt>
      <trkpt lat="45.66852" lon="2.98533">
        <ele>848.79998779297</ele>
        <time>2024-05-26T11:52:39.000Z</time>
        <extensions>
          <gpxtpx:TrackPointExtension xmlns:gpxtpx="http://www.garmin.com/xmlschemas/TrackPointExtension/v1">
            <gpxtpx:hr>106</gpxtpx:hr>
          </gpxtpx:TrackPointExtension>
        </extensions>
      </trkpt>
      <trkpt lat="45.66865" lon="2.98552">
        <ele>848.40002441406</ele>
        <time>2024-05-26T11:52:41.000Z</time>
        <extensions>
          <gpxtpx:TrackPointExtension xmlns:gpxtpx="http://www.garmin.com/xmlschemas/TrackPointExtension/v1">
            <gpxtpx:hr>106</gpxtpx:hr>
          </gpxtpx:TrackPointExtension>
        </extensions>
      </trkpt>
      <trkpt lat="45.66871" lon="2.98561">
        <ele>847.40002441406</ele>
        <time>2024-05-26T11:52:42.000Z</time>
        <extensions>
          <gpxtpx:TrackPointExtension xmlns:gpxtpx="http://www.garmin.com/xmlschemas/TrackPointExtension/v1">
            <gpxtpx:hr>106</gpxtpx:hr>
          </gpxtpx:TrackPointExtension>
        </extensions>
      </trkpt>
      <trkpt lat="45.66903" lon="2.98608">
        <ele>846.40002441406</ele>
        <time>2024-05-26T11:52:47.000Z</time>
        <extensions>
          <gpxtpx:TrackPointExtension xmlns:gpxtpx="http://www.garmin.com/xmlschemas/TrackPointExtension/v1">
            <gpxtpx:hr>105</gpxtpx:hr>
          </gpxtpx:TrackPointExtension>
        </extensions>
      </trkpt>
      <trkpt lat="45.66937" lon="2.98663">
        <ele>845.59997558594</ele>
        <time>2024-05-26T11:52:53.000Z</time>
        <extensions>
          <gpxtpx:TrackPointExtension xmlns:gpxtpx="http://www.garmin.com/xmlschemas/TrackPointExtension/v1">
            <gpxtpx:hr>108</gpxtpx:hr>
          </gpxtpx:TrackPointExtension>
        </extensions>
      </trkpt>
      <trkpt lat="45.66955" lon="2.98697">
        <ele>845.20001220703</ele>
        <time>2024-05-26T11:52:57.000Z</time>
        <extensions>
          <gpxtpx:TrackPointExtension xmlns:gpxtpx="http://www.garmin.com/xmlschemas/TrackPointExtension/v1">
            <gpxtpx:hr>106</gpxtpx:hr>
          </gpxtpx:TrackPointExtension>
        </extensions>
      </trkpt>
      <trkpt lat="45.66965" lon="2.98712">
        <ele>845</ele>
        <time>2024-05-26T11:52:59.000Z</time>
        <extensions>
          <gpxtpx:TrackPointExtension xmlns:gpxtpx="http://www.garmin.com/xmlschemas/TrackPointExtension/v1">
            <gpxtpx:hr>105</gpxtpx:hr>
          </gpxtpx:TrackPointExtension>
        </extensions>
      </trkpt>
      <trkpt lat="45.67003" lon="2.98776">
        <ele>844.20001220703</ele>
        <time>2024-05-26T11:53:07.000Z</time>
        <extensions>
          <gpxtpx:TrackPointExtension xmlns:gpxtpx="http://www.garmin.com/xmlschemas/TrackPointExtension/v1">
            <gpxtpx:hr>107</gpxtpx:hr>
          </gpxtpx:TrackPointExtension>
        </extensions>
      </trkpt>
      <trkpt lat="45.6701" lon="2.98787">
        <ele>844.20001220703</ele>
        <time>2024-05-26T11:53:09.000Z</time>
        <extensions>
          <gpxtpx:TrackPointExtension xmlns:gpxtpx="http://www.garmin.com/xmlschemas/TrackPointExtension/v1">
            <gpxtpx:hr>107</gpxtpx:hr>
          </gpxtpx:TrackPointExtension>
        </extensions>
      </trkpt>
      <trkpt lat="45.67012" lon="2.98791">
        <ele>844</ele>
        <time>2024-05-26T11:53:10.000Z</time>
        <extensions>
          <gpxtpx:TrackPointExtension xmlns:gpxtpx="http://www.garmin.com/xmlschemas/TrackPointExtension/v1">
            <gpxtpx:hr>107</gpxtpx:hr>
          </gpxtpx:TrackPointExtension>
        </extensions>
      </trkpt>
      <trkpt lat="45.67014" lon="2.98804">
        <ele>843.59997558594</ele>
        <time>2024-05-26T11:53:14.000Z</time>
        <extensions>
          <gpxtpx:TrackPointExtension xmlns:gpxtpx="http://www.garmin.com/xmlschemas/TrackPointExtension/v1">
            <gpxtpx:hr>108</gpxtpx:hr>
          </gpxtpx:TrackPointExtension>
        </extensions>
      </trkpt>
      <trkpt lat="45.67012" lon="2.98828">
        <ele>843.40002441406</ele>
        <time>2024-05-26T11:53:19.000Z</time>
        <extensions>
          <gpxtpx:TrackPointExtension xmlns:gpxtpx="http://www.garmin.com/xmlschemas/TrackPointExtension/v1">
            <gpxtpx:hr>108</gpxtpx:hr>
          </gpxtpx:TrackPointExtension>
        </extensions>
      </trkpt>
      <trkpt lat="45.67012" lon="2.98838">
        <ele>842.40002441406</ele>
        <time>2024-05-26T11:53:21.000Z</time>
        <extensions>
          <gpxtpx:TrackPointExtension xmlns:gpxtpx="http://www.garmin.com/xmlschemas/TrackPointExtension/v1">
            <gpxtpx:hr>108</gpxtpx:hr>
          </gpxtpx:TrackPointExtension>
        </extensions>
      </trkpt>
      <trkpt lat="45.67007" lon="2.98868">
        <ele>841.79998779297</ele>
        <time>2024-05-26T11:53:26.000Z</time>
        <extensions>
          <gpxtpx:TrackPointExtension xmlns:gpxtpx="http://www.garmin.com/xmlschemas/TrackPointExtension/v1">
            <gpxtpx:hr>107</gpxtpx:hr>
          </gpxtpx:TrackPointExtension>
        </extensions>
      </trkpt>
      <trkpt lat="45.67002" lon="2.98882">
        <ele>841.40002441406</ele>
        <time>2024-05-26T11:53:28.000Z</time>
        <extensions>
          <gpxtpx:TrackPointExtension xmlns:gpxtpx="http://www.garmin.com/xmlschemas/TrackPointExtension/v1">
            <gpxtpx:hr>107</gpxtpx:hr>
          </gpxtpx:TrackPointExtension>
        </extensions>
      </trkpt>
      <trkpt lat="45.66994" lon="2.98894">
        <ele>841.40002441406</ele>
        <time>2024-05-26T11:53:30.000Z</time>
        <extensions>
          <gpxtpx:TrackPointExtension xmlns:gpxtpx="http://www.garmin.com/xmlschemas/TrackPointExtension/v1">
            <gpxtpx:hr>106</gpxtpx:hr>
          </gpxtpx:TrackPointExtension>
        </extensions>
      </trkpt>
      <trkpt lat="45.66976" lon="2.98924">
        <ele>843.20001220703</ele>
        <time>2024-05-26T11:53:35.000Z</time>
        <extensions>
          <gpxtpx:TrackPointExtension xmlns:gpxtpx="http://www.garmin.com/xmlschemas/TrackPointExtension/v1">
            <gpxtpx:hr>105</gpxtpx:hr>
          </gpxtpx:TrackPointExtension>
        </extensions>
      </trkpt>
      <trkpt lat="45.66974" lon="2.9893">
        <ele>843.79998779297</ele>
        <time>2024-05-26T11:53:36.000Z</time>
        <extensions>
          <gpxtpx:TrackPointExtension xmlns:gpxtpx="http://www.garmin.com/xmlschemas/TrackPointExtension/v1">
            <gpxtpx:hr>104</gpxtpx:hr>
          </gpxtpx:TrackPointExtension>
        </extensions>
      </trkpt>
      <trkpt lat="45.66971" lon="2.98936">
        <ele>844</ele>
        <time>2024-05-26T11:53:37.000Z</time>
        <extensions>
          <gpxtpx:TrackPointExtension xmlns:gpxtpx="http://www.garmin.com/xmlschemas/TrackPointExtension/v1">
            <gpxtpx:hr>105</gpxtpx:hr>
          </gpxtpx:TrackPointExtension>
        </extensions>
      </trkpt>
      <trkpt lat="45.66966" lon="2.98945">
        <ele>844.59997558594</ele>
        <time>2024-05-26T11:53:39.000Z</time>
        <extensions>
          <gpxtpx:TrackPointExtension xmlns:gpxtpx="http://www.garmin.com/xmlschemas/TrackPointExtension/v1">
            <gpxtpx:hr>105</gpxtpx:hr>
          </gpxtpx:TrackPointExtension>
        </extensions>
      </trkpt>
      <trkpt lat="45.66963" lon="2.98948">
        <ele>845</ele>
        <time>2024-05-26T11:53:40.000Z</time>
        <extensions>
          <gpxtpx:TrackPointExtension xmlns:gpxtpx="http://www.garmin.com/xmlschemas/TrackPointExtension/v1">
            <gpxtpx:hr>105</gpxtpx:hr>
          </gpxtpx:TrackPointExtension>
        </extensions>
      </trkpt>
      <trkpt lat="45.66959" lon="2.98949">
        <ele>845.20001220703</ele>
        <time>2024-05-26T11:53:41.000Z</time>
        <extensions>
          <gpxtpx:TrackPointExtension xmlns:gpxtpx="http://www.garmin.com/xmlschemas/TrackPointExtension/v1">
            <gpxtpx:hr>105</gpxtpx:hr>
          </gpxtpx:TrackPointExtension>
        </extensions>
      </trkpt>
      <trkpt lat="45.66944" lon="2.9894">
        <ele>845.79998779297</ele>
        <time>2024-05-26T11:53:45.000Z</time>
        <extensions>
          <gpxtpx:TrackPointExtension xmlns:gpxtpx="http://www.garmin.com/xmlschemas/TrackPointExtension/v1">
            <gpxtpx:hr>101</gpxtpx:hr>
          </gpxtpx:TrackPointExtension>
        </extensions>
      </trkpt>
      <trkpt lat="45.66936" lon="2.98935">
        <ele>845.59997558594</ele>
        <time>2024-05-26T11:53:47.000Z</time>
        <extensions>
          <gpxtpx:TrackPointExtension xmlns:gpxtpx="http://www.garmin.com/xmlschemas/TrackPointExtension/v1">
            <gpxtpx:hr>100</gpxtpx:hr>
          </gpxtpx:TrackPointExtension>
        </extensions>
      </trkpt>
      <trkpt lat="45.66926" lon="2.98935">
        <ele>845</ele>
        <time>2024-05-26T11:53:49.000Z</time>
        <extensions>
          <gpxtpx:TrackPointExtension xmlns:gpxtpx="http://www.garmin.com/xmlschemas/TrackPointExtension/v1">
            <gpxtpx:hr>99</gpxtpx:hr>
          </gpxtpx:TrackPointExtension>
        </extensions>
      </trkpt>
      <trkpt lat="45.66917" lon="2.98939">
        <ele>845</ele>
        <time>2024-05-26T11:53:51.000Z</time>
        <extensions>
          <gpxtpx:TrackPointExtension xmlns:gpxtpx="http://www.garmin.com/xmlschemas/TrackPointExtension/v1">
            <gpxtpx:hr>97</gpxtpx:hr>
          </gpxtpx:TrackPointExtension>
        </extensions>
      </trkpt>
      <trkpt lat="45.66909" lon="2.98947">
        <ele>844.79998779297</ele>
        <time>2024-05-26T11:53:53.000Z</time>
        <extensions>
          <gpxtpx:TrackPointExtension xmlns:gpxtpx="http://www.garmin.com/xmlschemas/TrackPointExtension/v1">
            <gpxtpx:hr>96</gpxtpx:hr>
          </gpxtpx:TrackPointExtension>
        </extensions>
      </trkpt>
      <trkpt lat="45.66897" lon="2.98963">
        <ele>844.59997558594</ele>
        <time>2024-05-26T11:53:56.000Z</time>
        <extensions>
          <gpxtpx:TrackPointExtension xmlns:gpxtpx="http://www.garmin.com/xmlschemas/TrackPointExtension/v1">
            <gpxtpx:hr>95</gpxtpx:hr>
          </gpxtpx:TrackPointExtension>
        </extensions>
      </trkpt>
      <trkpt lat="45.6689" lon="2.98977">
        <ele>844.59997558594</ele>
        <time>2024-05-26T11:53:58.000Z</time>
        <extensions>
          <gpxtpx:TrackPointExtension xmlns:gpxtpx="http://www.garmin.com/xmlschemas/TrackPointExtension/v1">
            <gpxtpx:hr>93</gpxtpx:hr>
          </gpxtpx:TrackPointExtension>
        </extensions>
      </trkpt>
      <trkpt lat="45.66882" lon="2.98993">
        <ele>844.79998779297</ele>
        <time>2024-05-26T11:54:00.000Z</time>
        <extensions>
          <gpxtpx:TrackPointExtension xmlns:gpxtpx="http://www.garmin.com/xmlschemas/TrackPointExtension/v1">
            <gpxtpx:hr>91</gpxtpx:hr>
          </gpxtpx:TrackPointExtension>
        </extensions>
      </trkpt>
      <trkpt lat="45.66872" lon="2.99009">
        <ele>845.20001220703</ele>
        <time>2024-05-26T11:54:02.000Z</time>
        <extensions>
          <gpxtpx:TrackPointExtension xmlns:gpxtpx="http://www.garmin.com/xmlschemas/TrackPointExtension/v1">
            <gpxtpx:hr>89</gpxtpx:hr>
          </gpxtpx:TrackPointExtension>
        </extensions>
      </trkpt>
      <trkpt lat="45.66863" lon="2.99025">
        <ele>845.40002441406</ele>
        <time>2024-05-26T11:54:04.000Z</time>
        <extensions>
          <gpxtpx:TrackPointExtension xmlns:gpxtpx="http://www.garmin.com/xmlschemas/TrackPointExtension/v1">
            <gpxtpx:hr>87</gpxtpx:hr>
          </gpxtpx:TrackPointExtension>
        </extensions>
      </trkpt>
      <trkpt lat="45.6685" lon="2.99039">
        <ele>845.40002441406</ele>
        <time>2024-05-26T11:54:06.000Z</time>
        <extensions>
          <gpxtpx:TrackPointExtension xmlns:gpxtpx="http://www.garmin.com/xmlschemas/TrackPointExtension/v1">
            <gpxtpx:hr>86</gpxtpx:hr>
          </gpxtpx:TrackPointExtension>
        </extensions>
      </trkpt>
      <trkpt lat="45.66832" lon="2.99064">
        <ele>845.20001220703</ele>
        <time>2024-05-26T11:54:09.000Z</time>
        <extensions>
          <gpxtpx:TrackPointExtension xmlns:gpxtpx="http://www.garmin.com/xmlschemas/TrackPointExtension/v1">
            <gpxtpx:hr>85</gpxtpx:hr>
          </gpxtpx:TrackPointExtension>
        </extensions>
      </trkpt>
      <trkpt lat="45.66821" lon="2.9908">
        <ele>844.79998779297</ele>
        <time>2024-05-26T11:54:11.000Z</time>
        <extensions>
          <gpxtpx:TrackPointExtension xmlns:gpxtpx="http://www.garmin.com/xmlschemas/TrackPointExtension/v1">
            <gpxtpx:hr>85</gpxtpx:hr>
          </gpxtpx:TrackPointExtension>
        </extensions>
      </trkpt>
      <trkpt lat="45.66815" lon="2.99088">
        <ele>844.59997558594</ele>
        <time>2024-05-26T11:54:12.000Z</time>
        <extensions>
          <gpxtpx:TrackPointExtension xmlns:gpxtpx="http://www.garmin.com/xmlschemas/TrackPointExtension/v1">
            <gpxtpx:hr>85</gpxtpx:hr>
          </gpxtpx:TrackPointExtension>
        </extensions>
      </trkpt>
      <trkpt lat="45.66795" lon="2.9911">
        <ele>844.40002441406</ele>
        <time>2024-05-26T11:54:15.000Z</time>
        <extensions>
          <gpxtpx:TrackPointExtension xmlns:gpxtpx="http://www.garmin.com/xmlschemas/TrackPointExtension/v1">
            <gpxtpx:hr>84</gpxtpx:hr>
          </gpxtpx:TrackPointExtension>
        </extensions>
      </trkpt>
      <trkpt lat="45.66766" lon="2.99143">
        <ele>845.79998779297</ele>
        <time>2024-05-26T11:54:20.000Z</time>
        <extensions>
          <gpxtpx:TrackPointExtension xmlns:gpxtpx="http://www.garmin.com/xmlschemas/TrackPointExtension/v1">
            <gpxtpx:hr>86</gpxtpx:hr>
          </gpxtpx:TrackPointExtension>
        </extensions>
      </trkpt>
      <trkpt lat="45.66761" lon="2.9915">
        <ele>846</ele>
        <time>2024-05-26T11:54:21.000Z</time>
        <extensions>
          <gpxtpx:TrackPointExtension xmlns:gpxtpx="http://www.garmin.com/xmlschemas/TrackPointExtension/v1">
            <gpxtpx:hr>87</gpxtpx:hr>
          </gpxtpx:TrackPointExtension>
        </extensions>
      </trkpt>
      <trkpt lat="45.66757" lon="2.99158">
        <ele>846.20001220703</ele>
        <time>2024-05-26T11:54:22.000Z</time>
        <extensions>
          <gpxtpx:TrackPointExtension xmlns:gpxtpx="http://www.garmin.com/xmlschemas/TrackPointExtension/v1">
            <gpxtpx:hr>88</gpxtpx:hr>
          </gpxtpx:TrackPointExtension>
        </extensions>
      </trkpt>
      <trkpt lat="45.6675" lon="2.99176">
        <ele>846.40002441406</ele>
        <time>2024-05-26T11:54:24.000Z</time>
        <extensions>
          <gpxtpx:TrackPointExtension xmlns:gpxtpx="http://www.garmin.com/xmlschemas/TrackPointExtension/v1">
            <gpxtpx:hr>89</gpxtpx:hr>
          </gpxtpx:TrackPointExtension>
        </extensions>
      </trkpt>
      <trkpt lat="45.66739" lon="2.99215">
        <ele>847</ele>
        <time>2024-05-26T11:54:28.000Z</time>
        <extensions>
          <gpxtpx:TrackPointExtension xmlns:gpxtpx="http://www.garmin.com/xmlschemas/TrackPointExtension/v1">
            <gpxtpx:hr>89</gpxtpx:hr>
          </gpxtpx:TrackPointExtension>
        </extensions>
      </trkpt>
      <trkpt lat="45.66733" lon="2.99233">
        <ele>847.20001220703</ele>
        <time>2024-05-26T11:54:30.000Z</time>
        <extensions>
          <gpxtpx:TrackPointExtension xmlns:gpxtpx="http://www.garmin.com/xmlschemas/TrackPointExtension/v1">
            <gpxtpx:hr>88</gpxtpx:hr>
          </gpxtpx:TrackPointExtension>
        </extensions>
      </trkpt>
      <trkpt lat="45.66724" lon="2.99247">
        <ele>847.20001220703</ele>
        <time>2024-05-26T11:54:32.000Z</time>
        <extensions>
          <gpxtpx:TrackPointExtension xmlns:gpxtpx="http://www.garmin.com/xmlschemas/TrackPointExtension/v1">
            <gpxtpx:hr>89</gpxtpx:hr>
          </gpxtpx:TrackPointExtension>
        </extensions>
      </trkpt>
      <trkpt lat="45.66707" lon="2.99265">
        <ele>847.40002441406</ele>
        <time>2024-05-26T11:54:35.000Z</time>
        <extensions>
          <gpxtpx:TrackPointExtension xmlns:gpxtpx="http://www.garmin.com/xmlschemas/TrackPointExtension/v1">
            <gpxtpx:hr>89</gpxtpx:hr>
          </gpxtpx:TrackPointExtension>
        </extensions>
      </trkpt>
      <trkpt lat="45.66694" lon="2.99277">
        <ele>847.59997558594</ele>
        <time>2024-05-26T11:54:37.000Z</time>
        <extensions>
          <gpxtpx:TrackPointExtension xmlns:gpxtpx="http://www.garmin.com/xmlschemas/TrackPointExtension/v1">
            <gpxtpx:hr>89</gpxtpx:hr>
          </gpxtpx:TrackPointExtension>
        </extensions>
      </trkpt>
      <trkpt lat="45.66689" lon="2.99282">
        <ele>847.79998779297</ele>
        <time>2024-05-26T11:54:38.000Z</time>
        <extensions>
          <gpxtpx:TrackPointExtension xmlns:gpxtpx="http://www.garmin.com/xmlschemas/TrackPointExtension/v1">
            <gpxtpx:hr>90</gpxtpx:hr>
          </gpxtpx:TrackPointExtension>
        </extensions>
      </trkpt>
      <trkpt lat="45.66684" lon="2.99289">
        <ele>847.79998779297</ele>
        <time>2024-05-26T11:54:39.000Z</time>
        <extensions>
          <gpxtpx:TrackPointExtension xmlns:gpxtpx="http://www.garmin.com/xmlschemas/TrackPointExtension/v1">
            <gpxtpx:hr>91</gpxtpx:hr>
          </gpxtpx:TrackPointExtension>
        </extensions>
      </trkpt>
      <trkpt lat="45.66678" lon="2.99304">
        <ele>848.40002441406</ele>
        <time>2024-05-26T11:54:41.000Z</time>
        <extensions>
          <gpxtpx:TrackPointExtension xmlns:gpxtpx="http://www.garmin.com/xmlschemas/TrackPointExtension/v1">
            <gpxtpx:hr>92</gpxtpx:hr>
          </gpxtpx:TrackPointExtension>
        </extensions>
      </trkpt>
      <trkpt lat="45.66677" lon="2.99329">
        <ele>849.20001220703</ele>
        <time>2024-05-26T11:54:44.000Z</time>
        <extensions>
          <gpxtpx:TrackPointExtension xmlns:gpxtpx="http://www.garmin.com/xmlschemas/TrackPointExtension/v1">
            <gpxtpx:hr>94</gpxtpx:hr>
          </gpxtpx:TrackPointExtension>
        </extensions>
      </trkpt>
      <trkpt lat="45.66675" lon="2.99337">
        <ele>849.20001220703</ele>
        <time>2024-05-26T11:54:45.000Z</time>
        <extensions>
          <gpxtpx:TrackPointExtension xmlns:gpxtpx="http://www.garmin.com/xmlschemas/TrackPointExtension/v1">
            <gpxtpx:hr>95</gpxtpx:hr>
          </gpxtpx:TrackPointExtension>
        </extensions>
      </trkpt>
      <trkpt lat="45.66675" lon="2.99346">
        <ele>849.40002441406</ele>
        <time>2024-05-26T11:54:46.000Z</time>
        <extensions>
          <gpxtpx:TrackPointExtension xmlns:gpxtpx="http://www.garmin.com/xmlschemas/TrackPointExtension/v1">
            <gpxtpx:hr>96</gpxtpx:hr>
          </gpxtpx:TrackPointExtension>
        </extensions>
      </trkpt>
      <trkpt lat="45.66675" lon="2.99355">
        <ele>849.40002441406</ele>
        <time>2024-05-26T11:54:47.000Z</time>
        <extensions>
          <gpxtpx:TrackPointExtension xmlns:gpxtpx="http://www.garmin.com/xmlschemas/TrackPointExtension/v1">
            <gpxtpx:hr>96</gpxtpx:hr>
          </gpxtpx:TrackPointExtension>
        </extensions>
      </trkpt>
      <trkpt lat="45.66677" lon="2.99374">
        <ele>849.20001220703</ele>
        <time>2024-05-26T11:54:49.000Z</time>
        <extensions>
          <gpxtpx:TrackPointExtension xmlns:gpxtpx="http://www.garmin.com/xmlschemas/TrackPointExtension/v1">
            <gpxtpx:hr>98</gpxtpx:hr>
          </gpxtpx:TrackPointExtension>
        </extensions>
      </trkpt>
      <trkpt lat="45.66679" lon="2.9939">
        <ele>849</ele>
        <time>2024-05-26T11:54:51.000Z</time>
        <extensions>
          <gpxtpx:TrackPointExtension xmlns:gpxtpx="http://www.garmin.com/xmlschemas/TrackPointExtension/v1">
            <gpxtpx:hr>98</gpxtpx:hr>
          </gpxtpx:TrackPointExtension>
        </extensions>
      </trkpt>
      <trkpt lat="45.66684" lon="2.994">
        <ele>849</ele>
        <time>2024-05-26T11:54:53.000Z</time>
        <extensions>
          <gpxtpx:TrackPointExtension xmlns:gpxtpx="http://www.garmin.com/xmlschemas/TrackPointExtension/v1">
            <gpxtpx:hr>97</gpxtpx:hr>
          </gpxtpx:TrackPointExtension>
        </extensions>
      </trkpt>
      <trkpt lat="45.66686" lon="2.99406">
        <ele>849</ele>
        <time>2024-05-26T11:54:55.000Z</time>
        <extensions>
          <gpxtpx:TrackPointExtension xmlns:gpxtpx="http://www.garmin.com/xmlschemas/TrackPointExtension/v1">
            <gpxtpx:hr>97</gpxtpx:hr>
          </gpxtpx:TrackPointExtension>
        </extensions>
      </trkpt>
      <trkpt lat="45.66686" lon="2.99406">
        <ele>849.20001220703</ele>
        <time>2024-05-26T11:54:56.000Z</time>
        <extensions>
          <gpxtpx:TrackPointExtension xmlns:gpxtpx="http://www.garmin.com/xmlschemas/TrackPointExtension/v1">
            <gpxtpx:hr>96</gpxtpx:hr>
          </gpxtpx:TrackPointExtension>
        </extensions>
      </trkpt>
      <trkpt lat="45.66683" lon="2.99406">
        <ele>849.20001220703</ele>
        <time>2024-05-26T11:55:00.000Z</time>
        <extensions>
          <gpxtpx:TrackPointExtension xmlns:gpxtpx="http://www.garmin.com/xmlschemas/TrackPointExtension/v1">
            <gpxtpx:hr>96</gpxtpx:hr>
          </gpxtpx:TrackPointExtension>
        </extensions>
      </trkpt>
      <trkpt lat="45.66683" lon="2.99405">
        <ele>849.20001220703</ele>
        <time>2024-05-26T11:55:01.000Z</time>
        <extensions>
          <gpxtpx:TrackPointExtension xmlns:gpxtpx="http://www.garmin.com/xmlschemas/TrackPointExtension/v1">
            <gpxtpx:hr>96</gpxtpx:hr>
          </gpxtpx:TrackPointExtension>
        </extensions>
      </trkpt>
      <trkpt lat="45.66682" lon="2.99405">
        <ele>849.20001220703</ele>
        <time>2024-05-26T11:55:06.000Z</time>
        <extensions>
          <gpxtpx:TrackPointExtension xmlns:gpxtpx="http://www.garmin.com/xmlschemas/TrackPointExtension/v1">
            <gpxtpx:hr>96</gpxtpx:hr>
          </gpxtpx:TrackPointExtension>
        </extensions>
      </trkpt>
      <trkpt lat="45.66682" lon="2.99405">
        <ele>849</ele>
        <time>2024-05-26T11:55:12.000Z</time>
        <extensions>
          <gpxtpx:TrackPointExtension xmlns:gpxtpx="http://www.garmin.com/xmlschemas/TrackPointExtension/v1">
            <gpxtpx:hr>99</gpxtpx:hr>
          </gpxtpx:TrackPointExtension>
        </extensions>
      </trkpt>
      <trkpt lat="45.66682" lon="2.99407">
        <ele>849</ele>
        <time>2024-05-26T11:55:16.000Z</time>
        <extensions>
          <gpxtpx:TrackPointExtension xmlns:gpxtpx="http://www.garmin.com/xmlschemas/TrackPointExtension/v1">
            <gpxtpx:hr>102</gpxtpx:hr>
          </gpxtpx:TrackPointExtension>
        </extensions>
      </trkpt>
      <trkpt lat="45.66685" lon="2.99408">
        <ele>849</ele>
        <time>2024-05-26T11:55:17.000Z</time>
        <extensions>
          <gpxtpx:TrackPointExtension xmlns:gpxtpx="http://www.garmin.com/xmlschemas/TrackPointExtension/v1">
            <gpxtpx:hr>102</gpxtpx:hr>
          </gpxtpx:TrackPointExtension>
        </extensions>
      </trkpt>
      <trkpt lat="45.66687" lon="2.9941">
        <ele>849.20001220703</ele>
        <time>2024-05-26T11:55:18.000Z</time>
        <extensions>
          <gpxtpx:TrackPointExtension xmlns:gpxtpx="http://www.garmin.com/xmlschemas/TrackPointExtension/v1">
            <gpxtpx:hr>102</gpxtpx:hr>
          </gpxtpx:TrackPointExtension>
        </extensions>
      </trkpt>
      <trkpt lat="45.66697" lon="2.99418">
        <ele>849.40002441406</ele>
        <time>2024-05-26T11:55:21.000Z</time>
        <extensions>
          <gpxtpx:TrackPointExtension xmlns:gpxtpx="http://www.garmin.com/xmlschemas/TrackPointExtension/v1">
            <gpxtpx:hr>102</gpxtpx:hr>
          </gpxtpx:TrackPointExtension>
        </extensions>
      </trkpt>
      <trkpt lat="45.66699" lon="2.99424">
        <ele>849.59997558594</ele>
        <time>2024-05-26T11:55:22.000Z</time>
        <extensions>
          <gpxtpx:TrackPointExtension xmlns:gpxtpx="http://www.garmin.com/xmlschemas/TrackPointExtension/v1">
            <gpxtpx:hr>103</gpxtpx:hr>
          </gpxtpx:TrackPointExtension>
        </extensions>
      </trkpt>
      <trkpt lat="45.6672" lon="2.99451">
        <ele>850.20001220703</ele>
        <time>2024-05-26T11:55:27.000Z</time>
        <extensions>
          <gpxtpx:TrackPointExtension xmlns:gpxtpx="http://www.garmin.com/xmlschemas/TrackPointExtension/v1">
            <gpxtpx:hr>102</gpxtpx:hr>
          </gpxtpx:TrackPointExtension>
        </extensions>
      </trkpt>
      <trkpt lat="45.66724" lon="2.99457">
        <ele>850.20001220703</ele>
        <time>2024-05-26T11:55:28.000Z</time>
        <extensions>
          <gpxtpx:TrackPointExtension xmlns:gpxtpx="http://www.garmin.com/xmlschemas/TrackPointExtension/v1">
            <gpxtpx:hr>102</gpxtpx:hr>
          </gpxtpx:TrackPointExtension>
        </extensions>
      </trkpt>
      <trkpt lat="45.66732" lon="2.99468">
        <ele>850</ele>
        <time>2024-05-26T11:55:30.000Z</time>
        <extensions>
          <gpxtpx:TrackPointExtension xmlns:gpxtpx="http://www.garmin.com/xmlschemas/TrackPointExtension/v1">
            <gpxtpx:hr>102</gpxtpx:hr>
          </gpxtpx:TrackPointExtension>
        </extensions>
      </trkpt>
      <trkpt lat="45.6674" lon="2.99478">
        <ele>850</ele>
        <time>2024-05-26T11:55:32.000Z</time>
        <extensions>
          <gpxtpx:TrackPointExtension xmlns:gpxtpx="http://www.garmin.com/xmlschemas/TrackPointExtension/v1">
            <gpxtpx:hr>103</gpxtpx:hr>
          </gpxtpx:TrackPointExtension>
        </extensions>
      </trkpt>
      <trkpt lat="45.66755" lon="2.99501">
        <ele>850.20001220703</ele>
        <time>2024-05-26T11:55:36.000Z</time>
        <extensions>
          <gpxtpx:TrackPointExtension xmlns:gpxtpx="http://www.garmin.com/xmlschemas/TrackPointExtension/v1">
            <gpxtpx:hr>104</gpxtpx:hr>
          </gpxtpx:TrackPointExtension>
        </extensions>
      </trkpt>
      <trkpt lat="45.66778" lon="2.99533">
        <ele>849.59997558594</ele>
        <time>2024-05-26T11:55:41.000Z</time>
        <extensions>
          <gpxtpx:TrackPointExtension xmlns:gpxtpx="http://www.garmin.com/xmlschemas/TrackPointExtension/v1">
            <gpxtpx:hr>104</gpxtpx:hr>
          </gpxtpx:TrackPointExtension>
        </extensions>
      </trkpt>
      <trkpt lat="45.66787" lon="2.99548">
        <ele>849.20001220703</ele>
        <time>2024-05-26T11:55:43.000Z</time>
        <extensions>
          <gpxtpx:TrackPointExtension xmlns:gpxtpx="http://www.garmin.com/xmlschemas/TrackPointExtension/v1">
            <gpxtpx:hr>104</gpxtpx:hr>
          </gpxtpx:TrackPointExtension>
        </extensions>
      </trkpt>
      <trkpt lat="45.66793" lon="2.99555">
        <ele>849.20001220703</ele>
        <time>2024-05-26T11:55:44.000Z</time>
        <extensions>
          <gpxtpx:TrackPointExtension xmlns:gpxtpx="http://www.garmin.com/xmlschemas/TrackPointExtension/v1">
            <gpxtpx:hr>104</gpxtpx:hr>
          </gpxtpx:TrackPointExtension>
        </extensions>
      </trkpt>
      <trkpt lat="45.66798" lon="2.99566">
        <ele>848.79998779297</ele>
        <time>2024-05-26T11:55:45.000Z</time>
        <extensions>
          <gpxtpx:TrackPointExtension xmlns:gpxtpx="http://www.garmin.com/xmlschemas/TrackPointExtension/v1">
            <gpxtpx:hr>104</gpxtpx:hr>
          </gpxtpx:TrackPointExtension>
        </extensions>
      </trkpt>
      <trkpt lat="45.66802" lon="2.99576">
        <ele>848.20001220703</ele>
        <time>2024-05-26T11:55:46.000Z</time>
        <extensions>
          <gpxtpx:TrackPointExtension xmlns:gpxtpx="http://www.garmin.com/xmlschemas/TrackPointExtension/v1">
            <gpxtpx:hr>104</gpxtpx:hr>
          </gpxtpx:TrackPointExtension>
        </extensions>
      </trkpt>
      <trkpt lat="45.66804" lon="2.99586">
        <ele>848</ele>
        <time>2024-05-26T11:55:47.000Z</time>
        <extensions>
          <gpxtpx:TrackPointExtension xmlns:gpxtpx="http://www.garmin.com/xmlschemas/TrackPointExtension/v1">
            <gpxtpx:hr>104</gpxtpx:hr>
          </gpxtpx:TrackPointExtension>
        </extensions>
      </trkpt>
      <trkpt lat="45.66816" lon="2.99625">
        <ele>847.59997558594</ele>
        <time>2024-05-26T11:55:51.000Z</time>
        <extensions>
          <gpxtpx:TrackPointExtension xmlns:gpxtpx="http://www.garmin.com/xmlschemas/TrackPointExtension/v1">
            <gpxtpx:hr>103</gpxtpx:hr>
          </gpxtpx:TrackPointExtension>
        </extensions>
      </trkpt>
      <trkpt lat="45.66821" lon="2.99632">
        <ele>847.20001220703</ele>
        <time>2024-05-26T11:55:52.000Z</time>
        <extensions>
          <gpxtpx:TrackPointExtension xmlns:gpxtpx="http://www.garmin.com/xmlschemas/TrackPointExtension/v1">
            <gpxtpx:hr>104</gpxtpx:hr>
          </gpxtpx:TrackPointExtension>
        </extensions>
      </trkpt>
      <trkpt lat="45.66824" lon="2.99642">
        <ele>846.79998779297</ele>
        <time>2024-05-26T11:55:53.000Z</time>
        <extensions>
          <gpxtpx:TrackPointExtension xmlns:gpxtpx="http://www.garmin.com/xmlschemas/TrackPointExtension/v1">
            <gpxtpx:hr>103</gpxtpx:hr>
          </gpxtpx:TrackPointExtension>
        </extensions>
      </trkpt>
      <trkpt lat="45.66832" lon="2.9966">
        <ele>846</ele>
        <time>2024-05-26T11:55:55.000Z</time>
        <extensions>
          <gpxtpx:TrackPointExtension xmlns:gpxtpx="http://www.garmin.com/xmlschemas/TrackPointExtension/v1">
            <gpxtpx:hr>102</gpxtpx:hr>
          </gpxtpx:TrackPointExtension>
        </extensions>
      </trkpt>
      <trkpt lat="45.66836" lon="2.99669">
        <ele>846</ele>
        <time>2024-05-26T11:55:56.000Z</time>
        <extensions>
          <gpxtpx:TrackPointExtension xmlns:gpxtpx="http://www.garmin.com/xmlschemas/TrackPointExtension/v1">
            <gpxtpx:hr>101</gpxtpx:hr>
          </gpxtpx:TrackPointExtension>
        </extensions>
      </trkpt>
      <trkpt lat="45.66839" lon="2.99676">
        <ele>844.20001220703</ele>
        <time>2024-05-26T11:55:57.000Z</time>
        <extensions>
          <gpxtpx:TrackPointExtension xmlns:gpxtpx="http://www.garmin.com/xmlschemas/TrackPointExtension/v1">
            <gpxtpx:hr>100</gpxtpx:hr>
          </gpxtpx:TrackPointExtension>
        </extensions>
      </trkpt>
      <trkpt lat="45.66855" lon="2.99702">
        <ele>843.20001220703</ele>
        <time>2024-05-26T11:56:00.000Z</time>
        <extensions>
          <gpxtpx:TrackPointExtension xmlns:gpxtpx="http://www.garmin.com/xmlschemas/TrackPointExtension/v1">
            <gpxtpx:hr>101</gpxtpx:hr>
          </gpxtpx:TrackPointExtension>
        </extensions>
      </trkpt>
      <trkpt lat="45.66861" lon="2.99711">
        <ele>842.79998779297</ele>
        <time>2024-05-26T11:56:01.000Z</time>
        <extensions>
          <gpxtpx:TrackPointExtension xmlns:gpxtpx="http://www.garmin.com/xmlschemas/TrackPointExtension/v1">
            <gpxtpx:hr>103</gpxtpx:hr>
          </gpxtpx:TrackPointExtension>
        </extensions>
      </trkpt>
      <trkpt lat="45.6688" lon="2.99738">
        <ele>841.59997558594</ele>
        <time>2024-05-26T11:56:04.000Z</time>
        <extensions>
          <gpxtpx:TrackPointExtension xmlns:gpxtpx="http://www.garmin.com/xmlschemas/TrackPointExtension/v1">
            <gpxtpx:hr>103</gpxtpx:hr>
          </gpxtpx:TrackPointExtension>
        </extensions>
      </trkpt>
      <trkpt lat="45.66885" lon="2.99748">
        <ele>840.79998779297</ele>
        <time>2024-05-26T11:56:05.000Z</time>
        <extensions>
          <gpxtpx:TrackPointExtension xmlns:gpxtpx="http://www.garmin.com/xmlschemas/TrackPointExtension/v1">
            <gpxtpx:hr>103</gpxtpx:hr>
          </gpxtpx:TrackPointExtension>
        </extensions>
      </trkpt>
      <trkpt lat="45.66889" lon="2.9976">
        <ele>839.59997558594</ele>
        <time>2024-05-26T11:56:06.000Z</time>
        <extensions>
          <gpxtpx:TrackPointExtension xmlns:gpxtpx="http://www.garmin.com/xmlschemas/TrackPointExtension/v1">
            <gpxtpx:hr>101</gpxtpx:hr>
          </gpxtpx:TrackPointExtension>
        </extensions>
      </trkpt>
      <trkpt lat="45.66893" lon="2.99771">
        <ele>839.40002441406</ele>
        <time>2024-05-26T11:56:07.000Z</time>
        <extensions>
          <gpxtpx:TrackPointExtension xmlns:gpxtpx="http://www.garmin.com/xmlschemas/TrackPointExtension/v1">
            <gpxtpx:hr>104</gpxtpx:hr>
          </gpxtpx:TrackPointExtension>
        </extensions>
      </trkpt>
      <trkpt lat="45.66898" lon="2.99794">
        <ele>839.40002441406</ele>
        <time>2024-05-26T11:56:09.000Z</time>
        <extensions>
          <gpxtpx:TrackPointExtension xmlns:gpxtpx="http://www.garmin.com/xmlschemas/TrackPointExtension/v1">
            <gpxtpx:hr>104</gpxtpx:hr>
          </gpxtpx:TrackPointExtension>
        </extensions>
      </trkpt>
      <trkpt lat="45.66906" lon="2.99846">
        <ele>840.20001220703</ele>
        <time>2024-05-26T11:56:14.000Z</time>
        <extensions>
          <gpxtpx:TrackPointExtension xmlns:gpxtpx="http://www.garmin.com/xmlschemas/TrackPointExtension/v1">
            <gpxtpx:hr>101</gpxtpx:hr>
          </gpxtpx:TrackPointExtension>
        </extensions>
      </trkpt>
      <trkpt lat="45.66908" lon="2.99863">
        <ele>840.40002441406</ele>
        <time>2024-05-26T11:56:17.000Z</time>
        <extensions>
          <gpxtpx:TrackPointExtension xmlns:gpxtpx="http://www.garmin.com/xmlschemas/TrackPointExtension/v1">
            <gpxtpx:hr>99</gpxtpx:hr>
          </gpxtpx:TrackPointExtension>
        </extensions>
      </trkpt>
      <trkpt lat="45.66905" lon="2.99889">
        <ele>840.40002441406</ele>
        <time>2024-05-26T11:56:22.000Z</time>
        <extensions>
          <gpxtpx:TrackPointExtension xmlns:gpxtpx="http://www.garmin.com/xmlschemas/TrackPointExtension/v1">
            <gpxtpx:hr>98</gpxtpx:hr>
          </gpxtpx:TrackPointExtension>
        </extensions>
      </trkpt>
      <trkpt lat="45.66906" lon="2.99896">
        <ele>840.40002441406</ele>
        <time>2024-05-26T11:56:23.000Z</time>
        <extensions>
          <gpxtpx:TrackPointExtension xmlns:gpxtpx="http://www.garmin.com/xmlschemas/TrackPointExtension/v1">
            <gpxtpx:hr>97</gpxtpx:hr>
          </gpxtpx:TrackPointExtension>
        </extensions>
      </trkpt>
      <trkpt lat="45.66908" lon="2.99909">
        <ele>840.40002441406</ele>
        <time>2024-05-26T11:56:25.000Z</time>
        <extensions>
          <gpxtpx:TrackPointExtension xmlns:gpxtpx="http://www.garmin.com/xmlschemas/TrackPointExtension/v1">
            <gpxtpx:hr>97</gpxtpx:hr>
          </gpxtpx:TrackPointExtension>
        </extensions>
      </trkpt>
      <trkpt lat="45.66906" lon="2.99915">
        <ele>840.20001220703</ele>
        <time>2024-05-26T11:56:26.000Z</time>
        <extensions>
          <gpxtpx:TrackPointExtension xmlns:gpxtpx="http://www.garmin.com/xmlschemas/TrackPointExtension/v1">
            <gpxtpx:hr>96</gpxtpx:hr>
          </gpxtpx:TrackPointExtension>
        </extensions>
      </trkpt>
      <trkpt lat="45.66903" lon="2.99921">
        <ele>840.20001220703</ele>
        <time>2024-05-26T11:56:27.000Z</time>
        <extensions>
          <gpxtpx:TrackPointExtension xmlns:gpxtpx="http://www.garmin.com/xmlschemas/TrackPointExtension/v1">
            <gpxtpx:hr>96</gpxtpx:hr>
          </gpxtpx:TrackPointExtension>
        </extensions>
      </trkpt>
      <trkpt lat="45.66892" lon="2.99928">
        <ele>839.59997558594</ele>
        <time>2024-05-26T11:56:29.000Z</time>
        <extensions>
          <gpxtpx:TrackPointExtension xmlns:gpxtpx="http://www.garmin.com/xmlschemas/TrackPointExtension/v1">
            <gpxtpx:hr>96</gpxtpx:hr>
          </gpxtpx:TrackPointExtension>
        </extensions>
      </trkpt>
      <trkpt lat="45.66872" lon="2.99935">
        <ele>838</ele>
        <time>2024-05-26T11:56:32.000Z</time>
        <extensions>
          <gpxtpx:TrackPointExtension xmlns:gpxtpx="http://www.garmin.com/xmlschemas/TrackPointExtension/v1">
            <gpxtpx:hr>96</gpxtpx:hr>
          </gpxtpx:TrackPointExtension>
        </extensions>
      </trkpt>
      <trkpt lat="45.66857" lon="2.9994">
        <ele>837.59997558594</ele>
        <time>2024-05-26T11:56:34.000Z</time>
        <extensions>
          <gpxtpx:TrackPointExtension xmlns:gpxtpx="http://www.garmin.com/xmlschemas/TrackPointExtension/v1">
            <gpxtpx:hr>95</gpxtpx:hr>
          </gpxtpx:TrackPointExtension>
        </extensions>
      </trkpt>
      <trkpt lat="45.66812" lon="2.99951">
        <ele>837.20001220703</ele>
        <time>2024-05-26T11:56:40.000Z</time>
        <extensions>
          <gpxtpx:TrackPointExtension xmlns:gpxtpx="http://www.garmin.com/xmlschemas/TrackPointExtension/v1">
            <gpxtpx:hr>93</gpxtpx:hr>
          </gpxtpx:TrackPointExtension>
        </extensions>
      </trkpt>
      <trkpt lat="45.668" lon="2.99957">
        <ele>837.20001220703</ele>
        <time>2024-05-26T11:56:42.000Z</time>
        <extensions>
          <gpxtpx:TrackPointExtension xmlns:gpxtpx="http://www.garmin.com/xmlschemas/TrackPointExtension/v1">
            <gpxtpx:hr>93</gpxtpx:hr>
          </gpxtpx:TrackPointExtension>
        </extensions>
      </trkpt>
      <trkpt lat="45.66792" lon="2.99969">
        <ele>837.20001220703</ele>
        <time>2024-05-26T11:56:44.000Z</time>
        <extensions>
          <gpxtpx:TrackPointExtension xmlns:gpxtpx="http://www.garmin.com/xmlschemas/TrackPointExtension/v1">
            <gpxtpx:hr>93</gpxtpx:hr>
          </gpxtpx:TrackPointExtension>
        </extensions>
      </trkpt>
      <trkpt lat="45.66794" lon="2.99984">
        <ele>837</ele>
        <time>2024-05-26T11:56:46.000Z</time>
        <extensions>
          <gpxtpx:TrackPointExtension xmlns:gpxtpx="http://www.garmin.com/xmlschemas/TrackPointExtension/v1">
            <gpxtpx:hr>92</gpxtpx:hr>
          </gpxtpx:TrackPointExtension>
        </extensions>
      </trkpt>
      <trkpt lat="45.66797" lon="2.99992">
        <ele>837</ele>
        <time>2024-05-26T11:56:47.000Z</time>
        <extensions>
          <gpxtpx:TrackPointExtension xmlns:gpxtpx="http://www.garmin.com/xmlschemas/TrackPointExtension/v1">
            <gpxtpx:hr>92</gpxtpx:hr>
          </gpxtpx:TrackPointExtension>
        </extensions>
      </trkpt>
      <trkpt lat="45.66807" lon="3.00018">
        <ele>835.59997558594</ele>
        <time>2024-05-26T11:56:50.000Z</time>
        <extensions>
          <gpxtpx:TrackPointExtension xmlns:gpxtpx="http://www.garmin.com/xmlschemas/TrackPointExtension/v1">
            <gpxtpx:hr>93</gpxtpx:hr>
          </gpxtpx:TrackPointExtension>
        </extensions>
      </trkpt>
      <trkpt lat="45.66806" lon="3.00039">
        <ele>833.59997558594</ele>
        <time>2024-05-26T11:56:52.000Z</time>
        <extensions>
          <gpxtpx:TrackPointExtension xmlns:gpxtpx="http://www.garmin.com/xmlschemas/TrackPointExtension/v1">
            <gpxtpx:hr>93</gpxtpx:hr>
          </gpxtpx:TrackPointExtension>
        </extensions>
      </trkpt>
      <trkpt lat="45.66806" lon="3.0005">
        <ele>832.59997558594</ele>
        <time>2024-05-26T11:56:53.000Z</time>
        <extensions>
          <gpxtpx:TrackPointExtension xmlns:gpxtpx="http://www.garmin.com/xmlschemas/TrackPointExtension/v1">
            <gpxtpx:hr>93</gpxtpx:hr>
          </gpxtpx:TrackPointExtension>
        </extensions>
      </trkpt>
      <trkpt lat="45.66806" lon="3.00061">
        <ele>832.20001220703</ele>
        <time>2024-05-26T11:56:54.000Z</time>
        <extensions>
          <gpxtpx:TrackPointExtension xmlns:gpxtpx="http://www.garmin.com/xmlschemas/TrackPointExtension/v1">
            <gpxtpx:hr>92</gpxtpx:hr>
          </gpxtpx:TrackPointExtension>
        </extensions>
      </trkpt>
      <trkpt lat="45.66808" lon="3.00072">
        <ele>832</ele>
        <time>2024-05-26T11:56:55.000Z</time>
        <extensions>
          <gpxtpx:TrackPointExtension xmlns:gpxtpx="http://www.garmin.com/xmlschemas/TrackPointExtension/v1">
            <gpxtpx:hr>93</gpxtpx:hr>
          </gpxtpx:TrackPointExtension>
        </extensions>
      </trkpt>
      <trkpt lat="45.66811" lon="3.00083">
        <ele>830.59997558594</ele>
        <time>2024-05-26T11:56:56.000Z</time>
        <extensions>
          <gpxtpx:TrackPointExtension xmlns:gpxtpx="http://www.garmin.com/xmlschemas/TrackPointExtension/v1">
            <gpxtpx:hr>93</gpxtpx:hr>
          </gpxtpx:TrackPointExtension>
        </extensions>
      </trkpt>
      <trkpt lat="45.66814" lon="3.00094">
        <ele>830</ele>
        <time>2024-05-26T11:56:57.000Z</time>
        <extensions>
          <gpxtpx:TrackPointExtension xmlns:gpxtpx="http://www.garmin.com/xmlschemas/TrackPointExtension/v1">
            <gpxtpx:hr>93</gpxtpx:hr>
          </gpxtpx:TrackPointExtension>
        </extensions>
      </trkpt>
      <trkpt lat="45.6682" lon="3.00117">
        <ele>829.40002441406</ele>
        <time>2024-05-26T11:56:59.000Z</time>
        <extensions>
          <gpxtpx:TrackPointExtension xmlns:gpxtpx="http://www.garmin.com/xmlschemas/TrackPointExtension/v1">
            <gpxtpx:hr>93</gpxtpx:hr>
          </gpxtpx:TrackPointExtension>
        </extensions>
      </trkpt>
      <trkpt lat="45.66824" lon="3.00128">
        <ele>829</ele>
        <time>2024-05-26T11:57:00.000Z</time>
        <extensions>
          <gpxtpx:TrackPointExtension xmlns:gpxtpx="http://www.garmin.com/xmlschemas/TrackPointExtension/v1">
            <gpxtpx:hr>93</gpxtpx:hr>
          </gpxtpx:TrackPointExtension>
        </extensions>
      </trkpt>
      <trkpt lat="45.66833" lon="3.00149">
        <ele>828.79998779297</ele>
        <time>2024-05-26T11:57:02.000Z</time>
        <extensions>
          <gpxtpx:TrackPointExtension xmlns:gpxtpx="http://www.garmin.com/xmlschemas/TrackPointExtension/v1">
            <gpxtpx:hr>93</gpxtpx:hr>
          </gpxtpx:TrackPointExtension>
        </extensions>
      </trkpt>
      <trkpt lat="45.66848" lon="3.00179">
        <ele>828.40002441406</ele>
        <time>2024-05-26T11:57:05.000Z</time>
        <extensions>
          <gpxtpx:TrackPointExtension xmlns:gpxtpx="http://www.garmin.com/xmlschemas/TrackPointExtension/v1">
            <gpxtpx:hr>94</gpxtpx:hr>
          </gpxtpx:TrackPointExtension>
        </extensions>
      </trkpt>
      <trkpt lat="45.66854" lon="3.00187">
        <ele>828.20001220703</ele>
        <time>2024-05-26T11:57:06.000Z</time>
        <extensions>
          <gpxtpx:TrackPointExtension xmlns:gpxtpx="http://www.garmin.com/xmlschemas/TrackPointExtension/v1">
            <gpxtpx:hr>95</gpxtpx:hr>
          </gpxtpx:TrackPointExtension>
        </extensions>
      </trkpt>
      <trkpt lat="45.6686" lon="3.00194">
        <ele>828.20001220703</ele>
        <time>2024-05-26T11:57:07.000Z</time>
        <extensions>
          <gpxtpx:TrackPointExtension xmlns:gpxtpx="http://www.garmin.com/xmlschemas/TrackPointExtension/v1">
            <gpxtpx:hr>95</gpxtpx:hr>
          </gpxtpx:TrackPointExtension>
        </extensions>
      </trkpt>
      <trkpt lat="45.66866" lon="3.00201">
        <ele>828</ele>
        <time>2024-05-26T11:57:08.000Z</time>
        <extensions>
          <gpxtpx:TrackPointExtension xmlns:gpxtpx="http://www.garmin.com/xmlschemas/TrackPointExtension/v1">
            <gpxtpx:hr>95</gpxtpx:hr>
          </gpxtpx:TrackPointExtension>
        </extensions>
      </trkpt>
      <trkpt lat="45.66887" lon="3.00217">
        <ele>827.40002441406</ele>
        <time>2024-05-26T11:57:11.000Z</time>
        <extensions>
          <gpxtpx:TrackPointExtension xmlns:gpxtpx="http://www.garmin.com/xmlschemas/TrackPointExtension/v1">
            <gpxtpx:hr>97</gpxtpx:hr>
          </gpxtpx:TrackPointExtension>
        </extensions>
      </trkpt>
      <trkpt lat="45.66894" lon="3.00223">
        <ele>827</ele>
        <time>2024-05-26T11:57:12.000Z</time>
        <extensions>
          <gpxtpx:TrackPointExtension xmlns:gpxtpx="http://www.garmin.com/xmlschemas/TrackPointExtension/v1">
            <gpxtpx:hr>97</gpxtpx:hr>
          </gpxtpx:TrackPointExtension>
        </extensions>
      </trkpt>
      <trkpt lat="45.66906" lon="3.00239">
        <ele>826.79998779297</ele>
        <time>2024-05-26T11:57:14.000Z</time>
        <extensions>
          <gpxtpx:TrackPointExtension xmlns:gpxtpx="http://www.garmin.com/xmlschemas/TrackPointExtension/v1">
            <gpxtpx:hr>97</gpxtpx:hr>
          </gpxtpx:TrackPointExtension>
        </extensions>
      </trkpt>
      <trkpt lat="45.66911" lon="3.00249">
        <ele>826.59997558594</ele>
        <time>2024-05-26T11:57:15.000Z</time>
        <extensions>
          <gpxtpx:TrackPointExtension xmlns:gpxtpx="http://www.garmin.com/xmlschemas/TrackPointExtension/v1">
            <gpxtpx:hr>98</gpxtpx:hr>
          </gpxtpx:TrackPointExtension>
        </extensions>
      </trkpt>
      <trkpt lat="45.66913" lon="3.0026">
        <ele>826.59997558594</ele>
        <time>2024-05-26T11:57:16.000Z</time>
        <extensions>
          <gpxtpx:TrackPointExtension xmlns:gpxtpx="http://www.garmin.com/xmlschemas/TrackPointExtension/v1">
            <gpxtpx:hr>98</gpxtpx:hr>
          </gpxtpx:TrackPointExtension>
        </extensions>
      </trkpt>
      <trkpt lat="45.66914" lon="3.00283">
        <ele>826.20001220703</ele>
        <time>2024-05-26T11:57:18.000Z</time>
        <extensions>
          <gpxtpx:TrackPointExtension xmlns:gpxtpx="http://www.garmin.com/xmlschemas/TrackPointExtension/v1">
            <gpxtpx:hr>98</gpxtpx:hr>
          </gpxtpx:TrackPointExtension>
        </extensions>
      </trkpt>
      <trkpt lat="45.66914" lon="3.00295">
        <ele>825.79998779297</ele>
        <time>2024-05-26T11:57:19.000Z</time>
        <extensions>
          <gpxtpx:TrackPointExtension xmlns:gpxtpx="http://www.garmin.com/xmlschemas/TrackPointExtension/v1">
            <gpxtpx:hr>98</gpxtpx:hr>
          </gpxtpx:TrackPointExtension>
        </extensions>
      </trkpt>
      <trkpt lat="45.6691" lon="3.00356">
        <ele>824.59997558594</ele>
        <time>2024-05-26T11:57:24.000Z</time>
        <extensions>
          <gpxtpx:TrackPointExtension xmlns:gpxtpx="http://www.garmin.com/xmlschemas/TrackPointExtension/v1">
            <gpxtpx:hr>96</gpxtpx:hr>
          </gpxtpx:TrackPointExtension>
        </extensions>
      </trkpt>
      <trkpt lat="45.66909" lon="3.00381">
        <ele>824.20001220703</ele>
        <time>2024-05-26T11:57:26.000Z</time>
        <extensions>
          <gpxtpx:TrackPointExtension xmlns:gpxtpx="http://www.garmin.com/xmlschemas/TrackPointExtension/v1">
            <gpxtpx:hr>96</gpxtpx:hr>
          </gpxtpx:TrackPointExtension>
        </extensions>
      </trkpt>
      <trkpt lat="45.6691" lon="3.00394">
        <ele>824</ele>
        <time>2024-05-26T11:57:27.000Z</time>
        <extensions>
          <gpxtpx:TrackPointExtension xmlns:gpxtpx="http://www.garmin.com/xmlschemas/TrackPointExtension/v1">
            <gpxtpx:hr>96</gpxtpx:hr>
          </gpxtpx:TrackPointExtension>
        </extensions>
      </trkpt>
      <trkpt lat="45.66911" lon="3.00407">
        <ele>823.40002441406</ele>
        <time>2024-05-26T11:57:28.000Z</time>
        <extensions>
          <gpxtpx:TrackPointExtension xmlns:gpxtpx="http://www.garmin.com/xmlschemas/TrackPointExtension/v1">
            <gpxtpx:hr>96</gpxtpx:hr>
          </gpxtpx:TrackPointExtension>
        </extensions>
      </trkpt>
      <trkpt lat="45.66914" lon="3.0042">
        <ele>823.20001220703</ele>
        <time>2024-05-26T11:57:29.000Z</time>
        <extensions>
          <gpxtpx:TrackPointExtension xmlns:gpxtpx="http://www.garmin.com/xmlschemas/TrackPointExtension/v1">
            <gpxtpx:hr>96</gpxtpx:hr>
          </gpxtpx:TrackPointExtension>
        </extensions>
      </trkpt>
      <trkpt lat="45.66925" lon="3.0044">
        <ele>822.59997558594</ele>
        <time>2024-05-26T11:57:31.000Z</time>
        <extensions>
          <gpxtpx:TrackPointExtension xmlns:gpxtpx="http://www.garmin.com/xmlschemas/TrackPointExtension/v1">
            <gpxtpx:hr>97</gpxtpx:hr>
          </gpxtpx:TrackPointExtension>
        </extensions>
      </trkpt>
      <trkpt lat="45.66932" lon="3.00446">
        <ele>822.40002441406</ele>
        <time>2024-05-26T11:57:32.000Z</time>
        <extensions>
          <gpxtpx:TrackPointExtension xmlns:gpxtpx="http://www.garmin.com/xmlschemas/TrackPointExtension/v1">
            <gpxtpx:hr>97</gpxtpx:hr>
          </gpxtpx:TrackPointExtension>
        </extensions>
      </trkpt>
      <trkpt lat="45.66937" lon="3.00451">
        <ele>822.40002441406</ele>
        <time>2024-05-26T11:57:33.000Z</time>
        <extensions>
          <gpxtpx:TrackPointExtension xmlns:gpxtpx="http://www.garmin.com/xmlschemas/TrackPointExtension/v1">
            <gpxtpx:hr>97</gpxtpx:hr>
          </gpxtpx:TrackPointExtension>
        </extensions>
      </trkpt>
      <trkpt lat="45.6697" lon="3.00471">
        <ele>821.79998779297</ele>
        <time>2024-05-26T11:57:37.000Z</time>
        <extensions>
          <gpxtpx:TrackPointExtension xmlns:gpxtpx="http://www.garmin.com/xmlschemas/TrackPointExtension/v1">
            <gpxtpx:hr>98</gpxtpx:hr>
          </gpxtpx:TrackPointExtension>
        </extensions>
      </trkpt>
      <trkpt lat="45.67021" lon="3.00502">
        <ele>821.59997558594</ele>
        <time>2024-05-26T11:57:44.000Z</time>
        <extensions>
          <gpxtpx:TrackPointExtension xmlns:gpxtpx="http://www.garmin.com/xmlschemas/TrackPointExtension/v1">
            <gpxtpx:hr>100</gpxtpx:hr>
          </gpxtpx:TrackPointExtension>
        </extensions>
      </trkpt>
      <trkpt lat="45.67034" lon="3.0051">
        <ele>822.20001220703</ele>
        <time>2024-05-26T11:57:46.000Z</time>
        <extensions>
          <gpxtpx:TrackPointExtension xmlns:gpxtpx="http://www.garmin.com/xmlschemas/TrackPointExtension/v1">
            <gpxtpx:hr>102</gpxtpx:hr>
          </gpxtpx:TrackPointExtension>
        </extensions>
      </trkpt>
      <trkpt lat="45.67055" lon="3.00521">
        <ele>823.40002441406</ele>
        <time>2024-05-26T11:57:49.000Z</time>
        <extensions>
          <gpxtpx:TrackPointExtension xmlns:gpxtpx="http://www.garmin.com/xmlschemas/TrackPointExtension/v1">
            <gpxtpx:hr>105</gpxtpx:hr>
          </gpxtpx:TrackPointExtension>
        </extensions>
      </trkpt>
      <trkpt lat="45.67086" lon="3.0054">
        <ele>823.40002441406</ele>
        <time>2024-05-26T11:57:54.000Z</time>
        <extensions>
          <gpxtpx:TrackPointExtension xmlns:gpxtpx="http://www.garmin.com/xmlschemas/TrackPointExtension/v1">
            <gpxtpx:hr>106</gpxtpx:hr>
          </gpxtpx:TrackPointExtension>
        </extensions>
      </trkpt>
      <trkpt lat="45.67126" lon="3.00556">
        <ele>823</ele>
        <time>2024-05-26T11:58:00.000Z</time>
        <extensions>
          <gpxtpx:TrackPointExtension xmlns:gpxtpx="http://www.garmin.com/xmlschemas/TrackPointExtension/v1">
            <gpxtpx:hr>107</gpxtpx:hr>
          </gpxtpx:TrackPointExtension>
        </extensions>
      </trkpt>
      <trkpt lat="45.67161" lon="3.00563">
        <ele>822.20001220703</ele>
        <time>2024-05-26T11:58:05.000Z</time>
        <extensions>
          <gpxtpx:TrackPointExtension xmlns:gpxtpx="http://www.garmin.com/xmlschemas/TrackPointExtension/v1">
            <gpxtpx:hr>108</gpxtpx:hr>
          </gpxtpx:TrackPointExtension>
        </extensions>
      </trkpt>
      <trkpt lat="45.67182" lon="3.00566">
        <ele>822</ele>
        <time>2024-05-26T11:58:08.000Z</time>
        <extensions>
          <gpxtpx:TrackPointExtension xmlns:gpxtpx="http://www.garmin.com/xmlschemas/TrackPointExtension/v1">
            <gpxtpx:hr>108</gpxtpx:hr>
          </gpxtpx:TrackPointExtension>
        </extensions>
      </trkpt>
      <trkpt lat="45.6722" lon="3.00579">
        <ele>822.40002441406</ele>
        <time>2024-05-26T11:58:14.000Z</time>
        <extensions>
          <gpxtpx:TrackPointExtension xmlns:gpxtpx="http://www.garmin.com/xmlschemas/TrackPointExtension/v1">
            <gpxtpx:hr>108</gpxtpx:hr>
          </gpxtpx:TrackPointExtension>
        </extensions>
      </trkpt>
      <trkpt lat="45.67235" lon="3.00594">
        <ele>822.59997558594</ele>
        <time>2024-05-26T11:58:17.000Z</time>
        <extensions>
          <gpxtpx:TrackPointExtension xmlns:gpxtpx="http://www.garmin.com/xmlschemas/TrackPointExtension/v1">
            <gpxtpx:hr>106</gpxtpx:hr>
          </gpxtpx:TrackPointExtension>
        </extensions>
      </trkpt>
      <trkpt lat="45.6724" lon="3.00599">
        <ele>822.79998779297</ele>
        <time>2024-05-26T11:58:18.000Z</time>
        <extensions>
          <gpxtpx:TrackPointExtension xmlns:gpxtpx="http://www.garmin.com/xmlschemas/TrackPointExtension/v1">
            <gpxtpx:hr>106</gpxtpx:hr>
          </gpxtpx:TrackPointExtension>
        </extensions>
      </trkpt>
      <trkpt lat="45.67266" lon="3.00625">
        <ele>823.20001220703</ele>
        <time>2024-05-26T11:58:23.000Z</time>
        <extensions>
          <gpxtpx:TrackPointExtension xmlns:gpxtpx="http://www.garmin.com/xmlschemas/TrackPointExtension/v1">
            <gpxtpx:hr>107</gpxtpx:hr>
          </gpxtpx:TrackPointExtension>
        </extensions>
      </trkpt>
      <trkpt lat="45.67285" lon="3.00644">
        <ele>823.20001220703</ele>
        <time>2024-05-26T11:58:27.000Z</time>
        <extensions>
          <gpxtpx:TrackPointExtension xmlns:gpxtpx="http://www.garmin.com/xmlschemas/TrackPointExtension/v1">
            <gpxtpx:hr>110</gpxtpx:hr>
          </gpxtpx:TrackPointExtension>
        </extensions>
      </trkpt>
      <trkpt lat="45.67291" lon="3.0065">
        <ele>823.20001220703</ele>
        <time>2024-05-26T11:58:28.000Z</time>
        <extensions>
          <gpxtpx:TrackPointExtension xmlns:gpxtpx="http://www.garmin.com/xmlschemas/TrackPointExtension/v1">
            <gpxtpx:hr>110</gpxtpx:hr>
          </gpxtpx:TrackPointExtension>
        </extensions>
      </trkpt>
      <trkpt lat="45.67327" lon="3.00699">
        <ele>822.59997558594</ele>
        <time>2024-05-26T11:58:36.000Z</time>
        <extensions>
          <gpxtpx:TrackPointExtension xmlns:gpxtpx="http://www.garmin.com/xmlschemas/TrackPointExtension/v1">
            <gpxtpx:hr>111</gpxtpx:hr>
          </gpxtpx:TrackPointExtension>
        </extensions>
      </trkpt>
      <trkpt lat="45.67355" lon="3.0073">
        <ele>823</ele>
        <time>2024-05-26T11:58:42.000Z</time>
        <extensions>
          <gpxtpx:TrackPointExtension xmlns:gpxtpx="http://www.garmin.com/xmlschemas/TrackPointExtension/v1">
            <gpxtpx:hr>110</gpxtpx:hr>
          </gpxtpx:TrackPointExtension>
        </extensions>
      </trkpt>
      <trkpt lat="45.67369" lon="3.00743">
        <ele>824</ele>
        <time>2024-05-26T11:58:45.000Z</time>
        <extensions>
          <gpxtpx:TrackPointExtension xmlns:gpxtpx="http://www.garmin.com/xmlschemas/TrackPointExtension/v1">
            <gpxtpx:hr>109</gpxtpx:hr>
          </gpxtpx:TrackPointExtension>
        </extensions>
      </trkpt>
      <trkpt lat="45.67378" lon="3.00746">
        <ele>824.20001220703</ele>
        <time>2024-05-26T11:58:47.000Z</time>
        <extensions>
          <gpxtpx:TrackPointExtension xmlns:gpxtpx="http://www.garmin.com/xmlschemas/TrackPointExtension/v1">
            <gpxtpx:hr>109</gpxtpx:hr>
          </gpxtpx:TrackPointExtension>
        </extensions>
      </trkpt>
      <trkpt lat="45.67383" lon="3.00746">
        <ele>824.40002441406</ele>
        <time>2024-05-26T11:58:48.000Z</time>
        <extensions>
          <gpxtpx:TrackPointExtension xmlns:gpxtpx="http://www.garmin.com/xmlschemas/TrackPointExtension/v1">
            <gpxtpx:hr>109</gpxtpx:hr>
          </gpxtpx:TrackPointExtension>
        </extensions>
      </trkpt>
      <trkpt lat="45.67391" lon="3.00745">
        <ele>825</ele>
        <time>2024-05-26T11:58:50.000Z</time>
        <extensions>
          <gpxtpx:TrackPointExtension xmlns:gpxtpx="http://www.garmin.com/xmlschemas/TrackPointExtension/v1">
            <gpxtpx:hr>108</gpxtpx:hr>
          </gpxtpx:TrackPointExtension>
        </extensions>
      </trkpt>
      <trkpt lat="45.67395" lon="3.00743">
        <ele>825.40002441406</ele>
        <time>2024-05-26T11:58:51.000Z</time>
        <extensions>
          <gpxtpx:TrackPointExtension xmlns:gpxtpx="http://www.garmin.com/xmlschemas/TrackPointExtension/v1">
            <gpxtpx:hr>108</gpxtpx:hr>
          </gpxtpx:TrackPointExtension>
        </extensions>
      </trkpt>
      <trkpt lat="45.67408" lon="3.00735">
        <ele>826.59997558594</ele>
        <time>2024-05-26T11:58:56.000Z</time>
        <extensions>
          <gpxtpx:TrackPointExtension xmlns:gpxtpx="http://www.garmin.com/xmlschemas/TrackPointExtension/v1">
            <gpxtpx:hr>109</gpxtpx:hr>
          </gpxtpx:TrackPointExtension>
        </extensions>
      </trkpt>
      <trkpt lat="45.67419" lon="3.00722">
        <ele>827.40002441406</ele>
        <time>2024-05-26T11:59:02.000Z</time>
        <extensions>
          <gpxtpx:TrackPointExtension xmlns:gpxtpx="http://www.garmin.com/xmlschemas/TrackPointExtension/v1">
            <gpxtpx:hr>112</gpxtpx:hr>
          </gpxtpx:TrackPointExtension>
        </extensions>
      </trkpt>
      <trkpt lat="45.67421" lon="3.00719">
        <ele>827.59997558594</ele>
        <time>2024-05-26T11:59:03.000Z</time>
        <extensions>
          <gpxtpx:TrackPointExtension xmlns:gpxtpx="http://www.garmin.com/xmlschemas/TrackPointExtension/v1">
            <gpxtpx:hr>113</gpxtpx:hr>
          </gpxtpx:TrackPointExtension>
        </extensions>
      </trkpt>
      <trkpt lat="45.67423" lon="3.00717">
        <ele>827.79998779297</ele>
        <time>2024-05-26T11:59:04.000Z</time>
        <extensions>
          <gpxtpx:TrackPointExtension xmlns:gpxtpx="http://www.garmin.com/xmlschemas/TrackPointExtension/v1">
            <gpxtpx:hr>113</gpxtpx:hr>
          </gpxtpx:TrackPointExtension>
        </extensions>
      </trkpt>
      <trkpt lat="45.67433" lon="3.00704">
        <ele>829</ele>
        <time>2024-05-26T11:59:10.000Z</time>
        <extensions>
          <gpxtpx:TrackPointExtension xmlns:gpxtpx="http://www.garmin.com/xmlschemas/TrackPointExtension/v1">
            <gpxtpx:hr>113</gpxtpx:hr>
          </gpxtpx:TrackPointExtension>
        </extensions>
      </trkpt>
      <trkpt lat="45.67435" lon="3.00702">
        <ele>829.20001220703</ele>
        <time>2024-05-26T11:59:11.000Z</time>
        <extensions>
          <gpxtpx:TrackPointExtension xmlns:gpxtpx="http://www.garmin.com/xmlschemas/TrackPointExtension/v1">
            <gpxtpx:hr>114</gpxtpx:hr>
          </gpxtpx:TrackPointExtension>
        </extensions>
      </trkpt>
      <trkpt lat="45.67443" lon="3.00698">
        <ele>830.20001220703</ele>
        <time>2024-05-26T11:59:15.000Z</time>
        <extensions>
          <gpxtpx:TrackPointExtension xmlns:gpxtpx="http://www.garmin.com/xmlschemas/TrackPointExtension/v1">
            <gpxtpx:hr>111</gpxtpx:hr>
          </gpxtpx:TrackPointExtension>
        </extensions>
      </trkpt>
      <trkpt lat="45.67445" lon="3.00698">
        <ele>830.40002441406</ele>
        <time>2024-05-26T11:59:16.000Z</time>
        <extensions>
          <gpxtpx:TrackPointExtension xmlns:gpxtpx="http://www.garmin.com/xmlschemas/TrackPointExtension/v1">
            <gpxtpx:hr>114</gpxtpx:hr>
          </gpxtpx:TrackPointExtension>
        </extensions>
      </trkpt>
      <trkpt lat="45.67449" lon="3.00698">
        <ele>830.59997558594</ele>
        <time>2024-05-26T11:59:18.000Z</time>
        <extensions>
          <gpxtpx:TrackPointExtension xmlns:gpxtpx="http://www.garmin.com/xmlschemas/TrackPointExtension/v1">
            <gpxtpx:hr>113</gpxtpx:hr>
          </gpxtpx:TrackPointExtension>
        </extensions>
      </trkpt>
      <trkpt lat="45.67455" lon="3.00699">
        <ele>831</ele>
        <time>2024-05-26T11:59:21.000Z</time>
        <extensions>
          <gpxtpx:TrackPointExtension xmlns:gpxtpx="http://www.garmin.com/xmlschemas/TrackPointExtension/v1">
            <gpxtpx:hr>110</gpxtpx:hr>
          </gpxtpx:TrackPointExtension>
        </extensions>
      </trkpt>
      <trkpt lat="45.6746" lon="3.00702">
        <ele>831.20001220703</ele>
        <time>2024-05-26T11:59:23.000Z</time>
        <extensions>
          <gpxtpx:TrackPointExtension xmlns:gpxtpx="http://www.garmin.com/xmlschemas/TrackPointExtension/v1">
            <gpxtpx:hr>111</gpxtpx:hr>
          </gpxtpx:TrackPointExtension>
        </extensions>
      </trkpt>
      <trkpt lat="45.67463" lon="3.00705">
        <ele>831.40002441406</ele>
        <time>2024-05-26T11:59:25.000Z</time>
        <extensions>
          <gpxtpx:TrackPointExtension xmlns:gpxtpx="http://www.garmin.com/xmlschemas/TrackPointExtension/v1">
            <gpxtpx:hr>111</gpxtpx:hr>
          </gpxtpx:TrackPointExtension>
        </extensions>
      </trkpt>
      <trkpt lat="45.67468" lon="3.00713">
        <ele>832.20001220703</ele>
        <time>2024-05-26T11:59:29.000Z</time>
        <extensions>
          <gpxtpx:TrackPointExtension xmlns:gpxtpx="http://www.garmin.com/xmlschemas/TrackPointExtension/v1">
            <gpxtpx:hr>111</gpxtpx:hr>
          </gpxtpx:TrackPointExtension>
        </extensions>
      </trkpt>
      <trkpt lat="45.6747" lon="3.00717">
        <ele>832.40002441406</ele>
        <time>2024-05-26T11:59:31.000Z</time>
        <extensions>
          <gpxtpx:TrackPointExtension xmlns:gpxtpx="http://www.garmin.com/xmlschemas/TrackPointExtension/v1">
            <gpxtpx:hr>112</gpxtpx:hr>
          </gpxtpx:TrackPointExtension>
        </extensions>
      </trkpt>
      <trkpt lat="45.67473" lon="3.00725">
        <ele>833</ele>
        <time>2024-05-26T11:59:34.000Z</time>
        <extensions>
          <gpxtpx:TrackPointExtension xmlns:gpxtpx="http://www.garmin.com/xmlschemas/TrackPointExtension/v1">
            <gpxtpx:hr>113</gpxtpx:hr>
          </gpxtpx:TrackPointExtension>
        </extensions>
      </trkpt>
      <trkpt lat="45.67474" lon="3.00734">
        <ele>833.40002441406</ele>
        <time>2024-05-26T11:59:37.000Z</time>
        <extensions>
          <gpxtpx:TrackPointExtension xmlns:gpxtpx="http://www.garmin.com/xmlschemas/TrackPointExtension/v1">
            <gpxtpx:hr>113</gpxtpx:hr>
          </gpxtpx:TrackPointExtension>
        </extensions>
      </trkpt>
      <trkpt lat="45.67474" lon="3.0074">
        <ele>833.59997558594</ele>
        <time>2024-05-26T11:59:39.000Z</time>
        <extensions>
          <gpxtpx:TrackPointExtension xmlns:gpxtpx="http://www.garmin.com/xmlschemas/TrackPointExtension/v1">
            <gpxtpx:hr>114</gpxtpx:hr>
          </gpxtpx:TrackPointExtension>
        </extensions>
      </trkpt>
      <trkpt lat="45.67468" lon="3.00758">
        <ele>834.79998779297</ele>
        <time>2024-05-26T11:59:46.000Z</time>
        <extensions>
          <gpxtpx:TrackPointExtension xmlns:gpxtpx="http://www.garmin.com/xmlschemas/TrackPointExtension/v1">
            <gpxtpx:hr>112</gpxtpx:hr>
          </gpxtpx:TrackPointExtension>
        </extensions>
      </trkpt>
      <trkpt lat="45.67467" lon="3.0076">
        <ele>834.79998779297</ele>
        <time>2024-05-26T11:59:47.000Z</time>
        <extensions>
          <gpxtpx:TrackPointExtension xmlns:gpxtpx="http://www.garmin.com/xmlschemas/TrackPointExtension/v1">
            <gpxtpx:hr>112</gpxtpx:hr>
          </gpxtpx:TrackPointExtension>
        </extensions>
      </trkpt>
      <trkpt lat="45.67462" lon="3.00774">
        <ele>836.20001220703</ele>
        <time>2024-05-26T11:59:53.000Z</time>
        <extensions>
          <gpxtpx:TrackPointExtension xmlns:gpxtpx="http://www.garmin.com/xmlschemas/TrackPointExtension/v1">
            <gpxtpx:hr>114</gpxtpx:hr>
          </gpxtpx:TrackPointExtension>
        </extensions>
      </trkpt>
      <trkpt lat="45.67461" lon="3.00779">
        <ele>836.40002441406</ele>
        <time>2024-05-26T11:59:55.000Z</time>
        <extensions>
          <gpxtpx:TrackPointExtension xmlns:gpxtpx="http://www.garmin.com/xmlschemas/TrackPointExtension/v1">
            <gpxtpx:hr>114</gpxtpx:hr>
          </gpxtpx:TrackPointExtension>
        </extensions>
      </trkpt>
      <trkpt lat="45.67465" lon="3.00798">
        <ele>836.79998779297</ele>
        <time>2024-05-26T12:00:02.000Z</time>
        <extensions>
          <gpxtpx:TrackPointExtension xmlns:gpxtpx="http://www.garmin.com/xmlschemas/TrackPointExtension/v1">
            <gpxtpx:hr>114</gpxtpx:hr>
          </gpxtpx:TrackPointExtension>
        </extensions>
      </trkpt>
      <trkpt lat="45.67467" lon="3.00806">
        <ele>837.20001220703</ele>
        <time>2024-05-26T12:00:05.000Z</time>
        <extensions>
          <gpxtpx:TrackPointExtension xmlns:gpxtpx="http://www.garmin.com/xmlschemas/TrackPointExtension/v1">
            <gpxtpx:hr>114</gpxtpx:hr>
          </gpxtpx:TrackPointExtension>
        </extensions>
      </trkpt>
      <trkpt lat="45.67469" lon="3.00811">
        <ele>837.20001220703</ele>
        <time>2024-05-26T12:00:07.000Z</time>
        <extensions>
          <gpxtpx:TrackPointExtension xmlns:gpxtpx="http://www.garmin.com/xmlschemas/TrackPointExtension/v1">
            <gpxtpx:hr>116</gpxtpx:hr>
          </gpxtpx:TrackPointExtension>
        </extensions>
      </trkpt>
      <trkpt lat="45.67479" lon="3.00827">
        <ele>837.59997558594</ele>
        <time>2024-05-26T12:00:14.000Z</time>
        <extensions>
          <gpxtpx:TrackPointExtension xmlns:gpxtpx="http://www.garmin.com/xmlschemas/TrackPointExtension/v1">
            <gpxtpx:hr>115</gpxtpx:hr>
          </gpxtpx:TrackPointExtension>
        </extensions>
      </trkpt>
      <trkpt lat="45.67487" lon="3.00843">
        <ele>838.20001220703</ele>
        <time>2024-05-26T12:00:20.000Z</time>
        <extensions>
          <gpxtpx:TrackPointExtension xmlns:gpxtpx="http://www.garmin.com/xmlschemas/TrackPointExtension/v1">
            <gpxtpx:hr>117</gpxtpx:hr>
          </gpxtpx:TrackPointExtension>
        </extensions>
      </trkpt>
      <trkpt lat="45.67488" lon="3.00845">
        <ele>838.40002441406</ele>
        <time>2024-05-26T12:00:21.000Z</time>
        <extensions>
          <gpxtpx:TrackPointExtension xmlns:gpxtpx="http://www.garmin.com/xmlschemas/TrackPointExtension/v1">
            <gpxtpx:hr>116</gpxtpx:hr>
          </gpxtpx:TrackPointExtension>
        </extensions>
      </trkpt>
      <trkpt lat="45.67497" lon="3.00864">
        <ele>839.40002441406</ele>
        <time>2024-05-26T12:00:29.000Z</time>
        <extensions>
          <gpxtpx:TrackPointExtension xmlns:gpxtpx="http://www.garmin.com/xmlschemas/TrackPointExtension/v1">
            <gpxtpx:hr>117</gpxtpx:hr>
          </gpxtpx:TrackPointExtension>
        </extensions>
      </trkpt>
      <trkpt lat="45.67498" lon="3.00866">
        <ele>839.59997558594</ele>
        <time>2024-05-26T12:00:30.000Z</time>
        <extensions>
          <gpxtpx:TrackPointExtension xmlns:gpxtpx="http://www.garmin.com/xmlschemas/TrackPointExtension/v1">
            <gpxtpx:hr>117</gpxtpx:hr>
          </gpxtpx:TrackPointExtension>
        </extensions>
      </trkpt>
      <trkpt lat="45.67505" lon="3.00875">
        <ele>840.40002441406</ele>
        <time>2024-05-26T12:00:35.000Z</time>
        <extensions>
          <gpxtpx:TrackPointExtension xmlns:gpxtpx="http://www.garmin.com/xmlschemas/TrackPointExtension/v1">
            <gpxtpx:hr>116</gpxtpx:hr>
          </gpxtpx:TrackPointExtension>
        </extensions>
      </trkpt>
      <trkpt lat="45.67508" lon="3.00878">
        <ele>840.59997558594</ele>
        <time>2024-05-26T12:00:37.000Z</time>
        <extensions>
          <gpxtpx:TrackPointExtension xmlns:gpxtpx="http://www.garmin.com/xmlschemas/TrackPointExtension/v1">
            <gpxtpx:hr>117</gpxtpx:hr>
          </gpxtpx:TrackPointExtension>
        </extensions>
      </trkpt>
      <trkpt lat="45.67516" lon="3.00889">
        <ele>841.40002441406</ele>
        <time>2024-05-26T12:00:43.000Z</time>
        <extensions>
          <gpxtpx:TrackPointExtension xmlns:gpxtpx="http://www.garmin.com/xmlschemas/TrackPointExtension/v1">
            <gpxtpx:hr>117</gpxtpx:hr>
          </gpxtpx:TrackPointExtension>
        </extensions>
      </trkpt>
      <trkpt lat="45.67518" lon="3.0089">
        <ele>841.40002441406</ele>
        <time>2024-05-26T12:00:44.000Z</time>
        <extensions>
          <gpxtpx:TrackPointExtension xmlns:gpxtpx="http://www.garmin.com/xmlschemas/TrackPointExtension/v1">
            <gpxtpx:hr>116</gpxtpx:hr>
          </gpxtpx:TrackPointExtension>
        </extensions>
      </trkpt>
      <trkpt lat="45.67523" lon="3.00895">
        <ele>841.59997558594</ele>
        <time>2024-05-26T12:00:47.000Z</time>
        <extensions>
          <gpxtpx:TrackPointExtension xmlns:gpxtpx="http://www.garmin.com/xmlschemas/TrackPointExtension/v1">
            <gpxtpx:hr>115</gpxtpx:hr>
          </gpxtpx:TrackPointExtension>
        </extensions>
      </trkpt>
      <trkpt lat="45.67535" lon="3.00908">
        <ele>842.40002441406</ele>
        <time>2024-05-26T12:00:54.000Z</time>
        <extensions>
          <gpxtpx:TrackPointExtension xmlns:gpxtpx="http://www.garmin.com/xmlschemas/TrackPointExtension/v1">
            <gpxtpx:hr>115</gpxtpx:hr>
          </gpxtpx:TrackPointExtension>
        </extensions>
      </trkpt>
      <trkpt lat="45.6754" lon="3.00914">
        <ele>842.79998779297</ele>
        <time>2024-05-26T12:00:57.000Z</time>
        <extensions>
          <gpxtpx:TrackPointExtension xmlns:gpxtpx="http://www.garmin.com/xmlschemas/TrackPointExtension/v1">
            <gpxtpx:hr>115</gpxtpx:hr>
          </gpxtpx:TrackPointExtension>
        </extensions>
      </trkpt>
      <trkpt lat="45.67548" lon="3.00921">
        <ele>843</ele>
        <time>2024-05-26T12:01:02.000Z</time>
        <extensions>
          <gpxtpx:TrackPointExtension xmlns:gpxtpx="http://www.garmin.com/xmlschemas/TrackPointExtension/v1">
            <gpxtpx:hr>115</gpxtpx:hr>
          </gpxtpx:TrackPointExtension>
        </extensions>
      </trkpt>
      <trkpt lat="45.67556" lon="3.00933">
        <ele>843.79998779297</ele>
        <time>2024-05-26T12:01:08.000Z</time>
        <extensions>
          <gpxtpx:TrackPointExtension xmlns:gpxtpx="http://www.garmin.com/xmlschemas/TrackPointExtension/v1">
            <gpxtpx:hr>113</gpxtpx:hr>
          </gpxtpx:TrackPointExtension>
        </extensions>
      </trkpt>
      <trkpt lat="45.67557" lon="3.00935">
        <ele>843.79998779297</ele>
        <time>2024-05-26T12:01:09.000Z</time>
        <extensions>
          <gpxtpx:TrackPointExtension xmlns:gpxtpx="http://www.garmin.com/xmlschemas/TrackPointExtension/v1">
            <gpxtpx:hr>112</gpxtpx:hr>
          </gpxtpx:TrackPointExtension>
        </extensions>
      </trkpt>
      <trkpt lat="45.67558" lon="3.00937">
        <ele>844</ele>
        <time>2024-05-26T12:01:10.000Z</time>
        <extensions>
          <gpxtpx:TrackPointExtension xmlns:gpxtpx="http://www.garmin.com/xmlschemas/TrackPointExtension/v1">
            <gpxtpx:hr>111</gpxtpx:hr>
          </gpxtpx:TrackPointExtension>
        </extensions>
      </trkpt>
      <trkpt lat="45.67566" lon="3.00945">
        <ele>844.79998779297</ele>
        <time>2024-05-26T12:01:15.000Z</time>
        <extensions>
          <gpxtpx:TrackPointExtension xmlns:gpxtpx="http://www.garmin.com/xmlschemas/TrackPointExtension/v1">
            <gpxtpx:hr>111</gpxtpx:hr>
          </gpxtpx:TrackPointExtension>
        </extensions>
      </trkpt>
      <trkpt lat="45.67571" lon="3.00951">
        <ele>845.20001220703</ele>
        <time>2024-05-26T12:01:18.000Z</time>
        <extensions>
          <gpxtpx:TrackPointExtension xmlns:gpxtpx="http://www.garmin.com/xmlschemas/TrackPointExtension/v1">
            <gpxtpx:hr>113</gpxtpx:hr>
          </gpxtpx:TrackPointExtension>
        </extensions>
      </trkpt>
      <trkpt lat="45.67578" lon="3.00957">
        <ele>846</ele>
        <time>2024-05-26T12:01:22.000Z</time>
        <extensions>
          <gpxtpx:TrackPointExtension xmlns:gpxtpx="http://www.garmin.com/xmlschemas/TrackPointExtension/v1">
            <gpxtpx:hr>116</gpxtpx:hr>
          </gpxtpx:TrackPointExtension>
        </extensions>
      </trkpt>
      <trkpt lat="45.67585" lon="3.00964">
        <ele>846.59997558594</ele>
        <time>2024-05-26T12:01:26.000Z</time>
        <extensions>
          <gpxtpx:TrackPointExtension xmlns:gpxtpx="http://www.garmin.com/xmlschemas/TrackPointExtension/v1">
            <gpxtpx:hr>119</gpxtpx:hr>
          </gpxtpx:TrackPointExtension>
        </extensions>
      </trkpt>
      <trkpt lat="45.6759" lon="3.00968">
        <ele>847</ele>
        <time>2024-05-26T12:01:29.000Z</time>
        <extensions>
          <gpxtpx:TrackPointExtension xmlns:gpxtpx="http://www.garmin.com/xmlschemas/TrackPointExtension/v1">
            <gpxtpx:hr>120</gpxtpx:hr>
          </gpxtpx:TrackPointExtension>
        </extensions>
      </trkpt>
      <trkpt lat="45.67601" lon="3.00978">
        <ele>848</ele>
        <time>2024-05-26T12:01:36.000Z</time>
        <extensions>
          <gpxtpx:TrackPointExtension xmlns:gpxtpx="http://www.garmin.com/xmlschemas/TrackPointExtension/v1">
            <gpxtpx:hr>119</gpxtpx:hr>
          </gpxtpx:TrackPointExtension>
        </extensions>
      </trkpt>
      <trkpt lat="45.67602" lon="3.00979">
        <ele>848</ele>
        <time>2024-05-26T12:01:37.000Z</time>
        <extensions>
          <gpxtpx:TrackPointExtension xmlns:gpxtpx="http://www.garmin.com/xmlschemas/TrackPointExtension/v1">
            <gpxtpx:hr>119</gpxtpx:hr>
          </gpxtpx:TrackPointExtension>
        </extensions>
      </trkpt>
      <trkpt lat="45.67611" lon="3.00985">
        <ele>848.79998779297</ele>
        <time>2024-05-26T12:01:42.000Z</time>
        <extensions>
          <gpxtpx:TrackPointExtension xmlns:gpxtpx="http://www.garmin.com/xmlschemas/TrackPointExtension/v1">
            <gpxtpx:hr>121</gpxtpx:hr>
          </gpxtpx:TrackPointExtension>
        </extensions>
      </trkpt>
      <trkpt lat="45.67617" lon="3.00989">
        <ele>849.20001220703</ele>
        <time>2024-05-26T12:01:46.000Z</time>
        <extensions>
          <gpxtpx:TrackPointExtension xmlns:gpxtpx="http://www.garmin.com/xmlschemas/TrackPointExtension/v1">
            <gpxtpx:hr>121</gpxtpx:hr>
          </gpxtpx:TrackPointExtension>
        </extensions>
      </trkpt>
      <trkpt lat="45.67623" lon="3.00993">
        <ele>849.59997558594</ele>
        <time>2024-05-26T12:01:50.000Z</time>
        <extensions>
          <gpxtpx:TrackPointExtension xmlns:gpxtpx="http://www.garmin.com/xmlschemas/TrackPointExtension/v1">
            <gpxtpx:hr>122</gpxtpx:hr>
          </gpxtpx:TrackPointExtension>
        </extensions>
      </trkpt>
      <trkpt lat="45.67632" lon="3.00998">
        <ele>850.40002441406</ele>
        <time>2024-05-26T12:01:55.000Z</time>
        <extensions>
          <gpxtpx:TrackPointExtension xmlns:gpxtpx="http://www.garmin.com/xmlschemas/TrackPointExtension/v1">
            <gpxtpx:hr>121</gpxtpx:hr>
          </gpxtpx:TrackPointExtension>
        </extensions>
      </trkpt>
      <trkpt lat="45.67637" lon="3.01001">
        <ele>850.59997558594</ele>
        <time>2024-05-26T12:01:58.000Z</time>
        <extensions>
          <gpxtpx:TrackPointExtension xmlns:gpxtpx="http://www.garmin.com/xmlschemas/TrackPointExtension/v1">
            <gpxtpx:hr>120</gpxtpx:hr>
          </gpxtpx:TrackPointExtension>
        </extensions>
      </trkpt>
      <trkpt lat="45.67644" lon="3.01003">
        <ele>851</ele>
        <time>2024-05-26T12:02:02.000Z</time>
        <extensions>
          <gpxtpx:TrackPointExtension xmlns:gpxtpx="http://www.garmin.com/xmlschemas/TrackPointExtension/v1">
            <gpxtpx:hr>117</gpxtpx:hr>
          </gpxtpx:TrackPointExtension>
        </extensions>
      </trkpt>
      <trkpt lat="45.67646" lon="3.01004">
        <ele>851.40002441406</ele>
        <time>2024-05-26T12:02:03.000Z</time>
        <extensions>
          <gpxtpx:TrackPointExtension xmlns:gpxtpx="http://www.garmin.com/xmlschemas/TrackPointExtension/v1">
            <gpxtpx:hr>116</gpxtpx:hr>
          </gpxtpx:TrackPointExtension>
        </extensions>
      </trkpt>
      <trkpt lat="45.6765" lon="3.01004">
        <ele>851.59997558594</ele>
        <time>2024-05-26T12:02:05.000Z</time>
        <extensions>
          <gpxtpx:TrackPointExtension xmlns:gpxtpx="http://www.garmin.com/xmlschemas/TrackPointExtension/v1">
            <gpxtpx:hr>115</gpxtpx:hr>
          </gpxtpx:TrackPointExtension>
        </extensions>
      </trkpt>
      <trkpt lat="45.67663" lon="3.01011">
        <ele>852.40002441406</ele>
        <time>2024-05-26T12:02:12.000Z</time>
        <extensions>
          <gpxtpx:TrackPointExtension xmlns:gpxtpx="http://www.garmin.com/xmlschemas/TrackPointExtension/v1">
            <gpxtpx:hr>114</gpxtpx:hr>
          </gpxtpx:TrackPointExtension>
        </extensions>
      </trkpt>
      <trkpt lat="45.67676" lon="3.01017">
        <ele>853.40002441406</ele>
        <time>2024-05-26T12:02:19.000Z</time>
        <extensions>
          <gpxtpx:TrackPointExtension xmlns:gpxtpx="http://www.garmin.com/xmlschemas/TrackPointExtension/v1">
            <gpxtpx:hr>114</gpxtpx:hr>
          </gpxtpx:TrackPointExtension>
        </extensions>
      </trkpt>
      <trkpt lat="45.67678" lon="3.01018">
        <ele>853.40002441406</ele>
        <time>2024-05-26T12:02:20.000Z</time>
        <extensions>
          <gpxtpx:TrackPointExtension xmlns:gpxtpx="http://www.garmin.com/xmlschemas/TrackPointExtension/v1">
            <gpxtpx:hr>113</gpxtpx:hr>
          </gpxtpx:TrackPointExtension>
        </extensions>
      </trkpt>
      <trkpt lat="45.67681" lon="3.01019">
        <ele>853.40002441406</ele>
        <time>2024-05-26T12:02:21.000Z</time>
        <extensions>
          <gpxtpx:TrackPointExtension xmlns:gpxtpx="http://www.garmin.com/xmlschemas/TrackPointExtension/v1">
            <gpxtpx:hr>112</gpxtpx:hr>
          </gpxtpx:TrackPointExtension>
        </extensions>
      </trkpt>
      <trkpt lat="45.67696" lon="3.01022">
        <ele>854.59997558594</ele>
        <time>2024-05-26T12:02:28.000Z</time>
        <extensions>
          <gpxtpx:TrackPointExtension xmlns:gpxtpx="http://www.garmin.com/xmlschemas/TrackPointExtension/v1">
            <gpxtpx:hr>115</gpxtpx:hr>
          </gpxtpx:TrackPointExtension>
        </extensions>
      </trkpt>
      <trkpt lat="45.677" lon="3.01022">
        <ele>855</ele>
        <time>2024-05-26T12:02:30.000Z</time>
        <extensions>
          <gpxtpx:TrackPointExtension xmlns:gpxtpx="http://www.garmin.com/xmlschemas/TrackPointExtension/v1">
            <gpxtpx:hr>117</gpxtpx:hr>
          </gpxtpx:TrackPointExtension>
        </extensions>
      </trkpt>
      <trkpt lat="45.67703" lon="3.01022">
        <ele>855.20001220703</ele>
        <time>2024-05-26T12:02:32.000Z</time>
        <extensions>
          <gpxtpx:TrackPointExtension xmlns:gpxtpx="http://www.garmin.com/xmlschemas/TrackPointExtension/v1">
            <gpxtpx:hr>122</gpxtpx:hr>
          </gpxtpx:TrackPointExtension>
        </extensions>
      </trkpt>
      <trkpt lat="45.67705" lon="3.01022">
        <ele>855.40002441406</ele>
        <time>2024-05-26T12:02:33.000Z</time>
        <extensions>
          <gpxtpx:TrackPointExtension xmlns:gpxtpx="http://www.garmin.com/xmlschemas/TrackPointExtension/v1">
            <gpxtpx:hr>119</gpxtpx:hr>
          </gpxtpx:TrackPointExtension>
        </extensions>
      </trkpt>
      <trkpt lat="45.6771" lon="3.01021">
        <ele>855.59997558594</ele>
        <time>2024-05-26T12:02:35.000Z</time>
        <extensions>
          <gpxtpx:TrackPointExtension xmlns:gpxtpx="http://www.garmin.com/xmlschemas/TrackPointExtension/v1">
            <gpxtpx:hr>120</gpxtpx:hr>
          </gpxtpx:TrackPointExtension>
        </extensions>
      </trkpt>
      <trkpt lat="45.67714" lon="3.0102">
        <ele>856</ele>
        <time>2024-05-26T12:02:37.000Z</time>
        <extensions>
          <gpxtpx:TrackPointExtension xmlns:gpxtpx="http://www.garmin.com/xmlschemas/TrackPointExtension/v1">
            <gpxtpx:hr>121</gpxtpx:hr>
          </gpxtpx:TrackPointExtension>
        </extensions>
      </trkpt>
      <trkpt lat="45.67722" lon="3.01017">
        <ele>856.59997558594</ele>
        <time>2024-05-26T12:02:41.000Z</time>
        <extensions>
          <gpxtpx:TrackPointExtension xmlns:gpxtpx="http://www.garmin.com/xmlschemas/TrackPointExtension/v1">
            <gpxtpx:hr>122</gpxtpx:hr>
          </gpxtpx:TrackPointExtension>
        </extensions>
      </trkpt>
      <trkpt lat="45.67731" lon="3.01014">
        <ele>857.20001220703</ele>
        <time>2024-05-26T12:02:46.000Z</time>
        <extensions>
          <gpxtpx:TrackPointExtension xmlns:gpxtpx="http://www.garmin.com/xmlschemas/TrackPointExtension/v1">
            <gpxtpx:hr>124</gpxtpx:hr>
          </gpxtpx:TrackPointExtension>
        </extensions>
      </trkpt>
      <trkpt lat="45.67736" lon="3.0101">
        <ele>857.79998779297</ele>
        <time>2024-05-26T12:02:49.000Z</time>
        <extensions>
          <gpxtpx:TrackPointExtension xmlns:gpxtpx="http://www.garmin.com/xmlschemas/TrackPointExtension/v1">
            <gpxtpx:hr>123</gpxtpx:hr>
          </gpxtpx:TrackPointExtension>
        </extensions>
      </trkpt>
      <trkpt lat="45.67737" lon="3.01009">
        <ele>857.79998779297</ele>
        <time>2024-05-26T12:02:50.000Z</time>
        <extensions>
          <gpxtpx:TrackPointExtension xmlns:gpxtpx="http://www.garmin.com/xmlschemas/TrackPointExtension/v1">
            <gpxtpx:hr>127</gpxtpx:hr>
          </gpxtpx:TrackPointExtension>
        </extensions>
      </trkpt>
      <trkpt lat="45.67741" lon="3.01004">
        <ele>858.20001220703</ele>
        <time>2024-05-26T12:02:53.000Z</time>
        <extensions>
          <gpxtpx:TrackPointExtension xmlns:gpxtpx="http://www.garmin.com/xmlschemas/TrackPointExtension/v1">
            <gpxtpx:hr>125</gpxtpx:hr>
          </gpxtpx:TrackPointExtension>
        </extensions>
      </trkpt>
      <trkpt lat="45.67747" lon="3.01001">
        <ele>858.79998779297</ele>
        <time>2024-05-26T12:02:56.000Z</time>
        <extensions>
          <gpxtpx:TrackPointExtension xmlns:gpxtpx="http://www.garmin.com/xmlschemas/TrackPointExtension/v1">
            <gpxtpx:hr>127</gpxtpx:hr>
          </gpxtpx:TrackPointExtension>
        </extensions>
      </trkpt>
      <trkpt lat="45.67753" lon="3.00993">
        <ele>859.20001220703</ele>
        <time>2024-05-26T12:03:00.000Z</time>
        <extensions>
          <gpxtpx:TrackPointExtension xmlns:gpxtpx="http://www.garmin.com/xmlschemas/TrackPointExtension/v1">
            <gpxtpx:hr>127</gpxtpx:hr>
          </gpxtpx:TrackPointExtension>
        </extensions>
      </trkpt>
      <trkpt lat="45.67762" lon="3.00985">
        <ele>860</ele>
        <time>2024-05-26T12:03:05.000Z</time>
        <extensions>
          <gpxtpx:TrackPointExtension xmlns:gpxtpx="http://www.garmin.com/xmlschemas/TrackPointExtension/v1">
            <gpxtpx:hr>127</gpxtpx:hr>
          </gpxtpx:TrackPointExtension>
        </extensions>
      </trkpt>
      <trkpt lat="45.67767" lon="3.00978">
        <ele>860.40002441406</ele>
        <time>2024-05-26T12:03:08.000Z</time>
        <extensions>
          <gpxtpx:TrackPointExtension xmlns:gpxtpx="http://www.garmin.com/xmlschemas/TrackPointExtension/v1">
            <gpxtpx:hr>127</gpxtpx:hr>
          </gpxtpx:TrackPointExtension>
        </extensions>
      </trkpt>
      <trkpt lat="45.67774" lon="3.00967">
        <ele>861</ele>
        <time>2024-05-26T12:03:13.000Z</time>
        <extensions>
          <gpxtpx:TrackPointExtension xmlns:gpxtpx="http://www.garmin.com/xmlschemas/TrackPointExtension/v1">
            <gpxtpx:hr>126</gpxtpx:hr>
          </gpxtpx:TrackPointExtension>
        </extensions>
      </trkpt>
      <trkpt lat="45.67779" lon="3.00955">
        <ele>861.20001220703</ele>
        <time>2024-05-26T12:03:17.000Z</time>
        <extensions>
          <gpxtpx:TrackPointExtension xmlns:gpxtpx="http://www.garmin.com/xmlschemas/TrackPointExtension/v1">
            <gpxtpx:hr>126</gpxtpx:hr>
          </gpxtpx:TrackPointExtension>
        </extensions>
      </trkpt>
      <trkpt lat="45.67791" lon="3.00936">
        <ele>862</ele>
        <time>2024-05-26T12:03:24.000Z</time>
        <extensions>
          <gpxtpx:TrackPointExtension xmlns:gpxtpx="http://www.garmin.com/xmlschemas/TrackPointExtension/v1">
            <gpxtpx:hr>126</gpxtpx:hr>
          </gpxtpx:TrackPointExtension>
        </extensions>
      </trkpt>
      <trkpt lat="45.67804" lon="3.00933">
        <ele>862.20001220703</ele>
        <time>2024-05-26T12:03:28.000Z</time>
        <extensions>
          <gpxtpx:TrackPointExtension xmlns:gpxtpx="http://www.garmin.com/xmlschemas/TrackPointExtension/v1">
            <gpxtpx:hr>126</gpxtpx:hr>
          </gpxtpx:TrackPointExtension>
        </extensions>
      </trkpt>
      <trkpt lat="45.67816" lon="3.00945">
        <ele>862.79998779297</ele>
        <time>2024-05-26T12:03:32.000Z</time>
        <extensions>
          <gpxtpx:TrackPointExtension xmlns:gpxtpx="http://www.garmin.com/xmlschemas/TrackPointExtension/v1">
            <gpxtpx:hr>125</gpxtpx:hr>
          </gpxtpx:TrackPointExtension>
        </extensions>
      </trkpt>
      <trkpt lat="45.67818" lon="3.00949">
        <ele>863.20001220703</ele>
        <time>2024-05-26T12:03:33.000Z</time>
        <extensions>
          <gpxtpx:TrackPointExtension xmlns:gpxtpx="http://www.garmin.com/xmlschemas/TrackPointExtension/v1">
            <gpxtpx:hr>125</gpxtpx:hr>
          </gpxtpx:TrackPointExtension>
        </extensions>
      </trkpt>
      <trkpt lat="45.67823" lon="3.00968">
        <ele>864.20001220703</ele>
        <time>2024-05-26T12:03:37.000Z</time>
        <extensions>
          <gpxtpx:TrackPointExtension xmlns:gpxtpx="http://www.garmin.com/xmlschemas/TrackPointExtension/v1">
            <gpxtpx:hr>123</gpxtpx:hr>
          </gpxtpx:TrackPointExtension>
        </extensions>
      </trkpt>
      <trkpt lat="45.67823" lon="3.00973">
        <ele>864.40002441406</ele>
        <time>2024-05-26T12:03:38.000Z</time>
        <extensions>
          <gpxtpx:TrackPointExtension xmlns:gpxtpx="http://www.garmin.com/xmlschemas/TrackPointExtension/v1">
            <gpxtpx:hr>123</gpxtpx:hr>
          </gpxtpx:TrackPointExtension>
        </extensions>
      </trkpt>
      <trkpt lat="45.67823" lon="3.00997">
        <ele>865.59997558594</ele>
        <time>2024-05-26T12:03:44.000Z</time>
        <extensions>
          <gpxtpx:TrackPointExtension xmlns:gpxtpx="http://www.garmin.com/xmlschemas/TrackPointExtension/v1">
            <gpxtpx:hr>121</gpxtpx:hr>
          </gpxtpx:TrackPointExtension>
        </extensions>
      </trkpt>
      <trkpt lat="45.67824" lon="3.01012">
        <ele>866.20001220703</ele>
        <time>2024-05-26T12:03:50.000Z</time>
        <extensions>
          <gpxtpx:TrackPointExtension xmlns:gpxtpx="http://www.garmin.com/xmlschemas/TrackPointExtension/v1">
            <gpxtpx:hr>119</gpxtpx:hr>
          </gpxtpx:TrackPointExtension>
        </extensions>
      </trkpt>
      <trkpt lat="45.67825" lon="3.01025">
        <ele>866.79998779297</ele>
        <time>2024-05-26T12:03:54.000Z</time>
        <extensions>
          <gpxtpx:TrackPointExtension xmlns:gpxtpx="http://www.garmin.com/xmlschemas/TrackPointExtension/v1">
            <gpxtpx:hr>121</gpxtpx:hr>
          </gpxtpx:TrackPointExtension>
        </extensions>
      </trkpt>
      <trkpt lat="45.67828" lon="3.01035">
        <ele>867.20001220703</ele>
        <time>2024-05-26T12:03:57.000Z</time>
        <extensions>
          <gpxtpx:TrackPointExtension xmlns:gpxtpx="http://www.garmin.com/xmlschemas/TrackPointExtension/v1">
            <gpxtpx:hr>123</gpxtpx:hr>
          </gpxtpx:TrackPointExtension>
        </extensions>
      </trkpt>
      <trkpt lat="45.67831" lon="3.01046">
        <ele>867.79998779297</ele>
        <time>2024-05-26T12:04:00.000Z</time>
        <extensions>
          <gpxtpx:TrackPointExtension xmlns:gpxtpx="http://www.garmin.com/xmlschemas/TrackPointExtension/v1">
            <gpxtpx:hr>124</gpxtpx:hr>
          </gpxtpx:TrackPointExtension>
        </extensions>
      </trkpt>
      <trkpt lat="45.67836" lon="3.01058">
        <ele>868.40002441406</ele>
        <time>2024-05-26T12:04:04.000Z</time>
        <extensions>
          <gpxtpx:TrackPointExtension xmlns:gpxtpx="http://www.garmin.com/xmlschemas/TrackPointExtension/v1">
            <gpxtpx:hr>124</gpxtpx:hr>
          </gpxtpx:TrackPointExtension>
        </extensions>
      </trkpt>
      <trkpt lat="45.67842" lon="3.01067">
        <ele>869</ele>
        <time>2024-05-26T12:04:08.000Z</time>
        <extensions>
          <gpxtpx:TrackPointExtension xmlns:gpxtpx="http://www.garmin.com/xmlschemas/TrackPointExtension/v1">
            <gpxtpx:hr>124</gpxtpx:hr>
          </gpxtpx:TrackPointExtension>
        </extensions>
      </trkpt>
      <trkpt lat="45.67849" lon="3.01077">
        <ele>869.59997558594</ele>
        <time>2024-05-26T12:04:12.000Z</time>
        <extensions>
          <gpxtpx:TrackPointExtension xmlns:gpxtpx="http://www.garmin.com/xmlschemas/TrackPointExtension/v1">
            <gpxtpx:hr>124</gpxtpx:hr>
          </gpxtpx:TrackPointExtension>
        </extensions>
      </trkpt>
      <trkpt lat="45.67857" lon="3.01088">
        <ele>870.20001220703</ele>
        <time>2024-05-26T12:04:16.000Z</time>
        <extensions>
          <gpxtpx:TrackPointExtension xmlns:gpxtpx="http://www.garmin.com/xmlschemas/TrackPointExtension/v1">
            <gpxtpx:hr>124</gpxtpx:hr>
          </gpxtpx:TrackPointExtension>
        </extensions>
      </trkpt>
      <trkpt lat="45.67862" lon="3.01095">
        <ele>870.59997558594</ele>
        <time>2024-05-26T12:04:19.000Z</time>
        <extensions>
          <gpxtpx:TrackPointExtension xmlns:gpxtpx="http://www.garmin.com/xmlschemas/TrackPointExtension/v1">
            <gpxtpx:hr>124</gpxtpx:hr>
          </gpxtpx:TrackPointExtension>
        </extensions>
      </trkpt>
      <trkpt lat="45.67869" lon="3.01105">
        <ele>871.20001220703</ele>
        <time>2024-05-26T12:04:23.000Z</time>
        <extensions>
          <gpxtpx:TrackPointExtension xmlns:gpxtpx="http://www.garmin.com/xmlschemas/TrackPointExtension/v1">
            <gpxtpx:hr>125</gpxtpx:hr>
          </gpxtpx:TrackPointExtension>
        </extensions>
      </trkpt>
      <trkpt lat="45.67875" lon="3.01115">
        <ele>872</ele>
        <time>2024-05-26T12:04:27.000Z</time>
        <extensions>
          <gpxtpx:TrackPointExtension xmlns:gpxtpx="http://www.garmin.com/xmlschemas/TrackPointExtension/v1">
            <gpxtpx:hr>126</gpxtpx:hr>
          </gpxtpx:TrackPointExtension>
        </extensions>
      </trkpt>
      <trkpt lat="45.67878" lon="3.01119">
        <ele>872.20001220703</ele>
        <time>2024-05-26T12:04:29.000Z</time>
        <extensions>
          <gpxtpx:TrackPointExtension xmlns:gpxtpx="http://www.garmin.com/xmlschemas/TrackPointExtension/v1">
            <gpxtpx:hr>127</gpxtpx:hr>
          </gpxtpx:TrackPointExtension>
        </extensions>
      </trkpt>
      <trkpt lat="45.67886" lon="3.01129">
        <ele>873.20001220703</ele>
        <time>2024-05-26T12:04:34.000Z</time>
        <extensions>
          <gpxtpx:TrackPointExtension xmlns:gpxtpx="http://www.garmin.com/xmlschemas/TrackPointExtension/v1">
            <gpxtpx:hr>126</gpxtpx:hr>
          </gpxtpx:TrackPointExtension>
        </extensions>
      </trkpt>
      <trkpt lat="45.67889" lon="3.01135">
        <ele>873.40002441406</ele>
        <time>2024-05-26T12:04:36.000Z</time>
        <extensions>
          <gpxtpx:TrackPointExtension xmlns:gpxtpx="http://www.garmin.com/xmlschemas/TrackPointExtension/v1">
            <gpxtpx:hr>126</gpxtpx:hr>
          </gpxtpx:TrackPointExtension>
        </extensions>
      </trkpt>
      <trkpt lat="45.67896" lon="3.01142">
        <ele>874</ele>
        <time>2024-05-26T12:04:40.000Z</time>
        <extensions>
          <gpxtpx:TrackPointExtension xmlns:gpxtpx="http://www.garmin.com/xmlschemas/TrackPointExtension/v1">
            <gpxtpx:hr>123</gpxtpx:hr>
          </gpxtpx:TrackPointExtension>
        </extensions>
      </trkpt>
      <trkpt lat="45.67898" lon="3.01143">
        <ele>874.40002441406</ele>
        <time>2024-05-26T12:04:41.000Z</time>
        <extensions>
          <gpxtpx:TrackPointExtension xmlns:gpxtpx="http://www.garmin.com/xmlschemas/TrackPointExtension/v1">
            <gpxtpx:hr>123</gpxtpx:hr>
          </gpxtpx:TrackPointExtension>
        </extensions>
      </trkpt>
      <trkpt lat="45.679" lon="3.01145">
        <ele>874.59997558594</ele>
        <time>2024-05-26T12:04:42.000Z</time>
        <extensions>
          <gpxtpx:TrackPointExtension xmlns:gpxtpx="http://www.garmin.com/xmlschemas/TrackPointExtension/v1">
            <gpxtpx:hr>123</gpxtpx:hr>
          </gpxtpx:TrackPointExtension>
        </extensions>
      </trkpt>
      <trkpt lat="45.67903" lon="3.01147">
        <ele>874.79998779297</ele>
        <time>2024-05-26T12:04:44.000Z</time>
        <extensions>
          <gpxtpx:TrackPointExtension xmlns:gpxtpx="http://www.garmin.com/xmlschemas/TrackPointExtension/v1">
            <gpxtpx:hr>122</gpxtpx:hr>
          </gpxtpx:TrackPointExtension>
        </extensions>
      </trkpt>
      <trkpt lat="45.67908" lon="3.01146">
        <ele>874.79998779297</ele>
        <time>2024-05-26T12:04:46.000Z</time>
        <extensions>
          <gpxtpx:TrackPointExtension xmlns:gpxtpx="http://www.garmin.com/xmlschemas/TrackPointExtension/v1">
            <gpxtpx:hr>122</gpxtpx:hr>
          </gpxtpx:TrackPointExtension>
        </extensions>
      </trkpt>
      <trkpt lat="45.67919" lon="3.01142">
        <ele>875.59997558594</ele>
        <time>2024-05-26T12:04:51.000Z</time>
        <extensions>
          <gpxtpx:TrackPointExtension xmlns:gpxtpx="http://www.garmin.com/xmlschemas/TrackPointExtension/v1">
            <gpxtpx:hr>121</gpxtpx:hr>
          </gpxtpx:TrackPointExtension>
        </extensions>
      </trkpt>
      <trkpt lat="45.67922" lon="3.01139">
        <ele>876</ele>
        <time>2024-05-26T12:04:53.000Z</time>
        <extensions>
          <gpxtpx:TrackPointExtension xmlns:gpxtpx="http://www.garmin.com/xmlschemas/TrackPointExtension/v1">
            <gpxtpx:hr>122</gpxtpx:hr>
          </gpxtpx:TrackPointExtension>
        </extensions>
      </trkpt>
      <trkpt lat="45.67927" lon="3.01132">
        <ele>876.79998779297</ele>
        <time>2024-05-26T12:04:56.000Z</time>
        <extensions>
          <gpxtpx:TrackPointExtension xmlns:gpxtpx="http://www.garmin.com/xmlschemas/TrackPointExtension/v1">
            <gpxtpx:hr>122</gpxtpx:hr>
          </gpxtpx:TrackPointExtension>
        </extensions>
      </trkpt>
      <trkpt lat="45.67929" lon="3.01127">
        <ele>877.20001220703</ele>
        <time>2024-05-26T12:04:58.000Z</time>
        <extensions>
          <gpxtpx:TrackPointExtension xmlns:gpxtpx="http://www.garmin.com/xmlschemas/TrackPointExtension/v1">
            <gpxtpx:hr>120</gpxtpx:hr>
          </gpxtpx:TrackPointExtension>
        </extensions>
      </trkpt>
      <trkpt lat="45.6793" lon="3.01125">
        <ele>877.40002441406</ele>
        <time>2024-05-26T12:04:59.000Z</time>
        <extensions>
          <gpxtpx:TrackPointExtension xmlns:gpxtpx="http://www.garmin.com/xmlschemas/TrackPointExtension/v1">
            <gpxtpx:hr>119</gpxtpx:hr>
          </gpxtpx:TrackPointExtension>
        </extensions>
      </trkpt>
      <trkpt lat="45.67932" lon="3.0112">
        <ele>877.79998779297</ele>
        <time>2024-05-26T12:05:01.000Z</time>
        <extensions>
          <gpxtpx:TrackPointExtension xmlns:gpxtpx="http://www.garmin.com/xmlschemas/TrackPointExtension/v1">
            <gpxtpx:hr>119</gpxtpx:hr>
          </gpxtpx:TrackPointExtension>
        </extensions>
      </trkpt>
      <trkpt lat="45.67932" lon="3.01115">
        <ele>878.20001220703</ele>
        <time>2024-05-26T12:05:03.000Z</time>
        <extensions>
          <gpxtpx:TrackPointExtension xmlns:gpxtpx="http://www.garmin.com/xmlschemas/TrackPointExtension/v1">
            <gpxtpx:hr>119</gpxtpx:hr>
          </gpxtpx:TrackPointExtension>
        </extensions>
      </trkpt>
      <trkpt lat="45.67931" lon="3.01099">
        <ele>879</ele>
        <time>2024-05-26T12:05:08.000Z</time>
        <extensions>
          <gpxtpx:TrackPointExtension xmlns:gpxtpx="http://www.garmin.com/xmlschemas/TrackPointExtension/v1">
            <gpxtpx:hr>120</gpxtpx:hr>
          </gpxtpx:TrackPointExtension>
        </extensions>
      </trkpt>
      <trkpt lat="45.6793" lon="3.01096">
        <ele>879.40002441406</ele>
        <time>2024-05-26T12:05:09.000Z</time>
        <extensions>
          <gpxtpx:TrackPointExtension xmlns:gpxtpx="http://www.garmin.com/xmlschemas/TrackPointExtension/v1">
            <gpxtpx:hr>121</gpxtpx:hr>
          </gpxtpx:TrackPointExtension>
        </extensions>
      </trkpt>
      <trkpt lat="45.6793" lon="3.01086">
        <ele>880</ele>
        <time>2024-05-26T12:05:12.000Z</time>
        <extensions>
          <gpxtpx:TrackPointExtension xmlns:gpxtpx="http://www.garmin.com/xmlschemas/TrackPointExtension/v1">
            <gpxtpx:hr>121</gpxtpx:hr>
          </gpxtpx:TrackPointExtension>
        </extensions>
      </trkpt>
      <trkpt lat="45.67931" lon="3.01071">
        <ele>881</ele>
        <time>2024-05-26T12:05:52.000Z</time>
        <extensions>
          <gpxtpx:TrackPointExtension xmlns:gpxtpx="http://www.garmin.com/xmlschemas/TrackPointExtension/v1">
            <gpxtpx:hr>110</gpxtpx:hr>
          </gpxtpx:TrackPointExtension>
        </extensions>
      </trkpt>
      <trkpt lat="45.67933" lon="3.01065">
        <ele>881.40002441406</ele>
        <time>2024-05-26T12:05:54.000Z</time>
        <extensions>
          <gpxtpx:TrackPointExtension xmlns:gpxtpx="http://www.garmin.com/xmlschemas/TrackPointExtension/v1">
            <gpxtpx:hr>110</gpxtpx:hr>
          </gpxtpx:TrackPointExtension>
        </extensions>
      </trkpt>
      <trkpt lat="45.67933" lon="3.01062">
        <ele>881.40002441406</ele>
        <time>2024-05-26T12:05:55.000Z</time>
        <extensions>
          <gpxtpx:TrackPointExtension xmlns:gpxtpx="http://www.garmin.com/xmlschemas/TrackPointExtension/v1">
            <gpxtpx:hr>110</gpxtpx:hr>
          </gpxtpx:TrackPointExtension>
        </extensions>
      </trkpt>
      <trkpt lat="45.67933" lon="3.01046">
        <ele>882.59997558594</ele>
        <time>2024-05-26T12:05:59.000Z</time>
        <extensions>
          <gpxtpx:TrackPointExtension xmlns:gpxtpx="http://www.garmin.com/xmlschemas/TrackPointExtension/v1">
            <gpxtpx:hr>110</gpxtpx:hr>
          </gpxtpx:TrackPointExtension>
        </extensions>
      </trkpt>
      <trkpt lat="45.67932" lon="3.01039">
        <ele>882.79998779297</ele>
        <time>2024-05-26T12:06:01.000Z</time>
        <extensions>
          <gpxtpx:TrackPointExtension xmlns:gpxtpx="http://www.garmin.com/xmlschemas/TrackPointExtension/v1">
            <gpxtpx:hr>110</gpxtpx:hr>
          </gpxtpx:TrackPointExtension>
        </extensions>
      </trkpt>
      <trkpt lat="45.67929" lon="3.01022">
        <ele>883.59997558594</ele>
        <time>2024-05-26T12:06:05.000Z</time>
        <extensions>
          <gpxtpx:TrackPointExtension xmlns:gpxtpx="http://www.garmin.com/xmlschemas/TrackPointExtension/v1">
            <gpxtpx:hr>112</gpxtpx:hr>
          </gpxtpx:TrackPointExtension>
        </extensions>
      </trkpt>
      <trkpt lat="45.67927" lon="3.01007">
        <ele>884</ele>
        <time>2024-05-26T12:06:08.000Z</time>
        <extensions>
          <gpxtpx:TrackPointExtension xmlns:gpxtpx="http://www.garmin.com/xmlschemas/TrackPointExtension/v1">
            <gpxtpx:hr>114</gpxtpx:hr>
          </gpxtpx:TrackPointExtension>
        </extensions>
      </trkpt>
      <trkpt lat="45.67923" lon="3.00993">
        <ele>884.59997558594</ele>
        <time>2024-05-26T12:06:11.000Z</time>
        <extensions>
          <gpxtpx:TrackPointExtension xmlns:gpxtpx="http://www.garmin.com/xmlschemas/TrackPointExtension/v1">
            <gpxtpx:hr>115</gpxtpx:hr>
          </gpxtpx:TrackPointExtension>
        </extensions>
      </trkpt>
      <trkpt lat="45.67922" lon="3.00988">
        <ele>885</ele>
        <time>2024-05-26T12:06:12.000Z</time>
        <extensions>
          <gpxtpx:TrackPointExtension xmlns:gpxtpx="http://www.garmin.com/xmlschemas/TrackPointExtension/v1">
            <gpxtpx:hr>115</gpxtpx:hr>
          </gpxtpx:TrackPointExtension>
        </extensions>
      </trkpt>
      <trkpt lat="45.6792" lon="3.00979">
        <ele>885.20001220703</ele>
        <time>2024-05-26T12:06:14.000Z</time>
        <extensions>
          <gpxtpx:TrackPointExtension xmlns:gpxtpx="http://www.garmin.com/xmlschemas/TrackPointExtension/v1">
            <gpxtpx:hr>115</gpxtpx:hr>
          </gpxtpx:TrackPointExtension>
        </extensions>
      </trkpt>
      <trkpt lat="45.6792" lon="3.00969">
        <ele>885.79998779297</ele>
        <time>2024-05-26T12:06:16.000Z</time>
        <extensions>
          <gpxtpx:TrackPointExtension xmlns:gpxtpx="http://www.garmin.com/xmlschemas/TrackPointExtension/v1">
            <gpxtpx:hr>115</gpxtpx:hr>
          </gpxtpx:TrackPointExtension>
        </extensions>
      </trkpt>
      <trkpt lat="45.67924" lon="3.00949">
        <ele>886.40002441406</ele>
        <time>2024-05-26T12:06:20.000Z</time>
        <extensions>
          <gpxtpx:TrackPointExtension xmlns:gpxtpx="http://www.garmin.com/xmlschemas/TrackPointExtension/v1">
            <gpxtpx:hr>116</gpxtpx:hr>
          </gpxtpx:TrackPointExtension>
        </extensions>
      </trkpt>
      <trkpt lat="45.67926" lon="3.00945">
        <ele>886.79998779297</ele>
        <time>2024-05-26T12:06:21.000Z</time>
        <extensions>
          <gpxtpx:TrackPointExtension xmlns:gpxtpx="http://www.garmin.com/xmlschemas/TrackPointExtension/v1">
            <gpxtpx:hr>116</gpxtpx:hr>
          </gpxtpx:TrackPointExtension>
        </extensions>
      </trkpt>
      <trkpt lat="45.67935" lon="3.00937">
        <ele>887.79998779297</ele>
        <time>2024-05-26T12:06:24.000Z</time>
        <extensions>
          <gpxtpx:TrackPointExtension xmlns:gpxtpx="http://www.garmin.com/xmlschemas/TrackPointExtension/v1">
            <gpxtpx:hr>115</gpxtpx:hr>
          </gpxtpx:TrackPointExtension>
        </extensions>
      </trkpt>
      <trkpt lat="45.67938" lon="3.00935">
        <ele>888</ele>
        <time>2024-05-26T12:06:25.000Z</time>
        <extensions>
          <gpxtpx:TrackPointExtension xmlns:gpxtpx="http://www.garmin.com/xmlschemas/TrackPointExtension/v1">
            <gpxtpx:hr>116</gpxtpx:hr>
          </gpxtpx:TrackPointExtension>
        </extensions>
      </trkpt>
      <trkpt lat="45.67942" lon="3.00934">
        <ele>888.20001220703</ele>
        <time>2024-05-26T12:06:26.000Z</time>
        <extensions>
          <gpxtpx:TrackPointExtension xmlns:gpxtpx="http://www.garmin.com/xmlschemas/TrackPointExtension/v1">
            <gpxtpx:hr>116</gpxtpx:hr>
          </gpxtpx:TrackPointExtension>
        </extensions>
      </trkpt>
      <trkpt lat="45.67952" lon="3.00934">
        <ele>888.79998779297</ele>
        <time>2024-05-26T12:06:28.000Z</time>
        <extensions>
          <gpxtpx:TrackPointExtension xmlns:gpxtpx="http://www.garmin.com/xmlschemas/TrackPointExtension/v1">
            <gpxtpx:hr>115</gpxtpx:hr>
          </gpxtpx:TrackPointExtension>
        </extensions>
      </trkpt>
      <trkpt lat="45.67957" lon="3.00934">
        <ele>889</ele>
        <time>2024-05-26T12:06:29.000Z</time>
        <extensions>
          <gpxtpx:TrackPointExtension xmlns:gpxtpx="http://www.garmin.com/xmlschemas/TrackPointExtension/v1">
            <gpxtpx:hr>117</gpxtpx:hr>
          </gpxtpx:TrackPointExtension>
        </extensions>
      </trkpt>
      <trkpt lat="45.67971" lon="3.00935">
        <ele>890.40002441406</ele>
        <time>2024-05-26T12:06:32.000Z</time>
        <extensions>
          <gpxtpx:TrackPointExtension xmlns:gpxtpx="http://www.garmin.com/xmlschemas/TrackPointExtension/v1">
            <gpxtpx:hr>115</gpxtpx:hr>
          </gpxtpx:TrackPointExtension>
        </extensions>
      </trkpt>
      <trkpt lat="45.67979" lon="3.00936">
        <ele>891</ele>
        <time>2024-05-26T12:06:34.000Z</time>
        <extensions>
          <gpxtpx:TrackPointExtension xmlns:gpxtpx="http://www.garmin.com/xmlschemas/TrackPointExtension/v1">
            <gpxtpx:hr>115</gpxtpx:hr>
          </gpxtpx:TrackPointExtension>
        </extensions>
      </trkpt>
      <trkpt lat="45.67984" lon="3.00936">
        <ele>891.40002441406</ele>
        <time>2024-05-26T12:06:35.000Z</time>
        <extensions>
          <gpxtpx:TrackPointExtension xmlns:gpxtpx="http://www.garmin.com/xmlschemas/TrackPointExtension/v1">
            <gpxtpx:hr>115</gpxtpx:hr>
          </gpxtpx:TrackPointExtension>
        </extensions>
      </trkpt>
      <trkpt lat="45.67995" lon="3.00936">
        <ele>892</ele>
        <time>2024-05-26T12:06:38.000Z</time>
        <extensions>
          <gpxtpx:TrackPointExtension xmlns:gpxtpx="http://www.garmin.com/xmlschemas/TrackPointExtension/v1">
            <gpxtpx:hr>119</gpxtpx:hr>
          </gpxtpx:TrackPointExtension>
        </extensions>
      </trkpt>
      <trkpt lat="45.68" lon="3.00935">
        <ele>892.20001220703</ele>
        <time>2024-05-26T12:06:39.000Z</time>
        <extensions>
          <gpxtpx:TrackPointExtension xmlns:gpxtpx="http://www.garmin.com/xmlschemas/TrackPointExtension/v1">
            <gpxtpx:hr>116</gpxtpx:hr>
          </gpxtpx:TrackPointExtension>
        </extensions>
      </trkpt>
      <trkpt lat="45.68004" lon="3.00934">
        <ele>892.40002441406</ele>
        <time>2024-05-26T12:06:40.000Z</time>
        <extensions>
          <gpxtpx:TrackPointExtension xmlns:gpxtpx="http://www.garmin.com/xmlschemas/TrackPointExtension/v1">
            <gpxtpx:hr>116</gpxtpx:hr>
          </gpxtpx:TrackPointExtension>
        </extensions>
      </trkpt>
      <trkpt lat="45.68009" lon="3.00935">
        <ele>893.40002441406</ele>
        <time>2024-05-26T12:06:41.000Z</time>
        <extensions>
          <gpxtpx:TrackPointExtension xmlns:gpxtpx="http://www.garmin.com/xmlschemas/TrackPointExtension/v1">
            <gpxtpx:hr>117</gpxtpx:hr>
          </gpxtpx:TrackPointExtension>
        </extensions>
      </trkpt>
      <trkpt lat="45.68018" lon="3.00936">
        <ele>894.40002441406</ele>
        <time>2024-05-26T12:06:43.000Z</time>
        <extensions>
          <gpxtpx:TrackPointExtension xmlns:gpxtpx="http://www.garmin.com/xmlschemas/TrackPointExtension/v1">
            <gpxtpx:hr>117</gpxtpx:hr>
          </gpxtpx:TrackPointExtension>
        </extensions>
      </trkpt>
      <trkpt lat="45.68028" lon="3.00937">
        <ele>894.59997558594</ele>
        <time>2024-05-26T12:06:45.000Z</time>
        <extensions>
          <gpxtpx:TrackPointExtension xmlns:gpxtpx="http://www.garmin.com/xmlschemas/TrackPointExtension/v1">
            <gpxtpx:hr>118</gpxtpx:hr>
          </gpxtpx:TrackPointExtension>
        </extensions>
      </trkpt>
      <trkpt lat="45.68032" lon="3.00937">
        <ele>895</ele>
        <time>2024-05-26T12:06:46.000Z</time>
        <extensions>
          <gpxtpx:TrackPointExtension xmlns:gpxtpx="http://www.garmin.com/xmlschemas/TrackPointExtension/v1">
            <gpxtpx:hr>118</gpxtpx:hr>
          </gpxtpx:TrackPointExtension>
        </extensions>
      </trkpt>
      <trkpt lat="45.68041" lon="3.00936">
        <ele>895.40002441406</ele>
        <time>2024-05-26T12:06:48.000Z</time>
        <extensions>
          <gpxtpx:TrackPointExtension xmlns:gpxtpx="http://www.garmin.com/xmlschemas/TrackPointExtension/v1">
            <gpxtpx:hr>118</gpxtpx:hr>
          </gpxtpx:TrackPointExtension>
        </extensions>
      </trkpt>
      <trkpt lat="45.68046" lon="3.00934">
        <ele>895.79998779297</ele>
        <time>2024-05-26T12:06:49.000Z</time>
        <extensions>
          <gpxtpx:TrackPointExtension xmlns:gpxtpx="http://www.garmin.com/xmlschemas/TrackPointExtension/v1">
            <gpxtpx:hr>119</gpxtpx:hr>
          </gpxtpx:TrackPointExtension>
        </extensions>
      </trkpt>
      <trkpt lat="45.68055" lon="3.00929">
        <ele>896.59997558594</ele>
        <time>2024-05-26T12:06:51.000Z</time>
        <extensions>
          <gpxtpx:TrackPointExtension xmlns:gpxtpx="http://www.garmin.com/xmlschemas/TrackPointExtension/v1">
            <gpxtpx:hr>120</gpxtpx:hr>
          </gpxtpx:TrackPointExtension>
        </extensions>
      </trkpt>
      <trkpt lat="45.68059" lon="3.00926">
        <ele>897</ele>
        <time>2024-05-26T12:06:52.000Z</time>
        <extensions>
          <gpxtpx:TrackPointExtension xmlns:gpxtpx="http://www.garmin.com/xmlschemas/TrackPointExtension/v1">
            <gpxtpx:hr>120</gpxtpx:hr>
          </gpxtpx:TrackPointExtension>
        </extensions>
      </trkpt>
      <trkpt lat="45.68068" lon="3.00921">
        <ele>897.59997558594</ele>
        <time>2024-05-26T12:06:54.000Z</time>
        <extensions>
          <gpxtpx:TrackPointExtension xmlns:gpxtpx="http://www.garmin.com/xmlschemas/TrackPointExtension/v1">
            <gpxtpx:hr>121</gpxtpx:hr>
          </gpxtpx:TrackPointExtension>
        </extensions>
      </trkpt>
      <trkpt lat="45.68072" lon="3.00917">
        <ele>898</ele>
        <time>2024-05-26T12:06:55.000Z</time>
        <extensions>
          <gpxtpx:TrackPointExtension xmlns:gpxtpx="http://www.garmin.com/xmlschemas/TrackPointExtension/v1">
            <gpxtpx:hr>122</gpxtpx:hr>
          </gpxtpx:TrackPointExtension>
        </extensions>
      </trkpt>
      <trkpt lat="45.68076" lon="3.00912">
        <ele>898.20001220703</ele>
        <time>2024-05-26T12:06:56.000Z</time>
        <extensions>
          <gpxtpx:TrackPointExtension xmlns:gpxtpx="http://www.garmin.com/xmlschemas/TrackPointExtension/v1">
            <gpxtpx:hr>122</gpxtpx:hr>
          </gpxtpx:TrackPointExtension>
        </extensions>
      </trkpt>
      <trkpt lat="45.68082" lon="3.00902">
        <ele>898.79998779297</ele>
        <time>2024-05-26T12:06:58.000Z</time>
        <extensions>
          <gpxtpx:TrackPointExtension xmlns:gpxtpx="http://www.garmin.com/xmlschemas/TrackPointExtension/v1">
            <gpxtpx:hr>122</gpxtpx:hr>
          </gpxtpx:TrackPointExtension>
        </extensions>
      </trkpt>
      <trkpt lat="45.68084" lon="3.00896">
        <ele>899.20001220703</ele>
        <time>2024-05-26T12:06:59.000Z</time>
        <extensions>
          <gpxtpx:TrackPointExtension xmlns:gpxtpx="http://www.garmin.com/xmlschemas/TrackPointExtension/v1">
            <gpxtpx:hr>124</gpxtpx:hr>
          </gpxtpx:TrackPointExtension>
        </extensions>
      </trkpt>
      <trkpt lat="45.68087" lon="3.0089">
        <ele>899.59997558594</ele>
        <time>2024-05-26T12:07:00.000Z</time>
        <extensions>
          <gpxtpx:TrackPointExtension xmlns:gpxtpx="http://www.garmin.com/xmlschemas/TrackPointExtension/v1">
            <gpxtpx:hr>125</gpxtpx:hr>
          </gpxtpx:TrackPointExtension>
        </extensions>
      </trkpt>
      <trkpt lat="45.68089" lon="3.00887">
        <ele>899.79998779297</ele>
        <time>2024-05-26T12:07:01.000Z</time>
        <extensions>
          <gpxtpx:TrackPointExtension xmlns:gpxtpx="http://www.garmin.com/xmlschemas/TrackPointExtension/v1">
            <gpxtpx:hr>126</gpxtpx:hr>
          </gpxtpx:TrackPointExtension>
        </extensions>
      </trkpt>
      <trkpt lat="45.68094" lon="3.00883">
        <ele>900.20001220703</ele>
        <time>2024-05-26T12:07:02.000Z</time>
        <extensions>
          <gpxtpx:TrackPointExtension xmlns:gpxtpx="http://www.garmin.com/xmlschemas/TrackPointExtension/v1">
            <gpxtpx:hr>126</gpxtpx:hr>
          </gpxtpx:TrackPointExtension>
        </extensions>
      </trkpt>
      <trkpt lat="45.68099" lon="3.00879">
        <ele>900.40002441406</ele>
        <time>2024-05-26T12:07:03.000Z</time>
        <extensions>
          <gpxtpx:TrackPointExtension xmlns:gpxtpx="http://www.garmin.com/xmlschemas/TrackPointExtension/v1">
            <gpxtpx:hr>126</gpxtpx:hr>
          </gpxtpx:TrackPointExtension>
        </extensions>
      </trkpt>
      <trkpt lat="45.68107" lon="3.00875">
        <ele>901.59997558594</ele>
        <time>2024-05-26T12:07:05.000Z</time>
        <extensions>
          <gpxtpx:TrackPointExtension xmlns:gpxtpx="http://www.garmin.com/xmlschemas/TrackPointExtension/v1">
            <gpxtpx:hr>127</gpxtpx:hr>
          </gpxtpx:TrackPointExtension>
        </extensions>
      </trkpt>
      <trkpt lat="45.68119" lon="3.00879">
        <ele>902.59997558594</ele>
        <time>2024-05-26T12:07:08.000Z</time>
        <extensions>
          <gpxtpx:TrackPointExtension xmlns:gpxtpx="http://www.garmin.com/xmlschemas/TrackPointExtension/v1">
            <gpxtpx:hr>128</gpxtpx:hr>
          </gpxtpx:TrackPointExtension>
        </extensions>
      </trkpt>
      <trkpt lat="45.6813" lon="3.00892">
        <ele>904</ele>
        <time>2024-05-26T12:07:11.000Z</time>
        <extensions>
          <gpxtpx:TrackPointExtension xmlns:gpxtpx="http://www.garmin.com/xmlschemas/TrackPointExtension/v1">
            <gpxtpx:hr>130</gpxtpx:hr>
          </gpxtpx:TrackPointExtension>
        </extensions>
      </trkpt>
      <trkpt lat="45.68133" lon="3.009">
        <ele>904.40002441406</ele>
        <time>2024-05-26T12:07:12.000Z</time>
        <extensions>
          <gpxtpx:TrackPointExtension xmlns:gpxtpx="http://www.garmin.com/xmlschemas/TrackPointExtension/v1">
            <gpxtpx:hr>130</gpxtpx:hr>
          </gpxtpx:TrackPointExtension>
        </extensions>
      </trkpt>
      <trkpt lat="45.68137" lon="3.00915">
        <ele>905.20001220703</ele>
        <time>2024-05-26T12:07:14.000Z</time>
        <extensions>
          <gpxtpx:TrackPointExtension xmlns:gpxtpx="http://www.garmin.com/xmlschemas/TrackPointExtension/v1">
            <gpxtpx:hr>132</gpxtpx:hr>
          </gpxtpx:TrackPointExtension>
        </extensions>
      </trkpt>
      <trkpt lat="45.68139" lon="3.00931">
        <ele>905.79998779297</ele>
        <time>2024-05-26T12:07:16.000Z</time>
        <extensions>
          <gpxtpx:TrackPointExtension xmlns:gpxtpx="http://www.garmin.com/xmlschemas/TrackPointExtension/v1">
            <gpxtpx:hr>133</gpxtpx:hr>
          </gpxtpx:TrackPointExtension>
        </extensions>
      </trkpt>
      <trkpt lat="45.68141" lon="3.0094">
        <ele>906.40002441406</ele>
        <time>2024-05-26T12:07:17.000Z</time>
        <extensions>
          <gpxtpx:TrackPointExtension xmlns:gpxtpx="http://www.garmin.com/xmlschemas/TrackPointExtension/v1">
            <gpxtpx:hr>133</gpxtpx:hr>
          </gpxtpx:TrackPointExtension>
        </extensions>
      </trkpt>
      <trkpt lat="45.68142" lon="3.00948">
        <ele>906.59997558594</ele>
        <time>2024-05-26T12:07:18.000Z</time>
        <extensions>
          <gpxtpx:TrackPointExtension xmlns:gpxtpx="http://www.garmin.com/xmlschemas/TrackPointExtension/v1">
            <gpxtpx:hr>134</gpxtpx:hr>
          </gpxtpx:TrackPointExtension>
        </extensions>
      </trkpt>
      <trkpt lat="45.68147" lon="3.00984">
        <ele>907.40002441406</ele>
        <time>2024-05-26T12:07:22.000Z</time>
        <extensions>
          <gpxtpx:TrackPointExtension xmlns:gpxtpx="http://www.garmin.com/xmlschemas/TrackPointExtension/v1">
            <gpxtpx:hr>135</gpxtpx:hr>
          </gpxtpx:TrackPointExtension>
        </extensions>
      </trkpt>
      <trkpt lat="45.68148" lon="3.00993">
        <ele>907.79998779297</ele>
        <time>2024-05-26T12:07:23.000Z</time>
        <extensions>
          <gpxtpx:TrackPointExtension xmlns:gpxtpx="http://www.garmin.com/xmlschemas/TrackPointExtension/v1">
            <gpxtpx:hr>135</gpxtpx:hr>
          </gpxtpx:TrackPointExtension>
        </extensions>
      </trkpt>
      <trkpt lat="45.68153" lon="3.01027">
        <ele>908.40002441406</ele>
        <time>2024-05-26T12:07:27.000Z</time>
        <extensions>
          <gpxtpx:TrackPointExtension xmlns:gpxtpx="http://www.garmin.com/xmlschemas/TrackPointExtension/v1">
            <gpxtpx:hr>136</gpxtpx:hr>
          </gpxtpx:TrackPointExtension>
        </extensions>
      </trkpt>
      <trkpt lat="45.68156" lon="3.01044">
        <ele>909.40002441406</ele>
        <time>2024-05-26T12:07:29.000Z</time>
        <extensions>
          <gpxtpx:TrackPointExtension xmlns:gpxtpx="http://www.garmin.com/xmlschemas/TrackPointExtension/v1">
            <gpxtpx:hr>136</gpxtpx:hr>
          </gpxtpx:TrackPointExtension>
        </extensions>
      </trkpt>
      <trkpt lat="45.68157" lon="3.01053">
        <ele>909.59997558594</ele>
        <time>2024-05-26T12:07:30.000Z</time>
        <extensions>
          <gpxtpx:TrackPointExtension xmlns:gpxtpx="http://www.garmin.com/xmlschemas/TrackPointExtension/v1">
            <gpxtpx:hr>136</gpxtpx:hr>
          </gpxtpx:TrackPointExtension>
        </extensions>
      </trkpt>
      <trkpt lat="45.68157" lon="3.01061">
        <ele>909.79998779297</ele>
        <time>2024-05-26T12:07:31.000Z</time>
        <extensions>
          <gpxtpx:TrackPointExtension xmlns:gpxtpx="http://www.garmin.com/xmlschemas/TrackPointExtension/v1">
            <gpxtpx:hr>136</gpxtpx:hr>
          </gpxtpx:TrackPointExtension>
        </extensions>
      </trkpt>
      <trkpt lat="45.68157" lon="3.01075">
        <ele>910.40002441406</ele>
        <time>2024-05-26T12:07:33.000Z</time>
        <extensions>
          <gpxtpx:TrackPointExtension xmlns:gpxtpx="http://www.garmin.com/xmlschemas/TrackPointExtension/v1">
            <gpxtpx:hr>137</gpxtpx:hr>
          </gpxtpx:TrackPointExtension>
        </extensions>
      </trkpt>
      <trkpt lat="45.68157" lon="3.01084">
        <ele>910.59997558594</ele>
        <time>2024-05-26T12:07:34.000Z</time>
        <extensions>
          <gpxtpx:TrackPointExtension xmlns:gpxtpx="http://www.garmin.com/xmlschemas/TrackPointExtension/v1">
            <gpxtpx:hr>138</gpxtpx:hr>
          </gpxtpx:TrackPointExtension>
        </extensions>
      </trkpt>
      <trkpt lat="45.68154" lon="3.01115">
        <ele>912.20001220703</ele>
        <time>2024-05-26T12:07:38.000Z</time>
        <extensions>
          <gpxtpx:TrackPointExtension xmlns:gpxtpx="http://www.garmin.com/xmlschemas/TrackPointExtension/v1">
            <gpxtpx:hr>139</gpxtpx:hr>
          </gpxtpx:TrackPointExtension>
        </extensions>
      </trkpt>
      <trkpt lat="45.68151" lon="3.01146">
        <ele>913.59997558594</ele>
        <time>2024-05-26T12:07:42.000Z</time>
        <extensions>
          <gpxtpx:TrackPointExtension xmlns:gpxtpx="http://www.garmin.com/xmlschemas/TrackPointExtension/v1">
            <gpxtpx:hr>138</gpxtpx:hr>
          </gpxtpx:TrackPointExtension>
        </extensions>
      </trkpt>
      <trkpt lat="45.6815" lon="3.01154">
        <ele>913.79998779297</ele>
        <time>2024-05-26T12:07:43.000Z</time>
        <extensions>
          <gpxtpx:TrackPointExtension xmlns:gpxtpx="http://www.garmin.com/xmlschemas/TrackPointExtension/v1">
            <gpxtpx:hr>138</gpxtpx:hr>
          </gpxtpx:TrackPointExtension>
        </extensions>
      </trkpt>
      <trkpt lat="45.68148" lon="3.01161">
        <ele>914.20001220703</ele>
        <time>2024-05-26T12:07:44.000Z</time>
        <extensions>
          <gpxtpx:TrackPointExtension xmlns:gpxtpx="http://www.garmin.com/xmlschemas/TrackPointExtension/v1">
            <gpxtpx:hr>138</gpxtpx:hr>
          </gpxtpx:TrackPointExtension>
        </extensions>
      </trkpt>
      <trkpt lat="45.68146" lon="3.01168">
        <ele>914.59997558594</ele>
        <time>2024-05-26T12:07:45.000Z</time>
        <extensions>
          <gpxtpx:TrackPointExtension xmlns:gpxtpx="http://www.garmin.com/xmlschemas/TrackPointExtension/v1">
            <gpxtpx:hr>139</gpxtpx:hr>
          </gpxtpx:TrackPointExtension>
        </extensions>
      </trkpt>
      <trkpt lat="45.68141" lon="3.01181">
        <ele>915.59997558594</ele>
        <time>2024-05-26T12:07:47.000Z</time>
        <extensions>
          <gpxtpx:TrackPointExtension xmlns:gpxtpx="http://www.garmin.com/xmlschemas/TrackPointExtension/v1">
            <gpxtpx:hr>140</gpxtpx:hr>
          </gpxtpx:TrackPointExtension>
        </extensions>
      </trkpt>
      <trkpt lat="45.68136" lon="3.01194">
        <ele>916</ele>
        <time>2024-05-26T12:07:49.000Z</time>
        <extensions>
          <gpxtpx:TrackPointExtension xmlns:gpxtpx="http://www.garmin.com/xmlschemas/TrackPointExtension/v1">
            <gpxtpx:hr>142</gpxtpx:hr>
          </gpxtpx:TrackPointExtension>
        </extensions>
      </trkpt>
      <trkpt lat="45.68131" lon="3.01207">
        <ele>916.79998779297</ele>
        <time>2024-05-26T12:07:51.000Z</time>
        <extensions>
          <gpxtpx:TrackPointExtension xmlns:gpxtpx="http://www.garmin.com/xmlschemas/TrackPointExtension/v1">
            <gpxtpx:hr>143</gpxtpx:hr>
          </gpxtpx:TrackPointExtension>
        </extensions>
      </trkpt>
      <trkpt lat="45.68122" lon="3.01224">
        <ele>917.59997558594</ele>
        <time>2024-05-26T12:07:54.000Z</time>
        <extensions>
          <gpxtpx:TrackPointExtension xmlns:gpxtpx="http://www.garmin.com/xmlschemas/TrackPointExtension/v1">
            <gpxtpx:hr>144</gpxtpx:hr>
          </gpxtpx:TrackPointExtension>
        </extensions>
      </trkpt>
      <trkpt lat="45.68119" lon="3.0123">
        <ele>918</ele>
        <time>2024-05-26T12:07:55.000Z</time>
        <extensions>
          <gpxtpx:TrackPointExtension xmlns:gpxtpx="http://www.garmin.com/xmlschemas/TrackPointExtension/v1">
            <gpxtpx:hr>144</gpxtpx:hr>
          </gpxtpx:TrackPointExtension>
        </extensions>
      </trkpt>
      <trkpt lat="45.68111" lon="3.01249">
        <ele>919</ele>
        <time>2024-05-26T12:07:58.000Z</time>
        <extensions>
          <gpxtpx:TrackPointExtension xmlns:gpxtpx="http://www.garmin.com/xmlschemas/TrackPointExtension/v1">
            <gpxtpx:hr>144</gpxtpx:hr>
          </gpxtpx:TrackPointExtension>
        </extensions>
      </trkpt>
      <trkpt lat="45.68108" lon="3.01255">
        <ele>919.20001220703</ele>
        <time>2024-05-26T12:07:59.000Z</time>
        <extensions>
          <gpxtpx:TrackPointExtension xmlns:gpxtpx="http://www.garmin.com/xmlschemas/TrackPointExtension/v1">
            <gpxtpx:hr>144</gpxtpx:hr>
          </gpxtpx:TrackPointExtension>
        </extensions>
      </trkpt>
      <trkpt lat="45.68107" lon="3.01258">
        <ele>920</ele>
        <time>2024-05-26T12:08:00.000Z</time>
        <extensions>
          <gpxtpx:TrackPointExtension xmlns:gpxtpx="http://www.garmin.com/xmlschemas/TrackPointExtension/v1">
            <gpxtpx:hr>144</gpxtpx:hr>
          </gpxtpx:TrackPointExtension>
        </extensions>
      </trkpt>
      <trkpt lat="45.68105" lon="3.01263">
        <ele>920.59997558594</ele>
        <time>2024-05-26T12:08:01.000Z</time>
        <extensions>
          <gpxtpx:TrackPointExtension xmlns:gpxtpx="http://www.garmin.com/xmlschemas/TrackPointExtension/v1">
            <gpxtpx:hr>144</gpxtpx:hr>
          </gpxtpx:TrackPointExtension>
        </extensions>
      </trkpt>
      <trkpt lat="45.68102" lon="3.01274">
        <ele>921</ele>
        <time>2024-05-26T12:08:04.000Z</time>
        <extensions>
          <gpxtpx:TrackPointExtension xmlns:gpxtpx="http://www.garmin.com/xmlschemas/TrackPointExtension/v1">
            <gpxtpx:hr>141</gpxtpx:hr>
          </gpxtpx:TrackPointExtension>
        </extensions>
      </trkpt>
      <trkpt lat="45.68102" lon="3.01277">
        <ele>921</ele>
        <time>2024-05-26T12:08:05.000Z</time>
        <extensions>
          <gpxtpx:TrackPointExtension xmlns:gpxtpx="http://www.garmin.com/xmlschemas/TrackPointExtension/v1">
            <gpxtpx:hr>141</gpxtpx:hr>
          </gpxtpx:TrackPointExtension>
        </extensions>
      </trkpt>
      <trkpt lat="45.68101" lon="3.01286">
        <ele>921.40002441406</ele>
        <time>2024-05-26T12:08:08.000Z</time>
        <extensions>
          <gpxtpx:TrackPointExtension xmlns:gpxtpx="http://www.garmin.com/xmlschemas/TrackPointExtension/v1">
            <gpxtpx:hr>140</gpxtpx:hr>
          </gpxtpx:TrackPointExtension>
        </extensions>
      </trkpt>
      <trkpt lat="45.681" lon="3.01289">
        <ele>921.59997558594</ele>
        <time>2024-05-26T12:08:09.000Z</time>
        <extensions>
          <gpxtpx:TrackPointExtension xmlns:gpxtpx="http://www.garmin.com/xmlschemas/TrackPointExtension/v1">
            <gpxtpx:hr>136</gpxtpx:hr>
          </gpxtpx:TrackPointExtension>
        </extensions>
      </trkpt>
      <trkpt lat="45.68099" lon="3.01292">
        <ele>921.79998779297</ele>
        <time>2024-05-26T12:08:10.000Z</time>
        <extensions>
          <gpxtpx:TrackPointExtension xmlns:gpxtpx="http://www.garmin.com/xmlschemas/TrackPointExtension/v1">
            <gpxtpx:hr>134</gpxtpx:hr>
          </gpxtpx:TrackPointExtension>
        </extensions>
      </trkpt>
      <trkpt lat="45.68099" lon="3.01305">
        <ele>922</ele>
        <time>2024-05-26T12:08:14.000Z</time>
        <extensions>
          <gpxtpx:TrackPointExtension xmlns:gpxtpx="http://www.garmin.com/xmlschemas/TrackPointExtension/v1">
            <gpxtpx:hr>136</gpxtpx:hr>
          </gpxtpx:TrackPointExtension>
        </extensions>
      </trkpt>
      <trkpt lat="45.68098" lon="3.01309">
        <ele>922</ele>
        <time>2024-05-26T12:08:15.000Z</time>
        <extensions>
          <gpxtpx:TrackPointExtension xmlns:gpxtpx="http://www.garmin.com/xmlschemas/TrackPointExtension/v1">
            <gpxtpx:hr>133</gpxtpx:hr>
          </gpxtpx:TrackPointExtension>
        </extensions>
      </trkpt>
      <trkpt lat="45.68096" lon="3.01319">
        <ele>923</ele>
        <time>2024-05-26T12:08:18.000Z</time>
        <extensions>
          <gpxtpx:TrackPointExtension xmlns:gpxtpx="http://www.garmin.com/xmlschemas/TrackPointExtension/v1">
            <gpxtpx:hr>131</gpxtpx:hr>
          </gpxtpx:TrackPointExtension>
        </extensions>
      </trkpt>
      <trkpt lat="45.68092" lon="3.01328">
        <ele>923.40002441406</ele>
        <time>2024-05-26T12:08:21.000Z</time>
        <extensions>
          <gpxtpx:TrackPointExtension xmlns:gpxtpx="http://www.garmin.com/xmlschemas/TrackPointExtension/v1">
            <gpxtpx:hr>129</gpxtpx:hr>
          </gpxtpx:TrackPointExtension>
        </extensions>
      </trkpt>
      <trkpt lat="45.68091" lon="3.01343">
        <ele>924.20001220703</ele>
        <time>2024-05-26T12:08:25.000Z</time>
        <extensions>
          <gpxtpx:TrackPointExtension xmlns:gpxtpx="http://www.garmin.com/xmlschemas/TrackPointExtension/v1">
            <gpxtpx:hr>129</gpxtpx:hr>
          </gpxtpx:TrackPointExtension>
        </extensions>
      </trkpt>
      <trkpt lat="45.6809" lon="3.01347">
        <ele>924.59997558594</ele>
        <time>2024-05-26T12:08:26.000Z</time>
        <extensions>
          <gpxtpx:TrackPointExtension xmlns:gpxtpx="http://www.garmin.com/xmlschemas/TrackPointExtension/v1">
            <gpxtpx:hr>129</gpxtpx:hr>
          </gpxtpx:TrackPointExtension>
        </extensions>
      </trkpt>
      <trkpt lat="45.68087" lon="3.0136">
        <ele>925.20001220703</ele>
        <time>2024-05-26T12:08:30.000Z</time>
        <extensions>
          <gpxtpx:TrackPointExtension xmlns:gpxtpx="http://www.garmin.com/xmlschemas/TrackPointExtension/v1">
            <gpxtpx:hr>129</gpxtpx:hr>
          </gpxtpx:TrackPointExtension>
        </extensions>
      </trkpt>
      <trkpt lat="45.68088" lon="3.01371">
        <ele>925.79998779297</ele>
        <time>2024-05-26T12:08:33.000Z</time>
        <extensions>
          <gpxtpx:TrackPointExtension xmlns:gpxtpx="http://www.garmin.com/xmlschemas/TrackPointExtension/v1">
            <gpxtpx:hr>128</gpxtpx:hr>
          </gpxtpx:TrackPointExtension>
        </extensions>
      </trkpt>
      <trkpt lat="45.68087" lon="3.01381">
        <ele>926.20001220703</ele>
        <time>2024-05-26T12:08:36.000Z</time>
        <extensions>
          <gpxtpx:TrackPointExtension xmlns:gpxtpx="http://www.garmin.com/xmlschemas/TrackPointExtension/v1">
            <gpxtpx:hr>130</gpxtpx:hr>
          </gpxtpx:TrackPointExtension>
        </extensions>
      </trkpt>
      <trkpt lat="45.68088" lon="3.01394">
        <ele>927</ele>
        <time>2024-05-26T12:08:40.000Z</time>
        <extensions>
          <gpxtpx:TrackPointExtension xmlns:gpxtpx="http://www.garmin.com/xmlschemas/TrackPointExtension/v1">
            <gpxtpx:hr>132</gpxtpx:hr>
          </gpxtpx:TrackPointExtension>
        </extensions>
      </trkpt>
      <trkpt lat="45.6809" lon="3.01406">
        <ele>927.40002441406</ele>
        <time>2024-05-26T12:08:43.000Z</time>
        <extensions>
          <gpxtpx:TrackPointExtension xmlns:gpxtpx="http://www.garmin.com/xmlschemas/TrackPointExtension/v1">
            <gpxtpx:hr>131</gpxtpx:hr>
          </gpxtpx:TrackPointExtension>
        </extensions>
      </trkpt>
      <trkpt lat="45.68092" lon="3.01418">
        <ele>928</ele>
        <time>2024-05-26T12:08:46.000Z</time>
        <extensions>
          <gpxtpx:TrackPointExtension xmlns:gpxtpx="http://www.garmin.com/xmlschemas/TrackPointExtension/v1">
            <gpxtpx:hr>132</gpxtpx:hr>
          </gpxtpx:TrackPointExtension>
        </extensions>
      </trkpt>
      <trkpt lat="45.68094" lon="3.0143">
        <ele>928.40002441406</ele>
        <time>2024-05-26T12:08:49.000Z</time>
        <extensions>
          <gpxtpx:TrackPointExtension xmlns:gpxtpx="http://www.garmin.com/xmlschemas/TrackPointExtension/v1">
            <gpxtpx:hr>134</gpxtpx:hr>
          </gpxtpx:TrackPointExtension>
        </extensions>
      </trkpt>
      <trkpt lat="45.68099" lon="3.01446">
        <ele>929.59997558594</ele>
        <time>2024-05-26T12:08:53.000Z</time>
        <extensions>
          <gpxtpx:TrackPointExtension xmlns:gpxtpx="http://www.garmin.com/xmlschemas/TrackPointExtension/v1">
            <gpxtpx:hr>135</gpxtpx:hr>
          </gpxtpx:TrackPointExtension>
        </extensions>
      </trkpt>
      <trkpt lat="45.68101" lon="3.01454">
        <ele>929.79998779297</ele>
        <time>2024-05-26T12:08:55.000Z</time>
        <extensions>
          <gpxtpx:TrackPointExtension xmlns:gpxtpx="http://www.garmin.com/xmlschemas/TrackPointExtension/v1">
            <gpxtpx:hr>134</gpxtpx:hr>
          </gpxtpx:TrackPointExtension>
        </extensions>
      </trkpt>
      <trkpt lat="45.68108" lon="3.01474">
        <ele>930.79998779297</ele>
        <time>2024-05-26T12:09:00.000Z</time>
        <extensions>
          <gpxtpx:TrackPointExtension xmlns:gpxtpx="http://www.garmin.com/xmlschemas/TrackPointExtension/v1">
            <gpxtpx:hr>134</gpxtpx:hr>
          </gpxtpx:TrackPointExtension>
        </extensions>
      </trkpt>
      <trkpt lat="45.68117" lon="3.01502">
        <ele>931.79998779297</ele>
        <time>2024-05-26T12:09:06.000Z</time>
        <extensions>
          <gpxtpx:TrackPointExtension xmlns:gpxtpx="http://www.garmin.com/xmlschemas/TrackPointExtension/v1">
            <gpxtpx:hr>135</gpxtpx:hr>
          </gpxtpx:TrackPointExtension>
        </extensions>
      </trkpt>
      <trkpt lat="45.68123" lon="3.01528">
        <ele>932.79998779297</ele>
        <time>2024-05-26T12:09:11.000Z</time>
        <extensions>
          <gpxtpx:TrackPointExtension xmlns:gpxtpx="http://www.garmin.com/xmlschemas/TrackPointExtension/v1">
            <gpxtpx:hr>137</gpxtpx:hr>
          </gpxtpx:TrackPointExtension>
        </extensions>
      </trkpt>
      <trkpt lat="45.68125" lon="3.01547">
        <ele>933.59997558594</ele>
        <time>2024-05-26T12:09:15.000Z</time>
        <extensions>
          <gpxtpx:TrackPointExtension xmlns:gpxtpx="http://www.garmin.com/xmlschemas/TrackPointExtension/v1">
            <gpxtpx:hr>140</gpxtpx:hr>
          </gpxtpx:TrackPointExtension>
        </extensions>
      </trkpt>
      <trkpt lat="45.68127" lon="3.01564">
        <ele>934</ele>
        <time>2024-05-26T12:09:19.000Z</time>
        <extensions>
          <gpxtpx:TrackPointExtension xmlns:gpxtpx="http://www.garmin.com/xmlschemas/TrackPointExtension/v1">
            <gpxtpx:hr>139</gpxtpx:hr>
          </gpxtpx:TrackPointExtension>
        </extensions>
      </trkpt>
      <trkpt lat="45.68129" lon="3.01577">
        <ele>934.59997558594</ele>
        <time>2024-05-26T12:09:22.000Z</time>
        <extensions>
          <gpxtpx:TrackPointExtension xmlns:gpxtpx="http://www.garmin.com/xmlschemas/TrackPointExtension/v1">
            <gpxtpx:hr>139</gpxtpx:hr>
          </gpxtpx:TrackPointExtension>
        </extensions>
      </trkpt>
      <trkpt lat="45.68129" lon="3.01592">
        <ele>935</ele>
        <time>2024-05-26T12:09:25.000Z</time>
        <extensions>
          <gpxtpx:TrackPointExtension xmlns:gpxtpx="http://www.garmin.com/xmlschemas/TrackPointExtension/v1">
            <gpxtpx:hr>139</gpxtpx:hr>
          </gpxtpx:TrackPointExtension>
        </extensions>
      </trkpt>
      <trkpt lat="45.6813" lon="3.01612">
        <ele>936</ele>
        <time>2024-05-26T12:09:29.000Z</time>
        <extensions>
          <gpxtpx:TrackPointExtension xmlns:gpxtpx="http://www.garmin.com/xmlschemas/TrackPointExtension/v1">
            <gpxtpx:hr>139</gpxtpx:hr>
          </gpxtpx:TrackPointExtension>
        </extensions>
      </trkpt>
      <trkpt lat="45.68129" lon="3.01617">
        <ele>936</ele>
        <time>2024-05-26T12:09:30.000Z</time>
        <extensions>
          <gpxtpx:TrackPointExtension xmlns:gpxtpx="http://www.garmin.com/xmlschemas/TrackPointExtension/v1">
            <gpxtpx:hr>139</gpxtpx:hr>
          </gpxtpx:TrackPointExtension>
        </extensions>
      </trkpt>
      <trkpt lat="45.68127" lon="3.01637">
        <ele>936.40002441406</ele>
        <time>2024-05-26T12:09:35.000Z</time>
        <extensions>
          <gpxtpx:TrackPointExtension xmlns:gpxtpx="http://www.garmin.com/xmlschemas/TrackPointExtension/v1">
            <gpxtpx:hr>136</gpxtpx:hr>
          </gpxtpx:TrackPointExtension>
        </extensions>
      </trkpt>
      <trkpt lat="45.68127" lon="3.01641">
        <ele>936.40002441406</ele>
        <time>2024-05-26T12:09:36.000Z</time>
        <extensions>
          <gpxtpx:TrackPointExtension xmlns:gpxtpx="http://www.garmin.com/xmlschemas/TrackPointExtension/v1">
            <gpxtpx:hr>135</gpxtpx:hr>
          </gpxtpx:TrackPointExtension>
        </extensions>
      </trkpt>
      <trkpt lat="45.68126" lon="3.0165">
        <ele>936.59997558594</ele>
        <time>2024-05-26T12:09:38.000Z</time>
        <extensions>
          <gpxtpx:TrackPointExtension xmlns:gpxtpx="http://www.garmin.com/xmlschemas/TrackPointExtension/v1">
            <gpxtpx:hr>132</gpxtpx:hr>
          </gpxtpx:TrackPointExtension>
        </extensions>
      </trkpt>
      <trkpt lat="45.68126" lon="3.01654">
        <ele>937.40002441406</ele>
        <time>2024-05-26T12:09:39.000Z</time>
        <extensions>
          <gpxtpx:TrackPointExtension xmlns:gpxtpx="http://www.garmin.com/xmlschemas/TrackPointExtension/v1">
            <gpxtpx:hr>132</gpxtpx:hr>
          </gpxtpx:TrackPointExtension>
        </extensions>
      </trkpt>
      <trkpt lat="45.68124" lon="3.01675">
        <ele>938</ele>
        <time>2024-05-26T12:09:44.000Z</time>
        <extensions>
          <gpxtpx:TrackPointExtension xmlns:gpxtpx="http://www.garmin.com/xmlschemas/TrackPointExtension/v1">
            <gpxtpx:hr>131</gpxtpx:hr>
          </gpxtpx:TrackPointExtension>
        </extensions>
      </trkpt>
      <trkpt lat="45.68124" lon="3.01683">
        <ele>938.59997558594</ele>
        <time>2024-05-26T12:09:46.000Z</time>
        <extensions>
          <gpxtpx:TrackPointExtension xmlns:gpxtpx="http://www.garmin.com/xmlschemas/TrackPointExtension/v1">
            <gpxtpx:hr>131</gpxtpx:hr>
          </gpxtpx:TrackPointExtension>
        </extensions>
      </trkpt>
      <trkpt lat="45.68124" lon="3.01708">
        <ele>939.20001220703</ele>
        <time>2024-05-26T12:09:52.000Z</time>
        <extensions>
          <gpxtpx:TrackPointExtension xmlns:gpxtpx="http://www.garmin.com/xmlschemas/TrackPointExtension/v1">
            <gpxtpx:hr>131</gpxtpx:hr>
          </gpxtpx:TrackPointExtension>
        </extensions>
      </trkpt>
      <trkpt lat="45.68124" lon="3.01717">
        <ele>939.79998779297</ele>
        <time>2024-05-26T12:09:54.000Z</time>
        <extensions>
          <gpxtpx:TrackPointExtension xmlns:gpxtpx="http://www.garmin.com/xmlschemas/TrackPointExtension/v1">
            <gpxtpx:hr>131</gpxtpx:hr>
          </gpxtpx:TrackPointExtension>
        </extensions>
      </trkpt>
      <trkpt lat="45.68127" lon="3.01738">
        <ele>940.59997558594</ele>
        <time>2024-05-26T12:09:59.000Z</time>
        <extensions>
          <gpxtpx:TrackPointExtension xmlns:gpxtpx="http://www.garmin.com/xmlschemas/TrackPointExtension/v1">
            <gpxtpx:hr>134</gpxtpx:hr>
          </gpxtpx:TrackPointExtension>
        </extensions>
      </trkpt>
      <trkpt lat="45.68127" lon="3.01742">
        <ele>941</ele>
        <time>2024-05-26T12:10:00.000Z</time>
        <extensions>
          <gpxtpx:TrackPointExtension xmlns:gpxtpx="http://www.garmin.com/xmlschemas/TrackPointExtension/v1">
            <gpxtpx:hr>135</gpxtpx:hr>
          </gpxtpx:TrackPointExtension>
        </extensions>
      </trkpt>
      <trkpt lat="45.68129" lon="3.01774">
        <ele>942.20001220703</ele>
        <time>2024-05-26T12:10:07.000Z</time>
        <extensions>
          <gpxtpx:TrackPointExtension xmlns:gpxtpx="http://www.garmin.com/xmlschemas/TrackPointExtension/v1">
            <gpxtpx:hr>137</gpxtpx:hr>
          </gpxtpx:TrackPointExtension>
        </extensions>
      </trkpt>
      <trkpt lat="45.68131" lon="3.01784">
        <ele>943.40002441406</ele>
        <time>2024-05-26T12:10:10.000Z</time>
        <extensions>
          <gpxtpx:TrackPointExtension xmlns:gpxtpx="http://www.garmin.com/xmlschemas/TrackPointExtension/v1">
            <gpxtpx:hr>138</gpxtpx:hr>
          </gpxtpx:TrackPointExtension>
        </extensions>
      </trkpt>
      <trkpt lat="45.68132" lon="3.01788">
        <ele>943.59997558594</ele>
        <time>2024-05-26T12:10:11.000Z</time>
        <extensions>
          <gpxtpx:TrackPointExtension xmlns:gpxtpx="http://www.garmin.com/xmlschemas/TrackPointExtension/v1">
            <gpxtpx:hr>138</gpxtpx:hr>
          </gpxtpx:TrackPointExtension>
        </extensions>
      </trkpt>
      <trkpt lat="45.68136" lon="3.018">
        <ele>944.40002441406</ele>
        <time>2024-05-26T12:10:15.000Z</time>
        <extensions>
          <gpxtpx:TrackPointExtension xmlns:gpxtpx="http://www.garmin.com/xmlschemas/TrackPointExtension/v1">
            <gpxtpx:hr>140</gpxtpx:hr>
          </gpxtpx:TrackPointExtension>
        </extensions>
      </trkpt>
      <trkpt lat="45.68138" lon="3.0181">
        <ele>945</ele>
        <time>2024-05-26T12:10:18.000Z</time>
        <extensions>
          <gpxtpx:TrackPointExtension xmlns:gpxtpx="http://www.garmin.com/xmlschemas/TrackPointExtension/v1">
            <gpxtpx:hr>142</gpxtpx:hr>
          </gpxtpx:TrackPointExtension>
        </extensions>
      </trkpt>
      <trkpt lat="45.6814" lon="3.01817">
        <ele>945.59997558594</ele>
        <time>2024-05-26T12:10:20.000Z</time>
        <extensions>
          <gpxtpx:TrackPointExtension xmlns:gpxtpx="http://www.garmin.com/xmlschemas/TrackPointExtension/v1">
            <gpxtpx:hr>144</gpxtpx:hr>
          </gpxtpx:TrackPointExtension>
        </extensions>
      </trkpt>
      <trkpt lat="45.68141" lon="3.01827">
        <ele>946</ele>
        <time>2024-05-26T12:10:23.000Z</time>
        <extensions>
          <gpxtpx:TrackPointExtension xmlns:gpxtpx="http://www.garmin.com/xmlschemas/TrackPointExtension/v1">
            <gpxtpx:hr>145</gpxtpx:hr>
          </gpxtpx:TrackPointExtension>
        </extensions>
      </trkpt>
      <trkpt lat="45.68145" lon="3.01836">
        <ele>946.59997558594</ele>
        <time>2024-05-26T12:10:26.000Z</time>
        <extensions>
          <gpxtpx:TrackPointExtension xmlns:gpxtpx="http://www.garmin.com/xmlschemas/TrackPointExtension/v1">
            <gpxtpx:hr>146</gpxtpx:hr>
          </gpxtpx:TrackPointExtension>
        </extensions>
      </trkpt>
      <trkpt lat="45.6815" lon="3.01852">
        <ele>947.79998779297</ele>
        <time>2024-05-26T12:10:31.000Z</time>
        <extensions>
          <gpxtpx:TrackPointExtension xmlns:gpxtpx="http://www.garmin.com/xmlschemas/TrackPointExtension/v1">
            <gpxtpx:hr>147</gpxtpx:hr>
          </gpxtpx:TrackPointExtension>
        </extensions>
      </trkpt>
      <trkpt lat="45.68151" lon="3.01856">
        <ele>947.79998779297</ele>
        <time>2024-05-26T12:10:32.000Z</time>
        <extensions>
          <gpxtpx:TrackPointExtension xmlns:gpxtpx="http://www.garmin.com/xmlschemas/TrackPointExtension/v1">
            <gpxtpx:hr>147</gpxtpx:hr>
          </gpxtpx:TrackPointExtension>
        </extensions>
      </trkpt>
      <trkpt lat="45.68155" lon="3.01869">
        <ele>948.20001220703</ele>
        <time>2024-05-26T12:10:36.000Z</time>
        <extensions>
          <gpxtpx:TrackPointExtension xmlns:gpxtpx="http://www.garmin.com/xmlschemas/TrackPointExtension/v1">
            <gpxtpx:hr>147</gpxtpx:hr>
          </gpxtpx:TrackPointExtension>
        </extensions>
      </trkpt>
      <trkpt lat="45.68159" lon="3.01881">
        <ele>948.79998779297</ele>
        <time>2024-05-26T12:10:40.000Z</time>
        <extensions>
          <gpxtpx:TrackPointExtension xmlns:gpxtpx="http://www.garmin.com/xmlschemas/TrackPointExtension/v1">
            <gpxtpx:hr>144</gpxtpx:hr>
          </gpxtpx:TrackPointExtension>
        </extensions>
      </trkpt>
      <trkpt lat="45.68161" lon="3.01884">
        <ele>949.20001220703</ele>
        <time>2024-05-26T12:10:41.000Z</time>
        <extensions>
          <gpxtpx:TrackPointExtension xmlns:gpxtpx="http://www.garmin.com/xmlschemas/TrackPointExtension/v1">
            <gpxtpx:hr>143</gpxtpx:hr>
          </gpxtpx:TrackPointExtension>
        </extensions>
      </trkpt>
      <trkpt lat="45.68167" lon="3.01905">
        <ele>950</ele>
        <time>2024-05-26T12:10:47.000Z</time>
        <extensions>
          <gpxtpx:TrackPointExtension xmlns:gpxtpx="http://www.garmin.com/xmlschemas/TrackPointExtension/v1">
            <gpxtpx:hr>141</gpxtpx:hr>
          </gpxtpx:TrackPointExtension>
        </extensions>
      </trkpt>
      <trkpt lat="45.6817" lon="3.01914">
        <ele>950.40002441406</ele>
        <time>2024-05-26T12:10:49.000Z</time>
        <extensions>
          <gpxtpx:TrackPointExtension xmlns:gpxtpx="http://www.garmin.com/xmlschemas/TrackPointExtension/v1">
            <gpxtpx:hr>141</gpxtpx:hr>
          </gpxtpx:TrackPointExtension>
        </extensions>
      </trkpt>
      <trkpt lat="45.68173" lon="3.01923">
        <ele>951</ele>
        <time>2024-05-26T12:10:51.000Z</time>
        <extensions>
          <gpxtpx:TrackPointExtension xmlns:gpxtpx="http://www.garmin.com/xmlschemas/TrackPointExtension/v1">
            <gpxtpx:hr>141</gpxtpx:hr>
          </gpxtpx:TrackPointExtension>
        </extensions>
      </trkpt>
      <trkpt lat="45.68179" lon="3.01941">
        <ele>951.79998779297</ele>
        <time>2024-05-26T12:10:55.000Z</time>
        <extensions>
          <gpxtpx:TrackPointExtension xmlns:gpxtpx="http://www.garmin.com/xmlschemas/TrackPointExtension/v1">
            <gpxtpx:hr>138</gpxtpx:hr>
          </gpxtpx:TrackPointExtension>
        </extensions>
      </trkpt>
      <trkpt lat="45.6818" lon="3.01945">
        <ele>952</ele>
        <time>2024-05-26T12:10:56.000Z</time>
        <extensions>
          <gpxtpx:TrackPointExtension xmlns:gpxtpx="http://www.garmin.com/xmlschemas/TrackPointExtension/v1">
            <gpxtpx:hr>138</gpxtpx:hr>
          </gpxtpx:TrackPointExtension>
        </extensions>
      </trkpt>
      <trkpt lat="45.68181" lon="3.0195">
        <ele>952.20001220703</ele>
        <time>2024-05-26T12:10:57.000Z</time>
        <extensions>
          <gpxtpx:TrackPointExtension xmlns:gpxtpx="http://www.garmin.com/xmlschemas/TrackPointExtension/v1">
            <gpxtpx:hr>138</gpxtpx:hr>
          </gpxtpx:TrackPointExtension>
        </extensions>
      </trkpt>
      <trkpt lat="45.68185" lon="3.0196">
        <ele>953.20001220703</ele>
        <time>2024-05-26T12:11:00.000Z</time>
        <extensions>
          <gpxtpx:TrackPointExtension xmlns:gpxtpx="http://www.garmin.com/xmlschemas/TrackPointExtension/v1">
            <gpxtpx:hr>137</gpxtpx:hr>
          </gpxtpx:TrackPointExtension>
        </extensions>
      </trkpt>
      <trkpt lat="45.68187" lon="3.01966">
        <ele>953.59997558594</ele>
        <time>2024-05-26T12:11:02.000Z</time>
        <extensions>
          <gpxtpx:TrackPointExtension xmlns:gpxtpx="http://www.garmin.com/xmlschemas/TrackPointExtension/v1">
            <gpxtpx:hr>137</gpxtpx:hr>
          </gpxtpx:TrackPointExtension>
        </extensions>
      </trkpt>
      <trkpt lat="45.68193" lon="3.01987">
        <ele>954.40002441406</ele>
        <time>2024-05-26T12:11:07.000Z</time>
        <extensions>
          <gpxtpx:TrackPointExtension xmlns:gpxtpx="http://www.garmin.com/xmlschemas/TrackPointExtension/v1">
            <gpxtpx:hr>135</gpxtpx:hr>
          </gpxtpx:TrackPointExtension>
        </extensions>
      </trkpt>
      <trkpt lat="45.68197" lon="3.02006">
        <ele>954.79998779297</ele>
        <time>2024-05-26T12:11:11.000Z</time>
        <extensions>
          <gpxtpx:TrackPointExtension xmlns:gpxtpx="http://www.garmin.com/xmlschemas/TrackPointExtension/v1">
            <gpxtpx:hr>134</gpxtpx:hr>
          </gpxtpx:TrackPointExtension>
        </extensions>
      </trkpt>
      <trkpt lat="45.682" lon="3.0202">
        <ele>955.79998779297</ele>
        <time>2024-05-26T12:11:14.000Z</time>
        <extensions>
          <gpxtpx:TrackPointExtension xmlns:gpxtpx="http://www.garmin.com/xmlschemas/TrackPointExtension/v1">
            <gpxtpx:hr>134</gpxtpx:hr>
          </gpxtpx:TrackPointExtension>
        </extensions>
      </trkpt>
      <trkpt lat="45.68204" lon="3.02045">
        <ele>957</ele>
        <time>2024-05-26T12:11:19.000Z</time>
        <extensions>
          <gpxtpx:TrackPointExtension xmlns:gpxtpx="http://www.garmin.com/xmlschemas/TrackPointExtension/v1">
            <gpxtpx:hr>135</gpxtpx:hr>
          </gpxtpx:TrackPointExtension>
        </extensions>
      </trkpt>
      <trkpt lat="45.68209" lon="3.02061">
        <ele>958.20001220703</ele>
        <time>2024-05-26T12:11:23.000Z</time>
        <extensions>
          <gpxtpx:TrackPointExtension xmlns:gpxtpx="http://www.garmin.com/xmlschemas/TrackPointExtension/v1">
            <gpxtpx:hr>134</gpxtpx:hr>
          </gpxtpx:TrackPointExtension>
        </extensions>
      </trkpt>
      <trkpt lat="45.68214" lon="3.02075">
        <ele>958.79998779297</ele>
        <time>2024-05-26T12:11:26.000Z</time>
        <extensions>
          <gpxtpx:TrackPointExtension xmlns:gpxtpx="http://www.garmin.com/xmlschemas/TrackPointExtension/v1">
            <gpxtpx:hr>133</gpxtpx:hr>
          </gpxtpx:TrackPointExtension>
        </extensions>
      </trkpt>
      <trkpt lat="45.68215" lon="3.0208">
        <ele>959.20001220703</ele>
        <time>2024-05-26T12:11:27.000Z</time>
        <extensions>
          <gpxtpx:TrackPointExtension xmlns:gpxtpx="http://www.garmin.com/xmlschemas/TrackPointExtension/v1">
            <gpxtpx:hr>132</gpxtpx:hr>
          </gpxtpx:TrackPointExtension>
        </extensions>
      </trkpt>
      <trkpt lat="45.68221" lon="3.02096">
        <ele>960.59997558594</ele>
        <time>2024-05-26T12:11:32.000Z</time>
        <extensions>
          <gpxtpx:TrackPointExtension xmlns:gpxtpx="http://www.garmin.com/xmlschemas/TrackPointExtension/v1">
            <gpxtpx:hr>131</gpxtpx:hr>
          </gpxtpx:TrackPointExtension>
        </extensions>
      </trkpt>
      <trkpt lat="45.68223" lon="3.02098">
        <ele>960.59997558594</ele>
        <time>2024-05-26T12:11:33.000Z</time>
        <extensions>
          <gpxtpx:TrackPointExtension xmlns:gpxtpx="http://www.garmin.com/xmlschemas/TrackPointExtension/v1">
            <gpxtpx:hr>131</gpxtpx:hr>
          </gpxtpx:TrackPointExtension>
        </extensions>
      </trkpt>
      <trkpt lat="45.68235" lon="3.02116">
        <ele>961.59997558594</ele>
        <time>2024-05-26T12:11:39.000Z</time>
        <extensions>
          <gpxtpx:TrackPointExtension xmlns:gpxtpx="http://www.garmin.com/xmlschemas/TrackPointExtension/v1">
            <gpxtpx:hr>132</gpxtpx:hr>
          </gpxtpx:TrackPointExtension>
        </extensions>
      </trkpt>
      <trkpt lat="45.68237" lon="3.02119">
        <ele>961.59997558594</ele>
        <time>2024-05-26T12:11:40.000Z</time>
        <extensions>
          <gpxtpx:TrackPointExtension xmlns:gpxtpx="http://www.garmin.com/xmlschemas/TrackPointExtension/v1">
            <gpxtpx:hr>131</gpxtpx:hr>
          </gpxtpx:TrackPointExtension>
        </extensions>
      </trkpt>
      <trkpt lat="45.6826" lon="3.02134">
        <ele>962.40002441406</ele>
        <time>2024-05-26T12:11:47.000Z</time>
        <extensions>
          <gpxtpx:TrackPointExtension xmlns:gpxtpx="http://www.garmin.com/xmlschemas/TrackPointExtension/v1">
            <gpxtpx:hr>131</gpxtpx:hr>
          </gpxtpx:TrackPointExtension>
        </extensions>
      </trkpt>
      <trkpt lat="45.68273" lon="3.02139">
        <ele>962.59997558594</ele>
        <time>2024-05-26T12:11:51.000Z</time>
        <extensions>
          <gpxtpx:TrackPointExtension xmlns:gpxtpx="http://www.garmin.com/xmlschemas/TrackPointExtension/v1">
            <gpxtpx:hr>132</gpxtpx:hr>
          </gpxtpx:TrackPointExtension>
        </extensions>
      </trkpt>
      <trkpt lat="45.68283" lon="3.02144">
        <ele>963.40002441406</ele>
        <time>2024-05-26T12:11:54.000Z</time>
        <extensions>
          <gpxtpx:TrackPointExtension xmlns:gpxtpx="http://www.garmin.com/xmlschemas/TrackPointExtension/v1">
            <gpxtpx:hr>133</gpxtpx:hr>
          </gpxtpx:TrackPointExtension>
        </extensions>
      </trkpt>
      <trkpt lat="45.6829" lon="3.02148">
        <ele>964</ele>
        <time>2024-05-26T12:11:56.000Z</time>
        <extensions>
          <gpxtpx:TrackPointExtension xmlns:gpxtpx="http://www.garmin.com/xmlschemas/TrackPointExtension/v1">
            <gpxtpx:hr>133</gpxtpx:hr>
          </gpxtpx:TrackPointExtension>
        </extensions>
      </trkpt>
      <trkpt lat="45.68303" lon="3.02155">
        <ele>964.59997558594</ele>
        <time>2024-05-26T12:12:00.000Z</time>
        <extensions>
          <gpxtpx:TrackPointExtension xmlns:gpxtpx="http://www.garmin.com/xmlschemas/TrackPointExtension/v1">
            <gpxtpx:hr>134</gpxtpx:hr>
          </gpxtpx:TrackPointExtension>
        </extensions>
      </trkpt>
      <trkpt lat="45.68317" lon="3.02161">
        <ele>964.79998779297</ele>
        <time>2024-05-26T12:12:05.000Z</time>
        <extensions>
          <gpxtpx:TrackPointExtension xmlns:gpxtpx="http://www.garmin.com/xmlschemas/TrackPointExtension/v1">
            <gpxtpx:hr>137</gpxtpx:hr>
          </gpxtpx:TrackPointExtension>
        </extensions>
      </trkpt>
      <trkpt lat="45.68319" lon="3.02163">
        <ele>964.79998779297</ele>
        <time>2024-05-26T12:12:06.000Z</time>
        <extensions>
          <gpxtpx:TrackPointExtension xmlns:gpxtpx="http://www.garmin.com/xmlschemas/TrackPointExtension/v1">
            <gpxtpx:hr>138</gpxtpx:hr>
          </gpxtpx:TrackPointExtension>
        </extensions>
      </trkpt>
      <trkpt lat="45.68325" lon="3.02165">
        <ele>964.79998779297</ele>
        <time>2024-05-26T12:12:09.000Z</time>
        <extensions>
          <gpxtpx:TrackPointExtension xmlns:gpxtpx="http://www.garmin.com/xmlschemas/TrackPointExtension/v1">
            <gpxtpx:hr>141</gpxtpx:hr>
          </gpxtpx:TrackPointExtension>
        </extensions>
      </trkpt>
      <trkpt lat="45.68327" lon="3.02167">
        <ele>964.79998779297</ele>
        <time>2024-05-26T12:12:11.000Z</time>
        <extensions>
          <gpxtpx:TrackPointExtension xmlns:gpxtpx="http://www.garmin.com/xmlschemas/TrackPointExtension/v1">
            <gpxtpx:hr>144</gpxtpx:hr>
          </gpxtpx:TrackPointExtension>
        </extensions>
      </trkpt>
      <trkpt lat="45.6833" lon="3.02169">
        <ele>964.59997558594</ele>
        <time>2024-05-26T12:12:13.000Z</time>
        <extensions>
          <gpxtpx:TrackPointExtension xmlns:gpxtpx="http://www.garmin.com/xmlschemas/TrackPointExtension/v1">
            <gpxtpx:hr>145</gpxtpx:hr>
          </gpxtpx:TrackPointExtension>
        </extensions>
      </trkpt>
      <trkpt lat="45.68339" lon="3.02175">
        <ele>964.59997558594</ele>
        <time>2024-05-26T12:12:19.000Z</time>
        <extensions>
          <gpxtpx:TrackPointExtension xmlns:gpxtpx="http://www.garmin.com/xmlschemas/TrackPointExtension/v1">
            <gpxtpx:hr>145</gpxtpx:hr>
          </gpxtpx:TrackPointExtension>
        </extensions>
      </trkpt>
      <trkpt lat="45.68353" lon="3.02182">
        <ele>965.20001220703</ele>
        <time>2024-05-26T12:12:23.000Z</time>
        <extensions>
          <gpxtpx:TrackPointExtension xmlns:gpxtpx="http://www.garmin.com/xmlschemas/TrackPointExtension/v1">
            <gpxtpx:hr>143</gpxtpx:hr>
          </gpxtpx:TrackPointExtension>
        </extensions>
      </trkpt>
      <trkpt lat="45.68356" lon="3.02183">
        <ele>965.20001220703</ele>
        <time>2024-05-26T12:12:24.000Z</time>
        <extensions>
          <gpxtpx:TrackPointExtension xmlns:gpxtpx="http://www.garmin.com/xmlschemas/TrackPointExtension/v1">
            <gpxtpx:hr>143</gpxtpx:hr>
          </gpxtpx:TrackPointExtension>
        </extensions>
      </trkpt>
      <trkpt lat="45.68372" lon="3.02193">
        <ele>965.79998779297</ele>
        <time>2024-05-26T12:12:29.000Z</time>
        <extensions>
          <gpxtpx:TrackPointExtension xmlns:gpxtpx="http://www.garmin.com/xmlschemas/TrackPointExtension/v1">
            <gpxtpx:hr>141</gpxtpx:hr>
          </gpxtpx:TrackPointExtension>
        </extensions>
      </trkpt>
      <trkpt lat="45.68391" lon="3.02205">
        <ele>966</ele>
        <time>2024-05-26T12:12:35.000Z</time>
        <extensions>
          <gpxtpx:TrackPointExtension xmlns:gpxtpx="http://www.garmin.com/xmlschemas/TrackPointExtension/v1">
            <gpxtpx:hr>140</gpxtpx:hr>
          </gpxtpx:TrackPointExtension>
        </extensions>
      </trkpt>
      <trkpt lat="45.68397" lon="3.02209">
        <ele>966.20001220703</ele>
        <time>2024-05-26T12:12:37.000Z</time>
        <extensions>
          <gpxtpx:TrackPointExtension xmlns:gpxtpx="http://www.garmin.com/xmlschemas/TrackPointExtension/v1">
            <gpxtpx:hr>139</gpxtpx:hr>
          </gpxtpx:TrackPointExtension>
        </extensions>
      </trkpt>
      <trkpt lat="45.68418" lon="3.02221">
        <ele>966.40002441406</ele>
        <time>2024-05-26T12:12:43.000Z</time>
        <extensions>
          <gpxtpx:TrackPointExtension xmlns:gpxtpx="http://www.garmin.com/xmlschemas/TrackPointExtension/v1">
            <gpxtpx:hr>137</gpxtpx:hr>
          </gpxtpx:TrackPointExtension>
        </extensions>
      </trkpt>
      <trkpt lat="45.68434" lon="3.02238">
        <ele>966.79998779297</ele>
        <time>2024-05-26T12:12:48.000Z</time>
        <extensions>
          <gpxtpx:TrackPointExtension xmlns:gpxtpx="http://www.garmin.com/xmlschemas/TrackPointExtension/v1">
            <gpxtpx:hr>135</gpxtpx:hr>
          </gpxtpx:TrackPointExtension>
        </extensions>
      </trkpt>
      <trkpt lat="45.68444" lon="3.02252">
        <ele>966.79998779297</ele>
        <time>2024-05-26T12:12:51.000Z</time>
        <extensions>
          <gpxtpx:TrackPointExtension xmlns:gpxtpx="http://www.garmin.com/xmlschemas/TrackPointExtension/v1">
            <gpxtpx:hr>134</gpxtpx:hr>
          </gpxtpx:TrackPointExtension>
        </extensions>
      </trkpt>
      <trkpt lat="45.68449" lon="3.02262">
        <ele>966.40002441406</ele>
        <time>2024-05-26T12:12:53.000Z</time>
        <extensions>
          <gpxtpx:TrackPointExtension xmlns:gpxtpx="http://www.garmin.com/xmlschemas/TrackPointExtension/v1">
            <gpxtpx:hr>131</gpxtpx:hr>
          </gpxtpx:TrackPointExtension>
        </extensions>
      </trkpt>
      <trkpt lat="45.68454" lon="3.02272">
        <ele>966.20001220703</ele>
        <time>2024-05-26T12:12:55.000Z</time>
        <extensions>
          <gpxtpx:TrackPointExtension xmlns:gpxtpx="http://www.garmin.com/xmlschemas/TrackPointExtension/v1">
            <gpxtpx:hr>133</gpxtpx:hr>
          </gpxtpx:TrackPointExtension>
        </extensions>
      </trkpt>
      <trkpt lat="45.68459" lon="3.02282">
        <ele>965.79998779297</ele>
        <time>2024-05-26T12:12:57.000Z</time>
        <extensions>
          <gpxtpx:TrackPointExtension xmlns:gpxtpx="http://www.garmin.com/xmlschemas/TrackPointExtension/v1">
            <gpxtpx:hr>132</gpxtpx:hr>
          </gpxtpx:TrackPointExtension>
        </extensions>
      </trkpt>
      <trkpt lat="45.68463" lon="3.02291">
        <ele>965.79998779297</ele>
        <time>2024-05-26T12:12:59.000Z</time>
        <extensions>
          <gpxtpx:TrackPointExtension xmlns:gpxtpx="http://www.garmin.com/xmlschemas/TrackPointExtension/v1">
            <gpxtpx:hr>131</gpxtpx:hr>
          </gpxtpx:TrackPointExtension>
        </extensions>
      </trkpt>
      <trkpt lat="45.68478" lon="3.02322">
        <ele>967.20001220703</ele>
        <time>2024-05-26T12:13:04.000Z</time>
        <extensions>
          <gpxtpx:TrackPointExtension xmlns:gpxtpx="http://www.garmin.com/xmlschemas/TrackPointExtension/v1">
            <gpxtpx:hr>132</gpxtpx:hr>
          </gpxtpx:TrackPointExtension>
        </extensions>
      </trkpt>
      <trkpt lat="45.68482" lon="3.0233">
        <ele>967</ele>
        <time>2024-05-26T12:13:05.000Z</time>
        <extensions>
          <gpxtpx:TrackPointExtension xmlns:gpxtpx="http://www.garmin.com/xmlschemas/TrackPointExtension/v1">
            <gpxtpx:hr>131</gpxtpx:hr>
          </gpxtpx:TrackPointExtension>
        </extensions>
      </trkpt>
      <trkpt lat="45.68498" lon="3.0236">
        <ele>966.40002441406</ele>
        <time>2024-05-26T12:13:09.000Z</time>
        <extensions>
          <gpxtpx:TrackPointExtension xmlns:gpxtpx="http://www.garmin.com/xmlschemas/TrackPointExtension/v1">
            <gpxtpx:hr>132</gpxtpx:hr>
          </gpxtpx:TrackPointExtension>
        </extensions>
      </trkpt>
      <trkpt lat="45.68517" lon="3.02395">
        <ele>965</ele>
        <time>2024-05-26T12:13:14.000Z</time>
        <extensions>
          <gpxtpx:TrackPointExtension xmlns:gpxtpx="http://www.garmin.com/xmlschemas/TrackPointExtension/v1">
            <gpxtpx:hr>133</gpxtpx:hr>
          </gpxtpx:TrackPointExtension>
        </extensions>
      </trkpt>
      <trkpt lat="45.68521" lon="3.02402">
        <ele>964.79998779297</ele>
        <time>2024-05-26T12:13:15.000Z</time>
        <extensions>
          <gpxtpx:TrackPointExtension xmlns:gpxtpx="http://www.garmin.com/xmlschemas/TrackPointExtension/v1">
            <gpxtpx:hr>133</gpxtpx:hr>
          </gpxtpx:TrackPointExtension>
        </extensions>
      </trkpt>
      <trkpt lat="45.68544" lon="3.02441">
        <ele>964.40002441406</ele>
        <time>2024-05-26T12:13:21.000Z</time>
        <extensions>
          <gpxtpx:TrackPointExtension xmlns:gpxtpx="http://www.garmin.com/xmlschemas/TrackPointExtension/v1">
            <gpxtpx:hr>132</gpxtpx:hr>
          </gpxtpx:TrackPointExtension>
        </extensions>
      </trkpt>
      <trkpt lat="45.68552" lon="3.02453">
        <ele>963.59997558594</ele>
        <time>2024-05-26T12:13:23.000Z</time>
        <extensions>
          <gpxtpx:TrackPointExtension xmlns:gpxtpx="http://www.garmin.com/xmlschemas/TrackPointExtension/v1">
            <gpxtpx:hr>132</gpxtpx:hr>
          </gpxtpx:TrackPointExtension>
        </extensions>
      </trkpt>
      <trkpt lat="45.68556" lon="3.0246">
        <ele>963.40002441406</ele>
        <time>2024-05-26T12:13:24.000Z</time>
        <extensions>
          <gpxtpx:TrackPointExtension xmlns:gpxtpx="http://www.garmin.com/xmlschemas/TrackPointExtension/v1">
            <gpxtpx:hr>132</gpxtpx:hr>
          </gpxtpx:TrackPointExtension>
        </extensions>
      </trkpt>
      <trkpt lat="45.68564" lon="3.02473">
        <ele>962.20001220703</ele>
        <time>2024-05-26T12:13:26.000Z</time>
        <extensions>
          <gpxtpx:TrackPointExtension xmlns:gpxtpx="http://www.garmin.com/xmlschemas/TrackPointExtension/v1">
            <gpxtpx:hr>131</gpxtpx:hr>
          </gpxtpx:TrackPointExtension>
        </extensions>
      </trkpt>
      <trkpt lat="45.68568" lon="3.02479">
        <ele>961.59997558594</ele>
        <time>2024-05-26T12:13:27.000Z</time>
        <extensions>
          <gpxtpx:TrackPointExtension xmlns:gpxtpx="http://www.garmin.com/xmlschemas/TrackPointExtension/v1">
            <gpxtpx:hr>132</gpxtpx:hr>
          </gpxtpx:TrackPointExtension>
        </extensions>
      </trkpt>
      <trkpt lat="45.68572" lon="3.02486">
        <ele>961.20001220703</ele>
        <time>2024-05-26T12:13:28.000Z</time>
        <extensions>
          <gpxtpx:TrackPointExtension xmlns:gpxtpx="http://www.garmin.com/xmlschemas/TrackPointExtension/v1">
            <gpxtpx:hr>132</gpxtpx:hr>
          </gpxtpx:TrackPointExtension>
        </extensions>
      </trkpt>
      <trkpt lat="45.68577" lon="3.02493">
        <ele>961</ele>
        <time>2024-05-26T12:13:29.000Z</time>
        <extensions>
          <gpxtpx:TrackPointExtension xmlns:gpxtpx="http://www.garmin.com/xmlschemas/TrackPointExtension/v1">
            <gpxtpx:hr>129</gpxtpx:hr>
          </gpxtpx:TrackPointExtension>
        </extensions>
      </trkpt>
      <trkpt lat="45.68591" lon="3.02513">
        <ele>960.59997558594</ele>
        <time>2024-05-26T12:13:32.000Z</time>
        <extensions>
          <gpxtpx:TrackPointExtension xmlns:gpxtpx="http://www.garmin.com/xmlschemas/TrackPointExtension/v1">
            <gpxtpx:hr>132</gpxtpx:hr>
          </gpxtpx:TrackPointExtension>
        </extensions>
      </trkpt>
      <trkpt lat="45.68595" lon="3.02521">
        <ele>960</ele>
        <time>2024-05-26T12:13:33.000Z</time>
        <extensions>
          <gpxtpx:TrackPointExtension xmlns:gpxtpx="http://www.garmin.com/xmlschemas/TrackPointExtension/v1">
            <gpxtpx:hr>132</gpxtpx:hr>
          </gpxtpx:TrackPointExtension>
        </extensions>
      </trkpt>
      <trkpt lat="45.68613" lon="3.02552">
        <ele>959.20001220703</ele>
        <time>2024-05-26T12:13:37.000Z</time>
        <extensions>
          <gpxtpx:TrackPointExtension xmlns:gpxtpx="http://www.garmin.com/xmlschemas/TrackPointExtension/v1">
            <gpxtpx:hr>129</gpxtpx:hr>
          </gpxtpx:TrackPointExtension>
        </extensions>
      </trkpt>
      <trkpt lat="45.68622" lon="3.02568">
        <ele>959</ele>
        <time>2024-05-26T12:13:39.000Z</time>
        <extensions>
          <gpxtpx:TrackPointExtension xmlns:gpxtpx="http://www.garmin.com/xmlschemas/TrackPointExtension/v1">
            <gpxtpx:hr>131</gpxtpx:hr>
          </gpxtpx:TrackPointExtension>
        </extensions>
      </trkpt>
      <trkpt lat="45.68632" lon="3.02585">
        <ele>959.20001220703</ele>
        <time>2024-05-26T12:13:41.000Z</time>
        <extensions>
          <gpxtpx:TrackPointExtension xmlns:gpxtpx="http://www.garmin.com/xmlschemas/TrackPointExtension/v1">
            <gpxtpx:hr>132</gpxtpx:hr>
          </gpxtpx:TrackPointExtension>
        </extensions>
      </trkpt>
      <trkpt lat="45.68641" lon="3.026">
        <ele>959.79998779297</ele>
        <time>2024-05-26T12:13:43.000Z</time>
        <extensions>
          <gpxtpx:TrackPointExtension xmlns:gpxtpx="http://www.garmin.com/xmlschemas/TrackPointExtension/v1">
            <gpxtpx:hr>133</gpxtpx:hr>
          </gpxtpx:TrackPointExtension>
        </extensions>
      </trkpt>
      <trkpt lat="45.68661" lon="3.02633">
        <ele>958.40002441406</ele>
        <time>2024-05-26T12:13:47.000Z</time>
        <extensions>
          <gpxtpx:TrackPointExtension xmlns:gpxtpx="http://www.garmin.com/xmlschemas/TrackPointExtension/v1">
            <gpxtpx:hr>134</gpxtpx:hr>
          </gpxtpx:TrackPointExtension>
        </extensions>
      </trkpt>
      <trkpt lat="45.68673" lon="3.02648">
        <ele>958</ele>
        <time>2024-05-26T12:13:49.000Z</time>
        <extensions>
          <gpxtpx:TrackPointExtension xmlns:gpxtpx="http://www.garmin.com/xmlschemas/TrackPointExtension/v1">
            <gpxtpx:hr>135</gpxtpx:hr>
          </gpxtpx:TrackPointExtension>
        </extensions>
      </trkpt>
      <trkpt lat="45.68679" lon="3.02655">
        <ele>957.20001220703</ele>
        <time>2024-05-26T12:13:50.000Z</time>
        <extensions>
          <gpxtpx:TrackPointExtension xmlns:gpxtpx="http://www.garmin.com/xmlschemas/TrackPointExtension/v1">
            <gpxtpx:hr>136</gpxtpx:hr>
          </gpxtpx:TrackPointExtension>
        </extensions>
      </trkpt>
      <trkpt lat="45.68701" lon="3.02674">
        <ele>956</ele>
        <time>2024-05-26T12:13:53.000Z</time>
        <extensions>
          <gpxtpx:TrackPointExtension xmlns:gpxtpx="http://www.garmin.com/xmlschemas/TrackPointExtension/v1">
            <gpxtpx:hr>138</gpxtpx:hr>
          </gpxtpx:TrackPointExtension>
        </extensions>
      </trkpt>
      <trkpt lat="45.68716" lon="3.02687">
        <ele>955</ele>
        <time>2024-05-26T12:13:55.000Z</time>
        <extensions>
          <gpxtpx:TrackPointExtension xmlns:gpxtpx="http://www.garmin.com/xmlschemas/TrackPointExtension/v1">
            <gpxtpx:hr>140</gpxtpx:hr>
          </gpxtpx:TrackPointExtension>
        </extensions>
      </trkpt>
      <trkpt lat="45.68723" lon="3.02693">
        <ele>954.59997558594</ele>
        <time>2024-05-26T12:13:56.000Z</time>
        <extensions>
          <gpxtpx:TrackPointExtension xmlns:gpxtpx="http://www.garmin.com/xmlschemas/TrackPointExtension/v1">
            <gpxtpx:hr>140</gpxtpx:hr>
          </gpxtpx:TrackPointExtension>
        </extensions>
      </trkpt>
      <trkpt lat="45.68746" lon="3.02714">
        <ele>953.40002441406</ele>
        <time>2024-05-26T12:13:59.000Z</time>
        <extensions>
          <gpxtpx:TrackPointExtension xmlns:gpxtpx="http://www.garmin.com/xmlschemas/TrackPointExtension/v1">
            <gpxtpx:hr>141</gpxtpx:hr>
          </gpxtpx:TrackPointExtension>
        </extensions>
      </trkpt>
      <trkpt lat="45.68763" lon="3.02728">
        <ele>952</ele>
        <time>2024-05-26T12:14:01.000Z</time>
        <extensions>
          <gpxtpx:TrackPointExtension xmlns:gpxtpx="http://www.garmin.com/xmlschemas/TrackPointExtension/v1">
            <gpxtpx:hr>143</gpxtpx:hr>
          </gpxtpx:TrackPointExtension>
        </extensions>
      </trkpt>
      <trkpt lat="45.68771" lon="3.02735">
        <ele>951.40002441406</ele>
        <time>2024-05-26T12:14:02.000Z</time>
        <extensions>
          <gpxtpx:TrackPointExtension xmlns:gpxtpx="http://www.garmin.com/xmlschemas/TrackPointExtension/v1">
            <gpxtpx:hr>140</gpxtpx:hr>
          </gpxtpx:TrackPointExtension>
        </extensions>
      </trkpt>
      <trkpt lat="45.68779" lon="3.02742">
        <ele>950.79998779297</ele>
        <time>2024-05-26T12:14:03.000Z</time>
        <extensions>
          <gpxtpx:TrackPointExtension xmlns:gpxtpx="http://www.garmin.com/xmlschemas/TrackPointExtension/v1">
            <gpxtpx:hr>139</gpxtpx:hr>
          </gpxtpx:TrackPointExtension>
        </extensions>
      </trkpt>
      <trkpt lat="45.68797" lon="3.02757">
        <ele>949.40002441406</ele>
        <time>2024-05-26T12:14:05.000Z</time>
        <extensions>
          <gpxtpx:TrackPointExtension xmlns:gpxtpx="http://www.garmin.com/xmlschemas/TrackPointExtension/v1">
            <gpxtpx:hr>139</gpxtpx:hr>
          </gpxtpx:TrackPointExtension>
        </extensions>
      </trkpt>
      <trkpt lat="45.68805" lon="3.02765">
        <ele>948.79998779297</ele>
        <time>2024-05-26T12:14:06.000Z</time>
        <extensions>
          <gpxtpx:TrackPointExtension xmlns:gpxtpx="http://www.garmin.com/xmlschemas/TrackPointExtension/v1">
            <gpxtpx:hr>136</gpxtpx:hr>
          </gpxtpx:TrackPointExtension>
        </extensions>
      </trkpt>
      <trkpt lat="45.68813" lon="3.02774">
        <ele>947.79998779297</ele>
        <time>2024-05-26T12:14:07.000Z</time>
        <extensions>
          <gpxtpx:TrackPointExtension xmlns:gpxtpx="http://www.garmin.com/xmlschemas/TrackPointExtension/v1">
            <gpxtpx:hr>135</gpxtpx:hr>
          </gpxtpx:TrackPointExtension>
        </extensions>
      </trkpt>
      <trkpt lat="45.68827" lon="3.02797">
        <ele>946.79998779297</ele>
        <time>2024-05-26T12:14:09.000Z</time>
        <extensions>
          <gpxtpx:TrackPointExtension xmlns:gpxtpx="http://www.garmin.com/xmlschemas/TrackPointExtension/v1">
            <gpxtpx:hr>132</gpxtpx:hr>
          </gpxtpx:TrackPointExtension>
        </extensions>
      </trkpt>
      <trkpt lat="45.68831" lon="3.0281">
        <ele>945.20001220703</ele>
        <time>2024-05-26T12:14:10.000Z</time>
        <extensions>
          <gpxtpx:TrackPointExtension xmlns:gpxtpx="http://www.garmin.com/xmlschemas/TrackPointExtension/v1">
            <gpxtpx:hr>130</gpxtpx:hr>
          </gpxtpx:TrackPointExtension>
        </extensions>
      </trkpt>
      <trkpt lat="45.68835" lon="3.02824">
        <ele>944</ele>
        <time>2024-05-26T12:14:11.000Z</time>
        <extensions>
          <gpxtpx:TrackPointExtension xmlns:gpxtpx="http://www.garmin.com/xmlschemas/TrackPointExtension/v1">
            <gpxtpx:hr>130</gpxtpx:hr>
          </gpxtpx:TrackPointExtension>
        </extensions>
      </trkpt>
      <trkpt lat="45.68839" lon="3.02839">
        <ele>943.20001220703</ele>
        <time>2024-05-26T12:14:12.000Z</time>
        <extensions>
          <gpxtpx:TrackPointExtension xmlns:gpxtpx="http://www.garmin.com/xmlschemas/TrackPointExtension/v1">
            <gpxtpx:hr>127</gpxtpx:hr>
          </gpxtpx:TrackPointExtension>
        </extensions>
      </trkpt>
      <trkpt lat="45.68843" lon="3.02854">
        <ele>942</ele>
        <time>2024-05-26T12:14:13.000Z</time>
        <extensions>
          <gpxtpx:TrackPointExtension xmlns:gpxtpx="http://www.garmin.com/xmlschemas/TrackPointExtension/v1">
            <gpxtpx:hr>125</gpxtpx:hr>
          </gpxtpx:TrackPointExtension>
        </extensions>
      </trkpt>
      <trkpt lat="45.68847" lon="3.02868">
        <ele>941</ele>
        <time>2024-05-26T12:14:14.000Z</time>
        <extensions>
          <gpxtpx:TrackPointExtension xmlns:gpxtpx="http://www.garmin.com/xmlschemas/TrackPointExtension/v1">
            <gpxtpx:hr>124</gpxtpx:hr>
          </gpxtpx:TrackPointExtension>
        </extensions>
      </trkpt>
      <trkpt lat="45.68853" lon="3.02883">
        <ele>940</ele>
        <time>2024-05-26T12:14:15.000Z</time>
        <extensions>
          <gpxtpx:TrackPointExtension xmlns:gpxtpx="http://www.garmin.com/xmlschemas/TrackPointExtension/v1">
            <gpxtpx:hr>122</gpxtpx:hr>
          </gpxtpx:TrackPointExtension>
        </extensions>
      </trkpt>
      <trkpt lat="45.68865" lon="3.02911">
        <ele>939</ele>
        <time>2024-05-26T12:14:17.000Z</time>
        <extensions>
          <gpxtpx:TrackPointExtension xmlns:gpxtpx="http://www.garmin.com/xmlschemas/TrackPointExtension/v1">
            <gpxtpx:hr>120</gpxtpx:hr>
          </gpxtpx:TrackPointExtension>
        </extensions>
      </trkpt>
      <trkpt lat="45.68872" lon="3.02925">
        <ele>938</ele>
        <time>2024-05-26T12:14:18.000Z</time>
        <extensions>
          <gpxtpx:TrackPointExtension xmlns:gpxtpx="http://www.garmin.com/xmlschemas/TrackPointExtension/v1">
            <gpxtpx:hr>118</gpxtpx:hr>
          </gpxtpx:TrackPointExtension>
        </extensions>
      </trkpt>
      <trkpt lat="45.6888" lon="3.02938">
        <ele>936.20001220703</ele>
        <time>2024-05-26T12:14:19.000Z</time>
        <extensions>
          <gpxtpx:TrackPointExtension xmlns:gpxtpx="http://www.garmin.com/xmlschemas/TrackPointExtension/v1">
            <gpxtpx:hr>118</gpxtpx:hr>
          </gpxtpx:TrackPointExtension>
        </extensions>
      </trkpt>
      <trkpt lat="45.68887" lon="3.02951">
        <ele>935.40002441406</ele>
        <time>2024-05-26T12:14:20.000Z</time>
        <extensions>
          <gpxtpx:TrackPointExtension xmlns:gpxtpx="http://www.garmin.com/xmlschemas/TrackPointExtension/v1">
            <gpxtpx:hr>118</gpxtpx:hr>
          </gpxtpx:TrackPointExtension>
        </extensions>
      </trkpt>
      <trkpt lat="45.68896" lon="3.02962">
        <ele>934.79998779297</ele>
        <time>2024-05-26T12:14:21.000Z</time>
        <extensions>
          <gpxtpx:TrackPointExtension xmlns:gpxtpx="http://www.garmin.com/xmlschemas/TrackPointExtension/v1">
            <gpxtpx:hr>118</gpxtpx:hr>
          </gpxtpx:TrackPointExtension>
        </extensions>
      </trkpt>
      <trkpt lat="45.68905" lon="3.02973">
        <ele>932.59997558594</ele>
        <time>2024-05-26T12:14:22.000Z</time>
        <extensions>
          <gpxtpx:TrackPointExtension xmlns:gpxtpx="http://www.garmin.com/xmlschemas/TrackPointExtension/v1">
            <gpxtpx:hr>118</gpxtpx:hr>
          </gpxtpx:TrackPointExtension>
        </extensions>
      </trkpt>
      <trkpt lat="45.68925" lon="3.02987">
        <ele>930.79998779297</ele>
        <time>2024-05-26T12:14:24.000Z</time>
        <extensions>
          <gpxtpx:TrackPointExtension xmlns:gpxtpx="http://www.garmin.com/xmlschemas/TrackPointExtension/v1">
            <gpxtpx:hr>117</gpxtpx:hr>
          </gpxtpx:TrackPointExtension>
        </extensions>
      </trkpt>
      <trkpt lat="45.68936" lon="3.02992">
        <ele>930.59997558594</ele>
        <time>2024-05-26T12:14:25.000Z</time>
        <extensions>
          <gpxtpx:TrackPointExtension xmlns:gpxtpx="http://www.garmin.com/xmlschemas/TrackPointExtension/v1">
            <gpxtpx:hr>117</gpxtpx:hr>
          </gpxtpx:TrackPointExtension>
        </extensions>
      </trkpt>
      <trkpt lat="45.68947" lon="3.02994">
        <ele>930</ele>
        <time>2024-05-26T12:14:26.000Z</time>
        <extensions>
          <gpxtpx:TrackPointExtension xmlns:gpxtpx="http://www.garmin.com/xmlschemas/TrackPointExtension/v1">
            <gpxtpx:hr>116</gpxtpx:hr>
          </gpxtpx:TrackPointExtension>
        </extensions>
      </trkpt>
      <trkpt lat="45.68958" lon="3.02996">
        <ele>928.59997558594</ele>
        <time>2024-05-26T12:14:27.000Z</time>
        <extensions>
          <gpxtpx:TrackPointExtension xmlns:gpxtpx="http://www.garmin.com/xmlschemas/TrackPointExtension/v1">
            <gpxtpx:hr>117</gpxtpx:hr>
          </gpxtpx:TrackPointExtension>
        </extensions>
      </trkpt>
      <trkpt lat="45.68981" lon="3.02999">
        <ele>927.59997558594</ele>
        <time>2024-05-26T12:14:29.000Z</time>
        <extensions>
          <gpxtpx:TrackPointExtension xmlns:gpxtpx="http://www.garmin.com/xmlschemas/TrackPointExtension/v1">
            <gpxtpx:hr>116</gpxtpx:hr>
          </gpxtpx:TrackPointExtension>
        </extensions>
      </trkpt>
      <trkpt lat="45.69003" lon="3.03003">
        <ele>926.40002441406</ele>
        <time>2024-05-26T12:14:31.000Z</time>
        <extensions>
          <gpxtpx:TrackPointExtension xmlns:gpxtpx="http://www.garmin.com/xmlschemas/TrackPointExtension/v1">
            <gpxtpx:hr>115</gpxtpx:hr>
          </gpxtpx:TrackPointExtension>
        </extensions>
      </trkpt>
      <trkpt lat="45.69023" lon="3.03007">
        <ele>924.40002441406</ele>
        <time>2024-05-26T12:14:33.000Z</time>
        <extensions>
          <gpxtpx:TrackPointExtension xmlns:gpxtpx="http://www.garmin.com/xmlschemas/TrackPointExtension/v1">
            <gpxtpx:hr>115</gpxtpx:hr>
          </gpxtpx:TrackPointExtension>
        </extensions>
      </trkpt>
      <trkpt lat="45.69043" lon="3.0301">
        <ele>922.79998779297</ele>
        <time>2024-05-26T12:14:35.000Z</time>
        <extensions>
          <gpxtpx:TrackPointExtension xmlns:gpxtpx="http://www.garmin.com/xmlschemas/TrackPointExtension/v1">
            <gpxtpx:hr>114</gpxtpx:hr>
          </gpxtpx:TrackPointExtension>
        </extensions>
      </trkpt>
      <trkpt lat="45.69063" lon="3.03015">
        <ele>921.40002441406</ele>
        <time>2024-05-26T12:14:37.000Z</time>
        <extensions>
          <gpxtpx:TrackPointExtension xmlns:gpxtpx="http://www.garmin.com/xmlschemas/TrackPointExtension/v1">
            <gpxtpx:hr>114</gpxtpx:hr>
          </gpxtpx:TrackPointExtension>
        </extensions>
      </trkpt>
      <trkpt lat="45.6909" lon="3.03024">
        <ele>919.79998779297</ele>
        <time>2024-05-26T12:14:40.000Z</time>
        <extensions>
          <gpxtpx:TrackPointExtension xmlns:gpxtpx="http://www.garmin.com/xmlschemas/TrackPointExtension/v1">
            <gpxtpx:hr>113</gpxtpx:hr>
          </gpxtpx:TrackPointExtension>
        </extensions>
      </trkpt>
      <trkpt lat="45.691" lon="3.03029">
        <ele>918.59997558594</ele>
        <time>2024-05-26T12:14:41.000Z</time>
        <extensions>
          <gpxtpx:TrackPointExtension xmlns:gpxtpx="http://www.garmin.com/xmlschemas/TrackPointExtension/v1">
            <gpxtpx:hr>113</gpxtpx:hr>
          </gpxtpx:TrackPointExtension>
        </extensions>
      </trkpt>
      <trkpt lat="45.69117" lon="3.03044">
        <ele>917.79998779297</ele>
        <time>2024-05-26T12:14:43.000Z</time>
        <extensions>
          <gpxtpx:TrackPointExtension xmlns:gpxtpx="http://www.garmin.com/xmlschemas/TrackPointExtension/v1">
            <gpxtpx:hr>113</gpxtpx:hr>
          </gpxtpx:TrackPointExtension>
        </extensions>
      </trkpt>
      <trkpt lat="45.69125" lon="3.03057">
        <ele>916.79998779297</ele>
        <time>2024-05-26T12:14:44.000Z</time>
        <extensions>
          <gpxtpx:TrackPointExtension xmlns:gpxtpx="http://www.garmin.com/xmlschemas/TrackPointExtension/v1">
            <gpxtpx:hr>113</gpxtpx:hr>
          </gpxtpx:TrackPointExtension>
        </extensions>
      </trkpt>
      <trkpt lat="45.69128" lon="3.0307">
        <ele>915.20001220703</ele>
        <time>2024-05-26T12:14:45.000Z</time>
        <extensions>
          <gpxtpx:TrackPointExtension xmlns:gpxtpx="http://www.garmin.com/xmlschemas/TrackPointExtension/v1">
            <gpxtpx:hr>113</gpxtpx:hr>
          </gpxtpx:TrackPointExtension>
        </extensions>
      </trkpt>
      <trkpt lat="45.69128" lon="3.03081">
        <ele>914.79998779297</ele>
        <time>2024-05-26T12:14:46.000Z</time>
        <extensions>
          <gpxtpx:TrackPointExtension xmlns:gpxtpx="http://www.garmin.com/xmlschemas/TrackPointExtension/v1">
            <gpxtpx:hr>113</gpxtpx:hr>
          </gpxtpx:TrackPointExtension>
        </extensions>
      </trkpt>
      <trkpt lat="45.69126" lon="3.03095">
        <ele>913.59997558594</ele>
        <time>2024-05-26T12:14:47.000Z</time>
        <extensions>
          <gpxtpx:TrackPointExtension xmlns:gpxtpx="http://www.garmin.com/xmlschemas/TrackPointExtension/v1">
            <gpxtpx:hr>113</gpxtpx:hr>
          </gpxtpx:TrackPointExtension>
        </extensions>
      </trkpt>
      <trkpt lat="45.6912" lon="3.03106">
        <ele>912.20001220703</ele>
        <time>2024-05-26T12:14:48.000Z</time>
        <extensions>
          <gpxtpx:TrackPointExtension xmlns:gpxtpx="http://www.garmin.com/xmlschemas/TrackPointExtension/v1">
            <gpxtpx:hr>112</gpxtpx:hr>
          </gpxtpx:TrackPointExtension>
        </extensions>
      </trkpt>
      <trkpt lat="45.69112" lon="3.03115">
        <ele>911.20001220703</ele>
        <time>2024-05-26T12:14:49.000Z</time>
        <extensions>
          <gpxtpx:TrackPointExtension xmlns:gpxtpx="http://www.garmin.com/xmlschemas/TrackPointExtension/v1">
            <gpxtpx:hr>112</gpxtpx:hr>
          </gpxtpx:TrackPointExtension>
        </extensions>
      </trkpt>
      <trkpt lat="45.69095" lon="3.03133">
        <ele>909.79998779297</ele>
        <time>2024-05-26T12:14:51.000Z</time>
        <extensions>
          <gpxtpx:TrackPointExtension xmlns:gpxtpx="http://www.garmin.com/xmlschemas/TrackPointExtension/v1">
            <gpxtpx:hr>111</gpxtpx:hr>
          </gpxtpx:TrackPointExtension>
        </extensions>
      </trkpt>
      <trkpt lat="45.69087" lon="3.03144">
        <ele>908.59997558594</ele>
        <time>2024-05-26T12:14:52.000Z</time>
        <extensions>
          <gpxtpx:TrackPointExtension xmlns:gpxtpx="http://www.garmin.com/xmlschemas/TrackPointExtension/v1">
            <gpxtpx:hr>111</gpxtpx:hr>
          </gpxtpx:TrackPointExtension>
        </extensions>
      </trkpt>
      <trkpt lat="45.69073" lon="3.03172">
        <ele>907.20001220703</ele>
        <time>2024-05-26T12:14:54.000Z</time>
        <extensions>
          <gpxtpx:TrackPointExtension xmlns:gpxtpx="http://www.garmin.com/xmlschemas/TrackPointExtension/v1">
            <gpxtpx:hr>111</gpxtpx:hr>
          </gpxtpx:TrackPointExtension>
        </extensions>
      </trkpt>
      <trkpt lat="45.69059" lon="3.03198">
        <ele>905.79998779297</ele>
        <time>2024-05-26T12:14:56.000Z</time>
        <extensions>
          <gpxtpx:TrackPointExtension xmlns:gpxtpx="http://www.garmin.com/xmlschemas/TrackPointExtension/v1">
            <gpxtpx:hr>111</gpxtpx:hr>
          </gpxtpx:TrackPointExtension>
        </extensions>
      </trkpt>
      <trkpt lat="45.69053" lon="3.03208">
        <ele>904.59997558594</ele>
        <time>2024-05-26T12:14:57.000Z</time>
        <extensions>
          <gpxtpx:TrackPointExtension xmlns:gpxtpx="http://www.garmin.com/xmlschemas/TrackPointExtension/v1">
            <gpxtpx:hr>111</gpxtpx:hr>
          </gpxtpx:TrackPointExtension>
        </extensions>
      </trkpt>
      <trkpt lat="45.6904" lon="3.03234">
        <ele>903.20001220703</ele>
        <time>2024-05-26T12:14:59.000Z</time>
        <extensions>
          <gpxtpx:TrackPointExtension xmlns:gpxtpx="http://www.garmin.com/xmlschemas/TrackPointExtension/v1">
            <gpxtpx:hr>113</gpxtpx:hr>
          </gpxtpx:TrackPointExtension>
        </extensions>
      </trkpt>
      <trkpt lat="45.69034" lon="3.03247">
        <ele>902.59997558594</ele>
        <time>2024-05-26T12:15:00.000Z</time>
        <extensions>
          <gpxtpx:TrackPointExtension xmlns:gpxtpx="http://www.garmin.com/xmlschemas/TrackPointExtension/v1">
            <gpxtpx:hr>113</gpxtpx:hr>
          </gpxtpx:TrackPointExtension>
        </extensions>
      </trkpt>
      <trkpt lat="45.69027" lon="3.03262">
        <ele>902</ele>
        <time>2024-05-26T12:15:01.000Z</time>
        <extensions>
          <gpxtpx:TrackPointExtension xmlns:gpxtpx="http://www.garmin.com/xmlschemas/TrackPointExtension/v1">
            <gpxtpx:hr>114</gpxtpx:hr>
          </gpxtpx:TrackPointExtension>
        </extensions>
      </trkpt>
      <trkpt lat="45.69018" lon="3.03285">
        <ele>900.59997558594</ele>
        <time>2024-05-26T12:15:03.000Z</time>
        <extensions>
          <gpxtpx:TrackPointExtension xmlns:gpxtpx="http://www.garmin.com/xmlschemas/TrackPointExtension/v1">
            <gpxtpx:hr>114</gpxtpx:hr>
          </gpxtpx:TrackPointExtension>
        </extensions>
      </trkpt>
      <trkpt lat="45.69014" lon="3.03298">
        <ele>899.40002441406</ele>
        <time>2024-05-26T12:15:04.000Z</time>
        <extensions>
          <gpxtpx:TrackPointExtension xmlns:gpxtpx="http://www.garmin.com/xmlschemas/TrackPointExtension/v1">
            <gpxtpx:hr>114</gpxtpx:hr>
          </gpxtpx:TrackPointExtension>
        </extensions>
      </trkpt>
      <trkpt lat="45.69008" lon="3.03322">
        <ele>897.40002441406</ele>
        <time>2024-05-26T12:15:06.000Z</time>
        <extensions>
          <gpxtpx:TrackPointExtension xmlns:gpxtpx="http://www.garmin.com/xmlschemas/TrackPointExtension/v1">
            <gpxtpx:hr>113</gpxtpx:hr>
          </gpxtpx:TrackPointExtension>
        </extensions>
      </trkpt>
      <trkpt lat="45.69005" lon="3.03346">
        <ele>895.20001220703</ele>
        <time>2024-05-26T12:15:08.000Z</time>
        <extensions>
          <gpxtpx:TrackPointExtension xmlns:gpxtpx="http://www.garmin.com/xmlschemas/TrackPointExtension/v1">
            <gpxtpx:hr>113</gpxtpx:hr>
          </gpxtpx:TrackPointExtension>
        </extensions>
      </trkpt>
      <trkpt lat="45.69006" lon="3.03358">
        <ele>894.40002441406</ele>
        <time>2024-05-26T12:15:09.000Z</time>
        <extensions>
          <gpxtpx:TrackPointExtension xmlns:gpxtpx="http://www.garmin.com/xmlschemas/TrackPointExtension/v1">
            <gpxtpx:hr>113</gpxtpx:hr>
          </gpxtpx:TrackPointExtension>
        </extensions>
      </trkpt>
      <trkpt lat="45.69008" lon="3.0337">
        <ele>894</ele>
        <time>2024-05-26T12:15:10.000Z</time>
        <extensions>
          <gpxtpx:TrackPointExtension xmlns:gpxtpx="http://www.garmin.com/xmlschemas/TrackPointExtension/v1">
            <gpxtpx:hr>113</gpxtpx:hr>
          </gpxtpx:TrackPointExtension>
        </extensions>
      </trkpt>
      <trkpt lat="45.6901" lon="3.03382">
        <ele>893.40002441406</ele>
        <time>2024-05-26T12:15:11.000Z</time>
        <extensions>
          <gpxtpx:TrackPointExtension xmlns:gpxtpx="http://www.garmin.com/xmlschemas/TrackPointExtension/v1">
            <gpxtpx:hr>114</gpxtpx:hr>
          </gpxtpx:TrackPointExtension>
        </extensions>
      </trkpt>
      <trkpt lat="45.69014" lon="3.03393">
        <ele>893</ele>
        <time>2024-05-26T12:15:12.000Z</time>
        <extensions>
          <gpxtpx:TrackPointExtension xmlns:gpxtpx="http://www.garmin.com/xmlschemas/TrackPointExtension/v1">
            <gpxtpx:hr>114</gpxtpx:hr>
          </gpxtpx:TrackPointExtension>
        </extensions>
      </trkpt>
      <trkpt lat="45.69023" lon="3.03415">
        <ele>892</ele>
        <time>2024-05-26T12:15:14.000Z</time>
        <extensions>
          <gpxtpx:TrackPointExtension xmlns:gpxtpx="http://www.garmin.com/xmlschemas/TrackPointExtension/v1">
            <gpxtpx:hr>114</gpxtpx:hr>
          </gpxtpx:TrackPointExtension>
        </extensions>
      </trkpt>
      <trkpt lat="45.69032" lon="3.03426">
        <ele>890.20001220703</ele>
        <time>2024-05-26T12:15:16.000Z</time>
        <extensions>
          <gpxtpx:TrackPointExtension xmlns:gpxtpx="http://www.garmin.com/xmlschemas/TrackPointExtension/v1">
            <gpxtpx:hr>113</gpxtpx:hr>
          </gpxtpx:TrackPointExtension>
        </extensions>
      </trkpt>
      <trkpt lat="45.69038" lon="3.03429">
        <ele>889.79998779297</ele>
        <time>2024-05-26T12:15:17.000Z</time>
        <extensions>
          <gpxtpx:TrackPointExtension xmlns:gpxtpx="http://www.garmin.com/xmlschemas/TrackPointExtension/v1">
            <gpxtpx:hr>114</gpxtpx:hr>
          </gpxtpx:TrackPointExtension>
        </extensions>
      </trkpt>
      <trkpt lat="45.69045" lon="3.0343">
        <ele>888.79998779297</ele>
        <time>2024-05-26T12:15:18.000Z</time>
        <extensions>
          <gpxtpx:TrackPointExtension xmlns:gpxtpx="http://www.garmin.com/xmlschemas/TrackPointExtension/v1">
            <gpxtpx:hr>114</gpxtpx:hr>
          </gpxtpx:TrackPointExtension>
        </extensions>
      </trkpt>
      <trkpt lat="45.69055" lon="3.0343">
        <ele>888.59997558594</ele>
        <time>2024-05-26T12:15:19.000Z</time>
        <extensions>
          <gpxtpx:TrackPointExtension xmlns:gpxtpx="http://www.garmin.com/xmlschemas/TrackPointExtension/v1">
            <gpxtpx:hr>111</gpxtpx:hr>
          </gpxtpx:TrackPointExtension>
        </extensions>
      </trkpt>
      <trkpt lat="45.69063" lon="3.03429">
        <ele>888.20001220703</ele>
        <time>2024-05-26T12:15:20.000Z</time>
        <extensions>
          <gpxtpx:TrackPointExtension xmlns:gpxtpx="http://www.garmin.com/xmlschemas/TrackPointExtension/v1">
            <gpxtpx:hr>111</gpxtpx:hr>
          </gpxtpx:TrackPointExtension>
        </extensions>
      </trkpt>
      <trkpt lat="45.69071" lon="3.03427">
        <ele>887.79998779297</ele>
        <time>2024-05-26T12:15:21.000Z</time>
        <extensions>
          <gpxtpx:TrackPointExtension xmlns:gpxtpx="http://www.garmin.com/xmlschemas/TrackPointExtension/v1">
            <gpxtpx:hr>110</gpxtpx:hr>
          </gpxtpx:TrackPointExtension>
        </extensions>
      </trkpt>
      <trkpt lat="45.69076" lon="3.03425">
        <ele>887.40002441406</ele>
        <time>2024-05-26T12:15:22.000Z</time>
        <extensions>
          <gpxtpx:TrackPointExtension xmlns:gpxtpx="http://www.garmin.com/xmlschemas/TrackPointExtension/v1">
            <gpxtpx:hr>109</gpxtpx:hr>
          </gpxtpx:TrackPointExtension>
        </extensions>
      </trkpt>
      <trkpt lat="45.69101" lon="3.03413">
        <ele>886.79998779297</ele>
        <time>2024-05-26T12:15:25.000Z</time>
        <extensions>
          <gpxtpx:TrackPointExtension xmlns:gpxtpx="http://www.garmin.com/xmlschemas/TrackPointExtension/v1">
            <gpxtpx:hr>108</gpxtpx:hr>
          </gpxtpx:TrackPointExtension>
        </extensions>
      </trkpt>
      <trkpt lat="45.69107" lon="3.0341">
        <ele>886.20001220703</ele>
        <time>2024-05-26T12:15:26.000Z</time>
        <extensions>
          <gpxtpx:TrackPointExtension xmlns:gpxtpx="http://www.garmin.com/xmlschemas/TrackPointExtension/v1">
            <gpxtpx:hr>108</gpxtpx:hr>
          </gpxtpx:TrackPointExtension>
        </extensions>
      </trkpt>
      <trkpt lat="45.69114" lon="3.03407">
        <ele>885.79998779297</ele>
        <time>2024-05-26T12:15:27.000Z</time>
        <extensions>
          <gpxtpx:TrackPointExtension xmlns:gpxtpx="http://www.garmin.com/xmlschemas/TrackPointExtension/v1">
            <gpxtpx:hr>108</gpxtpx:hr>
          </gpxtpx:TrackPointExtension>
        </extensions>
      </trkpt>
      <trkpt lat="45.69131" lon="3.03405">
        <ele>885.20001220703</ele>
        <time>2024-05-26T12:15:29.000Z</time>
        <extensions>
          <gpxtpx:TrackPointExtension xmlns:gpxtpx="http://www.garmin.com/xmlschemas/TrackPointExtension/v1">
            <gpxtpx:hr>107</gpxtpx:hr>
          </gpxtpx:TrackPointExtension>
        </extensions>
      </trkpt>
      <trkpt lat="45.69165" lon="3.03405">
        <ele>884.20001220703</ele>
        <time>2024-05-26T12:15:33.000Z</time>
        <extensions>
          <gpxtpx:TrackPointExtension xmlns:gpxtpx="http://www.garmin.com/xmlschemas/TrackPointExtension/v1">
            <gpxtpx:hr>104</gpxtpx:hr>
          </gpxtpx:TrackPointExtension>
        </extensions>
      </trkpt>
      <trkpt lat="45.69173" lon="3.03404">
        <ele>884</ele>
        <time>2024-05-26T12:15:34.000Z</time>
        <extensions>
          <gpxtpx:TrackPointExtension xmlns:gpxtpx="http://www.garmin.com/xmlschemas/TrackPointExtension/v1">
            <gpxtpx:hr>104</gpxtpx:hr>
          </gpxtpx:TrackPointExtension>
        </extensions>
      </trkpt>
      <trkpt lat="45.6919" lon="3.03403">
        <ele>883.40002441406</ele>
        <time>2024-05-26T12:15:36.000Z</time>
        <extensions>
          <gpxtpx:TrackPointExtension xmlns:gpxtpx="http://www.garmin.com/xmlschemas/TrackPointExtension/v1">
            <gpxtpx:hr>104</gpxtpx:hr>
          </gpxtpx:TrackPointExtension>
        </extensions>
      </trkpt>
      <trkpt lat="45.69198" lon="3.03402">
        <ele>883</ele>
        <time>2024-05-26T12:15:37.000Z</time>
        <extensions>
          <gpxtpx:TrackPointExtension xmlns:gpxtpx="http://www.garmin.com/xmlschemas/TrackPointExtension/v1">
            <gpxtpx:hr>103</gpxtpx:hr>
          </gpxtpx:TrackPointExtension>
        </extensions>
      </trkpt>
      <trkpt lat="45.69212" lon="3.03401">
        <ele>882.20001220703</ele>
        <time>2024-05-26T12:15:39.000Z</time>
        <extensions>
          <gpxtpx:TrackPointExtension xmlns:gpxtpx="http://www.garmin.com/xmlschemas/TrackPointExtension/v1">
            <gpxtpx:hr>102</gpxtpx:hr>
          </gpxtpx:TrackPointExtension>
        </extensions>
      </trkpt>
      <trkpt lat="45.69221" lon="3.034">
        <ele>882</ele>
        <time>2024-05-26T12:15:40.000Z</time>
        <extensions>
          <gpxtpx:TrackPointExtension xmlns:gpxtpx="http://www.garmin.com/xmlschemas/TrackPointExtension/v1">
            <gpxtpx:hr>104</gpxtpx:hr>
          </gpxtpx:TrackPointExtension>
        </extensions>
      </trkpt>
      <trkpt lat="45.69237" lon="3.03397">
        <ele>881.40002441406</ele>
        <time>2024-05-26T12:15:42.000Z</time>
        <extensions>
          <gpxtpx:TrackPointExtension xmlns:gpxtpx="http://www.garmin.com/xmlschemas/TrackPointExtension/v1">
            <gpxtpx:hr>104</gpxtpx:hr>
          </gpxtpx:TrackPointExtension>
        </extensions>
      </trkpt>
      <trkpt lat="45.69245" lon="3.03395">
        <ele>880.79998779297</ele>
        <time>2024-05-26T12:15:43.000Z</time>
        <extensions>
          <gpxtpx:TrackPointExtension xmlns:gpxtpx="http://www.garmin.com/xmlschemas/TrackPointExtension/v1">
            <gpxtpx:hr>104</gpxtpx:hr>
          </gpxtpx:TrackPointExtension>
        </extensions>
      </trkpt>
      <trkpt lat="45.69268" lon="3.03386">
        <ele>879.79998779297</ele>
        <time>2024-05-26T12:15:46.000Z</time>
        <extensions>
          <gpxtpx:TrackPointExtension xmlns:gpxtpx="http://www.garmin.com/xmlschemas/TrackPointExtension/v1">
            <gpxtpx:hr>103</gpxtpx:hr>
          </gpxtpx:TrackPointExtension>
        </extensions>
      </trkpt>
      <trkpt lat="45.69276" lon="3.03384">
        <ele>879.40002441406</ele>
        <time>2024-05-26T12:15:47.000Z</time>
        <extensions>
          <gpxtpx:TrackPointExtension xmlns:gpxtpx="http://www.garmin.com/xmlschemas/TrackPointExtension/v1">
            <gpxtpx:hr>104</gpxtpx:hr>
          </gpxtpx:TrackPointExtension>
        </extensions>
      </trkpt>
      <trkpt lat="45.69283" lon="3.03382">
        <ele>879.20001220703</ele>
        <time>2024-05-26T12:15:48.000Z</time>
        <extensions>
          <gpxtpx:TrackPointExtension xmlns:gpxtpx="http://www.garmin.com/xmlschemas/TrackPointExtension/v1">
            <gpxtpx:hr>103</gpxtpx:hr>
          </gpxtpx:TrackPointExtension>
        </extensions>
      </trkpt>
      <trkpt lat="45.69298" lon="3.03378">
        <ele>878.79998779297</ele>
        <time>2024-05-26T12:15:50.000Z</time>
        <extensions>
          <gpxtpx:TrackPointExtension xmlns:gpxtpx="http://www.garmin.com/xmlschemas/TrackPointExtension/v1">
            <gpxtpx:hr>103</gpxtpx:hr>
          </gpxtpx:TrackPointExtension>
        </extensions>
      </trkpt>
      <trkpt lat="45.69321" lon="3.03372">
        <ele>877.59997558594</ele>
        <time>2024-05-26T12:15:53.000Z</time>
        <extensions>
          <gpxtpx:TrackPointExtension xmlns:gpxtpx="http://www.garmin.com/xmlschemas/TrackPointExtension/v1">
            <gpxtpx:hr>103</gpxtpx:hr>
          </gpxtpx:TrackPointExtension>
        </extensions>
      </trkpt>
      <trkpt lat="45.69329" lon="3.03369">
        <ele>877.40002441406</ele>
        <time>2024-05-26T12:15:54.000Z</time>
        <extensions>
          <gpxtpx:TrackPointExtension xmlns:gpxtpx="http://www.garmin.com/xmlschemas/TrackPointExtension/v1">
            <gpxtpx:hr>100</gpxtpx:hr>
          </gpxtpx:TrackPointExtension>
        </extensions>
      </trkpt>
      <trkpt lat="45.69336" lon="3.03367">
        <ele>877.20001220703</ele>
        <time>2024-05-26T12:15:55.000Z</time>
        <extensions>
          <gpxtpx:TrackPointExtension xmlns:gpxtpx="http://www.garmin.com/xmlschemas/TrackPointExtension/v1">
            <gpxtpx:hr>104</gpxtpx:hr>
          </gpxtpx:TrackPointExtension>
        </extensions>
      </trkpt>
      <trkpt lat="45.69351" lon="3.03361">
        <ele>876.59997558594</ele>
        <time>2024-05-26T12:15:57.000Z</time>
        <extensions>
          <gpxtpx:TrackPointExtension xmlns:gpxtpx="http://www.garmin.com/xmlschemas/TrackPointExtension/v1">
            <gpxtpx:hr>103</gpxtpx:hr>
          </gpxtpx:TrackPointExtension>
        </extensions>
      </trkpt>
      <trkpt lat="45.69372" lon="3.0335">
        <ele>875.59997558594</ele>
        <time>2024-05-26T12:16:00.000Z</time>
        <extensions>
          <gpxtpx:TrackPointExtension xmlns:gpxtpx="http://www.garmin.com/xmlschemas/TrackPointExtension/v1">
            <gpxtpx:hr>104</gpxtpx:hr>
          </gpxtpx:TrackPointExtension>
        </extensions>
      </trkpt>
      <trkpt lat="45.69379" lon="3.03345">
        <ele>874.79998779297</ele>
        <time>2024-05-26T12:16:01.000Z</time>
        <extensions>
          <gpxtpx:TrackPointExtension xmlns:gpxtpx="http://www.garmin.com/xmlschemas/TrackPointExtension/v1">
            <gpxtpx:hr>104</gpxtpx:hr>
          </gpxtpx:TrackPointExtension>
        </extensions>
      </trkpt>
      <trkpt lat="45.69393" lon="3.03335">
        <ele>874.59997558594</ele>
        <time>2024-05-26T12:16:03.000Z</time>
        <extensions>
          <gpxtpx:TrackPointExtension xmlns:gpxtpx="http://www.garmin.com/xmlschemas/TrackPointExtension/v1">
            <gpxtpx:hr>104</gpxtpx:hr>
          </gpxtpx:TrackPointExtension>
        </extensions>
      </trkpt>
      <trkpt lat="45.69413" lon="3.03318">
        <ele>873.59997558594</ele>
        <time>2024-05-26T12:16:06.000Z</time>
        <extensions>
          <gpxtpx:TrackPointExtension xmlns:gpxtpx="http://www.garmin.com/xmlschemas/TrackPointExtension/v1">
            <gpxtpx:hr>105</gpxtpx:hr>
          </gpxtpx:TrackPointExtension>
        </extensions>
      </trkpt>
      <trkpt lat="45.69434" lon="3.03304">
        <ele>872.79998779297</ele>
        <time>2024-05-26T12:16:09.000Z</time>
        <extensions>
          <gpxtpx:TrackPointExtension xmlns:gpxtpx="http://www.garmin.com/xmlschemas/TrackPointExtension/v1">
            <gpxtpx:hr>105</gpxtpx:hr>
          </gpxtpx:TrackPointExtension>
        </extensions>
      </trkpt>
      <trkpt lat="45.69447" lon="3.03295">
        <ele>872.40002441406</ele>
        <time>2024-05-26T12:16:11.000Z</time>
        <extensions>
          <gpxtpx:TrackPointExtension xmlns:gpxtpx="http://www.garmin.com/xmlschemas/TrackPointExtension/v1">
            <gpxtpx:hr>106</gpxtpx:hr>
          </gpxtpx:TrackPointExtension>
        </extensions>
      </trkpt>
      <trkpt lat="45.6949" lon="3.03273">
        <ele>871.40002441406</ele>
        <time>2024-05-26T12:16:17.000Z</time>
        <extensions>
          <gpxtpx:TrackPointExtension xmlns:gpxtpx="http://www.garmin.com/xmlschemas/TrackPointExtension/v1">
            <gpxtpx:hr>106</gpxtpx:hr>
          </gpxtpx:TrackPointExtension>
        </extensions>
      </trkpt>
      <trkpt lat="45.69521" lon="3.03262">
        <ele>870</ele>
        <time>2024-05-26T12:16:21.000Z</time>
        <extensions>
          <gpxtpx:TrackPointExtension xmlns:gpxtpx="http://www.garmin.com/xmlschemas/TrackPointExtension/v1">
            <gpxtpx:hr>105</gpxtpx:hr>
          </gpxtpx:TrackPointExtension>
        </extensions>
      </trkpt>
      <trkpt lat="45.69546" lon="3.03254">
        <ele>868.79998779297</ele>
        <time>2024-05-26T12:16:24.000Z</time>
        <extensions>
          <gpxtpx:TrackPointExtension xmlns:gpxtpx="http://www.garmin.com/xmlschemas/TrackPointExtension/v1">
            <gpxtpx:hr>106</gpxtpx:hr>
          </gpxtpx:TrackPointExtension>
        </extensions>
      </trkpt>
      <trkpt lat="45.69572" lon="3.03245">
        <ele>867.79998779297</ele>
        <time>2024-05-26T12:16:27.000Z</time>
        <extensions>
          <gpxtpx:TrackPointExtension xmlns:gpxtpx="http://www.garmin.com/xmlschemas/TrackPointExtension/v1">
            <gpxtpx:hr>104</gpxtpx:hr>
          </gpxtpx:TrackPointExtension>
        </extensions>
      </trkpt>
      <trkpt lat="45.6959" lon="3.0324">
        <ele>866.40002441406</ele>
        <time>2024-05-26T12:16:29.000Z</time>
        <extensions>
          <gpxtpx:TrackPointExtension xmlns:gpxtpx="http://www.garmin.com/xmlschemas/TrackPointExtension/v1">
            <gpxtpx:hr>106</gpxtpx:hr>
          </gpxtpx:TrackPointExtension>
        </extensions>
      </trkpt>
      <trkpt lat="45.69608" lon="3.03234">
        <ele>865.20001220703</ele>
        <time>2024-05-26T12:16:31.000Z</time>
        <extensions>
          <gpxtpx:TrackPointExtension xmlns:gpxtpx="http://www.garmin.com/xmlschemas/TrackPointExtension/v1">
            <gpxtpx:hr>105</gpxtpx:hr>
          </gpxtpx:TrackPointExtension>
        </extensions>
      </trkpt>
      <trkpt lat="45.69618" lon="3.0323">
        <ele>864</ele>
        <time>2024-05-26T12:16:32.000Z</time>
        <extensions>
          <gpxtpx:TrackPointExtension xmlns:gpxtpx="http://www.garmin.com/xmlschemas/TrackPointExtension/v1">
            <gpxtpx:hr>105</gpxtpx:hr>
          </gpxtpx:TrackPointExtension>
        </extensions>
      </trkpt>
      <trkpt lat="45.69636" lon="3.03224">
        <ele>863</ele>
        <time>2024-05-26T12:16:34.000Z</time>
        <extensions>
          <gpxtpx:TrackPointExtension xmlns:gpxtpx="http://www.garmin.com/xmlschemas/TrackPointExtension/v1">
            <gpxtpx:hr>104</gpxtpx:hr>
          </gpxtpx:TrackPointExtension>
        </extensions>
      </trkpt>
      <trkpt lat="45.69665" lon="3.03214">
        <ele>861.79998779297</ele>
        <time>2024-05-26T12:16:37.000Z</time>
        <extensions>
          <gpxtpx:TrackPointExtension xmlns:gpxtpx="http://www.garmin.com/xmlschemas/TrackPointExtension/v1">
            <gpxtpx:hr>105</gpxtpx:hr>
          </gpxtpx:TrackPointExtension>
        </extensions>
      </trkpt>
      <trkpt lat="45.69684" lon="3.03208">
        <ele>861</ele>
        <time>2024-05-26T12:16:39.000Z</time>
        <extensions>
          <gpxtpx:TrackPointExtension xmlns:gpxtpx="http://www.garmin.com/xmlschemas/TrackPointExtension/v1">
            <gpxtpx:hr>105</gpxtpx:hr>
          </gpxtpx:TrackPointExtension>
        </extensions>
      </trkpt>
      <trkpt lat="45.69694" lon="3.03205">
        <ele>860.59997558594</ele>
        <time>2024-05-26T12:16:40.000Z</time>
        <extensions>
          <gpxtpx:TrackPointExtension xmlns:gpxtpx="http://www.garmin.com/xmlschemas/TrackPointExtension/v1">
            <gpxtpx:hr>105</gpxtpx:hr>
          </gpxtpx:TrackPointExtension>
        </extensions>
      </trkpt>
      <trkpt lat="45.69713" lon="3.03199">
        <ele>859.40002441406</ele>
        <time>2024-05-26T12:16:42.000Z</time>
        <extensions>
          <gpxtpx:TrackPointExtension xmlns:gpxtpx="http://www.garmin.com/xmlschemas/TrackPointExtension/v1">
            <gpxtpx:hr>105</gpxtpx:hr>
          </gpxtpx:TrackPointExtension>
        </extensions>
      </trkpt>
      <trkpt lat="45.69753" lon="3.03188">
        <ele>858.79998779297</ele>
        <time>2024-05-26T12:16:46.000Z</time>
        <extensions>
          <gpxtpx:TrackPointExtension xmlns:gpxtpx="http://www.garmin.com/xmlschemas/TrackPointExtension/v1">
            <gpxtpx:hr>106</gpxtpx:hr>
          </gpxtpx:TrackPointExtension>
        </extensions>
      </trkpt>
      <trkpt lat="45.69773" lon="3.03184">
        <ele>857.79998779297</ele>
        <time>2024-05-26T12:16:48.000Z</time>
        <extensions>
          <gpxtpx:TrackPointExtension xmlns:gpxtpx="http://www.garmin.com/xmlschemas/TrackPointExtension/v1">
            <gpxtpx:hr>107</gpxtpx:hr>
          </gpxtpx:TrackPointExtension>
        </extensions>
      </trkpt>
      <trkpt lat="45.69803" lon="3.03179">
        <ele>856.40002441406</ele>
        <time>2024-05-26T12:16:51.000Z</time>
        <extensions>
          <gpxtpx:TrackPointExtension xmlns:gpxtpx="http://www.garmin.com/xmlschemas/TrackPointExtension/v1">
            <gpxtpx:hr>108</gpxtpx:hr>
          </gpxtpx:TrackPointExtension>
        </extensions>
      </trkpt>
      <trkpt lat="45.69821" lon="3.03177">
        <ele>855.40002441406</ele>
        <time>2024-05-26T12:16:53.000Z</time>
        <extensions>
          <gpxtpx:TrackPointExtension xmlns:gpxtpx="http://www.garmin.com/xmlschemas/TrackPointExtension/v1">
            <gpxtpx:hr>108</gpxtpx:hr>
          </gpxtpx:TrackPointExtension>
        </extensions>
      </trkpt>
      <trkpt lat="45.69872" lon="3.03171">
        <ele>854.40002441406</ele>
        <time>2024-05-26T12:16:58.000Z</time>
        <extensions>
          <gpxtpx:TrackPointExtension xmlns:gpxtpx="http://www.garmin.com/xmlschemas/TrackPointExtension/v1">
            <gpxtpx:hr>107</gpxtpx:hr>
          </gpxtpx:TrackPointExtension>
        </extensions>
      </trkpt>
      <trkpt lat="45.699" lon="3.03168">
        <ele>853.20001220703</ele>
        <time>2024-05-26T12:17:01.000Z</time>
        <extensions>
          <gpxtpx:TrackPointExtension xmlns:gpxtpx="http://www.garmin.com/xmlschemas/TrackPointExtension/v1">
            <gpxtpx:hr>107</gpxtpx:hr>
          </gpxtpx:TrackPointExtension>
        </extensions>
      </trkpt>
      <trkpt lat="45.6991" lon="3.03167">
        <ele>853</ele>
        <time>2024-05-26T12:17:02.000Z</time>
        <extensions>
          <gpxtpx:TrackPointExtension xmlns:gpxtpx="http://www.garmin.com/xmlschemas/TrackPointExtension/v1">
            <gpxtpx:hr>108</gpxtpx:hr>
          </gpxtpx:TrackPointExtension>
        </extensions>
      </trkpt>
      <trkpt lat="45.69929" lon="3.03166">
        <ele>851.59997558594</ele>
        <time>2024-05-26T12:17:04.000Z</time>
        <extensions>
          <gpxtpx:TrackPointExtension xmlns:gpxtpx="http://www.garmin.com/xmlschemas/TrackPointExtension/v1">
            <gpxtpx:hr>107</gpxtpx:hr>
          </gpxtpx:TrackPointExtension>
        </extensions>
      </trkpt>
      <trkpt lat="45.69965" lon="3.03164">
        <ele>850.40002441406</ele>
        <time>2024-05-26T12:17:08.000Z</time>
        <extensions>
          <gpxtpx:TrackPointExtension xmlns:gpxtpx="http://www.garmin.com/xmlschemas/TrackPointExtension/v1">
            <gpxtpx:hr>108</gpxtpx:hr>
          </gpxtpx:TrackPointExtension>
        </extensions>
      </trkpt>
      <trkpt lat="45.69975" lon="3.03163">
        <ele>850.20001220703</ele>
        <time>2024-05-26T12:17:09.000Z</time>
        <extensions>
          <gpxtpx:TrackPointExtension xmlns:gpxtpx="http://www.garmin.com/xmlschemas/TrackPointExtension/v1">
            <gpxtpx:hr>107</gpxtpx:hr>
          </gpxtpx:TrackPointExtension>
        </extensions>
      </trkpt>
      <trkpt lat="45.70001" lon="3.03158">
        <ele>849.20001220703</ele>
        <time>2024-05-26T12:17:12.000Z</time>
        <extensions>
          <gpxtpx:TrackPointExtension xmlns:gpxtpx="http://www.garmin.com/xmlschemas/TrackPointExtension/v1">
            <gpxtpx:hr>107</gpxtpx:hr>
          </gpxtpx:TrackPointExtension>
        </extensions>
      </trkpt>
      <trkpt lat="45.70017" lon="3.0315">
        <ele>848.79998779297</ele>
        <time>2024-05-26T12:17:14.000Z</time>
        <extensions>
          <gpxtpx:TrackPointExtension xmlns:gpxtpx="http://www.garmin.com/xmlschemas/TrackPointExtension/v1">
            <gpxtpx:hr>106</gpxtpx:hr>
          </gpxtpx:TrackPointExtension>
        </extensions>
      </trkpt>
      <trkpt lat="45.70031" lon="3.03137">
        <ele>848</ele>
        <time>2024-05-26T12:17:16.000Z</time>
        <extensions>
          <gpxtpx:TrackPointExtension xmlns:gpxtpx="http://www.garmin.com/xmlschemas/TrackPointExtension/v1">
            <gpxtpx:hr>106</gpxtpx:hr>
          </gpxtpx:TrackPointExtension>
        </extensions>
      </trkpt>
      <trkpt lat="45.70043" lon="3.03121">
        <ele>847.79998779297</ele>
        <time>2024-05-26T12:17:18.000Z</time>
        <extensions>
          <gpxtpx:TrackPointExtension xmlns:gpxtpx="http://www.garmin.com/xmlschemas/TrackPointExtension/v1">
            <gpxtpx:hr>107</gpxtpx:hr>
          </gpxtpx:TrackPointExtension>
        </extensions>
      </trkpt>
      <trkpt lat="45.70065" lon="3.03081">
        <ele>847.20001220703</ele>
        <time>2024-05-26T12:17:23.000Z</time>
        <extensions>
          <gpxtpx:TrackPointExtension xmlns:gpxtpx="http://www.garmin.com/xmlschemas/TrackPointExtension/v1">
            <gpxtpx:hr>107</gpxtpx:hr>
          </gpxtpx:TrackPointExtension>
        </extensions>
      </trkpt>
      <trkpt lat="45.70069" lon="3.03073">
        <ele>846.79998779297</ele>
        <time>2024-05-26T12:17:24.000Z</time>
        <extensions>
          <gpxtpx:TrackPointExtension xmlns:gpxtpx="http://www.garmin.com/xmlschemas/TrackPointExtension/v1">
            <gpxtpx:hr>107</gpxtpx:hr>
          </gpxtpx:TrackPointExtension>
        </extensions>
      </trkpt>
      <trkpt lat="45.7009" lon="3.03028">
        <ele>847.40002441406</ele>
        <time>2024-05-26T12:17:30.000Z</time>
        <extensions>
          <gpxtpx:TrackPointExtension xmlns:gpxtpx="http://www.garmin.com/xmlschemas/TrackPointExtension/v1">
            <gpxtpx:hr>108</gpxtpx:hr>
          </gpxtpx:TrackPointExtension>
        </extensions>
      </trkpt>
      <trkpt lat="45.70105" lon="3.02996">
        <ele>847.40002441406</ele>
        <time>2024-05-26T12:17:34.000Z</time>
        <extensions>
          <gpxtpx:TrackPointExtension xmlns:gpxtpx="http://www.garmin.com/xmlschemas/TrackPointExtension/v1">
            <gpxtpx:hr>111</gpxtpx:hr>
          </gpxtpx:TrackPointExtension>
        </extensions>
      </trkpt>
      <trkpt lat="45.70124" lon="3.02955">
        <ele>847</ele>
        <time>2024-05-26T12:17:39.000Z</time>
        <extensions>
          <gpxtpx:TrackPointExtension xmlns:gpxtpx="http://www.garmin.com/xmlschemas/TrackPointExtension/v1">
            <gpxtpx:hr>114</gpxtpx:hr>
          </gpxtpx:TrackPointExtension>
        </extensions>
      </trkpt>
      <trkpt lat="45.70155" lon="3.02891">
        <ele>846.59997558594</ele>
        <time>2024-05-26T12:17:47.000Z</time>
        <extensions>
          <gpxtpx:TrackPointExtension xmlns:gpxtpx="http://www.garmin.com/xmlschemas/TrackPointExtension/v1">
            <gpxtpx:hr>112</gpxtpx:hr>
          </gpxtpx:TrackPointExtension>
        </extensions>
      </trkpt>
      <trkpt lat="45.70162" lon="3.02877">
        <ele>846.59997558594</ele>
        <time>2024-05-26T12:17:49.000Z</time>
        <extensions>
          <gpxtpx:TrackPointExtension xmlns:gpxtpx="http://www.garmin.com/xmlschemas/TrackPointExtension/v1">
            <gpxtpx:hr>111</gpxtpx:hr>
          </gpxtpx:TrackPointExtension>
        </extensions>
      </trkpt>
      <trkpt lat="45.70194" lon="3.02809">
        <ele>847</ele>
        <time>2024-05-26T12:17:58.000Z</time>
        <extensions>
          <gpxtpx:TrackPointExtension xmlns:gpxtpx="http://www.garmin.com/xmlschemas/TrackPointExtension/v1">
            <gpxtpx:hr>113</gpxtpx:hr>
          </gpxtpx:TrackPointExtension>
        </extensions>
      </trkpt>
      <trkpt lat="45.70211" lon="3.0278">
        <ele>846.79998779297</ele>
        <time>2024-05-26T12:18:02.000Z</time>
        <extensions>
          <gpxtpx:TrackPointExtension xmlns:gpxtpx="http://www.garmin.com/xmlschemas/TrackPointExtension/v1">
            <gpxtpx:hr>115</gpxtpx:hr>
          </gpxtpx:TrackPointExtension>
        </extensions>
      </trkpt>
      <trkpt lat="45.70223" lon="3.02765">
        <ele>846.40002441406</ele>
        <time>2024-05-26T12:18:04.000Z</time>
        <extensions>
          <gpxtpx:TrackPointExtension xmlns:gpxtpx="http://www.garmin.com/xmlschemas/TrackPointExtension/v1">
            <gpxtpx:hr>118</gpxtpx:hr>
          </gpxtpx:TrackPointExtension>
        </extensions>
      </trkpt>
      <trkpt lat="45.70237" lon="3.02752">
        <ele>845.20001220703</ele>
        <time>2024-05-26T12:18:06.000Z</time>
        <extensions>
          <gpxtpx:TrackPointExtension xmlns:gpxtpx="http://www.garmin.com/xmlschemas/TrackPointExtension/v1">
            <gpxtpx:hr>116</gpxtpx:hr>
          </gpxtpx:TrackPointExtension>
        </extensions>
      </trkpt>
      <trkpt lat="45.70251" lon="3.0274">
        <ele>844.20001220703</ele>
        <time>2024-05-26T12:18:08.000Z</time>
        <extensions>
          <gpxtpx:TrackPointExtension xmlns:gpxtpx="http://www.garmin.com/xmlschemas/TrackPointExtension/v1">
            <gpxtpx:hr>118</gpxtpx:hr>
          </gpxtpx:TrackPointExtension>
        </extensions>
      </trkpt>
      <trkpt lat="45.70259" lon="3.02733">
        <ele>843.79998779297</ele>
        <time>2024-05-26T12:18:09.000Z</time>
        <extensions>
          <gpxtpx:TrackPointExtension xmlns:gpxtpx="http://www.garmin.com/xmlschemas/TrackPointExtension/v1">
            <gpxtpx:hr>115</gpxtpx:hr>
          </gpxtpx:TrackPointExtension>
        </extensions>
      </trkpt>
      <trkpt lat="45.70266" lon="3.02724">
        <ele>843.20001220703</ele>
        <time>2024-05-26T12:18:10.000Z</time>
        <extensions>
          <gpxtpx:TrackPointExtension xmlns:gpxtpx="http://www.garmin.com/xmlschemas/TrackPointExtension/v1">
            <gpxtpx:hr>117</gpxtpx:hr>
          </gpxtpx:TrackPointExtension>
        </extensions>
      </trkpt>
      <trkpt lat="45.70273" lon="3.02713">
        <ele>842.79998779297</ele>
        <time>2024-05-26T12:18:11.000Z</time>
        <extensions>
          <gpxtpx:TrackPointExtension xmlns:gpxtpx="http://www.garmin.com/xmlschemas/TrackPointExtension/v1">
            <gpxtpx:hr>118</gpxtpx:hr>
          </gpxtpx:TrackPointExtension>
        </extensions>
      </trkpt>
      <trkpt lat="45.70286" lon="3.02688">
        <ele>842.40002441406</ele>
        <time>2024-05-26T12:18:13.000Z</time>
        <extensions>
          <gpxtpx:TrackPointExtension xmlns:gpxtpx="http://www.garmin.com/xmlschemas/TrackPointExtension/v1">
            <gpxtpx:hr>117</gpxtpx:hr>
          </gpxtpx:TrackPointExtension>
        </extensions>
      </trkpt>
      <trkpt lat="45.70294" lon="3.02672">
        <ele>842.20001220703</ele>
        <time>2024-05-26T12:18:14.000Z</time>
        <extensions>
          <gpxtpx:TrackPointExtension xmlns:gpxtpx="http://www.garmin.com/xmlschemas/TrackPointExtension/v1">
            <gpxtpx:hr>117</gpxtpx:hr>
          </gpxtpx:TrackPointExtension>
        </extensions>
      </trkpt>
      <trkpt lat="45.70298" lon="3.0266">
        <ele>841.59997558594</ele>
        <time>2024-05-26T12:18:15.000Z</time>
        <extensions>
          <gpxtpx:TrackPointExtension xmlns:gpxtpx="http://www.garmin.com/xmlschemas/TrackPointExtension/v1">
            <gpxtpx:hr>118</gpxtpx:hr>
          </gpxtpx:TrackPointExtension>
        </extensions>
      </trkpt>
      <trkpt lat="45.70308" lon="3.0263">
        <ele>840.40002441406</ele>
        <time>2024-05-26T12:18:17.000Z</time>
        <extensions>
          <gpxtpx:TrackPointExtension xmlns:gpxtpx="http://www.garmin.com/xmlschemas/TrackPointExtension/v1">
            <gpxtpx:hr>117</gpxtpx:hr>
          </gpxtpx:TrackPointExtension>
        </extensions>
      </trkpt>
      <trkpt lat="45.70317" lon="3.02597">
        <ele>838.79998779297</ele>
        <time>2024-05-26T12:18:19.000Z</time>
        <extensions>
          <gpxtpx:TrackPointExtension xmlns:gpxtpx="http://www.garmin.com/xmlschemas/TrackPointExtension/v1">
            <gpxtpx:hr>115</gpxtpx:hr>
          </gpxtpx:TrackPointExtension>
        </extensions>
      </trkpt>
      <trkpt lat="45.70324" lon="3.0256">
        <ele>836.79998779297</ele>
        <time>2024-05-26T12:18:21.000Z</time>
        <extensions>
          <gpxtpx:TrackPointExtension xmlns:gpxtpx="http://www.garmin.com/xmlschemas/TrackPointExtension/v1">
            <gpxtpx:hr>114</gpxtpx:hr>
          </gpxtpx:TrackPointExtension>
        </extensions>
      </trkpt>
      <trkpt lat="45.70328" lon="3.02528">
        <ele>835</ele>
        <time>2024-05-26T12:18:23.000Z</time>
        <extensions>
          <gpxtpx:TrackPointExtension xmlns:gpxtpx="http://www.garmin.com/xmlschemas/TrackPointExtension/v1">
            <gpxtpx:hr>112</gpxtpx:hr>
          </gpxtpx:TrackPointExtension>
        </extensions>
      </trkpt>
      <trkpt lat="45.70331" lon="3.02511">
        <ele>834.79998779297</ele>
        <time>2024-05-26T12:18:24.000Z</time>
        <extensions>
          <gpxtpx:TrackPointExtension xmlns:gpxtpx="http://www.garmin.com/xmlschemas/TrackPointExtension/v1">
            <gpxtpx:hr>112</gpxtpx:hr>
          </gpxtpx:TrackPointExtension>
        </extensions>
      </trkpt>
      <trkpt lat="45.70334" lon="3.02493">
        <ele>832.40002441406</ele>
        <time>2024-05-26T12:18:25.000Z</time>
        <extensions>
          <gpxtpx:TrackPointExtension xmlns:gpxtpx="http://www.garmin.com/xmlschemas/TrackPointExtension/v1">
            <gpxtpx:hr>111</gpxtpx:hr>
          </gpxtpx:TrackPointExtension>
        </extensions>
      </trkpt>
      <trkpt lat="45.70342" lon="3.02458">
        <ele>830.20001220703</ele>
        <time>2024-05-26T12:18:27.000Z</time>
        <extensions>
          <gpxtpx:TrackPointExtension xmlns:gpxtpx="http://www.garmin.com/xmlschemas/TrackPointExtension/v1">
            <gpxtpx:hr>110</gpxtpx:hr>
          </gpxtpx:TrackPointExtension>
        </extensions>
      </trkpt>
      <trkpt lat="45.70348" lon="3.02424">
        <ele>828.59997558594</ele>
        <time>2024-05-26T12:18:29.000Z</time>
        <extensions>
          <gpxtpx:TrackPointExtension xmlns:gpxtpx="http://www.garmin.com/xmlschemas/TrackPointExtension/v1">
            <gpxtpx:hr>109</gpxtpx:hr>
          </gpxtpx:TrackPointExtension>
        </extensions>
      </trkpt>
      <trkpt lat="45.70348" lon="3.02408">
        <ele>827</ele>
        <time>2024-05-26T12:18:30.000Z</time>
        <extensions>
          <gpxtpx:TrackPointExtension xmlns:gpxtpx="http://www.garmin.com/xmlschemas/TrackPointExtension/v1">
            <gpxtpx:hr>109</gpxtpx:hr>
          </gpxtpx:TrackPointExtension>
        </extensions>
      </trkpt>
      <trkpt lat="45.70346" lon="3.02389">
        <ele>826.20001220703</ele>
        <time>2024-05-26T12:18:31.000Z</time>
        <extensions>
          <gpxtpx:TrackPointExtension xmlns:gpxtpx="http://www.garmin.com/xmlschemas/TrackPointExtension/v1">
            <gpxtpx:hr>108</gpxtpx:hr>
          </gpxtpx:TrackPointExtension>
        </extensions>
      </trkpt>
      <trkpt lat="45.70342" lon="3.02377">
        <ele>824.59997558594</ele>
        <time>2024-05-26T12:18:32.000Z</time>
        <extensions>
          <gpxtpx:TrackPointExtension xmlns:gpxtpx="http://www.garmin.com/xmlschemas/TrackPointExtension/v1">
            <gpxtpx:hr>108</gpxtpx:hr>
          </gpxtpx:TrackPointExtension>
        </extensions>
      </trkpt>
      <trkpt lat="45.70337" lon="3.02361">
        <ele>823.40002441406</ele>
        <time>2024-05-26T12:18:33.000Z</time>
        <extensions>
          <gpxtpx:TrackPointExtension xmlns:gpxtpx="http://www.garmin.com/xmlschemas/TrackPointExtension/v1">
            <gpxtpx:hr>108</gpxtpx:hr>
          </gpxtpx:TrackPointExtension>
        </extensions>
      </trkpt>
      <trkpt lat="45.7033" lon="3.02342">
        <ele>822.79998779297</ele>
        <time>2024-05-26T12:18:34.000Z</time>
        <extensions>
          <gpxtpx:TrackPointExtension xmlns:gpxtpx="http://www.garmin.com/xmlschemas/TrackPointExtension/v1">
            <gpxtpx:hr>108</gpxtpx:hr>
          </gpxtpx:TrackPointExtension>
        </extensions>
      </trkpt>
      <trkpt lat="45.70325" lon="3.02326">
        <ele>822</ele>
        <time>2024-05-26T12:18:35.000Z</time>
        <extensions>
          <gpxtpx:TrackPointExtension xmlns:gpxtpx="http://www.garmin.com/xmlschemas/TrackPointExtension/v1">
            <gpxtpx:hr>107</gpxtpx:hr>
          </gpxtpx:TrackPointExtension>
        </extensions>
      </trkpt>
      <trkpt lat="45.70324" lon="3.0231">
        <ele>821.40002441406</ele>
        <time>2024-05-26T12:18:36.000Z</time>
        <extensions>
          <gpxtpx:TrackPointExtension xmlns:gpxtpx="http://www.garmin.com/xmlschemas/TrackPointExtension/v1">
            <gpxtpx:hr>107</gpxtpx:hr>
          </gpxtpx:TrackPointExtension>
        </extensions>
      </trkpt>
      <trkpt lat="45.70325" lon="3.02293">
        <ele>820</ele>
        <time>2024-05-26T12:18:37.000Z</time>
        <extensions>
          <gpxtpx:TrackPointExtension xmlns:gpxtpx="http://www.garmin.com/xmlschemas/TrackPointExtension/v1">
            <gpxtpx:hr>107</gpxtpx:hr>
          </gpxtpx:TrackPointExtension>
        </extensions>
      </trkpt>
      <trkpt lat="45.70328" lon="3.02281">
        <ele>819.20001220703</ele>
        <time>2024-05-26T12:18:38.000Z</time>
        <extensions>
          <gpxtpx:TrackPointExtension xmlns:gpxtpx="http://www.garmin.com/xmlschemas/TrackPointExtension/v1">
            <gpxtpx:hr>107</gpxtpx:hr>
          </gpxtpx:TrackPointExtension>
        </extensions>
      </trkpt>
      <trkpt lat="45.70335" lon="3.02267">
        <ele>817.59997558594</ele>
        <time>2024-05-26T12:18:39.000Z</time>
        <extensions>
          <gpxtpx:TrackPointExtension xmlns:gpxtpx="http://www.garmin.com/xmlschemas/TrackPointExtension/v1">
            <gpxtpx:hr>108</gpxtpx:hr>
          </gpxtpx:TrackPointExtension>
        </extensions>
      </trkpt>
      <trkpt lat="45.70343" lon="3.02256">
        <ele>815.59997558594</ele>
        <time>2024-05-26T12:18:40.000Z</time>
        <extensions>
          <gpxtpx:TrackPointExtension xmlns:gpxtpx="http://www.garmin.com/xmlschemas/TrackPointExtension/v1">
            <gpxtpx:hr>107</gpxtpx:hr>
          </gpxtpx:TrackPointExtension>
        </extensions>
      </trkpt>
      <trkpt lat="45.70364" lon="3.02237">
        <ele>814.79998779297</ele>
        <time>2024-05-26T12:18:42.000Z</time>
        <extensions>
          <gpxtpx:TrackPointExtension xmlns:gpxtpx="http://www.garmin.com/xmlschemas/TrackPointExtension/v1">
            <gpxtpx:hr>107</gpxtpx:hr>
          </gpxtpx:TrackPointExtension>
        </extensions>
      </trkpt>
      <trkpt lat="45.70373" lon="3.02227">
        <ele>814.40002441406</ele>
        <time>2024-05-26T12:18:43.000Z</time>
        <extensions>
          <gpxtpx:TrackPointExtension xmlns:gpxtpx="http://www.garmin.com/xmlschemas/TrackPointExtension/v1">
            <gpxtpx:hr>108</gpxtpx:hr>
          </gpxtpx:TrackPointExtension>
        </extensions>
      </trkpt>
      <trkpt lat="45.70382" lon="3.02214">
        <ele>813.59997558594</ele>
        <time>2024-05-26T12:18:44.000Z</time>
        <extensions>
          <gpxtpx:TrackPointExtension xmlns:gpxtpx="http://www.garmin.com/xmlschemas/TrackPointExtension/v1">
            <gpxtpx:hr>108</gpxtpx:hr>
          </gpxtpx:TrackPointExtension>
        </extensions>
      </trkpt>
      <trkpt lat="45.70388" lon="3.02201">
        <ele>812.59997558594</ele>
        <time>2024-05-26T12:18:45.000Z</time>
        <extensions>
          <gpxtpx:TrackPointExtension xmlns:gpxtpx="http://www.garmin.com/xmlschemas/TrackPointExtension/v1">
            <gpxtpx:hr>109</gpxtpx:hr>
          </gpxtpx:TrackPointExtension>
        </extensions>
      </trkpt>
      <trkpt lat="45.7039" lon="3.02189">
        <ele>812.40002441406</ele>
        <time>2024-05-26T12:18:46.000Z</time>
        <extensions>
          <gpxtpx:TrackPointExtension xmlns:gpxtpx="http://www.garmin.com/xmlschemas/TrackPointExtension/v1">
            <gpxtpx:hr>109</gpxtpx:hr>
          </gpxtpx:TrackPointExtension>
        </extensions>
      </trkpt>
      <trkpt lat="45.70389" lon="3.02156">
        <ele>812.20001220703</ele>
        <time>2024-05-26T12:18:48.000Z</time>
        <extensions>
          <gpxtpx:TrackPointExtension xmlns:gpxtpx="http://www.garmin.com/xmlschemas/TrackPointExtension/v1">
            <gpxtpx:hr>112</gpxtpx:hr>
          </gpxtpx:TrackPointExtension>
        </extensions>
      </trkpt>
      <trkpt lat="45.70388" lon="3.0214">
        <ele>812.40002441406</ele>
        <time>2024-05-26T12:18:49.000Z</time>
        <extensions>
          <gpxtpx:TrackPointExtension xmlns:gpxtpx="http://www.garmin.com/xmlschemas/TrackPointExtension/v1">
            <gpxtpx:hr>111</gpxtpx:hr>
          </gpxtpx:TrackPointExtension>
        </extensions>
      </trkpt>
      <trkpt lat="45.70382" lon="3.02096">
        <ele>813.59997558594</ele>
        <time>2024-05-26T12:18:52.000Z</time>
        <extensions>
          <gpxtpx:TrackPointExtension xmlns:gpxtpx="http://www.garmin.com/xmlschemas/TrackPointExtension/v1">
            <gpxtpx:hr>114</gpxtpx:hr>
          </gpxtpx:TrackPointExtension>
        </extensions>
      </trkpt>
      <trkpt lat="45.70378" lon="3.02066">
        <ele>813.59997558594</ele>
        <time>2024-05-26T12:18:54.000Z</time>
        <extensions>
          <gpxtpx:TrackPointExtension xmlns:gpxtpx="http://www.garmin.com/xmlschemas/TrackPointExtension/v1">
            <gpxtpx:hr>116</gpxtpx:hr>
          </gpxtpx:TrackPointExtension>
        </extensions>
      </trkpt>
      <trkpt lat="45.70379" lon="3.02024">
        <ele>812.40002441406</ele>
        <time>2024-05-26T12:18:57.000Z</time>
        <extensions>
          <gpxtpx:TrackPointExtension xmlns:gpxtpx="http://www.garmin.com/xmlschemas/TrackPointExtension/v1">
            <gpxtpx:hr>118</gpxtpx:hr>
          </gpxtpx:TrackPointExtension>
        </extensions>
      </trkpt>
      <trkpt lat="45.70385" lon="3.01999">
        <ele>811.40002441406</ele>
        <time>2024-05-26T12:18:59.000Z</time>
        <extensions>
          <gpxtpx:TrackPointExtension xmlns:gpxtpx="http://www.garmin.com/xmlschemas/TrackPointExtension/v1">
            <gpxtpx:hr>118</gpxtpx:hr>
          </gpxtpx:TrackPointExtension>
        </extensions>
      </trkpt>
      <trkpt lat="45.7039" lon="3.01988">
        <ele>811.40002441406</ele>
        <time>2024-05-26T12:19:00.000Z</time>
        <extensions>
          <gpxtpx:TrackPointExtension xmlns:gpxtpx="http://www.garmin.com/xmlschemas/TrackPointExtension/v1">
            <gpxtpx:hr>118</gpxtpx:hr>
          </gpxtpx:TrackPointExtension>
        </extensions>
      </trkpt>
      <trkpt lat="45.70406" lon="3.01948">
        <ele>812.59997558594</ele>
        <time>2024-05-26T12:19:04.000Z</time>
        <extensions>
          <gpxtpx:TrackPointExtension xmlns:gpxtpx="http://www.garmin.com/xmlschemas/TrackPointExtension/v1">
            <gpxtpx:hr>121</gpxtpx:hr>
          </gpxtpx:TrackPointExtension>
        </extensions>
      </trkpt>
      <trkpt lat="45.7041" lon="3.0194">
        <ele>813.40002441406</ele>
        <time>2024-05-26T12:19:05.000Z</time>
        <extensions>
          <gpxtpx:TrackPointExtension xmlns:gpxtpx="http://www.garmin.com/xmlschemas/TrackPointExtension/v1">
            <gpxtpx:hr>120</gpxtpx:hr>
          </gpxtpx:TrackPointExtension>
        </extensions>
      </trkpt>
      <trkpt lat="45.70417" lon="3.01924">
        <ele>814.79998779297</ele>
        <time>2024-05-26T12:19:07.000Z</time>
        <extensions>
          <gpxtpx:TrackPointExtension xmlns:gpxtpx="http://www.garmin.com/xmlschemas/TrackPointExtension/v1">
            <gpxtpx:hr>121</gpxtpx:hr>
          </gpxtpx:TrackPointExtension>
        </extensions>
      </trkpt>
      <trkpt lat="45.70427" lon="3.01901">
        <ele>816.59997558594</ele>
        <time>2024-05-26T12:19:10.000Z</time>
        <extensions>
          <gpxtpx:TrackPointExtension xmlns:gpxtpx="http://www.garmin.com/xmlschemas/TrackPointExtension/v1">
            <gpxtpx:hr>122</gpxtpx:hr>
          </gpxtpx:TrackPointExtension>
        </extensions>
      </trkpt>
      <trkpt lat="45.7043" lon="3.01894">
        <ele>817.20001220703</ele>
        <time>2024-05-26T12:19:11.000Z</time>
        <extensions>
          <gpxtpx:TrackPointExtension xmlns:gpxtpx="http://www.garmin.com/xmlschemas/TrackPointExtension/v1">
            <gpxtpx:hr>122</gpxtpx:hr>
          </gpxtpx:TrackPointExtension>
        </extensions>
      </trkpt>
      <trkpt lat="45.7044" lon="3.01875">
        <ele>817.59997558594</ele>
        <time>2024-05-26T12:19:14.000Z</time>
        <extensions>
          <gpxtpx:TrackPointExtension xmlns:gpxtpx="http://www.garmin.com/xmlschemas/TrackPointExtension/v1">
            <gpxtpx:hr>122</gpxtpx:hr>
          </gpxtpx:TrackPointExtension>
        </extensions>
      </trkpt>
      <trkpt lat="45.70445" lon="3.0187">
        <ele>817.79998779297</ele>
        <time>2024-05-26T12:19:15.000Z</time>
        <extensions>
          <gpxtpx:TrackPointExtension xmlns:gpxtpx="http://www.garmin.com/xmlschemas/TrackPointExtension/v1">
            <gpxtpx:hr>122</gpxtpx:hr>
          </gpxtpx:TrackPointExtension>
        </extensions>
      </trkpt>
      <trkpt lat="45.70449" lon="3.01865">
        <ele>818</ele>
        <time>2024-05-26T12:19:16.000Z</time>
        <extensions>
          <gpxtpx:TrackPointExtension xmlns:gpxtpx="http://www.garmin.com/xmlschemas/TrackPointExtension/v1">
            <gpxtpx:hr>122</gpxtpx:hr>
          </gpxtpx:TrackPointExtension>
        </extensions>
      </trkpt>
      <trkpt lat="45.70461" lon="3.01859">
        <ele>818.20001220703</ele>
        <time>2024-05-26T12:19:18.000Z</time>
        <extensions>
          <gpxtpx:TrackPointExtension xmlns:gpxtpx="http://www.garmin.com/xmlschemas/TrackPointExtension/v1">
            <gpxtpx:hr>121</gpxtpx:hr>
          </gpxtpx:TrackPointExtension>
        </extensions>
      </trkpt>
      <trkpt lat="45.70471" lon="3.01852">
        <ele>818.20001220703</ele>
        <time>2024-05-26T12:19:20.000Z</time>
        <extensions>
          <gpxtpx:TrackPointExtension xmlns:gpxtpx="http://www.garmin.com/xmlschemas/TrackPointExtension/v1">
            <gpxtpx:hr>121</gpxtpx:hr>
          </gpxtpx:TrackPointExtension>
        </extensions>
      </trkpt>
      <trkpt lat="45.70476" lon="3.01848">
        <ele>818.79998779297</ele>
        <time>2024-05-26T12:19:21.000Z</time>
        <extensions>
          <gpxtpx:TrackPointExtension xmlns:gpxtpx="http://www.garmin.com/xmlschemas/TrackPointExtension/v1">
            <gpxtpx:hr>121</gpxtpx:hr>
          </gpxtpx:TrackPointExtension>
        </extensions>
      </trkpt>
      <trkpt lat="45.70483" lon="3.01834">
        <ele>819</ele>
        <time>2024-05-26T12:19:23.000Z</time>
        <extensions>
          <gpxtpx:TrackPointExtension xmlns:gpxtpx="http://www.garmin.com/xmlschemas/TrackPointExtension/v1">
            <gpxtpx:hr>119</gpxtpx:hr>
          </gpxtpx:TrackPointExtension>
        </extensions>
      </trkpt>
      <trkpt lat="45.70488" lon="3.01805">
        <ele>819.59997558594</ele>
        <time>2024-05-26T12:19:27.000Z</time>
        <extensions>
          <gpxtpx:TrackPointExtension xmlns:gpxtpx="http://www.garmin.com/xmlschemas/TrackPointExtension/v1">
            <gpxtpx:hr>118</gpxtpx:hr>
          </gpxtpx:TrackPointExtension>
        </extensions>
      </trkpt>
      <trkpt lat="45.70491" lon="3.01796">
        <ele>819.79998779297</ele>
        <time>2024-05-26T12:19:28.000Z</time>
        <extensions>
          <gpxtpx:TrackPointExtension xmlns:gpxtpx="http://www.garmin.com/xmlschemas/TrackPointExtension/v1">
            <gpxtpx:hr>118</gpxtpx:hr>
          </gpxtpx:TrackPointExtension>
        </extensions>
      </trkpt>
      <trkpt lat="45.705" lon="3.01768">
        <ele>820</ele>
        <time>2024-05-26T12:19:32.000Z</time>
        <extensions>
          <gpxtpx:TrackPointExtension xmlns:gpxtpx="http://www.garmin.com/xmlschemas/TrackPointExtension/v1">
            <gpxtpx:hr>118</gpxtpx:hr>
          </gpxtpx:TrackPointExtension>
        </extensions>
      </trkpt>
      <trkpt lat="45.70509" lon="3.01731">
        <ele>820.20001220703</ele>
        <time>2024-05-26T12:19:37.000Z</time>
        <extensions>
          <gpxtpx:TrackPointExtension xmlns:gpxtpx="http://www.garmin.com/xmlschemas/TrackPointExtension/v1">
            <gpxtpx:hr>118</gpxtpx:hr>
          </gpxtpx:TrackPointExtension>
        </extensions>
      </trkpt>
      <trkpt lat="45.70512" lon="3.01724">
        <ele>820.40002441406</ele>
        <time>2024-05-26T12:19:38.000Z</time>
        <extensions>
          <gpxtpx:TrackPointExtension xmlns:gpxtpx="http://www.garmin.com/xmlschemas/TrackPointExtension/v1">
            <gpxtpx:hr>117</gpxtpx:hr>
          </gpxtpx:TrackPointExtension>
        </extensions>
      </trkpt>
      <trkpt lat="45.7052" lon="3.01675">
        <ele>820.79998779297</ele>
        <time>2024-05-26T12:19:45.000Z</time>
        <extensions>
          <gpxtpx:TrackPointExtension xmlns:gpxtpx="http://www.garmin.com/xmlschemas/TrackPointExtension/v1">
            <gpxtpx:hr>118</gpxtpx:hr>
          </gpxtpx:TrackPointExtension>
        </extensions>
      </trkpt>
      <trkpt lat="45.70518" lon="3.01615">
        <ele>821</ele>
        <time>2024-05-26T12:19:53.000Z</time>
        <extensions>
          <gpxtpx:TrackPointExtension xmlns:gpxtpx="http://www.garmin.com/xmlschemas/TrackPointExtension/v1">
            <gpxtpx:hr>119</gpxtpx:hr>
          </gpxtpx:TrackPointExtension>
        </extensions>
      </trkpt>
      <trkpt lat="45.70517" lon="3.01607">
        <ele>821</ele>
        <time>2024-05-26T12:19:54.000Z</time>
        <extensions>
          <gpxtpx:TrackPointExtension xmlns:gpxtpx="http://www.garmin.com/xmlschemas/TrackPointExtension/v1">
            <gpxtpx:hr>119</gpxtpx:hr>
          </gpxtpx:TrackPointExtension>
        </extensions>
      </trkpt>
      <trkpt lat="45.70517" lon="3.01584">
        <ele>822</ele>
        <time>2024-05-26T12:19:57.000Z</time>
        <extensions>
          <gpxtpx:TrackPointExtension xmlns:gpxtpx="http://www.garmin.com/xmlschemas/TrackPointExtension/v1">
            <gpxtpx:hr>119</gpxtpx:hr>
          </gpxtpx:TrackPointExtension>
        </extensions>
      </trkpt>
      <trkpt lat="45.70517" lon="3.01538">
        <ele>822.79998779297</ele>
        <time>2024-05-26T12:20:03.000Z</time>
        <extensions>
          <gpxtpx:TrackPointExtension xmlns:gpxtpx="http://www.garmin.com/xmlschemas/TrackPointExtension/v1">
            <gpxtpx:hr>121</gpxtpx:hr>
          </gpxtpx:TrackPointExtension>
        </extensions>
      </trkpt>
      <trkpt lat="45.70521" lon="3.01507">
        <ele>823</ele>
        <time>2024-05-26T12:20:07.000Z</time>
        <extensions>
          <gpxtpx:TrackPointExtension xmlns:gpxtpx="http://www.garmin.com/xmlschemas/TrackPointExtension/v1">
            <gpxtpx:hr>120</gpxtpx:hr>
          </gpxtpx:TrackPointExtension>
        </extensions>
      </trkpt>
      <trkpt lat="45.70526" lon="3.0147">
        <ele>823.59997558594</ele>
        <time>2024-05-26T12:20:12.000Z</time>
        <extensions>
          <gpxtpx:TrackPointExtension xmlns:gpxtpx="http://www.garmin.com/xmlschemas/TrackPointExtension/v1">
            <gpxtpx:hr>121</gpxtpx:hr>
          </gpxtpx:TrackPointExtension>
        </extensions>
      </trkpt>
      <trkpt lat="45.70532" lon="3.01441">
        <ele>823.79998779297</ele>
        <time>2024-05-26T12:20:16.000Z</time>
        <extensions>
          <gpxtpx:TrackPointExtension xmlns:gpxtpx="http://www.garmin.com/xmlschemas/TrackPointExtension/v1">
            <gpxtpx:hr>124</gpxtpx:hr>
          </gpxtpx:TrackPointExtension>
        </extensions>
      </trkpt>
      <trkpt lat="45.70533" lon="3.01434">
        <ele>823.79998779297</ele>
        <time>2024-05-26T12:20:17.000Z</time>
        <extensions>
          <gpxtpx:TrackPointExtension xmlns:gpxtpx="http://www.garmin.com/xmlschemas/TrackPointExtension/v1">
            <gpxtpx:hr>120</gpxtpx:hr>
          </gpxtpx:TrackPointExtension>
        </extensions>
      </trkpt>
      <trkpt lat="45.70539" lon="3.01413">
        <ele>824.20001220703</ele>
        <time>2024-05-26T12:20:20.000Z</time>
        <extensions>
          <gpxtpx:TrackPointExtension xmlns:gpxtpx="http://www.garmin.com/xmlschemas/TrackPointExtension/v1">
            <gpxtpx:hr>122</gpxtpx:hr>
          </gpxtpx:TrackPointExtension>
        </extensions>
      </trkpt>
      <trkpt lat="45.70552" lon="3.01383">
        <ele>825</ele>
        <time>2024-05-26T12:20:25.000Z</time>
        <extensions>
          <gpxtpx:TrackPointExtension xmlns:gpxtpx="http://www.garmin.com/xmlschemas/TrackPointExtension/v1">
            <gpxtpx:hr>119</gpxtpx:hr>
          </gpxtpx:TrackPointExtension>
        </extensions>
      </trkpt>
      <trkpt lat="45.70555" lon="3.01378">
        <ele>825</ele>
        <time>2024-05-26T12:20:26.000Z</time>
        <extensions>
          <gpxtpx:TrackPointExtension xmlns:gpxtpx="http://www.garmin.com/xmlschemas/TrackPointExtension/v1">
            <gpxtpx:hr>121</gpxtpx:hr>
          </gpxtpx:TrackPointExtension>
        </extensions>
      </trkpt>
      <trkpt lat="45.70561" lon="3.01368">
        <ele>825.20001220703</ele>
        <time>2024-05-26T12:20:28.000Z</time>
        <extensions>
          <gpxtpx:TrackPointExtension xmlns:gpxtpx="http://www.garmin.com/xmlschemas/TrackPointExtension/v1">
            <gpxtpx:hr>121</gpxtpx:hr>
          </gpxtpx:TrackPointExtension>
        </extensions>
      </trkpt>
      <trkpt lat="45.70565" lon="3.01363">
        <ele>825.40002441406</ele>
        <time>2024-05-26T12:20:29.000Z</time>
        <extensions>
          <gpxtpx:TrackPointExtension xmlns:gpxtpx="http://www.garmin.com/xmlschemas/TrackPointExtension/v1">
            <gpxtpx:hr>120</gpxtpx:hr>
          </gpxtpx:TrackPointExtension>
        </extensions>
      </trkpt>
      <trkpt lat="45.70572" lon="3.01355">
        <ele>825.59997558594</ele>
        <time>2024-05-26T12:20:31.000Z</time>
        <extensions>
          <gpxtpx:TrackPointExtension xmlns:gpxtpx="http://www.garmin.com/xmlschemas/TrackPointExtension/v1">
            <gpxtpx:hr>124</gpxtpx:hr>
          </gpxtpx:TrackPointExtension>
        </extensions>
      </trkpt>
      <trkpt lat="45.70576" lon="3.01351">
        <ele>825.59997558594</ele>
        <time>2024-05-26T12:20:32.000Z</time>
        <extensions>
          <gpxtpx:TrackPointExtension xmlns:gpxtpx="http://www.garmin.com/xmlschemas/TrackPointExtension/v1">
            <gpxtpx:hr>123</gpxtpx:hr>
          </gpxtpx:TrackPointExtension>
        </extensions>
      </trkpt>
      <trkpt lat="45.7058" lon="3.01347">
        <ele>825.59997558594</ele>
        <time>2024-05-26T12:20:33.000Z</time>
        <extensions>
          <gpxtpx:TrackPointExtension xmlns:gpxtpx="http://www.garmin.com/xmlschemas/TrackPointExtension/v1">
            <gpxtpx:hr>124</gpxtpx:hr>
          </gpxtpx:TrackPointExtension>
        </extensions>
      </trkpt>
      <trkpt lat="45.70589" lon="3.01341">
        <ele>825.59997558594</ele>
        <time>2024-05-26T12:20:35.000Z</time>
        <extensions>
          <gpxtpx:TrackPointExtension xmlns:gpxtpx="http://www.garmin.com/xmlschemas/TrackPointExtension/v1">
            <gpxtpx:hr>128</gpxtpx:hr>
          </gpxtpx:TrackPointExtension>
        </extensions>
      </trkpt>
      <trkpt lat="45.7061" lon="3.0133">
        <ele>825.79998779297</ele>
        <time>2024-05-26T12:20:39.000Z</time>
        <extensions>
          <gpxtpx:TrackPointExtension xmlns:gpxtpx="http://www.garmin.com/xmlschemas/TrackPointExtension/v1">
            <gpxtpx:hr>131</gpxtpx:hr>
          </gpxtpx:TrackPointExtension>
        </extensions>
      </trkpt>
      <trkpt lat="45.70615" lon="3.01328">
        <ele>826</ele>
        <time>2024-05-26T12:20:40.000Z</time>
        <extensions>
          <gpxtpx:TrackPointExtension xmlns:gpxtpx="http://www.garmin.com/xmlschemas/TrackPointExtension/v1">
            <gpxtpx:hr>131</gpxtpx:hr>
          </gpxtpx:TrackPointExtension>
        </extensions>
      </trkpt>
      <trkpt lat="45.70626" lon="3.01325">
        <ele>826.40002441406</ele>
        <time>2024-05-26T12:20:42.000Z</time>
        <extensions>
          <gpxtpx:TrackPointExtension xmlns:gpxtpx="http://www.garmin.com/xmlschemas/TrackPointExtension/v1">
            <gpxtpx:hr>131</gpxtpx:hr>
          </gpxtpx:TrackPointExtension>
        </extensions>
      </trkpt>
      <trkpt lat="45.70641" lon="3.01323">
        <ele>827</ele>
        <time>2024-05-26T12:20:45.000Z</time>
        <extensions>
          <gpxtpx:TrackPointExtension xmlns:gpxtpx="http://www.garmin.com/xmlschemas/TrackPointExtension/v1">
            <gpxtpx:hr>131</gpxtpx:hr>
          </gpxtpx:TrackPointExtension>
        </extensions>
      </trkpt>
      <trkpt lat="45.70678" lon="3.01314">
        <ele>827.20001220703</ele>
        <time>2024-05-26T12:20:52.000Z</time>
        <extensions>
          <gpxtpx:TrackPointExtension xmlns:gpxtpx="http://www.garmin.com/xmlschemas/TrackPointExtension/v1">
            <gpxtpx:hr>132</gpxtpx:hr>
          </gpxtpx:TrackPointExtension>
        </extensions>
      </trkpt>
      <trkpt lat="45.70694" lon="3.0131">
        <ele>827.79998779297</ele>
        <time>2024-05-26T12:20:55.000Z</time>
        <extensions>
          <gpxtpx:TrackPointExtension xmlns:gpxtpx="http://www.garmin.com/xmlschemas/TrackPointExtension/v1">
            <gpxtpx:hr>133</gpxtpx:hr>
          </gpxtpx:TrackPointExtension>
        </extensions>
      </trkpt>
      <trkpt lat="45.70706" lon="3.01308">
        <ele>828</ele>
        <time>2024-05-26T12:20:57.000Z</time>
        <extensions>
          <gpxtpx:TrackPointExtension xmlns:gpxtpx="http://www.garmin.com/xmlschemas/TrackPointExtension/v1">
            <gpxtpx:hr>132</gpxtpx:hr>
          </gpxtpx:TrackPointExtension>
        </extensions>
      </trkpt>
      <trkpt lat="45.70731" lon="3.01304">
        <ele>827.79998779297</ele>
        <time>2024-05-26T12:21:01.000Z</time>
        <extensions>
          <gpxtpx:TrackPointExtension xmlns:gpxtpx="http://www.garmin.com/xmlschemas/TrackPointExtension/v1">
            <gpxtpx:hr>130</gpxtpx:hr>
          </gpxtpx:TrackPointExtension>
        </extensions>
      </trkpt>
      <trkpt lat="45.70737" lon="3.01303">
        <ele>827.59997558594</ele>
        <time>2024-05-26T12:21:02.000Z</time>
        <extensions>
          <gpxtpx:TrackPointExtension xmlns:gpxtpx="http://www.garmin.com/xmlschemas/TrackPointExtension/v1">
            <gpxtpx:hr>130</gpxtpx:hr>
          </gpxtpx:TrackPointExtension>
        </extensions>
      </trkpt>
      <trkpt lat="45.70749" lon="3.01301">
        <ele>827.59997558594</ele>
        <time>2024-05-26T12:21:04.000Z</time>
        <extensions>
          <gpxtpx:TrackPointExtension xmlns:gpxtpx="http://www.garmin.com/xmlschemas/TrackPointExtension/v1">
            <gpxtpx:hr>130</gpxtpx:hr>
          </gpxtpx:TrackPointExtension>
        </extensions>
      </trkpt>
      <trkpt lat="45.70761" lon="3.01299">
        <ele>827.59997558594</ele>
        <time>2024-05-26T12:21:06.000Z</time>
        <extensions>
          <gpxtpx:TrackPointExtension xmlns:gpxtpx="http://www.garmin.com/xmlschemas/TrackPointExtension/v1">
            <gpxtpx:hr>129</gpxtpx:hr>
          </gpxtpx:TrackPointExtension>
        </extensions>
      </trkpt>
      <trkpt lat="45.70801" lon="3.01289">
        <ele>827.40002441406</ele>
        <time>2024-05-26T12:21:12.000Z</time>
        <extensions>
          <gpxtpx:TrackPointExtension xmlns:gpxtpx="http://www.garmin.com/xmlschemas/TrackPointExtension/v1">
            <gpxtpx:hr>126</gpxtpx:hr>
          </gpxtpx:TrackPointExtension>
        </extensions>
      </trkpt>
      <trkpt lat="45.70808" lon="3.01288">
        <ele>827.20001220703</ele>
        <time>2024-05-26T12:21:13.000Z</time>
        <extensions>
          <gpxtpx:TrackPointExtension xmlns:gpxtpx="http://www.garmin.com/xmlschemas/TrackPointExtension/v1">
            <gpxtpx:hr>125</gpxtpx:hr>
          </gpxtpx:TrackPointExtension>
        </extensions>
      </trkpt>
      <trkpt lat="45.70846" lon="3.01286">
        <ele>827</ele>
        <time>2024-05-26T12:21:18.000Z</time>
        <extensions>
          <gpxtpx:TrackPointExtension xmlns:gpxtpx="http://www.garmin.com/xmlschemas/TrackPointExtension/v1">
            <gpxtpx:hr>124</gpxtpx:hr>
          </gpxtpx:TrackPointExtension>
        </extensions>
      </trkpt>
      <trkpt lat="45.70853" lon="3.01288">
        <ele>827</ele>
        <time>2024-05-26T12:21:19.000Z</time>
        <extensions>
          <gpxtpx:TrackPointExtension xmlns:gpxtpx="http://www.garmin.com/xmlschemas/TrackPointExtension/v1">
            <gpxtpx:hr>124</gpxtpx:hr>
          </gpxtpx:TrackPointExtension>
        </extensions>
      </trkpt>
      <trkpt lat="45.70873" lon="3.01297">
        <ele>827.20001220703</ele>
        <time>2024-05-26T12:21:22.000Z</time>
        <extensions>
          <gpxtpx:TrackPointExtension xmlns:gpxtpx="http://www.garmin.com/xmlschemas/TrackPointExtension/v1">
            <gpxtpx:hr>124</gpxtpx:hr>
          </gpxtpx:TrackPointExtension>
        </extensions>
      </trkpt>
      <trkpt lat="45.70883" lon="3.01306">
        <ele>827.40002441406</ele>
        <time>2024-05-26T12:21:24.000Z</time>
        <extensions>
          <gpxtpx:TrackPointExtension xmlns:gpxtpx="http://www.garmin.com/xmlschemas/TrackPointExtension/v1">
            <gpxtpx:hr>124</gpxtpx:hr>
          </gpxtpx:TrackPointExtension>
        </extensions>
      </trkpt>
      <trkpt lat="45.7089" lon="3.01313">
        <ele>827.59997558594</ele>
        <time>2024-05-26T12:21:26.000Z</time>
        <extensions>
          <gpxtpx:TrackPointExtension xmlns:gpxtpx="http://www.garmin.com/xmlschemas/TrackPointExtension/v1">
            <gpxtpx:hr>123</gpxtpx:hr>
          </gpxtpx:TrackPointExtension>
        </extensions>
      </trkpt>
      <trkpt lat="45.70896" lon="3.01318">
        <ele>827.79998779297</ele>
        <time>2024-05-26T12:21:28.000Z</time>
        <extensions>
          <gpxtpx:TrackPointExtension xmlns:gpxtpx="http://www.garmin.com/xmlschemas/TrackPointExtension/v1">
            <gpxtpx:hr>123</gpxtpx:hr>
          </gpxtpx:TrackPointExtension>
        </extensions>
      </trkpt>
      <trkpt lat="45.70903" lon="3.01325">
        <ele>827.79998779297</ele>
        <time>2024-05-26T12:21:31.000Z</time>
        <extensions>
          <gpxtpx:TrackPointExtension xmlns:gpxtpx="http://www.garmin.com/xmlschemas/TrackPointExtension/v1">
            <gpxtpx:hr>122</gpxtpx:hr>
          </gpxtpx:TrackPointExtension>
        </extensions>
      </trkpt>
      <trkpt lat="45.70903" lon="3.01326">
        <ele>827.79998779297</ele>
        <time>2024-05-26T12:21:32.000Z</time>
        <extensions>
          <gpxtpx:TrackPointExtension xmlns:gpxtpx="http://www.garmin.com/xmlschemas/TrackPointExtension/v1">
            <gpxtpx:hr>122</gpxtpx:hr>
          </gpxtpx:TrackPointExtension>
        </extensions>
      </trkpt>
      <trkpt lat="45.70903" lon="3.01327">
        <ele>827.59997558594</ele>
        <time>2024-05-26T12:21:36.000Z</time>
        <extensions>
          <gpxtpx:TrackPointExtension xmlns:gpxtpx="http://www.garmin.com/xmlschemas/TrackPointExtension/v1">
            <gpxtpx:hr>120</gpxtpx:hr>
          </gpxtpx:TrackPointExtension>
        </extensions>
      </trkpt>
      <trkpt lat="45.70903" lon="3.01327">
        <ele>827.40002441406</ele>
        <time>2024-05-26T12:21:40.000Z</time>
        <extensions>
          <gpxtpx:TrackPointExtension xmlns:gpxtpx="http://www.garmin.com/xmlschemas/TrackPointExtension/v1">
            <gpxtpx:hr>117</gpxtpx:hr>
          </gpxtpx:TrackPointExtension>
        </extensions>
      </trkpt>
      <trkpt lat="45.70903" lon="3.01327">
        <ele>827.40002441406</ele>
        <time>2024-05-26T12:21:44.000Z</time>
        <extensions>
          <gpxtpx:TrackPointExtension xmlns:gpxtpx="http://www.garmin.com/xmlschemas/TrackPointExtension/v1">
            <gpxtpx:hr>114</gpxtpx:hr>
          </gpxtpx:TrackPointExtension>
        </extensions>
      </trkpt>
      <trkpt lat="45.70903" lon="3.01327">
        <ele>827.40002441406</ele>
        <time>2024-05-26T12:21:47.000Z</time>
        <extensions>
          <gpxtpx:TrackPointExtension xmlns:gpxtpx="http://www.garmin.com/xmlschemas/TrackPointExtension/v1">
            <gpxtpx:hr>111</gpxtpx:hr>
          </gpxtpx:TrackPointExtension>
        </extensions>
      </trkpt>
      <trkpt lat="45.70903" lon="3.01327">
        <ele>827.40002441406</ele>
        <time>2024-05-26T12:21:51.000Z</time>
        <extensions>
          <gpxtpx:TrackPointExtension xmlns:gpxtpx="http://www.garmin.com/xmlschemas/TrackPointExtension/v1">
            <gpxtpx:hr>108</gpxtpx:hr>
          </gpxtpx:TrackPointExtension>
        </extensions>
      </trkpt>
      <trkpt lat="45.70904" lon="3.0133">
        <ele>827.20001220703</ele>
        <time>2024-05-26T12:22:01.000Z</time>
        <extensions>
          <gpxtpx:TrackPointExtension xmlns:gpxtpx="http://www.garmin.com/xmlschemas/TrackPointExtension/v1">
            <gpxtpx:hr>107</gpxtpx:hr>
          </gpxtpx:TrackPointExtension>
        </extensions>
      </trkpt>
      <trkpt lat="45.70905" lon="3.01332">
        <ele>827.20001220703</ele>
        <time>2024-05-26T12:22:02.000Z</time>
        <extensions>
          <gpxtpx:TrackPointExtension xmlns:gpxtpx="http://www.garmin.com/xmlschemas/TrackPointExtension/v1">
            <gpxtpx:hr>107</gpxtpx:hr>
          </gpxtpx:TrackPointExtension>
        </extensions>
      </trkpt>
      <trkpt lat="45.70911" lon="3.0135">
        <ele>827.79998779297</ele>
        <time>2024-05-26T12:22:07.000Z</time>
        <extensions>
          <gpxtpx:TrackPointExtension xmlns:gpxtpx="http://www.garmin.com/xmlschemas/TrackPointExtension/v1">
            <gpxtpx:hr>106</gpxtpx:hr>
          </gpxtpx:TrackPointExtension>
        </extensions>
      </trkpt>
      <trkpt lat="45.70919" lon="3.01368">
        <ele>828.40002441406</ele>
        <time>2024-05-26T12:22:10.000Z</time>
        <extensions>
          <gpxtpx:TrackPointExtension xmlns:gpxtpx="http://www.garmin.com/xmlschemas/TrackPointExtension/v1">
            <gpxtpx:hr>106</gpxtpx:hr>
          </gpxtpx:TrackPointExtension>
        </extensions>
      </trkpt>
      <trkpt lat="45.70928" lon="3.01387">
        <ele>828.79998779297</ele>
        <time>2024-05-26T12:22:13.000Z</time>
        <extensions>
          <gpxtpx:TrackPointExtension xmlns:gpxtpx="http://www.garmin.com/xmlschemas/TrackPointExtension/v1">
            <gpxtpx:hr>109</gpxtpx:hr>
          </gpxtpx:TrackPointExtension>
        </extensions>
      </trkpt>
      <trkpt lat="45.70934" lon="3.014">
        <ele>829</ele>
        <time>2024-05-26T12:22:15.000Z</time>
        <extensions>
          <gpxtpx:TrackPointExtension xmlns:gpxtpx="http://www.garmin.com/xmlschemas/TrackPointExtension/v1">
            <gpxtpx:hr>109</gpxtpx:hr>
          </gpxtpx:TrackPointExtension>
        </extensions>
      </trkpt>
      <trkpt lat="45.70937" lon="3.01406">
        <ele>829.40002441406</ele>
        <time>2024-05-26T12:22:16.000Z</time>
        <extensions>
          <gpxtpx:TrackPointExtension xmlns:gpxtpx="http://www.garmin.com/xmlschemas/TrackPointExtension/v1">
            <gpxtpx:hr>110</gpxtpx:hr>
          </gpxtpx:TrackPointExtension>
        </extensions>
      </trkpt>
      <trkpt lat="45.70945" lon="3.01425">
        <ele>830.20001220703</ele>
        <time>2024-05-26T12:22:19.000Z</time>
        <extensions>
          <gpxtpx:TrackPointExtension xmlns:gpxtpx="http://www.garmin.com/xmlschemas/TrackPointExtension/v1">
            <gpxtpx:hr>111</gpxtpx:hr>
          </gpxtpx:TrackPointExtension>
        </extensions>
      </trkpt>
      <trkpt lat="45.70948" lon="3.01432">
        <ele>830.40002441406</ele>
        <time>2024-05-26T12:22:20.000Z</time>
        <extensions>
          <gpxtpx:TrackPointExtension xmlns:gpxtpx="http://www.garmin.com/xmlschemas/TrackPointExtension/v1">
            <gpxtpx:hr>114</gpxtpx:hr>
          </gpxtpx:TrackPointExtension>
        </extensions>
      </trkpt>
      <trkpt lat="45.70951" lon="3.01438">
        <ele>830.59997558594</ele>
        <time>2024-05-26T12:22:21.000Z</time>
        <extensions>
          <gpxtpx:TrackPointExtension xmlns:gpxtpx="http://www.garmin.com/xmlschemas/TrackPointExtension/v1">
            <gpxtpx:hr>113</gpxtpx:hr>
          </gpxtpx:TrackPointExtension>
        </extensions>
      </trkpt>
      <trkpt lat="45.70954" lon="3.01443">
        <ele>830.59997558594</ele>
        <time>2024-05-26T12:22:22.000Z</time>
        <extensions>
          <gpxtpx:TrackPointExtension xmlns:gpxtpx="http://www.garmin.com/xmlschemas/TrackPointExtension/v1">
            <gpxtpx:hr>115</gpxtpx:hr>
          </gpxtpx:TrackPointExtension>
        </extensions>
      </trkpt>
      <trkpt lat="45.70963" lon="3.01459">
        <ele>831.20001220703</ele>
        <time>2024-05-26T12:22:25.000Z</time>
        <extensions>
          <gpxtpx:TrackPointExtension xmlns:gpxtpx="http://www.garmin.com/xmlschemas/TrackPointExtension/v1">
            <gpxtpx:hr>117</gpxtpx:hr>
          </gpxtpx:TrackPointExtension>
        </extensions>
      </trkpt>
      <trkpt lat="45.70974" lon="3.01472">
        <ele>831.79998779297</ele>
        <time>2024-05-26T12:22:28.000Z</time>
        <extensions>
          <gpxtpx:TrackPointExtension xmlns:gpxtpx="http://www.garmin.com/xmlschemas/TrackPointExtension/v1">
            <gpxtpx:hr>120</gpxtpx:hr>
          </gpxtpx:TrackPointExtension>
        </extensions>
      </trkpt>
      <trkpt lat="45.7098" lon="3.01482">
        <ele>832.40002441406</ele>
        <time>2024-05-26T12:22:30.000Z</time>
        <extensions>
          <gpxtpx:TrackPointExtension xmlns:gpxtpx="http://www.garmin.com/xmlschemas/TrackPointExtension/v1">
            <gpxtpx:hr>121</gpxtpx:hr>
          </gpxtpx:TrackPointExtension>
        </extensions>
      </trkpt>
      <trkpt lat="45.70993" lon="3.01505">
        <ele>833.79998779297</ele>
        <time>2024-05-26T12:22:35.000Z</time>
        <extensions>
          <gpxtpx:TrackPointExtension xmlns:gpxtpx="http://www.garmin.com/xmlschemas/TrackPointExtension/v1">
            <gpxtpx:hr>123</gpxtpx:hr>
          </gpxtpx:TrackPointExtension>
        </extensions>
      </trkpt>
      <trkpt lat="45.70999" lon="3.01513">
        <ele>834.40002441406</ele>
        <time>2024-05-26T12:22:37.000Z</time>
        <extensions>
          <gpxtpx:TrackPointExtension xmlns:gpxtpx="http://www.garmin.com/xmlschemas/TrackPointExtension/v1">
            <gpxtpx:hr>123</gpxtpx:hr>
          </gpxtpx:TrackPointExtension>
        </extensions>
      </trkpt>
      <trkpt lat="45.71012" lon="3.01525">
        <ele>835</ele>
        <time>2024-05-26T12:22:41.000Z</time>
        <extensions>
          <gpxtpx:TrackPointExtension xmlns:gpxtpx="http://www.garmin.com/xmlschemas/TrackPointExtension/v1">
            <gpxtpx:hr>124</gpxtpx:hr>
          </gpxtpx:TrackPointExtension>
        </extensions>
      </trkpt>
      <trkpt lat="45.71014" lon="3.01528">
        <ele>835.20001220703</ele>
        <time>2024-05-26T12:22:42.000Z</time>
        <extensions>
          <gpxtpx:TrackPointExtension xmlns:gpxtpx="http://www.garmin.com/xmlschemas/TrackPointExtension/v1">
            <gpxtpx:hr>125</gpxtpx:hr>
          </gpxtpx:TrackPointExtension>
        </extensions>
      </trkpt>
      <trkpt lat="45.71031" lon="3.01544">
        <ele>835.59997558594</ele>
        <time>2024-05-26T12:22:48.000Z</time>
        <extensions>
          <gpxtpx:TrackPointExtension xmlns:gpxtpx="http://www.garmin.com/xmlschemas/TrackPointExtension/v1">
            <gpxtpx:hr>123</gpxtpx:hr>
          </gpxtpx:TrackPointExtension>
        </extensions>
      </trkpt>
      <trkpt lat="45.71033" lon="3.01547">
        <ele>835.59997558594</ele>
        <time>2024-05-26T12:22:49.000Z</time>
        <extensions>
          <gpxtpx:TrackPointExtension xmlns:gpxtpx="http://www.garmin.com/xmlschemas/TrackPointExtension/v1">
            <gpxtpx:hr>126</gpxtpx:hr>
          </gpxtpx:TrackPointExtension>
        </extensions>
      </trkpt>
      <trkpt lat="45.71044" lon="3.01554">
        <ele>836</ele>
        <time>2024-05-26T12:22:52.000Z</time>
        <extensions>
          <gpxtpx:TrackPointExtension xmlns:gpxtpx="http://www.garmin.com/xmlschemas/TrackPointExtension/v1">
            <gpxtpx:hr>127</gpxtpx:hr>
          </gpxtpx:TrackPointExtension>
        </extensions>
      </trkpt>
      <trkpt lat="45.71051" lon="3.0156">
        <ele>836.40002441406</ele>
        <time>2024-05-26T12:22:54.000Z</time>
        <extensions>
          <gpxtpx:TrackPointExtension xmlns:gpxtpx="http://www.garmin.com/xmlschemas/TrackPointExtension/v1">
            <gpxtpx:hr>127</gpxtpx:hr>
          </gpxtpx:TrackPointExtension>
        </extensions>
      </trkpt>
      <trkpt lat="45.71072" lon="3.01575">
        <ele>837.20001220703</ele>
        <time>2024-05-26T12:23:01.000Z</time>
        <extensions>
          <gpxtpx:TrackPointExtension xmlns:gpxtpx="http://www.garmin.com/xmlschemas/TrackPointExtension/v1">
            <gpxtpx:hr>127</gpxtpx:hr>
          </gpxtpx:TrackPointExtension>
        </extensions>
      </trkpt>
      <trkpt lat="45.71089" lon="3.01587">
        <ele>838</ele>
        <time>2024-05-26T12:23:06.000Z</time>
        <extensions>
          <gpxtpx:TrackPointExtension xmlns:gpxtpx="http://www.garmin.com/xmlschemas/TrackPointExtension/v1">
            <gpxtpx:hr>124</gpxtpx:hr>
          </gpxtpx:TrackPointExtension>
        </extensions>
      </trkpt>
      <trkpt lat="45.71092" lon="3.0159">
        <ele>838.20001220703</ele>
        <time>2024-05-26T12:23:07.000Z</time>
        <extensions>
          <gpxtpx:TrackPointExtension xmlns:gpxtpx="http://www.garmin.com/xmlschemas/TrackPointExtension/v1">
            <gpxtpx:hr>124</gpxtpx:hr>
          </gpxtpx:TrackPointExtension>
        </extensions>
      </trkpt>
      <trkpt lat="45.71096" lon="3.01593">
        <ele>838.40002441406</ele>
        <time>2024-05-26T12:23:08.000Z</time>
        <extensions>
          <gpxtpx:TrackPointExtension xmlns:gpxtpx="http://www.garmin.com/xmlschemas/TrackPointExtension/v1">
            <gpxtpx:hr>124</gpxtpx:hr>
          </gpxtpx:TrackPointExtension>
        </extensions>
      </trkpt>
      <trkpt lat="45.71106" lon="3.016">
        <ele>839.79998779297</ele>
        <time>2024-05-26T12:23:11.000Z</time>
        <extensions>
          <gpxtpx:TrackPointExtension xmlns:gpxtpx="http://www.garmin.com/xmlschemas/TrackPointExtension/v1">
            <gpxtpx:hr>124</gpxtpx:hr>
          </gpxtpx:TrackPointExtension>
        </extensions>
      </trkpt>
      <trkpt lat="45.71117" lon="3.01607">
        <ele>840.40002441406</ele>
        <time>2024-05-26T12:23:14.000Z</time>
        <extensions>
          <gpxtpx:TrackPointExtension xmlns:gpxtpx="http://www.garmin.com/xmlschemas/TrackPointExtension/v1">
            <gpxtpx:hr>124</gpxtpx:hr>
          </gpxtpx:TrackPointExtension>
        </extensions>
      </trkpt>
      <trkpt lat="45.7113" lon="3.01615">
        <ele>841</ele>
        <time>2024-05-26T12:23:17.000Z</time>
        <extensions>
          <gpxtpx:TrackPointExtension xmlns:gpxtpx="http://www.garmin.com/xmlschemas/TrackPointExtension/v1">
            <gpxtpx:hr>123</gpxtpx:hr>
          </gpxtpx:TrackPointExtension>
        </extensions>
      </trkpt>
      <trkpt lat="45.71146" lon="3.01627">
        <ele>841.20001220703</ele>
        <time>2024-05-26T12:23:21.000Z</time>
        <extensions>
          <gpxtpx:TrackPointExtension xmlns:gpxtpx="http://www.garmin.com/xmlschemas/TrackPointExtension/v1">
            <gpxtpx:hr>126</gpxtpx:hr>
          </gpxtpx:TrackPointExtension>
        </extensions>
      </trkpt>
      <trkpt lat="45.71149" lon="3.0163">
        <ele>841.20001220703</ele>
        <time>2024-05-26T12:23:22.000Z</time>
        <extensions>
          <gpxtpx:TrackPointExtension xmlns:gpxtpx="http://www.garmin.com/xmlschemas/TrackPointExtension/v1">
            <gpxtpx:hr>126</gpxtpx:hr>
          </gpxtpx:TrackPointExtension>
        </extensions>
      </trkpt>
      <trkpt lat="45.71156" lon="3.01635">
        <ele>841.20001220703</ele>
        <time>2024-05-26T12:23:24.000Z</time>
        <extensions>
          <gpxtpx:TrackPointExtension xmlns:gpxtpx="http://www.garmin.com/xmlschemas/TrackPointExtension/v1">
            <gpxtpx:hr>128</gpxtpx:hr>
          </gpxtpx:TrackPointExtension>
        </extensions>
      </trkpt>
      <trkpt lat="45.71165" lon="3.01642">
        <ele>842.40002441406</ele>
        <time>2024-05-26T12:23:27.000Z</time>
        <extensions>
          <gpxtpx:TrackPointExtension xmlns:gpxtpx="http://www.garmin.com/xmlschemas/TrackPointExtension/v1">
            <gpxtpx:hr>129</gpxtpx:hr>
          </gpxtpx:TrackPointExtension>
        </extensions>
      </trkpt>
      <trkpt lat="45.71167" lon="3.01644">
        <ele>842.59997558594</ele>
        <time>2024-05-26T12:23:28.000Z</time>
        <extensions>
          <gpxtpx:TrackPointExtension xmlns:gpxtpx="http://www.garmin.com/xmlschemas/TrackPointExtension/v1">
            <gpxtpx:hr>129</gpxtpx:hr>
          </gpxtpx:TrackPointExtension>
        </extensions>
      </trkpt>
      <trkpt lat="45.71179" lon="3.01651">
        <ele>843.40002441406</ele>
        <time>2024-05-26T12:23:32.000Z</time>
        <extensions>
          <gpxtpx:TrackPointExtension xmlns:gpxtpx="http://www.garmin.com/xmlschemas/TrackPointExtension/v1">
            <gpxtpx:hr>131</gpxtpx:hr>
          </gpxtpx:TrackPointExtension>
        </extensions>
      </trkpt>
      <trkpt lat="45.71195" lon="3.01664">
        <ele>844.59997558594</ele>
        <time>2024-05-26T12:23:38.000Z</time>
        <extensions>
          <gpxtpx:TrackPointExtension xmlns:gpxtpx="http://www.garmin.com/xmlschemas/TrackPointExtension/v1">
            <gpxtpx:hr>132</gpxtpx:hr>
          </gpxtpx:TrackPointExtension>
        </extensions>
      </trkpt>
      <trkpt lat="45.71209" lon="3.01674">
        <ele>845.59997558594</ele>
        <time>2024-05-26T12:23:43.000Z</time>
        <extensions>
          <gpxtpx:TrackPointExtension xmlns:gpxtpx="http://www.garmin.com/xmlschemas/TrackPointExtension/v1">
            <gpxtpx:hr>133</gpxtpx:hr>
          </gpxtpx:TrackPointExtension>
        </extensions>
      </trkpt>
      <trkpt lat="45.71223" lon="3.01684">
        <ele>846.40002441406</ele>
        <time>2024-05-26T12:23:48.000Z</time>
        <extensions>
          <gpxtpx:TrackPointExtension xmlns:gpxtpx="http://www.garmin.com/xmlschemas/TrackPointExtension/v1">
            <gpxtpx:hr>133</gpxtpx:hr>
          </gpxtpx:TrackPointExtension>
        </extensions>
      </trkpt>
      <trkpt lat="45.7123" lon="3.01687">
        <ele>846.79998779297</ele>
        <time>2024-05-26T12:23:50.000Z</time>
        <extensions>
          <gpxtpx:TrackPointExtension xmlns:gpxtpx="http://www.garmin.com/xmlschemas/TrackPointExtension/v1">
            <gpxtpx:hr>134</gpxtpx:hr>
          </gpxtpx:TrackPointExtension>
        </extensions>
      </trkpt>
      <trkpt lat="45.71239" lon="3.01694">
        <ele>847.40002441406</ele>
        <time>2024-05-26T12:23:54.000Z</time>
        <extensions>
          <gpxtpx:TrackPointExtension xmlns:gpxtpx="http://www.garmin.com/xmlschemas/TrackPointExtension/v1">
            <gpxtpx:hr>133</gpxtpx:hr>
          </gpxtpx:TrackPointExtension>
        </extensions>
      </trkpt>
      <trkpt lat="45.71246" lon="3.017">
        <ele>847.79998779297</ele>
        <time>2024-05-26T12:23:57.000Z</time>
        <extensions>
          <gpxtpx:TrackPointExtension xmlns:gpxtpx="http://www.garmin.com/xmlschemas/TrackPointExtension/v1">
            <gpxtpx:hr>134</gpxtpx:hr>
          </gpxtpx:TrackPointExtension>
        </extensions>
      </trkpt>
      <trkpt lat="45.71257" lon="3.01706">
        <ele>848.20001220703</ele>
        <time>2024-05-26T12:24:01.000Z</time>
        <extensions>
          <gpxtpx:TrackPointExtension xmlns:gpxtpx="http://www.garmin.com/xmlschemas/TrackPointExtension/v1">
            <gpxtpx:hr>133</gpxtpx:hr>
          </gpxtpx:TrackPointExtension>
        </extensions>
      </trkpt>
      <trkpt lat="45.71266" lon="3.01712">
        <ele>849</ele>
        <time>2024-05-26T12:24:05.000Z</time>
        <extensions>
          <gpxtpx:TrackPointExtension xmlns:gpxtpx="http://www.garmin.com/xmlschemas/TrackPointExtension/v1">
            <gpxtpx:hr>132</gpxtpx:hr>
          </gpxtpx:TrackPointExtension>
        </extensions>
      </trkpt>
      <trkpt lat="45.71276" lon="3.0172">
        <ele>849.40002441406</ele>
        <time>2024-05-26T12:24:09.000Z</time>
        <extensions>
          <gpxtpx:TrackPointExtension xmlns:gpxtpx="http://www.garmin.com/xmlschemas/TrackPointExtension/v1">
            <gpxtpx:hr>131</gpxtpx:hr>
          </gpxtpx:TrackPointExtension>
        </extensions>
      </trkpt>
      <trkpt lat="45.71287" lon="3.01728">
        <ele>850</ele>
        <time>2024-05-26T12:24:14.000Z</time>
        <extensions>
          <gpxtpx:TrackPointExtension xmlns:gpxtpx="http://www.garmin.com/xmlschemas/TrackPointExtension/v1">
            <gpxtpx:hr>130</gpxtpx:hr>
          </gpxtpx:TrackPointExtension>
        </extensions>
      </trkpt>
      <trkpt lat="45.71298" lon="3.01735">
        <ele>850.79998779297</ele>
        <time>2024-05-26T12:24:19.000Z</time>
        <extensions>
          <gpxtpx:TrackPointExtension xmlns:gpxtpx="http://www.garmin.com/xmlschemas/TrackPointExtension/v1">
            <gpxtpx:hr>131</gpxtpx:hr>
          </gpxtpx:TrackPointExtension>
        </extensions>
      </trkpt>
      <trkpt lat="45.71303" lon="3.01739">
        <ele>851</ele>
        <time>2024-05-26T12:24:21.000Z</time>
        <extensions>
          <gpxtpx:TrackPointExtension xmlns:gpxtpx="http://www.garmin.com/xmlschemas/TrackPointExtension/v1">
            <gpxtpx:hr>132</gpxtpx:hr>
          </gpxtpx:TrackPointExtension>
        </extensions>
      </trkpt>
      <trkpt lat="45.71325" lon="3.01753">
        <ele>852</ele>
        <time>2024-05-26T12:24:29.000Z</time>
        <extensions>
          <gpxtpx:TrackPointExtension xmlns:gpxtpx="http://www.garmin.com/xmlschemas/TrackPointExtension/v1">
            <gpxtpx:hr>132</gpxtpx:hr>
          </gpxtpx:TrackPointExtension>
        </extensions>
      </trkpt>
      <trkpt lat="45.71328" lon="3.01755">
        <ele>852.20001220703</ele>
        <time>2024-05-26T12:24:30.000Z</time>
        <extensions>
          <gpxtpx:TrackPointExtension xmlns:gpxtpx="http://www.garmin.com/xmlschemas/TrackPointExtension/v1">
            <gpxtpx:hr>132</gpxtpx:hr>
          </gpxtpx:TrackPointExtension>
        </extensions>
      </trkpt>
      <trkpt lat="45.71343" lon="3.01766">
        <ele>853</ele>
        <time>2024-05-26T12:24:37.000Z</time>
        <extensions>
          <gpxtpx:TrackPointExtension xmlns:gpxtpx="http://www.garmin.com/xmlschemas/TrackPointExtension/v1">
            <gpxtpx:hr>132</gpxtpx:hr>
          </gpxtpx:TrackPointExtension>
        </extensions>
      </trkpt>
      <trkpt lat="45.71345" lon="3.01767">
        <ele>853.20001220703</ele>
        <time>2024-05-26T12:24:38.000Z</time>
        <extensions>
          <gpxtpx:TrackPointExtension xmlns:gpxtpx="http://www.garmin.com/xmlschemas/TrackPointExtension/v1">
            <gpxtpx:hr>133</gpxtpx:hr>
          </gpxtpx:TrackPointExtension>
        </extensions>
      </trkpt>
      <trkpt lat="45.71358" lon="3.01775">
        <ele>854.20001220703</ele>
        <time>2024-05-26T12:24:44.000Z</time>
        <extensions>
          <gpxtpx:TrackPointExtension xmlns:gpxtpx="http://www.garmin.com/xmlschemas/TrackPointExtension/v1">
            <gpxtpx:hr>131</gpxtpx:hr>
          </gpxtpx:TrackPointExtension>
        </extensions>
      </trkpt>
      <trkpt lat="45.71361" lon="3.01776">
        <ele>854.40002441406</ele>
        <time>2024-05-26T12:24:45.000Z</time>
        <extensions>
          <gpxtpx:TrackPointExtension xmlns:gpxtpx="http://www.garmin.com/xmlschemas/TrackPointExtension/v1">
            <gpxtpx:hr>131</gpxtpx:hr>
          </gpxtpx:TrackPointExtension>
        </extensions>
      </trkpt>
      <trkpt lat="45.71375" lon="3.01784">
        <ele>855.40002441406</ele>
        <time>2024-05-26T12:24:51.000Z</time>
        <extensions>
          <gpxtpx:TrackPointExtension xmlns:gpxtpx="http://www.garmin.com/xmlschemas/TrackPointExtension/v1">
            <gpxtpx:hr>129</gpxtpx:hr>
          </gpxtpx:TrackPointExtension>
        </extensions>
      </trkpt>
      <trkpt lat="45.71377" lon="3.01785">
        <ele>855.59997558594</ele>
        <time>2024-05-26T12:24:52.000Z</time>
        <extensions>
          <gpxtpx:TrackPointExtension xmlns:gpxtpx="http://www.garmin.com/xmlschemas/TrackPointExtension/v1">
            <gpxtpx:hr>128</gpxtpx:hr>
          </gpxtpx:TrackPointExtension>
        </extensions>
      </trkpt>
      <trkpt lat="45.71385" lon="3.01788">
        <ele>856.40002441406</ele>
        <time>2024-05-26T12:24:56.000Z</time>
        <extensions>
          <gpxtpx:TrackPointExtension xmlns:gpxtpx="http://www.garmin.com/xmlschemas/TrackPointExtension/v1">
            <gpxtpx:hr>127</gpxtpx:hr>
          </gpxtpx:TrackPointExtension>
        </extensions>
      </trkpt>
      <trkpt lat="45.71398" lon="3.01793">
        <ele>857.59997558594</ele>
        <time>2024-05-26T12:25:01.000Z</time>
        <extensions>
          <gpxtpx:TrackPointExtension xmlns:gpxtpx="http://www.garmin.com/xmlschemas/TrackPointExtension/v1">
            <gpxtpx:hr>126</gpxtpx:hr>
          </gpxtpx:TrackPointExtension>
        </extensions>
      </trkpt>
      <trkpt lat="45.71413" lon="3.01798">
        <ele>858.59997558594</ele>
        <time>2024-05-26T12:25:08.000Z</time>
        <extensions>
          <gpxtpx:TrackPointExtension xmlns:gpxtpx="http://www.garmin.com/xmlschemas/TrackPointExtension/v1">
            <gpxtpx:hr>126</gpxtpx:hr>
          </gpxtpx:TrackPointExtension>
        </extensions>
      </trkpt>
      <trkpt lat="45.71415" lon="3.01798">
        <ele>858.79998779297</ele>
        <time>2024-05-26T12:25:09.000Z</time>
        <extensions>
          <gpxtpx:TrackPointExtension xmlns:gpxtpx="http://www.garmin.com/xmlschemas/TrackPointExtension/v1">
            <gpxtpx:hr>126</gpxtpx:hr>
          </gpxtpx:TrackPointExtension>
        </extensions>
      </trkpt>
      <trkpt lat="45.71425" lon="3.01801">
        <ele>859.40002441406</ele>
        <time>2024-05-26T12:25:14.000Z</time>
        <extensions>
          <gpxtpx:TrackPointExtension xmlns:gpxtpx="http://www.garmin.com/xmlschemas/TrackPointExtension/v1">
            <gpxtpx:hr>123</gpxtpx:hr>
          </gpxtpx:TrackPointExtension>
        </extensions>
      </trkpt>
      <trkpt lat="45.71429" lon="3.01802">
        <ele>859.59997558594</ele>
        <time>2024-05-26T12:25:16.000Z</time>
        <extensions>
          <gpxtpx:TrackPointExtension xmlns:gpxtpx="http://www.garmin.com/xmlschemas/TrackPointExtension/v1">
            <gpxtpx:hr>122</gpxtpx:hr>
          </gpxtpx:TrackPointExtension>
        </extensions>
      </trkpt>
      <trkpt lat="45.71431" lon="3.01803">
        <ele>859.79998779297</ele>
        <time>2024-05-26T12:25:17.000Z</time>
        <extensions>
          <gpxtpx:TrackPointExtension xmlns:gpxtpx="http://www.garmin.com/xmlschemas/TrackPointExtension/v1">
            <gpxtpx:hr>122</gpxtpx:hr>
          </gpxtpx:TrackPointExtension>
        </extensions>
      </trkpt>
      <trkpt lat="45.71449" lon="3.01808">
        <ele>860.59997558594</ele>
        <time>2024-05-26T12:25:25.000Z</time>
        <extensions>
          <gpxtpx:TrackPointExtension xmlns:gpxtpx="http://www.garmin.com/xmlschemas/TrackPointExtension/v1">
            <gpxtpx:hr>122</gpxtpx:hr>
          </gpxtpx:TrackPointExtension>
        </extensions>
      </trkpt>
      <trkpt lat="45.71454" lon="3.01809">
        <ele>860.79998779297</ele>
        <time>2024-05-26T12:25:27.000Z</time>
        <extensions>
          <gpxtpx:TrackPointExtension xmlns:gpxtpx="http://www.garmin.com/xmlschemas/TrackPointExtension/v1">
            <gpxtpx:hr>122</gpxtpx:hr>
          </gpxtpx:TrackPointExtension>
        </extensions>
      </trkpt>
      <trkpt lat="45.71467" lon="3.01811">
        <ele>861.59997558594</ele>
        <time>2024-05-26T12:25:32.000Z</time>
        <extensions>
          <gpxtpx:TrackPointExtension xmlns:gpxtpx="http://www.garmin.com/xmlschemas/TrackPointExtension/v1">
            <gpxtpx:hr>123</gpxtpx:hr>
          </gpxtpx:TrackPointExtension>
        </extensions>
      </trkpt>
      <trkpt lat="45.71475" lon="3.01814">
        <ele>862.20001220703</ele>
        <time>2024-05-26T12:25:35.000Z</time>
        <extensions>
          <gpxtpx:TrackPointExtension xmlns:gpxtpx="http://www.garmin.com/xmlschemas/TrackPointExtension/v1">
            <gpxtpx:hr>124</gpxtpx:hr>
          </gpxtpx:TrackPointExtension>
        </extensions>
      </trkpt>
      <trkpt lat="45.71478" lon="3.01814">
        <ele>862.59997558594</ele>
        <time>2024-05-26T12:25:36.000Z</time>
        <extensions>
          <gpxtpx:TrackPointExtension xmlns:gpxtpx="http://www.garmin.com/xmlschemas/TrackPointExtension/v1">
            <gpxtpx:hr>121</gpxtpx:hr>
          </gpxtpx:TrackPointExtension>
        </extensions>
      </trkpt>
      <trkpt lat="45.71483" lon="3.01815">
        <ele>862.79998779297</ele>
        <time>2024-05-26T12:25:38.000Z</time>
        <extensions>
          <gpxtpx:TrackPointExtension xmlns:gpxtpx="http://www.garmin.com/xmlschemas/TrackPointExtension/v1">
            <gpxtpx:hr>123</gpxtpx:hr>
          </gpxtpx:TrackPointExtension>
        </extensions>
      </trkpt>
      <trkpt lat="45.71493" lon="3.01818">
        <ele>864</ele>
        <time>2024-05-26T12:25:42.000Z</time>
        <extensions>
          <gpxtpx:TrackPointExtension xmlns:gpxtpx="http://www.garmin.com/xmlschemas/TrackPointExtension/v1">
            <gpxtpx:hr>125</gpxtpx:hr>
          </gpxtpx:TrackPointExtension>
        </extensions>
      </trkpt>
      <trkpt lat="45.71507" lon="3.0182">
        <ele>865</ele>
        <time>2024-05-26T12:25:47.000Z</time>
        <extensions>
          <gpxtpx:TrackPointExtension xmlns:gpxtpx="http://www.garmin.com/xmlschemas/TrackPointExtension/v1">
            <gpxtpx:hr>127</gpxtpx:hr>
          </gpxtpx:TrackPointExtension>
        </extensions>
      </trkpt>
      <trkpt lat="45.71515" lon="3.01821">
        <ele>865.40002441406</ele>
        <time>2024-05-26T12:25:51.000Z</time>
        <extensions>
          <gpxtpx:TrackPointExtension xmlns:gpxtpx="http://www.garmin.com/xmlschemas/TrackPointExtension/v1">
            <gpxtpx:hr>130</gpxtpx:hr>
          </gpxtpx:TrackPointExtension>
        </extensions>
      </trkpt>
      <trkpt lat="45.71518" lon="3.01822">
        <ele>865.59997558594</ele>
        <time>2024-05-26T12:25:52.000Z</time>
        <extensions>
          <gpxtpx:TrackPointExtension xmlns:gpxtpx="http://www.garmin.com/xmlschemas/TrackPointExtension/v1">
            <gpxtpx:hr>129</gpxtpx:hr>
          </gpxtpx:TrackPointExtension>
        </extensions>
      </trkpt>
      <trkpt lat="45.71525" lon="3.01824">
        <ele>866</ele>
        <time>2024-05-26T12:25:55.000Z</time>
        <extensions>
          <gpxtpx:TrackPointExtension xmlns:gpxtpx="http://www.garmin.com/xmlschemas/TrackPointExtension/v1">
            <gpxtpx:hr>128</gpxtpx:hr>
          </gpxtpx:TrackPointExtension>
        </extensions>
      </trkpt>
      <trkpt lat="45.7153" lon="3.01825">
        <ele>866.40002441406</ele>
        <time>2024-05-26T12:25:57.000Z</time>
        <extensions>
          <gpxtpx:TrackPointExtension xmlns:gpxtpx="http://www.garmin.com/xmlschemas/TrackPointExtension/v1">
            <gpxtpx:hr>125</gpxtpx:hr>
          </gpxtpx:TrackPointExtension>
        </extensions>
      </trkpt>
      <trkpt lat="45.71537" lon="3.01826">
        <ele>866.59997558594</ele>
        <time>2024-05-26T12:26:00.000Z</time>
        <extensions>
          <gpxtpx:TrackPointExtension xmlns:gpxtpx="http://www.garmin.com/xmlschemas/TrackPointExtension/v1">
            <gpxtpx:hr>122</gpxtpx:hr>
          </gpxtpx:TrackPointExtension>
        </extensions>
      </trkpt>
      <trkpt lat="45.7154" lon="3.01826">
        <ele>867</ele>
        <time>2024-05-26T12:26:01.000Z</time>
        <extensions>
          <gpxtpx:TrackPointExtension xmlns:gpxtpx="http://www.garmin.com/xmlschemas/TrackPointExtension/v1">
            <gpxtpx:hr>122</gpxtpx:hr>
          </gpxtpx:TrackPointExtension>
        </extensions>
      </trkpt>
      <trkpt lat="45.71543" lon="3.01827">
        <ele>867.20001220703</ele>
        <time>2024-05-26T12:26:02.000Z</time>
        <extensions>
          <gpxtpx:TrackPointExtension xmlns:gpxtpx="http://www.garmin.com/xmlschemas/TrackPointExtension/v1">
            <gpxtpx:hr>122</gpxtpx:hr>
          </gpxtpx:TrackPointExtension>
        </extensions>
      </trkpt>
      <trkpt lat="45.71556" lon="3.01828">
        <ele>868</ele>
        <time>2024-05-26T12:26:07.000Z</time>
        <extensions>
          <gpxtpx:TrackPointExtension xmlns:gpxtpx="http://www.garmin.com/xmlschemas/TrackPointExtension/v1">
            <gpxtpx:hr>125</gpxtpx:hr>
          </gpxtpx:TrackPointExtension>
        </extensions>
      </trkpt>
      <trkpt lat="45.7156" lon="3.01829">
        <ele>868</ele>
        <time>2024-05-26T12:26:09.000Z</time>
        <extensions>
          <gpxtpx:TrackPointExtension xmlns:gpxtpx="http://www.garmin.com/xmlschemas/TrackPointExtension/v1">
            <gpxtpx:hr>126</gpxtpx:hr>
          </gpxtpx:TrackPointExtension>
        </extensions>
      </trkpt>
      <trkpt lat="45.71562" lon="3.01829">
        <ele>868.20001220703</ele>
        <time>2024-05-26T12:26:10.000Z</time>
        <extensions>
          <gpxtpx:TrackPointExtension xmlns:gpxtpx="http://www.garmin.com/xmlschemas/TrackPointExtension/v1">
            <gpxtpx:hr>126</gpxtpx:hr>
          </gpxtpx:TrackPointExtension>
        </extensions>
      </trkpt>
      <trkpt lat="45.71569" lon="3.01831">
        <ele>868.20001220703</ele>
        <time>2024-05-26T12:26:13.000Z</time>
        <extensions>
          <gpxtpx:TrackPointExtension xmlns:gpxtpx="http://www.garmin.com/xmlschemas/TrackPointExtension/v1">
            <gpxtpx:hr>129</gpxtpx:hr>
          </gpxtpx:TrackPointExtension>
        </extensions>
      </trkpt>
      <trkpt lat="45.71579" lon="3.01834">
        <ele>868.40002441406</ele>
        <time>2024-05-26T12:26:17.000Z</time>
        <extensions>
          <gpxtpx:TrackPointExtension xmlns:gpxtpx="http://www.garmin.com/xmlschemas/TrackPointExtension/v1">
            <gpxtpx:hr>130</gpxtpx:hr>
          </gpxtpx:TrackPointExtension>
        </extensions>
      </trkpt>
      <trkpt lat="45.71586" lon="3.01835">
        <ele>868.79998779297</ele>
        <time>2024-05-26T12:26:20.000Z</time>
        <extensions>
          <gpxtpx:TrackPointExtension xmlns:gpxtpx="http://www.garmin.com/xmlschemas/TrackPointExtension/v1">
            <gpxtpx:hr>133</gpxtpx:hr>
          </gpxtpx:TrackPointExtension>
        </extensions>
      </trkpt>
      <trkpt lat="45.71591" lon="3.01836">
        <ele>869.40002441406</ele>
        <time>2024-05-26T12:26:22.000Z</time>
        <extensions>
          <gpxtpx:TrackPointExtension xmlns:gpxtpx="http://www.garmin.com/xmlschemas/TrackPointExtension/v1">
            <gpxtpx:hr>134</gpxtpx:hr>
          </gpxtpx:TrackPointExtension>
        </extensions>
      </trkpt>
      <trkpt lat="45.71602" lon="3.0184">
        <ele>869.79998779297</ele>
        <time>2024-05-26T12:26:26.000Z</time>
        <extensions>
          <gpxtpx:TrackPointExtension xmlns:gpxtpx="http://www.garmin.com/xmlschemas/TrackPointExtension/v1">
            <gpxtpx:hr>132</gpxtpx:hr>
          </gpxtpx:TrackPointExtension>
        </extensions>
      </trkpt>
      <trkpt lat="45.7161" lon="3.01843">
        <ele>870.40002441406</ele>
        <time>2024-05-26T12:26:29.000Z</time>
        <extensions>
          <gpxtpx:TrackPointExtension xmlns:gpxtpx="http://www.garmin.com/xmlschemas/TrackPointExtension/v1">
            <gpxtpx:hr>132</gpxtpx:hr>
          </gpxtpx:TrackPointExtension>
        </extensions>
      </trkpt>
      <trkpt lat="45.71622" lon="3.01846">
        <ele>870.40002441406</ele>
        <time>2024-05-26T12:26:33.000Z</time>
        <extensions>
          <gpxtpx:TrackPointExtension xmlns:gpxtpx="http://www.garmin.com/xmlschemas/TrackPointExtension/v1">
            <gpxtpx:hr>131</gpxtpx:hr>
          </gpxtpx:TrackPointExtension>
        </extensions>
      </trkpt>
      <trkpt lat="45.71641" lon="3.01848">
        <ele>870.79998779297</ele>
        <time>2024-05-26T12:26:39.000Z</time>
        <extensions>
          <gpxtpx:TrackPointExtension xmlns:gpxtpx="http://www.garmin.com/xmlschemas/TrackPointExtension/v1">
            <gpxtpx:hr>132</gpxtpx:hr>
          </gpxtpx:TrackPointExtension>
        </extensions>
      </trkpt>
      <trkpt lat="45.71661" lon="3.01854">
        <ele>871</ele>
        <time>2024-05-26T12:26:45.000Z</time>
        <extensions>
          <gpxtpx:TrackPointExtension xmlns:gpxtpx="http://www.garmin.com/xmlschemas/TrackPointExtension/v1">
            <gpxtpx:hr>132</gpxtpx:hr>
          </gpxtpx:TrackPointExtension>
        </extensions>
      </trkpt>
      <trkpt lat="45.71673" lon="3.01857">
        <ele>871.20001220703</ele>
        <time>2024-05-26T12:26:48.000Z</time>
        <extensions>
          <gpxtpx:TrackPointExtension xmlns:gpxtpx="http://www.garmin.com/xmlschemas/TrackPointExtension/v1">
            <gpxtpx:hr>129</gpxtpx:hr>
          </gpxtpx:TrackPointExtension>
        </extensions>
      </trkpt>
      <trkpt lat="45.71681" lon="3.01859">
        <ele>871.20001220703</ele>
        <time>2024-05-26T12:26:50.000Z</time>
        <extensions>
          <gpxtpx:TrackPointExtension xmlns:gpxtpx="http://www.garmin.com/xmlschemas/TrackPointExtension/v1">
            <gpxtpx:hr>125</gpxtpx:hr>
          </gpxtpx:TrackPointExtension>
        </extensions>
      </trkpt>
      <trkpt lat="45.71687" lon="3.0186">
        <ele>871</ele>
        <time>2024-05-26T12:26:52.000Z</time>
        <extensions>
          <gpxtpx:TrackPointExtension xmlns:gpxtpx="http://www.garmin.com/xmlschemas/TrackPointExtension/v1">
            <gpxtpx:hr>120</gpxtpx:hr>
          </gpxtpx:TrackPointExtension>
        </extensions>
      </trkpt>
      <trkpt lat="45.7169" lon="3.01861">
        <ele>871.20001220703</ele>
        <time>2024-05-26T12:26:53.000Z</time>
        <extensions>
          <gpxtpx:TrackPointExtension xmlns:gpxtpx="http://www.garmin.com/xmlschemas/TrackPointExtension/v1">
            <gpxtpx:hr>118</gpxtpx:hr>
          </gpxtpx:TrackPointExtension>
        </extensions>
      </trkpt>
      <trkpt lat="45.71707" lon="3.01865">
        <ele>871.40002441406</ele>
        <time>2024-05-26T12:26:57.000Z</time>
        <extensions>
          <gpxtpx:TrackPointExtension xmlns:gpxtpx="http://www.garmin.com/xmlschemas/TrackPointExtension/v1">
            <gpxtpx:hr>115</gpxtpx:hr>
          </gpxtpx:TrackPointExtension>
        </extensions>
      </trkpt>
      <trkpt lat="45.71723" lon="3.01868">
        <ele>871.79998779297</ele>
        <time>2024-05-26T12:27:01.000Z</time>
        <extensions>
          <gpxtpx:TrackPointExtension xmlns:gpxtpx="http://www.garmin.com/xmlschemas/TrackPointExtension/v1">
            <gpxtpx:hr>114</gpxtpx:hr>
          </gpxtpx:TrackPointExtension>
        </extensions>
      </trkpt>
      <trkpt lat="45.71755" lon="3.01877">
        <ele>872</ele>
        <time>2024-05-26T12:27:09.000Z</time>
        <extensions>
          <gpxtpx:TrackPointExtension xmlns:gpxtpx="http://www.garmin.com/xmlschemas/TrackPointExtension/v1">
            <gpxtpx:hr>111</gpxtpx:hr>
          </gpxtpx:TrackPointExtension>
        </extensions>
      </trkpt>
      <trkpt lat="45.71762" lon="3.01878">
        <ele>872.20001220703</ele>
        <time>2024-05-26T12:27:11.000Z</time>
        <extensions>
          <gpxtpx:TrackPointExtension xmlns:gpxtpx="http://www.garmin.com/xmlschemas/TrackPointExtension/v1">
            <gpxtpx:hr>108</gpxtpx:hr>
          </gpxtpx:TrackPointExtension>
        </extensions>
      </trkpt>
      <trkpt lat="45.7177" lon="3.01879">
        <ele>872.59997558594</ele>
        <time>2024-05-26T12:27:13.000Z</time>
        <extensions>
          <gpxtpx:TrackPointExtension xmlns:gpxtpx="http://www.garmin.com/xmlschemas/TrackPointExtension/v1">
            <gpxtpx:hr>106</gpxtpx:hr>
          </gpxtpx:TrackPointExtension>
        </extensions>
      </trkpt>
      <trkpt lat="45.71784" lon="3.01881">
        <ele>872.79998779297</ele>
        <time>2024-05-26T12:27:16.000Z</time>
        <extensions>
          <gpxtpx:TrackPointExtension xmlns:gpxtpx="http://www.garmin.com/xmlschemas/TrackPointExtension/v1">
            <gpxtpx:hr>107</gpxtpx:hr>
          </gpxtpx:TrackPointExtension>
        </extensions>
      </trkpt>
      <trkpt lat="45.71799" lon="3.01884">
        <ele>873.59997558594</ele>
        <time>2024-05-26T12:27:20.000Z</time>
        <extensions>
          <gpxtpx:TrackPointExtension xmlns:gpxtpx="http://www.garmin.com/xmlschemas/TrackPointExtension/v1">
            <gpxtpx:hr>109</gpxtpx:hr>
          </gpxtpx:TrackPointExtension>
        </extensions>
      </trkpt>
      <trkpt lat="45.71807" lon="3.01884">
        <ele>873.79998779297</ele>
        <time>2024-05-26T12:27:22.000Z</time>
        <extensions>
          <gpxtpx:TrackPointExtension xmlns:gpxtpx="http://www.garmin.com/xmlschemas/TrackPointExtension/v1">
            <gpxtpx:hr>112</gpxtpx:hr>
          </gpxtpx:TrackPointExtension>
        </extensions>
      </trkpt>
      <trkpt lat="45.71815" lon="3.01888">
        <ele>874</ele>
        <time>2024-05-26T12:27:24.000Z</time>
        <extensions>
          <gpxtpx:TrackPointExtension xmlns:gpxtpx="http://www.garmin.com/xmlschemas/TrackPointExtension/v1">
            <gpxtpx:hr>112</gpxtpx:hr>
          </gpxtpx:TrackPointExtension>
        </extensions>
      </trkpt>
      <trkpt lat="45.7183" lon="3.01892">
        <ele>874.59997558594</ele>
        <time>2024-05-26T12:27:28.000Z</time>
        <extensions>
          <gpxtpx:TrackPointExtension xmlns:gpxtpx="http://www.garmin.com/xmlschemas/TrackPointExtension/v1">
            <gpxtpx:hr>114</gpxtpx:hr>
          </gpxtpx:TrackPointExtension>
        </extensions>
      </trkpt>
      <trkpt lat="45.7184" lon="3.01895">
        <ele>874.79998779297</ele>
        <time>2024-05-26T12:27:31.000Z</time>
        <extensions>
          <gpxtpx:TrackPointExtension xmlns:gpxtpx="http://www.garmin.com/xmlschemas/TrackPointExtension/v1">
            <gpxtpx:hr>114</gpxtpx:hr>
          </gpxtpx:TrackPointExtension>
        </extensions>
      </trkpt>
      <trkpt lat="45.71865" lon="3.01901">
        <ele>875.59997558594</ele>
        <time>2024-05-26T12:27:38.000Z</time>
        <extensions>
          <gpxtpx:TrackPointExtension xmlns:gpxtpx="http://www.garmin.com/xmlschemas/TrackPointExtension/v1">
            <gpxtpx:hr>115</gpxtpx:hr>
          </gpxtpx:TrackPointExtension>
        </extensions>
      </trkpt>
      <trkpt lat="45.71868" lon="3.01901">
        <ele>875.59997558594</ele>
        <time>2024-05-26T12:27:39.000Z</time>
        <extensions>
          <gpxtpx:TrackPointExtension xmlns:gpxtpx="http://www.garmin.com/xmlschemas/TrackPointExtension/v1">
            <gpxtpx:hr>115</gpxtpx:hr>
          </gpxtpx:TrackPointExtension>
        </extensions>
      </trkpt>
      <trkpt lat="45.71887" lon="3.01908">
        <ele>875.79998779297</ele>
        <time>2024-05-26T12:27:43.000Z</time>
        <extensions>
          <gpxtpx:TrackPointExtension xmlns:gpxtpx="http://www.garmin.com/xmlschemas/TrackPointExtension/v1">
            <gpxtpx:hr>115</gpxtpx:hr>
          </gpxtpx:TrackPointExtension>
        </extensions>
      </trkpt>
      <trkpt lat="45.71909" lon="3.01922">
        <ele>875.79998779297</ele>
        <time>2024-05-26T12:27:49.000Z</time>
        <extensions>
          <gpxtpx:TrackPointExtension xmlns:gpxtpx="http://www.garmin.com/xmlschemas/TrackPointExtension/v1">
            <gpxtpx:hr>113</gpxtpx:hr>
          </gpxtpx:TrackPointExtension>
        </extensions>
      </trkpt>
      <trkpt lat="45.71943" lon="3.01946">
        <ele>875.40002441406</ele>
        <time>2024-05-26T12:27:58.000Z</time>
        <extensions>
          <gpxtpx:TrackPointExtension xmlns:gpxtpx="http://www.garmin.com/xmlschemas/TrackPointExtension/v1">
            <gpxtpx:hr>114</gpxtpx:hr>
          </gpxtpx:TrackPointExtension>
        </extensions>
      </trkpt>
      <trkpt lat="45.71978" lon="3.01968">
        <ele>875.59997558594</ele>
        <time>2024-05-26T12:28:06.000Z</time>
        <extensions>
          <gpxtpx:TrackPointExtension xmlns:gpxtpx="http://www.garmin.com/xmlschemas/TrackPointExtension/v1">
            <gpxtpx:hr>112</gpxtpx:hr>
          </gpxtpx:TrackPointExtension>
        </extensions>
      </trkpt>
      <trkpt lat="45.71982" lon="3.01969">
        <ele>875.79998779297</ele>
        <time>2024-05-26T12:28:07.000Z</time>
        <extensions>
          <gpxtpx:TrackPointExtension xmlns:gpxtpx="http://www.garmin.com/xmlschemas/TrackPointExtension/v1">
            <gpxtpx:hr>111</gpxtpx:hr>
          </gpxtpx:TrackPointExtension>
        </extensions>
      </trkpt>
      <trkpt lat="45.72018" lon="3.01974">
        <ele>876.59997558594</ele>
        <time>2024-05-26T12:28:15.000Z</time>
        <extensions>
          <gpxtpx:TrackPointExtension xmlns:gpxtpx="http://www.garmin.com/xmlschemas/TrackPointExtension/v1">
            <gpxtpx:hr>111</gpxtpx:hr>
          </gpxtpx:TrackPointExtension>
        </extensions>
      </trkpt>
      <trkpt lat="45.72021" lon="3.01974">
        <ele>877.20001220703</ele>
        <time>2024-05-26T12:28:16.000Z</time>
        <extensions>
          <gpxtpx:TrackPointExtension xmlns:gpxtpx="http://www.garmin.com/xmlschemas/TrackPointExtension/v1">
            <gpxtpx:hr>111</gpxtpx:hr>
          </gpxtpx:TrackPointExtension>
        </extensions>
      </trkpt>
      <trkpt lat="45.72039" lon="3.01972">
        <ele>878</ele>
        <time>2024-05-26T12:28:21.000Z</time>
        <extensions>
          <gpxtpx:TrackPointExtension xmlns:gpxtpx="http://www.garmin.com/xmlschemas/TrackPointExtension/v1">
            <gpxtpx:hr>110</gpxtpx:hr>
          </gpxtpx:TrackPointExtension>
        </extensions>
      </trkpt>
      <trkpt lat="45.72043" lon="3.01971">
        <ele>878.20001220703</ele>
        <time>2024-05-26T12:28:22.000Z</time>
        <extensions>
          <gpxtpx:TrackPointExtension xmlns:gpxtpx="http://www.garmin.com/xmlschemas/TrackPointExtension/v1">
            <gpxtpx:hr>111</gpxtpx:hr>
          </gpxtpx:TrackPointExtension>
        </extensions>
      </trkpt>
      <trkpt lat="45.7205" lon="3.01966">
        <ele>878.20001220703</ele>
        <time>2024-05-26T12:28:24.000Z</time>
        <extensions>
          <gpxtpx:TrackPointExtension xmlns:gpxtpx="http://www.garmin.com/xmlschemas/TrackPointExtension/v1">
            <gpxtpx:hr>114</gpxtpx:hr>
          </gpxtpx:TrackPointExtension>
        </extensions>
      </trkpt>
      <trkpt lat="45.72058" lon="3.01957">
        <ele>878.20001220703</ele>
        <time>2024-05-26T12:28:26.000Z</time>
        <extensions>
          <gpxtpx:TrackPointExtension xmlns:gpxtpx="http://www.garmin.com/xmlschemas/TrackPointExtension/v1">
            <gpxtpx:hr>115</gpxtpx:hr>
          </gpxtpx:TrackPointExtension>
        </extensions>
      </trkpt>
      <trkpt lat="45.72066" lon="3.01945">
        <ele>877.79998779297</ele>
        <time>2024-05-26T12:28:28.000Z</time>
        <extensions>
          <gpxtpx:TrackPointExtension xmlns:gpxtpx="http://www.garmin.com/xmlschemas/TrackPointExtension/v1">
            <gpxtpx:hr>116</gpxtpx:hr>
          </gpxtpx:TrackPointExtension>
        </extensions>
      </trkpt>
      <trkpt lat="45.72072" lon="3.01929">
        <ele>877.40002441406</ele>
        <time>2024-05-26T12:28:30.000Z</time>
        <extensions>
          <gpxtpx:TrackPointExtension xmlns:gpxtpx="http://www.garmin.com/xmlschemas/TrackPointExtension/v1">
            <gpxtpx:hr>116</gpxtpx:hr>
          </gpxtpx:TrackPointExtension>
        </extensions>
      </trkpt>
      <trkpt lat="45.72076" lon="3.01919">
        <ele>877</ele>
        <time>2024-05-26T12:28:31.000Z</time>
        <extensions>
          <gpxtpx:TrackPointExtension xmlns:gpxtpx="http://www.garmin.com/xmlschemas/TrackPointExtension/v1">
            <gpxtpx:hr>114</gpxtpx:hr>
          </gpxtpx:TrackPointExtension>
        </extensions>
      </trkpt>
      <trkpt lat="45.72081" lon="3.01898">
        <ele>875.20001220703</ele>
        <time>2024-05-26T12:28:33.000Z</time>
        <extensions>
          <gpxtpx:TrackPointExtension xmlns:gpxtpx="http://www.garmin.com/xmlschemas/TrackPointExtension/v1">
            <gpxtpx:hr>112</gpxtpx:hr>
          </gpxtpx:TrackPointExtension>
        </extensions>
      </trkpt>
      <trkpt lat="45.72083" lon="3.01886">
        <ele>874.59997558594</ele>
        <time>2024-05-26T12:28:34.000Z</time>
        <extensions>
          <gpxtpx:TrackPointExtension xmlns:gpxtpx="http://www.garmin.com/xmlschemas/TrackPointExtension/v1">
            <gpxtpx:hr>112</gpxtpx:hr>
          </gpxtpx:TrackPointExtension>
        </extensions>
      </trkpt>
      <trkpt lat="45.72086" lon="3.01873">
        <ele>873.79998779297</ele>
        <time>2024-05-26T12:28:35.000Z</time>
        <extensions>
          <gpxtpx:TrackPointExtension xmlns:gpxtpx="http://www.garmin.com/xmlschemas/TrackPointExtension/v1">
            <gpxtpx:hr>112</gpxtpx:hr>
          </gpxtpx:TrackPointExtension>
        </extensions>
      </trkpt>
      <trkpt lat="45.72092" lon="3.01848">
        <ele>873</ele>
        <time>2024-05-26T12:28:37.000Z</time>
        <extensions>
          <gpxtpx:TrackPointExtension xmlns:gpxtpx="http://www.garmin.com/xmlschemas/TrackPointExtension/v1">
            <gpxtpx:hr>112</gpxtpx:hr>
          </gpxtpx:TrackPointExtension>
        </extensions>
      </trkpt>
      <trkpt lat="45.72098" lon="3.01837">
        <ele>872.59997558594</ele>
        <time>2024-05-26T12:28:38.000Z</time>
        <extensions>
          <gpxtpx:TrackPointExtension xmlns:gpxtpx="http://www.garmin.com/xmlschemas/TrackPointExtension/v1">
            <gpxtpx:hr>111</gpxtpx:hr>
          </gpxtpx:TrackPointExtension>
        </extensions>
      </trkpt>
      <trkpt lat="45.72105" lon="3.01828">
        <ele>872.40002441406</ele>
        <time>2024-05-26T12:28:39.000Z</time>
        <extensions>
          <gpxtpx:TrackPointExtension xmlns:gpxtpx="http://www.garmin.com/xmlschemas/TrackPointExtension/v1">
            <gpxtpx:hr>111</gpxtpx:hr>
          </gpxtpx:TrackPointExtension>
        </extensions>
      </trkpt>
      <trkpt lat="45.72113" lon="3.01824">
        <ele>871.79998779297</ele>
        <time>2024-05-26T12:28:40.000Z</time>
        <extensions>
          <gpxtpx:TrackPointExtension xmlns:gpxtpx="http://www.garmin.com/xmlschemas/TrackPointExtension/v1">
            <gpxtpx:hr>111</gpxtpx:hr>
          </gpxtpx:TrackPointExtension>
        </extensions>
      </trkpt>
      <trkpt lat="45.72124" lon="3.01823">
        <ele>871</ele>
        <time>2024-05-26T12:28:41.000Z</time>
        <extensions>
          <gpxtpx:TrackPointExtension xmlns:gpxtpx="http://www.garmin.com/xmlschemas/TrackPointExtension/v1">
            <gpxtpx:hr>111</gpxtpx:hr>
          </gpxtpx:TrackPointExtension>
        </extensions>
      </trkpt>
      <trkpt lat="45.72144" lon="3.01826">
        <ele>870.20001220703</ele>
        <time>2024-05-26T12:28:43.000Z</time>
        <extensions>
          <gpxtpx:TrackPointExtension xmlns:gpxtpx="http://www.garmin.com/xmlschemas/TrackPointExtension/v1">
            <gpxtpx:hr>111</gpxtpx:hr>
          </gpxtpx:TrackPointExtension>
        </extensions>
      </trkpt>
      <trkpt lat="45.72162" lon="3.01831">
        <ele>870</ele>
        <time>2024-05-26T12:28:45.000Z</time>
        <extensions>
          <gpxtpx:TrackPointExtension xmlns:gpxtpx="http://www.garmin.com/xmlschemas/TrackPointExtension/v1">
            <gpxtpx:hr>111</gpxtpx:hr>
          </gpxtpx:TrackPointExtension>
        </extensions>
      </trkpt>
      <trkpt lat="45.72175" lon="3.01843">
        <ele>870.20001220703</ele>
        <time>2024-05-26T12:28:47.000Z</time>
        <extensions>
          <gpxtpx:TrackPointExtension xmlns:gpxtpx="http://www.garmin.com/xmlschemas/TrackPointExtension/v1">
            <gpxtpx:hr>110</gpxtpx:hr>
          </gpxtpx:TrackPointExtension>
        </extensions>
      </trkpt>
      <trkpt lat="45.72175" lon="3.01861">
        <ele>870.40002441406</ele>
        <time>2024-05-26T12:28:49.000Z</time>
        <extensions>
          <gpxtpx:TrackPointExtension xmlns:gpxtpx="http://www.garmin.com/xmlschemas/TrackPointExtension/v1">
            <gpxtpx:hr>110</gpxtpx:hr>
          </gpxtpx:TrackPointExtension>
        </extensions>
      </trkpt>
      <trkpt lat="45.72164" lon="3.01916">
        <ele>871.79998779297</ele>
        <time>2024-05-26T12:28:56.000Z</time>
        <extensions>
          <gpxtpx:TrackPointExtension xmlns:gpxtpx="http://www.garmin.com/xmlschemas/TrackPointExtension/v1">
            <gpxtpx:hr>112</gpxtpx:hr>
          </gpxtpx:TrackPointExtension>
        </extensions>
      </trkpt>
      <trkpt lat="45.72161" lon="3.01939">
        <ele>872.20001220703</ele>
        <time>2024-05-26T12:28:59.000Z</time>
        <extensions>
          <gpxtpx:TrackPointExtension xmlns:gpxtpx="http://www.garmin.com/xmlschemas/TrackPointExtension/v1">
            <gpxtpx:hr>112</gpxtpx:hr>
          </gpxtpx:TrackPointExtension>
        </extensions>
      </trkpt>
      <trkpt lat="45.72161" lon="3.0196">
        <ele>872.59997558594</ele>
        <time>2024-05-26T12:29:02.000Z</time>
        <extensions>
          <gpxtpx:TrackPointExtension xmlns:gpxtpx="http://www.garmin.com/xmlschemas/TrackPointExtension/v1">
            <gpxtpx:hr>113</gpxtpx:hr>
          </gpxtpx:TrackPointExtension>
        </extensions>
      </trkpt>
      <trkpt lat="45.72166" lon="3.01994">
        <ele>873.40002441406</ele>
        <time>2024-05-26T12:29:07.000Z</time>
        <extensions>
          <gpxtpx:TrackPointExtension xmlns:gpxtpx="http://www.garmin.com/xmlschemas/TrackPointExtension/v1">
            <gpxtpx:hr>113</gpxtpx:hr>
          </gpxtpx:TrackPointExtension>
        </extensions>
      </trkpt>
      <trkpt lat="45.72167" lon="3.02">
        <ele>873.40002441406</ele>
        <time>2024-05-26T12:29:08.000Z</time>
        <extensions>
          <gpxtpx:TrackPointExtension xmlns:gpxtpx="http://www.garmin.com/xmlschemas/TrackPointExtension/v1">
            <gpxtpx:hr>112</gpxtpx:hr>
          </gpxtpx:TrackPointExtension>
        </extensions>
      </trkpt>
      <trkpt lat="45.7217" lon="3.02013">
        <ele>873.79998779297</ele>
        <time>2024-05-26T12:29:10.000Z</time>
        <extensions>
          <gpxtpx:TrackPointExtension xmlns:gpxtpx="http://www.garmin.com/xmlschemas/TrackPointExtension/v1">
            <gpxtpx:hr>112</gpxtpx:hr>
          </gpxtpx:TrackPointExtension>
        </extensions>
      </trkpt>
      <trkpt lat="45.72173" lon="3.02032">
        <ele>874</ele>
        <time>2024-05-26T12:29:13.000Z</time>
        <extensions>
          <gpxtpx:TrackPointExtension xmlns:gpxtpx="http://www.garmin.com/xmlschemas/TrackPointExtension/v1">
            <gpxtpx:hr>112</gpxtpx:hr>
          </gpxtpx:TrackPointExtension>
        </extensions>
      </trkpt>
      <trkpt lat="45.72174" lon="3.02046">
        <ele>874.20001220703</ele>
        <time>2024-05-26T12:29:15.000Z</time>
        <extensions>
          <gpxtpx:TrackPointExtension xmlns:gpxtpx="http://www.garmin.com/xmlschemas/TrackPointExtension/v1">
            <gpxtpx:hr>112</gpxtpx:hr>
          </gpxtpx:TrackPointExtension>
        </extensions>
      </trkpt>
      <trkpt lat="45.72172" lon="3.02061">
        <ele>874.20001220703</ele>
        <time>2024-05-26T12:29:17.000Z</time>
        <extensions>
          <gpxtpx:TrackPointExtension xmlns:gpxtpx="http://www.garmin.com/xmlschemas/TrackPointExtension/v1">
            <gpxtpx:hr>112</gpxtpx:hr>
          </gpxtpx:TrackPointExtension>
        </extensions>
      </trkpt>
      <trkpt lat="45.72167" lon="3.02081">
        <ele>874</ele>
        <time>2024-05-26T12:29:20.000Z</time>
        <extensions>
          <gpxtpx:TrackPointExtension xmlns:gpxtpx="http://www.garmin.com/xmlschemas/TrackPointExtension/v1">
            <gpxtpx:hr>113</gpxtpx:hr>
          </gpxtpx:TrackPointExtension>
        </extensions>
      </trkpt>
      <trkpt lat="45.72157" lon="3.02107">
        <ele>874.40002441406</ele>
        <time>2024-05-26T12:29:24.000Z</time>
        <extensions>
          <gpxtpx:TrackPointExtension xmlns:gpxtpx="http://www.garmin.com/xmlschemas/TrackPointExtension/v1">
            <gpxtpx:hr>112</gpxtpx:hr>
          </gpxtpx:TrackPointExtension>
        </extensions>
      </trkpt>
      <trkpt lat="45.72152" lon="3.02127">
        <ele>875.20001220703</ele>
        <time>2024-05-26T12:29:27.000Z</time>
        <extensions>
          <gpxtpx:TrackPointExtension xmlns:gpxtpx="http://www.garmin.com/xmlschemas/TrackPointExtension/v1">
            <gpxtpx:hr>112</gpxtpx:hr>
          </gpxtpx:TrackPointExtension>
        </extensions>
      </trkpt>
      <trkpt lat="45.7215" lon="3.02134">
        <ele>875.20001220703</ele>
        <time>2024-05-26T12:29:28.000Z</time>
        <extensions>
          <gpxtpx:TrackPointExtension xmlns:gpxtpx="http://www.garmin.com/xmlschemas/TrackPointExtension/v1">
            <gpxtpx:hr>112</gpxtpx:hr>
          </gpxtpx:TrackPointExtension>
        </extensions>
      </trkpt>
      <trkpt lat="45.7215" lon="3.02148">
        <ele>875.59997558594</ele>
        <time>2024-05-26T12:29:30.000Z</time>
        <extensions>
          <gpxtpx:TrackPointExtension xmlns:gpxtpx="http://www.garmin.com/xmlschemas/TrackPointExtension/v1">
            <gpxtpx:hr>113</gpxtpx:hr>
          </gpxtpx:TrackPointExtension>
        </extensions>
      </trkpt>
      <trkpt lat="45.7215" lon="3.02161">
        <ele>876.59997558594</ele>
        <time>2024-05-26T12:29:32.000Z</time>
        <extensions>
          <gpxtpx:TrackPointExtension xmlns:gpxtpx="http://www.garmin.com/xmlschemas/TrackPointExtension/v1">
            <gpxtpx:hr>114</gpxtpx:hr>
          </gpxtpx:TrackPointExtension>
        </extensions>
      </trkpt>
      <trkpt lat="45.72149" lon="3.02168">
        <ele>877.20001220703</ele>
        <time>2024-05-26T12:29:33.000Z</time>
        <extensions>
          <gpxtpx:TrackPointExtension xmlns:gpxtpx="http://www.garmin.com/xmlschemas/TrackPointExtension/v1">
            <gpxtpx:hr>114</gpxtpx:hr>
          </gpxtpx:TrackPointExtension>
        </extensions>
      </trkpt>
      <trkpt lat="45.72149" lon="3.02181">
        <ele>877.40002441406</ele>
        <time>2024-05-26T12:29:35.000Z</time>
        <extensions>
          <gpxtpx:TrackPointExtension xmlns:gpxtpx="http://www.garmin.com/xmlschemas/TrackPointExtension/v1">
            <gpxtpx:hr>114</gpxtpx:hr>
          </gpxtpx:TrackPointExtension>
        </extensions>
      </trkpt>
      <trkpt lat="45.72148" lon="3.02201">
        <ele>877.59997558594</ele>
        <time>2024-05-26T12:29:38.000Z</time>
        <extensions>
          <gpxtpx:TrackPointExtension xmlns:gpxtpx="http://www.garmin.com/xmlschemas/TrackPointExtension/v1">
            <gpxtpx:hr>117</gpxtpx:hr>
          </gpxtpx:TrackPointExtension>
        </extensions>
      </trkpt>
      <trkpt lat="45.72146" lon="3.02214">
        <ele>877.59997558594</ele>
        <time>2024-05-26T12:29:40.000Z</time>
        <extensions>
          <gpxtpx:TrackPointExtension xmlns:gpxtpx="http://www.garmin.com/xmlschemas/TrackPointExtension/v1">
            <gpxtpx:hr>115</gpxtpx:hr>
          </gpxtpx:TrackPointExtension>
        </extensions>
      </trkpt>
      <trkpt lat="45.72143" lon="3.02227">
        <ele>878</ele>
        <time>2024-05-26T12:29:42.000Z</time>
        <extensions>
          <gpxtpx:TrackPointExtension xmlns:gpxtpx="http://www.garmin.com/xmlschemas/TrackPointExtension/v1">
            <gpxtpx:hr>115</gpxtpx:hr>
          </gpxtpx:TrackPointExtension>
        </extensions>
      </trkpt>
      <trkpt lat="45.72138" lon="3.02246">
        <ele>878</ele>
        <time>2024-05-26T12:29:45.000Z</time>
        <extensions>
          <gpxtpx:TrackPointExtension xmlns:gpxtpx="http://www.garmin.com/xmlschemas/TrackPointExtension/v1">
            <gpxtpx:hr>119</gpxtpx:hr>
          </gpxtpx:TrackPointExtension>
        </extensions>
      </trkpt>
      <trkpt lat="45.7213" lon="3.02279">
        <ele>877.79998779297</ele>
        <time>2024-05-26T12:29:50.000Z</time>
        <extensions>
          <gpxtpx:TrackPointExtension xmlns:gpxtpx="http://www.garmin.com/xmlschemas/TrackPointExtension/v1">
            <gpxtpx:hr>121</gpxtpx:hr>
          </gpxtpx:TrackPointExtension>
        </extensions>
      </trkpt>
      <trkpt lat="45.72129" lon="3.02287">
        <ele>877.79998779297</ele>
        <time>2024-05-26T12:29:51.000Z</time>
        <extensions>
          <gpxtpx:TrackPointExtension xmlns:gpxtpx="http://www.garmin.com/xmlschemas/TrackPointExtension/v1">
            <gpxtpx:hr>121</gpxtpx:hr>
          </gpxtpx:TrackPointExtension>
        </extensions>
      </trkpt>
      <trkpt lat="45.72129" lon="3.02301">
        <ele>877.79998779297</ele>
        <time>2024-05-26T12:29:53.000Z</time>
        <extensions>
          <gpxtpx:TrackPointExtension xmlns:gpxtpx="http://www.garmin.com/xmlschemas/TrackPointExtension/v1">
            <gpxtpx:hr>120</gpxtpx:hr>
          </gpxtpx:TrackPointExtension>
        </extensions>
      </trkpt>
      <trkpt lat="45.7213" lon="3.02308">
        <ele>877.79998779297</ele>
        <time>2024-05-26T12:29:54.000Z</time>
        <extensions>
          <gpxtpx:TrackPointExtension xmlns:gpxtpx="http://www.garmin.com/xmlschemas/TrackPointExtension/v1">
            <gpxtpx:hr>120</gpxtpx:hr>
          </gpxtpx:TrackPointExtension>
        </extensions>
      </trkpt>
      <trkpt lat="45.72134" lon="3.0233">
        <ele>878.20001220703</ele>
        <time>2024-05-26T12:29:57.000Z</time>
        <extensions>
          <gpxtpx:TrackPointExtension xmlns:gpxtpx="http://www.garmin.com/xmlschemas/TrackPointExtension/v1">
            <gpxtpx:hr>120</gpxtpx:hr>
          </gpxtpx:TrackPointExtension>
        </extensions>
      </trkpt>
      <trkpt lat="45.7214" lon="3.02354">
        <ele>878.40002441406</ele>
        <time>2024-05-26T12:30:00.000Z</time>
        <extensions>
          <gpxtpx:TrackPointExtension xmlns:gpxtpx="http://www.garmin.com/xmlschemas/TrackPointExtension/v1">
            <gpxtpx:hr>120</gpxtpx:hr>
          </gpxtpx:TrackPointExtension>
        </extensions>
      </trkpt>
      <trkpt lat="45.72155" lon="3.0242">
        <ele>878.20001220703</ele>
        <time>2024-05-26T12:30:08.000Z</time>
        <extensions>
          <gpxtpx:TrackPointExtension xmlns:gpxtpx="http://www.garmin.com/xmlschemas/TrackPointExtension/v1">
            <gpxtpx:hr>119</gpxtpx:hr>
          </gpxtpx:TrackPointExtension>
        </extensions>
      </trkpt>
      <trkpt lat="45.72168" lon="3.02475">
        <ele>878.79998779297</ele>
        <time>2024-05-26T12:30:14.000Z</time>
        <extensions>
          <gpxtpx:TrackPointExtension xmlns:gpxtpx="http://www.garmin.com/xmlschemas/TrackPointExtension/v1">
            <gpxtpx:hr>117</gpxtpx:hr>
          </gpxtpx:TrackPointExtension>
        </extensions>
      </trkpt>
      <trkpt lat="45.72178" lon="3.0253">
        <ele>878.79998779297</ele>
        <time>2024-05-26T12:30:20.000Z</time>
        <extensions>
          <gpxtpx:TrackPointExtension xmlns:gpxtpx="http://www.garmin.com/xmlschemas/TrackPointExtension/v1">
            <gpxtpx:hr>114</gpxtpx:hr>
          </gpxtpx:TrackPointExtension>
        </extensions>
      </trkpt>
      <trkpt lat="45.72178" lon="3.02539">
        <ele>878.59997558594</ele>
        <time>2024-05-26T12:30:21.000Z</time>
        <extensions>
          <gpxtpx:TrackPointExtension xmlns:gpxtpx="http://www.garmin.com/xmlschemas/TrackPointExtension/v1">
            <gpxtpx:hr>113</gpxtpx:hr>
          </gpxtpx:TrackPointExtension>
        </extensions>
      </trkpt>
      <trkpt lat="45.72176" lon="3.02568">
        <ele>878.59997558594</ele>
        <time>2024-05-26T12:30:24.000Z</time>
        <extensions>
          <gpxtpx:TrackPointExtension xmlns:gpxtpx="http://www.garmin.com/xmlschemas/TrackPointExtension/v1">
            <gpxtpx:hr>115</gpxtpx:hr>
          </gpxtpx:TrackPointExtension>
        </extensions>
      </trkpt>
      <trkpt lat="45.72169" lon="3.02595">
        <ele>878.59997558594</ele>
        <time>2024-05-26T12:30:27.000Z</time>
        <extensions>
          <gpxtpx:TrackPointExtension xmlns:gpxtpx="http://www.garmin.com/xmlschemas/TrackPointExtension/v1">
            <gpxtpx:hr>118</gpxtpx:hr>
          </gpxtpx:TrackPointExtension>
        </extensions>
      </trkpt>
      <trkpt lat="45.72163" lon="3.02623">
        <ele>878.40002441406</ele>
        <time>2024-05-26T12:30:30.000Z</time>
        <extensions>
          <gpxtpx:TrackPointExtension xmlns:gpxtpx="http://www.garmin.com/xmlschemas/TrackPointExtension/v1">
            <gpxtpx:hr>113</gpxtpx:hr>
          </gpxtpx:TrackPointExtension>
        </extensions>
      </trkpt>
      <trkpt lat="45.72161" lon="3.02632">
        <ele>878.20001220703</ele>
        <time>2024-05-26T12:30:31.000Z</time>
        <extensions>
          <gpxtpx:TrackPointExtension xmlns:gpxtpx="http://www.garmin.com/xmlschemas/TrackPointExtension/v1">
            <gpxtpx:hr>116</gpxtpx:hr>
          </gpxtpx:TrackPointExtension>
        </extensions>
      </trkpt>
      <trkpt lat="45.7215" lon="3.02671">
        <ele>876.79998779297</ele>
        <time>2024-05-26T12:30:35.000Z</time>
        <extensions>
          <gpxtpx:TrackPointExtension xmlns:gpxtpx="http://www.garmin.com/xmlschemas/TrackPointExtension/v1">
            <gpxtpx:hr>116</gpxtpx:hr>
          </gpxtpx:TrackPointExtension>
        </extensions>
      </trkpt>
      <trkpt lat="45.72138" lon="3.02711">
        <ele>875.59997558594</ele>
        <time>2024-05-26T12:30:39.000Z</time>
        <extensions>
          <gpxtpx:TrackPointExtension xmlns:gpxtpx="http://www.garmin.com/xmlschemas/TrackPointExtension/v1">
            <gpxtpx:hr>117</gpxtpx:hr>
          </gpxtpx:TrackPointExtension>
        </extensions>
      </trkpt>
      <trkpt lat="45.72122" lon="3.02771">
        <ele>875.79998779297</ele>
        <time>2024-05-26T12:30:45.000Z</time>
        <extensions>
          <gpxtpx:TrackPointExtension xmlns:gpxtpx="http://www.garmin.com/xmlschemas/TrackPointExtension/v1">
            <gpxtpx:hr>122</gpxtpx:hr>
          </gpxtpx:TrackPointExtension>
        </extensions>
      </trkpt>
      <trkpt lat="45.7212" lon="3.02782">
        <ele>875.79998779297</ele>
        <time>2024-05-26T12:30:46.000Z</time>
        <extensions>
          <gpxtpx:TrackPointExtension xmlns:gpxtpx="http://www.garmin.com/xmlschemas/TrackPointExtension/v1">
            <gpxtpx:hr>119</gpxtpx:hr>
          </gpxtpx:TrackPointExtension>
        </extensions>
      </trkpt>
      <trkpt lat="45.72108" lon="3.02857">
        <ele>875.40002441406</ele>
        <time>2024-05-26T12:30:53.000Z</time>
        <extensions>
          <gpxtpx:TrackPointExtension xmlns:gpxtpx="http://www.garmin.com/xmlschemas/TrackPointExtension/v1">
            <gpxtpx:hr>120</gpxtpx:hr>
          </gpxtpx:TrackPointExtension>
        </extensions>
      </trkpt>
      <trkpt lat="45.72107" lon="3.02868">
        <ele>875.20001220703</ele>
        <time>2024-05-26T12:30:54.000Z</time>
        <extensions>
          <gpxtpx:TrackPointExtension xmlns:gpxtpx="http://www.garmin.com/xmlschemas/TrackPointExtension/v1">
            <gpxtpx:hr>123</gpxtpx:hr>
          </gpxtpx:TrackPointExtension>
        </extensions>
      </trkpt>
      <trkpt lat="45.72108" lon="3.0289">
        <ele>874.40002441406</ele>
        <time>2024-05-26T12:30:56.000Z</time>
        <extensions>
          <gpxtpx:TrackPointExtension xmlns:gpxtpx="http://www.garmin.com/xmlschemas/TrackPointExtension/v1">
            <gpxtpx:hr>120</gpxtpx:hr>
          </gpxtpx:TrackPointExtension>
        </extensions>
      </trkpt>
      <trkpt lat="45.72109" lon="3.02901">
        <ele>874.20001220703</ele>
        <time>2024-05-26T12:30:57.000Z</time>
        <extensions>
          <gpxtpx:TrackPointExtension xmlns:gpxtpx="http://www.garmin.com/xmlschemas/TrackPointExtension/v1">
            <gpxtpx:hr>120</gpxtpx:hr>
          </gpxtpx:TrackPointExtension>
        </extensions>
      </trkpt>
      <trkpt lat="45.72111" lon="3.02912">
        <ele>874</ele>
        <time>2024-05-26T12:30:58.000Z</time>
        <extensions>
          <gpxtpx:TrackPointExtension xmlns:gpxtpx="http://www.garmin.com/xmlschemas/TrackPointExtension/v1">
            <gpxtpx:hr>120</gpxtpx:hr>
          </gpxtpx:TrackPointExtension>
        </extensions>
      </trkpt>
      <trkpt lat="45.72118" lon="3.02934">
        <ele>873.40002441406</ele>
        <time>2024-05-26T12:31:00.000Z</time>
        <extensions>
          <gpxtpx:TrackPointExtension xmlns:gpxtpx="http://www.garmin.com/xmlschemas/TrackPointExtension/v1">
            <gpxtpx:hr>119</gpxtpx:hr>
          </gpxtpx:TrackPointExtension>
        </extensions>
      </trkpt>
      <trkpt lat="45.72122" lon="3.02945">
        <ele>870.79998779297</ele>
        <time>2024-05-26T12:31:01.000Z</time>
        <extensions>
          <gpxtpx:TrackPointExtension xmlns:gpxtpx="http://www.garmin.com/xmlschemas/TrackPointExtension/v1">
            <gpxtpx:hr>119</gpxtpx:hr>
          </gpxtpx:TrackPointExtension>
        </extensions>
      </trkpt>
      <trkpt lat="45.72132" lon="3.02976">
        <ele>870.40002441406</ele>
        <time>2024-05-26T12:31:04.000Z</time>
        <extensions>
          <gpxtpx:TrackPointExtension xmlns:gpxtpx="http://www.garmin.com/xmlschemas/TrackPointExtension/v1">
            <gpxtpx:hr>118</gpxtpx:hr>
          </gpxtpx:TrackPointExtension>
        </extensions>
      </trkpt>
      <trkpt lat="45.72138" lon="3.02998">
        <ele>872.20001220703</ele>
        <time>2024-05-26T12:31:06.000Z</time>
        <extensions>
          <gpxtpx:TrackPointExtension xmlns:gpxtpx="http://www.garmin.com/xmlschemas/TrackPointExtension/v1">
            <gpxtpx:hr>119</gpxtpx:hr>
          </gpxtpx:TrackPointExtension>
        </extensions>
      </trkpt>
      <trkpt lat="45.72143" lon="3.03019">
        <ele>873</ele>
        <time>2024-05-26T12:31:08.000Z</time>
        <extensions>
          <gpxtpx:TrackPointExtension xmlns:gpxtpx="http://www.garmin.com/xmlschemas/TrackPointExtension/v1">
            <gpxtpx:hr>118</gpxtpx:hr>
          </gpxtpx:TrackPointExtension>
        </extensions>
      </trkpt>
      <trkpt lat="45.72146" lon="3.03031">
        <ele>873.20001220703</ele>
        <time>2024-05-26T12:31:09.000Z</time>
        <extensions>
          <gpxtpx:TrackPointExtension xmlns:gpxtpx="http://www.garmin.com/xmlschemas/TrackPointExtension/v1">
            <gpxtpx:hr>119</gpxtpx:hr>
          </gpxtpx:TrackPointExtension>
        </extensions>
      </trkpt>
      <trkpt lat="45.72162" lon="3.03113">
        <ele>872.59997558594</ele>
        <time>2024-05-26T12:31:16.000Z</time>
        <extensions>
          <gpxtpx:TrackPointExtension xmlns:gpxtpx="http://www.garmin.com/xmlschemas/TrackPointExtension/v1">
            <gpxtpx:hr>119</gpxtpx:hr>
          </gpxtpx:TrackPointExtension>
        </extensions>
      </trkpt>
      <trkpt lat="45.72164" lon="3.03125">
        <ele>872.59997558594</ele>
        <time>2024-05-26T12:31:17.000Z</time>
        <extensions>
          <gpxtpx:TrackPointExtension xmlns:gpxtpx="http://www.garmin.com/xmlschemas/TrackPointExtension/v1">
            <gpxtpx:hr>120</gpxtpx:hr>
          </gpxtpx:TrackPointExtension>
        </extensions>
      </trkpt>
      <trkpt lat="45.72167" lon="3.03185">
        <ele>872</ele>
        <time>2024-05-26T12:31:22.000Z</time>
        <extensions>
          <gpxtpx:TrackPointExtension xmlns:gpxtpx="http://www.garmin.com/xmlschemas/TrackPointExtension/v1">
            <gpxtpx:hr>119</gpxtpx:hr>
          </gpxtpx:TrackPointExtension>
        </extensions>
      </trkpt>
      <trkpt lat="45.72166" lon="3.03219">
        <ele>871</ele>
        <time>2024-05-26T12:31:25.000Z</time>
        <extensions>
          <gpxtpx:TrackPointExtension xmlns:gpxtpx="http://www.garmin.com/xmlschemas/TrackPointExtension/v1">
            <gpxtpx:hr>117</gpxtpx:hr>
          </gpxtpx:TrackPointExtension>
        </extensions>
      </trkpt>
      <trkpt lat="45.72155" lon="3.03295">
        <ele>870</ele>
        <time>2024-05-26T12:31:32.000Z</time>
        <extensions>
          <gpxtpx:TrackPointExtension xmlns:gpxtpx="http://www.garmin.com/xmlschemas/TrackPointExtension/v1">
            <gpxtpx:hr>117</gpxtpx:hr>
          </gpxtpx:TrackPointExtension>
        </extensions>
      </trkpt>
      <trkpt lat="45.72154" lon="3.03306">
        <ele>870</ele>
        <time>2024-05-26T12:31:33.000Z</time>
        <extensions>
          <gpxtpx:TrackPointExtension xmlns:gpxtpx="http://www.garmin.com/xmlschemas/TrackPointExtension/v1">
            <gpxtpx:hr>116</gpxtpx:hr>
          </gpxtpx:TrackPointExtension>
        </extensions>
      </trkpt>
      <trkpt lat="45.72153" lon="3.03368">
        <ele>869</ele>
        <time>2024-05-26T12:31:39.000Z</time>
        <extensions>
          <gpxtpx:TrackPointExtension xmlns:gpxtpx="http://www.garmin.com/xmlschemas/TrackPointExtension/v1">
            <gpxtpx:hr>115</gpxtpx:hr>
          </gpxtpx:TrackPointExtension>
        </extensions>
      </trkpt>
      <trkpt lat="45.72152" lon="3.03377">
        <ele>868.59997558594</ele>
        <time>2024-05-26T12:31:40.000Z</time>
        <extensions>
          <gpxtpx:TrackPointExtension xmlns:gpxtpx="http://www.garmin.com/xmlschemas/TrackPointExtension/v1">
            <gpxtpx:hr>116</gpxtpx:hr>
          </gpxtpx:TrackPointExtension>
        </extensions>
      </trkpt>
      <trkpt lat="45.72153" lon="3.03398">
        <ele>868.59997558594</ele>
        <time>2024-05-26T12:31:42.000Z</time>
        <extensions>
          <gpxtpx:TrackPointExtension xmlns:gpxtpx="http://www.garmin.com/xmlschemas/TrackPointExtension/v1">
            <gpxtpx:hr>116</gpxtpx:hr>
          </gpxtpx:TrackPointExtension>
        </extensions>
      </trkpt>
      <trkpt lat="45.72156" lon="3.0343">
        <ele>868.40002441406</ele>
        <time>2024-05-26T12:31:45.000Z</time>
        <extensions>
          <gpxtpx:TrackPointExtension xmlns:gpxtpx="http://www.garmin.com/xmlschemas/TrackPointExtension/v1">
            <gpxtpx:hr>115</gpxtpx:hr>
          </gpxtpx:TrackPointExtension>
        </extensions>
      </trkpt>
      <trkpt lat="45.72161" lon="3.03463">
        <ele>868</ele>
        <time>2024-05-26T12:31:48.000Z</time>
        <extensions>
          <gpxtpx:TrackPointExtension xmlns:gpxtpx="http://www.garmin.com/xmlschemas/TrackPointExtension/v1">
            <gpxtpx:hr>117</gpxtpx:hr>
          </gpxtpx:TrackPointExtension>
        </extensions>
      </trkpt>
      <trkpt lat="45.72168" lon="3.03484">
        <ele>867.40002441406</ele>
        <time>2024-05-26T12:31:50.000Z</time>
        <extensions>
          <gpxtpx:TrackPointExtension xmlns:gpxtpx="http://www.garmin.com/xmlschemas/TrackPointExtension/v1">
            <gpxtpx:hr>119</gpxtpx:hr>
          </gpxtpx:TrackPointExtension>
        </extensions>
      </trkpt>
      <trkpt lat="45.72174" lon="3.03506">
        <ele>867</ele>
        <time>2024-05-26T12:31:52.000Z</time>
        <extensions>
          <gpxtpx:TrackPointExtension xmlns:gpxtpx="http://www.garmin.com/xmlschemas/TrackPointExtension/v1">
            <gpxtpx:hr>116</gpxtpx:hr>
          </gpxtpx:TrackPointExtension>
        </extensions>
      </trkpt>
      <trkpt lat="45.72177" lon="3.03517">
        <ele>866.40002441406</ele>
        <time>2024-05-26T12:31:53.000Z</time>
        <extensions>
          <gpxtpx:TrackPointExtension xmlns:gpxtpx="http://www.garmin.com/xmlschemas/TrackPointExtension/v1">
            <gpxtpx:hr>115</gpxtpx:hr>
          </gpxtpx:TrackPointExtension>
        </extensions>
      </trkpt>
      <trkpt lat="45.72183" lon="3.03539">
        <ele>865</ele>
        <time>2024-05-26T12:31:55.000Z</time>
        <extensions>
          <gpxtpx:TrackPointExtension xmlns:gpxtpx="http://www.garmin.com/xmlschemas/TrackPointExtension/v1">
            <gpxtpx:hr>113</gpxtpx:hr>
          </gpxtpx:TrackPointExtension>
        </extensions>
      </trkpt>
      <trkpt lat="45.72193" lon="3.03572">
        <ele>864.79998779297</ele>
        <time>2024-05-26T12:31:58.000Z</time>
        <extensions>
          <gpxtpx:TrackPointExtension xmlns:gpxtpx="http://www.garmin.com/xmlschemas/TrackPointExtension/v1">
            <gpxtpx:hr>114</gpxtpx:hr>
          </gpxtpx:TrackPointExtension>
        </extensions>
      </trkpt>
      <trkpt lat="45.72217" lon="3.03635">
        <ele>865</ele>
        <time>2024-05-26T12:32:04.000Z</time>
        <extensions>
          <gpxtpx:TrackPointExtension xmlns:gpxtpx="http://www.garmin.com/xmlschemas/TrackPointExtension/v1">
            <gpxtpx:hr>112</gpxtpx:hr>
          </gpxtpx:TrackPointExtension>
        </extensions>
      </trkpt>
      <trkpt lat="45.72241" lon="3.03673">
        <ele>865.20001220703</ele>
        <time>2024-05-26T12:32:09.000Z</time>
        <extensions>
          <gpxtpx:TrackPointExtension xmlns:gpxtpx="http://www.garmin.com/xmlschemas/TrackPointExtension/v1">
            <gpxtpx:hr>112</gpxtpx:hr>
          </gpxtpx:TrackPointExtension>
        </extensions>
      </trkpt>
      <trkpt lat="45.72271" lon="3.03704">
        <ele>863.79998779297</ele>
        <time>2024-05-26T12:32:14.000Z</time>
        <extensions>
          <gpxtpx:TrackPointExtension xmlns:gpxtpx="http://www.garmin.com/xmlschemas/TrackPointExtension/v1">
            <gpxtpx:hr>112</gpxtpx:hr>
          </gpxtpx:TrackPointExtension>
        </extensions>
      </trkpt>
      <trkpt lat="45.72277" lon="3.03711">
        <ele>863.40002441406</ele>
        <time>2024-05-26T12:32:15.000Z</time>
        <extensions>
          <gpxtpx:TrackPointExtension xmlns:gpxtpx="http://www.garmin.com/xmlschemas/TrackPointExtension/v1">
            <gpxtpx:hr>111</gpxtpx:hr>
          </gpxtpx:TrackPointExtension>
        </extensions>
      </trkpt>
      <trkpt lat="45.72288" lon="3.03728">
        <ele>862.40002441406</ele>
        <time>2024-05-26T12:32:17.000Z</time>
        <extensions>
          <gpxtpx:TrackPointExtension xmlns:gpxtpx="http://www.garmin.com/xmlschemas/TrackPointExtension/v1">
            <gpxtpx:hr>111</gpxtpx:hr>
          </gpxtpx:TrackPointExtension>
        </extensions>
      </trkpt>
      <trkpt lat="45.72298" lon="3.03748">
        <ele>861.79998779297</ele>
        <time>2024-05-26T12:32:19.000Z</time>
        <extensions>
          <gpxtpx:TrackPointExtension xmlns:gpxtpx="http://www.garmin.com/xmlschemas/TrackPointExtension/v1">
            <gpxtpx:hr>110</gpxtpx:hr>
          </gpxtpx:TrackPointExtension>
        </extensions>
      </trkpt>
      <trkpt lat="45.72302" lon="3.0376">
        <ele>861</ele>
        <time>2024-05-26T12:32:20.000Z</time>
        <extensions>
          <gpxtpx:TrackPointExtension xmlns:gpxtpx="http://www.garmin.com/xmlschemas/TrackPointExtension/v1">
            <gpxtpx:hr>110</gpxtpx:hr>
          </gpxtpx:TrackPointExtension>
        </extensions>
      </trkpt>
      <trkpt lat="45.72315" lon="3.03796">
        <ele>859.40002441406</ele>
        <time>2024-05-26T12:32:23.000Z</time>
        <extensions>
          <gpxtpx:TrackPointExtension xmlns:gpxtpx="http://www.garmin.com/xmlschemas/TrackPointExtension/v1">
            <gpxtpx:hr>108</gpxtpx:hr>
          </gpxtpx:TrackPointExtension>
        </extensions>
      </trkpt>
      <trkpt lat="45.7232" lon="3.03809">
        <ele>858.59997558594</ele>
        <time>2024-05-26T12:32:24.000Z</time>
        <extensions>
          <gpxtpx:TrackPointExtension xmlns:gpxtpx="http://www.garmin.com/xmlschemas/TrackPointExtension/v1">
            <gpxtpx:hr>107</gpxtpx:hr>
          </gpxtpx:TrackPointExtension>
        </extensions>
      </trkpt>
      <trkpt lat="45.72324" lon="3.03822">
        <ele>857.79998779297</ele>
        <time>2024-05-26T12:32:25.000Z</time>
        <extensions>
          <gpxtpx:TrackPointExtension xmlns:gpxtpx="http://www.garmin.com/xmlschemas/TrackPointExtension/v1">
            <gpxtpx:hr>106</gpxtpx:hr>
          </gpxtpx:TrackPointExtension>
        </extensions>
      </trkpt>
      <trkpt lat="45.72338" lon="3.03862">
        <ele>855.79998779297</ele>
        <time>2024-05-26T12:32:28.000Z</time>
        <extensions>
          <gpxtpx:TrackPointExtension xmlns:gpxtpx="http://www.garmin.com/xmlschemas/TrackPointExtension/v1">
            <gpxtpx:hr>104</gpxtpx:hr>
          </gpxtpx:TrackPointExtension>
        </extensions>
      </trkpt>
      <trkpt lat="45.72346" lon="3.03891">
        <ele>854.59997558594</ele>
        <time>2024-05-26T12:32:30.000Z</time>
        <extensions>
          <gpxtpx:TrackPointExtension xmlns:gpxtpx="http://www.garmin.com/xmlschemas/TrackPointExtension/v1">
            <gpxtpx:hr>104</gpxtpx:hr>
          </gpxtpx:TrackPointExtension>
        </extensions>
      </trkpt>
      <trkpt lat="45.72351" lon="3.03933">
        <ele>853.20001220703</ele>
        <time>2024-05-26T12:32:33.000Z</time>
        <extensions>
          <gpxtpx:TrackPointExtension xmlns:gpxtpx="http://www.garmin.com/xmlschemas/TrackPointExtension/v1">
            <gpxtpx:hr>105</gpxtpx:hr>
          </gpxtpx:TrackPointExtension>
        </extensions>
      </trkpt>
      <trkpt lat="45.72351" lon="3.03946">
        <ele>853</ele>
        <time>2024-05-26T12:32:34.000Z</time>
        <extensions>
          <gpxtpx:TrackPointExtension xmlns:gpxtpx="http://www.garmin.com/xmlschemas/TrackPointExtension/v1">
            <gpxtpx:hr>105</gpxtpx:hr>
          </gpxtpx:TrackPointExtension>
        </extensions>
      </trkpt>
      <trkpt lat="45.72352" lon="3.03959">
        <ele>852.40002441406</ele>
        <time>2024-05-26T12:32:35.000Z</time>
        <extensions>
          <gpxtpx:TrackPointExtension xmlns:gpxtpx="http://www.garmin.com/xmlschemas/TrackPointExtension/v1">
            <gpxtpx:hr>104</gpxtpx:hr>
          </gpxtpx:TrackPointExtension>
        </extensions>
      </trkpt>
      <trkpt lat="45.7235" lon="3.0401">
        <ele>852.20001220703</ele>
        <time>2024-05-26T12:32:39.000Z</time>
        <extensions>
          <gpxtpx:TrackPointExtension xmlns:gpxtpx="http://www.garmin.com/xmlschemas/TrackPointExtension/v1">
            <gpxtpx:hr>105</gpxtpx:hr>
          </gpxtpx:TrackPointExtension>
        </extensions>
      </trkpt>
      <trkpt lat="45.7235" lon="3.04035">
        <ele>852</ele>
        <time>2024-05-26T12:32:41.000Z</time>
        <extensions>
          <gpxtpx:TrackPointExtension xmlns:gpxtpx="http://www.garmin.com/xmlschemas/TrackPointExtension/v1">
            <gpxtpx:hr>105</gpxtpx:hr>
          </gpxtpx:TrackPointExtension>
        </extensions>
      </trkpt>
      <trkpt lat="45.72355" lon="3.04094">
        <ele>850.79998779297</ele>
        <time>2024-05-26T12:32:46.000Z</time>
        <extensions>
          <gpxtpx:TrackPointExtension xmlns:gpxtpx="http://www.garmin.com/xmlschemas/TrackPointExtension/v1">
            <gpxtpx:hr>105</gpxtpx:hr>
          </gpxtpx:TrackPointExtension>
        </extensions>
      </trkpt>
      <trkpt lat="45.72372" lon="3.04171">
        <ele>849.79998779297</ele>
        <time>2024-05-26T12:32:53.000Z</time>
        <extensions>
          <gpxtpx:TrackPointExtension xmlns:gpxtpx="http://www.garmin.com/xmlschemas/TrackPointExtension/v1">
            <gpxtpx:hr>104</gpxtpx:hr>
          </gpxtpx:TrackPointExtension>
        </extensions>
      </trkpt>
      <trkpt lat="45.72379" lon="3.04192">
        <ele>849.79998779297</ele>
        <time>2024-05-26T12:32:55.000Z</time>
        <extensions>
          <gpxtpx:TrackPointExtension xmlns:gpxtpx="http://www.garmin.com/xmlschemas/TrackPointExtension/v1">
            <gpxtpx:hr>104</gpxtpx:hr>
          </gpxtpx:TrackPointExtension>
        </extensions>
      </trkpt>
      <trkpt lat="45.72396" lon="3.0424">
        <ele>849</ele>
        <time>2024-05-26T12:33:00.000Z</time>
        <extensions>
          <gpxtpx:TrackPointExtension xmlns:gpxtpx="http://www.garmin.com/xmlschemas/TrackPointExtension/v1">
            <gpxtpx:hr>102</gpxtpx:hr>
          </gpxtpx:TrackPointExtension>
        </extensions>
      </trkpt>
      <trkpt lat="45.72413" lon="3.04287">
        <ele>848.59997558594</ele>
        <time>2024-05-26T12:33:05.000Z</time>
        <extensions>
          <gpxtpx:TrackPointExtension xmlns:gpxtpx="http://www.garmin.com/xmlschemas/TrackPointExtension/v1">
            <gpxtpx:hr>101</gpxtpx:hr>
          </gpxtpx:TrackPointExtension>
        </extensions>
      </trkpt>
      <trkpt lat="45.72418" lon="3.04305">
        <ele>848.40002441406</ele>
        <time>2024-05-26T12:33:07.000Z</time>
        <extensions>
          <gpxtpx:TrackPointExtension xmlns:gpxtpx="http://www.garmin.com/xmlschemas/TrackPointExtension/v1">
            <gpxtpx:hr>102</gpxtpx:hr>
          </gpxtpx:TrackPointExtension>
        </extensions>
      </trkpt>
      <trkpt lat="45.72426" lon="3.04351">
        <ele>847.40002441406</ele>
        <time>2024-05-26T12:33:12.000Z</time>
        <extensions>
          <gpxtpx:TrackPointExtension xmlns:gpxtpx="http://www.garmin.com/xmlschemas/TrackPointExtension/v1">
            <gpxtpx:hr>103</gpxtpx:hr>
          </gpxtpx:TrackPointExtension>
        </extensions>
      </trkpt>
      <trkpt lat="45.72432" lon="3.04392">
        <ele>846.40002441406</ele>
        <time>2024-05-26T12:33:16.000Z</time>
        <extensions>
          <gpxtpx:TrackPointExtension xmlns:gpxtpx="http://www.garmin.com/xmlschemas/TrackPointExtension/v1">
            <gpxtpx:hr>105</gpxtpx:hr>
          </gpxtpx:TrackPointExtension>
        </extensions>
      </trkpt>
      <trkpt lat="45.72438" lon="3.04437">
        <ele>846</ele>
        <time>2024-05-26T12:33:20.000Z</time>
        <extensions>
          <gpxtpx:TrackPointExtension xmlns:gpxtpx="http://www.garmin.com/xmlschemas/TrackPointExtension/v1">
            <gpxtpx:hr>105</gpxtpx:hr>
          </gpxtpx:TrackPointExtension>
        </extensions>
      </trkpt>
      <trkpt lat="45.7244" lon="3.04449">
        <ele>846</ele>
        <time>2024-05-26T12:33:21.000Z</time>
        <extensions>
          <gpxtpx:TrackPointExtension xmlns:gpxtpx="http://www.garmin.com/xmlschemas/TrackPointExtension/v1">
            <gpxtpx:hr>106</gpxtpx:hr>
          </gpxtpx:TrackPointExtension>
        </extensions>
      </trkpt>
      <trkpt lat="45.72447" lon="3.0447">
        <ele>845.79998779297</ele>
        <time>2024-05-26T12:33:23.000Z</time>
        <extensions>
          <gpxtpx:TrackPointExtension xmlns:gpxtpx="http://www.garmin.com/xmlschemas/TrackPointExtension/v1">
            <gpxtpx:hr>107</gpxtpx:hr>
          </gpxtpx:TrackPointExtension>
        </extensions>
      </trkpt>
      <trkpt lat="45.72452" lon="3.0448">
        <ele>845.59997558594</ele>
        <time>2024-05-26T12:33:24.000Z</time>
        <extensions>
          <gpxtpx:TrackPointExtension xmlns:gpxtpx="http://www.garmin.com/xmlschemas/TrackPointExtension/v1">
            <gpxtpx:hr>108</gpxtpx:hr>
          </gpxtpx:TrackPointExtension>
        </extensions>
      </trkpt>
      <trkpt lat="45.7247" lon="3.04508">
        <ele>845.20001220703</ele>
        <time>2024-05-26T12:33:27.000Z</time>
        <extensions>
          <gpxtpx:TrackPointExtension xmlns:gpxtpx="http://www.garmin.com/xmlschemas/TrackPointExtension/v1">
            <gpxtpx:hr>110</gpxtpx:hr>
          </gpxtpx:TrackPointExtension>
        </extensions>
      </trkpt>
      <trkpt lat="45.72474" lon="3.04518">
        <ele>845</ele>
        <time>2024-05-26T12:33:28.000Z</time>
        <extensions>
          <gpxtpx:TrackPointExtension xmlns:gpxtpx="http://www.garmin.com/xmlschemas/TrackPointExtension/v1">
            <gpxtpx:hr>111</gpxtpx:hr>
          </gpxtpx:TrackPointExtension>
        </extensions>
      </trkpt>
      <trkpt lat="45.72476" lon="3.04529">
        <ele>844.40002441406</ele>
        <time>2024-05-26T12:33:29.000Z</time>
        <extensions>
          <gpxtpx:TrackPointExtension xmlns:gpxtpx="http://www.garmin.com/xmlschemas/TrackPointExtension/v1">
            <gpxtpx:hr>111</gpxtpx:hr>
          </gpxtpx:TrackPointExtension>
        </extensions>
      </trkpt>
      <trkpt lat="45.72475" lon="3.0454">
        <ele>844.20001220703</ele>
        <time>2024-05-26T12:33:30.000Z</time>
        <extensions>
          <gpxtpx:TrackPointExtension xmlns:gpxtpx="http://www.garmin.com/xmlschemas/TrackPointExtension/v1">
            <gpxtpx:hr>112</gpxtpx:hr>
          </gpxtpx:TrackPointExtension>
        </extensions>
      </trkpt>
      <trkpt lat="45.7247" lon="3.04548">
        <ele>844</ele>
        <time>2024-05-26T12:33:31.000Z</time>
        <extensions>
          <gpxtpx:TrackPointExtension xmlns:gpxtpx="http://www.garmin.com/xmlschemas/TrackPointExtension/v1">
            <gpxtpx:hr>112</gpxtpx:hr>
          </gpxtpx:TrackPointExtension>
        </extensions>
      </trkpt>
      <trkpt lat="45.72463" lon="3.04554">
        <ele>843.20001220703</ele>
        <time>2024-05-26T12:33:32.000Z</time>
        <extensions>
          <gpxtpx:TrackPointExtension xmlns:gpxtpx="http://www.garmin.com/xmlschemas/TrackPointExtension/v1">
            <gpxtpx:hr>113</gpxtpx:hr>
          </gpxtpx:TrackPointExtension>
        </extensions>
      </trkpt>
      <trkpt lat="45.72456" lon="3.04557">
        <ele>842.79998779297</ele>
        <time>2024-05-26T12:33:33.000Z</time>
        <extensions>
          <gpxtpx:TrackPointExtension xmlns:gpxtpx="http://www.garmin.com/xmlschemas/TrackPointExtension/v1">
            <gpxtpx:hr>113</gpxtpx:hr>
          </gpxtpx:TrackPointExtension>
        </extensions>
      </trkpt>
      <trkpt lat="45.72448" lon="3.04556">
        <ele>842.40002441406</ele>
        <time>2024-05-26T12:33:34.000Z</time>
        <extensions>
          <gpxtpx:TrackPointExtension xmlns:gpxtpx="http://www.garmin.com/xmlschemas/TrackPointExtension/v1">
            <gpxtpx:hr>116</gpxtpx:hr>
          </gpxtpx:TrackPointExtension>
        </extensions>
      </trkpt>
      <trkpt lat="45.72439" lon="3.04553">
        <ele>842</ele>
        <time>2024-05-26T12:33:35.000Z</time>
        <extensions>
          <gpxtpx:TrackPointExtension xmlns:gpxtpx="http://www.garmin.com/xmlschemas/TrackPointExtension/v1">
            <gpxtpx:hr>114</gpxtpx:hr>
          </gpxtpx:TrackPointExtension>
        </extensions>
      </trkpt>
      <trkpt lat="45.72431" lon="3.04549">
        <ele>841.79998779297</ele>
        <time>2024-05-26T12:33:36.000Z</time>
        <extensions>
          <gpxtpx:TrackPointExtension xmlns:gpxtpx="http://www.garmin.com/xmlschemas/TrackPointExtension/v1">
            <gpxtpx:hr>114</gpxtpx:hr>
          </gpxtpx:TrackPointExtension>
        </extensions>
      </trkpt>
      <trkpt lat="45.72423" lon="3.04544">
        <ele>841.59997558594</ele>
        <time>2024-05-26T12:33:37.000Z</time>
        <extensions>
          <gpxtpx:TrackPointExtension xmlns:gpxtpx="http://www.garmin.com/xmlschemas/TrackPointExtension/v1">
            <gpxtpx:hr>113</gpxtpx:hr>
          </gpxtpx:TrackPointExtension>
        </extensions>
      </trkpt>
      <trkpt lat="45.72398" lon="3.04526">
        <ele>840.79998779297</ele>
        <time>2024-05-26T12:33:40.000Z</time>
        <extensions>
          <gpxtpx:TrackPointExtension xmlns:gpxtpx="http://www.garmin.com/xmlschemas/TrackPointExtension/v1">
            <gpxtpx:hr>113</gpxtpx:hr>
          </gpxtpx:TrackPointExtension>
        </extensions>
      </trkpt>
      <trkpt lat="45.72391" lon="3.04522">
        <ele>840</ele>
        <time>2024-05-26T12:33:41.000Z</time>
        <extensions>
          <gpxtpx:TrackPointExtension xmlns:gpxtpx="http://www.garmin.com/xmlschemas/TrackPointExtension/v1">
            <gpxtpx:hr>113</gpxtpx:hr>
          </gpxtpx:TrackPointExtension>
        </extensions>
      </trkpt>
      <trkpt lat="45.72376" lon="3.04521">
        <ele>838.79998779297</ele>
        <time>2024-05-26T12:33:43.000Z</time>
        <extensions>
          <gpxtpx:TrackPointExtension xmlns:gpxtpx="http://www.garmin.com/xmlschemas/TrackPointExtension/v1">
            <gpxtpx:hr>114</gpxtpx:hr>
          </gpxtpx:TrackPointExtension>
        </extensions>
      </trkpt>
      <trkpt lat="45.72364" lon="3.0453">
        <ele>837.79998779297</ele>
        <time>2024-05-26T12:33:45.000Z</time>
        <extensions>
          <gpxtpx:TrackPointExtension xmlns:gpxtpx="http://www.garmin.com/xmlschemas/TrackPointExtension/v1">
            <gpxtpx:hr>114</gpxtpx:hr>
          </gpxtpx:TrackPointExtension>
        </extensions>
      </trkpt>
      <trkpt lat="45.7236" lon="3.04537">
        <ele>836.59997558594</ele>
        <time>2024-05-26T12:33:46.000Z</time>
        <extensions>
          <gpxtpx:TrackPointExtension xmlns:gpxtpx="http://www.garmin.com/xmlschemas/TrackPointExtension/v1">
            <gpxtpx:hr>113</gpxtpx:hr>
          </gpxtpx:TrackPointExtension>
        </extensions>
      </trkpt>
      <trkpt lat="45.72357" lon="3.04546">
        <ele>836.20001220703</ele>
        <time>2024-05-26T12:33:47.000Z</time>
        <extensions>
          <gpxtpx:TrackPointExtension xmlns:gpxtpx="http://www.garmin.com/xmlschemas/TrackPointExtension/v1">
            <gpxtpx:hr>113</gpxtpx:hr>
          </gpxtpx:TrackPointExtension>
        </extensions>
      </trkpt>
      <trkpt lat="45.72358" lon="3.04564">
        <ele>835.59997558594</ele>
        <time>2024-05-26T12:33:49.000Z</time>
        <extensions>
          <gpxtpx:TrackPointExtension xmlns:gpxtpx="http://www.garmin.com/xmlschemas/TrackPointExtension/v1">
            <gpxtpx:hr>114</gpxtpx:hr>
          </gpxtpx:TrackPointExtension>
        </extensions>
      </trkpt>
      <trkpt lat="45.72367" lon="3.04581">
        <ele>834.79998779297</ele>
        <time>2024-05-26T12:33:51.000Z</time>
        <extensions>
          <gpxtpx:TrackPointExtension xmlns:gpxtpx="http://www.garmin.com/xmlschemas/TrackPointExtension/v1">
            <gpxtpx:hr>114</gpxtpx:hr>
          </gpxtpx:TrackPointExtension>
        </extensions>
      </trkpt>
      <trkpt lat="45.72381" lon="3.04595">
        <ele>834.40002441406</ele>
        <time>2024-05-26T12:33:53.000Z</time>
        <extensions>
          <gpxtpx:TrackPointExtension xmlns:gpxtpx="http://www.garmin.com/xmlschemas/TrackPointExtension/v1">
            <gpxtpx:hr>114</gpxtpx:hr>
          </gpxtpx:TrackPointExtension>
        </extensions>
      </trkpt>
      <trkpt lat="45.72394" lon="3.04608">
        <ele>834</ele>
        <time>2024-05-26T12:33:55.000Z</time>
        <extensions>
          <gpxtpx:TrackPointExtension xmlns:gpxtpx="http://www.garmin.com/xmlschemas/TrackPointExtension/v1">
            <gpxtpx:hr>115</gpxtpx:hr>
          </gpxtpx:TrackPointExtension>
        </extensions>
      </trkpt>
      <trkpt lat="45.72408" lon="3.04619">
        <ele>833</ele>
        <time>2024-05-26T12:33:57.000Z</time>
        <extensions>
          <gpxtpx:TrackPointExtension xmlns:gpxtpx="http://www.garmin.com/xmlschemas/TrackPointExtension/v1">
            <gpxtpx:hr>115</gpxtpx:hr>
          </gpxtpx:TrackPointExtension>
        </extensions>
      </trkpt>
      <trkpt lat="45.72429" lon="3.04635">
        <ele>832.40002441406</ele>
        <time>2024-05-26T12:34:00.000Z</time>
        <extensions>
          <gpxtpx:TrackPointExtension xmlns:gpxtpx="http://www.garmin.com/xmlschemas/TrackPointExtension/v1">
            <gpxtpx:hr>114</gpxtpx:hr>
          </gpxtpx:TrackPointExtension>
        </extensions>
      </trkpt>
      <trkpt lat="45.72436" lon="3.0464">
        <ele>832.20001220703</ele>
        <time>2024-05-26T12:34:01.000Z</time>
        <extensions>
          <gpxtpx:TrackPointExtension xmlns:gpxtpx="http://www.garmin.com/xmlschemas/TrackPointExtension/v1">
            <gpxtpx:hr>114</gpxtpx:hr>
          </gpxtpx:TrackPointExtension>
        </extensions>
      </trkpt>
      <trkpt lat="45.72442" lon="3.04647">
        <ele>831.79998779297</ele>
        <time>2024-05-26T12:34:02.000Z</time>
        <extensions>
          <gpxtpx:TrackPointExtension xmlns:gpxtpx="http://www.garmin.com/xmlschemas/TrackPointExtension/v1">
            <gpxtpx:hr>113</gpxtpx:hr>
          </gpxtpx:TrackPointExtension>
        </extensions>
      </trkpt>
      <trkpt lat="45.72453" lon="3.04663">
        <ele>831.59997558594</ele>
        <time>2024-05-26T12:34:04.000Z</time>
        <extensions>
          <gpxtpx:TrackPointExtension xmlns:gpxtpx="http://www.garmin.com/xmlschemas/TrackPointExtension/v1">
            <gpxtpx:hr>113</gpxtpx:hr>
          </gpxtpx:TrackPointExtension>
        </extensions>
      </trkpt>
      <trkpt lat="45.72458" lon="3.04672">
        <ele>831.59997558594</ele>
        <time>2024-05-26T12:34:05.000Z</time>
        <extensions>
          <gpxtpx:TrackPointExtension xmlns:gpxtpx="http://www.garmin.com/xmlschemas/TrackPointExtension/v1">
            <gpxtpx:hr>113</gpxtpx:hr>
          </gpxtpx:TrackPointExtension>
        </extensions>
      </trkpt>
      <trkpt lat="45.7247" lon="3.047">
        <ele>831.59997558594</ele>
        <time>2024-05-26T12:34:08.000Z</time>
        <extensions>
          <gpxtpx:TrackPointExtension xmlns:gpxtpx="http://www.garmin.com/xmlschemas/TrackPointExtension/v1">
            <gpxtpx:hr>112</gpxtpx:hr>
          </gpxtpx:TrackPointExtension>
        </extensions>
      </trkpt>
      <trkpt lat="45.72476" lon="3.04733">
        <ele>830.59997558594</ele>
        <time>2024-05-26T12:34:11.000Z</time>
        <extensions>
          <gpxtpx:TrackPointExtension xmlns:gpxtpx="http://www.garmin.com/xmlschemas/TrackPointExtension/v1">
            <gpxtpx:hr>110</gpxtpx:hr>
          </gpxtpx:TrackPointExtension>
        </extensions>
      </trkpt>
      <trkpt lat="45.72479" lon="3.04757">
        <ele>829.40002441406</ele>
        <time>2024-05-26T12:34:13.000Z</time>
        <extensions>
          <gpxtpx:TrackPointExtension xmlns:gpxtpx="http://www.garmin.com/xmlschemas/TrackPointExtension/v1">
            <gpxtpx:hr>109</gpxtpx:hr>
          </gpxtpx:TrackPointExtension>
        </extensions>
      </trkpt>
      <trkpt lat="45.72484" lon="3.04781">
        <ele>828</ele>
        <time>2024-05-26T12:34:15.000Z</time>
        <extensions>
          <gpxtpx:TrackPointExtension xmlns:gpxtpx="http://www.garmin.com/xmlschemas/TrackPointExtension/v1">
            <gpxtpx:hr>108</gpxtpx:hr>
          </gpxtpx:TrackPointExtension>
        </extensions>
      </trkpt>
      <trkpt lat="45.72493" lon="3.04804">
        <ele>827</ele>
        <time>2024-05-26T12:34:17.000Z</time>
        <extensions>
          <gpxtpx:TrackPointExtension xmlns:gpxtpx="http://www.garmin.com/xmlschemas/TrackPointExtension/v1">
            <gpxtpx:hr>107</gpxtpx:hr>
          </gpxtpx:TrackPointExtension>
        </extensions>
      </trkpt>
      <trkpt lat="45.72498" lon="3.04814">
        <ele>825.79998779297</ele>
        <time>2024-05-26T12:34:18.000Z</time>
        <extensions>
          <gpxtpx:TrackPointExtension xmlns:gpxtpx="http://www.garmin.com/xmlschemas/TrackPointExtension/v1">
            <gpxtpx:hr>108</gpxtpx:hr>
          </gpxtpx:TrackPointExtension>
        </extensions>
      </trkpt>
      <trkpt lat="45.7251" lon="3.04834">
        <ele>824.20001220703</ele>
        <time>2024-05-26T12:34:20.000Z</time>
        <extensions>
          <gpxtpx:TrackPointExtension xmlns:gpxtpx="http://www.garmin.com/xmlschemas/TrackPointExtension/v1">
            <gpxtpx:hr>105</gpxtpx:hr>
          </gpxtpx:TrackPointExtension>
        </extensions>
      </trkpt>
      <trkpt lat="45.72517" lon="3.04844">
        <ele>823.59997558594</ele>
        <time>2024-05-26T12:34:21.000Z</time>
        <extensions>
          <gpxtpx:TrackPointExtension xmlns:gpxtpx="http://www.garmin.com/xmlschemas/TrackPointExtension/v1">
            <gpxtpx:hr>105</gpxtpx:hr>
          </gpxtpx:TrackPointExtension>
        </extensions>
      </trkpt>
      <trkpt lat="45.72525" lon="3.04852">
        <ele>823.40002441406</ele>
        <time>2024-05-26T12:34:22.000Z</time>
        <extensions>
          <gpxtpx:TrackPointExtension xmlns:gpxtpx="http://www.garmin.com/xmlschemas/TrackPointExtension/v1">
            <gpxtpx:hr>105</gpxtpx:hr>
          </gpxtpx:TrackPointExtension>
        </extensions>
      </trkpt>
      <trkpt lat="45.72533" lon="3.0486">
        <ele>822.79998779297</ele>
        <time>2024-05-26T12:34:23.000Z</time>
        <extensions>
          <gpxtpx:TrackPointExtension xmlns:gpxtpx="http://www.garmin.com/xmlschemas/TrackPointExtension/v1">
            <gpxtpx:hr>104</gpxtpx:hr>
          </gpxtpx:TrackPointExtension>
        </extensions>
      </trkpt>
      <trkpt lat="45.7255" lon="3.04875">
        <ele>821.59997558594</ele>
        <time>2024-05-26T12:34:25.000Z</time>
        <extensions>
          <gpxtpx:TrackPointExtension xmlns:gpxtpx="http://www.garmin.com/xmlschemas/TrackPointExtension/v1">
            <gpxtpx:hr>103</gpxtpx:hr>
          </gpxtpx:TrackPointExtension>
        </extensions>
      </trkpt>
      <trkpt lat="45.72559" lon="3.04881">
        <ele>821.40002441406</ele>
        <time>2024-05-26T12:34:26.000Z</time>
        <extensions>
          <gpxtpx:TrackPointExtension xmlns:gpxtpx="http://www.garmin.com/xmlschemas/TrackPointExtension/v1">
            <gpxtpx:hr>103</gpxtpx:hr>
          </gpxtpx:TrackPointExtension>
        </extensions>
      </trkpt>
      <trkpt lat="45.72567" lon="3.04884">
        <ele>820.40002441406</ele>
        <time>2024-05-26T12:34:27.000Z</time>
        <extensions>
          <gpxtpx:TrackPointExtension xmlns:gpxtpx="http://www.garmin.com/xmlschemas/TrackPointExtension/v1">
            <gpxtpx:hr>101</gpxtpx:hr>
          </gpxtpx:TrackPointExtension>
        </extensions>
      </trkpt>
      <trkpt lat="45.72577" lon="3.04888">
        <ele>819</ele>
        <time>2024-05-26T12:34:28.000Z</time>
        <extensions>
          <gpxtpx:TrackPointExtension xmlns:gpxtpx="http://www.garmin.com/xmlschemas/TrackPointExtension/v1">
            <gpxtpx:hr>102</gpxtpx:hr>
          </gpxtpx:TrackPointExtension>
        </extensions>
      </trkpt>
      <trkpt lat="45.72589" lon="3.0489">
        <ele>818.40002441406</ele>
        <time>2024-05-26T12:34:29.000Z</time>
        <extensions>
          <gpxtpx:TrackPointExtension xmlns:gpxtpx="http://www.garmin.com/xmlschemas/TrackPointExtension/v1">
            <gpxtpx:hr>102</gpxtpx:hr>
          </gpxtpx:TrackPointExtension>
        </extensions>
      </trkpt>
      <trkpt lat="45.72599" lon="3.04891">
        <ele>817.79998779297</ele>
        <time>2024-05-26T12:34:30.000Z</time>
        <extensions>
          <gpxtpx:TrackPointExtension xmlns:gpxtpx="http://www.garmin.com/xmlschemas/TrackPointExtension/v1">
            <gpxtpx:hr>103</gpxtpx:hr>
          </gpxtpx:TrackPointExtension>
        </extensions>
      </trkpt>
      <trkpt lat="45.7261" lon="3.04892">
        <ele>816.59997558594</ele>
        <time>2024-05-26T12:34:31.000Z</time>
        <extensions>
          <gpxtpx:TrackPointExtension xmlns:gpxtpx="http://www.garmin.com/xmlschemas/TrackPointExtension/v1">
            <gpxtpx:hr>104</gpxtpx:hr>
          </gpxtpx:TrackPointExtension>
        </extensions>
      </trkpt>
      <trkpt lat="45.72646" lon="3.04902">
        <ele>815.59997558594</ele>
        <time>2024-05-26T12:34:35.000Z</time>
        <extensions>
          <gpxtpx:TrackPointExtension xmlns:gpxtpx="http://www.garmin.com/xmlschemas/TrackPointExtension/v1">
            <gpxtpx:hr>106</gpxtpx:hr>
          </gpxtpx:TrackPointExtension>
        </extensions>
      </trkpt>
      <trkpt lat="45.72656" lon="3.04906">
        <ele>815.40002441406</ele>
        <time>2024-05-26T12:34:36.000Z</time>
        <extensions>
          <gpxtpx:TrackPointExtension xmlns:gpxtpx="http://www.garmin.com/xmlschemas/TrackPointExtension/v1">
            <gpxtpx:hr>107</gpxtpx:hr>
          </gpxtpx:TrackPointExtension>
        </extensions>
      </trkpt>
      <trkpt lat="45.72712" lon="3.04931">
        <ele>814.79998779297</ele>
        <time>2024-05-26T12:34:42.000Z</time>
        <extensions>
          <gpxtpx:TrackPointExtension xmlns:gpxtpx="http://www.garmin.com/xmlschemas/TrackPointExtension/v1">
            <gpxtpx:hr>109</gpxtpx:hr>
          </gpxtpx:TrackPointExtension>
        </extensions>
      </trkpt>
      <trkpt lat="45.72731" lon="3.04936">
        <ele>814.79998779297</ele>
        <time>2024-05-26T12:34:44.000Z</time>
        <extensions>
          <gpxtpx:TrackPointExtension xmlns:gpxtpx="http://www.garmin.com/xmlschemas/TrackPointExtension/v1">
            <gpxtpx:hr>109</gpxtpx:hr>
          </gpxtpx:TrackPointExtension>
        </extensions>
      </trkpt>
      <trkpt lat="45.72752" lon="3.04935">
        <ele>815</ele>
        <time>2024-05-26T12:34:46.000Z</time>
        <extensions>
          <gpxtpx:TrackPointExtension xmlns:gpxtpx="http://www.garmin.com/xmlschemas/TrackPointExtension/v1">
            <gpxtpx:hr>111</gpxtpx:hr>
          </gpxtpx:TrackPointExtension>
        </extensions>
      </trkpt>
      <trkpt lat="45.72762" lon="3.04933">
        <ele>814.79998779297</ele>
        <time>2024-05-26T12:34:47.000Z</time>
        <extensions>
          <gpxtpx:TrackPointExtension xmlns:gpxtpx="http://www.garmin.com/xmlschemas/TrackPointExtension/v1">
            <gpxtpx:hr>112</gpxtpx:hr>
          </gpxtpx:TrackPointExtension>
        </extensions>
      </trkpt>
      <trkpt lat="45.72799" lon="3.04927">
        <ele>814.40002441406</ele>
        <time>2024-05-26T12:34:51.000Z</time>
        <extensions>
          <gpxtpx:TrackPointExtension xmlns:gpxtpx="http://www.garmin.com/xmlschemas/TrackPointExtension/v1">
            <gpxtpx:hr>110</gpxtpx:hr>
          </gpxtpx:TrackPointExtension>
        </extensions>
      </trkpt>
      <trkpt lat="45.72808" lon="3.04927">
        <ele>814.40002441406</ele>
        <time>2024-05-26T12:34:52.000Z</time>
        <extensions>
          <gpxtpx:TrackPointExtension xmlns:gpxtpx="http://www.garmin.com/xmlschemas/TrackPointExtension/v1">
            <gpxtpx:hr>110</gpxtpx:hr>
          </gpxtpx:TrackPointExtension>
        </extensions>
      </trkpt>
      <trkpt lat="45.72829" lon="3.04929">
        <ele>814.20001220703</ele>
        <time>2024-05-26T12:34:54.000Z</time>
        <extensions>
          <gpxtpx:TrackPointExtension xmlns:gpxtpx="http://www.garmin.com/xmlschemas/TrackPointExtension/v1">
            <gpxtpx:hr>109</gpxtpx:hr>
          </gpxtpx:TrackPointExtension>
        </extensions>
      </trkpt>
      <trkpt lat="45.7284" lon="3.0493">
        <ele>814</ele>
        <time>2024-05-26T12:34:55.000Z</time>
        <extensions>
          <gpxtpx:TrackPointExtension xmlns:gpxtpx="http://www.garmin.com/xmlschemas/TrackPointExtension/v1">
            <gpxtpx:hr>109</gpxtpx:hr>
          </gpxtpx:TrackPointExtension>
        </extensions>
      </trkpt>
      <trkpt lat="45.72862" lon="3.04933">
        <ele>813.40002441406</ele>
        <time>2024-05-26T12:34:57.000Z</time>
        <extensions>
          <gpxtpx:TrackPointExtension xmlns:gpxtpx="http://www.garmin.com/xmlschemas/TrackPointExtension/v1">
            <gpxtpx:hr>109</gpxtpx:hr>
          </gpxtpx:TrackPointExtension>
        </extensions>
      </trkpt>
      <trkpt lat="45.72907" lon="3.04939">
        <ele>813.40002441406</ele>
        <time>2024-05-26T12:35:01.000Z</time>
        <extensions>
          <gpxtpx:TrackPointExtension xmlns:gpxtpx="http://www.garmin.com/xmlschemas/TrackPointExtension/v1">
            <gpxtpx:hr>113</gpxtpx:hr>
          </gpxtpx:TrackPointExtension>
        </extensions>
      </trkpt>
      <trkpt lat="45.72918" lon="3.04941">
        <ele>813.20001220703</ele>
        <time>2024-05-26T12:35:02.000Z</time>
        <extensions>
          <gpxtpx:TrackPointExtension xmlns:gpxtpx="http://www.garmin.com/xmlschemas/TrackPointExtension/v1">
            <gpxtpx:hr>111</gpxtpx:hr>
          </gpxtpx:TrackPointExtension>
        </extensions>
      </trkpt>
      <trkpt lat="45.72928" lon="3.04945">
        <ele>813.20001220703</ele>
        <time>2024-05-26T12:35:03.000Z</time>
        <extensions>
          <gpxtpx:TrackPointExtension xmlns:gpxtpx="http://www.garmin.com/xmlschemas/TrackPointExtension/v1">
            <gpxtpx:hr>112</gpxtpx:hr>
          </gpxtpx:TrackPointExtension>
        </extensions>
      </trkpt>
      <trkpt lat="45.72958" lon="3.04962">
        <ele>812.40002441406</ele>
        <time>2024-05-26T12:35:06.000Z</time>
        <extensions>
          <gpxtpx:TrackPointExtension xmlns:gpxtpx="http://www.garmin.com/xmlschemas/TrackPointExtension/v1">
            <gpxtpx:hr>110</gpxtpx:hr>
          </gpxtpx:TrackPointExtension>
        </extensions>
      </trkpt>
      <trkpt lat="45.72968" lon="3.04969">
        <ele>811.59997558594</ele>
        <time>2024-05-26T12:35:07.000Z</time>
        <extensions>
          <gpxtpx:TrackPointExtension xmlns:gpxtpx="http://www.garmin.com/xmlschemas/TrackPointExtension/v1">
            <gpxtpx:hr>110</gpxtpx:hr>
          </gpxtpx:TrackPointExtension>
        </extensions>
      </trkpt>
      <trkpt lat="45.72986" lon="3.0499">
        <ele>810</ele>
        <time>2024-05-26T12:35:09.000Z</time>
        <extensions>
          <gpxtpx:TrackPointExtension xmlns:gpxtpx="http://www.garmin.com/xmlschemas/TrackPointExtension/v1">
            <gpxtpx:hr>110</gpxtpx:hr>
          </gpxtpx:TrackPointExtension>
        </extensions>
      </trkpt>
      <trkpt lat="45.72994" lon="3.05002">
        <ele>809</ele>
        <time>2024-05-26T12:35:10.000Z</time>
        <extensions>
          <gpxtpx:TrackPointExtension xmlns:gpxtpx="http://www.garmin.com/xmlschemas/TrackPointExtension/v1">
            <gpxtpx:hr>113</gpxtpx:hr>
          </gpxtpx:TrackPointExtension>
        </extensions>
      </trkpt>
      <trkpt lat="45.7301" lon="3.05028">
        <ele>807</ele>
        <time>2024-05-26T12:35:12.000Z</time>
        <extensions>
          <gpxtpx:TrackPointExtension xmlns:gpxtpx="http://www.garmin.com/xmlschemas/TrackPointExtension/v1">
            <gpxtpx:hr>113</gpxtpx:hr>
          </gpxtpx:TrackPointExtension>
        </extensions>
      </trkpt>
      <trkpt lat="45.73019" lon="3.05041">
        <ele>806</ele>
        <time>2024-05-26T12:35:13.000Z</time>
        <extensions>
          <gpxtpx:TrackPointExtension xmlns:gpxtpx="http://www.garmin.com/xmlschemas/TrackPointExtension/v1">
            <gpxtpx:hr>110</gpxtpx:hr>
          </gpxtpx:TrackPointExtension>
        </extensions>
      </trkpt>
      <trkpt lat="45.73029" lon="3.05052">
        <ele>805</ele>
        <time>2024-05-26T12:35:14.000Z</time>
        <extensions>
          <gpxtpx:TrackPointExtension xmlns:gpxtpx="http://www.garmin.com/xmlschemas/TrackPointExtension/v1">
            <gpxtpx:hr>112</gpxtpx:hr>
          </gpxtpx:TrackPointExtension>
        </extensions>
      </trkpt>
      <trkpt lat="45.7305" lon="3.05074">
        <ele>802.59997558594</ele>
        <time>2024-05-26T12:35:16.000Z</time>
        <extensions>
          <gpxtpx:TrackPointExtension xmlns:gpxtpx="http://www.garmin.com/xmlschemas/TrackPointExtension/v1">
            <gpxtpx:hr>112</gpxtpx:hr>
          </gpxtpx:TrackPointExtension>
        </extensions>
      </trkpt>
      <trkpt lat="45.7306" lon="3.05085">
        <ele>800.79998779297</ele>
        <time>2024-05-26T12:35:17.000Z</time>
        <extensions>
          <gpxtpx:TrackPointExtension xmlns:gpxtpx="http://www.garmin.com/xmlschemas/TrackPointExtension/v1">
            <gpxtpx:hr>112</gpxtpx:hr>
          </gpxtpx:TrackPointExtension>
        </extensions>
      </trkpt>
      <trkpt lat="45.73081" lon="3.0511">
        <ele>798.59997558594</ele>
        <time>2024-05-26T12:35:19.000Z</time>
        <extensions>
          <gpxtpx:TrackPointExtension xmlns:gpxtpx="http://www.garmin.com/xmlschemas/TrackPointExtension/v1">
            <gpxtpx:hr>112</gpxtpx:hr>
          </gpxtpx:TrackPointExtension>
        </extensions>
      </trkpt>
      <trkpt lat="45.73102" lon="3.05134">
        <ele>795.79998779297</ele>
        <time>2024-05-26T12:35:21.000Z</time>
        <extensions>
          <gpxtpx:TrackPointExtension xmlns:gpxtpx="http://www.garmin.com/xmlschemas/TrackPointExtension/v1">
            <gpxtpx:hr>113</gpxtpx:hr>
          </gpxtpx:TrackPointExtension>
        </extensions>
      </trkpt>
      <trkpt lat="45.73112" lon="3.05145">
        <ele>794.20001220703</ele>
        <time>2024-05-26T12:35:22.000Z</time>
        <extensions>
          <gpxtpx:TrackPointExtension xmlns:gpxtpx="http://www.garmin.com/xmlschemas/TrackPointExtension/v1">
            <gpxtpx:hr>113</gpxtpx:hr>
          </gpxtpx:TrackPointExtension>
        </extensions>
      </trkpt>
      <trkpt lat="45.73123" lon="3.05154">
        <ele>793.59997558594</ele>
        <time>2024-05-26T12:35:23.000Z</time>
        <extensions>
          <gpxtpx:TrackPointExtension xmlns:gpxtpx="http://www.garmin.com/xmlschemas/TrackPointExtension/v1">
            <gpxtpx:hr>116</gpxtpx:hr>
          </gpxtpx:TrackPointExtension>
        </extensions>
      </trkpt>
      <trkpt lat="45.73135" lon="3.05162">
        <ele>792.40002441406</ele>
        <time>2024-05-26T12:35:24.000Z</time>
        <extensions>
          <gpxtpx:TrackPointExtension xmlns:gpxtpx="http://www.garmin.com/xmlschemas/TrackPointExtension/v1">
            <gpxtpx:hr>113</gpxtpx:hr>
          </gpxtpx:TrackPointExtension>
        </extensions>
      </trkpt>
      <trkpt lat="45.73147" lon="3.05168">
        <ele>791.40002441406</ele>
        <time>2024-05-26T12:35:25.000Z</time>
        <extensions>
          <gpxtpx:TrackPointExtension xmlns:gpxtpx="http://www.garmin.com/xmlschemas/TrackPointExtension/v1">
            <gpxtpx:hr>112</gpxtpx:hr>
          </gpxtpx:TrackPointExtension>
        </extensions>
      </trkpt>
      <trkpt lat="45.73159" lon="3.05174">
        <ele>789.79998779297</ele>
        <time>2024-05-26T12:35:26.000Z</time>
        <extensions>
          <gpxtpx:TrackPointExtension xmlns:gpxtpx="http://www.garmin.com/xmlschemas/TrackPointExtension/v1">
            <gpxtpx:hr>112</gpxtpx:hr>
          </gpxtpx:TrackPointExtension>
        </extensions>
      </trkpt>
      <trkpt lat="45.73171" lon="3.05179">
        <ele>788.40002441406</ele>
        <time>2024-05-26T12:35:27.000Z</time>
        <extensions>
          <gpxtpx:TrackPointExtension xmlns:gpxtpx="http://www.garmin.com/xmlschemas/TrackPointExtension/v1">
            <gpxtpx:hr>111</gpxtpx:hr>
          </gpxtpx:TrackPointExtension>
        </extensions>
      </trkpt>
      <trkpt lat="45.73183" lon="3.05187">
        <ele>787.20001220703</ele>
        <time>2024-05-26T12:35:28.000Z</time>
        <extensions>
          <gpxtpx:TrackPointExtension xmlns:gpxtpx="http://www.garmin.com/xmlschemas/TrackPointExtension/v1">
            <gpxtpx:hr>113</gpxtpx:hr>
          </gpxtpx:TrackPointExtension>
        </extensions>
      </trkpt>
      <trkpt lat="45.73194" lon="3.05196">
        <ele>785</ele>
        <time>2024-05-26T12:35:29.000Z</time>
        <extensions>
          <gpxtpx:TrackPointExtension xmlns:gpxtpx="http://www.garmin.com/xmlschemas/TrackPointExtension/v1">
            <gpxtpx:hr>112</gpxtpx:hr>
          </gpxtpx:TrackPointExtension>
        </extensions>
      </trkpt>
      <trkpt lat="45.73206" lon="3.05205">
        <ele>783.40002441406</ele>
        <time>2024-05-26T12:35:30.000Z</time>
        <extensions>
          <gpxtpx:TrackPointExtension xmlns:gpxtpx="http://www.garmin.com/xmlschemas/TrackPointExtension/v1">
            <gpxtpx:hr>108</gpxtpx:hr>
          </gpxtpx:TrackPointExtension>
        </extensions>
      </trkpt>
      <trkpt lat="45.73218" lon="3.05214">
        <ele>782.20001220703</ele>
        <time>2024-05-26T12:35:31.000Z</time>
        <extensions>
          <gpxtpx:TrackPointExtension xmlns:gpxtpx="http://www.garmin.com/xmlschemas/TrackPointExtension/v1">
            <gpxtpx:hr>110</gpxtpx:hr>
          </gpxtpx:TrackPointExtension>
        </extensions>
      </trkpt>
      <trkpt lat="45.73229" lon="3.05222">
        <ele>781.79998779297</ele>
        <time>2024-05-26T12:35:32.000Z</time>
        <extensions>
          <gpxtpx:TrackPointExtension xmlns:gpxtpx="http://www.garmin.com/xmlschemas/TrackPointExtension/v1">
            <gpxtpx:hr>108</gpxtpx:hr>
          </gpxtpx:TrackPointExtension>
        </extensions>
      </trkpt>
      <trkpt lat="45.73242" lon="3.05229">
        <ele>780.79998779297</ele>
        <time>2024-05-26T12:35:33.000Z</time>
        <extensions>
          <gpxtpx:TrackPointExtension xmlns:gpxtpx="http://www.garmin.com/xmlschemas/TrackPointExtension/v1">
            <gpxtpx:hr>108</gpxtpx:hr>
          </gpxtpx:TrackPointExtension>
        </extensions>
      </trkpt>
      <trkpt lat="45.73254" lon="3.05236">
        <ele>779.20001220703</ele>
        <time>2024-05-26T12:35:34.000Z</time>
        <extensions>
          <gpxtpx:TrackPointExtension xmlns:gpxtpx="http://www.garmin.com/xmlschemas/TrackPointExtension/v1">
            <gpxtpx:hr>106</gpxtpx:hr>
          </gpxtpx:TrackPointExtension>
        </extensions>
      </trkpt>
      <trkpt lat="45.73279" lon="3.05249">
        <ele>777</ele>
        <time>2024-05-26T12:35:36.000Z</time>
        <extensions>
          <gpxtpx:TrackPointExtension xmlns:gpxtpx="http://www.garmin.com/xmlschemas/TrackPointExtension/v1">
            <gpxtpx:hr>106</gpxtpx:hr>
          </gpxtpx:TrackPointExtension>
        </extensions>
      </trkpt>
      <trkpt lat="45.73303" lon="3.05261">
        <ele>775.40002441406</ele>
        <time>2024-05-26T12:35:38.000Z</time>
        <extensions>
          <gpxtpx:TrackPointExtension xmlns:gpxtpx="http://www.garmin.com/xmlschemas/TrackPointExtension/v1">
            <gpxtpx:hr>104</gpxtpx:hr>
          </gpxtpx:TrackPointExtension>
        </extensions>
      </trkpt>
      <trkpt lat="45.73316" lon="3.05268">
        <ele>773.40002441406</ele>
        <time>2024-05-26T12:35:39.000Z</time>
        <extensions>
          <gpxtpx:TrackPointExtension xmlns:gpxtpx="http://www.garmin.com/xmlschemas/TrackPointExtension/v1">
            <gpxtpx:hr>101</gpxtpx:hr>
          </gpxtpx:TrackPointExtension>
        </extensions>
      </trkpt>
      <trkpt lat="45.73329" lon="3.05274">
        <ele>772</ele>
        <time>2024-05-26T12:35:40.000Z</time>
        <extensions>
          <gpxtpx:TrackPointExtension xmlns:gpxtpx="http://www.garmin.com/xmlschemas/TrackPointExtension/v1">
            <gpxtpx:hr>100</gpxtpx:hr>
          </gpxtpx:TrackPointExtension>
        </extensions>
      </trkpt>
      <trkpt lat="45.73343" lon="3.05281">
        <ele>771.20001220703</ele>
        <time>2024-05-26T12:35:41.000Z</time>
        <extensions>
          <gpxtpx:TrackPointExtension xmlns:gpxtpx="http://www.garmin.com/xmlschemas/TrackPointExtension/v1">
            <gpxtpx:hr>102</gpxtpx:hr>
          </gpxtpx:TrackPointExtension>
        </extensions>
      </trkpt>
      <trkpt lat="45.73355" lon="3.05288">
        <ele>769</ele>
        <time>2024-05-26T12:35:42.000Z</time>
        <extensions>
          <gpxtpx:TrackPointExtension xmlns:gpxtpx="http://www.garmin.com/xmlschemas/TrackPointExtension/v1">
            <gpxtpx:hr>101</gpxtpx:hr>
          </gpxtpx:TrackPointExtension>
        </extensions>
      </trkpt>
      <trkpt lat="45.73368" lon="3.05294">
        <ele>767.79998779297</ele>
        <time>2024-05-26T12:35:43.000Z</time>
        <extensions>
          <gpxtpx:TrackPointExtension xmlns:gpxtpx="http://www.garmin.com/xmlschemas/TrackPointExtension/v1">
            <gpxtpx:hr>101</gpxtpx:hr>
          </gpxtpx:TrackPointExtension>
        </extensions>
      </trkpt>
      <trkpt lat="45.73393" lon="3.05305">
        <ele>765.79998779297</ele>
        <time>2024-05-26T12:35:45.000Z</time>
        <extensions>
          <gpxtpx:TrackPointExtension xmlns:gpxtpx="http://www.garmin.com/xmlschemas/TrackPointExtension/v1">
            <gpxtpx:hr>100</gpxtpx:hr>
          </gpxtpx:TrackPointExtension>
        </extensions>
      </trkpt>
      <trkpt lat="45.73405" lon="3.05313">
        <ele>763.79998779297</ele>
        <time>2024-05-26T12:35:46.000Z</time>
        <extensions>
          <gpxtpx:TrackPointExtension xmlns:gpxtpx="http://www.garmin.com/xmlschemas/TrackPointExtension/v1">
            <gpxtpx:hr>104</gpxtpx:hr>
          </gpxtpx:TrackPointExtension>
        </extensions>
      </trkpt>
      <trkpt lat="45.73417" lon="3.05323">
        <ele>762.79998779297</ele>
        <time>2024-05-26T12:35:47.000Z</time>
        <extensions>
          <gpxtpx:TrackPointExtension xmlns:gpxtpx="http://www.garmin.com/xmlschemas/TrackPointExtension/v1">
            <gpxtpx:hr>102</gpxtpx:hr>
          </gpxtpx:TrackPointExtension>
        </extensions>
      </trkpt>
      <trkpt lat="45.73428" lon="3.05334">
        <ele>761.79998779297</ele>
        <time>2024-05-26T12:35:48.000Z</time>
        <extensions>
          <gpxtpx:TrackPointExtension xmlns:gpxtpx="http://www.garmin.com/xmlschemas/TrackPointExtension/v1">
            <gpxtpx:hr>102</gpxtpx:hr>
          </gpxtpx:TrackPointExtension>
        </extensions>
      </trkpt>
      <trkpt lat="45.73441" lon="3.05346">
        <ele>760.40002441406</ele>
        <time>2024-05-26T12:35:49.000Z</time>
        <extensions>
          <gpxtpx:TrackPointExtension xmlns:gpxtpx="http://www.garmin.com/xmlschemas/TrackPointExtension/v1">
            <gpxtpx:hr>101</gpxtpx:hr>
          </gpxtpx:TrackPointExtension>
        </extensions>
      </trkpt>
      <trkpt lat="45.7345" lon="3.05358">
        <ele>758.59997558594</ele>
        <time>2024-05-26T12:35:50.000Z</time>
        <extensions>
          <gpxtpx:TrackPointExtension xmlns:gpxtpx="http://www.garmin.com/xmlschemas/TrackPointExtension/v1">
            <gpxtpx:hr>101</gpxtpx:hr>
          </gpxtpx:TrackPointExtension>
        </extensions>
      </trkpt>
      <trkpt lat="45.73464" lon="3.05385">
        <ele>755.79998779297</ele>
        <time>2024-05-26T12:35:52.000Z</time>
        <extensions>
          <gpxtpx:TrackPointExtension xmlns:gpxtpx="http://www.garmin.com/xmlschemas/TrackPointExtension/v1">
            <gpxtpx:hr>105</gpxtpx:hr>
          </gpxtpx:TrackPointExtension>
        </extensions>
      </trkpt>
      <trkpt lat="45.73466" lon="3.054">
        <ele>754.59997558594</ele>
        <time>2024-05-26T12:35:53.000Z</time>
        <extensions>
          <gpxtpx:TrackPointExtension xmlns:gpxtpx="http://www.garmin.com/xmlschemas/TrackPointExtension/v1">
            <gpxtpx:hr>105</gpxtpx:hr>
          </gpxtpx:TrackPointExtension>
        </extensions>
      </trkpt>
      <trkpt lat="45.73477" lon="3.05432">
        <ele>752.40002441406</ele>
        <time>2024-05-26T12:35:55.000Z</time>
        <extensions>
          <gpxtpx:TrackPointExtension xmlns:gpxtpx="http://www.garmin.com/xmlschemas/TrackPointExtension/v1">
            <gpxtpx:hr>107</gpxtpx:hr>
          </gpxtpx:TrackPointExtension>
        </extensions>
      </trkpt>
      <trkpt lat="45.73482" lon="3.05448">
        <ele>750.59997558594</ele>
        <time>2024-05-26T12:35:56.000Z</time>
        <extensions>
          <gpxtpx:TrackPointExtension xmlns:gpxtpx="http://www.garmin.com/xmlschemas/TrackPointExtension/v1">
            <gpxtpx:hr>110</gpxtpx:hr>
          </gpxtpx:TrackPointExtension>
        </extensions>
      </trkpt>
      <trkpt lat="45.73485" lon="3.05464">
        <ele>749.79998779297</ele>
        <time>2024-05-26T12:35:57.000Z</time>
        <extensions>
          <gpxtpx:TrackPointExtension xmlns:gpxtpx="http://www.garmin.com/xmlschemas/TrackPointExtension/v1">
            <gpxtpx:hr>114</gpxtpx:hr>
          </gpxtpx:TrackPointExtension>
        </extensions>
      </trkpt>
      <trkpt lat="45.73488" lon="3.0548">
        <ele>748.79998779297</ele>
        <time>2024-05-26T12:35:58.000Z</time>
        <extensions>
          <gpxtpx:TrackPointExtension xmlns:gpxtpx="http://www.garmin.com/xmlschemas/TrackPointExtension/v1">
            <gpxtpx:hr>110</gpxtpx:hr>
          </gpxtpx:TrackPointExtension>
        </extensions>
      </trkpt>
      <trkpt lat="45.73489" lon="3.05496">
        <ele>747.79998779297</ele>
        <time>2024-05-26T12:35:59.000Z</time>
        <extensions>
          <gpxtpx:TrackPointExtension xmlns:gpxtpx="http://www.garmin.com/xmlschemas/TrackPointExtension/v1">
            <gpxtpx:hr>111</gpxtpx:hr>
          </gpxtpx:TrackPointExtension>
        </extensions>
      </trkpt>
      <trkpt lat="45.73488" lon="3.05512">
        <ele>747</ele>
        <time>2024-05-26T12:36:00.000Z</time>
        <extensions>
          <gpxtpx:TrackPointExtension xmlns:gpxtpx="http://www.garmin.com/xmlschemas/TrackPointExtension/v1">
            <gpxtpx:hr>112</gpxtpx:hr>
          </gpxtpx:TrackPointExtension>
        </extensions>
      </trkpt>
      <trkpt lat="45.73486" lon="3.05528">
        <ele>745.59997558594</ele>
        <time>2024-05-26T12:36:01.000Z</time>
        <extensions>
          <gpxtpx:TrackPointExtension xmlns:gpxtpx="http://www.garmin.com/xmlschemas/TrackPointExtension/v1">
            <gpxtpx:hr>112</gpxtpx:hr>
          </gpxtpx:TrackPointExtension>
        </extensions>
      </trkpt>
      <trkpt lat="45.73483" lon="3.05543">
        <ele>743.79998779297</ele>
        <time>2024-05-26T12:36:02.000Z</time>
        <extensions>
          <gpxtpx:TrackPointExtension xmlns:gpxtpx="http://www.garmin.com/xmlschemas/TrackPointExtension/v1">
            <gpxtpx:hr>112</gpxtpx:hr>
          </gpxtpx:TrackPointExtension>
        </extensions>
      </trkpt>
      <trkpt lat="45.73476" lon="3.05574">
        <ele>742.40002441406</ele>
        <time>2024-05-26T12:36:04.000Z</time>
        <extensions>
          <gpxtpx:TrackPointExtension xmlns:gpxtpx="http://www.garmin.com/xmlschemas/TrackPointExtension/v1">
            <gpxtpx:hr>111</gpxtpx:hr>
          </gpxtpx:TrackPointExtension>
        </extensions>
      </trkpt>
      <trkpt lat="45.73473" lon="3.05588">
        <ele>741.40002441406</ele>
        <time>2024-05-26T12:36:05.000Z</time>
        <extensions>
          <gpxtpx:TrackPointExtension xmlns:gpxtpx="http://www.garmin.com/xmlschemas/TrackPointExtension/v1">
            <gpxtpx:hr>112</gpxtpx:hr>
          </gpxtpx:TrackPointExtension>
        </extensions>
      </trkpt>
      <trkpt lat="45.7347" lon="3.05603">
        <ele>740.40002441406</ele>
        <time>2024-05-26T12:36:06.000Z</time>
        <extensions>
          <gpxtpx:TrackPointExtension xmlns:gpxtpx="http://www.garmin.com/xmlschemas/TrackPointExtension/v1">
            <gpxtpx:hr>113</gpxtpx:hr>
          </gpxtpx:TrackPointExtension>
        </extensions>
      </trkpt>
      <trkpt lat="45.73466" lon="3.05616">
        <ele>739.40002441406</ele>
        <time>2024-05-26T12:36:07.000Z</time>
        <extensions>
          <gpxtpx:TrackPointExtension xmlns:gpxtpx="http://www.garmin.com/xmlschemas/TrackPointExtension/v1">
            <gpxtpx:hr>115</gpxtpx:hr>
          </gpxtpx:TrackPointExtension>
        </extensions>
      </trkpt>
      <trkpt lat="45.73461" lon="3.05628">
        <ele>738.40002441406</ele>
        <time>2024-05-26T12:36:08.000Z</time>
        <extensions>
          <gpxtpx:TrackPointExtension xmlns:gpxtpx="http://www.garmin.com/xmlschemas/TrackPointExtension/v1">
            <gpxtpx:hr>116</gpxtpx:hr>
          </gpxtpx:TrackPointExtension>
        </extensions>
      </trkpt>
      <trkpt lat="45.73453" lon="3.05638">
        <ele>737.20001220703</ele>
        <time>2024-05-26T12:36:09.000Z</time>
        <extensions>
          <gpxtpx:TrackPointExtension xmlns:gpxtpx="http://www.garmin.com/xmlschemas/TrackPointExtension/v1">
            <gpxtpx:hr>116</gpxtpx:hr>
          </gpxtpx:TrackPointExtension>
        </extensions>
      </trkpt>
      <trkpt lat="45.73445" lon="3.05646">
        <ele>735.79998779297</ele>
        <time>2024-05-26T12:36:10.000Z</time>
        <extensions>
          <gpxtpx:TrackPointExtension xmlns:gpxtpx="http://www.garmin.com/xmlschemas/TrackPointExtension/v1">
            <gpxtpx:hr>117</gpxtpx:hr>
          </gpxtpx:TrackPointExtension>
        </extensions>
      </trkpt>
      <trkpt lat="45.73436" lon="3.05653">
        <ele>734.59997558594</ele>
        <time>2024-05-26T12:36:11.000Z</time>
        <extensions>
          <gpxtpx:TrackPointExtension xmlns:gpxtpx="http://www.garmin.com/xmlschemas/TrackPointExtension/v1">
            <gpxtpx:hr>115</gpxtpx:hr>
          </gpxtpx:TrackPointExtension>
        </extensions>
      </trkpt>
      <trkpt lat="45.73425" lon="3.05658">
        <ele>733.40002441406</ele>
        <time>2024-05-26T12:36:12.000Z</time>
        <extensions>
          <gpxtpx:TrackPointExtension xmlns:gpxtpx="http://www.garmin.com/xmlschemas/TrackPointExtension/v1">
            <gpxtpx:hr>114</gpxtpx:hr>
          </gpxtpx:TrackPointExtension>
        </extensions>
      </trkpt>
      <trkpt lat="45.73414" lon="3.05661">
        <ele>731.79998779297</ele>
        <time>2024-05-26T12:36:13.000Z</time>
        <extensions>
          <gpxtpx:TrackPointExtension xmlns:gpxtpx="http://www.garmin.com/xmlschemas/TrackPointExtension/v1">
            <gpxtpx:hr>113</gpxtpx:hr>
          </gpxtpx:TrackPointExtension>
        </extensions>
      </trkpt>
      <trkpt lat="45.73403" lon="3.05663">
        <ele>731</ele>
        <time>2024-05-26T12:36:14.000Z</time>
        <extensions>
          <gpxtpx:TrackPointExtension xmlns:gpxtpx="http://www.garmin.com/xmlschemas/TrackPointExtension/v1">
            <gpxtpx:hr>113</gpxtpx:hr>
          </gpxtpx:TrackPointExtension>
        </extensions>
      </trkpt>
      <trkpt lat="45.73391" lon="3.05665">
        <ele>730</ele>
        <time>2024-05-26T12:36:15.000Z</time>
        <extensions>
          <gpxtpx:TrackPointExtension xmlns:gpxtpx="http://www.garmin.com/xmlschemas/TrackPointExtension/v1">
            <gpxtpx:hr>113</gpxtpx:hr>
          </gpxtpx:TrackPointExtension>
        </extensions>
      </trkpt>
      <trkpt lat="45.73379" lon="3.05666">
        <ele>729</ele>
        <time>2024-05-26T12:36:16.000Z</time>
        <extensions>
          <gpxtpx:TrackPointExtension xmlns:gpxtpx="http://www.garmin.com/xmlschemas/TrackPointExtension/v1">
            <gpxtpx:hr>113</gpxtpx:hr>
          </gpxtpx:TrackPointExtension>
        </extensions>
      </trkpt>
      <trkpt lat="45.73367" lon="3.05667">
        <ele>728</ele>
        <time>2024-05-26T12:36:17.000Z</time>
        <extensions>
          <gpxtpx:TrackPointExtension xmlns:gpxtpx="http://www.garmin.com/xmlschemas/TrackPointExtension/v1">
            <gpxtpx:hr>113</gpxtpx:hr>
          </gpxtpx:TrackPointExtension>
        </extensions>
      </trkpt>
      <trkpt lat="45.73354" lon="3.05669">
        <ele>726.59997558594</ele>
        <time>2024-05-26T12:36:18.000Z</time>
        <extensions>
          <gpxtpx:TrackPointExtension xmlns:gpxtpx="http://www.garmin.com/xmlschemas/TrackPointExtension/v1">
            <gpxtpx:hr>112</gpxtpx:hr>
          </gpxtpx:TrackPointExtension>
        </extensions>
      </trkpt>
      <trkpt lat="45.73342" lon="3.05671">
        <ele>725.40002441406</ele>
        <time>2024-05-26T12:36:19.000Z</time>
        <extensions>
          <gpxtpx:TrackPointExtension xmlns:gpxtpx="http://www.garmin.com/xmlschemas/TrackPointExtension/v1">
            <gpxtpx:hr>112</gpxtpx:hr>
          </gpxtpx:TrackPointExtension>
        </extensions>
      </trkpt>
      <trkpt lat="45.73329" lon="3.05675">
        <ele>725</ele>
        <time>2024-05-26T12:36:20.000Z</time>
        <extensions>
          <gpxtpx:TrackPointExtension xmlns:gpxtpx="http://www.garmin.com/xmlschemas/TrackPointExtension/v1">
            <gpxtpx:hr>111</gpxtpx:hr>
          </gpxtpx:TrackPointExtension>
        </extensions>
      </trkpt>
      <trkpt lat="45.73305" lon="3.05686">
        <ele>723.79998779297</ele>
        <time>2024-05-26T12:36:22.000Z</time>
        <extensions>
          <gpxtpx:TrackPointExtension xmlns:gpxtpx="http://www.garmin.com/xmlschemas/TrackPointExtension/v1">
            <gpxtpx:hr>111</gpxtpx:hr>
          </gpxtpx:TrackPointExtension>
        </extensions>
      </trkpt>
      <trkpt lat="45.73294" lon="3.05694">
        <ele>722.59997558594</ele>
        <time>2024-05-26T12:36:23.000Z</time>
        <extensions>
          <gpxtpx:TrackPointExtension xmlns:gpxtpx="http://www.garmin.com/xmlschemas/TrackPointExtension/v1">
            <gpxtpx:hr>111</gpxtpx:hr>
          </gpxtpx:TrackPointExtension>
        </extensions>
      </trkpt>
      <trkpt lat="45.73284" lon="3.05701">
        <ele>721.40002441406</ele>
        <time>2024-05-26T12:36:24.000Z</time>
        <extensions>
          <gpxtpx:TrackPointExtension xmlns:gpxtpx="http://www.garmin.com/xmlschemas/TrackPointExtension/v1">
            <gpxtpx:hr>111</gpxtpx:hr>
          </gpxtpx:TrackPointExtension>
        </extensions>
      </trkpt>
      <trkpt lat="45.73273" lon="3.05706">
        <ele>720</ele>
        <time>2024-05-26T12:36:25.000Z</time>
        <extensions>
          <gpxtpx:TrackPointExtension xmlns:gpxtpx="http://www.garmin.com/xmlschemas/TrackPointExtension/v1">
            <gpxtpx:hr>111</gpxtpx:hr>
          </gpxtpx:TrackPointExtension>
        </extensions>
      </trkpt>
      <trkpt lat="45.73262" lon="3.05709">
        <ele>719</ele>
        <time>2024-05-26T12:36:26.000Z</time>
        <extensions>
          <gpxtpx:TrackPointExtension xmlns:gpxtpx="http://www.garmin.com/xmlschemas/TrackPointExtension/v1">
            <gpxtpx:hr>111</gpxtpx:hr>
          </gpxtpx:TrackPointExtension>
        </extensions>
      </trkpt>
      <trkpt lat="45.7325" lon="3.0571">
        <ele>716.79998779297</ele>
        <time>2024-05-26T12:36:27.000Z</time>
        <extensions>
          <gpxtpx:TrackPointExtension xmlns:gpxtpx="http://www.garmin.com/xmlschemas/TrackPointExtension/v1">
            <gpxtpx:hr>111</gpxtpx:hr>
          </gpxtpx:TrackPointExtension>
        </extensions>
      </trkpt>
      <trkpt lat="45.73227" lon="3.05709">
        <ele>715</ele>
        <time>2024-05-26T12:36:29.000Z</time>
        <extensions>
          <gpxtpx:TrackPointExtension xmlns:gpxtpx="http://www.garmin.com/xmlschemas/TrackPointExtension/v1">
            <gpxtpx:hr>111</gpxtpx:hr>
          </gpxtpx:TrackPointExtension>
        </extensions>
      </trkpt>
      <trkpt lat="45.73216" lon="3.05709">
        <ele>714</ele>
        <time>2024-05-26T12:36:30.000Z</time>
        <extensions>
          <gpxtpx:TrackPointExtension xmlns:gpxtpx="http://www.garmin.com/xmlschemas/TrackPointExtension/v1">
            <gpxtpx:hr>111</gpxtpx:hr>
          </gpxtpx:TrackPointExtension>
        </extensions>
      </trkpt>
      <trkpt lat="45.73204" lon="3.05707">
        <ele>712.59997558594</ele>
        <time>2024-05-26T12:36:31.000Z</time>
        <extensions>
          <gpxtpx:TrackPointExtension xmlns:gpxtpx="http://www.garmin.com/xmlschemas/TrackPointExtension/v1">
            <gpxtpx:hr>111</gpxtpx:hr>
          </gpxtpx:TrackPointExtension>
        </extensions>
      </trkpt>
      <trkpt lat="45.73182" lon="3.05699">
        <ele>710.79998779297</ele>
        <time>2024-05-26T12:36:33.000Z</time>
        <extensions>
          <gpxtpx:TrackPointExtension xmlns:gpxtpx="http://www.garmin.com/xmlschemas/TrackPointExtension/v1">
            <gpxtpx:hr>110</gpxtpx:hr>
          </gpxtpx:TrackPointExtension>
        </extensions>
      </trkpt>
      <trkpt lat="45.73172" lon="3.05693">
        <ele>709.59997558594</ele>
        <time>2024-05-26T12:36:34.000Z</time>
        <extensions>
          <gpxtpx:TrackPointExtension xmlns:gpxtpx="http://www.garmin.com/xmlschemas/TrackPointExtension/v1">
            <gpxtpx:hr>110</gpxtpx:hr>
          </gpxtpx:TrackPointExtension>
        </extensions>
      </trkpt>
      <trkpt lat="45.73162" lon="3.05689">
        <ele>708.40002441406</ele>
        <time>2024-05-26T12:36:35.000Z</time>
        <extensions>
          <gpxtpx:TrackPointExtension xmlns:gpxtpx="http://www.garmin.com/xmlschemas/TrackPointExtension/v1">
            <gpxtpx:hr>109</gpxtpx:hr>
          </gpxtpx:TrackPointExtension>
        </extensions>
      </trkpt>
      <trkpt lat="45.73141" lon="3.05689">
        <ele>706.59997558594</ele>
        <time>2024-05-26T12:36:37.000Z</time>
        <extensions>
          <gpxtpx:TrackPointExtension xmlns:gpxtpx="http://www.garmin.com/xmlschemas/TrackPointExtension/v1">
            <gpxtpx:hr>108</gpxtpx:hr>
          </gpxtpx:TrackPointExtension>
        </extensions>
      </trkpt>
      <trkpt lat="45.73131" lon="3.05694">
        <ele>705.59997558594</ele>
        <time>2024-05-26T12:36:38.000Z</time>
        <extensions>
          <gpxtpx:TrackPointExtension xmlns:gpxtpx="http://www.garmin.com/xmlschemas/TrackPointExtension/v1">
            <gpxtpx:hr>108</gpxtpx:hr>
          </gpxtpx:TrackPointExtension>
        </extensions>
      </trkpt>
      <trkpt lat="45.73122" lon="3.05703">
        <ele>704.79998779297</ele>
        <time>2024-05-26T12:36:39.000Z</time>
        <extensions>
          <gpxtpx:TrackPointExtension xmlns:gpxtpx="http://www.garmin.com/xmlschemas/TrackPointExtension/v1">
            <gpxtpx:hr>107</gpxtpx:hr>
          </gpxtpx:TrackPointExtension>
        </extensions>
      </trkpt>
      <trkpt lat="45.73104" lon="3.05721">
        <ele>702.59997558594</ele>
        <time>2024-05-26T12:36:41.000Z</time>
        <extensions>
          <gpxtpx:TrackPointExtension xmlns:gpxtpx="http://www.garmin.com/xmlschemas/TrackPointExtension/v1">
            <gpxtpx:hr>107</gpxtpx:hr>
          </gpxtpx:TrackPointExtension>
        </extensions>
      </trkpt>
      <trkpt lat="45.73094" lon="3.05729">
        <ele>701</ele>
        <time>2024-05-26T12:36:42.000Z</time>
        <extensions>
          <gpxtpx:TrackPointExtension xmlns:gpxtpx="http://www.garmin.com/xmlschemas/TrackPointExtension/v1">
            <gpxtpx:hr>107</gpxtpx:hr>
          </gpxtpx:TrackPointExtension>
        </extensions>
      </trkpt>
      <trkpt lat="45.73083" lon="3.05734">
        <ele>700.40002441406</ele>
        <time>2024-05-26T12:36:43.000Z</time>
        <extensions>
          <gpxtpx:TrackPointExtension xmlns:gpxtpx="http://www.garmin.com/xmlschemas/TrackPointExtension/v1">
            <gpxtpx:hr>106</gpxtpx:hr>
          </gpxtpx:TrackPointExtension>
        </extensions>
      </trkpt>
      <trkpt lat="45.73071" lon="3.05736">
        <ele>699.40002441406</ele>
        <time>2024-05-26T12:36:44.000Z</time>
        <extensions>
          <gpxtpx:TrackPointExtension xmlns:gpxtpx="http://www.garmin.com/xmlschemas/TrackPointExtension/v1">
            <gpxtpx:hr>105</gpxtpx:hr>
          </gpxtpx:TrackPointExtension>
        </extensions>
      </trkpt>
      <trkpt lat="45.73047" lon="3.05739">
        <ele>698.20001220703</ele>
        <time>2024-05-26T12:36:46.000Z</time>
        <extensions>
          <gpxtpx:TrackPointExtension xmlns:gpxtpx="http://www.garmin.com/xmlschemas/TrackPointExtension/v1">
            <gpxtpx:hr>105</gpxtpx:hr>
          </gpxtpx:TrackPointExtension>
        </extensions>
      </trkpt>
      <trkpt lat="45.73035" lon="3.05742">
        <ele>696.59997558594</ele>
        <time>2024-05-26T12:36:47.000Z</time>
        <extensions>
          <gpxtpx:TrackPointExtension xmlns:gpxtpx="http://www.garmin.com/xmlschemas/TrackPointExtension/v1">
            <gpxtpx:hr>105</gpxtpx:hr>
          </gpxtpx:TrackPointExtension>
        </extensions>
      </trkpt>
      <trkpt lat="45.73022" lon="3.05747">
        <ele>695.20001220703</ele>
        <time>2024-05-26T12:36:48.000Z</time>
        <extensions>
          <gpxtpx:TrackPointExtension xmlns:gpxtpx="http://www.garmin.com/xmlschemas/TrackPointExtension/v1">
            <gpxtpx:hr>103</gpxtpx:hr>
          </gpxtpx:TrackPointExtension>
        </extensions>
      </trkpt>
      <trkpt lat="45.73013" lon="3.05755">
        <ele>694</ele>
        <time>2024-05-26T12:36:49.000Z</time>
        <extensions>
          <gpxtpx:TrackPointExtension xmlns:gpxtpx="http://www.garmin.com/xmlschemas/TrackPointExtension/v1">
            <gpxtpx:hr>105</gpxtpx:hr>
          </gpxtpx:TrackPointExtension>
        </extensions>
      </trkpt>
      <trkpt lat="45.73009" lon="3.05765">
        <ele>693</ele>
        <time>2024-05-26T12:36:50.000Z</time>
        <extensions>
          <gpxtpx:TrackPointExtension xmlns:gpxtpx="http://www.garmin.com/xmlschemas/TrackPointExtension/v1">
            <gpxtpx:hr>105</gpxtpx:hr>
          </gpxtpx:TrackPointExtension>
        </extensions>
      </trkpt>
      <trkpt lat="45.73005" lon="3.05779">
        <ele>691.59997558594</ele>
        <time>2024-05-26T12:36:51.000Z</time>
        <extensions>
          <gpxtpx:TrackPointExtension xmlns:gpxtpx="http://www.garmin.com/xmlschemas/TrackPointExtension/v1">
            <gpxtpx:hr>106</gpxtpx:hr>
          </gpxtpx:TrackPointExtension>
        </extensions>
      </trkpt>
      <trkpt lat="45.73005" lon="3.05793">
        <ele>690.59997558594</ele>
        <time>2024-05-26T12:36:52.000Z</time>
        <extensions>
          <gpxtpx:TrackPointExtension xmlns:gpxtpx="http://www.garmin.com/xmlschemas/TrackPointExtension/v1">
            <gpxtpx:hr>106</gpxtpx:hr>
          </gpxtpx:TrackPointExtension>
        </extensions>
      </trkpt>
      <trkpt lat="45.73006" lon="3.0581">
        <ele>690</ele>
        <time>2024-05-26T12:36:53.000Z</time>
        <extensions>
          <gpxtpx:TrackPointExtension xmlns:gpxtpx="http://www.garmin.com/xmlschemas/TrackPointExtension/v1">
            <gpxtpx:hr>105</gpxtpx:hr>
          </gpxtpx:TrackPointExtension>
        </extensions>
      </trkpt>
      <trkpt lat="45.73008" lon="3.05822">
        <ele>689</ele>
        <time>2024-05-26T12:36:54.000Z</time>
        <extensions>
          <gpxtpx:TrackPointExtension xmlns:gpxtpx="http://www.garmin.com/xmlschemas/TrackPointExtension/v1">
            <gpxtpx:hr>108</gpxtpx:hr>
          </gpxtpx:TrackPointExtension>
        </extensions>
      </trkpt>
      <trkpt lat="45.73013" lon="3.05855">
        <ele>687.40002441406</ele>
        <time>2024-05-26T12:36:56.000Z</time>
        <extensions>
          <gpxtpx:TrackPointExtension xmlns:gpxtpx="http://www.garmin.com/xmlschemas/TrackPointExtension/v1">
            <gpxtpx:hr>106</gpxtpx:hr>
          </gpxtpx:TrackPointExtension>
        </extensions>
      </trkpt>
      <trkpt lat="45.73014" lon="3.05871">
        <ele>685.59997558594</ele>
        <time>2024-05-26T12:36:57.000Z</time>
        <extensions>
          <gpxtpx:TrackPointExtension xmlns:gpxtpx="http://www.garmin.com/xmlschemas/TrackPointExtension/v1">
            <gpxtpx:hr>107</gpxtpx:hr>
          </gpxtpx:TrackPointExtension>
        </extensions>
      </trkpt>
      <trkpt lat="45.73014" lon="3.05884">
        <ele>683.59997558594</ele>
        <time>2024-05-26T12:36:58.000Z</time>
        <extensions>
          <gpxtpx:TrackPointExtension xmlns:gpxtpx="http://www.garmin.com/xmlschemas/TrackPointExtension/v1">
            <gpxtpx:hr>105</gpxtpx:hr>
          </gpxtpx:TrackPointExtension>
        </extensions>
      </trkpt>
      <trkpt lat="45.73012" lon="3.05899">
        <ele>683</ele>
        <time>2024-05-26T12:36:59.000Z</time>
        <extensions>
          <gpxtpx:TrackPointExtension xmlns:gpxtpx="http://www.garmin.com/xmlschemas/TrackPointExtension/v1">
            <gpxtpx:hr>107</gpxtpx:hr>
          </gpxtpx:TrackPointExtension>
        </extensions>
      </trkpt>
      <trkpt lat="45.73007" lon="3.05914">
        <ele>682</ele>
        <time>2024-05-26T12:37:00.000Z</time>
        <extensions>
          <gpxtpx:TrackPointExtension xmlns:gpxtpx="http://www.garmin.com/xmlschemas/TrackPointExtension/v1">
            <gpxtpx:hr>107</gpxtpx:hr>
          </gpxtpx:TrackPointExtension>
        </extensions>
      </trkpt>
      <trkpt lat="45.73001" lon="3.05927">
        <ele>680.59997558594</ele>
        <time>2024-05-26T12:37:01.000Z</time>
        <extensions>
          <gpxtpx:TrackPointExtension xmlns:gpxtpx="http://www.garmin.com/xmlschemas/TrackPointExtension/v1">
            <gpxtpx:hr>106</gpxtpx:hr>
          </gpxtpx:TrackPointExtension>
        </extensions>
      </trkpt>
      <trkpt lat="45.72983" lon="3.05949">
        <ele>677.79998779297</ele>
        <time>2024-05-26T12:37:03.000Z</time>
        <extensions>
          <gpxtpx:TrackPointExtension xmlns:gpxtpx="http://www.garmin.com/xmlschemas/TrackPointExtension/v1">
            <gpxtpx:hr>106</gpxtpx:hr>
          </gpxtpx:TrackPointExtension>
        </extensions>
      </trkpt>
      <trkpt lat="45.72965" lon="3.05971">
        <ele>676.59997558594</ele>
        <time>2024-05-26T12:37:05.000Z</time>
        <extensions>
          <gpxtpx:TrackPointExtension xmlns:gpxtpx="http://www.garmin.com/xmlschemas/TrackPointExtension/v1">
            <gpxtpx:hr>105</gpxtpx:hr>
          </gpxtpx:TrackPointExtension>
        </extensions>
      </trkpt>
      <trkpt lat="45.72955" lon="3.05982">
        <ele>675.20001220703</ele>
        <time>2024-05-26T12:37:06.000Z</time>
        <extensions>
          <gpxtpx:TrackPointExtension xmlns:gpxtpx="http://www.garmin.com/xmlschemas/TrackPointExtension/v1">
            <gpxtpx:hr>106</gpxtpx:hr>
          </gpxtpx:TrackPointExtension>
        </extensions>
      </trkpt>
      <trkpt lat="45.72945" lon="3.05993">
        <ele>673.40002441406</ele>
        <time>2024-05-26T12:37:07.000Z</time>
        <extensions>
          <gpxtpx:TrackPointExtension xmlns:gpxtpx="http://www.garmin.com/xmlschemas/TrackPointExtension/v1">
            <gpxtpx:hr>106</gpxtpx:hr>
          </gpxtpx:TrackPointExtension>
        </extensions>
      </trkpt>
      <trkpt lat="45.72936" lon="3.06005">
        <ele>672</ele>
        <time>2024-05-26T12:37:08.000Z</time>
        <extensions>
          <gpxtpx:TrackPointExtension xmlns:gpxtpx="http://www.garmin.com/xmlschemas/TrackPointExtension/v1">
            <gpxtpx:hr>106</gpxtpx:hr>
          </gpxtpx:TrackPointExtension>
        </extensions>
      </trkpt>
      <trkpt lat="45.72915" lon="3.06026">
        <ele>670</ele>
        <time>2024-05-26T12:37:10.000Z</time>
        <extensions>
          <gpxtpx:TrackPointExtension xmlns:gpxtpx="http://www.garmin.com/xmlschemas/TrackPointExtension/v1">
            <gpxtpx:hr>106</gpxtpx:hr>
          </gpxtpx:TrackPointExtension>
        </extensions>
      </trkpt>
      <trkpt lat="45.72903" lon="3.06034">
        <ele>668.59997558594</ele>
        <time>2024-05-26T12:37:11.000Z</time>
        <extensions>
          <gpxtpx:TrackPointExtension xmlns:gpxtpx="http://www.garmin.com/xmlschemas/TrackPointExtension/v1">
            <gpxtpx:hr>105</gpxtpx:hr>
          </gpxtpx:TrackPointExtension>
        </extensions>
      </trkpt>
      <trkpt lat="45.72878" lon="3.06049">
        <ele>667</ele>
        <time>2024-05-26T12:37:13.000Z</time>
        <extensions>
          <gpxtpx:TrackPointExtension xmlns:gpxtpx="http://www.garmin.com/xmlschemas/TrackPointExtension/v1">
            <gpxtpx:hr>105</gpxtpx:hr>
          </gpxtpx:TrackPointExtension>
        </extensions>
      </trkpt>
      <trkpt lat="45.72865" lon="3.06057">
        <ele>664.59997558594</ele>
        <time>2024-05-26T12:37:14.000Z</time>
        <extensions>
          <gpxtpx:TrackPointExtension xmlns:gpxtpx="http://www.garmin.com/xmlschemas/TrackPointExtension/v1">
            <gpxtpx:hr>105</gpxtpx:hr>
          </gpxtpx:TrackPointExtension>
        </extensions>
      </trkpt>
      <trkpt lat="45.72853" lon="3.06067">
        <ele>663.20001220703</ele>
        <time>2024-05-26T12:37:15.000Z</time>
        <extensions>
          <gpxtpx:TrackPointExtension xmlns:gpxtpx="http://www.garmin.com/xmlschemas/TrackPointExtension/v1">
            <gpxtpx:hr>104</gpxtpx:hr>
          </gpxtpx:TrackPointExtension>
        </extensions>
      </trkpt>
      <trkpt lat="45.72831" lon="3.0609">
        <ele>660.79998779297</ele>
        <time>2024-05-26T12:37:17.000Z</time>
        <extensions>
          <gpxtpx:TrackPointExtension xmlns:gpxtpx="http://www.garmin.com/xmlschemas/TrackPointExtension/v1">
            <gpxtpx:hr>106</gpxtpx:hr>
          </gpxtpx:TrackPointExtension>
        </extensions>
      </trkpt>
      <trkpt lat="45.72821" lon="3.06103">
        <ele>659.40002441406</ele>
        <time>2024-05-26T12:37:18.000Z</time>
        <extensions>
          <gpxtpx:TrackPointExtension xmlns:gpxtpx="http://www.garmin.com/xmlschemas/TrackPointExtension/v1">
            <gpxtpx:hr>105</gpxtpx:hr>
          </gpxtpx:TrackPointExtension>
        </extensions>
      </trkpt>
      <trkpt lat="45.72811" lon="3.06115">
        <ele>657.79998779297</ele>
        <time>2024-05-26T12:37:19.000Z</time>
        <extensions>
          <gpxtpx:TrackPointExtension xmlns:gpxtpx="http://www.garmin.com/xmlschemas/TrackPointExtension/v1">
            <gpxtpx:hr>105</gpxtpx:hr>
          </gpxtpx:TrackPointExtension>
        </extensions>
      </trkpt>
      <trkpt lat="45.72801" lon="3.06126">
        <ele>656.79998779297</ele>
        <time>2024-05-26T12:37:20.000Z</time>
        <extensions>
          <gpxtpx:TrackPointExtension xmlns:gpxtpx="http://www.garmin.com/xmlschemas/TrackPointExtension/v1">
            <gpxtpx:hr>105</gpxtpx:hr>
          </gpxtpx:TrackPointExtension>
        </extensions>
      </trkpt>
      <trkpt lat="45.72789" lon="3.06135">
        <ele>655.59997558594</ele>
        <time>2024-05-26T12:37:21.000Z</time>
        <extensions>
          <gpxtpx:TrackPointExtension xmlns:gpxtpx="http://www.garmin.com/xmlschemas/TrackPointExtension/v1">
            <gpxtpx:hr>105</gpxtpx:hr>
          </gpxtpx:TrackPointExtension>
        </extensions>
      </trkpt>
      <trkpt lat="45.72764" lon="3.06149">
        <ele>653.20001220703</ele>
        <time>2024-05-26T12:37:23.000Z</time>
        <extensions>
          <gpxtpx:TrackPointExtension xmlns:gpxtpx="http://www.garmin.com/xmlschemas/TrackPointExtension/v1">
            <gpxtpx:hr>105</gpxtpx:hr>
          </gpxtpx:TrackPointExtension>
        </extensions>
      </trkpt>
      <trkpt lat="45.72737" lon="3.06157">
        <ele>651.59997558594</ele>
        <time>2024-05-26T12:37:25.000Z</time>
        <extensions>
          <gpxtpx:TrackPointExtension xmlns:gpxtpx="http://www.garmin.com/xmlschemas/TrackPointExtension/v1">
            <gpxtpx:hr>105</gpxtpx:hr>
          </gpxtpx:TrackPointExtension>
        </extensions>
      </trkpt>
      <trkpt lat="45.72699" lon="3.06165">
        <ele>650.59997558594</ele>
        <time>2024-05-26T12:37:28.000Z</time>
        <extensions>
          <gpxtpx:TrackPointExtension xmlns:gpxtpx="http://www.garmin.com/xmlschemas/TrackPointExtension/v1">
            <gpxtpx:hr>102</gpxtpx:hr>
          </gpxtpx:TrackPointExtension>
        </extensions>
      </trkpt>
      <trkpt lat="45.72692" lon="3.06167">
        <ele>649.79998779297</ele>
        <time>2024-05-26T12:37:29.000Z</time>
        <extensions>
          <gpxtpx:TrackPointExtension xmlns:gpxtpx="http://www.garmin.com/xmlschemas/TrackPointExtension/v1">
            <gpxtpx:hr>101</gpxtpx:hr>
          </gpxtpx:TrackPointExtension>
        </extensions>
      </trkpt>
      <trkpt lat="45.72684" lon="3.06171">
        <ele>649.40002441406</ele>
        <time>2024-05-26T12:37:30.000Z</time>
        <extensions>
          <gpxtpx:TrackPointExtension xmlns:gpxtpx="http://www.garmin.com/xmlschemas/TrackPointExtension/v1">
            <gpxtpx:hr>100</gpxtpx:hr>
          </gpxtpx:TrackPointExtension>
        </extensions>
      </trkpt>
      <trkpt lat="45.72678" lon="3.06177">
        <ele>648</ele>
        <time>2024-05-26T12:37:31.000Z</time>
        <extensions>
          <gpxtpx:TrackPointExtension xmlns:gpxtpx="http://www.garmin.com/xmlschemas/TrackPointExtension/v1">
            <gpxtpx:hr>100</gpxtpx:hr>
          </gpxtpx:TrackPointExtension>
        </extensions>
      </trkpt>
      <trkpt lat="45.72676" lon="3.06184">
        <ele>647.20001220703</ele>
        <time>2024-05-26T12:37:32.000Z</time>
        <extensions>
          <gpxtpx:TrackPointExtension xmlns:gpxtpx="http://www.garmin.com/xmlschemas/TrackPointExtension/v1">
            <gpxtpx:hr>100</gpxtpx:hr>
          </gpxtpx:TrackPointExtension>
        </extensions>
      </trkpt>
      <trkpt lat="45.72675" lon="3.06188">
        <ele>646.40002441406</ele>
        <time>2024-05-26T12:37:33.000Z</time>
        <extensions>
          <gpxtpx:TrackPointExtension xmlns:gpxtpx="http://www.garmin.com/xmlschemas/TrackPointExtension/v1">
            <gpxtpx:hr>100</gpxtpx:hr>
          </gpxtpx:TrackPointExtension>
        </extensions>
      </trkpt>
      <trkpt lat="45.72685" lon="3.06193">
        <ele>645.59997558594</ele>
        <time>2024-05-26T12:37:35.000Z</time>
        <extensions>
          <gpxtpx:TrackPointExtension xmlns:gpxtpx="http://www.garmin.com/xmlschemas/TrackPointExtension/v1">
            <gpxtpx:hr>100</gpxtpx:hr>
          </gpxtpx:TrackPointExtension>
        </extensions>
      </trkpt>
      <trkpt lat="45.72693" lon="3.06192">
        <ele>644.59997558594</ele>
        <time>2024-05-26T12:37:36.000Z</time>
        <extensions>
          <gpxtpx:TrackPointExtension xmlns:gpxtpx="http://www.garmin.com/xmlschemas/TrackPointExtension/v1">
            <gpxtpx:hr>100</gpxtpx:hr>
          </gpxtpx:TrackPointExtension>
        </extensions>
      </trkpt>
      <trkpt lat="45.72702" lon="3.0619">
        <ele>643.40002441406</ele>
        <time>2024-05-26T12:37:37.000Z</time>
        <extensions>
          <gpxtpx:TrackPointExtension xmlns:gpxtpx="http://www.garmin.com/xmlschemas/TrackPointExtension/v1">
            <gpxtpx:hr>100</gpxtpx:hr>
          </gpxtpx:TrackPointExtension>
        </extensions>
      </trkpt>
      <trkpt lat="45.7274" lon="3.06182">
        <ele>642.20001220703</ele>
        <time>2024-05-26T12:37:41.000Z</time>
        <extensions>
          <gpxtpx:TrackPointExtension xmlns:gpxtpx="http://www.garmin.com/xmlschemas/TrackPointExtension/v1">
            <gpxtpx:hr>100</gpxtpx:hr>
          </gpxtpx:TrackPointExtension>
        </extensions>
      </trkpt>
      <trkpt lat="45.72751" lon="3.06182">
        <ele>642</ele>
        <time>2024-05-26T12:37:42.000Z</time>
        <extensions>
          <gpxtpx:TrackPointExtension xmlns:gpxtpx="http://www.garmin.com/xmlschemas/TrackPointExtension/v1">
            <gpxtpx:hr>100</gpxtpx:hr>
          </gpxtpx:TrackPointExtension>
        </extensions>
      </trkpt>
      <trkpt lat="45.72763" lon="3.06182">
        <ele>641</ele>
        <time>2024-05-26T12:37:43.000Z</time>
        <extensions>
          <gpxtpx:TrackPointExtension xmlns:gpxtpx="http://www.garmin.com/xmlschemas/TrackPointExtension/v1">
            <gpxtpx:hr>99</gpxtpx:hr>
          </gpxtpx:TrackPointExtension>
        </extensions>
      </trkpt>
      <trkpt lat="45.72774" lon="3.06182">
        <ele>638.79998779297</ele>
        <time>2024-05-26T12:37:44.000Z</time>
        <extensions>
          <gpxtpx:TrackPointExtension xmlns:gpxtpx="http://www.garmin.com/xmlschemas/TrackPointExtension/v1">
            <gpxtpx:hr>100</gpxtpx:hr>
          </gpxtpx:TrackPointExtension>
        </extensions>
      </trkpt>
      <trkpt lat="45.72798" lon="3.06181">
        <ele>637</ele>
        <time>2024-05-26T12:37:46.000Z</time>
        <extensions>
          <gpxtpx:TrackPointExtension xmlns:gpxtpx="http://www.garmin.com/xmlschemas/TrackPointExtension/v1">
            <gpxtpx:hr>100</gpxtpx:hr>
          </gpxtpx:TrackPointExtension>
        </extensions>
      </trkpt>
      <trkpt lat="45.7281" lon="3.06179">
        <ele>635.79998779297</ele>
        <time>2024-05-26T12:37:47.000Z</time>
        <extensions>
          <gpxtpx:TrackPointExtension xmlns:gpxtpx="http://www.garmin.com/xmlschemas/TrackPointExtension/v1">
            <gpxtpx:hr>100</gpxtpx:hr>
          </gpxtpx:TrackPointExtension>
        </extensions>
      </trkpt>
      <trkpt lat="45.72832" lon="3.06167">
        <ele>633.79998779297</ele>
        <time>2024-05-26T12:37:49.000Z</time>
        <extensions>
          <gpxtpx:TrackPointExtension xmlns:gpxtpx="http://www.garmin.com/xmlschemas/TrackPointExtension/v1">
            <gpxtpx:hr>100</gpxtpx:hr>
          </gpxtpx:TrackPointExtension>
        </extensions>
      </trkpt>
      <trkpt lat="45.72842" lon="3.06158">
        <ele>632.20001220703</ele>
        <time>2024-05-26T12:37:50.000Z</time>
        <extensions>
          <gpxtpx:TrackPointExtension xmlns:gpxtpx="http://www.garmin.com/xmlschemas/TrackPointExtension/v1">
            <gpxtpx:hr>100</gpxtpx:hr>
          </gpxtpx:TrackPointExtension>
        </extensions>
      </trkpt>
      <trkpt lat="45.72862" lon="3.0614">
        <ele>630.40002441406</ele>
        <time>2024-05-26T12:37:52.000Z</time>
        <extensions>
          <gpxtpx:TrackPointExtension xmlns:gpxtpx="http://www.garmin.com/xmlschemas/TrackPointExtension/v1">
            <gpxtpx:hr>100</gpxtpx:hr>
          </gpxtpx:TrackPointExtension>
        </extensions>
      </trkpt>
      <trkpt lat="45.72873" lon="3.06132">
        <ele>628.40002441406</ele>
        <time>2024-05-26T12:37:53.000Z</time>
        <extensions>
          <gpxtpx:TrackPointExtension xmlns:gpxtpx="http://www.garmin.com/xmlschemas/TrackPointExtension/v1">
            <gpxtpx:hr>99</gpxtpx:hr>
          </gpxtpx:TrackPointExtension>
        </extensions>
      </trkpt>
      <trkpt lat="45.72884" lon="3.06127">
        <ele>627.20001220703</ele>
        <time>2024-05-26T12:37:54.000Z</time>
        <extensions>
          <gpxtpx:TrackPointExtension xmlns:gpxtpx="http://www.garmin.com/xmlschemas/TrackPointExtension/v1">
            <gpxtpx:hr>99</gpxtpx:hr>
          </gpxtpx:TrackPointExtension>
        </extensions>
      </trkpt>
      <trkpt lat="45.72897" lon="3.06122">
        <ele>626</ele>
        <time>2024-05-26T12:37:55.000Z</time>
        <extensions>
          <gpxtpx:TrackPointExtension xmlns:gpxtpx="http://www.garmin.com/xmlschemas/TrackPointExtension/v1">
            <gpxtpx:hr>99</gpxtpx:hr>
          </gpxtpx:TrackPointExtension>
        </extensions>
      </trkpt>
      <trkpt lat="45.7291" lon="3.06121">
        <ele>625</ele>
        <time>2024-05-26T12:37:56.000Z</time>
        <extensions>
          <gpxtpx:TrackPointExtension xmlns:gpxtpx="http://www.garmin.com/xmlschemas/TrackPointExtension/v1">
            <gpxtpx:hr>99</gpxtpx:hr>
          </gpxtpx:TrackPointExtension>
        </extensions>
      </trkpt>
      <trkpt lat="45.72937" lon="3.06116">
        <ele>622.40002441406</ele>
        <time>2024-05-26T12:37:58.000Z</time>
        <extensions>
          <gpxtpx:TrackPointExtension xmlns:gpxtpx="http://www.garmin.com/xmlschemas/TrackPointExtension/v1">
            <gpxtpx:hr>99</gpxtpx:hr>
          </gpxtpx:TrackPointExtension>
        </extensions>
      </trkpt>
      <trkpt lat="45.72959" lon="3.06111">
        <ele>621.40002441406</ele>
        <time>2024-05-26T12:38:00.000Z</time>
        <extensions>
          <gpxtpx:TrackPointExtension xmlns:gpxtpx="http://www.garmin.com/xmlschemas/TrackPointExtension/v1">
            <gpxtpx:hr>98</gpxtpx:hr>
          </gpxtpx:TrackPointExtension>
        </extensions>
      </trkpt>
      <trkpt lat="45.72984" lon="3.06103">
        <ele>619.20001220703</ele>
        <time>2024-05-26T12:38:02.000Z</time>
        <extensions>
          <gpxtpx:TrackPointExtension xmlns:gpxtpx="http://www.garmin.com/xmlschemas/TrackPointExtension/v1">
            <gpxtpx:hr>99</gpxtpx:hr>
          </gpxtpx:TrackPointExtension>
        </extensions>
      </trkpt>
      <trkpt lat="45.72996" lon="3.06098">
        <ele>618</ele>
        <time>2024-05-26T12:38:03.000Z</time>
        <extensions>
          <gpxtpx:TrackPointExtension xmlns:gpxtpx="http://www.garmin.com/xmlschemas/TrackPointExtension/v1">
            <gpxtpx:hr>100</gpxtpx:hr>
          </gpxtpx:TrackPointExtension>
        </extensions>
      </trkpt>
      <trkpt lat="45.73018" lon="3.06086">
        <ele>616.40002441406</ele>
        <time>2024-05-26T12:38:05.000Z</time>
        <extensions>
          <gpxtpx:TrackPointExtension xmlns:gpxtpx="http://www.garmin.com/xmlschemas/TrackPointExtension/v1">
            <gpxtpx:hr>100</gpxtpx:hr>
          </gpxtpx:TrackPointExtension>
        </extensions>
      </trkpt>
      <trkpt lat="45.73029" lon="3.06078">
        <ele>615</ele>
        <time>2024-05-26T12:38:06.000Z</time>
        <extensions>
          <gpxtpx:TrackPointExtension xmlns:gpxtpx="http://www.garmin.com/xmlschemas/TrackPointExtension/v1">
            <gpxtpx:hr>100</gpxtpx:hr>
          </gpxtpx:TrackPointExtension>
        </extensions>
      </trkpt>
      <trkpt lat="45.73045" lon="3.06067">
        <ele>613.40002441406</ele>
        <time>2024-05-26T12:38:08.000Z</time>
        <extensions>
          <gpxtpx:TrackPointExtension xmlns:gpxtpx="http://www.garmin.com/xmlschemas/TrackPointExtension/v1">
            <gpxtpx:hr>100</gpxtpx:hr>
          </gpxtpx:TrackPointExtension>
        </extensions>
      </trkpt>
      <trkpt lat="45.73053" lon="3.06063">
        <ele>613</ele>
        <time>2024-05-26T12:38:09.000Z</time>
        <extensions>
          <gpxtpx:TrackPointExtension xmlns:gpxtpx="http://www.garmin.com/xmlschemas/TrackPointExtension/v1">
            <gpxtpx:hr>100</gpxtpx:hr>
          </gpxtpx:TrackPointExtension>
        </extensions>
      </trkpt>
      <trkpt lat="45.73061" lon="3.06062">
        <ele>612.40002441406</ele>
        <time>2024-05-26T12:38:10.000Z</time>
        <extensions>
          <gpxtpx:TrackPointExtension xmlns:gpxtpx="http://www.garmin.com/xmlschemas/TrackPointExtension/v1">
            <gpxtpx:hr>101</gpxtpx:hr>
          </gpxtpx:TrackPointExtension>
        </extensions>
      </trkpt>
      <trkpt lat="45.73069" lon="3.06066">
        <ele>611.40002441406</ele>
        <time>2024-05-26T12:38:11.000Z</time>
        <extensions>
          <gpxtpx:TrackPointExtension xmlns:gpxtpx="http://www.garmin.com/xmlschemas/TrackPointExtension/v1">
            <gpxtpx:hr>100</gpxtpx:hr>
          </gpxtpx:TrackPointExtension>
        </extensions>
      </trkpt>
      <trkpt lat="45.73076" lon="3.06074">
        <ele>610.79998779297</ele>
        <time>2024-05-26T12:38:12.000Z</time>
        <extensions>
          <gpxtpx:TrackPointExtension xmlns:gpxtpx="http://www.garmin.com/xmlschemas/TrackPointExtension/v1">
            <gpxtpx:hr>103</gpxtpx:hr>
          </gpxtpx:TrackPointExtension>
        </extensions>
      </trkpt>
      <trkpt lat="45.7308" lon="3.06082">
        <ele>610.20001220703</ele>
        <time>2024-05-26T12:38:13.000Z</time>
        <extensions>
          <gpxtpx:TrackPointExtension xmlns:gpxtpx="http://www.garmin.com/xmlschemas/TrackPointExtension/v1">
            <gpxtpx:hr>103</gpxtpx:hr>
          </gpxtpx:TrackPointExtension>
        </extensions>
      </trkpt>
      <trkpt lat="45.7308" lon="3.0609">
        <ele>609.59997558594</ele>
        <time>2024-05-26T12:38:14.000Z</time>
        <extensions>
          <gpxtpx:TrackPointExtension xmlns:gpxtpx="http://www.garmin.com/xmlschemas/TrackPointExtension/v1">
            <gpxtpx:hr>104</gpxtpx:hr>
          </gpxtpx:TrackPointExtension>
        </extensions>
      </trkpt>
      <trkpt lat="45.73079" lon="3.06099">
        <ele>608.59997558594</ele>
        <time>2024-05-26T12:38:15.000Z</time>
        <extensions>
          <gpxtpx:TrackPointExtension xmlns:gpxtpx="http://www.garmin.com/xmlschemas/TrackPointExtension/v1">
            <gpxtpx:hr>105</gpxtpx:hr>
          </gpxtpx:TrackPointExtension>
        </extensions>
      </trkpt>
      <trkpt lat="45.73077" lon="3.06106">
        <ele>607.79998779297</ele>
        <time>2024-05-26T12:38:16.000Z</time>
        <extensions>
          <gpxtpx:TrackPointExtension xmlns:gpxtpx="http://www.garmin.com/xmlschemas/TrackPointExtension/v1">
            <gpxtpx:hr>104</gpxtpx:hr>
          </gpxtpx:TrackPointExtension>
        </extensions>
      </trkpt>
      <trkpt lat="45.73075" lon="3.06111">
        <ele>607</ele>
        <time>2024-05-26T12:38:17.000Z</time>
        <extensions>
          <gpxtpx:TrackPointExtension xmlns:gpxtpx="http://www.garmin.com/xmlschemas/TrackPointExtension/v1">
            <gpxtpx:hr>105</gpxtpx:hr>
          </gpxtpx:TrackPointExtension>
        </extensions>
      </trkpt>
      <trkpt lat="45.73072" lon="3.06115">
        <ele>606.59997558594</ele>
        <time>2024-05-26T12:38:18.000Z</time>
        <extensions>
          <gpxtpx:TrackPointExtension xmlns:gpxtpx="http://www.garmin.com/xmlschemas/TrackPointExtension/v1">
            <gpxtpx:hr>106</gpxtpx:hr>
          </gpxtpx:TrackPointExtension>
        </extensions>
      </trkpt>
      <trkpt lat="45.73068" lon="3.06121">
        <ele>605.79998779297</ele>
        <time>2024-05-26T12:38:20.000Z</time>
        <extensions>
          <gpxtpx:TrackPointExtension xmlns:gpxtpx="http://www.garmin.com/xmlschemas/TrackPointExtension/v1">
            <gpxtpx:hr>108</gpxtpx:hr>
          </gpxtpx:TrackPointExtension>
        </extensions>
      </trkpt>
      <trkpt lat="45.7306" lon="3.06148">
        <ele>602.79998779297</ele>
        <time>2024-05-26T12:45:54.000Z</time>
        <extensions>
          <gpxtpx:TrackPointExtension xmlns:gpxtpx="http://www.garmin.com/xmlschemas/TrackPointExtension/v1">
            <gpxtpx:hr>82</gpxtpx:hr>
          </gpxtpx:TrackPointExtension>
        </extensions>
      </trkpt>
      <trkpt lat="45.73057" lon="3.06154">
        <ele>602.40002441406</ele>
        <time>2024-05-26T12:45:55.000Z</time>
        <extensions>
          <gpxtpx:TrackPointExtension xmlns:gpxtpx="http://www.garmin.com/xmlschemas/TrackPointExtension/v1">
            <gpxtpx:hr>81</gpxtpx:hr>
          </gpxtpx:TrackPointExtension>
        </extensions>
      </trkpt>
      <trkpt lat="45.7305" lon="3.06166">
        <ele>601.79998779297</ele>
        <time>2024-05-26T12:45:57.000Z</time>
        <extensions>
          <gpxtpx:TrackPointExtension xmlns:gpxtpx="http://www.garmin.com/xmlschemas/TrackPointExtension/v1">
            <gpxtpx:hr>82</gpxtpx:hr>
          </gpxtpx:TrackPointExtension>
        </extensions>
      </trkpt>
      <trkpt lat="45.73046" lon="3.06173">
        <ele>601.20001220703</ele>
        <time>2024-05-26T12:45:58.000Z</time>
        <extensions>
          <gpxtpx:TrackPointExtension xmlns:gpxtpx="http://www.garmin.com/xmlschemas/TrackPointExtension/v1">
            <gpxtpx:hr>83</gpxtpx:hr>
          </gpxtpx:TrackPointExtension>
        </extensions>
      </trkpt>
      <trkpt lat="45.73035" lon="3.06194">
        <ele>599.79998779297</ele>
        <time>2024-05-26T12:46:01.000Z</time>
        <extensions>
          <gpxtpx:TrackPointExtension xmlns:gpxtpx="http://www.garmin.com/xmlschemas/TrackPointExtension/v1">
            <gpxtpx:hr>83</gpxtpx:hr>
          </gpxtpx:TrackPointExtension>
        </extensions>
      </trkpt>
      <trkpt lat="45.73028" lon="3.06208">
        <ele>599.20001220703</ele>
        <time>2024-05-26T12:46:03.000Z</time>
        <extensions>
          <gpxtpx:TrackPointExtension xmlns:gpxtpx="http://www.garmin.com/xmlschemas/TrackPointExtension/v1">
            <gpxtpx:hr>82</gpxtpx:hr>
          </gpxtpx:TrackPointExtension>
        </extensions>
      </trkpt>
      <trkpt lat="45.73024" lon="3.06216">
        <ele>598.59997558594</ele>
        <time>2024-05-26T12:46:04.000Z</time>
        <extensions>
          <gpxtpx:TrackPointExtension xmlns:gpxtpx="http://www.garmin.com/xmlschemas/TrackPointExtension/v1">
            <gpxtpx:hr>82</gpxtpx:hr>
          </gpxtpx:TrackPointExtension>
        </extensions>
      </trkpt>
      <trkpt lat="45.73012" lon="3.06237">
        <ele>597.20001220703</ele>
        <time>2024-05-26T12:46:07.000Z</time>
        <extensions>
          <gpxtpx:TrackPointExtension xmlns:gpxtpx="http://www.garmin.com/xmlschemas/TrackPointExtension/v1">
            <gpxtpx:hr>82</gpxtpx:hr>
          </gpxtpx:TrackPointExtension>
        </extensions>
      </trkpt>
      <trkpt lat="45.73005" lon="3.06252">
        <ele>595.79998779297</ele>
        <time>2024-05-26T12:46:09.000Z</time>
        <extensions>
          <gpxtpx:TrackPointExtension xmlns:gpxtpx="http://www.garmin.com/xmlschemas/TrackPointExtension/v1">
            <gpxtpx:hr>81</gpxtpx:hr>
          </gpxtpx:TrackPointExtension>
        </extensions>
      </trkpt>
      <trkpt lat="45.72994" lon="3.06275">
        <ele>594.59997558594</ele>
        <time>2024-05-26T12:46:12.000Z</time>
        <extensions>
          <gpxtpx:TrackPointExtension xmlns:gpxtpx="http://www.garmin.com/xmlschemas/TrackPointExtension/v1">
            <gpxtpx:hr>82</gpxtpx:hr>
          </gpxtpx:TrackPointExtension>
        </extensions>
      </trkpt>
      <trkpt lat="45.72978" lon="3.06304">
        <ele>593</ele>
        <time>2024-05-26T12:46:16.000Z</time>
        <extensions>
          <gpxtpx:TrackPointExtension xmlns:gpxtpx="http://www.garmin.com/xmlschemas/TrackPointExtension/v1">
            <gpxtpx:hr>81</gpxtpx:hr>
          </gpxtpx:TrackPointExtension>
        </extensions>
      </trkpt>
      <trkpt lat="45.72974" lon="3.06311">
        <ele>592.59997558594</ele>
        <time>2024-05-26T12:46:17.000Z</time>
        <extensions>
          <gpxtpx:TrackPointExtension xmlns:gpxtpx="http://www.garmin.com/xmlschemas/TrackPointExtension/v1">
            <gpxtpx:hr>80</gpxtpx:hr>
          </gpxtpx:TrackPointExtension>
        </extensions>
      </trkpt>
      <trkpt lat="45.72967" lon="3.06326">
        <ele>591.79998779297</ele>
        <time>2024-05-26T12:46:19.000Z</time>
        <extensions>
          <gpxtpx:TrackPointExtension xmlns:gpxtpx="http://www.garmin.com/xmlschemas/TrackPointExtension/v1">
            <gpxtpx:hr>80</gpxtpx:hr>
          </gpxtpx:TrackPointExtension>
        </extensions>
      </trkpt>
      <trkpt lat="45.72957" lon="3.0635">
        <ele>590.79998779297</ele>
        <time>2024-05-26T12:46:22.000Z</time>
        <extensions>
          <gpxtpx:TrackPointExtension xmlns:gpxtpx="http://www.garmin.com/xmlschemas/TrackPointExtension/v1">
            <gpxtpx:hr>79</gpxtpx:hr>
          </gpxtpx:TrackPointExtension>
        </extensions>
      </trkpt>
      <trkpt lat="45.72946" lon="3.06376">
        <ele>589.59997558594</ele>
        <time>2024-05-26T12:46:25.000Z</time>
        <extensions>
          <gpxtpx:TrackPointExtension xmlns:gpxtpx="http://www.garmin.com/xmlschemas/TrackPointExtension/v1">
            <gpxtpx:hr>80</gpxtpx:hr>
          </gpxtpx:TrackPointExtension>
        </extensions>
      </trkpt>
      <trkpt lat="45.72941" lon="3.06383">
        <ele>589</ele>
        <time>2024-05-26T12:46:26.000Z</time>
        <extensions>
          <gpxtpx:TrackPointExtension xmlns:gpxtpx="http://www.garmin.com/xmlschemas/TrackPointExtension/v1">
            <gpxtpx:hr>82</gpxtpx:hr>
          </gpxtpx:TrackPointExtension>
        </extensions>
      </trkpt>
      <trkpt lat="45.72935" lon="3.0639">
        <ele>588.20001220703</ele>
        <time>2024-05-26T12:46:27.000Z</time>
        <extensions>
          <gpxtpx:TrackPointExtension xmlns:gpxtpx="http://www.garmin.com/xmlschemas/TrackPointExtension/v1">
            <gpxtpx:hr>81</gpxtpx:hr>
          </gpxtpx:TrackPointExtension>
        </extensions>
      </trkpt>
      <trkpt lat="45.72922" lon="3.06398">
        <ele>586.59997558594</ele>
        <time>2024-05-26T12:46:29.000Z</time>
        <extensions>
          <gpxtpx:TrackPointExtension xmlns:gpxtpx="http://www.garmin.com/xmlschemas/TrackPointExtension/v1">
            <gpxtpx:hr>84</gpxtpx:hr>
          </gpxtpx:TrackPointExtension>
        </extensions>
      </trkpt>
      <trkpt lat="45.7291" lon="3.06405">
        <ele>584.79998779297</ele>
        <time>2024-05-26T12:46:31.000Z</time>
        <extensions>
          <gpxtpx:TrackPointExtension xmlns:gpxtpx="http://www.garmin.com/xmlschemas/TrackPointExtension/v1">
            <gpxtpx:hr>85</gpxtpx:hr>
          </gpxtpx:TrackPointExtension>
        </extensions>
      </trkpt>
      <trkpt lat="45.72904" lon="3.06409">
        <ele>583.59997558594</ele>
        <time>2024-05-26T12:46:32.000Z</time>
        <extensions>
          <gpxtpx:TrackPointExtension xmlns:gpxtpx="http://www.garmin.com/xmlschemas/TrackPointExtension/v1">
            <gpxtpx:hr>86</gpxtpx:hr>
          </gpxtpx:TrackPointExtension>
        </extensions>
      </trkpt>
      <trkpt lat="45.72896" lon="3.06419">
        <ele>583.40002441406</ele>
        <time>2024-05-26T12:46:34.000Z</time>
        <extensions>
          <gpxtpx:TrackPointExtension xmlns:gpxtpx="http://www.garmin.com/xmlschemas/TrackPointExtension/v1">
            <gpxtpx:hr>87</gpxtpx:hr>
          </gpxtpx:TrackPointExtension>
        </extensions>
      </trkpt>
      <trkpt lat="45.72893" lon="3.06427">
        <ele>582.40002441406</ele>
        <time>2024-05-26T12:46:36.000Z</time>
        <extensions>
          <gpxtpx:TrackPointExtension xmlns:gpxtpx="http://www.garmin.com/xmlschemas/TrackPointExtension/v1">
            <gpxtpx:hr>87</gpxtpx:hr>
          </gpxtpx:TrackPointExtension>
        </extensions>
      </trkpt>
      <trkpt lat="45.72892" lon="3.0643">
        <ele>582.20001220703</ele>
        <time>2024-05-26T12:46:37.000Z</time>
        <extensions>
          <gpxtpx:TrackPointExtension xmlns:gpxtpx="http://www.garmin.com/xmlschemas/TrackPointExtension/v1">
            <gpxtpx:hr>87</gpxtpx:hr>
          </gpxtpx:TrackPointExtension>
        </extensions>
      </trkpt>
      <trkpt lat="45.72892" lon="3.06431">
        <ele>582.20001220703</ele>
        <time>2024-05-26T12:46:38.000Z</time>
        <extensions>
          <gpxtpx:TrackPointExtension xmlns:gpxtpx="http://www.garmin.com/xmlschemas/TrackPointExtension/v1">
            <gpxtpx:hr>88</gpxtpx:hr>
          </gpxtpx:TrackPointExtension>
        </extensions>
      </trkpt>
      <trkpt lat="45.72891" lon="3.06431">
        <ele>581.79998779297</ele>
        <time>2024-05-26T12:46:41.000Z</time>
        <extensions>
          <gpxtpx:TrackPointExtension xmlns:gpxtpx="http://www.garmin.com/xmlschemas/TrackPointExtension/v1">
            <gpxtpx:hr>88</gpxtpx:hr>
          </gpxtpx:TrackPointExtension>
        </extensions>
      </trkpt>
      <trkpt lat="45.72891" lon="3.06431">
        <ele>581.40002441406</ele>
        <time>2024-05-26T12:46:50.000Z</time>
        <extensions>
          <gpxtpx:TrackPointExtension xmlns:gpxtpx="http://www.garmin.com/xmlschemas/TrackPointExtension/v1">
            <gpxtpx:hr>88</gpxtpx:hr>
          </gpxtpx:TrackPointExtension>
        </extensions>
      </trkpt>
      <trkpt lat="45.72891" lon="3.06431">
        <ele>581.40002441406</ele>
        <time>2024-05-26T12:46:52.000Z</time>
        <extensions>
          <gpxtpx:TrackPointExtension xmlns:gpxtpx="http://www.garmin.com/xmlschemas/TrackPointExtension/v1">
            <gpxtpx:hr>89</gpxtpx:hr>
          </gpxtpx:TrackPointExtension>
        </extensions>
      </trkpt>
      <trkpt lat="45.72892" lon="3.06433">
        <ele>581.40002441406</ele>
        <time>2024-05-26T12:46:53.000Z</time>
        <extensions>
          <gpxtpx:TrackPointExtension xmlns:gpxtpx="http://www.garmin.com/xmlschemas/TrackPointExtension/v1">
            <gpxtpx:hr>89</gpxtpx:hr>
          </gpxtpx:TrackPointExtension>
        </extensions>
      </trkpt>
      <trkpt lat="45.72897" lon="3.06438">
        <ele>581.40002441406</ele>
        <time>2024-05-26T12:46:56.000Z</time>
        <extensions>
          <gpxtpx:TrackPointExtension xmlns:gpxtpx="http://www.garmin.com/xmlschemas/TrackPointExtension/v1">
            <gpxtpx:hr>90</gpxtpx:hr>
          </gpxtpx:TrackPointExtension>
        </extensions>
      </trkpt>
      <trkpt lat="45.72912" lon="3.06443">
        <ele>581.79998779297</ele>
        <time>2024-05-26T12:47:01.000Z</time>
        <extensions>
          <gpxtpx:TrackPointExtension xmlns:gpxtpx="http://www.garmin.com/xmlschemas/TrackPointExtension/v1">
            <gpxtpx:hr>88</gpxtpx:hr>
          </gpxtpx:TrackPointExtension>
        </extensions>
      </trkpt>
      <trkpt lat="45.72931" lon="3.06445">
        <ele>581.79998779297</ele>
        <time>2024-05-26T12:47:05.000Z</time>
        <extensions>
          <gpxtpx:TrackPointExtension xmlns:gpxtpx="http://www.garmin.com/xmlschemas/TrackPointExtension/v1">
            <gpxtpx:hr>90</gpxtpx:hr>
          </gpxtpx:TrackPointExtension>
        </extensions>
      </trkpt>
      <trkpt lat="45.72941" lon="3.06445">
        <ele>581.79998779297</ele>
        <time>2024-05-26T12:47:07.000Z</time>
        <extensions>
          <gpxtpx:TrackPointExtension xmlns:gpxtpx="http://www.garmin.com/xmlschemas/TrackPointExtension/v1">
            <gpxtpx:hr>90</gpxtpx:hr>
          </gpxtpx:TrackPointExtension>
        </extensions>
      </trkpt>
      <trkpt lat="45.7296" lon="3.06443">
        <ele>581.59997558594</ele>
        <time>2024-05-26T12:47:11.000Z</time>
        <extensions>
          <gpxtpx:TrackPointExtension xmlns:gpxtpx="http://www.garmin.com/xmlschemas/TrackPointExtension/v1">
            <gpxtpx:hr>93</gpxtpx:hr>
          </gpxtpx:TrackPointExtension>
        </extensions>
      </trkpt>
      <trkpt lat="45.72971" lon="3.06441">
        <ele>582</ele>
        <time>2024-05-26T12:47:13.000Z</time>
        <extensions>
          <gpxtpx:TrackPointExtension xmlns:gpxtpx="http://www.garmin.com/xmlschemas/TrackPointExtension/v1">
            <gpxtpx:hr>94</gpxtpx:hr>
          </gpxtpx:TrackPointExtension>
        </extensions>
      </trkpt>
      <trkpt lat="45.73008" lon="3.06429">
        <ele>581.40002441406</ele>
        <time>2024-05-26T12:47:20.000Z</time>
        <extensions>
          <gpxtpx:TrackPointExtension xmlns:gpxtpx="http://www.garmin.com/xmlschemas/TrackPointExtension/v1">
            <gpxtpx:hr>94</gpxtpx:hr>
          </gpxtpx:TrackPointExtension>
        </extensions>
      </trkpt>
      <trkpt lat="45.73014" lon="3.06426">
        <ele>581.20001220703</ele>
        <time>2024-05-26T12:47:21.000Z</time>
        <extensions>
          <gpxtpx:TrackPointExtension xmlns:gpxtpx="http://www.garmin.com/xmlschemas/TrackPointExtension/v1">
            <gpxtpx:hr>96</gpxtpx:hr>
          </gpxtpx:TrackPointExtension>
        </extensions>
      </trkpt>
      <trkpt lat="45.73036" lon="3.06416">
        <ele>580.20001220703</ele>
        <time>2024-05-26T12:47:25.000Z</time>
        <extensions>
          <gpxtpx:TrackPointExtension xmlns:gpxtpx="http://www.garmin.com/xmlschemas/TrackPointExtension/v1">
            <gpxtpx:hr>98</gpxtpx:hr>
          </gpxtpx:TrackPointExtension>
        </extensions>
      </trkpt>
      <trkpt lat="45.73053" lon="3.06409">
        <ele>579.59997558594</ele>
        <time>2024-05-26T12:47:28.000Z</time>
        <extensions>
          <gpxtpx:TrackPointExtension xmlns:gpxtpx="http://www.garmin.com/xmlschemas/TrackPointExtension/v1">
            <gpxtpx:hr>99</gpxtpx:hr>
          </gpxtpx:TrackPointExtension>
        </extensions>
      </trkpt>
      <trkpt lat="45.73059" lon="3.06407">
        <ele>579.20001220703</ele>
        <time>2024-05-26T12:47:29.000Z</time>
        <extensions>
          <gpxtpx:TrackPointExtension xmlns:gpxtpx="http://www.garmin.com/xmlschemas/TrackPointExtension/v1">
            <gpxtpx:hr>98</gpxtpx:hr>
          </gpxtpx:TrackPointExtension>
        </extensions>
      </trkpt>
      <trkpt lat="45.73072" lon="3.064">
        <ele>577.79998779297</ele>
        <time>2024-05-26T12:47:31.000Z</time>
        <extensions>
          <gpxtpx:TrackPointExtension xmlns:gpxtpx="http://www.garmin.com/xmlschemas/TrackPointExtension/v1">
            <gpxtpx:hr>99</gpxtpx:hr>
          </gpxtpx:TrackPointExtension>
        </extensions>
      </trkpt>
      <trkpt lat="45.73092" lon="3.06393">
        <ele>577.59997558594</ele>
        <time>2024-05-26T12:47:34.000Z</time>
        <extensions>
          <gpxtpx:TrackPointExtension xmlns:gpxtpx="http://www.garmin.com/xmlschemas/TrackPointExtension/v1">
            <gpxtpx:hr>100</gpxtpx:hr>
          </gpxtpx:TrackPointExtension>
        </extensions>
      </trkpt>
      <trkpt lat="45.73099" lon="3.0639">
        <ele>577.40002441406</ele>
        <time>2024-05-26T12:47:35.000Z</time>
        <extensions>
          <gpxtpx:TrackPointExtension xmlns:gpxtpx="http://www.garmin.com/xmlschemas/TrackPointExtension/v1">
            <gpxtpx:hr>100</gpxtpx:hr>
          </gpxtpx:TrackPointExtension>
        </extensions>
      </trkpt>
      <trkpt lat="45.73111" lon="3.06383">
        <ele>576.79998779297</ele>
        <time>2024-05-26T12:47:37.000Z</time>
        <extensions>
          <gpxtpx:TrackPointExtension xmlns:gpxtpx="http://www.garmin.com/xmlschemas/TrackPointExtension/v1">
            <gpxtpx:hr>100</gpxtpx:hr>
          </gpxtpx:TrackPointExtension>
        </extensions>
      </trkpt>
      <trkpt lat="45.73154" lon="3.06368">
        <ele>575.79998779297</ele>
        <time>2024-05-26T12:47:43.000Z</time>
        <extensions>
          <gpxtpx:TrackPointExtension xmlns:gpxtpx="http://www.garmin.com/xmlschemas/TrackPointExtension/v1">
            <gpxtpx:hr>100</gpxtpx:hr>
          </gpxtpx:TrackPointExtension>
        </extensions>
      </trkpt>
      <trkpt lat="45.73194" lon="3.06365">
        <ele>574.20001220703</ele>
        <time>2024-05-26T12:47:48.000Z</time>
        <extensions>
          <gpxtpx:TrackPointExtension xmlns:gpxtpx="http://www.garmin.com/xmlschemas/TrackPointExtension/v1">
            <gpxtpx:hr>99</gpxtpx:hr>
          </gpxtpx:TrackPointExtension>
        </extensions>
      </trkpt>
      <trkpt lat="45.73202" lon="3.06365">
        <ele>573</ele>
        <time>2024-05-26T12:47:49.000Z</time>
        <extensions>
          <gpxtpx:TrackPointExtension xmlns:gpxtpx="http://www.garmin.com/xmlschemas/TrackPointExtension/v1">
            <gpxtpx:hr>100</gpxtpx:hr>
          </gpxtpx:TrackPointExtension>
        </extensions>
      </trkpt>
      <trkpt lat="45.73218" lon="3.06367">
        <ele>571.79998779297</ele>
        <time>2024-05-26T12:47:51.000Z</time>
        <extensions>
          <gpxtpx:TrackPointExtension xmlns:gpxtpx="http://www.garmin.com/xmlschemas/TrackPointExtension/v1">
            <gpxtpx:hr>99</gpxtpx:hr>
          </gpxtpx:TrackPointExtension>
        </extensions>
      </trkpt>
      <trkpt lat="45.73249" lon="3.06375">
        <ele>570.59997558594</ele>
        <time>2024-05-26T12:47:55.000Z</time>
        <extensions>
          <gpxtpx:TrackPointExtension xmlns:gpxtpx="http://www.garmin.com/xmlschemas/TrackPointExtension/v1">
            <gpxtpx:hr>97</gpxtpx:hr>
          </gpxtpx:TrackPointExtension>
        </extensions>
      </trkpt>
      <trkpt lat="45.73265" lon="3.06379">
        <ele>569</ele>
        <time>2024-05-26T12:47:57.000Z</time>
        <extensions>
          <gpxtpx:TrackPointExtension xmlns:gpxtpx="http://www.garmin.com/xmlschemas/TrackPointExtension/v1">
            <gpxtpx:hr>94</gpxtpx:hr>
          </gpxtpx:TrackPointExtension>
        </extensions>
      </trkpt>
      <trkpt lat="45.73289" lon="3.06384">
        <ele>568.20001220703</ele>
        <time>2024-05-26T12:48:00.000Z</time>
        <extensions>
          <gpxtpx:TrackPointExtension xmlns:gpxtpx="http://www.garmin.com/xmlschemas/TrackPointExtension/v1">
            <gpxtpx:hr>90</gpxtpx:hr>
          </gpxtpx:TrackPointExtension>
        </extensions>
      </trkpt>
      <trkpt lat="45.73297" lon="3.06386">
        <ele>568</ele>
        <time>2024-05-26T12:48:01.000Z</time>
        <extensions>
          <gpxtpx:TrackPointExtension xmlns:gpxtpx="http://www.garmin.com/xmlschemas/TrackPointExtension/v1">
            <gpxtpx:hr>90</gpxtpx:hr>
          </gpxtpx:TrackPointExtension>
        </extensions>
      </trkpt>
      <trkpt lat="45.73313" lon="3.0639">
        <ele>567.40002441406</ele>
        <time>2024-05-26T12:48:03.000Z</time>
        <extensions>
          <gpxtpx:TrackPointExtension xmlns:gpxtpx="http://www.garmin.com/xmlschemas/TrackPointExtension/v1">
            <gpxtpx:hr>87</gpxtpx:hr>
          </gpxtpx:TrackPointExtension>
        </extensions>
      </trkpt>
      <trkpt lat="45.73329" lon="3.06393">
        <ele>566.79998779297</ele>
        <time>2024-05-26T12:48:05.000Z</time>
        <extensions>
          <gpxtpx:TrackPointExtension xmlns:gpxtpx="http://www.garmin.com/xmlschemas/TrackPointExtension/v1">
            <gpxtpx:hr>86</gpxtpx:hr>
          </gpxtpx:TrackPointExtension>
        </extensions>
      </trkpt>
      <trkpt lat="45.73349" lon="3.06399">
        <ele>565.79998779297</ele>
        <time>2024-05-26T12:48:08.000Z</time>
        <extensions>
          <gpxtpx:TrackPointExtension xmlns:gpxtpx="http://www.garmin.com/xmlschemas/TrackPointExtension/v1">
            <gpxtpx:hr>84</gpxtpx:hr>
          </gpxtpx:TrackPointExtension>
        </extensions>
      </trkpt>
      <trkpt lat="45.73367" lon="3.06403">
        <ele>557.5</ele>
      </trkpt>
      <trkpt lat="45.73376" lon="3.06405">
        <ele>557.4</ele>
      </trkpt>
      <trkpt lat="45.73388" lon="3.06396">
        <ele>557.8</ele>
      </trkpt>
      <trkpt lat="45.734" lon="3.06392">
        <ele>557.8</ele>
      </trkpt>
      <trkpt lat="45.73412" lon="3.0639">
        <ele>557.9</ele>
      </trkpt>
      <trkpt lat="45.73423" lon="3.06388">
        <ele>558.2</ele>
      </trkpt>
      <trkpt lat="45.73432" lon="3.06384">
        <ele>558.5</ele>
      </trkpt>
      <trkpt lat="45.73434" lon="3.06383">
        <ele>561.59997558594</ele>
        <time>2024-05-26T13:02:11.000Z</time>
        <extensions>
          <gpxtpx:TrackPointExtension xmlns:gpxtpx="http://www.garmin.com/xmlschemas/TrackPointExtension/v1">
            <gpxtpx:hr>110</gpxtpx:hr>
          </gpxtpx:TrackPointExtension>
        </extensions>
      </trkpt>
      <trkpt lat="45.73442" lon="3.06377">
        <ele>562.20001220703</ele>
        <time>2024-05-26T13:02:14.000Z</time>
        <extensions>
          <gpxtpx:TrackPointExtension xmlns:gpxtpx="http://www.garmin.com/xmlschemas/TrackPointExtension/v1">
            <gpxtpx:hr>110</gpxtpx:hr>
          </gpxtpx:TrackPointExtension>
        </extensions>
      </trkpt>
      <trkpt lat="45.73463" lon="3.06356">
        <ele>563.20001220703</ele>
        <time>2024-05-26T13:02:22.000Z</time>
        <extensions>
          <gpxtpx:TrackPointExtension xmlns:gpxtpx="http://www.garmin.com/xmlschemas/TrackPointExtension/v1">
            <gpxtpx:hr>111</gpxtpx:hr>
          </gpxtpx:TrackPointExtension>
        </extensions>
      </trkpt>
      <trkpt lat="45.7348" lon="3.06335">
        <ele>564.20001220703</ele>
        <time>2024-05-26T13:02:29.000Z</time>
        <extensions>
          <gpxtpx:TrackPointExtension xmlns:gpxtpx="http://www.garmin.com/xmlschemas/TrackPointExtension/v1">
            <gpxtpx:hr>109</gpxtpx:hr>
          </gpxtpx:TrackPointExtension>
        </extensions>
      </trkpt>
      <trkpt lat="45.73492" lon="3.06322">
        <ele>565</ele>
        <time>2024-05-26T13:02:34.000Z</time>
        <extensions>
          <gpxtpx:TrackPointExtension xmlns:gpxtpx="http://www.garmin.com/xmlschemas/TrackPointExtension/v1">
            <gpxtpx:hr>112</gpxtpx:hr>
          </gpxtpx:TrackPointExtension>
        </extensions>
      </trkpt>
      <trkpt lat="45.73494" lon="3.06319">
        <ele>565.40002441406</ele>
        <time>2024-05-26T13:02:35.000Z</time>
        <extensions>
          <gpxtpx:TrackPointExtension xmlns:gpxtpx="http://www.garmin.com/xmlschemas/TrackPointExtension/v1">
            <gpxtpx:hr>112</gpxtpx:hr>
          </gpxtpx:TrackPointExtension>
        </extensions>
      </trkpt>
      <trkpt lat="45.73496" lon="3.06316">
        <ele>565.59997558594</ele>
        <time>2024-05-26T13:02:36.000Z</time>
        <extensions>
          <gpxtpx:TrackPointExtension xmlns:gpxtpx="http://www.garmin.com/xmlschemas/TrackPointExtension/v1">
            <gpxtpx:hr>112</gpxtpx:hr>
          </gpxtpx:TrackPointExtension>
        </extensions>
      </trkpt>
      <trkpt lat="45.73505" lon="3.06303">
        <ele>566.40002441406</ele>
        <time>2024-05-26T13:02:41.000Z</time>
        <extensions>
          <gpxtpx:TrackPointExtension xmlns:gpxtpx="http://www.garmin.com/xmlschemas/TrackPointExtension/v1">
            <gpxtpx:hr>112</gpxtpx:hr>
          </gpxtpx:TrackPointExtension>
        </extensions>
      </trkpt>
      <trkpt lat="45.73507" lon="3.063">
        <ele>566.59997558594</ele>
        <time>2024-05-26T13:02:42.000Z</time>
        <extensions>
          <gpxtpx:TrackPointExtension xmlns:gpxtpx="http://www.garmin.com/xmlschemas/TrackPointExtension/v1">
            <gpxtpx:hr>112</gpxtpx:hr>
          </gpxtpx:TrackPointExtension>
        </extensions>
      </trkpt>
      <trkpt lat="45.73518" lon="3.06281">
        <ele>567.40002441406</ele>
        <time>2024-05-26T13:02:49.000Z</time>
        <extensions>
          <gpxtpx:TrackPointExtension xmlns:gpxtpx="http://www.garmin.com/xmlschemas/TrackPointExtension/v1">
            <gpxtpx:hr>109</gpxtpx:hr>
          </gpxtpx:TrackPointExtension>
        </extensions>
      </trkpt>
      <trkpt lat="45.73529" lon="3.06268">
        <ele>568.40002441406</ele>
        <time>2024-05-26T13:02:55.000Z</time>
        <extensions>
          <gpxtpx:TrackPointExtension xmlns:gpxtpx="http://www.garmin.com/xmlschemas/TrackPointExtension/v1">
            <gpxtpx:hr>109</gpxtpx:hr>
          </gpxtpx:TrackPointExtension>
        </extensions>
      </trkpt>
      <trkpt lat="45.73531" lon="3.06266">
        <ele>568.79998779297</ele>
        <time>2024-05-26T13:02:56.000Z</time>
        <extensions>
          <gpxtpx:TrackPointExtension xmlns:gpxtpx="http://www.garmin.com/xmlschemas/TrackPointExtension/v1">
            <gpxtpx:hr>109</gpxtpx:hr>
          </gpxtpx:TrackPointExtension>
        </extensions>
      </trkpt>
      <trkpt lat="45.73541" lon="3.06258">
        <ele>569.79998779297</ele>
        <time>2024-05-26T13:03:01.000Z</time>
        <extensions>
          <gpxtpx:TrackPointExtension xmlns:gpxtpx="http://www.garmin.com/xmlschemas/TrackPointExtension/v1">
            <gpxtpx:hr>109</gpxtpx:hr>
          </gpxtpx:TrackPointExtension>
        </extensions>
      </trkpt>
      <trkpt lat="45.73542" lon="3.06257">
        <ele>570</ele>
        <time>2024-05-26T13:03:02.000Z</time>
        <extensions>
          <gpxtpx:TrackPointExtension xmlns:gpxtpx="http://www.garmin.com/xmlschemas/TrackPointExtension/v1">
            <gpxtpx:hr>110</gpxtpx:hr>
          </gpxtpx:TrackPointExtension>
        </extensions>
      </trkpt>
      <trkpt lat="45.73552" lon="3.06254">
        <ele>571</ele>
        <time>2024-05-26T13:03:07.000Z</time>
        <extensions>
          <gpxtpx:TrackPointExtension xmlns:gpxtpx="http://www.garmin.com/xmlschemas/TrackPointExtension/v1">
            <gpxtpx:hr>110</gpxtpx:hr>
          </gpxtpx:TrackPointExtension>
        </extensions>
      </trkpt>
      <trkpt lat="45.73564" lon="3.06255">
        <ele>571.40002441406</ele>
        <time>2024-05-26T13:03:12.000Z</time>
        <extensions>
          <gpxtpx:TrackPointExtension xmlns:gpxtpx="http://www.garmin.com/xmlschemas/TrackPointExtension/v1">
            <gpxtpx:hr>108</gpxtpx:hr>
          </gpxtpx:TrackPointExtension>
        </extensions>
      </trkpt>
      <trkpt lat="45.73566" lon="3.06255">
        <ele>571.59997558594</ele>
        <time>2024-05-26T13:03:13.000Z</time>
        <extensions>
          <gpxtpx:TrackPointExtension xmlns:gpxtpx="http://www.garmin.com/xmlschemas/TrackPointExtension/v1">
            <gpxtpx:hr>109</gpxtpx:hr>
          </gpxtpx:TrackPointExtension>
        </extensions>
      </trkpt>
      <trkpt lat="45.7357" lon="3.06255">
        <ele>572</ele>
        <time>2024-05-26T13:03:15.000Z</time>
        <extensions>
          <gpxtpx:TrackPointExtension xmlns:gpxtpx="http://www.garmin.com/xmlschemas/TrackPointExtension/v1">
            <gpxtpx:hr>109</gpxtpx:hr>
          </gpxtpx:TrackPointExtension>
        </extensions>
      </trkpt>
      <trkpt lat="45.73582" lon="3.06253">
        <ele>573.20001220703</ele>
        <time>2024-05-26T13:03:20.000Z</time>
        <extensions>
          <gpxtpx:TrackPointExtension xmlns:gpxtpx="http://www.garmin.com/xmlschemas/TrackPointExtension/v1">
            <gpxtpx:hr>111</gpxtpx:hr>
          </gpxtpx:TrackPointExtension>
        </extensions>
      </trkpt>
      <trkpt lat="45.73588" lon="3.06253">
        <ele>573.59997558594</ele>
        <time>2024-05-26T13:03:23.000Z</time>
        <extensions>
          <gpxtpx:TrackPointExtension xmlns:gpxtpx="http://www.garmin.com/xmlschemas/TrackPointExtension/v1">
            <gpxtpx:hr>111</gpxtpx:hr>
          </gpxtpx:TrackPointExtension>
        </extensions>
      </trkpt>
      <trkpt lat="45.73595" lon="3.06251">
        <ele>573.79998779297</ele>
        <time>2024-05-26T13:03:26.000Z</time>
        <extensions>
          <gpxtpx:TrackPointExtension xmlns:gpxtpx="http://www.garmin.com/xmlschemas/TrackPointExtension/v1">
            <gpxtpx:hr>114</gpxtpx:hr>
          </gpxtpx:TrackPointExtension>
        </extensions>
      </trkpt>
      <trkpt lat="45.73599" lon="3.06249">
        <ele>574.20001220703</ele>
        <time>2024-05-26T13:03:28.000Z</time>
        <extensions>
          <gpxtpx:TrackPointExtension xmlns:gpxtpx="http://www.garmin.com/xmlschemas/TrackPointExtension/v1">
            <gpxtpx:hr>115</gpxtpx:hr>
          </gpxtpx:TrackPointExtension>
        </extensions>
      </trkpt>
      <trkpt lat="45.7361" lon="3.06246">
        <ele>574.79998779297</ele>
        <time>2024-05-26T13:03:33.000Z</time>
        <extensions>
          <gpxtpx:TrackPointExtension xmlns:gpxtpx="http://www.garmin.com/xmlschemas/TrackPointExtension/v1">
            <gpxtpx:hr>113</gpxtpx:hr>
          </gpxtpx:TrackPointExtension>
        </extensions>
      </trkpt>
      <trkpt lat="45.73616" lon="3.06245">
        <ele>575.40002441406</ele>
        <time>2024-05-26T13:03:36.000Z</time>
        <extensions>
          <gpxtpx:TrackPointExtension xmlns:gpxtpx="http://www.garmin.com/xmlschemas/TrackPointExtension/v1">
            <gpxtpx:hr>111</gpxtpx:hr>
          </gpxtpx:TrackPointExtension>
        </extensions>
      </trkpt>
      <trkpt lat="45.73633" lon="3.06239">
        <ele>576.40002441406</ele>
        <time>2024-05-26T13:03:44.000Z</time>
        <extensions>
          <gpxtpx:TrackPointExtension xmlns:gpxtpx="http://www.garmin.com/xmlschemas/TrackPointExtension/v1">
            <gpxtpx:hr>110</gpxtpx:hr>
          </gpxtpx:TrackPointExtension>
        </extensions>
      </trkpt>
      <trkpt lat="45.73649" lon="3.06233">
        <ele>577.40002441406</ele>
        <time>2024-05-26T13:03:52.000Z</time>
        <extensions>
          <gpxtpx:TrackPointExtension xmlns:gpxtpx="http://www.garmin.com/xmlschemas/TrackPointExtension/v1">
            <gpxtpx:hr>110</gpxtpx:hr>
          </gpxtpx:TrackPointExtension>
        </extensions>
      </trkpt>
      <trkpt lat="45.73661" lon="3.06228">
        <ele>578.40002441406</ele>
        <time>2024-05-26T13:03:58.000Z</time>
        <extensions>
          <gpxtpx:TrackPointExtension xmlns:gpxtpx="http://www.garmin.com/xmlschemas/TrackPointExtension/v1">
            <gpxtpx:hr>111</gpxtpx:hr>
          </gpxtpx:TrackPointExtension>
        </extensions>
      </trkpt>
      <trkpt lat="45.73669" lon="3.06223">
        <ele>579.20001220703</ele>
        <time>2024-05-26T13:04:02.000Z</time>
        <extensions>
          <gpxtpx:TrackPointExtension xmlns:gpxtpx="http://www.garmin.com/xmlschemas/TrackPointExtension/v1">
            <gpxtpx:hr>111</gpxtpx:hr>
          </gpxtpx:TrackPointExtension>
        </extensions>
      </trkpt>
      <trkpt lat="45.73673" lon="3.06221">
        <ele>579.59997558594</ele>
        <time>2024-05-26T13:04:04.000Z</time>
        <extensions>
          <gpxtpx:TrackPointExtension xmlns:gpxtpx="http://www.garmin.com/xmlschemas/TrackPointExtension/v1">
            <gpxtpx:hr>111</gpxtpx:hr>
          </gpxtpx:TrackPointExtension>
        </extensions>
      </trkpt>
      <trkpt lat="45.73685" lon="3.06212">
        <ele>580.59997558594</ele>
        <time>2024-05-26T13:04:10.000Z</time>
        <extensions>
          <gpxtpx:TrackPointExtension xmlns:gpxtpx="http://www.garmin.com/xmlschemas/TrackPointExtension/v1">
            <gpxtpx:hr>111</gpxtpx:hr>
          </gpxtpx:TrackPointExtension>
        </extensions>
      </trkpt>
      <trkpt lat="45.73687" lon="3.06209">
        <ele>580.79998779297</ele>
        <time>2024-05-26T13:04:11.000Z</time>
        <extensions>
          <gpxtpx:TrackPointExtension xmlns:gpxtpx="http://www.garmin.com/xmlschemas/TrackPointExtension/v1">
            <gpxtpx:hr>111</gpxtpx:hr>
          </gpxtpx:TrackPointExtension>
        </extensions>
      </trkpt>
      <trkpt lat="45.73695" lon="3.06192">
        <ele>581.59997558594</ele>
        <time>2024-05-26T13:04:17.000Z</time>
        <extensions>
          <gpxtpx:TrackPointExtension xmlns:gpxtpx="http://www.garmin.com/xmlschemas/TrackPointExtension/v1">
            <gpxtpx:hr>109</gpxtpx:hr>
          </gpxtpx:TrackPointExtension>
        </extensions>
      </trkpt>
      <trkpt lat="45.73697" lon="3.06183">
        <ele>582</ele>
        <time>2024-05-26T13:04:20.000Z</time>
        <extensions>
          <gpxtpx:TrackPointExtension xmlns:gpxtpx="http://www.garmin.com/xmlschemas/TrackPointExtension/v1">
            <gpxtpx:hr>108</gpxtpx:hr>
          </gpxtpx:TrackPointExtension>
        </extensions>
      </trkpt>
      <trkpt lat="45.737" lon="3.06171">
        <ele>582.79998779297</ele>
        <time>2024-05-26T13:04:24.000Z</time>
        <extensions>
          <gpxtpx:TrackPointExtension xmlns:gpxtpx="http://www.garmin.com/xmlschemas/TrackPointExtension/v1">
            <gpxtpx:hr>109</gpxtpx:hr>
          </gpxtpx:TrackPointExtension>
        </extensions>
      </trkpt>
      <trkpt lat="45.73701" lon="3.06158">
        <ele>583.40002441406</ele>
        <time>2024-05-26T13:04:28.000Z</time>
        <extensions>
          <gpxtpx:TrackPointExtension xmlns:gpxtpx="http://www.garmin.com/xmlschemas/TrackPointExtension/v1">
            <gpxtpx:hr>110</gpxtpx:hr>
          </gpxtpx:TrackPointExtension>
        </extensions>
      </trkpt>
      <trkpt lat="45.73704" lon="3.06149">
        <ele>584</ele>
        <time>2024-05-26T13:04:31.000Z</time>
        <extensions>
          <gpxtpx:TrackPointExtension xmlns:gpxtpx="http://www.garmin.com/xmlschemas/TrackPointExtension/v1">
            <gpxtpx:hr>111</gpxtpx:hr>
          </gpxtpx:TrackPointExtension>
        </extensions>
      </trkpt>
      <trkpt lat="45.7371" lon="3.06133">
        <ele>585</ele>
        <time>2024-05-26T13:04:37.000Z</time>
        <extensions>
          <gpxtpx:TrackPointExtension xmlns:gpxtpx="http://www.garmin.com/xmlschemas/TrackPointExtension/v1">
            <gpxtpx:hr>110</gpxtpx:hr>
          </gpxtpx:TrackPointExtension>
        </extensions>
      </trkpt>
      <trkpt lat="45.73711" lon="3.0613">
        <ele>585.20001220703</ele>
        <time>2024-05-26T13:04:38.000Z</time>
        <extensions>
          <gpxtpx:TrackPointExtension xmlns:gpxtpx="http://www.garmin.com/xmlschemas/TrackPointExtension/v1">
            <gpxtpx:hr>110</gpxtpx:hr>
          </gpxtpx:TrackPointExtension>
        </extensions>
      </trkpt>
      <trkpt lat="45.73721" lon="3.06115">
        <ele>586.40002441406</ele>
        <time>2024-05-26T13:04:45.000Z</time>
        <extensions>
          <gpxtpx:TrackPointExtension xmlns:gpxtpx="http://www.garmin.com/xmlschemas/TrackPointExtension/v1">
            <gpxtpx:hr>111</gpxtpx:hr>
          </gpxtpx:TrackPointExtension>
        </extensions>
      </trkpt>
      <trkpt lat="45.73734" lon="3.06105">
        <ele>587.59997558594</ele>
        <time>2024-05-26T13:04:52.000Z</time>
        <extensions>
          <gpxtpx:TrackPointExtension xmlns:gpxtpx="http://www.garmin.com/xmlschemas/TrackPointExtension/v1">
            <gpxtpx:hr>110</gpxtpx:hr>
          </gpxtpx:TrackPointExtension>
        </extensions>
      </trkpt>
      <trkpt lat="45.7374" lon="3.061">
        <ele>588.20001220703</ele>
        <time>2024-05-26T13:04:55.000Z</time>
        <extensions>
          <gpxtpx:TrackPointExtension xmlns:gpxtpx="http://www.garmin.com/xmlschemas/TrackPointExtension/v1">
            <gpxtpx:hr>111</gpxtpx:hr>
          </gpxtpx:TrackPointExtension>
        </extensions>
      </trkpt>
      <trkpt lat="45.73746" lon="3.06096">
        <ele>588.59997558594</ele>
        <time>2024-05-26T13:04:58.000Z</time>
        <extensions>
          <gpxtpx:TrackPointExtension xmlns:gpxtpx="http://www.garmin.com/xmlschemas/TrackPointExtension/v1">
            <gpxtpx:hr>110</gpxtpx:hr>
          </gpxtpx:TrackPointExtension>
        </extensions>
      </trkpt>
      <trkpt lat="45.73756" lon="3.06087">
        <ele>589.40002441406</ele>
        <time>2024-05-26T13:05:04.000Z</time>
        <extensions>
          <gpxtpx:TrackPointExtension xmlns:gpxtpx="http://www.garmin.com/xmlschemas/TrackPointExtension/v1">
            <gpxtpx:hr>113</gpxtpx:hr>
          </gpxtpx:TrackPointExtension>
        </extensions>
      </trkpt>
      <trkpt lat="45.73757" lon="3.06085">
        <ele>589.59997558594</ele>
        <time>2024-05-26T13:05:05.000Z</time>
        <extensions>
          <gpxtpx:TrackPointExtension xmlns:gpxtpx="http://www.garmin.com/xmlschemas/TrackPointExtension/v1">
            <gpxtpx:hr>113</gpxtpx:hr>
          </gpxtpx:TrackPointExtension>
        </extensions>
      </trkpt>
      <trkpt lat="45.73759" lon="3.06084">
        <ele>589.59997558594</ele>
        <time>2024-05-26T13:05:06.000Z</time>
        <extensions>
          <gpxtpx:TrackPointExtension xmlns:gpxtpx="http://www.garmin.com/xmlschemas/TrackPointExtension/v1">
            <gpxtpx:hr>113</gpxtpx:hr>
          </gpxtpx:TrackPointExtension>
        </extensions>
      </trkpt>
      <trkpt lat="45.73775" lon="3.06076">
        <ele>590.79998779297</ele>
        <time>2024-05-26T13:05:14.000Z</time>
        <extensions>
          <gpxtpx:TrackPointExtension xmlns:gpxtpx="http://www.garmin.com/xmlschemas/TrackPointExtension/v1">
            <gpxtpx:hr>115</gpxtpx:hr>
          </gpxtpx:TrackPointExtension>
        </extensions>
      </trkpt>
      <trkpt lat="45.73777" lon="3.06075">
        <ele>591</ele>
        <time>2024-05-26T13:05:15.000Z</time>
        <extensions>
          <gpxtpx:TrackPointExtension xmlns:gpxtpx="http://www.garmin.com/xmlschemas/TrackPointExtension/v1">
            <gpxtpx:hr>116</gpxtpx:hr>
          </gpxtpx:TrackPointExtension>
        </extensions>
      </trkpt>
      <trkpt lat="45.73785" lon="3.06071">
        <ele>591.79998779297</ele>
        <time>2024-05-26T13:05:19.000Z</time>
        <extensions>
          <gpxtpx:TrackPointExtension xmlns:gpxtpx="http://www.garmin.com/xmlschemas/TrackPointExtension/v1">
            <gpxtpx:hr>116</gpxtpx:hr>
          </gpxtpx:TrackPointExtension>
        </extensions>
      </trkpt>
      <trkpt lat="45.73795" lon="3.06065">
        <ele>592.59997558594</ele>
        <time>2024-05-26T13:05:24.000Z</time>
        <extensions>
          <gpxtpx:TrackPointExtension xmlns:gpxtpx="http://www.garmin.com/xmlschemas/TrackPointExtension/v1">
            <gpxtpx:hr>116</gpxtpx:hr>
          </gpxtpx:TrackPointExtension>
        </extensions>
      </trkpt>
      <trkpt lat="45.738" lon="3.06063">
        <ele>593</ele>
        <time>2024-05-26T13:05:26.000Z</time>
        <extensions>
          <gpxtpx:TrackPointExtension xmlns:gpxtpx="http://www.garmin.com/xmlschemas/TrackPointExtension/v1">
            <gpxtpx:hr>116</gpxtpx:hr>
          </gpxtpx:TrackPointExtension>
        </extensions>
      </trkpt>
      <trkpt lat="45.73813" lon="3.06056">
        <ele>594</ele>
        <time>2024-05-26T13:05:32.000Z</time>
        <extensions>
          <gpxtpx:TrackPointExtension xmlns:gpxtpx="http://www.garmin.com/xmlschemas/TrackPointExtension/v1">
            <gpxtpx:hr>117</gpxtpx:hr>
          </gpxtpx:TrackPointExtension>
        </extensions>
      </trkpt>
      <trkpt lat="45.73825" lon="3.06049">
        <ele>595.20001220703</ele>
        <time>2024-05-26T13:05:38.000Z</time>
        <extensions>
          <gpxtpx:TrackPointExtension xmlns:gpxtpx="http://www.garmin.com/xmlschemas/TrackPointExtension/v1">
            <gpxtpx:hr>117</gpxtpx:hr>
          </gpxtpx:TrackPointExtension>
        </extensions>
      </trkpt>
      <trkpt lat="45.73829" lon="3.06046">
        <ele>595.20001220703</ele>
        <time>2024-05-26T13:05:40.000Z</time>
        <extensions>
          <gpxtpx:TrackPointExtension xmlns:gpxtpx="http://www.garmin.com/xmlschemas/TrackPointExtension/v1">
            <gpxtpx:hr>115</gpxtpx:hr>
          </gpxtpx:TrackPointExtension>
        </extensions>
      </trkpt>
      <trkpt lat="45.73851" lon="3.06034">
        <ele>595.40002441406</ele>
        <time>2024-05-26T13:05:48.000Z</time>
        <extensions>
          <gpxtpx:TrackPointExtension xmlns:gpxtpx="http://www.garmin.com/xmlschemas/TrackPointExtension/v1">
            <gpxtpx:hr>112</gpxtpx:hr>
          </gpxtpx:TrackPointExtension>
        </extensions>
      </trkpt>
      <trkpt lat="45.73871" lon="3.06024">
        <ele>594</ele>
        <time>2024-05-26T13:05:52.000Z</time>
        <extensions>
          <gpxtpx:TrackPointExtension xmlns:gpxtpx="http://www.garmin.com/xmlschemas/TrackPointExtension/v1">
            <gpxtpx:hr>110</gpxtpx:hr>
          </gpxtpx:TrackPointExtension>
        </extensions>
      </trkpt>
      <trkpt lat="45.73877" lon="3.06021">
        <ele>593.40002441406</ele>
        <time>2024-05-26T13:05:53.000Z</time>
        <extensions>
          <gpxtpx:TrackPointExtension xmlns:gpxtpx="http://www.garmin.com/xmlschemas/TrackPointExtension/v1">
            <gpxtpx:hr>110</gpxtpx:hr>
          </gpxtpx:TrackPointExtension>
        </extensions>
      </trkpt>
      <trkpt lat="45.73883" lon="3.06018">
        <ele>592.59997558594</ele>
        <time>2024-05-26T13:05:54.000Z</time>
        <extensions>
          <gpxtpx:TrackPointExtension xmlns:gpxtpx="http://www.garmin.com/xmlschemas/TrackPointExtension/v1">
            <gpxtpx:hr>109</gpxtpx:hr>
          </gpxtpx:TrackPointExtension>
        </extensions>
      </trkpt>
      <trkpt lat="45.73899" lon="3.06011">
        <ele>591.40002441406</ele>
        <time>2024-05-26T13:05:57.000Z</time>
        <extensions>
          <gpxtpx:TrackPointExtension xmlns:gpxtpx="http://www.garmin.com/xmlschemas/TrackPointExtension/v1">
            <gpxtpx:hr>108</gpxtpx:hr>
          </gpxtpx:TrackPointExtension>
        </extensions>
      </trkpt>
      <trkpt lat="45.7391" lon="3.06007">
        <ele>590.20001220703</ele>
        <time>2024-05-26T13:05:59.000Z</time>
        <extensions>
          <gpxtpx:TrackPointExtension xmlns:gpxtpx="http://www.garmin.com/xmlschemas/TrackPointExtension/v1">
            <gpxtpx:hr>108</gpxtpx:hr>
          </gpxtpx:TrackPointExtension>
        </extensions>
      </trkpt>
      <trkpt lat="45.7392" lon="3.06002">
        <ele>589.59997558594</ele>
        <time>2024-05-26T13:06:01.000Z</time>
        <extensions>
          <gpxtpx:TrackPointExtension xmlns:gpxtpx="http://www.garmin.com/xmlschemas/TrackPointExtension/v1">
            <gpxtpx:hr>107</gpxtpx:hr>
          </gpxtpx:TrackPointExtension>
        </extensions>
      </trkpt>
      <trkpt lat="45.73925" lon="3.06">
        <ele>589</ele>
        <time>2024-05-26T13:06:02.000Z</time>
        <extensions>
          <gpxtpx:TrackPointExtension xmlns:gpxtpx="http://www.garmin.com/xmlschemas/TrackPointExtension/v1">
            <gpxtpx:hr>107</gpxtpx:hr>
          </gpxtpx:TrackPointExtension>
        </extensions>
      </trkpt>
      <trkpt lat="45.73948" lon="3.05989">
        <ele>587.59997558594</ele>
        <time>2024-05-26T13:06:06.000Z</time>
        <extensions>
          <gpxtpx:TrackPointExtension xmlns:gpxtpx="http://www.garmin.com/xmlschemas/TrackPointExtension/v1">
            <gpxtpx:hr>106</gpxtpx:hr>
          </gpxtpx:TrackPointExtension>
        </extensions>
      </trkpt>
      <trkpt lat="45.73956" lon="3.05986">
        <ele>587.40002441406</ele>
        <time>2024-05-26T13:06:07.000Z</time>
        <extensions>
          <gpxtpx:TrackPointExtension xmlns:gpxtpx="http://www.garmin.com/xmlschemas/TrackPointExtension/v1">
            <gpxtpx:hr>106</gpxtpx:hr>
          </gpxtpx:TrackPointExtension>
        </extensions>
      </trkpt>
      <trkpt lat="45.73978" lon="3.05975">
        <ele>585.40002441406</ele>
        <time>2024-05-26T13:06:10.000Z</time>
        <extensions>
          <gpxtpx:TrackPointExtension xmlns:gpxtpx="http://www.garmin.com/xmlschemas/TrackPointExtension/v1">
            <gpxtpx:hr>106</gpxtpx:hr>
          </gpxtpx:TrackPointExtension>
        </extensions>
      </trkpt>
      <trkpt lat="45.73993" lon="3.05967">
        <ele>583.79998779297</ele>
        <time>2024-05-26T13:06:12.000Z</time>
        <extensions>
          <gpxtpx:TrackPointExtension xmlns:gpxtpx="http://www.garmin.com/xmlschemas/TrackPointExtension/v1">
            <gpxtpx:hr>106</gpxtpx:hr>
          </gpxtpx:TrackPointExtension>
        </extensions>
      </trkpt>
      <trkpt lat="45.74" lon="3.05964">
        <ele>582.59997558594</ele>
        <time>2024-05-26T13:06:13.000Z</time>
        <extensions>
          <gpxtpx:TrackPointExtension xmlns:gpxtpx="http://www.garmin.com/xmlschemas/TrackPointExtension/v1">
            <gpxtpx:hr>107</gpxtpx:hr>
          </gpxtpx:TrackPointExtension>
        </extensions>
      </trkpt>
      <trkpt lat="45.74023" lon="3.05952">
        <ele>581</ele>
        <time>2024-05-26T13:06:16.000Z</time>
        <extensions>
          <gpxtpx:TrackPointExtension xmlns:gpxtpx="http://www.garmin.com/xmlschemas/TrackPointExtension/v1">
            <gpxtpx:hr>108</gpxtpx:hr>
          </gpxtpx:TrackPointExtension>
        </extensions>
      </trkpt>
      <trkpt lat="45.74048" lon="3.0594">
        <ele>579.79998779297</ele>
        <time>2024-05-26T13:06:19.000Z</time>
        <extensions>
          <gpxtpx:TrackPointExtension xmlns:gpxtpx="http://www.garmin.com/xmlschemas/TrackPointExtension/v1">
            <gpxtpx:hr>107</gpxtpx:hr>
          </gpxtpx:TrackPointExtension>
        </extensions>
      </trkpt>
      <trkpt lat="45.74073" lon="3.05928">
        <ele>578.40002441406</ele>
        <time>2024-05-26T13:06:22.000Z</time>
        <extensions>
          <gpxtpx:TrackPointExtension xmlns:gpxtpx="http://www.garmin.com/xmlschemas/TrackPointExtension/v1">
            <gpxtpx:hr>108</gpxtpx:hr>
          </gpxtpx:TrackPointExtension>
        </extensions>
      </trkpt>
      <trkpt lat="45.74091" lon="3.0592">
        <ele>577.20001220703</ele>
        <time>2024-05-26T13:06:24.000Z</time>
        <extensions>
          <gpxtpx:TrackPointExtension xmlns:gpxtpx="http://www.garmin.com/xmlschemas/TrackPointExtension/v1">
            <gpxtpx:hr>108</gpxtpx:hr>
          </gpxtpx:TrackPointExtension>
        </extensions>
      </trkpt>
      <trkpt lat="45.74109" lon="3.05913">
        <ele>576.40002441406</ele>
        <time>2024-05-26T13:06:26.000Z</time>
        <extensions>
          <gpxtpx:TrackPointExtension xmlns:gpxtpx="http://www.garmin.com/xmlschemas/TrackPointExtension/v1">
            <gpxtpx:hr>109</gpxtpx:hr>
          </gpxtpx:TrackPointExtension>
        </extensions>
      </trkpt>
      <trkpt lat="45.74118" lon="3.05909">
        <ele>576.20001220703</ele>
        <time>2024-05-26T13:06:27.000Z</time>
        <extensions>
          <gpxtpx:TrackPointExtension xmlns:gpxtpx="http://www.garmin.com/xmlschemas/TrackPointExtension/v1">
            <gpxtpx:hr>109</gpxtpx:hr>
          </gpxtpx:TrackPointExtension>
        </extensions>
      </trkpt>
      <trkpt lat="45.74136" lon="3.05906">
        <ele>574.59997558594</ele>
        <time>2024-05-26T13:06:29.000Z</time>
        <extensions>
          <gpxtpx:TrackPointExtension xmlns:gpxtpx="http://www.garmin.com/xmlschemas/TrackPointExtension/v1">
            <gpxtpx:hr>109</gpxtpx:hr>
          </gpxtpx:TrackPointExtension>
        </extensions>
      </trkpt>
      <trkpt lat="45.74145" lon="3.05906">
        <ele>574.40002441406</ele>
        <time>2024-05-26T13:06:30.000Z</time>
        <extensions>
          <gpxtpx:TrackPointExtension xmlns:gpxtpx="http://www.garmin.com/xmlschemas/TrackPointExtension/v1">
            <gpxtpx:hr>109</gpxtpx:hr>
          </gpxtpx:TrackPointExtension>
        </extensions>
      </trkpt>
      <trkpt lat="45.74163" lon="3.05908">
        <ele>574</ele>
        <time>2024-05-26T13:06:32.000Z</time>
        <extensions>
          <gpxtpx:TrackPointExtension xmlns:gpxtpx="http://www.garmin.com/xmlschemas/TrackPointExtension/v1">
            <gpxtpx:hr>109</gpxtpx:hr>
          </gpxtpx:TrackPointExtension>
        </extensions>
      </trkpt>
      <trkpt lat="45.74172" lon="3.05909">
        <ele>573.59997558594</ele>
        <time>2024-05-26T13:06:33.000Z</time>
        <extensions>
          <gpxtpx:TrackPointExtension xmlns:gpxtpx="http://www.garmin.com/xmlschemas/TrackPointExtension/v1">
            <gpxtpx:hr>109</gpxtpx:hr>
          </gpxtpx:TrackPointExtension>
        </extensions>
      </trkpt>
      <trkpt lat="45.7418" lon="3.05909">
        <ele>573.40002441406</ele>
        <time>2024-05-26T13:06:34.000Z</time>
        <extensions>
          <gpxtpx:TrackPointExtension xmlns:gpxtpx="http://www.garmin.com/xmlschemas/TrackPointExtension/v1">
            <gpxtpx:hr>109</gpxtpx:hr>
          </gpxtpx:TrackPointExtension>
        </extensions>
      </trkpt>
      <trkpt lat="45.74197" lon="3.05905">
        <ele>572.79998779297</ele>
        <time>2024-05-26T13:06:36.000Z</time>
        <extensions>
          <gpxtpx:TrackPointExtension xmlns:gpxtpx="http://www.garmin.com/xmlschemas/TrackPointExtension/v1">
            <gpxtpx:hr>109</gpxtpx:hr>
          </gpxtpx:TrackPointExtension>
        </extensions>
      </trkpt>
      <trkpt lat="45.74214" lon="3.059">
        <ele>572.40002441406</ele>
        <time>2024-05-26T13:06:38.000Z</time>
        <extensions>
          <gpxtpx:TrackPointExtension xmlns:gpxtpx="http://www.garmin.com/xmlschemas/TrackPointExtension/v1">
            <gpxtpx:hr>109</gpxtpx:hr>
          </gpxtpx:TrackPointExtension>
        </extensions>
      </trkpt>
      <trkpt lat="45.74239" lon="3.05896">
        <ele>571.79998779297</ele>
        <time>2024-05-26T13:06:41.000Z</time>
        <extensions>
          <gpxtpx:TrackPointExtension xmlns:gpxtpx="http://www.garmin.com/xmlschemas/TrackPointExtension/v1">
            <gpxtpx:hr>108</gpxtpx:hr>
          </gpxtpx:TrackPointExtension>
        </extensions>
      </trkpt>
      <trkpt lat="45.74247" lon="3.05897">
        <ele>571.20001220703</ele>
        <time>2024-05-26T13:06:42.000Z</time>
        <extensions>
          <gpxtpx:TrackPointExtension xmlns:gpxtpx="http://www.garmin.com/xmlschemas/TrackPointExtension/v1">
            <gpxtpx:hr>107</gpxtpx:hr>
          </gpxtpx:TrackPointExtension>
        </extensions>
      </trkpt>
      <trkpt lat="45.74263" lon="3.05907">
        <ele>570.20001220703</ele>
        <time>2024-05-26T13:06:44.000Z</time>
        <extensions>
          <gpxtpx:TrackPointExtension xmlns:gpxtpx="http://www.garmin.com/xmlschemas/TrackPointExtension/v1">
            <gpxtpx:hr>106</gpxtpx:hr>
          </gpxtpx:TrackPointExtension>
        </extensions>
      </trkpt>
      <trkpt lat="45.74293" lon="3.05934">
        <ele>569.20001220703</ele>
        <time>2024-05-26T13:06:48.000Z</time>
        <extensions>
          <gpxtpx:TrackPointExtension xmlns:gpxtpx="http://www.garmin.com/xmlschemas/TrackPointExtension/v1">
            <gpxtpx:hr>105</gpxtpx:hr>
          </gpxtpx:TrackPointExtension>
        </extensions>
      </trkpt>
      <trkpt lat="45.743" lon="3.05938">
        <ele>568.40002441406</ele>
        <time>2024-05-26T13:06:49.000Z</time>
        <extensions>
          <gpxtpx:TrackPointExtension xmlns:gpxtpx="http://www.garmin.com/xmlschemas/TrackPointExtension/v1">
            <gpxtpx:hr>105</gpxtpx:hr>
          </gpxtpx:TrackPointExtension>
        </extensions>
      </trkpt>
      <trkpt lat="45.74308" lon="3.05941">
        <ele>568</ele>
        <time>2024-05-26T13:06:50.000Z</time>
        <extensions>
          <gpxtpx:TrackPointExtension xmlns:gpxtpx="http://www.garmin.com/xmlschemas/TrackPointExtension/v1">
            <gpxtpx:hr>104</gpxtpx:hr>
          </gpxtpx:TrackPointExtension>
        </extensions>
      </trkpt>
      <trkpt lat="45.74324" lon="3.05941">
        <ele>567.59997558594</ele>
        <time>2024-05-26T13:06:52.000Z</time>
        <extensions>
          <gpxtpx:TrackPointExtension xmlns:gpxtpx="http://www.garmin.com/xmlschemas/TrackPointExtension/v1">
            <gpxtpx:hr>104</gpxtpx:hr>
          </gpxtpx:TrackPointExtension>
        </extensions>
      </trkpt>
      <trkpt lat="45.74331" lon="3.05939">
        <ele>567.59997558594</ele>
        <time>2024-05-26T13:06:53.000Z</time>
        <extensions>
          <gpxtpx:TrackPointExtension xmlns:gpxtpx="http://www.garmin.com/xmlschemas/TrackPointExtension/v1">
            <gpxtpx:hr>104</gpxtpx:hr>
          </gpxtpx:TrackPointExtension>
        </extensions>
      </trkpt>
      <trkpt lat="45.74338" lon="3.05934">
        <ele>567.40002441406</ele>
        <time>2024-05-26T13:06:54.000Z</time>
        <extensions>
          <gpxtpx:TrackPointExtension xmlns:gpxtpx="http://www.garmin.com/xmlschemas/TrackPointExtension/v1">
            <gpxtpx:hr>103</gpxtpx:hr>
          </gpxtpx:TrackPointExtension>
        </extensions>
      </trkpt>
      <trkpt lat="45.74355" lon="3.05916">
        <ele>566.20001220703</ele>
        <time>2024-05-26T13:06:57.000Z</time>
        <extensions>
          <gpxtpx:TrackPointExtension xmlns:gpxtpx="http://www.garmin.com/xmlschemas/TrackPointExtension/v1">
            <gpxtpx:hr>104</gpxtpx:hr>
          </gpxtpx:TrackPointExtension>
        </extensions>
      </trkpt>
      <trkpt lat="45.74365" lon="3.05906">
        <ele>565.59997558594</ele>
        <time>2024-05-26T13:06:59.000Z</time>
        <extensions>
          <gpxtpx:TrackPointExtension xmlns:gpxtpx="http://www.garmin.com/xmlschemas/TrackPointExtension/v1">
            <gpxtpx:hr>105</gpxtpx:hr>
          </gpxtpx:TrackPointExtension>
        </extensions>
      </trkpt>
      <trkpt lat="45.7437" lon="3.05904">
        <ele>565.20001220703</ele>
        <time>2024-05-26T13:07:00.000Z</time>
        <extensions>
          <gpxtpx:TrackPointExtension xmlns:gpxtpx="http://www.garmin.com/xmlschemas/TrackPointExtension/v1">
            <gpxtpx:hr>102</gpxtpx:hr>
          </gpxtpx:TrackPointExtension>
        </extensions>
      </trkpt>
      <trkpt lat="45.74374" lon="3.05904">
        <ele>565</ele>
        <time>2024-05-26T13:07:01.000Z</time>
        <extensions>
          <gpxtpx:TrackPointExtension xmlns:gpxtpx="http://www.garmin.com/xmlschemas/TrackPointExtension/v1">
            <gpxtpx:hr>102</gpxtpx:hr>
          </gpxtpx:TrackPointExtension>
        </extensions>
      </trkpt>
      <trkpt lat="45.74381" lon="3.05913">
        <ele>564.59997558594</ele>
        <time>2024-05-26T13:07:03.000Z</time>
        <extensions>
          <gpxtpx:TrackPointExtension xmlns:gpxtpx="http://www.garmin.com/xmlschemas/TrackPointExtension/v1">
            <gpxtpx:hr>100</gpxtpx:hr>
          </gpxtpx:TrackPointExtension>
        </extensions>
      </trkpt>
      <trkpt lat="45.74382" lon="3.05921">
        <ele>564.20001220703</ele>
        <time>2024-05-26T13:07:04.000Z</time>
        <extensions>
          <gpxtpx:TrackPointExtension xmlns:gpxtpx="http://www.garmin.com/xmlschemas/TrackPointExtension/v1">
            <gpxtpx:hr>101</gpxtpx:hr>
          </gpxtpx:TrackPointExtension>
        </extensions>
      </trkpt>
      <trkpt lat="45.74381" lon="3.05929">
        <ele>563.79998779297</ele>
        <time>2024-05-26T13:07:05.000Z</time>
        <extensions>
          <gpxtpx:TrackPointExtension xmlns:gpxtpx="http://www.garmin.com/xmlschemas/TrackPointExtension/v1">
            <gpxtpx:hr>100</gpxtpx:hr>
          </gpxtpx:TrackPointExtension>
        </extensions>
      </trkpt>
      <trkpt lat="45.7438" lon="3.05938">
        <ele>563.20001220703</ele>
        <time>2024-05-26T13:07:06.000Z</time>
        <extensions>
          <gpxtpx:TrackPointExtension xmlns:gpxtpx="http://www.garmin.com/xmlschemas/TrackPointExtension/v1">
            <gpxtpx:hr>100</gpxtpx:hr>
          </gpxtpx:TrackPointExtension>
        </extensions>
      </trkpt>
      <trkpt lat="45.74378" lon="3.05948">
        <ele>562.79998779297</ele>
        <time>2024-05-26T13:07:07.000Z</time>
        <extensions>
          <gpxtpx:TrackPointExtension xmlns:gpxtpx="http://www.garmin.com/xmlschemas/TrackPointExtension/v1">
            <gpxtpx:hr>100</gpxtpx:hr>
          </gpxtpx:TrackPointExtension>
        </extensions>
      </trkpt>
      <trkpt lat="45.74375" lon="3.05958">
        <ele>561.79998779297</ele>
        <time>2024-05-26T13:07:08.000Z</time>
        <extensions>
          <gpxtpx:TrackPointExtension xmlns:gpxtpx="http://www.garmin.com/xmlschemas/TrackPointExtension/v1">
            <gpxtpx:hr>100</gpxtpx:hr>
          </gpxtpx:TrackPointExtension>
        </extensions>
      </trkpt>
      <trkpt lat="45.74366" lon="3.05988">
        <ele>560.40002441406</ele>
        <time>2024-05-26T13:07:11.000Z</time>
        <extensions>
          <gpxtpx:TrackPointExtension xmlns:gpxtpx="http://www.garmin.com/xmlschemas/TrackPointExtension/v1">
            <gpxtpx:hr>100</gpxtpx:hr>
          </gpxtpx:TrackPointExtension>
        </extensions>
      </trkpt>
      <trkpt lat="45.74362" lon="3.05998">
        <ele>560</ele>
        <time>2024-05-26T13:07:12.000Z</time>
        <extensions>
          <gpxtpx:TrackPointExtension xmlns:gpxtpx="http://www.garmin.com/xmlschemas/TrackPointExtension/v1">
            <gpxtpx:hr>100</gpxtpx:hr>
          </gpxtpx:TrackPointExtension>
        </extensions>
      </trkpt>
      <trkpt lat="45.74358" lon="3.06009">
        <ele>559.40002441406</ele>
        <time>2024-05-26T13:07:13.000Z</time>
        <extensions>
          <gpxtpx:TrackPointExtension xmlns:gpxtpx="http://www.garmin.com/xmlschemas/TrackPointExtension/v1">
            <gpxtpx:hr>100</gpxtpx:hr>
          </gpxtpx:TrackPointExtension>
        </extensions>
      </trkpt>
      <trkpt lat="45.74347" lon="3.06041">
        <ele>558</ele>
        <time>2024-05-26T13:07:16.000Z</time>
        <extensions>
          <gpxtpx:TrackPointExtension xmlns:gpxtpx="http://www.garmin.com/xmlschemas/TrackPointExtension/v1">
            <gpxtpx:hr>101</gpxtpx:hr>
          </gpxtpx:TrackPointExtension>
        </extensions>
      </trkpt>
      <trkpt lat="45.74341" lon="3.06064">
        <ele>557.20001220703</ele>
        <time>2024-05-26T13:07:18.000Z</time>
        <extensions>
          <gpxtpx:TrackPointExtension xmlns:gpxtpx="http://www.garmin.com/xmlschemas/TrackPointExtension/v1">
            <gpxtpx:hr>100</gpxtpx:hr>
          </gpxtpx:TrackPointExtension>
        </extensions>
      </trkpt>
      <trkpt lat="45.74339" lon="3.06076">
        <ele>556.79998779297</ele>
        <time>2024-05-26T13:07:19.000Z</time>
        <extensions>
          <gpxtpx:TrackPointExtension xmlns:gpxtpx="http://www.garmin.com/xmlschemas/TrackPointExtension/v1">
            <gpxtpx:hr>100</gpxtpx:hr>
          </gpxtpx:TrackPointExtension>
        </extensions>
      </trkpt>
      <trkpt lat="45.74338" lon="3.06089">
        <ele>556.40002441406</ele>
        <time>2024-05-26T13:07:20.000Z</time>
        <extensions>
          <gpxtpx:TrackPointExtension xmlns:gpxtpx="http://www.garmin.com/xmlschemas/TrackPointExtension/v1">
            <gpxtpx:hr>99</gpxtpx:hr>
          </gpxtpx:TrackPointExtension>
        </extensions>
      </trkpt>
      <trkpt lat="45.74339" lon="3.06114">
        <ele>555.59997558594</ele>
        <time>2024-05-26T13:07:22.000Z</time>
        <extensions>
          <gpxtpx:TrackPointExtension xmlns:gpxtpx="http://www.garmin.com/xmlschemas/TrackPointExtension/v1">
            <gpxtpx:hr>100</gpxtpx:hr>
          </gpxtpx:TrackPointExtension>
        </extensions>
      </trkpt>
      <trkpt lat="45.74342" lon="3.06139">
        <ele>554.40002441406</ele>
        <time>2024-05-26T13:07:24.000Z</time>
        <extensions>
          <gpxtpx:TrackPointExtension xmlns:gpxtpx="http://www.garmin.com/xmlschemas/TrackPointExtension/v1">
            <gpxtpx:hr>101</gpxtpx:hr>
          </gpxtpx:TrackPointExtension>
        </extensions>
      </trkpt>
      <trkpt lat="45.74349" lon="3.06162">
        <ele>554</ele>
        <time>2024-05-26T13:07:26.000Z</time>
        <extensions>
          <gpxtpx:TrackPointExtension xmlns:gpxtpx="http://www.garmin.com/xmlschemas/TrackPointExtension/v1">
            <gpxtpx:hr>103</gpxtpx:hr>
          </gpxtpx:TrackPointExtension>
        </extensions>
      </trkpt>
      <trkpt lat="45.74354" lon="3.06173">
        <ele>554</ele>
        <time>2024-05-26T13:07:27.000Z</time>
        <extensions>
          <gpxtpx:TrackPointExtension xmlns:gpxtpx="http://www.garmin.com/xmlschemas/TrackPointExtension/v1">
            <gpxtpx:hr>102</gpxtpx:hr>
          </gpxtpx:TrackPointExtension>
        </extensions>
      </trkpt>
      <trkpt lat="45.74365" lon="3.06193">
        <ele>552.59997558594</ele>
        <time>2024-05-26T13:07:29.000Z</time>
        <extensions>
          <gpxtpx:TrackPointExtension xmlns:gpxtpx="http://www.garmin.com/xmlschemas/TrackPointExtension/v1">
            <gpxtpx:hr>104</gpxtpx:hr>
          </gpxtpx:TrackPointExtension>
        </extensions>
      </trkpt>
      <trkpt lat="45.74372" lon="3.06203">
        <ele>551.59997558594</ele>
        <time>2024-05-26T13:07:30.000Z</time>
        <extensions>
          <gpxtpx:TrackPointExtension xmlns:gpxtpx="http://www.garmin.com/xmlschemas/TrackPointExtension/v1">
            <gpxtpx:hr>104</gpxtpx:hr>
          </gpxtpx:TrackPointExtension>
        </extensions>
      </trkpt>
      <trkpt lat="45.74392" lon="3.06232">
        <ele>550.20001220703</ele>
        <time>2024-05-26T13:07:33.000Z</time>
        <extensions>
          <gpxtpx:TrackPointExtension xmlns:gpxtpx="http://www.garmin.com/xmlschemas/TrackPointExtension/v1">
            <gpxtpx:hr>104</gpxtpx:hr>
          </gpxtpx:TrackPointExtension>
        </extensions>
      </trkpt>
      <trkpt lat="45.74413" lon="3.06262">
        <ele>548.20001220703</ele>
        <time>2024-05-26T13:07:36.000Z</time>
        <extensions>
          <gpxtpx:TrackPointExtension xmlns:gpxtpx="http://www.garmin.com/xmlschemas/TrackPointExtension/v1">
            <gpxtpx:hr>105</gpxtpx:hr>
          </gpxtpx:TrackPointExtension>
        </extensions>
      </trkpt>
      <trkpt lat="45.74428" lon="3.06281">
        <ele>547</ele>
        <time>2024-05-26T13:07:38.000Z</time>
        <extensions>
          <gpxtpx:TrackPointExtension xmlns:gpxtpx="http://www.garmin.com/xmlschemas/TrackPointExtension/v1">
            <gpxtpx:hr>105</gpxtpx:hr>
          </gpxtpx:TrackPointExtension>
        </extensions>
      </trkpt>
      <trkpt lat="45.74449" lon="3.06309">
        <ele>545.79998779297</ele>
        <time>2024-05-26T13:07:41.000Z</time>
        <extensions>
          <gpxtpx:TrackPointExtension xmlns:gpxtpx="http://www.garmin.com/xmlschemas/TrackPointExtension/v1">
            <gpxtpx:hr>105</gpxtpx:hr>
          </gpxtpx:TrackPointExtension>
        </extensions>
      </trkpt>
      <trkpt lat="45.74463" lon="3.06328">
        <ele>544.59997558594</ele>
        <time>2024-05-26T13:07:43.000Z</time>
        <extensions>
          <gpxtpx:TrackPointExtension xmlns:gpxtpx="http://www.garmin.com/xmlschemas/TrackPointExtension/v1">
            <gpxtpx:hr>106</gpxtpx:hr>
          </gpxtpx:TrackPointExtension>
        </extensions>
      </trkpt>
      <trkpt lat="45.74468" lon="3.06334">
        <ele>544.20001220703</ele>
        <time>2024-05-26T13:07:44.000Z</time>
        <extensions>
          <gpxtpx:TrackPointExtension xmlns:gpxtpx="http://www.garmin.com/xmlschemas/TrackPointExtension/v1">
            <gpxtpx:hr>105</gpxtpx:hr>
          </gpxtpx:TrackPointExtension>
        </extensions>
      </trkpt>
      <trkpt lat="45.74477" lon="3.06345">
        <ele>543.40002441406</ele>
        <time>2024-05-26T13:07:46.000Z</time>
        <extensions>
          <gpxtpx:TrackPointExtension xmlns:gpxtpx="http://www.garmin.com/xmlschemas/TrackPointExtension/v1">
            <gpxtpx:hr>104</gpxtpx:hr>
          </gpxtpx:TrackPointExtension>
        </extensions>
      </trkpt>
      <trkpt lat="45.74479" lon="3.06349">
        <ele>543.40002441406</ele>
        <time>2024-05-26T13:07:47.000Z</time>
        <extensions>
          <gpxtpx:TrackPointExtension xmlns:gpxtpx="http://www.garmin.com/xmlschemas/TrackPointExtension/v1">
            <gpxtpx:hr>104</gpxtpx:hr>
          </gpxtpx:TrackPointExtension>
        </extensions>
      </trkpt>
      <trkpt lat="45.7448" lon="3.0635">
        <ele>543.20001220703</ele>
        <time>2024-05-26T13:07:49.000Z</time>
        <extensions>
          <gpxtpx:TrackPointExtension xmlns:gpxtpx="http://www.garmin.com/xmlschemas/TrackPointExtension/v1">
            <gpxtpx:hr>104</gpxtpx:hr>
          </gpxtpx:TrackPointExtension>
        </extensions>
      </trkpt>
      <trkpt lat="45.74483" lon="3.06351">
        <ele>543.20001220703</ele>
        <time>2024-05-26T13:07:52.000Z</time>
        <extensions>
          <gpxtpx:TrackPointExtension xmlns:gpxtpx="http://www.garmin.com/xmlschemas/TrackPointExtension/v1">
            <gpxtpx:hr>105</gpxtpx:hr>
          </gpxtpx:TrackPointExtension>
        </extensions>
      </trkpt>
      <trkpt lat="45.74498" lon="3.06361">
        <ele>542.59997558594</ele>
        <time>2024-05-26T13:07:57.000Z</time>
        <extensions>
          <gpxtpx:TrackPointExtension xmlns:gpxtpx="http://www.garmin.com/xmlschemas/TrackPointExtension/v1">
            <gpxtpx:hr>103</gpxtpx:hr>
          </gpxtpx:TrackPointExtension>
        </extensions>
      </trkpt>
      <trkpt lat="45.74507" lon="3.06368">
        <ele>542.40002441406</ele>
        <time>2024-05-26T13:07:59.000Z</time>
        <extensions>
          <gpxtpx:TrackPointExtension xmlns:gpxtpx="http://www.garmin.com/xmlschemas/TrackPointExtension/v1">
            <gpxtpx:hr>103</gpxtpx:hr>
          </gpxtpx:TrackPointExtension>
        </extensions>
      </trkpt>
      <trkpt lat="45.74511" lon="3.06373">
        <ele>542</ele>
        <time>2024-05-26T13:08:00.000Z</time>
        <extensions>
          <gpxtpx:TrackPointExtension xmlns:gpxtpx="http://www.garmin.com/xmlschemas/TrackPointExtension/v1">
            <gpxtpx:hr>103</gpxtpx:hr>
          </gpxtpx:TrackPointExtension>
        </extensions>
      </trkpt>
      <trkpt lat="45.74514" lon="3.06378">
        <ele>542</ele>
        <time>2024-05-26T13:08:01.000Z</time>
        <extensions>
          <gpxtpx:TrackPointExtension xmlns:gpxtpx="http://www.garmin.com/xmlschemas/TrackPointExtension/v1">
            <gpxtpx:hr>103</gpxtpx:hr>
          </gpxtpx:TrackPointExtension>
        </extensions>
      </trkpt>
      <trkpt lat="45.74519" lon="3.06391">
        <ele>541.59997558594</ele>
        <time>2024-05-26T13:08:03.000Z</time>
        <extensions>
          <gpxtpx:TrackPointExtension xmlns:gpxtpx="http://www.garmin.com/xmlschemas/TrackPointExtension/v1">
            <gpxtpx:hr>102</gpxtpx:hr>
          </gpxtpx:TrackPointExtension>
        </extensions>
      </trkpt>
      <trkpt lat="45.74523" lon="3.06398">
        <ele>541.20001220703</ele>
        <time>2024-05-26T13:08:04.000Z</time>
        <extensions>
          <gpxtpx:TrackPointExtension xmlns:gpxtpx="http://www.garmin.com/xmlschemas/TrackPointExtension/v1">
            <gpxtpx:hr>101</gpxtpx:hr>
          </gpxtpx:TrackPointExtension>
        </extensions>
      </trkpt>
      <trkpt lat="45.74527" lon="3.06404">
        <ele>540.79998779297</ele>
        <time>2024-05-26T13:08:05.000Z</time>
        <extensions>
          <gpxtpx:TrackPointExtension xmlns:gpxtpx="http://www.garmin.com/xmlschemas/TrackPointExtension/v1">
            <gpxtpx:hr>102</gpxtpx:hr>
          </gpxtpx:TrackPointExtension>
        </extensions>
      </trkpt>
      <trkpt lat="45.74533" lon="3.0641">
        <ele>539.79998779297</ele>
        <time>2024-05-26T13:08:06.000Z</time>
        <extensions>
          <gpxtpx:TrackPointExtension xmlns:gpxtpx="http://www.garmin.com/xmlschemas/TrackPointExtension/v1">
            <gpxtpx:hr>101</gpxtpx:hr>
          </gpxtpx:TrackPointExtension>
        </extensions>
      </trkpt>
      <trkpt lat="45.74555" lon="3.06441">
        <ele>537.79998779297</ele>
        <time>2024-05-26T13:08:10.000Z</time>
        <extensions>
          <gpxtpx:TrackPointExtension xmlns:gpxtpx="http://www.garmin.com/xmlschemas/TrackPointExtension/v1">
            <gpxtpx:hr>101</gpxtpx:hr>
          </gpxtpx:TrackPointExtension>
        </extensions>
      </trkpt>
      <trkpt lat="45.74568" lon="3.06458">
        <ele>536.79998779297</ele>
        <time>2024-05-26T13:08:12.000Z</time>
        <extensions>
          <gpxtpx:TrackPointExtension xmlns:gpxtpx="http://www.garmin.com/xmlschemas/TrackPointExtension/v1">
            <gpxtpx:hr>101</gpxtpx:hr>
          </gpxtpx:TrackPointExtension>
        </extensions>
      </trkpt>
      <trkpt lat="45.74586" lon="3.06487">
        <ele>535</ele>
        <time>2024-05-26T13:08:15.000Z</time>
        <extensions>
          <gpxtpx:TrackPointExtension xmlns:gpxtpx="http://www.garmin.com/xmlschemas/TrackPointExtension/v1">
            <gpxtpx:hr>100</gpxtpx:hr>
          </gpxtpx:TrackPointExtension>
        </extensions>
      </trkpt>
      <trkpt lat="45.74601" lon="3.06526">
        <ele>533.20001220703</ele>
        <time>2024-05-26T13:08:18.000Z</time>
        <extensions>
          <gpxtpx:TrackPointExtension xmlns:gpxtpx="http://www.garmin.com/xmlschemas/TrackPointExtension/v1">
            <gpxtpx:hr>99</gpxtpx:hr>
          </gpxtpx:TrackPointExtension>
        </extensions>
      </trkpt>
      <trkpt lat="45.74605" lon="3.0654">
        <ele>531.79998779297</ele>
        <time>2024-05-26T13:08:19.000Z</time>
        <extensions>
          <gpxtpx:TrackPointExtension xmlns:gpxtpx="http://www.garmin.com/xmlschemas/TrackPointExtension/v1">
            <gpxtpx:hr>99</gpxtpx:hr>
          </gpxtpx:TrackPointExtension>
        </extensions>
      </trkpt>
      <trkpt lat="45.74608" lon="3.06554">
        <ele>530.79998779297</ele>
        <time>2024-05-26T13:08:20.000Z</time>
        <extensions>
          <gpxtpx:TrackPointExtension xmlns:gpxtpx="http://www.garmin.com/xmlschemas/TrackPointExtension/v1">
            <gpxtpx:hr>98</gpxtpx:hr>
          </gpxtpx:TrackPointExtension>
        </extensions>
      </trkpt>
      <trkpt lat="45.74615" lon="3.06583">
        <ele>528.59997558594</ele>
        <time>2024-05-26T13:08:22.000Z</time>
        <extensions>
          <gpxtpx:TrackPointExtension xmlns:gpxtpx="http://www.garmin.com/xmlschemas/TrackPointExtension/v1">
            <gpxtpx:hr>98</gpxtpx:hr>
          </gpxtpx:TrackPointExtension>
        </extensions>
      </trkpt>
      <trkpt lat="45.74619" lon="3.06596">
        <ele>528</ele>
        <time>2024-05-26T13:08:23.000Z</time>
        <extensions>
          <gpxtpx:TrackPointExtension xmlns:gpxtpx="http://www.garmin.com/xmlschemas/TrackPointExtension/v1">
            <gpxtpx:hr>97</gpxtpx:hr>
          </gpxtpx:TrackPointExtension>
        </extensions>
      </trkpt>
      <trkpt lat="45.74625" lon="3.06607">
        <ele>527.59997558594</ele>
        <time>2024-05-26T13:08:24.000Z</time>
        <extensions>
          <gpxtpx:TrackPointExtension xmlns:gpxtpx="http://www.garmin.com/xmlschemas/TrackPointExtension/v1">
            <gpxtpx:hr>96</gpxtpx:hr>
          </gpxtpx:TrackPointExtension>
        </extensions>
      </trkpt>
      <trkpt lat="45.74633" lon="3.06618">
        <ele>527</ele>
        <time>2024-05-26T13:08:25.000Z</time>
        <extensions>
          <gpxtpx:TrackPointExtension xmlns:gpxtpx="http://www.garmin.com/xmlschemas/TrackPointExtension/v1">
            <gpxtpx:hr>96</gpxtpx:hr>
          </gpxtpx:TrackPointExtension>
        </extensions>
      </trkpt>
      <trkpt lat="45.74641" lon="3.06627">
        <ele>526</ele>
        <time>2024-05-26T13:08:26.000Z</time>
        <extensions>
          <gpxtpx:TrackPointExtension xmlns:gpxtpx="http://www.garmin.com/xmlschemas/TrackPointExtension/v1">
            <gpxtpx:hr>94</gpxtpx:hr>
          </gpxtpx:TrackPointExtension>
        </extensions>
      </trkpt>
      <trkpt lat="45.7465" lon="3.06635">
        <ele>525.20001220703</ele>
        <time>2024-05-26T13:08:27.000Z</time>
        <extensions>
          <gpxtpx:TrackPointExtension xmlns:gpxtpx="http://www.garmin.com/xmlschemas/TrackPointExtension/v1">
            <gpxtpx:hr>94</gpxtpx:hr>
          </gpxtpx:TrackPointExtension>
        </extensions>
      </trkpt>
      <trkpt lat="45.7466" lon="3.06643">
        <ele>524.40002441406</ele>
        <time>2024-05-26T13:08:28.000Z</time>
        <extensions>
          <gpxtpx:TrackPointExtension xmlns:gpxtpx="http://www.garmin.com/xmlschemas/TrackPointExtension/v1">
            <gpxtpx:hr>93</gpxtpx:hr>
          </gpxtpx:TrackPointExtension>
        </extensions>
      </trkpt>
      <trkpt lat="45.74669" lon="3.06651">
        <ele>524</ele>
        <time>2024-05-26T13:08:29.000Z</time>
        <extensions>
          <gpxtpx:TrackPointExtension xmlns:gpxtpx="http://www.garmin.com/xmlschemas/TrackPointExtension/v1">
            <gpxtpx:hr>93</gpxtpx:hr>
          </gpxtpx:TrackPointExtension>
        </extensions>
      </trkpt>
      <trkpt lat="45.74688" lon="3.06667">
        <ele>522.40002441406</ele>
        <time>2024-05-26T13:08:31.000Z</time>
        <extensions>
          <gpxtpx:TrackPointExtension xmlns:gpxtpx="http://www.garmin.com/xmlschemas/TrackPointExtension/v1">
            <gpxtpx:hr>89</gpxtpx:hr>
          </gpxtpx:TrackPointExtension>
        </extensions>
      </trkpt>
      <trkpt lat="45.74707" lon="3.06682">
        <ele>521</ele>
        <time>2024-05-26T13:08:33.000Z</time>
        <extensions>
          <gpxtpx:TrackPointExtension xmlns:gpxtpx="http://www.garmin.com/xmlschemas/TrackPointExtension/v1">
            <gpxtpx:hr>87</gpxtpx:hr>
          </gpxtpx:TrackPointExtension>
        </extensions>
      </trkpt>
      <trkpt lat="45.74727" lon="3.06697">
        <ele>519.40002441406</ele>
        <time>2024-05-26T13:08:35.000Z</time>
        <extensions>
          <gpxtpx:TrackPointExtension xmlns:gpxtpx="http://www.garmin.com/xmlschemas/TrackPointExtension/v1">
            <gpxtpx:hr>85</gpxtpx:hr>
          </gpxtpx:TrackPointExtension>
        </extensions>
      </trkpt>
      <trkpt lat="45.74745" lon="3.06711">
        <ele>518.40002441406</ele>
        <time>2024-05-26T13:08:37.000Z</time>
        <extensions>
          <gpxtpx:TrackPointExtension xmlns:gpxtpx="http://www.garmin.com/xmlschemas/TrackPointExtension/v1">
            <gpxtpx:hr>83</gpxtpx:hr>
          </gpxtpx:TrackPointExtension>
        </extensions>
      </trkpt>
      <trkpt lat="45.74769" lon="3.06734">
        <ele>518.20001220703</ele>
        <time>2024-05-26T13:08:40.000Z</time>
        <extensions>
          <gpxtpx:TrackPointExtension xmlns:gpxtpx="http://www.garmin.com/xmlschemas/TrackPointExtension/v1">
            <gpxtpx:hr>83</gpxtpx:hr>
          </gpxtpx:TrackPointExtension>
        </extensions>
      </trkpt>
      <trkpt lat="45.74775" lon="3.06743">
        <ele>517.79998779297</ele>
        <time>2024-05-26T13:08:41.000Z</time>
        <extensions>
          <gpxtpx:TrackPointExtension xmlns:gpxtpx="http://www.garmin.com/xmlschemas/TrackPointExtension/v1">
            <gpxtpx:hr>83</gpxtpx:hr>
          </gpxtpx:TrackPointExtension>
        </extensions>
      </trkpt>
      <trkpt lat="45.74781" lon="3.06753">
        <ele>517.20001220703</ele>
        <time>2024-05-26T13:08:42.000Z</time>
        <extensions>
          <gpxtpx:TrackPointExtension xmlns:gpxtpx="http://www.garmin.com/xmlschemas/TrackPointExtension/v1">
            <gpxtpx:hr>83</gpxtpx:hr>
          </gpxtpx:TrackPointExtension>
        </extensions>
      </trkpt>
      <trkpt lat="45.74786" lon="3.06764">
        <ele>517.20001220703</ele>
        <time>2024-05-26T13:08:43.000Z</time>
        <extensions>
          <gpxtpx:TrackPointExtension xmlns:gpxtpx="http://www.garmin.com/xmlschemas/TrackPointExtension/v1">
            <gpxtpx:hr>83</gpxtpx:hr>
          </gpxtpx:TrackPointExtension>
        </extensions>
      </trkpt>
      <trkpt lat="45.7479" lon="3.06775">
        <ele>516.59997558594</ele>
        <time>2024-05-26T13:08:44.000Z</time>
        <extensions>
          <gpxtpx:TrackPointExtension xmlns:gpxtpx="http://www.garmin.com/xmlschemas/TrackPointExtension/v1">
            <gpxtpx:hr>82</gpxtpx:hr>
          </gpxtpx:TrackPointExtension>
        </extensions>
      </trkpt>
      <trkpt lat="45.74793" lon="3.06786">
        <ele>515.40002441406</ele>
        <time>2024-05-26T13:08:45.000Z</time>
        <extensions>
          <gpxtpx:TrackPointExtension xmlns:gpxtpx="http://www.garmin.com/xmlschemas/TrackPointExtension/v1">
            <gpxtpx:hr>82</gpxtpx:hr>
          </gpxtpx:TrackPointExtension>
        </extensions>
      </trkpt>
      <trkpt lat="45.74795" lon="3.06796">
        <ele>514.79998779297</ele>
        <time>2024-05-26T13:08:46.000Z</time>
        <extensions>
          <gpxtpx:TrackPointExtension xmlns:gpxtpx="http://www.garmin.com/xmlschemas/TrackPointExtension/v1">
            <gpxtpx:hr>82</gpxtpx:hr>
          </gpxtpx:TrackPointExtension>
        </extensions>
      </trkpt>
      <trkpt lat="45.74797" lon="3.06806">
        <ele>514</ele>
        <time>2024-05-26T13:08:47.000Z</time>
        <extensions>
          <gpxtpx:TrackPointExtension xmlns:gpxtpx="http://www.garmin.com/xmlschemas/TrackPointExtension/v1">
            <gpxtpx:hr>82</gpxtpx:hr>
          </gpxtpx:TrackPointExtension>
        </extensions>
      </trkpt>
      <trkpt lat="45.74798" lon="3.06815">
        <ele>513</ele>
        <time>2024-05-26T13:08:48.000Z</time>
        <extensions>
          <gpxtpx:TrackPointExtension xmlns:gpxtpx="http://www.garmin.com/xmlschemas/TrackPointExtension/v1">
            <gpxtpx:hr>81</gpxtpx:hr>
          </gpxtpx:TrackPointExtension>
        </extensions>
      </trkpt>
      <trkpt lat="45.748" lon="3.06824">
        <ele>511.60000610352</ele>
        <time>2024-05-26T13:08:49.000Z</time>
        <extensions>
          <gpxtpx:TrackPointExtension xmlns:gpxtpx="http://www.garmin.com/xmlschemas/TrackPointExtension/v1">
            <gpxtpx:hr>81</gpxtpx:hr>
          </gpxtpx:TrackPointExtension>
        </extensions>
      </trkpt>
      <trkpt lat="45.74802" lon="3.06841">
        <ele>510</ele>
        <time>2024-05-26T13:08:51.000Z</time>
        <extensions>
          <gpxtpx:TrackPointExtension xmlns:gpxtpx="http://www.garmin.com/xmlschemas/TrackPointExtension/v1">
            <gpxtpx:hr>80</gpxtpx:hr>
          </gpxtpx:TrackPointExtension>
        </extensions>
      </trkpt>
      <trkpt lat="45.74796" lon="3.06866">
        <ele>506.79998779297</ele>
        <time>2024-05-26T13:11:42.000Z</time>
        <extensions>
          <gpxtpx:TrackPointExtension xmlns:gpxtpx="http://www.garmin.com/xmlschemas/TrackPointExtension/v1">
            <gpxtpx:hr>91</gpxtpx:hr>
          </gpxtpx:TrackPointExtension>
        </extensions>
      </trkpt>
      <trkpt lat="45.74795" lon="3.06872">
        <ele>506.79998779297</ele>
        <time>2024-05-26T13:11:43.000Z</time>
        <extensions>
          <gpxtpx:TrackPointExtension xmlns:gpxtpx="http://www.garmin.com/xmlschemas/TrackPointExtension/v1">
            <gpxtpx:hr>92</gpxtpx:hr>
          </gpxtpx:TrackPointExtension>
        </extensions>
      </trkpt>
      <trkpt lat="45.74791" lon="3.06892">
        <ele>505.39999389648</ele>
        <time>2024-05-26T13:11:46.000Z</time>
        <extensions>
          <gpxtpx:TrackPointExtension xmlns:gpxtpx="http://www.garmin.com/xmlschemas/TrackPointExtension/v1">
            <gpxtpx:hr>93</gpxtpx:hr>
          </gpxtpx:TrackPointExtension>
        </extensions>
      </trkpt>
      <trkpt lat="45.74786" lon="3.06913">
        <ele>504.20001220703</ele>
        <time>2024-05-26T13:11:49.000Z</time>
        <extensions>
          <gpxtpx:TrackPointExtension xmlns:gpxtpx="http://www.garmin.com/xmlschemas/TrackPointExtension/v1">
            <gpxtpx:hr>94</gpxtpx:hr>
          </gpxtpx:TrackPointExtension>
        </extensions>
      </trkpt>
      <trkpt lat="45.74785" lon="3.06921">
        <ele>503.79998779297</ele>
        <time>2024-05-26T13:11:50.000Z</time>
        <extensions>
          <gpxtpx:TrackPointExtension xmlns:gpxtpx="http://www.garmin.com/xmlschemas/TrackPointExtension/v1">
            <gpxtpx:hr>94</gpxtpx:hr>
          </gpxtpx:TrackPointExtension>
        </extensions>
      </trkpt>
      <trkpt lat="45.74782" lon="3.06935">
        <ele>502.60000610352</ele>
        <time>2024-05-26T13:11:52.000Z</time>
        <extensions>
          <gpxtpx:TrackPointExtension xmlns:gpxtpx="http://www.garmin.com/xmlschemas/TrackPointExtension/v1">
            <gpxtpx:hr>95</gpxtpx:hr>
          </gpxtpx:TrackPointExtension>
        </extensions>
      </trkpt>
      <trkpt lat="45.74776" lon="3.06957">
        <ele>501</ele>
        <time>2024-05-26T13:11:55.000Z</time>
        <extensions>
          <gpxtpx:TrackPointExtension xmlns:gpxtpx="http://www.garmin.com/xmlschemas/TrackPointExtension/v1">
            <gpxtpx:hr>94</gpxtpx:hr>
          </gpxtpx:TrackPointExtension>
        </extensions>
      </trkpt>
      <trkpt lat="45.74771" lon="3.06981">
        <ele>500</ele>
        <time>2024-05-26T13:11:58.000Z</time>
        <extensions>
          <gpxtpx:TrackPointExtension xmlns:gpxtpx="http://www.garmin.com/xmlschemas/TrackPointExtension/v1">
            <gpxtpx:hr>94</gpxtpx:hr>
          </gpxtpx:TrackPointExtension>
        </extensions>
      </trkpt>
      <trkpt lat="45.74769" lon="3.06989">
        <ele>499.79998779297</ele>
        <time>2024-05-26T13:11:59.000Z</time>
        <extensions>
          <gpxtpx:TrackPointExtension xmlns:gpxtpx="http://www.garmin.com/xmlschemas/TrackPointExtension/v1">
            <gpxtpx:hr>93</gpxtpx:hr>
          </gpxtpx:TrackPointExtension>
        </extensions>
      </trkpt>
      <trkpt lat="45.74766" lon="3.07006">
        <ele>498.60000610352</ele>
        <time>2024-05-26T13:12:01.000Z</time>
        <extensions>
          <gpxtpx:TrackPointExtension xmlns:gpxtpx="http://www.garmin.com/xmlschemas/TrackPointExtension/v1">
            <gpxtpx:hr>92</gpxtpx:hr>
          </gpxtpx:TrackPointExtension>
        </extensions>
      </trkpt>
      <trkpt lat="45.74764" lon="3.07015">
        <ele>497.60000610352</ele>
        <time>2024-05-26T13:12:02.000Z</time>
        <extensions>
          <gpxtpx:TrackPointExtension xmlns:gpxtpx="http://www.garmin.com/xmlschemas/TrackPointExtension/v1">
            <gpxtpx:hr>92</gpxtpx:hr>
          </gpxtpx:TrackPointExtension>
        </extensions>
      </trkpt>
      <trkpt lat="45.7476" lon="3.0703">
        <ele>496.79998779297</ele>
        <time>2024-05-26T13:12:04.000Z</time>
        <extensions>
          <gpxtpx:TrackPointExtension xmlns:gpxtpx="http://www.garmin.com/xmlschemas/TrackPointExtension/v1">
            <gpxtpx:hr>91</gpxtpx:hr>
          </gpxtpx:TrackPointExtension>
        </extensions>
      </trkpt>
      <trkpt lat="45.74758" lon="3.07036">
        <ele>496.60000610352</ele>
        <time>2024-05-26T13:12:05.000Z</time>
        <extensions>
          <gpxtpx:TrackPointExtension xmlns:gpxtpx="http://www.garmin.com/xmlschemas/TrackPointExtension/v1">
            <gpxtpx:hr>90</gpxtpx:hr>
          </gpxtpx:TrackPointExtension>
        </extensions>
      </trkpt>
      <trkpt lat="45.74753" lon="3.0705">
        <ele>495</ele>
        <time>2024-05-26T13:12:07.000Z</time>
        <extensions>
          <gpxtpx:TrackPointExtension xmlns:gpxtpx="http://www.garmin.com/xmlschemas/TrackPointExtension/v1">
            <gpxtpx:hr>88</gpxtpx:hr>
          </gpxtpx:TrackPointExtension>
        </extensions>
      </trkpt>
      <trkpt lat="45.74747" lon="3.07064">
        <ele>494.20001220703</ele>
        <time>2024-05-26T13:12:09.000Z</time>
        <extensions>
          <gpxtpx:TrackPointExtension xmlns:gpxtpx="http://www.garmin.com/xmlschemas/TrackPointExtension/v1">
            <gpxtpx:hr>88</gpxtpx:hr>
          </gpxtpx:TrackPointExtension>
        </extensions>
      </trkpt>
      <trkpt lat="45.74744" lon="3.07069">
        <ele>494</ele>
        <time>2024-05-26T13:12:10.000Z</time>
        <extensions>
          <gpxtpx:TrackPointExtension xmlns:gpxtpx="http://www.garmin.com/xmlschemas/TrackPointExtension/v1">
            <gpxtpx:hr>89</gpxtpx:hr>
          </gpxtpx:TrackPointExtension>
        </extensions>
      </trkpt>
      <trkpt lat="45.7474" lon="3.07075">
        <ele>493.20001220703</ele>
        <time>2024-05-26T13:12:11.000Z</time>
        <extensions>
          <gpxtpx:TrackPointExtension xmlns:gpxtpx="http://www.garmin.com/xmlschemas/TrackPointExtension/v1">
            <gpxtpx:hr>88</gpxtpx:hr>
          </gpxtpx:TrackPointExtension>
        </extensions>
      </trkpt>
      <trkpt lat="45.74738" lon="3.07088">
        <ele>492.60000610352</ele>
        <time>2024-05-26T13:12:13.000Z</time>
        <extensions>
          <gpxtpx:TrackPointExtension xmlns:gpxtpx="http://www.garmin.com/xmlschemas/TrackPointExtension/v1">
            <gpxtpx:hr>88</gpxtpx:hr>
          </gpxtpx:TrackPointExtension>
        </extensions>
      </trkpt>
      <trkpt lat="45.74738" lon="3.07106">
        <ele>492.20001220703</ele>
        <time>2024-05-26T13:12:15.000Z</time>
        <extensions>
          <gpxtpx:TrackPointExtension xmlns:gpxtpx="http://www.garmin.com/xmlschemas/TrackPointExtension/v1">
            <gpxtpx:hr>88</gpxtpx:hr>
          </gpxtpx:TrackPointExtension>
        </extensions>
      </trkpt>
      <trkpt lat="45.74739" lon="3.07115">
        <ele>492</ele>
        <time>2024-05-26T13:12:16.000Z</time>
        <extensions>
          <gpxtpx:TrackPointExtension xmlns:gpxtpx="http://www.garmin.com/xmlschemas/TrackPointExtension/v1">
            <gpxtpx:hr>91</gpxtpx:hr>
          </gpxtpx:TrackPointExtension>
        </extensions>
      </trkpt>
      <trkpt lat="45.74739" lon="3.07124">
        <ele>491.79998779297</ele>
        <time>2024-05-26T13:12:17.000Z</time>
        <extensions>
          <gpxtpx:TrackPointExtension xmlns:gpxtpx="http://www.garmin.com/xmlschemas/TrackPointExtension/v1">
            <gpxtpx:hr>91</gpxtpx:hr>
          </gpxtpx:TrackPointExtension>
        </extensions>
      </trkpt>
      <trkpt lat="45.74739" lon="3.07134">
        <ele>491.60000610352</ele>
        <time>2024-05-26T13:12:18.000Z</time>
        <extensions>
          <gpxtpx:TrackPointExtension xmlns:gpxtpx="http://www.garmin.com/xmlschemas/TrackPointExtension/v1">
            <gpxtpx:hr>91</gpxtpx:hr>
          </gpxtpx:TrackPointExtension>
        </extensions>
      </trkpt>
      <trkpt lat="45.74739" lon="3.07153">
        <ele>490.79998779297</ele>
        <time>2024-05-26T13:12:20.000Z</time>
        <extensions>
          <gpxtpx:TrackPointExtension xmlns:gpxtpx="http://www.garmin.com/xmlschemas/TrackPointExtension/v1">
            <gpxtpx:hr>92</gpxtpx:hr>
          </gpxtpx:TrackPointExtension>
        </extensions>
      </trkpt>
      <trkpt lat="45.74739" lon="3.07163">
        <ele>490.60000610352</ele>
        <time>2024-05-26T13:12:21.000Z</time>
        <extensions>
          <gpxtpx:TrackPointExtension xmlns:gpxtpx="http://www.garmin.com/xmlschemas/TrackPointExtension/v1">
            <gpxtpx:hr>95</gpxtpx:hr>
          </gpxtpx:TrackPointExtension>
        </extensions>
      </trkpt>
      <trkpt lat="45.7474" lon="3.07199">
        <ele>489.60000610352</ele>
        <time>2024-05-26T13:12:25.000Z</time>
        <extensions>
          <gpxtpx:TrackPointExtension xmlns:gpxtpx="http://www.garmin.com/xmlschemas/TrackPointExtension/v1">
            <gpxtpx:hr>96</gpxtpx:hr>
          </gpxtpx:TrackPointExtension>
        </extensions>
      </trkpt>
      <trkpt lat="45.74741" lon="3.07208">
        <ele>487.60000610352</ele>
        <time>2024-05-26T13:12:26.000Z</time>
        <extensions>
          <gpxtpx:TrackPointExtension xmlns:gpxtpx="http://www.garmin.com/xmlschemas/TrackPointExtension/v1">
            <gpxtpx:hr>96</gpxtpx:hr>
          </gpxtpx:TrackPointExtension>
        </extensions>
      </trkpt>
      <trkpt lat="45.74742" lon="3.07217">
        <ele>486.60000610352</ele>
        <time>2024-05-26T13:12:27.000Z</time>
        <extensions>
          <gpxtpx:TrackPointExtension xmlns:gpxtpx="http://www.garmin.com/xmlschemas/TrackPointExtension/v1">
            <gpxtpx:hr>96</gpxtpx:hr>
          </gpxtpx:TrackPointExtension>
        </extensions>
      </trkpt>
      <trkpt lat="45.7475" lon="3.07278">
        <ele>485.60000610352</ele>
        <time>2024-05-26T13:12:33.000Z</time>
        <extensions>
          <gpxtpx:TrackPointExtension xmlns:gpxtpx="http://www.garmin.com/xmlschemas/TrackPointExtension/v1">
            <gpxtpx:hr>97</gpxtpx:hr>
          </gpxtpx:TrackPointExtension>
        </extensions>
      </trkpt>
      <trkpt lat="45.74752" lon="3.07289">
        <ele>486.39999389648</ele>
        <time>2024-05-26T13:12:34.000Z</time>
        <extensions>
          <gpxtpx:TrackPointExtension xmlns:gpxtpx="http://www.garmin.com/xmlschemas/TrackPointExtension/v1">
            <gpxtpx:hr>97</gpxtpx:hr>
          </gpxtpx:TrackPointExtension>
        </extensions>
      </trkpt>
      <trkpt lat="45.74767" lon="3.07373">
        <ele>484.60000610352</ele>
        <time>2024-05-26T13:12:42.000Z</time>
        <extensions>
          <gpxtpx:TrackPointExtension xmlns:gpxtpx="http://www.garmin.com/xmlschemas/TrackPointExtension/v1">
            <gpxtpx:hr>97</gpxtpx:hr>
          </gpxtpx:TrackPointExtension>
        </extensions>
      </trkpt>
      <trkpt lat="45.74769" lon="3.07384">
        <ele>484.39999389648</ele>
        <time>2024-05-26T13:12:43.000Z</time>
        <extensions>
          <gpxtpx:TrackPointExtension xmlns:gpxtpx="http://www.garmin.com/xmlschemas/TrackPointExtension/v1">
            <gpxtpx:hr>97</gpxtpx:hr>
          </gpxtpx:TrackPointExtension>
        </extensions>
      </trkpt>
      <trkpt lat="45.74774" lon="3.07416">
        <ele>483.39999389648</ele>
        <time>2024-05-26T13:12:46.000Z</time>
        <extensions>
          <gpxtpx:TrackPointExtension xmlns:gpxtpx="http://www.garmin.com/xmlschemas/TrackPointExtension/v1">
            <gpxtpx:hr>95</gpxtpx:hr>
          </gpxtpx:TrackPointExtension>
        </extensions>
      </trkpt>
      <trkpt lat="45.74779" lon="3.07447">
        <ele>482.60000610352</ele>
        <time>2024-05-26T13:12:49.000Z</time>
        <extensions>
          <gpxtpx:TrackPointExtension xmlns:gpxtpx="http://www.garmin.com/xmlschemas/TrackPointExtension/v1">
            <gpxtpx:hr>94</gpxtpx:hr>
          </gpxtpx:TrackPointExtension>
        </extensions>
      </trkpt>
      <trkpt lat="45.74781" lon="3.07458">
        <ele>482.20001220703</ele>
        <time>2024-05-26T13:12:50.000Z</time>
        <extensions>
          <gpxtpx:TrackPointExtension xmlns:gpxtpx="http://www.garmin.com/xmlschemas/TrackPointExtension/v1">
            <gpxtpx:hr>94</gpxtpx:hr>
          </gpxtpx:TrackPointExtension>
        </extensions>
      </trkpt>
      <trkpt lat="45.74785" lon="3.0748">
        <ele>481</ele>
        <time>2024-05-26T13:12:52.000Z</time>
        <extensions>
          <gpxtpx:TrackPointExtension xmlns:gpxtpx="http://www.garmin.com/xmlschemas/TrackPointExtension/v1">
            <gpxtpx:hr>94</gpxtpx:hr>
          </gpxtpx:TrackPointExtension>
        </extensions>
      </trkpt>
      <trkpt lat="45.74786" lon="3.07491">
        <ele>477.79998779297</ele>
        <time>2024-05-26T13:12:53.000Z</time>
        <extensions>
          <gpxtpx:TrackPointExtension xmlns:gpxtpx="http://www.garmin.com/xmlschemas/TrackPointExtension/v1">
            <gpxtpx:hr>93</gpxtpx:hr>
          </gpxtpx:TrackPointExtension>
        </extensions>
      </trkpt>
      <trkpt lat="45.74788" lon="3.07501">
        <ele>476.39999389648</ele>
        <time>2024-05-26T13:12:54.000Z</time>
        <extensions>
          <gpxtpx:TrackPointExtension xmlns:gpxtpx="http://www.garmin.com/xmlschemas/TrackPointExtension/v1">
            <gpxtpx:hr>93</gpxtpx:hr>
          </gpxtpx:TrackPointExtension>
        </extensions>
      </trkpt>
      <trkpt lat="45.7479" lon="3.07512">
        <ele>475.79998779297</ele>
        <time>2024-05-26T13:12:55.000Z</time>
        <extensions>
          <gpxtpx:TrackPointExtension xmlns:gpxtpx="http://www.garmin.com/xmlschemas/TrackPointExtension/v1">
            <gpxtpx:hr>93</gpxtpx:hr>
          </gpxtpx:TrackPointExtension>
        </extensions>
      </trkpt>
      <trkpt lat="45.74797" lon="3.07554">
        <ele>475</ele>
        <time>2024-05-26T13:12:59.000Z</time>
        <extensions>
          <gpxtpx:TrackPointExtension xmlns:gpxtpx="http://www.garmin.com/xmlschemas/TrackPointExtension/v1">
            <gpxtpx:hr>91</gpxtpx:hr>
          </gpxtpx:TrackPointExtension>
        </extensions>
      </trkpt>
      <trkpt lat="45.74804" lon="3.07588">
        <ele>474.60000610352</ele>
        <time>2024-05-26T13:13:02.000Z</time>
        <extensions>
          <gpxtpx:TrackPointExtension xmlns:gpxtpx="http://www.garmin.com/xmlschemas/TrackPointExtension/v1">
            <gpxtpx:hr>87</gpxtpx:hr>
          </gpxtpx:TrackPointExtension>
        </extensions>
      </trkpt>
      <trkpt lat="45.7481" lon="3.07623">
        <ele>474.79998779297</ele>
        <time>2024-05-26T13:13:05.000Z</time>
        <extensions>
          <gpxtpx:TrackPointExtension xmlns:gpxtpx="http://www.garmin.com/xmlschemas/TrackPointExtension/v1">
            <gpxtpx:hr>86</gpxtpx:hr>
          </gpxtpx:TrackPointExtension>
        </extensions>
      </trkpt>
      <trkpt lat="45.74825" lon="3.07708">
        <ele>474</ele>
        <time>2024-05-26T13:13:12.000Z</time>
        <extensions>
          <gpxtpx:TrackPointExtension xmlns:gpxtpx="http://www.garmin.com/xmlschemas/TrackPointExtension/v1">
            <gpxtpx:hr>85</gpxtpx:hr>
          </gpxtpx:TrackPointExtension>
        </extensions>
      </trkpt>
      <trkpt lat="45.74826" lon="3.0772">
        <ele>473.60000610352</ele>
        <time>2024-05-26T13:13:13.000Z</time>
        <extensions>
          <gpxtpx:TrackPointExtension xmlns:gpxtpx="http://www.garmin.com/xmlschemas/TrackPointExtension/v1">
            <gpxtpx:hr>85</gpxtpx:hr>
          </gpxtpx:TrackPointExtension>
        </extensions>
      </trkpt>
      <trkpt lat="45.74831" lon="3.07755">
        <ele>472</ele>
        <time>2024-05-26T13:13:16.000Z</time>
        <extensions>
          <gpxtpx:TrackPointExtension xmlns:gpxtpx="http://www.garmin.com/xmlschemas/TrackPointExtension/v1">
            <gpxtpx:hr>85</gpxtpx:hr>
          </gpxtpx:TrackPointExtension>
        </extensions>
      </trkpt>
      <trkpt lat="45.74835" lon="3.07777">
        <ele>471</ele>
        <time>2024-05-26T13:13:18.000Z</time>
        <extensions>
          <gpxtpx:TrackPointExtension xmlns:gpxtpx="http://www.garmin.com/xmlschemas/TrackPointExtension/v1">
            <gpxtpx:hr>85</gpxtpx:hr>
          </gpxtpx:TrackPointExtension>
        </extensions>
      </trkpt>
      <trkpt lat="45.74836" lon="3.07788">
        <ele>470.79998779297</ele>
        <time>2024-05-26T13:13:19.000Z</time>
        <extensions>
          <gpxtpx:TrackPointExtension xmlns:gpxtpx="http://www.garmin.com/xmlschemas/TrackPointExtension/v1">
            <gpxtpx:hr>85</gpxtpx:hr>
          </gpxtpx:TrackPointExtension>
        </extensions>
      </trkpt>
      <trkpt lat="45.7484" lon="3.07809">
        <ele>470</ele>
        <time>2024-05-26T13:13:21.000Z</time>
        <extensions>
          <gpxtpx:TrackPointExtension xmlns:gpxtpx="http://www.garmin.com/xmlschemas/TrackPointExtension/v1">
            <gpxtpx:hr>85</gpxtpx:hr>
          </gpxtpx:TrackPointExtension>
        </extensions>
      </trkpt>
      <trkpt lat="45.74842" lon="3.07819">
        <ele>469.39999389648</ele>
        <time>2024-05-26T13:13:22.000Z</time>
        <extensions>
          <gpxtpx:TrackPointExtension xmlns:gpxtpx="http://www.garmin.com/xmlschemas/TrackPointExtension/v1">
            <gpxtpx:hr>85</gpxtpx:hr>
          </gpxtpx:TrackPointExtension>
        </extensions>
      </trkpt>
      <trkpt lat="45.74845" lon="3.07828">
        <ele>468.79998779297</ele>
        <time>2024-05-26T13:13:23.000Z</time>
        <extensions>
          <gpxtpx:TrackPointExtension xmlns:gpxtpx="http://www.garmin.com/xmlschemas/TrackPointExtension/v1">
            <gpxtpx:hr>85</gpxtpx:hr>
          </gpxtpx:TrackPointExtension>
        </extensions>
      </trkpt>
      <trkpt lat="45.74849" lon="3.07837">
        <ele>468.60000610352</ele>
        <time>2024-05-26T13:13:24.000Z</time>
        <extensions>
          <gpxtpx:TrackPointExtension xmlns:gpxtpx="http://www.garmin.com/xmlschemas/TrackPointExtension/v1">
            <gpxtpx:hr>85</gpxtpx:hr>
          </gpxtpx:TrackPointExtension>
        </extensions>
      </trkpt>
      <trkpt lat="45.74863" lon="3.07857">
        <ele>468.39999389648</ele>
        <time>2024-05-26T13:13:27.000Z</time>
        <extensions>
          <gpxtpx:TrackPointExtension xmlns:gpxtpx="http://www.garmin.com/xmlschemas/TrackPointExtension/v1">
            <gpxtpx:hr>85</gpxtpx:hr>
          </gpxtpx:TrackPointExtension>
        </extensions>
      </trkpt>
      <trkpt lat="45.74869" lon="3.07862">
        <ele>468.39999389648</ele>
        <time>2024-05-26T13:13:28.000Z</time>
        <extensions>
          <gpxtpx:TrackPointExtension xmlns:gpxtpx="http://www.garmin.com/xmlschemas/TrackPointExtension/v1">
            <gpxtpx:hr>84</gpxtpx:hr>
          </gpxtpx:TrackPointExtension>
        </extensions>
      </trkpt>
      <trkpt lat="45.74875" lon="3.07867">
        <ele>468.20001220703</ele>
        <time>2024-05-26T13:13:29.000Z</time>
        <extensions>
          <gpxtpx:TrackPointExtension xmlns:gpxtpx="http://www.garmin.com/xmlschemas/TrackPointExtension/v1">
            <gpxtpx:hr>84</gpxtpx:hr>
          </gpxtpx:TrackPointExtension>
        </extensions>
      </trkpt>
      <trkpt lat="45.74894" lon="3.07878">
        <ele>467.60000610352</ele>
        <time>2024-05-26T13:13:32.000Z</time>
        <extensions>
          <gpxtpx:TrackPointExtension xmlns:gpxtpx="http://www.garmin.com/xmlschemas/TrackPointExtension/v1">
            <gpxtpx:hr>83</gpxtpx:hr>
          </gpxtpx:TrackPointExtension>
        </extensions>
      </trkpt>
      <trkpt lat="45.74901" lon="3.07882">
        <ele>467.20001220703</ele>
        <time>2024-05-26T13:13:33.000Z</time>
        <extensions>
          <gpxtpx:TrackPointExtension xmlns:gpxtpx="http://www.garmin.com/xmlschemas/TrackPointExtension/v1">
            <gpxtpx:hr>83</gpxtpx:hr>
          </gpxtpx:TrackPointExtension>
        </extensions>
      </trkpt>
      <trkpt lat="45.74922" lon="3.07893">
        <ele>466</ele>
        <time>2024-05-26T13:13:36.000Z</time>
        <extensions>
          <gpxtpx:TrackPointExtension xmlns:gpxtpx="http://www.garmin.com/xmlschemas/TrackPointExtension/v1">
            <gpxtpx:hr>84</gpxtpx:hr>
          </gpxtpx:TrackPointExtension>
        </extensions>
      </trkpt>
      <trkpt lat="45.74943" lon="3.07903">
        <ele>464.79998779297</ele>
        <time>2024-05-26T13:13:39.000Z</time>
        <extensions>
          <gpxtpx:TrackPointExtension xmlns:gpxtpx="http://www.garmin.com/xmlschemas/TrackPointExtension/v1">
            <gpxtpx:hr>85</gpxtpx:hr>
          </gpxtpx:TrackPointExtension>
        </extensions>
      </trkpt>
      <trkpt lat="45.74956" lon="3.07909">
        <ele>463.60000610352</ele>
        <time>2024-05-26T13:13:41.000Z</time>
        <extensions>
          <gpxtpx:TrackPointExtension xmlns:gpxtpx="http://www.garmin.com/xmlschemas/TrackPointExtension/v1">
            <gpxtpx:hr>87</gpxtpx:hr>
          </gpxtpx:TrackPointExtension>
        </extensions>
      </trkpt>
      <trkpt lat="45.74968" lon="3.07915">
        <ele>462.79998779297</ele>
        <time>2024-05-26T13:13:43.000Z</time>
        <extensions>
          <gpxtpx:TrackPointExtension xmlns:gpxtpx="http://www.garmin.com/xmlschemas/TrackPointExtension/v1">
            <gpxtpx:hr>89</gpxtpx:hr>
          </gpxtpx:TrackPointExtension>
        </extensions>
      </trkpt>
      <trkpt lat="45.74979" lon="3.07921">
        <ele>462.39999389648</ele>
        <time>2024-05-26T13:13:45.000Z</time>
        <extensions>
          <gpxtpx:TrackPointExtension xmlns:gpxtpx="http://www.garmin.com/xmlschemas/TrackPointExtension/v1">
            <gpxtpx:hr>91</gpxtpx:hr>
          </gpxtpx:TrackPointExtension>
        </extensions>
      </trkpt>
      <trkpt lat="45.75006" lon="3.07935">
        <ele>461.79998779297</ele>
        <time>2024-05-26T13:13:50.000Z</time>
        <extensions>
          <gpxtpx:TrackPointExtension xmlns:gpxtpx="http://www.garmin.com/xmlschemas/TrackPointExtension/v1">
            <gpxtpx:hr>92</gpxtpx:hr>
          </gpxtpx:TrackPointExtension>
        </extensions>
      </trkpt>
      <trkpt lat="45.75019" lon="3.07941">
        <ele>461.20001220703</ele>
        <time>2024-05-26T13:13:52.000Z</time>
        <extensions>
          <gpxtpx:TrackPointExtension xmlns:gpxtpx="http://www.garmin.com/xmlschemas/TrackPointExtension/v1">
            <gpxtpx:hr>92</gpxtpx:hr>
          </gpxtpx:TrackPointExtension>
        </extensions>
      </trkpt>
      <trkpt lat="45.75045" lon="3.07954">
        <ele>459.79998779297</ele>
        <time>2024-05-26T13:13:56.000Z</time>
        <extensions>
          <gpxtpx:TrackPointExtension xmlns:gpxtpx="http://www.garmin.com/xmlschemas/TrackPointExtension/v1">
            <gpxtpx:hr>91</gpxtpx:hr>
          </gpxtpx:TrackPointExtension>
        </extensions>
      </trkpt>
      <trkpt lat="45.75086" lon="3.07976">
        <ele>458.60000610352</ele>
        <time>2024-05-26T13:14:02.000Z</time>
        <extensions>
          <gpxtpx:TrackPointExtension xmlns:gpxtpx="http://www.garmin.com/xmlschemas/TrackPointExtension/v1">
            <gpxtpx:hr>90</gpxtpx:hr>
          </gpxtpx:TrackPointExtension>
        </extensions>
      </trkpt>
      <trkpt lat="45.75092" lon="3.07979">
        <ele>458.20001220703</ele>
        <time>2024-05-26T13:14:03.000Z</time>
        <extensions>
          <gpxtpx:TrackPointExtension xmlns:gpxtpx="http://www.garmin.com/xmlschemas/TrackPointExtension/v1">
            <gpxtpx:hr>90</gpxtpx:hr>
          </gpxtpx:TrackPointExtension>
        </extensions>
      </trkpt>
      <trkpt lat="45.75115" lon="3.07991">
        <ele>457</ele>
        <time>2024-05-26T13:14:07.000Z</time>
        <extensions>
          <gpxtpx:TrackPointExtension xmlns:gpxtpx="http://www.garmin.com/xmlschemas/TrackPointExtension/v1">
            <gpxtpx:hr>92</gpxtpx:hr>
          </gpxtpx:TrackPointExtension>
        </extensions>
      </trkpt>
      <trkpt lat="45.75121" lon="3.07994">
        <ele>457</ele>
        <time>2024-05-26T13:14:08.000Z</time>
        <extensions>
          <gpxtpx:TrackPointExtension xmlns:gpxtpx="http://www.garmin.com/xmlschemas/TrackPointExtension/v1">
            <gpxtpx:hr>92</gpxtpx:hr>
          </gpxtpx:TrackPointExtension>
        </extensions>
      </trkpt>
      <trkpt lat="45.75127" lon="3.07999">
        <ele>456.79998779297</ele>
        <time>2024-05-26T13:14:09.000Z</time>
        <extensions>
          <gpxtpx:TrackPointExtension xmlns:gpxtpx="http://www.garmin.com/xmlschemas/TrackPointExtension/v1">
            <gpxtpx:hr>93</gpxtpx:hr>
          </gpxtpx:TrackPointExtension>
        </extensions>
      </trkpt>
      <trkpt lat="45.75151" lon="3.08023">
        <ele>456</ele>
        <time>2024-05-26T13:14:14.000Z</time>
        <extensions>
          <gpxtpx:TrackPointExtension xmlns:gpxtpx="http://www.garmin.com/xmlschemas/TrackPointExtension/v1">
            <gpxtpx:hr>95</gpxtpx:hr>
          </gpxtpx:TrackPointExtension>
        </extensions>
      </trkpt>
      <trkpt lat="45.75165" lon="3.08041">
        <ele>455.39999389648</ele>
        <time>2024-05-26T13:14:17.000Z</time>
        <extensions>
          <gpxtpx:TrackPointExtension xmlns:gpxtpx="http://www.garmin.com/xmlschemas/TrackPointExtension/v1">
            <gpxtpx:hr>98</gpxtpx:hr>
          </gpxtpx:TrackPointExtension>
        </extensions>
      </trkpt>
      <trkpt lat="45.75169" lon="3.08047">
        <ele>455</ele>
        <time>2024-05-26T13:14:18.000Z</time>
        <extensions>
          <gpxtpx:TrackPointExtension xmlns:gpxtpx="http://www.garmin.com/xmlschemas/TrackPointExtension/v1">
            <gpxtpx:hr>99</gpxtpx:hr>
          </gpxtpx:TrackPointExtension>
        </extensions>
      </trkpt>
      <trkpt lat="45.75177" lon="3.08059">
        <ele>454.79998779297</ele>
        <time>2024-05-26T13:14:20.000Z</time>
        <extensions>
          <gpxtpx:TrackPointExtension xmlns:gpxtpx="http://www.garmin.com/xmlschemas/TrackPointExtension/v1">
            <gpxtpx:hr>99</gpxtpx:hr>
          </gpxtpx:TrackPointExtension>
        </extensions>
      </trkpt>
      <trkpt lat="45.75182" lon="3.0804">
        <ele>451.7</ele>
      </trkpt>
      <trkpt lat="45.75201" lon="3.08038">
        <ele>455.60000610352</ele>
        <time>2024-05-26T13:19:11.000Z</time>
        <extensions>
          <gpxtpx:TrackPointExtension xmlns:gpxtpx="http://www.garmin.com/xmlschemas/TrackPointExtension/v1">
            <gpxtpx:hr>80</gpxtpx:hr>
          </gpxtpx:TrackPointExtension>
        </extensions>
      </trkpt>
      <trkpt lat="45.75209" lon="3.08037">
        <ele>456.20001220703</ele>
        <time>2024-05-26T13:19:15.000Z</time>
        <extensions>
          <gpxtpx:TrackPointExtension xmlns:gpxtpx="http://www.garmin.com/xmlschemas/TrackPointExtension/v1">
            <gpxtpx:hr>82</gpxtpx:hr>
          </gpxtpx:TrackPointExtension>
        </extensions>
      </trkpt>
      <trkpt lat="45.75221" lon="3.08039">
        <ele>456.79998779297</ele>
        <time>2024-05-26T13:19:21.000Z</time>
        <extensions>
          <gpxtpx:TrackPointExtension xmlns:gpxtpx="http://www.garmin.com/xmlschemas/TrackPointExtension/v1">
            <gpxtpx:hr>83</gpxtpx:hr>
          </gpxtpx:TrackPointExtension>
        </extensions>
      </trkpt>
      <trkpt lat="45.75232" lon="3.08043">
        <ele>457</ele>
        <time>2024-05-26T13:19:26.000Z</time>
        <extensions>
          <gpxtpx:TrackPointExtension xmlns:gpxtpx="http://www.garmin.com/xmlschemas/TrackPointExtension/v1">
            <gpxtpx:hr>86</gpxtpx:hr>
          </gpxtpx:TrackPointExtension>
        </extensions>
      </trkpt>
      <trkpt lat="45.75235" lon="3.08044">
        <ele>457</ele>
        <time>2024-05-26T13:19:28.000Z</time>
        <extensions>
          <gpxtpx:TrackPointExtension xmlns:gpxtpx="http://www.garmin.com/xmlschemas/TrackPointExtension/v1">
            <gpxtpx:hr>88</gpxtpx:hr>
          </gpxtpx:TrackPointExtension>
        </extensions>
      </trkpt>
      <trkpt lat="45.75248" lon="3.08045">
        <ele>457.39999389648</ele>
        <time>2024-05-26T13:19:33.000Z</time>
        <extensions>
          <gpxtpx:TrackPointExtension xmlns:gpxtpx="http://www.garmin.com/xmlschemas/TrackPointExtension/v1">
            <gpxtpx:hr>90</gpxtpx:hr>
          </gpxtpx:TrackPointExtension>
        </extensions>
      </trkpt>
      <trkpt lat="45.7525" lon="3.08045">
        <ele>457.60000610352</ele>
        <time>2024-05-26T13:19:34.000Z</time>
        <extensions>
          <gpxtpx:TrackPointExtension xmlns:gpxtpx="http://www.garmin.com/xmlschemas/TrackPointExtension/v1">
            <gpxtpx:hr>93</gpxtpx:hr>
          </gpxtpx:TrackPointExtension>
        </extensions>
      </trkpt>
      <trkpt lat="45.75274" lon="3.08046">
        <ele>457.79998779297</ele>
        <time>2024-05-26T13:19:41.000Z</time>
        <extensions>
          <gpxtpx:TrackPointExtension xmlns:gpxtpx="http://www.garmin.com/xmlschemas/TrackPointExtension/v1">
            <gpxtpx:hr>95</gpxtpx:hr>
          </gpxtpx:TrackPointExtension>
        </extensions>
      </trkpt>
      <trkpt lat="45.75291" lon="3.08051">
        <ele>457.20001220703</ele>
        <time>2024-05-26T13:19:45.000Z</time>
        <extensions>
          <gpxtpx:TrackPointExtension xmlns:gpxtpx="http://www.garmin.com/xmlschemas/TrackPointExtension/v1">
            <gpxtpx:hr>100</gpxtpx:hr>
          </gpxtpx:TrackPointExtension>
        </extensions>
      </trkpt>
      <trkpt lat="45.75299" lon="3.08052">
        <ele>457</ele>
        <time>2024-05-26T13:19:47.000Z</time>
        <extensions>
          <gpxtpx:TrackPointExtension xmlns:gpxtpx="http://www.garmin.com/xmlschemas/TrackPointExtension/v1">
            <gpxtpx:hr>103</gpxtpx:hr>
          </gpxtpx:TrackPointExtension>
        </extensions>
      </trkpt>
      <trkpt lat="45.75303" lon="3.08052">
        <ele>457</ele>
        <time>2024-05-26T13:19:48.000Z</time>
        <extensions>
          <gpxtpx:TrackPointExtension xmlns:gpxtpx="http://www.garmin.com/xmlschemas/TrackPointExtension/v1">
            <gpxtpx:hr>106</gpxtpx:hr>
          </gpxtpx:TrackPointExtension>
        </extensions>
      </trkpt>
      <trkpt lat="45.75313" lon="3.08052">
        <ele>456.20001220703</ele>
        <time>2024-05-26T13:19:50.000Z</time>
        <extensions>
          <gpxtpx:TrackPointExtension xmlns:gpxtpx="http://www.garmin.com/xmlschemas/TrackPointExtension/v1">
            <gpxtpx:hr>109</gpxtpx:hr>
          </gpxtpx:TrackPointExtension>
        </extensions>
      </trkpt>
      <trkpt lat="45.75323" lon="3.08054">
        <ele>456.20001220703</ele>
        <time>2024-05-26T13:19:52.000Z</time>
        <extensions>
          <gpxtpx:TrackPointExtension xmlns:gpxtpx="http://www.garmin.com/xmlschemas/TrackPointExtension/v1">
            <gpxtpx:hr>112</gpxtpx:hr>
          </gpxtpx:TrackPointExtension>
        </extensions>
      </trkpt>
      <trkpt lat="45.75338" lon="3.08053">
        <ele>456.39999389648</ele>
        <time>2024-05-26T13:19:55.000Z</time>
        <extensions>
          <gpxtpx:TrackPointExtension xmlns:gpxtpx="http://www.garmin.com/xmlschemas/TrackPointExtension/v1">
            <gpxtpx:hr>111</gpxtpx:hr>
          </gpxtpx:TrackPointExtension>
        </extensions>
      </trkpt>
      <trkpt lat="45.75359" lon="3.08053">
        <ele>454.39999389648</ele>
        <time>2024-05-26T13:19:59.000Z</time>
        <extensions>
          <gpxtpx:TrackPointExtension xmlns:gpxtpx="http://www.garmin.com/xmlschemas/TrackPointExtension/v1">
            <gpxtpx:hr>112</gpxtpx:hr>
          </gpxtpx:TrackPointExtension>
        </extensions>
      </trkpt>
      <trkpt lat="45.7537" lon="3.08053">
        <ele>453.79998779297</ele>
        <time>2024-05-26T13:20:01.000Z</time>
        <extensions>
          <gpxtpx:TrackPointExtension xmlns:gpxtpx="http://www.garmin.com/xmlschemas/TrackPointExtension/v1">
            <gpxtpx:hr>112</gpxtpx:hr>
          </gpxtpx:TrackPointExtension>
        </extensions>
      </trkpt>
      <trkpt lat="45.75389" lon="3.08052">
        <ele>453.20001220703</ele>
        <time>2024-05-26T13:20:05.000Z</time>
        <extensions>
          <gpxtpx:TrackPointExtension xmlns:gpxtpx="http://www.garmin.com/xmlschemas/TrackPointExtension/v1">
            <gpxtpx:hr>111</gpxtpx:hr>
          </gpxtpx:TrackPointExtension>
        </extensions>
      </trkpt>
      <trkpt lat="45.75409" lon="3.08052">
        <ele>452.79998779297</ele>
        <time>2024-05-26T13:20:09.000Z</time>
        <extensions>
          <gpxtpx:TrackPointExtension xmlns:gpxtpx="http://www.garmin.com/xmlschemas/TrackPointExtension/v1">
            <gpxtpx:hr>110</gpxtpx:hr>
          </gpxtpx:TrackPointExtension>
        </extensions>
      </trkpt>
      <trkpt lat="45.75421" lon="3.08055">
        <ele>452</ele>
        <time>2024-05-26T13:20:12.000Z</time>
        <extensions>
          <gpxtpx:TrackPointExtension xmlns:gpxtpx="http://www.garmin.com/xmlschemas/TrackPointExtension/v1">
            <gpxtpx:hr>109</gpxtpx:hr>
          </gpxtpx:TrackPointExtension>
        </extensions>
      </trkpt>
      <trkpt lat="45.75425" lon="3.08057">
        <ele>451.79998779297</ele>
        <time>2024-05-26T13:20:13.000Z</time>
        <extensions>
          <gpxtpx:TrackPointExtension xmlns:gpxtpx="http://www.garmin.com/xmlschemas/TrackPointExtension/v1">
            <gpxtpx:hr>108</gpxtpx:hr>
          </gpxtpx:TrackPointExtension>
        </extensions>
      </trkpt>
      <trkpt lat="45.75439" lon="3.08061">
        <ele>451.20001220703</ele>
        <time>2024-05-26T13:20:16.000Z</time>
        <extensions>
          <gpxtpx:TrackPointExtension xmlns:gpxtpx="http://www.garmin.com/xmlschemas/TrackPointExtension/v1">
            <gpxtpx:hr>107</gpxtpx:hr>
          </gpxtpx:TrackPointExtension>
        </extensions>
      </trkpt>
      <trkpt lat="45.75444" lon="3.08063">
        <ele>450.79998779297</ele>
        <time>2024-05-26T13:20:17.000Z</time>
        <extensions>
          <gpxtpx:TrackPointExtension xmlns:gpxtpx="http://www.garmin.com/xmlschemas/TrackPointExtension/v1">
            <gpxtpx:hr>106</gpxtpx:hr>
          </gpxtpx:TrackPointExtension>
        </extensions>
      </trkpt>
      <trkpt lat="45.75464" lon="3.08071">
        <ele>449.60000610352</ele>
        <time>2024-05-26T13:20:21.000Z</time>
        <extensions>
          <gpxtpx:TrackPointExtension xmlns:gpxtpx="http://www.garmin.com/xmlschemas/TrackPointExtension/v1">
            <gpxtpx:hr>105</gpxtpx:hr>
          </gpxtpx:TrackPointExtension>
        </extensions>
      </trkpt>
      <trkpt lat="45.75474" lon="3.08076">
        <ele>448.60000610352</ele>
        <time>2024-05-26T13:20:23.000Z</time>
        <extensions>
          <gpxtpx:TrackPointExtension xmlns:gpxtpx="http://www.garmin.com/xmlschemas/TrackPointExtension/v1">
            <gpxtpx:hr>106</gpxtpx:hr>
          </gpxtpx:TrackPointExtension>
        </extensions>
      </trkpt>
      <trkpt lat="45.75479" lon="3.08079">
        <ele>448</ele>
        <time>2024-05-26T13:20:24.000Z</time>
        <extensions>
          <gpxtpx:TrackPointExtension xmlns:gpxtpx="http://www.garmin.com/xmlschemas/TrackPointExtension/v1">
            <gpxtpx:hr>104</gpxtpx:hr>
          </gpxtpx:TrackPointExtension>
        </extensions>
      </trkpt>
      <trkpt lat="45.75492" lon="3.08086">
        <ele>447</ele>
        <time>2024-05-26T13:20:27.000Z</time>
        <extensions>
          <gpxtpx:TrackPointExtension xmlns:gpxtpx="http://www.garmin.com/xmlschemas/TrackPointExtension/v1">
            <gpxtpx:hr>104</gpxtpx:hr>
          </gpxtpx:TrackPointExtension>
        </extensions>
      </trkpt>
      <trkpt lat="45.75508" lon="3.08091">
        <ele>445.79998779297</ele>
        <time>2024-05-26T13:20:31.000Z</time>
        <extensions>
          <gpxtpx:TrackPointExtension xmlns:gpxtpx="http://www.garmin.com/xmlschemas/TrackPointExtension/v1">
            <gpxtpx:hr>104</gpxtpx:hr>
          </gpxtpx:TrackPointExtension>
        </extensions>
      </trkpt>
      <trkpt lat="45.75521" lon="3.08095">
        <ele>444.60000610352</ele>
        <time>2024-05-26T13:20:35.000Z</time>
        <extensions>
          <gpxtpx:TrackPointExtension xmlns:gpxtpx="http://www.garmin.com/xmlschemas/TrackPointExtension/v1">
            <gpxtpx:hr>103</gpxtpx:hr>
          </gpxtpx:TrackPointExtension>
        </extensions>
      </trkpt>
      <trkpt lat="45.75528" lon="3.08098">
        <ele>443.60000610352</ele>
        <time>2024-05-26T13:20:37.000Z</time>
        <extensions>
          <gpxtpx:TrackPointExtension xmlns:gpxtpx="http://www.garmin.com/xmlschemas/TrackPointExtension/v1">
            <gpxtpx:hr>102</gpxtpx:hr>
          </gpxtpx:TrackPointExtension>
        </extensions>
      </trkpt>
      <trkpt lat="45.75531" lon="3.08102">
        <ele>443.39999389648</ele>
        <time>2024-05-26T13:20:38.000Z</time>
        <extensions>
          <gpxtpx:TrackPointExtension xmlns:gpxtpx="http://www.garmin.com/xmlschemas/TrackPointExtension/v1">
            <gpxtpx:hr>101</gpxtpx:hr>
          </gpxtpx:TrackPointExtension>
        </extensions>
      </trkpt>
      <trkpt lat="45.75538" lon="3.08106">
        <ele>442.39999389648</ele>
        <time>2024-05-26T13:20:41.000Z</time>
        <extensions>
          <gpxtpx:TrackPointExtension xmlns:gpxtpx="http://www.garmin.com/xmlschemas/TrackPointExtension/v1">
            <gpxtpx:hr>100</gpxtpx:hr>
          </gpxtpx:TrackPointExtension>
        </extensions>
      </trkpt>
      <trkpt lat="45.75546" lon="3.08103">
        <ele>441.39999389648</ele>
        <time>2024-05-26T13:20:44.000Z</time>
        <extensions>
          <gpxtpx:TrackPointExtension xmlns:gpxtpx="http://www.garmin.com/xmlschemas/TrackPointExtension/v1">
            <gpxtpx:hr>97</gpxtpx:hr>
          </gpxtpx:TrackPointExtension>
        </extensions>
      </trkpt>
      <trkpt lat="45.75548" lon="3.08103">
        <ele>441</ele>
        <time>2024-05-26T13:20:45.000Z</time>
        <extensions>
          <gpxtpx:TrackPointExtension xmlns:gpxtpx="http://www.garmin.com/xmlschemas/TrackPointExtension/v1">
            <gpxtpx:hr>98</gpxtpx:hr>
          </gpxtpx:TrackPointExtension>
        </extensions>
      </trkpt>
      <trkpt lat="45.75553" lon="3.08099">
        <ele>440.60000610352</ele>
        <time>2024-05-26T13:20:48.000Z</time>
        <extensions>
          <gpxtpx:TrackPointExtension xmlns:gpxtpx="http://www.garmin.com/xmlschemas/TrackPointExtension/v1">
            <gpxtpx:hr>98</gpxtpx:hr>
          </gpxtpx:TrackPointExtension>
        </extensions>
      </trkpt>
      <trkpt lat="45.75559" lon="3.08096">
        <ele>439.79998779297</ele>
        <time>2024-05-26T13:20:51.000Z</time>
        <extensions>
          <gpxtpx:TrackPointExtension xmlns:gpxtpx="http://www.garmin.com/xmlschemas/TrackPointExtension/v1">
            <gpxtpx:hr>97</gpxtpx:hr>
          </gpxtpx:TrackPointExtension>
        </extensions>
      </trkpt>
      <trkpt lat="45.75564" lon="3.08094">
        <ele>439.39999389648</ele>
        <time>2024-05-26T13:20:53.000Z</time>
        <extensions>
          <gpxtpx:TrackPointExtension xmlns:gpxtpx="http://www.garmin.com/xmlschemas/TrackPointExtension/v1">
            <gpxtpx:hr>98</gpxtpx:hr>
          </gpxtpx:TrackPointExtension>
        </extensions>
      </trkpt>
      <trkpt lat="45.75574" lon="3.08087">
        <ele>438.79998779297</ele>
        <time>2024-05-26T13:20:57.000Z</time>
        <extensions>
          <gpxtpx:TrackPointExtension xmlns:gpxtpx="http://www.garmin.com/xmlschemas/TrackPointExtension/v1">
            <gpxtpx:hr>99</gpxtpx:hr>
          </gpxtpx:TrackPointExtension>
        </extensions>
      </trkpt>
      <trkpt lat="45.75578" lon="3.08085">
        <ele>438</ele>
        <time>2024-05-26T13:20:58.000Z</time>
        <extensions>
          <gpxtpx:TrackPointExtension xmlns:gpxtpx="http://www.garmin.com/xmlschemas/TrackPointExtension/v1">
            <gpxtpx:hr>100</gpxtpx:hr>
          </gpxtpx:TrackPointExtension>
        </extensions>
      </trkpt>
      <trkpt lat="45.75581" lon="3.08084">
        <ele>437.60000610352</ele>
        <time>2024-05-26T13:20:59.000Z</time>
        <extensions>
          <gpxtpx:TrackPointExtension xmlns:gpxtpx="http://www.garmin.com/xmlschemas/TrackPointExtension/v1">
            <gpxtpx:hr>98</gpxtpx:hr>
          </gpxtpx:TrackPointExtension>
        </extensions>
      </trkpt>
      <trkpt lat="45.7559" lon="3.08081">
        <ele>436.60000610352</ele>
        <time>2024-05-26T13:21:01.000Z</time>
        <extensions>
          <gpxtpx:TrackPointExtension xmlns:gpxtpx="http://www.garmin.com/xmlschemas/TrackPointExtension/v1">
            <gpxtpx:hr>97</gpxtpx:hr>
          </gpxtpx:TrackPointExtension>
        </extensions>
      </trkpt>
      <trkpt lat="45.75599" lon="3.08079">
        <ele>435.20001220703</ele>
        <time>2024-05-26T13:21:03.000Z</time>
        <extensions>
          <gpxtpx:TrackPointExtension xmlns:gpxtpx="http://www.garmin.com/xmlschemas/TrackPointExtension/v1">
            <gpxtpx:hr>97</gpxtpx:hr>
          </gpxtpx:TrackPointExtension>
        </extensions>
      </trkpt>
      <trkpt lat="45.75604" lon="3.08079">
        <ele>433.20001220703</ele>
        <time>2024-05-26T13:21:04.000Z</time>
        <extensions>
          <gpxtpx:TrackPointExtension xmlns:gpxtpx="http://www.garmin.com/xmlschemas/TrackPointExtension/v1">
            <gpxtpx:hr>97</gpxtpx:hr>
          </gpxtpx:TrackPointExtension>
        </extensions>
      </trkpt>
      <trkpt lat="45.75608" lon="3.08078">
        <ele>432.60000610352</ele>
        <time>2024-05-26T13:21:05.000Z</time>
        <extensions>
          <gpxtpx:TrackPointExtension xmlns:gpxtpx="http://www.garmin.com/xmlschemas/TrackPointExtension/v1">
            <gpxtpx:hr>97</gpxtpx:hr>
          </gpxtpx:TrackPointExtension>
        </extensions>
      </trkpt>
      <trkpt lat="45.75612" lon="3.08079">
        <ele>431.79998779297</ele>
        <time>2024-05-26T13:21:06.000Z</time>
        <extensions>
          <gpxtpx:TrackPointExtension xmlns:gpxtpx="http://www.garmin.com/xmlschemas/TrackPointExtension/v1">
            <gpxtpx:hr>94</gpxtpx:hr>
          </gpxtpx:TrackPointExtension>
        </extensions>
      </trkpt>
      <trkpt lat="45.75617" lon="3.08079">
        <ele>431.60000610352</ele>
        <time>2024-05-26T13:21:07.000Z</time>
        <extensions>
          <gpxtpx:TrackPointExtension xmlns:gpxtpx="http://www.garmin.com/xmlschemas/TrackPointExtension/v1">
            <gpxtpx:hr>97</gpxtpx:hr>
          </gpxtpx:TrackPointExtension>
        </extensions>
      </trkpt>
      <trkpt lat="45.75623" lon="3.08079">
        <ele>431.20001220703</ele>
        <time>2024-05-26T13:21:08.000Z</time>
        <extensions>
          <gpxtpx:TrackPointExtension xmlns:gpxtpx="http://www.garmin.com/xmlschemas/TrackPointExtension/v1">
            <gpxtpx:hr>96</gpxtpx:hr>
          </gpxtpx:TrackPointExtension>
        </extensions>
      </trkpt>
      <trkpt lat="45.75629" lon="3.08078">
        <ele>430.39999389648</ele>
        <time>2024-05-26T13:21:09.000Z</time>
        <extensions>
          <gpxtpx:TrackPointExtension xmlns:gpxtpx="http://www.garmin.com/xmlschemas/TrackPointExtension/v1">
            <gpxtpx:hr>98</gpxtpx:hr>
          </gpxtpx:TrackPointExtension>
        </extensions>
      </trkpt>
      <trkpt lat="45.75636" lon="3.08077">
        <ele>429.20001220703</ele>
        <time>2024-05-26T13:21:10.000Z</time>
        <extensions>
          <gpxtpx:TrackPointExtension xmlns:gpxtpx="http://www.garmin.com/xmlschemas/TrackPointExtension/v1">
            <gpxtpx:hr>100</gpxtpx:hr>
          </gpxtpx:TrackPointExtension>
        </extensions>
      </trkpt>
      <trkpt lat="45.7565" lon="3.08077">
        <ele>427.39999389648</ele>
        <time>2024-05-26T13:21:12.000Z</time>
        <extensions>
          <gpxtpx:TrackPointExtension xmlns:gpxtpx="http://www.garmin.com/xmlschemas/TrackPointExtension/v1">
            <gpxtpx:hr>101</gpxtpx:hr>
          </gpxtpx:TrackPointExtension>
        </extensions>
      </trkpt>
      <trkpt lat="45.75656" lon="3.08076">
        <ele>426.20001220703</ele>
        <time>2024-05-26T13:21:13.000Z</time>
        <extensions>
          <gpxtpx:TrackPointExtension xmlns:gpxtpx="http://www.garmin.com/xmlschemas/TrackPointExtension/v1">
            <gpxtpx:hr>101</gpxtpx:hr>
          </gpxtpx:TrackPointExtension>
        </extensions>
      </trkpt>
      <trkpt lat="45.75665" lon="3.08074">
        <ele>424.60000610352</ele>
        <time>2024-05-26T13:21:15.000Z</time>
        <extensions>
          <gpxtpx:TrackPointExtension xmlns:gpxtpx="http://www.garmin.com/xmlschemas/TrackPointExtension/v1">
            <gpxtpx:hr>102</gpxtpx:hr>
          </gpxtpx:TrackPointExtension>
        </extensions>
      </trkpt>
      <trkpt lat="45.7567" lon="3.08074">
        <ele>423.79998779297</ele>
        <time>2024-05-26T13:21:16.000Z</time>
        <extensions>
          <gpxtpx:TrackPointExtension xmlns:gpxtpx="http://www.garmin.com/xmlschemas/TrackPointExtension/v1">
            <gpxtpx:hr>103</gpxtpx:hr>
          </gpxtpx:TrackPointExtension>
        </extensions>
      </trkpt>
      <trkpt lat="45.75673" lon="3.08074">
        <ele>423.39999389648</ele>
        <time>2024-05-26T13:21:17.000Z</time>
        <extensions>
          <gpxtpx:TrackPointExtension xmlns:gpxtpx="http://www.garmin.com/xmlschemas/TrackPointExtension/v1">
            <gpxtpx:hr>103</gpxtpx:hr>
          </gpxtpx:TrackPointExtension>
        </extensions>
      </trkpt>
      <trkpt lat="45.75677" lon="3.08074">
        <ele>422.39999389648</ele>
        <time>2024-05-26T13:21:19.000Z</time>
        <extensions>
          <gpxtpx:TrackPointExtension xmlns:gpxtpx="http://www.garmin.com/xmlschemas/TrackPointExtension/v1">
            <gpxtpx:hr>104</gpxtpx:hr>
          </gpxtpx:TrackPointExtension>
        </extensions>
      </trkpt>
      <trkpt lat="45.75678" lon="3.08073">
        <ele>422.20001220703</ele>
        <time>2024-05-26T13:21:20.000Z</time>
        <extensions>
          <gpxtpx:TrackPointExtension xmlns:gpxtpx="http://www.garmin.com/xmlschemas/TrackPointExtension/v1">
            <gpxtpx:hr>104</gpxtpx:hr>
          </gpxtpx:TrackPointExtension>
        </extensions>
      </trkpt>
      <trkpt lat="45.75685" lon="3.08075">
        <ele>420.60000610352</ele>
        <time>2024-05-26T13:21:23.000Z</time>
        <extensions>
          <gpxtpx:TrackPointExtension xmlns:gpxtpx="http://www.garmin.com/xmlschemas/TrackPointExtension/v1">
            <gpxtpx:hr>103</gpxtpx:hr>
          </gpxtpx:TrackPointExtension>
        </extensions>
      </trkpt>
      <trkpt lat="45.75689" lon="3.08075">
        <ele>420</ele>
        <time>2024-05-26T13:21:24.000Z</time>
        <extensions>
          <gpxtpx:TrackPointExtension xmlns:gpxtpx="http://www.garmin.com/xmlschemas/TrackPointExtension/v1">
            <gpxtpx:hr>103</gpxtpx:hr>
          </gpxtpx:TrackPointExtension>
        </extensions>
      </trkpt>
      <trkpt lat="45.75699" lon="3.08077">
        <ele>419</ele>
        <time>2024-05-26T13:21:26.000Z</time>
        <extensions>
          <gpxtpx:TrackPointExtension xmlns:gpxtpx="http://www.garmin.com/xmlschemas/TrackPointExtension/v1">
            <gpxtpx:hr>104</gpxtpx:hr>
          </gpxtpx:TrackPointExtension>
        </extensions>
      </trkpt>
      <trkpt lat="45.7571" lon="3.08078">
        <ele>418.60000610352</ele>
        <time>2024-05-26T13:21:28.000Z</time>
        <extensions>
          <gpxtpx:TrackPointExtension xmlns:gpxtpx="http://www.garmin.com/xmlschemas/TrackPointExtension/v1">
            <gpxtpx:hr>105</gpxtpx:hr>
          </gpxtpx:TrackPointExtension>
        </extensions>
      </trkpt>
      <trkpt lat="45.75727" lon="3.08081">
        <ele>419.20001220703</ele>
        <time>2024-05-26T13:21:32.000Z</time>
        <extensions>
          <gpxtpx:TrackPointExtension xmlns:gpxtpx="http://www.garmin.com/xmlschemas/TrackPointExtension/v1">
            <gpxtpx:hr>104</gpxtpx:hr>
          </gpxtpx:TrackPointExtension>
        </extensions>
      </trkpt>
      <trkpt lat="45.75728" lon="3.08081">
        <ele>419.20001220703</ele>
        <time>2024-05-26T13:21:35.000Z</time>
        <extensions>
          <gpxtpx:TrackPointExtension xmlns:gpxtpx="http://www.garmin.com/xmlschemas/TrackPointExtension/v1">
            <gpxtpx:hr>103</gpxtpx:hr>
          </gpxtpx:TrackPointExtension>
        </extensions>
      </trkpt>
      <trkpt lat="45.75728" lon="3.08081">
        <ele>419.39999389648</ele>
        <time>2024-05-26T13:21:39.000Z</time>
        <extensions>
          <gpxtpx:TrackPointExtension xmlns:gpxtpx="http://www.garmin.com/xmlschemas/TrackPointExtension/v1">
            <gpxtpx:hr>100</gpxtpx:hr>
          </gpxtpx:TrackPointExtension>
        </extensions>
      </trkpt>
      <trkpt lat="45.75728" lon="3.08081">
        <ele>419.20001220703</ele>
        <time>2024-05-26T13:21:45.000Z</time>
        <extensions>
          <gpxtpx:TrackPointExtension xmlns:gpxtpx="http://www.garmin.com/xmlschemas/TrackPointExtension/v1">
            <gpxtpx:hr>97</gpxtpx:hr>
          </gpxtpx:TrackPointExtension>
        </extensions>
      </trkpt>
      <trkpt lat="45.75728" lon="3.08081">
        <ele>419.20001220703</ele>
        <time>2024-05-26T13:21:50.000Z</time>
        <extensions>
          <gpxtpx:TrackPointExtension xmlns:gpxtpx="http://www.garmin.com/xmlschemas/TrackPointExtension/v1">
            <gpxtpx:hr>94</gpxtpx:hr>
          </gpxtpx:TrackPointExtension>
        </extensions>
      </trkpt>
      <trkpt lat="45.75728" lon="3.08081">
        <ele>419</ele>
        <time>2024-05-26T13:22:04.000Z</time>
        <extensions>
          <gpxtpx:TrackPointExtension xmlns:gpxtpx="http://www.garmin.com/xmlschemas/TrackPointExtension/v1">
            <gpxtpx:hr>92</gpxtpx:hr>
          </gpxtpx:TrackPointExtension>
        </extensions>
      </trkpt>
      <trkpt lat="45.75731" lon="3.08083">
        <ele>418.79998779297</ele>
        <time>2024-05-26T13:22:16.000Z</time>
        <extensions>
          <gpxtpx:TrackPointExtension xmlns:gpxtpx="http://www.garmin.com/xmlschemas/TrackPointExtension/v1">
            <gpxtpx:hr>94</gpxtpx:hr>
          </gpxtpx:TrackPointExtension>
        </extensions>
      </trkpt>
      <trkpt lat="45.75743" lon="3.08085">
        <ele>418</ele>
        <time>2024-05-26T13:22:20.000Z</time>
        <extensions>
          <gpxtpx:TrackPointExtension xmlns:gpxtpx="http://www.garmin.com/xmlschemas/TrackPointExtension/v1">
            <gpxtpx:hr>94</gpxtpx:hr>
          </gpxtpx:TrackPointExtension>
        </extensions>
      </trkpt>
      <trkpt lat="45.75747" lon="3.08084">
        <ele>417.79998779297</ele>
        <time>2024-05-26T13:22:21.000Z</time>
        <extensions>
          <gpxtpx:TrackPointExtension xmlns:gpxtpx="http://www.garmin.com/xmlschemas/TrackPointExtension/v1">
            <gpxtpx:hr>93</gpxtpx:hr>
          </gpxtpx:TrackPointExtension>
        </extensions>
      </trkpt>
      <trkpt lat="45.75765" lon="3.08076">
        <ele>416.79998779297</ele>
        <time>2024-05-26T13:22:25.000Z</time>
        <extensions>
          <gpxtpx:TrackPointExtension xmlns:gpxtpx="http://www.garmin.com/xmlschemas/TrackPointExtension/v1">
            <gpxtpx:hr>94</gpxtpx:hr>
          </gpxtpx:TrackPointExtension>
        </extensions>
      </trkpt>
      <trkpt lat="45.75776" lon="3.08076">
        <ele>416.20001220703</ele>
        <time>2024-05-26T13:22:27.000Z</time>
        <extensions>
          <gpxtpx:TrackPointExtension xmlns:gpxtpx="http://www.garmin.com/xmlschemas/TrackPointExtension/v1">
            <gpxtpx:hr>94</gpxtpx:hr>
          </gpxtpx:TrackPointExtension>
        </extensions>
      </trkpt>
      <trkpt lat="45.75786" lon="3.0808">
        <ele>415.39999389648</ele>
        <time>2024-05-26T13:22:29.000Z</time>
        <extensions>
          <gpxtpx:TrackPointExtension xmlns:gpxtpx="http://www.garmin.com/xmlschemas/TrackPointExtension/v1">
            <gpxtpx:hr>95</gpxtpx:hr>
          </gpxtpx:TrackPointExtension>
        </extensions>
      </trkpt>
      <trkpt lat="45.75791" lon="3.08082">
        <ele>415</ele>
        <time>2024-05-26T13:22:30.000Z</time>
        <extensions>
          <gpxtpx:TrackPointExtension xmlns:gpxtpx="http://www.garmin.com/xmlschemas/TrackPointExtension/v1">
            <gpxtpx:hr>95</gpxtpx:hr>
          </gpxtpx:TrackPointExtension>
        </extensions>
      </trkpt>
      <trkpt lat="45.75817" lon="3.08095">
        <ele>414</ele>
        <time>2024-05-26T13:22:35.000Z</time>
        <extensions>
          <gpxtpx:TrackPointExtension xmlns:gpxtpx="http://www.garmin.com/xmlschemas/TrackPointExtension/v1">
            <gpxtpx:hr>96</gpxtpx:hr>
          </gpxtpx:TrackPointExtension>
        </extensions>
      </trkpt>
      <trkpt lat="45.75823" lon="3.081">
        <ele>413.79998779297</ele>
        <time>2024-05-26T13:22:36.000Z</time>
        <extensions>
          <gpxtpx:TrackPointExtension xmlns:gpxtpx="http://www.garmin.com/xmlschemas/TrackPointExtension/v1">
            <gpxtpx:hr>97</gpxtpx:hr>
          </gpxtpx:TrackPointExtension>
        </extensions>
      </trkpt>
      <trkpt lat="45.75837" lon="3.08113">
        <ele>413.60000610352</ele>
        <time>2024-05-26T13:22:38.000Z</time>
        <extensions>
          <gpxtpx:TrackPointExtension xmlns:gpxtpx="http://www.garmin.com/xmlschemas/TrackPointExtension/v1">
            <gpxtpx:hr>98</gpxtpx:hr>
          </gpxtpx:TrackPointExtension>
        </extensions>
      </trkpt>
      <trkpt lat="45.75849" lon="3.08115">
        <ele>414</ele>
        <time>2024-05-26T13:22:40.000Z</time>
        <extensions>
          <gpxtpx:TrackPointExtension xmlns:gpxtpx="http://www.garmin.com/xmlschemas/TrackPointExtension/v1">
            <gpxtpx:hr>100</gpxtpx:hr>
          </gpxtpx:TrackPointExtension>
        </extensions>
      </trkpt>
      <trkpt lat="45.75862" lon="3.08116">
        <ele>413.79998779297</ele>
        <time>2024-05-26T13:22:44.000Z</time>
        <extensions>
          <gpxtpx:TrackPointExtension xmlns:gpxtpx="http://www.garmin.com/xmlschemas/TrackPointExtension/v1">
            <gpxtpx:hr>101</gpxtpx:hr>
          </gpxtpx:TrackPointExtension>
        </extensions>
      </trkpt>
      <trkpt lat="45.75897" lon="3.08131">
        <ele>412.60000610352</ele>
        <time>2024-05-26T13:22:50.000Z</time>
        <extensions>
          <gpxtpx:TrackPointExtension xmlns:gpxtpx="http://www.garmin.com/xmlschemas/TrackPointExtension/v1">
            <gpxtpx:hr>103</gpxtpx:hr>
          </gpxtpx:TrackPointExtension>
        </extensions>
      </trkpt>
      <trkpt lat="45.75911" lon="3.08136">
        <ele>411.39999389648</ele>
        <time>2024-05-26T13:22:53.000Z</time>
        <extensions>
          <gpxtpx:TrackPointExtension xmlns:gpxtpx="http://www.garmin.com/xmlschemas/TrackPointExtension/v1">
            <gpxtpx:hr>102</gpxtpx:hr>
          </gpxtpx:TrackPointExtension>
        </extensions>
      </trkpt>
      <trkpt lat="45.75922" lon="3.08141">
        <ele>411.20001220703</ele>
        <time>2024-05-26T13:22:55.000Z</time>
        <extensions>
          <gpxtpx:TrackPointExtension xmlns:gpxtpx="http://www.garmin.com/xmlschemas/TrackPointExtension/v1">
            <gpxtpx:hr>103</gpxtpx:hr>
          </gpxtpx:TrackPointExtension>
        </extensions>
      </trkpt>
      <trkpt lat="45.75952" lon="3.08156">
        <ele>410.39999389648</ele>
        <time>2024-05-26T13:23:00.000Z</time>
        <extensions>
          <gpxtpx:TrackPointExtension xmlns:gpxtpx="http://www.garmin.com/xmlschemas/TrackPointExtension/v1">
            <gpxtpx:hr>102</gpxtpx:hr>
          </gpxtpx:TrackPointExtension>
        </extensions>
      </trkpt>
      <trkpt lat="45.75971" lon="3.08164">
        <ele>409.79998779297</ele>
        <time>2024-05-26T13:23:03.000Z</time>
        <extensions>
          <gpxtpx:TrackPointExtension xmlns:gpxtpx="http://www.garmin.com/xmlschemas/TrackPointExtension/v1">
            <gpxtpx:hr>103</gpxtpx:hr>
          </gpxtpx:TrackPointExtension>
        </extensions>
      </trkpt>
      <trkpt lat="45.75985" lon="3.08169">
        <ele>409.20001220703</ele>
        <time>2024-05-26T13:23:05.000Z</time>
        <extensions>
          <gpxtpx:TrackPointExtension xmlns:gpxtpx="http://www.garmin.com/xmlschemas/TrackPointExtension/v1">
            <gpxtpx:hr>102</gpxtpx:hr>
          </gpxtpx:TrackPointExtension>
        </extensions>
      </trkpt>
      <trkpt lat="45.76025" lon="3.08182">
        <ele>407.39999389648</ele>
        <time>2024-05-26T13:23:11.000Z</time>
        <extensions>
          <gpxtpx:TrackPointExtension xmlns:gpxtpx="http://www.garmin.com/xmlschemas/TrackPointExtension/v1">
            <gpxtpx:hr>102</gpxtpx:hr>
          </gpxtpx:TrackPointExtension>
        </extensions>
      </trkpt>
      <trkpt lat="45.76031" lon="3.08185">
        <ele>407</ele>
        <time>2024-05-26T13:23:12.000Z</time>
        <extensions>
          <gpxtpx:TrackPointExtension xmlns:gpxtpx="http://www.garmin.com/xmlschemas/TrackPointExtension/v1">
            <gpxtpx:hr>102</gpxtpx:hr>
          </gpxtpx:TrackPointExtension>
        </extensions>
      </trkpt>
      <trkpt lat="45.76044" lon="3.08191">
        <ele>406.20001220703</ele>
        <time>2024-05-26T13:23:14.000Z</time>
        <extensions>
          <gpxtpx:TrackPointExtension xmlns:gpxtpx="http://www.garmin.com/xmlschemas/TrackPointExtension/v1">
            <gpxtpx:hr>101</gpxtpx:hr>
          </gpxtpx:TrackPointExtension>
        </extensions>
      </trkpt>
      <trkpt lat="45.76075" lon="3.08205">
        <ele>405.39999389648</ele>
        <time>2024-05-26T13:23:19.000Z</time>
        <extensions>
          <gpxtpx:TrackPointExtension xmlns:gpxtpx="http://www.garmin.com/xmlschemas/TrackPointExtension/v1">
            <gpxtpx:hr>100</gpxtpx:hr>
          </gpxtpx:TrackPointExtension>
        </extensions>
      </trkpt>
      <trkpt lat="45.76087" lon="3.0821">
        <ele>405</ele>
        <time>2024-05-26T13:23:21.000Z</time>
        <extensions>
          <gpxtpx:TrackPointExtension xmlns:gpxtpx="http://www.garmin.com/xmlschemas/TrackPointExtension/v1">
            <gpxtpx:hr>100</gpxtpx:hr>
          </gpxtpx:TrackPointExtension>
        </extensions>
      </trkpt>
      <trkpt lat="45.7611" lon="3.08219">
        <ele>403.79998779297</ele>
        <time>2024-05-26T13:23:25.000Z</time>
        <extensions>
          <gpxtpx:TrackPointExtension xmlns:gpxtpx="http://www.garmin.com/xmlschemas/TrackPointExtension/v1">
            <gpxtpx:hr>98</gpxtpx:hr>
          </gpxtpx:TrackPointExtension>
        </extensions>
      </trkpt>
      <trkpt lat="45.76133" lon="3.08228">
        <ele>403.20001220703</ele>
        <time>2024-05-26T13:23:29.000Z</time>
        <extensions>
          <gpxtpx:TrackPointExtension xmlns:gpxtpx="http://www.garmin.com/xmlschemas/TrackPointExtension/v1">
            <gpxtpx:hr>97</gpxtpx:hr>
          </gpxtpx:TrackPointExtension>
        </extensions>
      </trkpt>
      <trkpt lat="45.76152" lon="3.08237">
        <ele>402.79998779297</ele>
        <time>2024-05-26T13:23:33.000Z</time>
        <extensions>
          <gpxtpx:TrackPointExtension xmlns:gpxtpx="http://www.garmin.com/xmlschemas/TrackPointExtension/v1">
            <gpxtpx:hr>98</gpxtpx:hr>
          </gpxtpx:TrackPointExtension>
        </extensions>
      </trkpt>
      <trkpt lat="45.7616" lon="3.0824">
        <ele>402.60000610352</ele>
        <time>2024-05-26T13:23:35.000Z</time>
        <extensions>
          <gpxtpx:TrackPointExtension xmlns:gpxtpx="http://www.garmin.com/xmlschemas/TrackPointExtension/v1">
            <gpxtpx:hr>101</gpxtpx:hr>
          </gpxtpx:TrackPointExtension>
        </extensions>
      </trkpt>
      <trkpt lat="45.76163" lon="3.08243">
        <ele>402.39999389648</ele>
        <time>2024-05-26T13:23:36.000Z</time>
        <extensions>
          <gpxtpx:TrackPointExtension xmlns:gpxtpx="http://www.garmin.com/xmlschemas/TrackPointExtension/v1">
            <gpxtpx:hr>102</gpxtpx:hr>
          </gpxtpx:TrackPointExtension>
        </extensions>
      </trkpt>
      <trkpt lat="45.76166" lon="3.08251">
        <ele>402</ele>
        <time>2024-05-26T13:23:38.000Z</time>
        <extensions>
          <gpxtpx:TrackPointExtension xmlns:gpxtpx="http://www.garmin.com/xmlschemas/TrackPointExtension/v1">
            <gpxtpx:hr>103</gpxtpx:hr>
          </gpxtpx:TrackPointExtension>
        </extensions>
      </trkpt>
      <trkpt lat="45.76169" lon="3.08266">
        <ele>401.79998779297</ele>
        <time>2024-05-26T13:23:41.000Z</time>
        <extensions>
          <gpxtpx:TrackPointExtension xmlns:gpxtpx="http://www.garmin.com/xmlschemas/TrackPointExtension/v1">
            <gpxtpx:hr>103</gpxtpx:hr>
          </gpxtpx:TrackPointExtension>
        </extensions>
      </trkpt>
      <trkpt lat="45.76175" lon="3.08291">
        <ele>400.79998779297</ele>
        <time>2024-05-26T13:23:45.000Z</time>
        <extensions>
          <gpxtpx:TrackPointExtension xmlns:gpxtpx="http://www.garmin.com/xmlschemas/TrackPointExtension/v1">
            <gpxtpx:hr>102</gpxtpx:hr>
          </gpxtpx:TrackPointExtension>
        </extensions>
      </trkpt>
      <trkpt lat="45.76177" lon="3.08298">
        <ele>400.60000610352</ele>
        <time>2024-05-26T13:23:46.000Z</time>
        <extensions>
          <gpxtpx:TrackPointExtension xmlns:gpxtpx="http://www.garmin.com/xmlschemas/TrackPointExtension/v1">
            <gpxtpx:hr>102</gpxtpx:hr>
          </gpxtpx:TrackPointExtension>
        </extensions>
      </trkpt>
      <trkpt lat="45.76187" lon="3.08343">
        <ele>399.60000610352</ele>
        <time>2024-05-26T13:23:52.000Z</time>
        <extensions>
          <gpxtpx:TrackPointExtension xmlns:gpxtpx="http://www.garmin.com/xmlschemas/TrackPointExtension/v1">
            <gpxtpx:hr>103</gpxtpx:hr>
          </gpxtpx:TrackPointExtension>
        </extensions>
      </trkpt>
      <trkpt lat="45.76194" lon="3.08371">
        <ele>398.60000610352</ele>
        <time>2024-05-26T13:23:56.000Z</time>
        <extensions>
          <gpxtpx:TrackPointExtension xmlns:gpxtpx="http://www.garmin.com/xmlschemas/TrackPointExtension/v1">
            <gpxtpx:hr>100</gpxtpx:hr>
          </gpxtpx:TrackPointExtension>
        </extensions>
      </trkpt>
      <trkpt lat="45.76195" lon="3.08378">
        <ele>398.39999389648</ele>
        <time>2024-05-26T13:23:57.000Z</time>
        <extensions>
          <gpxtpx:TrackPointExtension xmlns:gpxtpx="http://www.garmin.com/xmlschemas/TrackPointExtension/v1">
            <gpxtpx:hr>102</gpxtpx:hr>
          </gpxtpx:TrackPointExtension>
        </extensions>
      </trkpt>
      <trkpt lat="45.76194" lon="3.08383">
        <ele>398.20001220703</ele>
        <time>2024-05-26T13:23:58.000Z</time>
        <extensions>
          <gpxtpx:TrackPointExtension xmlns:gpxtpx="http://www.garmin.com/xmlschemas/TrackPointExtension/v1">
            <gpxtpx:hr>101</gpxtpx:hr>
          </gpxtpx:TrackPointExtension>
        </extensions>
      </trkpt>
      <trkpt lat="45.76192" lon="3.08387">
        <ele>398.20001220703</ele>
        <time>2024-05-26T13:23:59.000Z</time>
        <extensions>
          <gpxtpx:TrackPointExtension xmlns:gpxtpx="http://www.garmin.com/xmlschemas/TrackPointExtension/v1">
            <gpxtpx:hr>99</gpxtpx:hr>
          </gpxtpx:TrackPointExtension>
        </extensions>
      </trkpt>
      <trkpt lat="45.76189" lon="3.08389">
        <ele>398.20001220703</ele>
        <time>2024-05-26T13:24:00.000Z</time>
        <extensions>
          <gpxtpx:TrackPointExtension xmlns:gpxtpx="http://www.garmin.com/xmlschemas/TrackPointExtension/v1">
            <gpxtpx:hr>101</gpxtpx:hr>
          </gpxtpx:TrackPointExtension>
        </extensions>
      </trkpt>
      <trkpt lat="45.76184" lon="3.08394">
        <ele>393.9</ele>
      </trkpt>
      <trkpt lat="45.76182" lon="3.08393">
        <ele>396.39999389648</ele>
        <time>2024-05-26T13:28:04.000Z</time>
        <extensions>
          <gpxtpx:TrackPointExtension xmlns:gpxtpx="http://www.garmin.com/xmlschemas/TrackPointExtension/v1">
            <gpxtpx:hr>79</gpxtpx:hr>
          </gpxtpx:TrackPointExtension>
        </extensions>
      </trkpt>
      <trkpt lat="45.76184" lon="3.0839">
        <ele>396.39999389648</ele>
        <time>2024-05-26T13:28:07.000Z</time>
        <extensions>
          <gpxtpx:TrackPointExtension xmlns:gpxtpx="http://www.garmin.com/xmlschemas/TrackPointExtension/v1">
            <gpxtpx:hr>80</gpxtpx:hr>
          </gpxtpx:TrackPointExtension>
        </extensions>
      </trkpt>
      <trkpt lat="45.76185" lon="3.0839">
        <ele>396.39999389648</ele>
        <time>2024-05-26T13:28:08.000Z</time>
        <extensions>
          <gpxtpx:TrackPointExtension xmlns:gpxtpx="http://www.garmin.com/xmlschemas/TrackPointExtension/v1">
            <gpxtpx:hr>80</gpxtpx:hr>
          </gpxtpx:TrackPointExtension>
        </extensions>
      </trkpt>
      <trkpt lat="45.76185" lon="3.0839">
        <ele>396.39999389648</ele>
        <time>2024-05-26T13:28:11.000Z</time>
        <extensions>
          <gpxtpx:TrackPointExtension xmlns:gpxtpx="http://www.garmin.com/xmlschemas/TrackPointExtension/v1">
            <gpxtpx:hr>77</gpxtpx:hr>
          </gpxtpx:TrackPointExtension>
        </extensions>
      </trkpt>
      <trkpt lat="45.76185" lon="3.0839">
        <ele>396.39999389648</ele>
        <time>2024-05-26T13:28:13.000Z</time>
        <extensions>
          <gpxtpx:TrackPointExtension xmlns:gpxtpx="http://www.garmin.com/xmlschemas/TrackPointExtension/v1">
            <gpxtpx:hr>80</gpxtpx:hr>
          </gpxtpx:TrackPointExtension>
        </extensions>
      </trkpt>
      <trkpt lat="45.76185" lon="3.0839">
        <ele>396.39999389648</ele>
        <time>2024-05-26T13:28:14.000Z</time>
        <extensions>
          <gpxtpx:TrackPointExtension xmlns:gpxtpx="http://www.garmin.com/xmlschemas/TrackPointExtension/v1">
            <gpxtpx:hr>83</gpxtpx:hr>
          </gpxtpx:TrackPointExtension>
        </extensions>
      </trkpt>
      <trkpt lat="45.76185" lon="3.0839">
        <ele>396.39999389648</ele>
        <time>2024-05-26T13:28:15.000Z</time>
        <extensions>
          <gpxtpx:TrackPointExtension xmlns:gpxtpx="http://www.garmin.com/xmlschemas/TrackPointExtension/v1">
            <gpxtpx:hr>85</gpxtpx:hr>
          </gpxtpx:TrackPointExtension>
        </extensions>
      </trkpt>
      <trkpt lat="45.76185" lon="3.0839">
        <ele>396.60000610352</ele>
        <time>2024-05-26T13:28:20.000Z</time>
        <extensions>
          <gpxtpx:TrackPointExtension xmlns:gpxtpx="http://www.garmin.com/xmlschemas/TrackPointExtension/v1">
            <gpxtpx:hr>88</gpxtpx:hr>
          </gpxtpx:TrackPointExtension>
        </extensions>
      </trkpt>
      <trkpt lat="45.76185" lon="3.0839">
        <ele>396.60000610352</ele>
        <time>2024-05-26T13:28:23.000Z</time>
        <extensions>
          <gpxtpx:TrackPointExtension xmlns:gpxtpx="http://www.garmin.com/xmlschemas/TrackPointExtension/v1">
            <gpxtpx:hr>92</gpxtpx:hr>
          </gpxtpx:TrackPointExtension>
        </extensions>
      </trkpt>
      <trkpt lat="45.76185" lon="3.0839">
        <ele>396.39999389648</ele>
        <time>2024-05-26T13:28:34.000Z</time>
        <extensions>
          <gpxtpx:TrackPointExtension xmlns:gpxtpx="http://www.garmin.com/xmlschemas/TrackPointExtension/v1">
            <gpxtpx:hr>89</gpxtpx:hr>
          </gpxtpx:TrackPointExtension>
        </extensions>
      </trkpt>
      <trkpt lat="45.76185" lon="3.0839">
        <ele>396.39999389648</ele>
        <time>2024-05-26T13:28:36.000Z</time>
        <extensions>
          <gpxtpx:TrackPointExtension xmlns:gpxtpx="http://www.garmin.com/xmlschemas/TrackPointExtension/v1">
            <gpxtpx:hr>88</gpxtpx:hr>
          </gpxtpx:TrackPointExtension>
        </extensions>
      </trkpt>
      <trkpt lat="45.76185" lon="3.08389">
        <ele>396.39999389648</ele>
        <time>2024-05-26T13:28:53.000Z</time>
        <extensions>
          <gpxtpx:TrackPointExtension xmlns:gpxtpx="http://www.garmin.com/xmlschemas/TrackPointExtension/v1">
            <gpxtpx:hr>88</gpxtpx:hr>
          </gpxtpx:TrackPointExtension>
        </extensions>
      </trkpt>
      <trkpt lat="45.76194" lon="3.08381">
        <ele>396.60000610352</ele>
        <time>2024-05-26T13:28:59.000Z</time>
        <extensions>
          <gpxtpx:TrackPointExtension xmlns:gpxtpx="http://www.garmin.com/xmlschemas/TrackPointExtension/v1">
            <gpxtpx:hr>88</gpxtpx:hr>
          </gpxtpx:TrackPointExtension>
        </extensions>
      </trkpt>
      <trkpt lat="45.76195" lon="3.08375">
        <ele>396.60000610352</ele>
        <time>2024-05-26T13:29:01.000Z</time>
        <extensions>
          <gpxtpx:TrackPointExtension xmlns:gpxtpx="http://www.garmin.com/xmlschemas/TrackPointExtension/v1">
            <gpxtpx:hr>86</gpxtpx:hr>
          </gpxtpx:TrackPointExtension>
        </extensions>
      </trkpt>
      <trkpt lat="45.76194" lon="3.08365">
        <ele>396.60000610352</ele>
        <time>2024-05-26T13:29:04.000Z</time>
        <extensions>
          <gpxtpx:TrackPointExtension xmlns:gpxtpx="http://www.garmin.com/xmlschemas/TrackPointExtension/v1">
            <gpxtpx:hr>85</gpxtpx:hr>
          </gpxtpx:TrackPointExtension>
        </extensions>
      </trkpt>
      <trkpt lat="45.76187" lon="3.08341">
        <ele>397</ele>
        <time>2024-05-26T13:29:10.000Z</time>
        <extensions>
          <gpxtpx:TrackPointExtension xmlns:gpxtpx="http://www.garmin.com/xmlschemas/TrackPointExtension/v1">
            <gpxtpx:hr>87</gpxtpx:hr>
          </gpxtpx:TrackPointExtension>
        </extensions>
      </trkpt>
      <trkpt lat="45.76181" lon="3.08318">
        <ele>397.79998779297</ele>
        <time>2024-05-26T13:29:15.000Z</time>
        <extensions>
          <gpxtpx:TrackPointExtension xmlns:gpxtpx="http://www.garmin.com/xmlschemas/TrackPointExtension/v1">
            <gpxtpx:hr>89</gpxtpx:hr>
          </gpxtpx:TrackPointExtension>
        </extensions>
      </trkpt>
      <trkpt lat="45.76179" lon="3.08309">
        <ele>398</ele>
        <time>2024-05-26T13:29:17.000Z</time>
        <extensions>
          <gpxtpx:TrackPointExtension xmlns:gpxtpx="http://www.garmin.com/xmlschemas/TrackPointExtension/v1">
            <gpxtpx:hr>93</gpxtpx:hr>
          </gpxtpx:TrackPointExtension>
        </extensions>
      </trkpt>
      <trkpt lat="45.76178" lon="3.08305">
        <ele>398.20001220703</ele>
        <time>2024-05-26T13:29:18.000Z</time>
        <extensions>
          <gpxtpx:TrackPointExtension xmlns:gpxtpx="http://www.garmin.com/xmlschemas/TrackPointExtension/v1">
            <gpxtpx:hr>90</gpxtpx:hr>
          </gpxtpx:TrackPointExtension>
        </extensions>
      </trkpt>
      <trkpt lat="45.76175" lon="3.08286">
        <ele>398.79998779297</ele>
        <time>2024-05-26T13:29:22.000Z</time>
        <extensions>
          <gpxtpx:TrackPointExtension xmlns:gpxtpx="http://www.garmin.com/xmlschemas/TrackPointExtension/v1">
            <gpxtpx:hr>92</gpxtpx:hr>
          </gpxtpx:TrackPointExtension>
        </extensions>
      </trkpt>
      <trkpt lat="45.76169" lon="3.08266">
        <ele>399.39999389648</ele>
        <time>2024-05-26T13:29:27.000Z</time>
        <extensions>
          <gpxtpx:TrackPointExtension xmlns:gpxtpx="http://www.garmin.com/xmlschemas/TrackPointExtension/v1">
            <gpxtpx:hr>95</gpxtpx:hr>
          </gpxtpx:TrackPointExtension>
        </extensions>
      </trkpt>
      <trkpt lat="45.76168" lon="3.08259">
        <ele>399.60000610352</ele>
        <time>2024-05-26T13:29:29.000Z</time>
        <extensions>
          <gpxtpx:TrackPointExtension xmlns:gpxtpx="http://www.garmin.com/xmlschemas/TrackPointExtension/v1">
            <gpxtpx:hr>93</gpxtpx:hr>
          </gpxtpx:TrackPointExtension>
        </extensions>
      </trkpt>
      <trkpt lat="45.76168" lon="3.08256">
        <ele>399.79998779297</ele>
        <time>2024-05-26T13:29:30.000Z</time>
        <extensions>
          <gpxtpx:TrackPointExtension xmlns:gpxtpx="http://www.garmin.com/xmlschemas/TrackPointExtension/v1">
            <gpxtpx:hr>92</gpxtpx:hr>
          </gpxtpx:TrackPointExtension>
        </extensions>
      </trkpt>
      <trkpt lat="45.76168" lon="3.08253">
        <ele>399.79998779297</ele>
        <time>2024-05-26T13:29:31.000Z</time>
        <extensions>
          <gpxtpx:TrackPointExtension xmlns:gpxtpx="http://www.garmin.com/xmlschemas/TrackPointExtension/v1">
            <gpxtpx:hr>94</gpxtpx:hr>
          </gpxtpx:TrackPointExtension>
        </extensions>
      </trkpt>
      <trkpt lat="45.7617" lon="3.08248">
        <ele>400</ele>
        <time>2024-05-26T13:29:33.000Z</time>
        <extensions>
          <gpxtpx:TrackPointExtension xmlns:gpxtpx="http://www.garmin.com/xmlschemas/TrackPointExtension/v1">
            <gpxtpx:hr>94</gpxtpx:hr>
          </gpxtpx:TrackPointExtension>
        </extensions>
      </trkpt>
      <trkpt lat="45.76171" lon="3.08246">
        <ele>400</ele>
        <time>2024-05-26T13:29:34.000Z</time>
        <extensions>
          <gpxtpx:TrackPointExtension xmlns:gpxtpx="http://www.garmin.com/xmlschemas/TrackPointExtension/v1">
            <gpxtpx:hr>96</gpxtpx:hr>
          </gpxtpx:TrackPointExtension>
        </extensions>
      </trkpt>
      <trkpt lat="45.76179" lon="3.08246">
        <ele>400</ele>
        <time>2024-05-26T13:29:37.000Z</time>
        <extensions>
          <gpxtpx:TrackPointExtension xmlns:gpxtpx="http://www.garmin.com/xmlschemas/TrackPointExtension/v1">
            <gpxtpx:hr>94</gpxtpx:hr>
          </gpxtpx:TrackPointExtension>
        </extensions>
      </trkpt>
      <trkpt lat="45.76197" lon="3.08252">
        <ele>399.39999389648</ele>
        <time>2024-05-26T13:29:43.000Z</time>
        <extensions>
          <gpxtpx:TrackPointExtension xmlns:gpxtpx="http://www.garmin.com/xmlschemas/TrackPointExtension/v1">
            <gpxtpx:hr>95</gpxtpx:hr>
          </gpxtpx:TrackPointExtension>
        </extensions>
      </trkpt>
      <trkpt lat="45.76205" lon="3.08255">
        <ele>397.60000610352</ele>
        <time>2024-05-26T13:29:45.000Z</time>
        <extensions>
          <gpxtpx:TrackPointExtension xmlns:gpxtpx="http://www.garmin.com/xmlschemas/TrackPointExtension/v1">
            <gpxtpx:hr>96</gpxtpx:hr>
          </gpxtpx:TrackPointExtension>
        </extensions>
      </trkpt>
      <trkpt lat="45.76217" lon="3.08257">
        <ele>397.20001220703</ele>
        <time>2024-05-26T13:29:48.000Z</time>
        <extensions>
          <gpxtpx:TrackPointExtension xmlns:gpxtpx="http://www.garmin.com/xmlschemas/TrackPointExtension/v1">
            <gpxtpx:hr>97</gpxtpx:hr>
          </gpxtpx:TrackPointExtension>
        </extensions>
      </trkpt>
      <trkpt lat="45.76223" lon="3.08256">
        <ele>397</ele>
        <time>2024-05-26T13:29:49.000Z</time>
        <extensions>
          <gpxtpx:TrackPointExtension xmlns:gpxtpx="http://www.garmin.com/xmlschemas/TrackPointExtension/v1">
            <gpxtpx:hr>97</gpxtpx:hr>
          </gpxtpx:TrackPointExtension>
        </extensions>
      </trkpt>
      <trkpt lat="45.76229" lon="3.08257">
        <ele>396.60000610352</ele>
        <time>2024-05-26T13:29:50.000Z</time>
        <extensions>
          <gpxtpx:TrackPointExtension xmlns:gpxtpx="http://www.garmin.com/xmlschemas/TrackPointExtension/v1">
            <gpxtpx:hr>98</gpxtpx:hr>
          </gpxtpx:TrackPointExtension>
        </extensions>
      </trkpt>
      <trkpt lat="45.76235" lon="3.08257">
        <ele>396.39999389648</ele>
        <time>2024-05-26T13:29:51.000Z</time>
        <extensions>
          <gpxtpx:TrackPointExtension xmlns:gpxtpx="http://www.garmin.com/xmlschemas/TrackPointExtension/v1">
            <gpxtpx:hr>98</gpxtpx:hr>
          </gpxtpx:TrackPointExtension>
        </extensions>
      </trkpt>
      <trkpt lat="45.7624" lon="3.08259">
        <ele>396.39999389648</ele>
        <time>2024-05-26T13:29:52.000Z</time>
        <extensions>
          <gpxtpx:TrackPointExtension xmlns:gpxtpx="http://www.garmin.com/xmlschemas/TrackPointExtension/v1">
            <gpxtpx:hr>98</gpxtpx:hr>
          </gpxtpx:TrackPointExtension>
        </extensions>
      </trkpt>
      <trkpt lat="45.76244" lon="3.0826">
        <ele>396.39999389648</ele>
        <time>2024-05-26T13:29:53.000Z</time>
        <extensions>
          <gpxtpx:TrackPointExtension xmlns:gpxtpx="http://www.garmin.com/xmlschemas/TrackPointExtension/v1">
            <gpxtpx:hr>98</gpxtpx:hr>
          </gpxtpx:TrackPointExtension>
        </extensions>
      </trkpt>
      <trkpt lat="45.76254" lon="3.08262">
        <ele>396.39999389648</ele>
        <time>2024-05-26T13:29:55.000Z</time>
        <extensions>
          <gpxtpx:TrackPointExtension xmlns:gpxtpx="http://www.garmin.com/xmlschemas/TrackPointExtension/v1">
            <gpxtpx:hr>97</gpxtpx:hr>
          </gpxtpx:TrackPointExtension>
        </extensions>
      </trkpt>
      <trkpt lat="45.76266" lon="3.08268">
        <ele>396.60000610352</ele>
        <time>2024-05-26T13:29:57.000Z</time>
        <extensions>
          <gpxtpx:TrackPointExtension xmlns:gpxtpx="http://www.garmin.com/xmlschemas/TrackPointExtension/v1">
            <gpxtpx:hr>96</gpxtpx:hr>
          </gpxtpx:TrackPointExtension>
        </extensions>
      </trkpt>
      <trkpt lat="45.76289" lon="3.08273">
        <ele>394.39999389648</ele>
        <time>2024-05-26T13:30:01.000Z</time>
        <extensions>
          <gpxtpx:TrackPointExtension xmlns:gpxtpx="http://www.garmin.com/xmlschemas/TrackPointExtension/v1">
            <gpxtpx:hr>95</gpxtpx:hr>
          </gpxtpx:TrackPointExtension>
        </extensions>
      </trkpt>
      <trkpt lat="45.76294" lon="3.08273">
        <ele>394</ele>
        <time>2024-05-26T13:30:02.000Z</time>
        <extensions>
          <gpxtpx:TrackPointExtension xmlns:gpxtpx="http://www.garmin.com/xmlschemas/TrackPointExtension/v1">
            <gpxtpx:hr>95</gpxtpx:hr>
          </gpxtpx:TrackPointExtension>
        </extensions>
      </trkpt>
      <trkpt lat="45.76307" lon="3.08272">
        <ele>393.39999389648</ele>
        <time>2024-05-26T13:30:04.000Z</time>
        <extensions>
          <gpxtpx:TrackPointExtension xmlns:gpxtpx="http://www.garmin.com/xmlschemas/TrackPointExtension/v1">
            <gpxtpx:hr>95</gpxtpx:hr>
          </gpxtpx:TrackPointExtension>
        </extensions>
      </trkpt>
      <trkpt lat="45.76328" lon="3.08276">
        <ele>393</ele>
        <time>2024-05-26T13:30:07.000Z</time>
        <extensions>
          <gpxtpx:TrackPointExtension xmlns:gpxtpx="http://www.garmin.com/xmlschemas/TrackPointExtension/v1">
            <gpxtpx:hr>96</gpxtpx:hr>
          </gpxtpx:TrackPointExtension>
        </extensions>
      </trkpt>
      <trkpt lat="45.76342" lon="3.08279">
        <ele>394</ele>
        <time>2024-05-26T13:30:09.000Z</time>
        <extensions>
          <gpxtpx:TrackPointExtension xmlns:gpxtpx="http://www.garmin.com/xmlschemas/TrackPointExtension/v1">
            <gpxtpx:hr>96</gpxtpx:hr>
          </gpxtpx:TrackPointExtension>
        </extensions>
      </trkpt>
      <trkpt lat="45.76385" lon="3.08284">
        <ele>393.60000610352</ele>
        <time>2024-05-26T13:30:15.000Z</time>
        <extensions>
          <gpxtpx:TrackPointExtension xmlns:gpxtpx="http://www.garmin.com/xmlschemas/TrackPointExtension/v1">
            <gpxtpx:hr>95</gpxtpx:hr>
          </gpxtpx:TrackPointExtension>
        </extensions>
      </trkpt>
      <trkpt lat="45.76429" lon="3.08287">
        <ele>392</ele>
        <time>2024-05-26T13:30:21.000Z</time>
        <extensions>
          <gpxtpx:TrackPointExtension xmlns:gpxtpx="http://www.garmin.com/xmlschemas/TrackPointExtension/v1">
            <gpxtpx:hr>94</gpxtpx:hr>
          </gpxtpx:TrackPointExtension>
        </extensions>
      </trkpt>
      <trkpt lat="45.76435" lon="3.08287">
        <ele>390.79998779297</ele>
        <time>2024-05-26T13:30:22.000Z</time>
        <extensions>
          <gpxtpx:TrackPointExtension xmlns:gpxtpx="http://www.garmin.com/xmlschemas/TrackPointExtension/v1">
            <gpxtpx:hr>95</gpxtpx:hr>
          </gpxtpx:TrackPointExtension>
        </extensions>
      </trkpt>
      <trkpt lat="45.76444" lon="3.08287">
        <ele>390.20001220703</ele>
        <time>2024-05-26T13:30:23.000Z</time>
        <extensions>
          <gpxtpx:TrackPointExtension xmlns:gpxtpx="http://www.garmin.com/xmlschemas/TrackPointExtension/v1">
            <gpxtpx:hr>96</gpxtpx:hr>
          </gpxtpx:TrackPointExtension>
        </extensions>
      </trkpt>
      <trkpt lat="45.76451" lon="3.08288">
        <ele>389.60000610352</ele>
        <time>2024-05-26T13:30:24.000Z</time>
        <extensions>
          <gpxtpx:TrackPointExtension xmlns:gpxtpx="http://www.garmin.com/xmlschemas/TrackPointExtension/v1">
            <gpxtpx:hr>95</gpxtpx:hr>
          </gpxtpx:TrackPointExtension>
        </extensions>
      </trkpt>
      <trkpt lat="45.76485" lon="3.08288">
        <ele>388.39999389648</ele>
        <time>2024-05-26T13:30:29.000Z</time>
        <extensions>
          <gpxtpx:TrackPointExtension xmlns:gpxtpx="http://www.garmin.com/xmlschemas/TrackPointExtension/v1">
            <gpxtpx:hr>96</gpxtpx:hr>
          </gpxtpx:TrackPointExtension>
        </extensions>
      </trkpt>
      <trkpt lat="45.76507" lon="3.08292">
        <ele>387.79998779297</ele>
        <time>2024-05-26T13:30:33.000Z</time>
        <extensions>
          <gpxtpx:TrackPointExtension xmlns:gpxtpx="http://www.garmin.com/xmlschemas/TrackPointExtension/v1">
            <gpxtpx:hr>97</gpxtpx:hr>
          </gpxtpx:TrackPointExtension>
        </extensions>
      </trkpt>
      <trkpt lat="45.76527" lon="3.0829">
        <ele>387.39999389648</ele>
        <time>2024-05-26T13:30:37.000Z</time>
        <extensions>
          <gpxtpx:TrackPointExtension xmlns:gpxtpx="http://www.garmin.com/xmlschemas/TrackPointExtension/v1">
            <gpxtpx:hr>96</gpxtpx:hr>
          </gpxtpx:TrackPointExtension>
        </extensions>
      </trkpt>
      <trkpt lat="45.76538" lon="3.08288">
        <ele>386.79998779297</ele>
        <time>2024-05-26T13:30:39.000Z</time>
        <extensions>
          <gpxtpx:TrackPointExtension xmlns:gpxtpx="http://www.garmin.com/xmlschemas/TrackPointExtension/v1">
            <gpxtpx:hr>95</gpxtpx:hr>
          </gpxtpx:TrackPointExtension>
        </extensions>
      </trkpt>
      <trkpt lat="45.76542" lon="3.08287">
        <ele>386.60000610352</ele>
        <time>2024-05-26T13:30:40.000Z</time>
        <extensions>
          <gpxtpx:TrackPointExtension xmlns:gpxtpx="http://www.garmin.com/xmlschemas/TrackPointExtension/v1">
            <gpxtpx:hr>94</gpxtpx:hr>
          </gpxtpx:TrackPointExtension>
        </extensions>
      </trkpt>
      <trkpt lat="45.76552" lon="3.08287">
        <ele>386.79998779297</ele>
        <time>2024-05-26T13:30:42.000Z</time>
        <extensions>
          <gpxtpx:TrackPointExtension xmlns:gpxtpx="http://www.garmin.com/xmlschemas/TrackPointExtension/v1">
            <gpxtpx:hr>94</gpxtpx:hr>
          </gpxtpx:TrackPointExtension>
        </extensions>
      </trkpt>
      <trkpt lat="45.76557" lon="3.08289">
        <ele>386.79998779297</ele>
        <time>2024-05-26T13:30:43.000Z</time>
        <extensions>
          <gpxtpx:TrackPointExtension xmlns:gpxtpx="http://www.garmin.com/xmlschemas/TrackPointExtension/v1">
            <gpxtpx:hr>94</gpxtpx:hr>
          </gpxtpx:TrackPointExtension>
        </extensions>
      </trkpt>
      <trkpt lat="45.76565" lon="3.0829">
        <ele>386.79998779297</ele>
        <time>2024-05-26T13:30:44.000Z</time>
        <extensions>
          <gpxtpx:TrackPointExtension xmlns:gpxtpx="http://www.garmin.com/xmlschemas/TrackPointExtension/v1">
            <gpxtpx:hr>94</gpxtpx:hr>
          </gpxtpx:TrackPointExtension>
        </extensions>
      </trkpt>
      <trkpt lat="45.76584" lon="3.08291">
        <ele>386.79998779297</ele>
        <time>2024-05-26T13:30:47.000Z</time>
        <extensions>
          <gpxtpx:TrackPointExtension xmlns:gpxtpx="http://www.garmin.com/xmlschemas/TrackPointExtension/v1">
            <gpxtpx:hr>95</gpxtpx:hr>
          </gpxtpx:TrackPointExtension>
        </extensions>
      </trkpt>
      <trkpt lat="45.76595" lon="3.0829">
        <ele>386.20001220703</ele>
        <time>2024-05-26T13:30:49.000Z</time>
        <extensions>
          <gpxtpx:TrackPointExtension xmlns:gpxtpx="http://www.garmin.com/xmlschemas/TrackPointExtension/v1">
            <gpxtpx:hr>94</gpxtpx:hr>
          </gpxtpx:TrackPointExtension>
        </extensions>
      </trkpt>
      <trkpt lat="45.76601" lon="3.0829">
        <ele>385.79998779297</ele>
        <time>2024-05-26T13:30:50.000Z</time>
        <extensions>
          <gpxtpx:TrackPointExtension xmlns:gpxtpx="http://www.garmin.com/xmlschemas/TrackPointExtension/v1">
            <gpxtpx:hr>97</gpxtpx:hr>
          </gpxtpx:TrackPointExtension>
        </extensions>
      </trkpt>
      <trkpt lat="45.7661" lon="3.08288">
        <ele>385.20001220703</ele>
        <time>2024-05-26T13:30:52.000Z</time>
        <extensions>
          <gpxtpx:TrackPointExtension xmlns:gpxtpx="http://www.garmin.com/xmlschemas/TrackPointExtension/v1">
            <gpxtpx:hr>96</gpxtpx:hr>
          </gpxtpx:TrackPointExtension>
        </extensions>
      </trkpt>
      <trkpt lat="45.76615" lon="3.08287">
        <ele>385</ele>
        <time>2024-05-26T13:30:53.000Z</time>
        <extensions>
          <gpxtpx:TrackPointExtension xmlns:gpxtpx="http://www.garmin.com/xmlschemas/TrackPointExtension/v1">
            <gpxtpx:hr>96</gpxtpx:hr>
          </gpxtpx:TrackPointExtension>
        </extensions>
      </trkpt>
      <trkpt lat="45.76622" lon="3.08287">
        <ele>384.60000610352</ele>
        <time>2024-05-26T13:30:54.000Z</time>
        <extensions>
          <gpxtpx:TrackPointExtension xmlns:gpxtpx="http://www.garmin.com/xmlschemas/TrackPointExtension/v1">
            <gpxtpx:hr>97</gpxtpx:hr>
          </gpxtpx:TrackPointExtension>
        </extensions>
      </trkpt>
      <trkpt lat="45.76642" lon="3.08295">
        <ele>384.39999389648</ele>
        <time>2024-05-26T13:30:57.000Z</time>
        <extensions>
          <gpxtpx:TrackPointExtension xmlns:gpxtpx="http://www.garmin.com/xmlschemas/TrackPointExtension/v1">
            <gpxtpx:hr>96</gpxtpx:hr>
          </gpxtpx:TrackPointExtension>
        </extensions>
      </trkpt>
      <trkpt lat="45.76654" lon="3.08297">
        <ele>384.39999389648</ele>
        <time>2024-05-26T13:30:59.000Z</time>
        <extensions>
          <gpxtpx:TrackPointExtension xmlns:gpxtpx="http://www.garmin.com/xmlschemas/TrackPointExtension/v1">
            <gpxtpx:hr>99</gpxtpx:hr>
          </gpxtpx:TrackPointExtension>
        </extensions>
      </trkpt>
      <trkpt lat="45.7666" lon="3.08297">
        <ele>383.79998779297</ele>
        <time>2024-05-26T13:31:00.000Z</time>
        <extensions>
          <gpxtpx:TrackPointExtension xmlns:gpxtpx="http://www.garmin.com/xmlschemas/TrackPointExtension/v1">
            <gpxtpx:hr>98</gpxtpx:hr>
          </gpxtpx:TrackPointExtension>
        </extensions>
      </trkpt>
      <trkpt lat="45.76678" lon="3.08298">
        <ele>383.39999389648</ele>
        <time>2024-05-26T13:31:03.000Z</time>
        <extensions>
          <gpxtpx:TrackPointExtension xmlns:gpxtpx="http://www.garmin.com/xmlschemas/TrackPointExtension/v1">
            <gpxtpx:hr>103</gpxtpx:hr>
          </gpxtpx:TrackPointExtension>
        </extensions>
      </trkpt>
      <trkpt lat="45.76682" lon="3.08298">
        <ele>383.20001220703</ele>
        <time>2024-05-26T13:31:04.000Z</time>
        <extensions>
          <gpxtpx:TrackPointExtension xmlns:gpxtpx="http://www.garmin.com/xmlschemas/TrackPointExtension/v1">
            <gpxtpx:hr>105</gpxtpx:hr>
          </gpxtpx:TrackPointExtension>
        </extensions>
      </trkpt>
      <trkpt lat="45.76695" lon="3.08299">
        <ele>383.20001220703</ele>
        <time>2024-05-26T13:31:06.000Z</time>
        <extensions>
          <gpxtpx:TrackPointExtension xmlns:gpxtpx="http://www.garmin.com/xmlschemas/TrackPointExtension/v1">
            <gpxtpx:hr>109</gpxtpx:hr>
          </gpxtpx:TrackPointExtension>
        </extensions>
      </trkpt>
      <trkpt lat="45.767" lon="3.08299">
        <ele>383.20001220703</ele>
        <time>2024-05-26T13:31:07.000Z</time>
        <extensions>
          <gpxtpx:TrackPointExtension xmlns:gpxtpx="http://www.garmin.com/xmlschemas/TrackPointExtension/v1">
            <gpxtpx:hr>112</gpxtpx:hr>
          </gpxtpx:TrackPointExtension>
        </extensions>
      </trkpt>
      <trkpt lat="45.76721" lon="3.08302">
        <ele>383.20001220703</ele>
        <time>2024-05-26T13:31:10.000Z</time>
        <extensions>
          <gpxtpx:TrackPointExtension xmlns:gpxtpx="http://www.garmin.com/xmlschemas/TrackPointExtension/v1">
            <gpxtpx:hr>115</gpxtpx:hr>
          </gpxtpx:TrackPointExtension>
        </extensions>
      </trkpt>
      <trkpt lat="45.76727" lon="3.08303">
        <ele>383.20001220703</ele>
        <time>2024-05-26T13:31:11.000Z</time>
        <extensions>
          <gpxtpx:TrackPointExtension xmlns:gpxtpx="http://www.garmin.com/xmlschemas/TrackPointExtension/v1">
            <gpxtpx:hr>115</gpxtpx:hr>
          </gpxtpx:TrackPointExtension>
        </extensions>
      </trkpt>
      <trkpt lat="45.76743" lon="3.08305">
        <ele>382.79998779297</ele>
        <time>2024-05-26T13:31:14.000Z</time>
        <extensions>
          <gpxtpx:TrackPointExtension xmlns:gpxtpx="http://www.garmin.com/xmlschemas/TrackPointExtension/v1">
            <gpxtpx:hr>114</gpxtpx:hr>
          </gpxtpx:TrackPointExtension>
        </extensions>
      </trkpt>
      <trkpt lat="45.76761" lon="3.08306">
        <ele>382.79998779297</ele>
        <time>2024-05-26T13:31:17.000Z</time>
        <extensions>
          <gpxtpx:TrackPointExtension xmlns:gpxtpx="http://www.garmin.com/xmlschemas/TrackPointExtension/v1">
            <gpxtpx:hr>113</gpxtpx:hr>
          </gpxtpx:TrackPointExtension>
        </extensions>
      </trkpt>
      <trkpt lat="45.76775" lon="3.08304">
        <ele>383.79998779297</ele>
        <time>2024-05-26T13:31:22.000Z</time>
        <extensions>
          <gpxtpx:TrackPointExtension xmlns:gpxtpx="http://www.garmin.com/xmlschemas/TrackPointExtension/v1">
            <gpxtpx:hr>111</gpxtpx:hr>
          </gpxtpx:TrackPointExtension>
        </extensions>
      </trkpt>
      <trkpt lat="45.76775" lon="3.08304">
        <ele>383.79998779297</ele>
        <time>2024-05-26T13:31:23.000Z</time>
        <extensions>
          <gpxtpx:TrackPointExtension xmlns:gpxtpx="http://www.garmin.com/xmlschemas/TrackPointExtension/v1">
            <gpxtpx:hr>111</gpxtpx:hr>
          </gpxtpx:TrackPointExtension>
        </extensions>
      </trkpt>
      <trkpt lat="45.76775" lon="3.08304">
        <ele>384</ele>
        <time>2024-05-26T13:31:26.000Z</time>
        <extensions>
          <gpxtpx:TrackPointExtension xmlns:gpxtpx="http://www.garmin.com/xmlschemas/TrackPointExtension/v1">
            <gpxtpx:hr>110</gpxtpx:hr>
          </gpxtpx:TrackPointExtension>
        </extensions>
      </trkpt>
      <trkpt lat="45.7678" lon="3.08305">
        <ele>384</ele>
        <time>2024-05-26T13:31:32.000Z</time>
        <extensions>
          <gpxtpx:TrackPointExtension xmlns:gpxtpx="http://www.garmin.com/xmlschemas/TrackPointExtension/v1">
            <gpxtpx:hr>113</gpxtpx:hr>
          </gpxtpx:TrackPointExtension>
        </extensions>
      </trkpt>
      <trkpt lat="45.76783" lon="3.08305">
        <ele>384</ele>
        <time>2024-05-26T13:31:33.000Z</time>
        <extensions>
          <gpxtpx:TrackPointExtension xmlns:gpxtpx="http://www.garmin.com/xmlschemas/TrackPointExtension/v1">
            <gpxtpx:hr>114</gpxtpx:hr>
          </gpxtpx:TrackPointExtension>
        </extensions>
      </trkpt>
      <trkpt lat="45.76802" lon="3.08306">
        <ele>383.60000610352</ele>
        <time>2024-05-26T13:31:39.000Z</time>
        <extensions>
          <gpxtpx:TrackPointExtension xmlns:gpxtpx="http://www.garmin.com/xmlschemas/TrackPointExtension/v1">
            <gpxtpx:hr>115</gpxtpx:hr>
          </gpxtpx:TrackPointExtension>
        </extensions>
      </trkpt>
      <trkpt lat="45.76816" lon="3.08303">
        <ele>382.79998779297</ele>
        <time>2024-05-26T13:31:43.000Z</time>
        <extensions>
          <gpxtpx:TrackPointExtension xmlns:gpxtpx="http://www.garmin.com/xmlschemas/TrackPointExtension/v1">
            <gpxtpx:hr>113</gpxtpx:hr>
          </gpxtpx:TrackPointExtension>
        </extensions>
      </trkpt>
      <trkpt lat="45.7682" lon="3.08304">
        <ele>382.60000610352</ele>
        <time>2024-05-26T13:31:44.000Z</time>
        <extensions>
          <gpxtpx:TrackPointExtension xmlns:gpxtpx="http://www.garmin.com/xmlschemas/TrackPointExtension/v1">
            <gpxtpx:hr>113</gpxtpx:hr>
          </gpxtpx:TrackPointExtension>
        </extensions>
      </trkpt>
      <trkpt lat="45.76835" lon="3.08307">
        <ele>382.79998779297</ele>
        <time>2024-05-26T13:31:47.000Z</time>
        <extensions>
          <gpxtpx:TrackPointExtension xmlns:gpxtpx="http://www.garmin.com/xmlschemas/TrackPointExtension/v1">
            <gpxtpx:hr>113</gpxtpx:hr>
          </gpxtpx:TrackPointExtension>
        </extensions>
      </trkpt>
      <trkpt lat="45.76842" lon="3.08303">
        <ele>382.79998779297</ele>
        <time>2024-05-26T13:31:49.000Z</time>
        <extensions>
          <gpxtpx:TrackPointExtension xmlns:gpxtpx="http://www.garmin.com/xmlschemas/TrackPointExtension/v1">
            <gpxtpx:hr>113</gpxtpx:hr>
          </gpxtpx:TrackPointExtension>
        </extensions>
      </trkpt>
      <trkpt lat="45.76849" lon="3.08301">
        <ele>382.79998779297</ele>
        <time>2024-05-26T13:31:51.000Z</time>
        <extensions>
          <gpxtpx:TrackPointExtension xmlns:gpxtpx="http://www.garmin.com/xmlschemas/TrackPointExtension/v1">
            <gpxtpx:hr>113</gpxtpx:hr>
          </gpxtpx:TrackPointExtension>
        </extensions>
      </trkpt>
      <trkpt lat="45.76853" lon="3.08301">
        <ele>382.79998779297</ele>
        <time>2024-05-26T13:31:52.000Z</time>
        <extensions>
          <gpxtpx:TrackPointExtension xmlns:gpxtpx="http://www.garmin.com/xmlschemas/TrackPointExtension/v1">
            <gpxtpx:hr>113</gpxtpx:hr>
          </gpxtpx:TrackPointExtension>
        </extensions>
      </trkpt>
      <trkpt lat="45.76868" lon="3.08303">
        <ele>382.79998779297</ele>
        <time>2024-05-26T13:31:55.000Z</time>
        <extensions>
          <gpxtpx:TrackPointExtension xmlns:gpxtpx="http://www.garmin.com/xmlschemas/TrackPointExtension/v1">
            <gpxtpx:hr>113</gpxtpx:hr>
          </gpxtpx:TrackPointExtension>
        </extensions>
      </trkpt>
      <trkpt lat="45.76881" lon="3.08306">
        <ele>383.20001220703</ele>
        <time>2024-05-26T13:31:57.000Z</time>
        <extensions>
          <gpxtpx:TrackPointExtension xmlns:gpxtpx="http://www.garmin.com/xmlschemas/TrackPointExtension/v1">
            <gpxtpx:hr>113</gpxtpx:hr>
          </gpxtpx:TrackPointExtension>
        </extensions>
      </trkpt>
      <trkpt lat="45.76886" lon="3.08308">
        <ele>384</ele>
        <time>2024-05-26T13:31:58.000Z</time>
        <extensions>
          <gpxtpx:TrackPointExtension xmlns:gpxtpx="http://www.garmin.com/xmlschemas/TrackPointExtension/v1">
            <gpxtpx:hr>114</gpxtpx:hr>
          </gpxtpx:TrackPointExtension>
        </extensions>
      </trkpt>
      <trkpt lat="45.76892" lon="3.08307">
        <ele>384.20001220703</ele>
        <time>2024-05-26T13:32:01.000Z</time>
        <extensions>
          <gpxtpx:TrackPointExtension xmlns:gpxtpx="http://www.garmin.com/xmlschemas/TrackPointExtension/v1">
            <gpxtpx:hr>113</gpxtpx:hr>
          </gpxtpx:TrackPointExtension>
        </extensions>
      </trkpt>
      <trkpt lat="45.76892" lon="3.08307">
        <ele>384.39999389648</ele>
        <time>2024-05-26T13:32:05.000Z</time>
        <extensions>
          <gpxtpx:TrackPointExtension xmlns:gpxtpx="http://www.garmin.com/xmlschemas/TrackPointExtension/v1">
            <gpxtpx:hr>110</gpxtpx:hr>
          </gpxtpx:TrackPointExtension>
        </extensions>
      </trkpt>
      <trkpt lat="45.76893" lon="3.08307">
        <ele>384.39999389648</ele>
        <time>2024-05-26T13:32:08.000Z</time>
        <extensions>
          <gpxtpx:TrackPointExtension xmlns:gpxtpx="http://www.garmin.com/xmlschemas/TrackPointExtension/v1">
            <gpxtpx:hr>108</gpxtpx:hr>
          </gpxtpx:TrackPointExtension>
        </extensions>
      </trkpt>
      <trkpt lat="45.76898" lon="3.08306">
        <ele>384.39999389648</ele>
        <time>2024-05-26T13:32:11.000Z</time>
        <extensions>
          <gpxtpx:TrackPointExtension xmlns:gpxtpx="http://www.garmin.com/xmlschemas/TrackPointExtension/v1">
            <gpxtpx:hr>108</gpxtpx:hr>
          </gpxtpx:TrackPointExtension>
        </extensions>
      </trkpt>
      <trkpt lat="45.76915" lon="3.08305">
        <ele>384.39999389648</ele>
        <time>2024-05-26T13:32:15.000Z</time>
        <extensions>
          <gpxtpx:TrackPointExtension xmlns:gpxtpx="http://www.garmin.com/xmlschemas/TrackPointExtension/v1">
            <gpxtpx:hr>108</gpxtpx:hr>
          </gpxtpx:TrackPointExtension>
        </extensions>
      </trkpt>
      <trkpt lat="45.76941" lon="3.08306">
        <ele>383.20001220703</ele>
        <time>2024-05-26T13:32:20.000Z</time>
        <extensions>
          <gpxtpx:TrackPointExtension xmlns:gpxtpx="http://www.garmin.com/xmlschemas/TrackPointExtension/v1">
            <gpxtpx:hr>108</gpxtpx:hr>
          </gpxtpx:TrackPointExtension>
        </extensions>
      </trkpt>
      <trkpt lat="45.7696" lon="3.08304">
        <ele>383.39999389648</ele>
        <time>2024-05-26T13:32:24.000Z</time>
        <extensions>
          <gpxtpx:TrackPointExtension xmlns:gpxtpx="http://www.garmin.com/xmlschemas/TrackPointExtension/v1">
            <gpxtpx:hr>109</gpxtpx:hr>
          </gpxtpx:TrackPointExtension>
        </extensions>
      </trkpt>
      <trkpt lat="45.76972" lon="3.08305">
        <ele>383.60000610352</ele>
        <time>2024-05-26T13:32:26.000Z</time>
        <extensions>
          <gpxtpx:TrackPointExtension xmlns:gpxtpx="http://www.garmin.com/xmlschemas/TrackPointExtension/v1">
            <gpxtpx:hr>109</gpxtpx:hr>
          </gpxtpx:TrackPointExtension>
        </extensions>
      </trkpt>
      <trkpt lat="45.77008" lon="3.08315">
        <ele>384.20001220703</ele>
        <time>2024-05-26T13:32:32.000Z</time>
        <extensions>
          <gpxtpx:TrackPointExtension xmlns:gpxtpx="http://www.garmin.com/xmlschemas/TrackPointExtension/v1">
            <gpxtpx:hr>108</gpxtpx:hr>
          </gpxtpx:TrackPointExtension>
        </extensions>
      </trkpt>
      <trkpt lat="45.77045" lon="3.08313">
        <ele>383.79998779297</ele>
        <time>2024-05-26T13:32:38.000Z</time>
        <extensions>
          <gpxtpx:TrackPointExtension xmlns:gpxtpx="http://www.garmin.com/xmlschemas/TrackPointExtension/v1">
            <gpxtpx:hr>110</gpxtpx:hr>
          </gpxtpx:TrackPointExtension>
        </extensions>
      </trkpt>
      <trkpt lat="45.77064" lon="3.08313">
        <ele>384.39999389648</ele>
        <time>2024-05-26T13:32:42.000Z</time>
        <extensions>
          <gpxtpx:TrackPointExtension xmlns:gpxtpx="http://www.garmin.com/xmlschemas/TrackPointExtension/v1">
            <gpxtpx:hr>110</gpxtpx:hr>
          </gpxtpx:TrackPointExtension>
        </extensions>
      </trkpt>
      <trkpt lat="45.77068" lon="3.08313">
        <ele>384.39999389648</ele>
        <time>2024-05-26T13:32:43.000Z</time>
        <extensions>
          <gpxtpx:TrackPointExtension xmlns:gpxtpx="http://www.garmin.com/xmlschemas/TrackPointExtension/v1">
            <gpxtpx:hr>110</gpxtpx:hr>
          </gpxtpx:TrackPointExtension>
        </extensions>
      </trkpt>
      <trkpt lat="45.77091" lon="3.08307">
        <ele>386.39999389648</ele>
        <time>2024-05-26T13:32:48.000Z</time>
        <extensions>
          <gpxtpx:TrackPointExtension xmlns:gpxtpx="http://www.garmin.com/xmlschemas/TrackPointExtension/v1">
            <gpxtpx:hr>112</gpxtpx:hr>
          </gpxtpx:TrackPointExtension>
        </extensions>
      </trkpt>
      <trkpt lat="45.771" lon="3.08311">
        <ele>387</ele>
        <time>2024-05-26T13:32:50.000Z</time>
        <extensions>
          <gpxtpx:TrackPointExtension xmlns:gpxtpx="http://www.garmin.com/xmlschemas/TrackPointExtension/v1">
            <gpxtpx:hr>113</gpxtpx:hr>
          </gpxtpx:TrackPointExtension>
        </extensions>
      </trkpt>
      <trkpt lat="45.77106" lon="3.0832">
        <ele>387.20001220703</ele>
        <time>2024-05-26T13:32:53.000Z</time>
        <extensions>
          <gpxtpx:TrackPointExtension xmlns:gpxtpx="http://www.garmin.com/xmlschemas/TrackPointExtension/v1">
            <gpxtpx:hr>114</gpxtpx:hr>
          </gpxtpx:TrackPointExtension>
        </extensions>
      </trkpt>
      <trkpt lat="45.77106" lon="3.0832">
        <ele>387.39999389648</ele>
        <time>2024-05-26T13:32:58.000Z</time>
        <extensions>
          <gpxtpx:TrackPointExtension xmlns:gpxtpx="http://www.garmin.com/xmlschemas/TrackPointExtension/v1">
            <gpxtpx:hr>115</gpxtpx:hr>
          </gpxtpx:TrackPointExtension>
        </extensions>
      </trkpt>
      <trkpt lat="45.77106" lon="3.0832">
        <ele>387.39999389648</ele>
        <time>2024-05-26T13:33:01.000Z</time>
        <extensions>
          <gpxtpx:TrackPointExtension xmlns:gpxtpx="http://www.garmin.com/xmlschemas/TrackPointExtension/v1">
            <gpxtpx:hr>116</gpxtpx:hr>
          </gpxtpx:TrackPointExtension>
        </extensions>
      </trkpt>
      <trkpt lat="45.77108" lon="3.08321">
        <ele>387.39999389648</ele>
        <time>2024-05-26T13:33:12.000Z</time>
        <extensions>
          <gpxtpx:TrackPointExtension xmlns:gpxtpx="http://www.garmin.com/xmlschemas/TrackPointExtension/v1">
            <gpxtpx:hr>116</gpxtpx:hr>
          </gpxtpx:TrackPointExtension>
        </extensions>
      </trkpt>
      <trkpt lat="45.77109" lon="3.08321">
        <ele>387.39999389648</ele>
        <time>2024-05-26T13:33:18.000Z</time>
        <extensions>
          <gpxtpx:TrackPointExtension xmlns:gpxtpx="http://www.garmin.com/xmlschemas/TrackPointExtension/v1">
            <gpxtpx:hr>116</gpxtpx:hr>
          </gpxtpx:TrackPointExtension>
        </extensions>
      </trkpt>
      <trkpt lat="45.77109" lon="3.08323">
        <ele>387.60000610352</ele>
        <time>2024-05-26T13:33:25.000Z</time>
        <extensions>
          <gpxtpx:TrackPointExtension xmlns:gpxtpx="http://www.garmin.com/xmlschemas/TrackPointExtension/v1">
            <gpxtpx:hr>115</gpxtpx:hr>
          </gpxtpx:TrackPointExtension>
        </extensions>
      </trkpt>
      <trkpt lat="45.77109" lon="3.08323">
        <ele>387.60000610352</ele>
        <time>2024-05-26T13:33:37.000Z</time>
        <extensions>
          <gpxtpx:TrackPointExtension xmlns:gpxtpx="http://www.garmin.com/xmlschemas/TrackPointExtension/v1">
            <gpxtpx:hr>114</gpxtpx:hr>
          </gpxtpx:TrackPointExtension>
        </extensions>
      </trkpt>
      <trkpt lat="45.77113" lon="3.08325">
        <ele>387.60000610352</ele>
        <time>2024-05-26T13:33:49.000Z</time>
        <extensions>
          <gpxtpx:TrackPointExtension xmlns:gpxtpx="http://www.garmin.com/xmlschemas/TrackPointExtension/v1">
            <gpxtpx:hr>112</gpxtpx:hr>
          </gpxtpx:TrackPointExtension>
        </extensions>
      </trkpt>
      <trkpt lat="45.77125" lon="3.08328">
        <ele>388</ele>
        <time>2024-05-26T13:33:56.000Z</time>
        <extensions>
          <gpxtpx:TrackPointExtension xmlns:gpxtpx="http://www.garmin.com/xmlschemas/TrackPointExtension/v1">
            <gpxtpx:hr>112</gpxtpx:hr>
          </gpxtpx:TrackPointExtension>
        </extensions>
      </trkpt>
      <trkpt lat="45.7714" lon="3.08327">
        <ele>388</ele>
        <time>2024-05-26T13:34:00.000Z</time>
        <extensions>
          <gpxtpx:TrackPointExtension xmlns:gpxtpx="http://www.garmin.com/xmlschemas/TrackPointExtension/v1">
            <gpxtpx:hr>112</gpxtpx:hr>
          </gpxtpx:TrackPointExtension>
        </extensions>
      </trkpt>
      <trkpt lat="45.77154" lon="3.0832">
        <ele>388</ele>
        <time>2024-05-26T13:34:03.000Z</time>
        <extensions>
          <gpxtpx:TrackPointExtension xmlns:gpxtpx="http://www.garmin.com/xmlschemas/TrackPointExtension/v1">
            <gpxtpx:hr>111</gpxtpx:hr>
          </gpxtpx:TrackPointExtension>
        </extensions>
      </trkpt>
      <trkpt lat="45.77159" lon="3.08319">
        <ele>388</ele>
        <time>2024-05-26T13:34:04.000Z</time>
        <extensions>
          <gpxtpx:TrackPointExtension xmlns:gpxtpx="http://www.garmin.com/xmlschemas/TrackPointExtension/v1">
            <gpxtpx:hr>112</gpxtpx:hr>
          </gpxtpx:TrackPointExtension>
        </extensions>
      </trkpt>
      <trkpt lat="45.77175" lon="3.08314">
        <ele>388</ele>
        <time>2024-05-26T13:34:07.000Z</time>
        <extensions>
          <gpxtpx:TrackPointExtension xmlns:gpxtpx="http://www.garmin.com/xmlschemas/TrackPointExtension/v1">
            <gpxtpx:hr>115</gpxtpx:hr>
          </gpxtpx:TrackPointExtension>
        </extensions>
      </trkpt>
      <trkpt lat="45.772" lon="3.08306">
        <ele>387.79998779297</ele>
        <time>2024-05-26T13:34:12.000Z</time>
        <extensions>
          <gpxtpx:TrackPointExtension xmlns:gpxtpx="http://www.garmin.com/xmlschemas/TrackPointExtension/v1">
            <gpxtpx:hr>116</gpxtpx:hr>
          </gpxtpx:TrackPointExtension>
        </extensions>
      </trkpt>
      <trkpt lat="45.77233" lon="3.08297">
        <ele>388.39999389648</ele>
        <time>2024-05-26T13:34:19.000Z</time>
        <extensions>
          <gpxtpx:TrackPointExtension xmlns:gpxtpx="http://www.garmin.com/xmlschemas/TrackPointExtension/v1">
            <gpxtpx:hr>115</gpxtpx:hr>
          </gpxtpx:TrackPointExtension>
        </extensions>
      </trkpt>
      <trkpt lat="45.77247" lon="3.08292">
        <ele>388.79998779297</ele>
        <time>2024-05-26T13:34:22.000Z</time>
        <extensions>
          <gpxtpx:TrackPointExtension xmlns:gpxtpx="http://www.garmin.com/xmlschemas/TrackPointExtension/v1">
            <gpxtpx:hr>114</gpxtpx:hr>
          </gpxtpx:TrackPointExtension>
        </extensions>
      </trkpt>
      <trkpt lat="45.77265" lon="3.08287">
        <ele>388.79998779297</ele>
        <time>2024-05-26T13:34:26.000Z</time>
        <extensions>
          <gpxtpx:TrackPointExtension xmlns:gpxtpx="http://www.garmin.com/xmlschemas/TrackPointExtension/v1">
            <gpxtpx:hr>117</gpxtpx:hr>
          </gpxtpx:TrackPointExtension>
        </extensions>
      </trkpt>
      <trkpt lat="45.77283" lon="3.0828">
        <ele>388.39999389648</ele>
        <time>2024-05-26T13:34:30.000Z</time>
        <extensions>
          <gpxtpx:TrackPointExtension xmlns:gpxtpx="http://www.garmin.com/xmlschemas/TrackPointExtension/v1">
            <gpxtpx:hr>117</gpxtpx:hr>
          </gpxtpx:TrackPointExtension>
        </extensions>
      </trkpt>
      <trkpt lat="45.77305" lon="3.08272">
        <ele>389.39999389648</ele>
        <time>2024-05-26T13:34:35.000Z</time>
        <extensions>
          <gpxtpx:TrackPointExtension xmlns:gpxtpx="http://www.garmin.com/xmlschemas/TrackPointExtension/v1">
            <gpxtpx:hr>116</gpxtpx:hr>
          </gpxtpx:TrackPointExtension>
        </extensions>
      </trkpt>
      <trkpt lat="45.77313" lon="3.08269">
        <ele>389.79998779297</ele>
        <time>2024-05-26T13:34:37.000Z</time>
        <extensions>
          <gpxtpx:TrackPointExtension xmlns:gpxtpx="http://www.garmin.com/xmlschemas/TrackPointExtension/v1">
            <gpxtpx:hr>117</gpxtpx:hr>
          </gpxtpx:TrackPointExtension>
        </extensions>
      </trkpt>
      <trkpt lat="45.77345" lon="3.08258">
        <ele>390.39999389648</ele>
        <time>2024-05-26T13:34:44.000Z</time>
        <extensions>
          <gpxtpx:TrackPointExtension xmlns:gpxtpx="http://www.garmin.com/xmlschemas/TrackPointExtension/v1">
            <gpxtpx:hr>116</gpxtpx:hr>
          </gpxtpx:TrackPointExtension>
        </extensions>
      </trkpt>
      <trkpt lat="45.7736" lon="3.08255">
        <ele>390.60000610352</ele>
        <time>2024-05-26T13:34:47.000Z</time>
        <extensions>
          <gpxtpx:TrackPointExtension xmlns:gpxtpx="http://www.garmin.com/xmlschemas/TrackPointExtension/v1">
            <gpxtpx:hr>116</gpxtpx:hr>
          </gpxtpx:TrackPointExtension>
        </extensions>
      </trkpt>
      <trkpt lat="45.77368" lon="3.08266">
        <ele>390.79998779297</ele>
        <time>2024-05-26T13:34:49.000Z</time>
        <extensions>
          <gpxtpx:TrackPointExtension xmlns:gpxtpx="http://www.garmin.com/xmlschemas/TrackPointExtension/v1">
            <gpxtpx:hr>116</gpxtpx:hr>
          </gpxtpx:TrackPointExtension>
        </extensions>
      </trkpt>
      <trkpt lat="45.77375" lon="3.0829">
        <ele>391.39999389648</ele>
        <time>2024-05-26T13:34:53.000Z</time>
        <extensions>
          <gpxtpx:TrackPointExtension xmlns:gpxtpx="http://www.garmin.com/xmlschemas/TrackPointExtension/v1">
            <gpxtpx:hr>112</gpxtpx:hr>
          </gpxtpx:TrackPointExtension>
        </extensions>
      </trkpt>
      <trkpt lat="45.77376" lon="3.083">
        <ele>391.60000610352</ele>
        <time>2024-05-26T13:34:55.000Z</time>
        <extensions>
          <gpxtpx:TrackPointExtension xmlns:gpxtpx="http://www.garmin.com/xmlschemas/TrackPointExtension/v1">
            <gpxtpx:hr>113</gpxtpx:hr>
          </gpxtpx:TrackPointExtension>
        </extensions>
      </trkpt>
      <trkpt lat="45.77376" lon="3.0832">
        <ele>392.39999389648</ele>
        <time>2024-05-26T13:34:59.000Z</time>
        <extensions>
          <gpxtpx:TrackPointExtension xmlns:gpxtpx="http://www.garmin.com/xmlschemas/TrackPointExtension/v1">
            <gpxtpx:hr>112</gpxtpx:hr>
          </gpxtpx:TrackPointExtension>
        </extensions>
      </trkpt>
      <trkpt lat="45.77375" lon="3.08329">
        <ele>392.60000610352</ele>
        <time>2024-05-26T13:35:01.000Z</time>
        <extensions>
          <gpxtpx:TrackPointExtension xmlns:gpxtpx="http://www.garmin.com/xmlschemas/TrackPointExtension/v1">
            <gpxtpx:hr>112</gpxtpx:hr>
          </gpxtpx:TrackPointExtension>
        </extensions>
      </trkpt>
      <trkpt lat="45.77376" lon="3.08348">
        <ele>394.20001220703</ele>
        <time>2024-05-26T13:35:05.000Z</time>
        <extensions>
          <gpxtpx:TrackPointExtension xmlns:gpxtpx="http://www.garmin.com/xmlschemas/TrackPointExtension/v1">
            <gpxtpx:hr>112</gpxtpx:hr>
          </gpxtpx:TrackPointExtension>
        </extensions>
      </trkpt>
      <trkpt lat="45.77376" lon="3.08353">
        <ele>394.60000610352</ele>
        <time>2024-05-26T13:35:06.000Z</time>
        <extensions>
          <gpxtpx:TrackPointExtension xmlns:gpxtpx="http://www.garmin.com/xmlschemas/TrackPointExtension/v1">
            <gpxtpx:hr>111</gpxtpx:hr>
          </gpxtpx:TrackPointExtension>
        </extensions>
      </trkpt>
      <trkpt lat="45.77376" lon="3.08375">
        <ele>395.79998779297</ele>
        <time>2024-05-26T13:35:11.000Z</time>
        <extensions>
          <gpxtpx:TrackPointExtension xmlns:gpxtpx="http://www.garmin.com/xmlschemas/TrackPointExtension/v1">
            <gpxtpx:hr>113</gpxtpx:hr>
          </gpxtpx:TrackPointExtension>
        </extensions>
      </trkpt>
      <trkpt lat="45.77376" lon="3.08399">
        <ele>397</ele>
        <time>2024-05-26T13:35:16.000Z</time>
        <extensions>
          <gpxtpx:TrackPointExtension xmlns:gpxtpx="http://www.garmin.com/xmlschemas/TrackPointExtension/v1">
            <gpxtpx:hr>115</gpxtpx:hr>
          </gpxtpx:TrackPointExtension>
        </extensions>
      </trkpt>
      <trkpt lat="45.77376" lon="3.08408">
        <ele>397.39999389648</ele>
        <time>2024-05-26T13:35:18.000Z</time>
        <extensions>
          <gpxtpx:TrackPointExtension xmlns:gpxtpx="http://www.garmin.com/xmlschemas/TrackPointExtension/v1">
            <gpxtpx:hr>116</gpxtpx:hr>
          </gpxtpx:TrackPointExtension>
        </extensions>
      </trkpt>
      <trkpt lat="45.77375" lon="3.08416">
        <ele>398</ele>
        <time>2024-05-26T13:35:20.000Z</time>
        <extensions>
          <gpxtpx:TrackPointExtension xmlns:gpxtpx="http://www.garmin.com/xmlschemas/TrackPointExtension/v1">
            <gpxtpx:hr>117</gpxtpx:hr>
          </gpxtpx:TrackPointExtension>
        </extensions>
      </trkpt>
      <trkpt lat="45.77374" lon="3.08435">
        <ele>399.20001220703</ele>
        <time>2024-05-26T13:35:25.000Z</time>
        <extensions>
          <gpxtpx:TrackPointExtension xmlns:gpxtpx="http://www.garmin.com/xmlschemas/TrackPointExtension/v1">
            <gpxtpx:hr>117</gpxtpx:hr>
          </gpxtpx:TrackPointExtension>
        </extensions>
      </trkpt>
      <trkpt lat="45.77374" lon="3.08454">
        <ele>400.39999389648</ele>
        <time>2024-05-26T13:35:30.000Z</time>
        <extensions>
          <gpxtpx:TrackPointExtension xmlns:gpxtpx="http://www.garmin.com/xmlschemas/TrackPointExtension/v1">
            <gpxtpx:hr>117</gpxtpx:hr>
          </gpxtpx:TrackPointExtension>
        </extensions>
      </trkpt>
      <trkpt lat="45.77374" lon="3.08462">
        <ele>401</ele>
        <time>2024-05-26T13:35:32.000Z</time>
        <extensions>
          <gpxtpx:TrackPointExtension xmlns:gpxtpx="http://www.garmin.com/xmlschemas/TrackPointExtension/v1">
            <gpxtpx:hr>118</gpxtpx:hr>
          </gpxtpx:TrackPointExtension>
        </extensions>
      </trkpt>
      <trkpt lat="45.77376" lon="3.08475">
        <ele>401.60000610352</ele>
        <time>2024-05-26T13:35:35.000Z</time>
        <extensions>
          <gpxtpx:TrackPointExtension xmlns:gpxtpx="http://www.garmin.com/xmlschemas/TrackPointExtension/v1">
            <gpxtpx:hr>118</gpxtpx:hr>
          </gpxtpx:TrackPointExtension>
        </extensions>
      </trkpt>
      <trkpt lat="45.77377" lon="3.08489">
        <ele>403</ele>
        <time>2024-05-26T13:35:39.000Z</time>
        <extensions>
          <gpxtpx:TrackPointExtension xmlns:gpxtpx="http://www.garmin.com/xmlschemas/TrackPointExtension/v1">
            <gpxtpx:hr>118</gpxtpx:hr>
          </gpxtpx:TrackPointExtension>
        </extensions>
      </trkpt>
      <trkpt lat="45.77378" lon="3.08499">
        <ele>403.60000610352</ele>
        <time>2024-05-26T13:35:42.000Z</time>
        <extensions>
          <gpxtpx:TrackPointExtension xmlns:gpxtpx="http://www.garmin.com/xmlschemas/TrackPointExtension/v1">
            <gpxtpx:hr>119</gpxtpx:hr>
          </gpxtpx:TrackPointExtension>
        </extensions>
      </trkpt>
      <trkpt lat="45.77383" lon="3.08504">
        <ele>404</ele>
        <time>2024-05-26T13:35:43.000Z</time>
        <extensions>
          <gpxtpx:TrackPointExtension xmlns:gpxtpx="http://www.garmin.com/xmlschemas/TrackPointExtension/v1">
            <gpxtpx:hr>120</gpxtpx:hr>
          </gpxtpx:TrackPointExtension>
        </extensions>
      </trkpt>
      <trkpt lat="45.77388" lon="3.08508">
        <ele>404.20001220703</ele>
        <time>2024-05-26T13:35:44.000Z</time>
        <extensions>
          <gpxtpx:TrackPointExtension xmlns:gpxtpx="http://www.garmin.com/xmlschemas/TrackPointExtension/v1">
            <gpxtpx:hr>120</gpxtpx:hr>
          </gpxtpx:TrackPointExtension>
        </extensions>
      </trkpt>
      <trkpt lat="45.77387" lon="3.0853">
        <ele>404.39999389648</ele>
        <time>2024-05-26T13:35:49.000Z</time>
        <extensions>
          <gpxtpx:TrackPointExtension xmlns:gpxtpx="http://www.garmin.com/xmlschemas/TrackPointExtension/v1">
            <gpxtpx:hr>120</gpxtpx:hr>
          </gpxtpx:TrackPointExtension>
        </extensions>
      </trkpt>
      <trkpt lat="45.77384" lon="3.08551">
        <ele>404.39999389648</ele>
        <time>2024-05-26T13:35:55.000Z</time>
        <extensions>
          <gpxtpx:TrackPointExtension xmlns:gpxtpx="http://www.garmin.com/xmlschemas/TrackPointExtension/v1">
            <gpxtpx:hr>118</gpxtpx:hr>
          </gpxtpx:TrackPointExtension>
        </extensions>
      </trkpt>
      <trkpt lat="45.77382" lon="3.08594">
        <ele>404.20001220703</ele>
        <time>2024-05-26T13:36:04.000Z</time>
        <extensions>
          <gpxtpx:TrackPointExtension xmlns:gpxtpx="http://www.garmin.com/xmlschemas/TrackPointExtension/v1">
            <gpxtpx:hr>117</gpxtpx:hr>
          </gpxtpx:TrackPointExtension>
        </extensions>
      </trkpt>
      <trkpt lat="45.77383" lon="3.08631">
        <ele>403.20001220703</ele>
        <time>2024-05-26T13:36:11.000Z</time>
        <extensions>
          <gpxtpx:TrackPointExtension xmlns:gpxtpx="http://www.garmin.com/xmlschemas/TrackPointExtension/v1">
            <gpxtpx:hr>115</gpxtpx:hr>
          </gpxtpx:TrackPointExtension>
        </extensions>
      </trkpt>
      <trkpt lat="45.77384" lon="3.08636">
        <ele>403</ele>
        <time>2024-05-26T13:36:12.000Z</time>
        <extensions>
          <gpxtpx:TrackPointExtension xmlns:gpxtpx="http://www.garmin.com/xmlschemas/TrackPointExtension/v1">
            <gpxtpx:hr>115</gpxtpx:hr>
          </gpxtpx:TrackPointExtension>
        </extensions>
      </trkpt>
      <trkpt lat="45.77378" lon="3.08678">
        <ele>402.20001220703</ele>
        <time>2024-05-26T13:36:20.000Z</time>
        <extensions>
          <gpxtpx:TrackPointExtension xmlns:gpxtpx="http://www.garmin.com/xmlschemas/TrackPointExtension/v1">
            <gpxtpx:hr>114</gpxtpx:hr>
          </gpxtpx:TrackPointExtension>
        </extensions>
      </trkpt>
      <trkpt lat="45.77374" lon="3.08699">
        <ele>402</ele>
        <time>2024-05-26T13:36:24.000Z</time>
        <extensions>
          <gpxtpx:TrackPointExtension xmlns:gpxtpx="http://www.garmin.com/xmlschemas/TrackPointExtension/v1">
            <gpxtpx:hr>113</gpxtpx:hr>
          </gpxtpx:TrackPointExtension>
        </extensions>
      </trkpt>
      <trkpt lat="45.77374" lon="3.08703">
        <ele>402</ele>
        <time>2024-05-26T13:36:25.000Z</time>
        <extensions>
          <gpxtpx:TrackPointExtension xmlns:gpxtpx="http://www.garmin.com/xmlschemas/TrackPointExtension/v1">
            <gpxtpx:hr>113</gpxtpx:hr>
          </gpxtpx:TrackPointExtension>
        </extensions>
      </trkpt>
      <trkpt lat="45.77375" lon="3.08718">
        <ele>401.60000610352</ele>
        <time>2024-05-26T13:36:27.000Z</time>
        <extensions>
          <gpxtpx:TrackPointExtension xmlns:gpxtpx="http://www.garmin.com/xmlschemas/TrackPointExtension/v1">
            <gpxtpx:hr>113</gpxtpx:hr>
          </gpxtpx:TrackPointExtension>
        </extensions>
      </trkpt>
      <trkpt lat="45.77375" lon="3.08732">
        <ele>400</ele>
        <time>2024-05-26T13:36:29.000Z</time>
        <extensions>
          <gpxtpx:TrackPointExtension xmlns:gpxtpx="http://www.garmin.com/xmlschemas/TrackPointExtension/v1">
            <gpxtpx:hr>112</gpxtpx:hr>
          </gpxtpx:TrackPointExtension>
        </extensions>
      </trkpt>
      <trkpt lat="45.77375" lon="3.08746">
        <ele>399.79998779297</ele>
        <time>2024-05-26T13:36:31.000Z</time>
        <extensions>
          <gpxtpx:TrackPointExtension xmlns:gpxtpx="http://www.garmin.com/xmlschemas/TrackPointExtension/v1">
            <gpxtpx:hr>112</gpxtpx:hr>
          </gpxtpx:TrackPointExtension>
        </extensions>
      </trkpt>
      <trkpt lat="45.77374" lon="3.08758">
        <ele>399.60000610352</ele>
        <time>2024-05-26T13:36:33.000Z</time>
        <extensions>
          <gpxtpx:TrackPointExtension xmlns:gpxtpx="http://www.garmin.com/xmlschemas/TrackPointExtension/v1">
            <gpxtpx:hr>112</gpxtpx:hr>
          </gpxtpx:TrackPointExtension>
        </extensions>
      </trkpt>
      <trkpt lat="45.77373" lon="3.08764">
        <ele>399.60000610352</ele>
        <time>2024-05-26T13:36:34.000Z</time>
        <extensions>
          <gpxtpx:TrackPointExtension xmlns:gpxtpx="http://www.garmin.com/xmlschemas/TrackPointExtension/v1">
            <gpxtpx:hr>112</gpxtpx:hr>
          </gpxtpx:TrackPointExtension>
        </extensions>
      </trkpt>
      <trkpt lat="45.77373" lon="3.0877">
        <ele>399</ele>
        <time>2024-05-26T13:36:35.000Z</time>
        <extensions>
          <gpxtpx:TrackPointExtension xmlns:gpxtpx="http://www.garmin.com/xmlschemas/TrackPointExtension/v1">
            <gpxtpx:hr>112</gpxtpx:hr>
          </gpxtpx:TrackPointExtension>
        </extensions>
      </trkpt>
      <trkpt lat="45.77374" lon="3.08777">
        <ele>398.20001220703</ele>
        <time>2024-05-26T13:36:36.000Z</time>
        <extensions>
          <gpxtpx:TrackPointExtension xmlns:gpxtpx="http://www.garmin.com/xmlschemas/TrackPointExtension/v1">
            <gpxtpx:hr>111</gpxtpx:hr>
          </gpxtpx:TrackPointExtension>
        </extensions>
      </trkpt>
      <trkpt lat="45.77376" lon="3.08793">
        <ele>397</ele>
        <time>2024-05-26T13:36:38.000Z</time>
        <extensions>
          <gpxtpx:TrackPointExtension xmlns:gpxtpx="http://www.garmin.com/xmlschemas/TrackPointExtension/v1">
            <gpxtpx:hr>110</gpxtpx:hr>
          </gpxtpx:TrackPointExtension>
        </extensions>
      </trkpt>
      <trkpt lat="45.77378" lon="3.08813">
        <ele>394.79998779297</ele>
        <time>2024-05-26T13:36:40.000Z</time>
        <extensions>
          <gpxtpx:TrackPointExtension xmlns:gpxtpx="http://www.garmin.com/xmlschemas/TrackPointExtension/v1">
            <gpxtpx:hr>110</gpxtpx:hr>
          </gpxtpx:TrackPointExtension>
        </extensions>
      </trkpt>
      <trkpt lat="45.77377" lon="3.08835">
        <ele>394</ele>
        <time>2024-05-26T13:36:42.000Z</time>
        <extensions>
          <gpxtpx:TrackPointExtension xmlns:gpxtpx="http://www.garmin.com/xmlschemas/TrackPointExtension/v1">
            <gpxtpx:hr>110</gpxtpx:hr>
          </gpxtpx:TrackPointExtension>
        </extensions>
      </trkpt>
      <trkpt lat="45.77375" lon="3.08846">
        <ele>393.60000610352</ele>
        <time>2024-05-26T13:36:43.000Z</time>
        <extensions>
          <gpxtpx:TrackPointExtension xmlns:gpxtpx="http://www.garmin.com/xmlschemas/TrackPointExtension/v1">
            <gpxtpx:hr>110</gpxtpx:hr>
          </gpxtpx:TrackPointExtension>
        </extensions>
      </trkpt>
      <trkpt lat="45.77372" lon="3.08868">
        <ele>392.39999389648</ele>
        <time>2024-05-26T13:36:45.000Z</time>
        <extensions>
          <gpxtpx:TrackPointExtension xmlns:gpxtpx="http://www.garmin.com/xmlschemas/TrackPointExtension/v1">
            <gpxtpx:hr>109</gpxtpx:hr>
          </gpxtpx:TrackPointExtension>
        </extensions>
      </trkpt>
      <trkpt lat="45.77371" lon="3.08885">
        <ele>391.20001220703</ele>
        <time>2024-05-26T13:36:47.000Z</time>
        <extensions>
          <gpxtpx:TrackPointExtension xmlns:gpxtpx="http://www.garmin.com/xmlschemas/TrackPointExtension/v1">
            <gpxtpx:hr>107</gpxtpx:hr>
          </gpxtpx:TrackPointExtension>
        </extensions>
      </trkpt>
      <trkpt lat="45.7737" lon="3.08901">
        <ele>390.79998779297</ele>
        <time>2024-05-26T13:36:49.000Z</time>
        <extensions>
          <gpxtpx:TrackPointExtension xmlns:gpxtpx="http://www.garmin.com/xmlschemas/TrackPointExtension/v1">
            <gpxtpx:hr>106</gpxtpx:hr>
          </gpxtpx:TrackPointExtension>
        </extensions>
      </trkpt>
      <trkpt lat="45.77369" lon="3.08918">
        <ele>390</ele>
        <time>2024-05-26T13:36:51.000Z</time>
        <extensions>
          <gpxtpx:TrackPointExtension xmlns:gpxtpx="http://www.garmin.com/xmlschemas/TrackPointExtension/v1">
            <gpxtpx:hr>104</gpxtpx:hr>
          </gpxtpx:TrackPointExtension>
        </extensions>
      </trkpt>
      <trkpt lat="45.77366" lon="3.08953">
        <ele>389</ele>
        <time>2024-05-26T13:36:56.000Z</time>
        <extensions>
          <gpxtpx:TrackPointExtension xmlns:gpxtpx="http://www.garmin.com/xmlschemas/TrackPointExtension/v1">
            <gpxtpx:hr>103</gpxtpx:hr>
          </gpxtpx:TrackPointExtension>
        </extensions>
      </trkpt>
      <trkpt lat="45.77365" lon="3.08968">
        <ele>387.79998779297</ele>
        <time>2024-05-26T13:36:59.000Z</time>
        <extensions>
          <gpxtpx:TrackPointExtension xmlns:gpxtpx="http://www.garmin.com/xmlschemas/TrackPointExtension/v1">
            <gpxtpx:hr>104</gpxtpx:hr>
          </gpxtpx:TrackPointExtension>
        </extensions>
      </trkpt>
      <trkpt lat="45.77363" lon="3.08978">
        <ele>387.39999389648</ele>
        <time>2024-05-26T13:37:01.000Z</time>
        <extensions>
          <gpxtpx:TrackPointExtension xmlns:gpxtpx="http://www.garmin.com/xmlschemas/TrackPointExtension/v1">
            <gpxtpx:hr>104</gpxtpx:hr>
          </gpxtpx:TrackPointExtension>
        </extensions>
      </trkpt>
      <trkpt lat="45.77362" lon="3.08988">
        <ele>386.79998779297</ele>
        <time>2024-05-26T13:37:05.000Z</time>
        <extensions>
          <gpxtpx:TrackPointExtension xmlns:gpxtpx="http://www.garmin.com/xmlschemas/TrackPointExtension/v1">
            <gpxtpx:hr>107</gpxtpx:hr>
          </gpxtpx:TrackPointExtension>
        </extensions>
      </trkpt>
      <trkpt lat="45.77362" lon="3.08992">
        <ele>386.60000610352</ele>
        <time>2024-05-26T13:37:06.000Z</time>
        <extensions>
          <gpxtpx:TrackPointExtension xmlns:gpxtpx="http://www.garmin.com/xmlschemas/TrackPointExtension/v1">
            <gpxtpx:hr>108</gpxtpx:hr>
          </gpxtpx:TrackPointExtension>
        </extensions>
      </trkpt>
      <trkpt lat="45.77368" lon="3.09006">
        <ele>385.79998779297</ele>
        <time>2024-05-26T13:37:10.000Z</time>
        <extensions>
          <gpxtpx:TrackPointExtension xmlns:gpxtpx="http://www.garmin.com/xmlschemas/TrackPointExtension/v1">
            <gpxtpx:hr>110</gpxtpx:hr>
          </gpxtpx:TrackPointExtension>
        </extensions>
      </trkpt>
      <trkpt lat="45.77379" lon="3.0901">
        <ele>385.60000610352</ele>
        <time>2024-05-26T13:37:13.000Z</time>
        <extensions>
          <gpxtpx:TrackPointExtension xmlns:gpxtpx="http://www.garmin.com/xmlschemas/TrackPointExtension/v1">
            <gpxtpx:hr>111</gpxtpx:hr>
          </gpxtpx:TrackPointExtension>
        </extensions>
      </trkpt>
      <trkpt lat="45.77384" lon="3.09011">
        <ele>385.60000610352</ele>
        <time>2024-05-26T13:37:14.000Z</time>
        <extensions>
          <gpxtpx:TrackPointExtension xmlns:gpxtpx="http://www.garmin.com/xmlschemas/TrackPointExtension/v1">
            <gpxtpx:hr>111</gpxtpx:hr>
          </gpxtpx:TrackPointExtension>
        </extensions>
      </trkpt>
      <trkpt lat="45.77388" lon="3.0901">
        <ele>385.79998779297</ele>
        <time>2024-05-26T13:37:15.000Z</time>
        <extensions>
          <gpxtpx:TrackPointExtension xmlns:gpxtpx="http://www.garmin.com/xmlschemas/TrackPointExtension/v1">
            <gpxtpx:hr>111</gpxtpx:hr>
          </gpxtpx:TrackPointExtension>
        </extensions>
      </trkpt>
      <trkpt lat="45.77409" lon="3.09008">
        <ele>386.60000610352</ele>
        <time>2024-05-26T13:37:20.000Z</time>
        <extensions>
          <gpxtpx:TrackPointExtension xmlns:gpxtpx="http://www.garmin.com/xmlschemas/TrackPointExtension/v1">
            <gpxtpx:hr>113</gpxtpx:hr>
          </gpxtpx:TrackPointExtension>
        </extensions>
      </trkpt>
      <trkpt lat="45.77418" lon="3.09005">
        <ele>386.60000610352</ele>
        <time>2024-05-26T13:37:22.000Z</time>
        <extensions>
          <gpxtpx:TrackPointExtension xmlns:gpxtpx="http://www.garmin.com/xmlschemas/TrackPointExtension/v1">
            <gpxtpx:hr>114</gpxtpx:hr>
          </gpxtpx:TrackPointExtension>
        </extensions>
      </trkpt>
      <trkpt lat="45.77429" lon="3.09002">
        <ele>386.60000610352</ele>
        <time>2024-05-26T13:37:25.000Z</time>
        <extensions>
          <gpxtpx:TrackPointExtension xmlns:gpxtpx="http://www.garmin.com/xmlschemas/TrackPointExtension/v1">
            <gpxtpx:hr>116</gpxtpx:hr>
          </gpxtpx:TrackPointExtension>
        </extensions>
      </trkpt>
      <trkpt lat="45.77438" lon="3.09004">
        <ele>386.79998779297</ele>
        <time>2024-05-26T13:37:28.000Z</time>
        <extensions>
          <gpxtpx:TrackPointExtension xmlns:gpxtpx="http://www.garmin.com/xmlschemas/TrackPointExtension/v1">
            <gpxtpx:hr>117</gpxtpx:hr>
          </gpxtpx:TrackPointExtension>
        </extensions>
      </trkpt>
      <trkpt lat="45.77444" lon="3.09003">
        <ele>387</ele>
        <time>2024-05-26T13:37:30.000Z</time>
        <extensions>
          <gpxtpx:TrackPointExtension xmlns:gpxtpx="http://www.garmin.com/xmlschemas/TrackPointExtension/v1">
            <gpxtpx:hr>117</gpxtpx:hr>
          </gpxtpx:TrackPointExtension>
        </extensions>
      </trkpt>
      <trkpt lat="45.77468" lon="3.08999">
        <ele>387.60000610352</ele>
        <time>2024-05-26T13:37:36.000Z</time>
        <extensions>
          <gpxtpx:TrackPointExtension xmlns:gpxtpx="http://www.garmin.com/xmlschemas/TrackPointExtension/v1">
            <gpxtpx:hr>118</gpxtpx:hr>
          </gpxtpx:TrackPointExtension>
        </extensions>
      </trkpt>
      <trkpt lat="45.77471" lon="3.09">
        <ele>387.79998779297</ele>
        <time>2024-05-26T13:37:37.000Z</time>
        <extensions>
          <gpxtpx:TrackPointExtension xmlns:gpxtpx="http://www.garmin.com/xmlschemas/TrackPointExtension/v1">
            <gpxtpx:hr>118</gpxtpx:hr>
          </gpxtpx:TrackPointExtension>
        </extensions>
      </trkpt>
      <trkpt lat="45.77495" lon="3.08998">
        <ele>387.79998779297</ele>
        <time>2024-05-26T13:37:43.000Z</time>
        <extensions>
          <gpxtpx:TrackPointExtension xmlns:gpxtpx="http://www.garmin.com/xmlschemas/TrackPointExtension/v1">
            <gpxtpx:hr>119</gpxtpx:hr>
          </gpxtpx:TrackPointExtension>
        </extensions>
      </trkpt>
      <trkpt lat="45.77521" lon="3.09">
        <ele>389.20001220703</ele>
        <time>2024-05-26T13:37:50.000Z</time>
        <extensions>
          <gpxtpx:TrackPointExtension xmlns:gpxtpx="http://www.garmin.com/xmlschemas/TrackPointExtension/v1">
            <gpxtpx:hr>119</gpxtpx:hr>
          </gpxtpx:TrackPointExtension>
        </extensions>
      </trkpt>
      <trkpt lat="45.77547" lon="3.09002">
        <ele>389.79998779297</ele>
        <time>2024-05-26T13:37:56.000Z</time>
        <extensions>
          <gpxtpx:TrackPointExtension xmlns:gpxtpx="http://www.garmin.com/xmlschemas/TrackPointExtension/v1">
            <gpxtpx:hr>117</gpxtpx:hr>
          </gpxtpx:TrackPointExtension>
        </extensions>
      </trkpt>
      <trkpt lat="45.7756" lon="3.09001">
        <ele>390.20001220703</ele>
        <time>2024-05-26T13:37:59.000Z</time>
        <extensions>
          <gpxtpx:TrackPointExtension xmlns:gpxtpx="http://www.garmin.com/xmlschemas/TrackPointExtension/v1">
            <gpxtpx:hr>119</gpxtpx:hr>
          </gpxtpx:TrackPointExtension>
        </extensions>
      </trkpt>
      <trkpt lat="45.77579" lon="3.09">
        <ele>391</ele>
        <time>2024-05-26T13:38:04.000Z</time>
        <extensions>
          <gpxtpx:TrackPointExtension xmlns:gpxtpx="http://www.garmin.com/xmlschemas/TrackPointExtension/v1">
            <gpxtpx:hr>120</gpxtpx:hr>
          </gpxtpx:TrackPointExtension>
        </extensions>
      </trkpt>
      <trkpt lat="45.77584" lon="3.09">
        <ele>391.20001220703</ele>
        <time>2024-05-26T13:38:05.000Z</time>
        <extensions>
          <gpxtpx:TrackPointExtension xmlns:gpxtpx="http://www.garmin.com/xmlschemas/TrackPointExtension/v1">
            <gpxtpx:hr>120</gpxtpx:hr>
          </gpxtpx:TrackPointExtension>
        </extensions>
      </trkpt>
      <trkpt lat="45.77606" lon="3.09006">
        <ele>392</ele>
        <time>2024-05-26T13:38:10.000Z</time>
        <extensions>
          <gpxtpx:TrackPointExtension xmlns:gpxtpx="http://www.garmin.com/xmlschemas/TrackPointExtension/v1">
            <gpxtpx:hr>123</gpxtpx:hr>
          </gpxtpx:TrackPointExtension>
        </extensions>
      </trkpt>
      <trkpt lat="45.77616" lon="3.09008">
        <ele>392.39999389648</ele>
        <time>2024-05-26T13:38:13.000Z</time>
        <extensions>
          <gpxtpx:TrackPointExtension xmlns:gpxtpx="http://www.garmin.com/xmlschemas/TrackPointExtension/v1">
            <gpxtpx:hr>122</gpxtpx:hr>
          </gpxtpx:TrackPointExtension>
        </extensions>
      </trkpt>
      <trkpt lat="45.77633" lon="3.09014">
        <ele>392.60000610352</ele>
        <time>2024-05-26T13:38:17.000Z</time>
        <extensions>
          <gpxtpx:TrackPointExtension xmlns:gpxtpx="http://www.garmin.com/xmlschemas/TrackPointExtension/v1">
            <gpxtpx:hr>118</gpxtpx:hr>
          </gpxtpx:TrackPointExtension>
        </extensions>
      </trkpt>
      <trkpt lat="45.77637" lon="3.09015">
        <ele>392.60000610352</ele>
        <time>2024-05-26T13:38:18.000Z</time>
        <extensions>
          <gpxtpx:TrackPointExtension xmlns:gpxtpx="http://www.garmin.com/xmlschemas/TrackPointExtension/v1">
            <gpxtpx:hr>117</gpxtpx:hr>
          </gpxtpx:TrackPointExtension>
        </extensions>
      </trkpt>
      <trkpt lat="45.77646" lon="3.09017">
        <ele>392.60000610352</ele>
        <time>2024-05-26T13:38:20.000Z</time>
        <extensions>
          <gpxtpx:TrackPointExtension xmlns:gpxtpx="http://www.garmin.com/xmlschemas/TrackPointExtension/v1">
            <gpxtpx:hr>116</gpxtpx:hr>
          </gpxtpx:TrackPointExtension>
        </extensions>
      </trkpt>
      <trkpt lat="45.77661" lon="3.09016">
        <ele>391.79998779297</ele>
        <time>2024-05-26T13:38:23.000Z</time>
        <extensions>
          <gpxtpx:TrackPointExtension xmlns:gpxtpx="http://www.garmin.com/xmlschemas/TrackPointExtension/v1">
            <gpxtpx:hr>115</gpxtpx:hr>
          </gpxtpx:TrackPointExtension>
        </extensions>
      </trkpt>
      <trkpt lat="45.7768" lon="3.09014">
        <ele>391.60000610352</ele>
        <time>2024-05-26T13:38:27.000Z</time>
        <extensions>
          <gpxtpx:TrackPointExtension xmlns:gpxtpx="http://www.garmin.com/xmlschemas/TrackPointExtension/v1">
            <gpxtpx:hr>114</gpxtpx:hr>
          </gpxtpx:TrackPointExtension>
        </extensions>
      </trkpt>
      <trkpt lat="45.77689" lon="3.09014">
        <ele>393.39999389648</ele>
        <time>2024-05-26T13:38:29.000Z</time>
        <extensions>
          <gpxtpx:TrackPointExtension xmlns:gpxtpx="http://www.garmin.com/xmlschemas/TrackPointExtension/v1">
            <gpxtpx:hr>114</gpxtpx:hr>
          </gpxtpx:TrackPointExtension>
        </extensions>
      </trkpt>
      <trkpt lat="45.77723" lon="3.0901">
        <ele>394.20001220703</ele>
        <time>2024-05-26T13:38:37.000Z</time>
        <extensions>
          <gpxtpx:TrackPointExtension xmlns:gpxtpx="http://www.garmin.com/xmlschemas/TrackPointExtension/v1">
            <gpxtpx:hr>115</gpxtpx:hr>
          </gpxtpx:TrackPointExtension>
        </extensions>
      </trkpt>
      <trkpt lat="45.77732" lon="3.09009">
        <ele>394.39999389648</ele>
        <time>2024-05-26T13:38:40.000Z</time>
        <extensions>
          <gpxtpx:TrackPointExtension xmlns:gpxtpx="http://www.garmin.com/xmlschemas/TrackPointExtension/v1">
            <gpxtpx:hr>115</gpxtpx:hr>
          </gpxtpx:TrackPointExtension>
        </extensions>
      </trkpt>
      <trkpt lat="45.77735" lon="3.09008">
        <ele>394.60000610352</ele>
        <time>2024-05-26T13:38:41.000Z</time>
        <extensions>
          <gpxtpx:TrackPointExtension xmlns:gpxtpx="http://www.garmin.com/xmlschemas/TrackPointExtension/v1">
            <gpxtpx:hr>114</gpxtpx:hr>
          </gpxtpx:TrackPointExtension>
        </extensions>
      </trkpt>
      <trkpt lat="45.77745" lon="3.09011">
        <ele>394.60000610352</ele>
        <time>2024-05-26T13:38:44.000Z</time>
        <extensions>
          <gpxtpx:TrackPointExtension xmlns:gpxtpx="http://www.garmin.com/xmlschemas/TrackPointExtension/v1">
            <gpxtpx:hr>114</gpxtpx:hr>
          </gpxtpx:TrackPointExtension>
        </extensions>
      </trkpt>
      <trkpt lat="45.77776" lon="3.09017">
        <ele>394.79998779297</ele>
        <time>2024-05-26T13:38:51.000Z</time>
        <extensions>
          <gpxtpx:TrackPointExtension xmlns:gpxtpx="http://www.garmin.com/xmlschemas/TrackPointExtension/v1">
            <gpxtpx:hr>115</gpxtpx:hr>
          </gpxtpx:TrackPointExtension>
        </extensions>
      </trkpt>
      <trkpt lat="45.7779" lon="3.09017">
        <ele>394.39999389648</ele>
        <time>2024-05-26T13:38:54.000Z</time>
        <extensions>
          <gpxtpx:TrackPointExtension xmlns:gpxtpx="http://www.garmin.com/xmlschemas/TrackPointExtension/v1">
            <gpxtpx:hr>118</gpxtpx:hr>
          </gpxtpx:TrackPointExtension>
        </extensions>
      </trkpt>
      <trkpt lat="45.77795" lon="3.09016">
        <ele>394</ele>
        <time>2024-05-26T13:38:55.000Z</time>
        <extensions>
          <gpxtpx:TrackPointExtension xmlns:gpxtpx="http://www.garmin.com/xmlschemas/TrackPointExtension/v1">
            <gpxtpx:hr>119</gpxtpx:hr>
          </gpxtpx:TrackPointExtension>
        </extensions>
      </trkpt>
      <trkpt lat="45.77805" lon="3.09017">
        <ele>393</ele>
        <time>2024-05-26T13:38:57.000Z</time>
        <extensions>
          <gpxtpx:TrackPointExtension xmlns:gpxtpx="http://www.garmin.com/xmlschemas/TrackPointExtension/v1">
            <gpxtpx:hr>120</gpxtpx:hr>
          </gpxtpx:TrackPointExtension>
        </extensions>
      </trkpt>
      <trkpt lat="45.7781" lon="3.09017">
        <ele>393</ele>
        <time>2024-05-26T13:38:58.000Z</time>
        <extensions>
          <gpxtpx:TrackPointExtension xmlns:gpxtpx="http://www.garmin.com/xmlschemas/TrackPointExtension/v1">
            <gpxtpx:hr>120</gpxtpx:hr>
          </gpxtpx:TrackPointExtension>
        </extensions>
      </trkpt>
      <trkpt lat="45.77866" lon="3.09025">
        <ele>392.60000610352</ele>
        <time>2024-05-26T13:39:08.000Z</time>
        <extensions>
          <gpxtpx:TrackPointExtension xmlns:gpxtpx="http://www.garmin.com/xmlschemas/TrackPointExtension/v1">
            <gpxtpx:hr>122</gpxtpx:hr>
          </gpxtpx:TrackPointExtension>
        </extensions>
      </trkpt>
      <trkpt lat="45.77894" lon="3.09039">
        <ele>392</ele>
        <time>2024-05-26T13:39:13.000Z</time>
        <extensions>
          <gpxtpx:TrackPointExtension xmlns:gpxtpx="http://www.garmin.com/xmlschemas/TrackPointExtension/v1">
            <gpxtpx:hr>120</gpxtpx:hr>
          </gpxtpx:TrackPointExtension>
        </extensions>
      </trkpt>
      <trkpt lat="45.779" lon="3.09042">
        <ele>392</ele>
        <time>2024-05-26T13:39:14.000Z</time>
        <extensions>
          <gpxtpx:TrackPointExtension xmlns:gpxtpx="http://www.garmin.com/xmlschemas/TrackPointExtension/v1">
            <gpxtpx:hr>120</gpxtpx:hr>
          </gpxtpx:TrackPointExtension>
        </extensions>
      </trkpt>
      <trkpt lat="45.77918" lon="3.09054">
        <ele>390.79998779297</ele>
        <time>2024-05-26T13:39:17.000Z</time>
        <extensions>
          <gpxtpx:TrackPointExtension xmlns:gpxtpx="http://www.garmin.com/xmlschemas/TrackPointExtension/v1">
            <gpxtpx:hr>119</gpxtpx:hr>
          </gpxtpx:TrackPointExtension>
        </extensions>
      </trkpt>
      <trkpt lat="45.7793" lon="3.09062">
        <ele>355.39999389648</ele>
        <time>2024-05-26T13:39:19.000Z</time>
        <extensions>
          <gpxtpx:TrackPointExtension xmlns:gpxtpx="http://www.garmin.com/xmlschemas/TrackPointExtension/v1">
            <gpxtpx:hr>118</gpxtpx:hr>
          </gpxtpx:TrackPointExtension>
        </extensions>
      </trkpt>
      <trkpt lat="45.77936" lon="3.09066">
        <ele>627.79998779297</ele>
        <time>2024-05-26T13:39:20.000Z</time>
        <extensions>
          <gpxtpx:TrackPointExtension xmlns:gpxtpx="http://www.garmin.com/xmlschemas/TrackPointExtension/v1">
            <gpxtpx:hr>118</gpxtpx:hr>
          </gpxtpx:TrackPointExtension>
        </extensions>
      </trkpt>
      <trkpt lat="45.77942" lon="3.0907">
        <ele>627.40002441406</ele>
        <time>2024-05-26T13:39:21.000Z</time>
        <extensions>
          <gpxtpx:TrackPointExtension xmlns:gpxtpx="http://www.garmin.com/xmlschemas/TrackPointExtension/v1">
            <gpxtpx:hr>118</gpxtpx:hr>
          </gpxtpx:TrackPointExtension>
        </extensions>
      </trkpt>
      <trkpt lat="45.77948" lon="3.09075">
        <ele>626.59997558594</ele>
        <time>2024-05-26T13:39:22.000Z</time>
        <extensions>
          <gpxtpx:TrackPointExtension xmlns:gpxtpx="http://www.garmin.com/xmlschemas/TrackPointExtension/v1">
            <gpxtpx:hr>118</gpxtpx:hr>
          </gpxtpx:TrackPointExtension>
        </extensions>
      </trkpt>
      <trkpt lat="45.77969" lon="3.09094">
        <ele>626</ele>
        <time>2024-05-26T13:39:26.000Z</time>
        <extensions>
          <gpxtpx:TrackPointExtension xmlns:gpxtpx="http://www.garmin.com/xmlschemas/TrackPointExtension/v1">
            <gpxtpx:hr>118</gpxtpx:hr>
          </gpxtpx:TrackPointExtension>
        </extensions>
      </trkpt>
      <trkpt lat="45.77973" lon="3.09097">
        <ele>626</ele>
        <time>2024-05-26T13:39:27.000Z</time>
        <extensions>
          <gpxtpx:TrackPointExtension xmlns:gpxtpx="http://www.garmin.com/xmlschemas/TrackPointExtension/v1">
            <gpxtpx:hr>118</gpxtpx:hr>
          </gpxtpx:TrackPointExtension>
        </extensions>
      </trkpt>
      <trkpt lat="45.77983" lon="3.09109">
        <ele>625.79998779297</ele>
        <time>2024-05-26T13:39:31.000Z</time>
        <extensions>
          <gpxtpx:TrackPointExtension xmlns:gpxtpx="http://www.garmin.com/xmlschemas/TrackPointExtension/v1">
            <gpxtpx:hr>118</gpxtpx:hr>
          </gpxtpx:TrackPointExtension>
        </extensions>
      </trkpt>
      <trkpt lat="45.77984" lon="3.09112">
        <ele>625.79998779297</ele>
        <time>2024-05-26T13:39:32.000Z</time>
        <extensions>
          <gpxtpx:TrackPointExtension xmlns:gpxtpx="http://www.garmin.com/xmlschemas/TrackPointExtension/v1">
            <gpxtpx:hr>119</gpxtpx:hr>
          </gpxtpx:TrackPointExtension>
        </extensions>
      </trkpt>
      <trkpt lat="45.77989" lon="3.09125">
        <ele>625.79998779297</ele>
        <time>2024-05-26T13:39:35.000Z</time>
        <extensions>
          <gpxtpx:TrackPointExtension xmlns:gpxtpx="http://www.garmin.com/xmlschemas/TrackPointExtension/v1">
            <gpxtpx:hr>119</gpxtpx:hr>
          </gpxtpx:TrackPointExtension>
        </extensions>
      </trkpt>
      <trkpt lat="45.77997" lon="3.09137">
        <ele>625.40002441406</ele>
        <time>2024-05-26T13:39:38.000Z</time>
        <extensions>
          <gpxtpx:TrackPointExtension xmlns:gpxtpx="http://www.garmin.com/xmlschemas/TrackPointExtension/v1">
            <gpxtpx:hr>119</gpxtpx:hr>
          </gpxtpx:TrackPointExtension>
        </extensions>
      </trkpt>
      <trkpt lat="45.78004" lon="3.09145">
        <ele>624.59997558594</ele>
        <time>2024-05-26T13:39:41.000Z</time>
        <extensions>
          <gpxtpx:TrackPointExtension xmlns:gpxtpx="http://www.garmin.com/xmlschemas/TrackPointExtension/v1">
            <gpxtpx:hr>118</gpxtpx:hr>
          </gpxtpx:TrackPointExtension>
        </extensions>
      </trkpt>
      <trkpt lat="45.78007" lon="3.09147">
        <ele>624.40002441406</ele>
        <time>2024-05-26T13:39:42.000Z</time>
        <extensions>
          <gpxtpx:TrackPointExtension xmlns:gpxtpx="http://www.garmin.com/xmlschemas/TrackPointExtension/v1">
            <gpxtpx:hr>117</gpxtpx:hr>
          </gpxtpx:TrackPointExtension>
        </extensions>
      </trkpt>
      <trkpt lat="45.78011" lon="3.09148">
        <ele>624.20001220703</ele>
        <time>2024-05-26T13:39:43.000Z</time>
        <extensions>
          <gpxtpx:TrackPointExtension xmlns:gpxtpx="http://www.garmin.com/xmlschemas/TrackPointExtension/v1">
            <gpxtpx:hr>117</gpxtpx:hr>
          </gpxtpx:TrackPointExtension>
        </extensions>
      </trkpt>
      <trkpt lat="45.7802" lon="3.09148">
        <ele>624</ele>
        <time>2024-05-26T13:39:45.000Z</time>
        <extensions>
          <gpxtpx:TrackPointExtension xmlns:gpxtpx="http://www.garmin.com/xmlschemas/TrackPointExtension/v1">
            <gpxtpx:hr>117</gpxtpx:hr>
          </gpxtpx:TrackPointExtension>
        </extensions>
      </trkpt>
      <trkpt lat="45.78025" lon="3.09148">
        <ele>623.79998779297</ele>
        <time>2024-05-26T13:39:46.000Z</time>
        <extensions>
          <gpxtpx:TrackPointExtension xmlns:gpxtpx="http://www.garmin.com/xmlschemas/TrackPointExtension/v1">
            <gpxtpx:hr>117</gpxtpx:hr>
          </gpxtpx:TrackPointExtension>
        </extensions>
      </trkpt>
      <trkpt lat="45.78034" lon="3.09145">
        <ele>623</ele>
        <time>2024-05-26T13:39:48.000Z</time>
        <extensions>
          <gpxtpx:TrackPointExtension xmlns:gpxtpx="http://www.garmin.com/xmlschemas/TrackPointExtension/v1">
            <gpxtpx:hr>116</gpxtpx:hr>
          </gpxtpx:TrackPointExtension>
        </extensions>
      </trkpt>
      <trkpt lat="45.78045" lon="3.09141">
        <ele>622.59997558594</ele>
        <time>2024-05-26T13:39:50.000Z</time>
        <extensions>
          <gpxtpx:TrackPointExtension xmlns:gpxtpx="http://www.garmin.com/xmlschemas/TrackPointExtension/v1">
            <gpxtpx:hr>116</gpxtpx:hr>
          </gpxtpx:TrackPointExtension>
        </extensions>
      </trkpt>
      <trkpt lat="45.78077" lon="3.09134">
        <ele>622</ele>
        <time>2024-05-26T13:39:56.000Z</time>
        <extensions>
          <gpxtpx:TrackPointExtension xmlns:gpxtpx="http://www.garmin.com/xmlschemas/TrackPointExtension/v1">
            <gpxtpx:hr>114</gpxtpx:hr>
          </gpxtpx:TrackPointExtension>
        </extensions>
      </trkpt>
      <trkpt lat="45.78081" lon="3.09134">
        <ele>622</ele>
        <time>2024-05-26T13:39:57.000Z</time>
        <extensions>
          <gpxtpx:TrackPointExtension xmlns:gpxtpx="http://www.garmin.com/xmlschemas/TrackPointExtension/v1">
            <gpxtpx:hr>113</gpxtpx:hr>
          </gpxtpx:TrackPointExtension>
        </extensions>
      </trkpt>
      <trkpt lat="45.78091" lon="3.09141">
        <ele>622.40002441406</ele>
        <time>2024-05-26T13:40:00.000Z</time>
        <extensions>
          <gpxtpx:TrackPointExtension xmlns:gpxtpx="http://www.garmin.com/xmlschemas/TrackPointExtension/v1">
            <gpxtpx:hr>111</gpxtpx:hr>
          </gpxtpx:TrackPointExtension>
        </extensions>
      </trkpt>
      <trkpt lat="45.7809" lon="3.09169">
        <ele>621.79998779297</ele>
        <time>2024-05-26T13:56:45.000Z</time>
        <extensions>
          <gpxtpx:TrackPointExtension xmlns:gpxtpx="http://www.garmin.com/xmlschemas/TrackPointExtension/v1">
            <gpxtpx:hr>111</gpxtpx:hr>
          </gpxtpx:TrackPointExtension>
        </extensions>
      </trkpt>
      <trkpt lat="45.78094" lon="3.09191">
        <ele>621.79998779297</ele>
        <time>2024-05-26T13:56:49.000Z</time>
        <extensions>
          <gpxtpx:TrackPointExtension xmlns:gpxtpx="http://www.garmin.com/xmlschemas/TrackPointExtension/v1">
            <gpxtpx:hr>110</gpxtpx:hr>
          </gpxtpx:TrackPointExtension>
        </extensions>
      </trkpt>
      <trkpt lat="45.78099" lon="3.09211">
        <ele>621.79998779297</ele>
        <time>2024-05-26T13:56:52.000Z</time>
        <extensions>
          <gpxtpx:TrackPointExtension xmlns:gpxtpx="http://www.garmin.com/xmlschemas/TrackPointExtension/v1">
            <gpxtpx:hr>110</gpxtpx:hr>
          </gpxtpx:TrackPointExtension>
        </extensions>
      </trkpt>
      <trkpt lat="45.78103" lon="3.09226">
        <ele>621.20001220703</ele>
        <time>2024-05-26T13:56:54.000Z</time>
        <extensions>
          <gpxtpx:TrackPointExtension xmlns:gpxtpx="http://www.garmin.com/xmlschemas/TrackPointExtension/v1">
            <gpxtpx:hr>111</gpxtpx:hr>
          </gpxtpx:TrackPointExtension>
        </extensions>
      </trkpt>
      <trkpt lat="45.78107" lon="3.09243">
        <ele>620.59997558594</ele>
        <time>2024-05-26T13:56:56.000Z</time>
        <extensions>
          <gpxtpx:TrackPointExtension xmlns:gpxtpx="http://www.garmin.com/xmlschemas/TrackPointExtension/v1">
            <gpxtpx:hr>112</gpxtpx:hr>
          </gpxtpx:TrackPointExtension>
        </extensions>
      </trkpt>
      <trkpt lat="45.78111" lon="3.0926">
        <ele>619.59997558594</ele>
        <time>2024-05-26T13:56:58.000Z</time>
        <extensions>
          <gpxtpx:TrackPointExtension xmlns:gpxtpx="http://www.garmin.com/xmlschemas/TrackPointExtension/v1">
            <gpxtpx:hr>112</gpxtpx:hr>
          </gpxtpx:TrackPointExtension>
        </extensions>
      </trkpt>
      <trkpt lat="45.78114" lon="3.09277">
        <ele>618.59997558594</ele>
        <time>2024-05-26T13:57:00.000Z</time>
        <extensions>
          <gpxtpx:TrackPointExtension xmlns:gpxtpx="http://www.garmin.com/xmlschemas/TrackPointExtension/v1">
            <gpxtpx:hr>111</gpxtpx:hr>
          </gpxtpx:TrackPointExtension>
        </extensions>
      </trkpt>
      <trkpt lat="45.78117" lon="3.09286">
        <ele>618.40002441406</ele>
        <time>2024-05-26T13:57:01.000Z</time>
        <extensions>
          <gpxtpx:TrackPointExtension xmlns:gpxtpx="http://www.garmin.com/xmlschemas/TrackPointExtension/v1">
            <gpxtpx:hr>110</gpxtpx:hr>
          </gpxtpx:TrackPointExtension>
        </extensions>
      </trkpt>
      <trkpt lat="45.78122" lon="3.09311">
        <ele>617.40002441406</ele>
        <time>2024-05-26T13:57:04.000Z</time>
        <extensions>
          <gpxtpx:TrackPointExtension xmlns:gpxtpx="http://www.garmin.com/xmlschemas/TrackPointExtension/v1">
            <gpxtpx:hr>109</gpxtpx:hr>
          </gpxtpx:TrackPointExtension>
        </extensions>
      </trkpt>
      <trkpt lat="45.78128" lon="3.09335">
        <ele>616.59997558594</ele>
        <time>2024-05-26T13:57:07.000Z</time>
        <extensions>
          <gpxtpx:TrackPointExtension xmlns:gpxtpx="http://www.garmin.com/xmlschemas/TrackPointExtension/v1">
            <gpxtpx:hr>109</gpxtpx:hr>
          </gpxtpx:TrackPointExtension>
        </extensions>
      </trkpt>
      <trkpt lat="45.78131" lon="3.09343">
        <ele>616.40002441406</ele>
        <time>2024-05-26T13:57:08.000Z</time>
        <extensions>
          <gpxtpx:TrackPointExtension xmlns:gpxtpx="http://www.garmin.com/xmlschemas/TrackPointExtension/v1">
            <gpxtpx:hr>109</gpxtpx:hr>
          </gpxtpx:TrackPointExtension>
        </extensions>
      </trkpt>
      <trkpt lat="45.78132" lon="3.09351">
        <ele>616.20001220703</ele>
        <time>2024-05-26T13:57:09.000Z</time>
        <extensions>
          <gpxtpx:TrackPointExtension xmlns:gpxtpx="http://www.garmin.com/xmlschemas/TrackPointExtension/v1">
            <gpxtpx:hr>109</gpxtpx:hr>
          </gpxtpx:TrackPointExtension>
        </extensions>
      </trkpt>
      <trkpt lat="45.78136" lon="3.09375">
        <ele>615</ele>
        <time>2024-05-26T13:57:12.000Z</time>
        <extensions>
          <gpxtpx:TrackPointExtension xmlns:gpxtpx="http://www.garmin.com/xmlschemas/TrackPointExtension/v1">
            <gpxtpx:hr>109</gpxtpx:hr>
          </gpxtpx:TrackPointExtension>
        </extensions>
      </trkpt>
      <trkpt lat="45.78146" lon="3.09405">
        <ele>613.59997558594</ele>
        <time>2024-05-26T13:57:16.000Z</time>
        <extensions>
          <gpxtpx:TrackPointExtension xmlns:gpxtpx="http://www.garmin.com/xmlschemas/TrackPointExtension/v1">
            <gpxtpx:hr>110</gpxtpx:hr>
          </gpxtpx:TrackPointExtension>
        </extensions>
      </trkpt>
      <trkpt lat="45.78153" lon="3.0942">
        <ele>613.40002441406</ele>
        <time>2024-05-26T13:57:18.000Z</time>
        <extensions>
          <gpxtpx:TrackPointExtension xmlns:gpxtpx="http://www.garmin.com/xmlschemas/TrackPointExtension/v1">
            <gpxtpx:hr>110</gpxtpx:hr>
          </gpxtpx:TrackPointExtension>
        </extensions>
      </trkpt>
      <trkpt lat="45.78166" lon="3.09443">
        <ele>612.79998779297</ele>
        <time>2024-05-26T13:57:21.000Z</time>
        <extensions>
          <gpxtpx:TrackPointExtension xmlns:gpxtpx="http://www.garmin.com/xmlschemas/TrackPointExtension/v1">
            <gpxtpx:hr>111</gpxtpx:hr>
          </gpxtpx:TrackPointExtension>
        </extensions>
      </trkpt>
      <trkpt lat="45.78169" lon="3.0945">
        <ele>612.59997558594</ele>
        <time>2024-05-26T13:57:22.000Z</time>
        <extensions>
          <gpxtpx:TrackPointExtension xmlns:gpxtpx="http://www.garmin.com/xmlschemas/TrackPointExtension/v1">
            <gpxtpx:hr>111</gpxtpx:hr>
          </gpxtpx:TrackPointExtension>
        </extensions>
      </trkpt>
      <trkpt lat="45.78173" lon="3.09458">
        <ele>612.40002441406</ele>
        <time>2024-05-26T13:57:23.000Z</time>
        <extensions>
          <gpxtpx:TrackPointExtension xmlns:gpxtpx="http://www.garmin.com/xmlschemas/TrackPointExtension/v1">
            <gpxtpx:hr>111</gpxtpx:hr>
          </gpxtpx:TrackPointExtension>
        </extensions>
      </trkpt>
      <trkpt lat="45.78177" lon="3.09466">
        <ele>612.40002441406</ele>
        <time>2024-05-26T13:57:24.000Z</time>
        <extensions>
          <gpxtpx:TrackPointExtension xmlns:gpxtpx="http://www.garmin.com/xmlschemas/TrackPointExtension/v1">
            <gpxtpx:hr>111</gpxtpx:hr>
          </gpxtpx:TrackPointExtension>
        </extensions>
      </trkpt>
      <trkpt lat="45.78191" lon="3.09489">
        <ele>612.20001220703</ele>
        <time>2024-05-26T13:57:27.000Z</time>
        <extensions>
          <gpxtpx:TrackPointExtension xmlns:gpxtpx="http://www.garmin.com/xmlschemas/TrackPointExtension/v1">
            <gpxtpx:hr>109</gpxtpx:hr>
          </gpxtpx:TrackPointExtension>
        </extensions>
      </trkpt>
      <trkpt lat="45.782" lon="3.09504">
        <ele>611.59997558594</ele>
        <time>2024-05-26T13:57:29.000Z</time>
        <extensions>
          <gpxtpx:TrackPointExtension xmlns:gpxtpx="http://www.garmin.com/xmlschemas/TrackPointExtension/v1">
            <gpxtpx:hr>109</gpxtpx:hr>
          </gpxtpx:TrackPointExtension>
        </extensions>
      </trkpt>
      <trkpt lat="45.78207" lon="3.09515">
        <ele>610.40002441406</ele>
        <time>2024-05-26T13:57:31.000Z</time>
        <extensions>
          <gpxtpx:TrackPointExtension xmlns:gpxtpx="http://www.garmin.com/xmlschemas/TrackPointExtension/v1">
            <gpxtpx:hr>109</gpxtpx:hr>
          </gpxtpx:TrackPointExtension>
        </extensions>
      </trkpt>
      <trkpt lat="45.78212" lon="3.09525">
        <ele>609.79998779297</ele>
        <time>2024-05-26T13:57:33.000Z</time>
        <extensions>
          <gpxtpx:TrackPointExtension xmlns:gpxtpx="http://www.garmin.com/xmlschemas/TrackPointExtension/v1">
            <gpxtpx:hr>109</gpxtpx:hr>
          </gpxtpx:TrackPointExtension>
        </extensions>
      </trkpt>
      <trkpt lat="45.78214" lon="3.09529">
        <ele>609.40002441406</ele>
        <time>2024-05-26T13:57:34.000Z</time>
        <extensions>
          <gpxtpx:TrackPointExtension xmlns:gpxtpx="http://www.garmin.com/xmlschemas/TrackPointExtension/v1">
            <gpxtpx:hr>109</gpxtpx:hr>
          </gpxtpx:TrackPointExtension>
        </extensions>
      </trkpt>
      <trkpt lat="45.78215" lon="3.09534">
        <ele>609</ele>
        <time>2024-05-26T13:57:35.000Z</time>
        <extensions>
          <gpxtpx:TrackPointExtension xmlns:gpxtpx="http://www.garmin.com/xmlschemas/TrackPointExtension/v1">
            <gpxtpx:hr>109</gpxtpx:hr>
          </gpxtpx:TrackPointExtension>
        </extensions>
      </trkpt>
      <trkpt lat="45.78215" lon="3.09539">
        <ele>608.79998779297</ele>
        <time>2024-05-26T13:57:36.000Z</time>
        <extensions>
          <gpxtpx:TrackPointExtension xmlns:gpxtpx="http://www.garmin.com/xmlschemas/TrackPointExtension/v1">
            <gpxtpx:hr>109</gpxtpx:hr>
          </gpxtpx:TrackPointExtension>
        </extensions>
      </trkpt>
      <trkpt lat="45.78215" lon="3.09547">
        <ele>608</ele>
        <time>2024-05-26T13:57:38.000Z</time>
        <extensions>
          <gpxtpx:TrackPointExtension xmlns:gpxtpx="http://www.garmin.com/xmlschemas/TrackPointExtension/v1">
            <gpxtpx:hr>109</gpxtpx:hr>
          </gpxtpx:TrackPointExtension>
        </extensions>
      </trkpt>
      <trkpt lat="45.78218" lon="3.09555">
        <ele>608</ele>
        <time>2024-05-26T13:57:40.000Z</time>
        <extensions>
          <gpxtpx:TrackPointExtension xmlns:gpxtpx="http://www.garmin.com/xmlschemas/TrackPointExtension/v1">
            <gpxtpx:hr>110</gpxtpx:hr>
          </gpxtpx:TrackPointExtension>
        </extensions>
      </trkpt>
      <trkpt lat="45.78226" lon="3.09563">
        <ele>607.79998779297</ele>
        <time>2024-05-26T13:57:43.000Z</time>
        <extensions>
          <gpxtpx:TrackPointExtension xmlns:gpxtpx="http://www.garmin.com/xmlschemas/TrackPointExtension/v1">
            <gpxtpx:hr>108</gpxtpx:hr>
          </gpxtpx:TrackPointExtension>
        </extensions>
      </trkpt>
      <trkpt lat="45.78229" lon="3.09563">
        <ele>607.79998779297</ele>
        <time>2024-05-26T13:57:44.000Z</time>
        <extensions>
          <gpxtpx:TrackPointExtension xmlns:gpxtpx="http://www.garmin.com/xmlschemas/TrackPointExtension/v1">
            <gpxtpx:hr>107</gpxtpx:hr>
          </gpxtpx:TrackPointExtension>
        </extensions>
      </trkpt>
      <trkpt lat="45.78241" lon="3.09567">
        <ele>607.40002441406</ele>
        <time>2024-05-26T13:57:48.000Z</time>
        <extensions>
          <gpxtpx:TrackPointExtension xmlns:gpxtpx="http://www.garmin.com/xmlschemas/TrackPointExtension/v1">
            <gpxtpx:hr>108</gpxtpx:hr>
          </gpxtpx:TrackPointExtension>
        </extensions>
      </trkpt>
      <trkpt lat="45.78246" lon="3.09576">
        <ele>607</ele>
        <time>2024-05-26T13:57:50.000Z</time>
        <extensions>
          <gpxtpx:TrackPointExtension xmlns:gpxtpx="http://www.garmin.com/xmlschemas/TrackPointExtension/v1">
            <gpxtpx:hr>107</gpxtpx:hr>
          </gpxtpx:TrackPointExtension>
        </extensions>
      </trkpt>
      <trkpt lat="45.78255" lon="3.09597">
        <ele>606.40002441406</ele>
        <time>2024-05-26T13:57:54.000Z</time>
        <extensions>
          <gpxtpx:TrackPointExtension xmlns:gpxtpx="http://www.garmin.com/xmlschemas/TrackPointExtension/v1">
            <gpxtpx:hr>106</gpxtpx:hr>
          </gpxtpx:TrackPointExtension>
        </extensions>
      </trkpt>
      <trkpt lat="45.78275" lon="3.09637">
        <ele>606</ele>
        <time>2024-05-26T13:58:01.000Z</time>
        <extensions>
          <gpxtpx:TrackPointExtension xmlns:gpxtpx="http://www.garmin.com/xmlschemas/TrackPointExtension/v1">
            <gpxtpx:hr>105</gpxtpx:hr>
          </gpxtpx:TrackPointExtension>
        </extensions>
      </trkpt>
      <trkpt lat="45.78294" lon="3.09675">
        <ele>604.59997558594</ele>
        <time>2024-05-26T13:58:07.000Z</time>
        <extensions>
          <gpxtpx:TrackPointExtension xmlns:gpxtpx="http://www.garmin.com/xmlschemas/TrackPointExtension/v1">
            <gpxtpx:hr>105</gpxtpx:hr>
          </gpxtpx:TrackPointExtension>
        </extensions>
      </trkpt>
      <trkpt lat="45.78297" lon="3.09682">
        <ele>604.40002441406</ele>
        <time>2024-05-26T13:58:08.000Z</time>
        <extensions>
          <gpxtpx:TrackPointExtension xmlns:gpxtpx="http://www.garmin.com/xmlschemas/TrackPointExtension/v1">
            <gpxtpx:hr>106</gpxtpx:hr>
          </gpxtpx:TrackPointExtension>
        </extensions>
      </trkpt>
      <trkpt lat="45.78321" lon="3.09728">
        <ele>604.40002441406</ele>
        <time>2024-05-26T13:58:15.000Z</time>
        <extensions>
          <gpxtpx:TrackPointExtension xmlns:gpxtpx="http://www.garmin.com/xmlschemas/TrackPointExtension/v1">
            <gpxtpx:hr>100</gpxtpx:hr>
          </gpxtpx:TrackPointExtension>
        </extensions>
      </trkpt>
      <trkpt lat="45.78326" lon="3.0974">
        <ele>604.40002441406</ele>
        <time>2024-05-26T13:58:17.000Z</time>
        <extensions>
          <gpxtpx:TrackPointExtension xmlns:gpxtpx="http://www.garmin.com/xmlschemas/TrackPointExtension/v1">
            <gpxtpx:hr>99</gpxtpx:hr>
          </gpxtpx:TrackPointExtension>
        </extensions>
      </trkpt>
      <trkpt lat="45.78329" lon="3.09746">
        <ele>604.20001220703</ele>
        <time>2024-05-26T13:58:18.000Z</time>
        <extensions>
          <gpxtpx:TrackPointExtension xmlns:gpxtpx="http://www.garmin.com/xmlschemas/TrackPointExtension/v1">
            <gpxtpx:hr>96</gpxtpx:hr>
          </gpxtpx:TrackPointExtension>
        </extensions>
      </trkpt>
      <trkpt lat="45.78339" lon="3.09765">
        <ele>603.59997558594</ele>
        <time>2024-05-26T13:58:21.000Z</time>
        <extensions>
          <gpxtpx:TrackPointExtension xmlns:gpxtpx="http://www.garmin.com/xmlschemas/TrackPointExtension/v1">
            <gpxtpx:hr>95</gpxtpx:hr>
          </gpxtpx:TrackPointExtension>
        </extensions>
      </trkpt>
      <trkpt lat="45.78351" lon="3.0979">
        <ele>602.79998779297</ele>
        <time>2024-05-26T13:58:25.000Z</time>
        <extensions>
          <gpxtpx:TrackPointExtension xmlns:gpxtpx="http://www.garmin.com/xmlschemas/TrackPointExtension/v1">
            <gpxtpx:hr>93</gpxtpx:hr>
          </gpxtpx:TrackPointExtension>
        </extensions>
      </trkpt>
      <trkpt lat="45.78354" lon="3.09797">
        <ele>602.79998779297</ele>
        <time>2024-05-26T13:58:26.000Z</time>
        <extensions>
          <gpxtpx:TrackPointExtension xmlns:gpxtpx="http://www.garmin.com/xmlschemas/TrackPointExtension/v1">
            <gpxtpx:hr>92</gpxtpx:hr>
          </gpxtpx:TrackPointExtension>
        </extensions>
      </trkpt>
      <trkpt lat="45.78363" lon="3.09818">
        <ele>602.79998779297</ele>
        <time>2024-05-26T13:58:29.000Z</time>
        <extensions>
          <gpxtpx:TrackPointExtension xmlns:gpxtpx="http://www.garmin.com/xmlschemas/TrackPointExtension/v1">
            <gpxtpx:hr>92</gpxtpx:hr>
          </gpxtpx:TrackPointExtension>
        </extensions>
      </trkpt>
      <trkpt lat="45.78369" lon="3.09831">
        <ele>603</ele>
        <time>2024-05-26T13:58:31.000Z</time>
        <extensions>
          <gpxtpx:TrackPointExtension xmlns:gpxtpx="http://www.garmin.com/xmlschemas/TrackPointExtension/v1">
            <gpxtpx:hr>95</gpxtpx:hr>
          </gpxtpx:TrackPointExtension>
        </extensions>
      </trkpt>
      <trkpt lat="45.78373" lon="3.09838">
        <ele>602.79998779297</ele>
        <time>2024-05-26T13:58:32.000Z</time>
        <extensions>
          <gpxtpx:TrackPointExtension xmlns:gpxtpx="http://www.garmin.com/xmlschemas/TrackPointExtension/v1">
            <gpxtpx:hr>91</gpxtpx:hr>
          </gpxtpx:TrackPointExtension>
        </extensions>
      </trkpt>
      <trkpt lat="45.78382" lon="3.09858">
        <ele>602.59997558594</ele>
        <time>2024-05-26T13:58:35.000Z</time>
        <extensions>
          <gpxtpx:TrackPointExtension xmlns:gpxtpx="http://www.garmin.com/xmlschemas/TrackPointExtension/v1">
            <gpxtpx:hr>91</gpxtpx:hr>
          </gpxtpx:TrackPointExtension>
        </extensions>
      </trkpt>
      <trkpt lat="45.78388" lon="3.0987">
        <ele>602.40002441406</ele>
        <time>2024-05-26T13:58:37.000Z</time>
        <extensions>
          <gpxtpx:TrackPointExtension xmlns:gpxtpx="http://www.garmin.com/xmlschemas/TrackPointExtension/v1">
            <gpxtpx:hr>88</gpxtpx:hr>
          </gpxtpx:TrackPointExtension>
        </extensions>
      </trkpt>
      <trkpt lat="45.784" lon="3.09895">
        <ele>602.20001220703</ele>
        <time>2024-05-26T13:58:41.000Z</time>
        <extensions>
          <gpxtpx:TrackPointExtension xmlns:gpxtpx="http://www.garmin.com/xmlschemas/TrackPointExtension/v1">
            <gpxtpx:hr>90</gpxtpx:hr>
          </gpxtpx:TrackPointExtension>
        </extensions>
      </trkpt>
      <trkpt lat="45.78411" lon="3.09918">
        <ele>601.40002441406</ele>
        <time>2024-05-26T13:58:45.000Z</time>
        <extensions>
          <gpxtpx:TrackPointExtension xmlns:gpxtpx="http://www.garmin.com/xmlschemas/TrackPointExtension/v1">
            <gpxtpx:hr>88</gpxtpx:hr>
          </gpxtpx:TrackPointExtension>
        </extensions>
      </trkpt>
      <trkpt lat="45.78417" lon="3.0993">
        <ele>600.79998779297</ele>
        <time>2024-05-26T13:58:47.000Z</time>
        <extensions>
          <gpxtpx:TrackPointExtension xmlns:gpxtpx="http://www.garmin.com/xmlschemas/TrackPointExtension/v1">
            <gpxtpx:hr>87</gpxtpx:hr>
          </gpxtpx:TrackPointExtension>
        </extensions>
      </trkpt>
      <trkpt lat="45.78435" lon="3.09968">
        <ele>600.59997558594</ele>
        <time>2024-05-26T13:58:54.000Z</time>
        <extensions>
          <gpxtpx:TrackPointExtension xmlns:gpxtpx="http://www.garmin.com/xmlschemas/TrackPointExtension/v1">
            <gpxtpx:hr>84</gpxtpx:hr>
          </gpxtpx:TrackPointExtension>
        </extensions>
      </trkpt>
      <trkpt lat="45.78438" lon="3.09973">
        <ele>600.59997558594</ele>
        <time>2024-05-26T13:58:55.000Z</time>
        <extensions>
          <gpxtpx:TrackPointExtension xmlns:gpxtpx="http://www.garmin.com/xmlschemas/TrackPointExtension/v1">
            <gpxtpx:hr>83</gpxtpx:hr>
          </gpxtpx:TrackPointExtension>
        </extensions>
      </trkpt>
      <trkpt lat="45.78448" lon="3.09994">
        <ele>600.40002441406</ele>
        <time>2024-05-26T13:58:59.000Z</time>
        <extensions>
          <gpxtpx:TrackPointExtension xmlns:gpxtpx="http://www.garmin.com/xmlschemas/TrackPointExtension/v1">
            <gpxtpx:hr>83</gpxtpx:hr>
          </gpxtpx:TrackPointExtension>
        </extensions>
      </trkpt>
      <trkpt lat="45.78463" lon="3.10024">
        <ele>600.20001220703</ele>
        <time>2024-05-26T13:59:05.000Z</time>
        <extensions>
          <gpxtpx:TrackPointExtension xmlns:gpxtpx="http://www.garmin.com/xmlschemas/TrackPointExtension/v1">
            <gpxtpx:hr>83</gpxtpx:hr>
          </gpxtpx:TrackPointExtension>
        </extensions>
      </trkpt>
      <trkpt lat="45.78478" lon="3.10058">
        <ele>599.59997558594</ele>
        <time>2024-05-26T13:59:12.000Z</time>
        <extensions>
          <gpxtpx:TrackPointExtension xmlns:gpxtpx="http://www.garmin.com/xmlschemas/TrackPointExtension/v1">
            <gpxtpx:hr>84</gpxtpx:hr>
          </gpxtpx:TrackPointExtension>
        </extensions>
      </trkpt>
      <trkpt lat="45.78485" lon="3.10072">
        <ele>599.79998779297</ele>
        <time>2024-05-26T13:59:15.000Z</time>
        <extensions>
          <gpxtpx:TrackPointExtension xmlns:gpxtpx="http://www.garmin.com/xmlschemas/TrackPointExtension/v1">
            <gpxtpx:hr>81</gpxtpx:hr>
          </gpxtpx:TrackPointExtension>
        </extensions>
      </trkpt>
      <trkpt lat="45.78491" lon="3.10087">
        <ele>599.79998779297</ele>
        <time>2024-05-26T13:59:18.000Z</time>
        <extensions>
          <gpxtpx:TrackPointExtension xmlns:gpxtpx="http://www.garmin.com/xmlschemas/TrackPointExtension/v1">
            <gpxtpx:hr>84</gpxtpx:hr>
          </gpxtpx:TrackPointExtension>
        </extensions>
      </trkpt>
      <trkpt lat="45.78495" lon="3.10097">
        <ele>599.59997558594</ele>
        <time>2024-05-26T13:59:21.000Z</time>
        <extensions>
          <gpxtpx:TrackPointExtension xmlns:gpxtpx="http://www.garmin.com/xmlschemas/TrackPointExtension/v1">
            <gpxtpx:hr>86</gpxtpx:hr>
          </gpxtpx:TrackPointExtension>
        </extensions>
      </trkpt>
      <trkpt lat="45.78496" lon="3.10097">
        <ele>599.40002441406</ele>
        <time>2024-05-26T13:59:22.000Z</time>
        <extensions>
          <gpxtpx:TrackPointExtension xmlns:gpxtpx="http://www.garmin.com/xmlschemas/TrackPointExtension/v1">
            <gpxtpx:hr>89</gpxtpx:hr>
          </gpxtpx:TrackPointExtension>
        </extensions>
      </trkpt>
      <trkpt lat="45.78496" lon="3.10097">
        <ele>599.40002441406</ele>
        <time>2024-05-26T13:59:23.000Z</time>
        <extensions>
          <gpxtpx:TrackPointExtension xmlns:gpxtpx="http://www.garmin.com/xmlschemas/TrackPointExtension/v1">
            <gpxtpx:hr>93</gpxtpx:hr>
          </gpxtpx:TrackPointExtension>
        </extensions>
      </trkpt>
      <trkpt lat="45.78496" lon="3.10097">
        <ele>599.40002441406</ele>
        <time>2024-05-26T13:59:25.000Z</time>
        <extensions>
          <gpxtpx:TrackPointExtension xmlns:gpxtpx="http://www.garmin.com/xmlschemas/TrackPointExtension/v1">
            <gpxtpx:hr>97</gpxtpx:hr>
          </gpxtpx:TrackPointExtension>
        </extensions>
      </trkpt>
      <trkpt lat="45.78496" lon="3.10097">
        <ele>599.20001220703</ele>
        <time>2024-05-26T13:59:29.000Z</time>
        <extensions>
          <gpxtpx:TrackPointExtension xmlns:gpxtpx="http://www.garmin.com/xmlschemas/TrackPointExtension/v1">
            <gpxtpx:hr>100</gpxtpx:hr>
          </gpxtpx:TrackPointExtension>
        </extensions>
      </trkpt>
      <trkpt lat="45.78496" lon="3.10097">
        <ele>599.20001220703</ele>
        <time>2024-05-26T13:59:33.000Z</time>
        <extensions>
          <gpxtpx:TrackPointExtension xmlns:gpxtpx="http://www.garmin.com/xmlschemas/TrackPointExtension/v1">
            <gpxtpx:hr>103</gpxtpx:hr>
          </gpxtpx:TrackPointExtension>
        </extensions>
      </trkpt>
      <trkpt lat="45.78499" lon="3.10101">
        <ele>599.20001220703</ele>
        <time>2024-05-26T13:59:41.000Z</time>
        <extensions>
          <gpxtpx:TrackPointExtension xmlns:gpxtpx="http://www.garmin.com/xmlschemas/TrackPointExtension/v1">
            <gpxtpx:hr>105</gpxtpx:hr>
          </gpxtpx:TrackPointExtension>
        </extensions>
      </trkpt>
      <trkpt lat="45.78509" lon="3.10119">
        <ele>599.20001220703</ele>
        <time>2024-05-26T13:59:46.000Z</time>
        <extensions>
          <gpxtpx:TrackPointExtension xmlns:gpxtpx="http://www.garmin.com/xmlschemas/TrackPointExtension/v1">
            <gpxtpx:hr>105</gpxtpx:hr>
          </gpxtpx:TrackPointExtension>
        </extensions>
      </trkpt>
      <trkpt lat="45.78516" lon="3.10131">
        <ele>599.59997558594</ele>
        <time>2024-05-26T13:59:49.000Z</time>
        <extensions>
          <gpxtpx:TrackPointExtension xmlns:gpxtpx="http://www.garmin.com/xmlschemas/TrackPointExtension/v1">
            <gpxtpx:hr>105</gpxtpx:hr>
          </gpxtpx:TrackPointExtension>
        </extensions>
      </trkpt>
      <trkpt lat="45.78518" lon="3.10137">
        <ele>599.59997558594</ele>
        <time>2024-05-26T13:59:50.000Z</time>
        <extensions>
          <gpxtpx:TrackPointExtension xmlns:gpxtpx="http://www.garmin.com/xmlschemas/TrackPointExtension/v1">
            <gpxtpx:hr>105</gpxtpx:hr>
          </gpxtpx:TrackPointExtension>
        </extensions>
      </trkpt>
      <trkpt lat="45.78523" lon="3.10146">
        <ele>599.79998779297</ele>
        <time>2024-05-26T13:59:52.000Z</time>
        <extensions>
          <gpxtpx:TrackPointExtension xmlns:gpxtpx="http://www.garmin.com/xmlschemas/TrackPointExtension/v1">
            <gpxtpx:hr>104</gpxtpx:hr>
          </gpxtpx:TrackPointExtension>
        </extensions>
      </trkpt>
      <trkpt lat="45.78532" lon="3.10161">
        <ele>600</ele>
        <time>2024-05-26T13:59:55.000Z</time>
        <extensions>
          <gpxtpx:TrackPointExtension xmlns:gpxtpx="http://www.garmin.com/xmlschemas/TrackPointExtension/v1">
            <gpxtpx:hr>103</gpxtpx:hr>
          </gpxtpx:TrackPointExtension>
        </extensions>
      </trkpt>
      <trkpt lat="45.78536" lon="3.10167">
        <ele>599.79998779297</ele>
        <time>2024-05-26T13:59:56.000Z</time>
        <extensions>
          <gpxtpx:TrackPointExtension xmlns:gpxtpx="http://www.garmin.com/xmlschemas/TrackPointExtension/v1">
            <gpxtpx:hr>103</gpxtpx:hr>
          </gpxtpx:TrackPointExtension>
        </extensions>
      </trkpt>
      <trkpt lat="45.78553" lon="3.102">
        <ele>599.59997558594</ele>
        <time>2024-05-26T14:00:02.000Z</time>
        <extensions>
          <gpxtpx:TrackPointExtension xmlns:gpxtpx="http://www.garmin.com/xmlschemas/TrackPointExtension/v1">
            <gpxtpx:hr>102</gpxtpx:hr>
          </gpxtpx:TrackPointExtension>
        </extensions>
      </trkpt>
      <trkpt lat="45.78575" lon="3.10242">
        <ele>598.40002441406</ele>
        <time>2024-05-26T14:00:09.000Z</time>
        <extensions>
          <gpxtpx:TrackPointExtension xmlns:gpxtpx="http://www.garmin.com/xmlschemas/TrackPointExtension/v1">
            <gpxtpx:hr>105</gpxtpx:hr>
          </gpxtpx:TrackPointExtension>
        </extensions>
      </trkpt>
      <trkpt lat="45.78595" lon="3.10282">
        <ele>598</ele>
        <time>2024-05-26T14:00:15.000Z</time>
        <extensions>
          <gpxtpx:TrackPointExtension xmlns:gpxtpx="http://www.garmin.com/xmlschemas/TrackPointExtension/v1">
            <gpxtpx:hr>103</gpxtpx:hr>
          </gpxtpx:TrackPointExtension>
        </extensions>
      </trkpt>
      <trkpt lat="45.78611" lon="3.10307">
        <ele>597.20001220703</ele>
        <time>2024-05-26T14:00:19.000Z</time>
        <extensions>
          <gpxtpx:TrackPointExtension xmlns:gpxtpx="http://www.garmin.com/xmlschemas/TrackPointExtension/v1">
            <gpxtpx:hr>102</gpxtpx:hr>
          </gpxtpx:TrackPointExtension>
        </extensions>
      </trkpt>
      <trkpt lat="45.78619" lon="3.1032">
        <ele>597.20001220703</ele>
        <time>2024-05-26T14:00:21.000Z</time>
        <extensions>
          <gpxtpx:TrackPointExtension xmlns:gpxtpx="http://www.garmin.com/xmlschemas/TrackPointExtension/v1">
            <gpxtpx:hr>101</gpxtpx:hr>
          </gpxtpx:TrackPointExtension>
        </extensions>
      </trkpt>
      <trkpt lat="45.78626" lon="3.10334">
        <ele>597.40002441406</ele>
        <time>2024-05-26T14:00:23.000Z</time>
        <extensions>
          <gpxtpx:TrackPointExtension xmlns:gpxtpx="http://www.garmin.com/xmlschemas/TrackPointExtension/v1">
            <gpxtpx:hr>100</gpxtpx:hr>
          </gpxtpx:TrackPointExtension>
        </extensions>
      </trkpt>
      <trkpt lat="45.78635" lon="3.10356">
        <ele>597.59997558594</ele>
        <time>2024-05-26T14:00:26.000Z</time>
        <extensions>
          <gpxtpx:TrackPointExtension xmlns:gpxtpx="http://www.garmin.com/xmlschemas/TrackPointExtension/v1">
            <gpxtpx:hr>101</gpxtpx:hr>
          </gpxtpx:TrackPointExtension>
        </extensions>
      </trkpt>
      <trkpt lat="45.78639" lon="3.10363">
        <ele>597.59997558594</ele>
        <time>2024-05-26T14:00:27.000Z</time>
        <extensions>
          <gpxtpx:TrackPointExtension xmlns:gpxtpx="http://www.garmin.com/xmlschemas/TrackPointExtension/v1">
            <gpxtpx:hr>102</gpxtpx:hr>
          </gpxtpx:TrackPointExtension>
        </extensions>
      </trkpt>
      <trkpt lat="45.78649" lon="3.10384">
        <ele>596.59997558594</ele>
        <time>2024-05-26T14:00:30.000Z</time>
        <extensions>
          <gpxtpx:TrackPointExtension xmlns:gpxtpx="http://www.garmin.com/xmlschemas/TrackPointExtension/v1">
            <gpxtpx:hr>106</gpxtpx:hr>
          </gpxtpx:TrackPointExtension>
        </extensions>
      </trkpt>
      <trkpt lat="45.78651" lon="3.1039">
        <ele>596.40002441406</ele>
        <time>2024-05-26T14:00:31.000Z</time>
        <extensions>
          <gpxtpx:TrackPointExtension xmlns:gpxtpx="http://www.garmin.com/xmlschemas/TrackPointExtension/v1">
            <gpxtpx:hr>107</gpxtpx:hr>
          </gpxtpx:TrackPointExtension>
        </extensions>
      </trkpt>
      <trkpt lat="45.78654" lon="3.10397">
        <ele>596.20001220703</ele>
        <time>2024-05-26T14:00:32.000Z</time>
        <extensions>
          <gpxtpx:TrackPointExtension xmlns:gpxtpx="http://www.garmin.com/xmlschemas/TrackPointExtension/v1">
            <gpxtpx:hr>107</gpxtpx:hr>
          </gpxtpx:TrackPointExtension>
        </extensions>
      </trkpt>
      <trkpt lat="45.78664" lon="3.10418">
        <ele>595.79998779297</ele>
        <time>2024-05-26T14:00:35.000Z</time>
        <extensions>
          <gpxtpx:TrackPointExtension xmlns:gpxtpx="http://www.garmin.com/xmlschemas/TrackPointExtension/v1">
            <gpxtpx:hr>106</gpxtpx:hr>
          </gpxtpx:TrackPointExtension>
        </extensions>
      </trkpt>
      <trkpt lat="45.78682" lon="3.10451">
        <ele>595.59997558594</ele>
        <time>2024-05-26T14:00:40.000Z</time>
        <extensions>
          <gpxtpx:TrackPointExtension xmlns:gpxtpx="http://www.garmin.com/xmlschemas/TrackPointExtension/v1">
            <gpxtpx:hr>105</gpxtpx:hr>
          </gpxtpx:TrackPointExtension>
        </extensions>
      </trkpt>
      <trkpt lat="45.78686" lon="3.10457">
        <ele>595.59997558594</ele>
        <time>2024-05-26T14:00:41.000Z</time>
        <extensions>
          <gpxtpx:TrackPointExtension xmlns:gpxtpx="http://www.garmin.com/xmlschemas/TrackPointExtension/v1">
            <gpxtpx:hr>105</gpxtpx:hr>
          </gpxtpx:TrackPointExtension>
        </extensions>
      </trkpt>
      <trkpt lat="45.78694" lon="3.10473">
        <ele>595.40002441406</ele>
        <time>2024-05-26T14:00:43.000Z</time>
        <extensions>
          <gpxtpx:TrackPointExtension xmlns:gpxtpx="http://www.garmin.com/xmlschemas/TrackPointExtension/v1">
            <gpxtpx:hr>103</gpxtpx:hr>
          </gpxtpx:TrackPointExtension>
        </extensions>
      </trkpt>
      <trkpt lat="45.78702" lon="3.10488">
        <ele>595.79998779297</ele>
        <time>2024-05-26T14:00:45.000Z</time>
        <extensions>
          <gpxtpx:TrackPointExtension xmlns:gpxtpx="http://www.garmin.com/xmlschemas/TrackPointExtension/v1">
            <gpxtpx:hr>103</gpxtpx:hr>
          </gpxtpx:TrackPointExtension>
        </extensions>
      </trkpt>
      <trkpt lat="45.78705" lon="3.10495">
        <ele>595.59997558594</ele>
        <time>2024-05-26T14:00:46.000Z</time>
        <extensions>
          <gpxtpx:TrackPointExtension xmlns:gpxtpx="http://www.garmin.com/xmlschemas/TrackPointExtension/v1">
            <gpxtpx:hr>103</gpxtpx:hr>
          </gpxtpx:TrackPointExtension>
        </extensions>
      </trkpt>
      <trkpt lat="45.78728" lon="3.1054">
        <ele>595.40002441406</ele>
        <time>2024-05-26T14:00:52.000Z</time>
        <extensions>
          <gpxtpx:TrackPointExtension xmlns:gpxtpx="http://www.garmin.com/xmlschemas/TrackPointExtension/v1">
            <gpxtpx:hr>104</gpxtpx:hr>
          </gpxtpx:TrackPointExtension>
        </extensions>
      </trkpt>
      <trkpt lat="45.78732" lon="3.10546">
        <ele>595.20001220703</ele>
        <time>2024-05-26T14:00:53.000Z</time>
        <extensions>
          <gpxtpx:TrackPointExtension xmlns:gpxtpx="http://www.garmin.com/xmlschemas/TrackPointExtension/v1">
            <gpxtpx:hr>105</gpxtpx:hr>
          </gpxtpx:TrackPointExtension>
        </extensions>
      </trkpt>
      <trkpt lat="45.78744" lon="3.10575">
        <ele>595.20001220703</ele>
        <time>2024-05-26T14:00:58.000Z</time>
        <extensions>
          <gpxtpx:TrackPointExtension xmlns:gpxtpx="http://www.garmin.com/xmlschemas/TrackPointExtension/v1">
            <gpxtpx:hr>107</gpxtpx:hr>
          </gpxtpx:TrackPointExtension>
        </extensions>
      </trkpt>
      <trkpt lat="45.78747" lon="3.10594">
        <ele>594.79998779297</ele>
        <time>2024-05-26T14:01:02.000Z</time>
        <extensions>
          <gpxtpx:TrackPointExtension xmlns:gpxtpx="http://www.garmin.com/xmlschemas/TrackPointExtension/v1">
            <gpxtpx:hr>110</gpxtpx:hr>
          </gpxtpx:TrackPointExtension>
        </extensions>
      </trkpt>
      <trkpt lat="45.78749" lon="3.10594">
        <ele>594.59997558594</ele>
        <time>2024-05-26T14:01:03.000Z</time>
        <extensions>
          <gpxtpx:TrackPointExtension xmlns:gpxtpx="http://www.garmin.com/xmlschemas/TrackPointExtension/v1">
            <gpxtpx:hr>110</gpxtpx:hr>
          </gpxtpx:TrackPointExtension>
        </extensions>
      </trkpt>
      <trkpt lat="45.78758" lon="3.10579">
        <ele>594.59997558594</ele>
        <time>2024-05-26T14:01:08.000Z</time>
        <extensions>
          <gpxtpx:TrackPointExtension xmlns:gpxtpx="http://www.garmin.com/xmlschemas/TrackPointExtension/v1">
            <gpxtpx:hr>111</gpxtpx:hr>
          </gpxtpx:TrackPointExtension>
        </extensions>
      </trkpt>
      <trkpt lat="45.78771" lon="3.10571">
        <ele>594.79998779297</ele>
        <time>2024-05-26T14:01:12.000Z</time>
        <extensions>
          <gpxtpx:TrackPointExtension xmlns:gpxtpx="http://www.garmin.com/xmlschemas/TrackPointExtension/v1">
            <gpxtpx:hr>111</gpxtpx:hr>
          </gpxtpx:TrackPointExtension>
        </extensions>
      </trkpt>
      <trkpt lat="45.78786" lon="3.10555">
        <ele>594.59997558594</ele>
        <time>2024-05-26T14:01:17.000Z</time>
        <extensions>
          <gpxtpx:TrackPointExtension xmlns:gpxtpx="http://www.garmin.com/xmlschemas/TrackPointExtension/v1">
            <gpxtpx:hr>110</gpxtpx:hr>
          </gpxtpx:TrackPointExtension>
        </extensions>
      </trkpt>
      <trkpt lat="45.78794" lon="3.10555">
        <ele>594</ele>
        <time>2024-05-26T14:01:20.000Z</time>
        <extensions>
          <gpxtpx:TrackPointExtension xmlns:gpxtpx="http://www.garmin.com/xmlschemas/TrackPointExtension/v1">
            <gpxtpx:hr>108</gpxtpx:hr>
          </gpxtpx:TrackPointExtension>
        </extensions>
      </trkpt>
      <trkpt lat="45.78798" lon="3.10552">
        <ele>593.40002441406</ele>
        <time>2024-05-26T14:01:22.000Z</time>
        <extensions>
          <gpxtpx:TrackPointExtension xmlns:gpxtpx="http://www.garmin.com/xmlschemas/TrackPointExtension/v1">
            <gpxtpx:hr>107</gpxtpx:hr>
          </gpxtpx:TrackPointExtension>
        </extensions>
      </trkpt>
      <trkpt lat="45.78805" lon="3.10556">
        <ele>593.20001220703</ele>
        <time>2024-05-26T14:01:26.000Z</time>
        <extensions>
          <gpxtpx:TrackPointExtension xmlns:gpxtpx="http://www.garmin.com/xmlschemas/TrackPointExtension/v1">
            <gpxtpx:hr>107</gpxtpx:hr>
          </gpxtpx:TrackPointExtension>
        </extensions>
      </trkpt>
      <trkpt lat="45.78805" lon="3.10556">
        <ele>593.20001220703</ele>
        <time>2024-05-26T14:01:28.000Z</time>
        <extensions>
          <gpxtpx:TrackPointExtension xmlns:gpxtpx="http://www.garmin.com/xmlschemas/TrackPointExtension/v1">
            <gpxtpx:hr>107</gpxtpx:hr>
          </gpxtpx:TrackPointExtension>
        </extensions>
      </trkpt>
    </trkseg>
  </trk>
</gpx>